<?xml version="1.0" encoding="UTF-8"?>
<gpx creator="StravaGPX" version="1.1" xmlns="http://www.topografix.com/GPX/1/1" xmlns:xsi="http://www.w3.org/2001/XMLSchema-instance" xsi:schemaLocation="http://www.topografix.com/GPX/1/1 http://www.topografix.com/GPX/1/1/gpx.xsd">
 <metadata>
  <time>2026-06-22T04:56:49Z</time>
 </metadata>
 <trk>
  <name>Day 3/5 Team Kilimanjaro 🙌🏻🙏🇹🇿🏔️(Umbwe route)</name>
  <type>hiking</type>
  <trkseg>
   <trkpt lat="-3.0954750" lon="37.3295750">
    <ele>3965.4</ele>
    <time>2026-06-22T04:56:49Z</time>
   </trkpt>
   <trkpt lat="-3.0954750" lon="37.3295750">
    <ele>3965.4</ele>
    <time>2026-06-22T04:56:50Z</time>
   </trkpt>
   <trkpt lat="-3.0954750" lon="37.3295720">
    <ele>3965.4</ele>
    <time>2026-06-22T04:56:51Z</time>
   </trkpt>
   <trkpt lat="-3.0954730" lon="37.3295700">
    <ele>3965.4</ele>
    <time>2026-06-22T04:56:52Z</time>
   </trkpt>
   <trkpt lat="-3.0954730" lon="37.3295670">
    <ele>3965.4</ele>
    <time>2026-06-22T04:56:53Z</time>
   </trkpt>
   <trkpt lat="-3.0954790" lon="37.3295680">
    <ele>3965.4</ele>
    <time>2026-06-22T04:56:54Z</time>
   </trkpt>
   <trkpt lat="-3.0954760" lon="37.3295690">
    <ele>3965.4</ele>
    <time>2026-06-22T04:56:55Z</time>
   </trkpt>
   <trkpt lat="-3.0954700" lon="37.3295690">
    <ele>3965.4</ele>
    <time>2026-06-22T04:56:56Z</time>
   </trkpt>
   <trkpt lat="-3.0954750" lon="37.3295700">
    <ele>3965.4</ele>
    <time>2026-06-22T04:56:57Z</time>
   </trkpt>
   <trkpt lat="-3.0954770" lon="37.3295690">
    <ele>3965.4</ele>
    <time>2026-06-22T04:56:58Z</time>
   </trkpt>
   <trkpt lat="-3.0954800" lon="37.3295690">
    <ele>3965.4</ele>
    <time>2026-06-22T04:56:59Z</time>
   </trkpt>
   <trkpt lat="-3.0954850" lon="37.3295720">
    <ele>3965.4</ele>
    <time>2026-06-22T04:57:00Z</time>
   </trkpt>
   <trkpt lat="-3.0954850" lon="37.3295710">
    <ele>3965.4</ele>
    <time>2026-06-22T04:57:01Z</time>
   </trkpt>
   <trkpt lat="-3.0954870" lon="37.3295690">
    <ele>3965.3</ele>
    <time>2026-06-22T04:57:02Z</time>
   </trkpt>
   <trkpt lat="-3.0954870" lon="37.3295680">
    <ele>3965.3</ele>
    <time>2026-06-22T04:57:03Z</time>
   </trkpt>
   <trkpt lat="-3.0954870" lon="37.3295670">
    <ele>3965.3</ele>
    <time>2026-06-22T04:57:04Z</time>
   </trkpt>
   <trkpt lat="-3.0954900" lon="37.3295670">
    <ele>3965.3</ele>
    <time>2026-06-22T04:57:05Z</time>
   </trkpt>
   <trkpt lat="-3.0954880" lon="37.3295640">
    <ele>3965.3</ele>
    <time>2026-06-22T04:57:06Z</time>
   </trkpt>
   <trkpt lat="-3.0954900" lon="37.3295700">
    <ele>3965.3</ele>
    <time>2026-06-22T04:57:07Z</time>
   </trkpt>
   <trkpt lat="-3.0954880" lon="37.3295700">
    <ele>3965.3</ele>
    <time>2026-06-22T04:57:08Z</time>
   </trkpt>
   <trkpt lat="-3.0954830" lon="37.3295700">
    <ele>3965.3</ele>
    <time>2026-06-22T04:57:09Z</time>
   </trkpt>
   <trkpt lat="-3.0954860" lon="37.3295680">
    <ele>3965.3</ele>
    <time>2026-06-22T04:57:10Z</time>
   </trkpt>
   <trkpt lat="-3.0954920" lon="37.3295650">
    <ele>3965.3</ele>
    <time>2026-06-22T04:57:11Z</time>
   </trkpt>
   <trkpt lat="-3.0954950" lon="37.3295620">
    <ele>3965.3</ele>
    <time>2026-06-22T04:57:12Z</time>
   </trkpt>
   <trkpt lat="-3.0954960" lon="37.3295590">
    <ele>3965.3</ele>
    <time>2026-06-22T04:57:13Z</time>
   </trkpt>
   <trkpt lat="-3.0954930" lon="37.3295600">
    <ele>3965.3</ele>
    <time>2026-06-22T04:57:14Z</time>
   </trkpt>
   <trkpt lat="-3.0954870" lon="37.3295590">
    <ele>3965.3</ele>
    <time>2026-06-22T04:57:15Z</time>
   </trkpt>
   <trkpt lat="-3.0954860" lon="37.3295600">
    <ele>3965.3</ele>
    <time>2026-06-22T04:57:16Z</time>
   </trkpt>
   <trkpt lat="-3.0954830" lon="37.3295660">
    <ele>3965.3</ele>
    <time>2026-06-22T04:57:17Z</time>
   </trkpt>
   <trkpt lat="-3.0954750" lon="37.3295630">
    <ele>3965.3</ele>
    <time>2026-06-22T04:57:18Z</time>
   </trkpt>
   <trkpt lat="-3.0954750" lon="37.3295630">
    <ele>3965.3</ele>
    <time>2026-06-22T04:57:19Z</time>
   </trkpt>
   <trkpt lat="-3.0954740" lon="37.3295680">
    <ele>3965.3</ele>
    <time>2026-06-22T04:57:20Z</time>
   </trkpt>
   <trkpt lat="-3.0954730" lon="37.3295660">
    <ele>3965.3</ele>
    <time>2026-06-22T04:57:21Z</time>
   </trkpt>
   <trkpt lat="-3.0954760" lon="37.3295700">
    <ele>3965.3</ele>
    <time>2026-06-22T04:57:22Z</time>
   </trkpt>
   <trkpt lat="-3.0954780" lon="37.3295740">
    <ele>3965.3</ele>
    <time>2026-06-22T04:57:23Z</time>
   </trkpt>
   <trkpt lat="-3.0954800" lon="37.3295800">
    <ele>3965.2</ele>
    <time>2026-06-22T04:57:24Z</time>
   </trkpt>
   <trkpt lat="-3.0954830" lon="37.3295920">
    <ele>3965.2</ele>
    <time>2026-06-22T04:57:25Z</time>
   </trkpt>
   <trkpt lat="-3.0954760" lon="37.3295980">
    <ele>3965.2</ele>
    <time>2026-06-22T04:57:26Z</time>
   </trkpt>
   <trkpt lat="-3.0954680" lon="37.3296050">
    <ele>3965.2</ele>
    <time>2026-06-22T04:57:27Z</time>
   </trkpt>
   <trkpt lat="-3.0954630" lon="37.3296090">
    <ele>3965.2</ele>
    <time>2026-06-22T04:57:28Z</time>
   </trkpt>
   <trkpt lat="-3.0954620" lon="37.3296150">
    <ele>3965.2</ele>
    <time>2026-06-22T04:57:29Z</time>
   </trkpt>
   <trkpt lat="-3.0954580" lon="37.3296170">
    <ele>3965.2</ele>
    <time>2026-06-22T04:57:30Z</time>
   </trkpt>
   <trkpt lat="-3.0954590" lon="37.3296220">
    <ele>3965.2</ele>
    <time>2026-06-22T04:57:31Z</time>
   </trkpt>
   <trkpt lat="-3.0954540" lon="37.3296260">
    <ele>3965.2</ele>
    <time>2026-06-22T04:57:32Z</time>
   </trkpt>
   <trkpt lat="-3.0954510" lon="37.3296340">
    <ele>3965.2</ele>
    <time>2026-06-22T04:57:33Z</time>
   </trkpt>
   <trkpt lat="-3.0954480" lon="37.3296490">
    <ele>3965.1</ele>
    <time>2026-06-22T04:57:34Z</time>
   </trkpt>
   <trkpt lat="-3.0954390" lon="37.3296520">
    <ele>3965.1</ele>
    <time>2026-06-22T04:57:35Z</time>
   </trkpt>
   <trkpt lat="-3.0954350" lon="37.3296610">
    <ele>3965.1</ele>
    <time>2026-06-22T04:57:36Z</time>
   </trkpt>
   <trkpt lat="-3.0954300" lon="37.3296690">
    <ele>3965.1</ele>
    <time>2026-06-22T04:57:37Z</time>
   </trkpt>
   <trkpt lat="-3.0954260" lon="37.3296720">
    <ele>3965.1</ele>
    <time>2026-06-22T04:57:38Z</time>
   </trkpt>
   <trkpt lat="-3.0954230" lon="37.3296740">
    <ele>3965.1</ele>
    <time>2026-06-22T04:57:39Z</time>
   </trkpt>
   <trkpt lat="-3.0954230" lon="37.3296760">
    <ele>3965.1</ele>
    <time>2026-06-22T04:57:40Z</time>
   </trkpt>
   <trkpt lat="-3.0954190" lon="37.3296870">
    <ele>3965.2</ele>
    <time>2026-06-22T04:57:41Z</time>
   </trkpt>
   <trkpt lat="-3.0954210" lon="37.3296930">
    <ele>3965.3</ele>
    <time>2026-06-22T04:57:42Z</time>
   </trkpt>
   <trkpt lat="-3.0954150" lon="37.3297030">
    <ele>3965.5</ele>
    <time>2026-06-22T04:57:43Z</time>
   </trkpt>
   <trkpt lat="-3.0954100" lon="37.3297090">
    <ele>3965.6</ele>
    <time>2026-06-22T04:57:44Z</time>
   </trkpt>
   <trkpt lat="-3.0954070" lon="37.3297150">
    <ele>3965.7</ele>
    <time>2026-06-22T04:57:45Z</time>
   </trkpt>
   <trkpt lat="-3.0953990" lon="37.3297240">
    <ele>3965.8</ele>
    <time>2026-06-22T04:57:46Z</time>
   </trkpt>
   <trkpt lat="-3.0953970" lon="37.3297280">
    <ele>3965.9</ele>
    <time>2026-06-22T04:57:47Z</time>
   </trkpt>
   <trkpt lat="-3.0953950" lon="37.3297300">
    <ele>3965.9</ele>
    <time>2026-06-22T04:57:48Z</time>
   </trkpt>
   <trkpt lat="-3.0953920" lon="37.3297380">
    <ele>3966.1</ele>
    <time>2026-06-22T04:57:49Z</time>
   </trkpt>
   <trkpt lat="-3.0953860" lon="37.3297500">
    <ele>3966.3</ele>
    <time>2026-06-22T04:57:50Z</time>
   </trkpt>
   <trkpt lat="-3.0953810" lon="37.3297560">
    <ele>3966.4</ele>
    <time>2026-06-22T04:57:51Z</time>
   </trkpt>
   <trkpt lat="-3.0953800" lon="37.3297620">
    <ele>3966.4</ele>
    <time>2026-06-22T04:57:52Z</time>
   </trkpt>
   <trkpt lat="-3.0953790" lon="37.3297720">
    <ele>3966.6</ele>
    <time>2026-06-22T04:57:53Z</time>
   </trkpt>
   <trkpt lat="-3.0953800" lon="37.3297800">
    <ele>3966.7</ele>
    <time>2026-06-22T04:57:54Z</time>
   </trkpt>
   <trkpt lat="-3.0953800" lon="37.3297890">
    <ele>3966.8</ele>
    <time>2026-06-22T04:57:55Z</time>
   </trkpt>
   <trkpt lat="-3.0953800" lon="37.3297950">
    <ele>3966.9</ele>
    <time>2026-06-22T04:57:56Z</time>
   </trkpt>
   <trkpt lat="-3.0953840" lon="37.3297990">
    <ele>3967.0</ele>
    <time>2026-06-22T04:57:57Z</time>
   </trkpt>
   <trkpt lat="-3.0953850" lon="37.3298040">
    <ele>3967.1</ele>
    <time>2026-06-22T04:57:58Z</time>
   </trkpt>
   <trkpt lat="-3.0953820" lon="37.3298110">
    <ele>3967.2</ele>
    <time>2026-06-22T04:57:59Z</time>
   </trkpt>
   <trkpt lat="-3.0953800" lon="37.3298140">
    <ele>3967.3</ele>
    <time>2026-06-22T04:58:00Z</time>
   </trkpt>
   <trkpt lat="-3.0953730" lon="37.3298210">
    <ele>3967.4</ele>
    <time>2026-06-22T04:58:01Z</time>
   </trkpt>
   <trkpt lat="-3.0953680" lon="37.3298250">
    <ele>3967.5</ele>
    <time>2026-06-22T04:58:02Z</time>
   </trkpt>
   <trkpt lat="-3.0953640" lon="37.3298340">
    <ele>3967.7</ele>
    <time>2026-06-22T04:58:03Z</time>
   </trkpt>
   <trkpt lat="-3.0953620" lon="37.3298440">
    <ele>3967.9</ele>
    <time>2026-06-22T04:58:04Z</time>
   </trkpt>
   <trkpt lat="-3.0953650" lon="37.3298540">
    <ele>3968.0</ele>
    <time>2026-06-22T04:58:05Z</time>
   </trkpt>
   <trkpt lat="-3.0953650" lon="37.3298610">
    <ele>3968.2</ele>
    <time>2026-06-22T04:58:06Z</time>
   </trkpt>
   <trkpt lat="-3.0953650" lon="37.3298690">
    <ele>3968.3</ele>
    <time>2026-06-22T04:58:07Z</time>
   </trkpt>
   <trkpt lat="-3.0953650" lon="37.3298780">
    <ele>3968.4</ele>
    <time>2026-06-22T04:58:08Z</time>
   </trkpt>
   <trkpt lat="-3.0953640" lon="37.3298860">
    <ele>3968.6</ele>
    <time>2026-06-22T04:58:09Z</time>
   </trkpt>
   <trkpt lat="-3.0953650" lon="37.3298860">
    <ele>3968.6</ele>
    <time>2026-06-22T04:58:10Z</time>
   </trkpt>
   <trkpt lat="-3.0953630" lon="37.3299020">
    <ele>3968.9</ele>
    <time>2026-06-22T04:58:11Z</time>
   </trkpt>
   <trkpt lat="-3.0953660" lon="37.3299100">
    <ele>3969.0</ele>
    <time>2026-06-22T04:58:12Z</time>
   </trkpt>
   <trkpt lat="-3.0953680" lon="37.3299210">
    <ele>3969.2</ele>
    <time>2026-06-22T04:58:13Z</time>
   </trkpt>
   <trkpt lat="-3.0953670" lon="37.3299230">
    <ele>3969.2</ele>
    <time>2026-06-22T04:58:14Z</time>
   </trkpt>
   <trkpt lat="-3.0953670" lon="37.3299330">
    <ele>3969.4</ele>
    <time>2026-06-22T04:58:15Z</time>
   </trkpt>
   <trkpt lat="-3.0953670" lon="37.3299420">
    <ele>3969.5</ele>
    <time>2026-06-22T04:58:16Z</time>
   </trkpt>
   <trkpt lat="-3.0953660" lon="37.3299520">
    <ele>3969.7</ele>
    <time>2026-06-22T04:58:17Z</time>
   </trkpt>
   <trkpt lat="-3.0953710" lon="37.3299590">
    <ele>3969.9</ele>
    <time>2026-06-22T04:58:18Z</time>
   </trkpt>
   <trkpt lat="-3.0953670" lon="37.3299630">
    <ele>3970.0</ele>
    <time>2026-06-22T04:58:19Z</time>
   </trkpt>
   <trkpt lat="-3.0953650" lon="37.3299700">
    <ele>3970.1</ele>
    <time>2026-06-22T04:58:20Z</time>
   </trkpt>
   <trkpt lat="-3.0953660" lon="37.3299780">
    <ele>3970.2</ele>
    <time>2026-06-22T04:58:21Z</time>
   </trkpt>
   <trkpt lat="-3.0953660" lon="37.3299920">
    <ele>3970.5</ele>
    <time>2026-06-22T04:58:22Z</time>
   </trkpt>
   <trkpt lat="-3.0953690" lon="37.3299990">
    <ele>3970.6</ele>
    <time>2026-06-22T04:58:23Z</time>
   </trkpt>
   <trkpt lat="-3.0953630" lon="37.3300020">
    <ele>3970.7</ele>
    <time>2026-06-22T04:58:24Z</time>
   </trkpt>
   <trkpt lat="-3.0953550" lon="37.3300110">
    <ele>3970.9</ele>
    <time>2026-06-22T04:58:25Z</time>
   </trkpt>
   <trkpt lat="-3.0953540" lon="37.3300080">
    <ele>3971.0</ele>
    <time>2026-06-22T04:58:26Z</time>
   </trkpt>
   <trkpt lat="-3.0953470" lon="37.3300130">
    <ele>3971.1</ele>
    <time>2026-06-22T04:58:27Z</time>
   </trkpt>
   <trkpt lat="-3.0953460" lon="37.3300160">
    <ele>3971.2</ele>
    <time>2026-06-22T04:58:28Z</time>
   </trkpt>
   <trkpt lat="-3.0953430" lon="37.3300230">
    <ele>3971.3</ele>
    <time>2026-06-22T04:58:29Z</time>
   </trkpt>
   <trkpt lat="-3.0953380" lon="37.3300300">
    <ele>3971.4</ele>
    <time>2026-06-22T04:58:30Z</time>
   </trkpt>
   <trkpt lat="-3.0953310" lon="37.3300380">
    <ele>3971.6</ele>
    <time>2026-06-22T04:58:31Z</time>
   </trkpt>
   <trkpt lat="-3.0953280" lon="37.3300460">
    <ele>3971.7</ele>
    <time>2026-06-22T04:58:32Z</time>
   </trkpt>
   <trkpt lat="-3.0953250" lon="37.3300560">
    <ele>3971.9</ele>
    <time>2026-06-22T04:58:33Z</time>
   </trkpt>
   <trkpt lat="-3.0953220" lon="37.3300590">
    <ele>3972.0</ele>
    <time>2026-06-22T04:58:34Z</time>
   </trkpt>
   <trkpt lat="-3.0953190" lon="37.3300640">
    <ele>3972.1</ele>
    <time>2026-06-22T04:58:35Z</time>
   </trkpt>
   <trkpt lat="-3.0953160" lon="37.3300680">
    <ele>3972.2</ele>
    <time>2026-06-22T04:58:36Z</time>
   </trkpt>
   <trkpt lat="-3.0953140" lon="37.3300730">
    <ele>3972.3</ele>
    <time>2026-06-22T04:58:37Z</time>
   </trkpt>
   <trkpt lat="-3.0953120" lon="37.3300760">
    <ele>3972.3</ele>
    <time>2026-06-22T04:58:38Z</time>
   </trkpt>
   <trkpt lat="-3.0953080" lon="37.3300840">
    <ele>3972.5</ele>
    <time>2026-06-22T04:58:39Z</time>
   </trkpt>
   <trkpt lat="-3.0953050" lon="37.3300880">
    <ele>3972.5</ele>
    <time>2026-06-22T04:58:40Z</time>
   </trkpt>
   <trkpt lat="-3.0953000" lon="37.3300970">
    <ele>3972.7</ele>
    <time>2026-06-22T04:58:41Z</time>
   </trkpt>
   <trkpt lat="-3.0953040" lon="37.3300950">
    <ele>3972.8</ele>
    <time>2026-06-22T04:58:42Z</time>
   </trkpt>
   <trkpt lat="-3.0952980" lon="37.3301070">
    <ele>3973.0</ele>
    <time>2026-06-22T04:58:43Z</time>
   </trkpt>
   <trkpt lat="-3.0952940" lon="37.3301070">
    <ele>3973.1</ele>
    <time>2026-06-22T04:58:44Z</time>
   </trkpt>
   <trkpt lat="-3.0952870" lon="37.3301100">
    <ele>3973.2</ele>
    <time>2026-06-22T04:58:45Z</time>
   </trkpt>
   <trkpt lat="-3.0952790" lon="37.3301140">
    <ele>3973.3</ele>
    <time>2026-06-22T04:58:46Z</time>
   </trkpt>
   <trkpt lat="-3.0952760" lon="37.3301140">
    <ele>3973.3</ele>
    <time>2026-06-22T04:58:47Z</time>
   </trkpt>
   <trkpt lat="-3.0952700" lon="37.3301180">
    <ele>3973.4</ele>
    <time>2026-06-22T04:58:48Z</time>
   </trkpt>
   <trkpt lat="-3.0952640" lon="37.3301250">
    <ele>3973.5</ele>
    <time>2026-06-22T04:58:49Z</time>
   </trkpt>
   <trkpt lat="-3.0952580" lon="37.3301340">
    <ele>3973.7</ele>
    <time>2026-06-22T04:58:50Z</time>
   </trkpt>
   <trkpt lat="-3.0952560" lon="37.3301440">
    <ele>3973.8</ele>
    <time>2026-06-22T04:58:51Z</time>
   </trkpt>
   <trkpt lat="-3.0952550" lon="37.3301540">
    <ele>3973.9</ele>
    <time>2026-06-22T04:58:52Z</time>
   </trkpt>
   <trkpt lat="-3.0952510" lon="37.3301660">
    <ele>3974.1</ele>
    <time>2026-06-22T04:58:53Z</time>
   </trkpt>
   <trkpt lat="-3.0952510" lon="37.3301690">
    <ele>3974.1</ele>
    <time>2026-06-22T04:58:54Z</time>
   </trkpt>
   <trkpt lat="-3.0952460" lon="37.3301800">
    <ele>3974.2</ele>
    <time>2026-06-22T04:58:55Z</time>
   </trkpt>
   <trkpt lat="-3.0952410" lon="37.3301840">
    <ele>3974.3</ele>
    <time>2026-06-22T04:58:56Z</time>
   </trkpt>
   <trkpt lat="-3.0952390" lon="37.3301930">
    <ele>3974.4</ele>
    <time>2026-06-22T04:58:57Z</time>
   </trkpt>
   <trkpt lat="-3.0952360" lon="37.3302010">
    <ele>3974.5</ele>
    <time>2026-06-22T04:58:58Z</time>
   </trkpt>
   <trkpt lat="-3.0952320" lon="37.3302080">
    <ele>3974.5</ele>
    <time>2026-06-22T04:58:59Z</time>
   </trkpt>
   <trkpt lat="-3.0952290" lon="37.3302100">
    <ele>3974.6</ele>
    <time>2026-06-22T04:59:00Z</time>
   </trkpt>
   <trkpt lat="-3.0952200" lon="37.3302180">
    <ele>3974.7</ele>
    <time>2026-06-22T04:59:01Z</time>
   </trkpt>
   <trkpt lat="-3.0952120" lon="37.3302210">
    <ele>3974.7</ele>
    <time>2026-06-22T04:59:02Z</time>
   </trkpt>
   <trkpt lat="-3.0952040" lon="37.3302270">
    <ele>3974.8</ele>
    <time>2026-06-22T04:59:03Z</time>
   </trkpt>
   <trkpt lat="-3.0951930" lon="37.3302360">
    <ele>3974.9</ele>
    <time>2026-06-22T04:59:04Z</time>
   </trkpt>
   <trkpt lat="-3.0951860" lon="37.3302410">
    <ele>3974.9</ele>
    <time>2026-06-22T04:59:05Z</time>
   </trkpt>
   <trkpt lat="-3.0951790" lon="37.3302470">
    <ele>3975.0</ele>
    <time>2026-06-22T04:59:06Z</time>
   </trkpt>
   <trkpt lat="-3.0951740" lon="37.3302520">
    <ele>3975.1</ele>
    <time>2026-06-22T04:59:07Z</time>
   </trkpt>
   <trkpt lat="-3.0951680" lon="37.3302590">
    <ele>3975.1</ele>
    <time>2026-06-22T04:59:08Z</time>
   </trkpt>
   <trkpt lat="-3.0951710" lon="37.3302650">
    <ele>3975.1</ele>
    <time>2026-06-22T04:59:09Z</time>
   </trkpt>
   <trkpt lat="-3.0951710" lon="37.3302740">
    <ele>3975.2</ele>
    <time>2026-06-22T04:59:10Z</time>
   </trkpt>
   <trkpt lat="-3.0951650" lon="37.3302830">
    <ele>3975.2</ele>
    <time>2026-06-22T04:59:11Z</time>
   </trkpt>
   <trkpt lat="-3.0951580" lon="37.3302890">
    <ele>3975.2</ele>
    <time>2026-06-22T04:59:12Z</time>
   </trkpt>
   <trkpt lat="-3.0951500" lon="37.3302970">
    <ele>3975.3</ele>
    <time>2026-06-22T04:59:13Z</time>
   </trkpt>
   <trkpt lat="-3.0951500" lon="37.3303030">
    <ele>3975.3</ele>
    <time>2026-06-22T04:59:14Z</time>
   </trkpt>
   <trkpt lat="-3.0951500" lon="37.3303100">
    <ele>3975.3</ele>
    <time>2026-06-22T04:59:15Z</time>
   </trkpt>
   <trkpt lat="-3.0951510" lon="37.3303200">
    <ele>3975.3</ele>
    <time>2026-06-22T04:59:16Z</time>
   </trkpt>
   <trkpt lat="-3.0951490" lon="37.3303290">
    <ele>3975.3</ele>
    <time>2026-06-22T04:59:17Z</time>
   </trkpt>
   <trkpt lat="-3.0951450" lon="37.3303340">
    <ele>3975.3</ele>
    <time>2026-06-22T04:59:18Z</time>
   </trkpt>
   <trkpt lat="-3.0951400" lon="37.3303390">
    <ele>3975.3</ele>
    <time>2026-06-22T04:59:19Z</time>
   </trkpt>
   <trkpt lat="-3.0951350" lon="37.3303450">
    <ele>3975.3</ele>
    <time>2026-06-22T04:59:20Z</time>
   </trkpt>
   <trkpt lat="-3.0951280" lon="37.3303500">
    <ele>3975.3</ele>
    <time>2026-06-22T04:59:21Z</time>
   </trkpt>
   <trkpt lat="-3.0951190" lon="37.3303560">
    <ele>3975.3</ele>
    <time>2026-06-22T04:59:22Z</time>
   </trkpt>
   <trkpt lat="-3.0951150" lon="37.3303590">
    <ele>3975.3</ele>
    <time>2026-06-22T04:59:23Z</time>
   </trkpt>
   <trkpt lat="-3.0951100" lon="37.3303640">
    <ele>3975.3</ele>
    <time>2026-06-22T04:59:24Z</time>
   </trkpt>
   <trkpt lat="-3.0951050" lon="37.3303690">
    <ele>3975.3</ele>
    <time>2026-06-22T04:59:25Z</time>
   </trkpt>
   <trkpt lat="-3.0950990" lon="37.3303720">
    <ele>3975.3</ele>
    <time>2026-06-22T04:59:26Z</time>
   </trkpt>
   <trkpt lat="-3.0950920" lon="37.3303760">
    <ele>3975.3</ele>
    <time>2026-06-22T04:59:27Z</time>
   </trkpt>
   <trkpt lat="-3.0950860" lon="37.3303800">
    <ele>3975.3</ele>
    <time>2026-06-22T04:59:28Z</time>
   </trkpt>
   <trkpt lat="-3.0950810" lon="37.3303860">
    <ele>3975.2</ele>
    <time>2026-06-22T04:59:29Z</time>
   </trkpt>
   <trkpt lat="-3.0950790" lon="37.3303880">
    <ele>3975.2</ele>
    <time>2026-06-22T04:59:30Z</time>
   </trkpt>
   <trkpt lat="-3.0950740" lon="37.3303930">
    <ele>3975.2</ele>
    <time>2026-06-22T04:59:31Z</time>
   </trkpt>
   <trkpt lat="-3.0950690" lon="37.3303980">
    <ele>3975.2</ele>
    <time>2026-06-22T04:59:32Z</time>
   </trkpt>
   <trkpt lat="-3.0950640" lon="37.3304040">
    <ele>3975.2</ele>
    <time>2026-06-22T04:59:33Z</time>
   </trkpt>
   <trkpt lat="-3.0950590" lon="37.3304090">
    <ele>3975.2</ele>
    <time>2026-06-22T04:59:34Z</time>
   </trkpt>
   <trkpt lat="-3.0950540" lon="37.3304130">
    <ele>3975.1</ele>
    <time>2026-06-22T04:59:35Z</time>
   </trkpt>
   <trkpt lat="-3.0950510" lon="37.3304160">
    <ele>3975.1</ele>
    <time>2026-06-22T04:59:36Z</time>
   </trkpt>
   <trkpt lat="-3.0950520" lon="37.3304170">
    <ele>3975.1</ele>
    <time>2026-06-22T04:59:37Z</time>
   </trkpt>
   <trkpt lat="-3.0950470" lon="37.3304230">
    <ele>3975.1</ele>
    <time>2026-06-22T04:59:38Z</time>
   </trkpt>
   <trkpt lat="-3.0950460" lon="37.3304260">
    <ele>3975.1</ele>
    <time>2026-06-22T04:59:39Z</time>
   </trkpt>
   <trkpt lat="-3.0950410" lon="37.3304320">
    <ele>3975.1</ele>
    <time>2026-06-22T04:59:40Z</time>
   </trkpt>
   <trkpt lat="-3.0950310" lon="37.3304380">
    <ele>3975.1</ele>
    <time>2026-06-22T04:59:41Z</time>
   </trkpt>
   <trkpt lat="-3.0950310" lon="37.3304320">
    <ele>3975.0</ele>
    <time>2026-06-22T04:59:42Z</time>
   </trkpt>
   <trkpt lat="-3.0950200" lon="37.3304390">
    <ele>3975.0</ele>
    <time>2026-06-22T04:59:43Z</time>
   </trkpt>
   <trkpt lat="-3.0950160" lon="37.3304420">
    <ele>3975.0</ele>
    <time>2026-06-22T04:59:44Z</time>
   </trkpt>
   <trkpt lat="-3.0950090" lon="37.3304430">
    <ele>3975.0</ele>
    <time>2026-06-22T04:59:45Z</time>
   </trkpt>
   <trkpt lat="-3.0950040" lon="37.3304460">
    <ele>3975.0</ele>
    <time>2026-06-22T04:59:46Z</time>
   </trkpt>
   <trkpt lat="-3.0950020" lon="37.3304470">
    <ele>3975.0</ele>
    <time>2026-06-22T04:59:47Z</time>
   </trkpt>
   <trkpt lat="-3.0950030" lon="37.3304500">
    <ele>3975.0</ele>
    <time>2026-06-22T04:59:48Z</time>
   </trkpt>
   <trkpt lat="-3.0949910" lon="37.3304590">
    <ele>3975.0</ele>
    <time>2026-06-22T04:59:49Z</time>
   </trkpt>
   <trkpt lat="-3.0949870" lon="37.3304540">
    <ele>3975.0</ele>
    <time>2026-06-22T04:59:50Z</time>
   </trkpt>
   <trkpt lat="-3.0949830" lon="37.3304550">
    <ele>3975.0</ele>
    <time>2026-06-22T04:59:51Z</time>
   </trkpt>
   <trkpt lat="-3.0949750" lon="37.3304580">
    <ele>3975.0</ele>
    <time>2026-06-22T04:59:52Z</time>
   </trkpt>
   <trkpt lat="-3.0949630" lon="37.3304600">
    <ele>3975.0</ele>
    <time>2026-06-22T04:59:53Z</time>
   </trkpt>
   <trkpt lat="-3.0949550" lon="37.3304630">
    <ele>3975.0</ele>
    <time>2026-06-22T04:59:54Z</time>
   </trkpt>
   <trkpt lat="-3.0949500" lon="37.3304650">
    <ele>3975.0</ele>
    <time>2026-06-22T04:59:55Z</time>
   </trkpt>
   <trkpt lat="-3.0949460" lon="37.3304690">
    <ele>3975.0</ele>
    <time>2026-06-22T04:59:56Z</time>
   </trkpt>
   <trkpt lat="-3.0949380" lon="37.3304790">
    <ele>3975.0</ele>
    <time>2026-06-22T04:59:57Z</time>
   </trkpt>
   <trkpt lat="-3.0949310" lon="37.3304820">
    <ele>3975.0</ele>
    <time>2026-06-22T04:59:58Z</time>
   </trkpt>
   <trkpt lat="-3.0949240" lon="37.3304870">
    <ele>3975.0</ele>
    <time>2026-06-22T04:59:59Z</time>
   </trkpt>
   <trkpt lat="-3.0949240" lon="37.3304870">
    <ele>3975.0</ele>
    <time>2026-06-22T05:00:00Z</time>
   </trkpt>
   <trkpt lat="-3.0949210" lon="37.3304920">
    <ele>3975.0</ele>
    <time>2026-06-22T05:00:01Z</time>
   </trkpt>
   <trkpt lat="-3.0949190" lon="37.3304950">
    <ele>3975.0</ele>
    <time>2026-06-22T05:00:02Z</time>
   </trkpt>
   <trkpt lat="-3.0949190" lon="37.3304970">
    <ele>3975.0</ele>
    <time>2026-06-22T05:00:03Z</time>
   </trkpt>
   <trkpt lat="-3.0949140" lon="37.3305020">
    <ele>3975.0</ele>
    <time>2026-06-22T05:00:04Z</time>
   </trkpt>
   <trkpt lat="-3.0949070" lon="37.3305110">
    <ele>3975.1</ele>
    <time>2026-06-22T05:00:05Z</time>
   </trkpt>
   <trkpt lat="-3.0949030" lon="37.3305200">
    <ele>3975.1</ele>
    <time>2026-06-22T05:00:06Z</time>
   </trkpt>
   <trkpt lat="-3.0949000" lon="37.3305220">
    <ele>3975.1</ele>
    <time>2026-06-22T05:00:07Z</time>
   </trkpt>
   <trkpt lat="-3.0948940" lon="37.3305250">
    <ele>3975.2</ele>
    <time>2026-06-22T05:00:08Z</time>
   </trkpt>
   <trkpt lat="-3.0948900" lon="37.3305290">
    <ele>3975.2</ele>
    <time>2026-06-22T05:00:09Z</time>
   </trkpt>
   <trkpt lat="-3.0948820" lon="37.3305370">
    <ele>3975.2</ele>
    <time>2026-06-22T05:00:10Z</time>
   </trkpt>
   <trkpt lat="-3.0948780" lon="37.3305400">
    <ele>3975.2</ele>
    <time>2026-06-22T05:00:11Z</time>
   </trkpt>
   <trkpt lat="-3.0948740" lon="37.3305480">
    <ele>3975.3</ele>
    <time>2026-06-22T05:00:12Z</time>
   </trkpt>
   <trkpt lat="-3.0948690" lon="37.3305610">
    <ele>3975.3</ele>
    <time>2026-06-22T05:00:13Z</time>
   </trkpt>
   <trkpt lat="-3.0948700" lon="37.3305690">
    <ele>3975.4</ele>
    <time>2026-06-22T05:00:14Z</time>
   </trkpt>
   <trkpt lat="-3.0948740" lon="37.3305770">
    <ele>3975.4</ele>
    <time>2026-06-22T05:00:15Z</time>
   </trkpt>
   <trkpt lat="-3.0948760" lon="37.3305830">
    <ele>3975.4</ele>
    <time>2026-06-22T05:00:16Z</time>
   </trkpt>
   <trkpt lat="-3.0948780" lon="37.3305920">
    <ele>3975.4</ele>
    <time>2026-06-22T05:00:17Z</time>
   </trkpt>
   <trkpt lat="-3.0948770" lon="37.3306000">
    <ele>3975.5</ele>
    <time>2026-06-22T05:00:18Z</time>
   </trkpt>
   <trkpt lat="-3.0948760" lon="37.3306040">
    <ele>3975.5</ele>
    <time>2026-06-22T05:00:19Z</time>
   </trkpt>
   <trkpt lat="-3.0948730" lon="37.3306090">
    <ele>3975.5</ele>
    <time>2026-06-22T05:00:20Z</time>
   </trkpt>
   <trkpt lat="-3.0948700" lon="37.3306120">
    <ele>3975.5</ele>
    <time>2026-06-22T05:00:21Z</time>
   </trkpt>
   <trkpt lat="-3.0948640" lon="37.3306210">
    <ele>3975.5</ele>
    <time>2026-06-22T05:00:22Z</time>
   </trkpt>
   <trkpt lat="-3.0948570" lon="37.3306310">
    <ele>3975.5</ele>
    <time>2026-06-22T05:00:23Z</time>
   </trkpt>
   <trkpt lat="-3.0948550" lon="37.3306360">
    <ele>3975.5</ele>
    <time>2026-06-22T05:00:24Z</time>
   </trkpt>
   <trkpt lat="-3.0948530" lon="37.3306400">
    <ele>3975.5</ele>
    <time>2026-06-22T05:00:25Z</time>
   </trkpt>
   <trkpt lat="-3.0948500" lon="37.3306450">
    <ele>3975.5</ele>
    <time>2026-06-22T05:00:26Z</time>
   </trkpt>
   <trkpt lat="-3.0948440" lon="37.3306500">
    <ele>3975.5</ele>
    <time>2026-06-22T05:00:27Z</time>
   </trkpt>
   <trkpt lat="-3.0948440" lon="37.3306580">
    <ele>3975.5</ele>
    <time>2026-06-22T05:00:28Z</time>
   </trkpt>
   <trkpt lat="-3.0948430" lon="37.3306650">
    <ele>3975.5</ele>
    <time>2026-06-22T05:00:29Z</time>
   </trkpt>
   <trkpt lat="-3.0948400" lon="37.3306670">
    <ele>3975.5</ele>
    <time>2026-06-22T05:00:30Z</time>
   </trkpt>
   <trkpt lat="-3.0948330" lon="37.3306740">
    <ele>3975.5</ele>
    <time>2026-06-22T05:00:31Z</time>
   </trkpt>
   <trkpt lat="-3.0948270" lon="37.3306850">
    <ele>3975.5</ele>
    <time>2026-06-22T05:00:32Z</time>
   </trkpt>
   <trkpt lat="-3.0948190" lon="37.3306920">
    <ele>3975.5</ele>
    <time>2026-06-22T05:00:33Z</time>
   </trkpt>
   <trkpt lat="-3.0948130" lon="37.3306970">
    <ele>3975.4</ele>
    <time>2026-06-22T05:00:34Z</time>
   </trkpt>
   <trkpt lat="-3.0948140" lon="37.3306980">
    <ele>3975.4</ele>
    <time>2026-06-22T05:00:35Z</time>
   </trkpt>
   <trkpt lat="-3.0948090" lon="37.3307040">
    <ele>3975.4</ele>
    <time>2026-06-22T05:00:36Z</time>
   </trkpt>
   <trkpt lat="-3.0948020" lon="37.3307090">
    <ele>3975.4</ele>
    <time>2026-06-22T05:00:37Z</time>
   </trkpt>
   <trkpt lat="-3.0947990" lon="37.3307150">
    <ele>3975.4</ele>
    <time>2026-06-22T05:00:38Z</time>
   </trkpt>
   <trkpt lat="-3.0947980" lon="37.3307240">
    <ele>3975.3</ele>
    <time>2026-06-22T05:00:39Z</time>
   </trkpt>
   <trkpt lat="-3.0947990" lon="37.3307280">
    <ele>3975.3</ele>
    <time>2026-06-22T05:00:40Z</time>
   </trkpt>
   <trkpt lat="-3.0947990" lon="37.3307360">
    <ele>3975.3</ele>
    <time>2026-06-22T05:00:41Z</time>
   </trkpt>
   <trkpt lat="-3.0947970" lon="37.3307410">
    <ele>3975.3</ele>
    <time>2026-06-22T05:00:42Z</time>
   </trkpt>
   <trkpt lat="-3.0947960" lon="37.3307450">
    <ele>3975.3</ele>
    <time>2026-06-22T05:00:43Z</time>
   </trkpt>
   <trkpt lat="-3.0947940" lon="37.3307510">
    <ele>3975.2</ele>
    <time>2026-06-22T05:00:44Z</time>
   </trkpt>
   <trkpt lat="-3.0947940" lon="37.3307570">
    <ele>3975.2</ele>
    <time>2026-06-22T05:00:45Z</time>
   </trkpt>
   <trkpt lat="-3.0947950" lon="37.3307610">
    <ele>3975.2</ele>
    <time>2026-06-22T05:00:46Z</time>
   </trkpt>
   <trkpt lat="-3.0948000" lon="37.3307640">
    <ele>3975.2</ele>
    <time>2026-06-22T05:00:47Z</time>
   </trkpt>
   <trkpt lat="-3.0948100" lon="37.3307730">
    <ele>3975.1</ele>
    <time>2026-06-22T05:00:49Z</time>
   </trkpt>
   <trkpt lat="-3.0948160" lon="37.3307800">
    <ele>3975.1</ele>
    <time>2026-06-22T05:00:50Z</time>
   </trkpt>
   <trkpt lat="-3.0948200" lon="37.3307840">
    <ele>3975.1</ele>
    <time>2026-06-22T05:00:51Z</time>
   </trkpt>
   <trkpt lat="-3.0948200" lon="37.3307880">
    <ele>3975.1</ele>
    <time>2026-06-22T05:00:52Z</time>
   </trkpt>
   <trkpt lat="-3.0948200" lon="37.3307950">
    <ele>3975.1</ele>
    <time>2026-06-22T05:00:53Z</time>
   </trkpt>
   <trkpt lat="-3.0948210" lon="37.3308040">
    <ele>3975.0</ele>
    <time>2026-06-22T05:00:54Z</time>
   </trkpt>
   <trkpt lat="-3.0948200" lon="37.3308100">
    <ele>3975.0</ele>
    <time>2026-06-22T05:00:55Z</time>
   </trkpt>
   <trkpt lat="-3.0948160" lon="37.3308110">
    <ele>3975.0</ele>
    <time>2026-06-22T05:00:56Z</time>
   </trkpt>
   <trkpt lat="-3.0948090" lon="37.3308180">
    <ele>3975.0</ele>
    <time>2026-06-22T05:00:57Z</time>
   </trkpt>
   <trkpt lat="-3.0948020" lon="37.3308220">
    <ele>3975.0</ele>
    <time>2026-06-22T05:00:58Z</time>
   </trkpt>
   <trkpt lat="-3.0947910" lon="37.3308260">
    <ele>3975.0</ele>
    <time>2026-06-22T05:00:59Z</time>
   </trkpt>
   <trkpt lat="-3.0947820" lon="37.3308300">
    <ele>3975.0</ele>
    <time>2026-06-22T05:01:00Z</time>
   </trkpt>
   <trkpt lat="-3.0947780" lon="37.3308350">
    <ele>3975.0</ele>
    <time>2026-06-22T05:01:01Z</time>
   </trkpt>
   <trkpt lat="-3.0947730" lon="37.3308370">
    <ele>3975.0</ele>
    <time>2026-06-22T05:01:02Z</time>
   </trkpt>
   <trkpt lat="-3.0947670" lon="37.3308410">
    <ele>3975.0</ele>
    <time>2026-06-22T05:01:03Z</time>
   </trkpt>
   <trkpt lat="-3.0947640" lon="37.3308450">
    <ele>3975.0</ele>
    <time>2026-06-22T05:01:04Z</time>
   </trkpt>
   <trkpt lat="-3.0947600" lon="37.3308520">
    <ele>3975.0</ele>
    <time>2026-06-22T05:01:05Z</time>
   </trkpt>
   <trkpt lat="-3.0947570" lon="37.3308600">
    <ele>3975.0</ele>
    <time>2026-06-22T05:01:06Z</time>
   </trkpt>
   <trkpt lat="-3.0947550" lon="37.3308610">
    <ele>3975.0</ele>
    <time>2026-06-22T05:01:07Z</time>
   </trkpt>
   <trkpt lat="-3.0947540" lon="37.3308580">
    <ele>3975.0</ele>
    <time>2026-06-22T05:01:08Z</time>
   </trkpt>
   <trkpt lat="-3.0947470" lon="37.3308610">
    <ele>3975.1</ele>
    <time>2026-06-22T05:01:09Z</time>
   </trkpt>
   <trkpt lat="-3.0947450" lon="37.3308590">
    <ele>3975.1</ele>
    <time>2026-06-22T05:01:10Z</time>
   </trkpt>
   <trkpt lat="-3.0947380" lon="37.3308630">
    <ele>3975.1</ele>
    <time>2026-06-22T05:01:11Z</time>
   </trkpt>
   <trkpt lat="-3.0947340" lon="37.3308690">
    <ele>3975.1</ele>
    <time>2026-06-22T05:01:12Z</time>
   </trkpt>
   <trkpt lat="-3.0947310" lon="37.3308740">
    <ele>3975.1</ele>
    <time>2026-06-22T05:01:13Z</time>
   </trkpt>
   <trkpt lat="-3.0947290" lon="37.3308770">
    <ele>3975.1</ele>
    <time>2026-06-22T05:01:14Z</time>
   </trkpt>
   <trkpt lat="-3.0947280" lon="37.3308790">
    <ele>3975.1</ele>
    <time>2026-06-22T05:01:15Z</time>
   </trkpt>
   <trkpt lat="-3.0947260" lon="37.3308810">
    <ele>3975.1</ele>
    <time>2026-06-22T05:01:16Z</time>
   </trkpt>
   <trkpt lat="-3.0947220" lon="37.3308830">
    <ele>3975.2</ele>
    <time>2026-06-22T05:01:17Z</time>
   </trkpt>
   <trkpt lat="-3.0947190" lon="37.3308850">
    <ele>3975.2</ele>
    <time>2026-06-22T05:01:18Z</time>
   </trkpt>
   <trkpt lat="-3.0947140" lon="37.3308880">
    <ele>3975.2</ele>
    <time>2026-06-22T05:01:19Z</time>
   </trkpt>
   <trkpt lat="-3.0947110" lon="37.3308900">
    <ele>3975.2</ele>
    <time>2026-06-22T05:01:20Z</time>
   </trkpt>
   <trkpt lat="-3.0947010" lon="37.3309030">
    <ele>3975.3</ele>
    <time>2026-06-22T05:01:21Z</time>
   </trkpt>
   <trkpt lat="-3.0946940" lon="37.3309110">
    <ele>3975.3</ele>
    <time>2026-06-22T05:01:22Z</time>
   </trkpt>
   <trkpt lat="-3.0946890" lon="37.3309150">
    <ele>3975.4</ele>
    <time>2026-06-22T05:01:23Z</time>
   </trkpt>
   <trkpt lat="-3.0946840" lon="37.3309220">
    <ele>3975.4</ele>
    <time>2026-06-22T05:01:24Z</time>
   </trkpt>
   <trkpt lat="-3.0946780" lon="37.3309270">
    <ele>3975.4</ele>
    <time>2026-06-22T05:01:25Z</time>
   </trkpt>
   <trkpt lat="-3.0946740" lon="37.3309300">
    <ele>3975.5</ele>
    <time>2026-06-22T05:01:26Z</time>
   </trkpt>
   <trkpt lat="-3.0946660" lon="37.3309350">
    <ele>3975.5</ele>
    <time>2026-06-22T05:01:27Z</time>
   </trkpt>
   <trkpt lat="-3.0946590" lon="37.3309380">
    <ele>3975.6</ele>
    <time>2026-06-22T05:01:28Z</time>
   </trkpt>
   <trkpt lat="-3.0946530" lon="37.3309410">
    <ele>3975.6</ele>
    <time>2026-06-22T05:01:29Z</time>
   </trkpt>
   <trkpt lat="-3.0946470" lon="37.3309470">
    <ele>3975.6</ele>
    <time>2026-06-22T05:01:30Z</time>
   </trkpt>
   <trkpt lat="-3.0946430" lon="37.3309540">
    <ele>3975.7</ele>
    <time>2026-06-22T05:01:31Z</time>
   </trkpt>
   <trkpt lat="-3.0946380" lon="37.3309580">
    <ele>3975.7</ele>
    <time>2026-06-22T05:01:32Z</time>
   </trkpt>
   <trkpt lat="-3.0946300" lon="37.3309630">
    <ele>3975.8</ele>
    <time>2026-06-22T05:01:33Z</time>
   </trkpt>
   <trkpt lat="-3.0946210" lon="37.3309670">
    <ele>3975.9</ele>
    <time>2026-06-22T05:01:34Z</time>
   </trkpt>
   <trkpt lat="-3.0946190" lon="37.3309670">
    <ele>3975.9</ele>
    <time>2026-06-22T05:01:35Z</time>
   </trkpt>
   <trkpt lat="-3.0946190" lon="37.3309720">
    <ele>3975.9</ele>
    <time>2026-06-22T05:01:36Z</time>
   </trkpt>
   <trkpt lat="-3.0946190" lon="37.3309790">
    <ele>3975.9</ele>
    <time>2026-06-22T05:01:37Z</time>
   </trkpt>
   <trkpt lat="-3.0946200" lon="37.3309770">
    <ele>3976.0</ele>
    <time>2026-06-22T05:01:38Z</time>
   </trkpt>
   <trkpt lat="-3.0946120" lon="37.3309840">
    <ele>3976.0</ele>
    <time>2026-06-22T05:01:39Z</time>
   </trkpt>
   <trkpt lat="-3.0946090" lon="37.3309900">
    <ele>3976.1</ele>
    <time>2026-06-22T05:01:40Z</time>
   </trkpt>
   <trkpt lat="-3.0946070" lon="37.3309930">
    <ele>3976.1</ele>
    <time>2026-06-22T05:01:41Z</time>
   </trkpt>
   <trkpt lat="-3.0946050" lon="37.3310000">
    <ele>3976.2</ele>
    <time>2026-06-22T05:01:42Z</time>
   </trkpt>
   <trkpt lat="-3.0946010" lon="37.3310060">
    <ele>3976.2</ele>
    <time>2026-06-22T05:01:43Z</time>
   </trkpt>
   <trkpt lat="-3.0945950" lon="37.3310050">
    <ele>3976.3</ele>
    <time>2026-06-22T05:01:44Z</time>
   </trkpt>
   <trkpt lat="-3.0945890" lon="37.3310070">
    <ele>3976.3</ele>
    <time>2026-06-22T05:01:45Z</time>
   </trkpt>
   <trkpt lat="-3.0945750" lon="37.3310140">
    <ele>3976.4</ele>
    <time>2026-06-22T05:01:46Z</time>
   </trkpt>
   <trkpt lat="-3.0945680" lon="37.3310170">
    <ele>3976.5</ele>
    <time>2026-06-22T05:01:47Z</time>
   </trkpt>
   <trkpt lat="-3.0945610" lon="37.3310230">
    <ele>3976.6</ele>
    <time>2026-06-22T05:01:48Z</time>
   </trkpt>
   <trkpt lat="-3.0945560" lon="37.3310250">
    <ele>3976.6</ele>
    <time>2026-06-22T05:01:49Z</time>
   </trkpt>
   <trkpt lat="-3.0945480" lon="37.3310300">
    <ele>3976.7</ele>
    <time>2026-06-22T05:01:50Z</time>
   </trkpt>
   <trkpt lat="-3.0945440" lon="37.3310340">
    <ele>3976.7</ele>
    <time>2026-06-22T05:01:51Z</time>
   </trkpt>
   <trkpt lat="-3.0945390" lon="37.3310390">
    <ele>3976.8</ele>
    <time>2026-06-22T05:01:52Z</time>
   </trkpt>
   <trkpt lat="-3.0945290" lon="37.3310460">
    <ele>3976.9</ele>
    <time>2026-06-22T05:01:53Z</time>
   </trkpt>
   <trkpt lat="-3.0945240" lon="37.3310500">
    <ele>3976.9</ele>
    <time>2026-06-22T05:01:54Z</time>
   </trkpt>
   <trkpt lat="-3.0945190" lon="37.3310530">
    <ele>3977.0</ele>
    <time>2026-06-22T05:01:55Z</time>
   </trkpt>
   <trkpt lat="-3.0945110" lon="37.3310570">
    <ele>3977.0</ele>
    <time>2026-06-22T05:01:56Z</time>
   </trkpt>
   <trkpt lat="-3.0945070" lon="37.3310640">
    <ele>3977.1</ele>
    <time>2026-06-22T05:01:57Z</time>
   </trkpt>
   <trkpt lat="-3.0944970" lon="37.3310830">
    <ele>3977.3</ele>
    <time>2026-06-22T05:01:58Z</time>
   </trkpt>
   <trkpt lat="-3.0944980" lon="37.3310740">
    <ele>3977.3</ele>
    <time>2026-06-22T05:01:59Z</time>
   </trkpt>
   <trkpt lat="-3.0944910" lon="37.3310700">
    <ele>3977.4</ele>
    <time>2026-06-22T05:02:00Z</time>
   </trkpt>
   <trkpt lat="-3.0944850" lon="37.3310740">
    <ele>3977.5</ele>
    <time>2026-06-22T05:02:01Z</time>
   </trkpt>
   <trkpt lat="-3.0944770" lon="37.3310790">
    <ele>3977.5</ele>
    <time>2026-06-22T05:02:02Z</time>
   </trkpt>
   <trkpt lat="-3.0944660" lon="37.3310820">
    <ele>3977.6</ele>
    <time>2026-06-22T05:02:03Z</time>
   </trkpt>
   <trkpt lat="-3.0944590" lon="37.3310860">
    <ele>3977.7</ele>
    <time>2026-06-22T05:02:04Z</time>
   </trkpt>
   <trkpt lat="-3.0944550" lon="37.3310880">
    <ele>3977.7</ele>
    <time>2026-06-22T05:02:05Z</time>
   </trkpt>
   <trkpt lat="-3.0944520" lon="37.3310880">
    <ele>3977.7</ele>
    <time>2026-06-22T05:02:06Z</time>
   </trkpt>
   <trkpt lat="-3.0944450" lon="37.3310910">
    <ele>3977.8</ele>
    <time>2026-06-22T05:02:07Z</time>
   </trkpt>
   <trkpt lat="-3.0944440" lon="37.3310900">
    <ele>3977.8</ele>
    <time>2026-06-22T05:02:08Z</time>
   </trkpt>
   <trkpt lat="-3.0944410" lon="37.3310890">
    <ele>3977.8</ele>
    <time>2026-06-22T05:02:09Z</time>
   </trkpt>
   <trkpt lat="-3.0944340" lon="37.3310890">
    <ele>3977.9</ele>
    <time>2026-06-22T05:02:10Z</time>
   </trkpt>
   <trkpt lat="-3.0944320" lon="37.3310890">
    <ele>3977.9</ele>
    <time>2026-06-22T05:02:11Z</time>
   </trkpt>
   <trkpt lat="-3.0944210" lon="37.3310860">
    <ele>3978.0</ele>
    <time>2026-06-22T05:02:12Z</time>
   </trkpt>
   <trkpt lat="-3.0944150" lon="37.3310890">
    <ele>3978.1</ele>
    <time>2026-06-22T05:02:13Z</time>
   </trkpt>
   <trkpt lat="-3.0944110" lon="37.3310890">
    <ele>3978.1</ele>
    <time>2026-06-22T05:02:14Z</time>
   </trkpt>
   <trkpt lat="-3.0944050" lon="37.3310890">
    <ele>3978.1</ele>
    <time>2026-06-22T05:02:15Z</time>
   </trkpt>
   <trkpt lat="-3.0943960" lon="37.3310920">
    <ele>3978.2</ele>
    <time>2026-06-22T05:02:16Z</time>
   </trkpt>
   <trkpt lat="-3.0943880" lon="37.3310980">
    <ele>3978.3</ele>
    <time>2026-06-22T05:02:17Z</time>
   </trkpt>
   <trkpt lat="-3.0943830" lon="37.3311010">
    <ele>3978.3</ele>
    <time>2026-06-22T05:02:18Z</time>
   </trkpt>
   <trkpt lat="-3.0943780" lon="37.3311060">
    <ele>3978.4</ele>
    <time>2026-06-22T05:02:19Z</time>
   </trkpt>
   <trkpt lat="-3.0943710" lon="37.3311110">
    <ele>3978.5</ele>
    <time>2026-06-22T05:02:20Z</time>
   </trkpt>
   <trkpt lat="-3.0943670" lon="37.3311170">
    <ele>3978.5</ele>
    <time>2026-06-22T05:02:21Z</time>
   </trkpt>
   <trkpt lat="-3.0943630" lon="37.3311220">
    <ele>3978.6</ele>
    <time>2026-06-22T05:02:22Z</time>
   </trkpt>
   <trkpt lat="-3.0943590" lon="37.3311250">
    <ele>3978.6</ele>
    <time>2026-06-22T05:02:23Z</time>
   </trkpt>
   <trkpt lat="-3.0943580" lon="37.3311290">
    <ele>3978.6</ele>
    <time>2026-06-22T05:02:24Z</time>
   </trkpt>
   <trkpt lat="-3.0943550" lon="37.3311280">
    <ele>3978.7</ele>
    <time>2026-06-22T05:02:25Z</time>
   </trkpt>
   <trkpt lat="-3.0943490" lon="37.3311260">
    <ele>3978.7</ele>
    <time>2026-06-22T05:02:26Z</time>
   </trkpt>
   <trkpt lat="-3.0943450" lon="37.3311270">
    <ele>3978.7</ele>
    <time>2026-06-22T05:02:27Z</time>
   </trkpt>
   <trkpt lat="-3.0943370" lon="37.3311270">
    <ele>3978.8</ele>
    <time>2026-06-22T05:02:28Z</time>
   </trkpt>
   <trkpt lat="-3.0943310" lon="37.3311370">
    <ele>3978.9</ele>
    <time>2026-06-22T05:02:29Z</time>
   </trkpt>
   <trkpt lat="-3.0943240" lon="37.3311290">
    <ele>3979.0</ele>
    <time>2026-06-22T05:02:30Z</time>
   </trkpt>
   <trkpt lat="-3.0943170" lon="37.3311300">
    <ele>3979.0</ele>
    <time>2026-06-22T05:02:31Z</time>
   </trkpt>
   <trkpt lat="-3.0943110" lon="37.3311330">
    <ele>3979.1</ele>
    <time>2026-06-22T05:02:32Z</time>
   </trkpt>
   <trkpt lat="-3.0943060" lon="37.3311360">
    <ele>3979.1</ele>
    <time>2026-06-22T05:02:33Z</time>
   </trkpt>
   <trkpt lat="-3.0943030" lon="37.3311370">
    <ele>3979.1</ele>
    <time>2026-06-22T05:02:34Z</time>
   </trkpt>
   <trkpt lat="-3.0943050" lon="37.3311360">
    <ele>3979.2</ele>
    <time>2026-06-22T05:02:35Z</time>
   </trkpt>
   <trkpt lat="-3.0943040" lon="37.3311370">
    <ele>3979.2</ele>
    <time>2026-06-22T05:02:36Z</time>
   </trkpt>
   <trkpt lat="-3.0943030" lon="37.3311370">
    <ele>3979.2</ele>
    <time>2026-06-22T05:02:37Z</time>
   </trkpt>
   <trkpt lat="-3.0943030" lon="37.3311350">
    <ele>3979.2</ele>
    <time>2026-06-22T05:02:38Z</time>
   </trkpt>
   <trkpt lat="-3.0942960" lon="37.3311380">
    <ele>3979.2</ele>
    <time>2026-06-22T05:02:39Z</time>
   </trkpt>
   <trkpt lat="-3.0942900" lon="37.3311410">
    <ele>3979.3</ele>
    <time>2026-06-22T05:02:40Z</time>
   </trkpt>
   <trkpt lat="-3.0942880" lon="37.3311380">
    <ele>3979.3</ele>
    <time>2026-06-22T05:02:41Z</time>
   </trkpt>
   <trkpt lat="-3.0942830" lon="37.3311410">
    <ele>3979.3</ele>
    <time>2026-06-22T05:02:42Z</time>
   </trkpt>
   <trkpt lat="-3.0942780" lon="37.3311430">
    <ele>3979.4</ele>
    <time>2026-06-22T05:02:43Z</time>
   </trkpt>
   <trkpt lat="-3.0942740" lon="37.3311440">
    <ele>3979.4</ele>
    <time>2026-06-22T05:02:44Z</time>
   </trkpt>
   <trkpt lat="-3.0942750" lon="37.3311410">
    <ele>3979.4</ele>
    <time>2026-06-22T05:02:45Z</time>
   </trkpt>
   <trkpt lat="-3.0942700" lon="37.3311420">
    <ele>3979.5</ele>
    <time>2026-06-22T05:02:46Z</time>
   </trkpt>
   <trkpt lat="-3.0942700" lon="37.3311390">
    <ele>3979.5</ele>
    <time>2026-06-22T05:02:47Z</time>
   </trkpt>
   <trkpt lat="-3.0942640" lon="37.3311400">
    <ele>3979.5</ele>
    <time>2026-06-22T05:02:48Z</time>
   </trkpt>
   <trkpt lat="-3.0942610" lon="37.3311410">
    <ele>3979.5</ele>
    <time>2026-06-22T05:02:49Z</time>
   </trkpt>
   <trkpt lat="-3.0942540" lon="37.3311310">
    <ele>3979.6</ele>
    <time>2026-06-22T05:02:50Z</time>
   </trkpt>
   <trkpt lat="-3.0942500" lon="37.3311270">
    <ele>3979.6</ele>
    <time>2026-06-22T05:02:51Z</time>
   </trkpt>
   <trkpt lat="-3.0942470" lon="37.3311220">
    <ele>3979.6</ele>
    <time>2026-06-22T05:02:52Z</time>
   </trkpt>
   <trkpt lat="-3.0942470" lon="37.3311210">
    <ele>3979.6</ele>
    <time>2026-06-22T05:02:53Z</time>
   </trkpt>
   <trkpt lat="-3.0942410" lon="37.3311190">
    <ele>3979.6</ele>
    <time>2026-06-22T05:02:55Z</time>
   </trkpt>
   <trkpt lat="-3.0942360" lon="37.3311210">
    <ele>3979.7</ele>
    <time>2026-06-22T05:02:56Z</time>
   </trkpt>
   <trkpt lat="-3.0942340" lon="37.3311200">
    <ele>3979.7</ele>
    <time>2026-06-22T05:02:57Z</time>
   </trkpt>
   <trkpt lat="-3.0942260" lon="37.3311180">
    <ele>3979.7</ele>
    <time>2026-06-22T05:02:58Z</time>
   </trkpt>
   <trkpt lat="-3.0942220" lon="37.3311190">
    <ele>3979.7</ele>
    <time>2026-06-22T05:02:59Z</time>
   </trkpt>
   <trkpt lat="-3.0942130" lon="37.3311220">
    <ele>3979.7</ele>
    <time>2026-06-22T05:03:00Z</time>
   </trkpt>
   <trkpt lat="-3.0942080" lon="37.3311200">
    <ele>3979.7</ele>
    <time>2026-06-22T05:03:01Z</time>
   </trkpt>
   <trkpt lat="-3.0941990" lon="37.3311190">
    <ele>3979.8</ele>
    <time>2026-06-22T05:03:02Z</time>
   </trkpt>
   <trkpt lat="-3.0941940" lon="37.3311170">
    <ele>3979.8</ele>
    <time>2026-06-22T05:03:03Z</time>
   </trkpt>
   <trkpt lat="-3.0941890" lon="37.3311190">
    <ele>3979.8</ele>
    <time>2026-06-22T05:03:04Z</time>
   </trkpt>
   <trkpt lat="-3.0941850" lon="37.3311260">
    <ele>3979.8</ele>
    <time>2026-06-22T05:03:05Z</time>
   </trkpt>
   <trkpt lat="-3.0941790" lon="37.3311320">
    <ele>3979.8</ele>
    <time>2026-06-22T05:03:06Z</time>
   </trkpt>
   <trkpt lat="-3.0941760" lon="37.3311350">
    <ele>3979.8</ele>
    <time>2026-06-22T05:03:07Z</time>
   </trkpt>
   <trkpt lat="-3.0941730" lon="37.3311450">
    <ele>3979.8</ele>
    <time>2026-06-22T05:03:08Z</time>
   </trkpt>
   <trkpt lat="-3.0941720" lon="37.3311520">
    <ele>3979.8</ele>
    <time>2026-06-22T05:03:09Z</time>
   </trkpt>
   <trkpt lat="-3.0941750" lon="37.3311540">
    <ele>3979.8</ele>
    <time>2026-06-22T05:03:10Z</time>
   </trkpt>
   <trkpt lat="-3.0941750" lon="37.3311570">
    <ele>3979.7</ele>
    <time>2026-06-22T05:03:11Z</time>
   </trkpt>
   <trkpt lat="-3.0941800" lon="37.3311650">
    <ele>3979.7</ele>
    <time>2026-06-22T05:03:12Z</time>
   </trkpt>
   <trkpt lat="-3.0941810" lon="37.3311740">
    <ele>3979.7</ele>
    <time>2026-06-22T05:03:13Z</time>
   </trkpt>
   <trkpt lat="-3.0941840" lon="37.3311810">
    <ele>3979.7</ele>
    <time>2026-06-22T05:03:14Z</time>
   </trkpt>
   <trkpt lat="-3.0941850" lon="37.3311870">
    <ele>3979.7</ele>
    <time>2026-06-22T05:03:15Z</time>
   </trkpt>
   <trkpt lat="-3.0941870" lon="37.3311950">
    <ele>3979.6</ele>
    <time>2026-06-22T05:03:16Z</time>
   </trkpt>
   <trkpt lat="-3.0941880" lon="37.3312000">
    <ele>3979.6</ele>
    <time>2026-06-22T05:03:17Z</time>
   </trkpt>
   <trkpt lat="-3.0941860" lon="37.3312070">
    <ele>3979.6</ele>
    <time>2026-06-22T05:03:18Z</time>
   </trkpt>
   <trkpt lat="-3.0941850" lon="37.3312140">
    <ele>3979.5</ele>
    <time>2026-06-22T05:03:19Z</time>
   </trkpt>
   <trkpt lat="-3.0941840" lon="37.3312210">
    <ele>3979.5</ele>
    <time>2026-06-22T05:03:20Z</time>
   </trkpt>
   <trkpt lat="-3.0941830" lon="37.3312290">
    <ele>3979.4</ele>
    <time>2026-06-22T05:03:21Z</time>
   </trkpt>
   <trkpt lat="-3.0941830" lon="37.3312360">
    <ele>3979.4</ele>
    <time>2026-06-22T05:03:22Z</time>
   </trkpt>
   <trkpt lat="-3.0941810" lon="37.3312420">
    <ele>3979.4</ele>
    <time>2026-06-22T05:03:23Z</time>
   </trkpt>
   <trkpt lat="-3.0941820" lon="37.3312460">
    <ele>3979.3</ele>
    <time>2026-06-22T05:03:24Z</time>
   </trkpt>
   <trkpt lat="-3.0941820" lon="37.3312490">
    <ele>3979.3</ele>
    <time>2026-06-22T05:03:25Z</time>
   </trkpt>
   <trkpt lat="-3.0941810" lon="37.3312500">
    <ele>3979.3</ele>
    <time>2026-06-22T05:03:26Z</time>
   </trkpt>
   <trkpt lat="-3.0941820" lon="37.3312530">
    <ele>3979.3</ele>
    <time>2026-06-22T05:03:27Z</time>
   </trkpt>
   <trkpt lat="-3.0941850" lon="37.3312580">
    <ele>3979.2</ele>
    <time>2026-06-22T05:03:28Z</time>
   </trkpt>
   <trkpt lat="-3.0941900" lon="37.3312620">
    <ele>3979.2</ele>
    <time>2026-06-22T05:03:29Z</time>
   </trkpt>
   <trkpt lat="-3.0941940" lon="37.3312650">
    <ele>3979.1</ele>
    <time>2026-06-22T05:03:30Z</time>
   </trkpt>
   <trkpt lat="-3.0941980" lon="37.3312680">
    <ele>3979.1</ele>
    <time>2026-06-22T05:03:31Z</time>
   </trkpt>
   <trkpt lat="-3.0942000" lon="37.3312720">
    <ele>3979.0</ele>
    <time>2026-06-22T05:03:32Z</time>
   </trkpt>
   <trkpt lat="-3.0942030" lon="37.3312760">
    <ele>3979.0</ele>
    <time>2026-06-22T05:03:33Z</time>
   </trkpt>
   <trkpt lat="-3.0942070" lon="37.3312800">
    <ele>3979.0</ele>
    <time>2026-06-22T05:03:34Z</time>
   </trkpt>
   <trkpt lat="-3.0942100" lon="37.3312810">
    <ele>3978.9</ele>
    <time>2026-06-22T05:03:35Z</time>
   </trkpt>
   <trkpt lat="-3.0942130" lon="37.3312850">
    <ele>3978.9</ele>
    <time>2026-06-22T05:03:36Z</time>
   </trkpt>
   <trkpt lat="-3.0942160" lon="37.3312870">
    <ele>3978.8</ele>
    <time>2026-06-22T05:03:37Z</time>
   </trkpt>
   <trkpt lat="-3.0942220" lon="37.3312870">
    <ele>3978.8</ele>
    <time>2026-06-22T05:03:38Z</time>
   </trkpt>
   <trkpt lat="-3.0942290" lon="37.3312870">
    <ele>3978.7</ele>
    <time>2026-06-22T05:03:39Z</time>
   </trkpt>
   <trkpt lat="-3.0942340" lon="37.3312930">
    <ele>3978.6</ele>
    <time>2026-06-22T05:03:40Z</time>
   </trkpt>
   <trkpt lat="-3.0942300" lon="37.3312980">
    <ele>3978.5</ele>
    <time>2026-06-22T05:03:41Z</time>
   </trkpt>
   <trkpt lat="-3.0942340" lon="37.3313050">
    <ele>3978.5</ele>
    <time>2026-06-22T05:03:42Z</time>
   </trkpt>
   <trkpt lat="-3.0942340" lon="37.3313100">
    <ele>3978.4</ele>
    <time>2026-06-22T05:03:43Z</time>
   </trkpt>
   <trkpt lat="-3.0942340" lon="37.3313140">
    <ele>3978.4</ele>
    <time>2026-06-22T05:03:44Z</time>
   </trkpt>
   <trkpt lat="-3.0942330" lon="37.3313180">
    <ele>3978.3</ele>
    <time>2026-06-22T05:03:45Z</time>
   </trkpt>
   <trkpt lat="-3.0942330" lon="37.3313200">
    <ele>3978.3</ele>
    <time>2026-06-22T05:03:46Z</time>
   </trkpt>
   <trkpt lat="-3.0942330" lon="37.3313220">
    <ele>3978.3</ele>
    <time>2026-06-22T05:03:47Z</time>
   </trkpt>
   <trkpt lat="-3.0942310" lon="37.3313240">
    <ele>3978.2</ele>
    <time>2026-06-22T05:03:48Z</time>
   </trkpt>
   <trkpt lat="-3.0942300" lon="37.3313270">
    <ele>3978.2</ele>
    <time>2026-06-22T05:03:49Z</time>
   </trkpt>
   <trkpt lat="-3.0942290" lon="37.3313300">
    <ele>3978.2</ele>
    <time>2026-06-22T05:03:50Z</time>
   </trkpt>
   <trkpt lat="-3.0942280" lon="37.3313320">
    <ele>3978.1</ele>
    <time>2026-06-22T05:03:51Z</time>
   </trkpt>
   <trkpt lat="-3.0942290" lon="37.3313350">
    <ele>3978.1</ele>
    <time>2026-06-22T05:03:52Z</time>
   </trkpt>
   <trkpt lat="-3.0942300" lon="37.3313380">
    <ele>3978.1</ele>
    <time>2026-06-22T05:03:53Z</time>
   </trkpt>
   <trkpt lat="-3.0942320" lon="37.3313420">
    <ele>3978.0</ele>
    <time>2026-06-22T05:03:54Z</time>
   </trkpt>
   <trkpt lat="-3.0942360" lon="37.3313440">
    <ele>3978.0</ele>
    <time>2026-06-22T05:03:55Z</time>
   </trkpt>
   <trkpt lat="-3.0942410" lon="37.3313450">
    <ele>3977.9</ele>
    <time>2026-06-22T05:03:56Z</time>
   </trkpt>
   <trkpt lat="-3.0942490" lon="37.3313490">
    <ele>3977.8</ele>
    <time>2026-06-22T05:03:57Z</time>
   </trkpt>
   <trkpt lat="-3.0942510" lon="37.3313520">
    <ele>3977.7</ele>
    <time>2026-06-22T05:03:58Z</time>
   </trkpt>
   <trkpt lat="-3.0942480" lon="37.3313550">
    <ele>3977.7</ele>
    <time>2026-06-22T05:03:59Z</time>
   </trkpt>
   <trkpt lat="-3.0942370" lon="37.3313560">
    <ele>3977.6</ele>
    <time>2026-06-22T05:04:00Z</time>
   </trkpt>
   <trkpt lat="-3.0942340" lon="37.3313640">
    <ele>3977.5</ele>
    <time>2026-06-22T05:04:01Z</time>
   </trkpt>
   <trkpt lat="-3.0942290" lon="37.3313670">
    <ele>3977.4</ele>
    <time>2026-06-22T05:04:02Z</time>
   </trkpt>
   <trkpt lat="-3.0942230" lon="37.3313710">
    <ele>3977.3</ele>
    <time>2026-06-22T05:04:03Z</time>
   </trkpt>
   <trkpt lat="-3.0942140" lon="37.3313790">
    <ele>3977.1</ele>
    <time>2026-06-22T05:04:04Z</time>
   </trkpt>
   <trkpt lat="-3.0942100" lon="37.3313850">
    <ele>3977.0</ele>
    <time>2026-06-22T05:04:05Z</time>
   </trkpt>
   <trkpt lat="-3.0942050" lon="37.3313890">
    <ele>3977.0</ele>
    <time>2026-06-22T05:04:06Z</time>
   </trkpt>
   <trkpt lat="-3.0942000" lon="37.3313960">
    <ele>3976.9</ele>
    <time>2026-06-22T05:04:07Z</time>
   </trkpt>
   <trkpt lat="-3.0941970" lon="37.3314000">
    <ele>3976.8</ele>
    <time>2026-06-22T05:04:08Z</time>
   </trkpt>
   <trkpt lat="-3.0941910" lon="37.3314050">
    <ele>3976.7</ele>
    <time>2026-06-22T05:04:09Z</time>
   </trkpt>
   <trkpt lat="-3.0941850" lon="37.3314100">
    <ele>3976.6</ele>
    <time>2026-06-22T05:04:10Z</time>
   </trkpt>
   <trkpt lat="-3.0941800" lon="37.3314140">
    <ele>3976.5</ele>
    <time>2026-06-22T05:04:11Z</time>
   </trkpt>
   <trkpt lat="-3.0941770" lon="37.3314190">
    <ele>3976.4</ele>
    <time>2026-06-22T05:04:12Z</time>
   </trkpt>
   <trkpt lat="-3.0941730" lon="37.3314240">
    <ele>3976.3</ele>
    <time>2026-06-22T05:04:13Z</time>
   </trkpt>
   <trkpt lat="-3.0941700" lon="37.3314290">
    <ele>3976.2</ele>
    <time>2026-06-22T05:04:14Z</time>
   </trkpt>
   <trkpt lat="-3.0941670" lon="37.3314360">
    <ele>3976.1</ele>
    <time>2026-06-22T05:04:15Z</time>
   </trkpt>
   <trkpt lat="-3.0941640" lon="37.3314420">
    <ele>3976.0</ele>
    <time>2026-06-22T05:04:16Z</time>
   </trkpt>
   <trkpt lat="-3.0941620" lon="37.3314460">
    <ele>3975.9</ele>
    <time>2026-06-22T05:04:17Z</time>
   </trkpt>
   <trkpt lat="-3.0941610" lon="37.3314500">
    <ele>3975.9</ele>
    <time>2026-06-22T05:04:18Z</time>
   </trkpt>
   <trkpt lat="-3.0941570" lon="37.3314550">
    <ele>3975.8</ele>
    <time>2026-06-22T05:04:19Z</time>
   </trkpt>
   <trkpt lat="-3.0941540" lon="37.3314600">
    <ele>3975.7</ele>
    <time>2026-06-22T05:04:20Z</time>
   </trkpt>
   <trkpt lat="-3.0941500" lon="37.3314640">
    <ele>3975.6</ele>
    <time>2026-06-22T05:04:21Z</time>
   </trkpt>
   <trkpt lat="-3.0941470" lon="37.3314710">
    <ele>3975.5</ele>
    <time>2026-06-22T05:04:22Z</time>
   </trkpt>
   <trkpt lat="-3.0941510" lon="37.3314780">
    <ele>3975.3</ele>
    <time>2026-06-22T05:04:23Z</time>
   </trkpt>
   <trkpt lat="-3.0941530" lon="37.3314830">
    <ele>3975.3</ele>
    <time>2026-06-22T05:04:24Z</time>
   </trkpt>
   <trkpt lat="-3.0941500" lon="37.3314880">
    <ele>3975.2</ele>
    <time>2026-06-22T05:04:25Z</time>
   </trkpt>
   <trkpt lat="-3.0941500" lon="37.3314970">
    <ele>3975.0</ele>
    <time>2026-06-22T05:04:26Z</time>
   </trkpt>
   <trkpt lat="-3.0941490" lon="37.3315070">
    <ele>3974.9</ele>
    <time>2026-06-22T05:04:27Z</time>
   </trkpt>
   <trkpt lat="-3.0941530" lon="37.3315170">
    <ele>3974.7</ele>
    <time>2026-06-22T05:04:28Z</time>
   </trkpt>
   <trkpt lat="-3.0941500" lon="37.3315200">
    <ele>3974.6</ele>
    <time>2026-06-22T05:04:29Z</time>
   </trkpt>
   <trkpt lat="-3.0941460" lon="37.3315280">
    <ele>3974.5</ele>
    <time>2026-06-22T05:04:30Z</time>
   </trkpt>
   <trkpt lat="-3.0941420" lon="37.3315360">
    <ele>3974.3</ele>
    <time>2026-06-22T05:04:31Z</time>
   </trkpt>
   <trkpt lat="-3.0941400" lon="37.3315440">
    <ele>3974.2</ele>
    <time>2026-06-22T05:04:32Z</time>
   </trkpt>
   <trkpt lat="-3.0941380" lon="37.3315520">
    <ele>3974.1</ele>
    <time>2026-06-22T05:04:33Z</time>
   </trkpt>
   <trkpt lat="-3.0941380" lon="37.3315590">
    <ele>3974.0</ele>
    <time>2026-06-22T05:04:34Z</time>
   </trkpt>
   <trkpt lat="-3.0941390" lon="37.3315660">
    <ele>3973.9</ele>
    <time>2026-06-22T05:04:35Z</time>
   </trkpt>
   <trkpt lat="-3.0941360" lon="37.3315750">
    <ele>3973.7</ele>
    <time>2026-06-22T05:04:36Z</time>
   </trkpt>
   <trkpt lat="-3.0941290" lon="37.3315870">
    <ele>3973.5</ele>
    <time>2026-06-22T05:04:37Z</time>
   </trkpt>
   <trkpt lat="-3.0941260" lon="37.3316000">
    <ele>3973.3</ele>
    <time>2026-06-22T05:04:38Z</time>
   </trkpt>
   <trkpt lat="-3.0941250" lon="37.3316080">
    <ele>3973.2</ele>
    <time>2026-06-22T05:04:39Z</time>
   </trkpt>
   <trkpt lat="-3.0941220" lon="37.3316150">
    <ele>3973.0</ele>
    <time>2026-06-22T05:04:40Z</time>
   </trkpt>
   <trkpt lat="-3.0941180" lon="37.3316190">
    <ele>3972.9</ele>
    <time>2026-06-22T05:04:41Z</time>
   </trkpt>
   <trkpt lat="-3.0941130" lon="37.3316240">
    <ele>3972.8</ele>
    <time>2026-06-22T05:04:42Z</time>
   </trkpt>
   <trkpt lat="-3.0941090" lon="37.3316290">
    <ele>3972.7</ele>
    <time>2026-06-22T05:04:43Z</time>
   </trkpt>
   <trkpt lat="-3.0941060" lon="37.3316310">
    <ele>3972.7</ele>
    <time>2026-06-22T05:04:44Z</time>
   </trkpt>
   <trkpt lat="-3.0941000" lon="37.3316350">
    <ele>3972.6</ele>
    <time>2026-06-22T05:04:45Z</time>
   </trkpt>
   <trkpt lat="-3.0940940" lon="37.3316390">
    <ele>3972.5</ele>
    <time>2026-06-22T05:04:46Z</time>
   </trkpt>
   <trkpt lat="-3.0940900" lon="37.3316410">
    <ele>3972.4</ele>
    <time>2026-06-22T05:04:47Z</time>
   </trkpt>
   <trkpt lat="-3.0940870" lon="37.3316420">
    <ele>3972.4</ele>
    <time>2026-06-22T05:04:48Z</time>
   </trkpt>
   <trkpt lat="-3.0940830" lon="37.3316450">
    <ele>3972.3</ele>
    <time>2026-06-22T05:04:49Z</time>
   </trkpt>
   <trkpt lat="-3.0940770" lon="37.3316520">
    <ele>3972.1</ele>
    <time>2026-06-22T05:04:50Z</time>
   </trkpt>
   <trkpt lat="-3.0940760" lon="37.3316560">
    <ele>3972.1</ele>
    <time>2026-06-22T05:04:51Z</time>
   </trkpt>
   <trkpt lat="-3.0940720" lon="37.3316600">
    <ele>3972.0</ele>
    <time>2026-06-22T05:04:52Z</time>
   </trkpt>
   <trkpt lat="-3.0940710" lon="37.3316640">
    <ele>3971.9</ele>
    <time>2026-06-22T05:04:53Z</time>
   </trkpt>
   <trkpt lat="-3.0940700" lon="37.3316680">
    <ele>3971.9</ele>
    <time>2026-06-22T05:04:54Z</time>
   </trkpt>
   <trkpt lat="-3.0940690" lon="37.3316740">
    <ele>3971.8</ele>
    <time>2026-06-22T05:04:55Z</time>
   </trkpt>
   <trkpt lat="-3.0940700" lon="37.3316810">
    <ele>3971.7</ele>
    <time>2026-06-22T05:04:56Z</time>
   </trkpt>
   <trkpt lat="-3.0940710" lon="37.3316910">
    <ele>3971.6</ele>
    <time>2026-06-22T05:04:57Z</time>
   </trkpt>
   <trkpt lat="-3.0940680" lon="37.3317090">
    <ele>3971.3</ele>
    <time>2026-06-22T05:04:58Z</time>
   </trkpt>
   <trkpt lat="-3.0940520" lon="37.3317110">
    <ele>3971.1</ele>
    <time>2026-06-22T05:04:59Z</time>
   </trkpt>
   <trkpt lat="-3.0940440" lon="37.3317160">
    <ele>3971.0</ele>
    <time>2026-06-22T05:05:01Z</time>
   </trkpt>
   <trkpt lat="-3.0940390" lon="37.3317160">
    <ele>3971.0</ele>
    <time>2026-06-22T05:05:02Z</time>
   </trkpt>
   <trkpt lat="-3.0940320" lon="37.3317240">
    <ele>3971.1</ele>
    <time>2026-06-22T05:05:03Z</time>
   </trkpt>
   <trkpt lat="-3.0940300" lon="37.3317300">
    <ele>3971.1</ele>
    <time>2026-06-22T05:05:04Z</time>
   </trkpt>
   <trkpt lat="-3.0940290" lon="37.3317320">
    <ele>3971.1</ele>
    <time>2026-06-22T05:05:05Z</time>
   </trkpt>
   <trkpt lat="-3.0940240" lon="37.3317410">
    <ele>3971.1</ele>
    <time>2026-06-22T05:05:06Z</time>
   </trkpt>
   <trkpt lat="-3.0940250" lon="37.3317440">
    <ele>3971.1</ele>
    <time>2026-06-22T05:05:07Z</time>
   </trkpt>
   <trkpt lat="-3.0940270" lon="37.3317450">
    <ele>3971.1</ele>
    <time>2026-06-22T05:05:08Z</time>
   </trkpt>
   <trkpt lat="-3.0940280" lon="37.3317510">
    <ele>3971.1</ele>
    <time>2026-06-22T05:05:09Z</time>
   </trkpt>
   <trkpt lat="-3.0940310" lon="37.3317510">
    <ele>3971.1</ele>
    <time>2026-06-22T05:05:10Z</time>
   </trkpt>
   <trkpt lat="-3.0940320" lon="37.3317590">
    <ele>3971.1</ele>
    <time>2026-06-22T05:05:11Z</time>
   </trkpt>
   <trkpt lat="-3.0940380" lon="37.3317660">
    <ele>3971.1</ele>
    <time>2026-06-22T05:05:12Z</time>
   </trkpt>
   <trkpt lat="-3.0940430" lon="37.3317740">
    <ele>3971.1</ele>
    <time>2026-06-22T05:05:13Z</time>
   </trkpt>
   <trkpt lat="-3.0940390" lon="37.3317760">
    <ele>3971.1</ele>
    <time>2026-06-22T05:05:14Z</time>
   </trkpt>
   <trkpt lat="-3.0940290" lon="37.3317830">
    <ele>3971.1</ele>
    <time>2026-06-22T05:05:15Z</time>
   </trkpt>
   <trkpt lat="-3.0940190" lon="37.3317870">
    <ele>3971.1</ele>
    <time>2026-06-22T05:05:16Z</time>
   </trkpt>
   <trkpt lat="-3.0940200" lon="37.3317830">
    <ele>3971.1</ele>
    <time>2026-06-22T05:05:17Z</time>
   </trkpt>
   <trkpt lat="-3.0940240" lon="37.3317890">
    <ele>3971.1</ele>
    <time>2026-06-22T05:05:18Z</time>
   </trkpt>
   <trkpt lat="-3.0940240" lon="37.3317930">
    <ele>3971.1</ele>
    <time>2026-06-22T05:05:19Z</time>
   </trkpt>
   <trkpt lat="-3.0940220" lon="37.3317990">
    <ele>3971.1</ele>
    <time>2026-06-22T05:05:20Z</time>
   </trkpt>
   <trkpt lat="-3.0940320" lon="37.3318020">
    <ele>3971.1</ele>
    <time>2026-06-22T05:05:21Z</time>
   </trkpt>
   <trkpt lat="-3.0940290" lon="37.3318010">
    <ele>3971.1</ele>
    <time>2026-06-22T05:05:22Z</time>
   </trkpt>
   <trkpt lat="-3.0940340" lon="37.3317990">
    <ele>3971.1</ele>
    <time>2026-06-22T05:05:23Z</time>
   </trkpt>
   <trkpt lat="-3.0940340" lon="37.3317990">
    <ele>3971.1</ele>
    <time>2026-06-22T05:05:24Z</time>
   </trkpt>
   <trkpt lat="-3.0940340" lon="37.3317990">
    <ele>3971.1</ele>
    <time>2026-06-22T05:05:25Z</time>
   </trkpt>
   <trkpt lat="-3.0940330" lon="37.3317990">
    <ele>3971.1</ele>
    <time>2026-06-22T05:05:26Z</time>
   </trkpt>
   <trkpt lat="-3.0940330" lon="37.3318040">
    <ele>3971.1</ele>
    <time>2026-06-22T05:05:27Z</time>
   </trkpt>
   <trkpt lat="-3.0940240" lon="37.3318210">
    <ele>3971.1</ele>
    <time>2026-06-22T05:05:28Z</time>
   </trkpt>
   <trkpt lat="-3.0940290" lon="37.3318450">
    <ele>3971.1</ele>
    <time>2026-06-22T05:05:29Z</time>
   </trkpt>
   <trkpt lat="-3.0940290" lon="37.3318510">
    <ele>3971.1</ele>
    <time>2026-06-22T05:05:30Z</time>
   </trkpt>
   <trkpt lat="-3.0940320" lon="37.3318490">
    <ele>3971.1</ele>
    <time>2026-06-22T05:05:31Z</time>
   </trkpt>
   <trkpt lat="-3.0940410" lon="37.3318550">
    <ele>3971.1</ele>
    <time>2026-06-22T05:05:32Z</time>
   </trkpt>
   <trkpt lat="-3.0940470" lon="37.3318640">
    <ele>3971.1</ele>
    <time>2026-06-22T05:05:33Z</time>
   </trkpt>
   <trkpt lat="-3.0940420" lon="37.3318660">
    <ele>3971.1</ele>
    <time>2026-06-22T05:05:34Z</time>
   </trkpt>
   <trkpt lat="-3.0940470" lon="37.3318740">
    <ele>3971.2</ele>
    <time>2026-06-22T05:05:35Z</time>
   </trkpt>
   <trkpt lat="-3.0940630" lon="37.3318740">
    <ele>3971.2</ele>
    <time>2026-06-22T05:05:36Z</time>
   </trkpt>
   <trkpt lat="-3.0940500" lon="37.3318730">
    <ele>3971.3</ele>
    <time>2026-06-22T05:05:37Z</time>
   </trkpt>
   <trkpt lat="-3.0940530" lon="37.3318810">
    <ele>3971.4</ele>
    <time>2026-06-22T05:05:38Z</time>
   </trkpt>
   <trkpt lat="-3.0940590" lon="37.3318890">
    <ele>3971.6</ele>
    <time>2026-06-22T05:05:39Z</time>
   </trkpt>
   <trkpt lat="-3.0940670" lon="37.3318960">
    <ele>3971.7</ele>
    <time>2026-06-22T05:05:40Z</time>
   </trkpt>
   <trkpt lat="-3.0940720" lon="37.3318990">
    <ele>3971.7</ele>
    <time>2026-06-22T05:05:41Z</time>
   </trkpt>
   <trkpt lat="-3.0940670" lon="37.3319000">
    <ele>3971.8</ele>
    <time>2026-06-22T05:05:42Z</time>
   </trkpt>
   <trkpt lat="-3.0940670" lon="37.3319020">
    <ele>3971.8</ele>
    <time>2026-06-22T05:05:43Z</time>
   </trkpt>
   <trkpt lat="-3.0940670" lon="37.3319010">
    <ele>3971.8</ele>
    <time>2026-06-22T05:05:44Z</time>
   </trkpt>
   <trkpt lat="-3.0940650" lon="37.3319040">
    <ele>3971.9</ele>
    <time>2026-06-22T05:05:45Z</time>
   </trkpt>
   <trkpt lat="-3.0940620" lon="37.3319080">
    <ele>3971.9</ele>
    <time>2026-06-22T05:05:46Z</time>
   </trkpt>
   <trkpt lat="-3.0940560" lon="37.3319180">
    <ele>3972.0</ele>
    <time>2026-06-22T05:05:47Z</time>
   </trkpt>
   <trkpt lat="-3.0940590" lon="37.3319180">
    <ele>3972.0</ele>
    <time>2026-06-22T05:05:48Z</time>
   </trkpt>
   <trkpt lat="-3.0940590" lon="37.3319210">
    <ele>3972.1</ele>
    <time>2026-06-22T05:05:49Z</time>
   </trkpt>
   <trkpt lat="-3.0940600" lon="37.3319270">
    <ele>3972.1</ele>
    <time>2026-06-22T05:05:50Z</time>
   </trkpt>
   <trkpt lat="-3.0940640" lon="37.3319280">
    <ele>3972.2</ele>
    <time>2026-06-22T05:05:51Z</time>
   </trkpt>
   <trkpt lat="-3.0940670" lon="37.3319280">
    <ele>3972.2</ele>
    <time>2026-06-22T05:05:52Z</time>
   </trkpt>
   <trkpt lat="-3.0940730" lon="37.3319290">
    <ele>3972.2</ele>
    <time>2026-06-22T05:05:53Z</time>
   </trkpt>
   <trkpt lat="-3.0940790" lon="37.3319300">
    <ele>3972.3</ele>
    <time>2026-06-22T05:05:54Z</time>
   </trkpt>
   <trkpt lat="-3.0940780" lon="37.3319360">
    <ele>3972.3</ele>
    <time>2026-06-22T05:05:55Z</time>
   </trkpt>
   <trkpt lat="-3.0940810" lon="37.3319350">
    <ele>3972.4</ele>
    <time>2026-06-22T05:05:56Z</time>
   </trkpt>
   <trkpt lat="-3.0940860" lon="37.3319380">
    <ele>3972.4</ele>
    <time>2026-06-22T05:05:57Z</time>
   </trkpt>
   <trkpt lat="-3.0940870" lon="37.3319440">
    <ele>3972.4</ele>
    <time>2026-06-22T05:05:58Z</time>
   </trkpt>
   <trkpt lat="-3.0940880" lon="37.3319490">
    <ele>3972.4</ele>
    <time>2026-06-22T05:05:59Z</time>
   </trkpt>
   <trkpt lat="-3.0940910" lon="37.3319530">
    <ele>3972.4</ele>
    <time>2026-06-22T05:06:00Z</time>
   </trkpt>
   <trkpt lat="-3.0940890" lon="37.3319600">
    <ele>3972.5</ele>
    <time>2026-06-22T05:06:01Z</time>
   </trkpt>
   <trkpt lat="-3.0940910" lon="37.3319660">
    <ele>3972.5</ele>
    <time>2026-06-22T05:06:02Z</time>
   </trkpt>
   <trkpt lat="-3.0940900" lon="37.3319690">
    <ele>3972.5</ele>
    <time>2026-06-22T05:06:03Z</time>
   </trkpt>
   <trkpt lat="-3.0940900" lon="37.3319700">
    <ele>3972.5</ele>
    <time>2026-06-22T05:06:04Z</time>
   </trkpt>
   <trkpt lat="-3.0940940" lon="37.3319770">
    <ele>3972.6</ele>
    <time>2026-06-22T05:06:05Z</time>
   </trkpt>
   <trkpt lat="-3.0940990" lon="37.3319830">
    <ele>3972.6</ele>
    <time>2026-06-22T05:06:06Z</time>
   </trkpt>
   <trkpt lat="-3.0941000" lon="37.3319840">
    <ele>3972.6</ele>
    <time>2026-06-22T05:06:07Z</time>
   </trkpt>
   <trkpt lat="-3.0941030" lon="37.3319870">
    <ele>3972.6</ele>
    <time>2026-06-22T05:06:08Z</time>
   </trkpt>
   <trkpt lat="-3.0941060" lon="37.3319910">
    <ele>3972.6</ele>
    <time>2026-06-22T05:06:09Z</time>
   </trkpt>
   <trkpt lat="-3.0941100" lon="37.3319930">
    <ele>3972.6</ele>
    <time>2026-06-22T05:06:10Z</time>
   </trkpt>
   <trkpt lat="-3.0941110" lon="37.3319950">
    <ele>3972.6</ele>
    <time>2026-06-22T05:06:11Z</time>
   </trkpt>
   <trkpt lat="-3.0941150" lon="37.3319970">
    <ele>3972.6</ele>
    <time>2026-06-22T05:06:12Z</time>
   </trkpt>
   <trkpt lat="-3.0941200" lon="37.3320000">
    <ele>3972.6</ele>
    <time>2026-06-22T05:06:13Z</time>
   </trkpt>
   <trkpt lat="-3.0941210" lon="37.3319990">
    <ele>3972.6</ele>
    <time>2026-06-22T05:06:14Z</time>
   </trkpt>
   <trkpt lat="-3.0941270" lon="37.3320010">
    <ele>3972.5</ele>
    <time>2026-06-22T05:06:15Z</time>
   </trkpt>
   <trkpt lat="-3.0941320" lon="37.3320000">
    <ele>3972.5</ele>
    <time>2026-06-22T05:06:16Z</time>
   </trkpt>
   <trkpt lat="-3.0941380" lon="37.3320030">
    <ele>3972.5</ele>
    <time>2026-06-22T05:06:17Z</time>
   </trkpt>
   <trkpt lat="-3.0941430" lon="37.3320100">
    <ele>3972.5</ele>
    <time>2026-06-22T05:06:18Z</time>
   </trkpt>
   <trkpt lat="-3.0941420" lon="37.3320130">
    <ele>3972.5</ele>
    <time>2026-06-22T05:06:19Z</time>
   </trkpt>
   <trkpt lat="-3.0941410" lon="37.3320170">
    <ele>3972.5</ele>
    <time>2026-06-22T05:06:20Z</time>
   </trkpt>
   <trkpt lat="-3.0941460" lon="37.3320220">
    <ele>3972.5</ele>
    <time>2026-06-22T05:06:21Z</time>
   </trkpt>
   <trkpt lat="-3.0941520" lon="37.3320290">
    <ele>3972.4</ele>
    <time>2026-06-22T05:06:22Z</time>
   </trkpt>
   <trkpt lat="-3.0941540" lon="37.3320310">
    <ele>3972.4</ele>
    <time>2026-06-22T05:06:23Z</time>
   </trkpt>
   <trkpt lat="-3.0941530" lon="37.3320360">
    <ele>3972.4</ele>
    <time>2026-06-22T05:06:24Z</time>
   </trkpt>
   <trkpt lat="-3.0941460" lon="37.3320380">
    <ele>3972.4</ele>
    <time>2026-06-22T05:06:25Z</time>
   </trkpt>
   <trkpt lat="-3.0941450" lon="37.3320460">
    <ele>3972.4</ele>
    <time>2026-06-22T05:06:26Z</time>
   </trkpt>
   <trkpt lat="-3.0941410" lon="37.3320510">
    <ele>3972.3</ele>
    <time>2026-06-22T05:06:27Z</time>
   </trkpt>
   <trkpt lat="-3.0941440" lon="37.3320500">
    <ele>3972.3</ele>
    <time>2026-06-22T05:06:28Z</time>
   </trkpt>
   <trkpt lat="-3.0941420" lon="37.3320570">
    <ele>3972.3</ele>
    <time>2026-06-22T05:06:29Z</time>
   </trkpt>
   <trkpt lat="-3.0941390" lon="37.3320630">
    <ele>3972.3</ele>
    <time>2026-06-22T05:06:30Z</time>
   </trkpt>
   <trkpt lat="-3.0941390" lon="37.3320710">
    <ele>3972.2</ele>
    <time>2026-06-22T05:06:31Z</time>
   </trkpt>
   <trkpt lat="-3.0941330" lon="37.3320750">
    <ele>3972.2</ele>
    <time>2026-06-22T05:06:32Z</time>
   </trkpt>
   <trkpt lat="-3.0941350" lon="37.3320730">
    <ele>3972.2</ele>
    <time>2026-06-22T05:06:33Z</time>
   </trkpt>
   <trkpt lat="-3.0941360" lon="37.3320790">
    <ele>3972.1</ele>
    <time>2026-06-22T05:06:34Z</time>
   </trkpt>
   <trkpt lat="-3.0941380" lon="37.3320740">
    <ele>3972.1</ele>
    <time>2026-06-22T05:06:35Z</time>
   </trkpt>
   <trkpt lat="-3.0941380" lon="37.3320730">
    <ele>3972.1</ele>
    <time>2026-06-22T05:06:36Z</time>
   </trkpt>
   <trkpt lat="-3.0941370" lon="37.3320770">
    <ele>3972.1</ele>
    <time>2026-06-22T05:06:37Z</time>
   </trkpt>
   <trkpt lat="-3.0941290" lon="37.3320870">
    <ele>3972.0</ele>
    <time>2026-06-22T05:06:38Z</time>
   </trkpt>
   <trkpt lat="-3.0941280" lon="37.3320950">
    <ele>3972.0</ele>
    <time>2026-06-22T05:06:39Z</time>
   </trkpt>
   <trkpt lat="-3.0941280" lon="37.3320990">
    <ele>3972.0</ele>
    <time>2026-06-22T05:06:40Z</time>
   </trkpt>
   <trkpt lat="-3.0941280" lon="37.3321030">
    <ele>3972.0</ele>
    <time>2026-06-22T05:06:41Z</time>
   </trkpt>
   <trkpt lat="-3.0941260" lon="37.3321060">
    <ele>3972.0</ele>
    <time>2026-06-22T05:06:42Z</time>
   </trkpt>
   <trkpt lat="-3.0941250" lon="37.3321150">
    <ele>3971.9</ele>
    <time>2026-06-22T05:06:43Z</time>
   </trkpt>
   <trkpt lat="-3.0941280" lon="37.3321130">
    <ele>3971.9</ele>
    <time>2026-06-22T05:06:44Z</time>
   </trkpt>
   <trkpt lat="-3.0941270" lon="37.3321150">
    <ele>3971.9</ele>
    <time>2026-06-22T05:06:45Z</time>
   </trkpt>
   <trkpt lat="-3.0941250" lon="37.3321120">
    <ele>3971.9</ele>
    <time>2026-06-22T05:06:46Z</time>
   </trkpt>
   <trkpt lat="-3.0941260" lon="37.3321130">
    <ele>3971.9</ele>
    <time>2026-06-22T05:06:47Z</time>
   </trkpt>
   <trkpt lat="-3.0941280" lon="37.3321160">
    <ele>3971.9</ele>
    <time>2026-06-22T05:06:48Z</time>
   </trkpt>
   <trkpt lat="-3.0941300" lon="37.3321180">
    <ele>3971.9</ele>
    <time>2026-06-22T05:06:49Z</time>
   </trkpt>
   <trkpt lat="-3.0941360" lon="37.3321300">
    <ele>3971.9</ele>
    <time>2026-06-22T05:06:50Z</time>
   </trkpt>
   <trkpt lat="-3.0941450" lon="37.3321400">
    <ele>3971.8</ele>
    <time>2026-06-22T05:06:51Z</time>
   </trkpt>
   <trkpt lat="-3.0941480" lon="37.3321480">
    <ele>3971.8</ele>
    <time>2026-06-22T05:06:52Z</time>
   </trkpt>
   <trkpt lat="-3.0941550" lon="37.3321530">
    <ele>3971.8</ele>
    <time>2026-06-22T05:06:53Z</time>
   </trkpt>
   <trkpt lat="-3.0941590" lon="37.3321610">
    <ele>3971.8</ele>
    <time>2026-06-22T05:06:54Z</time>
   </trkpt>
   <trkpt lat="-3.0941620" lon="37.3321700">
    <ele>3971.8</ele>
    <time>2026-06-22T05:06:55Z</time>
   </trkpt>
   <trkpt lat="-3.0941550" lon="37.3321850">
    <ele>3971.8</ele>
    <time>2026-06-22T05:06:56Z</time>
   </trkpt>
   <trkpt lat="-3.0941590" lon="37.3321970">
    <ele>3971.8</ele>
    <time>2026-06-22T05:06:57Z</time>
   </trkpt>
   <trkpt lat="-3.0941650" lon="37.3321980">
    <ele>3971.8</ele>
    <time>2026-06-22T05:06:58Z</time>
   </trkpt>
   <trkpt lat="-3.0941660" lon="37.3321990">
    <ele>3971.8</ele>
    <time>2026-06-22T05:06:59Z</time>
   </trkpt>
   <trkpt lat="-3.0941710" lon="37.3322020">
    <ele>3971.8</ele>
    <time>2026-06-22T05:07:00Z</time>
   </trkpt>
   <trkpt lat="-3.0941710" lon="37.3322030">
    <ele>3971.8</ele>
    <time>2026-06-22T05:07:01Z</time>
   </trkpt>
   <trkpt lat="-3.0941720" lon="37.3322070">
    <ele>3971.8</ele>
    <time>2026-06-22T05:07:02Z</time>
   </trkpt>
   <trkpt lat="-3.0941750" lon="37.3322150">
    <ele>3971.8</ele>
    <time>2026-06-22T05:07:03Z</time>
   </trkpt>
   <trkpt lat="-3.0941890" lon="37.3322100">
    <ele>3971.9</ele>
    <time>2026-06-22T05:07:04Z</time>
   </trkpt>
   <trkpt lat="-3.0941940" lon="37.3322110">
    <ele>3971.9</ele>
    <time>2026-06-22T05:07:06Z</time>
   </trkpt>
   <trkpt lat="-3.0942020" lon="37.3322170">
    <ele>3972.1</ele>
    <time>2026-06-22T05:07:07Z</time>
   </trkpt>
   <trkpt lat="-3.0942100" lon="37.3322190">
    <ele>3972.1</ele>
    <time>2026-06-22T05:07:08Z</time>
   </trkpt>
   <trkpt lat="-3.0942170" lon="37.3322200">
    <ele>3972.2</ele>
    <time>2026-06-22T05:07:09Z</time>
   </trkpt>
   <trkpt lat="-3.0942230" lon="37.3322200">
    <ele>3972.3</ele>
    <time>2026-06-22T05:07:10Z</time>
   </trkpt>
   <trkpt lat="-3.0942270" lon="37.3322290">
    <ele>3972.4</ele>
    <time>2026-06-22T05:07:11Z</time>
   </trkpt>
   <trkpt lat="-3.0942300" lon="37.3322280">
    <ele>3972.4</ele>
    <time>2026-06-22T05:07:12Z</time>
   </trkpt>
   <trkpt lat="-3.0942310" lon="37.3322300">
    <ele>3972.5</ele>
    <time>2026-06-22T05:07:13Z</time>
   </trkpt>
   <trkpt lat="-3.0942370" lon="37.3322340">
    <ele>3972.5</ele>
    <time>2026-06-22T05:07:14Z</time>
   </trkpt>
   <trkpt lat="-3.0942400" lon="37.3322370">
    <ele>3972.6</ele>
    <time>2026-06-22T05:07:15Z</time>
   </trkpt>
   <trkpt lat="-3.0942450" lon="37.3322410">
    <ele>3972.7</ele>
    <time>2026-06-22T05:07:16Z</time>
   </trkpt>
   <trkpt lat="-3.0942470" lon="37.3322450">
    <ele>3972.7</ele>
    <time>2026-06-22T05:07:17Z</time>
   </trkpt>
   <trkpt lat="-3.0942500" lon="37.3322470">
    <ele>3972.7</ele>
    <time>2026-06-22T05:07:18Z</time>
   </trkpt>
   <trkpt lat="-3.0942540" lon="37.3322530">
    <ele>3972.8</ele>
    <time>2026-06-22T05:07:19Z</time>
   </trkpt>
   <trkpt lat="-3.0942600" lon="37.3322560">
    <ele>3972.9</ele>
    <time>2026-06-22T05:07:20Z</time>
   </trkpt>
   <trkpt lat="-3.0942600" lon="37.3322620">
    <ele>3973.0</ele>
    <time>2026-06-22T05:07:21Z</time>
   </trkpt>
   <trkpt lat="-3.0942620" lon="37.3322730">
    <ele>3973.1</ele>
    <time>2026-06-22T05:07:22Z</time>
   </trkpt>
   <trkpt lat="-3.0942700" lon="37.3322690">
    <ele>3973.2</ele>
    <time>2026-06-22T05:07:23Z</time>
   </trkpt>
   <trkpt lat="-3.0942780" lon="37.3322660">
    <ele>3973.3</ele>
    <time>2026-06-22T05:07:24Z</time>
   </trkpt>
   <trkpt lat="-3.0942850" lon="37.3322670">
    <ele>3973.4</ele>
    <time>2026-06-22T05:07:25Z</time>
   </trkpt>
   <trkpt lat="-3.0942960" lon="37.3322670">
    <ele>3973.5</ele>
    <time>2026-06-22T05:07:26Z</time>
   </trkpt>
   <trkpt lat="-3.0943020" lon="37.3322650">
    <ele>3973.6</ele>
    <time>2026-06-22T05:07:27Z</time>
   </trkpt>
   <trkpt lat="-3.0942960" lon="37.3322760">
    <ele>3973.7</ele>
    <time>2026-06-22T05:07:28Z</time>
   </trkpt>
   <trkpt lat="-3.0942980" lon="37.3322800">
    <ele>3973.8</ele>
    <time>2026-06-22T05:07:29Z</time>
   </trkpt>
   <trkpt lat="-3.0943060" lon="37.3322740">
    <ele>3973.9</ele>
    <time>2026-06-22T05:07:30Z</time>
   </trkpt>
   <trkpt lat="-3.0943110" lon="37.3322750">
    <ele>3974.0</ele>
    <time>2026-06-22T05:07:31Z</time>
   </trkpt>
   <trkpt lat="-3.0943100" lon="37.3322890">
    <ele>3974.1</ele>
    <time>2026-06-22T05:07:32Z</time>
   </trkpt>
   <trkpt lat="-3.0943170" lon="37.3322800">
    <ele>3974.3</ele>
    <time>2026-06-22T05:07:33Z</time>
   </trkpt>
   <trkpt lat="-3.0943220" lon="37.3322800">
    <ele>3974.4</ele>
    <time>2026-06-22T05:07:34Z</time>
   </trkpt>
   <trkpt lat="-3.0943230" lon="37.3322830">
    <ele>3974.4</ele>
    <time>2026-06-22T05:07:35Z</time>
   </trkpt>
   <trkpt lat="-3.0943210" lon="37.3322810">
    <ele>3974.4</ele>
    <time>2026-06-22T05:07:36Z</time>
   </trkpt>
   <trkpt lat="-3.0943220" lon="37.3322810">
    <ele>3974.4</ele>
    <time>2026-06-22T05:07:37Z</time>
   </trkpt>
   <trkpt lat="-3.0943230" lon="37.3322820">
    <ele>3974.5</ele>
    <time>2026-06-22T05:07:38Z</time>
   </trkpt>
   <trkpt lat="-3.0943220" lon="37.3322810">
    <ele>3974.5</ele>
    <time>2026-06-22T05:07:39Z</time>
   </trkpt>
   <trkpt lat="-3.0943230" lon="37.3322790">
    <ele>3974.5</ele>
    <time>2026-06-22T05:07:40Z</time>
   </trkpt>
   <trkpt lat="-3.0943270" lon="37.3322790">
    <ele>3974.6</ele>
    <time>2026-06-22T05:07:41Z</time>
   </trkpt>
   <trkpt lat="-3.0943290" lon="37.3322820">
    <ele>3974.6</ele>
    <time>2026-06-22T05:07:42Z</time>
   </trkpt>
   <trkpt lat="-3.0943320" lon="37.3322830">
    <ele>3974.6</ele>
    <time>2026-06-22T05:07:43Z</time>
   </trkpt>
   <trkpt lat="-3.0943350" lon="37.3322870">
    <ele>3974.7</ele>
    <time>2026-06-22T05:07:44Z</time>
   </trkpt>
   <trkpt lat="-3.0943350" lon="37.3322890">
    <ele>3974.7</ele>
    <time>2026-06-22T05:07:45Z</time>
   </trkpt>
   <trkpt lat="-3.0943350" lon="37.3322910">
    <ele>3974.8</ele>
    <time>2026-06-22T05:07:46Z</time>
   </trkpt>
   <trkpt lat="-3.0943390" lon="37.3322960">
    <ele>3974.8</ele>
    <time>2026-06-22T05:07:47Z</time>
   </trkpt>
   <trkpt lat="-3.0943420" lon="37.3322970">
    <ele>3974.9</ele>
    <time>2026-06-22T05:07:48Z</time>
   </trkpt>
   <trkpt lat="-3.0943420" lon="37.3322930">
    <ele>3974.9</ele>
    <time>2026-06-22T05:07:49Z</time>
   </trkpt>
   <trkpt lat="-3.0943420" lon="37.3322940">
    <ele>3975.0</ele>
    <time>2026-06-22T05:07:50Z</time>
   </trkpt>
   <trkpt lat="-3.0943380" lon="37.3322990">
    <ele>3975.0</ele>
    <time>2026-06-22T05:07:51Z</time>
   </trkpt>
   <trkpt lat="-3.0943370" lon="37.3323030">
    <ele>3975.1</ele>
    <time>2026-06-22T05:07:52Z</time>
   </trkpt>
   <trkpt lat="-3.0943330" lon="37.3323070">
    <ele>3975.2</ele>
    <time>2026-06-22T05:07:53Z</time>
   </trkpt>
   <trkpt lat="-3.0943310" lon="37.3323090">
    <ele>3975.2</ele>
    <time>2026-06-22T05:07:54Z</time>
   </trkpt>
   <trkpt lat="-3.0943300" lon="37.3323110">
    <ele>3975.2</ele>
    <time>2026-06-22T05:07:55Z</time>
   </trkpt>
   <trkpt lat="-3.0943280" lon="37.3323180">
    <ele>3975.3</ele>
    <time>2026-06-22T05:07:56Z</time>
   </trkpt>
   <trkpt lat="-3.0943240" lon="37.3323200">
    <ele>3975.4</ele>
    <time>2026-06-22T05:07:57Z</time>
   </trkpt>
   <trkpt lat="-3.0943260" lon="37.3323230">
    <ele>3975.5</ele>
    <time>2026-06-22T05:07:58Z</time>
   </trkpt>
   <trkpt lat="-3.0943290" lon="37.3323250">
    <ele>3975.5</ele>
    <time>2026-06-22T05:07:59Z</time>
   </trkpt>
   <trkpt lat="-3.0943330" lon="37.3323280">
    <ele>3975.6</ele>
    <time>2026-06-22T05:08:00Z</time>
   </trkpt>
   <trkpt lat="-3.0943280" lon="37.3323390">
    <ele>3975.8</ele>
    <time>2026-06-22T05:08:01Z</time>
   </trkpt>
   <trkpt lat="-3.0943260" lon="37.3323430">
    <ele>3975.8</ele>
    <time>2026-06-22T05:08:02Z</time>
   </trkpt>
   <trkpt lat="-3.0943270" lon="37.3323440">
    <ele>3975.8</ele>
    <time>2026-06-22T05:08:03Z</time>
   </trkpt>
   <trkpt lat="-3.0943370" lon="37.3323470">
    <ele>3976.0</ele>
    <time>2026-06-22T05:08:04Z</time>
   </trkpt>
   <trkpt lat="-3.0943430" lon="37.3323470">
    <ele>3976.1</ele>
    <time>2026-06-22T05:08:05Z</time>
   </trkpt>
   <trkpt lat="-3.0943400" lon="37.3323570">
    <ele>3976.2</ele>
    <time>2026-06-22T05:08:06Z</time>
   </trkpt>
   <trkpt lat="-3.0943380" lon="37.3323650">
    <ele>3976.3</ele>
    <time>2026-06-22T05:08:07Z</time>
   </trkpt>
   <trkpt lat="-3.0943400" lon="37.3323670">
    <ele>3976.4</ele>
    <time>2026-06-22T05:08:08Z</time>
   </trkpt>
   <trkpt lat="-3.0943450" lon="37.3323730">
    <ele>3976.5</ele>
    <time>2026-06-22T05:08:09Z</time>
   </trkpt>
   <trkpt lat="-3.0943520" lon="37.3323710">
    <ele>3976.6</ele>
    <time>2026-06-22T05:08:10Z</time>
   </trkpt>
   <trkpt lat="-3.0943580" lon="37.3323710">
    <ele>3976.7</ele>
    <time>2026-06-22T05:08:11Z</time>
   </trkpt>
   <trkpt lat="-3.0943620" lon="37.3323760">
    <ele>3976.8</ele>
    <time>2026-06-22T05:08:12Z</time>
   </trkpt>
   <trkpt lat="-3.0943630" lon="37.3323760">
    <ele>3976.8</ele>
    <time>2026-06-22T05:08:13Z</time>
   </trkpt>
   <trkpt lat="-3.0943670" lon="37.3323740">
    <ele>3976.9</ele>
    <time>2026-06-22T05:08:14Z</time>
   </trkpt>
   <trkpt lat="-3.0943690" lon="37.3323780">
    <ele>3977.0</ele>
    <time>2026-06-22T05:08:15Z</time>
   </trkpt>
   <trkpt lat="-3.0943730" lon="37.3323790">
    <ele>3977.1</ele>
    <time>2026-06-22T05:08:16Z</time>
   </trkpt>
   <trkpt lat="-3.0943830" lon="37.3323810">
    <ele>3977.2</ele>
    <time>2026-06-22T05:08:17Z</time>
   </trkpt>
   <trkpt lat="-3.0943830" lon="37.3323840">
    <ele>3977.3</ele>
    <time>2026-06-22T05:08:18Z</time>
   </trkpt>
   <trkpt lat="-3.0943870" lon="37.3323820">
    <ele>3977.3</ele>
    <time>2026-06-22T05:08:19Z</time>
   </trkpt>
   <trkpt lat="-3.0943920" lon="37.3323790">
    <ele>3977.4</ele>
    <time>2026-06-22T05:08:20Z</time>
   </trkpt>
   <trkpt lat="-3.0943950" lon="37.3323790">
    <ele>3977.5</ele>
    <time>2026-06-22T05:08:21Z</time>
   </trkpt>
   <trkpt lat="-3.0943970" lon="37.3323790">
    <ele>3977.5</ele>
    <time>2026-06-22T05:08:22Z</time>
   </trkpt>
   <trkpt lat="-3.0944040" lon="37.3323790">
    <ele>3977.6</ele>
    <time>2026-06-22T05:08:23Z</time>
   </trkpt>
   <trkpt lat="-3.0944040" lon="37.3323790">
    <ele>3977.6</ele>
    <time>2026-06-22T05:08:24Z</time>
   </trkpt>
   <trkpt lat="-3.0944070" lon="37.3323840">
    <ele>3977.7</ele>
    <time>2026-06-22T05:08:25Z</time>
   </trkpt>
   <trkpt lat="-3.0944070" lon="37.3323830">
    <ele>3977.7</ele>
    <time>2026-06-22T05:08:26Z</time>
   </trkpt>
   <trkpt lat="-3.0944050" lon="37.3323860">
    <ele>3977.8</ele>
    <time>2026-06-22T05:08:27Z</time>
   </trkpt>
   <trkpt lat="-3.0944040" lon="37.3323850">
    <ele>3977.8</ele>
    <time>2026-06-22T05:08:28Z</time>
   </trkpt>
   <trkpt lat="-3.0944020" lon="37.3323920">
    <ele>3977.9</ele>
    <time>2026-06-22T05:08:29Z</time>
   </trkpt>
   <trkpt lat="-3.0944060" lon="37.3323830">
    <ele>3978.1</ele>
    <time>2026-06-22T05:08:30Z</time>
   </trkpt>
   <trkpt lat="-3.0944120" lon="37.3323960">
    <ele>3978.4</ele>
    <time>2026-06-22T05:08:31Z</time>
   </trkpt>
   <trkpt lat="-3.0944110" lon="37.3323990">
    <ele>3978.4</ele>
    <time>2026-06-22T05:08:32Z</time>
   </trkpt>
   <trkpt lat="-3.0944120" lon="37.3324030">
    <ele>3978.5</ele>
    <time>2026-06-22T05:08:33Z</time>
   </trkpt>
   <trkpt lat="-3.0944140" lon="37.3324030">
    <ele>3978.6</ele>
    <time>2026-06-22T05:08:34Z</time>
   </trkpt>
   <trkpt lat="-3.0944130" lon="37.3324040">
    <ele>3978.6</ele>
    <time>2026-06-22T05:08:35Z</time>
   </trkpt>
   <trkpt lat="-3.0944150" lon="37.3324130">
    <ele>3978.7</ele>
    <time>2026-06-22T05:08:36Z</time>
   </trkpt>
   <trkpt lat="-3.0944130" lon="37.3324160">
    <ele>3978.8</ele>
    <time>2026-06-22T05:08:37Z</time>
   </trkpt>
   <trkpt lat="-3.0944120" lon="37.3324170">
    <ele>3978.8</ele>
    <time>2026-06-22T05:08:38Z</time>
   </trkpt>
   <trkpt lat="-3.0944120" lon="37.3324160">
    <ele>3978.9</ele>
    <time>2026-06-22T05:08:39Z</time>
   </trkpt>
   <trkpt lat="-3.0944140" lon="37.3324200">
    <ele>3978.9</ele>
    <time>2026-06-22T05:08:40Z</time>
   </trkpt>
   <trkpt lat="-3.0944350" lon="37.3324300">
    <ele>3979.4</ele>
    <time>2026-06-22T05:08:41Z</time>
   </trkpt>
   <trkpt lat="-3.0944300" lon="37.3324280">
    <ele>3979.5</ele>
    <time>2026-06-22T05:08:42Z</time>
   </trkpt>
   <trkpt lat="-3.0944350" lon="37.3324320">
    <ele>3979.6</ele>
    <time>2026-06-22T05:08:43Z</time>
   </trkpt>
   <trkpt lat="-3.0944400" lon="37.3324330">
    <ele>3979.7</ele>
    <time>2026-06-22T05:08:44Z</time>
   </trkpt>
   <trkpt lat="-3.0944380" lon="37.3324350">
    <ele>3979.7</ele>
    <time>2026-06-22T05:08:45Z</time>
   </trkpt>
   <trkpt lat="-3.0944400" lon="37.3324390">
    <ele>3979.8</ele>
    <time>2026-06-22T05:08:46Z</time>
   </trkpt>
   <trkpt lat="-3.0944480" lon="37.3324430">
    <ele>3980.0</ele>
    <time>2026-06-22T05:08:47Z</time>
   </trkpt>
   <trkpt lat="-3.0944480" lon="37.3324430">
    <ele>3980.0</ele>
    <time>2026-06-22T05:08:48Z</time>
   </trkpt>
   <trkpt lat="-3.0944510" lon="37.3324470">
    <ele>3980.1</ele>
    <time>2026-06-22T05:08:49Z</time>
   </trkpt>
   <trkpt lat="-3.0944470" lon="37.3324480">
    <ele>3980.2</ele>
    <time>2026-06-22T05:08:50Z</time>
   </trkpt>
   <trkpt lat="-3.0944460" lon="37.3324470">
    <ele>3980.2</ele>
    <time>2026-06-22T05:08:51Z</time>
   </trkpt>
   <trkpt lat="-3.0944480" lon="37.3324530">
    <ele>3980.4</ele>
    <time>2026-06-22T05:08:52Z</time>
   </trkpt>
   <trkpt lat="-3.0944490" lon="37.3324540">
    <ele>3980.4</ele>
    <time>2026-06-22T05:08:53Z</time>
   </trkpt>
   <trkpt lat="-3.0944510" lon="37.3324600">
    <ele>3980.5</ele>
    <time>2026-06-22T05:08:54Z</time>
   </trkpt>
   <trkpt lat="-3.0944510" lon="37.3324580">
    <ele>3980.6</ele>
    <time>2026-06-22T05:08:55Z</time>
   </trkpt>
   <trkpt lat="-3.0944540" lon="37.3324650">
    <ele>3980.7</ele>
    <time>2026-06-22T05:08:56Z</time>
   </trkpt>
   <trkpt lat="-3.0944570" lon="37.3324680">
    <ele>3980.8</ele>
    <time>2026-06-22T05:08:57Z</time>
   </trkpt>
   <trkpt lat="-3.0944580" lon="37.3324730">
    <ele>3980.9</ele>
    <time>2026-06-22T05:08:58Z</time>
   </trkpt>
   <trkpt lat="-3.0944580" lon="37.3324760">
    <ele>3981.0</ele>
    <time>2026-06-22T05:08:59Z</time>
   </trkpt>
   <trkpt lat="-3.0944570" lon="37.3324790">
    <ele>3981.0</ele>
    <time>2026-06-22T05:09:00Z</time>
   </trkpt>
   <trkpt lat="-3.0944700" lon="37.3324840">
    <ele>3981.3</ele>
    <time>2026-06-22T05:09:01Z</time>
   </trkpt>
   <trkpt lat="-3.0944720" lon="37.3324830">
    <ele>3981.4</ele>
    <time>2026-06-22T05:09:02Z</time>
   </trkpt>
   <trkpt lat="-3.0944740" lon="37.3324800">
    <ele>3981.4</ele>
    <time>2026-06-22T05:09:03Z</time>
   </trkpt>
   <trkpt lat="-3.0944680" lon="37.3324820">
    <ele>3981.6</ele>
    <time>2026-06-22T05:09:04Z</time>
   </trkpt>
   <trkpt lat="-3.0944680" lon="37.3324890">
    <ele>3981.7</ele>
    <time>2026-06-22T05:09:05Z</time>
   </trkpt>
   <trkpt lat="-3.0944660" lon="37.3324930">
    <ele>3981.8</ele>
    <time>2026-06-22T05:09:06Z</time>
   </trkpt>
   <trkpt lat="-3.0944630" lon="37.3324920">
    <ele>3981.9</ele>
    <time>2026-06-22T05:09:07Z</time>
   </trkpt>
   <trkpt lat="-3.0944570" lon="37.3324950">
    <ele>3982.0</ele>
    <time>2026-06-22T05:09:08Z</time>
   </trkpt>
   <trkpt lat="-3.0944530" lon="37.3325010">
    <ele>3982.2</ele>
    <time>2026-06-22T05:09:09Z</time>
   </trkpt>
   <trkpt lat="-3.0944490" lon="37.3325010">
    <ele>3982.3</ele>
    <time>2026-06-22T05:09:10Z</time>
   </trkpt>
   <trkpt lat="-3.0944480" lon="37.3325050">
    <ele>3982.4</ele>
    <time>2026-06-22T05:09:12Z</time>
   </trkpt>
   <trkpt lat="-3.0944500" lon="37.3325070">
    <ele>3982.5</ele>
    <time>2026-06-22T05:09:13Z</time>
   </trkpt>
   <trkpt lat="-3.0944500" lon="37.3325090">
    <ele>3982.5</ele>
    <time>2026-06-22T05:09:14Z</time>
   </trkpt>
   <trkpt lat="-3.0944530" lon="37.3325110">
    <ele>3982.6</ele>
    <time>2026-06-22T05:09:15Z</time>
   </trkpt>
   <trkpt lat="-3.0944570" lon="37.3325180">
    <ele>3982.8</ele>
    <time>2026-06-22T05:09:16Z</time>
   </trkpt>
   <trkpt lat="-3.0944600" lon="37.3325200">
    <ele>3982.9</ele>
    <time>2026-06-22T05:09:17Z</time>
   </trkpt>
   <trkpt lat="-3.0944610" lon="37.3325210">
    <ele>3982.9</ele>
    <time>2026-06-22T05:09:18Z</time>
   </trkpt>
   <trkpt lat="-3.0944630" lon="37.3325220">
    <ele>3982.9</ele>
    <time>2026-06-22T05:09:19Z</time>
   </trkpt>
   <trkpt lat="-3.0944670" lon="37.3325270">
    <ele>3983.1</ele>
    <time>2026-06-22T05:09:20Z</time>
   </trkpt>
   <trkpt lat="-3.0944660" lon="37.3325270">
    <ele>3983.1</ele>
    <time>2026-06-22T05:09:21Z</time>
   </trkpt>
   <trkpt lat="-3.0944670" lon="37.3325300">
    <ele>3983.2</ele>
    <time>2026-06-22T05:09:22Z</time>
   </trkpt>
   <trkpt lat="-3.0944690" lon="37.3325320">
    <ele>3983.2</ele>
    <time>2026-06-22T05:09:23Z</time>
   </trkpt>
   <trkpt lat="-3.0944710" lon="37.3325340">
    <ele>3983.3</ele>
    <time>2026-06-22T05:09:24Z</time>
   </trkpt>
   <trkpt lat="-3.0944710" lon="37.3325370">
    <ele>3983.4</ele>
    <time>2026-06-22T05:09:25Z</time>
   </trkpt>
   <trkpt lat="-3.0944740" lon="37.3325400">
    <ele>3983.5</ele>
    <time>2026-06-22T05:09:26Z</time>
   </trkpt>
   <trkpt lat="-3.0944740" lon="37.3325440">
    <ele>3983.6</ele>
    <time>2026-06-22T05:09:27Z</time>
   </trkpt>
   <trkpt lat="-3.0944770" lon="37.3325470">
    <ele>3983.7</ele>
    <time>2026-06-22T05:09:28Z</time>
   </trkpt>
   <trkpt lat="-3.0944790" lon="37.3325480">
    <ele>3983.7</ele>
    <time>2026-06-22T05:09:29Z</time>
   </trkpt>
   <trkpt lat="-3.0944800" lon="37.3325450">
    <ele>3983.8</ele>
    <time>2026-06-22T05:09:30Z</time>
   </trkpt>
   <trkpt lat="-3.0944820" lon="37.3325480">
    <ele>3983.9</ele>
    <time>2026-06-22T05:09:31Z</time>
   </trkpt>
   <trkpt lat="-3.0944830" lon="37.3325490">
    <ele>3983.9</ele>
    <time>2026-06-22T05:09:32Z</time>
   </trkpt>
   <trkpt lat="-3.0944860" lon="37.3325470">
    <ele>3984.0</ele>
    <time>2026-06-22T05:09:33Z</time>
   </trkpt>
   <trkpt lat="-3.0944860" lon="37.3325460">
    <ele>3984.0</ele>
    <time>2026-06-22T05:09:34Z</time>
   </trkpt>
   <trkpt lat="-3.0944870" lon="37.3325470">
    <ele>3984.0</ele>
    <time>2026-06-22T05:09:35Z</time>
   </trkpt>
   <trkpt lat="-3.0944880" lon="37.3325470">
    <ele>3984.1</ele>
    <time>2026-06-22T05:09:36Z</time>
   </trkpt>
   <trkpt lat="-3.0944930" lon="37.3325480">
    <ele>3984.2</ele>
    <time>2026-06-22T05:09:37Z</time>
   </trkpt>
   <trkpt lat="-3.0944960" lon="37.3325530">
    <ele>3984.3</ele>
    <time>2026-06-22T05:09:38Z</time>
   </trkpt>
   <trkpt lat="-3.0944990" lon="37.3325540">
    <ele>3984.4</ele>
    <time>2026-06-22T05:09:39Z</time>
   </trkpt>
   <trkpt lat="-3.0945030" lon="37.3325570">
    <ele>3984.5</ele>
    <time>2026-06-22T05:09:40Z</time>
   </trkpt>
   <trkpt lat="-3.0945060" lon="37.3325610">
    <ele>3984.6</ele>
    <time>2026-06-22T05:09:41Z</time>
   </trkpt>
   <trkpt lat="-3.0945100" lon="37.3325620">
    <ele>3984.7</ele>
    <time>2026-06-22T05:09:42Z</time>
   </trkpt>
   <trkpt lat="-3.0945130" lon="37.3325670">
    <ele>3984.9</ele>
    <time>2026-06-22T05:09:43Z</time>
   </trkpt>
   <trkpt lat="-3.0945140" lon="37.3325660">
    <ele>3984.9</ele>
    <time>2026-06-22T05:09:44Z</time>
   </trkpt>
   <trkpt lat="-3.0945140" lon="37.3325790">
    <ele>3985.2</ele>
    <time>2026-06-22T05:09:45Z</time>
   </trkpt>
   <trkpt lat="-3.0945120" lon="37.3325840">
    <ele>3985.3</ele>
    <time>2026-06-22T05:09:46Z</time>
   </trkpt>
   <trkpt lat="-3.0945150" lon="37.3325810">
    <ele>3985.4</ele>
    <time>2026-06-22T05:09:47Z</time>
   </trkpt>
   <trkpt lat="-3.0945170" lon="37.3325810">
    <ele>3985.5</ele>
    <time>2026-06-22T05:09:48Z</time>
   </trkpt>
   <trkpt lat="-3.0945200" lon="37.3325850">
    <ele>3985.6</ele>
    <time>2026-06-22T05:09:49Z</time>
   </trkpt>
   <trkpt lat="-3.0945220" lon="37.3325870">
    <ele>3985.6</ele>
    <time>2026-06-22T05:09:50Z</time>
   </trkpt>
   <trkpt lat="-3.0945270" lon="37.3325760">
    <ele>3985.9</ele>
    <time>2026-06-22T05:09:51Z</time>
   </trkpt>
   <trkpt lat="-3.0945290" lon="37.3325910">
    <ele>3986.3</ele>
    <time>2026-06-22T05:09:52Z</time>
   </trkpt>
   <trkpt lat="-3.0945300" lon="37.3325900">
    <ele>3986.3</ele>
    <time>2026-06-22T05:09:53Z</time>
   </trkpt>
   <trkpt lat="-3.0945310" lon="37.3325890">
    <ele>3986.4</ele>
    <time>2026-06-22T05:09:54Z</time>
   </trkpt>
   <trkpt lat="-3.0945360" lon="37.3325920">
    <ele>3986.5</ele>
    <time>2026-06-22T05:09:55Z</time>
   </trkpt>
   <trkpt lat="-3.0945380" lon="37.3325930">
    <ele>3986.5</ele>
    <time>2026-06-22T05:09:56Z</time>
   </trkpt>
   <trkpt lat="-3.0945410" lon="37.3325940">
    <ele>3986.6</ele>
    <time>2026-06-22T05:09:57Z</time>
   </trkpt>
   <trkpt lat="-3.0945390" lon="37.3325970">
    <ele>3986.7</ele>
    <time>2026-06-22T05:09:58Z</time>
   </trkpt>
   <trkpt lat="-3.0945390" lon="37.3325950">
    <ele>3986.7</ele>
    <time>2026-06-22T05:09:59Z</time>
   </trkpt>
   <trkpt lat="-3.0945400" lon="37.3325930">
    <ele>3986.8</ele>
    <time>2026-06-22T05:10:00Z</time>
   </trkpt>
   <trkpt lat="-3.0945400" lon="37.3325930">
    <ele>3986.8</ele>
    <time>2026-06-22T05:10:01Z</time>
   </trkpt>
   <trkpt lat="-3.0945370" lon="37.3325970">
    <ele>3986.9</ele>
    <time>2026-06-22T05:10:02Z</time>
   </trkpt>
   <trkpt lat="-3.0945380" lon="37.3325900">
    <ele>3987.1</ele>
    <time>2026-06-22T05:10:03Z</time>
   </trkpt>
   <trkpt lat="-3.0945340" lon="37.3325990">
    <ele>3987.3</ele>
    <time>2026-06-22T05:10:04Z</time>
   </trkpt>
   <trkpt lat="-3.0945320" lon="37.3326000">
    <ele>3987.4</ele>
    <time>2026-06-22T05:10:05Z</time>
   </trkpt>
   <trkpt lat="-3.0945290" lon="37.3325990">
    <ele>3987.4</ele>
    <time>2026-06-22T05:10:06Z</time>
   </trkpt>
   <trkpt lat="-3.0945290" lon="37.3325980">
    <ele>3987.5</ele>
    <time>2026-06-22T05:10:07Z</time>
   </trkpt>
   <trkpt lat="-3.0945280" lon="37.3326040">
    <ele>3987.6</ele>
    <time>2026-06-22T05:10:08Z</time>
   </trkpt>
   <trkpt lat="-3.0945250" lon="37.3326060">
    <ele>3987.7</ele>
    <time>2026-06-22T05:10:09Z</time>
   </trkpt>
   <trkpt lat="-3.0945250" lon="37.3326040">
    <ele>3987.7</ele>
    <time>2026-06-22T05:10:10Z</time>
   </trkpt>
   <trkpt lat="-3.0945230" lon="37.3326060">
    <ele>3987.8</ele>
    <time>2026-06-22T05:10:11Z</time>
   </trkpt>
   <trkpt lat="-3.0945220" lon="37.3326070">
    <ele>3987.8</ele>
    <time>2026-06-22T05:10:12Z</time>
   </trkpt>
   <trkpt lat="-3.0945210" lon="37.3326080">
    <ele>3987.9</ele>
    <time>2026-06-22T05:10:13Z</time>
   </trkpt>
   <trkpt lat="-3.0945160" lon="37.3326130">
    <ele>3988.0</ele>
    <time>2026-06-22T05:10:14Z</time>
   </trkpt>
   <trkpt lat="-3.0945150" lon="37.3326130">
    <ele>3988.1</ele>
    <time>2026-06-22T05:10:15Z</time>
   </trkpt>
   <trkpt lat="-3.0945100" lon="37.3326150">
    <ele>3988.2</ele>
    <time>2026-06-22T05:10:16Z</time>
   </trkpt>
   <trkpt lat="-3.0945100" lon="37.3326130">
    <ele>3988.2</ele>
    <time>2026-06-22T05:10:17Z</time>
   </trkpt>
   <trkpt lat="-3.0945090" lon="37.3326150">
    <ele>3988.3</ele>
    <time>2026-06-22T05:10:18Z</time>
   </trkpt>
   <trkpt lat="-3.0945060" lon="37.3326150">
    <ele>3988.4</ele>
    <time>2026-06-22T05:10:19Z</time>
   </trkpt>
   <trkpt lat="-3.0945050" lon="37.3326150">
    <ele>3988.4</ele>
    <time>2026-06-22T05:10:20Z</time>
   </trkpt>
   <trkpt lat="-3.0945050" lon="37.3326150">
    <ele>3988.4</ele>
    <time>2026-06-22T05:10:21Z</time>
   </trkpt>
   <trkpt lat="-3.0945050" lon="37.3326180">
    <ele>3988.4</ele>
    <time>2026-06-22T05:10:22Z</time>
   </trkpt>
   <trkpt lat="-3.0945050" lon="37.3326200">
    <ele>3988.5</ele>
    <time>2026-06-22T05:10:23Z</time>
   </trkpt>
   <trkpt lat="-3.0945060" lon="37.3326230">
    <ele>3988.6</ele>
    <time>2026-06-22T05:10:24Z</time>
   </trkpt>
   <trkpt lat="-3.0945040" lon="37.3326240">
    <ele>3988.6</ele>
    <time>2026-06-22T05:10:25Z</time>
   </trkpt>
   <trkpt lat="-3.0945030" lon="37.3326280">
    <ele>3988.7</ele>
    <time>2026-06-22T05:10:26Z</time>
   </trkpt>
   <trkpt lat="-3.0945090" lon="37.3326310">
    <ele>3988.9</ele>
    <time>2026-06-22T05:10:27Z</time>
   </trkpt>
   <trkpt lat="-3.0945090" lon="37.3326330">
    <ele>3988.9</ele>
    <time>2026-06-22T05:10:28Z</time>
   </trkpt>
   <trkpt lat="-3.0945070" lon="37.3326350">
    <ele>3989.0</ele>
    <time>2026-06-22T05:10:29Z</time>
   </trkpt>
   <trkpt lat="-3.0945080" lon="37.3326350">
    <ele>3989.0</ele>
    <time>2026-06-22T05:10:30Z</time>
   </trkpt>
   <trkpt lat="-3.0945050" lon="37.3326350">
    <ele>3989.1</ele>
    <time>2026-06-22T05:10:31Z</time>
   </trkpt>
   <trkpt lat="-3.0945010" lon="37.3326380">
    <ele>3989.2</ele>
    <time>2026-06-22T05:10:32Z</time>
   </trkpt>
   <trkpt lat="-3.0944990" lon="37.3326360">
    <ele>3989.3</ele>
    <time>2026-06-22T05:10:33Z</time>
   </trkpt>
   <trkpt lat="-3.0945000" lon="37.3326340">
    <ele>3989.3</ele>
    <time>2026-06-22T05:10:34Z</time>
   </trkpt>
   <trkpt lat="-3.0945000" lon="37.3326330">
    <ele>3989.3</ele>
    <time>2026-06-22T05:10:35Z</time>
   </trkpt>
   <trkpt lat="-3.0945000" lon="37.3326320">
    <ele>3989.4</ele>
    <time>2026-06-22T05:10:36Z</time>
   </trkpt>
   <trkpt lat="-3.0944980" lon="37.3326330">
    <ele>3989.4</ele>
    <time>2026-06-22T05:10:37Z</time>
   </trkpt>
   <trkpt lat="-3.0944930" lon="37.3326360">
    <ele>3989.5</ele>
    <time>2026-06-22T05:10:38Z</time>
   </trkpt>
   <trkpt lat="-3.0944920" lon="37.3326360">
    <ele>3989.6</ele>
    <time>2026-06-22T05:10:39Z</time>
   </trkpt>
   <trkpt lat="-3.0944920" lon="37.3326360">
    <ele>3989.6</ele>
    <time>2026-06-22T05:10:40Z</time>
   </trkpt>
   <trkpt lat="-3.0944860" lon="37.3326360">
    <ele>3989.7</ele>
    <time>2026-06-22T05:10:41Z</time>
   </trkpt>
   <trkpt lat="-3.0944840" lon="37.3326380">
    <ele>3989.8</ele>
    <time>2026-06-22T05:10:42Z</time>
   </trkpt>
   <trkpt lat="-3.0944810" lon="37.3326460">
    <ele>3990.0</ele>
    <time>2026-06-22T05:10:43Z</time>
   </trkpt>
   <trkpt lat="-3.0944800" lon="37.3326480">
    <ele>3990.0</ele>
    <time>2026-06-22T05:10:44Z</time>
   </trkpt>
   <trkpt lat="-3.0944780" lon="37.3326470">
    <ele>3990.1</ele>
    <time>2026-06-22T05:10:45Z</time>
   </trkpt>
   <trkpt lat="-3.0944770" lon="37.3326470">
    <ele>3990.1</ele>
    <time>2026-06-22T05:10:46Z</time>
   </trkpt>
   <trkpt lat="-3.0944770" lon="37.3326480">
    <ele>3990.1</ele>
    <time>2026-06-22T05:10:47Z</time>
   </trkpt>
   <trkpt lat="-3.0944740" lon="37.3326490">
    <ele>3990.2</ele>
    <time>2026-06-22T05:10:48Z</time>
   </trkpt>
   <trkpt lat="-3.0944700" lon="37.3326490">
    <ele>3990.3</ele>
    <time>2026-06-22T05:10:49Z</time>
   </trkpt>
   <trkpt lat="-3.0944700" lon="37.3326500">
    <ele>3990.3</ele>
    <time>2026-06-22T05:10:50Z</time>
   </trkpt>
   <trkpt lat="-3.0944700" lon="37.3326540">
    <ele>3990.4</ele>
    <time>2026-06-22T05:10:51Z</time>
   </trkpt>
   <trkpt lat="-3.0944690" lon="37.3326550">
    <ele>3990.4</ele>
    <time>2026-06-22T05:10:52Z</time>
   </trkpt>
   <trkpt lat="-3.0944700" lon="37.3326600">
    <ele>3990.6</ele>
    <time>2026-06-22T05:10:53Z</time>
   </trkpt>
   <trkpt lat="-3.0944680" lon="37.3326660">
    <ele>3990.7</ele>
    <time>2026-06-22T05:10:54Z</time>
   </trkpt>
   <trkpt lat="-3.0944710" lon="37.3326660">
    <ele>3990.8</ele>
    <time>2026-06-22T05:10:55Z</time>
   </trkpt>
   <trkpt lat="-3.0944690" lon="37.3326760">
    <ele>3991.0</ele>
    <time>2026-06-22T05:10:56Z</time>
   </trkpt>
   <trkpt lat="-3.0944700" lon="37.3326770">
    <ele>3991.0</ele>
    <time>2026-06-22T05:10:57Z</time>
   </trkpt>
   <trkpt lat="-3.0944690" lon="37.3326750">
    <ele>3991.1</ele>
    <time>2026-06-22T05:10:58Z</time>
   </trkpt>
   <trkpt lat="-3.0944700" lon="37.3326780">
    <ele>3991.2</ele>
    <time>2026-06-22T05:10:59Z</time>
   </trkpt>
   <trkpt lat="-3.0944730" lon="37.3326850">
    <ele>3991.3</ele>
    <time>2026-06-22T05:11:00Z</time>
   </trkpt>
   <trkpt lat="-3.0944740" lon="37.3326880">
    <ele>3991.4</ele>
    <time>2026-06-22T05:11:01Z</time>
   </trkpt>
   <trkpt lat="-3.0944700" lon="37.3326870">
    <ele>3991.5</ele>
    <time>2026-06-22T05:11:02Z</time>
   </trkpt>
   <trkpt lat="-3.0944640" lon="37.3326880">
    <ele>3991.6</ele>
    <time>2026-06-22T05:11:03Z</time>
   </trkpt>
   <trkpt lat="-3.0944630" lon="37.3326910">
    <ele>3991.7</ele>
    <time>2026-06-22T05:11:04Z</time>
   </trkpt>
   <trkpt lat="-3.0944590" lon="37.3326890">
    <ele>3991.8</ele>
    <time>2026-06-22T05:11:05Z</time>
   </trkpt>
   <trkpt lat="-3.0944580" lon="37.3326880">
    <ele>3991.8</ele>
    <time>2026-06-22T05:11:06Z</time>
   </trkpt>
   <trkpt lat="-3.0944570" lon="37.3326860">
    <ele>3991.9</ele>
    <time>2026-06-22T05:11:07Z</time>
   </trkpt>
   <trkpt lat="-3.0944540" lon="37.3326860">
    <ele>3992.0</ele>
    <time>2026-06-22T05:11:08Z</time>
   </trkpt>
   <trkpt lat="-3.0944490" lon="37.3326880">
    <ele>3992.1</ele>
    <time>2026-06-22T05:11:09Z</time>
   </trkpt>
   <trkpt lat="-3.0944460" lon="37.3326880">
    <ele>3992.1</ele>
    <time>2026-06-22T05:11:10Z</time>
   </trkpt>
   <trkpt lat="-3.0944430" lon="37.3326870">
    <ele>3992.2</ele>
    <time>2026-06-22T05:11:11Z</time>
   </trkpt>
   <trkpt lat="-3.0944390" lon="37.3326910">
    <ele>3992.3</ele>
    <time>2026-06-22T05:11:12Z</time>
   </trkpt>
   <trkpt lat="-3.0944400" lon="37.3326930">
    <ele>3992.4</ele>
    <time>2026-06-22T05:11:13Z</time>
   </trkpt>
   <trkpt lat="-3.0944390" lon="37.3326940">
    <ele>3992.4</ele>
    <time>2026-06-22T05:11:14Z</time>
   </trkpt>
   <trkpt lat="-3.0944370" lon="37.3326970">
    <ele>3992.5</ele>
    <time>2026-06-22T05:11:15Z</time>
   </trkpt>
   <trkpt lat="-3.0944370" lon="37.3327010">
    <ele>3992.6</ele>
    <time>2026-06-22T05:11:16Z</time>
   </trkpt>
   <trkpt lat="-3.0944320" lon="37.3327050">
    <ele>3992.7</ele>
    <time>2026-06-22T05:11:18Z</time>
   </trkpt>
   <trkpt lat="-3.0944300" lon="37.3327110">
    <ele>3992.9</ele>
    <time>2026-06-22T05:11:19Z</time>
   </trkpt>
   <trkpt lat="-3.0944310" lon="37.3327140">
    <ele>3992.9</ele>
    <time>2026-06-22T05:11:20Z</time>
   </trkpt>
   <trkpt lat="-3.0944290" lon="37.3327180">
    <ele>3993.0</ele>
    <time>2026-06-22T05:11:21Z</time>
   </trkpt>
   <trkpt lat="-3.0944320" lon="37.3327180">
    <ele>3993.1</ele>
    <time>2026-06-22T05:11:22Z</time>
   </trkpt>
   <trkpt lat="-3.0944320" lon="37.3327180">
    <ele>3993.1</ele>
    <time>2026-06-22T05:11:23Z</time>
   </trkpt>
   <trkpt lat="-3.0944300" lon="37.3327240">
    <ele>3993.2</ele>
    <time>2026-06-22T05:11:24Z</time>
   </trkpt>
   <trkpt lat="-3.0944290" lon="37.3327260">
    <ele>3993.3</ele>
    <time>2026-06-22T05:11:25Z</time>
   </trkpt>
   <trkpt lat="-3.0944360" lon="37.3327260">
    <ele>3993.4</ele>
    <time>2026-06-22T05:11:26Z</time>
   </trkpt>
   <trkpt lat="-3.0944400" lon="37.3327280">
    <ele>3993.5</ele>
    <time>2026-06-22T05:11:27Z</time>
   </trkpt>
   <trkpt lat="-3.0944460" lon="37.3327270">
    <ele>3993.7</ele>
    <time>2026-06-22T05:11:28Z</time>
   </trkpt>
   <trkpt lat="-3.0944470" lon="37.3327270">
    <ele>3993.7</ele>
    <time>2026-06-22T05:11:29Z</time>
   </trkpt>
   <trkpt lat="-3.0944460" lon="37.3327280">
    <ele>3993.7</ele>
    <time>2026-06-22T05:11:30Z</time>
   </trkpt>
   <trkpt lat="-3.0944460" lon="37.3327290">
    <ele>3993.7</ele>
    <time>2026-06-22T05:11:31Z</time>
   </trkpt>
   <trkpt lat="-3.0944460" lon="37.3327310">
    <ele>3993.8</ele>
    <time>2026-06-22T05:11:32Z</time>
   </trkpt>
   <trkpt lat="-3.0944470" lon="37.3327300">
    <ele>3993.8</ele>
    <time>2026-06-22T05:11:33Z</time>
   </trkpt>
   <trkpt lat="-3.0944490" lon="37.3327300">
    <ele>3993.9</ele>
    <time>2026-06-22T05:11:34Z</time>
   </trkpt>
   <trkpt lat="-3.0944490" lon="37.3327300">
    <ele>3993.9</ele>
    <time>2026-06-22T05:11:35Z</time>
   </trkpt>
   <trkpt lat="-3.0944490" lon="37.3327300">
    <ele>3993.9</ele>
    <time>2026-06-22T05:11:36Z</time>
   </trkpt>
   <trkpt lat="-3.0944490" lon="37.3327300">
    <ele>3993.9</ele>
    <time>2026-06-22T05:11:37Z</time>
   </trkpt>
   <trkpt lat="-3.0944490" lon="37.3327300">
    <ele>3993.9</ele>
    <time>2026-06-22T05:11:38Z</time>
   </trkpt>
   <trkpt lat="-3.0944490" lon="37.3327300">
    <ele>3993.9</ele>
    <time>2026-06-22T05:11:39Z</time>
   </trkpt>
   <trkpt lat="-3.0944490" lon="37.3327300">
    <ele>3993.9</ele>
    <time>2026-06-22T05:11:40Z</time>
   </trkpt>
   <trkpt lat="-3.0944490" lon="37.3327300">
    <ele>3993.9</ele>
    <time>2026-06-22T05:11:41Z</time>
   </trkpt>
   <trkpt lat="-3.0944490" lon="37.3327340">
    <ele>3993.9</ele>
    <time>2026-06-22T05:11:42Z</time>
   </trkpt>
   <trkpt lat="-3.0944510" lon="37.3327340">
    <ele>3994.0</ele>
    <time>2026-06-22T05:11:43Z</time>
   </trkpt>
   <trkpt lat="-3.0944520" lon="37.3327340">
    <ele>3994.0</ele>
    <time>2026-06-22T05:11:44Z</time>
   </trkpt>
   <trkpt lat="-3.0944510" lon="37.3327340">
    <ele>3994.0</ele>
    <time>2026-06-22T05:11:45Z</time>
   </trkpt>
   <trkpt lat="-3.0944520" lon="37.3327360">
    <ele>3994.1</ele>
    <time>2026-06-22T05:11:46Z</time>
   </trkpt>
   <trkpt lat="-3.0944530" lon="37.3327360">
    <ele>3994.1</ele>
    <time>2026-06-22T05:11:47Z</time>
   </trkpt>
   <trkpt lat="-3.0944530" lon="37.3327360">
    <ele>3994.1</ele>
    <time>2026-06-22T05:11:48Z</time>
   </trkpt>
   <trkpt lat="-3.0944530" lon="37.3327360">
    <ele>3994.1</ele>
    <time>2026-06-22T05:11:49Z</time>
   </trkpt>
   <trkpt lat="-3.0944550" lon="37.3327370">
    <ele>3994.1</ele>
    <time>2026-06-22T05:11:50Z</time>
   </trkpt>
   <trkpt lat="-3.0944670" lon="37.3327350">
    <ele>3994.4</ele>
    <time>2026-06-22T05:11:51Z</time>
   </trkpt>
   <trkpt lat="-3.0944640" lon="37.3327380">
    <ele>3994.5</ele>
    <time>2026-06-22T05:11:52Z</time>
   </trkpt>
   <trkpt lat="-3.0944600" lon="37.3327380">
    <ele>3994.6</ele>
    <time>2026-06-22T05:11:53Z</time>
   </trkpt>
   <trkpt lat="-3.0944590" lon="37.3327380">
    <ele>3994.6</ele>
    <time>2026-06-22T05:11:54Z</time>
   </trkpt>
   <trkpt lat="-3.0944600" lon="37.3327350">
    <ele>3994.7</ele>
    <time>2026-06-22T05:11:55Z</time>
   </trkpt>
   <trkpt lat="-3.0944610" lon="37.3327340">
    <ele>3994.7</ele>
    <time>2026-06-22T05:11:56Z</time>
   </trkpt>
   <trkpt lat="-3.0944610" lon="37.3327340">
    <ele>3994.7</ele>
    <time>2026-06-22T05:11:57Z</time>
   </trkpt>
   <trkpt lat="-3.0944610" lon="37.3327340">
    <ele>3994.7</ele>
    <time>2026-06-22T05:11:58Z</time>
   </trkpt>
   <trkpt lat="-3.0944610" lon="37.3327340">
    <ele>3994.7</ele>
    <time>2026-06-22T05:11:59Z</time>
   </trkpt>
   <trkpt lat="-3.0944610" lon="37.3327340">
    <ele>3994.7</ele>
    <time>2026-06-22T05:12:00Z</time>
   </trkpt>
   <trkpt lat="-3.0944610" lon="37.3327330">
    <ele>3994.7</ele>
    <time>2026-06-22T05:12:01Z</time>
   </trkpt>
   <trkpt lat="-3.0944610" lon="37.3327330">
    <ele>3994.7</ele>
    <time>2026-06-22T05:12:02Z</time>
   </trkpt>
   <trkpt lat="-3.0944610" lon="37.3327320">
    <ele>3994.7</ele>
    <time>2026-06-22T05:12:03Z</time>
   </trkpt>
   <trkpt lat="-3.0944610" lon="37.3327320">
    <ele>3994.7</ele>
    <time>2026-06-22T05:12:04Z</time>
   </trkpt>
   <trkpt lat="-3.0944580" lon="37.3327380">
    <ele>3994.9</ele>
    <time>2026-06-22T05:12:05Z</time>
   </trkpt>
   <trkpt lat="-3.0944560" lon="37.3327400">
    <ele>3994.9</ele>
    <time>2026-06-22T05:12:06Z</time>
   </trkpt>
   <trkpt lat="-3.0944510" lon="37.3327440">
    <ele>3995.1</ele>
    <time>2026-06-22T05:12:07Z</time>
   </trkpt>
   <trkpt lat="-3.0944530" lon="37.3327450">
    <ele>3995.1</ele>
    <time>2026-06-22T05:12:08Z</time>
   </trkpt>
   <trkpt lat="-3.0944530" lon="37.3327430">
    <ele>3995.2</ele>
    <time>2026-06-22T05:12:09Z</time>
   </trkpt>
   <trkpt lat="-3.0944520" lon="37.3327430">
    <ele>3995.2</ele>
    <time>2026-06-22T05:12:10Z</time>
   </trkpt>
   <trkpt lat="-3.0944530" lon="37.3327420">
    <ele>3995.2</ele>
    <time>2026-06-22T05:12:11Z</time>
   </trkpt>
   <trkpt lat="-3.0944550" lon="37.3327420">
    <ele>3995.3</ele>
    <time>2026-06-22T05:12:12Z</time>
   </trkpt>
   <trkpt lat="-3.0944560" lon="37.3327420">
    <ele>3995.3</ele>
    <time>2026-06-22T05:12:13Z</time>
   </trkpt>
   <trkpt lat="-3.0944550" lon="37.3327420">
    <ele>3995.3</ele>
    <time>2026-06-22T05:12:14Z</time>
   </trkpt>
   <trkpt lat="-3.0944520" lon="37.3327440">
    <ele>3995.4</ele>
    <time>2026-06-22T05:12:15Z</time>
   </trkpt>
   <trkpt lat="-3.0944470" lon="37.3327450">
    <ele>3995.5</ele>
    <time>2026-06-22T05:12:16Z</time>
   </trkpt>
   <trkpt lat="-3.0944430" lon="37.3327450">
    <ele>3995.6</ele>
    <time>2026-06-22T05:12:17Z</time>
   </trkpt>
   <trkpt lat="-3.0944400" lon="37.3327470">
    <ele>3995.6</ele>
    <time>2026-06-22T05:12:18Z</time>
   </trkpt>
   <trkpt lat="-3.0944480" lon="37.3327500">
    <ele>3995.8</ele>
    <time>2026-06-22T05:12:19Z</time>
   </trkpt>
   <trkpt lat="-3.0944470" lon="37.3327530">
    <ele>3995.9</ele>
    <time>2026-06-22T05:12:20Z</time>
   </trkpt>
   <trkpt lat="-3.0944460" lon="37.3327530">
    <ele>3995.9</ele>
    <time>2026-06-22T05:12:21Z</time>
   </trkpt>
   <trkpt lat="-3.0944520" lon="37.3327530">
    <ele>3996.0</ele>
    <time>2026-06-22T05:12:22Z</time>
   </trkpt>
   <trkpt lat="-3.0944580" lon="37.3327590">
    <ele>3996.2</ele>
    <time>2026-06-22T05:12:23Z</time>
   </trkpt>
   <trkpt lat="-3.0944610" lon="37.3327580">
    <ele>3996.3</ele>
    <time>2026-06-22T05:12:24Z</time>
   </trkpt>
   <trkpt lat="-3.0944680" lon="37.3327590">
    <ele>3996.4</ele>
    <time>2026-06-22T05:12:25Z</time>
   </trkpt>
   <trkpt lat="-3.0944700" lon="37.3327580">
    <ele>3996.5</ele>
    <time>2026-06-22T05:12:26Z</time>
   </trkpt>
   <trkpt lat="-3.0944710" lon="37.3327620">
    <ele>3996.5</ele>
    <time>2026-06-22T05:12:27Z</time>
   </trkpt>
   <trkpt lat="-3.0944700" lon="37.3327640">
    <ele>3996.6</ele>
    <time>2026-06-22T05:12:28Z</time>
   </trkpt>
   <trkpt lat="-3.0944790" lon="37.3327630">
    <ele>3996.8</ele>
    <time>2026-06-22T05:12:29Z</time>
   </trkpt>
   <trkpt lat="-3.0944810" lon="37.3327590">
    <ele>3996.9</ele>
    <time>2026-06-22T05:12:30Z</time>
   </trkpt>
   <trkpt lat="-3.0944840" lon="37.3327580">
    <ele>3996.9</ele>
    <time>2026-06-22T05:12:31Z</time>
   </trkpt>
   <trkpt lat="-3.0944820" lon="37.3327600">
    <ele>3997.0</ele>
    <time>2026-06-22T05:12:32Z</time>
   </trkpt>
   <trkpt lat="-3.0944820" lon="37.3327610">
    <ele>3997.0</ele>
    <time>2026-06-22T05:12:33Z</time>
   </trkpt>
   <trkpt lat="-3.0944840" lon="37.3327590">
    <ele>3997.1</ele>
    <time>2026-06-22T05:12:34Z</time>
   </trkpt>
   <trkpt lat="-3.0944840" lon="37.3327590">
    <ele>3997.1</ele>
    <time>2026-06-22T05:12:35Z</time>
   </trkpt>
   <trkpt lat="-3.0944850" lon="37.3327600">
    <ele>3997.1</ele>
    <time>2026-06-22T05:12:36Z</time>
   </trkpt>
   <trkpt lat="-3.0944850" lon="37.3327590">
    <ele>3997.1</ele>
    <time>2026-06-22T05:12:37Z</time>
   </trkpt>
   <trkpt lat="-3.0944850" lon="37.3327590">
    <ele>3997.1</ele>
    <time>2026-06-22T05:12:38Z</time>
   </trkpt>
   <trkpt lat="-3.0944860" lon="37.3327600">
    <ele>3997.2</ele>
    <time>2026-06-22T05:12:39Z</time>
   </trkpt>
   <trkpt lat="-3.0944860" lon="37.3327600">
    <ele>3997.2</ele>
    <time>2026-06-22T05:12:40Z</time>
   </trkpt>
   <trkpt lat="-3.0944870" lon="37.3327600">
    <ele>3997.2</ele>
    <time>2026-06-22T05:12:41Z</time>
   </trkpt>
   <trkpt lat="-3.0944880" lon="37.3327580">
    <ele>3997.2</ele>
    <time>2026-06-22T05:12:42Z</time>
   </trkpt>
   <trkpt lat="-3.0944890" lon="37.3327580">
    <ele>3997.2</ele>
    <time>2026-06-22T05:12:43Z</time>
   </trkpt>
   <trkpt lat="-3.0944880" lon="37.3327590">
    <ele>3997.3</ele>
    <time>2026-06-22T05:12:44Z</time>
   </trkpt>
   <trkpt lat="-3.0944880" lon="37.3327590">
    <ele>3997.3</ele>
    <time>2026-06-22T05:12:45Z</time>
   </trkpt>
   <trkpt lat="-3.0944870" lon="37.3327590">
    <ele>3997.3</ele>
    <time>2026-06-22T05:12:46Z</time>
   </trkpt>
   <trkpt lat="-3.0944870" lon="37.3327590">
    <ele>3997.3</ele>
    <time>2026-06-22T05:12:47Z</time>
   </trkpt>
   <trkpt lat="-3.0944880" lon="37.3327610">
    <ele>3997.3</ele>
    <time>2026-06-22T05:12:48Z</time>
   </trkpt>
   <trkpt lat="-3.0944870" lon="37.3327600">
    <ele>3997.4</ele>
    <time>2026-06-22T05:12:49Z</time>
   </trkpt>
   <trkpt lat="-3.0944870" lon="37.3327610">
    <ele>3997.4</ele>
    <time>2026-06-22T05:12:50Z</time>
   </trkpt>
   <trkpt lat="-3.0944870" lon="37.3327590">
    <ele>3997.4</ele>
    <time>2026-06-22T05:12:51Z</time>
   </trkpt>
   <trkpt lat="-3.0944870" lon="37.3327600">
    <ele>3997.5</ele>
    <time>2026-06-22T05:12:52Z</time>
   </trkpt>
   <trkpt lat="-3.0944890" lon="37.3327590">
    <ele>3997.5</ele>
    <time>2026-06-22T05:12:53Z</time>
   </trkpt>
   <trkpt lat="-3.0944920" lon="37.3327570">
    <ele>3997.6</ele>
    <time>2026-06-22T05:12:54Z</time>
   </trkpt>
   <trkpt lat="-3.0944950" lon="37.3327570">
    <ele>3997.6</ele>
    <time>2026-06-22T05:12:55Z</time>
   </trkpt>
   <trkpt lat="-3.0944950" lon="37.3327550">
    <ele>3997.7</ele>
    <time>2026-06-22T05:12:56Z</time>
   </trkpt>
   <trkpt lat="-3.0944950" lon="37.3327580">
    <ele>3997.7</ele>
    <time>2026-06-22T05:12:57Z</time>
   </trkpt>
   <trkpt lat="-3.0944950" lon="37.3327580">
    <ele>3997.7</ele>
    <time>2026-06-22T05:12:58Z</time>
   </trkpt>
   <trkpt lat="-3.0944990" lon="37.3327570">
    <ele>3997.8</ele>
    <time>2026-06-22T05:12:59Z</time>
   </trkpt>
   <trkpt lat="-3.0945040" lon="37.3327570">
    <ele>3997.9</ele>
    <time>2026-06-22T05:13:00Z</time>
   </trkpt>
   <trkpt lat="-3.0945100" lon="37.3327530">
    <ele>3998.1</ele>
    <time>2026-06-22T05:13:01Z</time>
   </trkpt>
   <trkpt lat="-3.0945100" lon="37.3327540">
    <ele>3998.1</ele>
    <time>2026-06-22T05:13:02Z</time>
   </trkpt>
   <trkpt lat="-3.0945110" lon="37.3327560">
    <ele>3998.2</ele>
    <time>2026-06-22T05:13:03Z</time>
   </trkpt>
   <trkpt lat="-3.0945100" lon="37.3327570">
    <ele>3998.2</ele>
    <time>2026-06-22T05:13:04Z</time>
   </trkpt>
   <trkpt lat="-3.0945120" lon="37.3327570">
    <ele>3998.2</ele>
    <time>2026-06-22T05:13:05Z</time>
   </trkpt>
   <trkpt lat="-3.0945130" lon="37.3327560">
    <ele>3998.3</ele>
    <time>2026-06-22T05:13:06Z</time>
   </trkpt>
   <trkpt lat="-3.0945180" lon="37.3327570">
    <ele>3998.4</ele>
    <time>2026-06-22T05:13:07Z</time>
   </trkpt>
   <trkpt lat="-3.0945210" lon="37.3327570">
    <ele>3998.4</ele>
    <time>2026-06-22T05:13:08Z</time>
   </trkpt>
   <trkpt lat="-3.0945190" lon="37.3327600">
    <ele>3998.5</ele>
    <time>2026-06-22T05:13:09Z</time>
   </trkpt>
   <trkpt lat="-3.0945240" lon="37.3327590">
    <ele>3998.6</ele>
    <time>2026-06-22T05:13:10Z</time>
   </trkpt>
   <trkpt lat="-3.0945230" lon="37.3327590">
    <ele>3998.6</ele>
    <time>2026-06-22T05:13:11Z</time>
   </trkpt>
   <trkpt lat="-3.0945190" lon="37.3327600">
    <ele>3998.7</ele>
    <time>2026-06-22T05:13:12Z</time>
   </trkpt>
   <trkpt lat="-3.0945240" lon="37.3327630">
    <ele>3998.8</ele>
    <time>2026-06-22T05:13:13Z</time>
   </trkpt>
   <trkpt lat="-3.0945220" lon="37.3327650">
    <ele>3998.9</ele>
    <time>2026-06-22T05:13:14Z</time>
   </trkpt>
   <trkpt lat="-3.0945210" lon="37.3327650">
    <ele>3998.9</ele>
    <time>2026-06-22T05:13:15Z</time>
   </trkpt>
   <trkpt lat="-3.0945230" lon="37.3327630">
    <ele>3999.0</ele>
    <time>2026-06-22T05:13:16Z</time>
   </trkpt>
   <trkpt lat="-3.0945240" lon="37.3327620">
    <ele>3999.0</ele>
    <time>2026-06-22T05:13:17Z</time>
   </trkpt>
   <trkpt lat="-3.0945240" lon="37.3327650">
    <ele>3999.1</ele>
    <time>2026-06-22T05:13:18Z</time>
   </trkpt>
   <trkpt lat="-3.0945240" lon="37.3327650">
    <ele>3999.1</ele>
    <time>2026-06-22T05:13:19Z</time>
   </trkpt>
   <trkpt lat="-3.0945250" lon="37.3327650">
    <ele>3999.1</ele>
    <time>2026-06-22T05:13:20Z</time>
   </trkpt>
   <trkpt lat="-3.0945240" lon="37.3327680">
    <ele>3999.2</ele>
    <time>2026-06-22T05:13:21Z</time>
   </trkpt>
   <trkpt lat="-3.0945270" lon="37.3327670">
    <ele>3999.2</ele>
    <time>2026-06-22T05:13:23Z</time>
   </trkpt>
   <trkpt lat="-3.0945270" lon="37.3327580">
    <ele>3999.4</ele>
    <time>2026-06-22T05:13:24Z</time>
   </trkpt>
   <trkpt lat="-3.0945280" lon="37.3327600">
    <ele>3999.5</ele>
    <time>2026-06-22T05:13:25Z</time>
   </trkpt>
   <trkpt lat="-3.0945230" lon="37.3327600">
    <ele>3999.6</ele>
    <time>2026-06-22T05:13:26Z</time>
   </trkpt>
   <trkpt lat="-3.0945230" lon="37.3327570">
    <ele>3999.6</ele>
    <time>2026-06-22T05:13:27Z</time>
   </trkpt>
   <trkpt lat="-3.0945240" lon="37.3327550">
    <ele>3999.7</ele>
    <time>2026-06-22T05:13:28Z</time>
   </trkpt>
   <trkpt lat="-3.0945270" lon="37.3327570">
    <ele>3999.7</ele>
    <time>2026-06-22T05:13:29Z</time>
   </trkpt>
   <trkpt lat="-3.0945230" lon="37.3327620">
    <ele>3999.9</ele>
    <time>2026-06-22T05:13:30Z</time>
   </trkpt>
   <trkpt lat="-3.0945230" lon="37.3327600">
    <ele>3999.9</ele>
    <time>2026-06-22T05:13:31Z</time>
   </trkpt>
   <trkpt lat="-3.0945200" lon="37.3327590">
    <ele>4000.0</ele>
    <time>2026-06-22T05:13:32Z</time>
   </trkpt>
   <trkpt lat="-3.0945210" lon="37.3327590">
    <ele>4000.0</ele>
    <time>2026-06-22T05:13:33Z</time>
   </trkpt>
   <trkpt lat="-3.0945210" lon="37.3327590">
    <ele>4000.0</ele>
    <time>2026-06-22T05:13:34Z</time>
   </trkpt>
   <trkpt lat="-3.0945230" lon="37.3327590">
    <ele>4000.0</ele>
    <time>2026-06-22T05:13:35Z</time>
   </trkpt>
   <trkpt lat="-3.0945210" lon="37.3327590">
    <ele>4000.1</ele>
    <time>2026-06-22T05:13:36Z</time>
   </trkpt>
   <trkpt lat="-3.0945240" lon="37.3327560">
    <ele>4000.2</ele>
    <time>2026-06-22T05:13:37Z</time>
   </trkpt>
   <trkpt lat="-3.0945240" lon="37.3327570">
    <ele>4000.2</ele>
    <time>2026-06-22T05:13:38Z</time>
   </trkpt>
   <trkpt lat="-3.0945230" lon="37.3327600">
    <ele>4000.3</ele>
    <time>2026-06-22T05:13:39Z</time>
   </trkpt>
   <trkpt lat="-3.0945260" lon="37.3327600">
    <ele>4000.3</ele>
    <time>2026-06-22T05:13:40Z</time>
   </trkpt>
   <trkpt lat="-3.0945250" lon="37.3327600">
    <ele>4000.3</ele>
    <time>2026-06-22T05:13:41Z</time>
   </trkpt>
   <trkpt lat="-3.0945230" lon="37.3327640">
    <ele>4000.4</ele>
    <time>2026-06-22T05:13:42Z</time>
   </trkpt>
   <trkpt lat="-3.0945220" lon="37.3327650">
    <ele>4000.5</ele>
    <time>2026-06-22T05:13:43Z</time>
   </trkpt>
   <trkpt lat="-3.0945220" lon="37.3327660">
    <ele>4000.5</ele>
    <time>2026-06-22T05:13:44Z</time>
   </trkpt>
   <trkpt lat="-3.0945220" lon="37.3327660">
    <ele>4000.5</ele>
    <time>2026-06-22T05:13:45Z</time>
   </trkpt>
   <trkpt lat="-3.0945220" lon="37.3327670">
    <ele>4000.5</ele>
    <time>2026-06-22T05:13:46Z</time>
   </trkpt>
   <trkpt lat="-3.0945200" lon="37.3327660">
    <ele>4000.6</ele>
    <time>2026-06-22T05:13:47Z</time>
   </trkpt>
   <trkpt lat="-3.0945210" lon="37.3327660">
    <ele>4000.6</ele>
    <time>2026-06-22T05:13:48Z</time>
   </trkpt>
   <trkpt lat="-3.0945210" lon="37.3327660">
    <ele>4000.6</ele>
    <time>2026-06-22T05:13:49Z</time>
   </trkpt>
   <trkpt lat="-3.0945210" lon="37.3327660">
    <ele>4000.6</ele>
    <time>2026-06-22T05:13:50Z</time>
   </trkpt>
   <trkpt lat="-3.0945210" lon="37.3327660">
    <ele>4000.6</ele>
    <time>2026-06-22T05:13:51Z</time>
   </trkpt>
   <trkpt lat="-3.0945210" lon="37.3327640">
    <ele>4000.6</ele>
    <time>2026-06-22T05:13:52Z</time>
   </trkpt>
   <trkpt lat="-3.0945220" lon="37.3327660">
    <ele>4000.7</ele>
    <time>2026-06-22T05:13:53Z</time>
   </trkpt>
   <trkpt lat="-3.0945210" lon="37.3327640">
    <ele>4000.7</ele>
    <time>2026-06-22T05:13:54Z</time>
   </trkpt>
   <trkpt lat="-3.0945180" lon="37.3327620">
    <ele>4000.8</ele>
    <time>2026-06-22T05:13:55Z</time>
   </trkpt>
   <trkpt lat="-3.0945200" lon="37.3327640">
    <ele>4000.8</ele>
    <time>2026-06-22T05:13:56Z</time>
   </trkpt>
   <trkpt lat="-3.0945190" lon="37.3327640">
    <ele>4000.9</ele>
    <time>2026-06-22T05:13:57Z</time>
   </trkpt>
   <trkpt lat="-3.0945180" lon="37.3327640">
    <ele>4000.9</ele>
    <time>2026-06-22T05:13:58Z</time>
   </trkpt>
   <trkpt lat="-3.0945190" lon="37.3327700">
    <ele>4001.0</ele>
    <time>2026-06-22T05:13:59Z</time>
   </trkpt>
   <trkpt lat="-3.0945160" lon="37.3327710">
    <ele>4001.1</ele>
    <time>2026-06-22T05:14:00Z</time>
   </trkpt>
   <trkpt lat="-3.0945170" lon="37.3327740">
    <ele>4001.1</ele>
    <time>2026-06-22T05:14:01Z</time>
   </trkpt>
   <trkpt lat="-3.0945180" lon="37.3327660">
    <ele>4001.3</ele>
    <time>2026-06-22T05:14:02Z</time>
   </trkpt>
   <trkpt lat="-3.0945130" lon="37.3327720">
    <ele>4001.4</ele>
    <time>2026-06-22T05:14:03Z</time>
   </trkpt>
   <trkpt lat="-3.0945140" lon="37.3327760">
    <ele>4001.5</ele>
    <time>2026-06-22T05:14:04Z</time>
   </trkpt>
   <trkpt lat="-3.0945180" lon="37.3327760">
    <ele>4001.6</ele>
    <time>2026-06-22T05:14:05Z</time>
   </trkpt>
   <trkpt lat="-3.0945190" lon="37.3327760">
    <ele>4001.6</ele>
    <time>2026-06-22T05:14:06Z</time>
   </trkpt>
   <trkpt lat="-3.0945190" lon="37.3327760">
    <ele>4001.6</ele>
    <time>2026-06-22T05:14:07Z</time>
   </trkpt>
   <trkpt lat="-3.0945190" lon="37.3327760">
    <ele>4001.6</ele>
    <time>2026-06-22T05:14:08Z</time>
   </trkpt>
   <trkpt lat="-3.0945210" lon="37.3327730">
    <ele>4001.7</ele>
    <time>2026-06-22T05:14:09Z</time>
   </trkpt>
   <trkpt lat="-3.0945200" lon="37.3327760">
    <ele>4001.8</ele>
    <time>2026-06-22T05:14:10Z</time>
   </trkpt>
   <trkpt lat="-3.0945230" lon="37.3327730">
    <ele>4001.8</ele>
    <time>2026-06-22T05:14:11Z</time>
   </trkpt>
   <trkpt lat="-3.0945320" lon="37.3327650">
    <ele>4002.1</ele>
    <time>2026-06-22T05:14:12Z</time>
   </trkpt>
   <trkpt lat="-3.0945360" lon="37.3327640">
    <ele>4002.2</ele>
    <time>2026-06-22T05:14:13Z</time>
   </trkpt>
   <trkpt lat="-3.0945320" lon="37.3327760">
    <ele>4002.4</ele>
    <time>2026-06-22T05:14:14Z</time>
   </trkpt>
   <trkpt lat="-3.0945370" lon="37.3327730">
    <ele>4002.5</ele>
    <time>2026-06-22T05:14:15Z</time>
   </trkpt>
   <trkpt lat="-3.0945320" lon="37.3327840">
    <ele>4002.8</ele>
    <time>2026-06-22T05:14:16Z</time>
   </trkpt>
   <trkpt lat="-3.0945390" lon="37.3327820">
    <ele>4002.9</ele>
    <time>2026-06-22T05:14:17Z</time>
   </trkpt>
   <trkpt lat="-3.0945410" lon="37.3327830">
    <ele>4002.9</ele>
    <time>2026-06-22T05:14:18Z</time>
   </trkpt>
   <trkpt lat="-3.0945410" lon="37.3327780">
    <ele>4003.0</ele>
    <time>2026-06-22T05:14:19Z</time>
   </trkpt>
   <trkpt lat="-3.0945420" lon="37.3327800">
    <ele>4003.1</ele>
    <time>2026-06-22T05:14:20Z</time>
   </trkpt>
   <trkpt lat="-3.0945470" lon="37.3327780">
    <ele>4003.2</ele>
    <time>2026-06-22T05:14:21Z</time>
   </trkpt>
   <trkpt lat="-3.0945480" lon="37.3327760">
    <ele>4003.2</ele>
    <time>2026-06-22T05:14:22Z</time>
   </trkpt>
   <trkpt lat="-3.0945520" lon="37.3327800">
    <ele>4003.3</ele>
    <time>2026-06-22T05:14:23Z</time>
   </trkpt>
   <trkpt lat="-3.0945570" lon="37.3327820">
    <ele>4003.4</ele>
    <time>2026-06-22T05:14:24Z</time>
   </trkpt>
   <trkpt lat="-3.0945610" lon="37.3327880">
    <ele>4003.6</ele>
    <time>2026-06-22T05:14:25Z</time>
   </trkpt>
   <trkpt lat="-3.0945660" lon="37.3327840">
    <ele>4003.7</ele>
    <time>2026-06-22T05:14:26Z</time>
   </trkpt>
   <trkpt lat="-3.0945710" lon="37.3327780">
    <ele>4003.8</ele>
    <time>2026-06-22T05:14:27Z</time>
   </trkpt>
   <trkpt lat="-3.0945740" lon="37.3327760">
    <ele>4003.9</ele>
    <time>2026-06-22T05:14:28Z</time>
   </trkpt>
   <trkpt lat="-3.0945740" lon="37.3327730">
    <ele>4004.0</ele>
    <time>2026-06-22T05:14:29Z</time>
   </trkpt>
   <trkpt lat="-3.0945790" lon="37.3327720">
    <ele>4004.1</ele>
    <time>2026-06-22T05:14:30Z</time>
   </trkpt>
   <trkpt lat="-3.0945830" lon="37.3327690">
    <ele>4004.1</ele>
    <time>2026-06-22T05:14:31Z</time>
   </trkpt>
   <trkpt lat="-3.0945880" lon="37.3327700">
    <ele>4004.2</ele>
    <time>2026-06-22T05:14:32Z</time>
   </trkpt>
   <trkpt lat="-3.0945880" lon="37.3327690">
    <ele>4004.3</ele>
    <time>2026-06-22T05:14:33Z</time>
   </trkpt>
   <trkpt lat="-3.0945890" lon="37.3327700">
    <ele>4004.3</ele>
    <time>2026-06-22T05:14:34Z</time>
   </trkpt>
   <trkpt lat="-3.0945890" lon="37.3327700">
    <ele>4004.3</ele>
    <time>2026-06-22T05:14:35Z</time>
   </trkpt>
   <trkpt lat="-3.0945920" lon="37.3327700">
    <ele>4004.3</ele>
    <time>2026-06-22T05:14:36Z</time>
   </trkpt>
   <trkpt lat="-3.0945930" lon="37.3327750">
    <ele>4004.4</ele>
    <time>2026-06-22T05:14:37Z</time>
   </trkpt>
   <trkpt lat="-3.0945920" lon="37.3327750">
    <ele>4004.4</ele>
    <time>2026-06-22T05:14:38Z</time>
   </trkpt>
   <trkpt lat="-3.0945960" lon="37.3327740">
    <ele>4004.5</ele>
    <time>2026-06-22T05:14:39Z</time>
   </trkpt>
   <trkpt lat="-3.0945980" lon="37.3327730">
    <ele>4004.6</ele>
    <time>2026-06-22T05:14:40Z</time>
   </trkpt>
   <trkpt lat="-3.0945990" lon="37.3327760">
    <ele>4004.6</ele>
    <time>2026-06-22T05:14:41Z</time>
   </trkpt>
   <trkpt lat="-3.0946010" lon="37.3327760">
    <ele>4004.7</ele>
    <time>2026-06-22T05:14:42Z</time>
   </trkpt>
   <trkpt lat="-3.0946050" lon="37.3327790">
    <ele>4004.7</ele>
    <time>2026-06-22T05:14:43Z</time>
   </trkpt>
   <trkpt lat="-3.0946050" lon="37.3327810">
    <ele>4004.8</ele>
    <time>2026-06-22T05:14:44Z</time>
   </trkpt>
   <trkpt lat="-3.0946070" lon="37.3327820">
    <ele>4004.8</ele>
    <time>2026-06-22T05:14:45Z</time>
   </trkpt>
   <trkpt lat="-3.0946100" lon="37.3327820">
    <ele>4004.9</ele>
    <time>2026-06-22T05:14:46Z</time>
   </trkpt>
   <trkpt lat="-3.0946110" lon="37.3327860">
    <ele>4005.0</ele>
    <time>2026-06-22T05:14:47Z</time>
   </trkpt>
   <trkpt lat="-3.0946120" lon="37.3327900">
    <ele>4005.0</ele>
    <time>2026-06-22T05:14:48Z</time>
   </trkpt>
   <trkpt lat="-3.0946150" lon="37.3327900">
    <ele>4005.1</ele>
    <time>2026-06-22T05:14:49Z</time>
   </trkpt>
   <trkpt lat="-3.0946180" lon="37.3327880">
    <ele>4005.1</ele>
    <time>2026-06-22T05:14:50Z</time>
   </trkpt>
   <trkpt lat="-3.0946170" lon="37.3327830">
    <ele>4005.2</ele>
    <time>2026-06-22T05:14:51Z</time>
   </trkpt>
   <trkpt lat="-3.0946190" lon="37.3327800">
    <ele>4005.3</ele>
    <time>2026-06-22T05:14:52Z</time>
   </trkpt>
   <trkpt lat="-3.0946230" lon="37.3327780">
    <ele>4005.4</ele>
    <time>2026-06-22T05:14:53Z</time>
   </trkpt>
   <trkpt lat="-3.0946260" lon="37.3327800">
    <ele>4005.4</ele>
    <time>2026-06-22T05:14:54Z</time>
   </trkpt>
   <trkpt lat="-3.0946280" lon="37.3327750">
    <ele>4005.5</ele>
    <time>2026-06-22T05:14:55Z</time>
   </trkpt>
   <trkpt lat="-3.0946330" lon="37.3327750">
    <ele>4005.6</ele>
    <time>2026-06-22T05:14:56Z</time>
   </trkpt>
   <trkpt lat="-3.0946340" lon="37.3327760">
    <ele>4005.7</ele>
    <time>2026-06-22T05:14:57Z</time>
   </trkpt>
   <trkpt lat="-3.0946370" lon="37.3327790">
    <ele>4005.7</ele>
    <time>2026-06-22T05:14:58Z</time>
   </trkpt>
   <trkpt lat="-3.0946340" lon="37.3327750">
    <ele>4005.8</ele>
    <time>2026-06-22T05:14:59Z</time>
   </trkpt>
   <trkpt lat="-3.0946350" lon="37.3327690">
    <ele>4005.9</ele>
    <time>2026-06-22T05:15:00Z</time>
   </trkpt>
   <trkpt lat="-3.0946380" lon="37.3327640">
    <ele>4006.0</ele>
    <time>2026-06-22T05:15:01Z</time>
   </trkpt>
   <trkpt lat="-3.0946460" lon="37.3327630">
    <ele>4006.2</ele>
    <time>2026-06-22T05:15:02Z</time>
   </trkpt>
   <trkpt lat="-3.0946460" lon="37.3327640">
    <ele>4006.2</ele>
    <time>2026-06-22T05:15:03Z</time>
   </trkpt>
   <trkpt lat="-3.0946520" lon="37.3327670">
    <ele>4006.3</ele>
    <time>2026-06-22T05:15:04Z</time>
   </trkpt>
   <trkpt lat="-3.0946560" lon="37.3327630">
    <ele>4006.4</ele>
    <time>2026-06-22T05:15:05Z</time>
   </trkpt>
   <trkpt lat="-3.0946570" lon="37.3327610">
    <ele>4006.4</ele>
    <time>2026-06-22T05:15:06Z</time>
   </trkpt>
   <trkpt lat="-3.0946590" lon="37.3327540">
    <ele>4006.6</ele>
    <time>2026-06-22T05:15:07Z</time>
   </trkpt>
   <trkpt lat="-3.0946640" lon="37.3327550">
    <ele>4006.6</ele>
    <time>2026-06-22T05:15:08Z</time>
   </trkpt>
   <trkpt lat="-3.0946680" lon="37.3327500">
    <ele>4006.7</ele>
    <time>2026-06-22T05:15:09Z</time>
   </trkpt>
   <trkpt lat="-3.0946690" lon="37.3327490">
    <ele>4006.8</ele>
    <time>2026-06-22T05:15:10Z</time>
   </trkpt>
   <trkpt lat="-3.0946710" lon="37.3327520">
    <ele>4006.8</ele>
    <time>2026-06-22T05:15:11Z</time>
   </trkpt>
   <trkpt lat="-3.0946710" lon="37.3327520">
    <ele>4006.8</ele>
    <time>2026-06-22T05:15:12Z</time>
   </trkpt>
   <trkpt lat="-3.0946730" lon="37.3327530">
    <ele>4006.9</ele>
    <time>2026-06-22T05:15:13Z</time>
   </trkpt>
   <trkpt lat="-3.0946730" lon="37.3327530">
    <ele>4006.9</ele>
    <time>2026-06-22T05:15:14Z</time>
   </trkpt>
   <trkpt lat="-3.0946780" lon="37.3327550">
    <ele>4007.0</ele>
    <time>2026-06-22T05:15:15Z</time>
   </trkpt>
   <trkpt lat="-3.0946790" lon="37.3327530">
    <ele>4007.0</ele>
    <time>2026-06-22T05:15:16Z</time>
   </trkpt>
   <trkpt lat="-3.0946800" lon="37.3327540">
    <ele>4007.0</ele>
    <time>2026-06-22T05:15:17Z</time>
   </trkpt>
   <trkpt lat="-3.0946800" lon="37.3327530">
    <ele>4007.0</ele>
    <time>2026-06-22T05:15:18Z</time>
   </trkpt>
   <trkpt lat="-3.0946830" lon="37.3327530">
    <ele>4007.1</ele>
    <time>2026-06-22T05:15:19Z</time>
   </trkpt>
   <trkpt lat="-3.0946830" lon="37.3327530">
    <ele>4007.1</ele>
    <time>2026-06-22T05:15:20Z</time>
   </trkpt>
   <trkpt lat="-3.0946860" lon="37.3327510">
    <ele>4007.2</ele>
    <time>2026-06-22T05:15:21Z</time>
   </trkpt>
   <trkpt lat="-3.0946880" lon="37.3327500">
    <ele>4007.2</ele>
    <time>2026-06-22T05:15:22Z</time>
   </trkpt>
   <trkpt lat="-3.0946880" lon="37.3327540">
    <ele>4007.3</ele>
    <time>2026-06-22T05:15:23Z</time>
   </trkpt>
   <trkpt lat="-3.0946920" lon="37.3327490">
    <ele>4007.4</ele>
    <time>2026-06-22T05:15:24Z</time>
   </trkpt>
   <trkpt lat="-3.0946920" lon="37.3327490">
    <ele>4007.4</ele>
    <time>2026-06-22T05:15:25Z</time>
   </trkpt>
   <trkpt lat="-3.0946920" lon="37.3327490">
    <ele>4007.4</ele>
    <time>2026-06-22T05:15:26Z</time>
   </trkpt>
   <trkpt lat="-3.0946920" lon="37.3327490">
    <ele>4007.4</ele>
    <time>2026-06-22T05:15:27Z</time>
   </trkpt>
   <trkpt lat="-3.0946930" lon="37.3327500">
    <ele>4007.4</ele>
    <time>2026-06-22T05:15:29Z</time>
   </trkpt>
   <trkpt lat="-3.0946940" lon="37.3327520">
    <ele>4007.4</ele>
    <time>2026-06-22T05:15:30Z</time>
   </trkpt>
   <trkpt lat="-3.0946940" lon="37.3327510">
    <ele>4007.4</ele>
    <time>2026-06-22T05:15:31Z</time>
   </trkpt>
   <trkpt lat="-3.0946950" lon="37.3327500">
    <ele>4007.5</ele>
    <time>2026-06-22T05:15:32Z</time>
   </trkpt>
   <trkpt lat="-3.0946950" lon="37.3327510">
    <ele>4007.5</ele>
    <time>2026-06-22T05:15:33Z</time>
   </trkpt>
   <trkpt lat="-3.0946930" lon="37.3327490">
    <ele>4007.5</ele>
    <time>2026-06-22T05:15:34Z</time>
   </trkpt>
   <trkpt lat="-3.0946950" lon="37.3327500">
    <ele>4007.6</ele>
    <time>2026-06-22T05:15:35Z</time>
   </trkpt>
   <trkpt lat="-3.0946950" lon="37.3327500">
    <ele>4007.6</ele>
    <time>2026-06-22T05:15:36Z</time>
   </trkpt>
   <trkpt lat="-3.0946950" lon="37.3327500">
    <ele>4007.6</ele>
    <time>2026-06-22T05:15:37Z</time>
   </trkpt>
   <trkpt lat="-3.0946960" lon="37.3327500">
    <ele>4007.6</ele>
    <time>2026-06-22T05:15:38Z</time>
   </trkpt>
   <trkpt lat="-3.0946960" lon="37.3327490">
    <ele>4007.6</ele>
    <time>2026-06-22T05:15:39Z</time>
   </trkpt>
   <trkpt lat="-3.0946970" lon="37.3327460">
    <ele>4007.6</ele>
    <time>2026-06-22T05:15:40Z</time>
   </trkpt>
   <trkpt lat="-3.0946990" lon="37.3327460">
    <ele>4007.7</ele>
    <time>2026-06-22T05:15:41Z</time>
   </trkpt>
   <trkpt lat="-3.0946980" lon="37.3327470">
    <ele>4007.7</ele>
    <time>2026-06-22T05:15:42Z</time>
   </trkpt>
   <trkpt lat="-3.0946980" lon="37.3327470">
    <ele>4007.7</ele>
    <time>2026-06-22T05:15:43Z</time>
   </trkpt>
   <trkpt lat="-3.0946980" lon="37.3327470">
    <ele>4007.7</ele>
    <time>2026-06-22T05:15:44Z</time>
   </trkpt>
   <trkpt lat="-3.0947000" lon="37.3327410">
    <ele>4007.8</ele>
    <time>2026-06-22T05:15:45Z</time>
   </trkpt>
   <trkpt lat="-3.0947020" lon="37.3327380">
    <ele>4007.9</ele>
    <time>2026-06-22T05:15:46Z</time>
   </trkpt>
   <trkpt lat="-3.0947030" lon="37.3327400">
    <ele>4007.9</ele>
    <time>2026-06-22T05:15:47Z</time>
   </trkpt>
   <trkpt lat="-3.0947050" lon="37.3327370">
    <ele>4007.9</ele>
    <time>2026-06-22T05:15:48Z</time>
   </trkpt>
   <trkpt lat="-3.0947030" lon="37.3327360">
    <ele>4008.0</ele>
    <time>2026-06-22T05:15:49Z</time>
   </trkpt>
   <trkpt lat="-3.0947040" lon="37.3327380">
    <ele>4008.0</ele>
    <time>2026-06-22T05:15:50Z</time>
   </trkpt>
   <trkpt lat="-3.0947030" lon="37.3327410">
    <ele>4008.1</ele>
    <time>2026-06-22T05:15:51Z</time>
   </trkpt>
   <trkpt lat="-3.0947030" lon="37.3327410">
    <ele>4008.1</ele>
    <time>2026-06-22T05:15:52Z</time>
   </trkpt>
   <trkpt lat="-3.0947010" lon="37.3327420">
    <ele>4008.1</ele>
    <time>2026-06-22T05:15:53Z</time>
   </trkpt>
   <trkpt lat="-3.0947010" lon="37.3327420">
    <ele>4008.1</ele>
    <time>2026-06-22T05:15:54Z</time>
   </trkpt>
   <trkpt lat="-3.0946980" lon="37.3327400">
    <ele>4008.2</ele>
    <time>2026-06-22T05:15:55Z</time>
   </trkpt>
   <trkpt lat="-3.0946960" lon="37.3327390">
    <ele>4008.2</ele>
    <time>2026-06-22T05:15:56Z</time>
   </trkpt>
   <trkpt lat="-3.0946980" lon="37.3327390">
    <ele>4008.2</ele>
    <time>2026-06-22T05:15:57Z</time>
   </trkpt>
   <trkpt lat="-3.0946980" lon="37.3327430">
    <ele>4008.3</ele>
    <time>2026-06-22T05:15:58Z</time>
   </trkpt>
   <trkpt lat="-3.0946980" lon="37.3327410">
    <ele>4008.3</ele>
    <time>2026-06-22T05:15:59Z</time>
   </trkpt>
   <trkpt lat="-3.0946970" lon="37.3327450">
    <ele>4008.4</ele>
    <time>2026-06-22T05:16:00Z</time>
   </trkpt>
   <trkpt lat="-3.0946970" lon="37.3327430">
    <ele>4008.4</ele>
    <time>2026-06-22T05:16:01Z</time>
   </trkpt>
   <trkpt lat="-3.0946980" lon="37.3327450">
    <ele>4008.5</ele>
    <time>2026-06-22T05:16:02Z</time>
   </trkpt>
   <trkpt lat="-3.0946990" lon="37.3327460">
    <ele>4008.5</ele>
    <time>2026-06-22T05:16:03Z</time>
   </trkpt>
   <trkpt lat="-3.0946990" lon="37.3327430">
    <ele>4008.5</ele>
    <time>2026-06-22T05:16:04Z</time>
   </trkpt>
   <trkpt lat="-3.0947010" lon="37.3327430">
    <ele>4008.6</ele>
    <time>2026-06-22T05:16:05Z</time>
   </trkpt>
   <trkpt lat="-3.0947010" lon="37.3327420">
    <ele>4008.6</ele>
    <time>2026-06-22T05:16:06Z</time>
   </trkpt>
   <trkpt lat="-3.0947030" lon="37.3327410">
    <ele>4008.6</ele>
    <time>2026-06-22T05:16:07Z</time>
   </trkpt>
   <trkpt lat="-3.0947060" lon="37.3327470">
    <ele>4008.7</ele>
    <time>2026-06-22T05:16:08Z</time>
   </trkpt>
   <trkpt lat="-3.0947070" lon="37.3327470">
    <ele>4008.7</ele>
    <time>2026-06-22T05:16:09Z</time>
   </trkpt>
   <trkpt lat="-3.0947050" lon="37.3327420">
    <ele>4008.8</ele>
    <time>2026-06-22T05:16:10Z</time>
   </trkpt>
   <trkpt lat="-3.0947090" lon="37.3327490">
    <ele>4008.9</ele>
    <time>2026-06-22T05:16:11Z</time>
   </trkpt>
   <trkpt lat="-3.0947090" lon="37.3327480">
    <ele>4008.9</ele>
    <time>2026-06-22T05:16:12Z</time>
   </trkpt>
   <trkpt lat="-3.0947070" lon="37.3327470">
    <ele>4009.0</ele>
    <time>2026-06-22T05:16:13Z</time>
   </trkpt>
   <trkpt lat="-3.0947070" lon="37.3327470">
    <ele>4009.0</ele>
    <time>2026-06-22T05:16:14Z</time>
   </trkpt>
   <trkpt lat="-3.0947070" lon="37.3327470">
    <ele>4009.0</ele>
    <time>2026-06-22T05:16:15Z</time>
   </trkpt>
   <trkpt lat="-3.0947080" lon="37.3327510">
    <ele>4009.0</ele>
    <time>2026-06-22T05:16:16Z</time>
   </trkpt>
   <trkpt lat="-3.0947100" lon="37.3327530">
    <ele>4009.1</ele>
    <time>2026-06-22T05:16:17Z</time>
   </trkpt>
   <trkpt lat="-3.0947120" lon="37.3327580">
    <ele>4009.2</ele>
    <time>2026-06-22T05:16:18Z</time>
   </trkpt>
   <trkpt lat="-3.0947140" lon="37.3327660">
    <ele>4009.3</ele>
    <time>2026-06-22T05:16:19Z</time>
   </trkpt>
   <trkpt lat="-3.0947100" lon="37.3327650">
    <ele>4009.3</ele>
    <time>2026-06-22T05:16:20Z</time>
   </trkpt>
   <trkpt lat="-3.0947220" lon="37.3327630">
    <ele>4009.5</ele>
    <time>2026-06-22T05:16:21Z</time>
   </trkpt>
   <trkpt lat="-3.0947250" lon="37.3327620">
    <ele>4009.5</ele>
    <time>2026-06-22T05:16:22Z</time>
   </trkpt>
   <trkpt lat="-3.0947210" lon="37.3327620">
    <ele>4009.6</ele>
    <time>2026-06-22T05:16:23Z</time>
   </trkpt>
   <trkpt lat="-3.0947200" lon="37.3327620">
    <ele>4009.6</ele>
    <time>2026-06-22T05:16:24Z</time>
   </trkpt>
   <trkpt lat="-3.0947200" lon="37.3327620">
    <ele>4009.6</ele>
    <time>2026-06-22T05:16:25Z</time>
   </trkpt>
   <trkpt lat="-3.0947180" lon="37.3327550">
    <ele>4009.7</ele>
    <time>2026-06-22T05:16:26Z</time>
   </trkpt>
   <trkpt lat="-3.0947170" lon="37.3327560">
    <ele>4009.7</ele>
    <time>2026-06-22T05:16:27Z</time>
   </trkpt>
   <trkpt lat="-3.0947170" lon="37.3327560">
    <ele>4009.7</ele>
    <time>2026-06-22T05:16:28Z</time>
   </trkpt>
   <trkpt lat="-3.0947160" lon="37.3327570">
    <ele>4009.8</ele>
    <time>2026-06-22T05:16:29Z</time>
   </trkpt>
   <trkpt lat="-3.0947250" lon="37.3327560">
    <ele>4009.9</ele>
    <time>2026-06-22T05:16:30Z</time>
   </trkpt>
   <trkpt lat="-3.0947210" lon="37.3327540">
    <ele>4010.0</ele>
    <time>2026-06-22T05:16:31Z</time>
   </trkpt>
   <trkpt lat="-3.0947190" lon="37.3327520">
    <ele>4010.0</ele>
    <time>2026-06-22T05:16:32Z</time>
   </trkpt>
   <trkpt lat="-3.0947230" lon="37.3327510">
    <ele>4010.1</ele>
    <time>2026-06-22T05:16:33Z</time>
   </trkpt>
   <trkpt lat="-3.0947220" lon="37.3327510">
    <ele>4010.1</ele>
    <time>2026-06-22T05:16:34Z</time>
   </trkpt>
   <trkpt lat="-3.0947240" lon="37.3327530">
    <ele>4010.1</ele>
    <time>2026-06-22T05:16:35Z</time>
   </trkpt>
   <trkpt lat="-3.0947240" lon="37.3327530">
    <ele>4010.1</ele>
    <time>2026-06-22T05:16:36Z</time>
   </trkpt>
   <trkpt lat="-3.0947240" lon="37.3327530">
    <ele>4010.1</ele>
    <time>2026-06-22T05:16:37Z</time>
   </trkpt>
   <trkpt lat="-3.0947240" lon="37.3327540">
    <ele>4010.1</ele>
    <time>2026-06-22T05:16:38Z</time>
   </trkpt>
   <trkpt lat="-3.0947240" lon="37.3327540">
    <ele>4010.1</ele>
    <time>2026-06-22T05:16:39Z</time>
   </trkpt>
   <trkpt lat="-3.0947240" lon="37.3327540">
    <ele>4010.1</ele>
    <time>2026-06-22T05:16:40Z</time>
   </trkpt>
   <trkpt lat="-3.0947240" lon="37.3327540">
    <ele>4010.1</ele>
    <time>2026-06-22T05:16:41Z</time>
   </trkpt>
   <trkpt lat="-3.0947240" lon="37.3327540">
    <ele>4010.1</ele>
    <time>2026-06-22T05:16:42Z</time>
   </trkpt>
   <trkpt lat="-3.0947240" lon="37.3327540">
    <ele>4010.1</ele>
    <time>2026-06-22T05:16:43Z</time>
   </trkpt>
   <trkpt lat="-3.0947240" lon="37.3327540">
    <ele>4010.1</ele>
    <time>2026-06-22T05:16:44Z</time>
   </trkpt>
   <trkpt lat="-3.0947240" lon="37.3327540">
    <ele>4010.1</ele>
    <time>2026-06-22T05:16:45Z</time>
   </trkpt>
   <trkpt lat="-3.0947240" lon="37.3327540">
    <ele>4010.1</ele>
    <time>2026-06-22T05:16:46Z</time>
   </trkpt>
   <trkpt lat="-3.0947240" lon="37.3327540">
    <ele>4010.1</ele>
    <time>2026-06-22T05:16:47Z</time>
   </trkpt>
   <trkpt lat="-3.0947240" lon="37.3327540">
    <ele>4010.1</ele>
    <time>2026-06-22T05:16:48Z</time>
   </trkpt>
   <trkpt lat="-3.0947240" lon="37.3327540">
    <ele>4010.1</ele>
    <time>2026-06-22T05:16:49Z</time>
   </trkpt>
   <trkpt lat="-3.0947240" lon="37.3327540">
    <ele>4010.1</ele>
    <time>2026-06-22T05:16:50Z</time>
   </trkpt>
   <trkpt lat="-3.0947240" lon="37.3327540">
    <ele>4010.1</ele>
    <time>2026-06-22T05:16:51Z</time>
   </trkpt>
   <trkpt lat="-3.0947240" lon="37.3327540">
    <ele>4010.1</ele>
    <time>2026-06-22T05:16:52Z</time>
   </trkpt>
   <trkpt lat="-3.0947240" lon="37.3327540">
    <ele>4010.1</ele>
    <time>2026-06-22T05:16:53Z</time>
   </trkpt>
   <trkpt lat="-3.0947270" lon="37.3327530">
    <ele>4010.2</ele>
    <time>2026-06-22T05:16:54Z</time>
   </trkpt>
   <trkpt lat="-3.0947270" lon="37.3327540">
    <ele>4010.2</ele>
    <time>2026-06-22T05:16:55Z</time>
   </trkpt>
   <trkpt lat="-3.0947270" lon="37.3327540">
    <ele>4010.2</ele>
    <time>2026-06-22T05:16:56Z</time>
   </trkpt>
   <trkpt lat="-3.0947270" lon="37.3327510">
    <ele>4010.2</ele>
    <time>2026-06-22T05:16:57Z</time>
   </trkpt>
   <trkpt lat="-3.0947270" lon="37.3327510">
    <ele>4010.2</ele>
    <time>2026-06-22T05:16:58Z</time>
   </trkpt>
   <trkpt lat="-3.0947270" lon="37.3327510">
    <ele>4010.2</ele>
    <time>2026-06-22T05:16:59Z</time>
   </trkpt>
   <trkpt lat="-3.0947250" lon="37.3327520">
    <ele>4010.3</ele>
    <time>2026-06-22T05:17:00Z</time>
   </trkpt>
   <trkpt lat="-3.0947260" lon="37.3327520">
    <ele>4010.3</ele>
    <time>2026-06-22T05:17:01Z</time>
   </trkpt>
   <trkpt lat="-3.0947300" lon="37.3327360">
    <ele>4010.5</ele>
    <time>2026-06-22T05:17:02Z</time>
   </trkpt>
   <trkpt lat="-3.0947300" lon="37.3327350">
    <ele>4010.5</ele>
    <time>2026-06-22T05:17:03Z</time>
   </trkpt>
   <trkpt lat="-3.0947340" lon="37.3327360">
    <ele>4010.6</ele>
    <time>2026-06-22T05:17:04Z</time>
   </trkpt>
   <trkpt lat="-3.0947350" lon="37.3327410">
    <ele>4010.6</ele>
    <time>2026-06-22T05:17:05Z</time>
   </trkpt>
   <trkpt lat="-3.0947380" lon="37.3327400">
    <ele>4010.7</ele>
    <time>2026-06-22T05:17:06Z</time>
   </trkpt>
   <trkpt lat="-3.0947400" lon="37.3327350">
    <ele>4010.7</ele>
    <time>2026-06-22T05:17:07Z</time>
   </trkpt>
   <trkpt lat="-3.0947420" lon="37.3327330">
    <ele>4010.8</ele>
    <time>2026-06-22T05:17:08Z</time>
   </trkpt>
   <trkpt lat="-3.0947420" lon="37.3327330">
    <ele>4010.8</ele>
    <time>2026-06-22T05:17:09Z</time>
   </trkpt>
   <trkpt lat="-3.0947420" lon="37.3327340">
    <ele>4010.8</ele>
    <time>2026-06-22T05:17:10Z</time>
   </trkpt>
   <trkpt lat="-3.0947420" lon="37.3327320">
    <ele>4010.8</ele>
    <time>2026-06-22T05:17:11Z</time>
   </trkpt>
   <trkpt lat="-3.0947410" lon="37.3327350">
    <ele>4010.9</ele>
    <time>2026-06-22T05:17:12Z</time>
   </trkpt>
   <trkpt lat="-3.0947410" lon="37.3327350">
    <ele>4010.9</ele>
    <time>2026-06-22T05:17:13Z</time>
   </trkpt>
   <trkpt lat="-3.0947410" lon="37.3327350">
    <ele>4010.9</ele>
    <time>2026-06-22T05:17:14Z</time>
   </trkpt>
   <trkpt lat="-3.0947420" lon="37.3327400">
    <ele>4010.9</ele>
    <time>2026-06-22T05:17:15Z</time>
   </trkpt>
   <trkpt lat="-3.0947420" lon="37.3327400">
    <ele>4010.9</ele>
    <time>2026-06-22T05:17:16Z</time>
   </trkpt>
   <trkpt lat="-3.0947420" lon="37.3327400">
    <ele>4010.9</ele>
    <time>2026-06-22T05:17:17Z</time>
   </trkpt>
   <trkpt lat="-3.0947410" lon="37.3327430">
    <ele>4011.0</ele>
    <time>2026-06-22T05:17:18Z</time>
   </trkpt>
   <trkpt lat="-3.0947430" lon="37.3327410">
    <ele>4011.0</ele>
    <time>2026-06-22T05:17:19Z</time>
   </trkpt>
   <trkpt lat="-3.0947430" lon="37.3327420">
    <ele>4011.0</ele>
    <time>2026-06-22T05:17:20Z</time>
   </trkpt>
   <trkpt lat="-3.0947430" lon="37.3327430">
    <ele>4011.0</ele>
    <time>2026-06-22T05:17:21Z</time>
   </trkpt>
   <trkpt lat="-3.0947430" lon="37.3327430">
    <ele>4011.0</ele>
    <time>2026-06-22T05:17:22Z</time>
   </trkpt>
   <trkpt lat="-3.0947450" lon="37.3327410">
    <ele>4011.1</ele>
    <time>2026-06-22T05:17:23Z</time>
   </trkpt>
   <trkpt lat="-3.0947510" lon="37.3327400">
    <ele>4011.1</ele>
    <time>2026-06-22T05:17:24Z</time>
   </trkpt>
   <trkpt lat="-3.0947520" lon="37.3327390">
    <ele>4011.2</ele>
    <time>2026-06-22T05:17:25Z</time>
   </trkpt>
   <trkpt lat="-3.0947500" lon="37.3327410">
    <ele>4011.2</ele>
    <time>2026-06-22T05:17:26Z</time>
   </trkpt>
   <trkpt lat="-3.0947500" lon="37.3327410">
    <ele>4011.2</ele>
    <time>2026-06-22T05:17:27Z</time>
   </trkpt>
   <trkpt lat="-3.0947500" lon="37.3327410">
    <ele>4011.2</ele>
    <time>2026-06-22T05:17:28Z</time>
   </trkpt>
   <trkpt lat="-3.0947500" lon="37.3327410">
    <ele>4011.2</ele>
    <time>2026-06-22T05:17:29Z</time>
   </trkpt>
   <trkpt lat="-3.0947500" lon="37.3327410">
    <ele>4011.2</ele>
    <time>2026-06-22T05:17:30Z</time>
   </trkpt>
   <trkpt lat="-3.0947580" lon="37.3327380">
    <ele>4011.3</ele>
    <time>2026-06-22T05:17:31Z</time>
   </trkpt>
   <trkpt lat="-3.0947600" lon="37.3327400">
    <ele>4011.3</ele>
    <time>2026-06-22T05:17:32Z</time>
   </trkpt>
   <trkpt lat="-3.0947590" lon="37.3327410">
    <ele>4011.4</ele>
    <time>2026-06-22T05:17:33Z</time>
   </trkpt>
   <trkpt lat="-3.0947610" lon="37.3327410">
    <ele>4011.4</ele>
    <time>2026-06-22T05:17:35Z</time>
   </trkpt>
   <trkpt lat="-3.0947600" lon="37.3327410">
    <ele>4011.4</ele>
    <time>2026-06-22T05:17:36Z</time>
   </trkpt>
   <trkpt lat="-3.0947600" lon="37.3327410">
    <ele>4011.4</ele>
    <time>2026-06-22T05:17:37Z</time>
   </trkpt>
   <trkpt lat="-3.0947600" lon="37.3327410">
    <ele>4011.4</ele>
    <time>2026-06-22T05:17:38Z</time>
   </trkpt>
   <trkpt lat="-3.0947600" lon="37.3327410">
    <ele>4011.4</ele>
    <time>2026-06-22T05:17:39Z</time>
   </trkpt>
   <trkpt lat="-3.0947600" lon="37.3327410">
    <ele>4011.4</ele>
    <time>2026-06-22T05:17:40Z</time>
   </trkpt>
   <trkpt lat="-3.0947610" lon="37.3327410">
    <ele>4011.4</ele>
    <time>2026-06-22T05:17:41Z</time>
   </trkpt>
   <trkpt lat="-3.0947620" lon="37.3327400">
    <ele>4011.4</ele>
    <time>2026-06-22T05:17:42Z</time>
   </trkpt>
   <trkpt lat="-3.0947590" lon="37.3327420">
    <ele>4011.5</ele>
    <time>2026-06-22T05:17:43Z</time>
   </trkpt>
   <trkpt lat="-3.0947590" lon="37.3327420">
    <ele>4011.5</ele>
    <time>2026-06-22T05:17:44Z</time>
   </trkpt>
   <trkpt lat="-3.0947640" lon="37.3327350">
    <ele>4011.6</ele>
    <time>2026-06-22T05:17:45Z</time>
   </trkpt>
   <trkpt lat="-3.0947640" lon="37.3327430">
    <ele>4011.6</ele>
    <time>2026-06-22T05:17:46Z</time>
   </trkpt>
   <trkpt lat="-3.0947640" lon="37.3327430">
    <ele>4011.6</ele>
    <time>2026-06-22T05:17:47Z</time>
   </trkpt>
   <trkpt lat="-3.0947660" lon="37.3327450">
    <ele>4011.7</ele>
    <time>2026-06-22T05:17:48Z</time>
   </trkpt>
   <trkpt lat="-3.0947660" lon="37.3327460">
    <ele>4011.7</ele>
    <time>2026-06-22T05:17:49Z</time>
   </trkpt>
   <trkpt lat="-3.0947680" lon="37.3327480">
    <ele>4011.7</ele>
    <time>2026-06-22T05:17:50Z</time>
   </trkpt>
   <trkpt lat="-3.0947650" lon="37.3327560">
    <ele>4011.8</ele>
    <time>2026-06-22T05:17:51Z</time>
   </trkpt>
   <trkpt lat="-3.0947630" lon="37.3327530">
    <ele>4011.9</ele>
    <time>2026-06-22T05:17:52Z</time>
   </trkpt>
   <trkpt lat="-3.0947620" lon="37.3327540">
    <ele>4011.9</ele>
    <time>2026-06-22T05:17:53Z</time>
   </trkpt>
   <trkpt lat="-3.0947600" lon="37.3327550">
    <ele>4011.9</ele>
    <time>2026-06-22T05:17:54Z</time>
   </trkpt>
   <trkpt lat="-3.0947600" lon="37.3327540">
    <ele>4011.9</ele>
    <time>2026-06-22T05:17:55Z</time>
   </trkpt>
   <trkpt lat="-3.0947590" lon="37.3327540">
    <ele>4011.9</ele>
    <time>2026-06-22T05:17:56Z</time>
   </trkpt>
   <trkpt lat="-3.0947690" lon="37.3327530">
    <ele>4012.0</ele>
    <time>2026-06-22T05:17:57Z</time>
   </trkpt>
   <trkpt lat="-3.0947630" lon="37.3327530">
    <ele>4012.1</ele>
    <time>2026-06-22T05:17:58Z</time>
   </trkpt>
   <trkpt lat="-3.0947630" lon="37.3327520">
    <ele>4012.1</ele>
    <time>2026-06-22T05:17:59Z</time>
   </trkpt>
   <trkpt lat="-3.0947630" lon="37.3327570">
    <ele>4012.2</ele>
    <time>2026-06-22T05:18:00Z</time>
   </trkpt>
   <trkpt lat="-3.0947650" lon="37.3327570">
    <ele>4012.2</ele>
    <time>2026-06-22T05:18:01Z</time>
   </trkpt>
   <trkpt lat="-3.0947630" lon="37.3327550">
    <ele>4012.2</ele>
    <time>2026-06-22T05:18:02Z</time>
   </trkpt>
   <trkpt lat="-3.0947610" lon="37.3327570">
    <ele>4012.2</ele>
    <time>2026-06-22T05:18:03Z</time>
   </trkpt>
   <trkpt lat="-3.0947610" lon="37.3327560">
    <ele>4012.3</ele>
    <time>2026-06-22T05:18:04Z</time>
   </trkpt>
   <trkpt lat="-3.0947600" lon="37.3327600">
    <ele>4012.3</ele>
    <time>2026-06-22T05:18:05Z</time>
   </trkpt>
   <trkpt lat="-3.0947590" lon="37.3327640">
    <ele>4012.3</ele>
    <time>2026-06-22T05:18:06Z</time>
   </trkpt>
   <trkpt lat="-3.0947590" lon="37.3327630">
    <ele>4012.4</ele>
    <time>2026-06-22T05:18:07Z</time>
   </trkpt>
   <trkpt lat="-3.0947590" lon="37.3327620">
    <ele>4012.4</ele>
    <time>2026-06-22T05:18:08Z</time>
   </trkpt>
   <trkpt lat="-3.0947550" lon="37.3327630">
    <ele>4012.4</ele>
    <time>2026-06-22T05:18:09Z</time>
   </trkpt>
   <trkpt lat="-3.0947550" lon="37.3327630">
    <ele>4012.4</ele>
    <time>2026-06-22T05:18:10Z</time>
   </trkpt>
   <trkpt lat="-3.0947550" lon="37.3327630">
    <ele>4012.4</ele>
    <time>2026-06-22T05:18:11Z</time>
   </trkpt>
   <trkpt lat="-3.0947550" lon="37.3327630">
    <ele>4012.4</ele>
    <time>2026-06-22T05:18:12Z</time>
   </trkpt>
   <trkpt lat="-3.0947550" lon="37.3327630">
    <ele>4012.4</ele>
    <time>2026-06-22T05:18:13Z</time>
   </trkpt>
   <trkpt lat="-3.0947550" lon="37.3327630">
    <ele>4012.4</ele>
    <time>2026-06-22T05:18:14Z</time>
   </trkpt>
   <trkpt lat="-3.0947500" lon="37.3327610">
    <ele>4012.5</ele>
    <time>2026-06-22T05:18:15Z</time>
   </trkpt>
   <trkpt lat="-3.0947490" lon="37.3327630">
    <ele>4012.5</ele>
    <time>2026-06-22T05:18:16Z</time>
   </trkpt>
   <trkpt lat="-3.0947490" lon="37.3327630">
    <ele>4012.5</ele>
    <time>2026-06-22T05:18:17Z</time>
   </trkpt>
   <trkpt lat="-3.0947460" lon="37.3327660">
    <ele>4012.5</ele>
    <time>2026-06-22T05:18:18Z</time>
   </trkpt>
   <trkpt lat="-3.0947450" lon="37.3327720">
    <ele>4012.6</ele>
    <time>2026-06-22T05:18:19Z</time>
   </trkpt>
   <trkpt lat="-3.0947480" lon="37.3327700">
    <ele>4012.6</ele>
    <time>2026-06-22T05:18:20Z</time>
   </trkpt>
   <trkpt lat="-3.0947500" lon="37.3327670">
    <ele>4012.6</ele>
    <time>2026-06-22T05:18:21Z</time>
   </trkpt>
   <trkpt lat="-3.0947540" lon="37.3327680">
    <ele>4012.7</ele>
    <time>2026-06-22T05:18:22Z</time>
   </trkpt>
   <trkpt lat="-3.0947540" lon="37.3327680">
    <ele>4012.7</ele>
    <time>2026-06-22T05:18:23Z</time>
   </trkpt>
   <trkpt lat="-3.0947540" lon="37.3327660">
    <ele>4012.7</ele>
    <time>2026-06-22T05:18:24Z</time>
   </trkpt>
   <trkpt lat="-3.0947560" lon="37.3327700">
    <ele>4012.7</ele>
    <time>2026-06-22T05:18:25Z</time>
   </trkpt>
   <trkpt lat="-3.0947590" lon="37.3327700">
    <ele>4012.8</ele>
    <time>2026-06-22T05:18:26Z</time>
   </trkpt>
   <trkpt lat="-3.0947590" lon="37.3327690">
    <ele>4012.8</ele>
    <time>2026-06-22T05:18:27Z</time>
   </trkpt>
   <trkpt lat="-3.0947590" lon="37.3327690">
    <ele>4012.8</ele>
    <time>2026-06-22T05:18:28Z</time>
   </trkpt>
   <trkpt lat="-3.0947600" lon="37.3327710">
    <ele>4012.8</ele>
    <time>2026-06-22T05:18:29Z</time>
   </trkpt>
   <trkpt lat="-3.0947610" lon="37.3327720">
    <ele>4012.8</ele>
    <time>2026-06-22T05:18:30Z</time>
   </trkpt>
   <trkpt lat="-3.0947610" lon="37.3327690">
    <ele>4012.8</ele>
    <time>2026-06-22T05:18:31Z</time>
   </trkpt>
   <trkpt lat="-3.0947540" lon="37.3327620">
    <ele>4012.9</ele>
    <time>2026-06-22T05:18:32Z</time>
   </trkpt>
   <trkpt lat="-3.0947530" lon="37.3327550">
    <ele>4013.0</ele>
    <time>2026-06-22T05:18:33Z</time>
   </trkpt>
   <trkpt lat="-3.0947550" lon="37.3327550">
    <ele>4013.0</ele>
    <time>2026-06-22T05:18:34Z</time>
   </trkpt>
   <trkpt lat="-3.0947590" lon="37.3327620">
    <ele>4013.1</ele>
    <time>2026-06-22T05:18:35Z</time>
   </trkpt>
   <trkpt lat="-3.0947560" lon="37.3327630">
    <ele>4013.1</ele>
    <time>2026-06-22T05:18:36Z</time>
   </trkpt>
   <trkpt lat="-3.0947560" lon="37.3327680">
    <ele>4013.1</ele>
    <time>2026-06-22T05:18:37Z</time>
   </trkpt>
   <trkpt lat="-3.0947590" lon="37.3327690">
    <ele>4013.2</ele>
    <time>2026-06-22T05:18:38Z</time>
   </trkpt>
   <trkpt lat="-3.0947680" lon="37.3327730">
    <ele>4013.3</ele>
    <time>2026-06-22T05:18:39Z</time>
   </trkpt>
   <trkpt lat="-3.0947710" lon="37.3327730">
    <ele>4013.3</ele>
    <time>2026-06-22T05:18:40Z</time>
   </trkpt>
   <trkpt lat="-3.0947750" lon="37.3327780">
    <ele>4013.3</ele>
    <time>2026-06-22T05:18:41Z</time>
   </trkpt>
   <trkpt lat="-3.0947770" lon="37.3327780">
    <ele>4013.3</ele>
    <time>2026-06-22T05:18:42Z</time>
   </trkpt>
   <trkpt lat="-3.0947780" lon="37.3327790">
    <ele>4013.3</ele>
    <time>2026-06-22T05:18:43Z</time>
   </trkpt>
   <trkpt lat="-3.0947820" lon="37.3327760">
    <ele>4013.4</ele>
    <time>2026-06-22T05:18:44Z</time>
   </trkpt>
   <trkpt lat="-3.0947830" lon="37.3327780">
    <ele>4013.4</ele>
    <time>2026-06-22T05:18:45Z</time>
   </trkpt>
   <trkpt lat="-3.0947880" lon="37.3327790">
    <ele>4013.4</ele>
    <time>2026-06-22T05:18:46Z</time>
   </trkpt>
   <trkpt lat="-3.0947910" lon="37.3327830">
    <ele>4013.5</ele>
    <time>2026-06-22T05:18:47Z</time>
   </trkpt>
   <trkpt lat="-3.0947930" lon="37.3327800">
    <ele>4013.5</ele>
    <time>2026-06-22T05:18:48Z</time>
   </trkpt>
   <trkpt lat="-3.0947930" lon="37.3327820">
    <ele>4013.5</ele>
    <time>2026-06-22T05:18:49Z</time>
   </trkpt>
   <trkpt lat="-3.0947980" lon="37.3327820">
    <ele>4013.5</ele>
    <time>2026-06-22T05:18:50Z</time>
   </trkpt>
   <trkpt lat="-3.0947970" lon="37.3327800">
    <ele>4013.6</ele>
    <time>2026-06-22T05:18:51Z</time>
   </trkpt>
   <trkpt lat="-3.0947990" lon="37.3327790">
    <ele>4013.6</ele>
    <time>2026-06-22T05:18:52Z</time>
   </trkpt>
   <trkpt lat="-3.0948050" lon="37.3327740">
    <ele>4013.6</ele>
    <time>2026-06-22T05:18:53Z</time>
   </trkpt>
   <trkpt lat="-3.0948070" lon="37.3327750">
    <ele>4013.6</ele>
    <time>2026-06-22T05:18:54Z</time>
   </trkpt>
   <trkpt lat="-3.0948100" lon="37.3327770">
    <ele>4013.7</ele>
    <time>2026-06-22T05:18:55Z</time>
   </trkpt>
   <trkpt lat="-3.0948140" lon="37.3327770">
    <ele>4013.7</ele>
    <time>2026-06-22T05:18:56Z</time>
   </trkpt>
   <trkpt lat="-3.0948170" lon="37.3327750">
    <ele>4013.7</ele>
    <time>2026-06-22T05:18:57Z</time>
   </trkpt>
   <trkpt lat="-3.0948170" lon="37.3327740">
    <ele>4013.7</ele>
    <time>2026-06-22T05:18:58Z</time>
   </trkpt>
   <trkpt lat="-3.0948190" lon="37.3327760">
    <ele>4013.8</ele>
    <time>2026-06-22T05:18:59Z</time>
   </trkpt>
   <trkpt lat="-3.0948200" lon="37.3327780">
    <ele>4013.8</ele>
    <time>2026-06-22T05:19:00Z</time>
   </trkpt>
   <trkpt lat="-3.0948220" lon="37.3327770">
    <ele>4013.8</ele>
    <time>2026-06-22T05:19:01Z</time>
   </trkpt>
   <trkpt lat="-3.0948200" lon="37.3327810">
    <ele>4013.8</ele>
    <time>2026-06-22T05:19:02Z</time>
   </trkpt>
   <trkpt lat="-3.0948170" lon="37.3327800">
    <ele>4013.8</ele>
    <time>2026-06-22T05:19:03Z</time>
   </trkpt>
   <trkpt lat="-3.0948190" lon="37.3327790">
    <ele>4013.9</ele>
    <time>2026-06-22T05:19:04Z</time>
   </trkpt>
   <trkpt lat="-3.0948180" lon="37.3327820">
    <ele>4013.9</ele>
    <time>2026-06-22T05:19:05Z</time>
   </trkpt>
   <trkpt lat="-3.0948190" lon="37.3327850">
    <ele>4013.9</ele>
    <time>2026-06-22T05:19:06Z</time>
   </trkpt>
   <trkpt lat="-3.0948140" lon="37.3327850">
    <ele>4013.9</ele>
    <time>2026-06-22T05:19:07Z</time>
   </trkpt>
   <trkpt lat="-3.0948150" lon="37.3327900">
    <ele>4014.0</ele>
    <time>2026-06-22T05:19:08Z</time>
   </trkpt>
   <trkpt lat="-3.0948150" lon="37.3327930">
    <ele>4014.0</ele>
    <time>2026-06-22T05:19:09Z</time>
   </trkpt>
   <trkpt lat="-3.0948120" lon="37.3327890">
    <ele>4014.0</ele>
    <time>2026-06-22T05:19:10Z</time>
   </trkpt>
   <trkpt lat="-3.0948160" lon="37.3327970">
    <ele>4014.1</ele>
    <time>2026-06-22T05:19:11Z</time>
   </trkpt>
   <trkpt lat="-3.0948190" lon="37.3327980">
    <ele>4014.1</ele>
    <time>2026-06-22T05:19:12Z</time>
   </trkpt>
   <trkpt lat="-3.0948180" lon="37.3327960">
    <ele>4014.1</ele>
    <time>2026-06-22T05:19:13Z</time>
   </trkpt>
   <trkpt lat="-3.0948140" lon="37.3327990">
    <ele>4014.1</ele>
    <time>2026-06-22T05:19:14Z</time>
   </trkpt>
   <trkpt lat="-3.0948110" lon="37.3328010">
    <ele>4014.1</ele>
    <time>2026-06-22T05:19:15Z</time>
   </trkpt>
   <trkpt lat="-3.0948120" lon="37.3328010">
    <ele>4014.2</ele>
    <time>2026-06-22T05:19:16Z</time>
   </trkpt>
   <trkpt lat="-3.0948130" lon="37.3328050">
    <ele>4014.2</ele>
    <time>2026-06-22T05:19:17Z</time>
   </trkpt>
   <trkpt lat="-3.0948160" lon="37.3328040">
    <ele>4014.2</ele>
    <time>2026-06-22T05:19:18Z</time>
   </trkpt>
   <trkpt lat="-3.0948220" lon="37.3328030">
    <ele>4014.2</ele>
    <time>2026-06-22T05:19:19Z</time>
   </trkpt>
   <trkpt lat="-3.0948270" lon="37.3328030">
    <ele>4014.3</ele>
    <time>2026-06-22T05:19:20Z</time>
   </trkpt>
   <trkpt lat="-3.0948310" lon="37.3328010">
    <ele>4014.3</ele>
    <time>2026-06-22T05:19:21Z</time>
   </trkpt>
   <trkpt lat="-3.0948350" lon="37.3328070">
    <ele>4014.3</ele>
    <time>2026-06-22T05:19:22Z</time>
   </trkpt>
   <trkpt lat="-3.0948410" lon="37.3328070">
    <ele>4014.4</ele>
    <time>2026-06-22T05:19:23Z</time>
   </trkpt>
   <trkpt lat="-3.0948430" lon="37.3328060">
    <ele>4014.4</ele>
    <time>2026-06-22T05:19:24Z</time>
   </trkpt>
   <trkpt lat="-3.0948510" lon="37.3328070">
    <ele>4014.4</ele>
    <time>2026-06-22T05:19:25Z</time>
   </trkpt>
   <trkpt lat="-3.0948560" lon="37.3328080">
    <ele>4014.5</ele>
    <time>2026-06-22T05:19:26Z</time>
   </trkpt>
   <trkpt lat="-3.0948550" lon="37.3328010">
    <ele>4014.5</ele>
    <time>2026-06-22T05:19:27Z</time>
   </trkpt>
   <trkpt lat="-3.0948560" lon="37.3327960">
    <ele>4014.5</ele>
    <time>2026-06-22T05:19:28Z</time>
   </trkpt>
   <trkpt lat="-3.0948570" lon="37.3327930">
    <ele>4014.5</ele>
    <time>2026-06-22T05:19:29Z</time>
   </trkpt>
   <trkpt lat="-3.0948560" lon="37.3327940">
    <ele>4014.5</ele>
    <time>2026-06-22T05:19:30Z</time>
   </trkpt>
   <trkpt lat="-3.0948570" lon="37.3327950">
    <ele>4014.5</ele>
    <time>2026-06-22T05:19:31Z</time>
   </trkpt>
   <trkpt lat="-3.0948580" lon="37.3327940">
    <ele>4014.6</ele>
    <time>2026-06-22T05:19:32Z</time>
   </trkpt>
   <trkpt lat="-3.0948580" lon="37.3327940">
    <ele>4014.6</ele>
    <time>2026-06-22T05:19:33Z</time>
   </trkpt>
   <trkpt lat="-3.0948610" lon="37.3327930">
    <ele>4014.6</ele>
    <time>2026-06-22T05:19:34Z</time>
   </trkpt>
   <trkpt lat="-3.0948600" lon="37.3327940">
    <ele>4014.6</ele>
    <time>2026-06-22T05:19:35Z</time>
   </trkpt>
   <trkpt lat="-3.0948620" lon="37.3327950">
    <ele>4014.6</ele>
    <time>2026-06-22T05:19:36Z</time>
   </trkpt>
   <trkpt lat="-3.0948650" lon="37.3327950">
    <ele>4014.6</ele>
    <time>2026-06-22T05:19:37Z</time>
   </trkpt>
   <trkpt lat="-3.0948660" lon="37.3327930">
    <ele>4014.6</ele>
    <time>2026-06-22T05:19:38Z</time>
   </trkpt>
   <trkpt lat="-3.0948660" lon="37.3327930">
    <ele>4014.6</ele>
    <time>2026-06-22T05:19:39Z</time>
   </trkpt>
   <trkpt lat="-3.0948660" lon="37.3327920">
    <ele>4014.6</ele>
    <time>2026-06-22T05:19:41Z</time>
   </trkpt>
   <trkpt lat="-3.0948660" lon="37.3327910">
    <ele>4014.6</ele>
    <time>2026-06-22T05:19:42Z</time>
   </trkpt>
   <trkpt lat="-3.0948660" lon="37.3327920">
    <ele>4014.6</ele>
    <time>2026-06-22T05:19:43Z</time>
   </trkpt>
   <trkpt lat="-3.0948640" lon="37.3327920">
    <ele>4014.6</ele>
    <time>2026-06-22T05:19:44Z</time>
   </trkpt>
   <trkpt lat="-3.0948640" lon="37.3327900">
    <ele>4014.6</ele>
    <time>2026-06-22T05:19:45Z</time>
   </trkpt>
   <trkpt lat="-3.0948650" lon="37.3327890">
    <ele>4014.7</ele>
    <time>2026-06-22T05:19:46Z</time>
   </trkpt>
   <trkpt lat="-3.0948650" lon="37.3327880">
    <ele>4014.7</ele>
    <time>2026-06-22T05:19:47Z</time>
   </trkpt>
   <trkpt lat="-3.0948660" lon="37.3327860">
    <ele>4014.7</ele>
    <time>2026-06-22T05:19:48Z</time>
   </trkpt>
   <trkpt lat="-3.0948700" lon="37.3327850">
    <ele>4014.7</ele>
    <time>2026-06-22T05:19:49Z</time>
   </trkpt>
   <trkpt lat="-3.0948730" lon="37.3327790">
    <ele>4014.7</ele>
    <time>2026-06-22T05:19:50Z</time>
   </trkpt>
   <trkpt lat="-3.0948750" lon="37.3327770">
    <ele>4014.7</ele>
    <time>2026-06-22T05:19:51Z</time>
   </trkpt>
   <trkpt lat="-3.0948850" lon="37.3327760">
    <ele>4014.8</ele>
    <time>2026-06-22T05:19:52Z</time>
   </trkpt>
   <trkpt lat="-3.0948810" lon="37.3327700">
    <ele>4014.8</ele>
    <time>2026-06-22T05:19:53Z</time>
   </trkpt>
   <trkpt lat="-3.0948810" lon="37.3327680">
    <ele>4014.8</ele>
    <time>2026-06-22T05:19:54Z</time>
   </trkpt>
   <trkpt lat="-3.0948820" lon="37.3327670">
    <ele>4014.8</ele>
    <time>2026-06-22T05:19:55Z</time>
   </trkpt>
   <trkpt lat="-3.0948830" lon="37.3327650">
    <ele>4014.8</ele>
    <time>2026-06-22T05:19:56Z</time>
   </trkpt>
   <trkpt lat="-3.0948850" lon="37.3327610">
    <ele>4014.9</ele>
    <time>2026-06-22T05:19:57Z</time>
   </trkpt>
   <trkpt lat="-3.0948850" lon="37.3327550">
    <ele>4014.9</ele>
    <time>2026-06-22T05:19:58Z</time>
   </trkpt>
   <trkpt lat="-3.0948850" lon="37.3327560">
    <ele>4014.9</ele>
    <time>2026-06-22T05:19:59Z</time>
   </trkpt>
   <trkpt lat="-3.0948850" lon="37.3327530">
    <ele>4014.9</ele>
    <time>2026-06-22T05:20:00Z</time>
   </trkpt>
   <trkpt lat="-3.0948860" lon="37.3327480">
    <ele>4014.9</ele>
    <time>2026-06-22T05:20:01Z</time>
   </trkpt>
   <trkpt lat="-3.0948890" lon="37.3327510">
    <ele>4015.0</ele>
    <time>2026-06-22T05:20:02Z</time>
   </trkpt>
   <trkpt lat="-3.0948950" lon="37.3327510">
    <ele>4015.0</ele>
    <time>2026-06-22T05:20:03Z</time>
   </trkpt>
   <trkpt lat="-3.0948990" lon="37.3327490">
    <ele>4015.0</ele>
    <time>2026-06-22T05:20:04Z</time>
   </trkpt>
   <trkpt lat="-3.0949070" lon="37.3327470">
    <ele>4015.0</ele>
    <time>2026-06-22T05:20:05Z</time>
   </trkpt>
   <trkpt lat="-3.0949070" lon="37.3327460">
    <ele>4015.0</ele>
    <time>2026-06-22T05:20:06Z</time>
   </trkpt>
   <trkpt lat="-3.0949100" lon="37.3327410">
    <ele>4015.1</ele>
    <time>2026-06-22T05:20:07Z</time>
   </trkpt>
   <trkpt lat="-3.0949120" lon="37.3327390">
    <ele>4015.1</ele>
    <time>2026-06-22T05:20:08Z</time>
   </trkpt>
   <trkpt lat="-3.0949150" lon="37.3327360">
    <ele>4015.1</ele>
    <time>2026-06-22T05:20:09Z</time>
   </trkpt>
   <trkpt lat="-3.0949250" lon="37.3327320">
    <ele>4015.1</ele>
    <time>2026-06-22T05:20:10Z</time>
   </trkpt>
   <trkpt lat="-3.0949250" lon="37.3327320">
    <ele>4015.1</ele>
    <time>2026-06-22T05:20:11Z</time>
   </trkpt>
   <trkpt lat="-3.0949290" lon="37.3327340">
    <ele>4015.1</ele>
    <time>2026-06-22T05:20:12Z</time>
   </trkpt>
   <trkpt lat="-3.0949340" lon="37.3327340">
    <ele>4015.2</ele>
    <time>2026-06-22T05:20:13Z</time>
   </trkpt>
   <trkpt lat="-3.0949410" lon="37.3327310">
    <ele>4015.2</ele>
    <time>2026-06-22T05:20:14Z</time>
   </trkpt>
   <trkpt lat="-3.0949520" lon="37.3327350">
    <ele>4015.2</ele>
    <time>2026-06-22T05:20:15Z</time>
   </trkpt>
   <trkpt lat="-3.0949600" lon="37.3327260">
    <ele>4015.3</ele>
    <time>2026-06-22T05:20:16Z</time>
   </trkpt>
   <trkpt lat="-3.0949590" lon="37.3327260">
    <ele>4015.3</ele>
    <time>2026-06-22T05:20:17Z</time>
   </trkpt>
   <trkpt lat="-3.0949680" lon="37.3327230">
    <ele>4015.3</ele>
    <time>2026-06-22T05:20:18Z</time>
   </trkpt>
   <trkpt lat="-3.0949750" lon="37.3327210">
    <ele>4015.3</ele>
    <time>2026-06-22T05:20:19Z</time>
   </trkpt>
   <trkpt lat="-3.0949810" lon="37.3327230">
    <ele>4015.4</ele>
    <time>2026-06-22T05:20:20Z</time>
   </trkpt>
   <trkpt lat="-3.0949860" lon="37.3327240">
    <ele>4015.4</ele>
    <time>2026-06-22T05:20:21Z</time>
   </trkpt>
   <trkpt lat="-3.0949930" lon="37.3327240">
    <ele>4015.4</ele>
    <time>2026-06-22T05:20:22Z</time>
   </trkpt>
   <trkpt lat="-3.0949960" lon="37.3327270">
    <ele>4015.4</ele>
    <time>2026-06-22T05:20:23Z</time>
   </trkpt>
   <trkpt lat="-3.0950020" lon="37.3327350">
    <ele>4015.4</ele>
    <time>2026-06-22T05:20:24Z</time>
   </trkpt>
   <trkpt lat="-3.0950070" lon="37.3327350">
    <ele>4015.4</ele>
    <time>2026-06-22T05:20:25Z</time>
   </trkpt>
   <trkpt lat="-3.0950110" lon="37.3327290">
    <ele>4015.5</ele>
    <time>2026-06-22T05:20:26Z</time>
   </trkpt>
   <trkpt lat="-3.0950100" lon="37.3327160">
    <ele>4015.5</ele>
    <time>2026-06-22T05:20:27Z</time>
   </trkpt>
   <trkpt lat="-3.0950080" lon="37.3327100">
    <ele>4015.5</ele>
    <time>2026-06-22T05:20:28Z</time>
   </trkpt>
   <trkpt lat="-3.0950110" lon="37.3327060">
    <ele>4015.5</ele>
    <time>2026-06-22T05:20:29Z</time>
   </trkpt>
   <trkpt lat="-3.0950150" lon="37.3327030">
    <ele>4015.6</ele>
    <time>2026-06-22T05:20:30Z</time>
   </trkpt>
   <trkpt lat="-3.0950180" lon="37.3327010">
    <ele>4015.6</ele>
    <time>2026-06-22T05:20:31Z</time>
   </trkpt>
   <trkpt lat="-3.0950200" lon="37.3326970">
    <ele>4015.6</ele>
    <time>2026-06-22T05:20:32Z</time>
   </trkpt>
   <trkpt lat="-3.0950240" lon="37.3326930">
    <ele>4015.6</ele>
    <time>2026-06-22T05:20:33Z</time>
   </trkpt>
   <trkpt lat="-3.0950330" lon="37.3326870">
    <ele>4015.6</ele>
    <time>2026-06-22T05:20:34Z</time>
   </trkpt>
   <trkpt lat="-3.0950420" lon="37.3326790">
    <ele>4015.6</ele>
    <time>2026-06-22T05:20:35Z</time>
   </trkpt>
   <trkpt lat="-3.0950460" lon="37.3326780">
    <ele>4015.7</ele>
    <time>2026-06-22T05:20:36Z</time>
   </trkpt>
   <trkpt lat="-3.0950520" lon="37.3326760">
    <ele>4015.7</ele>
    <time>2026-06-22T05:20:37Z</time>
   </trkpt>
   <trkpt lat="-3.0950580" lon="37.3326790">
    <ele>4015.7</ele>
    <time>2026-06-22T05:20:38Z</time>
   </trkpt>
   <trkpt lat="-3.0950670" lon="37.3326770">
    <ele>4015.7</ele>
    <time>2026-06-22T05:20:39Z</time>
   </trkpt>
   <trkpt lat="-3.0950700" lon="37.3326720">
    <ele>4015.7</ele>
    <time>2026-06-22T05:20:40Z</time>
   </trkpt>
   <trkpt lat="-3.0950740" lon="37.3326690">
    <ele>4015.7</ele>
    <time>2026-06-22T05:20:41Z</time>
   </trkpt>
   <trkpt lat="-3.0950800" lon="37.3326650">
    <ele>4015.7</ele>
    <time>2026-06-22T05:20:42Z</time>
   </trkpt>
   <trkpt lat="-3.0950850" lon="37.3326610">
    <ele>4015.8</ele>
    <time>2026-06-22T05:20:43Z</time>
   </trkpt>
   <trkpt lat="-3.0950910" lon="37.3326590">
    <ele>4015.8</ele>
    <time>2026-06-22T05:20:44Z</time>
   </trkpt>
   <trkpt lat="-3.0950980" lon="37.3326500">
    <ele>4015.8</ele>
    <time>2026-06-22T05:20:45Z</time>
   </trkpt>
   <trkpt lat="-3.0950910" lon="37.3326520">
    <ele>4015.8</ele>
    <time>2026-06-22T05:20:46Z</time>
   </trkpt>
   <trkpt lat="-3.0950920" lon="37.3326510">
    <ele>4015.8</ele>
    <time>2026-06-22T05:20:47Z</time>
   </trkpt>
   <trkpt lat="-3.0950920" lon="37.3326510">
    <ele>4015.8</ele>
    <time>2026-06-22T05:20:48Z</time>
   </trkpt>
   <trkpt lat="-3.0950920" lon="37.3326510">
    <ele>4015.8</ele>
    <time>2026-06-22T05:20:49Z</time>
   </trkpt>
   <trkpt lat="-3.0950880" lon="37.3326540">
    <ele>4015.8</ele>
    <time>2026-06-22T05:20:50Z</time>
   </trkpt>
   <trkpt lat="-3.0950880" lon="37.3326540">
    <ele>4015.8</ele>
    <time>2026-06-22T05:20:51Z</time>
   </trkpt>
   <trkpt lat="-3.0950880" lon="37.3326540">
    <ele>4015.8</ele>
    <time>2026-06-22T05:20:52Z</time>
   </trkpt>
   <trkpt lat="-3.0950880" lon="37.3326540">
    <ele>4015.8</ele>
    <time>2026-06-22T05:20:53Z</time>
   </trkpt>
   <trkpt lat="-3.0950880" lon="37.3326540">
    <ele>4015.8</ele>
    <time>2026-06-22T05:20:54Z</time>
   </trkpt>
   <trkpt lat="-3.0950880" lon="37.3326540">
    <ele>4015.8</ele>
    <time>2026-06-22T05:20:55Z</time>
   </trkpt>
   <trkpt lat="-3.0950880" lon="37.3326540">
    <ele>4015.8</ele>
    <time>2026-06-22T05:20:56Z</time>
   </trkpt>
   <trkpt lat="-3.0950930" lon="37.3326540">
    <ele>4015.9</ele>
    <time>2026-06-22T05:20:57Z</time>
   </trkpt>
   <trkpt lat="-3.0950880" lon="37.3326540">
    <ele>4015.9</ele>
    <time>2026-06-22T05:20:58Z</time>
   </trkpt>
   <trkpt lat="-3.0950960" lon="37.3326500">
    <ele>4015.9</ele>
    <time>2026-06-22T05:20:59Z</time>
   </trkpt>
   <trkpt lat="-3.0951010" lon="37.3326470">
    <ele>4015.9</ele>
    <time>2026-06-22T05:21:00Z</time>
   </trkpt>
   <trkpt lat="-3.0951030" lon="37.3326450">
    <ele>4015.9</ele>
    <time>2026-06-22T05:21:01Z</time>
   </trkpt>
   <trkpt lat="-3.0951020" lon="37.3326460">
    <ele>4015.9</ele>
    <time>2026-06-22T05:21:02Z</time>
   </trkpt>
   <trkpt lat="-3.0951050" lon="37.3326430">
    <ele>4015.9</ele>
    <time>2026-06-22T05:21:03Z</time>
   </trkpt>
   <trkpt lat="-3.0951040" lon="37.3326430">
    <ele>4015.9</ele>
    <time>2026-06-22T05:21:04Z</time>
   </trkpt>
   <trkpt lat="-3.0951040" lon="37.3326440">
    <ele>4015.9</ele>
    <time>2026-06-22T05:21:05Z</time>
   </trkpt>
   <trkpt lat="-3.0951050" lon="37.3326450">
    <ele>4015.9</ele>
    <time>2026-06-22T05:21:06Z</time>
   </trkpt>
   <trkpt lat="-3.0951050" lon="37.3326440">
    <ele>4015.9</ele>
    <time>2026-06-22T05:21:07Z</time>
   </trkpt>
   <trkpt lat="-3.0951060" lon="37.3326460">
    <ele>4015.9</ele>
    <time>2026-06-22T05:21:08Z</time>
   </trkpt>
   <trkpt lat="-3.0951180" lon="37.3326440">
    <ele>4016.0</ele>
    <time>2026-06-22T05:21:09Z</time>
   </trkpt>
   <trkpt lat="-3.0951130" lon="37.3326410">
    <ele>4016.0</ele>
    <time>2026-06-22T05:21:10Z</time>
   </trkpt>
   <trkpt lat="-3.0951170" lon="37.3326420">
    <ele>4016.0</ele>
    <time>2026-06-22T05:21:11Z</time>
   </trkpt>
   <trkpt lat="-3.0951210" lon="37.3326410">
    <ele>4016.0</ele>
    <time>2026-06-22T05:21:12Z</time>
   </trkpt>
   <trkpt lat="-3.0951210" lon="37.3326400">
    <ele>4016.0</ele>
    <time>2026-06-22T05:21:13Z</time>
   </trkpt>
   <trkpt lat="-3.0951200" lon="37.3326400">
    <ele>4016.0</ele>
    <time>2026-06-22T05:21:14Z</time>
   </trkpt>
   <trkpt lat="-3.0951200" lon="37.3326370">
    <ele>4016.0</ele>
    <time>2026-06-22T05:21:15Z</time>
   </trkpt>
   <trkpt lat="-3.0951190" lon="37.3326380">
    <ele>4016.0</ele>
    <time>2026-06-22T05:21:16Z</time>
   </trkpt>
   <trkpt lat="-3.0951190" lon="37.3326360">
    <ele>4016.0</ele>
    <time>2026-06-22T05:21:17Z</time>
   </trkpt>
   <trkpt lat="-3.0951180" lon="37.3326370">
    <ele>4016.0</ele>
    <time>2026-06-22T05:21:18Z</time>
   </trkpt>
   <trkpt lat="-3.0951180" lon="37.3326360">
    <ele>4016.0</ele>
    <time>2026-06-22T05:21:19Z</time>
   </trkpt>
   <trkpt lat="-3.0951150" lon="37.3326360">
    <ele>4016.0</ele>
    <time>2026-06-22T05:21:20Z</time>
   </trkpt>
   <trkpt lat="-3.0951160" lon="37.3326340">
    <ele>4016.0</ele>
    <time>2026-06-22T05:21:21Z</time>
   </trkpt>
   <trkpt lat="-3.0951180" lon="37.3326340">
    <ele>4016.1</ele>
    <time>2026-06-22T05:21:22Z</time>
   </trkpt>
   <trkpt lat="-3.0951190" lon="37.3326330">
    <ele>4016.1</ele>
    <time>2026-06-22T05:21:23Z</time>
   </trkpt>
   <trkpt lat="-3.0951200" lon="37.3326350">
    <ele>4016.1</ele>
    <time>2026-06-22T05:21:24Z</time>
   </trkpt>
   <trkpt lat="-3.0951220" lon="37.3326350">
    <ele>4016.1</ele>
    <time>2026-06-22T05:21:25Z</time>
   </trkpt>
   <trkpt lat="-3.0951250" lon="37.3326360">
    <ele>4016.1</ele>
    <time>2026-06-22T05:21:26Z</time>
   </trkpt>
   <trkpt lat="-3.0951280" lon="37.3326350">
    <ele>4016.1</ele>
    <time>2026-06-22T05:21:27Z</time>
   </trkpt>
   <trkpt lat="-3.0951260" lon="37.3326370">
    <ele>4016.1</ele>
    <time>2026-06-22T05:21:28Z</time>
   </trkpt>
   <trkpt lat="-3.0951260" lon="37.3326370">
    <ele>4016.1</ele>
    <time>2026-06-22T05:21:29Z</time>
   </trkpt>
   <trkpt lat="-3.0951280" lon="37.3326370">
    <ele>4016.1</ele>
    <time>2026-06-22T05:21:30Z</time>
   </trkpt>
   <trkpt lat="-3.0951300" lon="37.3326350">
    <ele>4016.1</ele>
    <time>2026-06-22T05:21:31Z</time>
   </trkpt>
   <trkpt lat="-3.0951310" lon="37.3326370">
    <ele>4016.1</ele>
    <time>2026-06-22T05:21:32Z</time>
   </trkpt>
   <trkpt lat="-3.0951300" lon="37.3326360">
    <ele>4016.1</ele>
    <time>2026-06-22T05:21:33Z</time>
   </trkpt>
   <trkpt lat="-3.0951290" lon="37.3326370">
    <ele>4016.1</ele>
    <time>2026-06-22T05:21:34Z</time>
   </trkpt>
   <trkpt lat="-3.0951300" lon="37.3326360">
    <ele>4016.1</ele>
    <time>2026-06-22T05:21:35Z</time>
   </trkpt>
   <trkpt lat="-3.0951290" lon="37.3326360">
    <ele>4016.1</ele>
    <time>2026-06-22T05:21:36Z</time>
   </trkpt>
   <trkpt lat="-3.0951280" lon="37.3326350">
    <ele>4016.1</ele>
    <time>2026-06-22T05:21:37Z</time>
   </trkpt>
   <trkpt lat="-3.0951270" lon="37.3326350">
    <ele>4016.2</ele>
    <time>2026-06-22T05:21:38Z</time>
   </trkpt>
   <trkpt lat="-3.0951280" lon="37.3326360">
    <ele>4016.2</ele>
    <time>2026-06-22T05:21:39Z</time>
   </trkpt>
   <trkpt lat="-3.0951280" lon="37.3326320">
    <ele>4016.2</ele>
    <time>2026-06-22T05:21:40Z</time>
   </trkpt>
   <trkpt lat="-3.0951270" lon="37.3326350">
    <ele>4016.2</ele>
    <time>2026-06-22T05:21:41Z</time>
   </trkpt>
   <trkpt lat="-3.0951270" lon="37.3326330">
    <ele>4016.2</ele>
    <time>2026-06-22T05:21:42Z</time>
   </trkpt>
   <trkpt lat="-3.0951290" lon="37.3326300">
    <ele>4016.2</ele>
    <time>2026-06-22T05:21:43Z</time>
   </trkpt>
   <trkpt lat="-3.0951280" lon="37.3326310">
    <ele>4016.2</ele>
    <time>2026-06-22T05:21:44Z</time>
   </trkpt>
   <trkpt lat="-3.0951280" lon="37.3326310">
    <ele>4016.2</ele>
    <time>2026-06-22T05:21:45Z</time>
   </trkpt>
   <trkpt lat="-3.0951280" lon="37.3326310">
    <ele>4016.2</ele>
    <time>2026-06-22T05:21:47Z</time>
   </trkpt>
   <trkpt lat="-3.0951280" lon="37.3326310">
    <ele>4016.2</ele>
    <time>2026-06-22T05:21:48Z</time>
   </trkpt>
   <trkpt lat="-3.0951310" lon="37.3326340">
    <ele>4016.2</ele>
    <time>2026-06-22T05:21:49Z</time>
   </trkpt>
   <trkpt lat="-3.0951300" lon="37.3326350">
    <ele>4016.2</ele>
    <time>2026-06-22T05:21:50Z</time>
   </trkpt>
   <trkpt lat="-3.0951370" lon="37.3326300">
    <ele>4016.2</ele>
    <time>2026-06-22T05:21:51Z</time>
   </trkpt>
   <trkpt lat="-3.0951390" lon="37.3326240">
    <ele>4016.3</ele>
    <time>2026-06-22T05:21:52Z</time>
   </trkpt>
   <trkpt lat="-3.0951370" lon="37.3326250">
    <ele>4016.3</ele>
    <time>2026-06-22T05:21:53Z</time>
   </trkpt>
   <trkpt lat="-3.0951360" lon="37.3326270">
    <ele>4016.3</ele>
    <time>2026-06-22T05:21:54Z</time>
   </trkpt>
   <trkpt lat="-3.0951360" lon="37.3326230">
    <ele>4016.3</ele>
    <time>2026-06-22T05:21:55Z</time>
   </trkpt>
   <trkpt lat="-3.0951350" lon="37.3326190">
    <ele>4016.3</ele>
    <time>2026-06-22T05:21:56Z</time>
   </trkpt>
   <trkpt lat="-3.0951360" lon="37.3326160">
    <ele>4016.3</ele>
    <time>2026-06-22T05:21:57Z</time>
   </trkpt>
   <trkpt lat="-3.0951350" lon="37.3326110">
    <ele>4016.3</ele>
    <time>2026-06-22T05:21:58Z</time>
   </trkpt>
   <trkpt lat="-3.0951350" lon="37.3326120">
    <ele>4016.3</ele>
    <time>2026-06-22T05:21:59Z</time>
   </trkpt>
   <trkpt lat="-3.0951380" lon="37.3326060">
    <ele>4016.4</ele>
    <time>2026-06-22T05:22:00Z</time>
   </trkpt>
   <trkpt lat="-3.0951360" lon="37.3326060">
    <ele>4016.4</ele>
    <time>2026-06-22T05:22:01Z</time>
   </trkpt>
   <trkpt lat="-3.0951370" lon="37.3326080">
    <ele>4016.4</ele>
    <time>2026-06-22T05:22:02Z</time>
   </trkpt>
   <trkpt lat="-3.0951360" lon="37.3326090">
    <ele>4016.4</ele>
    <time>2026-06-22T05:22:03Z</time>
   </trkpt>
   <trkpt lat="-3.0951350" lon="37.3326040">
    <ele>4016.4</ele>
    <time>2026-06-22T05:22:04Z</time>
   </trkpt>
   <trkpt lat="-3.0951350" lon="37.3326030">
    <ele>4016.4</ele>
    <time>2026-06-22T05:22:05Z</time>
   </trkpt>
   <trkpt lat="-3.0951350" lon="37.3326060">
    <ele>4016.4</ele>
    <time>2026-06-22T05:22:06Z</time>
   </trkpt>
   <trkpt lat="-3.0951340" lon="37.3326060">
    <ele>4016.4</ele>
    <time>2026-06-22T05:22:07Z</time>
   </trkpt>
   <trkpt lat="-3.0951340" lon="37.3326060">
    <ele>4016.4</ele>
    <time>2026-06-22T05:22:08Z</time>
   </trkpt>
   <trkpt lat="-3.0951360" lon="37.3326040">
    <ele>4016.5</ele>
    <time>2026-06-22T05:22:09Z</time>
   </trkpt>
   <trkpt lat="-3.0951340" lon="37.3326020">
    <ele>4016.5</ele>
    <time>2026-06-22T05:22:10Z</time>
   </trkpt>
   <trkpt lat="-3.0951350" lon="37.3326040">
    <ele>4016.5</ele>
    <time>2026-06-22T05:22:11Z</time>
   </trkpt>
   <trkpt lat="-3.0951360" lon="37.3326050">
    <ele>4016.5</ele>
    <time>2026-06-22T05:22:12Z</time>
   </trkpt>
   <trkpt lat="-3.0951360" lon="37.3326050">
    <ele>4016.5</ele>
    <time>2026-06-22T05:22:13Z</time>
   </trkpt>
   <trkpt lat="-3.0951360" lon="37.3326040">
    <ele>4016.5</ele>
    <time>2026-06-22T05:22:14Z</time>
   </trkpt>
   <trkpt lat="-3.0951370" lon="37.3326020">
    <ele>4016.5</ele>
    <time>2026-06-22T05:22:15Z</time>
   </trkpt>
   <trkpt lat="-3.0951440" lon="37.3325970">
    <ele>4016.5</ele>
    <time>2026-06-22T05:22:16Z</time>
   </trkpt>
   <trkpt lat="-3.0951410" lon="37.3325990">
    <ele>4016.6</ele>
    <time>2026-06-22T05:22:17Z</time>
   </trkpt>
   <trkpt lat="-3.0951400" lon="37.3326000">
    <ele>4016.6</ele>
    <time>2026-06-22T05:22:18Z</time>
   </trkpt>
   <trkpt lat="-3.0951400" lon="37.3325970">
    <ele>4016.6</ele>
    <time>2026-06-22T05:22:19Z</time>
   </trkpt>
   <trkpt lat="-3.0951400" lon="37.3325960">
    <ele>4016.6</ele>
    <time>2026-06-22T05:22:20Z</time>
   </trkpt>
   <trkpt lat="-3.0951390" lon="37.3325960">
    <ele>4016.6</ele>
    <time>2026-06-22T05:22:21Z</time>
   </trkpt>
   <trkpt lat="-3.0951390" lon="37.3325940">
    <ele>4016.6</ele>
    <time>2026-06-22T05:22:22Z</time>
   </trkpt>
   <trkpt lat="-3.0951380" lon="37.3325950">
    <ele>4016.6</ele>
    <time>2026-06-22T05:22:23Z</time>
   </trkpt>
   <trkpt lat="-3.0951400" lon="37.3325940">
    <ele>4016.6</ele>
    <time>2026-06-22T05:22:24Z</time>
   </trkpt>
   <trkpt lat="-3.0951440" lon="37.3325900">
    <ele>4016.6</ele>
    <time>2026-06-22T05:22:25Z</time>
   </trkpt>
   <trkpt lat="-3.0951430" lon="37.3325860">
    <ele>4016.7</ele>
    <time>2026-06-22T05:22:26Z</time>
   </trkpt>
   <trkpt lat="-3.0951400" lon="37.3325800">
    <ele>4016.7</ele>
    <time>2026-06-22T05:22:27Z</time>
   </trkpt>
   <trkpt lat="-3.0951350" lon="37.3325790">
    <ele>4016.7</ele>
    <time>2026-06-22T05:22:28Z</time>
   </trkpt>
   <trkpt lat="-3.0951340" lon="37.3325750">
    <ele>4016.7</ele>
    <time>2026-06-22T05:22:29Z</time>
   </trkpt>
   <trkpt lat="-3.0951360" lon="37.3325720">
    <ele>4016.8</ele>
    <time>2026-06-22T05:22:30Z</time>
   </trkpt>
   <trkpt lat="-3.0951370" lon="37.3325730">
    <ele>4016.8</ele>
    <time>2026-06-22T05:22:31Z</time>
   </trkpt>
   <trkpt lat="-3.0951360" lon="37.3325730">
    <ele>4016.8</ele>
    <time>2026-06-22T05:22:32Z</time>
   </trkpt>
   <trkpt lat="-3.0951360" lon="37.3325750">
    <ele>4016.8</ele>
    <time>2026-06-22T05:22:33Z</time>
   </trkpt>
   <trkpt lat="-3.0951350" lon="37.3325760">
    <ele>4016.8</ele>
    <time>2026-06-22T05:22:34Z</time>
   </trkpt>
   <trkpt lat="-3.0951350" lon="37.3325760">
    <ele>4016.8</ele>
    <time>2026-06-22T05:22:35Z</time>
   </trkpt>
   <trkpt lat="-3.0951360" lon="37.3325760">
    <ele>4016.8</ele>
    <time>2026-06-22T05:22:36Z</time>
   </trkpt>
   <trkpt lat="-3.0951360" lon="37.3325770">
    <ele>4016.8</ele>
    <time>2026-06-22T05:22:37Z</time>
   </trkpt>
   <trkpt lat="-3.0951360" lon="37.3325770">
    <ele>4016.8</ele>
    <time>2026-06-22T05:22:38Z</time>
   </trkpt>
   <trkpt lat="-3.0951360" lon="37.3325780">
    <ele>4016.8</ele>
    <time>2026-06-22T05:22:39Z</time>
   </trkpt>
   <trkpt lat="-3.0951350" lon="37.3325800">
    <ele>4016.8</ele>
    <time>2026-06-22T05:22:40Z</time>
   </trkpt>
   <trkpt lat="-3.0951350" lon="37.3325790">
    <ele>4016.8</ele>
    <time>2026-06-22T05:22:41Z</time>
   </trkpt>
   <trkpt lat="-3.0951370" lon="37.3325780">
    <ele>4016.8</ele>
    <time>2026-06-22T05:22:42Z</time>
   </trkpt>
   <trkpt lat="-3.0951360" lon="37.3325780">
    <ele>4016.8</ele>
    <time>2026-06-22T05:22:43Z</time>
   </trkpt>
   <trkpt lat="-3.0951360" lon="37.3325780">
    <ele>4016.8</ele>
    <time>2026-06-22T05:22:44Z</time>
   </trkpt>
   <trkpt lat="-3.0951360" lon="37.3325750">
    <ele>4016.9</ele>
    <time>2026-06-22T05:22:45Z</time>
   </trkpt>
   <trkpt lat="-3.0951330" lon="37.3325790">
    <ele>4016.9</ele>
    <time>2026-06-22T05:22:46Z</time>
   </trkpt>
   <trkpt lat="-3.0951340" lon="37.3325760">
    <ele>4016.9</ele>
    <time>2026-06-22T05:22:47Z</time>
   </trkpt>
   <trkpt lat="-3.0951330" lon="37.3325740">
    <ele>4016.9</ele>
    <time>2026-06-22T05:22:48Z</time>
   </trkpt>
   <trkpt lat="-3.0951350" lon="37.3325700">
    <ele>4017.0</ele>
    <time>2026-06-22T05:22:49Z</time>
   </trkpt>
   <trkpt lat="-3.0951310" lon="37.3325680">
    <ele>4017.0</ele>
    <time>2026-06-22T05:22:50Z</time>
   </trkpt>
   <trkpt lat="-3.0951310" lon="37.3325770">
    <ele>4017.0</ele>
    <time>2026-06-22T05:22:51Z</time>
   </trkpt>
   <trkpt lat="-3.0951370" lon="37.3325810">
    <ele>4017.1</ele>
    <time>2026-06-22T05:22:52Z</time>
   </trkpt>
   <trkpt lat="-3.0951360" lon="37.3325820">
    <ele>4017.1</ele>
    <time>2026-06-22T05:22:53Z</time>
   </trkpt>
   <trkpt lat="-3.0951370" lon="37.3325800">
    <ele>4017.1</ele>
    <time>2026-06-22T05:22:54Z</time>
   </trkpt>
   <trkpt lat="-3.0951350" lon="37.3325800">
    <ele>4017.1</ele>
    <time>2026-06-22T05:22:55Z</time>
   </trkpt>
   <trkpt lat="-3.0951350" lon="37.3325820">
    <ele>4017.1</ele>
    <time>2026-06-22T05:22:56Z</time>
   </trkpt>
   <trkpt lat="-3.0951350" lon="37.3325830">
    <ele>4017.1</ele>
    <time>2026-06-22T05:22:57Z</time>
   </trkpt>
   <trkpt lat="-3.0951360" lon="37.3325790">
    <ele>4017.2</ele>
    <time>2026-06-22T05:22:58Z</time>
   </trkpt>
   <trkpt lat="-3.0951350" lon="37.3325830">
    <ele>4017.2</ele>
    <time>2026-06-22T05:22:59Z</time>
   </trkpt>
   <trkpt lat="-3.0951360" lon="37.3325850">
    <ele>4017.2</ele>
    <time>2026-06-22T05:23:00Z</time>
   </trkpt>
   <trkpt lat="-3.0951450" lon="37.3325810">
    <ele>4017.3</ele>
    <time>2026-06-22T05:23:01Z</time>
   </trkpt>
   <trkpt lat="-3.0951380" lon="37.3325900">
    <ele>4017.3</ele>
    <time>2026-06-22T05:23:02Z</time>
   </trkpt>
   <trkpt lat="-3.0951380" lon="37.3325850">
    <ele>4017.4</ele>
    <time>2026-06-22T05:23:03Z</time>
   </trkpt>
   <trkpt lat="-3.0951380" lon="37.3325860">
    <ele>4017.4</ele>
    <time>2026-06-22T05:23:04Z</time>
   </trkpt>
   <trkpt lat="-3.0951330" lon="37.3325910">
    <ele>4017.4</ele>
    <time>2026-06-22T05:23:05Z</time>
   </trkpt>
   <trkpt lat="-3.0951360" lon="37.3325860">
    <ele>4017.5</ele>
    <time>2026-06-22T05:23:06Z</time>
   </trkpt>
   <trkpt lat="-3.0951340" lon="37.3325880">
    <ele>4017.5</ele>
    <time>2026-06-22T05:23:07Z</time>
   </trkpt>
   <trkpt lat="-3.0951340" lon="37.3325870">
    <ele>4017.5</ele>
    <time>2026-06-22T05:23:08Z</time>
   </trkpt>
   <trkpt lat="-3.0951340" lon="37.3325870">
    <ele>4017.5</ele>
    <time>2026-06-22T05:23:09Z</time>
   </trkpt>
   <trkpt lat="-3.0951350" lon="37.3325850">
    <ele>4017.5</ele>
    <time>2026-06-22T05:23:10Z</time>
   </trkpt>
   <trkpt lat="-3.0951340" lon="37.3325860">
    <ele>4017.5</ele>
    <time>2026-06-22T05:23:11Z</time>
   </trkpt>
   <trkpt lat="-3.0951340" lon="37.3325840">
    <ele>4017.5</ele>
    <time>2026-06-22T05:23:12Z</time>
   </trkpt>
   <trkpt lat="-3.0951360" lon="37.3325830">
    <ele>4017.6</ele>
    <time>2026-06-22T05:23:13Z</time>
   </trkpt>
   <trkpt lat="-3.0951340" lon="37.3325820">
    <ele>4017.6</ele>
    <time>2026-06-22T05:23:14Z</time>
   </trkpt>
   <trkpt lat="-3.0951340" lon="37.3325820">
    <ele>4017.6</ele>
    <time>2026-06-22T05:23:15Z</time>
   </trkpt>
   <trkpt lat="-3.0951340" lon="37.3325820">
    <ele>4017.6</ele>
    <time>2026-06-22T05:23:16Z</time>
   </trkpt>
   <trkpt lat="-3.0951340" lon="37.3325820">
    <ele>4017.6</ele>
    <time>2026-06-22T05:23:17Z</time>
   </trkpt>
   <trkpt lat="-3.0951340" lon="37.3325820">
    <ele>4017.6</ele>
    <time>2026-06-22T05:23:18Z</time>
   </trkpt>
   <trkpt lat="-3.0951340" lon="37.3325820">
    <ele>4017.6</ele>
    <time>2026-06-22T05:23:19Z</time>
   </trkpt>
   <trkpt lat="-3.0951340" lon="37.3325820">
    <ele>4017.6</ele>
    <time>2026-06-22T05:23:20Z</time>
   </trkpt>
   <trkpt lat="-3.0951340" lon="37.3325820">
    <ele>4017.6</ele>
    <time>2026-06-22T05:23:21Z</time>
   </trkpt>
   <trkpt lat="-3.0951340" lon="37.3325820">
    <ele>4017.6</ele>
    <time>2026-06-22T05:23:22Z</time>
   </trkpt>
   <trkpt lat="-3.0951340" lon="37.3325820">
    <ele>4017.6</ele>
    <time>2026-06-22T05:23:23Z</time>
   </trkpt>
   <trkpt lat="-3.0951340" lon="37.3325820">
    <ele>4017.6</ele>
    <time>2026-06-22T05:23:24Z</time>
   </trkpt>
   <trkpt lat="-3.0951340" lon="37.3325820">
    <ele>4017.6</ele>
    <time>2026-06-22T05:23:25Z</time>
   </trkpt>
   <trkpt lat="-3.0951340" lon="37.3325820">
    <ele>4017.6</ele>
    <time>2026-06-22T05:23:26Z</time>
   </trkpt>
   <trkpt lat="-3.0951340" lon="37.3325820">
    <ele>4017.6</ele>
    <time>2026-06-22T05:23:27Z</time>
   </trkpt>
   <trkpt lat="-3.0951340" lon="37.3325820">
    <ele>4017.6</ele>
    <time>2026-06-22T05:23:28Z</time>
   </trkpt>
   <trkpt lat="-3.0951340" lon="37.3325820">
    <ele>4017.6</ele>
    <time>2026-06-22T05:23:29Z</time>
   </trkpt>
   <trkpt lat="-3.0951340" lon="37.3325820">
    <ele>4017.6</ele>
    <time>2026-06-22T05:23:30Z</time>
   </trkpt>
   <trkpt lat="-3.0951340" lon="37.3325820">
    <ele>4017.6</ele>
    <time>2026-06-22T05:23:31Z</time>
   </trkpt>
   <trkpt lat="-3.0951340" lon="37.3325820">
    <ele>4017.6</ele>
    <time>2026-06-22T05:23:32Z</time>
   </trkpt>
   <trkpt lat="-3.0951340" lon="37.3325820">
    <ele>4017.6</ele>
    <time>2026-06-22T05:23:33Z</time>
   </trkpt>
   <trkpt lat="-3.0951340" lon="37.3325820">
    <ele>4017.6</ele>
    <time>2026-06-22T05:23:34Z</time>
   </trkpt>
   <trkpt lat="-3.0951340" lon="37.3325820">
    <ele>4017.6</ele>
    <time>2026-06-22T05:23:35Z</time>
   </trkpt>
   <trkpt lat="-3.0951380" lon="37.3325830">
    <ele>4017.6</ele>
    <time>2026-06-22T05:23:36Z</time>
   </trkpt>
   <trkpt lat="-3.0951420" lon="37.3325840">
    <ele>4017.6</ele>
    <time>2026-06-22T05:23:37Z</time>
   </trkpt>
   <trkpt lat="-3.0951410" lon="37.3325810">
    <ele>4017.7</ele>
    <time>2026-06-22T05:23:38Z</time>
   </trkpt>
   <trkpt lat="-3.0951440" lon="37.3325820">
    <ele>4017.7</ele>
    <time>2026-06-22T05:23:39Z</time>
   </trkpt>
   <trkpt lat="-3.0951450" lon="37.3325830">
    <ele>4017.7</ele>
    <time>2026-06-22T05:23:40Z</time>
   </trkpt>
   <trkpt lat="-3.0951440" lon="37.3325830">
    <ele>4017.7</ele>
    <time>2026-06-22T05:23:41Z</time>
   </trkpt>
   <trkpt lat="-3.0951440" lon="37.3325820">
    <ele>4017.7</ele>
    <time>2026-06-22T05:23:42Z</time>
   </trkpt>
   <trkpt lat="-3.0951430" lon="37.3325820">
    <ele>4017.7</ele>
    <time>2026-06-22T05:23:43Z</time>
   </trkpt>
   <trkpt lat="-3.0951440" lon="37.3325810">
    <ele>4017.7</ele>
    <time>2026-06-22T05:23:44Z</time>
   </trkpt>
   <trkpt lat="-3.0951430" lon="37.3325800">
    <ele>4017.7</ele>
    <time>2026-06-22T05:23:45Z</time>
   </trkpt>
   <trkpt lat="-3.0951430" lon="37.3325800">
    <ele>4017.7</ele>
    <time>2026-06-22T05:23:46Z</time>
   </trkpt>
   <trkpt lat="-3.0951430" lon="37.3325800">
    <ele>4017.7</ele>
    <time>2026-06-22T05:23:47Z</time>
   </trkpt>
   <trkpt lat="-3.0951440" lon="37.3325770">
    <ele>4017.8</ele>
    <time>2026-06-22T05:23:48Z</time>
   </trkpt>
   <trkpt lat="-3.0951430" lon="37.3325760">
    <ele>4017.8</ele>
    <time>2026-06-22T05:23:49Z</time>
   </trkpt>
   <trkpt lat="-3.0951430" lon="37.3325770">
    <ele>4017.8</ele>
    <time>2026-06-22T05:23:50Z</time>
   </trkpt>
   <trkpt lat="-3.0951440" lon="37.3325750">
    <ele>4017.8</ele>
    <time>2026-06-22T05:23:51Z</time>
   </trkpt>
   <trkpt lat="-3.0951440" lon="37.3325740">
    <ele>4017.8</ele>
    <time>2026-06-22T05:23:53Z</time>
   </trkpt>
   <trkpt lat="-3.0951420" lon="37.3325750">
    <ele>4017.8</ele>
    <time>2026-06-22T05:23:54Z</time>
   </trkpt>
   <trkpt lat="-3.0951420" lon="37.3325740">
    <ele>4017.8</ele>
    <time>2026-06-22T05:23:55Z</time>
   </trkpt>
   <trkpt lat="-3.0951420" lon="37.3325750">
    <ele>4017.8</ele>
    <time>2026-06-22T05:23:56Z</time>
   </trkpt>
   <trkpt lat="-3.0951430" lon="37.3325730">
    <ele>4017.9</ele>
    <time>2026-06-22T05:23:57Z</time>
   </trkpt>
   <trkpt lat="-3.0951430" lon="37.3325710">
    <ele>4017.9</ele>
    <time>2026-06-22T05:23:58Z</time>
   </trkpt>
   <trkpt lat="-3.0951430" lon="37.3325700">
    <ele>4017.9</ele>
    <time>2026-06-22T05:23:59Z</time>
   </trkpt>
   <trkpt lat="-3.0951420" lon="37.3325710">
    <ele>4017.9</ele>
    <time>2026-06-22T05:24:00Z</time>
   </trkpt>
   <trkpt lat="-3.0951420" lon="37.3325710">
    <ele>4017.9</ele>
    <time>2026-06-22T05:24:01Z</time>
   </trkpt>
   <trkpt lat="-3.0951400" lon="37.3325710">
    <ele>4017.9</ele>
    <time>2026-06-22T05:24:02Z</time>
   </trkpt>
   <trkpt lat="-3.0951390" lon="37.3325710">
    <ele>4017.9</ele>
    <time>2026-06-22T05:24:03Z</time>
   </trkpt>
   <trkpt lat="-3.0951380" lon="37.3325720">
    <ele>4017.9</ele>
    <time>2026-06-22T05:24:04Z</time>
   </trkpt>
   <trkpt lat="-3.0951420" lon="37.3325710">
    <ele>4018.0</ele>
    <time>2026-06-22T05:24:05Z</time>
   </trkpt>
   <trkpt lat="-3.0951440" lon="37.3325760">
    <ele>4018.0</ele>
    <time>2026-06-22T05:24:06Z</time>
   </trkpt>
   <trkpt lat="-3.0951410" lon="37.3325790">
    <ele>4018.0</ele>
    <time>2026-06-22T05:24:07Z</time>
   </trkpt>
   <trkpt lat="-3.0951420" lon="37.3325760">
    <ele>4018.1</ele>
    <time>2026-06-22T05:24:08Z</time>
   </trkpt>
   <trkpt lat="-3.0951420" lon="37.3325750">
    <ele>4018.1</ele>
    <time>2026-06-22T05:24:09Z</time>
   </trkpt>
   <trkpt lat="-3.0951440" lon="37.3325780">
    <ele>4018.1</ele>
    <time>2026-06-22T05:24:10Z</time>
   </trkpt>
   <trkpt lat="-3.0951470" lon="37.3325800">
    <ele>4018.1</ele>
    <time>2026-06-22T05:24:11Z</time>
   </trkpt>
   <trkpt lat="-3.0951460" lon="37.3325850">
    <ele>4018.2</ele>
    <time>2026-06-22T05:24:12Z</time>
   </trkpt>
   <trkpt lat="-3.0951460" lon="37.3325860">
    <ele>4018.2</ele>
    <time>2026-06-22T05:24:13Z</time>
   </trkpt>
   <trkpt lat="-3.0951430" lon="37.3325890">
    <ele>4018.2</ele>
    <time>2026-06-22T05:24:14Z</time>
   </trkpt>
   <trkpt lat="-3.0951480" lon="37.3325930">
    <ele>4018.3</ele>
    <time>2026-06-22T05:24:15Z</time>
   </trkpt>
   <trkpt lat="-3.0951420" lon="37.3325940">
    <ele>4018.3</ele>
    <time>2026-06-22T05:24:16Z</time>
   </trkpt>
   <trkpt lat="-3.0951400" lon="37.3325920">
    <ele>4018.4</ele>
    <time>2026-06-22T05:24:17Z</time>
   </trkpt>
   <trkpt lat="-3.0951410" lon="37.3325930">
    <ele>4018.4</ele>
    <time>2026-06-22T05:24:18Z</time>
   </trkpt>
   <trkpt lat="-3.0951440" lon="37.3325950">
    <ele>4018.4</ele>
    <time>2026-06-22T05:24:19Z</time>
   </trkpt>
   <trkpt lat="-3.0951420" lon="37.3325940">
    <ele>4018.4</ele>
    <time>2026-06-22T05:24:20Z</time>
   </trkpt>
   <trkpt lat="-3.0951450" lon="37.3325940">
    <ele>4018.5</ele>
    <time>2026-06-22T05:24:21Z</time>
   </trkpt>
   <trkpt lat="-3.0951510" lon="37.3325960">
    <ele>4018.5</ele>
    <time>2026-06-22T05:24:22Z</time>
   </trkpt>
   <trkpt lat="-3.0951510" lon="37.3325950">
    <ele>4018.5</ele>
    <time>2026-06-22T05:24:23Z</time>
   </trkpt>
   <trkpt lat="-3.0951510" lon="37.3325940">
    <ele>4018.5</ele>
    <time>2026-06-22T05:24:24Z</time>
   </trkpt>
   <trkpt lat="-3.0951540" lon="37.3326000">
    <ele>4018.6</ele>
    <time>2026-06-22T05:24:25Z</time>
   </trkpt>
   <trkpt lat="-3.0951580" lon="37.3325990">
    <ele>4018.6</ele>
    <time>2026-06-22T05:24:26Z</time>
   </trkpt>
   <trkpt lat="-3.0951590" lon="37.3326000">
    <ele>4018.7</ele>
    <time>2026-06-22T05:24:27Z</time>
   </trkpt>
   <trkpt lat="-3.0951570" lon="37.3326010">
    <ele>4018.7</ele>
    <time>2026-06-22T05:24:28Z</time>
   </trkpt>
   <trkpt lat="-3.0951580" lon="37.3326010">
    <ele>4018.7</ele>
    <time>2026-06-22T05:24:29Z</time>
   </trkpt>
   <trkpt lat="-3.0951560" lon="37.3326000">
    <ele>4018.7</ele>
    <time>2026-06-22T05:24:30Z</time>
   </trkpt>
   <trkpt lat="-3.0951550" lon="37.3326030">
    <ele>4018.7</ele>
    <time>2026-06-22T05:24:31Z</time>
   </trkpt>
   <trkpt lat="-3.0951530" lon="37.3326070">
    <ele>4018.8</ele>
    <time>2026-06-22T05:24:32Z</time>
   </trkpt>
   <trkpt lat="-3.0951520" lon="37.3326080">
    <ele>4018.8</ele>
    <time>2026-06-22T05:24:33Z</time>
   </trkpt>
   <trkpt lat="-3.0951560" lon="37.3326080">
    <ele>4018.8</ele>
    <time>2026-06-22T05:24:34Z</time>
   </trkpt>
   <trkpt lat="-3.0951570" lon="37.3326070">
    <ele>4018.8</ele>
    <time>2026-06-22T05:24:35Z</time>
   </trkpt>
   <trkpt lat="-3.0951580" lon="37.3326080">
    <ele>4018.9</ele>
    <time>2026-06-22T05:24:36Z</time>
   </trkpt>
   <trkpt lat="-3.0951570" lon="37.3326110">
    <ele>4018.9</ele>
    <time>2026-06-22T05:24:37Z</time>
   </trkpt>
   <trkpt lat="-3.0951600" lon="37.3326130">
    <ele>4018.9</ele>
    <time>2026-06-22T05:24:38Z</time>
   </trkpt>
   <trkpt lat="-3.0951600" lon="37.3326130">
    <ele>4018.9</ele>
    <time>2026-06-22T05:24:39Z</time>
   </trkpt>
   <trkpt lat="-3.0951600" lon="37.3326130">
    <ele>4018.9</ele>
    <time>2026-06-22T05:24:40Z</time>
   </trkpt>
   <trkpt lat="-3.0951600" lon="37.3326130">
    <ele>4018.9</ele>
    <time>2026-06-22T05:24:41Z</time>
   </trkpt>
   <trkpt lat="-3.0951630" lon="37.3326080">
    <ele>4019.0</ele>
    <time>2026-06-22T05:24:42Z</time>
   </trkpt>
   <trkpt lat="-3.0951640" lon="37.3326120">
    <ele>4019.0</ele>
    <time>2026-06-22T05:24:43Z</time>
   </trkpt>
   <trkpt lat="-3.0951630" lon="37.3326120">
    <ele>4019.0</ele>
    <time>2026-06-22T05:24:44Z</time>
   </trkpt>
   <trkpt lat="-3.0951640" lon="37.3326110">
    <ele>4019.1</ele>
    <time>2026-06-22T05:24:45Z</time>
   </trkpt>
   <trkpt lat="-3.0951600" lon="37.3326120">
    <ele>4019.1</ele>
    <time>2026-06-22T05:24:46Z</time>
   </trkpt>
   <trkpt lat="-3.0951590" lon="37.3326140">
    <ele>4019.1</ele>
    <time>2026-06-22T05:24:47Z</time>
   </trkpt>
   <trkpt lat="-3.0951590" lon="37.3326140">
    <ele>4019.1</ele>
    <time>2026-06-22T05:24:48Z</time>
   </trkpt>
   <trkpt lat="-3.0951600" lon="37.3326130">
    <ele>4019.1</ele>
    <time>2026-06-22T05:24:49Z</time>
   </trkpt>
   <trkpt lat="-3.0951610" lon="37.3326130">
    <ele>4019.2</ele>
    <time>2026-06-22T05:24:50Z</time>
   </trkpt>
   <trkpt lat="-3.0951610" lon="37.3326140">
    <ele>4019.2</ele>
    <time>2026-06-22T05:24:51Z</time>
   </trkpt>
   <trkpt lat="-3.0951600" lon="37.3326150">
    <ele>4019.2</ele>
    <time>2026-06-22T05:24:52Z</time>
   </trkpt>
   <trkpt lat="-3.0951630" lon="37.3326140">
    <ele>4019.2</ele>
    <time>2026-06-22T05:24:53Z</time>
   </trkpt>
   <trkpt lat="-3.0951640" lon="37.3326130">
    <ele>4019.2</ele>
    <time>2026-06-22T05:24:54Z</time>
   </trkpt>
   <trkpt lat="-3.0951640" lon="37.3326130">
    <ele>4019.2</ele>
    <time>2026-06-22T05:24:55Z</time>
   </trkpt>
   <trkpt lat="-3.0951640" lon="37.3326130">
    <ele>4019.2</ele>
    <time>2026-06-22T05:24:56Z</time>
   </trkpt>
   <trkpt lat="-3.0951640" lon="37.3326130">
    <ele>4019.2</ele>
    <time>2026-06-22T05:24:57Z</time>
   </trkpt>
   <trkpt lat="-3.0951640" lon="37.3326130">
    <ele>4019.2</ele>
    <time>2026-06-22T05:24:58Z</time>
   </trkpt>
   <trkpt lat="-3.0951640" lon="37.3326130">
    <ele>4019.2</ele>
    <time>2026-06-22T05:24:59Z</time>
   </trkpt>
   <trkpt lat="-3.0951640" lon="37.3326130">
    <ele>4019.2</ele>
    <time>2026-06-22T05:25:00Z</time>
   </trkpt>
   <trkpt lat="-3.0951640" lon="37.3326130">
    <ele>4019.2</ele>
    <time>2026-06-22T05:25:01Z</time>
   </trkpt>
   <trkpt lat="-3.0951600" lon="37.3326190">
    <ele>4019.3</ele>
    <time>2026-06-22T05:25:02Z</time>
   </trkpt>
   <trkpt lat="-3.0951600" lon="37.3326190">
    <ele>4019.3</ele>
    <time>2026-06-22T05:25:03Z</time>
   </trkpt>
   <trkpt lat="-3.0951600" lon="37.3326190">
    <ele>4019.3</ele>
    <time>2026-06-22T05:25:04Z</time>
   </trkpt>
   <trkpt lat="-3.0951600" lon="37.3326190">
    <ele>4019.3</ele>
    <time>2026-06-22T05:25:05Z</time>
   </trkpt>
   <trkpt lat="-3.0951600" lon="37.3326190">
    <ele>4019.3</ele>
    <time>2026-06-22T05:25:06Z</time>
   </trkpt>
   <trkpt lat="-3.0951600" lon="37.3326190">
    <ele>4019.3</ele>
    <time>2026-06-22T05:25:07Z</time>
   </trkpt>
   <trkpt lat="-3.0951600" lon="37.3326190">
    <ele>4019.3</ele>
    <time>2026-06-22T05:25:08Z</time>
   </trkpt>
   <trkpt lat="-3.0951600" lon="37.3326190">
    <ele>4019.3</ele>
    <time>2026-06-22T05:25:09Z</time>
   </trkpt>
   <trkpt lat="-3.0951600" lon="37.3326190">
    <ele>4019.3</ele>
    <time>2026-06-22T05:25:10Z</time>
   </trkpt>
   <trkpt lat="-3.0951610" lon="37.3326180">
    <ele>4019.3</ele>
    <time>2026-06-22T05:25:11Z</time>
   </trkpt>
   <trkpt lat="-3.0951610" lon="37.3326180">
    <ele>4019.3</ele>
    <time>2026-06-22T05:25:12Z</time>
   </trkpt>
   <trkpt lat="-3.0951620" lon="37.3326170">
    <ele>4019.3</ele>
    <time>2026-06-22T05:25:13Z</time>
   </trkpt>
   <trkpt lat="-3.0951610" lon="37.3326170">
    <ele>4019.3</ele>
    <time>2026-06-22T05:25:14Z</time>
   </trkpt>
   <trkpt lat="-3.0951610" lon="37.3326170">
    <ele>4019.3</ele>
    <time>2026-06-22T05:25:15Z</time>
   </trkpt>
   <trkpt lat="-3.0951610" lon="37.3326170">
    <ele>4019.3</ele>
    <time>2026-06-22T05:25:16Z</time>
   </trkpt>
   <trkpt lat="-3.0951630" lon="37.3326140">
    <ele>4019.4</ele>
    <time>2026-06-22T05:25:17Z</time>
   </trkpt>
   <trkpt lat="-3.0951630" lon="37.3326140">
    <ele>4019.4</ele>
    <time>2026-06-22T05:25:18Z</time>
   </trkpt>
   <trkpt lat="-3.0951630" lon="37.3326140">
    <ele>4019.4</ele>
    <time>2026-06-22T05:25:19Z</time>
   </trkpt>
   <trkpt lat="-3.0951670" lon="37.3326130">
    <ele>4019.4</ele>
    <time>2026-06-22T05:25:20Z</time>
   </trkpt>
   <trkpt lat="-3.0951680" lon="37.3326150">
    <ele>4019.5</ele>
    <time>2026-06-22T05:25:21Z</time>
   </trkpt>
   <trkpt lat="-3.0951690" lon="37.3326180">
    <ele>4019.5</ele>
    <time>2026-06-22T05:25:22Z</time>
   </trkpt>
   <trkpt lat="-3.0951700" lon="37.3326170">
    <ele>4019.5</ele>
    <time>2026-06-22T05:25:23Z</time>
   </trkpt>
   <trkpt lat="-3.0951700" lon="37.3326100">
    <ele>4019.6</ele>
    <time>2026-06-22T05:25:24Z</time>
   </trkpt>
   <trkpt lat="-3.0951690" lon="37.3326110">
    <ele>4019.6</ele>
    <time>2026-06-22T05:25:25Z</time>
   </trkpt>
   <trkpt lat="-3.0951690" lon="37.3326120">
    <ele>4019.6</ele>
    <time>2026-06-22T05:25:26Z</time>
   </trkpt>
   <trkpt lat="-3.0951740" lon="37.3326120">
    <ele>4019.7</ele>
    <time>2026-06-22T05:25:27Z</time>
   </trkpt>
   <trkpt lat="-3.0951740" lon="37.3326160">
    <ele>4019.7</ele>
    <time>2026-06-22T05:25:28Z</time>
   </trkpt>
   <trkpt lat="-3.0951720" lon="37.3326120">
    <ele>4019.8</ele>
    <time>2026-06-22T05:25:29Z</time>
   </trkpt>
   <trkpt lat="-3.0951730" lon="37.3326140">
    <ele>4019.8</ele>
    <time>2026-06-22T05:25:30Z</time>
   </trkpt>
   <trkpt lat="-3.0951740" lon="37.3326100">
    <ele>4019.8</ele>
    <time>2026-06-22T05:25:31Z</time>
   </trkpt>
   <trkpt lat="-3.0951730" lon="37.3326120">
    <ele>4019.8</ele>
    <time>2026-06-22T05:25:32Z</time>
   </trkpt>
   <trkpt lat="-3.0951750" lon="37.3326130">
    <ele>4019.9</ele>
    <time>2026-06-22T05:25:33Z</time>
   </trkpt>
   <trkpt lat="-3.0951740" lon="37.3326130">
    <ele>4019.9</ele>
    <time>2026-06-22T05:25:34Z</time>
   </trkpt>
   <trkpt lat="-3.0951740" lon="37.3326130">
    <ele>4019.9</ele>
    <time>2026-06-22T05:25:35Z</time>
   </trkpt>
   <trkpt lat="-3.0951750" lon="37.3326150">
    <ele>4019.9</ele>
    <time>2026-06-22T05:25:36Z</time>
   </trkpt>
   <trkpt lat="-3.0951760" lon="37.3326150">
    <ele>4019.9</ele>
    <time>2026-06-22T05:25:37Z</time>
   </trkpt>
   <trkpt lat="-3.0951750" lon="37.3326140">
    <ele>4019.9</ele>
    <time>2026-06-22T05:25:38Z</time>
   </trkpt>
   <trkpt lat="-3.0951730" lon="37.3326160">
    <ele>4020.0</ele>
    <time>2026-06-22T05:25:39Z</time>
   </trkpt>
   <trkpt lat="-3.0951770" lon="37.3326160">
    <ele>4020.0</ele>
    <time>2026-06-22T05:25:40Z</time>
   </trkpt>
   <trkpt lat="-3.0951770" lon="37.3326150">
    <ele>4020.0</ele>
    <time>2026-06-22T05:25:41Z</time>
   </trkpt>
   <trkpt lat="-3.0951780" lon="37.3326170">
    <ele>4020.1</ele>
    <time>2026-06-22T05:25:42Z</time>
   </trkpt>
   <trkpt lat="-3.0951780" lon="37.3326180">
    <ele>4020.1</ele>
    <time>2026-06-22T05:25:43Z</time>
   </trkpt>
   <trkpt lat="-3.0951790" lon="37.3326210">
    <ele>4020.1</ele>
    <time>2026-06-22T05:25:44Z</time>
   </trkpt>
   <trkpt lat="-3.0951790" lon="37.3326160">
    <ele>4020.2</ele>
    <time>2026-06-22T05:25:45Z</time>
   </trkpt>
   <trkpt lat="-3.0951760" lon="37.3326150">
    <ele>4020.2</ele>
    <time>2026-06-22T05:25:46Z</time>
   </trkpt>
   <trkpt lat="-3.0951760" lon="37.3326140">
    <ele>4020.2</ele>
    <time>2026-06-22T05:25:47Z</time>
   </trkpt>
   <trkpt lat="-3.0951750" lon="37.3326140">
    <ele>4020.2</ele>
    <time>2026-06-22T05:25:48Z</time>
   </trkpt>
   <trkpt lat="-3.0951750" lon="37.3326140">
    <ele>4020.2</ele>
    <time>2026-06-22T05:25:49Z</time>
   </trkpt>
   <trkpt lat="-3.0951750" lon="37.3326140">
    <ele>4020.2</ele>
    <time>2026-06-22T05:25:50Z</time>
   </trkpt>
   <trkpt lat="-3.0951750" lon="37.3326140">
    <ele>4020.2</ele>
    <time>2026-06-22T05:25:51Z</time>
   </trkpt>
   <trkpt lat="-3.0951750" lon="37.3326140">
    <ele>4020.2</ele>
    <time>2026-06-22T05:25:52Z</time>
   </trkpt>
   <trkpt lat="-3.0951750" lon="37.3326160">
    <ele>4020.2</ele>
    <time>2026-06-22T05:25:53Z</time>
   </trkpt>
   <trkpt lat="-3.0951740" lon="37.3326160">
    <ele>4020.3</ele>
    <time>2026-06-22T05:25:54Z</time>
   </trkpt>
   <trkpt lat="-3.0951740" lon="37.3326160">
    <ele>4020.3</ele>
    <time>2026-06-22T05:25:55Z</time>
   </trkpt>
   <trkpt lat="-3.0951740" lon="37.3326160">
    <ele>4020.3</ele>
    <time>2026-06-22T05:25:56Z</time>
   </trkpt>
   <trkpt lat="-3.0951740" lon="37.3326160">
    <ele>4020.3</ele>
    <time>2026-06-22T05:25:57Z</time>
   </trkpt>
   <trkpt lat="-3.0951690" lon="37.3326150">
    <ele>4020.3</ele>
    <time>2026-06-22T05:25:59Z</time>
   </trkpt>
   <trkpt lat="-3.0951690" lon="37.3326150">
    <ele>4020.3</ele>
    <time>2026-06-22T05:26:00Z</time>
   </trkpt>
   <trkpt lat="-3.0951690" lon="37.3326150">
    <ele>4020.3</ele>
    <time>2026-06-22T05:26:01Z</time>
   </trkpt>
   <trkpt lat="-3.0951690" lon="37.3326150">
    <ele>4020.3</ele>
    <time>2026-06-22T05:26:02Z</time>
   </trkpt>
   <trkpt lat="-3.0951690" lon="37.3326150">
    <ele>4020.3</ele>
    <time>2026-06-22T05:26:03Z</time>
   </trkpt>
   <trkpt lat="-3.0951690" lon="37.3326150">
    <ele>4020.3</ele>
    <time>2026-06-22T05:26:04Z</time>
   </trkpt>
   <trkpt lat="-3.0951660" lon="37.3326160">
    <ele>4020.4</ele>
    <time>2026-06-22T05:26:05Z</time>
   </trkpt>
   <trkpt lat="-3.0951660" lon="37.3326150">
    <ele>4020.4</ele>
    <time>2026-06-22T05:26:06Z</time>
   </trkpt>
   <trkpt lat="-3.0951660" lon="37.3326150">
    <ele>4020.4</ele>
    <time>2026-06-22T05:26:07Z</time>
   </trkpt>
   <trkpt lat="-3.0951660" lon="37.3326140">
    <ele>4020.4</ele>
    <time>2026-06-22T05:26:08Z</time>
   </trkpt>
   <trkpt lat="-3.0951650" lon="37.3326140">
    <ele>4020.4</ele>
    <time>2026-06-22T05:26:09Z</time>
   </trkpt>
   <trkpt lat="-3.0951650" lon="37.3326140">
    <ele>4020.4</ele>
    <time>2026-06-22T05:26:10Z</time>
   </trkpt>
   <trkpt lat="-3.0951670" lon="37.3326150">
    <ele>4020.4</ele>
    <time>2026-06-22T05:26:11Z</time>
   </trkpt>
   <trkpt lat="-3.0951670" lon="37.3326150">
    <ele>4020.4</ele>
    <time>2026-06-22T05:26:12Z</time>
   </trkpt>
   <trkpt lat="-3.0951670" lon="37.3326160">
    <ele>4020.4</ele>
    <time>2026-06-22T05:26:13Z</time>
   </trkpt>
   <trkpt lat="-3.0951680" lon="37.3326150">
    <ele>4020.4</ele>
    <time>2026-06-22T05:26:14Z</time>
   </trkpt>
   <trkpt lat="-3.0951680" lon="37.3326150">
    <ele>4020.4</ele>
    <time>2026-06-22T05:26:15Z</time>
   </trkpt>
   <trkpt lat="-3.0951680" lon="37.3326150">
    <ele>4020.4</ele>
    <time>2026-06-22T05:26:16Z</time>
   </trkpt>
   <trkpt lat="-3.0951700" lon="37.3326130">
    <ele>4020.5</ele>
    <time>2026-06-22T05:26:17Z</time>
   </trkpt>
   <trkpt lat="-3.0951700" lon="37.3326120">
    <ele>4020.5</ele>
    <time>2026-06-22T05:26:18Z</time>
   </trkpt>
   <trkpt lat="-3.0951710" lon="37.3326150">
    <ele>4020.5</ele>
    <time>2026-06-22T05:26:19Z</time>
   </trkpt>
   <trkpt lat="-3.0951700" lon="37.3326150">
    <ele>4020.5</ele>
    <time>2026-06-22T05:26:20Z</time>
   </trkpt>
   <trkpt lat="-3.0951700" lon="37.3326150">
    <ele>4020.5</ele>
    <time>2026-06-22T05:26:21Z</time>
   </trkpt>
   <trkpt lat="-3.0951720" lon="37.3326130">
    <ele>4020.6</ele>
    <time>2026-06-22T05:26:22Z</time>
   </trkpt>
   <trkpt lat="-3.0951730" lon="37.3326110">
    <ele>4020.6</ele>
    <time>2026-06-22T05:26:23Z</time>
   </trkpt>
   <trkpt lat="-3.0951730" lon="37.3326120">
    <ele>4020.6</ele>
    <time>2026-06-22T05:26:24Z</time>
   </trkpt>
   <trkpt lat="-3.0951740" lon="37.3326130">
    <ele>4020.6</ele>
    <time>2026-06-22T05:26:25Z</time>
   </trkpt>
   <trkpt lat="-3.0951740" lon="37.3326130">
    <ele>4020.6</ele>
    <time>2026-06-22T05:26:26Z</time>
   </trkpt>
   <trkpt lat="-3.0951740" lon="37.3326130">
    <ele>4020.6</ele>
    <time>2026-06-22T05:26:27Z</time>
   </trkpt>
   <trkpt lat="-3.0951750" lon="37.3326120">
    <ele>4020.6</ele>
    <time>2026-06-22T05:26:28Z</time>
   </trkpt>
   <trkpt lat="-3.0951750" lon="37.3326100">
    <ele>4020.7</ele>
    <time>2026-06-22T05:26:29Z</time>
   </trkpt>
   <trkpt lat="-3.0951750" lon="37.3326100">
    <ele>4020.7</ele>
    <time>2026-06-22T05:26:30Z</time>
   </trkpt>
   <trkpt lat="-3.0951760" lon="37.3326100">
    <ele>4020.7</ele>
    <time>2026-06-22T05:26:31Z</time>
   </trkpt>
   <trkpt lat="-3.0951730" lon="37.3326090">
    <ele>4020.7</ele>
    <time>2026-06-22T05:26:32Z</time>
   </trkpt>
   <trkpt lat="-3.0951730" lon="37.3326100">
    <ele>4020.7</ele>
    <time>2026-06-22T05:26:33Z</time>
   </trkpt>
   <trkpt lat="-3.0951710" lon="37.3326090">
    <ele>4020.8</ele>
    <time>2026-06-22T05:26:34Z</time>
   </trkpt>
   <trkpt lat="-3.0951740" lon="37.3326110">
    <ele>4020.8</ele>
    <time>2026-06-22T05:26:35Z</time>
   </trkpt>
   <trkpt lat="-3.0951750" lon="37.3326110">
    <ele>4020.8</ele>
    <time>2026-06-22T05:26:36Z</time>
   </trkpt>
   <trkpt lat="-3.0951770" lon="37.3326110">
    <ele>4020.8</ele>
    <time>2026-06-22T05:26:37Z</time>
   </trkpt>
   <trkpt lat="-3.0951770" lon="37.3326100">
    <ele>4020.8</ele>
    <time>2026-06-22T05:26:38Z</time>
   </trkpt>
   <trkpt lat="-3.0951770" lon="37.3326100">
    <ele>4020.8</ele>
    <time>2026-06-22T05:26:39Z</time>
   </trkpt>
   <trkpt lat="-3.0951770" lon="37.3326100">
    <ele>4020.8</ele>
    <time>2026-06-22T05:26:40Z</time>
   </trkpt>
   <trkpt lat="-3.0951770" lon="37.3326100">
    <ele>4020.8</ele>
    <time>2026-06-22T05:26:41Z</time>
   </trkpt>
   <trkpt lat="-3.0951810" lon="37.3326140">
    <ele>4020.9</ele>
    <time>2026-06-22T05:26:42Z</time>
   </trkpt>
   <trkpt lat="-3.0951800" lon="37.3326140">
    <ele>4020.9</ele>
    <time>2026-06-22T05:26:43Z</time>
   </trkpt>
   <trkpt lat="-3.0951800" lon="37.3326140">
    <ele>4020.9</ele>
    <time>2026-06-22T05:26:44Z</time>
   </trkpt>
   <trkpt lat="-3.0951830" lon="37.3326160">
    <ele>4021.0</ele>
    <time>2026-06-22T05:26:45Z</time>
   </trkpt>
   <trkpt lat="-3.0951830" lon="37.3326160">
    <ele>4021.0</ele>
    <time>2026-06-22T05:26:46Z</time>
   </trkpt>
   <trkpt lat="-3.0951830" lon="37.3326160">
    <ele>4021.0</ele>
    <time>2026-06-22T05:26:47Z</time>
   </trkpt>
   <trkpt lat="-3.0951840" lon="37.3326170">
    <ele>4021.0</ele>
    <time>2026-06-22T05:26:48Z</time>
   </trkpt>
   <trkpt lat="-3.0951840" lon="37.3326170">
    <ele>4021.0</ele>
    <time>2026-06-22T05:26:49Z</time>
   </trkpt>
   <trkpt lat="-3.0951850" lon="37.3326160">
    <ele>4021.0</ele>
    <time>2026-06-22T05:26:50Z</time>
   </trkpt>
   <trkpt lat="-3.0951880" lon="37.3326120">
    <ele>4021.1</ele>
    <time>2026-06-22T05:26:51Z</time>
   </trkpt>
   <trkpt lat="-3.0951880" lon="37.3326140">
    <ele>4021.1</ele>
    <time>2026-06-22T05:26:52Z</time>
   </trkpt>
   <trkpt lat="-3.0951870" lon="37.3326140">
    <ele>4021.1</ele>
    <time>2026-06-22T05:26:53Z</time>
   </trkpt>
   <trkpt lat="-3.0951870" lon="37.3326140">
    <ele>4021.1</ele>
    <time>2026-06-22T05:26:54Z</time>
   </trkpt>
   <trkpt lat="-3.0951880" lon="37.3326130">
    <ele>4021.1</ele>
    <time>2026-06-22T05:26:55Z</time>
   </trkpt>
   <trkpt lat="-3.0951870" lon="37.3326120">
    <ele>4021.1</ele>
    <time>2026-06-22T05:26:56Z</time>
   </trkpt>
   <trkpt lat="-3.0951860" lon="37.3326130">
    <ele>4021.2</ele>
    <time>2026-06-22T05:26:57Z</time>
   </trkpt>
   <trkpt lat="-3.0951850" lon="37.3326130">
    <ele>4021.2</ele>
    <time>2026-06-22T05:26:58Z</time>
   </trkpt>
   <trkpt lat="-3.0951870" lon="37.3326140">
    <ele>4021.2</ele>
    <time>2026-06-22T05:26:59Z</time>
   </trkpt>
   <trkpt lat="-3.0951880" lon="37.3326130">
    <ele>4021.2</ele>
    <time>2026-06-22T05:27:00Z</time>
   </trkpt>
   <trkpt lat="-3.0951910" lon="37.3326130">
    <ele>4021.3</ele>
    <time>2026-06-22T05:27:01Z</time>
   </trkpt>
   <trkpt lat="-3.0951910" lon="37.3326130">
    <ele>4021.3</ele>
    <time>2026-06-22T05:27:02Z</time>
   </trkpt>
   <trkpt lat="-3.0951910" lon="37.3326130">
    <ele>4021.3</ele>
    <time>2026-06-22T05:27:03Z</time>
   </trkpt>
   <trkpt lat="-3.0951910" lon="37.3326130">
    <ele>4021.3</ele>
    <time>2026-06-22T05:27:04Z</time>
   </trkpt>
   <trkpt lat="-3.0951900" lon="37.3326110">
    <ele>4021.3</ele>
    <time>2026-06-22T05:27:05Z</time>
   </trkpt>
   <trkpt lat="-3.0951900" lon="37.3326110">
    <ele>4021.3</ele>
    <time>2026-06-22T05:27:06Z</time>
   </trkpt>
   <trkpt lat="-3.0951900" lon="37.3326110">
    <ele>4021.3</ele>
    <time>2026-06-22T05:27:07Z</time>
   </trkpt>
   <trkpt lat="-3.0951900" lon="37.3326110">
    <ele>4021.3</ele>
    <time>2026-06-22T05:27:08Z</time>
   </trkpt>
   <trkpt lat="-3.0951900" lon="37.3326110">
    <ele>4021.3</ele>
    <time>2026-06-22T05:27:09Z</time>
   </trkpt>
   <trkpt lat="-3.0951900" lon="37.3326110">
    <ele>4021.3</ele>
    <time>2026-06-22T05:27:10Z</time>
   </trkpt>
   <trkpt lat="-3.0951910" lon="37.3326170">
    <ele>4021.4</ele>
    <time>2026-06-22T05:27:11Z</time>
   </trkpt>
   <trkpt lat="-3.0951910" lon="37.3326180">
    <ele>4021.4</ele>
    <time>2026-06-22T05:27:12Z</time>
   </trkpt>
   <trkpt lat="-3.0951910" lon="37.3326190">
    <ele>4021.4</ele>
    <time>2026-06-22T05:27:13Z</time>
   </trkpt>
   <trkpt lat="-3.0951910" lon="37.3326200">
    <ele>4021.4</ele>
    <time>2026-06-22T05:27:14Z</time>
   </trkpt>
   <trkpt lat="-3.0951910" lon="37.3326170">
    <ele>4021.4</ele>
    <time>2026-06-22T05:27:15Z</time>
   </trkpt>
   <trkpt lat="-3.0951910" lon="37.3326170">
    <ele>4021.4</ele>
    <time>2026-06-22T05:27:16Z</time>
   </trkpt>
   <trkpt lat="-3.0951920" lon="37.3326140">
    <ele>4021.5</ele>
    <time>2026-06-22T05:27:17Z</time>
   </trkpt>
   <trkpt lat="-3.0951940" lon="37.3326110">
    <ele>4021.5</ele>
    <time>2026-06-22T05:27:18Z</time>
   </trkpt>
   <trkpt lat="-3.0951990" lon="37.3326140">
    <ele>4021.6</ele>
    <time>2026-06-22T05:27:19Z</time>
   </trkpt>
   <trkpt lat="-3.0952020" lon="37.3326180">
    <ele>4021.7</ele>
    <time>2026-06-22T05:27:20Z</time>
   </trkpt>
   <trkpt lat="-3.0952010" lon="37.3326160">
    <ele>4021.7</ele>
    <time>2026-06-22T05:27:21Z</time>
   </trkpt>
   <trkpt lat="-3.0952020" lon="37.3326170">
    <ele>4021.7</ele>
    <time>2026-06-22T05:27:22Z</time>
   </trkpt>
   <trkpt lat="-3.0952010" lon="37.3326200">
    <ele>4021.8</ele>
    <time>2026-06-22T05:27:23Z</time>
   </trkpt>
   <trkpt lat="-3.0952010" lon="37.3326190">
    <ele>4021.8</ele>
    <time>2026-06-22T05:27:24Z</time>
   </trkpt>
   <trkpt lat="-3.0952030" lon="37.3326230">
    <ele>4021.8</ele>
    <time>2026-06-22T05:27:25Z</time>
   </trkpt>
   <trkpt lat="-3.0952060" lon="37.3326250">
    <ele>4021.9</ele>
    <time>2026-06-22T05:27:26Z</time>
   </trkpt>
   <trkpt lat="-3.0952070" lon="37.3326290">
    <ele>4021.9</ele>
    <time>2026-06-22T05:27:27Z</time>
   </trkpt>
   <trkpt lat="-3.0952070" lon="37.3326280">
    <ele>4022.0</ele>
    <time>2026-06-22T05:27:28Z</time>
   </trkpt>
   <trkpt lat="-3.0952070" lon="37.3326280">
    <ele>4022.0</ele>
    <time>2026-06-22T05:27:29Z</time>
   </trkpt>
   <trkpt lat="-3.0952070" lon="37.3326280">
    <ele>4022.0</ele>
    <time>2026-06-22T05:27:30Z</time>
   </trkpt>
   <trkpt lat="-3.0952060" lon="37.3326310">
    <ele>4022.0</ele>
    <time>2026-06-22T05:27:31Z</time>
   </trkpt>
   <trkpt lat="-3.0952070" lon="37.3326300">
    <ele>4022.0</ele>
    <time>2026-06-22T05:27:32Z</time>
   </trkpt>
   <trkpt lat="-3.0952060" lon="37.3326300">
    <ele>4022.0</ele>
    <time>2026-06-22T05:27:33Z</time>
   </trkpt>
   <trkpt lat="-3.0952050" lon="37.3326300">
    <ele>4022.0</ele>
    <time>2026-06-22T05:27:34Z</time>
   </trkpt>
   <trkpt lat="-3.0952050" lon="37.3326290">
    <ele>4022.1</ele>
    <time>2026-06-22T05:27:35Z</time>
   </trkpt>
   <trkpt lat="-3.0952050" lon="37.3326290">
    <ele>4022.1</ele>
    <time>2026-06-22T05:27:36Z</time>
   </trkpt>
   <trkpt lat="-3.0952050" lon="37.3326280">
    <ele>4022.1</ele>
    <time>2026-06-22T05:27:37Z</time>
   </trkpt>
   <trkpt lat="-3.0952060" lon="37.3326300">
    <ele>4022.1</ele>
    <time>2026-06-22T05:27:38Z</time>
   </trkpt>
   <trkpt lat="-3.0952050" lon="37.3326300">
    <ele>4022.1</ele>
    <time>2026-06-22T05:27:39Z</time>
   </trkpt>
   <trkpt lat="-3.0952050" lon="37.3326300">
    <ele>4022.1</ele>
    <time>2026-06-22T05:27:40Z</time>
   </trkpt>
   <trkpt lat="-3.0952040" lon="37.3326290">
    <ele>4022.1</ele>
    <time>2026-06-22T05:27:41Z</time>
   </trkpt>
   <trkpt lat="-3.0952040" lon="37.3326310">
    <ele>4022.2</ele>
    <time>2026-06-22T05:27:42Z</time>
   </trkpt>
   <trkpt lat="-3.0952040" lon="37.3326290">
    <ele>4022.2</ele>
    <time>2026-06-22T05:27:43Z</time>
   </trkpt>
   <trkpt lat="-3.0952040" lon="37.3326290">
    <ele>4022.2</ele>
    <time>2026-06-22T05:27:44Z</time>
   </trkpt>
   <trkpt lat="-3.0952060" lon="37.3326280">
    <ele>4022.2</ele>
    <time>2026-06-22T05:27:45Z</time>
   </trkpt>
   <trkpt lat="-3.0952060" lon="37.3326270">
    <ele>4022.2</ele>
    <time>2026-06-22T05:27:46Z</time>
   </trkpt>
   <trkpt lat="-3.0952060" lon="37.3326280">
    <ele>4022.2</ele>
    <time>2026-06-22T05:27:47Z</time>
   </trkpt>
   <trkpt lat="-3.0952060" lon="37.3326290">
    <ele>4022.3</ele>
    <time>2026-06-22T05:27:48Z</time>
   </trkpt>
   <trkpt lat="-3.0952060" lon="37.3326290">
    <ele>4022.3</ele>
    <time>2026-06-22T05:27:49Z</time>
   </trkpt>
   <trkpt lat="-3.0952070" lon="37.3326300">
    <ele>4022.3</ele>
    <time>2026-06-22T05:27:50Z</time>
   </trkpt>
   <trkpt lat="-3.0952070" lon="37.3326300">
    <ele>4022.3</ele>
    <time>2026-06-22T05:27:51Z</time>
   </trkpt>
   <trkpt lat="-3.0952070" lon="37.3326310">
    <ele>4022.3</ele>
    <time>2026-06-22T05:27:52Z</time>
   </trkpt>
   <trkpt lat="-3.0952060" lon="37.3326300">
    <ele>4022.3</ele>
    <time>2026-06-22T05:27:53Z</time>
   </trkpt>
   <trkpt lat="-3.0952060" lon="37.3326310">
    <ele>4022.3</ele>
    <time>2026-06-22T05:27:54Z</time>
   </trkpt>
   <trkpt lat="-3.0952060" lon="37.3326310">
    <ele>4022.3</ele>
    <time>2026-06-22T05:27:55Z</time>
   </trkpt>
   <trkpt lat="-3.0952050" lon="37.3326310">
    <ele>4022.3</ele>
    <time>2026-06-22T05:27:56Z</time>
   </trkpt>
   <trkpt lat="-3.0952050" lon="37.3326300">
    <ele>4022.3</ele>
    <time>2026-06-22T05:27:57Z</time>
   </trkpt>
   <trkpt lat="-3.0952050" lon="37.3326320">
    <ele>4022.4</ele>
    <time>2026-06-22T05:27:58Z</time>
   </trkpt>
   <trkpt lat="-3.0952060" lon="37.3326310">
    <ele>4022.4</ele>
    <time>2026-06-22T05:27:59Z</time>
   </trkpt>
   <trkpt lat="-3.0952060" lon="37.3326310">
    <ele>4022.4</ele>
    <time>2026-06-22T05:28:00Z</time>
   </trkpt>
   <trkpt lat="-3.0952060" lon="37.3326310">
    <ele>4022.4</ele>
    <time>2026-06-22T05:28:01Z</time>
   </trkpt>
   <trkpt lat="-3.0952060" lon="37.3326310">
    <ele>4022.4</ele>
    <time>2026-06-22T05:28:02Z</time>
   </trkpt>
   <trkpt lat="-3.0952060" lon="37.3326310">
    <ele>4022.4</ele>
    <time>2026-06-22T05:28:03Z</time>
   </trkpt>
   <trkpt lat="-3.0952060" lon="37.3326310">
    <ele>4022.4</ele>
    <time>2026-06-22T05:28:05Z</time>
   </trkpt>
   <trkpt lat="-3.0952060" lon="37.3326310">
    <ele>4022.4</ele>
    <time>2026-06-22T05:28:06Z</time>
   </trkpt>
   <trkpt lat="-3.0952060" lon="37.3326310">
    <ele>4022.4</ele>
    <time>2026-06-22T05:28:07Z</time>
   </trkpt>
   <trkpt lat="-3.0952040" lon="37.3326300">
    <ele>4022.4</ele>
    <time>2026-06-22T05:28:08Z</time>
   </trkpt>
   <trkpt lat="-3.0952040" lon="37.3326310">
    <ele>4022.4</ele>
    <time>2026-06-22T05:28:09Z</time>
   </trkpt>
   <trkpt lat="-3.0952030" lon="37.3326310">
    <ele>4022.5</ele>
    <time>2026-06-22T05:28:10Z</time>
   </trkpt>
   <trkpt lat="-3.0952050" lon="37.3326300">
    <ele>4022.5</ele>
    <time>2026-06-22T05:28:11Z</time>
   </trkpt>
   <trkpt lat="-3.0952040" lon="37.3326310">
    <ele>4022.5</ele>
    <time>2026-06-22T05:28:12Z</time>
   </trkpt>
   <trkpt lat="-3.0952040" lon="37.3326310">
    <ele>4022.5</ele>
    <time>2026-06-22T05:28:13Z</time>
   </trkpt>
   <trkpt lat="-3.0952040" lon="37.3326310">
    <ele>4022.5</ele>
    <time>2026-06-22T05:28:14Z</time>
   </trkpt>
   <trkpt lat="-3.0952040" lon="37.3326310">
    <ele>4022.5</ele>
    <time>2026-06-22T05:28:15Z</time>
   </trkpt>
   <trkpt lat="-3.0952040" lon="37.3326310">
    <ele>4022.5</ele>
    <time>2026-06-22T05:28:16Z</time>
   </trkpt>
   <trkpt lat="-3.0952040" lon="37.3326310">
    <ele>4022.5</ele>
    <time>2026-06-22T05:28:17Z</time>
   </trkpt>
   <trkpt lat="-3.0952030" lon="37.3326300">
    <ele>4022.5</ele>
    <time>2026-06-22T05:28:18Z</time>
   </trkpt>
   <trkpt lat="-3.0952030" lon="37.3326310">
    <ele>4022.5</ele>
    <time>2026-06-22T05:28:19Z</time>
   </trkpt>
   <trkpt lat="-3.0952040" lon="37.3326310">
    <ele>4022.6</ele>
    <time>2026-06-22T05:28:20Z</time>
   </trkpt>
   <trkpt lat="-3.0952070" lon="37.3326300">
    <ele>4022.6</ele>
    <time>2026-06-22T05:28:21Z</time>
   </trkpt>
   <trkpt lat="-3.0952090" lon="37.3326280">
    <ele>4022.6</ele>
    <time>2026-06-22T05:28:22Z</time>
   </trkpt>
   <trkpt lat="-3.0952100" lon="37.3326290">
    <ele>4022.7</ele>
    <time>2026-06-22T05:28:23Z</time>
   </trkpt>
   <trkpt lat="-3.0952110" lon="37.3326270">
    <ele>4022.7</ele>
    <time>2026-06-22T05:28:24Z</time>
   </trkpt>
   <trkpt lat="-3.0952120" lon="37.3326250">
    <ele>4022.7</ele>
    <time>2026-06-22T05:28:25Z</time>
   </trkpt>
   <trkpt lat="-3.0952120" lon="37.3326240">
    <ele>4022.7</ele>
    <time>2026-06-22T05:28:26Z</time>
   </trkpt>
   <trkpt lat="-3.0952140" lon="37.3326250">
    <ele>4022.8</ele>
    <time>2026-06-22T05:28:27Z</time>
   </trkpt>
   <trkpt lat="-3.0952140" lon="37.3326250">
    <ele>4022.8</ele>
    <time>2026-06-22T05:28:28Z</time>
   </trkpt>
   <trkpt lat="-3.0952140" lon="37.3326250">
    <ele>4022.8</ele>
    <time>2026-06-22T05:28:29Z</time>
   </trkpt>
   <trkpt lat="-3.0952140" lon="37.3326240">
    <ele>4022.8</ele>
    <time>2026-06-22T05:28:30Z</time>
   </trkpt>
   <trkpt lat="-3.0952150" lon="37.3326240">
    <ele>4022.8</ele>
    <time>2026-06-22T05:28:31Z</time>
   </trkpt>
   <trkpt lat="-3.0952150" lon="37.3326230">
    <ele>4022.8</ele>
    <time>2026-06-22T05:28:32Z</time>
   </trkpt>
   <trkpt lat="-3.0952180" lon="37.3326230">
    <ele>4022.9</ele>
    <time>2026-06-22T05:28:33Z</time>
   </trkpt>
   <trkpt lat="-3.0952220" lon="37.3326230">
    <ele>4022.9</ele>
    <time>2026-06-22T05:28:34Z</time>
   </trkpt>
   <trkpt lat="-3.0952240" lon="37.3326200">
    <ele>4023.0</ele>
    <time>2026-06-22T05:28:35Z</time>
   </trkpt>
   <trkpt lat="-3.0952260" lon="37.3326170">
    <ele>4023.0</ele>
    <time>2026-06-22T05:28:36Z</time>
   </trkpt>
   <trkpt lat="-3.0952250" lon="37.3326170">
    <ele>4023.0</ele>
    <time>2026-06-22T05:28:37Z</time>
   </trkpt>
   <trkpt lat="-3.0952270" lon="37.3326140">
    <ele>4023.1</ele>
    <time>2026-06-22T05:28:38Z</time>
   </trkpt>
   <trkpt lat="-3.0952280" lon="37.3326130">
    <ele>4023.1</ele>
    <time>2026-06-22T05:28:39Z</time>
   </trkpt>
   <trkpt lat="-3.0952300" lon="37.3326130">
    <ele>4023.1</ele>
    <time>2026-06-22T05:28:40Z</time>
   </trkpt>
   <trkpt lat="-3.0952300" lon="37.3326140">
    <ele>4023.2</ele>
    <time>2026-06-22T05:28:41Z</time>
   </trkpt>
   <trkpt lat="-3.0952320" lon="37.3326120">
    <ele>4023.2</ele>
    <time>2026-06-22T05:28:42Z</time>
   </trkpt>
   <trkpt lat="-3.0952330" lon="37.3326120">
    <ele>4023.2</ele>
    <time>2026-06-22T05:28:43Z</time>
   </trkpt>
   <trkpt lat="-3.0952340" lon="37.3326100">
    <ele>4023.2</ele>
    <time>2026-06-22T05:28:44Z</time>
   </trkpt>
   <trkpt lat="-3.0952330" lon="37.3326070">
    <ele>4023.3</ele>
    <time>2026-06-22T05:28:45Z</time>
   </trkpt>
   <trkpt lat="-3.0952320" lon="37.3326080">
    <ele>4023.3</ele>
    <time>2026-06-22T05:28:46Z</time>
   </trkpt>
   <trkpt lat="-3.0952330" lon="37.3326100">
    <ele>4023.3</ele>
    <time>2026-06-22T05:28:47Z</time>
   </trkpt>
   <trkpt lat="-3.0952310" lon="37.3326090">
    <ele>4023.4</ele>
    <time>2026-06-22T05:28:48Z</time>
   </trkpt>
   <trkpt lat="-3.0952320" lon="37.3326070">
    <ele>4023.4</ele>
    <time>2026-06-22T05:28:49Z</time>
   </trkpt>
   <trkpt lat="-3.0952390" lon="37.3326080">
    <ele>4023.5</ele>
    <time>2026-06-22T05:28:50Z</time>
   </trkpt>
   <trkpt lat="-3.0952400" lon="37.3326150">
    <ele>4023.6</ele>
    <time>2026-06-22T05:28:51Z</time>
   </trkpt>
   <trkpt lat="-3.0952400" lon="37.3326150">
    <ele>4023.6</ele>
    <time>2026-06-22T05:28:52Z</time>
   </trkpt>
   <trkpt lat="-3.0952420" lon="37.3326140">
    <ele>4023.6</ele>
    <time>2026-06-22T05:28:53Z</time>
   </trkpt>
   <trkpt lat="-3.0952420" lon="37.3326120">
    <ele>4023.7</ele>
    <time>2026-06-22T05:28:54Z</time>
   </trkpt>
   <trkpt lat="-3.0952420" lon="37.3326150">
    <ele>4023.7</ele>
    <time>2026-06-22T05:28:55Z</time>
   </trkpt>
   <trkpt lat="-3.0952460" lon="37.3326110">
    <ele>4023.8</ele>
    <time>2026-06-22T05:28:56Z</time>
   </trkpt>
   <trkpt lat="-3.0952470" lon="37.3326080">
    <ele>4023.8</ele>
    <time>2026-06-22T05:28:57Z</time>
   </trkpt>
   <trkpt lat="-3.0952490" lon="37.3326170">
    <ele>4024.0</ele>
    <time>2026-06-22T05:28:58Z</time>
   </trkpt>
   <trkpt lat="-3.0952510" lon="37.3326130">
    <ele>4024.1</ele>
    <time>2026-06-22T05:28:59Z</time>
   </trkpt>
   <trkpt lat="-3.0952530" lon="37.3326120">
    <ele>4024.1</ele>
    <time>2026-06-22T05:29:00Z</time>
   </trkpt>
   <trkpt lat="-3.0952550" lon="37.3326090">
    <ele>4024.1</ele>
    <time>2026-06-22T05:29:01Z</time>
   </trkpt>
   <trkpt lat="-3.0952600" lon="37.3326090">
    <ele>4024.2</ele>
    <time>2026-06-22T05:29:02Z</time>
   </trkpt>
   <trkpt lat="-3.0952630" lon="37.3326090">
    <ele>4024.3</ele>
    <time>2026-06-22T05:29:03Z</time>
   </trkpt>
   <trkpt lat="-3.0952640" lon="37.3326100">
    <ele>4024.3</ele>
    <time>2026-06-22T05:29:04Z</time>
   </trkpt>
   <trkpt lat="-3.0952640" lon="37.3326100">
    <ele>4024.3</ele>
    <time>2026-06-22T05:29:05Z</time>
   </trkpt>
   <trkpt lat="-3.0952670" lon="37.3326150">
    <ele>4024.4</ele>
    <time>2026-06-22T05:29:06Z</time>
   </trkpt>
   <trkpt lat="-3.0952670" lon="37.3326170">
    <ele>4024.4</ele>
    <time>2026-06-22T05:29:07Z</time>
   </trkpt>
   <trkpt lat="-3.0952670" lon="37.3326190">
    <ele>4024.4</ele>
    <time>2026-06-22T05:29:08Z</time>
   </trkpt>
   <trkpt lat="-3.0952650" lon="37.3326200">
    <ele>4024.5</ele>
    <time>2026-06-22T05:29:09Z</time>
   </trkpt>
   <trkpt lat="-3.0952640" lon="37.3326210">
    <ele>4024.5</ele>
    <time>2026-06-22T05:29:10Z</time>
   </trkpt>
   <trkpt lat="-3.0952620" lon="37.3326240">
    <ele>4024.6</ele>
    <time>2026-06-22T05:29:11Z</time>
   </trkpt>
   <trkpt lat="-3.0952600" lon="37.3326280">
    <ele>4024.6</ele>
    <time>2026-06-22T05:29:12Z</time>
   </trkpt>
   <trkpt lat="-3.0952590" lon="37.3326260">
    <ele>4024.7</ele>
    <time>2026-06-22T05:29:13Z</time>
   </trkpt>
   <trkpt lat="-3.0952580" lon="37.3326260">
    <ele>4024.7</ele>
    <time>2026-06-22T05:29:14Z</time>
   </trkpt>
   <trkpt lat="-3.0952560" lon="37.3326300">
    <ele>4024.7</ele>
    <time>2026-06-22T05:29:15Z</time>
   </trkpt>
   <trkpt lat="-3.0952560" lon="37.3326280">
    <ele>4024.8</ele>
    <time>2026-06-22T05:29:16Z</time>
   </trkpt>
   <trkpt lat="-3.0952560" lon="37.3326280">
    <ele>4024.8</ele>
    <time>2026-06-22T05:29:17Z</time>
   </trkpt>
   <trkpt lat="-3.0952550" lon="37.3326280">
    <ele>4024.8</ele>
    <time>2026-06-22T05:29:18Z</time>
   </trkpt>
   <trkpt lat="-3.0952540" lon="37.3326280">
    <ele>4024.8</ele>
    <time>2026-06-22T05:29:19Z</time>
   </trkpt>
   <trkpt lat="-3.0952540" lon="37.3326280">
    <ele>4024.8</ele>
    <time>2026-06-22T05:29:20Z</time>
   </trkpt>
   <trkpt lat="-3.0952520" lon="37.3326280">
    <ele>4024.8</ele>
    <time>2026-06-22T05:29:21Z</time>
   </trkpt>
   <trkpt lat="-3.0952500" lon="37.3326300">
    <ele>4024.9</ele>
    <time>2026-06-22T05:29:22Z</time>
   </trkpt>
   <trkpt lat="-3.0952470" lon="37.3326310">
    <ele>4024.9</ele>
    <time>2026-06-22T05:29:23Z</time>
   </trkpt>
   <trkpt lat="-3.0952440" lon="37.3326320">
    <ele>4025.0</ele>
    <time>2026-06-22T05:29:24Z</time>
   </trkpt>
   <trkpt lat="-3.0952430" lon="37.3326340">
    <ele>4025.0</ele>
    <time>2026-06-22T05:29:25Z</time>
   </trkpt>
   <trkpt lat="-3.0952410" lon="37.3326370">
    <ele>4025.1</ele>
    <time>2026-06-22T05:29:26Z</time>
   </trkpt>
   <trkpt lat="-3.0952400" lon="37.3326380">
    <ele>4025.1</ele>
    <time>2026-06-22T05:29:27Z</time>
   </trkpt>
   <trkpt lat="-3.0952400" lon="37.3326390">
    <ele>4025.1</ele>
    <time>2026-06-22T05:29:28Z</time>
   </trkpt>
   <trkpt lat="-3.0952400" lon="37.3326390">
    <ele>4025.1</ele>
    <time>2026-06-22T05:29:29Z</time>
   </trkpt>
   <trkpt lat="-3.0952400" lon="37.3326390">
    <ele>4025.1</ele>
    <time>2026-06-22T05:29:30Z</time>
   </trkpt>
   <trkpt lat="-3.0952370" lon="37.3326300">
    <ele>4025.3</ele>
    <time>2026-06-22T05:29:31Z</time>
   </trkpt>
   <trkpt lat="-3.0952370" lon="37.3326360">
    <ele>4025.4</ele>
    <time>2026-06-22T05:29:32Z</time>
   </trkpt>
   <trkpt lat="-3.0952340" lon="37.3326350">
    <ele>4025.4</ele>
    <time>2026-06-22T05:29:33Z</time>
   </trkpt>
   <trkpt lat="-3.0952330" lon="37.3326350">
    <ele>4025.4</ele>
    <time>2026-06-22T05:29:34Z</time>
   </trkpt>
   <trkpt lat="-3.0952430" lon="37.3326470">
    <ele>4025.7</ele>
    <time>2026-06-22T05:29:35Z</time>
   </trkpt>
   <trkpt lat="-3.0952400" lon="37.3326430">
    <ele>4025.8</ele>
    <time>2026-06-22T05:29:36Z</time>
   </trkpt>
   <trkpt lat="-3.0952350" lon="37.3326490">
    <ele>4025.9</ele>
    <time>2026-06-22T05:29:37Z</time>
   </trkpt>
   <trkpt lat="-3.0952370" lon="37.3326440">
    <ele>4026.0</ele>
    <time>2026-06-22T05:29:38Z</time>
   </trkpt>
   <trkpt lat="-3.0952360" lon="37.3326480">
    <ele>4026.0</ele>
    <time>2026-06-22T05:29:39Z</time>
   </trkpt>
   <trkpt lat="-3.0952370" lon="37.3326470">
    <ele>4026.1</ele>
    <time>2026-06-22T05:29:40Z</time>
   </trkpt>
   <trkpt lat="-3.0952330" lon="37.3326480">
    <ele>4026.1</ele>
    <time>2026-06-22T05:29:41Z</time>
   </trkpt>
   <trkpt lat="-3.0952350" lon="37.3326490">
    <ele>4026.2</ele>
    <time>2026-06-22T05:29:42Z</time>
   </trkpt>
   <trkpt lat="-3.0952350" lon="37.3326550">
    <ele>4026.3</ele>
    <time>2026-06-22T05:29:43Z</time>
   </trkpt>
   <trkpt lat="-3.0952350" lon="37.3326560">
    <ele>4026.3</ele>
    <time>2026-06-22T05:29:44Z</time>
   </trkpt>
   <trkpt lat="-3.0952370" lon="37.3326570">
    <ele>4026.3</ele>
    <time>2026-06-22T05:29:45Z</time>
   </trkpt>
   <trkpt lat="-3.0952370" lon="37.3326580">
    <ele>4026.3</ele>
    <time>2026-06-22T05:29:46Z</time>
   </trkpt>
   <trkpt lat="-3.0952390" lon="37.3326670">
    <ele>4026.5</ele>
    <time>2026-06-22T05:29:47Z</time>
   </trkpt>
   <trkpt lat="-3.0952410" lon="37.3326610">
    <ele>4026.6</ele>
    <time>2026-06-22T05:29:48Z</time>
   </trkpt>
   <trkpt lat="-3.0952460" lon="37.3326580">
    <ele>4026.7</ele>
    <time>2026-06-22T05:29:49Z</time>
   </trkpt>
   <trkpt lat="-3.0952490" lon="37.3326560">
    <ele>4026.8</ele>
    <time>2026-06-22T05:29:50Z</time>
   </trkpt>
   <trkpt lat="-3.0952490" lon="37.3326580">
    <ele>4026.8</ele>
    <time>2026-06-22T05:29:51Z</time>
   </trkpt>
   <trkpt lat="-3.0952530" lon="37.3326630">
    <ele>4026.9</ele>
    <time>2026-06-22T05:29:52Z</time>
   </trkpt>
   <trkpt lat="-3.0952630" lon="37.3326790">
    <ele>4027.2</ele>
    <time>2026-06-22T05:29:53Z</time>
   </trkpt>
   <trkpt lat="-3.0952580" lon="37.3326610">
    <ele>4027.5</ele>
    <time>2026-06-22T05:29:54Z</time>
   </trkpt>
   <trkpt lat="-3.0952640" lon="37.3326660">
    <ele>4027.6</ele>
    <time>2026-06-22T05:29:55Z</time>
   </trkpt>
   <trkpt lat="-3.0952640" lon="37.3326640">
    <ele>4027.7</ele>
    <time>2026-06-22T05:29:56Z</time>
   </trkpt>
   <trkpt lat="-3.0952660" lon="37.3326600">
    <ele>4027.7</ele>
    <time>2026-06-22T05:29:57Z</time>
   </trkpt>
   <trkpt lat="-3.0952680" lon="37.3326590">
    <ele>4027.8</ele>
    <time>2026-06-22T05:29:58Z</time>
   </trkpt>
   <trkpt lat="-3.0952690" lon="37.3326580">
    <ele>4027.8</ele>
    <time>2026-06-22T05:29:59Z</time>
   </trkpt>
   <trkpt lat="-3.0952740" lon="37.3326630">
    <ele>4027.9</ele>
    <time>2026-06-22T05:30:00Z</time>
   </trkpt>
   <trkpt lat="-3.0952710" lon="37.3326580">
    <ele>4028.0</ele>
    <time>2026-06-22T05:30:01Z</time>
   </trkpt>
   <trkpt lat="-3.0952720" lon="37.3326550">
    <ele>4028.1</ele>
    <time>2026-06-22T05:30:02Z</time>
   </trkpt>
   <trkpt lat="-3.0952720" lon="37.3326510">
    <ele>4028.1</ele>
    <time>2026-06-22T05:30:03Z</time>
   </trkpt>
   <trkpt lat="-3.0952730" lon="37.3326510">
    <ele>4028.2</ele>
    <time>2026-06-22T05:30:04Z</time>
   </trkpt>
   <trkpt lat="-3.0952720" lon="37.3326500">
    <ele>4028.2</ele>
    <time>2026-06-22T05:30:05Z</time>
   </trkpt>
   <trkpt lat="-3.0952740" lon="37.3326500">
    <ele>4028.2</ele>
    <time>2026-06-22T05:30:06Z</time>
   </trkpt>
   <trkpt lat="-3.0952740" lon="37.3326490">
    <ele>4028.2</ele>
    <time>2026-06-22T05:30:07Z</time>
   </trkpt>
   <trkpt lat="-3.0952740" lon="37.3326490">
    <ele>4028.2</ele>
    <time>2026-06-22T05:30:08Z</time>
   </trkpt>
   <trkpt lat="-3.0952790" lon="37.3326510">
    <ele>4028.3</ele>
    <time>2026-06-22T05:30:09Z</time>
   </trkpt>
   <trkpt lat="-3.0952820" lon="37.3326490">
    <ele>4028.4</ele>
    <time>2026-06-22T05:30:11Z</time>
   </trkpt>
   <trkpt lat="-3.0952830" lon="37.3326470">
    <ele>4028.4</ele>
    <time>2026-06-22T05:30:12Z</time>
   </trkpt>
   <trkpt lat="-3.0952870" lon="37.3326480">
    <ele>4028.5</ele>
    <time>2026-06-22T05:30:13Z</time>
   </trkpt>
   <trkpt lat="-3.0952880" lon="37.3326470">
    <ele>4028.5</ele>
    <time>2026-06-22T05:30:14Z</time>
   </trkpt>
   <trkpt lat="-3.0952900" lon="37.3326440">
    <ele>4028.6</ele>
    <time>2026-06-22T05:30:15Z</time>
   </trkpt>
   <trkpt lat="-3.0952910" lon="37.3326430">
    <ele>4028.6</ele>
    <time>2026-06-22T05:30:16Z</time>
   </trkpt>
   <trkpt lat="-3.0952900" lon="37.3326410">
    <ele>4028.7</ele>
    <time>2026-06-22T05:30:17Z</time>
   </trkpt>
   <trkpt lat="-3.0952980" lon="37.3326410">
    <ele>4028.8</ele>
    <time>2026-06-22T05:30:18Z</time>
   </trkpt>
   <trkpt lat="-3.0952990" lon="37.3326370">
    <ele>4028.9</ele>
    <time>2026-06-22T05:30:19Z</time>
   </trkpt>
   <trkpt lat="-3.0952980" lon="37.3326360">
    <ele>4028.9</ele>
    <time>2026-06-22T05:30:20Z</time>
   </trkpt>
   <trkpt lat="-3.0952990" lon="37.3326340">
    <ele>4028.9</ele>
    <time>2026-06-22T05:30:21Z</time>
   </trkpt>
   <trkpt lat="-3.0953000" lon="37.3326340">
    <ele>4028.9</ele>
    <time>2026-06-22T05:30:22Z</time>
   </trkpt>
   <trkpt lat="-3.0953000" lon="37.3326330">
    <ele>4029.0</ele>
    <time>2026-06-22T05:30:23Z</time>
   </trkpt>
   <trkpt lat="-3.0953020" lon="37.3326320">
    <ele>4029.0</ele>
    <time>2026-06-22T05:30:24Z</time>
   </trkpt>
   <trkpt lat="-3.0953010" lon="37.3326330">
    <ele>4029.0</ele>
    <time>2026-06-22T05:30:25Z</time>
   </trkpt>
   <trkpt lat="-3.0953000" lon="37.3326330">
    <ele>4029.0</ele>
    <time>2026-06-22T05:30:26Z</time>
   </trkpt>
   <trkpt lat="-3.0953000" lon="37.3326330">
    <ele>4029.0</ele>
    <time>2026-06-22T05:30:27Z</time>
   </trkpt>
   <trkpt lat="-3.0953000" lon="37.3326330">
    <ele>4029.0</ele>
    <time>2026-06-22T05:30:28Z</time>
   </trkpt>
   <trkpt lat="-3.0953000" lon="37.3326330">
    <ele>4029.0</ele>
    <time>2026-06-22T05:30:29Z</time>
   </trkpt>
   <trkpt lat="-3.0953000" lon="37.3326330">
    <ele>4029.0</ele>
    <time>2026-06-22T05:30:30Z</time>
   </trkpt>
   <trkpt lat="-3.0953000" lon="37.3326330">
    <ele>4029.0</ele>
    <time>2026-06-22T05:30:31Z</time>
   </trkpt>
   <trkpt lat="-3.0953000" lon="37.3326330">
    <ele>4029.0</ele>
    <time>2026-06-22T05:30:32Z</time>
   </trkpt>
   <trkpt lat="-3.0953020" lon="37.3326350">
    <ele>4029.1</ele>
    <time>2026-06-22T05:30:33Z</time>
   </trkpt>
   <trkpt lat="-3.0953070" lon="37.3326350">
    <ele>4029.2</ele>
    <time>2026-06-22T05:30:34Z</time>
   </trkpt>
   <trkpt lat="-3.0953080" lon="37.3326340">
    <ele>4029.2</ele>
    <time>2026-06-22T05:30:35Z</time>
   </trkpt>
   <trkpt lat="-3.0953120" lon="37.3326350">
    <ele>4029.3</ele>
    <time>2026-06-22T05:30:36Z</time>
   </trkpt>
   <trkpt lat="-3.0953150" lon="37.3326340">
    <ele>4029.3</ele>
    <time>2026-06-22T05:30:37Z</time>
   </trkpt>
   <trkpt lat="-3.0953140" lon="37.3326330">
    <ele>4029.4</ele>
    <time>2026-06-22T05:30:38Z</time>
   </trkpt>
   <trkpt lat="-3.0953140" lon="37.3326330">
    <ele>4029.4</ele>
    <time>2026-06-22T05:30:39Z</time>
   </trkpt>
   <trkpt lat="-3.0953140" lon="37.3326330">
    <ele>4029.4</ele>
    <time>2026-06-22T05:30:40Z</time>
   </trkpt>
   <trkpt lat="-3.0953130" lon="37.3326320">
    <ele>4029.4</ele>
    <time>2026-06-22T05:30:41Z</time>
   </trkpt>
   <trkpt lat="-3.0953140" lon="37.3326320">
    <ele>4029.4</ele>
    <time>2026-06-22T05:30:42Z</time>
   </trkpt>
   <trkpt lat="-3.0953160" lon="37.3326310">
    <ele>4029.4</ele>
    <time>2026-06-22T05:30:43Z</time>
   </trkpt>
   <trkpt lat="-3.0953170" lon="37.3326300">
    <ele>4029.5</ele>
    <time>2026-06-22T05:30:44Z</time>
   </trkpt>
   <trkpt lat="-3.0953160" lon="37.3326290">
    <ele>4029.5</ele>
    <time>2026-06-22T05:30:45Z</time>
   </trkpt>
   <trkpt lat="-3.0953190" lon="37.3326290">
    <ele>4029.5</ele>
    <time>2026-06-22T05:30:46Z</time>
   </trkpt>
   <trkpt lat="-3.0953180" lon="37.3326240">
    <ele>4029.6</ele>
    <time>2026-06-22T05:30:47Z</time>
   </trkpt>
   <trkpt lat="-3.0953210" lon="37.3326260">
    <ele>4029.7</ele>
    <time>2026-06-22T05:30:48Z</time>
   </trkpt>
   <trkpt lat="-3.0953260" lon="37.3326240">
    <ele>4029.8</ele>
    <time>2026-06-22T05:30:49Z</time>
   </trkpt>
   <trkpt lat="-3.0953300" lon="37.3326170">
    <ele>4029.9</ele>
    <time>2026-06-22T05:30:50Z</time>
   </trkpt>
   <trkpt lat="-3.0953320" lon="37.3326190">
    <ele>4030.0</ele>
    <time>2026-06-22T05:30:51Z</time>
   </trkpt>
   <trkpt lat="-3.0953290" lon="37.3326180">
    <ele>4030.1</ele>
    <time>2026-06-22T05:30:52Z</time>
   </trkpt>
   <trkpt lat="-3.0953300" lon="37.3326150">
    <ele>4030.1</ele>
    <time>2026-06-22T05:30:53Z</time>
   </trkpt>
   <trkpt lat="-3.0953280" lon="37.3326130">
    <ele>4030.2</ele>
    <time>2026-06-22T05:30:54Z</time>
   </trkpt>
   <trkpt lat="-3.0953290" lon="37.3326130">
    <ele>4030.2</ele>
    <time>2026-06-22T05:30:55Z</time>
   </trkpt>
   <trkpt lat="-3.0953270" lon="37.3326110">
    <ele>4030.2</ele>
    <time>2026-06-22T05:30:56Z</time>
   </trkpt>
   <trkpt lat="-3.0953310" lon="37.3326110">
    <ele>4030.3</ele>
    <time>2026-06-22T05:30:57Z</time>
   </trkpt>
   <trkpt lat="-3.0953290" lon="37.3326090">
    <ele>4030.4</ele>
    <time>2026-06-22T05:30:58Z</time>
   </trkpt>
   <trkpt lat="-3.0953310" lon="37.3326070">
    <ele>4030.4</ele>
    <time>2026-06-22T05:30:59Z</time>
   </trkpt>
   <trkpt lat="-3.0953380" lon="37.3326030">
    <ele>4030.6</ele>
    <time>2026-06-22T05:31:00Z</time>
   </trkpt>
   <trkpt lat="-3.0953450" lon="37.3326070">
    <ele>4030.7</ele>
    <time>2026-06-22T05:31:01Z</time>
   </trkpt>
   <trkpt lat="-3.0953580" lon="37.3325940">
    <ele>4031.1</ele>
    <time>2026-06-22T05:31:02Z</time>
   </trkpt>
   <trkpt lat="-3.0953590" lon="37.3325970">
    <ele>4031.1</ele>
    <time>2026-06-22T05:31:03Z</time>
   </trkpt>
   <trkpt lat="-3.0953610" lon="37.3325920">
    <ele>4031.2</ele>
    <time>2026-06-22T05:31:04Z</time>
   </trkpt>
   <trkpt lat="-3.0953610" lon="37.3325900">
    <ele>4031.3</ele>
    <time>2026-06-22T05:31:05Z</time>
   </trkpt>
   <trkpt lat="-3.0953640" lon="37.3325930">
    <ele>4031.4</ele>
    <time>2026-06-22T05:31:06Z</time>
   </trkpt>
   <trkpt lat="-3.0953710" lon="37.3325870">
    <ele>4031.5</ele>
    <time>2026-06-22T05:31:07Z</time>
   </trkpt>
   <trkpt lat="-3.0953750" lon="37.3325920">
    <ele>4031.7</ele>
    <time>2026-06-22T05:31:08Z</time>
   </trkpt>
   <trkpt lat="-3.0953800" lon="37.3325900">
    <ele>4031.8</ele>
    <time>2026-06-22T05:31:09Z</time>
   </trkpt>
   <trkpt lat="-3.0953870" lon="37.3325860">
    <ele>4031.9</ele>
    <time>2026-06-22T05:31:10Z</time>
   </trkpt>
   <trkpt lat="-3.0953920" lon="37.3325850">
    <ele>4032.0</ele>
    <time>2026-06-22T05:31:11Z</time>
   </trkpt>
   <trkpt lat="-3.0953950" lon="37.3325850">
    <ele>4032.1</ele>
    <time>2026-06-22T05:31:12Z</time>
   </trkpt>
   <trkpt lat="-3.0953940" lon="37.3325860">
    <ele>4032.1</ele>
    <time>2026-06-22T05:31:13Z</time>
   </trkpt>
   <trkpt lat="-3.0953940" lon="37.3325840">
    <ele>4032.1</ele>
    <time>2026-06-22T05:31:14Z</time>
   </trkpt>
   <trkpt lat="-3.0953940" lon="37.3325850">
    <ele>4032.2</ele>
    <time>2026-06-22T05:31:15Z</time>
   </trkpt>
   <trkpt lat="-3.0953940" lon="37.3325850">
    <ele>4032.2</ele>
    <time>2026-06-22T05:31:16Z</time>
   </trkpt>
   <trkpt lat="-3.0953940" lon="37.3325840">
    <ele>4032.2</ele>
    <time>2026-06-22T05:31:17Z</time>
   </trkpt>
   <trkpt lat="-3.0953950" lon="37.3325840">
    <ele>4032.2</ele>
    <time>2026-06-22T05:31:18Z</time>
   </trkpt>
   <trkpt lat="-3.0953950" lon="37.3325860">
    <ele>4032.2</ele>
    <time>2026-06-22T05:31:19Z</time>
   </trkpt>
   <trkpt lat="-3.0953950" lon="37.3325910">
    <ele>4032.3</ele>
    <time>2026-06-22T05:31:20Z</time>
   </trkpt>
   <trkpt lat="-3.0953970" lon="37.3325890">
    <ele>4032.4</ele>
    <time>2026-06-22T05:31:21Z</time>
   </trkpt>
   <trkpt lat="-3.0953940" lon="37.3325920">
    <ele>4032.5</ele>
    <time>2026-06-22T05:31:22Z</time>
   </trkpt>
   <trkpt lat="-3.0953920" lon="37.3325970">
    <ele>4032.6</ele>
    <time>2026-06-22T05:31:23Z</time>
   </trkpt>
   <trkpt lat="-3.0953910" lon="37.3325990">
    <ele>4032.6</ele>
    <time>2026-06-22T05:31:24Z</time>
   </trkpt>
   <trkpt lat="-3.0953890" lon="37.3326010">
    <ele>4032.7</ele>
    <time>2026-06-22T05:31:25Z</time>
   </trkpt>
   <trkpt lat="-3.0953910" lon="37.3326010">
    <ele>4032.7</ele>
    <time>2026-06-22T05:31:26Z</time>
   </trkpt>
   <trkpt lat="-3.0953910" lon="37.3326020">
    <ele>4032.7</ele>
    <time>2026-06-22T05:31:27Z</time>
   </trkpt>
   <trkpt lat="-3.0953900" lon="37.3326020">
    <ele>4032.7</ele>
    <time>2026-06-22T05:31:28Z</time>
   </trkpt>
   <trkpt lat="-3.0953910" lon="37.3326020">
    <ele>4032.7</ele>
    <time>2026-06-22T05:31:29Z</time>
   </trkpt>
   <trkpt lat="-3.0953910" lon="37.3326020">
    <ele>4032.7</ele>
    <time>2026-06-22T05:31:30Z</time>
   </trkpt>
   <trkpt lat="-3.0953950" lon="37.3326030">
    <ele>4032.8</ele>
    <time>2026-06-22T05:31:31Z</time>
   </trkpt>
   <trkpt lat="-3.0953960" lon="37.3326080">
    <ele>4032.9</ele>
    <time>2026-06-22T05:31:32Z</time>
   </trkpt>
   <trkpt lat="-3.0953970" lon="37.3326110">
    <ele>4033.0</ele>
    <time>2026-06-22T05:31:33Z</time>
   </trkpt>
   <trkpt lat="-3.0953960" lon="37.3326110">
    <ele>4033.0</ele>
    <time>2026-06-22T05:31:34Z</time>
   </trkpt>
   <trkpt lat="-3.0953940" lon="37.3326110">
    <ele>4033.0</ele>
    <time>2026-06-22T05:31:35Z</time>
   </trkpt>
   <trkpt lat="-3.0953940" lon="37.3326110">
    <ele>4033.0</ele>
    <time>2026-06-22T05:31:36Z</time>
   </trkpt>
   <trkpt lat="-3.0953940" lon="37.3326110">
    <ele>4033.0</ele>
    <time>2026-06-22T05:31:37Z</time>
   </trkpt>
   <trkpt lat="-3.0953940" lon="37.3326110">
    <ele>4033.0</ele>
    <time>2026-06-22T05:31:38Z</time>
   </trkpt>
   <trkpt lat="-3.0953950" lon="37.3326080">
    <ele>4033.1</ele>
    <time>2026-06-22T05:31:39Z</time>
   </trkpt>
   <trkpt lat="-3.0953950" lon="37.3326080">
    <ele>4033.1</ele>
    <time>2026-06-22T05:31:40Z</time>
   </trkpt>
   <trkpt lat="-3.0953950" lon="37.3326080">
    <ele>4033.1</ele>
    <time>2026-06-22T05:31:41Z</time>
   </trkpt>
   <trkpt lat="-3.0953950" lon="37.3326080">
    <ele>4033.1</ele>
    <time>2026-06-22T05:31:42Z</time>
   </trkpt>
   <trkpt lat="-3.0953950" lon="37.3326090">
    <ele>4033.1</ele>
    <time>2026-06-22T05:31:43Z</time>
   </trkpt>
   <trkpt lat="-3.0953990" lon="37.3326090">
    <ele>4033.2</ele>
    <time>2026-06-22T05:31:44Z</time>
   </trkpt>
   <trkpt lat="-3.0953980" lon="37.3326110">
    <ele>4033.2</ele>
    <time>2026-06-22T05:31:45Z</time>
   </trkpt>
   <trkpt lat="-3.0953980" lon="37.3326130">
    <ele>4033.3</ele>
    <time>2026-06-22T05:31:46Z</time>
   </trkpt>
   <trkpt lat="-3.0954010" lon="37.3326130">
    <ele>4033.3</ele>
    <time>2026-06-22T05:31:47Z</time>
   </trkpt>
   <trkpt lat="-3.0953990" lon="37.3326180">
    <ele>4033.4</ele>
    <time>2026-06-22T05:31:48Z</time>
   </trkpt>
   <trkpt lat="-3.0953980" lon="37.3326180">
    <ele>4033.5</ele>
    <time>2026-06-22T05:31:49Z</time>
   </trkpt>
   <trkpt lat="-3.0953940" lon="37.3326190">
    <ele>4033.5</ele>
    <time>2026-06-22T05:31:50Z</time>
   </trkpt>
   <trkpt lat="-3.0953880" lon="37.3326190">
    <ele>4033.7</ele>
    <time>2026-06-22T05:31:51Z</time>
   </trkpt>
   <trkpt lat="-3.0953810" lon="37.3326210">
    <ele>4033.8</ele>
    <time>2026-06-22T05:31:52Z</time>
   </trkpt>
   <trkpt lat="-3.0953740" lon="37.3326240">
    <ele>4033.9</ele>
    <time>2026-06-22T05:31:53Z</time>
   </trkpt>
   <trkpt lat="-3.0953700" lon="37.3326230">
    <ele>4034.0</ele>
    <time>2026-06-22T05:31:54Z</time>
   </trkpt>
   <trkpt lat="-3.0953710" lon="37.3326290">
    <ele>4034.1</ele>
    <time>2026-06-22T05:31:55Z</time>
   </trkpt>
   <trkpt lat="-3.0953760" lon="37.3326360">
    <ele>4034.3</ele>
    <time>2026-06-22T05:31:56Z</time>
   </trkpt>
   <trkpt lat="-3.0953780" lon="37.3326360">
    <ele>4034.4</ele>
    <time>2026-06-22T05:31:57Z</time>
   </trkpt>
   <trkpt lat="-3.0953760" lon="37.3326370">
    <ele>4034.4</ele>
    <time>2026-06-22T05:31:58Z</time>
   </trkpt>
   <trkpt lat="-3.0953780" lon="37.3326400">
    <ele>4034.5</ele>
    <time>2026-06-22T05:31:59Z</time>
   </trkpt>
   <trkpt lat="-3.0953790" lon="37.3326400">
    <ele>4034.5</ele>
    <time>2026-06-22T05:32:00Z</time>
   </trkpt>
   <trkpt lat="-3.0953790" lon="37.3326430">
    <ele>4034.6</ele>
    <time>2026-06-22T05:32:01Z</time>
   </trkpt>
   <trkpt lat="-3.0953840" lon="37.3326420">
    <ele>4034.7</ele>
    <time>2026-06-22T05:32:02Z</time>
   </trkpt>
   <trkpt lat="-3.0953840" lon="37.3326450">
    <ele>4034.7</ele>
    <time>2026-06-22T05:32:03Z</time>
   </trkpt>
   <trkpt lat="-3.0953850" lon="37.3326460">
    <ele>4034.7</ele>
    <time>2026-06-22T05:32:04Z</time>
   </trkpt>
   <trkpt lat="-3.0953820" lon="37.3326460">
    <ele>4034.8</ele>
    <time>2026-06-22T05:32:05Z</time>
   </trkpt>
   <trkpt lat="-3.0953840" lon="37.3326460">
    <ele>4034.8</ele>
    <time>2026-06-22T05:32:06Z</time>
   </trkpt>
   <trkpt lat="-3.0953840" lon="37.3326460">
    <ele>4034.8</ele>
    <time>2026-06-22T05:32:07Z</time>
   </trkpt>
   <trkpt lat="-3.0953850" lon="37.3326490">
    <ele>4034.9</ele>
    <time>2026-06-22T05:32:08Z</time>
   </trkpt>
   <trkpt lat="-3.0953850" lon="37.3326510">
    <ele>4034.9</ele>
    <time>2026-06-22T05:32:09Z</time>
   </trkpt>
   <trkpt lat="-3.0953790" lon="37.3326570">
    <ele>4035.1</ele>
    <time>2026-06-22T05:32:10Z</time>
   </trkpt>
   <trkpt lat="-3.0953810" lon="37.3326620">
    <ele>4035.2</ele>
    <time>2026-06-22T05:32:11Z</time>
   </trkpt>
   <trkpt lat="-3.0953830" lon="37.3326600">
    <ele>4035.3</ele>
    <time>2026-06-22T05:32:12Z</time>
   </trkpt>
   <trkpt lat="-3.0953820" lon="37.3326580">
    <ele>4035.3</ele>
    <time>2026-06-22T05:32:13Z</time>
   </trkpt>
   <trkpt lat="-3.0953800" lon="37.3326590">
    <ele>4035.4</ele>
    <time>2026-06-22T05:32:14Z</time>
   </trkpt>
   <trkpt lat="-3.0953800" lon="37.3326590">
    <ele>4035.4</ele>
    <time>2026-06-22T05:32:15Z</time>
   </trkpt>
   <trkpt lat="-3.0953660" lon="37.3326560">
    <ele>4035.6</ele>
    <time>2026-06-22T05:32:17Z</time>
   </trkpt>
   <trkpt lat="-3.0953730" lon="37.3326580">
    <ele>4035.8</ele>
    <time>2026-06-22T05:32:18Z</time>
   </trkpt>
   <trkpt lat="-3.0953710" lon="37.3326570">
    <ele>4035.8</ele>
    <time>2026-06-22T05:32:19Z</time>
   </trkpt>
   <trkpt lat="-3.0953700" lon="37.3326570">
    <ele>4035.8</ele>
    <time>2026-06-22T05:32:20Z</time>
   </trkpt>
   <trkpt lat="-3.0953700" lon="37.3326570">
    <ele>4035.8</ele>
    <time>2026-06-22T05:32:21Z</time>
   </trkpt>
   <trkpt lat="-3.0953700" lon="37.3326560">
    <ele>4035.9</ele>
    <time>2026-06-22T05:32:22Z</time>
   </trkpt>
   <trkpt lat="-3.0953700" lon="37.3326560">
    <ele>4035.9</ele>
    <time>2026-06-22T05:32:23Z</time>
   </trkpt>
   <trkpt lat="-3.0953710" lon="37.3326560">
    <ele>4035.9</ele>
    <time>2026-06-22T05:32:24Z</time>
   </trkpt>
   <trkpt lat="-3.0953680" lon="37.3326560">
    <ele>4035.9</ele>
    <time>2026-06-22T05:32:25Z</time>
   </trkpt>
   <trkpt lat="-3.0953680" lon="37.3326570">
    <ele>4036.0</ele>
    <time>2026-06-22T05:32:26Z</time>
   </trkpt>
   <trkpt lat="-3.0953680" lon="37.3326560">
    <ele>4036.0</ele>
    <time>2026-06-22T05:32:27Z</time>
   </trkpt>
   <trkpt lat="-3.0953660" lon="37.3326570">
    <ele>4036.0</ele>
    <time>2026-06-22T05:32:28Z</time>
   </trkpt>
   <trkpt lat="-3.0953670" lon="37.3326570">
    <ele>4036.0</ele>
    <time>2026-06-22T05:32:29Z</time>
   </trkpt>
   <trkpt lat="-3.0953660" lon="37.3326570">
    <ele>4036.1</ele>
    <time>2026-06-22T05:32:30Z</time>
   </trkpt>
   <trkpt lat="-3.0953660" lon="37.3326570">
    <ele>4036.1</ele>
    <time>2026-06-22T05:32:31Z</time>
   </trkpt>
   <trkpt lat="-3.0953660" lon="37.3326580">
    <ele>4036.1</ele>
    <time>2026-06-22T05:32:32Z</time>
   </trkpt>
   <trkpt lat="-3.0953660" lon="37.3326600">
    <ele>4036.1</ele>
    <time>2026-06-22T05:32:33Z</time>
   </trkpt>
   <trkpt lat="-3.0953660" lon="37.3326600">
    <ele>4036.1</ele>
    <time>2026-06-22T05:32:34Z</time>
   </trkpt>
   <trkpt lat="-3.0953630" lon="37.3326590">
    <ele>4036.2</ele>
    <time>2026-06-22T05:32:35Z</time>
   </trkpt>
   <trkpt lat="-3.0953640" lon="37.3326590">
    <ele>4036.2</ele>
    <time>2026-06-22T05:32:36Z</time>
   </trkpt>
   <trkpt lat="-3.0953660" lon="37.3326620">
    <ele>4036.3</ele>
    <time>2026-06-22T05:32:37Z</time>
   </trkpt>
   <trkpt lat="-3.0953620" lon="37.3326620">
    <ele>4036.4</ele>
    <time>2026-06-22T05:32:38Z</time>
   </trkpt>
   <trkpt lat="-3.0953610" lon="37.3326650">
    <ele>4036.4</ele>
    <time>2026-06-22T05:32:39Z</time>
   </trkpt>
   <trkpt lat="-3.0953580" lon="37.3326660">
    <ele>4036.5</ele>
    <time>2026-06-22T05:32:40Z</time>
   </trkpt>
   <trkpt lat="-3.0953600" lon="37.3326740">
    <ele>4036.6</ele>
    <time>2026-06-22T05:32:41Z</time>
   </trkpt>
   <trkpt lat="-3.0953620" lon="37.3326760">
    <ele>4036.7</ele>
    <time>2026-06-22T05:32:42Z</time>
   </trkpt>
   <trkpt lat="-3.0953590" lon="37.3326770">
    <ele>4036.8</ele>
    <time>2026-06-22T05:32:43Z</time>
   </trkpt>
   <trkpt lat="-3.0953590" lon="37.3326780">
    <ele>4036.8</ele>
    <time>2026-06-22T05:32:44Z</time>
   </trkpt>
   <trkpt lat="-3.0953600" lon="37.3326800">
    <ele>4036.8</ele>
    <time>2026-06-22T05:32:45Z</time>
   </trkpt>
   <trkpt lat="-3.0953590" lon="37.3326890">
    <ele>4037.0</ele>
    <time>2026-06-22T05:32:46Z</time>
   </trkpt>
   <trkpt lat="-3.0953630" lon="37.3326920">
    <ele>4037.1</ele>
    <time>2026-06-22T05:32:47Z</time>
   </trkpt>
   <trkpt lat="-3.0953650" lon="37.3326960">
    <ele>4037.2</ele>
    <time>2026-06-22T05:32:48Z</time>
   </trkpt>
   <trkpt lat="-3.0953690" lon="37.3326980">
    <ele>4037.3</ele>
    <time>2026-06-22T05:32:49Z</time>
   </trkpt>
   <trkpt lat="-3.0953730" lon="37.3326970">
    <ele>4037.4</ele>
    <time>2026-06-22T05:32:50Z</time>
   </trkpt>
   <trkpt lat="-3.0953740" lon="37.3327010">
    <ele>4037.4</ele>
    <time>2026-06-22T05:32:51Z</time>
   </trkpt>
   <trkpt lat="-3.0953750" lon="37.3326990">
    <ele>4037.5</ele>
    <time>2026-06-22T05:32:52Z</time>
   </trkpt>
   <trkpt lat="-3.0953740" lon="37.3327040">
    <ele>4037.6</ele>
    <time>2026-06-22T05:32:53Z</time>
   </trkpt>
   <trkpt lat="-3.0953740" lon="37.3327080">
    <ele>4037.7</ele>
    <time>2026-06-22T05:32:54Z</time>
   </trkpt>
   <trkpt lat="-3.0953740" lon="37.3327080">
    <ele>4037.7</ele>
    <time>2026-06-22T05:32:55Z</time>
   </trkpt>
   <trkpt lat="-3.0953770" lon="37.3327090">
    <ele>4037.7</ele>
    <time>2026-06-22T05:32:56Z</time>
   </trkpt>
   <trkpt lat="-3.0953780" lon="37.3327070">
    <ele>4037.8</ele>
    <time>2026-06-22T05:32:57Z</time>
   </trkpt>
   <trkpt lat="-3.0953820" lon="37.3327130">
    <ele>4037.9</ele>
    <time>2026-06-22T05:32:58Z</time>
   </trkpt>
   <trkpt lat="-3.0953910" lon="37.3327090">
    <ele>4038.1</ele>
    <time>2026-06-22T05:32:59Z</time>
   </trkpt>
   <trkpt lat="-3.0953940" lon="37.3327100">
    <ele>4038.2</ele>
    <time>2026-06-22T05:33:00Z</time>
   </trkpt>
   <trkpt lat="-3.0953990" lon="37.3327100">
    <ele>4038.3</ele>
    <time>2026-06-22T05:33:01Z</time>
   </trkpt>
   <trkpt lat="-3.0954040" lon="37.3327080">
    <ele>4038.4</ele>
    <time>2026-06-22T05:33:02Z</time>
   </trkpt>
   <trkpt lat="-3.0954050" lon="37.3327070">
    <ele>4038.4</ele>
    <time>2026-06-22T05:33:03Z</time>
   </trkpt>
   <trkpt lat="-3.0954110" lon="37.3327050">
    <ele>4038.5</ele>
    <time>2026-06-22T05:33:04Z</time>
   </trkpt>
   <trkpt lat="-3.0954140" lon="37.3327040">
    <ele>4038.6</ele>
    <time>2026-06-22T05:33:05Z</time>
   </trkpt>
   <trkpt lat="-3.0954170" lon="37.3327060">
    <ele>4038.7</ele>
    <time>2026-06-22T05:33:06Z</time>
   </trkpt>
   <trkpt lat="-3.0954170" lon="37.3327070">
    <ele>4038.7</ele>
    <time>2026-06-22T05:33:07Z</time>
   </trkpt>
   <trkpt lat="-3.0954210" lon="37.3327050">
    <ele>4038.8</ele>
    <time>2026-06-22T05:33:08Z</time>
   </trkpt>
   <trkpt lat="-3.0954230" lon="37.3327040">
    <ele>4038.8</ele>
    <time>2026-06-22T05:33:09Z</time>
   </trkpt>
   <trkpt lat="-3.0954240" lon="37.3327030">
    <ele>4038.8</ele>
    <time>2026-06-22T05:33:10Z</time>
   </trkpt>
   <trkpt lat="-3.0954260" lon="37.3327020">
    <ele>4038.9</ele>
    <time>2026-06-22T05:33:11Z</time>
   </trkpt>
   <trkpt lat="-3.0954280" lon="37.3327020">
    <ele>4038.9</ele>
    <time>2026-06-22T05:33:12Z</time>
   </trkpt>
   <trkpt lat="-3.0954300" lon="37.3327000">
    <ele>4039.0</ele>
    <time>2026-06-22T05:33:13Z</time>
   </trkpt>
   <trkpt lat="-3.0954340" lon="37.3326980">
    <ele>4039.1</ele>
    <time>2026-06-22T05:33:14Z</time>
   </trkpt>
   <trkpt lat="-3.0954370" lon="37.3326960">
    <ele>4039.1</ele>
    <time>2026-06-22T05:33:15Z</time>
   </trkpt>
   <trkpt lat="-3.0954410" lon="37.3326960">
    <ele>4039.2</ele>
    <time>2026-06-22T05:33:16Z</time>
   </trkpt>
   <trkpt lat="-3.0954440" lon="37.3326960">
    <ele>4039.3</ele>
    <time>2026-06-22T05:33:17Z</time>
   </trkpt>
   <trkpt lat="-3.0954440" lon="37.3327010">
    <ele>4039.4</ele>
    <time>2026-06-22T05:33:18Z</time>
   </trkpt>
   <trkpt lat="-3.0954440" lon="37.3327060">
    <ele>4039.5</ele>
    <time>2026-06-22T05:33:19Z</time>
   </trkpt>
   <trkpt lat="-3.0954460" lon="37.3327080">
    <ele>4039.5</ele>
    <time>2026-06-22T05:33:20Z</time>
   </trkpt>
   <trkpt lat="-3.0954460" lon="37.3327070">
    <ele>4039.6</ele>
    <time>2026-06-22T05:33:21Z</time>
   </trkpt>
   <trkpt lat="-3.0954450" lon="37.3327170">
    <ele>4039.7</ele>
    <time>2026-06-22T05:33:22Z</time>
   </trkpt>
   <trkpt lat="-3.0954450" lon="37.3327190">
    <ele>4039.8</ele>
    <time>2026-06-22T05:33:23Z</time>
   </trkpt>
   <trkpt lat="-3.0954500" lon="37.3327240">
    <ele>4039.9</ele>
    <time>2026-06-22T05:33:24Z</time>
   </trkpt>
   <trkpt lat="-3.0954510" lon="37.3327250">
    <ele>4040.0</ele>
    <time>2026-06-22T05:33:25Z</time>
   </trkpt>
   <trkpt lat="-3.0954520" lon="37.3327240">
    <ele>4040.0</ele>
    <time>2026-06-22T05:33:26Z</time>
   </trkpt>
   <trkpt lat="-3.0954520" lon="37.3327250">
    <ele>4040.0</ele>
    <time>2026-06-22T05:33:27Z</time>
   </trkpt>
   <trkpt lat="-3.0954530" lon="37.3327260">
    <ele>4040.0</ele>
    <time>2026-06-22T05:33:28Z</time>
   </trkpt>
   <trkpt lat="-3.0954560" lon="37.3327250">
    <ele>4040.1</ele>
    <time>2026-06-22T05:33:29Z</time>
   </trkpt>
   <trkpt lat="-3.0954560" lon="37.3327280">
    <ele>4040.2</ele>
    <time>2026-06-22T05:33:30Z</time>
   </trkpt>
   <trkpt lat="-3.0954530" lon="37.3327410">
    <ele>4040.4</ele>
    <time>2026-06-22T05:33:31Z</time>
   </trkpt>
   <trkpt lat="-3.0954580" lon="37.3327320">
    <ele>4040.6</ele>
    <time>2026-06-22T05:33:32Z</time>
   </trkpt>
   <trkpt lat="-3.0954590" lon="37.3327310">
    <ele>4040.6</ele>
    <time>2026-06-22T05:33:33Z</time>
   </trkpt>
   <trkpt lat="-3.0954610" lon="37.3327340">
    <ele>4040.7</ele>
    <time>2026-06-22T05:33:34Z</time>
   </trkpt>
   <trkpt lat="-3.0954620" lon="37.3327320">
    <ele>4040.8</ele>
    <time>2026-06-22T05:33:35Z</time>
   </trkpt>
   <trkpt lat="-3.0954620" lon="37.3327320">
    <ele>4040.8</ele>
    <time>2026-06-22T05:33:36Z</time>
   </trkpt>
   <trkpt lat="-3.0954620" lon="37.3327330">
    <ele>4040.8</ele>
    <time>2026-06-22T05:33:37Z</time>
   </trkpt>
   <trkpt lat="-3.0954610" lon="37.3327320">
    <ele>4040.8</ele>
    <time>2026-06-22T05:33:38Z</time>
   </trkpt>
   <trkpt lat="-3.0954610" lon="37.3327320">
    <ele>4040.8</ele>
    <time>2026-06-22T05:33:39Z</time>
   </trkpt>
   <trkpt lat="-3.0954610" lon="37.3327320">
    <ele>4040.8</ele>
    <time>2026-06-22T05:33:40Z</time>
   </trkpt>
   <trkpt lat="-3.0954600" lon="37.3327320">
    <ele>4040.8</ele>
    <time>2026-06-22T05:33:41Z</time>
   </trkpt>
   <trkpt lat="-3.0954600" lon="37.3327320">
    <ele>4040.8</ele>
    <time>2026-06-22T05:33:42Z</time>
   </trkpt>
   <trkpt lat="-3.0954600" lon="37.3327320">
    <ele>4040.8</ele>
    <time>2026-06-22T05:33:43Z</time>
   </trkpt>
   <trkpt lat="-3.0954610" lon="37.3327310">
    <ele>4040.9</ele>
    <time>2026-06-22T05:33:44Z</time>
   </trkpt>
   <trkpt lat="-3.0954620" lon="37.3327310">
    <ele>4040.9</ele>
    <time>2026-06-22T05:33:45Z</time>
   </trkpt>
   <trkpt lat="-3.0954620" lon="37.3327310">
    <ele>4040.9</ele>
    <time>2026-06-22T05:33:46Z</time>
   </trkpt>
   <trkpt lat="-3.0954620" lon="37.3327290">
    <ele>4040.9</ele>
    <time>2026-06-22T05:33:47Z</time>
   </trkpt>
   <trkpt lat="-3.0954620" lon="37.3327290">
    <ele>4040.9</ele>
    <time>2026-06-22T05:33:48Z</time>
   </trkpt>
   <trkpt lat="-3.0954620" lon="37.3327260">
    <ele>4041.0</ele>
    <time>2026-06-22T05:33:49Z</time>
   </trkpt>
   <trkpt lat="-3.0954620" lon="37.3327260">
    <ele>4041.0</ele>
    <time>2026-06-22T05:33:50Z</time>
   </trkpt>
   <trkpt lat="-3.0954630" lon="37.3327260">
    <ele>4041.0</ele>
    <time>2026-06-22T05:33:51Z</time>
   </trkpt>
   <trkpt lat="-3.0954640" lon="37.3327260">
    <ele>4041.0</ele>
    <time>2026-06-22T05:33:52Z</time>
   </trkpt>
   <trkpt lat="-3.0954640" lon="37.3327270">
    <ele>4041.0</ele>
    <time>2026-06-22T05:33:53Z</time>
   </trkpt>
   <trkpt lat="-3.0954640" lon="37.3327270">
    <ele>4041.0</ele>
    <time>2026-06-22T05:33:54Z</time>
   </trkpt>
   <trkpt lat="-3.0954640" lon="37.3327270">
    <ele>4041.0</ele>
    <time>2026-06-22T05:33:55Z</time>
   </trkpt>
   <trkpt lat="-3.0954680" lon="37.3327250">
    <ele>4041.1</ele>
    <time>2026-06-22T05:33:56Z</time>
   </trkpt>
   <trkpt lat="-3.0954680" lon="37.3327250">
    <ele>4041.1</ele>
    <time>2026-06-22T05:33:57Z</time>
   </trkpt>
   <trkpt lat="-3.0954680" lon="37.3327250">
    <ele>4041.1</ele>
    <time>2026-06-22T05:33:58Z</time>
   </trkpt>
   <trkpt lat="-3.0954680" lon="37.3327250">
    <ele>4041.1</ele>
    <time>2026-06-22T05:33:59Z</time>
   </trkpt>
   <trkpt lat="-3.0954680" lon="37.3327250">
    <ele>4041.1</ele>
    <time>2026-06-22T05:34:00Z</time>
   </trkpt>
   <trkpt lat="-3.0954700" lon="37.3327240">
    <ele>4041.2</ele>
    <time>2026-06-22T05:34:01Z</time>
   </trkpt>
   <trkpt lat="-3.0954700" lon="37.3327240">
    <ele>4041.2</ele>
    <time>2026-06-22T05:34:02Z</time>
   </trkpt>
   <trkpt lat="-3.0954690" lon="37.3327240">
    <ele>4041.2</ele>
    <time>2026-06-22T05:34:03Z</time>
   </trkpt>
   <trkpt lat="-3.0954690" lon="37.3327240">
    <ele>4041.2</ele>
    <time>2026-06-22T05:34:04Z</time>
   </trkpt>
   <trkpt lat="-3.0954680" lon="37.3327230">
    <ele>4041.2</ele>
    <time>2026-06-22T05:34:05Z</time>
   </trkpt>
   <trkpt lat="-3.0954710" lon="37.3327220">
    <ele>4041.3</ele>
    <time>2026-06-22T05:34:06Z</time>
   </trkpt>
   <trkpt lat="-3.0954720" lon="37.3327170">
    <ele>4041.4</ele>
    <time>2026-06-22T05:34:07Z</time>
   </trkpt>
   <trkpt lat="-3.0954710" lon="37.3327170">
    <ele>4041.4</ele>
    <time>2026-06-22T05:34:08Z</time>
   </trkpt>
   <trkpt lat="-3.0954740" lon="37.3327160">
    <ele>4041.5</ele>
    <time>2026-06-22T05:34:09Z</time>
   </trkpt>
   <trkpt lat="-3.0954740" lon="37.3327110">
    <ele>4041.6</ele>
    <time>2026-06-22T05:34:10Z</time>
   </trkpt>
   <trkpt lat="-3.0954880" lon="37.3327100">
    <ele>4041.8</ele>
    <time>2026-06-22T05:34:11Z</time>
   </trkpt>
   <trkpt lat="-3.0954990" lon="37.3327080">
    <ele>4042.1</ele>
    <time>2026-06-22T05:34:12Z</time>
   </trkpt>
   <trkpt lat="-3.0954890" lon="37.3327060">
    <ele>4042.3</ele>
    <time>2026-06-22T05:34:13Z</time>
   </trkpt>
   <trkpt lat="-3.0954850" lon="37.3327050">
    <ele>4042.3</ele>
    <time>2026-06-22T05:34:14Z</time>
   </trkpt>
   <trkpt lat="-3.0954860" lon="37.3327070">
    <ele>4042.4</ele>
    <time>2026-06-22T05:34:15Z</time>
   </trkpt>
   <trkpt lat="-3.0954850" lon="37.3327060">
    <ele>4042.4</ele>
    <time>2026-06-22T05:34:16Z</time>
   </trkpt>
   <trkpt lat="-3.0954830" lon="37.3327060">
    <ele>4042.4</ele>
    <time>2026-06-22T05:34:17Z</time>
   </trkpt>
   <trkpt lat="-3.0954820" lon="37.3327080">
    <ele>4042.5</ele>
    <time>2026-06-22T05:34:18Z</time>
   </trkpt>
   <trkpt lat="-3.0954800" lon="37.3327080">
    <ele>4042.5</ele>
    <time>2026-06-22T05:34:19Z</time>
   </trkpt>
   <trkpt lat="-3.0954790" lon="37.3327080">
    <ele>4042.5</ele>
    <time>2026-06-22T05:34:20Z</time>
   </trkpt>
   <trkpt lat="-3.0954780" lon="37.3327100">
    <ele>4042.6</ele>
    <time>2026-06-22T05:34:21Z</time>
   </trkpt>
   <trkpt lat="-3.0954770" lon="37.3327110">
    <ele>4042.6</ele>
    <time>2026-06-22T05:34:23Z</time>
   </trkpt>
   <trkpt lat="-3.0954760" lon="37.3327110">
    <ele>4042.6</ele>
    <time>2026-06-22T05:34:24Z</time>
   </trkpt>
   <trkpt lat="-3.0954760" lon="37.3327110">
    <ele>4042.6</ele>
    <time>2026-06-22T05:34:25Z</time>
   </trkpt>
   <trkpt lat="-3.0954760" lon="37.3327110">
    <ele>4042.6</ele>
    <time>2026-06-22T05:34:26Z</time>
   </trkpt>
   <trkpt lat="-3.0954740" lon="37.3327160">
    <ele>4042.8</ele>
    <time>2026-06-22T05:34:27Z</time>
   </trkpt>
   <trkpt lat="-3.0954730" lon="37.3327170">
    <ele>4042.8</ele>
    <time>2026-06-22T05:34:28Z</time>
   </trkpt>
   <trkpt lat="-3.0954730" lon="37.3327180">
    <ele>4042.8</ele>
    <time>2026-06-22T05:34:29Z</time>
   </trkpt>
   <trkpt lat="-3.0954730" lon="37.3327170">
    <ele>4042.8</ele>
    <time>2026-06-22T05:34:30Z</time>
   </trkpt>
   <trkpt lat="-3.0954720" lon="37.3327180">
    <ele>4042.9</ele>
    <time>2026-06-22T05:34:31Z</time>
   </trkpt>
   <trkpt lat="-3.0954720" lon="37.3327180">
    <ele>4042.9</ele>
    <time>2026-06-22T05:34:32Z</time>
   </trkpt>
   <trkpt lat="-3.0954720" lon="37.3327180">
    <ele>4042.9</ele>
    <time>2026-06-22T05:34:33Z</time>
   </trkpt>
   <trkpt lat="-3.0954720" lon="37.3327180">
    <ele>4042.9</ele>
    <time>2026-06-22T05:34:34Z</time>
   </trkpt>
   <trkpt lat="-3.0954720" lon="37.3327180">
    <ele>4042.9</ele>
    <time>2026-06-22T05:34:35Z</time>
   </trkpt>
   <trkpt lat="-3.0954690" lon="37.3327210">
    <ele>4042.9</ele>
    <time>2026-06-22T05:34:36Z</time>
   </trkpt>
   <trkpt lat="-3.0954700" lon="37.3327210">
    <ele>4043.0</ele>
    <time>2026-06-22T05:34:37Z</time>
   </trkpt>
   <trkpt lat="-3.0954720" lon="37.3327240">
    <ele>4043.0</ele>
    <time>2026-06-22T05:34:38Z</time>
   </trkpt>
   <trkpt lat="-3.0954690" lon="37.3327240">
    <ele>4043.1</ele>
    <time>2026-06-22T05:34:39Z</time>
   </trkpt>
   <trkpt lat="-3.0954720" lon="37.3327260">
    <ele>4043.2</ele>
    <time>2026-06-22T05:34:40Z</time>
   </trkpt>
   <trkpt lat="-3.0954700" lon="37.3327240">
    <ele>4043.2</ele>
    <time>2026-06-22T05:34:41Z</time>
   </trkpt>
   <trkpt lat="-3.0954690" lon="37.3327250">
    <ele>4043.3</ele>
    <time>2026-06-22T05:34:42Z</time>
   </trkpt>
   <trkpt lat="-3.0954740" lon="37.3327230">
    <ele>4043.4</ele>
    <time>2026-06-22T05:34:43Z</time>
   </trkpt>
   <trkpt lat="-3.0954750" lon="37.3327220">
    <ele>4043.4</ele>
    <time>2026-06-22T05:34:44Z</time>
   </trkpt>
   <trkpt lat="-3.0954740" lon="37.3327230">
    <ele>4043.4</ele>
    <time>2026-06-22T05:34:45Z</time>
   </trkpt>
   <trkpt lat="-3.0954770" lon="37.3327210">
    <ele>4043.5</ele>
    <time>2026-06-22T05:34:46Z</time>
   </trkpt>
   <trkpt lat="-3.0954780" lon="37.3327210">
    <ele>4043.5</ele>
    <time>2026-06-22T05:34:47Z</time>
   </trkpt>
   <trkpt lat="-3.0954770" lon="37.3327230">
    <ele>4043.6</ele>
    <time>2026-06-22T05:34:48Z</time>
   </trkpt>
   <trkpt lat="-3.0954810" lon="37.3327200">
    <ele>4043.7</ele>
    <time>2026-06-22T05:34:49Z</time>
   </trkpt>
   <trkpt lat="-3.0954770" lon="37.3327200">
    <ele>4043.8</ele>
    <time>2026-06-22T05:34:50Z</time>
   </trkpt>
   <trkpt lat="-3.0954770" lon="37.3327200">
    <ele>4043.8</ele>
    <time>2026-06-22T05:34:51Z</time>
   </trkpt>
   <trkpt lat="-3.0954770" lon="37.3327200">
    <ele>4043.8</ele>
    <time>2026-06-22T05:34:52Z</time>
   </trkpt>
   <trkpt lat="-3.0954780" lon="37.3327190">
    <ele>4043.8</ele>
    <time>2026-06-22T05:34:53Z</time>
   </trkpt>
   <trkpt lat="-3.0954780" lon="37.3327190">
    <ele>4043.8</ele>
    <time>2026-06-22T05:34:54Z</time>
   </trkpt>
   <trkpt lat="-3.0954780" lon="37.3327190">
    <ele>4043.8</ele>
    <time>2026-06-22T05:34:55Z</time>
   </trkpt>
   <trkpt lat="-3.0954780" lon="37.3327180">
    <ele>4043.8</ele>
    <time>2026-06-22T05:34:56Z</time>
   </trkpt>
   <trkpt lat="-3.0954770" lon="37.3327180">
    <ele>4043.8</ele>
    <time>2026-06-22T05:34:57Z</time>
   </trkpt>
   <trkpt lat="-3.0954770" lon="37.3327180">
    <ele>4043.8</ele>
    <time>2026-06-22T05:34:58Z</time>
   </trkpt>
   <trkpt lat="-3.0954770" lon="37.3327180">
    <ele>4043.8</ele>
    <time>2026-06-22T05:34:59Z</time>
   </trkpt>
   <trkpt lat="-3.0954800" lon="37.3327170">
    <ele>4043.9</ele>
    <time>2026-06-22T05:35:00Z</time>
   </trkpt>
   <trkpt lat="-3.0954830" lon="37.3327160">
    <ele>4044.0</ele>
    <time>2026-06-22T05:35:01Z</time>
   </trkpt>
   <trkpt lat="-3.0954820" lon="37.3327170">
    <ele>4044.0</ele>
    <time>2026-06-22T05:35:02Z</time>
   </trkpt>
   <trkpt lat="-3.0954830" lon="37.3327180">
    <ele>4044.0</ele>
    <time>2026-06-22T05:35:03Z</time>
   </trkpt>
   <trkpt lat="-3.0954830" lon="37.3327180">
    <ele>4044.0</ele>
    <time>2026-06-22T05:35:04Z</time>
   </trkpt>
   <trkpt lat="-3.0954830" lon="37.3327170">
    <ele>4044.1</ele>
    <time>2026-06-22T05:35:05Z</time>
   </trkpt>
   <trkpt lat="-3.0954840" lon="37.3327170">
    <ele>4044.1</ele>
    <time>2026-06-22T05:35:06Z</time>
   </trkpt>
   <trkpt lat="-3.0954830" lon="37.3327170">
    <ele>4044.1</ele>
    <time>2026-06-22T05:35:07Z</time>
   </trkpt>
   <trkpt lat="-3.0954820" lon="37.3327170">
    <ele>4044.1</ele>
    <time>2026-06-22T05:35:08Z</time>
   </trkpt>
   <trkpt lat="-3.0954840" lon="37.3327170">
    <ele>4044.2</ele>
    <time>2026-06-22T05:35:09Z</time>
   </trkpt>
   <trkpt lat="-3.0954860" lon="37.3327160">
    <ele>4044.2</ele>
    <time>2026-06-22T05:35:10Z</time>
   </trkpt>
   <trkpt lat="-3.0954850" lon="37.3327160">
    <ele>4044.2</ele>
    <time>2026-06-22T05:35:11Z</time>
   </trkpt>
   <trkpt lat="-3.0954860" lon="37.3327160">
    <ele>4044.3</ele>
    <time>2026-06-22T05:35:12Z</time>
   </trkpt>
   <trkpt lat="-3.0954860" lon="37.3327170">
    <ele>4044.3</ele>
    <time>2026-06-22T05:35:13Z</time>
   </trkpt>
   <trkpt lat="-3.0954870" lon="37.3327180">
    <ele>4044.3</ele>
    <time>2026-06-22T05:35:14Z</time>
   </trkpt>
   <trkpt lat="-3.0954880" lon="37.3327210">
    <ele>4044.4</ele>
    <time>2026-06-22T05:35:15Z</time>
   </trkpt>
   <trkpt lat="-3.0954880" lon="37.3327230">
    <ele>4044.4</ele>
    <time>2026-06-22T05:35:16Z</time>
   </trkpt>
   <trkpt lat="-3.0954860" lon="37.3327260">
    <ele>4044.5</ele>
    <time>2026-06-22T05:35:17Z</time>
   </trkpt>
   <trkpt lat="-3.0954840" lon="37.3327260">
    <ele>4044.5</ele>
    <time>2026-06-22T05:35:18Z</time>
   </trkpt>
   <trkpt lat="-3.0954830" lon="37.3327330">
    <ele>4044.7</ele>
    <time>2026-06-22T05:35:19Z</time>
   </trkpt>
   <trkpt lat="-3.0954800" lon="37.3327330">
    <ele>4044.7</ele>
    <time>2026-06-22T05:35:20Z</time>
   </trkpt>
   <trkpt lat="-3.0954820" lon="37.3327340">
    <ele>4044.8</ele>
    <time>2026-06-22T05:35:21Z</time>
   </trkpt>
   <trkpt lat="-3.0954830" lon="37.3327380">
    <ele>4044.9</ele>
    <time>2026-06-22T05:35:22Z</time>
   </trkpt>
   <trkpt lat="-3.0954840" lon="37.3327430">
    <ele>4045.0</ele>
    <time>2026-06-22T05:35:23Z</time>
   </trkpt>
   <trkpt lat="-3.0954840" lon="37.3327420">
    <ele>4045.0</ele>
    <time>2026-06-22T05:35:24Z</time>
   </trkpt>
   <trkpt lat="-3.0954840" lon="37.3327420">
    <ele>4045.0</ele>
    <time>2026-06-22T05:35:25Z</time>
   </trkpt>
   <trkpt lat="-3.0954820" lon="37.3327410">
    <ele>4045.1</ele>
    <time>2026-06-22T05:35:26Z</time>
   </trkpt>
   <trkpt lat="-3.0954830" lon="37.3327420">
    <ele>4045.1</ele>
    <time>2026-06-22T05:35:27Z</time>
   </trkpt>
   <trkpt lat="-3.0954850" lon="37.3327480">
    <ele>4045.2</ele>
    <time>2026-06-22T05:35:28Z</time>
   </trkpt>
   <trkpt lat="-3.0954820" lon="37.3327450">
    <ele>4045.3</ele>
    <time>2026-06-22T05:35:29Z</time>
   </trkpt>
   <trkpt lat="-3.0954790" lon="37.3327510">
    <ele>4045.4</ele>
    <time>2026-06-22T05:35:30Z</time>
   </trkpt>
   <trkpt lat="-3.0954770" lon="37.3327530">
    <ele>4045.5</ele>
    <time>2026-06-22T05:35:31Z</time>
   </trkpt>
   <trkpt lat="-3.0954760" lon="37.3327560">
    <ele>4045.6</ele>
    <time>2026-06-22T05:35:32Z</time>
   </trkpt>
   <trkpt lat="-3.0954740" lon="37.3327550">
    <ele>4045.6</ele>
    <time>2026-06-22T05:35:33Z</time>
   </trkpt>
   <trkpt lat="-3.0954720" lon="37.3327560">
    <ele>4045.7</ele>
    <time>2026-06-22T05:35:34Z</time>
   </trkpt>
   <trkpt lat="-3.0954740" lon="37.3327570">
    <ele>4045.7</ele>
    <time>2026-06-22T05:35:35Z</time>
   </trkpt>
   <trkpt lat="-3.0954720" lon="37.3327570">
    <ele>4045.8</ele>
    <time>2026-06-22T05:35:36Z</time>
   </trkpt>
   <trkpt lat="-3.0954720" lon="37.3327600">
    <ele>4045.8</ele>
    <time>2026-06-22T05:35:37Z</time>
   </trkpt>
   <trkpt lat="-3.0954700" lon="37.3327630">
    <ele>4045.9</ele>
    <time>2026-06-22T05:35:38Z</time>
   </trkpt>
   <trkpt lat="-3.0954670" lon="37.3327630">
    <ele>4046.0</ele>
    <time>2026-06-22T05:35:39Z</time>
   </trkpt>
   <trkpt lat="-3.0954620" lon="37.3327690">
    <ele>4046.1</ele>
    <time>2026-06-22T05:35:40Z</time>
   </trkpt>
   <trkpt lat="-3.0954600" lon="37.3327730">
    <ele>4046.2</ele>
    <time>2026-06-22T05:35:41Z</time>
   </trkpt>
   <trkpt lat="-3.0954590" lon="37.3327720">
    <ele>4046.2</ele>
    <time>2026-06-22T05:35:42Z</time>
   </trkpt>
   <trkpt lat="-3.0954600" lon="37.3327760">
    <ele>4046.3</ele>
    <time>2026-06-22T05:35:43Z</time>
   </trkpt>
   <trkpt lat="-3.0954600" lon="37.3327770">
    <ele>4046.4</ele>
    <time>2026-06-22T05:35:44Z</time>
   </trkpt>
   <trkpt lat="-3.0954610" lon="37.3327810">
    <ele>4046.4</ele>
    <time>2026-06-22T05:35:45Z</time>
   </trkpt>
   <trkpt lat="-3.0954610" lon="37.3327860">
    <ele>4046.5</ele>
    <time>2026-06-22T05:35:46Z</time>
   </trkpt>
   <trkpt lat="-3.0954620" lon="37.3327890">
    <ele>4046.6</ele>
    <time>2026-06-22T05:35:47Z</time>
   </trkpt>
   <trkpt lat="-3.0954610" lon="37.3327920">
    <ele>4046.7</ele>
    <time>2026-06-22T05:35:48Z</time>
   </trkpt>
   <trkpt lat="-3.0954570" lon="37.3327880">
    <ele>4046.8</ele>
    <time>2026-06-22T05:35:49Z</time>
   </trkpt>
   <trkpt lat="-3.0954590" lon="37.3327940">
    <ele>4046.9</ele>
    <time>2026-06-22T05:35:50Z</time>
   </trkpt>
   <trkpt lat="-3.0954530" lon="37.3327960">
    <ele>4047.1</ele>
    <time>2026-06-22T05:35:51Z</time>
   </trkpt>
   <trkpt lat="-3.0954510" lon="37.3327950">
    <ele>4047.1</ele>
    <time>2026-06-22T05:35:52Z</time>
   </trkpt>
   <trkpt lat="-3.0954480" lon="37.3327930">
    <ele>4047.2</ele>
    <time>2026-06-22T05:35:53Z</time>
   </trkpt>
   <trkpt lat="-3.0954460" lon="37.3327950">
    <ele>4047.3</ele>
    <time>2026-06-22T05:35:54Z</time>
   </trkpt>
   <trkpt lat="-3.0954460" lon="37.3327930">
    <ele>4047.3</ele>
    <time>2026-06-22T05:35:55Z</time>
   </trkpt>
   <trkpt lat="-3.0954440" lon="37.3327980">
    <ele>4047.4</ele>
    <time>2026-06-22T05:35:56Z</time>
   </trkpt>
   <trkpt lat="-3.0954460" lon="37.3328010">
    <ele>4047.5</ele>
    <time>2026-06-22T05:35:57Z</time>
   </trkpt>
   <trkpt lat="-3.0954450" lon="37.3328000">
    <ele>4047.5</ele>
    <time>2026-06-22T05:35:58Z</time>
   </trkpt>
   <trkpt lat="-3.0954460" lon="37.3328040">
    <ele>4047.6</ele>
    <time>2026-06-22T05:35:59Z</time>
   </trkpt>
   <trkpt lat="-3.0954460" lon="37.3328070">
    <ele>4047.7</ele>
    <time>2026-06-22T05:36:00Z</time>
   </trkpt>
   <trkpt lat="-3.0954480" lon="37.3328090">
    <ele>4047.7</ele>
    <time>2026-06-22T05:36:01Z</time>
   </trkpt>
   <trkpt lat="-3.0954480" lon="37.3328100">
    <ele>4047.7</ele>
    <time>2026-06-22T05:36:02Z</time>
   </trkpt>
   <trkpt lat="-3.0954480" lon="37.3328140">
    <ele>4047.8</ele>
    <time>2026-06-22T05:36:03Z</time>
   </trkpt>
   <trkpt lat="-3.0954470" lon="37.3328140">
    <ele>4047.8</ele>
    <time>2026-06-22T05:36:04Z</time>
   </trkpt>
   <trkpt lat="-3.0954440" lon="37.3328180">
    <ele>4048.0</ele>
    <time>2026-06-22T05:36:05Z</time>
   </trkpt>
   <trkpt lat="-3.0954440" lon="37.3328180">
    <ele>4048.0</ele>
    <time>2026-06-22T05:36:06Z</time>
   </trkpt>
   <trkpt lat="-3.0954410" lon="37.3328220">
    <ele>4048.1</ele>
    <time>2026-06-22T05:36:07Z</time>
   </trkpt>
   <trkpt lat="-3.0954410" lon="37.3328270">
    <ele>4048.2</ele>
    <time>2026-06-22T05:36:08Z</time>
   </trkpt>
   <trkpt lat="-3.0954390" lon="37.3328320">
    <ele>4048.3</ele>
    <time>2026-06-22T05:36:09Z</time>
   </trkpt>
   <trkpt lat="-3.0954400" lon="37.3328350">
    <ele>4048.3</ele>
    <time>2026-06-22T05:36:10Z</time>
   </trkpt>
   <trkpt lat="-3.0954410" lon="37.3328330">
    <ele>4048.4</ele>
    <time>2026-06-22T05:36:11Z</time>
   </trkpt>
   <trkpt lat="-3.0954410" lon="37.3328340">
    <ele>4048.4</ele>
    <time>2026-06-22T05:36:12Z</time>
   </trkpt>
   <trkpt lat="-3.0954550" lon="37.3328380">
    <ele>4048.7</ele>
    <time>2026-06-22T05:36:13Z</time>
   </trkpt>
   <trkpt lat="-3.0954510" lon="37.3328440">
    <ele>4048.9</ele>
    <time>2026-06-22T05:36:14Z</time>
   </trkpt>
   <trkpt lat="-3.0954490" lon="37.3328390">
    <ele>4049.0</ele>
    <time>2026-06-22T05:36:15Z</time>
   </trkpt>
   <trkpt lat="-3.0954540" lon="37.3328410">
    <ele>4049.1</ele>
    <time>2026-06-22T05:36:16Z</time>
   </trkpt>
   <trkpt lat="-3.0954550" lon="37.3328390">
    <ele>4049.1</ele>
    <time>2026-06-22T05:36:17Z</time>
   </trkpt>
   <trkpt lat="-3.0954570" lon="37.3328420">
    <ele>4049.2</ele>
    <time>2026-06-22T05:36:18Z</time>
   </trkpt>
   <trkpt lat="-3.0954600" lon="37.3328470">
    <ele>4049.3</ele>
    <time>2026-06-22T05:36:19Z</time>
   </trkpt>
   <trkpt lat="-3.0954620" lon="37.3328480">
    <ele>4049.4</ele>
    <time>2026-06-22T05:36:20Z</time>
   </trkpt>
   <trkpt lat="-3.0954610" lon="37.3328480">
    <ele>4049.4</ele>
    <time>2026-06-22T05:36:21Z</time>
   </trkpt>
   <trkpt lat="-3.0954630" lon="37.3328490">
    <ele>4049.5</ele>
    <time>2026-06-22T05:36:22Z</time>
   </trkpt>
   <trkpt lat="-3.0954660" lon="37.3328500">
    <ele>4049.5</ele>
    <time>2026-06-22T05:36:23Z</time>
   </trkpt>
   <trkpt lat="-3.0954690" lon="37.3328500">
    <ele>4049.6</ele>
    <time>2026-06-22T05:36:24Z</time>
   </trkpt>
   <trkpt lat="-3.0954700" lon="37.3328530">
    <ele>4049.7</ele>
    <time>2026-06-22T05:36:25Z</time>
   </trkpt>
   <trkpt lat="-3.0954720" lon="37.3328530">
    <ele>4049.7</ele>
    <time>2026-06-22T05:36:26Z</time>
   </trkpt>
   <trkpt lat="-3.0954720" lon="37.3328550">
    <ele>4049.7</ele>
    <time>2026-06-22T05:36:27Z</time>
   </trkpt>
   <trkpt lat="-3.0954700" lon="37.3328570">
    <ele>4049.8</ele>
    <time>2026-06-22T05:36:29Z</time>
   </trkpt>
   <trkpt lat="-3.0954750" lon="37.3328610">
    <ele>4049.9</ele>
    <time>2026-06-22T05:36:30Z</time>
   </trkpt>
   <trkpt lat="-3.0954800" lon="37.3328590">
    <ele>4050.0</ele>
    <time>2026-06-22T05:36:31Z</time>
   </trkpt>
   <trkpt lat="-3.0954770" lon="37.3328610">
    <ele>4050.1</ele>
    <time>2026-06-22T05:36:32Z</time>
   </trkpt>
   <trkpt lat="-3.0954720" lon="37.3328610">
    <ele>4050.2</ele>
    <time>2026-06-22T05:36:33Z</time>
   </trkpt>
   <trkpt lat="-3.0954720" lon="37.3328640">
    <ele>4050.3</ele>
    <time>2026-06-22T05:36:34Z</time>
   </trkpt>
   <trkpt lat="-3.0954740" lon="37.3328680">
    <ele>4050.4</ele>
    <time>2026-06-22T05:36:35Z</time>
   </trkpt>
   <trkpt lat="-3.0954770" lon="37.3328730">
    <ele>4050.5</ele>
    <time>2026-06-22T05:36:36Z</time>
   </trkpt>
   <trkpt lat="-3.0954770" lon="37.3328740">
    <ele>4050.5</ele>
    <time>2026-06-22T05:36:37Z</time>
   </trkpt>
   <trkpt lat="-3.0954830" lon="37.3328750">
    <ele>4050.7</ele>
    <time>2026-06-22T05:36:38Z</time>
   </trkpt>
   <trkpt lat="-3.0954930" lon="37.3328760">
    <ele>4050.9</ele>
    <time>2026-06-22T05:36:39Z</time>
   </trkpt>
   <trkpt lat="-3.0954980" lon="37.3328800">
    <ele>4051.0</ele>
    <time>2026-06-22T05:36:40Z</time>
   </trkpt>
   <trkpt lat="-3.0955030" lon="37.3328810">
    <ele>4051.1</ele>
    <time>2026-06-22T05:36:41Z</time>
   </trkpt>
   <trkpt lat="-3.0955040" lon="37.3328810">
    <ele>4051.1</ele>
    <time>2026-06-22T05:36:42Z</time>
   </trkpt>
   <trkpt lat="-3.0955090" lon="37.3328840">
    <ele>4051.3</ele>
    <time>2026-06-22T05:36:43Z</time>
   </trkpt>
   <trkpt lat="-3.0955140" lon="37.3328850">
    <ele>4051.4</ele>
    <time>2026-06-22T05:36:44Z</time>
   </trkpt>
   <trkpt lat="-3.0955180" lon="37.3328860">
    <ele>4051.5</ele>
    <time>2026-06-22T05:36:45Z</time>
   </trkpt>
   <trkpt lat="-3.0955210" lon="37.3328880">
    <ele>4051.5</ele>
    <time>2026-06-22T05:36:46Z</time>
   </trkpt>
   <trkpt lat="-3.0955250" lon="37.3328910">
    <ele>4051.6</ele>
    <time>2026-06-22T05:36:47Z</time>
   </trkpt>
   <trkpt lat="-3.0955240" lon="37.3328910">
    <ele>4051.7</ele>
    <time>2026-06-22T05:36:48Z</time>
   </trkpt>
   <trkpt lat="-3.0955300" lon="37.3328910">
    <ele>4051.8</ele>
    <time>2026-06-22T05:36:49Z</time>
   </trkpt>
   <trkpt lat="-3.0955320" lon="37.3328910">
    <ele>4051.8</ele>
    <time>2026-06-22T05:36:50Z</time>
   </trkpt>
   <trkpt lat="-3.0955430" lon="37.3328910">
    <ele>4052.1</ele>
    <time>2026-06-22T05:36:51Z</time>
   </trkpt>
   <trkpt lat="-3.0955380" lon="37.3328990">
    <ele>4052.3</ele>
    <time>2026-06-22T05:36:52Z</time>
   </trkpt>
   <trkpt lat="-3.0955400" lon="37.3329090">
    <ele>4052.5</ele>
    <time>2026-06-22T05:36:53Z</time>
   </trkpt>
   <trkpt lat="-3.0955450" lon="37.3329160">
    <ele>4052.7</ele>
    <time>2026-06-22T05:36:54Z</time>
   </trkpt>
   <trkpt lat="-3.0955530" lon="37.3329180">
    <ele>4052.8</ele>
    <time>2026-06-22T05:36:55Z</time>
   </trkpt>
   <trkpt lat="-3.0955530" lon="37.3329200">
    <ele>4052.9</ele>
    <time>2026-06-22T05:36:56Z</time>
   </trkpt>
   <trkpt lat="-3.0955550" lon="37.3329230">
    <ele>4053.0</ele>
    <time>2026-06-22T05:36:57Z</time>
   </trkpt>
   <trkpt lat="-3.0955570" lon="37.3329260">
    <ele>4053.0</ele>
    <time>2026-06-22T05:36:58Z</time>
   </trkpt>
   <trkpt lat="-3.0955570" lon="37.3329260">
    <ele>4053.0</ele>
    <time>2026-06-22T05:36:59Z</time>
   </trkpt>
   <trkpt lat="-3.0955560" lon="37.3329250">
    <ele>4053.1</ele>
    <time>2026-06-22T05:37:00Z</time>
   </trkpt>
   <trkpt lat="-3.0955560" lon="37.3329260">
    <ele>4053.1</ele>
    <time>2026-06-22T05:37:01Z</time>
   </trkpt>
   <trkpt lat="-3.0955570" lon="37.3329250">
    <ele>4053.1</ele>
    <time>2026-06-22T05:37:02Z</time>
   </trkpt>
   <trkpt lat="-3.0955590" lon="37.3329340">
    <ele>4053.3</ele>
    <time>2026-06-22T05:37:03Z</time>
   </trkpt>
   <trkpt lat="-3.0955610" lon="37.3329380">
    <ele>4053.4</ele>
    <time>2026-06-22T05:37:04Z</time>
   </trkpt>
   <trkpt lat="-3.0955640" lon="37.3329390">
    <ele>4053.5</ele>
    <time>2026-06-22T05:37:05Z</time>
   </trkpt>
   <trkpt lat="-3.0955660" lon="37.3329410">
    <ele>4053.6</ele>
    <time>2026-06-22T05:37:06Z</time>
   </trkpt>
   <trkpt lat="-3.0955660" lon="37.3329410">
    <ele>4053.6</ele>
    <time>2026-06-22T05:37:07Z</time>
   </trkpt>
   <trkpt lat="-3.0955640" lon="37.3329460">
    <ele>4053.7</ele>
    <time>2026-06-22T05:37:08Z</time>
   </trkpt>
   <trkpt lat="-3.0955630" lon="37.3329490">
    <ele>4053.8</ele>
    <time>2026-06-22T05:37:09Z</time>
   </trkpt>
   <trkpt lat="-3.0955600" lon="37.3329480">
    <ele>4053.8</ele>
    <time>2026-06-22T05:37:10Z</time>
   </trkpt>
   <trkpt lat="-3.0955570" lon="37.3329520">
    <ele>4053.9</ele>
    <time>2026-06-22T05:37:11Z</time>
   </trkpt>
   <trkpt lat="-3.0955570" lon="37.3329540">
    <ele>4054.0</ele>
    <time>2026-06-22T05:37:12Z</time>
   </trkpt>
   <trkpt lat="-3.0955510" lon="37.3329520">
    <ele>4054.1</ele>
    <time>2026-06-22T05:37:13Z</time>
   </trkpt>
   <trkpt lat="-3.0955480" lon="37.3329520">
    <ele>4054.2</ele>
    <time>2026-06-22T05:37:14Z</time>
   </trkpt>
   <trkpt lat="-3.0955440" lon="37.3329540">
    <ele>4054.3</ele>
    <time>2026-06-22T05:37:15Z</time>
   </trkpt>
   <trkpt lat="-3.0955460" lon="37.3329550">
    <ele>4054.3</ele>
    <time>2026-06-22T05:37:16Z</time>
   </trkpt>
   <trkpt lat="-3.0955430" lon="37.3329540">
    <ele>4054.4</ele>
    <time>2026-06-22T05:37:17Z</time>
   </trkpt>
   <trkpt lat="-3.0955420" lon="37.3329570">
    <ele>4054.5</ele>
    <time>2026-06-22T05:37:18Z</time>
   </trkpt>
   <trkpt lat="-3.0955390" lon="37.3329580">
    <ele>4054.5</ele>
    <time>2026-06-22T05:37:19Z</time>
   </trkpt>
   <trkpt lat="-3.0955330" lon="37.3329600">
    <ele>4054.7</ele>
    <time>2026-06-22T05:37:20Z</time>
   </trkpt>
   <trkpt lat="-3.0955250" lon="37.3329620">
    <ele>4054.9</ele>
    <time>2026-06-22T05:37:21Z</time>
   </trkpt>
   <trkpt lat="-3.0955210" lon="37.3329610">
    <ele>4055.0</ele>
    <time>2026-06-22T05:37:22Z</time>
   </trkpt>
   <trkpt lat="-3.0955170" lon="37.3329610">
    <ele>4055.1</ele>
    <time>2026-06-22T05:37:23Z</time>
   </trkpt>
   <trkpt lat="-3.0955140" lon="37.3329610">
    <ele>4055.1</ele>
    <time>2026-06-22T05:37:24Z</time>
   </trkpt>
   <trkpt lat="-3.0955110" lon="37.3329630">
    <ele>4055.2</ele>
    <time>2026-06-22T05:37:25Z</time>
   </trkpt>
   <trkpt lat="-3.0955110" lon="37.3329630">
    <ele>4055.2</ele>
    <time>2026-06-22T05:37:26Z</time>
   </trkpt>
   <trkpt lat="-3.0955110" lon="37.3329630">
    <ele>4055.2</ele>
    <time>2026-06-22T05:37:27Z</time>
   </trkpt>
   <trkpt lat="-3.0955050" lon="37.3329580">
    <ele>4055.4</ele>
    <time>2026-06-22T05:37:28Z</time>
   </trkpt>
   <trkpt lat="-3.0955050" lon="37.3329630">
    <ele>4055.5</ele>
    <time>2026-06-22T05:37:29Z</time>
   </trkpt>
   <trkpt lat="-3.0954960" lon="37.3329600">
    <ele>4055.7</ele>
    <time>2026-06-22T05:37:30Z</time>
   </trkpt>
   <trkpt lat="-3.0954940" lon="37.3329600">
    <ele>4055.7</ele>
    <time>2026-06-22T05:37:31Z</time>
   </trkpt>
   <trkpt lat="-3.0954900" lon="37.3329630">
    <ele>4055.8</ele>
    <time>2026-06-22T05:37:32Z</time>
   </trkpt>
   <trkpt lat="-3.0954900" lon="37.3329630">
    <ele>4055.8</ele>
    <time>2026-06-22T05:37:33Z</time>
   </trkpt>
   <trkpt lat="-3.0954890" lon="37.3329670">
    <ele>4055.9</ele>
    <time>2026-06-22T05:37:34Z</time>
   </trkpt>
   <trkpt lat="-3.0954890" lon="37.3329690">
    <ele>4056.0</ele>
    <time>2026-06-22T05:37:35Z</time>
   </trkpt>
   <trkpt lat="-3.0954890" lon="37.3329720">
    <ele>4056.1</ele>
    <time>2026-06-22T05:37:36Z</time>
   </trkpt>
   <trkpt lat="-3.0954940" lon="37.3329780">
    <ele>4056.2</ele>
    <time>2026-06-22T05:37:37Z</time>
   </trkpt>
   <trkpt lat="-3.0954870" lon="37.3329810">
    <ele>4056.4</ele>
    <time>2026-06-22T05:37:38Z</time>
   </trkpt>
   <trkpt lat="-3.0954880" lon="37.3329820">
    <ele>4056.4</ele>
    <time>2026-06-22T05:37:39Z</time>
   </trkpt>
   <trkpt lat="-3.0954850" lon="37.3329840">
    <ele>4056.5</ele>
    <time>2026-06-22T05:37:40Z</time>
   </trkpt>
   <trkpt lat="-3.0954850" lon="37.3329890">
    <ele>4056.6</ele>
    <time>2026-06-22T05:37:41Z</time>
   </trkpt>
   <trkpt lat="-3.0954850" lon="37.3329850">
    <ele>4056.7</ele>
    <time>2026-06-22T05:37:42Z</time>
   </trkpt>
   <trkpt lat="-3.0954820" lon="37.3329890">
    <ele>4056.8</ele>
    <time>2026-06-22T05:37:43Z</time>
   </trkpt>
   <trkpt lat="-3.0954780" lon="37.3329880">
    <ele>4056.9</ele>
    <time>2026-06-22T05:37:44Z</time>
   </trkpt>
   <trkpt lat="-3.0954730" lon="37.3329900">
    <ele>4057.0</ele>
    <time>2026-06-22T05:37:45Z</time>
   </trkpt>
   <trkpt lat="-3.0954690" lon="37.3329850">
    <ele>4057.2</ele>
    <time>2026-06-22T05:37:46Z</time>
   </trkpt>
   <trkpt lat="-3.0954640" lon="37.3329840">
    <ele>4057.3</ele>
    <time>2026-06-22T05:37:47Z</time>
   </trkpt>
   <trkpt lat="-3.0954630" lon="37.3329850">
    <ele>4057.3</ele>
    <time>2026-06-22T05:37:48Z</time>
   </trkpt>
   <trkpt lat="-3.0954610" lon="37.3329860">
    <ele>4057.4</ele>
    <time>2026-06-22T05:37:49Z</time>
   </trkpt>
   <trkpt lat="-3.0954560" lon="37.3329860">
    <ele>4057.5</ele>
    <time>2026-06-22T05:37:50Z</time>
   </trkpt>
   <trkpt lat="-3.0954590" lon="37.3329850">
    <ele>4057.6</ele>
    <time>2026-06-22T05:37:51Z</time>
   </trkpt>
   <trkpt lat="-3.0954600" lon="37.3329850">
    <ele>4057.6</ele>
    <time>2026-06-22T05:37:52Z</time>
   </trkpt>
   <trkpt lat="-3.0954540" lon="37.3329840">
    <ele>4057.7</ele>
    <time>2026-06-22T05:37:53Z</time>
   </trkpt>
   <trkpt lat="-3.0954500" lon="37.3329830">
    <ele>4057.8</ele>
    <time>2026-06-22T05:37:54Z</time>
   </trkpt>
   <trkpt lat="-3.0954470" lon="37.3329830">
    <ele>4057.9</ele>
    <time>2026-06-22T05:37:55Z</time>
   </trkpt>
   <trkpt lat="-3.0954450" lon="37.3329850">
    <ele>4058.0</ele>
    <time>2026-06-22T05:37:56Z</time>
   </trkpt>
   <trkpt lat="-3.0954420" lon="37.3329810">
    <ele>4058.1</ele>
    <time>2026-06-22T05:37:57Z</time>
   </trkpt>
   <trkpt lat="-3.0954400" lon="37.3329800">
    <ele>4058.1</ele>
    <time>2026-06-22T05:37:58Z</time>
   </trkpt>
   <trkpt lat="-3.0954390" lon="37.3329810">
    <ele>4058.2</ele>
    <time>2026-06-22T05:37:59Z</time>
   </trkpt>
   <trkpt lat="-3.0954380" lon="37.3329820">
    <ele>4058.2</ele>
    <time>2026-06-22T05:38:00Z</time>
   </trkpt>
   <trkpt lat="-3.0954340" lon="37.3329840">
    <ele>4058.3</ele>
    <time>2026-06-22T05:38:01Z</time>
   </trkpt>
   <trkpt lat="-3.0954290" lon="37.3329830">
    <ele>4058.4</ele>
    <time>2026-06-22T05:38:02Z</time>
   </trkpt>
   <trkpt lat="-3.0954230" lon="37.3329870">
    <ele>4058.6</ele>
    <time>2026-06-22T05:38:03Z</time>
   </trkpt>
   <trkpt lat="-3.0954210" lon="37.3329920">
    <ele>4058.7</ele>
    <time>2026-06-22T05:38:04Z</time>
   </trkpt>
   <trkpt lat="-3.0954220" lon="37.3329940">
    <ele>4058.8</ele>
    <time>2026-06-22T05:38:05Z</time>
   </trkpt>
   <trkpt lat="-3.0954220" lon="37.3329930">
    <ele>4058.8</ele>
    <time>2026-06-22T05:38:06Z</time>
   </trkpt>
   <trkpt lat="-3.0954220" lon="37.3329950">
    <ele>4058.8</ele>
    <time>2026-06-22T05:38:07Z</time>
   </trkpt>
   <trkpt lat="-3.0954220" lon="37.3329960">
    <ele>4058.9</ele>
    <time>2026-06-22T05:38:08Z</time>
   </trkpt>
   <trkpt lat="-3.0954230" lon="37.3329970">
    <ele>4058.9</ele>
    <time>2026-06-22T05:38:09Z</time>
   </trkpt>
   <trkpt lat="-3.0954210" lon="37.3330010">
    <ele>4059.0</ele>
    <time>2026-06-22T05:38:10Z</time>
   </trkpt>
   <trkpt lat="-3.0954200" lon="37.3330050">
    <ele>4059.1</ele>
    <time>2026-06-22T05:38:11Z</time>
   </trkpt>
   <trkpt lat="-3.0954210" lon="37.3330040">
    <ele>4059.1</ele>
    <time>2026-06-22T05:38:12Z</time>
   </trkpt>
   <trkpt lat="-3.0954180" lon="37.3330060">
    <ele>4059.2</ele>
    <time>2026-06-22T05:38:13Z</time>
   </trkpt>
   <trkpt lat="-3.0954150" lon="37.3330110">
    <ele>4059.4</ele>
    <time>2026-06-22T05:38:14Z</time>
   </trkpt>
   <trkpt lat="-3.0954140" lon="37.3330120">
    <ele>4059.4</ele>
    <time>2026-06-22T05:38:15Z</time>
   </trkpt>
   <trkpt lat="-3.0954170" lon="37.3330120">
    <ele>4059.5</ele>
    <time>2026-06-22T05:38:16Z</time>
   </trkpt>
   <trkpt lat="-3.0954160" lon="37.3330180">
    <ele>4059.6</ele>
    <time>2026-06-22T05:38:17Z</time>
   </trkpt>
   <trkpt lat="-3.0954170" lon="37.3330210">
    <ele>4059.7</ele>
    <time>2026-06-22T05:38:18Z</time>
   </trkpt>
   <trkpt lat="-3.0954180" lon="37.3330220">
    <ele>4059.7</ele>
    <time>2026-06-22T05:38:19Z</time>
   </trkpt>
   <trkpt lat="-3.0954180" lon="37.3330220">
    <ele>4059.7</ele>
    <time>2026-06-22T05:38:20Z</time>
   </trkpt>
   <trkpt lat="-3.0954190" lon="37.3330200">
    <ele>4059.8</ele>
    <time>2026-06-22T05:38:21Z</time>
   </trkpt>
   <trkpt lat="-3.0954190" lon="37.3330200">
    <ele>4059.8</ele>
    <time>2026-06-22T05:38:22Z</time>
   </trkpt>
   <trkpt lat="-3.0954190" lon="37.3330190">
    <ele>4059.8</ele>
    <time>2026-06-22T05:38:23Z</time>
   </trkpt>
   <trkpt lat="-3.0954190" lon="37.3330190">
    <ele>4059.8</ele>
    <time>2026-06-22T05:38:24Z</time>
   </trkpt>
   <trkpt lat="-3.0954190" lon="37.3330190">
    <ele>4059.8</ele>
    <time>2026-06-22T05:38:25Z</time>
   </trkpt>
   <trkpt lat="-3.0954190" lon="37.3330200">
    <ele>4059.8</ele>
    <time>2026-06-22T05:38:26Z</time>
   </trkpt>
   <trkpt lat="-3.0954190" lon="37.3330200">
    <ele>4059.8</ele>
    <time>2026-06-22T05:38:27Z</time>
   </trkpt>
   <trkpt lat="-3.0954200" lon="37.3330200">
    <ele>4059.8</ele>
    <time>2026-06-22T05:38:28Z</time>
   </trkpt>
   <trkpt lat="-3.0954200" lon="37.3330190">
    <ele>4059.8</ele>
    <time>2026-06-22T05:38:29Z</time>
   </trkpt>
   <trkpt lat="-3.0954190" lon="37.3330180">
    <ele>4059.9</ele>
    <time>2026-06-22T05:38:30Z</time>
   </trkpt>
   <trkpt lat="-3.0954140" lon="37.3330210">
    <ele>4060.0</ele>
    <time>2026-06-22T05:38:31Z</time>
   </trkpt>
   <trkpt lat="-3.0954090" lon="37.3330200">
    <ele>4060.1</ele>
    <time>2026-06-22T05:38:32Z</time>
   </trkpt>
   <trkpt lat="-3.0954060" lon="37.3330200">
    <ele>4060.2</ele>
    <time>2026-06-22T05:38:34Z</time>
   </trkpt>
   <trkpt lat="-3.0954030" lon="37.3330180">
    <ele>4060.3</ele>
    <time>2026-06-22T05:38:35Z</time>
   </trkpt>
   <trkpt lat="-3.0954030" lon="37.3330190">
    <ele>4060.3</ele>
    <time>2026-06-22T05:38:36Z</time>
   </trkpt>
   <trkpt lat="-3.0954040" lon="37.3330190">
    <ele>4060.3</ele>
    <time>2026-06-22T05:38:37Z</time>
   </trkpt>
   <trkpt lat="-3.0954040" lon="37.3330190">
    <ele>4060.3</ele>
    <time>2026-06-22T05:38:38Z</time>
   </trkpt>
   <trkpt lat="-3.0954030" lon="37.3330250">
    <ele>4060.5</ele>
    <time>2026-06-22T05:38:39Z</time>
   </trkpt>
   <trkpt lat="-3.0954030" lon="37.3330240">
    <ele>4060.5</ele>
    <time>2026-06-22T05:38:40Z</time>
   </trkpt>
   <trkpt lat="-3.0954030" lon="37.3330240">
    <ele>4060.5</ele>
    <time>2026-06-22T05:38:41Z</time>
   </trkpt>
   <trkpt lat="-3.0954030" lon="37.3330240">
    <ele>4060.5</ele>
    <time>2026-06-22T05:38:42Z</time>
   </trkpt>
   <trkpt lat="-3.0954030" lon="37.3330260">
    <ele>4060.5</ele>
    <time>2026-06-22T05:38:43Z</time>
   </trkpt>
   <trkpt lat="-3.0954030" lon="37.3330260">
    <ele>4060.5</ele>
    <time>2026-06-22T05:38:44Z</time>
   </trkpt>
   <trkpt lat="-3.0954020" lon="37.3330260">
    <ele>4060.6</ele>
    <time>2026-06-22T05:38:45Z</time>
   </trkpt>
   <trkpt lat="-3.0954030" lon="37.3330260">
    <ele>4060.6</ele>
    <time>2026-06-22T05:38:46Z</time>
   </trkpt>
   <trkpt lat="-3.0954030" lon="37.3330260">
    <ele>4060.6</ele>
    <time>2026-06-22T05:38:47Z</time>
   </trkpt>
   <trkpt lat="-3.0954040" lon="37.3330260">
    <ele>4060.6</ele>
    <time>2026-06-22T05:38:48Z</time>
   </trkpt>
   <trkpt lat="-3.0954040" lon="37.3330260">
    <ele>4060.6</ele>
    <time>2026-06-22T05:38:49Z</time>
   </trkpt>
   <trkpt lat="-3.0954040" lon="37.3330270">
    <ele>4060.6</ele>
    <time>2026-06-22T05:38:50Z</time>
   </trkpt>
   <trkpt lat="-3.0954030" lon="37.3330300">
    <ele>4060.7</ele>
    <time>2026-06-22T05:38:51Z</time>
   </trkpt>
   <trkpt lat="-3.0954010" lon="37.3330340">
    <ele>4060.8</ele>
    <time>2026-06-22T05:38:52Z</time>
   </trkpt>
   <trkpt lat="-3.0954000" lon="37.3330350">
    <ele>4060.8</ele>
    <time>2026-06-22T05:38:53Z</time>
   </trkpt>
   <trkpt lat="-3.0954010" lon="37.3330350">
    <ele>4060.9</ele>
    <time>2026-06-22T05:38:54Z</time>
   </trkpt>
   <trkpt lat="-3.0953950" lon="37.3330390">
    <ele>4061.0</ele>
    <time>2026-06-22T05:38:55Z</time>
   </trkpt>
   <trkpt lat="-3.0953930" lon="37.3330390">
    <ele>4061.1</ele>
    <time>2026-06-22T05:38:56Z</time>
   </trkpt>
   <trkpt lat="-3.0953930" lon="37.3330400">
    <ele>4061.1</ele>
    <time>2026-06-22T05:38:57Z</time>
   </trkpt>
   <trkpt lat="-3.0953920" lon="37.3330410">
    <ele>4061.1</ele>
    <time>2026-06-22T05:38:58Z</time>
   </trkpt>
   <trkpt lat="-3.0953910" lon="37.3330420">
    <ele>4061.2</ele>
    <time>2026-06-22T05:38:59Z</time>
   </trkpt>
   <trkpt lat="-3.0953890" lon="37.3330470">
    <ele>4061.3</ele>
    <time>2026-06-22T05:39:00Z</time>
   </trkpt>
   <trkpt lat="-3.0953930" lon="37.3330480">
    <ele>4061.4</ele>
    <time>2026-06-22T05:39:01Z</time>
   </trkpt>
   <trkpt lat="-3.0953960" lon="37.3330470">
    <ele>4061.5</ele>
    <time>2026-06-22T05:39:02Z</time>
   </trkpt>
   <trkpt lat="-3.0953930" lon="37.3330410">
    <ele>4061.6</ele>
    <time>2026-06-22T05:39:03Z</time>
   </trkpt>
   <trkpt lat="-3.0953880" lon="37.3330400">
    <ele>4061.7</ele>
    <time>2026-06-22T05:39:04Z</time>
   </trkpt>
   <trkpt lat="-3.0953870" lon="37.3330360">
    <ele>4061.8</ele>
    <time>2026-06-22T05:39:05Z</time>
   </trkpt>
   <trkpt lat="-3.0953780" lon="37.3330390">
    <ele>4062.1</ele>
    <time>2026-06-22T05:39:06Z</time>
   </trkpt>
   <trkpt lat="-3.0953720" lon="37.3330420">
    <ele>4062.2</ele>
    <time>2026-06-22T05:39:07Z</time>
   </trkpt>
   <trkpt lat="-3.0953770" lon="37.3330430">
    <ele>4062.3</ele>
    <time>2026-06-22T05:39:08Z</time>
   </trkpt>
   <trkpt lat="-3.0953780" lon="37.3330460">
    <ele>4062.4</ele>
    <time>2026-06-22T05:39:09Z</time>
   </trkpt>
   <trkpt lat="-3.0953790" lon="37.3330450">
    <ele>4062.4</ele>
    <time>2026-06-22T05:39:10Z</time>
   </trkpt>
   <trkpt lat="-3.0953790" lon="37.3330450">
    <ele>4062.4</ele>
    <time>2026-06-22T05:39:11Z</time>
   </trkpt>
   <trkpt lat="-3.0953780" lon="37.3330470">
    <ele>4062.5</ele>
    <time>2026-06-22T05:39:12Z</time>
   </trkpt>
   <trkpt lat="-3.0953790" lon="37.3330470">
    <ele>4062.5</ele>
    <time>2026-06-22T05:39:13Z</time>
   </trkpt>
   <trkpt lat="-3.0953790" lon="37.3330510">
    <ele>4062.6</ele>
    <time>2026-06-22T05:39:14Z</time>
   </trkpt>
   <trkpt lat="-3.0953790" lon="37.3330500">
    <ele>4062.6</ele>
    <time>2026-06-22T05:39:15Z</time>
   </trkpt>
   <trkpt lat="-3.0953800" lon="37.3330500">
    <ele>4062.6</ele>
    <time>2026-06-22T05:39:16Z</time>
   </trkpt>
   <trkpt lat="-3.0953800" lon="37.3330490">
    <ele>4062.7</ele>
    <time>2026-06-22T05:39:17Z</time>
   </trkpt>
   <trkpt lat="-3.0953800" lon="37.3330490">
    <ele>4062.7</ele>
    <time>2026-06-22T05:39:18Z</time>
   </trkpt>
   <trkpt lat="-3.0953780" lon="37.3330530">
    <ele>4062.8</ele>
    <time>2026-06-22T05:39:19Z</time>
   </trkpt>
   <trkpt lat="-3.0953780" lon="37.3330520">
    <ele>4062.8</ele>
    <time>2026-06-22T05:39:20Z</time>
   </trkpt>
   <trkpt lat="-3.0953780" lon="37.3330530">
    <ele>4062.8</ele>
    <time>2026-06-22T05:39:21Z</time>
   </trkpt>
   <trkpt lat="-3.0953780" lon="37.3330520">
    <ele>4062.8</ele>
    <time>2026-06-22T05:39:22Z</time>
   </trkpt>
   <trkpt lat="-3.0953770" lon="37.3330530">
    <ele>4062.9</ele>
    <time>2026-06-22T05:39:23Z</time>
   </trkpt>
   <trkpt lat="-3.0953770" lon="37.3330530">
    <ele>4062.9</ele>
    <time>2026-06-22T05:39:24Z</time>
   </trkpt>
   <trkpt lat="-3.0953780" lon="37.3330530">
    <ele>4062.9</ele>
    <time>2026-06-22T05:39:25Z</time>
   </trkpt>
   <trkpt lat="-3.0953790" lon="37.3330530">
    <ele>4062.9</ele>
    <time>2026-06-22T05:39:26Z</time>
   </trkpt>
   <trkpt lat="-3.0953780" lon="37.3330540">
    <ele>4063.0</ele>
    <time>2026-06-22T05:39:27Z</time>
   </trkpt>
   <trkpt lat="-3.0953790" lon="37.3330530">
    <ele>4063.0</ele>
    <time>2026-06-22T05:39:28Z</time>
   </trkpt>
   <trkpt lat="-3.0953780" lon="37.3330530">
    <ele>4063.0</ele>
    <time>2026-06-22T05:39:29Z</time>
   </trkpt>
   <trkpt lat="-3.0953780" lon="37.3330530">
    <ele>4063.0</ele>
    <time>2026-06-22T05:39:30Z</time>
   </trkpt>
   <trkpt lat="-3.0953790" lon="37.3330530">
    <ele>4063.0</ele>
    <time>2026-06-22T05:39:31Z</time>
   </trkpt>
   <trkpt lat="-3.0953780" lon="37.3330540">
    <ele>4063.1</ele>
    <time>2026-06-22T05:39:32Z</time>
   </trkpt>
   <trkpt lat="-3.0953780" lon="37.3330530">
    <ele>4063.1</ele>
    <time>2026-06-22T05:39:33Z</time>
   </trkpt>
   <trkpt lat="-3.0953780" lon="37.3330530">
    <ele>4063.1</ele>
    <time>2026-06-22T05:39:34Z</time>
   </trkpt>
   <trkpt lat="-3.0953780" lon="37.3330530">
    <ele>4063.1</ele>
    <time>2026-06-22T05:39:35Z</time>
   </trkpt>
   <trkpt lat="-3.0953790" lon="37.3330530">
    <ele>4063.1</ele>
    <time>2026-06-22T05:39:36Z</time>
   </trkpt>
   <trkpt lat="-3.0953780" lon="37.3330550">
    <ele>4063.2</ele>
    <time>2026-06-22T05:39:37Z</time>
   </trkpt>
   <trkpt lat="-3.0953780" lon="37.3330550">
    <ele>4063.2</ele>
    <time>2026-06-22T05:39:38Z</time>
   </trkpt>
   <trkpt lat="-3.0953780" lon="37.3330550">
    <ele>4063.2</ele>
    <time>2026-06-22T05:39:39Z</time>
   </trkpt>
   <trkpt lat="-3.0953780" lon="37.3330550">
    <ele>4063.2</ele>
    <time>2026-06-22T05:39:40Z</time>
   </trkpt>
   <trkpt lat="-3.0953780" lon="37.3330550">
    <ele>4063.2</ele>
    <time>2026-06-22T05:39:41Z</time>
   </trkpt>
   <trkpt lat="-3.0953760" lon="37.3330580">
    <ele>4063.2</ele>
    <time>2026-06-22T05:39:42Z</time>
   </trkpt>
   <trkpt lat="-3.0953770" lon="37.3330570">
    <ele>4063.3</ele>
    <time>2026-06-22T05:39:43Z</time>
   </trkpt>
   <trkpt lat="-3.0953720" lon="37.3330760">
    <ele>4063.7</ele>
    <time>2026-06-22T05:39:44Z</time>
   </trkpt>
   <trkpt lat="-3.0953760" lon="37.3330600">
    <ele>4064.1</ele>
    <time>2026-06-22T05:39:45Z</time>
   </trkpt>
   <trkpt lat="-3.0953760" lon="37.3330590">
    <ele>4064.1</ele>
    <time>2026-06-22T05:39:46Z</time>
   </trkpt>
   <trkpt lat="-3.0953760" lon="37.3330590">
    <ele>4064.1</ele>
    <time>2026-06-22T05:39:47Z</time>
   </trkpt>
   <trkpt lat="-3.0953760" lon="37.3330590">
    <ele>4064.1</ele>
    <time>2026-06-22T05:39:48Z</time>
   </trkpt>
   <trkpt lat="-3.0953760" lon="37.3330590">
    <ele>4064.1</ele>
    <time>2026-06-22T05:39:49Z</time>
   </trkpt>
   <trkpt lat="-3.0953760" lon="37.3330580">
    <ele>4064.2</ele>
    <time>2026-06-22T05:39:50Z</time>
   </trkpt>
   <trkpt lat="-3.0953760" lon="37.3330560">
    <ele>4064.2</ele>
    <time>2026-06-22T05:39:51Z</time>
   </trkpt>
   <trkpt lat="-3.0953760" lon="37.3330560">
    <ele>4064.2</ele>
    <time>2026-06-22T05:39:52Z</time>
   </trkpt>
   <trkpt lat="-3.0953760" lon="37.3330560">
    <ele>4064.2</ele>
    <time>2026-06-22T05:39:53Z</time>
   </trkpt>
   <trkpt lat="-3.0953760" lon="37.3330560">
    <ele>4064.2</ele>
    <time>2026-06-22T05:39:54Z</time>
   </trkpt>
   <trkpt lat="-3.0953780" lon="37.3330570">
    <ele>4064.3</ele>
    <time>2026-06-22T05:39:55Z</time>
   </trkpt>
   <trkpt lat="-3.0953770" lon="37.3330570">
    <ele>4064.3</ele>
    <time>2026-06-22T05:39:56Z</time>
   </trkpt>
   <trkpt lat="-3.0953770" lon="37.3330580">
    <ele>4064.3</ele>
    <time>2026-06-22T05:39:57Z</time>
   </trkpt>
   <trkpt lat="-3.0953770" lon="37.3330580">
    <ele>4064.3</ele>
    <time>2026-06-22T05:39:58Z</time>
   </trkpt>
   <trkpt lat="-3.0953750" lon="37.3330560">
    <ele>4064.4</ele>
    <time>2026-06-22T05:39:59Z</time>
   </trkpt>
   <trkpt lat="-3.0953750" lon="37.3330520">
    <ele>4064.5</ele>
    <time>2026-06-22T05:40:00Z</time>
   </trkpt>
   <trkpt lat="-3.0953740" lon="37.3330530">
    <ele>4064.5</ele>
    <time>2026-06-22T05:40:01Z</time>
   </trkpt>
   <trkpt lat="-3.0953750" lon="37.3330530">
    <ele>4064.5</ele>
    <time>2026-06-22T05:40:02Z</time>
   </trkpt>
   <trkpt lat="-3.0953760" lon="37.3330530">
    <ele>4064.5</ele>
    <time>2026-06-22T05:40:03Z</time>
   </trkpt>
   <trkpt lat="-3.0953770" lon="37.3330520">
    <ele>4064.6</ele>
    <time>2026-06-22T05:40:04Z</time>
   </trkpt>
   <trkpt lat="-3.0953760" lon="37.3330530">
    <ele>4064.6</ele>
    <time>2026-06-22T05:40:05Z</time>
   </trkpt>
   <trkpt lat="-3.0953770" lon="37.3330530">
    <ele>4064.6</ele>
    <time>2026-06-22T05:40:06Z</time>
   </trkpt>
   <trkpt lat="-3.0953770" lon="37.3330520">
    <ele>4064.7</ele>
    <time>2026-06-22T05:40:07Z</time>
   </trkpt>
   <trkpt lat="-3.0953770" lon="37.3330520">
    <ele>4064.7</ele>
    <time>2026-06-22T05:40:08Z</time>
   </trkpt>
   <trkpt lat="-3.0953760" lon="37.3330510">
    <ele>4064.7</ele>
    <time>2026-06-22T05:40:09Z</time>
   </trkpt>
   <trkpt lat="-3.0953740" lon="37.3330510">
    <ele>4064.7</ele>
    <time>2026-06-22T05:40:10Z</time>
   </trkpt>
   <trkpt lat="-3.0953720" lon="37.3330500">
    <ele>4064.8</ele>
    <time>2026-06-22T05:40:11Z</time>
   </trkpt>
   <trkpt lat="-3.0953710" lon="37.3330500">
    <ele>4064.8</ele>
    <time>2026-06-22T05:40:12Z</time>
   </trkpt>
   <trkpt lat="-3.0953710" lon="37.3330510">
    <ele>4064.8</ele>
    <time>2026-06-22T05:40:13Z</time>
   </trkpt>
   <trkpt lat="-3.0953700" lon="37.3330550">
    <ele>4064.9</ele>
    <time>2026-06-22T05:40:14Z</time>
   </trkpt>
   <trkpt lat="-3.0953720" lon="37.3330560">
    <ele>4065.0</ele>
    <time>2026-06-22T05:40:15Z</time>
   </trkpt>
   <trkpt lat="-3.0953720" lon="37.3330540">
    <ele>4065.0</ele>
    <time>2026-06-22T05:40:16Z</time>
   </trkpt>
   <trkpt lat="-3.0953710" lon="37.3330550">
    <ele>4065.1</ele>
    <time>2026-06-22T05:40:17Z</time>
   </trkpt>
   <trkpt lat="-3.0953700" lon="37.3330530">
    <ele>4065.1</ele>
    <time>2026-06-22T05:40:18Z</time>
   </trkpt>
   <trkpt lat="-3.0953690" lon="37.3330560">
    <ele>4065.2</ele>
    <time>2026-06-22T05:40:19Z</time>
   </trkpt>
   <trkpt lat="-3.0953680" lon="37.3330550">
    <ele>4065.2</ele>
    <time>2026-06-22T05:40:20Z</time>
   </trkpt>
   <trkpt lat="-3.0953650" lon="37.3330570">
    <ele>4065.3</ele>
    <time>2026-06-22T05:40:21Z</time>
   </trkpt>
   <trkpt lat="-3.0953600" lon="37.3330600">
    <ele>4065.4</ele>
    <time>2026-06-22T05:40:22Z</time>
   </trkpt>
   <trkpt lat="-3.0953570" lon="37.3330610">
    <ele>4065.5</ele>
    <time>2026-06-22T05:40:23Z</time>
   </trkpt>
   <trkpt lat="-3.0953540" lon="37.3330640">
    <ele>4065.6</ele>
    <time>2026-06-22T05:40:24Z</time>
   </trkpt>
   <trkpt lat="-3.0953530" lon="37.3330670">
    <ele>4065.7</ele>
    <time>2026-06-22T05:40:25Z</time>
   </trkpt>
   <trkpt lat="-3.0953540" lon="37.3330680">
    <ele>4065.7</ele>
    <time>2026-06-22T05:40:26Z</time>
   </trkpt>
   <trkpt lat="-3.0953520" lon="37.3330680">
    <ele>4065.8</ele>
    <time>2026-06-22T05:40:27Z</time>
   </trkpt>
   <trkpt lat="-3.0953530" lon="37.3330690">
    <ele>4065.8</ele>
    <time>2026-06-22T05:40:28Z</time>
   </trkpt>
   <trkpt lat="-3.0953550" lon="37.3330760">
    <ele>4066.0</ele>
    <time>2026-06-22T05:40:29Z</time>
   </trkpt>
   <trkpt lat="-3.0953580" lon="37.3330760">
    <ele>4066.0</ele>
    <time>2026-06-22T05:40:30Z</time>
   </trkpt>
   <trkpt lat="-3.0953640" lon="37.3330810">
    <ele>4066.2</ele>
    <time>2026-06-22T05:40:31Z</time>
   </trkpt>
   <trkpt lat="-3.0953690" lon="37.3330790">
    <ele>4066.3</ele>
    <time>2026-06-22T05:40:32Z</time>
   </trkpt>
   <trkpt lat="-3.0953700" lon="37.3330810">
    <ele>4066.4</ele>
    <time>2026-06-22T05:40:33Z</time>
   </trkpt>
   <trkpt lat="-3.0953720" lon="37.3330850">
    <ele>4066.5</ele>
    <time>2026-06-22T05:40:34Z</time>
   </trkpt>
   <trkpt lat="-3.0953720" lon="37.3330900">
    <ele>4066.6</ele>
    <time>2026-06-22T05:40:35Z</time>
   </trkpt>
   <trkpt lat="-3.0953720" lon="37.3330930">
    <ele>4066.7</ele>
    <time>2026-06-22T05:40:36Z</time>
   </trkpt>
   <trkpt lat="-3.0953720" lon="37.3330920">
    <ele>4066.7</ele>
    <time>2026-06-22T05:40:37Z</time>
   </trkpt>
   <trkpt lat="-3.0953720" lon="37.3330920">
    <ele>4066.7</ele>
    <time>2026-06-22T05:40:38Z</time>
   </trkpt>
   <trkpt lat="-3.0953730" lon="37.3330920">
    <ele>4066.7</ele>
    <time>2026-06-22T05:40:40Z</time>
   </trkpt>
   <trkpt lat="-3.0953740" lon="37.3330970">
    <ele>4066.8</ele>
    <time>2026-06-22T05:40:41Z</time>
   </trkpt>
   <trkpt lat="-3.0953760" lon="37.3331000">
    <ele>4066.9</ele>
    <time>2026-06-22T05:40:42Z</time>
   </trkpt>
   <trkpt lat="-3.0953770" lon="37.3331030">
    <ele>4067.0</ele>
    <time>2026-06-22T05:40:43Z</time>
   </trkpt>
   <trkpt lat="-3.0953770" lon="37.3331070">
    <ele>4067.1</ele>
    <time>2026-06-22T05:40:44Z</time>
   </trkpt>
   <trkpt lat="-3.0953780" lon="37.3331070">
    <ele>4067.1</ele>
    <time>2026-06-22T05:40:45Z</time>
   </trkpt>
   <trkpt lat="-3.0953780" lon="37.3331080">
    <ele>4067.1</ele>
    <time>2026-06-22T05:40:46Z</time>
   </trkpt>
   <trkpt lat="-3.0953780" lon="37.3331070">
    <ele>4067.2</ele>
    <time>2026-06-22T05:40:47Z</time>
   </trkpt>
   <trkpt lat="-3.0953780" lon="37.3331050">
    <ele>4067.2</ele>
    <time>2026-06-22T05:40:48Z</time>
   </trkpt>
   <trkpt lat="-3.0953780" lon="37.3331080">
    <ele>4067.3</ele>
    <time>2026-06-22T05:40:49Z</time>
   </trkpt>
   <trkpt lat="-3.0953790" lon="37.3331090">
    <ele>4067.3</ele>
    <time>2026-06-22T05:40:50Z</time>
   </trkpt>
   <trkpt lat="-3.0953760" lon="37.3331190">
    <ele>4067.6</ele>
    <time>2026-06-22T05:40:51Z</time>
   </trkpt>
   <trkpt lat="-3.0953790" lon="37.3331170">
    <ele>4067.6</ele>
    <time>2026-06-22T05:40:52Z</time>
   </trkpt>
   <trkpt lat="-3.0953770" lon="37.3331190">
    <ele>4067.7</ele>
    <time>2026-06-22T05:40:53Z</time>
   </trkpt>
   <trkpt lat="-3.0953740" lon="37.3331200">
    <ele>4067.8</ele>
    <time>2026-06-22T05:40:54Z</time>
   </trkpt>
   <trkpt lat="-3.0953730" lon="37.3331210">
    <ele>4067.8</ele>
    <time>2026-06-22T05:40:55Z</time>
   </trkpt>
   <trkpt lat="-3.0953710" lon="37.3331240">
    <ele>4067.9</ele>
    <time>2026-06-22T05:40:56Z</time>
   </trkpt>
   <trkpt lat="-3.0953740" lon="37.3331260">
    <ele>4068.0</ele>
    <time>2026-06-22T05:40:57Z</time>
   </trkpt>
   <trkpt lat="-3.0953730" lon="37.3331280">
    <ele>4068.0</ele>
    <time>2026-06-22T05:40:58Z</time>
   </trkpt>
   <trkpt lat="-3.0953750" lon="37.3331310">
    <ele>4068.1</ele>
    <time>2026-06-22T05:40:59Z</time>
   </trkpt>
   <trkpt lat="-3.0953750" lon="37.3331310">
    <ele>4068.1</ele>
    <time>2026-06-22T05:41:00Z</time>
   </trkpt>
   <trkpt lat="-3.0953760" lon="37.3331320">
    <ele>4068.1</ele>
    <time>2026-06-22T05:41:01Z</time>
   </trkpt>
   <trkpt lat="-3.0953770" lon="37.3331330">
    <ele>4068.2</ele>
    <time>2026-06-22T05:41:02Z</time>
   </trkpt>
   <trkpt lat="-3.0953770" lon="37.3331350">
    <ele>4068.2</ele>
    <time>2026-06-22T05:41:03Z</time>
   </trkpt>
   <trkpt lat="-3.0953790" lon="37.3331390">
    <ele>4068.3</ele>
    <time>2026-06-22T05:41:04Z</time>
   </trkpt>
   <trkpt lat="-3.0953780" lon="37.3331410">
    <ele>4068.4</ele>
    <time>2026-06-22T05:41:05Z</time>
   </trkpt>
   <trkpt lat="-3.0953750" lon="37.3331460">
    <ele>4068.5</ele>
    <time>2026-06-22T05:41:06Z</time>
   </trkpt>
   <trkpt lat="-3.0953750" lon="37.3331470">
    <ele>4068.5</ele>
    <time>2026-06-22T05:41:07Z</time>
   </trkpt>
   <trkpt lat="-3.0953750" lon="37.3331490">
    <ele>4068.6</ele>
    <time>2026-06-22T05:41:08Z</time>
   </trkpt>
   <trkpt lat="-3.0953770" lon="37.3331510">
    <ele>4068.6</ele>
    <time>2026-06-22T05:41:09Z</time>
   </trkpt>
   <trkpt lat="-3.0953770" lon="37.3331530">
    <ele>4068.7</ele>
    <time>2026-06-22T05:41:10Z</time>
   </trkpt>
   <trkpt lat="-3.0953770" lon="37.3331540">
    <ele>4068.7</ele>
    <time>2026-06-22T05:41:11Z</time>
   </trkpt>
   <trkpt lat="-3.0953760" lon="37.3331560">
    <ele>4068.8</ele>
    <time>2026-06-22T05:41:12Z</time>
   </trkpt>
   <trkpt lat="-3.0953740" lon="37.3331560">
    <ele>4068.8</ele>
    <time>2026-06-22T05:41:13Z</time>
   </trkpt>
   <trkpt lat="-3.0953750" lon="37.3331580">
    <ele>4068.9</ele>
    <time>2026-06-22T05:41:14Z</time>
   </trkpt>
   <trkpt lat="-3.0953730" lon="37.3331580">
    <ele>4068.9</ele>
    <time>2026-06-22T05:41:15Z</time>
   </trkpt>
   <trkpt lat="-3.0953710" lon="37.3331600">
    <ele>4069.0</ele>
    <time>2026-06-22T05:41:16Z</time>
   </trkpt>
   <trkpt lat="-3.0953700" lon="37.3331610">
    <ele>4069.0</ele>
    <time>2026-06-22T05:41:17Z</time>
   </trkpt>
   <trkpt lat="-3.0953670" lon="37.3331640">
    <ele>4069.1</ele>
    <time>2026-06-22T05:41:18Z</time>
   </trkpt>
   <trkpt lat="-3.0953640" lon="37.3331650">
    <ele>4069.2</ele>
    <time>2026-06-22T05:41:19Z</time>
   </trkpt>
   <trkpt lat="-3.0953650" lon="37.3331650">
    <ele>4069.2</ele>
    <time>2026-06-22T05:41:20Z</time>
   </trkpt>
   <trkpt lat="-3.0953610" lon="37.3331660">
    <ele>4069.3</ele>
    <time>2026-06-22T05:41:21Z</time>
   </trkpt>
   <trkpt lat="-3.0953570" lon="37.3331680">
    <ele>4069.4</ele>
    <time>2026-06-22T05:41:22Z</time>
   </trkpt>
   <trkpt lat="-3.0953550" lon="37.3331690">
    <ele>4069.5</ele>
    <time>2026-06-22T05:41:23Z</time>
   </trkpt>
   <trkpt lat="-3.0953540" lon="37.3331700">
    <ele>4069.5</ele>
    <time>2026-06-22T05:41:24Z</time>
   </trkpt>
   <trkpt lat="-3.0953540" lon="37.3331710">
    <ele>4069.5</ele>
    <time>2026-06-22T05:41:25Z</time>
   </trkpt>
   <trkpt lat="-3.0953530" lon="37.3331740">
    <ele>4069.6</ele>
    <time>2026-06-22T05:41:26Z</time>
   </trkpt>
   <trkpt lat="-3.0953520" lon="37.3331780">
    <ele>4069.7</ele>
    <time>2026-06-22T05:41:27Z</time>
   </trkpt>
   <trkpt lat="-3.0953470" lon="37.3331820">
    <ele>4069.8</ele>
    <time>2026-06-22T05:41:28Z</time>
   </trkpt>
   <trkpt lat="-3.0953450" lon="37.3331840">
    <ele>4069.9</ele>
    <time>2026-06-22T05:41:29Z</time>
   </trkpt>
   <trkpt lat="-3.0953410" lon="37.3331890">
    <ele>4070.0</ele>
    <time>2026-06-22T05:41:30Z</time>
   </trkpt>
   <trkpt lat="-3.0953400" lon="37.3331950">
    <ele>4070.2</ele>
    <time>2026-06-22T05:41:31Z</time>
   </trkpt>
   <trkpt lat="-3.0953380" lon="37.3331930">
    <ele>4070.2</ele>
    <time>2026-06-22T05:41:32Z</time>
   </trkpt>
   <trkpt lat="-3.0953330" lon="37.3331980">
    <ele>4070.4</ele>
    <time>2026-06-22T05:41:33Z</time>
   </trkpt>
   <trkpt lat="-3.0953290" lon="37.3332000">
    <ele>4070.5</ele>
    <time>2026-06-22T05:41:34Z</time>
   </trkpt>
   <trkpt lat="-3.0953280" lon="37.3332010">
    <ele>4070.5</ele>
    <time>2026-06-22T05:41:35Z</time>
   </trkpt>
   <trkpt lat="-3.0953260" lon="37.3332050">
    <ele>4070.7</ele>
    <time>2026-06-22T05:41:36Z</time>
   </trkpt>
   <trkpt lat="-3.0953240" lon="37.3332070">
    <ele>4070.7</ele>
    <time>2026-06-22T05:41:37Z</time>
   </trkpt>
   <trkpt lat="-3.0953200" lon="37.3332120">
    <ele>4070.9</ele>
    <time>2026-06-22T05:41:38Z</time>
   </trkpt>
   <trkpt lat="-3.0953190" lon="37.3332150">
    <ele>4070.9</ele>
    <time>2026-06-22T05:41:39Z</time>
   </trkpt>
   <trkpt lat="-3.0953170" lon="37.3332160">
    <ele>4071.0</ele>
    <time>2026-06-22T05:41:40Z</time>
   </trkpt>
   <trkpt lat="-3.0953160" lon="37.3332170">
    <ele>4071.0</ele>
    <time>2026-06-22T05:41:41Z</time>
   </trkpt>
   <trkpt lat="-3.0953120" lon="37.3332130">
    <ele>4071.2</ele>
    <time>2026-06-22T05:41:42Z</time>
   </trkpt>
   <trkpt lat="-3.0953080" lon="37.3332110">
    <ele>4071.3</ele>
    <time>2026-06-22T05:41:43Z</time>
   </trkpt>
   <trkpt lat="-3.0953050" lon="37.3332080">
    <ele>4071.4</ele>
    <time>2026-06-22T05:41:44Z</time>
   </trkpt>
   <trkpt lat="-3.0953010" lon="37.3332070">
    <ele>4071.5</ele>
    <time>2026-06-22T05:41:45Z</time>
   </trkpt>
   <trkpt lat="-3.0952980" lon="37.3332060">
    <ele>4071.5</ele>
    <time>2026-06-22T05:41:46Z</time>
   </trkpt>
   <trkpt lat="-3.0952980" lon="37.3332060">
    <ele>4071.5</ele>
    <time>2026-06-22T05:41:47Z</time>
   </trkpt>
   <trkpt lat="-3.0952990" lon="37.3332070">
    <ele>4071.6</ele>
    <time>2026-06-22T05:41:48Z</time>
   </trkpt>
   <trkpt lat="-3.0952980" lon="37.3332070">
    <ele>4071.6</ele>
    <time>2026-06-22T05:41:49Z</time>
   </trkpt>
   <trkpt lat="-3.0952960" lon="37.3332060">
    <ele>4071.6</ele>
    <time>2026-06-22T05:41:50Z</time>
   </trkpt>
   <trkpt lat="-3.0952940" lon="37.3332070">
    <ele>4071.7</ele>
    <time>2026-06-22T05:41:51Z</time>
   </trkpt>
   <trkpt lat="-3.0952890" lon="37.3332100">
    <ele>4071.8</ele>
    <time>2026-06-22T05:41:52Z</time>
   </trkpt>
   <trkpt lat="-3.0952850" lon="37.3332120">
    <ele>4071.9</ele>
    <time>2026-06-22T05:41:53Z</time>
   </trkpt>
   <trkpt lat="-3.0952830" lon="37.3332150">
    <ele>4072.0</ele>
    <time>2026-06-22T05:41:54Z</time>
   </trkpt>
   <trkpt lat="-3.0952820" lon="37.3332190">
    <ele>4072.1</ele>
    <time>2026-06-22T05:41:55Z</time>
   </trkpt>
   <trkpt lat="-3.0952770" lon="37.3332210">
    <ele>4072.2</ele>
    <time>2026-06-22T05:41:56Z</time>
   </trkpt>
   <trkpt lat="-3.0952720" lon="37.3332240">
    <ele>4072.3</ele>
    <time>2026-06-22T05:41:57Z</time>
   </trkpt>
   <trkpt lat="-3.0952720" lon="37.3332230">
    <ele>4072.4</ele>
    <time>2026-06-22T05:41:58Z</time>
   </trkpt>
   <trkpt lat="-3.0952730" lon="37.3332220">
    <ele>4072.4</ele>
    <time>2026-06-22T05:41:59Z</time>
   </trkpt>
   <trkpt lat="-3.0952730" lon="37.3332210">
    <ele>4072.4</ele>
    <time>2026-06-22T05:42:00Z</time>
   </trkpt>
   <trkpt lat="-3.0952720" lon="37.3332200">
    <ele>4072.4</ele>
    <time>2026-06-22T05:42:01Z</time>
   </trkpt>
   <trkpt lat="-3.0952670" lon="37.3332200">
    <ele>4072.6</ele>
    <time>2026-06-22T05:42:02Z</time>
   </trkpt>
   <trkpt lat="-3.0952640" lon="37.3332190">
    <ele>4072.6</ele>
    <time>2026-06-22T05:42:03Z</time>
   </trkpt>
   <trkpt lat="-3.0952610" lon="37.3332210">
    <ele>4072.7</ele>
    <time>2026-06-22T05:42:04Z</time>
   </trkpt>
   <trkpt lat="-3.0952560" lon="37.3332250">
    <ele>4072.8</ele>
    <time>2026-06-22T05:42:05Z</time>
   </trkpt>
   <trkpt lat="-3.0952550" lon="37.3332250">
    <ele>4072.9</ele>
    <time>2026-06-22T05:42:06Z</time>
   </trkpt>
   <trkpt lat="-3.0952520" lon="37.3332290">
    <ele>4073.0</ele>
    <time>2026-06-22T05:42:07Z</time>
   </trkpt>
   <trkpt lat="-3.0952500" lon="37.3332310">
    <ele>4073.0</ele>
    <time>2026-06-22T05:42:08Z</time>
   </trkpt>
   <trkpt lat="-3.0952490" lon="37.3332340">
    <ele>4073.1</ele>
    <time>2026-06-22T05:42:09Z</time>
   </trkpt>
   <trkpt lat="-3.0952490" lon="37.3332380">
    <ele>4073.2</ele>
    <time>2026-06-22T05:42:10Z</time>
   </trkpt>
   <trkpt lat="-3.0952500" lon="37.3332400">
    <ele>4073.2</ele>
    <time>2026-06-22T05:42:11Z</time>
   </trkpt>
   <trkpt lat="-3.0952480" lon="37.3332430">
    <ele>4073.3</ele>
    <time>2026-06-22T05:42:12Z</time>
   </trkpt>
   <trkpt lat="-3.0952470" lon="37.3332490">
    <ele>4073.5</ele>
    <time>2026-06-22T05:42:13Z</time>
   </trkpt>
   <trkpt lat="-3.0952430" lon="37.3332510">
    <ele>4073.6</ele>
    <time>2026-06-22T05:42:14Z</time>
   </trkpt>
   <trkpt lat="-3.0952400" lon="37.3332560">
    <ele>4073.7</ele>
    <time>2026-06-22T05:42:15Z</time>
   </trkpt>
   <trkpt lat="-3.0952370" lon="37.3332600">
    <ele>4073.8</ele>
    <time>2026-06-22T05:42:16Z</time>
   </trkpt>
   <trkpt lat="-3.0952380" lon="37.3332590">
    <ele>4073.8</ele>
    <time>2026-06-22T05:42:17Z</time>
   </trkpt>
   <trkpt lat="-3.0952370" lon="37.3332600">
    <ele>4073.9</ele>
    <time>2026-06-22T05:42:18Z</time>
   </trkpt>
   <trkpt lat="-3.0952350" lon="37.3332660">
    <ele>4074.0</ele>
    <time>2026-06-22T05:42:19Z</time>
   </trkpt>
   <trkpt lat="-3.0952340" lon="37.3332680">
    <ele>4074.0</ele>
    <time>2026-06-22T05:42:20Z</time>
   </trkpt>
   <trkpt lat="-3.0952330" lon="37.3332730">
    <ele>4074.2</ele>
    <time>2026-06-22T05:42:21Z</time>
   </trkpt>
   <trkpt lat="-3.0952350" lon="37.3332750">
    <ele>4074.2</ele>
    <time>2026-06-22T05:42:22Z</time>
   </trkpt>
   <trkpt lat="-3.0952350" lon="37.3332740">
    <ele>4074.2</ele>
    <time>2026-06-22T05:42:23Z</time>
   </trkpt>
   <trkpt lat="-3.0952340" lon="37.3332750">
    <ele>4074.3</ele>
    <time>2026-06-22T05:42:24Z</time>
   </trkpt>
   <trkpt lat="-3.0952330" lon="37.3332780">
    <ele>4074.3</ele>
    <time>2026-06-22T05:42:25Z</time>
   </trkpt>
   <trkpt lat="-3.0952350" lon="37.3332780">
    <ele>4074.4</ele>
    <time>2026-06-22T05:42:26Z</time>
   </trkpt>
   <trkpt lat="-3.0952350" lon="37.3332820">
    <ele>4074.5</ele>
    <time>2026-06-22T05:42:27Z</time>
   </trkpt>
   <trkpt lat="-3.0952360" lon="37.3332820">
    <ele>4074.5</ele>
    <time>2026-06-22T05:42:28Z</time>
   </trkpt>
   <trkpt lat="-3.0952340" lon="37.3332830">
    <ele>4074.5</ele>
    <time>2026-06-22T05:42:29Z</time>
   </trkpt>
   <trkpt lat="-3.0952310" lon="37.3332840">
    <ele>4074.6</ele>
    <time>2026-06-22T05:42:30Z</time>
   </trkpt>
   <trkpt lat="-3.0952300" lon="37.3332840">
    <ele>4074.6</ele>
    <time>2026-06-22T05:42:31Z</time>
   </trkpt>
   <trkpt lat="-3.0952300" lon="37.3332870">
    <ele>4074.7</ele>
    <time>2026-06-22T05:42:32Z</time>
   </trkpt>
   <trkpt lat="-3.0952300" lon="37.3332870">
    <ele>4074.7</ele>
    <time>2026-06-22T05:42:33Z</time>
   </trkpt>
   <trkpt lat="-3.0952310" lon="37.3332880">
    <ele>4074.7</ele>
    <time>2026-06-22T05:42:34Z</time>
   </trkpt>
   <trkpt lat="-3.0952280" lon="37.3332900">
    <ele>4074.8</ele>
    <time>2026-06-22T05:42:35Z</time>
   </trkpt>
   <trkpt lat="-3.0952290" lon="37.3332930">
    <ele>4074.9</ele>
    <time>2026-06-22T05:42:36Z</time>
   </trkpt>
   <trkpt lat="-3.0952290" lon="37.3333000">
    <ele>4075.0</ele>
    <time>2026-06-22T05:42:37Z</time>
   </trkpt>
   <trkpt lat="-3.0952410" lon="37.3332990">
    <ele>4075.3</ele>
    <time>2026-06-22T05:42:38Z</time>
   </trkpt>
   <trkpt lat="-3.0952290" lon="37.3333040">
    <ele>4075.6</ele>
    <time>2026-06-22T05:42:39Z</time>
   </trkpt>
   <trkpt lat="-3.0952250" lon="37.3333060">
    <ele>4075.7</ele>
    <time>2026-06-22T05:42:40Z</time>
   </trkpt>
   <trkpt lat="-3.0952210" lon="37.3333100">
    <ele>4075.8</ele>
    <time>2026-06-22T05:42:41Z</time>
   </trkpt>
   <trkpt lat="-3.0952220" lon="37.3333100">
    <ele>4075.8</ele>
    <time>2026-06-22T05:42:42Z</time>
   </trkpt>
   <trkpt lat="-3.0952180" lon="37.3333130">
    <ele>4075.9</ele>
    <time>2026-06-22T05:42:43Z</time>
   </trkpt>
   <trkpt lat="-3.0952160" lon="37.3333150">
    <ele>4076.0</ele>
    <time>2026-06-22T05:42:44Z</time>
   </trkpt>
   <trkpt lat="-3.0952140" lon="37.3333200">
    <ele>4076.1</ele>
    <time>2026-06-22T05:42:46Z</time>
   </trkpt>
   <trkpt lat="-3.0952180" lon="37.3333220">
    <ele>4076.2</ele>
    <time>2026-06-22T05:42:47Z</time>
   </trkpt>
   <trkpt lat="-3.0952160" lon="37.3333260">
    <ele>4076.3</ele>
    <time>2026-06-22T05:42:48Z</time>
   </trkpt>
   <trkpt lat="-3.0952170" lon="37.3333290">
    <ele>4076.4</ele>
    <time>2026-06-22T05:42:49Z</time>
   </trkpt>
   <trkpt lat="-3.0952160" lon="37.3333290">
    <ele>4076.4</ele>
    <time>2026-06-22T05:42:50Z</time>
   </trkpt>
   <trkpt lat="-3.0952160" lon="37.3333280">
    <ele>4076.4</ele>
    <time>2026-06-22T05:42:51Z</time>
   </trkpt>
   <trkpt lat="-3.0952170" lon="37.3333310">
    <ele>4076.5</ele>
    <time>2026-06-22T05:42:52Z</time>
   </trkpt>
   <trkpt lat="-3.0952180" lon="37.3333330">
    <ele>4076.5</ele>
    <time>2026-06-22T05:42:53Z</time>
   </trkpt>
   <trkpt lat="-3.0952170" lon="37.3333330">
    <ele>4076.6</ele>
    <time>2026-06-22T05:42:54Z</time>
   </trkpt>
   <trkpt lat="-3.0952190" lon="37.3333350">
    <ele>4076.6</ele>
    <time>2026-06-22T05:42:55Z</time>
   </trkpt>
   <trkpt lat="-3.0952160" lon="37.3333450">
    <ele>4076.9</ele>
    <time>2026-06-22T05:42:56Z</time>
   </trkpt>
   <trkpt lat="-3.0952180" lon="37.3333420">
    <ele>4076.9</ele>
    <time>2026-06-22T05:42:57Z</time>
   </trkpt>
   <trkpt lat="-3.0952150" lon="37.3333470">
    <ele>4077.1</ele>
    <time>2026-06-22T05:42:58Z</time>
   </trkpt>
   <trkpt lat="-3.0952120" lon="37.3333510">
    <ele>4077.2</ele>
    <time>2026-06-22T05:42:59Z</time>
   </trkpt>
   <trkpt lat="-3.0952090" lon="37.3333530">
    <ele>4077.2</ele>
    <time>2026-06-22T05:43:00Z</time>
   </trkpt>
   <trkpt lat="-3.0952110" lon="37.3333520">
    <ele>4077.3</ele>
    <time>2026-06-22T05:43:01Z</time>
   </trkpt>
   <trkpt lat="-3.0952070" lon="37.3333560">
    <ele>4077.4</ele>
    <time>2026-06-22T05:43:02Z</time>
   </trkpt>
   <trkpt lat="-3.0952060" lon="37.3333580">
    <ele>4077.5</ele>
    <time>2026-06-22T05:43:03Z</time>
   </trkpt>
   <trkpt lat="-3.0952020" lon="37.3333620">
    <ele>4077.6</ele>
    <time>2026-06-22T05:43:04Z</time>
   </trkpt>
   <trkpt lat="-3.0951980" lon="37.3333630">
    <ele>4077.7</ele>
    <time>2026-06-22T05:43:05Z</time>
   </trkpt>
   <trkpt lat="-3.0951950" lon="37.3333660">
    <ele>4077.8</ele>
    <time>2026-06-22T05:43:06Z</time>
   </trkpt>
   <trkpt lat="-3.0951960" lon="37.3333690">
    <ele>4077.8</ele>
    <time>2026-06-22T05:43:07Z</time>
   </trkpt>
   <trkpt lat="-3.0951950" lon="37.3333720">
    <ele>4077.9</ele>
    <time>2026-06-22T05:43:08Z</time>
   </trkpt>
   <trkpt lat="-3.0951970" lon="37.3333740">
    <ele>4078.0</ele>
    <time>2026-06-22T05:43:09Z</time>
   </trkpt>
   <trkpt lat="-3.0952000" lon="37.3333730">
    <ele>4078.0</ele>
    <time>2026-06-22T05:43:10Z</time>
   </trkpt>
   <trkpt lat="-3.0951980" lon="37.3333770">
    <ele>4078.1</ele>
    <time>2026-06-22T05:43:11Z</time>
   </trkpt>
   <trkpt lat="-3.0952000" lon="37.3333800">
    <ele>4078.2</ele>
    <time>2026-06-22T05:43:12Z</time>
   </trkpt>
   <trkpt lat="-3.0951990" lon="37.3333850">
    <ele>4078.3</ele>
    <time>2026-06-22T05:43:13Z</time>
   </trkpt>
   <trkpt lat="-3.0951970" lon="37.3333850">
    <ele>4078.4</ele>
    <time>2026-06-22T05:43:14Z</time>
   </trkpt>
   <trkpt lat="-3.0951960" lon="37.3333910">
    <ele>4078.5</ele>
    <time>2026-06-22T05:43:15Z</time>
   </trkpt>
   <trkpt lat="-3.0951960" lon="37.3333970">
    <ele>4078.6</ele>
    <time>2026-06-22T05:43:16Z</time>
   </trkpt>
   <trkpt lat="-3.0951950" lon="37.3334010">
    <ele>4078.7</ele>
    <time>2026-06-22T05:43:17Z</time>
   </trkpt>
   <trkpt lat="-3.0951960" lon="37.3334010">
    <ele>4078.8</ele>
    <time>2026-06-22T05:43:18Z</time>
   </trkpt>
   <trkpt lat="-3.0952000" lon="37.3334060">
    <ele>4078.9</ele>
    <time>2026-06-22T05:43:19Z</time>
   </trkpt>
   <trkpt lat="-3.0952020" lon="37.3334120">
    <ele>4079.0</ele>
    <time>2026-06-22T05:43:20Z</time>
   </trkpt>
   <trkpt lat="-3.0952010" lon="37.3334100">
    <ele>4079.1</ele>
    <time>2026-06-22T05:43:21Z</time>
   </trkpt>
   <trkpt lat="-3.0952070" lon="37.3334160">
    <ele>4079.3</ele>
    <time>2026-06-22T05:43:22Z</time>
   </trkpt>
   <trkpt lat="-3.0952100" lon="37.3334130">
    <ele>4079.4</ele>
    <time>2026-06-22T05:43:23Z</time>
   </trkpt>
   <trkpt lat="-3.0952160" lon="37.3334170">
    <ele>4079.5</ele>
    <time>2026-06-22T05:43:24Z</time>
   </trkpt>
   <trkpt lat="-3.0952180" lon="37.3334140">
    <ele>4079.6</ele>
    <time>2026-06-22T05:43:25Z</time>
   </trkpt>
   <trkpt lat="-3.0952240" lon="37.3334160">
    <ele>4079.7</ele>
    <time>2026-06-22T05:43:26Z</time>
   </trkpt>
   <trkpt lat="-3.0952320" lon="37.3334140">
    <ele>4079.9</ele>
    <time>2026-06-22T05:43:27Z</time>
   </trkpt>
   <trkpt lat="-3.0952370" lon="37.3334130">
    <ele>4080.0</ele>
    <time>2026-06-22T05:43:28Z</time>
   </trkpt>
   <trkpt lat="-3.0952430" lon="37.3334130">
    <ele>4080.2</ele>
    <time>2026-06-22T05:43:29Z</time>
   </trkpt>
   <trkpt lat="-3.0952450" lon="37.3334140">
    <ele>4080.2</ele>
    <time>2026-06-22T05:43:30Z</time>
   </trkpt>
   <trkpt lat="-3.0952510" lon="37.3334170">
    <ele>4080.4</ele>
    <time>2026-06-22T05:43:31Z</time>
   </trkpt>
   <trkpt lat="-3.0952520" lon="37.3334160">
    <ele>4080.4</ele>
    <time>2026-06-22T05:43:32Z</time>
   </trkpt>
   <trkpt lat="-3.0952530" lon="37.3334150">
    <ele>4080.4</ele>
    <time>2026-06-22T05:43:33Z</time>
   </trkpt>
   <trkpt lat="-3.0952560" lon="37.3334190">
    <ele>4080.5</ele>
    <time>2026-06-22T05:43:34Z</time>
   </trkpt>
   <trkpt lat="-3.0952570" lon="37.3334190">
    <ele>4080.6</ele>
    <time>2026-06-22T05:43:35Z</time>
   </trkpt>
   <trkpt lat="-3.0952590" lon="37.3334210">
    <ele>4080.6</ele>
    <time>2026-06-22T05:43:36Z</time>
   </trkpt>
   <trkpt lat="-3.0952580" lon="37.3334260">
    <ele>4080.7</ele>
    <time>2026-06-22T05:43:37Z</time>
   </trkpt>
   <trkpt lat="-3.0952570" lon="37.3334270">
    <ele>4080.8</ele>
    <time>2026-06-22T05:43:38Z</time>
   </trkpt>
   <trkpt lat="-3.0952550" lon="37.3334250">
    <ele>4080.8</ele>
    <time>2026-06-22T05:43:39Z</time>
   </trkpt>
   <trkpt lat="-3.0952590" lon="37.3334300">
    <ele>4081.0</ele>
    <time>2026-06-22T05:43:40Z</time>
   </trkpt>
   <trkpt lat="-3.0952640" lon="37.3334350">
    <ele>4081.1</ele>
    <time>2026-06-22T05:43:41Z</time>
   </trkpt>
   <trkpt lat="-3.0952640" lon="37.3334370">
    <ele>4081.2</ele>
    <time>2026-06-22T05:43:42Z</time>
   </trkpt>
   <trkpt lat="-3.0952640" lon="37.3334410">
    <ele>4081.2</ele>
    <time>2026-06-22T05:43:43Z</time>
   </trkpt>
   <trkpt lat="-3.0952590" lon="37.3334500">
    <ele>4081.5</ele>
    <time>2026-06-22T05:43:44Z</time>
   </trkpt>
   <trkpt lat="-3.0952600" lon="37.3334480">
    <ele>4081.5</ele>
    <time>2026-06-22T05:43:45Z</time>
   </trkpt>
   <trkpt lat="-3.0952560" lon="37.3334560">
    <ele>4081.7</ele>
    <time>2026-06-22T05:43:46Z</time>
   </trkpt>
   <trkpt lat="-3.0952560" lon="37.3334600">
    <ele>4081.8</ele>
    <time>2026-06-22T05:43:47Z</time>
   </trkpt>
   <trkpt lat="-3.0952560" lon="37.3334610">
    <ele>4081.8</ele>
    <time>2026-06-22T05:43:48Z</time>
   </trkpt>
   <trkpt lat="-3.0952570" lon="37.3334610">
    <ele>4081.8</ele>
    <time>2026-06-22T05:43:49Z</time>
   </trkpt>
   <trkpt lat="-3.0952580" lon="37.3334640">
    <ele>4081.9</ele>
    <time>2026-06-22T05:43:50Z</time>
   </trkpt>
   <trkpt lat="-3.0952590" lon="37.3334680">
    <ele>4082.0</ele>
    <time>2026-06-22T05:43:51Z</time>
   </trkpt>
   <trkpt lat="-3.0952620" lon="37.3334670">
    <ele>4082.1</ele>
    <time>2026-06-22T05:43:52Z</time>
   </trkpt>
   <trkpt lat="-3.0952650" lon="37.3334700">
    <ele>4082.2</ele>
    <time>2026-06-22T05:43:53Z</time>
   </trkpt>
   <trkpt lat="-3.0952680" lon="37.3334690">
    <ele>4082.2</ele>
    <time>2026-06-22T05:43:54Z</time>
   </trkpt>
   <trkpt lat="-3.0952720" lon="37.3334730">
    <ele>4082.4</ele>
    <time>2026-06-22T05:43:55Z</time>
   </trkpt>
   <trkpt lat="-3.0952750" lon="37.3334730">
    <ele>4082.4</ele>
    <time>2026-06-22T05:43:56Z</time>
   </trkpt>
   <trkpt lat="-3.0952750" lon="37.3334740">
    <ele>4082.5</ele>
    <time>2026-06-22T05:43:57Z</time>
   </trkpt>
   <trkpt lat="-3.0952750" lon="37.3334730">
    <ele>4082.5</ele>
    <time>2026-06-22T05:43:58Z</time>
   </trkpt>
   <trkpt lat="-3.0952750" lon="37.3334730">
    <ele>4082.5</ele>
    <time>2026-06-22T05:43:59Z</time>
   </trkpt>
   <trkpt lat="-3.0952730" lon="37.3334740">
    <ele>4082.5</ele>
    <time>2026-06-22T05:44:00Z</time>
   </trkpt>
   <trkpt lat="-3.0952730" lon="37.3334780">
    <ele>4082.6</ele>
    <time>2026-06-22T05:44:01Z</time>
   </trkpt>
   <trkpt lat="-3.0952730" lon="37.3334820">
    <ele>4082.7</ele>
    <time>2026-06-22T05:44:02Z</time>
   </trkpt>
   <trkpt lat="-3.0952700" lon="37.3334890">
    <ele>4082.9</ele>
    <time>2026-06-22T05:44:03Z</time>
   </trkpt>
   <trkpt lat="-3.0952680" lon="37.3334900">
    <ele>4082.9</ele>
    <time>2026-06-22T05:44:04Z</time>
   </trkpt>
   <trkpt lat="-3.0952670" lon="37.3334900">
    <ele>4083.0</ele>
    <time>2026-06-22T05:44:05Z</time>
   </trkpt>
   <trkpt lat="-3.0952650" lon="37.3334900">
    <ele>4083.0</ele>
    <time>2026-06-22T05:44:06Z</time>
   </trkpt>
   <trkpt lat="-3.0952640" lon="37.3334900">
    <ele>4083.0</ele>
    <time>2026-06-22T05:44:07Z</time>
   </trkpt>
   <trkpt lat="-3.0952620" lon="37.3334910">
    <ele>4083.1</ele>
    <time>2026-06-22T05:44:08Z</time>
   </trkpt>
   <trkpt lat="-3.0952610" lon="37.3334910">
    <ele>4083.1</ele>
    <time>2026-06-22T05:44:09Z</time>
   </trkpt>
   <trkpt lat="-3.0952590" lon="37.3334920">
    <ele>4083.1</ele>
    <time>2026-06-22T05:44:10Z</time>
   </trkpt>
   <trkpt lat="-3.0952600" lon="37.3334920">
    <ele>4083.2</ele>
    <time>2026-06-22T05:44:11Z</time>
   </trkpt>
   <trkpt lat="-3.0952550" lon="37.3334960">
    <ele>4083.3</ele>
    <time>2026-06-22T05:44:12Z</time>
   </trkpt>
   <trkpt lat="-3.0952540" lon="37.3334980">
    <ele>4083.4</ele>
    <time>2026-06-22T05:44:13Z</time>
   </trkpt>
   <trkpt lat="-3.0952530" lon="37.3335000">
    <ele>4083.4</ele>
    <time>2026-06-22T05:44:14Z</time>
   </trkpt>
   <trkpt lat="-3.0952520" lon="37.3335010">
    <ele>4083.4</ele>
    <time>2026-06-22T05:44:15Z</time>
   </trkpt>
   <trkpt lat="-3.0952500" lon="37.3335040">
    <ele>4083.5</ele>
    <time>2026-06-22T05:44:16Z</time>
   </trkpt>
   <trkpt lat="-3.0952490" lon="37.3335040">
    <ele>4083.5</ele>
    <time>2026-06-22T05:44:17Z</time>
   </trkpt>
   <trkpt lat="-3.0952480" lon="37.3335070">
    <ele>4083.6</ele>
    <time>2026-06-22T05:44:18Z</time>
   </trkpt>
   <trkpt lat="-3.0952470" lon="37.3335100">
    <ele>4083.7</ele>
    <time>2026-06-22T05:44:19Z</time>
   </trkpt>
   <trkpt lat="-3.0952480" lon="37.3335110">
    <ele>4083.7</ele>
    <time>2026-06-22T05:44:20Z</time>
   </trkpt>
   <trkpt lat="-3.0952480" lon="37.3335090">
    <ele>4083.8</ele>
    <time>2026-06-22T05:44:21Z</time>
   </trkpt>
   <trkpt lat="-3.0952470" lon="37.3335110">
    <ele>4083.8</ele>
    <time>2026-06-22T05:44:22Z</time>
   </trkpt>
   <trkpt lat="-3.0952450" lon="37.3335140">
    <ele>4083.9</ele>
    <time>2026-06-22T05:44:23Z</time>
   </trkpt>
   <trkpt lat="-3.0952420" lon="37.3335160">
    <ele>4084.0</ele>
    <time>2026-06-22T05:44:24Z</time>
   </trkpt>
   <trkpt lat="-3.0952380" lon="37.3335180">
    <ele>4084.1</ele>
    <time>2026-06-22T05:44:25Z</time>
   </trkpt>
   <trkpt lat="-3.0952360" lon="37.3335180">
    <ele>4084.1</ele>
    <time>2026-06-22T05:44:26Z</time>
   </trkpt>
   <trkpt lat="-3.0952350" lon="37.3335170">
    <ele>4084.2</ele>
    <time>2026-06-22T05:44:27Z</time>
   </trkpt>
   <trkpt lat="-3.0952310" lon="37.3335170">
    <ele>4084.2</ele>
    <time>2026-06-22T05:44:28Z</time>
   </trkpt>
   <trkpt lat="-3.0952330" lon="37.3335170">
    <ele>4084.3</ele>
    <time>2026-06-22T05:44:29Z</time>
   </trkpt>
   <trkpt lat="-3.0952310" lon="37.3335180">
    <ele>4084.3</ele>
    <time>2026-06-22T05:44:30Z</time>
   </trkpt>
   <trkpt lat="-3.0952280" lon="37.3335220">
    <ele>4084.5</ele>
    <time>2026-06-22T05:44:31Z</time>
   </trkpt>
   <trkpt lat="-3.0952280" lon="37.3335250">
    <ele>4084.5</ele>
    <time>2026-06-22T05:44:32Z</time>
   </trkpt>
   <trkpt lat="-3.0952260" lon="37.3335260">
    <ele>4084.6</ele>
    <time>2026-06-22T05:44:33Z</time>
   </trkpt>
   <trkpt lat="-3.0952220" lon="37.3335270">
    <ele>4084.7</ele>
    <time>2026-06-22T05:44:34Z</time>
   </trkpt>
   <trkpt lat="-3.0952210" lon="37.3335300">
    <ele>4084.7</ele>
    <time>2026-06-22T05:44:35Z</time>
   </trkpt>
   <trkpt lat="-3.0952210" lon="37.3335340">
    <ele>4084.8</ele>
    <time>2026-06-22T05:44:36Z</time>
   </trkpt>
   <trkpt lat="-3.0952190" lon="37.3335400">
    <ele>4085.0</ele>
    <time>2026-06-22T05:44:37Z</time>
   </trkpt>
   <trkpt lat="-3.0952180" lon="37.3335420">
    <ele>4085.0</ele>
    <time>2026-06-22T05:44:38Z</time>
   </trkpt>
   <trkpt lat="-3.0952190" lon="37.3335430">
    <ele>4085.1</ele>
    <time>2026-06-22T05:44:39Z</time>
   </trkpt>
   <trkpt lat="-3.0952170" lon="37.3335500">
    <ele>4085.2</ele>
    <time>2026-06-22T05:44:40Z</time>
   </trkpt>
   <trkpt lat="-3.0952160" lon="37.3335480">
    <ele>4085.3</ele>
    <time>2026-06-22T05:44:41Z</time>
   </trkpt>
   <trkpt lat="-3.0952120" lon="37.3335540">
    <ele>4085.4</ele>
    <time>2026-06-22T05:44:42Z</time>
   </trkpt>
   <trkpt lat="-3.0952080" lon="37.3335570">
    <ele>4085.5</ele>
    <time>2026-06-22T05:44:43Z</time>
   </trkpt>
   <trkpt lat="-3.0952060" lon="37.3335580">
    <ele>4085.6</ele>
    <time>2026-06-22T05:44:44Z</time>
   </trkpt>
   <trkpt lat="-3.0952060" lon="37.3335600">
    <ele>4085.6</ele>
    <time>2026-06-22T05:44:45Z</time>
   </trkpt>
   <trkpt lat="-3.0952020" lon="37.3335610">
    <ele>4085.7</ele>
    <time>2026-06-22T05:44:46Z</time>
   </trkpt>
   <trkpt lat="-3.0951990" lon="37.3335630">
    <ele>4085.8</ele>
    <time>2026-06-22T05:44:47Z</time>
   </trkpt>
   <trkpt lat="-3.0951950" lon="37.3335640">
    <ele>4085.9</ele>
    <time>2026-06-22T05:44:48Z</time>
   </trkpt>
   <trkpt lat="-3.0951900" lon="37.3335690">
    <ele>4086.1</ele>
    <time>2026-06-22T05:44:49Z</time>
   </trkpt>
   <trkpt lat="-3.0951810" lon="37.3335750">
    <ele>4086.3</ele>
    <time>2026-06-22T05:44:50Z</time>
   </trkpt>
   <trkpt lat="-3.0951860" lon="37.3335710">
    <ele>4086.5</ele>
    <time>2026-06-22T05:44:52Z</time>
   </trkpt>
   <trkpt lat="-3.0951860" lon="37.3335730">
    <ele>4086.5</ele>
    <time>2026-06-22T05:44:53Z</time>
   </trkpt>
   <trkpt lat="-3.0951870" lon="37.3335730">
    <ele>4086.5</ele>
    <time>2026-06-22T05:44:54Z</time>
   </trkpt>
   <trkpt lat="-3.0951880" lon="37.3335720">
    <ele>4086.6</ele>
    <time>2026-06-22T05:44:55Z</time>
   </trkpt>
   <trkpt lat="-3.0951910" lon="37.3335730">
    <ele>4086.6</ele>
    <time>2026-06-22T05:44:56Z</time>
   </trkpt>
   <trkpt lat="-3.0951910" lon="37.3335730">
    <ele>4086.6</ele>
    <time>2026-06-22T05:44:57Z</time>
   </trkpt>
   <trkpt lat="-3.0951910" lon="37.3335730">
    <ele>4086.6</ele>
    <time>2026-06-22T05:44:58Z</time>
   </trkpt>
   <trkpt lat="-3.0951910" lon="37.3335730">
    <ele>4086.6</ele>
    <time>2026-06-22T05:44:59Z</time>
   </trkpt>
   <trkpt lat="-3.0951910" lon="37.3335730">
    <ele>4086.6</ele>
    <time>2026-06-22T05:45:00Z</time>
   </trkpt>
   <trkpt lat="-3.0951970" lon="37.3335750">
    <ele>4086.8</ele>
    <time>2026-06-22T05:45:01Z</time>
   </trkpt>
   <trkpt lat="-3.0951970" lon="37.3335760">
    <ele>4086.8</ele>
    <time>2026-06-22T05:45:02Z</time>
   </trkpt>
   <trkpt lat="-3.0951980" lon="37.3335770">
    <ele>4086.8</ele>
    <time>2026-06-22T05:45:03Z</time>
   </trkpt>
   <trkpt lat="-3.0951990" lon="37.3335770">
    <ele>4086.8</ele>
    <time>2026-06-22T05:45:04Z</time>
   </trkpt>
   <trkpt lat="-3.0952010" lon="37.3335750">
    <ele>4086.9</ele>
    <time>2026-06-22T05:45:05Z</time>
   </trkpt>
   <trkpt lat="-3.0952010" lon="37.3335750">
    <ele>4086.9</ele>
    <time>2026-06-22T05:45:06Z</time>
   </trkpt>
   <trkpt lat="-3.0952010" lon="37.3335750">
    <ele>4086.9</ele>
    <time>2026-06-22T05:45:07Z</time>
   </trkpt>
   <trkpt lat="-3.0952040" lon="37.3335750">
    <ele>4087.0</ele>
    <time>2026-06-22T05:45:08Z</time>
   </trkpt>
   <trkpt lat="-3.0952050" lon="37.3335740">
    <ele>4087.0</ele>
    <time>2026-06-22T05:45:09Z</time>
   </trkpt>
   <trkpt lat="-3.0952040" lon="37.3335770">
    <ele>4087.1</ele>
    <time>2026-06-22T05:45:10Z</time>
   </trkpt>
   <trkpt lat="-3.0952040" lon="37.3335760">
    <ele>4087.1</ele>
    <time>2026-06-22T05:45:11Z</time>
   </trkpt>
   <trkpt lat="-3.0952030" lon="37.3335760">
    <ele>4087.1</ele>
    <time>2026-06-22T05:45:12Z</time>
   </trkpt>
   <trkpt lat="-3.0952020" lon="37.3335750">
    <ele>4087.2</ele>
    <time>2026-06-22T05:45:13Z</time>
   </trkpt>
   <trkpt lat="-3.0952020" lon="37.3335750">
    <ele>4087.2</ele>
    <time>2026-06-22T05:45:14Z</time>
   </trkpt>
   <trkpt lat="-3.0952030" lon="37.3335740">
    <ele>4087.2</ele>
    <time>2026-06-22T05:45:15Z</time>
   </trkpt>
   <trkpt lat="-3.0952040" lon="37.3335740">
    <ele>4087.2</ele>
    <time>2026-06-22T05:45:16Z</time>
   </trkpt>
   <trkpt lat="-3.0952040" lon="37.3335730">
    <ele>4087.2</ele>
    <time>2026-06-22T05:45:17Z</time>
   </trkpt>
   <trkpt lat="-3.0952040" lon="37.3335730">
    <ele>4087.2</ele>
    <time>2026-06-22T05:45:18Z</time>
   </trkpt>
   <trkpt lat="-3.0952040" lon="37.3335730">
    <ele>4087.2</ele>
    <time>2026-06-22T05:45:19Z</time>
   </trkpt>
   <trkpt lat="-3.0952040" lon="37.3335730">
    <ele>4087.2</ele>
    <time>2026-06-22T05:45:20Z</time>
   </trkpt>
   <trkpt lat="-3.0952040" lon="37.3335730">
    <ele>4087.2</ele>
    <time>2026-06-22T05:45:21Z</time>
   </trkpt>
   <trkpt lat="-3.0952060" lon="37.3335730">
    <ele>4087.3</ele>
    <time>2026-06-22T05:45:22Z</time>
   </trkpt>
   <trkpt lat="-3.0952060" lon="37.3335730">
    <ele>4087.3</ele>
    <time>2026-06-22T05:45:23Z</time>
   </trkpt>
   <trkpt lat="-3.0952060" lon="37.3335730">
    <ele>4087.3</ele>
    <time>2026-06-22T05:45:24Z</time>
   </trkpt>
   <trkpt lat="-3.0952060" lon="37.3335730">
    <ele>4087.3</ele>
    <time>2026-06-22T05:45:25Z</time>
   </trkpt>
   <trkpt lat="-3.0952050" lon="37.3335720">
    <ele>4087.3</ele>
    <time>2026-06-22T05:45:26Z</time>
   </trkpt>
   <trkpt lat="-3.0952050" lon="37.3335720">
    <ele>4087.3</ele>
    <time>2026-06-22T05:45:27Z</time>
   </trkpt>
   <trkpt lat="-3.0952040" lon="37.3335740">
    <ele>4087.4</ele>
    <time>2026-06-22T05:45:28Z</time>
   </trkpt>
   <trkpt lat="-3.0952050" lon="37.3335730">
    <ele>4087.4</ele>
    <time>2026-06-22T05:45:29Z</time>
   </trkpt>
   <trkpt lat="-3.0952040" lon="37.3335740">
    <ele>4087.4</ele>
    <time>2026-06-22T05:45:30Z</time>
   </trkpt>
   <trkpt lat="-3.0952050" lon="37.3335740">
    <ele>4087.4</ele>
    <time>2026-06-22T05:45:31Z</time>
   </trkpt>
   <trkpt lat="-3.0952050" lon="37.3335740">
    <ele>4087.4</ele>
    <time>2026-06-22T05:45:32Z</time>
   </trkpt>
   <trkpt lat="-3.0952070" lon="37.3335740">
    <ele>4087.5</ele>
    <time>2026-06-22T05:45:33Z</time>
   </trkpt>
   <trkpt lat="-3.0952050" lon="37.3335740">
    <ele>4087.5</ele>
    <time>2026-06-22T05:45:34Z</time>
   </trkpt>
   <trkpt lat="-3.0952040" lon="37.3335740">
    <ele>4087.6</ele>
    <time>2026-06-22T05:45:35Z</time>
   </trkpt>
   <trkpt lat="-3.0952050" lon="37.3335730">
    <ele>4087.6</ele>
    <time>2026-06-22T05:45:36Z</time>
   </trkpt>
   <trkpt lat="-3.0952050" lon="37.3335730">
    <ele>4087.6</ele>
    <time>2026-06-22T05:45:37Z</time>
   </trkpt>
   <trkpt lat="-3.0952030" lon="37.3335740">
    <ele>4087.6</ele>
    <time>2026-06-22T05:45:38Z</time>
   </trkpt>
   <trkpt lat="-3.0952040" lon="37.3335750">
    <ele>4087.7</ele>
    <time>2026-06-22T05:45:39Z</time>
   </trkpt>
   <trkpt lat="-3.0952030" lon="37.3335760">
    <ele>4087.7</ele>
    <time>2026-06-22T05:45:40Z</time>
   </trkpt>
   <trkpt lat="-3.0952030" lon="37.3335780">
    <ele>4087.8</ele>
    <time>2026-06-22T05:45:41Z</time>
   </trkpt>
   <trkpt lat="-3.0952030" lon="37.3335770">
    <ele>4087.8</ele>
    <time>2026-06-22T05:45:42Z</time>
   </trkpt>
   <trkpt lat="-3.0952020" lon="37.3335780">
    <ele>4087.8</ele>
    <time>2026-06-22T05:45:43Z</time>
   </trkpt>
   <trkpt lat="-3.0952030" lon="37.3335810">
    <ele>4087.9</ele>
    <time>2026-06-22T05:45:44Z</time>
   </trkpt>
   <trkpt lat="-3.0952050" lon="37.3335790">
    <ele>4087.9</ele>
    <time>2026-06-22T05:45:45Z</time>
   </trkpt>
   <trkpt lat="-3.0952050" lon="37.3335790">
    <ele>4087.9</ele>
    <time>2026-06-22T05:45:46Z</time>
   </trkpt>
   <trkpt lat="-3.0952060" lon="37.3335810">
    <ele>4088.0</ele>
    <time>2026-06-22T05:45:47Z</time>
   </trkpt>
   <trkpt lat="-3.0952050" lon="37.3335810">
    <ele>4088.0</ele>
    <time>2026-06-22T05:45:48Z</time>
   </trkpt>
   <trkpt lat="-3.0952030" lon="37.3335850">
    <ele>4088.1</ele>
    <time>2026-06-22T05:45:49Z</time>
   </trkpt>
   <trkpt lat="-3.0952010" lon="37.3335910">
    <ele>4088.3</ele>
    <time>2026-06-22T05:45:50Z</time>
   </trkpt>
   <trkpt lat="-3.0952010" lon="37.3335910">
    <ele>4088.3</ele>
    <time>2026-06-22T05:45:51Z</time>
   </trkpt>
   <trkpt lat="-3.0951980" lon="37.3335930">
    <ele>4088.3</ele>
    <time>2026-06-22T05:45:52Z</time>
   </trkpt>
   <trkpt lat="-3.0951980" lon="37.3335980">
    <ele>4088.5</ele>
    <time>2026-06-22T05:45:53Z</time>
   </trkpt>
   <trkpt lat="-3.0952000" lon="37.3335950">
    <ele>4088.5</ele>
    <time>2026-06-22T05:45:54Z</time>
   </trkpt>
   <trkpt lat="-3.0951990" lon="37.3335960">
    <ele>4088.6</ele>
    <time>2026-06-22T05:45:55Z</time>
   </trkpt>
   <trkpt lat="-3.0952000" lon="37.3335960">
    <ele>4088.6</ele>
    <time>2026-06-22T05:45:56Z</time>
   </trkpt>
   <trkpt lat="-3.0951990" lon="37.3335970">
    <ele>4088.6</ele>
    <time>2026-06-22T05:45:57Z</time>
   </trkpt>
   <trkpt lat="-3.0951990" lon="37.3336000">
    <ele>4088.7</ele>
    <time>2026-06-22T05:45:58Z</time>
   </trkpt>
   <trkpt lat="-3.0951990" lon="37.3336000">
    <ele>4088.7</ele>
    <time>2026-06-22T05:45:59Z</time>
   </trkpt>
   <trkpt lat="-3.0952000" lon="37.3336000">
    <ele>4088.7</ele>
    <time>2026-06-22T05:46:00Z</time>
   </trkpt>
   <trkpt lat="-3.0952000" lon="37.3335990">
    <ele>4088.7</ele>
    <time>2026-06-22T05:46:01Z</time>
   </trkpt>
   <trkpt lat="-3.0952010" lon="37.3335990">
    <ele>4088.8</ele>
    <time>2026-06-22T05:46:02Z</time>
   </trkpt>
   <trkpt lat="-3.0952010" lon="37.3335990">
    <ele>4088.8</ele>
    <time>2026-06-22T05:46:03Z</time>
   </trkpt>
   <trkpt lat="-3.0951980" lon="37.3336010">
    <ele>4088.8</ele>
    <time>2026-06-22T05:46:04Z</time>
   </trkpt>
   <trkpt lat="-3.0951970" lon="37.3336030">
    <ele>4088.9</ele>
    <time>2026-06-22T05:46:05Z</time>
   </trkpt>
   <trkpt lat="-3.0951980" lon="37.3336020">
    <ele>4088.9</ele>
    <time>2026-06-22T05:46:06Z</time>
   </trkpt>
   <trkpt lat="-3.0951970" lon="37.3336020">
    <ele>4088.9</ele>
    <time>2026-06-22T05:46:07Z</time>
   </trkpt>
   <trkpt lat="-3.0951960" lon="37.3336050">
    <ele>4089.0</ele>
    <time>2026-06-22T05:46:08Z</time>
   </trkpt>
   <trkpt lat="-3.0951970" lon="37.3336030">
    <ele>4089.1</ele>
    <time>2026-06-22T05:46:09Z</time>
   </trkpt>
   <trkpt lat="-3.0951990" lon="37.3336060">
    <ele>4089.1</ele>
    <time>2026-06-22T05:46:10Z</time>
   </trkpt>
   <trkpt lat="-3.0951970" lon="37.3336050">
    <ele>4089.2</ele>
    <time>2026-06-22T05:46:11Z</time>
   </trkpt>
   <trkpt lat="-3.0951980" lon="37.3336030">
    <ele>4089.2</ele>
    <time>2026-06-22T05:46:12Z</time>
   </trkpt>
   <trkpt lat="-3.0951940" lon="37.3336090">
    <ele>4089.4</ele>
    <time>2026-06-22T05:46:13Z</time>
   </trkpt>
   <trkpt lat="-3.0951960" lon="37.3336120">
    <ele>4089.5</ele>
    <time>2026-06-22T05:46:14Z</time>
   </trkpt>
   <trkpt lat="-3.0951940" lon="37.3336110">
    <ele>4089.5</ele>
    <time>2026-06-22T05:46:15Z</time>
   </trkpt>
   <trkpt lat="-3.0951930" lon="37.3336100">
    <ele>4089.6</ele>
    <time>2026-06-22T05:46:16Z</time>
   </trkpt>
   <trkpt lat="-3.0951940" lon="37.3336080">
    <ele>4089.6</ele>
    <time>2026-06-22T05:46:17Z</time>
   </trkpt>
   <trkpt lat="-3.0951930" lon="37.3336070">
    <ele>4089.7</ele>
    <time>2026-06-22T05:46:18Z</time>
   </trkpt>
   <trkpt lat="-3.0951920" lon="37.3336050">
    <ele>4089.7</ele>
    <time>2026-06-22T05:46:19Z</time>
   </trkpt>
   <trkpt lat="-3.0951880" lon="37.3336100">
    <ele>4089.8</ele>
    <time>2026-06-22T05:46:20Z</time>
   </trkpt>
   <trkpt lat="-3.0951830" lon="37.3336100">
    <ele>4090.0</ele>
    <time>2026-06-22T05:46:21Z</time>
   </trkpt>
   <trkpt lat="-3.0951820" lon="37.3336160">
    <ele>4090.1</ele>
    <time>2026-06-22T05:46:22Z</time>
   </trkpt>
   <trkpt lat="-3.0951840" lon="37.3336210">
    <ele>4090.2</ele>
    <time>2026-06-22T05:46:23Z</time>
   </trkpt>
   <trkpt lat="-3.0951890" lon="37.3336260">
    <ele>4090.4</ele>
    <time>2026-06-22T05:46:24Z</time>
   </trkpt>
   <trkpt lat="-3.0951940" lon="37.3336310">
    <ele>4090.5</ele>
    <time>2026-06-22T05:46:25Z</time>
   </trkpt>
   <trkpt lat="-3.0951970" lon="37.3336320">
    <ele>4090.6</ele>
    <time>2026-06-22T05:46:26Z</time>
   </trkpt>
   <trkpt lat="-3.0951990" lon="37.3336410">
    <ele>4090.8</ele>
    <time>2026-06-22T05:46:27Z</time>
   </trkpt>
   <trkpt lat="-3.0951960" lon="37.3336440">
    <ele>4090.9</ele>
    <time>2026-06-22T05:46:28Z</time>
   </trkpt>
   <trkpt lat="-3.0951900" lon="37.3336450">
    <ele>4091.0</ele>
    <time>2026-06-22T05:46:29Z</time>
   </trkpt>
   <trkpt lat="-3.0951870" lon="37.3336530">
    <ele>4091.2</ele>
    <time>2026-06-22T05:46:30Z</time>
   </trkpt>
   <trkpt lat="-3.0951920" lon="37.3336540">
    <ele>4091.4</ele>
    <time>2026-06-22T05:46:31Z</time>
   </trkpt>
   <trkpt lat="-3.0951960" lon="37.3336570">
    <ele>4091.5</ele>
    <time>2026-06-22T05:46:32Z</time>
   </trkpt>
   <trkpt lat="-3.0951970" lon="37.3336630">
    <ele>4091.6</ele>
    <time>2026-06-22T05:46:33Z</time>
   </trkpt>
   <trkpt lat="-3.0951990" lon="37.3336630">
    <ele>4091.7</ele>
    <time>2026-06-22T05:46:34Z</time>
   </trkpt>
   <trkpt lat="-3.0952000" lon="37.3336640">
    <ele>4091.7</ele>
    <time>2026-06-22T05:46:35Z</time>
   </trkpt>
   <trkpt lat="-3.0951990" lon="37.3336700">
    <ele>4091.8</ele>
    <time>2026-06-22T05:46:36Z</time>
   </trkpt>
   <trkpt lat="-3.0951980" lon="37.3336650">
    <ele>4091.9</ele>
    <time>2026-06-22T05:46:37Z</time>
   </trkpt>
   <trkpt lat="-3.0951940" lon="37.3336720">
    <ele>4092.1</ele>
    <time>2026-06-22T05:46:38Z</time>
   </trkpt>
   <trkpt lat="-3.0951980" lon="37.3336770">
    <ele>4092.3</ele>
    <time>2026-06-22T05:46:39Z</time>
   </trkpt>
   <trkpt lat="-3.0951980" lon="37.3336770">
    <ele>4092.3</ele>
    <time>2026-06-22T05:46:40Z</time>
   </trkpt>
   <trkpt lat="-3.0951960" lon="37.3336770">
    <ele>4092.3</ele>
    <time>2026-06-22T05:46:41Z</time>
   </trkpt>
   <trkpt lat="-3.0951970" lon="37.3336820">
    <ele>4092.4</ele>
    <time>2026-06-22T05:46:42Z</time>
   </trkpt>
   <trkpt lat="-3.0951960" lon="37.3336880">
    <ele>4092.6</ele>
    <time>2026-06-22T05:46:43Z</time>
   </trkpt>
   <trkpt lat="-3.0951970" lon="37.3336890">
    <ele>4092.6</ele>
    <time>2026-06-22T05:46:44Z</time>
   </trkpt>
   <trkpt lat="-3.0952060" lon="37.3336920">
    <ele>4092.8</ele>
    <time>2026-06-22T05:46:45Z</time>
   </trkpt>
   <trkpt lat="-3.0952110" lon="37.3336940">
    <ele>4092.9</ele>
    <time>2026-06-22T05:46:46Z</time>
   </trkpt>
   <trkpt lat="-3.0952110" lon="37.3336900">
    <ele>4093.0</ele>
    <time>2026-06-22T05:46:47Z</time>
   </trkpt>
   <trkpt lat="-3.0952150" lon="37.3336870">
    <ele>4093.1</ele>
    <time>2026-06-22T05:46:48Z</time>
   </trkpt>
   <trkpt lat="-3.0952190" lon="37.3336840">
    <ele>4093.2</ele>
    <time>2026-06-22T05:46:49Z</time>
   </trkpt>
   <trkpt lat="-3.0952220" lon="37.3336810">
    <ele>4093.3</ele>
    <time>2026-06-22T05:46:50Z</time>
   </trkpt>
   <trkpt lat="-3.0952260" lon="37.3336830">
    <ele>4093.4</ele>
    <time>2026-06-22T05:46:51Z</time>
   </trkpt>
   <trkpt lat="-3.0952320" lon="37.3336800">
    <ele>4093.6</ele>
    <time>2026-06-22T05:46:52Z</time>
   </trkpt>
   <trkpt lat="-3.0952310" lon="37.3336820">
    <ele>4093.6</ele>
    <time>2026-06-22T05:46:53Z</time>
   </trkpt>
   <trkpt lat="-3.0952350" lon="37.3336850">
    <ele>4093.8</ele>
    <time>2026-06-22T05:46:54Z</time>
   </trkpt>
   <trkpt lat="-3.0952390" lon="37.3336890">
    <ele>4093.9</ele>
    <time>2026-06-22T05:46:55Z</time>
   </trkpt>
   <trkpt lat="-3.0952400" lon="37.3336910">
    <ele>4093.9</ele>
    <time>2026-06-22T05:46:56Z</time>
   </trkpt>
   <trkpt lat="-3.0952400" lon="37.3336950">
    <ele>4094.0</ele>
    <time>2026-06-22T05:46:58Z</time>
   </trkpt>
   <trkpt lat="-3.0952390" lon="37.3336990">
    <ele>4094.1</ele>
    <time>2026-06-22T05:46:59Z</time>
   </trkpt>
   <trkpt lat="-3.0952370" lon="37.3337060">
    <ele>4094.3</ele>
    <time>2026-06-22T05:47:00Z</time>
   </trkpt>
   <trkpt lat="-3.0952360" lon="37.3337090">
    <ele>4094.3</ele>
    <time>2026-06-22T05:47:01Z</time>
   </trkpt>
   <trkpt lat="-3.0952360" lon="37.3337090">
    <ele>4094.3</ele>
    <time>2026-06-22T05:47:02Z</time>
   </trkpt>
   <trkpt lat="-3.0952340" lon="37.3337100">
    <ele>4094.4</ele>
    <time>2026-06-22T05:47:03Z</time>
   </trkpt>
   <trkpt lat="-3.0952330" lon="37.3337150">
    <ele>4094.5</ele>
    <time>2026-06-22T05:47:04Z</time>
   </trkpt>
   <trkpt lat="-3.0952290" lon="37.3337170">
    <ele>4094.6</ele>
    <time>2026-06-22T05:47:05Z</time>
   </trkpt>
   <trkpt lat="-3.0952250" lon="37.3337200">
    <ele>4094.7</ele>
    <time>2026-06-22T05:47:06Z</time>
   </trkpt>
   <trkpt lat="-3.0952230" lon="37.3337230">
    <ele>4094.8</ele>
    <time>2026-06-22T05:47:07Z</time>
   </trkpt>
   <trkpt lat="-3.0952230" lon="37.3337250">
    <ele>4094.9</ele>
    <time>2026-06-22T05:47:08Z</time>
   </trkpt>
   <trkpt lat="-3.0952240" lon="37.3337280">
    <ele>4094.9</ele>
    <time>2026-06-22T05:47:09Z</time>
   </trkpt>
   <trkpt lat="-3.0952260" lon="37.3337260">
    <ele>4095.0</ele>
    <time>2026-06-22T05:47:10Z</time>
   </trkpt>
   <trkpt lat="-3.0952280" lon="37.3337270">
    <ele>4095.0</ele>
    <time>2026-06-22T05:47:11Z</time>
   </trkpt>
   <trkpt lat="-3.0952290" lon="37.3337270">
    <ele>4095.1</ele>
    <time>2026-06-22T05:47:12Z</time>
   </trkpt>
   <trkpt lat="-3.0952350" lon="37.3337270">
    <ele>4095.2</ele>
    <time>2026-06-22T05:47:13Z</time>
   </trkpt>
   <trkpt lat="-3.0952390" lon="37.3337270">
    <ele>4095.3</ele>
    <time>2026-06-22T05:47:14Z</time>
   </trkpt>
   <trkpt lat="-3.0952450" lon="37.3337270">
    <ele>4095.4</ele>
    <time>2026-06-22T05:47:15Z</time>
   </trkpt>
   <trkpt lat="-3.0952540" lon="37.3337260">
    <ele>4095.6</ele>
    <time>2026-06-22T05:47:16Z</time>
   </trkpt>
   <trkpt lat="-3.0952580" lon="37.3337280">
    <ele>4095.7</ele>
    <time>2026-06-22T05:47:17Z</time>
   </trkpt>
   <trkpt lat="-3.0952610" lon="37.3337330">
    <ele>4095.9</ele>
    <time>2026-06-22T05:47:18Z</time>
   </trkpt>
   <trkpt lat="-3.0952690" lon="37.3337400">
    <ele>4096.1</ele>
    <time>2026-06-22T05:47:19Z</time>
   </trkpt>
   <trkpt lat="-3.0952710" lon="37.3337420">
    <ele>4096.2</ele>
    <time>2026-06-22T05:47:20Z</time>
   </trkpt>
   <trkpt lat="-3.0952750" lon="37.3337450">
    <ele>4096.3</ele>
    <time>2026-06-22T05:47:21Z</time>
   </trkpt>
   <trkpt lat="-3.0952800" lon="37.3337440">
    <ele>4096.4</ele>
    <time>2026-06-22T05:47:22Z</time>
   </trkpt>
   <trkpt lat="-3.0952760" lon="37.3337430">
    <ele>4096.5</ele>
    <time>2026-06-22T05:47:23Z</time>
   </trkpt>
   <trkpt lat="-3.0952760" lon="37.3337440">
    <ele>4096.5</ele>
    <time>2026-06-22T05:47:24Z</time>
   </trkpt>
   <trkpt lat="-3.0952820" lon="37.3337390">
    <ele>4096.7</ele>
    <time>2026-06-22T05:47:25Z</time>
   </trkpt>
   <trkpt lat="-3.0952840" lon="37.3337390">
    <ele>4096.7</ele>
    <time>2026-06-22T05:47:26Z</time>
   </trkpt>
   <trkpt lat="-3.0953030" lon="37.3337290">
    <ele>4097.2</ele>
    <time>2026-06-22T05:47:27Z</time>
   </trkpt>
   <trkpt lat="-3.0952920" lon="37.3337330">
    <ele>4097.5</ele>
    <time>2026-06-22T05:47:28Z</time>
   </trkpt>
   <trkpt lat="-3.0952910" lon="37.3337330">
    <ele>4097.5</ele>
    <time>2026-06-22T05:47:29Z</time>
   </trkpt>
   <trkpt lat="-3.0952920" lon="37.3337340">
    <ele>4097.5</ele>
    <time>2026-06-22T05:47:30Z</time>
   </trkpt>
   <trkpt lat="-3.0952920" lon="37.3337340">
    <ele>4097.5</ele>
    <time>2026-06-22T05:47:31Z</time>
   </trkpt>
   <trkpt lat="-3.0952920" lon="37.3337330">
    <ele>4097.6</ele>
    <time>2026-06-22T05:47:32Z</time>
   </trkpt>
   <trkpt lat="-3.0952920" lon="37.3337330">
    <ele>4097.6</ele>
    <time>2026-06-22T05:47:33Z</time>
   </trkpt>
   <trkpt lat="-3.0952970" lon="37.3337330">
    <ele>4097.7</ele>
    <time>2026-06-22T05:47:34Z</time>
   </trkpt>
   <trkpt lat="-3.0952960" lon="37.3337340">
    <ele>4097.7</ele>
    <time>2026-06-22T05:47:35Z</time>
   </trkpt>
   <trkpt lat="-3.0952970" lon="37.3337370">
    <ele>4097.8</ele>
    <time>2026-06-22T05:47:36Z</time>
   </trkpt>
   <trkpt lat="-3.0952990" lon="37.3337370">
    <ele>4097.8</ele>
    <time>2026-06-22T05:47:37Z</time>
   </trkpt>
   <trkpt lat="-3.0952980" lon="37.3337400">
    <ele>4097.9</ele>
    <time>2026-06-22T05:47:38Z</time>
   </trkpt>
   <trkpt lat="-3.0952990" lon="37.3337410">
    <ele>4097.9</ele>
    <time>2026-06-22T05:47:39Z</time>
   </trkpt>
   <trkpt lat="-3.0952980" lon="37.3337420">
    <ele>4097.9</ele>
    <time>2026-06-22T05:47:40Z</time>
   </trkpt>
   <trkpt lat="-3.0952990" lon="37.3337440">
    <ele>4098.0</ele>
    <time>2026-06-22T05:47:41Z</time>
   </trkpt>
   <trkpt lat="-3.0952990" lon="37.3337460">
    <ele>4098.0</ele>
    <time>2026-06-22T05:47:42Z</time>
   </trkpt>
   <trkpt lat="-3.0952960" lon="37.3337510">
    <ele>4098.2</ele>
    <time>2026-06-22T05:47:43Z</time>
   </trkpt>
   <trkpt lat="-3.0952980" lon="37.3337520">
    <ele>4098.2</ele>
    <time>2026-06-22T05:47:44Z</time>
   </trkpt>
   <trkpt lat="-3.0952950" lon="37.3337550">
    <ele>4098.3</ele>
    <time>2026-06-22T05:47:45Z</time>
   </trkpt>
   <trkpt lat="-3.0952960" lon="37.3337540">
    <ele>4098.4</ele>
    <time>2026-06-22T05:47:46Z</time>
   </trkpt>
   <trkpt lat="-3.0952950" lon="37.3337540">
    <ele>4098.4</ele>
    <time>2026-06-22T05:47:47Z</time>
   </trkpt>
   <trkpt lat="-3.0952950" lon="37.3337540">
    <ele>4098.4</ele>
    <time>2026-06-22T05:47:48Z</time>
   </trkpt>
   <trkpt lat="-3.0952950" lon="37.3337540">
    <ele>4098.4</ele>
    <time>2026-06-22T05:47:49Z</time>
   </trkpt>
   <trkpt lat="-3.0952970" lon="37.3337560">
    <ele>4098.4</ele>
    <time>2026-06-22T05:47:50Z</time>
   </trkpt>
   <trkpt lat="-3.0953020" lon="37.3337570">
    <ele>4098.6</ele>
    <time>2026-06-22T05:47:51Z</time>
   </trkpt>
   <trkpt lat="-3.0953050" lon="37.3337590">
    <ele>4098.6</ele>
    <time>2026-06-22T05:47:52Z</time>
   </trkpt>
   <trkpt lat="-3.0953060" lon="37.3337630">
    <ele>4098.7</ele>
    <time>2026-06-22T05:47:53Z</time>
   </trkpt>
   <trkpt lat="-3.0953070" lon="37.3337660">
    <ele>4098.8</ele>
    <time>2026-06-22T05:47:54Z</time>
   </trkpt>
   <trkpt lat="-3.0953060" lon="37.3337690">
    <ele>4098.9</ele>
    <time>2026-06-22T05:47:55Z</time>
   </trkpt>
   <trkpt lat="-3.0953040" lon="37.3337720">
    <ele>4099.0</ele>
    <time>2026-06-22T05:47:56Z</time>
   </trkpt>
   <trkpt lat="-3.0953010" lon="37.3337730">
    <ele>4099.0</ele>
    <time>2026-06-22T05:47:57Z</time>
   </trkpt>
   <trkpt lat="-3.0953010" lon="37.3337720">
    <ele>4099.0</ele>
    <time>2026-06-22T05:47:58Z</time>
   </trkpt>
   <trkpt lat="-3.0952980" lon="37.3337750">
    <ele>4099.1</ele>
    <time>2026-06-22T05:47:59Z</time>
   </trkpt>
   <trkpt lat="-3.0952960" lon="37.3337770">
    <ele>4099.2</ele>
    <time>2026-06-22T05:48:00Z</time>
   </trkpt>
   <trkpt lat="-3.0952970" lon="37.3337810">
    <ele>4099.3</ele>
    <time>2026-06-22T05:48:01Z</time>
   </trkpt>
   <trkpt lat="-3.0952970" lon="37.3337860">
    <ele>4099.4</ele>
    <time>2026-06-22T05:48:02Z</time>
   </trkpt>
   <trkpt lat="-3.0952970" lon="37.3337890">
    <ele>4099.5</ele>
    <time>2026-06-22T05:48:03Z</time>
   </trkpt>
   <trkpt lat="-3.0952970" lon="37.3337900">
    <ele>4099.5</ele>
    <time>2026-06-22T05:48:04Z</time>
   </trkpt>
   <trkpt lat="-3.0953010" lon="37.3337910">
    <ele>4099.6</ele>
    <time>2026-06-22T05:48:05Z</time>
   </trkpt>
   <trkpt lat="-3.0953080" lon="37.3337920">
    <ele>4099.7</ele>
    <time>2026-06-22T05:48:06Z</time>
   </trkpt>
   <trkpt lat="-3.0953110" lon="37.3337910">
    <ele>4099.8</ele>
    <time>2026-06-22T05:48:07Z</time>
   </trkpt>
   <trkpt lat="-3.0953180" lon="37.3337880">
    <ele>4100.0</ele>
    <time>2026-06-22T05:48:08Z</time>
   </trkpt>
   <trkpt lat="-3.0953220" lon="37.3337880">
    <ele>4100.1</ele>
    <time>2026-06-22T05:48:09Z</time>
   </trkpt>
   <trkpt lat="-3.0953260" lon="37.3337900">
    <ele>4100.2</ele>
    <time>2026-06-22T05:48:10Z</time>
   </trkpt>
   <trkpt lat="-3.0953260" lon="37.3337940">
    <ele>4100.2</ele>
    <time>2026-06-22T05:48:11Z</time>
   </trkpt>
   <trkpt lat="-3.0953240" lon="37.3337950">
    <ele>4100.3</ele>
    <time>2026-06-22T05:48:12Z</time>
   </trkpt>
   <trkpt lat="-3.0953240" lon="37.3337970">
    <ele>4100.3</ele>
    <time>2026-06-22T05:48:13Z</time>
   </trkpt>
   <trkpt lat="-3.0953240" lon="37.3337980">
    <ele>4100.4</ele>
    <time>2026-06-22T05:48:14Z</time>
   </trkpt>
   <trkpt lat="-3.0953220" lon="37.3338020">
    <ele>4100.4</ele>
    <time>2026-06-22T05:48:15Z</time>
   </trkpt>
   <trkpt lat="-3.0953180" lon="37.3338050">
    <ele>4100.6</ele>
    <time>2026-06-22T05:48:16Z</time>
   </trkpt>
   <trkpt lat="-3.0953130" lon="37.3338080">
    <ele>4100.7</ele>
    <time>2026-06-22T05:48:17Z</time>
   </trkpt>
   <trkpt lat="-3.0953110" lon="37.3338090">
    <ele>4100.7</ele>
    <time>2026-06-22T05:48:18Z</time>
   </trkpt>
   <trkpt lat="-3.0953080" lon="37.3338130">
    <ele>4100.8</ele>
    <time>2026-06-22T05:48:19Z</time>
   </trkpt>
   <trkpt lat="-3.0953050" lon="37.3338160">
    <ele>4100.9</ele>
    <time>2026-06-22T05:48:20Z</time>
   </trkpt>
   <trkpt lat="-3.0953020" lon="37.3338180">
    <ele>4101.0</ele>
    <time>2026-06-22T05:48:21Z</time>
   </trkpt>
   <trkpt lat="-3.0952990" lon="37.3338210">
    <ele>4101.1</ele>
    <time>2026-06-22T05:48:22Z</time>
   </trkpt>
   <trkpt lat="-3.0952950" lon="37.3338250">
    <ele>4101.2</ele>
    <time>2026-06-22T05:48:23Z</time>
   </trkpt>
   <trkpt lat="-3.0952910" lon="37.3338270">
    <ele>4101.3</ele>
    <time>2026-06-22T05:48:24Z</time>
   </trkpt>
   <trkpt lat="-3.0952880" lon="37.3338300">
    <ele>4101.4</ele>
    <time>2026-06-22T05:48:25Z</time>
   </trkpt>
   <trkpt lat="-3.0952860" lon="37.3338340">
    <ele>4101.5</ele>
    <time>2026-06-22T05:48:26Z</time>
   </trkpt>
   <trkpt lat="-3.0952820" lon="37.3338380">
    <ele>4101.6</ele>
    <time>2026-06-22T05:48:27Z</time>
   </trkpt>
   <trkpt lat="-3.0952830" lon="37.3338430">
    <ele>4101.8</ele>
    <time>2026-06-22T05:48:28Z</time>
   </trkpt>
   <trkpt lat="-3.0952930" lon="37.3338480">
    <ele>4102.0</ele>
    <time>2026-06-22T05:48:29Z</time>
   </trkpt>
   <trkpt lat="-3.0952950" lon="37.3338490">
    <ele>4102.0</ele>
    <time>2026-06-22T05:48:30Z</time>
   </trkpt>
   <trkpt lat="-3.0952940" lon="37.3338490">
    <ele>4102.1</ele>
    <time>2026-06-22T05:48:31Z</time>
   </trkpt>
   <trkpt lat="-3.0952930" lon="37.3338490">
    <ele>4102.1</ele>
    <time>2026-06-22T05:48:32Z</time>
   </trkpt>
   <trkpt lat="-3.0952980" lon="37.3338500">
    <ele>4102.2</ele>
    <time>2026-06-22T05:48:33Z</time>
   </trkpt>
   <trkpt lat="-3.0953010" lon="37.3338510">
    <ele>4102.3</ele>
    <time>2026-06-22T05:48:34Z</time>
   </trkpt>
   <trkpt lat="-3.0953060" lon="37.3338540">
    <ele>4102.4</ele>
    <time>2026-06-22T05:48:35Z</time>
   </trkpt>
   <trkpt lat="-3.0953100" lon="37.3338560">
    <ele>4102.5</ele>
    <time>2026-06-22T05:48:36Z</time>
   </trkpt>
   <trkpt lat="-3.0953100" lon="37.3338580">
    <ele>4102.5</ele>
    <time>2026-06-22T05:48:37Z</time>
   </trkpt>
   <trkpt lat="-3.0953110" lon="37.3338620">
    <ele>4102.6</ele>
    <time>2026-06-22T05:48:38Z</time>
   </trkpt>
   <trkpt lat="-3.0953120" lon="37.3338630">
    <ele>4102.7</ele>
    <time>2026-06-22T05:48:39Z</time>
   </trkpt>
   <trkpt lat="-3.0953260" lon="37.3338460">
    <ele>4103.1</ele>
    <time>2026-06-22T05:48:40Z</time>
   </trkpt>
   <trkpt lat="-3.0953230" lon="37.3338500">
    <ele>4103.2</ele>
    <time>2026-06-22T05:48:41Z</time>
   </trkpt>
   <trkpt lat="-3.0953140" lon="37.3338550">
    <ele>4103.5</ele>
    <time>2026-06-22T05:48:42Z</time>
   </trkpt>
   <trkpt lat="-3.0953110" lon="37.3338580">
    <ele>4103.6</ele>
    <time>2026-06-22T05:48:43Z</time>
   </trkpt>
   <trkpt lat="-3.0953100" lon="37.3338600">
    <ele>4103.6</ele>
    <time>2026-06-22T05:48:44Z</time>
   </trkpt>
   <trkpt lat="-3.0953080" lon="37.3338610">
    <ele>4103.7</ele>
    <time>2026-06-22T05:48:45Z</time>
   </trkpt>
   <trkpt lat="-3.0953060" lon="37.3338610">
    <ele>4103.7</ele>
    <time>2026-06-22T05:48:46Z</time>
   </trkpt>
   <trkpt lat="-3.0953040" lon="37.3338630">
    <ele>4103.8</ele>
    <time>2026-06-22T05:48:47Z</time>
   </trkpt>
   <trkpt lat="-3.0953030" lon="37.3338710">
    <ele>4103.9</ele>
    <time>2026-06-22T05:48:48Z</time>
   </trkpt>
   <trkpt lat="-3.0952890" lon="37.3338870">
    <ele>4104.4</ele>
    <time>2026-06-22T05:48:49Z</time>
   </trkpt>
   <trkpt lat="-3.0952860" lon="37.3338930">
    <ele>4104.5</ele>
    <time>2026-06-22T05:48:50Z</time>
   </trkpt>
   <trkpt lat="-3.0952920" lon="37.3338920">
    <ele>4104.7</ele>
    <time>2026-06-22T05:48:51Z</time>
   </trkpt>
   <trkpt lat="-3.0952980" lon="37.3338950">
    <ele>4104.8</ele>
    <time>2026-06-22T05:48:52Z</time>
   </trkpt>
   <trkpt lat="-3.0952990" lon="37.3338980">
    <ele>4104.9</ele>
    <time>2026-06-22T05:48:53Z</time>
   </trkpt>
   <trkpt lat="-3.0953050" lon="37.3338980">
    <ele>4105.0</ele>
    <time>2026-06-22T05:48:54Z</time>
   </trkpt>
   <trkpt lat="-3.0953080" lon="37.3338950">
    <ele>4105.1</ele>
    <time>2026-06-22T05:48:55Z</time>
   </trkpt>
   <trkpt lat="-3.0953170" lon="37.3338940">
    <ele>4105.3</ele>
    <time>2026-06-22T05:48:56Z</time>
   </trkpt>
   <trkpt lat="-3.0953200" lon="37.3338870">
    <ele>4105.5</ele>
    <time>2026-06-22T05:48:57Z</time>
   </trkpt>
   <trkpt lat="-3.0953230" lon="37.3338860">
    <ele>4105.5</ele>
    <time>2026-06-22T05:48:58Z</time>
   </trkpt>
   <trkpt lat="-3.0953270" lon="37.3338830">
    <ele>4105.7</ele>
    <time>2026-06-22T05:48:59Z</time>
   </trkpt>
   <trkpt lat="-3.0953320" lon="37.3338770">
    <ele>4105.8</ele>
    <time>2026-06-22T05:49:00Z</time>
   </trkpt>
   <trkpt lat="-3.0953350" lon="37.3338770">
    <ele>4105.9</ele>
    <time>2026-06-22T05:49:01Z</time>
   </trkpt>
   <trkpt lat="-3.0953360" lon="37.3338740">
    <ele>4106.0</ele>
    <time>2026-06-22T05:49:02Z</time>
   </trkpt>
   <trkpt lat="-3.0953390" lon="37.3338700">
    <ele>4106.1</ele>
    <time>2026-06-22T05:49:04Z</time>
   </trkpt>
   <trkpt lat="-3.0953390" lon="37.3338690">
    <ele>4106.1</ele>
    <time>2026-06-22T05:49:05Z</time>
   </trkpt>
   <trkpt lat="-3.0953410" lon="37.3338670">
    <ele>4106.2</ele>
    <time>2026-06-22T05:49:06Z</time>
   </trkpt>
   <trkpt lat="-3.0953440" lon="37.3338650">
    <ele>4106.2</ele>
    <time>2026-06-22T05:49:07Z</time>
   </trkpt>
   <trkpt lat="-3.0953480" lon="37.3338610">
    <ele>4106.4</ele>
    <time>2026-06-22T05:49:08Z</time>
   </trkpt>
   <trkpt lat="-3.0953490" lon="37.3338620">
    <ele>4106.4</ele>
    <time>2026-06-22T05:49:09Z</time>
   </trkpt>
   <trkpt lat="-3.0953510" lon="37.3338600">
    <ele>4106.4</ele>
    <time>2026-06-22T05:49:10Z</time>
   </trkpt>
   <trkpt lat="-3.0953540" lon="37.3338610">
    <ele>4106.5</ele>
    <time>2026-06-22T05:49:11Z</time>
   </trkpt>
   <trkpt lat="-3.0953570" lon="37.3338600">
    <ele>4106.6</ele>
    <time>2026-06-22T05:49:12Z</time>
   </trkpt>
   <trkpt lat="-3.0953570" lon="37.3338600">
    <ele>4106.6</ele>
    <time>2026-06-22T05:49:13Z</time>
   </trkpt>
   <trkpt lat="-3.0953580" lon="37.3338600">
    <ele>4106.6</ele>
    <time>2026-06-22T05:49:14Z</time>
   </trkpt>
   <trkpt lat="-3.0953590" lon="37.3338600">
    <ele>4106.6</ele>
    <time>2026-06-22T05:49:15Z</time>
   </trkpt>
   <trkpt lat="-3.0953580" lon="37.3338590">
    <ele>4106.7</ele>
    <time>2026-06-22T05:49:16Z</time>
   </trkpt>
   <trkpt lat="-3.0953580" lon="37.3338600">
    <ele>4106.7</ele>
    <time>2026-06-22T05:49:17Z</time>
   </trkpt>
   <trkpt lat="-3.0953580" lon="37.3338590">
    <ele>4106.7</ele>
    <time>2026-06-22T05:49:18Z</time>
   </trkpt>
   <trkpt lat="-3.0953610" lon="37.3338570">
    <ele>4106.8</ele>
    <time>2026-06-22T05:49:19Z</time>
   </trkpt>
   <trkpt lat="-3.0953630" lon="37.3338620">
    <ele>4106.9</ele>
    <time>2026-06-22T05:49:20Z</time>
   </trkpt>
   <trkpt lat="-3.0953660" lon="37.3338650">
    <ele>4107.0</ele>
    <time>2026-06-22T05:49:21Z</time>
   </trkpt>
   <trkpt lat="-3.0953720" lon="37.3338640">
    <ele>4107.1</ele>
    <time>2026-06-22T05:49:22Z</time>
   </trkpt>
   <trkpt lat="-3.0953820" lon="37.3338680">
    <ele>4107.4</ele>
    <time>2026-06-22T05:49:23Z</time>
   </trkpt>
   <trkpt lat="-3.0953830" lon="37.3338670">
    <ele>4107.4</ele>
    <time>2026-06-22T05:49:24Z</time>
   </trkpt>
   <trkpt lat="-3.0953840" lon="37.3338680">
    <ele>4107.4</ele>
    <time>2026-06-22T05:49:25Z</time>
   </trkpt>
   <trkpt lat="-3.0953840" lon="37.3338680">
    <ele>4107.4</ele>
    <time>2026-06-22T05:49:26Z</time>
   </trkpt>
   <trkpt lat="-3.0953850" lon="37.3338670">
    <ele>4107.4</ele>
    <time>2026-06-22T05:49:27Z</time>
   </trkpt>
   <trkpt lat="-3.0953890" lon="37.3338660">
    <ele>4107.5</ele>
    <time>2026-06-22T05:49:28Z</time>
   </trkpt>
   <trkpt lat="-3.0953950" lon="37.3338710">
    <ele>4107.7</ele>
    <time>2026-06-22T05:49:29Z</time>
   </trkpt>
   <trkpt lat="-3.0953980" lon="37.3338720">
    <ele>4107.8</ele>
    <time>2026-06-22T05:49:30Z</time>
   </trkpt>
   <trkpt lat="-3.0954030" lon="37.3338720">
    <ele>4107.9</ele>
    <time>2026-06-22T05:49:31Z</time>
   </trkpt>
   <trkpt lat="-3.0954100" lon="37.3338760">
    <ele>4108.1</ele>
    <time>2026-06-22T05:49:32Z</time>
   </trkpt>
   <trkpt lat="-3.0954140" lon="37.3338750">
    <ele>4108.2</ele>
    <time>2026-06-22T05:49:33Z</time>
   </trkpt>
   <trkpt lat="-3.0954100" lon="37.3338730">
    <ele>4108.2</ele>
    <time>2026-06-22T05:49:34Z</time>
   </trkpt>
   <trkpt lat="-3.0954130" lon="37.3338710">
    <ele>4108.3</ele>
    <time>2026-06-22T05:49:35Z</time>
   </trkpt>
   <trkpt lat="-3.0954110" lon="37.3338710">
    <ele>4108.4</ele>
    <time>2026-06-22T05:49:36Z</time>
   </trkpt>
   <trkpt lat="-3.0954140" lon="37.3338720">
    <ele>4108.4</ele>
    <time>2026-06-22T05:49:37Z</time>
   </trkpt>
   <trkpt lat="-3.0954200" lon="37.3338720">
    <ele>4108.6</ele>
    <time>2026-06-22T05:49:38Z</time>
   </trkpt>
   <trkpt lat="-3.0954200" lon="37.3338700">
    <ele>4108.6</ele>
    <time>2026-06-22T05:49:39Z</time>
   </trkpt>
   <trkpt lat="-3.0954260" lon="37.3338690">
    <ele>4108.7</ele>
    <time>2026-06-22T05:49:40Z</time>
   </trkpt>
   <trkpt lat="-3.0954400" lon="37.3338640">
    <ele>4109.1</ele>
    <time>2026-06-22T05:49:41Z</time>
   </trkpt>
   <trkpt lat="-3.0954370" lon="37.3338630">
    <ele>4109.1</ele>
    <time>2026-06-22T05:49:42Z</time>
   </trkpt>
   <trkpt lat="-3.0954380" lon="37.3338640">
    <ele>4109.2</ele>
    <time>2026-06-22T05:49:43Z</time>
   </trkpt>
   <trkpt lat="-3.0954430" lon="37.3338630">
    <ele>4109.3</ele>
    <time>2026-06-22T05:49:44Z</time>
   </trkpt>
   <trkpt lat="-3.0954410" lon="37.3338640">
    <ele>4109.3</ele>
    <time>2026-06-22T05:49:45Z</time>
   </trkpt>
   <trkpt lat="-3.0954440" lon="37.3338610">
    <ele>4109.4</ele>
    <time>2026-06-22T05:49:46Z</time>
   </trkpt>
   <trkpt lat="-3.0954500" lon="37.3338620">
    <ele>4109.6</ele>
    <time>2026-06-22T05:49:47Z</time>
   </trkpt>
   <trkpt lat="-3.0954520" lon="37.3338610">
    <ele>4109.6</ele>
    <time>2026-06-22T05:49:48Z</time>
   </trkpt>
   <trkpt lat="-3.0954530" lon="37.3338630">
    <ele>4109.7</ele>
    <time>2026-06-22T05:49:49Z</time>
   </trkpt>
   <trkpt lat="-3.0954550" lon="37.3338650">
    <ele>4109.7</ele>
    <time>2026-06-22T05:49:50Z</time>
   </trkpt>
   <trkpt lat="-3.0954550" lon="37.3338660">
    <ele>4109.7</ele>
    <time>2026-06-22T05:49:51Z</time>
   </trkpt>
   <trkpt lat="-3.0954570" lon="37.3338670">
    <ele>4109.8</ele>
    <time>2026-06-22T05:49:52Z</time>
   </trkpt>
   <trkpt lat="-3.0954620" lon="37.3338680">
    <ele>4109.9</ele>
    <time>2026-06-22T05:49:53Z</time>
   </trkpt>
   <trkpt lat="-3.0954620" lon="37.3338700">
    <ele>4109.9</ele>
    <time>2026-06-22T05:49:54Z</time>
   </trkpt>
   <trkpt lat="-3.0954640" lon="37.3338720">
    <ele>4110.0</ele>
    <time>2026-06-22T05:49:55Z</time>
   </trkpt>
   <trkpt lat="-3.0954630" lon="37.3338760">
    <ele>4110.1</ele>
    <time>2026-06-22T05:49:56Z</time>
   </trkpt>
   <trkpt lat="-3.0954640" lon="37.3338780">
    <ele>4110.1</ele>
    <time>2026-06-22T05:49:57Z</time>
   </trkpt>
   <trkpt lat="-3.0954650" lon="37.3338830">
    <ele>4110.2</ele>
    <time>2026-06-22T05:49:58Z</time>
   </trkpt>
   <trkpt lat="-3.0954680" lon="37.3338840">
    <ele>4110.3</ele>
    <time>2026-06-22T05:49:59Z</time>
   </trkpt>
   <trkpt lat="-3.0954690" lon="37.3338860">
    <ele>4110.4</ele>
    <time>2026-06-22T05:50:00Z</time>
   </trkpt>
   <trkpt lat="-3.0954710" lon="37.3338870">
    <ele>4110.4</ele>
    <time>2026-06-22T05:50:01Z</time>
   </trkpt>
   <trkpt lat="-3.0954720" lon="37.3338870">
    <ele>4110.4</ele>
    <time>2026-06-22T05:50:02Z</time>
   </trkpt>
   <trkpt lat="-3.0954720" lon="37.3338890">
    <ele>4110.5</ele>
    <time>2026-06-22T05:50:03Z</time>
   </trkpt>
   <trkpt lat="-3.0954780" lon="37.3338860">
    <ele>4110.6</ele>
    <time>2026-06-22T05:50:04Z</time>
   </trkpt>
   <trkpt lat="-3.0954760" lon="37.3338890">
    <ele>4110.7</ele>
    <time>2026-06-22T05:50:05Z</time>
   </trkpt>
   <trkpt lat="-3.0954810" lon="37.3338870">
    <ele>4110.8</ele>
    <time>2026-06-22T05:50:06Z</time>
   </trkpt>
   <trkpt lat="-3.0954850" lon="37.3338830">
    <ele>4110.9</ele>
    <time>2026-06-22T05:50:07Z</time>
   </trkpt>
   <trkpt lat="-3.0954840" lon="37.3338830">
    <ele>4111.0</ele>
    <time>2026-06-22T05:50:08Z</time>
   </trkpt>
   <trkpt lat="-3.0954870" lon="37.3338850">
    <ele>4111.0</ele>
    <time>2026-06-22T05:50:09Z</time>
   </trkpt>
   <trkpt lat="-3.0954900" lon="37.3338820">
    <ele>4111.1</ele>
    <time>2026-06-22T05:50:10Z</time>
   </trkpt>
   <trkpt lat="-3.0954890" lon="37.3338830">
    <ele>4111.2</ele>
    <time>2026-06-22T05:50:11Z</time>
   </trkpt>
   <trkpt lat="-3.0954890" lon="37.3338830">
    <ele>4111.2</ele>
    <time>2026-06-22T05:50:12Z</time>
   </trkpt>
   <trkpt lat="-3.0954890" lon="37.3338820">
    <ele>4111.2</ele>
    <time>2026-06-22T05:50:13Z</time>
   </trkpt>
   <trkpt lat="-3.0954930" lon="37.3338790">
    <ele>4111.3</ele>
    <time>2026-06-22T05:50:14Z</time>
   </trkpt>
   <trkpt lat="-3.0954920" lon="37.3338790">
    <ele>4111.3</ele>
    <time>2026-06-22T05:50:15Z</time>
   </trkpt>
   <trkpt lat="-3.0954910" lon="37.3338790">
    <ele>4111.3</ele>
    <time>2026-06-22T05:50:16Z</time>
   </trkpt>
   <trkpt lat="-3.0954910" lon="37.3338790">
    <ele>4111.3</ele>
    <time>2026-06-22T05:50:17Z</time>
   </trkpt>
   <trkpt lat="-3.0954910" lon="37.3338790">
    <ele>4111.3</ele>
    <time>2026-06-22T05:50:18Z</time>
   </trkpt>
   <trkpt lat="-3.0954910" lon="37.3338790">
    <ele>4111.3</ele>
    <time>2026-06-22T05:50:19Z</time>
   </trkpt>
   <trkpt lat="-3.0954920" lon="37.3338790">
    <ele>4111.4</ele>
    <time>2026-06-22T05:50:20Z</time>
   </trkpt>
   <trkpt lat="-3.0954960" lon="37.3338780">
    <ele>4111.5</ele>
    <time>2026-06-22T05:50:21Z</time>
   </trkpt>
   <trkpt lat="-3.0954960" lon="37.3338770">
    <ele>4111.5</ele>
    <time>2026-06-22T05:50:22Z</time>
   </trkpt>
   <trkpt lat="-3.0955000" lon="37.3338760">
    <ele>4111.6</ele>
    <time>2026-06-22T05:50:23Z</time>
   </trkpt>
   <trkpt lat="-3.0955000" lon="37.3338770">
    <ele>4111.6</ele>
    <time>2026-06-22T05:50:24Z</time>
   </trkpt>
   <trkpt lat="-3.0955060" lon="37.3338740">
    <ele>4111.7</ele>
    <time>2026-06-22T05:50:25Z</time>
   </trkpt>
   <trkpt lat="-3.0955080" lon="37.3338770">
    <ele>4111.8</ele>
    <time>2026-06-22T05:50:26Z</time>
   </trkpt>
   <trkpt lat="-3.0955060" lon="37.3338790">
    <ele>4111.9</ele>
    <time>2026-06-22T05:50:27Z</time>
   </trkpt>
   <trkpt lat="-3.0955060" lon="37.3338830">
    <ele>4112.0</ele>
    <time>2026-06-22T05:50:28Z</time>
   </trkpt>
   <trkpt lat="-3.0955060" lon="37.3338830">
    <ele>4112.0</ele>
    <time>2026-06-22T05:50:29Z</time>
   </trkpt>
   <trkpt lat="-3.0955060" lon="37.3338820">
    <ele>4112.0</ele>
    <time>2026-06-22T05:50:30Z</time>
   </trkpt>
   <trkpt lat="-3.0955060" lon="37.3338830">
    <ele>4112.0</ele>
    <time>2026-06-22T05:50:31Z</time>
   </trkpt>
   <trkpt lat="-3.0955060" lon="37.3338830">
    <ele>4112.0</ele>
    <time>2026-06-22T05:50:32Z</time>
   </trkpt>
   <trkpt lat="-3.0955060" lon="37.3338820">
    <ele>4112.0</ele>
    <time>2026-06-22T05:50:33Z</time>
   </trkpt>
   <trkpt lat="-3.0955060" lon="37.3338820">
    <ele>4112.0</ele>
    <time>2026-06-22T05:50:34Z</time>
   </trkpt>
   <trkpt lat="-3.0955070" lon="37.3338810">
    <ele>4112.1</ele>
    <time>2026-06-22T05:50:35Z</time>
   </trkpt>
   <trkpt lat="-3.0955070" lon="37.3338810">
    <ele>4112.1</ele>
    <time>2026-06-22T05:50:36Z</time>
   </trkpt>
   <trkpt lat="-3.0955070" lon="37.3338810">
    <ele>4112.1</ele>
    <time>2026-06-22T05:50:37Z</time>
   </trkpt>
   <trkpt lat="-3.0955070" lon="37.3338810">
    <ele>4112.1</ele>
    <time>2026-06-22T05:50:38Z</time>
   </trkpt>
   <trkpt lat="-3.0955090" lon="37.3338800">
    <ele>4112.1</ele>
    <time>2026-06-22T05:50:39Z</time>
   </trkpt>
   <trkpt lat="-3.0955080" lon="37.3338790">
    <ele>4112.1</ele>
    <time>2026-06-22T05:50:40Z</time>
   </trkpt>
   <trkpt lat="-3.0955110" lon="37.3338850">
    <ele>4112.3</ele>
    <time>2026-06-22T05:50:41Z</time>
   </trkpt>
   <trkpt lat="-3.0955100" lon="37.3338850">
    <ele>4112.3</ele>
    <time>2026-06-22T05:50:42Z</time>
   </trkpt>
   <trkpt lat="-3.0955100" lon="37.3338910">
    <ele>4112.4</ele>
    <time>2026-06-22T05:50:43Z</time>
   </trkpt>
   <trkpt lat="-3.0955090" lon="37.3338970">
    <ele>4112.6</ele>
    <time>2026-06-22T05:50:44Z</time>
   </trkpt>
   <trkpt lat="-3.0955080" lon="37.3339000">
    <ele>4112.6</ele>
    <time>2026-06-22T05:50:45Z</time>
   </trkpt>
   <trkpt lat="-3.0955080" lon="37.3339030">
    <ele>4112.7</ele>
    <time>2026-06-22T05:50:46Z</time>
   </trkpt>
   <trkpt lat="-3.0955080" lon="37.3339080">
    <ele>4112.8</ele>
    <time>2026-06-22T05:50:47Z</time>
   </trkpt>
   <trkpt lat="-3.0955080" lon="37.3339110">
    <ele>4112.9</ele>
    <time>2026-06-22T05:50:48Z</time>
   </trkpt>
   <trkpt lat="-3.0955080" lon="37.3339140">
    <ele>4112.9</ele>
    <time>2026-06-22T05:50:49Z</time>
   </trkpt>
   <trkpt lat="-3.0955100" lon="37.3339170">
    <ele>4113.0</ele>
    <time>2026-06-22T05:50:50Z</time>
   </trkpt>
   <trkpt lat="-3.0955100" lon="37.3339180">
    <ele>4113.0</ele>
    <time>2026-06-22T05:50:51Z</time>
   </trkpt>
   <trkpt lat="-3.0955090" lon="37.3339200">
    <ele>4113.1</ele>
    <time>2026-06-22T05:50:52Z</time>
   </trkpt>
   <trkpt lat="-3.0955110" lon="37.3339260">
    <ele>4113.2</ele>
    <time>2026-06-22T05:50:53Z</time>
   </trkpt>
   <trkpt lat="-3.0955130" lon="37.3339270">
    <ele>4113.3</ele>
    <time>2026-06-22T05:50:54Z</time>
   </trkpt>
   <trkpt lat="-3.0955100" lon="37.3339280">
    <ele>4113.3</ele>
    <time>2026-06-22T05:50:55Z</time>
   </trkpt>
   <trkpt lat="-3.0955080" lon="37.3339280">
    <ele>4113.4</ele>
    <time>2026-06-22T05:50:56Z</time>
   </trkpt>
   <trkpt lat="-3.0955080" lon="37.3339280">
    <ele>4113.4</ele>
    <time>2026-06-22T05:50:57Z</time>
   </trkpt>
   <trkpt lat="-3.0955080" lon="37.3339280">
    <ele>4113.4</ele>
    <time>2026-06-22T05:50:58Z</time>
   </trkpt>
   <trkpt lat="-3.0955100" lon="37.3339300">
    <ele>4113.4</ele>
    <time>2026-06-22T05:50:59Z</time>
   </trkpt>
   <trkpt lat="-3.0955100" lon="37.3339300">
    <ele>4113.4</ele>
    <time>2026-06-22T05:51:00Z</time>
   </trkpt>
   <trkpt lat="-3.0955100" lon="37.3339300">
    <ele>4113.4</ele>
    <time>2026-06-22T05:51:01Z</time>
   </trkpt>
   <trkpt lat="-3.0955120" lon="37.3339310">
    <ele>4113.5</ele>
    <time>2026-06-22T05:51:02Z</time>
   </trkpt>
   <trkpt lat="-3.0955110" lon="37.3339310">
    <ele>4113.5</ele>
    <time>2026-06-22T05:51:03Z</time>
   </trkpt>
   <trkpt lat="-3.0955110" lon="37.3339320">
    <ele>4113.5</ele>
    <time>2026-06-22T05:51:04Z</time>
   </trkpt>
   <trkpt lat="-3.0955110" lon="37.3339330">
    <ele>4113.6</ele>
    <time>2026-06-22T05:51:05Z</time>
   </trkpt>
   <trkpt lat="-3.0955140" lon="37.3339380">
    <ele>4113.7</ele>
    <time>2026-06-22T05:51:06Z</time>
   </trkpt>
   <trkpt lat="-3.0955150" lon="37.3339440">
    <ele>4113.8</ele>
    <time>2026-06-22T05:51:07Z</time>
   </trkpt>
   <trkpt lat="-3.0955190" lon="37.3339440">
    <ele>4113.9</ele>
    <time>2026-06-22T05:51:08Z</time>
   </trkpt>
   <trkpt lat="-3.0955170" lon="37.3339480">
    <ele>4114.0</ele>
    <time>2026-06-22T05:51:10Z</time>
   </trkpt>
   <trkpt lat="-3.0955140" lon="37.3339520">
    <ele>4114.1</ele>
    <time>2026-06-22T05:51:11Z</time>
   </trkpt>
   <trkpt lat="-3.0955140" lon="37.3339570">
    <ele>4114.2</ele>
    <time>2026-06-22T05:51:12Z</time>
   </trkpt>
   <trkpt lat="-3.0955150" lon="37.3339560">
    <ele>4114.3</ele>
    <time>2026-06-22T05:51:13Z</time>
   </trkpt>
   <trkpt lat="-3.0955180" lon="37.3339560">
    <ele>4114.3</ele>
    <time>2026-06-22T05:51:14Z</time>
   </trkpt>
   <trkpt lat="-3.0955220" lon="37.3339550">
    <ele>4114.4</ele>
    <time>2026-06-22T05:51:15Z</time>
   </trkpt>
   <trkpt lat="-3.0955220" lon="37.3339550">
    <ele>4114.4</ele>
    <time>2026-06-22T05:51:16Z</time>
   </trkpt>
   <trkpt lat="-3.0955240" lon="37.3339540">
    <ele>4114.5</ele>
    <time>2026-06-22T05:51:17Z</time>
   </trkpt>
   <trkpt lat="-3.0955270" lon="37.3339570">
    <ele>4114.6</ele>
    <time>2026-06-22T05:51:18Z</time>
   </trkpt>
   <trkpt lat="-3.0955290" lon="37.3339570">
    <ele>4114.6</ele>
    <time>2026-06-22T05:51:19Z</time>
   </trkpt>
   <trkpt lat="-3.0955300" lon="37.3339570">
    <ele>4114.6</ele>
    <time>2026-06-22T05:51:20Z</time>
   </trkpt>
   <trkpt lat="-3.0955340" lon="37.3339560">
    <ele>4114.7</ele>
    <time>2026-06-22T05:51:21Z</time>
   </trkpt>
   <trkpt lat="-3.0955380" lon="37.3339580">
    <ele>4114.8</ele>
    <time>2026-06-22T05:51:22Z</time>
   </trkpt>
   <trkpt lat="-3.0955420" lon="37.3339570">
    <ele>4114.9</ele>
    <time>2026-06-22T05:51:23Z</time>
   </trkpt>
   <trkpt lat="-3.0955400" lon="37.3339590">
    <ele>4115.0</ele>
    <time>2026-06-22T05:51:24Z</time>
   </trkpt>
   <trkpt lat="-3.0955450" lon="37.3339590">
    <ele>4115.1</ele>
    <time>2026-06-22T05:51:25Z</time>
   </trkpt>
   <trkpt lat="-3.0955450" lon="37.3339580">
    <ele>4115.1</ele>
    <time>2026-06-22T05:51:26Z</time>
   </trkpt>
   <trkpt lat="-3.0955440" lon="37.3339580">
    <ele>4115.1</ele>
    <time>2026-06-22T05:51:27Z</time>
   </trkpt>
   <trkpt lat="-3.0955450" lon="37.3339580">
    <ele>4115.1</ele>
    <time>2026-06-22T05:51:28Z</time>
   </trkpt>
   <trkpt lat="-3.0955450" lon="37.3339580">
    <ele>4115.1</ele>
    <time>2026-06-22T05:51:29Z</time>
   </trkpt>
   <trkpt lat="-3.0955470" lon="37.3339580">
    <ele>4115.2</ele>
    <time>2026-06-22T05:51:30Z</time>
   </trkpt>
   <trkpt lat="-3.0955520" lon="37.3339560">
    <ele>4115.3</ele>
    <time>2026-06-22T05:51:31Z</time>
   </trkpt>
   <trkpt lat="-3.0955550" lon="37.3339500">
    <ele>4115.4</ele>
    <time>2026-06-22T05:51:32Z</time>
   </trkpt>
   <trkpt lat="-3.0955580" lon="37.3339560">
    <ele>4115.6</ele>
    <time>2026-06-22T05:51:33Z</time>
   </trkpt>
   <trkpt lat="-3.0955640" lon="37.3339610">
    <ele>4115.8</ele>
    <time>2026-06-22T05:51:34Z</time>
   </trkpt>
   <trkpt lat="-3.0955640" lon="37.3339570">
    <ele>4115.8</ele>
    <time>2026-06-22T05:51:35Z</time>
   </trkpt>
   <trkpt lat="-3.0955690" lon="37.3339570">
    <ele>4115.9</ele>
    <time>2026-06-22T05:51:36Z</time>
   </trkpt>
   <trkpt lat="-3.0955730" lon="37.3339610">
    <ele>4116.1</ele>
    <time>2026-06-22T05:51:37Z</time>
   </trkpt>
   <trkpt lat="-3.0955730" lon="37.3339610">
    <ele>4116.1</ele>
    <time>2026-06-22T05:51:38Z</time>
   </trkpt>
   <trkpt lat="-3.0955800" lon="37.3339620">
    <ele>4116.2</ele>
    <time>2026-06-22T05:51:39Z</time>
   </trkpt>
   <trkpt lat="-3.0955840" lon="37.3339580">
    <ele>4116.3</ele>
    <time>2026-06-22T05:51:40Z</time>
   </trkpt>
   <trkpt lat="-3.0955870" lon="37.3339550">
    <ele>4116.4</ele>
    <time>2026-06-22T05:51:41Z</time>
   </trkpt>
   <trkpt lat="-3.0955950" lon="37.3339550">
    <ele>4116.6</ele>
    <time>2026-06-22T05:51:42Z</time>
   </trkpt>
   <trkpt lat="-3.0955990" lon="37.3339530">
    <ele>4116.7</ele>
    <time>2026-06-22T05:51:43Z</time>
   </trkpt>
   <trkpt lat="-3.0956050" lon="37.3339520">
    <ele>4116.8</ele>
    <time>2026-06-22T05:51:44Z</time>
   </trkpt>
   <trkpt lat="-3.0956030" lon="37.3339560">
    <ele>4116.9</ele>
    <time>2026-06-22T05:51:45Z</time>
   </trkpt>
   <trkpt lat="-3.0956060" lon="37.3339620">
    <ele>4117.1</ele>
    <time>2026-06-22T05:51:46Z</time>
   </trkpt>
   <trkpt lat="-3.0956110" lon="37.3339650">
    <ele>4117.2</ele>
    <time>2026-06-22T05:51:47Z</time>
   </trkpt>
   <trkpt lat="-3.0956140" lon="37.3339680">
    <ele>4117.3</ele>
    <time>2026-06-22T05:51:48Z</time>
   </trkpt>
   <trkpt lat="-3.0956200" lon="37.3339720">
    <ele>4117.5</ele>
    <time>2026-06-22T05:51:49Z</time>
   </trkpt>
   <trkpt lat="-3.0956200" lon="37.3339740">
    <ele>4117.5</ele>
    <time>2026-06-22T05:51:50Z</time>
   </trkpt>
   <trkpt lat="-3.0956250" lon="37.3339780">
    <ele>4117.6</ele>
    <time>2026-06-22T05:51:51Z</time>
   </trkpt>
   <trkpt lat="-3.0956270" lon="37.3339780">
    <ele>4117.7</ele>
    <time>2026-06-22T05:51:52Z</time>
   </trkpt>
   <trkpt lat="-3.0956320" lon="37.3339780">
    <ele>4117.8</ele>
    <time>2026-06-22T05:51:53Z</time>
   </trkpt>
   <trkpt lat="-3.0956330" lon="37.3339770">
    <ele>4117.8</ele>
    <time>2026-06-22T05:51:54Z</time>
   </trkpt>
   <trkpt lat="-3.0956330" lon="37.3339760">
    <ele>4117.8</ele>
    <time>2026-06-22T05:51:55Z</time>
   </trkpt>
   <trkpt lat="-3.0956370" lon="37.3339790">
    <ele>4117.9</ele>
    <time>2026-06-22T05:51:56Z</time>
   </trkpt>
   <trkpt lat="-3.0956400" lon="37.3339810">
    <ele>4118.0</ele>
    <time>2026-06-22T05:51:57Z</time>
   </trkpt>
   <trkpt lat="-3.0956400" lon="37.3339820">
    <ele>4118.0</ele>
    <time>2026-06-22T05:51:58Z</time>
   </trkpt>
   <trkpt lat="-3.0956430" lon="37.3339820">
    <ele>4118.1</ele>
    <time>2026-06-22T05:51:59Z</time>
   </trkpt>
   <trkpt lat="-3.0956460" lon="37.3339820">
    <ele>4118.2</ele>
    <time>2026-06-22T05:52:00Z</time>
   </trkpt>
   <trkpt lat="-3.0956490" lon="37.3339840">
    <ele>4118.2</ele>
    <time>2026-06-22T05:52:01Z</time>
   </trkpt>
   <trkpt lat="-3.0956520" lon="37.3339890">
    <ele>4118.4</ele>
    <time>2026-06-22T05:52:02Z</time>
   </trkpt>
   <trkpt lat="-3.0956570" lon="37.3340020">
    <ele>4118.7</ele>
    <time>2026-06-22T05:52:03Z</time>
   </trkpt>
   <trkpt lat="-3.0956540" lon="37.3339970">
    <ele>4118.8</ele>
    <time>2026-06-22T05:52:04Z</time>
   </trkpt>
   <trkpt lat="-3.0956530" lon="37.3339970">
    <ele>4118.8</ele>
    <time>2026-06-22T05:52:05Z</time>
   </trkpt>
   <trkpt lat="-3.0956550" lon="37.3340020">
    <ele>4118.9</ele>
    <time>2026-06-22T05:52:06Z</time>
   </trkpt>
   <trkpt lat="-3.0956550" lon="37.3340060">
    <ele>4119.0</ele>
    <time>2026-06-22T05:52:07Z</time>
   </trkpt>
   <trkpt lat="-3.0956560" lon="37.3340080">
    <ele>4119.0</ele>
    <time>2026-06-22T05:52:08Z</time>
   </trkpt>
   <trkpt lat="-3.0956590" lon="37.3340090">
    <ele>4119.1</ele>
    <time>2026-06-22T05:52:09Z</time>
   </trkpt>
   <trkpt lat="-3.0956600" lon="37.3340110">
    <ele>4119.2</ele>
    <time>2026-06-22T05:52:10Z</time>
   </trkpt>
   <trkpt lat="-3.0956640" lon="37.3340120">
    <ele>4119.2</ele>
    <time>2026-06-22T05:52:11Z</time>
   </trkpt>
   <trkpt lat="-3.0956650" lon="37.3340170">
    <ele>4119.3</ele>
    <time>2026-06-22T05:52:12Z</time>
   </trkpt>
   <trkpt lat="-3.0956670" lon="37.3340150">
    <ele>4119.4</ele>
    <time>2026-06-22T05:52:13Z</time>
   </trkpt>
   <trkpt lat="-3.0956690" lon="37.3340180">
    <ele>4119.5</ele>
    <time>2026-06-22T05:52:14Z</time>
   </trkpt>
   <trkpt lat="-3.0956720" lon="37.3340180">
    <ele>4119.5</ele>
    <time>2026-06-22T05:52:15Z</time>
   </trkpt>
   <trkpt lat="-3.0956820" lon="37.3340210">
    <ele>4119.7</ele>
    <time>2026-06-22T05:52:16Z</time>
   </trkpt>
   <trkpt lat="-3.0956860" lon="37.3340220">
    <ele>4119.8</ele>
    <time>2026-06-22T05:52:17Z</time>
   </trkpt>
   <trkpt lat="-3.0956870" lon="37.3340220">
    <ele>4119.8</ele>
    <time>2026-06-22T05:52:18Z</time>
   </trkpt>
   <trkpt lat="-3.0956880" lon="37.3340210">
    <ele>4119.9</ele>
    <time>2026-06-22T05:52:19Z</time>
   </trkpt>
   <trkpt lat="-3.0956940" lon="37.3340240">
    <ele>4120.0</ele>
    <time>2026-06-22T05:52:20Z</time>
   </trkpt>
   <trkpt lat="-3.0956960" lon="37.3340250">
    <ele>4120.0</ele>
    <time>2026-06-22T05:52:21Z</time>
   </trkpt>
   <trkpt lat="-3.0956980" lon="37.3340280">
    <ele>4120.1</ele>
    <time>2026-06-22T05:52:22Z</time>
   </trkpt>
   <trkpt lat="-3.0956960" lon="37.3340290">
    <ele>4120.2</ele>
    <time>2026-06-22T05:52:23Z</time>
   </trkpt>
   <trkpt lat="-3.0956990" lon="37.3340310">
    <ele>4120.2</ele>
    <time>2026-06-22T05:52:24Z</time>
   </trkpt>
   <trkpt lat="-3.0956990" lon="37.3340340">
    <ele>4120.3</ele>
    <time>2026-06-22T05:52:25Z</time>
   </trkpt>
   <trkpt lat="-3.0956980" lon="37.3340380">
    <ele>4120.4</ele>
    <time>2026-06-22T05:52:26Z</time>
   </trkpt>
   <trkpt lat="-3.0956970" lon="37.3340410">
    <ele>4120.4</ele>
    <time>2026-06-22T05:52:27Z</time>
   </trkpt>
   <trkpt lat="-3.0957000" lon="37.3340470">
    <ele>4120.6</ele>
    <time>2026-06-22T05:52:28Z</time>
   </trkpt>
   <trkpt lat="-3.0956990" lon="37.3340490">
    <ele>4120.6</ele>
    <time>2026-06-22T05:52:29Z</time>
   </trkpt>
   <trkpt lat="-3.0957000" lon="37.3340530">
    <ele>4120.7</ele>
    <time>2026-06-22T05:52:30Z</time>
   </trkpt>
   <trkpt lat="-3.0957020" lon="37.3340570">
    <ele>4120.8</ele>
    <time>2026-06-22T05:52:31Z</time>
   </trkpt>
   <trkpt lat="-3.0957010" lon="37.3340590">
    <ele>4120.8</ele>
    <time>2026-06-22T05:52:32Z</time>
   </trkpt>
   <trkpt lat="-3.0957060" lon="37.3340610">
    <ele>4120.9</ele>
    <time>2026-06-22T05:52:33Z</time>
   </trkpt>
   <trkpt lat="-3.0957110" lon="37.3340630">
    <ele>4121.0</ele>
    <time>2026-06-22T05:52:34Z</time>
   </trkpt>
   <trkpt lat="-3.0957140" lon="37.3340640">
    <ele>4121.1</ele>
    <time>2026-06-22T05:52:35Z</time>
   </trkpt>
   <trkpt lat="-3.0957170" lon="37.3340650">
    <ele>4121.2</ele>
    <time>2026-06-22T05:52:36Z</time>
   </trkpt>
   <trkpt lat="-3.0957170" lon="37.3340670">
    <ele>4121.2</ele>
    <time>2026-06-22T05:52:37Z</time>
   </trkpt>
   <trkpt lat="-3.0957210" lon="37.3340710">
    <ele>4121.3</ele>
    <time>2026-06-22T05:52:38Z</time>
   </trkpt>
   <trkpt lat="-3.0957210" lon="37.3340720">
    <ele>4121.3</ele>
    <time>2026-06-22T05:52:39Z</time>
   </trkpt>
   <trkpt lat="-3.0957260" lon="37.3340760">
    <ele>4121.4</ele>
    <time>2026-06-22T05:52:40Z</time>
   </trkpt>
   <trkpt lat="-3.0957250" lon="37.3340750">
    <ele>4121.5</ele>
    <time>2026-06-22T05:52:41Z</time>
   </trkpt>
   <trkpt lat="-3.0957330" lon="37.3340780">
    <ele>4121.6</ele>
    <time>2026-06-22T05:52:42Z</time>
   </trkpt>
   <trkpt lat="-3.0957340" lon="37.3340830">
    <ele>4121.7</ele>
    <time>2026-06-22T05:52:43Z</time>
   </trkpt>
   <trkpt lat="-3.0957340" lon="37.3340840">
    <ele>4121.8</ele>
    <time>2026-06-22T05:52:44Z</time>
   </trkpt>
   <trkpt lat="-3.0957370" lon="37.3340880">
    <ele>4121.9</ele>
    <time>2026-06-22T05:52:45Z</time>
   </trkpt>
   <trkpt lat="-3.0957390" lon="37.3340890">
    <ele>4121.9</ele>
    <time>2026-06-22T05:52:46Z</time>
   </trkpt>
   <trkpt lat="-3.0957410" lon="37.3340910">
    <ele>4122.0</ele>
    <time>2026-06-22T05:52:47Z</time>
   </trkpt>
   <trkpt lat="-3.0957420" lon="37.3340910">
    <ele>4122.0</ele>
    <time>2026-06-22T05:52:48Z</time>
   </trkpt>
   <trkpt lat="-3.0957410" lon="37.3340920">
    <ele>4122.0</ele>
    <time>2026-06-22T05:52:49Z</time>
   </trkpt>
   <trkpt lat="-3.0957390" lon="37.3340910">
    <ele>4122.0</ele>
    <time>2026-06-22T05:52:50Z</time>
   </trkpt>
   <trkpt lat="-3.0957430" lon="37.3340960">
    <ele>4122.2</ele>
    <time>2026-06-22T05:52:51Z</time>
   </trkpt>
   <trkpt lat="-3.0957410" lon="37.3340990">
    <ele>4122.2</ele>
    <time>2026-06-22T05:52:52Z</time>
   </trkpt>
   <trkpt lat="-3.0957410" lon="37.3341000">
    <ele>4122.3</ele>
    <time>2026-06-22T05:52:53Z</time>
   </trkpt>
   <trkpt lat="-3.0957450" lon="37.3341030">
    <ele>4122.4</ele>
    <time>2026-06-22T05:52:54Z</time>
   </trkpt>
   <trkpt lat="-3.0957430" lon="37.3341010">
    <ele>4122.4</ele>
    <time>2026-06-22T05:52:55Z</time>
   </trkpt>
   <trkpt lat="-3.0957430" lon="37.3341040">
    <ele>4122.5</ele>
    <time>2026-06-22T05:52:56Z</time>
   </trkpt>
   <trkpt lat="-3.0957440" lon="37.3341060">
    <ele>4122.5</ele>
    <time>2026-06-22T05:52:57Z</time>
   </trkpt>
   <trkpt lat="-3.0957490" lon="37.3341090">
    <ele>4122.6</ele>
    <time>2026-06-22T05:52:58Z</time>
   </trkpt>
   <trkpt lat="-3.0957530" lon="37.3341130">
    <ele>4122.7</ele>
    <time>2026-06-22T05:52:59Z</time>
   </trkpt>
   <trkpt lat="-3.0957470" lon="37.3341090">
    <ele>4122.9</ele>
    <time>2026-06-22T05:53:00Z</time>
   </trkpt>
   <trkpt lat="-3.0957450" lon="37.3341130">
    <ele>4123.0</ele>
    <time>2026-06-22T05:53:01Z</time>
   </trkpt>
   <trkpt lat="-3.0957430" lon="37.3341160">
    <ele>4123.0</ele>
    <time>2026-06-22T05:53:02Z</time>
   </trkpt>
   <trkpt lat="-3.0957420" lon="37.3341190">
    <ele>4123.1</ele>
    <time>2026-06-22T05:53:03Z</time>
   </trkpt>
   <trkpt lat="-3.0957450" lon="37.3341220">
    <ele>4123.2</ele>
    <time>2026-06-22T05:53:04Z</time>
   </trkpt>
   <trkpt lat="-3.0957500" lon="37.3341270">
    <ele>4123.3</ele>
    <time>2026-06-22T05:53:05Z</time>
   </trkpt>
   <trkpt lat="-3.0957510" lon="37.3341270">
    <ele>4123.3</ele>
    <time>2026-06-22T05:53:06Z</time>
   </trkpt>
   <trkpt lat="-3.0957550" lon="37.3341310">
    <ele>4123.4</ele>
    <time>2026-06-22T05:53:07Z</time>
   </trkpt>
   <trkpt lat="-3.0957590" lon="37.3341310">
    <ele>4123.5</ele>
    <time>2026-06-22T05:53:08Z</time>
   </trkpt>
   <trkpt lat="-3.0957630" lon="37.3341320">
    <ele>4123.6</ele>
    <time>2026-06-22T05:53:09Z</time>
   </trkpt>
   <trkpt lat="-3.0957660" lon="37.3341340">
    <ele>4123.6</ele>
    <time>2026-06-22T05:53:10Z</time>
   </trkpt>
   <trkpt lat="-3.0957700" lon="37.3341360">
    <ele>4123.7</ele>
    <time>2026-06-22T05:53:11Z</time>
   </trkpt>
   <trkpt lat="-3.0957720" lon="37.3341380">
    <ele>4123.8</ele>
    <time>2026-06-22T05:53:12Z</time>
   </trkpt>
   <trkpt lat="-3.0957720" lon="37.3341400">
    <ele>4123.8</ele>
    <time>2026-06-22T05:53:13Z</time>
   </trkpt>
   <trkpt lat="-3.0957690" lon="37.3341400">
    <ele>4123.9</ele>
    <time>2026-06-22T05:53:14Z</time>
   </trkpt>
   <trkpt lat="-3.0957690" lon="37.3341450">
    <ele>4124.0</ele>
    <time>2026-06-22T05:53:16Z</time>
   </trkpt>
   <trkpt lat="-3.0957700" lon="37.3341450">
    <ele>4124.0</ele>
    <time>2026-06-22T05:53:17Z</time>
   </trkpt>
   <trkpt lat="-3.0957700" lon="37.3341450">
    <ele>4124.0</ele>
    <time>2026-06-22T05:53:18Z</time>
   </trkpt>
   <trkpt lat="-3.0957700" lon="37.3341450">
    <ele>4124.0</ele>
    <time>2026-06-22T05:53:19Z</time>
   </trkpt>
   <trkpt lat="-3.0957700" lon="37.3341460">
    <ele>4124.0</ele>
    <time>2026-06-22T05:53:20Z</time>
   </trkpt>
   <trkpt lat="-3.0957700" lon="37.3341470">
    <ele>4124.0</ele>
    <time>2026-06-22T05:53:21Z</time>
   </trkpt>
   <trkpt lat="-3.0957680" lon="37.3341480">
    <ele>4124.1</ele>
    <time>2026-06-22T05:53:22Z</time>
   </trkpt>
   <trkpt lat="-3.0957660" lon="37.3341520">
    <ele>4124.1</ele>
    <time>2026-06-22T05:53:23Z</time>
   </trkpt>
   <trkpt lat="-3.0957630" lon="37.3341550">
    <ele>4124.2</ele>
    <time>2026-06-22T05:53:24Z</time>
   </trkpt>
   <trkpt lat="-3.0957620" lon="37.3341570">
    <ele>4124.3</ele>
    <time>2026-06-22T05:53:25Z</time>
   </trkpt>
   <trkpt lat="-3.0957610" lon="37.3341560">
    <ele>4124.3</ele>
    <time>2026-06-22T05:53:26Z</time>
   </trkpt>
   <trkpt lat="-3.0957610" lon="37.3341570">
    <ele>4124.3</ele>
    <time>2026-06-22T05:53:27Z</time>
   </trkpt>
   <trkpt lat="-3.0957620" lon="37.3341570">
    <ele>4124.3</ele>
    <time>2026-06-22T05:53:28Z</time>
   </trkpt>
   <trkpt lat="-3.0957620" lon="37.3341570">
    <ele>4124.3</ele>
    <time>2026-06-22T05:53:29Z</time>
   </trkpt>
   <trkpt lat="-3.0957620" lon="37.3341570">
    <ele>4124.3</ele>
    <time>2026-06-22T05:53:30Z</time>
   </trkpt>
   <trkpt lat="-3.0957620" lon="37.3341570">
    <ele>4124.3</ele>
    <time>2026-06-22T05:53:31Z</time>
   </trkpt>
   <trkpt lat="-3.0957620" lon="37.3341570">
    <ele>4124.3</ele>
    <time>2026-06-22T05:53:32Z</time>
   </trkpt>
   <trkpt lat="-3.0957580" lon="37.3341550">
    <ele>4124.4</ele>
    <time>2026-06-22T05:53:33Z</time>
   </trkpt>
   <trkpt lat="-3.0957580" lon="37.3341530">
    <ele>4124.4</ele>
    <time>2026-06-22T05:53:34Z</time>
   </trkpt>
   <trkpt lat="-3.0957570" lon="37.3341530">
    <ele>4124.5</ele>
    <time>2026-06-22T05:53:35Z</time>
   </trkpt>
   <trkpt lat="-3.0957570" lon="37.3341540">
    <ele>4124.5</ele>
    <time>2026-06-22T05:53:36Z</time>
   </trkpt>
   <trkpt lat="-3.0957570" lon="37.3341540">
    <ele>4124.5</ele>
    <time>2026-06-22T05:53:37Z</time>
   </trkpt>
   <trkpt lat="-3.0957570" lon="37.3341550">
    <ele>4124.5</ele>
    <time>2026-06-22T05:53:38Z</time>
   </trkpt>
   <trkpt lat="-3.0957590" lon="37.3341600">
    <ele>4124.6</ele>
    <time>2026-06-22T05:53:39Z</time>
   </trkpt>
   <trkpt lat="-3.0957600" lon="37.3341600">
    <ele>4124.6</ele>
    <time>2026-06-22T05:53:40Z</time>
   </trkpt>
   <trkpt lat="-3.0957570" lon="37.3341560">
    <ele>4124.7</ele>
    <time>2026-06-22T05:53:41Z</time>
   </trkpt>
   <trkpt lat="-3.0957570" lon="37.3341560">
    <ele>4124.7</ele>
    <time>2026-06-22T05:53:42Z</time>
   </trkpt>
   <trkpt lat="-3.0957560" lon="37.3341560">
    <ele>4124.7</ele>
    <time>2026-06-22T05:53:43Z</time>
   </trkpt>
   <trkpt lat="-3.0957560" lon="37.3341560">
    <ele>4124.7</ele>
    <time>2026-06-22T05:53:44Z</time>
   </trkpt>
   <trkpt lat="-3.0957560" lon="37.3341570">
    <ele>4124.7</ele>
    <time>2026-06-22T05:53:45Z</time>
   </trkpt>
   <trkpt lat="-3.0957570" lon="37.3341570">
    <ele>4124.8</ele>
    <time>2026-06-22T05:53:46Z</time>
   </trkpt>
   <trkpt lat="-3.0957580" lon="37.3341610">
    <ele>4124.8</ele>
    <time>2026-06-22T05:53:47Z</time>
   </trkpt>
   <trkpt lat="-3.0957580" lon="37.3341670">
    <ele>4124.9</ele>
    <time>2026-06-22T05:53:48Z</time>
   </trkpt>
   <trkpt lat="-3.0957590" lon="37.3341680">
    <ele>4125.0</ele>
    <time>2026-06-22T05:53:49Z</time>
   </trkpt>
   <trkpt lat="-3.0957630" lon="37.3341660">
    <ele>4125.1</ele>
    <time>2026-06-22T05:53:50Z</time>
   </trkpt>
   <trkpt lat="-3.0957610" lon="37.3341670">
    <ele>4125.1</ele>
    <time>2026-06-22T05:53:51Z</time>
   </trkpt>
   <trkpt lat="-3.0957610" lon="37.3341670">
    <ele>4125.1</ele>
    <time>2026-06-22T05:53:52Z</time>
   </trkpt>
   <trkpt lat="-3.0957620" lon="37.3341670">
    <ele>4125.1</ele>
    <time>2026-06-22T05:53:53Z</time>
   </trkpt>
   <trkpt lat="-3.0957610" lon="37.3341680">
    <ele>4125.1</ele>
    <time>2026-06-22T05:53:54Z</time>
   </trkpt>
   <trkpt lat="-3.0957610" lon="37.3341680">
    <ele>4125.1</ele>
    <time>2026-06-22T05:53:55Z</time>
   </trkpt>
   <trkpt lat="-3.0957610" lon="37.3341680">
    <ele>4125.1</ele>
    <time>2026-06-22T05:53:56Z</time>
   </trkpt>
   <trkpt lat="-3.0957630" lon="37.3341690">
    <ele>4125.2</ele>
    <time>2026-06-22T05:53:57Z</time>
   </trkpt>
   <trkpt lat="-3.0957640" lon="37.3341680">
    <ele>4125.2</ele>
    <time>2026-06-22T05:53:58Z</time>
   </trkpt>
   <trkpt lat="-3.0957670" lon="37.3341690">
    <ele>4125.3</ele>
    <time>2026-06-22T05:53:59Z</time>
   </trkpt>
   <trkpt lat="-3.0957670" lon="37.3341710">
    <ele>4125.3</ele>
    <time>2026-06-22T05:54:00Z</time>
   </trkpt>
   <trkpt lat="-3.0957690" lon="37.3341720">
    <ele>4125.3</ele>
    <time>2026-06-22T05:54:01Z</time>
   </trkpt>
   <trkpt lat="-3.0957680" lon="37.3341730">
    <ele>4125.4</ele>
    <time>2026-06-22T05:54:02Z</time>
   </trkpt>
   <trkpt lat="-3.0957680" lon="37.3341750">
    <ele>4125.4</ele>
    <time>2026-06-22T05:54:03Z</time>
   </trkpt>
   <trkpt lat="-3.0957670" lon="37.3341760">
    <ele>4125.4</ele>
    <time>2026-06-22T05:54:04Z</time>
   </trkpt>
   <trkpt lat="-3.0957640" lon="37.3341780">
    <ele>4125.5</ele>
    <time>2026-06-22T05:54:05Z</time>
   </trkpt>
   <trkpt lat="-3.0957630" lon="37.3341780">
    <ele>4125.5</ele>
    <time>2026-06-22T05:54:06Z</time>
   </trkpt>
   <trkpt lat="-3.0957640" lon="37.3341800">
    <ele>4125.6</ele>
    <time>2026-06-22T05:54:07Z</time>
   </trkpt>
   <trkpt lat="-3.0957640" lon="37.3341800">
    <ele>4125.6</ele>
    <time>2026-06-22T05:54:08Z</time>
   </trkpt>
   <trkpt lat="-3.0957610" lon="37.3341810">
    <ele>4125.6</ele>
    <time>2026-06-22T05:54:09Z</time>
   </trkpt>
   <trkpt lat="-3.0957610" lon="37.3341830">
    <ele>4125.7</ele>
    <time>2026-06-22T05:54:10Z</time>
   </trkpt>
   <trkpt lat="-3.0957580" lon="37.3341860">
    <ele>4125.7</ele>
    <time>2026-06-22T05:54:11Z</time>
   </trkpt>
   <trkpt lat="-3.0957560" lon="37.3341880">
    <ele>4125.8</ele>
    <time>2026-06-22T05:54:12Z</time>
   </trkpt>
   <trkpt lat="-3.0957530" lon="37.3341890">
    <ele>4125.8</ele>
    <time>2026-06-22T05:54:13Z</time>
   </trkpt>
   <trkpt lat="-3.0957510" lon="37.3341950">
    <ele>4126.0</ele>
    <time>2026-06-22T05:54:14Z</time>
   </trkpt>
   <trkpt lat="-3.0957510" lon="37.3341950">
    <ele>4126.0</ele>
    <time>2026-06-22T05:54:15Z</time>
   </trkpt>
   <trkpt lat="-3.0957490" lon="37.3341990">
    <ele>4126.0</ele>
    <time>2026-06-22T05:54:16Z</time>
   </trkpt>
   <trkpt lat="-3.0957500" lon="37.3341990">
    <ele>4126.1</ele>
    <time>2026-06-22T05:54:17Z</time>
   </trkpt>
   <trkpt lat="-3.0957490" lon="37.3341990">
    <ele>4126.1</ele>
    <time>2026-06-22T05:54:18Z</time>
   </trkpt>
   <trkpt lat="-3.0957480" lon="37.3342010">
    <ele>4126.1</ele>
    <time>2026-06-22T05:54:19Z</time>
   </trkpt>
   <trkpt lat="-3.0957450" lon="37.3342030">
    <ele>4126.2</ele>
    <time>2026-06-22T05:54:20Z</time>
   </trkpt>
   <trkpt lat="-3.0957460" lon="37.3342060">
    <ele>4126.2</ele>
    <time>2026-06-22T05:54:21Z</time>
   </trkpt>
   <trkpt lat="-3.0957480" lon="37.3342110">
    <ele>4126.3</ele>
    <time>2026-06-22T05:54:22Z</time>
   </trkpt>
   <trkpt lat="-3.0957470" lon="37.3342150">
    <ele>4126.4</ele>
    <time>2026-06-22T05:54:23Z</time>
   </trkpt>
   <trkpt lat="-3.0957500" lon="37.3342180">
    <ele>4126.5</ele>
    <time>2026-06-22T05:54:24Z</time>
   </trkpt>
   <trkpt lat="-3.0957510" lon="37.3342210">
    <ele>4126.6</ele>
    <time>2026-06-22T05:54:25Z</time>
   </trkpt>
   <trkpt lat="-3.0957500" lon="37.3342260">
    <ele>4126.6</ele>
    <time>2026-06-22T05:54:26Z</time>
   </trkpt>
   <trkpt lat="-3.0957500" lon="37.3342290">
    <ele>4126.7</ele>
    <time>2026-06-22T05:54:27Z</time>
   </trkpt>
   <trkpt lat="-3.0957500" lon="37.3342300">
    <ele>4126.7</ele>
    <time>2026-06-22T05:54:28Z</time>
   </trkpt>
   <trkpt lat="-3.0957490" lon="37.3342300">
    <ele>4126.7</ele>
    <time>2026-06-22T05:54:29Z</time>
   </trkpt>
   <trkpt lat="-3.0957490" lon="37.3342310">
    <ele>4126.8</ele>
    <time>2026-06-22T05:54:30Z</time>
   </trkpt>
   <trkpt lat="-3.0957460" lon="37.3342320">
    <ele>4126.8</ele>
    <time>2026-06-22T05:54:31Z</time>
   </trkpt>
   <trkpt lat="-3.0957440" lon="37.3342340">
    <ele>4126.9</ele>
    <time>2026-06-22T05:54:32Z</time>
   </trkpt>
   <trkpt lat="-3.0957420" lon="37.3342350">
    <ele>4126.9</ele>
    <time>2026-06-22T05:54:33Z</time>
   </trkpt>
   <trkpt lat="-3.0957400" lon="37.3342400">
    <ele>4127.0</ele>
    <time>2026-06-22T05:54:34Z</time>
   </trkpt>
   <trkpt lat="-3.0957410" lon="37.3342400">
    <ele>4127.0</ele>
    <time>2026-06-22T05:54:35Z</time>
   </trkpt>
   <trkpt lat="-3.0957400" lon="37.3342430">
    <ele>4127.1</ele>
    <time>2026-06-22T05:54:36Z</time>
   </trkpt>
   <trkpt lat="-3.0957400" lon="37.3342480">
    <ele>4127.2</ele>
    <time>2026-06-22T05:54:37Z</time>
   </trkpt>
   <trkpt lat="-3.0957440" lon="37.3342480">
    <ele>4127.2</ele>
    <time>2026-06-22T05:54:38Z</time>
   </trkpt>
   <trkpt lat="-3.0957440" lon="37.3342540">
    <ele>4127.4</ele>
    <time>2026-06-22T05:54:39Z</time>
   </trkpt>
   <trkpt lat="-3.0957470" lon="37.3342570">
    <ele>4127.4</ele>
    <time>2026-06-22T05:54:40Z</time>
   </trkpt>
   <trkpt lat="-3.0957480" lon="37.3342610">
    <ele>4127.5</ele>
    <time>2026-06-22T05:54:41Z</time>
   </trkpt>
   <trkpt lat="-3.0957500" lon="37.3342650">
    <ele>4127.6</ele>
    <time>2026-06-22T05:54:42Z</time>
   </trkpt>
   <trkpt lat="-3.0957560" lon="37.3342640">
    <ele>4127.7</ele>
    <time>2026-06-22T05:54:43Z</time>
   </trkpt>
   <trkpt lat="-3.0957580" lon="37.3342650">
    <ele>4127.7</ele>
    <time>2026-06-22T05:54:44Z</time>
   </trkpt>
   <trkpt lat="-3.0957620" lon="37.3342630">
    <ele>4127.8</ele>
    <time>2026-06-22T05:54:45Z</time>
   </trkpt>
   <trkpt lat="-3.0957660" lon="37.3342630">
    <ele>4127.9</ele>
    <time>2026-06-22T05:54:46Z</time>
   </trkpt>
   <trkpt lat="-3.0957710" lon="37.3342630">
    <ele>4128.0</ele>
    <time>2026-06-22T05:54:47Z</time>
   </trkpt>
   <trkpt lat="-3.0957740" lon="37.3342640">
    <ele>4128.0</ele>
    <time>2026-06-22T05:54:48Z</time>
   </trkpt>
   <trkpt lat="-3.0957740" lon="37.3342680">
    <ele>4128.1</ele>
    <time>2026-06-22T05:54:49Z</time>
   </trkpt>
   <trkpt lat="-3.0957720" lon="37.3342730">
    <ele>4128.2</ele>
    <time>2026-06-22T05:54:50Z</time>
   </trkpt>
   <trkpt lat="-3.0957710" lon="37.3342760">
    <ele>4128.3</ele>
    <time>2026-06-22T05:54:51Z</time>
   </trkpt>
   <trkpt lat="-3.0957710" lon="37.3342750">
    <ele>4128.3</ele>
    <time>2026-06-22T05:54:52Z</time>
   </trkpt>
   <trkpt lat="-3.0957700" lon="37.3342770">
    <ele>4128.3</ele>
    <time>2026-06-22T05:54:53Z</time>
   </trkpt>
   <trkpt lat="-3.0957710" lon="37.3342770">
    <ele>4128.4</ele>
    <time>2026-06-22T05:54:54Z</time>
   </trkpt>
   <trkpt lat="-3.0957740" lon="37.3342800">
    <ele>4128.4</ele>
    <time>2026-06-22T05:54:55Z</time>
   </trkpt>
   <trkpt lat="-3.0957700" lon="37.3342790">
    <ele>4128.5</ele>
    <time>2026-06-22T05:54:56Z</time>
   </trkpt>
   <trkpt lat="-3.0957690" lon="37.3342810">
    <ele>4128.6</ele>
    <time>2026-06-22T05:54:57Z</time>
   </trkpt>
   <trkpt lat="-3.0957680" lon="37.3342850">
    <ele>4128.6</ele>
    <time>2026-06-22T05:54:58Z</time>
   </trkpt>
   <trkpt lat="-3.0957650" lon="37.3342890">
    <ele>4128.7</ele>
    <time>2026-06-22T05:54:59Z</time>
   </trkpt>
   <trkpt lat="-3.0957650" lon="37.3342920">
    <ele>4128.8</ele>
    <time>2026-06-22T05:55:00Z</time>
   </trkpt>
   <trkpt lat="-3.0957660" lon="37.3342980">
    <ele>4128.9</ele>
    <time>2026-06-22T05:55:01Z</time>
   </trkpt>
   <trkpt lat="-3.0957680" lon="37.3342990">
    <ele>4128.9</ele>
    <time>2026-06-22T05:55:02Z</time>
   </trkpt>
   <trkpt lat="-3.0957680" lon="37.3343010">
    <ele>4129.0</ele>
    <time>2026-06-22T05:55:03Z</time>
   </trkpt>
   <trkpt lat="-3.0957680" lon="37.3343010">
    <ele>4129.0</ele>
    <time>2026-06-22T05:55:04Z</time>
   </trkpt>
   <trkpt lat="-3.0957710" lon="37.3343020">
    <ele>4129.0</ele>
    <time>2026-06-22T05:55:05Z</time>
   </trkpt>
   <trkpt lat="-3.0957730" lon="37.3343040">
    <ele>4129.1</ele>
    <time>2026-06-22T05:55:06Z</time>
   </trkpt>
   <trkpt lat="-3.0957780" lon="37.3343050">
    <ele>4129.2</ele>
    <time>2026-06-22T05:55:07Z</time>
   </trkpt>
   <trkpt lat="-3.0957830" lon="37.3343040">
    <ele>4129.3</ele>
    <time>2026-06-22T05:55:08Z</time>
   </trkpt>
   <trkpt lat="-3.0957840" lon="37.3343030">
    <ele>4129.3</ele>
    <time>2026-06-22T05:55:09Z</time>
   </trkpt>
   <trkpt lat="-3.0957870" lon="37.3343000">
    <ele>4129.4</ele>
    <time>2026-06-22T05:55:10Z</time>
   </trkpt>
   <trkpt lat="-3.0957910" lon="37.3343000">
    <ele>4129.4</ele>
    <time>2026-06-22T05:55:11Z</time>
   </trkpt>
   <trkpt lat="-3.0957920" lon="37.3343050">
    <ele>4129.5</ele>
    <time>2026-06-22T05:55:12Z</time>
   </trkpt>
   <trkpt lat="-3.0957970" lon="37.3343050">
    <ele>4129.6</ele>
    <time>2026-06-22T05:55:13Z</time>
   </trkpt>
   <trkpt lat="-3.0958010" lon="37.3343080">
    <ele>4129.7</ele>
    <time>2026-06-22T05:55:14Z</time>
   </trkpt>
   <trkpt lat="-3.0958020" lon="37.3343090">
    <ele>4129.7</ele>
    <time>2026-06-22T05:55:15Z</time>
   </trkpt>
   <trkpt lat="-3.0958020" lon="37.3343090">
    <ele>4129.7</ele>
    <time>2026-06-22T05:55:16Z</time>
   </trkpt>
   <trkpt lat="-3.0958020" lon="37.3343090">
    <ele>4129.7</ele>
    <time>2026-06-22T05:55:17Z</time>
   </trkpt>
   <trkpt lat="-3.0958040" lon="37.3343090">
    <ele>4129.8</ele>
    <time>2026-06-22T05:55:18Z</time>
   </trkpt>
   <trkpt lat="-3.0958040" lon="37.3343120">
    <ele>4129.8</ele>
    <time>2026-06-22T05:55:19Z</time>
   </trkpt>
   <trkpt lat="-3.0958050" lon="37.3343110">
    <ele>4129.9</ele>
    <time>2026-06-22T05:55:20Z</time>
   </trkpt>
   <trkpt lat="-3.0958060" lon="37.3343130">
    <ele>4129.9</ele>
    <time>2026-06-22T05:55:22Z</time>
   </trkpt>
   <trkpt lat="-3.0958060" lon="37.3343130">
    <ele>4129.9</ele>
    <time>2026-06-22T05:55:23Z</time>
   </trkpt>
   <trkpt lat="-3.0958060" lon="37.3343150">
    <ele>4129.9</ele>
    <time>2026-06-22T05:55:24Z</time>
   </trkpt>
   <trkpt lat="-3.0958110" lon="37.3343150">
    <ele>4130.0</ele>
    <time>2026-06-22T05:55:25Z</time>
   </trkpt>
   <trkpt lat="-3.0958130" lon="37.3343170">
    <ele>4130.1</ele>
    <time>2026-06-22T05:55:26Z</time>
   </trkpt>
   <trkpt lat="-3.0958140" lon="37.3343170">
    <ele>4130.1</ele>
    <time>2026-06-22T05:55:27Z</time>
   </trkpt>
   <trkpt lat="-3.0958150" lon="37.3343180">
    <ele>4130.1</ele>
    <time>2026-06-22T05:55:28Z</time>
   </trkpt>
   <trkpt lat="-3.0958190" lon="37.3343170">
    <ele>4130.2</ele>
    <time>2026-06-22T05:55:29Z</time>
   </trkpt>
   <trkpt lat="-3.0958200" lon="37.3343180">
    <ele>4130.2</ele>
    <time>2026-06-22T05:55:30Z</time>
   </trkpt>
   <trkpt lat="-3.0958200" lon="37.3343180">
    <ele>4130.2</ele>
    <time>2026-06-22T05:55:31Z</time>
   </trkpt>
   <trkpt lat="-3.0958180" lon="37.3343180">
    <ele>4130.3</ele>
    <time>2026-06-22T05:55:32Z</time>
   </trkpt>
   <trkpt lat="-3.0958180" lon="37.3343210">
    <ele>4130.3</ele>
    <time>2026-06-22T05:55:33Z</time>
   </trkpt>
   <trkpt lat="-3.0958210" lon="37.3343220">
    <ele>4130.4</ele>
    <time>2026-06-22T05:55:34Z</time>
   </trkpt>
   <trkpt lat="-3.0958230" lon="37.3343220">
    <ele>4130.4</ele>
    <time>2026-06-22T05:55:35Z</time>
   </trkpt>
   <trkpt lat="-3.0958220" lon="37.3343230">
    <ele>4130.4</ele>
    <time>2026-06-22T05:55:36Z</time>
   </trkpt>
   <trkpt lat="-3.0958220" lon="37.3343270">
    <ele>4130.5</ele>
    <time>2026-06-22T05:55:37Z</time>
   </trkpt>
   <trkpt lat="-3.0958250" lon="37.3343250">
    <ele>4130.6</ele>
    <time>2026-06-22T05:55:38Z</time>
   </trkpt>
   <trkpt lat="-3.0958300" lon="37.3343270">
    <ele>4130.7</ele>
    <time>2026-06-22T05:55:39Z</time>
   </trkpt>
   <trkpt lat="-3.0958330" lon="37.3343280">
    <ele>4130.7</ele>
    <time>2026-06-22T05:55:40Z</time>
   </trkpt>
   <trkpt lat="-3.0958360" lon="37.3343280">
    <ele>4130.8</ele>
    <time>2026-06-22T05:55:41Z</time>
   </trkpt>
   <trkpt lat="-3.0958370" lon="37.3343230">
    <ele>4130.9</ele>
    <time>2026-06-22T05:55:42Z</time>
   </trkpt>
   <trkpt lat="-3.0958410" lon="37.3343250">
    <ele>4131.0</ele>
    <time>2026-06-22T05:55:43Z</time>
   </trkpt>
   <trkpt lat="-3.0958440" lon="37.3343250">
    <ele>4131.0</ele>
    <time>2026-06-22T05:55:44Z</time>
   </trkpt>
   <trkpt lat="-3.0958410" lon="37.3343230">
    <ele>4131.1</ele>
    <time>2026-06-22T05:55:45Z</time>
   </trkpt>
   <trkpt lat="-3.0958420" lon="37.3343230">
    <ele>4131.1</ele>
    <time>2026-06-22T05:55:46Z</time>
   </trkpt>
   <trkpt lat="-3.0958420" lon="37.3343230">
    <ele>4131.1</ele>
    <time>2026-06-22T05:55:47Z</time>
   </trkpt>
   <trkpt lat="-3.0958430" lon="37.3343230">
    <ele>4131.1</ele>
    <time>2026-06-22T05:55:48Z</time>
   </trkpt>
   <trkpt lat="-3.0958430" lon="37.3343240">
    <ele>4131.1</ele>
    <time>2026-06-22T05:55:49Z</time>
   </trkpt>
   <trkpt lat="-3.0958440" lon="37.3343240">
    <ele>4131.2</ele>
    <time>2026-06-22T05:55:50Z</time>
   </trkpt>
   <trkpt lat="-3.0958430" lon="37.3343250">
    <ele>4131.2</ele>
    <time>2026-06-22T05:55:51Z</time>
   </trkpt>
   <trkpt lat="-3.0958450" lon="37.3343280">
    <ele>4131.3</ele>
    <time>2026-06-22T05:55:52Z</time>
   </trkpt>
   <trkpt lat="-3.0958460" lon="37.3343300">
    <ele>4131.3</ele>
    <time>2026-06-22T05:55:53Z</time>
   </trkpt>
   <trkpt lat="-3.0958440" lon="37.3343360">
    <ele>4131.4</ele>
    <time>2026-06-22T05:55:54Z</time>
   </trkpt>
   <trkpt lat="-3.0958440" lon="37.3343380">
    <ele>4131.4</ele>
    <time>2026-06-22T05:55:55Z</time>
   </trkpt>
   <trkpt lat="-3.0958430" lon="37.3343390">
    <ele>4131.5</ele>
    <time>2026-06-22T05:55:56Z</time>
   </trkpt>
   <trkpt lat="-3.0958420" lon="37.3343420">
    <ele>4131.5</ele>
    <time>2026-06-22T05:55:57Z</time>
   </trkpt>
   <trkpt lat="-3.0958440" lon="37.3343450">
    <ele>4131.6</ele>
    <time>2026-06-22T05:55:58Z</time>
   </trkpt>
   <trkpt lat="-3.0958450" lon="37.3343430">
    <ele>4131.6</ele>
    <time>2026-06-22T05:55:59Z</time>
   </trkpt>
   <trkpt lat="-3.0958500" lon="37.3343450">
    <ele>4131.7</ele>
    <time>2026-06-22T05:56:00Z</time>
   </trkpt>
   <trkpt lat="-3.0958510" lon="37.3343460">
    <ele>4131.8</ele>
    <time>2026-06-22T05:56:01Z</time>
   </trkpt>
   <trkpt lat="-3.0958580" lon="37.3343450">
    <ele>4131.9</ele>
    <time>2026-06-22T05:56:02Z</time>
   </trkpt>
   <trkpt lat="-3.0958600" lon="37.3343480">
    <ele>4132.0</ele>
    <time>2026-06-22T05:56:03Z</time>
   </trkpt>
   <trkpt lat="-3.0958640" lon="37.3343490">
    <ele>4132.0</ele>
    <time>2026-06-22T05:56:04Z</time>
   </trkpt>
   <trkpt lat="-3.0958650" lon="37.3343500">
    <ele>4132.1</ele>
    <time>2026-06-22T05:56:05Z</time>
   </trkpt>
   <trkpt lat="-3.0958680" lon="37.3343530">
    <ele>4132.1</ele>
    <time>2026-06-22T05:56:06Z</time>
   </trkpt>
   <trkpt lat="-3.0958710" lon="37.3343570">
    <ele>4132.2</ele>
    <time>2026-06-22T05:56:07Z</time>
   </trkpt>
   <trkpt lat="-3.0958720" lon="37.3343510">
    <ele>4132.3</ele>
    <time>2026-06-22T05:56:08Z</time>
   </trkpt>
   <trkpt lat="-3.0958750" lon="37.3343520">
    <ele>4132.4</ele>
    <time>2026-06-22T05:56:09Z</time>
   </trkpt>
   <trkpt lat="-3.0958690" lon="37.3343540">
    <ele>4132.5</ele>
    <time>2026-06-22T05:56:10Z</time>
   </trkpt>
   <trkpt lat="-3.0958710" lon="37.3343520">
    <ele>4132.6</ele>
    <time>2026-06-22T05:56:11Z</time>
   </trkpt>
   <trkpt lat="-3.0958720" lon="37.3343530">
    <ele>4132.6</ele>
    <time>2026-06-22T05:56:12Z</time>
   </trkpt>
   <trkpt lat="-3.0958730" lon="37.3343540">
    <ele>4132.6</ele>
    <time>2026-06-22T05:56:13Z</time>
   </trkpt>
   <trkpt lat="-3.0958750" lon="37.3343530">
    <ele>4132.7</ele>
    <time>2026-06-22T05:56:14Z</time>
   </trkpt>
   <trkpt lat="-3.0958750" lon="37.3343530">
    <ele>4132.7</ele>
    <time>2026-06-22T05:56:15Z</time>
   </trkpt>
   <trkpt lat="-3.0958760" lon="37.3343540">
    <ele>4132.7</ele>
    <time>2026-06-22T05:56:16Z</time>
   </trkpt>
   <trkpt lat="-3.0958750" lon="37.3343540">
    <ele>4132.7</ele>
    <time>2026-06-22T05:56:17Z</time>
   </trkpt>
   <trkpt lat="-3.0958760" lon="37.3343550">
    <ele>4132.7</ele>
    <time>2026-06-22T05:56:18Z</time>
   </trkpt>
   <trkpt lat="-3.0958790" lon="37.3343540">
    <ele>4132.8</ele>
    <time>2026-06-22T05:56:19Z</time>
   </trkpt>
   <trkpt lat="-3.0958780" lon="37.3343550">
    <ele>4132.8</ele>
    <time>2026-06-22T05:56:20Z</time>
   </trkpt>
   <trkpt lat="-3.0958770" lon="37.3343560">
    <ele>4132.8</ele>
    <time>2026-06-22T05:56:21Z</time>
   </trkpt>
   <trkpt lat="-3.0958780" lon="37.3343550">
    <ele>4132.9</ele>
    <time>2026-06-22T05:56:22Z</time>
   </trkpt>
   <trkpt lat="-3.0958830" lon="37.3343530">
    <ele>4133.0</ele>
    <time>2026-06-22T05:56:23Z</time>
   </trkpt>
   <trkpt lat="-3.0958790" lon="37.3343540">
    <ele>4133.0</ele>
    <time>2026-06-22T05:56:24Z</time>
   </trkpt>
   <trkpt lat="-3.0958770" lon="37.3343460">
    <ele>4133.2</ele>
    <time>2026-06-22T05:56:25Z</time>
   </trkpt>
   <trkpt lat="-3.0958770" lon="37.3343460">
    <ele>4133.2</ele>
    <time>2026-06-22T05:56:26Z</time>
   </trkpt>
   <trkpt lat="-3.0958810" lon="37.3343520">
    <ele>4133.3</ele>
    <time>2026-06-22T05:56:27Z</time>
   </trkpt>
   <trkpt lat="-3.0958780" lon="37.3343530">
    <ele>4133.4</ele>
    <time>2026-06-22T05:56:28Z</time>
   </trkpt>
   <trkpt lat="-3.0958750" lon="37.3343550">
    <ele>4133.4</ele>
    <time>2026-06-22T05:56:29Z</time>
   </trkpt>
   <trkpt lat="-3.0958750" lon="37.3343560">
    <ele>4133.5</ele>
    <time>2026-06-22T05:56:30Z</time>
   </trkpt>
   <trkpt lat="-3.0958740" lon="37.3343550">
    <ele>4133.5</ele>
    <time>2026-06-22T05:56:31Z</time>
   </trkpt>
   <trkpt lat="-3.0958730" lon="37.3343550">
    <ele>4133.5</ele>
    <time>2026-06-22T05:56:32Z</time>
   </trkpt>
   <trkpt lat="-3.0958770" lon="37.3343560">
    <ele>4133.6</ele>
    <time>2026-06-22T05:56:33Z</time>
   </trkpt>
   <trkpt lat="-3.0958760" lon="37.3343560">
    <ele>4133.6</ele>
    <time>2026-06-22T05:56:34Z</time>
   </trkpt>
   <trkpt lat="-3.0958760" lon="37.3343560">
    <ele>4133.6</ele>
    <time>2026-06-22T05:56:35Z</time>
   </trkpt>
   <trkpt lat="-3.0958780" lon="37.3343560">
    <ele>4133.6</ele>
    <time>2026-06-22T05:56:36Z</time>
   </trkpt>
   <trkpt lat="-3.0958770" lon="37.3343550">
    <ele>4133.7</ele>
    <time>2026-06-22T05:56:37Z</time>
   </trkpt>
   <trkpt lat="-3.0958770" lon="37.3343560">
    <ele>4133.7</ele>
    <time>2026-06-22T05:56:38Z</time>
   </trkpt>
   <trkpt lat="-3.0958780" lon="37.3343570">
    <ele>4133.7</ele>
    <time>2026-06-22T05:56:39Z</time>
   </trkpt>
   <trkpt lat="-3.0958780" lon="37.3343580">
    <ele>4133.7</ele>
    <time>2026-06-22T05:56:40Z</time>
   </trkpt>
   <trkpt lat="-3.0958780" lon="37.3343560">
    <ele>4133.8</ele>
    <time>2026-06-22T05:56:41Z</time>
   </trkpt>
   <trkpt lat="-3.0958780" lon="37.3343560">
    <ele>4133.8</ele>
    <time>2026-06-22T05:56:42Z</time>
   </trkpt>
   <trkpt lat="-3.0958780" lon="37.3343580">
    <ele>4133.8</ele>
    <time>2026-06-22T05:56:43Z</time>
   </trkpt>
   <trkpt lat="-3.0958770" lon="37.3343560">
    <ele>4133.8</ele>
    <time>2026-06-22T05:56:44Z</time>
   </trkpt>
   <trkpt lat="-3.0958770" lon="37.3343550">
    <ele>4133.9</ele>
    <time>2026-06-22T05:56:45Z</time>
   </trkpt>
   <trkpt lat="-3.0958770" lon="37.3343550">
    <ele>4133.9</ele>
    <time>2026-06-22T05:56:46Z</time>
   </trkpt>
   <trkpt lat="-3.0958770" lon="37.3343540">
    <ele>4133.9</ele>
    <time>2026-06-22T05:56:47Z</time>
   </trkpt>
   <trkpt lat="-3.0958770" lon="37.3343540">
    <ele>4133.9</ele>
    <time>2026-06-22T05:56:48Z</time>
   </trkpt>
   <trkpt lat="-3.0958780" lon="37.3343540">
    <ele>4133.9</ele>
    <time>2026-06-22T05:56:49Z</time>
   </trkpt>
   <trkpt lat="-3.0958770" lon="37.3343530">
    <ele>4133.9</ele>
    <time>2026-06-22T05:56:50Z</time>
   </trkpt>
   <trkpt lat="-3.0958780" lon="37.3343540">
    <ele>4133.9</ele>
    <time>2026-06-22T05:56:51Z</time>
   </trkpt>
   <trkpt lat="-3.0958770" lon="37.3343540">
    <ele>4134.0</ele>
    <time>2026-06-22T05:56:52Z</time>
   </trkpt>
   <trkpt lat="-3.0958770" lon="37.3343540">
    <ele>4134.0</ele>
    <time>2026-06-22T05:56:53Z</time>
   </trkpt>
   <trkpt lat="-3.0958770" lon="37.3343550">
    <ele>4134.0</ele>
    <time>2026-06-22T05:56:54Z</time>
   </trkpt>
   <trkpt lat="-3.0958770" lon="37.3343550">
    <ele>4134.0</ele>
    <time>2026-06-22T05:56:55Z</time>
   </trkpt>
   <trkpt lat="-3.0958760" lon="37.3343550">
    <ele>4134.0</ele>
    <time>2026-06-22T05:56:56Z</time>
   </trkpt>
   <trkpt lat="-3.0958760" lon="37.3343560">
    <ele>4134.0</ele>
    <time>2026-06-22T05:56:57Z</time>
   </trkpt>
   <trkpt lat="-3.0958760" lon="37.3343560">
    <ele>4134.0</ele>
    <time>2026-06-22T05:56:58Z</time>
   </trkpt>
   <trkpt lat="-3.0958770" lon="37.3343570">
    <ele>4134.0</ele>
    <time>2026-06-22T05:56:59Z</time>
   </trkpt>
   <trkpt lat="-3.0958770" lon="37.3343570">
    <ele>4134.0</ele>
    <time>2026-06-22T05:57:00Z</time>
   </trkpt>
   <trkpt lat="-3.0958770" lon="37.3343570">
    <ele>4134.0</ele>
    <time>2026-06-22T05:57:01Z</time>
   </trkpt>
   <trkpt lat="-3.0958770" lon="37.3343580">
    <ele>4134.1</ele>
    <time>2026-06-22T05:57:02Z</time>
   </trkpt>
   <trkpt lat="-3.0958760" lon="37.3343570">
    <ele>4134.1</ele>
    <time>2026-06-22T05:57:03Z</time>
   </trkpt>
   <trkpt lat="-3.0958770" lon="37.3343580">
    <ele>4134.1</ele>
    <time>2026-06-22T05:57:04Z</time>
   </trkpt>
   <trkpt lat="-3.0958780" lon="37.3343580">
    <ele>4134.1</ele>
    <time>2026-06-22T05:57:05Z</time>
   </trkpt>
   <trkpt lat="-3.0958760" lon="37.3343580">
    <ele>4134.2</ele>
    <time>2026-06-22T05:57:06Z</time>
   </trkpt>
   <trkpt lat="-3.0958750" lon="37.3343580">
    <ele>4134.2</ele>
    <time>2026-06-22T05:57:07Z</time>
   </trkpt>
   <trkpt lat="-3.0958750" lon="37.3343580">
    <ele>4134.2</ele>
    <time>2026-06-22T05:57:08Z</time>
   </trkpt>
   <trkpt lat="-3.0958750" lon="37.3343580">
    <ele>4134.2</ele>
    <time>2026-06-22T05:57:09Z</time>
   </trkpt>
   <trkpt lat="-3.0958750" lon="37.3343580">
    <ele>4134.2</ele>
    <time>2026-06-22T05:57:10Z</time>
   </trkpt>
   <trkpt lat="-3.0958750" lon="37.3343580">
    <ele>4134.2</ele>
    <time>2026-06-22T05:57:11Z</time>
   </trkpt>
   <trkpt lat="-3.0958750" lon="37.3343580">
    <ele>4134.2</ele>
    <time>2026-06-22T05:57:12Z</time>
   </trkpt>
   <trkpt lat="-3.0958750" lon="37.3343580">
    <ele>4134.2</ele>
    <time>2026-06-22T05:57:13Z</time>
   </trkpt>
   <trkpt lat="-3.0958770" lon="37.3343570">
    <ele>4134.2</ele>
    <time>2026-06-22T05:57:14Z</time>
   </trkpt>
   <trkpt lat="-3.0958770" lon="37.3343570">
    <ele>4134.2</ele>
    <time>2026-06-22T05:57:15Z</time>
   </trkpt>
   <trkpt lat="-3.0958760" lon="37.3343570">
    <ele>4134.2</ele>
    <time>2026-06-22T05:57:16Z</time>
   </trkpt>
   <trkpt lat="-3.0958770" lon="37.3343550">
    <ele>4134.3</ele>
    <time>2026-06-22T05:57:17Z</time>
   </trkpt>
   <trkpt lat="-3.0958780" lon="37.3343530">
    <ele>4134.3</ele>
    <time>2026-06-22T05:57:18Z</time>
   </trkpt>
   <trkpt lat="-3.0958770" lon="37.3343580">
    <ele>4134.4</ele>
    <time>2026-06-22T05:57:19Z</time>
   </trkpt>
   <trkpt lat="-3.0958790" lon="37.3343540">
    <ele>4134.5</ele>
    <time>2026-06-22T05:57:20Z</time>
   </trkpt>
   <trkpt lat="-3.0958770" lon="37.3343550">
    <ele>4134.5</ele>
    <time>2026-06-22T05:57:21Z</time>
   </trkpt>
   <trkpt lat="-3.0958770" lon="37.3343550">
    <ele>4134.5</ele>
    <time>2026-06-22T05:57:22Z</time>
   </trkpt>
   <trkpt lat="-3.0958770" lon="37.3343550">
    <ele>4134.5</ele>
    <time>2026-06-22T05:57:23Z</time>
   </trkpt>
   <trkpt lat="-3.0958770" lon="37.3343540">
    <ele>4134.5</ele>
    <time>2026-06-22T05:57:24Z</time>
   </trkpt>
   <trkpt lat="-3.0958760" lon="37.3343550">
    <ele>4134.6</ele>
    <time>2026-06-22T05:57:25Z</time>
   </trkpt>
   <trkpt lat="-3.0958750" lon="37.3343560">
    <ele>4134.6</ele>
    <time>2026-06-22T05:57:26Z</time>
   </trkpt>
   <trkpt lat="-3.0958750" lon="37.3343560">
    <ele>4134.6</ele>
    <time>2026-06-22T05:57:28Z</time>
   </trkpt>
   <trkpt lat="-3.0958760" lon="37.3343550">
    <ele>4134.6</ele>
    <time>2026-06-22T05:57:29Z</time>
   </trkpt>
   <trkpt lat="-3.0958750" lon="37.3343550">
    <ele>4134.6</ele>
    <time>2026-06-22T05:57:30Z</time>
   </trkpt>
   <trkpt lat="-3.0958770" lon="37.3343550">
    <ele>4134.7</ele>
    <time>2026-06-22T05:57:31Z</time>
   </trkpt>
   <trkpt lat="-3.0958790" lon="37.3343570">
    <ele>4134.7</ele>
    <time>2026-06-22T05:57:32Z</time>
   </trkpt>
   <trkpt lat="-3.0958780" lon="37.3343570">
    <ele>4134.7</ele>
    <time>2026-06-22T05:57:33Z</time>
   </trkpt>
   <trkpt lat="-3.0958810" lon="37.3343560">
    <ele>4134.8</ele>
    <time>2026-06-22T05:57:34Z</time>
   </trkpt>
   <trkpt lat="-3.0958800" lon="37.3343550">
    <ele>4134.8</ele>
    <time>2026-06-22T05:57:35Z</time>
   </trkpt>
   <trkpt lat="-3.0958800" lon="37.3343540">
    <ele>4134.8</ele>
    <time>2026-06-22T05:57:36Z</time>
   </trkpt>
   <trkpt lat="-3.0958800" lon="37.3343540">
    <ele>4134.8</ele>
    <time>2026-06-22T05:57:37Z</time>
   </trkpt>
   <trkpt lat="-3.0958790" lon="37.3343540">
    <ele>4134.9</ele>
    <time>2026-06-22T05:57:38Z</time>
   </trkpt>
   <trkpt lat="-3.0958800" lon="37.3343530">
    <ele>4134.9</ele>
    <time>2026-06-22T05:57:39Z</time>
   </trkpt>
   <trkpt lat="-3.0958790" lon="37.3343540">
    <ele>4134.9</ele>
    <time>2026-06-22T05:57:40Z</time>
   </trkpt>
   <trkpt lat="-3.0958800" lon="37.3343530">
    <ele>4134.9</ele>
    <time>2026-06-22T05:57:41Z</time>
   </trkpt>
   <trkpt lat="-3.0958790" lon="37.3343510">
    <ele>4135.0</ele>
    <time>2026-06-22T05:57:42Z</time>
   </trkpt>
   <trkpt lat="-3.0958800" lon="37.3343510">
    <ele>4135.0</ele>
    <time>2026-06-22T05:57:43Z</time>
   </trkpt>
   <trkpt lat="-3.0958790" lon="37.3343520">
    <ele>4135.0</ele>
    <time>2026-06-22T05:57:44Z</time>
   </trkpt>
   <trkpt lat="-3.0958790" lon="37.3343520">
    <ele>4135.0</ele>
    <time>2026-06-22T05:57:45Z</time>
   </trkpt>
   <trkpt lat="-3.0958800" lon="37.3343500">
    <ele>4135.1</ele>
    <time>2026-06-22T05:57:46Z</time>
   </trkpt>
   <trkpt lat="-3.0958790" lon="37.3343490">
    <ele>4135.1</ele>
    <time>2026-06-22T05:57:47Z</time>
   </trkpt>
   <trkpt lat="-3.0958800" lon="37.3343500">
    <ele>4135.1</ele>
    <time>2026-06-22T05:57:48Z</time>
   </trkpt>
   <trkpt lat="-3.0958790" lon="37.3343510">
    <ele>4135.1</ele>
    <time>2026-06-22T05:57:49Z</time>
   </trkpt>
   <trkpt lat="-3.0958810" lon="37.3343500">
    <ele>4135.2</ele>
    <time>2026-06-22T05:57:50Z</time>
   </trkpt>
   <trkpt lat="-3.0958800" lon="37.3343510">
    <ele>4135.2</ele>
    <time>2026-06-22T05:57:51Z</time>
   </trkpt>
   <trkpt lat="-3.0958800" lon="37.3343520">
    <ele>4135.2</ele>
    <time>2026-06-22T05:57:52Z</time>
   </trkpt>
   <trkpt lat="-3.0958800" lon="37.3343520">
    <ele>4135.2</ele>
    <time>2026-06-22T05:57:53Z</time>
   </trkpt>
   <trkpt lat="-3.0958820" lon="37.3343520">
    <ele>4135.2</ele>
    <time>2026-06-22T05:57:54Z</time>
   </trkpt>
   <trkpt lat="-3.0958810" lon="37.3343520">
    <ele>4135.3</ele>
    <time>2026-06-22T05:57:55Z</time>
   </trkpt>
   <trkpt lat="-3.0958810" lon="37.3343520">
    <ele>4135.3</ele>
    <time>2026-06-22T05:57:56Z</time>
   </trkpt>
   <trkpt lat="-3.0958810" lon="37.3343510">
    <ele>4135.3</ele>
    <time>2026-06-22T05:57:57Z</time>
   </trkpt>
   <trkpt lat="-3.0958810" lon="37.3343510">
    <ele>4135.3</ele>
    <time>2026-06-22T05:57:58Z</time>
   </trkpt>
   <trkpt lat="-3.0958800" lon="37.3343520">
    <ele>4135.3</ele>
    <time>2026-06-22T05:57:59Z</time>
   </trkpt>
   <trkpt lat="-3.0958790" lon="37.3343530">
    <ele>4135.3</ele>
    <time>2026-06-22T05:58:00Z</time>
   </trkpt>
   <trkpt lat="-3.0958790" lon="37.3343520">
    <ele>4135.3</ele>
    <time>2026-06-22T05:58:01Z</time>
   </trkpt>
   <trkpt lat="-3.0958800" lon="37.3343520">
    <ele>4135.4</ele>
    <time>2026-06-22T05:58:02Z</time>
   </trkpt>
   <trkpt lat="-3.0958800" lon="37.3343530">
    <ele>4135.4</ele>
    <time>2026-06-22T05:58:03Z</time>
   </trkpt>
   <trkpt lat="-3.0958800" lon="37.3343520">
    <ele>4135.4</ele>
    <time>2026-06-22T05:58:04Z</time>
   </trkpt>
   <trkpt lat="-3.0958790" lon="37.3343530">
    <ele>4135.4</ele>
    <time>2026-06-22T05:58:05Z</time>
   </trkpt>
   <trkpt lat="-3.0958790" lon="37.3343540">
    <ele>4135.4</ele>
    <time>2026-06-22T05:58:06Z</time>
   </trkpt>
   <trkpt lat="-3.0958790" lon="37.3343540">
    <ele>4135.4</ele>
    <time>2026-06-22T05:58:07Z</time>
   </trkpt>
   <trkpt lat="-3.0958780" lon="37.3343540">
    <ele>4135.4</ele>
    <time>2026-06-22T05:58:08Z</time>
   </trkpt>
   <trkpt lat="-3.0958780" lon="37.3343540">
    <ele>4135.4</ele>
    <time>2026-06-22T05:58:09Z</time>
   </trkpt>
   <trkpt lat="-3.0958790" lon="37.3343530">
    <ele>4135.5</ele>
    <time>2026-06-22T05:58:10Z</time>
   </trkpt>
   <trkpt lat="-3.0958790" lon="37.3343530">
    <ele>4135.5</ele>
    <time>2026-06-22T05:58:11Z</time>
   </trkpt>
   <trkpt lat="-3.0958800" lon="37.3343540">
    <ele>4135.5</ele>
    <time>2026-06-22T05:58:12Z</time>
   </trkpt>
   <trkpt lat="-3.0958790" lon="37.3343540">
    <ele>4135.5</ele>
    <time>2026-06-22T05:58:13Z</time>
   </trkpt>
   <trkpt lat="-3.0958800" lon="37.3343530">
    <ele>4135.5</ele>
    <time>2026-06-22T05:58:14Z</time>
   </trkpt>
   <trkpt lat="-3.0958810" lon="37.3343550">
    <ele>4135.6</ele>
    <time>2026-06-22T05:58:15Z</time>
   </trkpt>
   <trkpt lat="-3.0958850" lon="37.3343550">
    <ele>4135.6</ele>
    <time>2026-06-22T05:58:16Z</time>
   </trkpt>
   <trkpt lat="-3.0958860" lon="37.3343580">
    <ele>4135.7</ele>
    <time>2026-06-22T05:58:17Z</time>
   </trkpt>
   <trkpt lat="-3.0958870" lon="37.3343580">
    <ele>4135.7</ele>
    <time>2026-06-22T05:58:18Z</time>
   </trkpt>
   <trkpt lat="-3.0958890" lon="37.3343580">
    <ele>4135.7</ele>
    <time>2026-06-22T05:58:19Z</time>
   </trkpt>
   <trkpt lat="-3.0958900" lon="37.3343560">
    <ele>4135.8</ele>
    <time>2026-06-22T05:58:20Z</time>
   </trkpt>
   <trkpt lat="-3.0958900" lon="37.3343570">
    <ele>4135.8</ele>
    <time>2026-06-22T05:58:21Z</time>
   </trkpt>
   <trkpt lat="-3.0958900" lon="37.3343560">
    <ele>4135.8</ele>
    <time>2026-06-22T05:58:22Z</time>
   </trkpt>
   <trkpt lat="-3.0958890" lon="37.3343560">
    <ele>4135.8</ele>
    <time>2026-06-22T05:58:23Z</time>
   </trkpt>
   <trkpt lat="-3.0958900" lon="37.3343550">
    <ele>4135.8</ele>
    <time>2026-06-22T05:58:24Z</time>
   </trkpt>
   <trkpt lat="-3.0958900" lon="37.3343540">
    <ele>4135.9</ele>
    <time>2026-06-22T05:58:25Z</time>
   </trkpt>
   <trkpt lat="-3.0958950" lon="37.3343500">
    <ele>4136.0</ele>
    <time>2026-06-22T05:58:26Z</time>
   </trkpt>
   <trkpt lat="-3.0958980" lon="37.3343460">
    <ele>4136.1</ele>
    <time>2026-06-22T05:58:27Z</time>
   </trkpt>
   <trkpt lat="-3.0959020" lon="37.3343440">
    <ele>4136.1</ele>
    <time>2026-06-22T05:58:28Z</time>
   </trkpt>
   <trkpt lat="-3.0959030" lon="37.3343470">
    <ele>4136.2</ele>
    <time>2026-06-22T05:58:29Z</time>
   </trkpt>
   <trkpt lat="-3.0959010" lon="37.3343500">
    <ele>4136.2</ele>
    <time>2026-06-22T05:58:30Z</time>
   </trkpt>
   <trkpt lat="-3.0959030" lon="37.3343510">
    <ele>4136.3</ele>
    <time>2026-06-22T05:58:31Z</time>
   </trkpt>
   <trkpt lat="-3.0959050" lon="37.3343530">
    <ele>4136.3</ele>
    <time>2026-06-22T05:58:32Z</time>
   </trkpt>
   <trkpt lat="-3.0959030" lon="37.3343520">
    <ele>4136.4</ele>
    <time>2026-06-22T05:58:33Z</time>
   </trkpt>
   <trkpt lat="-3.0959030" lon="37.3343520">
    <ele>4136.4</ele>
    <time>2026-06-22T05:58:34Z</time>
   </trkpt>
   <trkpt lat="-3.0959080" lon="37.3343510">
    <ele>4136.4</ele>
    <time>2026-06-22T05:58:35Z</time>
   </trkpt>
   <trkpt lat="-3.0959080" lon="37.3343500">
    <ele>4136.5</ele>
    <time>2026-06-22T05:58:36Z</time>
   </trkpt>
   <trkpt lat="-3.0959070" lon="37.3343510">
    <ele>4136.5</ele>
    <time>2026-06-22T05:58:37Z</time>
   </trkpt>
   <trkpt lat="-3.0959070" lon="37.3343510">
    <ele>4136.5</ele>
    <time>2026-06-22T05:58:38Z</time>
   </trkpt>
   <trkpt lat="-3.0959080" lon="37.3343520">
    <ele>4136.5</ele>
    <time>2026-06-22T05:58:39Z</time>
   </trkpt>
   <trkpt lat="-3.0959060" lon="37.3343530">
    <ele>4136.5</ele>
    <time>2026-06-22T05:58:40Z</time>
   </trkpt>
   <trkpt lat="-3.0959060" lon="37.3343530">
    <ele>4136.5</ele>
    <time>2026-06-22T05:58:41Z</time>
   </trkpt>
   <trkpt lat="-3.0959070" lon="37.3343520">
    <ele>4136.6</ele>
    <time>2026-06-22T05:58:42Z</time>
   </trkpt>
   <trkpt lat="-3.0959070" lon="37.3343520">
    <ele>4136.6</ele>
    <time>2026-06-22T05:58:43Z</time>
   </trkpt>
   <trkpt lat="-3.0959140" lon="37.3343510">
    <ele>4136.7</ele>
    <time>2026-06-22T05:58:44Z</time>
   </trkpt>
   <trkpt lat="-3.0959210" lon="37.3343530">
    <ele>4136.8</ele>
    <time>2026-06-22T05:58:45Z</time>
   </trkpt>
   <trkpt lat="-3.0959280" lon="37.3343570">
    <ele>4136.9</ele>
    <time>2026-06-22T05:58:46Z</time>
   </trkpt>
   <trkpt lat="-3.0959310" lon="37.3343580">
    <ele>4137.0</ele>
    <time>2026-06-22T05:58:47Z</time>
   </trkpt>
   <trkpt lat="-3.0959310" lon="37.3343610">
    <ele>4137.0</ele>
    <time>2026-06-22T05:58:48Z</time>
   </trkpt>
   <trkpt lat="-3.0959350" lon="37.3343650">
    <ele>4137.1</ele>
    <time>2026-06-22T05:58:49Z</time>
   </trkpt>
   <trkpt lat="-3.0959370" lon="37.3343640">
    <ele>4137.1</ele>
    <time>2026-06-22T05:58:50Z</time>
   </trkpt>
   <trkpt lat="-3.0959380" lon="37.3343620">
    <ele>4137.2</ele>
    <time>2026-06-22T05:58:51Z</time>
   </trkpt>
   <trkpt lat="-3.0959420" lon="37.3343590">
    <ele>4137.3</ele>
    <time>2026-06-22T05:58:52Z</time>
   </trkpt>
   <trkpt lat="-3.0959450" lon="37.3343620">
    <ele>4137.3</ele>
    <time>2026-06-22T05:58:53Z</time>
   </trkpt>
   <trkpt lat="-3.0959460" lon="37.3343610">
    <ele>4137.3</ele>
    <time>2026-06-22T05:58:54Z</time>
   </trkpt>
   <trkpt lat="-3.0959470" lon="37.3343610">
    <ele>4137.4</ele>
    <time>2026-06-22T05:58:55Z</time>
   </trkpt>
   <trkpt lat="-3.0959450" lon="37.3343660">
    <ele>4137.4</ele>
    <time>2026-06-22T05:58:56Z</time>
   </trkpt>
   <trkpt lat="-3.0959430" lon="37.3343660">
    <ele>4137.5</ele>
    <time>2026-06-22T05:58:57Z</time>
   </trkpt>
   <trkpt lat="-3.0959440" lon="37.3343660">
    <ele>4137.5</ele>
    <time>2026-06-22T05:58:58Z</time>
   </trkpt>
   <trkpt lat="-3.0959470" lon="37.3343660">
    <ele>4137.5</ele>
    <time>2026-06-22T05:58:59Z</time>
   </trkpt>
   <trkpt lat="-3.0959420" lon="37.3343630">
    <ele>4137.6</ele>
    <time>2026-06-22T05:59:00Z</time>
   </trkpt>
   <trkpt lat="-3.0959460" lon="37.3343610">
    <ele>4137.7</ele>
    <time>2026-06-22T05:59:01Z</time>
   </trkpt>
   <trkpt lat="-3.0959460" lon="37.3343630">
    <ele>4137.7</ele>
    <time>2026-06-22T05:59:02Z</time>
   </trkpt>
   <trkpt lat="-3.0959440" lon="37.3343650">
    <ele>4137.8</ele>
    <time>2026-06-22T05:59:03Z</time>
   </trkpt>
   <trkpt lat="-3.0959450" lon="37.3343630">
    <ele>4137.8</ele>
    <time>2026-06-22T05:59:04Z</time>
   </trkpt>
   <trkpt lat="-3.0959440" lon="37.3343630">
    <ele>4137.8</ele>
    <time>2026-06-22T05:59:05Z</time>
   </trkpt>
   <trkpt lat="-3.0959440" lon="37.3343640">
    <ele>4137.8</ele>
    <time>2026-06-22T05:59:06Z</time>
   </trkpt>
   <trkpt lat="-3.0959450" lon="37.3343640">
    <ele>4137.9</ele>
    <time>2026-06-22T05:59:07Z</time>
   </trkpt>
   <trkpt lat="-3.0959500" lon="37.3343620">
    <ele>4137.9</ele>
    <time>2026-06-22T05:59:08Z</time>
   </trkpt>
   <trkpt lat="-3.0959480" lon="37.3343620">
    <ele>4138.0</ele>
    <time>2026-06-22T05:59:09Z</time>
   </trkpt>
   <trkpt lat="-3.0959470" lon="37.3343620">
    <ele>4138.0</ele>
    <time>2026-06-22T05:59:10Z</time>
   </trkpt>
   <trkpt lat="-3.0959500" lon="37.3343620">
    <ele>4138.0</ele>
    <time>2026-06-22T05:59:11Z</time>
   </trkpt>
   <trkpt lat="-3.0959470" lon="37.3343670">
    <ele>4138.1</ele>
    <time>2026-06-22T05:59:12Z</time>
   </trkpt>
   <trkpt lat="-3.0959520" lon="37.3343620">
    <ele>4138.2</ele>
    <time>2026-06-22T05:59:13Z</time>
   </trkpt>
   <trkpt lat="-3.0959480" lon="37.3343680">
    <ele>4138.3</ele>
    <time>2026-06-22T05:59:14Z</time>
   </trkpt>
   <trkpt lat="-3.0959460" lon="37.3343660">
    <ele>4138.4</ele>
    <time>2026-06-22T05:59:15Z</time>
   </trkpt>
   <trkpt lat="-3.0959450" lon="37.3343660">
    <ele>4138.4</ele>
    <time>2026-06-22T05:59:16Z</time>
   </trkpt>
   <trkpt lat="-3.0959460" lon="37.3343660">
    <ele>4138.4</ele>
    <time>2026-06-22T05:59:17Z</time>
   </trkpt>
   <trkpt lat="-3.0959470" lon="37.3343660">
    <ele>4138.4</ele>
    <time>2026-06-22T05:59:18Z</time>
   </trkpt>
   <trkpt lat="-3.0959470" lon="37.3343660">
    <ele>4138.4</ele>
    <time>2026-06-22T05:59:19Z</time>
   </trkpt>
   <trkpt lat="-3.0959470" lon="37.3343660">
    <ele>4138.4</ele>
    <time>2026-06-22T05:59:20Z</time>
   </trkpt>
   <trkpt lat="-3.0959460" lon="37.3343660">
    <ele>4138.4</ele>
    <time>2026-06-22T05:59:21Z</time>
   </trkpt>
   <trkpt lat="-3.0959460" lon="37.3343660">
    <ele>4138.4</ele>
    <time>2026-06-22T05:59:22Z</time>
   </trkpt>
   <trkpt lat="-3.0959460" lon="37.3343650">
    <ele>4138.4</ele>
    <time>2026-06-22T05:59:23Z</time>
   </trkpt>
   <trkpt lat="-3.0959460" lon="37.3343650">
    <ele>4138.4</ele>
    <time>2026-06-22T05:59:24Z</time>
   </trkpt>
   <trkpt lat="-3.0959460" lon="37.3343650">
    <ele>4138.4</ele>
    <time>2026-06-22T05:59:25Z</time>
   </trkpt>
   <trkpt lat="-3.0959460" lon="37.3343650">
    <ele>4138.4</ele>
    <time>2026-06-22T05:59:26Z</time>
   </trkpt>
   <trkpt lat="-3.0959450" lon="37.3343650">
    <ele>4138.5</ele>
    <time>2026-06-22T05:59:27Z</time>
   </trkpt>
   <trkpt lat="-3.0959450" lon="37.3343650">
    <ele>4138.5</ele>
    <time>2026-06-22T05:59:28Z</time>
   </trkpt>
   <trkpt lat="-3.0959450" lon="37.3343630">
    <ele>4138.5</ele>
    <time>2026-06-22T05:59:29Z</time>
   </trkpt>
   <trkpt lat="-3.0959460" lon="37.3343630">
    <ele>4138.5</ele>
    <time>2026-06-22T05:59:30Z</time>
   </trkpt>
   <trkpt lat="-3.0959480" lon="37.3343640">
    <ele>4138.5</ele>
    <time>2026-06-22T05:59:31Z</time>
   </trkpt>
   <trkpt lat="-3.0959490" lon="37.3343660">
    <ele>4138.6</ele>
    <time>2026-06-22T05:59:32Z</time>
   </trkpt>
   <trkpt lat="-3.0959460" lon="37.3343660">
    <ele>4138.6</ele>
    <time>2026-06-22T05:59:34Z</time>
   </trkpt>
   <trkpt lat="-3.0959450" lon="37.3343640">
    <ele>4138.6</ele>
    <time>2026-06-22T05:59:35Z</time>
   </trkpt>
   <trkpt lat="-3.0959450" lon="37.3343640">
    <ele>4138.6</ele>
    <time>2026-06-22T05:59:36Z</time>
   </trkpt>
   <trkpt lat="-3.0959480" lon="37.3343660">
    <ele>4138.7</ele>
    <time>2026-06-22T05:59:37Z</time>
   </trkpt>
   <trkpt lat="-3.0959480" lon="37.3343660">
    <ele>4138.7</ele>
    <time>2026-06-22T05:59:38Z</time>
   </trkpt>
   <trkpt lat="-3.0959480" lon="37.3343660">
    <ele>4138.7</ele>
    <time>2026-06-22T05:59:39Z</time>
   </trkpt>
   <trkpt lat="-3.0959480" lon="37.3343640">
    <ele>4138.7</ele>
    <time>2026-06-22T05:59:40Z</time>
   </trkpt>
   <trkpt lat="-3.0959470" lon="37.3343640">
    <ele>4138.7</ele>
    <time>2026-06-22T05:59:41Z</time>
   </trkpt>
   <trkpt lat="-3.0959470" lon="37.3343650">
    <ele>4138.8</ele>
    <time>2026-06-22T05:59:42Z</time>
   </trkpt>
   <trkpt lat="-3.0959460" lon="37.3343630">
    <ele>4138.8</ele>
    <time>2026-06-22T05:59:43Z</time>
   </trkpt>
   <trkpt lat="-3.0959450" lon="37.3343620">
    <ele>4138.8</ele>
    <time>2026-06-22T05:59:44Z</time>
   </trkpt>
   <trkpt lat="-3.0959460" lon="37.3343650">
    <ele>4138.8</ele>
    <time>2026-06-22T05:59:45Z</time>
   </trkpt>
   <trkpt lat="-3.0959460" lon="37.3343660">
    <ele>4138.9</ele>
    <time>2026-06-22T05:59:46Z</time>
   </trkpt>
   <trkpt lat="-3.0959490" lon="37.3343700">
    <ele>4138.9</ele>
    <time>2026-06-22T05:59:47Z</time>
   </trkpt>
   <trkpt lat="-3.0959460" lon="37.3343650">
    <ele>4139.0</ele>
    <time>2026-06-22T05:59:48Z</time>
   </trkpt>
   <trkpt lat="-3.0959440" lon="37.3343630">
    <ele>4139.1</ele>
    <time>2026-06-22T05:59:49Z</time>
   </trkpt>
   <trkpt lat="-3.0959450" lon="37.3343620">
    <ele>4139.1</ele>
    <time>2026-06-22T05:59:50Z</time>
   </trkpt>
   <trkpt lat="-3.0959400" lon="37.3343580">
    <ele>4139.2</ele>
    <time>2026-06-22T05:59:51Z</time>
   </trkpt>
   <trkpt lat="-3.0959420" lon="37.3343590">
    <ele>4139.2</ele>
    <time>2026-06-22T05:59:52Z</time>
   </trkpt>
   <trkpt lat="-3.0959390" lon="37.3343600">
    <ele>4139.3</ele>
    <time>2026-06-22T05:59:53Z</time>
   </trkpt>
   <trkpt lat="-3.0959370" lon="37.3343570">
    <ele>4139.3</ele>
    <time>2026-06-22T05:59:54Z</time>
   </trkpt>
   <trkpt lat="-3.0959420" lon="37.3343580">
    <ele>4139.4</ele>
    <time>2026-06-22T05:59:55Z</time>
   </trkpt>
   <trkpt lat="-3.0959410" lon="37.3343640">
    <ele>4139.5</ele>
    <time>2026-06-22T05:59:56Z</time>
   </trkpt>
   <trkpt lat="-3.0959390" lon="37.3343660">
    <ele>4139.5</ele>
    <time>2026-06-22T05:59:57Z</time>
   </trkpt>
   <trkpt lat="-3.0959380" lon="37.3343650">
    <ele>4139.5</ele>
    <time>2026-06-22T05:59:58Z</time>
   </trkpt>
   <trkpt lat="-3.0959380" lon="37.3343630">
    <ele>4139.6</ele>
    <time>2026-06-22T05:59:59Z</time>
   </trkpt>
   <trkpt lat="-3.0959400" lon="37.3343610">
    <ele>4139.6</ele>
    <time>2026-06-22T06:00:00Z</time>
   </trkpt>
   <trkpt lat="-3.0959400" lon="37.3343580">
    <ele>4139.6</ele>
    <time>2026-06-22T06:00:01Z</time>
   </trkpt>
   <trkpt lat="-3.0959410" lon="37.3343660">
    <ele>4139.7</ele>
    <time>2026-06-22T06:00:02Z</time>
   </trkpt>
   <trkpt lat="-3.0959410" lon="37.3343650">
    <ele>4139.8</ele>
    <time>2026-06-22T06:00:03Z</time>
   </trkpt>
   <trkpt lat="-3.0959260" lon="37.3343610">
    <ele>4140.0</ele>
    <time>2026-06-22T06:00:04Z</time>
   </trkpt>
   <trkpt lat="-3.0959330" lon="37.3343620">
    <ele>4140.1</ele>
    <time>2026-06-22T06:00:05Z</time>
   </trkpt>
   <trkpt lat="-3.0959330" lon="37.3343640">
    <ele>4140.1</ele>
    <time>2026-06-22T06:00:06Z</time>
   </trkpt>
   <trkpt lat="-3.0959340" lon="37.3343630">
    <ele>4140.1</ele>
    <time>2026-06-22T06:00:07Z</time>
   </trkpt>
   <trkpt lat="-3.0959330" lon="37.3343640">
    <ele>4140.1</ele>
    <time>2026-06-22T06:00:08Z</time>
   </trkpt>
   <trkpt lat="-3.0959330" lon="37.3343640">
    <ele>4140.1</ele>
    <time>2026-06-22T06:00:09Z</time>
   </trkpt>
   <trkpt lat="-3.0959340" lon="37.3343640">
    <ele>4140.1</ele>
    <time>2026-06-22T06:00:10Z</time>
   </trkpt>
   <trkpt lat="-3.0959340" lon="37.3343640">
    <ele>4140.1</ele>
    <time>2026-06-22T06:00:11Z</time>
   </trkpt>
   <trkpt lat="-3.0959360" lon="37.3343630">
    <ele>4140.2</ele>
    <time>2026-06-22T06:00:12Z</time>
   </trkpt>
   <trkpt lat="-3.0959360" lon="37.3343630">
    <ele>4140.2</ele>
    <time>2026-06-22T06:00:13Z</time>
   </trkpt>
   <trkpt lat="-3.0959380" lon="37.3343640">
    <ele>4140.2</ele>
    <time>2026-06-22T06:00:14Z</time>
   </trkpt>
   <trkpt lat="-3.0959380" lon="37.3343630">
    <ele>4140.2</ele>
    <time>2026-06-22T06:00:15Z</time>
   </trkpt>
   <trkpt lat="-3.0959420" lon="37.3343630">
    <ele>4140.3</ele>
    <time>2026-06-22T06:00:16Z</time>
   </trkpt>
   <trkpt lat="-3.0959410" lon="37.3343630">
    <ele>4140.3</ele>
    <time>2026-06-22T06:00:17Z</time>
   </trkpt>
   <trkpt lat="-3.0959400" lon="37.3343630">
    <ele>4140.3</ele>
    <time>2026-06-22T06:00:18Z</time>
   </trkpt>
   <trkpt lat="-3.0959400" lon="37.3343620">
    <ele>4140.3</ele>
    <time>2026-06-22T06:00:19Z</time>
   </trkpt>
   <trkpt lat="-3.0959410" lon="37.3343620">
    <ele>4140.3</ele>
    <time>2026-06-22T06:00:20Z</time>
   </trkpt>
   <trkpt lat="-3.0959400" lon="37.3343630">
    <ele>4140.4</ele>
    <time>2026-06-22T06:00:21Z</time>
   </trkpt>
   <trkpt lat="-3.0959390" lon="37.3343640">
    <ele>4140.4</ele>
    <time>2026-06-22T06:00:22Z</time>
   </trkpt>
   <trkpt lat="-3.0959410" lon="37.3343640">
    <ele>4140.4</ele>
    <time>2026-06-22T06:00:23Z</time>
   </trkpt>
   <trkpt lat="-3.0959400" lon="37.3343630">
    <ele>4140.4</ele>
    <time>2026-06-22T06:00:24Z</time>
   </trkpt>
   <trkpt lat="-3.0959420" lon="37.3343620">
    <ele>4140.4</ele>
    <time>2026-06-22T06:00:25Z</time>
   </trkpt>
   <trkpt lat="-3.0959390" lon="37.3343620">
    <ele>4140.5</ele>
    <time>2026-06-22T06:00:26Z</time>
   </trkpt>
   <trkpt lat="-3.0959410" lon="37.3343610">
    <ele>4140.5</ele>
    <time>2026-06-22T06:00:27Z</time>
   </trkpt>
   <trkpt lat="-3.0959390" lon="37.3343590">
    <ele>4140.6</ele>
    <time>2026-06-22T06:00:28Z</time>
   </trkpt>
   <trkpt lat="-3.0959390" lon="37.3343610">
    <ele>4140.6</ele>
    <time>2026-06-22T06:00:29Z</time>
   </trkpt>
   <trkpt lat="-3.0959410" lon="37.3343600">
    <ele>4140.6</ele>
    <time>2026-06-22T06:00:30Z</time>
   </trkpt>
   <trkpt lat="-3.0959410" lon="37.3343570">
    <ele>4140.7</ele>
    <time>2026-06-22T06:00:31Z</time>
   </trkpt>
   <trkpt lat="-3.0959430" lon="37.3343590">
    <ele>4140.7</ele>
    <time>2026-06-22T06:00:32Z</time>
   </trkpt>
   <trkpt lat="-3.0959440" lon="37.3343590">
    <ele>4140.7</ele>
    <time>2026-06-22T06:00:33Z</time>
   </trkpt>
   <trkpt lat="-3.0959440" lon="37.3343580">
    <ele>4140.7</ele>
    <time>2026-06-22T06:00:34Z</time>
   </trkpt>
   <trkpt lat="-3.0959460" lon="37.3343540">
    <ele>4140.8</ele>
    <time>2026-06-22T06:00:35Z</time>
   </trkpt>
   <trkpt lat="-3.0959470" lon="37.3343540">
    <ele>4140.8</ele>
    <time>2026-06-22T06:00:36Z</time>
   </trkpt>
   <trkpt lat="-3.0959470" lon="37.3343610">
    <ele>4140.9</ele>
    <time>2026-06-22T06:00:37Z</time>
   </trkpt>
   <trkpt lat="-3.0959500" lon="37.3343610">
    <ele>4140.9</ele>
    <time>2026-06-22T06:00:38Z</time>
   </trkpt>
   <trkpt lat="-3.0959490" lon="37.3343590">
    <ele>4141.0</ele>
    <time>2026-06-22T06:00:39Z</time>
   </trkpt>
   <trkpt lat="-3.0959470" lon="37.3343590">
    <ele>4141.0</ele>
    <time>2026-06-22T06:00:40Z</time>
   </trkpt>
   <trkpt lat="-3.0959480" lon="37.3343580">
    <ele>4141.0</ele>
    <time>2026-06-22T06:00:41Z</time>
   </trkpt>
   <trkpt lat="-3.0959460" lon="37.3343580">
    <ele>4141.0</ele>
    <time>2026-06-22T06:00:42Z</time>
   </trkpt>
   <trkpt lat="-3.0959460" lon="37.3343570">
    <ele>4141.0</ele>
    <time>2026-06-22T06:00:43Z</time>
   </trkpt>
   <trkpt lat="-3.0959330" lon="37.3343580">
    <ele>4141.2</ele>
    <time>2026-06-22T06:00:44Z</time>
   </trkpt>
   <trkpt lat="-3.0959420" lon="37.3343530">
    <ele>4141.3</ele>
    <time>2026-06-22T06:00:45Z</time>
   </trkpt>
   <trkpt lat="-3.0959410" lon="37.3343510">
    <ele>4141.4</ele>
    <time>2026-06-22T06:00:46Z</time>
   </trkpt>
   <trkpt lat="-3.0959390" lon="37.3343530">
    <ele>4141.4</ele>
    <time>2026-06-22T06:00:47Z</time>
   </trkpt>
   <trkpt lat="-3.0959390" lon="37.3343530">
    <ele>4141.4</ele>
    <time>2026-06-22T06:00:48Z</time>
   </trkpt>
   <trkpt lat="-3.0959350" lon="37.3343510">
    <ele>4141.5</ele>
    <time>2026-06-22T06:00:49Z</time>
   </trkpt>
   <trkpt lat="-3.0959370" lon="37.3343510">
    <ele>4141.5</ele>
    <time>2026-06-22T06:00:50Z</time>
   </trkpt>
   <trkpt lat="-3.0959410" lon="37.3343580">
    <ele>4141.6</ele>
    <time>2026-06-22T06:00:51Z</time>
   </trkpt>
   <trkpt lat="-3.0959430" lon="37.3343600">
    <ele>4141.6</ele>
    <time>2026-06-22T06:00:52Z</time>
   </trkpt>
   <trkpt lat="-3.0959400" lon="37.3343610">
    <ele>4141.7</ele>
    <time>2026-06-22T06:00:53Z</time>
   </trkpt>
   <trkpt lat="-3.0959440" lon="37.3343620">
    <ele>4141.7</ele>
    <time>2026-06-22T06:00:54Z</time>
   </trkpt>
   <trkpt lat="-3.0959450" lon="37.3343630">
    <ele>4141.8</ele>
    <time>2026-06-22T06:00:55Z</time>
   </trkpt>
   <trkpt lat="-3.0959470" lon="37.3343640">
    <ele>4141.8</ele>
    <time>2026-06-22T06:00:56Z</time>
   </trkpt>
   <trkpt lat="-3.0959460" lon="37.3343640">
    <ele>4141.8</ele>
    <time>2026-06-22T06:00:57Z</time>
   </trkpt>
   <trkpt lat="-3.0959450" lon="37.3343610">
    <ele>4141.8</ele>
    <time>2026-06-22T06:00:58Z</time>
   </trkpt>
   <trkpt lat="-3.0959460" lon="37.3343620">
    <ele>4141.9</ele>
    <time>2026-06-22T06:00:59Z</time>
   </trkpt>
   <trkpt lat="-3.0959470" lon="37.3343600">
    <ele>4141.9</ele>
    <time>2026-06-22T06:01:00Z</time>
   </trkpt>
   <trkpt lat="-3.0959460" lon="37.3343600">
    <ele>4141.9</ele>
    <time>2026-06-22T06:01:01Z</time>
   </trkpt>
   <trkpt lat="-3.0959460" lon="37.3343600">
    <ele>4141.9</ele>
    <time>2026-06-22T06:01:02Z</time>
   </trkpt>
   <trkpt lat="-3.0959460" lon="37.3343600">
    <ele>4141.9</ele>
    <time>2026-06-22T06:01:03Z</time>
   </trkpt>
   <trkpt lat="-3.0959460" lon="37.3343600">
    <ele>4141.9</ele>
    <time>2026-06-22T06:01:04Z</time>
   </trkpt>
   <trkpt lat="-3.0959460" lon="37.3343600">
    <ele>4141.9</ele>
    <time>2026-06-22T06:01:05Z</time>
   </trkpt>
   <trkpt lat="-3.0959460" lon="37.3343600">
    <ele>4141.9</ele>
    <time>2026-06-22T06:01:06Z</time>
   </trkpt>
   <trkpt lat="-3.0959460" lon="37.3343600">
    <ele>4141.9</ele>
    <time>2026-06-22T06:01:07Z</time>
   </trkpt>
   <trkpt lat="-3.0959450" lon="37.3343590">
    <ele>4141.9</ele>
    <time>2026-06-22T06:01:08Z</time>
   </trkpt>
   <trkpt lat="-3.0959440" lon="37.3343590">
    <ele>4141.9</ele>
    <time>2026-06-22T06:01:09Z</time>
   </trkpt>
   <trkpt lat="-3.0959430" lon="37.3343580">
    <ele>4141.9</ele>
    <time>2026-06-22T06:01:10Z</time>
   </trkpt>
   <trkpt lat="-3.0959450" lon="37.3343600">
    <ele>4142.0</ele>
    <time>2026-06-22T06:01:11Z</time>
   </trkpt>
   <trkpt lat="-3.0959450" lon="37.3343600">
    <ele>4142.0</ele>
    <time>2026-06-22T06:01:12Z</time>
   </trkpt>
   <trkpt lat="-3.0959460" lon="37.3343610">
    <ele>4142.0</ele>
    <time>2026-06-22T06:01:13Z</time>
   </trkpt>
   <trkpt lat="-3.0959440" lon="37.3343610">
    <ele>4142.0</ele>
    <time>2026-06-22T06:01:14Z</time>
   </trkpt>
   <trkpt lat="-3.0959430" lon="37.3343620">
    <ele>4142.0</ele>
    <time>2026-06-22T06:01:15Z</time>
   </trkpt>
   <trkpt lat="-3.0959430" lon="37.3343610">
    <ele>4142.1</ele>
    <time>2026-06-22T06:01:16Z</time>
   </trkpt>
   <trkpt lat="-3.0959430" lon="37.3343650">
    <ele>4142.1</ele>
    <time>2026-06-22T06:01:17Z</time>
   </trkpt>
   <trkpt lat="-3.0959430" lon="37.3343640">
    <ele>4142.1</ele>
    <time>2026-06-22T06:01:18Z</time>
   </trkpt>
   <trkpt lat="-3.0959430" lon="37.3343640">
    <ele>4142.1</ele>
    <time>2026-06-22T06:01:19Z</time>
   </trkpt>
   <trkpt lat="-3.0959440" lon="37.3343650">
    <ele>4142.1</ele>
    <time>2026-06-22T06:01:20Z</time>
   </trkpt>
   <trkpt lat="-3.0959450" lon="37.3343640">
    <ele>4142.2</ele>
    <time>2026-06-22T06:01:21Z</time>
   </trkpt>
   <trkpt lat="-3.0959460" lon="37.3343640">
    <ele>4142.2</ele>
    <time>2026-06-22T06:01:22Z</time>
   </trkpt>
   <trkpt lat="-3.0959460" lon="37.3343640">
    <ele>4142.2</ele>
    <time>2026-06-22T06:01:23Z</time>
   </trkpt>
   <trkpt lat="-3.0959460" lon="37.3343640">
    <ele>4142.2</ele>
    <time>2026-06-22T06:01:24Z</time>
   </trkpt>
   <trkpt lat="-3.0959460" lon="37.3343640">
    <ele>4142.2</ele>
    <time>2026-06-22T06:01:25Z</time>
   </trkpt>
   <trkpt lat="-3.0959480" lon="37.3343620">
    <ele>4142.2</ele>
    <time>2026-06-22T06:01:26Z</time>
   </trkpt>
   <trkpt lat="-3.0959480" lon="37.3343620">
    <ele>4142.2</ele>
    <time>2026-06-22T06:01:27Z</time>
   </trkpt>
   <trkpt lat="-3.0959490" lon="37.3343620">
    <ele>4142.2</ele>
    <time>2026-06-22T06:01:28Z</time>
   </trkpt>
   <trkpt lat="-3.0959490" lon="37.3343620">
    <ele>4142.2</ele>
    <time>2026-06-22T06:01:29Z</time>
   </trkpt>
   <trkpt lat="-3.0959490" lon="37.3343620">
    <ele>4142.2</ele>
    <time>2026-06-22T06:01:30Z</time>
   </trkpt>
   <trkpt lat="-3.0959490" lon="37.3343620">
    <ele>4142.2</ele>
    <time>2026-06-22T06:01:31Z</time>
   </trkpt>
   <trkpt lat="-3.0959490" lon="37.3343630">
    <ele>4142.2</ele>
    <time>2026-06-22T06:01:32Z</time>
   </trkpt>
   <trkpt lat="-3.0959490" lon="37.3343640">
    <ele>4142.3</ele>
    <time>2026-06-22T06:01:33Z</time>
   </trkpt>
   <trkpt lat="-3.0959480" lon="37.3343640">
    <ele>4142.3</ele>
    <time>2026-06-22T06:01:34Z</time>
   </trkpt>
   <trkpt lat="-3.0959520" lon="37.3343670">
    <ele>4142.3</ele>
    <time>2026-06-22T06:01:35Z</time>
   </trkpt>
   <trkpt lat="-3.0959500" lon="37.3343650">
    <ele>4142.4</ele>
    <time>2026-06-22T06:01:36Z</time>
   </trkpt>
   <trkpt lat="-3.0959490" lon="37.3343650">
    <ele>4142.4</ele>
    <time>2026-06-22T06:01:37Z</time>
   </trkpt>
   <trkpt lat="-3.0959490" lon="37.3343650">
    <ele>4142.4</ele>
    <time>2026-06-22T06:01:38Z</time>
   </trkpt>
   <trkpt lat="-3.0959510" lon="37.3343650">
    <ele>4142.4</ele>
    <time>2026-06-22T06:01:40Z</time>
   </trkpt>
   <trkpt lat="-3.0959520" lon="37.3343650">
    <ele>4142.4</ele>
    <time>2026-06-22T06:01:41Z</time>
   </trkpt>
   <trkpt lat="-3.0959520" lon="37.3343660">
    <ele>4142.4</ele>
    <time>2026-06-22T06:01:42Z</time>
   </trkpt>
   <trkpt lat="-3.0959520" lon="37.3343660">
    <ele>4142.4</ele>
    <time>2026-06-22T06:01:43Z</time>
   </trkpt>
   <trkpt lat="-3.0959530" lon="37.3343640">
    <ele>4142.5</ele>
    <time>2026-06-22T06:01:44Z</time>
   </trkpt>
   <trkpt lat="-3.0959530" lon="37.3343630">
    <ele>4142.5</ele>
    <time>2026-06-22T06:01:45Z</time>
   </trkpt>
   <trkpt lat="-3.0959540" lon="37.3343640">
    <ele>4142.5</ele>
    <time>2026-06-22T06:01:46Z</time>
   </trkpt>
   <trkpt lat="-3.0959550" lon="37.3343640">
    <ele>4142.5</ele>
    <time>2026-06-22T06:01:47Z</time>
   </trkpt>
   <trkpt lat="-3.0959540" lon="37.3343630">
    <ele>4142.5</ele>
    <time>2026-06-22T06:01:48Z</time>
   </trkpt>
   <trkpt lat="-3.0959520" lon="37.3343630">
    <ele>4142.5</ele>
    <time>2026-06-22T06:01:49Z</time>
   </trkpt>
   <trkpt lat="-3.0959530" lon="37.3343620">
    <ele>4142.6</ele>
    <time>2026-06-22T06:01:50Z</time>
   </trkpt>
   <trkpt lat="-3.0959510" lon="37.3343640">
    <ele>4142.6</ele>
    <time>2026-06-22T06:01:51Z</time>
   </trkpt>
   <trkpt lat="-3.0959510" lon="37.3343630">
    <ele>4142.6</ele>
    <time>2026-06-22T06:01:52Z</time>
   </trkpt>
   <trkpt lat="-3.0959530" lon="37.3343620">
    <ele>4142.6</ele>
    <time>2026-06-22T06:01:53Z</time>
   </trkpt>
   <trkpt lat="-3.0959540" lon="37.3343620">
    <ele>4142.7</ele>
    <time>2026-06-22T06:01:54Z</time>
   </trkpt>
   <trkpt lat="-3.0959530" lon="37.3343620">
    <ele>4142.7</ele>
    <time>2026-06-22T06:01:55Z</time>
   </trkpt>
   <trkpt lat="-3.0959530" lon="37.3343620">
    <ele>4142.7</ele>
    <time>2026-06-22T06:01:56Z</time>
   </trkpt>
   <trkpt lat="-3.0959540" lon="37.3343620">
    <ele>4142.7</ele>
    <time>2026-06-22T06:01:57Z</time>
   </trkpt>
   <trkpt lat="-3.0959540" lon="37.3343620">
    <ele>4142.7</ele>
    <time>2026-06-22T06:01:58Z</time>
   </trkpt>
   <trkpt lat="-3.0959540" lon="37.3343620">
    <ele>4142.7</ele>
    <time>2026-06-22T06:01:59Z</time>
   </trkpt>
   <trkpt lat="-3.0959510" lon="37.3343620">
    <ele>4142.7</ele>
    <time>2026-06-22T06:02:00Z</time>
   </trkpt>
   <trkpt lat="-3.0959540" lon="37.3343630">
    <ele>4142.8</ele>
    <time>2026-06-22T06:02:01Z</time>
   </trkpt>
   <trkpt lat="-3.0959500" lon="37.3343650">
    <ele>4142.8</ele>
    <time>2026-06-22T06:02:02Z</time>
   </trkpt>
   <trkpt lat="-3.0959490" lon="37.3343630">
    <ele>4142.9</ele>
    <time>2026-06-22T06:02:03Z</time>
   </trkpt>
   <trkpt lat="-3.0959520" lon="37.3343630">
    <ele>4142.9</ele>
    <time>2026-06-22T06:02:04Z</time>
   </trkpt>
   <trkpt lat="-3.0959520" lon="37.3343630">
    <ele>4142.9</ele>
    <time>2026-06-22T06:02:05Z</time>
   </trkpt>
   <trkpt lat="-3.0959520" lon="37.3343640">
    <ele>4142.9</ele>
    <time>2026-06-22T06:02:06Z</time>
   </trkpt>
   <trkpt lat="-3.0959520" lon="37.3343640">
    <ele>4142.9</ele>
    <time>2026-06-22T06:02:07Z</time>
   </trkpt>
   <trkpt lat="-3.0959520" lon="37.3343640">
    <ele>4142.9</ele>
    <time>2026-06-22T06:02:08Z</time>
   </trkpt>
   <trkpt lat="-3.0959520" lon="37.3343650">
    <ele>4142.9</ele>
    <time>2026-06-22T06:02:09Z</time>
   </trkpt>
   <trkpt lat="-3.0959520" lon="37.3343650">
    <ele>4142.9</ele>
    <time>2026-06-22T06:02:10Z</time>
   </trkpt>
   <trkpt lat="-3.0959520" lon="37.3343650">
    <ele>4142.9</ele>
    <time>2026-06-22T06:02:11Z</time>
   </trkpt>
   <trkpt lat="-3.0959520" lon="37.3343650">
    <ele>4142.9</ele>
    <time>2026-06-22T06:02:12Z</time>
   </trkpt>
   <trkpt lat="-3.0959510" lon="37.3343650">
    <ele>4142.9</ele>
    <time>2026-06-22T06:02:13Z</time>
   </trkpt>
   <trkpt lat="-3.0959510" lon="37.3343650">
    <ele>4142.9</ele>
    <time>2026-06-22T06:02:14Z</time>
   </trkpt>
   <trkpt lat="-3.0959510" lon="37.3343660">
    <ele>4142.9</ele>
    <time>2026-06-22T06:02:15Z</time>
   </trkpt>
   <trkpt lat="-3.0959530" lon="37.3343650">
    <ele>4143.0</ele>
    <time>2026-06-22T06:02:16Z</time>
   </trkpt>
   <trkpt lat="-3.0959500" lon="37.3343650">
    <ele>4143.0</ele>
    <time>2026-06-22T06:02:17Z</time>
   </trkpt>
   <trkpt lat="-3.0959510" lon="37.3343660">
    <ele>4143.0</ele>
    <time>2026-06-22T06:02:18Z</time>
   </trkpt>
   <trkpt lat="-3.0959510" lon="37.3343660">
    <ele>4143.0</ele>
    <time>2026-06-22T06:02:19Z</time>
   </trkpt>
   <trkpt lat="-3.0959510" lon="37.3343660">
    <ele>4143.0</ele>
    <time>2026-06-22T06:02:20Z</time>
   </trkpt>
   <trkpt lat="-3.0959500" lon="37.3343670">
    <ele>4143.0</ele>
    <time>2026-06-22T06:02:21Z</time>
   </trkpt>
   <trkpt lat="-3.0959500" lon="37.3343670">
    <ele>4143.0</ele>
    <time>2026-06-22T06:02:22Z</time>
   </trkpt>
   <trkpt lat="-3.0959500" lon="37.3343670">
    <ele>4143.0</ele>
    <time>2026-06-22T06:02:23Z</time>
   </trkpt>
   <trkpt lat="-3.0959500" lon="37.3343670">
    <ele>4143.0</ele>
    <time>2026-06-22T06:02:24Z</time>
   </trkpt>
   <trkpt lat="-3.0959510" lon="37.3343660">
    <ele>4143.1</ele>
    <time>2026-06-22T06:02:25Z</time>
   </trkpt>
   <trkpt lat="-3.0959510" lon="37.3343660">
    <ele>4143.1</ele>
    <time>2026-06-22T06:02:26Z</time>
   </trkpt>
   <trkpt lat="-3.0959510" lon="37.3343660">
    <ele>4143.1</ele>
    <time>2026-06-22T06:02:27Z</time>
   </trkpt>
   <trkpt lat="-3.0959500" lon="37.3343670">
    <ele>4143.1</ele>
    <time>2026-06-22T06:02:28Z</time>
   </trkpt>
   <trkpt lat="-3.0959500" lon="37.3343680">
    <ele>4143.1</ele>
    <time>2026-06-22T06:02:29Z</time>
   </trkpt>
   <trkpt lat="-3.0959480" lon="37.3343680">
    <ele>4143.1</ele>
    <time>2026-06-22T06:02:30Z</time>
   </trkpt>
   <trkpt lat="-3.0959480" lon="37.3343680">
    <ele>4143.1</ele>
    <time>2026-06-22T06:02:31Z</time>
   </trkpt>
   <trkpt lat="-3.0959480" lon="37.3343680">
    <ele>4143.1</ele>
    <time>2026-06-22T06:02:32Z</time>
   </trkpt>
   <trkpt lat="-3.0959460" lon="37.3343690">
    <ele>4143.2</ele>
    <time>2026-06-22T06:02:33Z</time>
   </trkpt>
   <trkpt lat="-3.0959470" lon="37.3343700">
    <ele>4143.2</ele>
    <time>2026-06-22T06:02:34Z</time>
   </trkpt>
   <trkpt lat="-3.0959470" lon="37.3343690">
    <ele>4143.2</ele>
    <time>2026-06-22T06:02:35Z</time>
   </trkpt>
   <trkpt lat="-3.0959470" lon="37.3343700">
    <ele>4143.2</ele>
    <time>2026-06-22T06:02:36Z</time>
   </trkpt>
   <trkpt lat="-3.0959470" lon="37.3343700">
    <ele>4143.2</ele>
    <time>2026-06-22T06:02:37Z</time>
   </trkpt>
   <trkpt lat="-3.0959460" lon="37.3343700">
    <ele>4143.2</ele>
    <time>2026-06-22T06:02:38Z</time>
   </trkpt>
   <trkpt lat="-3.0959460" lon="37.3343700">
    <ele>4143.2</ele>
    <time>2026-06-22T06:02:39Z</time>
   </trkpt>
   <trkpt lat="-3.0959450" lon="37.3343700">
    <ele>4143.2</ele>
    <time>2026-06-22T06:02:40Z</time>
   </trkpt>
   <trkpt lat="-3.0959460" lon="37.3343710">
    <ele>4143.2</ele>
    <time>2026-06-22T06:02:41Z</time>
   </trkpt>
   <trkpt lat="-3.0959450" lon="37.3343710">
    <ele>4143.3</ele>
    <time>2026-06-22T06:02:42Z</time>
   </trkpt>
   <trkpt lat="-3.0959450" lon="37.3343710">
    <ele>4143.3</ele>
    <time>2026-06-22T06:02:43Z</time>
   </trkpt>
   <trkpt lat="-3.0959450" lon="37.3343710">
    <ele>4143.3</ele>
    <time>2026-06-22T06:02:44Z</time>
   </trkpt>
   <trkpt lat="-3.0959450" lon="37.3343710">
    <ele>4143.3</ele>
    <time>2026-06-22T06:02:45Z</time>
   </trkpt>
   <trkpt lat="-3.0959450" lon="37.3343720">
    <ele>4143.3</ele>
    <time>2026-06-22T06:02:46Z</time>
   </trkpt>
   <trkpt lat="-3.0959440" lon="37.3343720">
    <ele>4143.3</ele>
    <time>2026-06-22T06:02:47Z</time>
   </trkpt>
   <trkpt lat="-3.0959450" lon="37.3343710">
    <ele>4143.3</ele>
    <time>2026-06-22T06:02:48Z</time>
   </trkpt>
   <trkpt lat="-3.0959430" lon="37.3343710">
    <ele>4143.3</ele>
    <time>2026-06-22T06:02:49Z</time>
   </trkpt>
   <trkpt lat="-3.0959450" lon="37.3343720">
    <ele>4143.4</ele>
    <time>2026-06-22T06:02:50Z</time>
   </trkpt>
   <trkpt lat="-3.0959440" lon="37.3343710">
    <ele>4143.4</ele>
    <time>2026-06-22T06:02:51Z</time>
   </trkpt>
   <trkpt lat="-3.0959450" lon="37.3343710">
    <ele>4143.4</ele>
    <time>2026-06-22T06:02:52Z</time>
   </trkpt>
   <trkpt lat="-3.0959450" lon="37.3343710">
    <ele>4143.4</ele>
    <time>2026-06-22T06:02:53Z</time>
   </trkpt>
   <trkpt lat="-3.0959450" lon="37.3343720">
    <ele>4143.4</ele>
    <time>2026-06-22T06:02:54Z</time>
   </trkpt>
   <trkpt lat="-3.0959460" lon="37.3343720">
    <ele>4143.4</ele>
    <time>2026-06-22T06:02:55Z</time>
   </trkpt>
   <trkpt lat="-3.0959470" lon="37.3343720">
    <ele>4143.4</ele>
    <time>2026-06-22T06:02:56Z</time>
   </trkpt>
   <trkpt lat="-3.0959450" lon="37.3343710">
    <ele>4143.5</ele>
    <time>2026-06-22T06:02:57Z</time>
   </trkpt>
   <trkpt lat="-3.0959450" lon="37.3343720">
    <ele>4143.5</ele>
    <time>2026-06-22T06:02:58Z</time>
   </trkpt>
   <trkpt lat="-3.0959450" lon="37.3343720">
    <ele>4143.5</ele>
    <time>2026-06-22T06:02:59Z</time>
   </trkpt>
   <trkpt lat="-3.0959450" lon="37.3343720">
    <ele>4143.5</ele>
    <time>2026-06-22T06:03:00Z</time>
   </trkpt>
   <trkpt lat="-3.0959470" lon="37.3343720">
    <ele>4143.5</ele>
    <time>2026-06-22T06:03:01Z</time>
   </trkpt>
   <trkpt lat="-3.0959470" lon="37.3343720">
    <ele>4143.5</ele>
    <time>2026-06-22T06:03:02Z</time>
   </trkpt>
   <trkpt lat="-3.0959480" lon="37.3343720">
    <ele>4143.5</ele>
    <time>2026-06-22T06:03:03Z</time>
   </trkpt>
   <trkpt lat="-3.0959480" lon="37.3343730">
    <ele>4143.5</ele>
    <time>2026-06-22T06:03:04Z</time>
   </trkpt>
   <trkpt lat="-3.0959480" lon="37.3343730">
    <ele>4143.5</ele>
    <time>2026-06-22T06:03:05Z</time>
   </trkpt>
   <trkpt lat="-3.0959480" lon="37.3343730">
    <ele>4143.5</ele>
    <time>2026-06-22T06:03:06Z</time>
   </trkpt>
   <trkpt lat="-3.0959480" lon="37.3343730">
    <ele>4143.5</ele>
    <time>2026-06-22T06:03:07Z</time>
   </trkpt>
   <trkpt lat="-3.0959480" lon="37.3343730">
    <ele>4143.5</ele>
    <time>2026-06-22T06:03:08Z</time>
   </trkpt>
   <trkpt lat="-3.0959500" lon="37.3343730">
    <ele>4143.5</ele>
    <time>2026-06-22T06:03:09Z</time>
   </trkpt>
   <trkpt lat="-3.0959500" lon="37.3343740">
    <ele>4143.6</ele>
    <time>2026-06-22T06:03:10Z</time>
   </trkpt>
   <trkpt lat="-3.0959500" lon="37.3343740">
    <ele>4143.6</ele>
    <time>2026-06-22T06:03:11Z</time>
   </trkpt>
   <trkpt lat="-3.0959500" lon="37.3343740">
    <ele>4143.6</ele>
    <time>2026-06-22T06:03:12Z</time>
   </trkpt>
   <trkpt lat="-3.0959500" lon="37.3343740">
    <ele>4143.6</ele>
    <time>2026-06-22T06:03:13Z</time>
   </trkpt>
   <trkpt lat="-3.0959500" lon="37.3343740">
    <ele>4143.6</ele>
    <time>2026-06-22T06:03:14Z</time>
   </trkpt>
   <trkpt lat="-3.0959500" lon="37.3343740">
    <ele>4143.6</ele>
    <time>2026-06-22T06:03:15Z</time>
   </trkpt>
   <trkpt lat="-3.0959500" lon="37.3343740">
    <ele>4143.6</ele>
    <time>2026-06-22T06:03:16Z</time>
   </trkpt>
   <trkpt lat="-3.0959500" lon="37.3343740">
    <ele>4143.6</ele>
    <time>2026-06-22T06:03:17Z</time>
   </trkpt>
   <trkpt lat="-3.0959500" lon="37.3343740">
    <ele>4143.6</ele>
    <time>2026-06-22T06:03:18Z</time>
   </trkpt>
   <trkpt lat="-3.0959500" lon="37.3343740">
    <ele>4143.6</ele>
    <time>2026-06-22T06:03:19Z</time>
   </trkpt>
   <trkpt lat="-3.0959500" lon="37.3343740">
    <ele>4143.6</ele>
    <time>2026-06-22T06:03:20Z</time>
   </trkpt>
   <trkpt lat="-3.0959500" lon="37.3343740">
    <ele>4143.6</ele>
    <time>2026-06-22T06:03:21Z</time>
   </trkpt>
   <trkpt lat="-3.0959510" lon="37.3343740">
    <ele>4143.6</ele>
    <time>2026-06-22T06:03:22Z</time>
   </trkpt>
   <trkpt lat="-3.0959500" lon="37.3343740">
    <ele>4143.6</ele>
    <time>2026-06-22T06:03:23Z</time>
   </trkpt>
   <trkpt lat="-3.0959500" lon="37.3343750">
    <ele>4143.6</ele>
    <time>2026-06-22T06:03:24Z</time>
   </trkpt>
   <trkpt lat="-3.0959500" lon="37.3343750">
    <ele>4143.6</ele>
    <time>2026-06-22T06:03:25Z</time>
   </trkpt>
   <trkpt lat="-3.0959500" lon="37.3343760">
    <ele>4143.6</ele>
    <time>2026-06-22T06:03:26Z</time>
   </trkpt>
   <trkpt lat="-3.0959510" lon="37.3343750">
    <ele>4143.6</ele>
    <time>2026-06-22T06:03:27Z</time>
   </trkpt>
   <trkpt lat="-3.0959500" lon="37.3343760">
    <ele>4143.6</ele>
    <time>2026-06-22T06:03:28Z</time>
   </trkpt>
   <trkpt lat="-3.0959490" lon="37.3343780">
    <ele>4143.7</ele>
    <time>2026-06-22T06:03:29Z</time>
   </trkpt>
   <trkpt lat="-3.0959490" lon="37.3343800">
    <ele>4143.7</ele>
    <time>2026-06-22T06:03:30Z</time>
   </trkpt>
   <trkpt lat="-3.0959500" lon="37.3343800">
    <ele>4143.7</ele>
    <time>2026-06-22T06:03:31Z</time>
   </trkpt>
   <trkpt lat="-3.0959500" lon="37.3343800">
    <ele>4143.7</ele>
    <time>2026-06-22T06:03:32Z</time>
   </trkpt>
   <trkpt lat="-3.0959520" lon="37.3343700">
    <ele>4143.9</ele>
    <time>2026-06-22T06:03:33Z</time>
   </trkpt>
   <trkpt lat="-3.0959550" lon="37.3343700">
    <ele>4143.9</ele>
    <time>2026-06-22T06:03:34Z</time>
   </trkpt>
   <trkpt lat="-3.0959490" lon="37.3343750">
    <ele>4144.0</ele>
    <time>2026-06-22T06:03:35Z</time>
   </trkpt>
   <trkpt lat="-3.0959480" lon="37.3343740">
    <ele>4144.0</ele>
    <time>2026-06-22T06:03:36Z</time>
   </trkpt>
   <trkpt lat="-3.0959470" lon="37.3343730">
    <ele>4144.0</ele>
    <time>2026-06-22T06:03:37Z</time>
   </trkpt>
   <trkpt lat="-3.0959480" lon="37.3343750">
    <ele>4144.1</ele>
    <time>2026-06-22T06:03:38Z</time>
   </trkpt>
   <trkpt lat="-3.0959480" lon="37.3343750">
    <ele>4144.1</ele>
    <time>2026-06-22T06:03:39Z</time>
   </trkpt>
   <trkpt lat="-3.0959480" lon="37.3343750">
    <ele>4144.1</ele>
    <time>2026-06-22T06:03:40Z</time>
   </trkpt>
   <trkpt lat="-3.0959480" lon="37.3343750">
    <ele>4144.1</ele>
    <time>2026-06-22T06:03:41Z</time>
   </trkpt>
   <trkpt lat="-3.0959480" lon="37.3343750">
    <ele>4144.1</ele>
    <time>2026-06-22T06:03:42Z</time>
   </trkpt>
   <trkpt lat="-3.0959460" lon="37.3343780">
    <ele>4144.1</ele>
    <time>2026-06-22T06:03:43Z</time>
   </trkpt>
   <trkpt lat="-3.0959440" lon="37.3343790">
    <ele>4144.1</ele>
    <time>2026-06-22T06:03:44Z</time>
   </trkpt>
   <trkpt lat="-3.0959450" lon="37.3343790">
    <ele>4144.1</ele>
    <time>2026-06-22T06:03:46Z</time>
   </trkpt>
   <trkpt lat="-3.0959450" lon="37.3343800">
    <ele>4144.2</ele>
    <time>2026-06-22T06:03:47Z</time>
   </trkpt>
   <trkpt lat="-3.0959450" lon="37.3343780">
    <ele>4144.2</ele>
    <time>2026-06-22T06:03:48Z</time>
   </trkpt>
   <trkpt lat="-3.0959460" lon="37.3343780">
    <ele>4144.2</ele>
    <time>2026-06-22T06:03:49Z</time>
   </trkpt>
   <trkpt lat="-3.0959450" lon="37.3343790">
    <ele>4144.2</ele>
    <time>2026-06-22T06:03:50Z</time>
   </trkpt>
   <trkpt lat="-3.0959450" lon="37.3343790">
    <ele>4144.2</ele>
    <time>2026-06-22T06:03:51Z</time>
   </trkpt>
   <trkpt lat="-3.0959450" lon="37.3343800">
    <ele>4144.2</ele>
    <time>2026-06-22T06:03:52Z</time>
   </trkpt>
   <trkpt lat="-3.0959450" lon="37.3343810">
    <ele>4144.2</ele>
    <time>2026-06-22T06:03:53Z</time>
   </trkpt>
   <trkpt lat="-3.0959450" lon="37.3343820">
    <ele>4144.3</ele>
    <time>2026-06-22T06:03:54Z</time>
   </trkpt>
   <trkpt lat="-3.0959450" lon="37.3343820">
    <ele>4144.3</ele>
    <time>2026-06-22T06:03:55Z</time>
   </trkpt>
   <trkpt lat="-3.0959440" lon="37.3343810">
    <ele>4144.3</ele>
    <time>2026-06-22T06:03:56Z</time>
   </trkpt>
   <trkpt lat="-3.0959450" lon="37.3343820">
    <ele>4144.3</ele>
    <time>2026-06-22T06:03:57Z</time>
   </trkpt>
   <trkpt lat="-3.0959440" lon="37.3343820">
    <ele>4144.3</ele>
    <time>2026-06-22T06:03:58Z</time>
   </trkpt>
   <trkpt lat="-3.0959440" lon="37.3343810">
    <ele>4144.3</ele>
    <time>2026-06-22T06:03:59Z</time>
   </trkpt>
   <trkpt lat="-3.0959420" lon="37.3343770">
    <ele>4144.4</ele>
    <time>2026-06-22T06:04:00Z</time>
   </trkpt>
   <trkpt lat="-3.0959460" lon="37.3343760">
    <ele>4144.4</ele>
    <time>2026-06-22T06:04:01Z</time>
   </trkpt>
   <trkpt lat="-3.0959460" lon="37.3343750">
    <ele>4144.4</ele>
    <time>2026-06-22T06:04:02Z</time>
   </trkpt>
   <trkpt lat="-3.0959460" lon="37.3343750">
    <ele>4144.4</ele>
    <time>2026-06-22T06:04:03Z</time>
   </trkpt>
   <trkpt lat="-3.0959460" lon="37.3343750">
    <ele>4144.4</ele>
    <time>2026-06-22T06:04:04Z</time>
   </trkpt>
   <trkpt lat="-3.0959460" lon="37.3343750">
    <ele>4144.4</ele>
    <time>2026-06-22T06:04:05Z</time>
   </trkpt>
   <trkpt lat="-3.0959410" lon="37.3343730">
    <ele>4144.5</ele>
    <time>2026-06-22T06:04:06Z</time>
   </trkpt>
   <trkpt lat="-3.0959340" lon="37.3343620">
    <ele>4144.7</ele>
    <time>2026-06-22T06:04:07Z</time>
   </trkpt>
   <trkpt lat="-3.0959380" lon="37.3343570">
    <ele>4144.8</ele>
    <time>2026-06-22T06:04:08Z</time>
   </trkpt>
   <trkpt lat="-3.0959380" lon="37.3343560">
    <ele>4144.8</ele>
    <time>2026-06-22T06:04:09Z</time>
   </trkpt>
   <trkpt lat="-3.0959380" lon="37.3343570">
    <ele>4144.8</ele>
    <time>2026-06-22T06:04:10Z</time>
   </trkpt>
   <trkpt lat="-3.0959370" lon="37.3343570">
    <ele>4144.8</ele>
    <time>2026-06-22T06:04:11Z</time>
   </trkpt>
   <trkpt lat="-3.0959370" lon="37.3343560">
    <ele>4144.8</ele>
    <time>2026-06-22T06:04:12Z</time>
   </trkpt>
   <trkpt lat="-3.0959350" lon="37.3343540">
    <ele>4144.9</ele>
    <time>2026-06-22T06:04:13Z</time>
   </trkpt>
   <trkpt lat="-3.0959320" lon="37.3343590">
    <ele>4144.9</ele>
    <time>2026-06-22T06:04:14Z</time>
   </trkpt>
   <trkpt lat="-3.0959300" lon="37.3343590">
    <ele>4145.0</ele>
    <time>2026-06-22T06:04:15Z</time>
   </trkpt>
   <trkpt lat="-3.0959310" lon="37.3343590">
    <ele>4145.0</ele>
    <time>2026-06-22T06:04:16Z</time>
   </trkpt>
   <trkpt lat="-3.0959300" lon="37.3343600">
    <ele>4145.0</ele>
    <time>2026-06-22T06:04:17Z</time>
   </trkpt>
   <trkpt lat="-3.0959300" lon="37.3343600">
    <ele>4145.0</ele>
    <time>2026-06-22T06:04:18Z</time>
   </trkpt>
   <trkpt lat="-3.0959300" lon="37.3343570">
    <ele>4145.0</ele>
    <time>2026-06-22T06:04:19Z</time>
   </trkpt>
   <trkpt lat="-3.0959300" lon="37.3343560">
    <ele>4145.0</ele>
    <time>2026-06-22T06:04:20Z</time>
   </trkpt>
   <trkpt lat="-3.0959310" lon="37.3343570">
    <ele>4145.1</ele>
    <time>2026-06-22T06:04:21Z</time>
   </trkpt>
   <trkpt lat="-3.0959340" lon="37.3343600">
    <ele>4145.1</ele>
    <time>2026-06-22T06:04:22Z</time>
   </trkpt>
   <trkpt lat="-3.0959320" lon="37.3343590">
    <ele>4145.1</ele>
    <time>2026-06-22T06:04:23Z</time>
   </trkpt>
   <trkpt lat="-3.0959330" lon="37.3343580">
    <ele>4145.2</ele>
    <time>2026-06-22T06:04:24Z</time>
   </trkpt>
   <trkpt lat="-3.0959370" lon="37.3343710">
    <ele>4145.3</ele>
    <time>2026-06-22T06:04:25Z</time>
   </trkpt>
   <trkpt lat="-3.0959350" lon="37.3343660">
    <ele>4145.4</ele>
    <time>2026-06-22T06:04:26Z</time>
   </trkpt>
   <trkpt lat="-3.0959310" lon="37.3343630">
    <ele>4145.5</ele>
    <time>2026-06-22T06:04:27Z</time>
   </trkpt>
   <trkpt lat="-3.0959260" lon="37.3343590">
    <ele>4145.6</ele>
    <time>2026-06-22T06:04:28Z</time>
   </trkpt>
   <trkpt lat="-3.0959280" lon="37.3343600">
    <ele>4145.6</ele>
    <time>2026-06-22T06:04:29Z</time>
   </trkpt>
   <trkpt lat="-3.0959270" lon="37.3343590">
    <ele>4145.6</ele>
    <time>2026-06-22T06:04:30Z</time>
   </trkpt>
   <trkpt lat="-3.0959270" lon="37.3343570">
    <ele>4145.6</ele>
    <time>2026-06-22T06:04:31Z</time>
   </trkpt>
   <trkpt lat="-3.0959280" lon="37.3343580">
    <ele>4145.7</ele>
    <time>2026-06-22T06:04:32Z</time>
   </trkpt>
   <trkpt lat="-3.0959280" lon="37.3343550">
    <ele>4145.7</ele>
    <time>2026-06-22T06:04:33Z</time>
   </trkpt>
   <trkpt lat="-3.0959280" lon="37.3343530">
    <ele>4145.7</ele>
    <time>2026-06-22T06:04:34Z</time>
   </trkpt>
   <trkpt lat="-3.0959280" lon="37.3343520">
    <ele>4145.7</ele>
    <time>2026-06-22T06:04:35Z</time>
   </trkpt>
   <trkpt lat="-3.0959300" lon="37.3343550">
    <ele>4145.8</ele>
    <time>2026-06-22T06:04:36Z</time>
   </trkpt>
   <trkpt lat="-3.0959330" lon="37.3343600">
    <ele>4145.9</ele>
    <time>2026-06-22T06:04:37Z</time>
   </trkpt>
   <trkpt lat="-3.0959320" lon="37.3343610">
    <ele>4145.9</ele>
    <time>2026-06-22T06:04:38Z</time>
   </trkpt>
   <trkpt lat="-3.0959290" lon="37.3343560">
    <ele>4145.9</ele>
    <time>2026-06-22T06:04:39Z</time>
   </trkpt>
   <trkpt lat="-3.0959360" lon="37.3343530">
    <ele>4146.0</ele>
    <time>2026-06-22T06:04:40Z</time>
   </trkpt>
   <trkpt lat="-3.0959340" lon="37.3343560">
    <ele>4146.1</ele>
    <time>2026-06-22T06:04:41Z</time>
   </trkpt>
   <trkpt lat="-3.0959350" lon="37.3343550">
    <ele>4146.1</ele>
    <time>2026-06-22T06:04:42Z</time>
   </trkpt>
   <trkpt lat="-3.0959340" lon="37.3343530">
    <ele>4146.1</ele>
    <time>2026-06-22T06:04:43Z</time>
   </trkpt>
   <trkpt lat="-3.0959330" lon="37.3343530">
    <ele>4146.2</ele>
    <time>2026-06-22T06:04:44Z</time>
   </trkpt>
   <trkpt lat="-3.0959340" lon="37.3343520">
    <ele>4146.2</ele>
    <time>2026-06-22T06:04:45Z</time>
   </trkpt>
   <trkpt lat="-3.0959300" lon="37.3343530">
    <ele>4146.2</ele>
    <time>2026-06-22T06:04:46Z</time>
   </trkpt>
   <trkpt lat="-3.0959300" lon="37.3343510">
    <ele>4146.3</ele>
    <time>2026-06-22T06:04:47Z</time>
   </trkpt>
   <trkpt lat="-3.0959310" lon="37.3343530">
    <ele>4146.3</ele>
    <time>2026-06-22T06:04:48Z</time>
   </trkpt>
   <trkpt lat="-3.0959310" lon="37.3343540">
    <ele>4146.3</ele>
    <time>2026-06-22T06:04:49Z</time>
   </trkpt>
   <trkpt lat="-3.0959320" lon="37.3343540">
    <ele>4146.3</ele>
    <time>2026-06-22T06:04:50Z</time>
   </trkpt>
   <trkpt lat="-3.0959340" lon="37.3343560">
    <ele>4146.3</ele>
    <time>2026-06-22T06:04:51Z</time>
   </trkpt>
   <trkpt lat="-3.0959350" lon="37.3343560">
    <ele>4146.4</ele>
    <time>2026-06-22T06:04:52Z</time>
   </trkpt>
   <trkpt lat="-3.0959330" lon="37.3343580">
    <ele>4146.4</ele>
    <time>2026-06-22T06:04:53Z</time>
   </trkpt>
   <trkpt lat="-3.0959320" lon="37.3343570">
    <ele>4146.4</ele>
    <time>2026-06-22T06:04:54Z</time>
   </trkpt>
   <trkpt lat="-3.0959310" lon="37.3343560">
    <ele>4146.4</ele>
    <time>2026-06-22T06:04:55Z</time>
   </trkpt>
   <trkpt lat="-3.0959310" lon="37.3343570">
    <ele>4146.4</ele>
    <time>2026-06-22T06:04:56Z</time>
   </trkpt>
   <trkpt lat="-3.0959300" lon="37.3343580">
    <ele>4146.5</ele>
    <time>2026-06-22T06:04:57Z</time>
   </trkpt>
   <trkpt lat="-3.0959280" lon="37.3343580">
    <ele>4146.5</ele>
    <time>2026-06-22T06:04:58Z</time>
   </trkpt>
   <trkpt lat="-3.0959310" lon="37.3343630">
    <ele>4146.6</ele>
    <time>2026-06-22T06:04:59Z</time>
   </trkpt>
   <trkpt lat="-3.0959330" lon="37.3343630">
    <ele>4146.6</ele>
    <time>2026-06-22T06:05:00Z</time>
   </trkpt>
   <trkpt lat="-3.0959330" lon="37.3343590">
    <ele>4146.6</ele>
    <time>2026-06-22T06:05:01Z</time>
   </trkpt>
   <trkpt lat="-3.0959320" lon="37.3343620">
    <ele>4146.7</ele>
    <time>2026-06-22T06:05:02Z</time>
   </trkpt>
   <trkpt lat="-3.0959350" lon="37.3343610">
    <ele>4146.7</ele>
    <time>2026-06-22T06:05:03Z</time>
   </trkpt>
   <trkpt lat="-3.0959370" lon="37.3343620">
    <ele>4146.8</ele>
    <time>2026-06-22T06:05:04Z</time>
   </trkpt>
   <trkpt lat="-3.0959370" lon="37.3343640">
    <ele>4146.8</ele>
    <time>2026-06-22T06:05:05Z</time>
   </trkpt>
   <trkpt lat="-3.0959370" lon="37.3343680">
    <ele>4146.8</ele>
    <time>2026-06-22T06:05:06Z</time>
   </trkpt>
   <trkpt lat="-3.0959360" lon="37.3343670">
    <ele>4146.9</ele>
    <time>2026-06-22T06:05:07Z</time>
   </trkpt>
   <trkpt lat="-3.0959370" lon="37.3343660">
    <ele>4146.9</ele>
    <time>2026-06-22T06:05:08Z</time>
   </trkpt>
   <trkpt lat="-3.0959340" lon="37.3343600">
    <ele>4147.0</ele>
    <time>2026-06-22T06:05:09Z</time>
   </trkpt>
   <trkpt lat="-3.0959320" lon="37.3343590">
    <ele>4147.0</ele>
    <time>2026-06-22T06:05:10Z</time>
   </trkpt>
   <trkpt lat="-3.0959320" lon="37.3343590">
    <ele>4147.0</ele>
    <time>2026-06-22T06:05:11Z</time>
   </trkpt>
   <trkpt lat="-3.0959320" lon="37.3343590">
    <ele>4147.0</ele>
    <time>2026-06-22T06:05:12Z</time>
   </trkpt>
   <trkpt lat="-3.0959320" lon="37.3343590">
    <ele>4147.0</ele>
    <time>2026-06-22T06:05:13Z</time>
   </trkpt>
   <trkpt lat="-3.0959350" lon="37.3343630">
    <ele>4147.1</ele>
    <time>2026-06-22T06:05:14Z</time>
   </trkpt>
   <trkpt lat="-3.0959360" lon="37.3343660">
    <ele>4147.1</ele>
    <time>2026-06-22T06:05:15Z</time>
   </trkpt>
   <trkpt lat="-3.0959360" lon="37.3343660">
    <ele>4147.1</ele>
    <time>2026-06-22T06:05:16Z</time>
   </trkpt>
   <trkpt lat="-3.0959380" lon="37.3343660">
    <ele>4147.1</ele>
    <time>2026-06-22T06:05:17Z</time>
   </trkpt>
   <trkpt lat="-3.0959380" lon="37.3343660">
    <ele>4147.1</ele>
    <time>2026-06-22T06:05:18Z</time>
   </trkpt>
   <trkpt lat="-3.0959380" lon="37.3343660">
    <ele>4147.1</ele>
    <time>2026-06-22T06:05:19Z</time>
   </trkpt>
   <trkpt lat="-3.0959420" lon="37.3343660">
    <ele>4147.2</ele>
    <time>2026-06-22T06:05:20Z</time>
   </trkpt>
   <trkpt lat="-3.0959410" lon="37.3343670">
    <ele>4147.2</ele>
    <time>2026-06-22T06:05:21Z</time>
   </trkpt>
   <trkpt lat="-3.0959430" lon="37.3343680">
    <ele>4147.2</ele>
    <time>2026-06-22T06:05:22Z</time>
   </trkpt>
   <trkpt lat="-3.0959430" lon="37.3343660">
    <ele>4147.3</ele>
    <time>2026-06-22T06:05:23Z</time>
   </trkpt>
   <trkpt lat="-3.0959470" lon="37.3343650">
    <ele>4147.3</ele>
    <time>2026-06-22T06:05:24Z</time>
   </trkpt>
   <trkpt lat="-3.0959450" lon="37.3343660">
    <ele>4147.4</ele>
    <time>2026-06-22T06:05:25Z</time>
   </trkpt>
   <trkpt lat="-3.0959460" lon="37.3343650">
    <ele>4147.4</ele>
    <time>2026-06-22T06:05:26Z</time>
   </trkpt>
   <trkpt lat="-3.0959460" lon="37.3343640">
    <ele>4147.4</ele>
    <time>2026-06-22T06:05:27Z</time>
   </trkpt>
   <trkpt lat="-3.0959470" lon="37.3343650">
    <ele>4147.4</ele>
    <time>2026-06-22T06:05:28Z</time>
   </trkpt>
   <trkpt lat="-3.0959470" lon="37.3343660">
    <ele>4147.4</ele>
    <time>2026-06-22T06:05:29Z</time>
   </trkpt>
   <trkpt lat="-3.0959470" lon="37.3343640">
    <ele>4147.4</ele>
    <time>2026-06-22T06:05:30Z</time>
   </trkpt>
   <trkpt lat="-3.0959490" lon="37.3343630">
    <ele>4147.5</ele>
    <time>2026-06-22T06:05:31Z</time>
   </trkpt>
   <trkpt lat="-3.0959490" lon="37.3343630">
    <ele>4147.5</ele>
    <time>2026-06-22T06:05:32Z</time>
   </trkpt>
   <trkpt lat="-3.0959500" lon="37.3343650">
    <ele>4147.5</ele>
    <time>2026-06-22T06:05:33Z</time>
   </trkpt>
   <trkpt lat="-3.0959490" lon="37.3343650">
    <ele>4147.5</ele>
    <time>2026-06-22T06:05:34Z</time>
   </trkpt>
   <trkpt lat="-3.0959490" lon="37.3343640">
    <ele>4147.5</ele>
    <time>2026-06-22T06:05:35Z</time>
   </trkpt>
   <trkpt lat="-3.0959500" lon="37.3343650">
    <ele>4147.6</ele>
    <time>2026-06-22T06:05:36Z</time>
   </trkpt>
   <trkpt lat="-3.0959470" lon="37.3343650">
    <ele>4147.6</ele>
    <time>2026-06-22T06:05:37Z</time>
   </trkpt>
   <trkpt lat="-3.0959470" lon="37.3343660">
    <ele>4147.6</ele>
    <time>2026-06-22T06:05:38Z</time>
   </trkpt>
   <trkpt lat="-3.0959480" lon="37.3343680">
    <ele>4147.6</ele>
    <time>2026-06-22T06:05:39Z</time>
   </trkpt>
   <trkpt lat="-3.0959470" lon="37.3343690">
    <ele>4147.7</ele>
    <time>2026-06-22T06:05:40Z</time>
   </trkpt>
   <trkpt lat="-3.0959470" lon="37.3343700">
    <ele>4147.7</ele>
    <time>2026-06-22T06:05:41Z</time>
   </trkpt>
   <trkpt lat="-3.0959460" lon="37.3343690">
    <ele>4147.7</ele>
    <time>2026-06-22T06:05:42Z</time>
   </trkpt>
   <trkpt lat="-3.0959480" lon="37.3343700">
    <ele>4147.7</ele>
    <time>2026-06-22T06:05:43Z</time>
   </trkpt>
   <trkpt lat="-3.0959470" lon="37.3343690">
    <ele>4147.7</ele>
    <time>2026-06-22T06:05:44Z</time>
   </trkpt>
   <trkpt lat="-3.0959480" lon="37.3343690">
    <ele>4147.8</ele>
    <time>2026-06-22T06:05:45Z</time>
   </trkpt>
   <trkpt lat="-3.0959480" lon="37.3343690">
    <ele>4147.8</ele>
    <time>2026-06-22T06:05:46Z</time>
   </trkpt>
   <trkpt lat="-3.0959480" lon="37.3343700">
    <ele>4147.8</ele>
    <time>2026-06-22T06:05:47Z</time>
   </trkpt>
   <trkpt lat="-3.0959480" lon="37.3343700">
    <ele>4147.8</ele>
    <time>2026-06-22T06:05:48Z</time>
   </trkpt>
   <trkpt lat="-3.0959480" lon="37.3343700">
    <ele>4147.8</ele>
    <time>2026-06-22T06:05:49Z</time>
   </trkpt>
   <trkpt lat="-3.0959480" lon="37.3343700">
    <ele>4147.8</ele>
    <time>2026-06-22T06:05:51Z</time>
   </trkpt>
   <trkpt lat="-3.0959480" lon="37.3343700">
    <ele>4147.8</ele>
    <time>2026-06-22T06:05:52Z</time>
   </trkpt>
   <trkpt lat="-3.0959480" lon="37.3343700">
    <ele>4147.8</ele>
    <time>2026-06-22T06:05:53Z</time>
   </trkpt>
   <trkpt lat="-3.0959470" lon="37.3343700">
    <ele>4147.8</ele>
    <time>2026-06-22T06:05:54Z</time>
   </trkpt>
   <trkpt lat="-3.0959470" lon="37.3343700">
    <ele>4147.8</ele>
    <time>2026-06-22T06:05:55Z</time>
   </trkpt>
   <trkpt lat="-3.0959480" lon="37.3343710">
    <ele>4147.8</ele>
    <time>2026-06-22T06:05:56Z</time>
   </trkpt>
   <trkpt lat="-3.0959480" lon="37.3343700">
    <ele>4147.8</ele>
    <time>2026-06-22T06:05:57Z</time>
   </trkpt>
   <trkpt lat="-3.0959480" lon="37.3343700">
    <ele>4147.8</ele>
    <time>2026-06-22T06:05:58Z</time>
   </trkpt>
   <trkpt lat="-3.0959480" lon="37.3343690">
    <ele>4147.8</ele>
    <time>2026-06-22T06:05:59Z</time>
   </trkpt>
   <trkpt lat="-3.0959480" lon="37.3343700">
    <ele>4147.8</ele>
    <time>2026-06-22T06:06:00Z</time>
   </trkpt>
   <trkpt lat="-3.0959480" lon="37.3343700">
    <ele>4147.8</ele>
    <time>2026-06-22T06:06:01Z</time>
   </trkpt>
   <trkpt lat="-3.0959500" lon="37.3343690">
    <ele>4147.9</ele>
    <time>2026-06-22T06:06:02Z</time>
   </trkpt>
   <trkpt lat="-3.0959500" lon="37.3343690">
    <ele>4147.9</ele>
    <time>2026-06-22T06:06:03Z</time>
   </trkpt>
   <trkpt lat="-3.0959500" lon="37.3343690">
    <ele>4147.9</ele>
    <time>2026-06-22T06:06:04Z</time>
   </trkpt>
   <trkpt lat="-3.0959500" lon="37.3343690">
    <ele>4147.9</ele>
    <time>2026-06-22T06:06:05Z</time>
   </trkpt>
   <trkpt lat="-3.0959500" lon="37.3343690">
    <ele>4147.9</ele>
    <time>2026-06-22T06:06:06Z</time>
   </trkpt>
   <trkpt lat="-3.0959500" lon="37.3343700">
    <ele>4147.9</ele>
    <time>2026-06-22T06:06:07Z</time>
   </trkpt>
   <trkpt lat="-3.0959500" lon="37.3343700">
    <ele>4147.9</ele>
    <time>2026-06-22T06:06:08Z</time>
   </trkpt>
   <trkpt lat="-3.0959500" lon="37.3343700">
    <ele>4147.9</ele>
    <time>2026-06-22T06:06:09Z</time>
   </trkpt>
   <trkpt lat="-3.0959500" lon="37.3343710">
    <ele>4147.9</ele>
    <time>2026-06-22T06:06:10Z</time>
   </trkpt>
   <trkpt lat="-3.0959510" lon="37.3343730">
    <ele>4147.9</ele>
    <time>2026-06-22T06:06:11Z</time>
   </trkpt>
   <trkpt lat="-3.0959510" lon="37.3343730">
    <ele>4147.9</ele>
    <time>2026-06-22T06:06:12Z</time>
   </trkpt>
   <trkpt lat="-3.0959510" lon="37.3343710">
    <ele>4148.0</ele>
    <time>2026-06-22T06:06:13Z</time>
   </trkpt>
   <trkpt lat="-3.0959500" lon="37.3343700">
    <ele>4148.0</ele>
    <time>2026-06-22T06:06:14Z</time>
   </trkpt>
   <trkpt lat="-3.0959500" lon="37.3343700">
    <ele>4148.0</ele>
    <time>2026-06-22T06:06:15Z</time>
   </trkpt>
   <trkpt lat="-3.0959500" lon="37.3343710">
    <ele>4148.0</ele>
    <time>2026-06-22T06:06:16Z</time>
   </trkpt>
   <trkpt lat="-3.0959500" lon="37.3343720">
    <ele>4148.0</ele>
    <time>2026-06-22T06:06:17Z</time>
   </trkpt>
   <trkpt lat="-3.0959500" lon="37.3343720">
    <ele>4148.0</ele>
    <time>2026-06-22T06:06:18Z</time>
   </trkpt>
   <trkpt lat="-3.0959500" lon="37.3343720">
    <ele>4148.0</ele>
    <time>2026-06-22T06:06:19Z</time>
   </trkpt>
   <trkpt lat="-3.0959500" lon="37.3343710">
    <ele>4148.0</ele>
    <time>2026-06-22T06:06:20Z</time>
   </trkpt>
   <trkpt lat="-3.0959490" lon="37.3343710">
    <ele>4148.0</ele>
    <time>2026-06-22T06:06:21Z</time>
   </trkpt>
   <trkpt lat="-3.0959490" lon="37.3343730">
    <ele>4148.1</ele>
    <time>2026-06-22T06:06:22Z</time>
   </trkpt>
   <trkpt lat="-3.0959490" lon="37.3343740">
    <ele>4148.1</ele>
    <time>2026-06-22T06:06:23Z</time>
   </trkpt>
   <trkpt lat="-3.0959470" lon="37.3343760">
    <ele>4148.1</ele>
    <time>2026-06-22T06:06:24Z</time>
   </trkpt>
   <trkpt lat="-3.0959470" lon="37.3343750">
    <ele>4148.1</ele>
    <time>2026-06-22T06:06:25Z</time>
   </trkpt>
   <trkpt lat="-3.0959470" lon="37.3343750">
    <ele>4148.1</ele>
    <time>2026-06-22T06:06:26Z</time>
   </trkpt>
   <trkpt lat="-3.0959460" lon="37.3343750">
    <ele>4148.1</ele>
    <time>2026-06-22T06:06:27Z</time>
   </trkpt>
   <trkpt lat="-3.0959450" lon="37.3343750">
    <ele>4148.2</ele>
    <time>2026-06-22T06:06:28Z</time>
   </trkpt>
   <trkpt lat="-3.0959440" lon="37.3343750">
    <ele>4148.2</ele>
    <time>2026-06-22T06:06:29Z</time>
   </trkpt>
   <trkpt lat="-3.0959430" lon="37.3343750">
    <ele>4148.2</ele>
    <time>2026-06-22T06:06:30Z</time>
   </trkpt>
   <trkpt lat="-3.0959430" lon="37.3343750">
    <ele>4148.2</ele>
    <time>2026-06-22T06:06:31Z</time>
   </trkpt>
   <trkpt lat="-3.0959430" lon="37.3343750">
    <ele>4148.2</ele>
    <time>2026-06-22T06:06:32Z</time>
   </trkpt>
   <trkpt lat="-3.0959430" lon="37.3343740">
    <ele>4148.2</ele>
    <time>2026-06-22T06:06:33Z</time>
   </trkpt>
   <trkpt lat="-3.0959450" lon="37.3343750">
    <ele>4148.2</ele>
    <time>2026-06-22T06:06:34Z</time>
   </trkpt>
   <trkpt lat="-3.0959440" lon="37.3343750">
    <ele>4148.2</ele>
    <time>2026-06-22T06:06:35Z</time>
   </trkpt>
   <trkpt lat="-3.0959460" lon="37.3343750">
    <ele>4148.3</ele>
    <time>2026-06-22T06:06:36Z</time>
   </trkpt>
   <trkpt lat="-3.0959460" lon="37.3343750">
    <ele>4148.3</ele>
    <time>2026-06-22T06:06:37Z</time>
   </trkpt>
   <trkpt lat="-3.0959460" lon="37.3343750">
    <ele>4148.3</ele>
    <time>2026-06-22T06:06:38Z</time>
   </trkpt>
   <trkpt lat="-3.0959460" lon="37.3343750">
    <ele>4148.3</ele>
    <time>2026-06-22T06:06:39Z</time>
   </trkpt>
   <trkpt lat="-3.0959460" lon="37.3343750">
    <ele>4148.3</ele>
    <time>2026-06-22T06:06:40Z</time>
   </trkpt>
   <trkpt lat="-3.0959460" lon="37.3343750">
    <ele>4148.3</ele>
    <time>2026-06-22T06:06:41Z</time>
   </trkpt>
   <trkpt lat="-3.0959460" lon="37.3343760">
    <ele>4148.3</ele>
    <time>2026-06-22T06:06:42Z</time>
   </trkpt>
   <trkpt lat="-3.0959440" lon="37.3343760">
    <ele>4148.3</ele>
    <time>2026-06-22T06:06:43Z</time>
   </trkpt>
   <trkpt lat="-3.0959450" lon="37.3343760">
    <ele>4148.3</ele>
    <time>2026-06-22T06:06:44Z</time>
   </trkpt>
   <trkpt lat="-3.0959430" lon="37.3343770">
    <ele>4148.4</ele>
    <time>2026-06-22T06:06:45Z</time>
   </trkpt>
   <trkpt lat="-3.0959450" lon="37.3343770">
    <ele>4148.4</ele>
    <time>2026-06-22T06:06:46Z</time>
   </trkpt>
   <trkpt lat="-3.0959440" lon="37.3343770">
    <ele>4148.4</ele>
    <time>2026-06-22T06:06:47Z</time>
   </trkpt>
   <trkpt lat="-3.0959440" lon="37.3343750">
    <ele>4148.4</ele>
    <time>2026-06-22T06:06:48Z</time>
   </trkpt>
   <trkpt lat="-3.0959430" lon="37.3343710">
    <ele>4148.5</ele>
    <time>2026-06-22T06:06:49Z</time>
   </trkpt>
   <trkpt lat="-3.0959440" lon="37.3343730">
    <ele>4148.5</ele>
    <time>2026-06-22T06:06:50Z</time>
   </trkpt>
   <trkpt lat="-3.0959440" lon="37.3343750">
    <ele>4148.5</ele>
    <time>2026-06-22T06:06:51Z</time>
   </trkpt>
   <trkpt lat="-3.0959420" lon="37.3343740">
    <ele>4148.6</ele>
    <time>2026-06-22T06:06:52Z</time>
   </trkpt>
   <trkpt lat="-3.0959430" lon="37.3343740">
    <ele>4148.6</ele>
    <time>2026-06-22T06:06:53Z</time>
   </trkpt>
   <trkpt lat="-3.0959440" lon="37.3343750">
    <ele>4148.6</ele>
    <time>2026-06-22T06:06:54Z</time>
   </trkpt>
   <trkpt lat="-3.0959420" lon="37.3343740">
    <ele>4148.6</ele>
    <time>2026-06-22T06:06:55Z</time>
   </trkpt>
   <trkpt lat="-3.0959420" lon="37.3343760">
    <ele>4148.7</ele>
    <time>2026-06-22T06:06:56Z</time>
   </trkpt>
   <trkpt lat="-3.0959410" lon="37.3343760">
    <ele>4148.7</ele>
    <time>2026-06-22T06:06:57Z</time>
   </trkpt>
   <trkpt lat="-3.0959410" lon="37.3343760">
    <ele>4148.7</ele>
    <time>2026-06-22T06:06:58Z</time>
   </trkpt>
   <trkpt lat="-3.0959390" lon="37.3343760">
    <ele>4148.7</ele>
    <time>2026-06-22T06:06:59Z</time>
   </trkpt>
   <trkpt lat="-3.0959400" lon="37.3343770">
    <ele>4148.7</ele>
    <time>2026-06-22T06:07:00Z</time>
   </trkpt>
   <trkpt lat="-3.0959400" lon="37.3343770">
    <ele>4148.7</ele>
    <time>2026-06-22T06:07:01Z</time>
   </trkpt>
   <trkpt lat="-3.0959400" lon="37.3343770">
    <ele>4148.7</ele>
    <time>2026-06-22T06:07:02Z</time>
   </trkpt>
   <trkpt lat="-3.0959400" lon="37.3343770">
    <ele>4148.7</ele>
    <time>2026-06-22T06:07:03Z</time>
   </trkpt>
   <trkpt lat="-3.0959400" lon="37.3343760">
    <ele>4148.7</ele>
    <time>2026-06-22T06:07:04Z</time>
   </trkpt>
   <trkpt lat="-3.0959400" lon="37.3343760">
    <ele>4148.7</ele>
    <time>2026-06-22T06:07:05Z</time>
   </trkpt>
   <trkpt lat="-3.0959420" lon="37.3343760">
    <ele>4148.8</ele>
    <time>2026-06-22T06:07:06Z</time>
   </trkpt>
   <trkpt lat="-3.0959410" lon="37.3343760">
    <ele>4148.8</ele>
    <time>2026-06-22T06:07:07Z</time>
   </trkpt>
   <trkpt lat="-3.0959410" lon="37.3343770">
    <ele>4148.8</ele>
    <time>2026-06-22T06:07:08Z</time>
   </trkpt>
   <trkpt lat="-3.0959390" lon="37.3343770">
    <ele>4148.8</ele>
    <time>2026-06-22T06:07:09Z</time>
   </trkpt>
   <trkpt lat="-3.0959370" lon="37.3343780">
    <ele>4148.9</ele>
    <time>2026-06-22T06:07:10Z</time>
   </trkpt>
   <trkpt lat="-3.0959400" lon="37.3343770">
    <ele>4148.9</ele>
    <time>2026-06-22T06:07:11Z</time>
   </trkpt>
   <trkpt lat="-3.0959410" lon="37.3343780">
    <ele>4148.9</ele>
    <time>2026-06-22T06:07:12Z</time>
   </trkpt>
   <trkpt lat="-3.0959380" lon="37.3343790">
    <ele>4149.0</ele>
    <time>2026-06-22T06:07:13Z</time>
   </trkpt>
   <trkpt lat="-3.0959400" lon="37.3343800">
    <ele>4149.0</ele>
    <time>2026-06-22T06:07:14Z</time>
   </trkpt>
   <trkpt lat="-3.0959390" lon="37.3343800">
    <ele>4149.0</ele>
    <time>2026-06-22T06:07:15Z</time>
   </trkpt>
   <trkpt lat="-3.0959400" lon="37.3343800">
    <ele>4149.0</ele>
    <time>2026-06-22T06:07:16Z</time>
   </trkpt>
   <trkpt lat="-3.0959410" lon="37.3343790">
    <ele>4149.0</ele>
    <time>2026-06-22T06:07:17Z</time>
   </trkpt>
   <trkpt lat="-3.0959420" lon="37.3343790">
    <ele>4149.1</ele>
    <time>2026-06-22T06:07:18Z</time>
   </trkpt>
   <trkpt lat="-3.0959420" lon="37.3343790">
    <ele>4149.1</ele>
    <time>2026-06-22T06:07:19Z</time>
   </trkpt>
   <trkpt lat="-3.0959400" lon="37.3343780">
    <ele>4149.1</ele>
    <time>2026-06-22T06:07:20Z</time>
   </trkpt>
   <trkpt lat="-3.0959410" lon="37.3343780">
    <ele>4149.1</ele>
    <time>2026-06-22T06:07:21Z</time>
   </trkpt>
   <trkpt lat="-3.0959410" lon="37.3343780">
    <ele>4149.1</ele>
    <time>2026-06-22T06:07:22Z</time>
   </trkpt>
   <trkpt lat="-3.0959420" lon="37.3343780">
    <ele>4149.1</ele>
    <time>2026-06-22T06:07:23Z</time>
   </trkpt>
   <trkpt lat="-3.0959430" lon="37.3343770">
    <ele>4149.1</ele>
    <time>2026-06-22T06:07:24Z</time>
   </trkpt>
   <trkpt lat="-3.0959420" lon="37.3343780">
    <ele>4149.2</ele>
    <time>2026-06-22T06:07:25Z</time>
   </trkpt>
   <trkpt lat="-3.0959430" lon="37.3343780">
    <ele>4149.2</ele>
    <time>2026-06-22T06:07:26Z</time>
   </trkpt>
   <trkpt lat="-3.0959420" lon="37.3343780">
    <ele>4149.2</ele>
    <time>2026-06-22T06:07:27Z</time>
   </trkpt>
   <trkpt lat="-3.0959420" lon="37.3343780">
    <ele>4149.2</ele>
    <time>2026-06-22T06:07:28Z</time>
   </trkpt>
   <trkpt lat="-3.0959420" lon="37.3343780">
    <ele>4149.2</ele>
    <time>2026-06-22T06:07:29Z</time>
   </trkpt>
   <trkpt lat="-3.0959410" lon="37.3343790">
    <ele>4149.2</ele>
    <time>2026-06-22T06:07:30Z</time>
   </trkpt>
   <trkpt lat="-3.0959420" lon="37.3343780">
    <ele>4149.2</ele>
    <time>2026-06-22T06:07:31Z</time>
   </trkpt>
   <trkpt lat="-3.0959420" lon="37.3343800">
    <ele>4149.2</ele>
    <time>2026-06-22T06:07:32Z</time>
   </trkpt>
   <trkpt lat="-3.0959410" lon="37.3343790">
    <ele>4149.3</ele>
    <time>2026-06-22T06:07:33Z</time>
   </trkpt>
   <trkpt lat="-3.0959420" lon="37.3343790">
    <ele>4149.3</ele>
    <time>2026-06-22T06:07:34Z</time>
   </trkpt>
   <trkpt lat="-3.0959410" lon="37.3343790">
    <ele>4149.3</ele>
    <time>2026-06-22T06:07:35Z</time>
   </trkpt>
   <trkpt lat="-3.0959410" lon="37.3343780">
    <ele>4149.3</ele>
    <time>2026-06-22T06:07:36Z</time>
   </trkpt>
   <trkpt lat="-3.0959410" lon="37.3343780">
    <ele>4149.3</ele>
    <time>2026-06-22T06:07:37Z</time>
   </trkpt>
   <trkpt lat="-3.0959410" lon="37.3343780">
    <ele>4149.3</ele>
    <time>2026-06-22T06:07:38Z</time>
   </trkpt>
   <trkpt lat="-3.0959410" lon="37.3343770">
    <ele>4149.3</ele>
    <time>2026-06-22T06:07:39Z</time>
   </trkpt>
   <trkpt lat="-3.0959400" lon="37.3343770">
    <ele>4149.3</ele>
    <time>2026-06-22T06:07:40Z</time>
   </trkpt>
   <trkpt lat="-3.0959400" lon="37.3343770">
    <ele>4149.3</ele>
    <time>2026-06-22T06:07:41Z</time>
   </trkpt>
   <trkpt lat="-3.0959400" lon="37.3343770">
    <ele>4149.3</ele>
    <time>2026-06-22T06:07:42Z</time>
   </trkpt>
   <trkpt lat="-3.0959400" lon="37.3343770">
    <ele>4149.3</ele>
    <time>2026-06-22T06:07:43Z</time>
   </trkpt>
   <trkpt lat="-3.0959400" lon="37.3343770">
    <ele>4149.3</ele>
    <time>2026-06-22T06:07:44Z</time>
   </trkpt>
   <trkpt lat="-3.0959400" lon="37.3343760">
    <ele>4149.4</ele>
    <time>2026-06-22T06:07:45Z</time>
   </trkpt>
   <trkpt lat="-3.0959390" lon="37.3343760">
    <ele>4149.4</ele>
    <time>2026-06-22T06:07:46Z</time>
   </trkpt>
   <trkpt lat="-3.0959390" lon="37.3343760">
    <ele>4149.4</ele>
    <time>2026-06-22T06:07:47Z</time>
   </trkpt>
   <trkpt lat="-3.0959390" lon="37.3343760">
    <ele>4149.4</ele>
    <time>2026-06-22T06:07:48Z</time>
   </trkpt>
   <trkpt lat="-3.0959400" lon="37.3343750">
    <ele>4149.4</ele>
    <time>2026-06-22T06:07:49Z</time>
   </trkpt>
   <trkpt lat="-3.0959390" lon="37.3343750">
    <ele>4149.4</ele>
    <time>2026-06-22T06:07:50Z</time>
   </trkpt>
   <trkpt lat="-3.0959390" lon="37.3343750">
    <ele>4149.4</ele>
    <time>2026-06-22T06:07:51Z</time>
   </trkpt>
   <trkpt lat="-3.0959410" lon="37.3343740">
    <ele>4149.4</ele>
    <time>2026-06-22T06:07:52Z</time>
   </trkpt>
   <trkpt lat="-3.0959410" lon="37.3343740">
    <ele>4149.4</ele>
    <time>2026-06-22T06:07:53Z</time>
   </trkpt>
   <trkpt lat="-3.0959400" lon="37.3343740">
    <ele>4149.4</ele>
    <time>2026-06-22T06:07:54Z</time>
   </trkpt>
   <trkpt lat="-3.0959390" lon="37.3343730">
    <ele>4149.5</ele>
    <time>2026-06-22T06:07:55Z</time>
   </trkpt>
   <trkpt lat="-3.0959380" lon="37.3343750">
    <ele>4149.5</ele>
    <time>2026-06-22T06:07:57Z</time>
   </trkpt>
   <trkpt lat="-3.0959390" lon="37.3343730">
    <ele>4149.5</ele>
    <time>2026-06-22T06:07:58Z</time>
   </trkpt>
   <trkpt lat="-3.0959390" lon="37.3343740">
    <ele>4149.5</ele>
    <time>2026-06-22T06:07:59Z</time>
   </trkpt>
   <trkpt lat="-3.0959400" lon="37.3343750">
    <ele>4149.6</ele>
    <time>2026-06-22T06:08:00Z</time>
   </trkpt>
   <trkpt lat="-3.0959390" lon="37.3343760">
    <ele>4149.6</ele>
    <time>2026-06-22T06:08:01Z</time>
   </trkpt>
   <trkpt lat="-3.0959400" lon="37.3343760">
    <ele>4149.6</ele>
    <time>2026-06-22T06:08:02Z</time>
   </trkpt>
   <trkpt lat="-3.0959390" lon="37.3343750">
    <ele>4149.6</ele>
    <time>2026-06-22T06:08:03Z</time>
   </trkpt>
   <trkpt lat="-3.0959390" lon="37.3343750">
    <ele>4149.6</ele>
    <time>2026-06-22T06:08:04Z</time>
   </trkpt>
   <trkpt lat="-3.0959410" lon="37.3343750">
    <ele>4149.6</ele>
    <time>2026-06-22T06:08:05Z</time>
   </trkpt>
   <trkpt lat="-3.0959430" lon="37.3343740">
    <ele>4149.7</ele>
    <time>2026-06-22T06:08:06Z</time>
   </trkpt>
   <trkpt lat="-3.0959440" lon="37.3343740">
    <ele>4149.7</ele>
    <time>2026-06-22T06:08:07Z</time>
   </trkpt>
   <trkpt lat="-3.0959430" lon="37.3343730">
    <ele>4149.7</ele>
    <time>2026-06-22T06:08:08Z</time>
   </trkpt>
   <trkpt lat="-3.0959440" lon="37.3343740">
    <ele>4149.7</ele>
    <time>2026-06-22T06:08:09Z</time>
   </trkpt>
   <trkpt lat="-3.0959430" lon="37.3343740">
    <ele>4149.7</ele>
    <time>2026-06-22T06:08:10Z</time>
   </trkpt>
   <trkpt lat="-3.0959420" lon="37.3343740">
    <ele>4149.8</ele>
    <time>2026-06-22T06:08:11Z</time>
   </trkpt>
   <trkpt lat="-3.0959430" lon="37.3343740">
    <ele>4149.8</ele>
    <time>2026-06-22T06:08:12Z</time>
   </trkpt>
   <trkpt lat="-3.0959430" lon="37.3343760">
    <ele>4149.8</ele>
    <time>2026-06-22T06:08:13Z</time>
   </trkpt>
   <trkpt lat="-3.0959420" lon="37.3343770">
    <ele>4149.8</ele>
    <time>2026-06-22T06:08:14Z</time>
   </trkpt>
   <trkpt lat="-3.0959420" lon="37.3343760">
    <ele>4149.8</ele>
    <time>2026-06-22T06:08:15Z</time>
   </trkpt>
   <trkpt lat="-3.0959410" lon="37.3343770">
    <ele>4149.8</ele>
    <time>2026-06-22T06:08:16Z</time>
   </trkpt>
   <trkpt lat="-3.0959390" lon="37.3343770">
    <ele>4149.9</ele>
    <time>2026-06-22T06:08:17Z</time>
   </trkpt>
   <trkpt lat="-3.0959420" lon="37.3343760">
    <ele>4149.9</ele>
    <time>2026-06-22T06:08:18Z</time>
   </trkpt>
   <trkpt lat="-3.0959390" lon="37.3343780">
    <ele>4150.0</ele>
    <time>2026-06-22T06:08:19Z</time>
   </trkpt>
   <trkpt lat="-3.0959380" lon="37.3343770">
    <ele>4150.0</ele>
    <time>2026-06-22T06:08:20Z</time>
   </trkpt>
   <trkpt lat="-3.0959400" lon="37.3343780">
    <ele>4150.0</ele>
    <time>2026-06-22T06:08:21Z</time>
   </trkpt>
   <trkpt lat="-3.0959400" lon="37.3343770">
    <ele>4150.0</ele>
    <time>2026-06-22T06:08:22Z</time>
   </trkpt>
   <trkpt lat="-3.0959410" lon="37.3343770">
    <ele>4150.1</ele>
    <time>2026-06-22T06:08:23Z</time>
   </trkpt>
   <trkpt lat="-3.0959400" lon="37.3343770">
    <ele>4150.1</ele>
    <time>2026-06-22T06:08:24Z</time>
   </trkpt>
   <trkpt lat="-3.0959400" lon="37.3343770">
    <ele>4150.1</ele>
    <time>2026-06-22T06:08:25Z</time>
   </trkpt>
   <trkpt lat="-3.0959400" lon="37.3343780">
    <ele>4150.1</ele>
    <time>2026-06-22T06:08:26Z</time>
   </trkpt>
   <trkpt lat="-3.0959390" lon="37.3343780">
    <ele>4150.1</ele>
    <time>2026-06-22T06:08:27Z</time>
   </trkpt>
   <trkpt lat="-3.0959390" lon="37.3343780">
    <ele>4150.1</ele>
    <time>2026-06-22T06:08:28Z</time>
   </trkpt>
   <trkpt lat="-3.0959380" lon="37.3343780">
    <ele>4150.1</ele>
    <time>2026-06-22T06:08:29Z</time>
   </trkpt>
   <trkpt lat="-3.0959380" lon="37.3343770">
    <ele>4150.1</ele>
    <time>2026-06-22T06:08:30Z</time>
   </trkpt>
   <trkpt lat="-3.0959380" lon="37.3343770">
    <ele>4150.1</ele>
    <time>2026-06-22T06:08:31Z</time>
   </trkpt>
   <trkpt lat="-3.0959380" lon="37.3343770">
    <ele>4150.1</ele>
    <time>2026-06-22T06:08:32Z</time>
   </trkpt>
   <trkpt lat="-3.0959380" lon="37.3343780">
    <ele>4150.1</ele>
    <time>2026-06-22T06:08:33Z</time>
   </trkpt>
   <trkpt lat="-3.0959380" lon="37.3343770">
    <ele>4150.2</ele>
    <time>2026-06-22T06:08:34Z</time>
   </trkpt>
   <trkpt lat="-3.0959380" lon="37.3343780">
    <ele>4150.2</ele>
    <time>2026-06-22T06:08:35Z</time>
   </trkpt>
   <trkpt lat="-3.0959380" lon="37.3343770">
    <ele>4150.2</ele>
    <time>2026-06-22T06:08:36Z</time>
   </trkpt>
   <trkpt lat="-3.0959370" lon="37.3343780">
    <ele>4150.2</ele>
    <time>2026-06-22T06:08:37Z</time>
   </trkpt>
   <trkpt lat="-3.0959360" lon="37.3343780">
    <ele>4150.2</ele>
    <time>2026-06-22T06:08:38Z</time>
   </trkpt>
   <trkpt lat="-3.0959370" lon="37.3343780">
    <ele>4150.2</ele>
    <time>2026-06-22T06:08:39Z</time>
   </trkpt>
   <trkpt lat="-3.0959370" lon="37.3343770">
    <ele>4150.2</ele>
    <time>2026-06-22T06:08:40Z</time>
   </trkpt>
   <trkpt lat="-3.0959400" lon="37.3343770">
    <ele>4150.3</ele>
    <time>2026-06-22T06:08:41Z</time>
   </trkpt>
   <trkpt lat="-3.0959380" lon="37.3343770">
    <ele>4150.3</ele>
    <time>2026-06-22T06:08:42Z</time>
   </trkpt>
   <trkpt lat="-3.0959370" lon="37.3343770">
    <ele>4150.3</ele>
    <time>2026-06-22T06:08:43Z</time>
   </trkpt>
   <trkpt lat="-3.0959370" lon="37.3343770">
    <ele>4150.3</ele>
    <time>2026-06-22T06:08:44Z</time>
   </trkpt>
   <trkpt lat="-3.0959380" lon="37.3343770">
    <ele>4150.3</ele>
    <time>2026-06-22T06:08:45Z</time>
   </trkpt>
   <trkpt lat="-3.0959380" lon="37.3343760">
    <ele>4150.4</ele>
    <time>2026-06-22T06:08:46Z</time>
   </trkpt>
   <trkpt lat="-3.0959390" lon="37.3343760">
    <ele>4150.4</ele>
    <time>2026-06-22T06:08:47Z</time>
   </trkpt>
   <trkpt lat="-3.0959420" lon="37.3343780">
    <ele>4150.4</ele>
    <time>2026-06-22T06:08:48Z</time>
   </trkpt>
   <trkpt lat="-3.0959420" lon="37.3343780">
    <ele>4150.4</ele>
    <time>2026-06-22T06:08:49Z</time>
   </trkpt>
   <trkpt lat="-3.0959410" lon="37.3343770">
    <ele>4150.4</ele>
    <time>2026-06-22T06:08:50Z</time>
   </trkpt>
   <trkpt lat="-3.0959410" lon="37.3343760">
    <ele>4150.5</ele>
    <time>2026-06-22T06:08:51Z</time>
   </trkpt>
   <trkpt lat="-3.0959420" lon="37.3343780">
    <ele>4150.5</ele>
    <time>2026-06-22T06:08:52Z</time>
   </trkpt>
   <trkpt lat="-3.0959420" lon="37.3343770">
    <ele>4150.5</ele>
    <time>2026-06-22T06:08:53Z</time>
   </trkpt>
   <trkpt lat="-3.0959420" lon="37.3343770">
    <ele>4150.5</ele>
    <time>2026-06-22T06:08:54Z</time>
   </trkpt>
   <trkpt lat="-3.0959430" lon="37.3343780">
    <ele>4150.5</ele>
    <time>2026-06-22T06:08:55Z</time>
   </trkpt>
   <trkpt lat="-3.0959420" lon="37.3343750">
    <ele>4150.6</ele>
    <time>2026-06-22T06:08:56Z</time>
   </trkpt>
   <trkpt lat="-3.0959420" lon="37.3343760">
    <ele>4150.6</ele>
    <time>2026-06-22T06:08:57Z</time>
   </trkpt>
   <trkpt lat="-3.0959430" lon="37.3343770">
    <ele>4150.6</ele>
    <time>2026-06-22T06:08:58Z</time>
   </trkpt>
   <trkpt lat="-3.0959440" lon="37.3343760">
    <ele>4150.6</ele>
    <time>2026-06-22T06:08:59Z</time>
   </trkpt>
   <trkpt lat="-3.0959450" lon="37.3343780">
    <ele>4150.6</ele>
    <time>2026-06-22T06:09:00Z</time>
   </trkpt>
   <trkpt lat="-3.0959440" lon="37.3343770">
    <ele>4150.7</ele>
    <time>2026-06-22T06:09:01Z</time>
   </trkpt>
   <trkpt lat="-3.0959430" lon="37.3343780">
    <ele>4150.7</ele>
    <time>2026-06-22T06:09:02Z</time>
   </trkpt>
   <trkpt lat="-3.0959460" lon="37.3343740">
    <ele>4150.8</ele>
    <time>2026-06-22T06:09:03Z</time>
   </trkpt>
   <trkpt lat="-3.0959470" lon="37.3343770">
    <ele>4150.8</ele>
    <time>2026-06-22T06:09:04Z</time>
   </trkpt>
   <trkpt lat="-3.0959470" lon="37.3343820">
    <ele>4150.9</ele>
    <time>2026-06-22T06:09:05Z</time>
   </trkpt>
   <trkpt lat="-3.0959490" lon="37.3343840">
    <ele>4150.9</ele>
    <time>2026-06-22T06:09:06Z</time>
   </trkpt>
   <trkpt lat="-3.0959480" lon="37.3343860">
    <ele>4150.9</ele>
    <time>2026-06-22T06:09:07Z</time>
   </trkpt>
   <trkpt lat="-3.0959510" lon="37.3343880">
    <ele>4151.0</ele>
    <time>2026-06-22T06:09:08Z</time>
   </trkpt>
   <trkpt lat="-3.0959560" lon="37.3343900">
    <ele>4151.1</ele>
    <time>2026-06-22T06:09:09Z</time>
   </trkpt>
   <trkpt lat="-3.0959580" lon="37.3343930">
    <ele>4151.1</ele>
    <time>2026-06-22T06:09:10Z</time>
   </trkpt>
   <trkpt lat="-3.0959610" lon="37.3343940">
    <ele>4151.2</ele>
    <time>2026-06-22T06:09:11Z</time>
   </trkpt>
   <trkpt lat="-3.0959670" lon="37.3343950">
    <ele>4151.2</ele>
    <time>2026-06-22T06:09:12Z</time>
   </trkpt>
   <trkpt lat="-3.0959710" lon="37.3343950">
    <ele>4151.3</ele>
    <time>2026-06-22T06:09:13Z</time>
   </trkpt>
   <trkpt lat="-3.0959750" lon="37.3343960">
    <ele>4151.4</ele>
    <time>2026-06-22T06:09:14Z</time>
   </trkpt>
   <trkpt lat="-3.0959790" lon="37.3343970">
    <ele>4151.4</ele>
    <time>2026-06-22T06:09:15Z</time>
   </trkpt>
   <trkpt lat="-3.0959780" lon="37.3343990">
    <ele>4151.5</ele>
    <time>2026-06-22T06:09:16Z</time>
   </trkpt>
   <trkpt lat="-3.0959820" lon="37.3344000">
    <ele>4151.5</ele>
    <time>2026-06-22T06:09:17Z</time>
   </trkpt>
   <trkpt lat="-3.0959820" lon="37.3344060">
    <ele>4151.6</ele>
    <time>2026-06-22T06:09:18Z</time>
   </trkpt>
   <trkpt lat="-3.0959860" lon="37.3344080">
    <ele>4151.7</ele>
    <time>2026-06-22T06:09:19Z</time>
   </trkpt>
   <trkpt lat="-3.0959920" lon="37.3344120">
    <ele>4151.8</ele>
    <time>2026-06-22T06:09:20Z</time>
   </trkpt>
   <trkpt lat="-3.0959940" lon="37.3344150">
    <ele>4151.8</ele>
    <time>2026-06-22T06:09:21Z</time>
   </trkpt>
   <trkpt lat="-3.0959990" lon="37.3344170">
    <ele>4151.9</ele>
    <time>2026-06-22T06:09:22Z</time>
   </trkpt>
   <trkpt lat="-3.0960030" lon="37.3344240">
    <ele>4152.0</ele>
    <time>2026-06-22T06:09:23Z</time>
   </trkpt>
   <trkpt lat="-3.0960060" lon="37.3344260">
    <ele>4152.0</ele>
    <time>2026-06-22T06:09:24Z</time>
   </trkpt>
   <trkpt lat="-3.0960120" lon="37.3344280">
    <ele>4152.1</ele>
    <time>2026-06-22T06:09:25Z</time>
   </trkpt>
   <trkpt lat="-3.0960170" lon="37.3344300">
    <ele>4152.2</ele>
    <time>2026-06-22T06:09:26Z</time>
   </trkpt>
   <trkpt lat="-3.0960220" lon="37.3344310">
    <ele>4152.3</ele>
    <time>2026-06-22T06:09:27Z</time>
   </trkpt>
   <trkpt lat="-3.0960250" lon="37.3344300">
    <ele>4152.3</ele>
    <time>2026-06-22T06:09:28Z</time>
   </trkpt>
   <trkpt lat="-3.0960290" lon="37.3344330">
    <ele>4152.4</ele>
    <time>2026-06-22T06:09:29Z</time>
   </trkpt>
   <trkpt lat="-3.0960300" lon="37.3344360">
    <ele>4152.5</ele>
    <time>2026-06-22T06:09:30Z</time>
   </trkpt>
   <trkpt lat="-3.0960300" lon="37.3344360">
    <ele>4152.5</ele>
    <time>2026-06-22T06:09:31Z</time>
   </trkpt>
   <trkpt lat="-3.0960320" lon="37.3344400">
    <ele>4152.5</ele>
    <time>2026-06-22T06:09:32Z</time>
   </trkpt>
   <trkpt lat="-3.0960340" lon="37.3344410">
    <ele>4152.5</ele>
    <time>2026-06-22T06:09:33Z</time>
   </trkpt>
   <trkpt lat="-3.0960370" lon="37.3344450">
    <ele>4152.6</ele>
    <time>2026-06-22T06:09:34Z</time>
   </trkpt>
   <trkpt lat="-3.0960390" lon="37.3344470">
    <ele>4152.7</ele>
    <time>2026-06-22T06:09:35Z</time>
   </trkpt>
   <trkpt lat="-3.0960420" lon="37.3344510">
    <ele>4152.7</ele>
    <time>2026-06-22T06:09:36Z</time>
   </trkpt>
   <trkpt lat="-3.0960460" lon="37.3344540">
    <ele>4152.8</ele>
    <time>2026-06-22T06:09:37Z</time>
   </trkpt>
   <trkpt lat="-3.0960470" lon="37.3344610">
    <ele>4152.9</ele>
    <time>2026-06-22T06:09:38Z</time>
   </trkpt>
   <trkpt lat="-3.0960450" lon="37.3344660">
    <ele>4153.0</ele>
    <time>2026-06-22T06:09:39Z</time>
   </trkpt>
   <trkpt lat="-3.0960450" lon="37.3344720">
    <ele>4153.1</ele>
    <time>2026-06-22T06:09:40Z</time>
   </trkpt>
   <trkpt lat="-3.0960480" lon="37.3344760">
    <ele>4153.2</ele>
    <time>2026-06-22T06:09:41Z</time>
   </trkpt>
   <trkpt lat="-3.0960510" lon="37.3344790">
    <ele>4153.2</ele>
    <time>2026-06-22T06:09:42Z</time>
   </trkpt>
   <trkpt lat="-3.0960590" lon="37.3344810">
    <ele>4153.3</ele>
    <time>2026-06-22T06:09:43Z</time>
   </trkpt>
   <trkpt lat="-3.0960640" lon="37.3344810">
    <ele>4153.4</ele>
    <time>2026-06-22T06:09:44Z</time>
   </trkpt>
   <trkpt lat="-3.0960670" lon="37.3344800">
    <ele>4153.5</ele>
    <time>2026-06-22T06:09:45Z</time>
   </trkpt>
   <trkpt lat="-3.0960720" lon="37.3344790">
    <ele>4153.5</ele>
    <time>2026-06-22T06:09:46Z</time>
   </trkpt>
   <trkpt lat="-3.0960750" lon="37.3344780">
    <ele>4153.6</ele>
    <time>2026-06-22T06:09:47Z</time>
   </trkpt>
   <trkpt lat="-3.0960820" lon="37.3344770">
    <ele>4153.7</ele>
    <time>2026-06-22T06:09:48Z</time>
   </trkpt>
   <trkpt lat="-3.0960880" lon="37.3344760">
    <ele>4153.8</ele>
    <time>2026-06-22T06:09:49Z</time>
   </trkpt>
   <trkpt lat="-3.0960940" lon="37.3344740">
    <ele>4153.9</ele>
    <time>2026-06-22T06:09:50Z</time>
   </trkpt>
   <trkpt lat="-3.0960970" lon="37.3344740">
    <ele>4153.9</ele>
    <time>2026-06-22T06:09:51Z</time>
   </trkpt>
   <trkpt lat="-3.0961010" lon="37.3344740">
    <ele>4154.0</ele>
    <time>2026-06-22T06:09:52Z</time>
   </trkpt>
   <trkpt lat="-3.0961040" lon="37.3344730">
    <ele>4154.0</ele>
    <time>2026-06-22T06:09:53Z</time>
   </trkpt>
   <trkpt lat="-3.0961080" lon="37.3344720">
    <ele>4154.1</ele>
    <time>2026-06-22T06:09:54Z</time>
   </trkpt>
   <trkpt lat="-3.0961100" lon="37.3344730">
    <ele>4154.1</ele>
    <time>2026-06-22T06:09:55Z</time>
   </trkpt>
   <trkpt lat="-3.0961100" lon="37.3344740">
    <ele>4154.1</ele>
    <time>2026-06-22T06:09:56Z</time>
   </trkpt>
   <trkpt lat="-3.0961190" lon="37.3344780">
    <ele>4154.3</ele>
    <time>2026-06-22T06:09:57Z</time>
   </trkpt>
   <trkpt lat="-3.0961230" lon="37.3344780">
    <ele>4154.3</ele>
    <time>2026-06-22T06:09:58Z</time>
   </trkpt>
   <trkpt lat="-3.0961280" lon="37.3344780">
    <ele>4154.4</ele>
    <time>2026-06-22T06:09:59Z</time>
   </trkpt>
   <trkpt lat="-3.0961280" lon="37.3344800">
    <ele>4154.5</ele>
    <time>2026-06-22T06:10:00Z</time>
   </trkpt>
   <trkpt lat="-3.0961350" lon="37.3344820">
    <ele>4154.6</ele>
    <time>2026-06-22T06:10:01Z</time>
   </trkpt>
   <trkpt lat="-3.0961390" lon="37.3344830">
    <ele>4154.6</ele>
    <time>2026-06-22T06:10:03Z</time>
   </trkpt>
   <trkpt lat="-3.0961410" lon="37.3344840">
    <ele>4154.7</ele>
    <time>2026-06-22T06:10:04Z</time>
   </trkpt>
   <trkpt lat="-3.0961420" lon="37.3344870">
    <ele>4154.7</ele>
    <time>2026-06-22T06:10:05Z</time>
   </trkpt>
   <trkpt lat="-3.0961450" lon="37.3344890">
    <ele>4154.8</ele>
    <time>2026-06-22T06:10:06Z</time>
   </trkpt>
   <trkpt lat="-3.0961480" lon="37.3344910">
    <ele>4154.8</ele>
    <time>2026-06-22T06:10:07Z</time>
   </trkpt>
   <trkpt lat="-3.0961530" lon="37.3344930">
    <ele>4154.9</ele>
    <time>2026-06-22T06:10:08Z</time>
   </trkpt>
   <trkpt lat="-3.0961520" lon="37.3344960">
    <ele>4155.0</ele>
    <time>2026-06-22T06:10:09Z</time>
   </trkpt>
   <trkpt lat="-3.0961550" lon="37.3345010">
    <ele>4155.0</ele>
    <time>2026-06-22T06:10:10Z</time>
   </trkpt>
   <trkpt lat="-3.0961570" lon="37.3345040">
    <ele>4155.1</ele>
    <time>2026-06-22T06:10:11Z</time>
   </trkpt>
   <trkpt lat="-3.0961610" lon="37.3345090">
    <ele>4155.2</ele>
    <time>2026-06-22T06:10:12Z</time>
   </trkpt>
   <trkpt lat="-3.0961650" lon="37.3345160">
    <ele>4155.3</ele>
    <time>2026-06-22T06:10:13Z</time>
   </trkpt>
   <trkpt lat="-3.0961630" lon="37.3345220">
    <ele>4155.4</ele>
    <time>2026-06-22T06:10:14Z</time>
   </trkpt>
   <trkpt lat="-3.0961650" lon="37.3345260">
    <ele>4155.5</ele>
    <time>2026-06-22T06:10:15Z</time>
   </trkpt>
   <trkpt lat="-3.0961680" lon="37.3345300">
    <ele>4155.6</ele>
    <time>2026-06-22T06:10:16Z</time>
   </trkpt>
   <trkpt lat="-3.0961710" lon="37.3345370">
    <ele>4155.7</ele>
    <time>2026-06-22T06:10:17Z</time>
   </trkpt>
   <trkpt lat="-3.0961710" lon="37.3345380">
    <ele>4155.7</ele>
    <time>2026-06-22T06:10:18Z</time>
   </trkpt>
   <trkpt lat="-3.0961710" lon="37.3345390">
    <ele>4155.7</ele>
    <time>2026-06-22T06:10:19Z</time>
   </trkpt>
   <trkpt lat="-3.0961730" lon="37.3345420">
    <ele>4155.8</ele>
    <time>2026-06-22T06:10:20Z</time>
   </trkpt>
   <trkpt lat="-3.0961760" lon="37.3345440">
    <ele>4155.8</ele>
    <time>2026-06-22T06:10:21Z</time>
   </trkpt>
   <trkpt lat="-3.0961750" lon="37.3345470">
    <ele>4155.9</ele>
    <time>2026-06-22T06:10:22Z</time>
   </trkpt>
   <trkpt lat="-3.0961780" lon="37.3345510">
    <ele>4155.9</ele>
    <time>2026-06-22T06:10:23Z</time>
   </trkpt>
   <trkpt lat="-3.0961790" lon="37.3345540">
    <ele>4156.0</ele>
    <time>2026-06-22T06:10:24Z</time>
   </trkpt>
   <trkpt lat="-3.0961800" lon="37.3345540">
    <ele>4156.0</ele>
    <time>2026-06-22T06:10:25Z</time>
   </trkpt>
   <trkpt lat="-3.0961770" lon="37.3345540">
    <ele>4156.0</ele>
    <time>2026-06-22T06:10:26Z</time>
   </trkpt>
   <trkpt lat="-3.0961800" lon="37.3345640">
    <ele>4156.2</ele>
    <time>2026-06-22T06:10:27Z</time>
   </trkpt>
   <trkpt lat="-3.0961770" lon="37.3345650">
    <ele>4156.3</ele>
    <time>2026-06-22T06:10:28Z</time>
   </trkpt>
   <trkpt lat="-3.0961760" lon="37.3345690">
    <ele>4156.3</ele>
    <time>2026-06-22T06:10:29Z</time>
   </trkpt>
   <trkpt lat="-3.0961770" lon="37.3345750">
    <ele>4156.4</ele>
    <time>2026-06-22T06:10:30Z</time>
   </trkpt>
   <trkpt lat="-3.0961780" lon="37.3345760">
    <ele>4156.4</ele>
    <time>2026-06-22T06:10:31Z</time>
   </trkpt>
   <trkpt lat="-3.0961800" lon="37.3345800">
    <ele>4156.5</ele>
    <time>2026-06-22T06:10:32Z</time>
   </trkpt>
   <trkpt lat="-3.0961820" lon="37.3345800">
    <ele>4156.5</ele>
    <time>2026-06-22T06:10:33Z</time>
   </trkpt>
   <trkpt lat="-3.0961870" lon="37.3345830">
    <ele>4156.6</ele>
    <time>2026-06-22T06:10:34Z</time>
   </trkpt>
   <trkpt lat="-3.0961930" lon="37.3345890">
    <ele>4156.7</ele>
    <time>2026-06-22T06:10:35Z</time>
   </trkpt>
   <trkpt lat="-3.0961960" lon="37.3345910">
    <ele>4156.8</ele>
    <time>2026-06-22T06:10:36Z</time>
   </trkpt>
   <trkpt lat="-3.0961970" lon="37.3345930">
    <ele>4156.8</ele>
    <time>2026-06-22T06:10:37Z</time>
   </trkpt>
   <trkpt lat="-3.0961980" lon="37.3346000">
    <ele>4156.9</ele>
    <time>2026-06-22T06:10:38Z</time>
   </trkpt>
   <trkpt lat="-3.0961970" lon="37.3345990">
    <ele>4157.0</ele>
    <time>2026-06-22T06:10:39Z</time>
   </trkpt>
   <trkpt lat="-3.0961940" lon="37.3346000">
    <ele>4157.0</ele>
    <time>2026-06-22T06:10:40Z</time>
   </trkpt>
   <trkpt lat="-3.0961940" lon="37.3345990">
    <ele>4157.0</ele>
    <time>2026-06-22T06:10:41Z</time>
   </trkpt>
   <trkpt lat="-3.0961930" lon="37.3345990">
    <ele>4157.0</ele>
    <time>2026-06-22T06:10:42Z</time>
   </trkpt>
   <trkpt lat="-3.0961920" lon="37.3345980">
    <ele>4157.1</ele>
    <time>2026-06-22T06:10:43Z</time>
   </trkpt>
   <trkpt lat="-3.0961910" lon="37.3345990">
    <ele>4157.1</ele>
    <time>2026-06-22T06:10:44Z</time>
   </trkpt>
   <trkpt lat="-3.0961920" lon="37.3345980">
    <ele>4157.1</ele>
    <time>2026-06-22T06:10:45Z</time>
   </trkpt>
   <trkpt lat="-3.0961930" lon="37.3346010">
    <ele>4157.2</ele>
    <time>2026-06-22T06:10:46Z</time>
   </trkpt>
   <trkpt lat="-3.0961930" lon="37.3346010">
    <ele>4157.2</ele>
    <time>2026-06-22T06:10:47Z</time>
   </trkpt>
   <trkpt lat="-3.0961920" lon="37.3346020">
    <ele>4157.2</ele>
    <time>2026-06-22T06:10:48Z</time>
   </trkpt>
   <trkpt lat="-3.0961940" lon="37.3346040">
    <ele>4157.2</ele>
    <time>2026-06-22T06:10:49Z</time>
   </trkpt>
   <trkpt lat="-3.0961930" lon="37.3346060">
    <ele>4157.3</ele>
    <time>2026-06-22T06:10:50Z</time>
   </trkpt>
   <trkpt lat="-3.0961920" lon="37.3346090">
    <ele>4157.3</ele>
    <time>2026-06-22T06:10:51Z</time>
   </trkpt>
   <trkpt lat="-3.0961940" lon="37.3346130">
    <ele>4157.4</ele>
    <time>2026-06-22T06:10:52Z</time>
   </trkpt>
   <trkpt lat="-3.0961940" lon="37.3346160">
    <ele>4157.4</ele>
    <time>2026-06-22T06:10:53Z</time>
   </trkpt>
   <trkpt lat="-3.0961930" lon="37.3346170">
    <ele>4157.4</ele>
    <time>2026-06-22T06:10:54Z</time>
   </trkpt>
   <trkpt lat="-3.0961930" lon="37.3346200">
    <ele>4157.5</ele>
    <time>2026-06-22T06:10:55Z</time>
   </trkpt>
   <trkpt lat="-3.0961880" lon="37.3346190">
    <ele>4157.6</ele>
    <time>2026-06-22T06:10:56Z</time>
   </trkpt>
   <trkpt lat="-3.0961860" lon="37.3346250">
    <ele>4157.7</ele>
    <time>2026-06-22T06:10:57Z</time>
   </trkpt>
   <trkpt lat="-3.0961840" lon="37.3346260">
    <ele>4157.7</ele>
    <time>2026-06-22T06:10:58Z</time>
   </trkpt>
   <trkpt lat="-3.0961860" lon="37.3346270">
    <ele>4157.7</ele>
    <time>2026-06-22T06:10:59Z</time>
   </trkpt>
   <trkpt lat="-3.0961920" lon="37.3346270">
    <ele>4157.8</ele>
    <time>2026-06-22T06:11:00Z</time>
   </trkpt>
   <trkpt lat="-3.0961970" lon="37.3346250">
    <ele>4157.9</ele>
    <time>2026-06-22T06:11:01Z</time>
   </trkpt>
   <trkpt lat="-3.0962070" lon="37.3346230">
    <ele>4158.0</ele>
    <time>2026-06-22T06:11:02Z</time>
   </trkpt>
   <trkpt lat="-3.0962110" lon="37.3346260">
    <ele>4158.1</ele>
    <time>2026-06-22T06:11:03Z</time>
   </trkpt>
   <trkpt lat="-3.0962160" lon="37.3346260">
    <ele>4158.2</ele>
    <time>2026-06-22T06:11:04Z</time>
   </trkpt>
   <trkpt lat="-3.0962160" lon="37.3346270">
    <ele>4158.2</ele>
    <time>2026-06-22T06:11:05Z</time>
   </trkpt>
   <trkpt lat="-3.0962200" lon="37.3346310">
    <ele>4158.3</ele>
    <time>2026-06-22T06:11:06Z</time>
   </trkpt>
   <trkpt lat="-3.0962240" lon="37.3346330">
    <ele>4158.3</ele>
    <time>2026-06-22T06:11:07Z</time>
   </trkpt>
   <trkpt lat="-3.0962280" lon="37.3346320">
    <ele>4158.4</ele>
    <time>2026-06-22T06:11:08Z</time>
   </trkpt>
   <trkpt lat="-3.0962280" lon="37.3346300">
    <ele>4158.4</ele>
    <time>2026-06-22T06:11:09Z</time>
   </trkpt>
   <trkpt lat="-3.0962290" lon="37.3346320">
    <ele>4158.5</ele>
    <time>2026-06-22T06:11:10Z</time>
   </trkpt>
   <trkpt lat="-3.0962280" lon="37.3346330">
    <ele>4158.5</ele>
    <time>2026-06-22T06:11:11Z</time>
   </trkpt>
   <trkpt lat="-3.0962290" lon="37.3346340">
    <ele>4158.5</ele>
    <time>2026-06-22T06:11:12Z</time>
   </trkpt>
   <trkpt lat="-3.0962340" lon="37.3346360">
    <ele>4158.6</ele>
    <time>2026-06-22T06:11:13Z</time>
   </trkpt>
   <trkpt lat="-3.0962360" lon="37.3346380">
    <ele>4158.6</ele>
    <time>2026-06-22T06:11:14Z</time>
   </trkpt>
   <trkpt lat="-3.0962350" lon="37.3346370">
    <ele>4158.6</ele>
    <time>2026-06-22T06:11:15Z</time>
   </trkpt>
   <trkpt lat="-3.0962370" lon="37.3346400">
    <ele>4158.7</ele>
    <time>2026-06-22T06:11:16Z</time>
   </trkpt>
   <trkpt lat="-3.0962380" lon="37.3346420">
    <ele>4158.7</ele>
    <time>2026-06-22T06:11:17Z</time>
   </trkpt>
   <trkpt lat="-3.0962410" lon="37.3346420">
    <ele>4158.8</ele>
    <time>2026-06-22T06:11:18Z</time>
   </trkpt>
   <trkpt lat="-3.0962490" lon="37.3346440">
    <ele>4158.9</ele>
    <time>2026-06-22T06:11:19Z</time>
   </trkpt>
   <trkpt lat="-3.0962520" lon="37.3346450">
    <ele>4158.9</ele>
    <time>2026-06-22T06:11:20Z</time>
   </trkpt>
   <trkpt lat="-3.0962540" lon="37.3346460">
    <ele>4159.0</ele>
    <time>2026-06-22T06:11:21Z</time>
   </trkpt>
   <trkpt lat="-3.0962590" lon="37.3346460">
    <ele>4159.0</ele>
    <time>2026-06-22T06:11:22Z</time>
   </trkpt>
   <trkpt lat="-3.0962600" lon="37.3346470">
    <ele>4159.1</ele>
    <time>2026-06-22T06:11:23Z</time>
   </trkpt>
   <trkpt lat="-3.0962650" lon="37.3346460">
    <ele>4159.1</ele>
    <time>2026-06-22T06:11:24Z</time>
   </trkpt>
   <trkpt lat="-3.0962690" lon="37.3346460">
    <ele>4159.2</ele>
    <time>2026-06-22T06:11:25Z</time>
   </trkpt>
   <trkpt lat="-3.0962720" lon="37.3346460">
    <ele>4159.2</ele>
    <time>2026-06-22T06:11:26Z</time>
   </trkpt>
   <trkpt lat="-3.0962770" lon="37.3346450">
    <ele>4159.3</ele>
    <time>2026-06-22T06:11:27Z</time>
   </trkpt>
   <trkpt lat="-3.0962800" lon="37.3346460">
    <ele>4159.3</ele>
    <time>2026-06-22T06:11:28Z</time>
   </trkpt>
   <trkpt lat="-3.0962790" lon="37.3346450">
    <ele>4159.4</ele>
    <time>2026-06-22T06:11:29Z</time>
   </trkpt>
   <trkpt lat="-3.0962790" lon="37.3346460">
    <ele>4159.4</ele>
    <time>2026-06-22T06:11:30Z</time>
   </trkpt>
   <trkpt lat="-3.0962780" lon="37.3346450">
    <ele>4159.4</ele>
    <time>2026-06-22T06:11:31Z</time>
   </trkpt>
   <trkpt lat="-3.0962780" lon="37.3346460">
    <ele>4159.4</ele>
    <time>2026-06-22T06:11:32Z</time>
   </trkpt>
   <trkpt lat="-3.0962830" lon="37.3346500">
    <ele>4159.5</ele>
    <time>2026-06-22T06:11:33Z</time>
   </trkpt>
   <trkpt lat="-3.0962850" lon="37.3346530">
    <ele>4159.6</ele>
    <time>2026-06-22T06:11:34Z</time>
   </trkpt>
   <trkpt lat="-3.0962870" lon="37.3346550">
    <ele>4159.6</ele>
    <time>2026-06-22T06:11:35Z</time>
   </trkpt>
   <trkpt lat="-3.0962920" lon="37.3346570">
    <ele>4159.7</ele>
    <time>2026-06-22T06:11:36Z</time>
   </trkpt>
   <trkpt lat="-3.0962990" lon="37.3346610">
    <ele>4159.8</ele>
    <time>2026-06-22T06:11:37Z</time>
   </trkpt>
   <trkpt lat="-3.0963030" lon="37.3346630">
    <ele>4159.9</ele>
    <time>2026-06-22T06:11:38Z</time>
   </trkpt>
   <trkpt lat="-3.0963020" lon="37.3346620">
    <ele>4159.9</ele>
    <time>2026-06-22T06:11:39Z</time>
   </trkpt>
   <trkpt lat="-3.0963060" lon="37.3346620">
    <ele>4159.9</ele>
    <time>2026-06-22T06:11:40Z</time>
   </trkpt>
   <trkpt lat="-3.0963120" lon="37.3346670">
    <ele>4160.0</ele>
    <time>2026-06-22T06:11:41Z</time>
   </trkpt>
   <trkpt lat="-3.0963150" lon="37.3346690">
    <ele>4160.1</ele>
    <time>2026-06-22T06:11:42Z</time>
   </trkpt>
   <trkpt lat="-3.0963180" lon="37.3346690">
    <ele>4160.1</ele>
    <time>2026-06-22T06:11:43Z</time>
   </trkpt>
   <trkpt lat="-3.0963280" lon="37.3346710">
    <ele>4160.3</ele>
    <time>2026-06-22T06:11:44Z</time>
   </trkpt>
   <trkpt lat="-3.0963320" lon="37.3346760">
    <ele>4160.4</ele>
    <time>2026-06-22T06:11:45Z</time>
   </trkpt>
   <trkpt lat="-3.0963390" lon="37.3346740">
    <ele>4160.5</ele>
    <time>2026-06-22T06:11:46Z</time>
   </trkpt>
   <trkpt lat="-3.0963430" lon="37.3346720">
    <ele>4160.5</ele>
    <time>2026-06-22T06:11:47Z</time>
   </trkpt>
   <trkpt lat="-3.0963500" lon="37.3346710">
    <ele>4160.6</ele>
    <time>2026-06-22T06:11:48Z</time>
   </trkpt>
   <trkpt lat="-3.0963490" lon="37.3346700">
    <ele>4160.6</ele>
    <time>2026-06-22T06:11:49Z</time>
   </trkpt>
   <trkpt lat="-3.0963510" lon="37.3346710">
    <ele>4160.7</ele>
    <time>2026-06-22T06:11:50Z</time>
   </trkpt>
   <trkpt lat="-3.0963510" lon="37.3346720">
    <ele>4160.7</ele>
    <time>2026-06-22T06:11:51Z</time>
   </trkpt>
   <trkpt lat="-3.0963560" lon="37.3346730">
    <ele>4160.8</ele>
    <time>2026-06-22T06:11:52Z</time>
   </trkpt>
   <trkpt lat="-3.0963600" lon="37.3346730">
    <ele>4160.8</ele>
    <time>2026-06-22T06:11:53Z</time>
   </trkpt>
   <trkpt lat="-3.0963670" lon="37.3346720">
    <ele>4160.9</ele>
    <time>2026-06-22T06:11:54Z</time>
   </trkpt>
   <trkpt lat="-3.0963690" lon="37.3346730">
    <ele>4160.9</ele>
    <time>2026-06-22T06:11:55Z</time>
   </trkpt>
   <trkpt lat="-3.0963700" lon="37.3346740">
    <ele>4161.0</ele>
    <time>2026-06-22T06:11:56Z</time>
   </trkpt>
   <trkpt lat="-3.0963750" lon="37.3346770">
    <ele>4161.0</ele>
    <time>2026-06-22T06:11:57Z</time>
   </trkpt>
   <trkpt lat="-3.0963820" lon="37.3346790">
    <ele>4161.1</ele>
    <time>2026-06-22T06:11:58Z</time>
   </trkpt>
   <trkpt lat="-3.0963880" lon="37.3346870">
    <ele>4161.3</ele>
    <time>2026-06-22T06:11:59Z</time>
   </trkpt>
   <trkpt lat="-3.0963930" lon="37.3346930">
    <ele>4161.4</ele>
    <time>2026-06-22T06:12:00Z</time>
   </trkpt>
   <trkpt lat="-3.0963980" lon="37.3346950">
    <ele>4161.4</ele>
    <time>2026-06-22T06:12:01Z</time>
   </trkpt>
   <trkpt lat="-3.0963980" lon="37.3346980">
    <ele>4161.5</ele>
    <time>2026-06-22T06:12:02Z</time>
   </trkpt>
   <trkpt lat="-3.0964050" lon="37.3347010">
    <ele>4161.6</ele>
    <time>2026-06-22T06:12:03Z</time>
   </trkpt>
   <trkpt lat="-3.0964050" lon="37.3347010">
    <ele>4161.6</ele>
    <time>2026-06-22T06:12:04Z</time>
   </trkpt>
   <trkpt lat="-3.0964050" lon="37.3347000">
    <ele>4161.6</ele>
    <time>2026-06-22T06:12:05Z</time>
   </trkpt>
   <trkpt lat="-3.0964130" lon="37.3347030">
    <ele>4161.7</ele>
    <time>2026-06-22T06:12:06Z</time>
   </trkpt>
   <trkpt lat="-3.0964170" lon="37.3347010">
    <ele>4161.8</ele>
    <time>2026-06-22T06:12:07Z</time>
   </trkpt>
   <trkpt lat="-3.0964210" lon="37.3346990">
    <ele>4161.8</ele>
    <time>2026-06-22T06:12:08Z</time>
   </trkpt>
   <trkpt lat="-3.0964240" lon="37.3346980">
    <ele>4161.9</ele>
    <time>2026-06-22T06:12:09Z</time>
   </trkpt>
   <trkpt lat="-3.0964160" lon="37.3347060">
    <ele>4162.0</ele>
    <time>2026-06-22T06:12:10Z</time>
   </trkpt>
   <trkpt lat="-3.0964230" lon="37.3347050">
    <ele>4162.1</ele>
    <time>2026-06-22T06:12:11Z</time>
   </trkpt>
   <trkpt lat="-3.0964250" lon="37.3347050">
    <ele>4162.1</ele>
    <time>2026-06-22T06:12:12Z</time>
   </trkpt>
   <trkpt lat="-3.0964290" lon="37.3347070">
    <ele>4162.2</ele>
    <time>2026-06-22T06:12:13Z</time>
   </trkpt>
   <trkpt lat="-3.0964340" lon="37.3347080">
    <ele>4162.3</ele>
    <time>2026-06-22T06:12:14Z</time>
   </trkpt>
   <trkpt lat="-3.0964460" lon="37.3347130">
    <ele>4162.5</ele>
    <time>2026-06-22T06:12:16Z</time>
   </trkpt>
   <trkpt lat="-3.0964490" lon="37.3347130">
    <ele>4162.5</ele>
    <time>2026-06-22T06:12:17Z</time>
   </trkpt>
   <trkpt lat="-3.0964540" lon="37.3347120">
    <ele>4162.6</ele>
    <time>2026-06-22T06:12:18Z</time>
   </trkpt>
   <trkpt lat="-3.0964530" lon="37.3347130">
    <ele>4162.6</ele>
    <time>2026-06-22T06:12:19Z</time>
   </trkpt>
   <trkpt lat="-3.0964550" lon="37.3347150">
    <ele>4162.6</ele>
    <time>2026-06-22T06:12:20Z</time>
   </trkpt>
   <trkpt lat="-3.0964610" lon="37.3347140">
    <ele>4162.7</ele>
    <time>2026-06-22T06:12:22Z</time>
   </trkpt>
   <trkpt lat="-3.0964620" lon="37.3347180">
    <ele>4162.8</ele>
    <time>2026-06-22T06:12:23Z</time>
   </trkpt>
   <trkpt lat="-3.0964660" lon="37.3347200">
    <ele>4162.8</ele>
    <time>2026-06-22T06:12:24Z</time>
   </trkpt>
   <trkpt lat="-3.0964660" lon="37.3347260">
    <ele>4162.9</ele>
    <time>2026-06-22T06:12:25Z</time>
   </trkpt>
   <trkpt lat="-3.0964710" lon="37.3347290">
    <ele>4163.0</ele>
    <time>2026-06-22T06:12:26Z</time>
   </trkpt>
   <trkpt lat="-3.0964710" lon="37.3347340">
    <ele>4163.0</ele>
    <time>2026-06-22T06:12:27Z</time>
   </trkpt>
   <trkpt lat="-3.0964750" lon="37.3347330">
    <ele>4163.1</ele>
    <time>2026-06-22T06:12:28Z</time>
   </trkpt>
   <trkpt lat="-3.0964780" lon="37.3347340">
    <ele>4163.1</ele>
    <time>2026-06-22T06:12:29Z</time>
   </trkpt>
   <trkpt lat="-3.0964820" lon="37.3347390">
    <ele>4163.2</ele>
    <time>2026-06-22T06:12:30Z</time>
   </trkpt>
   <trkpt lat="-3.0964860" lon="37.3347370">
    <ele>4163.3</ele>
    <time>2026-06-22T06:12:31Z</time>
   </trkpt>
   <trkpt lat="-3.0964900" lon="37.3347320">
    <ele>4163.3</ele>
    <time>2026-06-22T06:12:32Z</time>
   </trkpt>
   <trkpt lat="-3.0964900" lon="37.3347300">
    <ele>4163.4</ele>
    <time>2026-06-22T06:12:33Z</time>
   </trkpt>
   <trkpt lat="-3.0964920" lon="37.3347280">
    <ele>4163.4</ele>
    <time>2026-06-22T06:12:34Z</time>
   </trkpt>
   <trkpt lat="-3.0964940" lon="37.3347250">
    <ele>4163.4</ele>
    <time>2026-06-22T06:12:35Z</time>
   </trkpt>
   <trkpt lat="-3.0964960" lon="37.3347260">
    <ele>4163.5</ele>
    <time>2026-06-22T06:12:36Z</time>
   </trkpt>
   <trkpt lat="-3.0964970" lon="37.3347250">
    <ele>4163.5</ele>
    <time>2026-06-22T06:12:37Z</time>
   </trkpt>
   <trkpt lat="-3.0964980" lon="37.3347240">
    <ele>4163.5</ele>
    <time>2026-06-22T06:12:38Z</time>
   </trkpt>
   <trkpt lat="-3.0965000" lon="37.3347220">
    <ele>4163.5</ele>
    <time>2026-06-22T06:12:39Z</time>
   </trkpt>
   <trkpt lat="-3.0965010" lon="37.3347230">
    <ele>4163.6</ele>
    <time>2026-06-22T06:12:40Z</time>
   </trkpt>
   <trkpt lat="-3.0965060" lon="37.3347270">
    <ele>4163.6</ele>
    <time>2026-06-22T06:12:41Z</time>
   </trkpt>
   <trkpt lat="-3.0965070" lon="37.3347240">
    <ele>4163.7</ele>
    <time>2026-06-22T06:12:42Z</time>
   </trkpt>
   <trkpt lat="-3.0965110" lon="37.3347260">
    <ele>4163.7</ele>
    <time>2026-06-22T06:12:43Z</time>
   </trkpt>
   <trkpt lat="-3.0965140" lon="37.3347280">
    <ele>4163.8</ele>
    <time>2026-06-22T06:12:44Z</time>
   </trkpt>
   <trkpt lat="-3.0965150" lon="37.3347270">
    <ele>4163.8</ele>
    <time>2026-06-22T06:12:45Z</time>
   </trkpt>
   <trkpt lat="-3.0965160" lon="37.3347320">
    <ele>4163.9</ele>
    <time>2026-06-22T06:12:46Z</time>
   </trkpt>
   <trkpt lat="-3.0965140" lon="37.3347310">
    <ele>4163.9</ele>
    <time>2026-06-22T06:12:47Z</time>
   </trkpt>
   <trkpt lat="-3.0965130" lon="37.3347400">
    <ele>4164.0</ele>
    <time>2026-06-22T06:12:48Z</time>
   </trkpt>
   <trkpt lat="-3.0965130" lon="37.3347410">
    <ele>4164.0</ele>
    <time>2026-06-22T06:12:49Z</time>
   </trkpt>
   <trkpt lat="-3.0965140" lon="37.3347380">
    <ele>4164.1</ele>
    <time>2026-06-22T06:12:50Z</time>
   </trkpt>
   <trkpt lat="-3.0965110" lon="37.3347350">
    <ele>4164.1</ele>
    <time>2026-06-22T06:12:51Z</time>
   </trkpt>
   <trkpt lat="-3.0965140" lon="37.3347410">
    <ele>4164.2</ele>
    <time>2026-06-22T06:12:52Z</time>
   </trkpt>
   <trkpt lat="-3.0965180" lon="37.3347450">
    <ele>4164.3</ele>
    <time>2026-06-22T06:12:53Z</time>
   </trkpt>
   <trkpt lat="-3.0965180" lon="37.3347470">
    <ele>4164.3</ele>
    <time>2026-06-22T06:12:54Z</time>
   </trkpt>
   <trkpt lat="-3.0965180" lon="37.3347500">
    <ele>4164.3</ele>
    <time>2026-06-22T06:12:55Z</time>
   </trkpt>
   <trkpt lat="-3.0965190" lon="37.3347530">
    <ele>4164.4</ele>
    <time>2026-06-22T06:12:56Z</time>
   </trkpt>
   <trkpt lat="-3.0965200" lon="37.3347550">
    <ele>4164.4</ele>
    <time>2026-06-22T06:12:57Z</time>
   </trkpt>
   <trkpt lat="-3.0965220" lon="37.3347620">
    <ele>4164.5</ele>
    <time>2026-06-22T06:12:58Z</time>
   </trkpt>
   <trkpt lat="-3.0965220" lon="37.3347660">
    <ele>4164.5</ele>
    <time>2026-06-22T06:12:59Z</time>
   </trkpt>
   <trkpt lat="-3.0965210" lon="37.3347670">
    <ele>4164.5</ele>
    <time>2026-06-22T06:13:00Z</time>
   </trkpt>
   <trkpt lat="-3.0965190" lon="37.3347720">
    <ele>4164.6</ele>
    <time>2026-06-22T06:13:01Z</time>
   </trkpt>
   <trkpt lat="-3.0965190" lon="37.3347780">
    <ele>4164.7</ele>
    <time>2026-06-22T06:13:02Z</time>
   </trkpt>
   <trkpt lat="-3.0965210" lon="37.3347820">
    <ele>4164.7</ele>
    <time>2026-06-22T06:13:03Z</time>
   </trkpt>
   <trkpt lat="-3.0965220" lon="37.3347830">
    <ele>4164.8</ele>
    <time>2026-06-22T06:13:04Z</time>
   </trkpt>
   <trkpt lat="-3.0965230" lon="37.3347820">
    <ele>4164.8</ele>
    <time>2026-06-22T06:13:05Z</time>
   </trkpt>
   <trkpt lat="-3.0965230" lon="37.3347830">
    <ele>4164.8</ele>
    <time>2026-06-22T06:13:06Z</time>
   </trkpt>
   <trkpt lat="-3.0965280" lon="37.3347860">
    <ele>4164.9</ele>
    <time>2026-06-22T06:13:07Z</time>
   </trkpt>
   <trkpt lat="-3.0965320" lon="37.3347890">
    <ele>4164.9</ele>
    <time>2026-06-22T06:13:08Z</time>
   </trkpt>
   <trkpt lat="-3.0965330" lon="37.3347900">
    <ele>4164.9</ele>
    <time>2026-06-22T06:13:09Z</time>
   </trkpt>
   <trkpt lat="-3.0965340" lon="37.3347940">
    <ele>4165.0</ele>
    <time>2026-06-22T06:13:10Z</time>
   </trkpt>
   <trkpt lat="-3.0965340" lon="37.3347940">
    <ele>4165.0</ele>
    <time>2026-06-22T06:13:11Z</time>
   </trkpt>
   <trkpt lat="-3.0965340" lon="37.3347950">
    <ele>4165.0</ele>
    <time>2026-06-22T06:13:12Z</time>
   </trkpt>
   <trkpt lat="-3.0965350" lon="37.3347970">
    <ele>4165.0</ele>
    <time>2026-06-22T06:13:13Z</time>
   </trkpt>
   <trkpt lat="-3.0965360" lon="37.3348000">
    <ele>4165.1</ele>
    <time>2026-06-22T06:13:14Z</time>
   </trkpt>
   <trkpt lat="-3.0965360" lon="37.3348050">
    <ele>4165.1</ele>
    <time>2026-06-22T06:13:15Z</time>
   </trkpt>
   <trkpt lat="-3.0965360" lon="37.3348070">
    <ele>4165.2</ele>
    <time>2026-06-22T06:13:16Z</time>
   </trkpt>
   <trkpt lat="-3.0965350" lon="37.3348090">
    <ele>4165.2</ele>
    <time>2026-06-22T06:13:17Z</time>
   </trkpt>
   <trkpt lat="-3.0965360" lon="37.3348130">
    <ele>4165.2</ele>
    <time>2026-06-22T06:13:18Z</time>
   </trkpt>
   <trkpt lat="-3.0965350" lon="37.3348150">
    <ele>4165.3</ele>
    <time>2026-06-22T06:13:19Z</time>
   </trkpt>
   <trkpt lat="-3.0965340" lon="37.3348180">
    <ele>4165.3</ele>
    <time>2026-06-22T06:13:20Z</time>
   </trkpt>
   <trkpt lat="-3.0965350" lon="37.3348200">
    <ele>4165.3</ele>
    <time>2026-06-22T06:13:21Z</time>
   </trkpt>
   <trkpt lat="-3.0965360" lon="37.3348250">
    <ele>4165.4</ele>
    <time>2026-06-22T06:13:22Z</time>
   </trkpt>
   <trkpt lat="-3.0965340" lon="37.3348270">
    <ele>4165.4</ele>
    <time>2026-06-22T06:13:23Z</time>
   </trkpt>
   <trkpt lat="-3.0965330" lon="37.3348290">
    <ele>4165.4</ele>
    <time>2026-06-22T06:13:24Z</time>
   </trkpt>
   <trkpt lat="-3.0965330" lon="37.3348300">
    <ele>4165.5</ele>
    <time>2026-06-22T06:13:25Z</time>
   </trkpt>
   <trkpt lat="-3.0965340" lon="37.3348300">
    <ele>4165.5</ele>
    <time>2026-06-22T06:13:26Z</time>
   </trkpt>
   <trkpt lat="-3.0965330" lon="37.3348300">
    <ele>4165.5</ele>
    <time>2026-06-22T06:13:27Z</time>
   </trkpt>
   <trkpt lat="-3.0965340" lon="37.3348300">
    <ele>4165.5</ele>
    <time>2026-06-22T06:13:28Z</time>
   </trkpt>
   <trkpt lat="-3.0965340" lon="37.3348300">
    <ele>4165.5</ele>
    <time>2026-06-22T06:13:29Z</time>
   </trkpt>
   <trkpt lat="-3.0965350" lon="37.3348300">
    <ele>4165.5</ele>
    <time>2026-06-22T06:13:30Z</time>
   </trkpt>
   <trkpt lat="-3.0965330" lon="37.3348300">
    <ele>4165.5</ele>
    <time>2026-06-22T06:13:31Z</time>
   </trkpt>
   <trkpt lat="-3.0965330" lon="37.3348300">
    <ele>4165.5</ele>
    <time>2026-06-22T06:13:32Z</time>
   </trkpt>
   <trkpt lat="-3.0965340" lon="37.3348300">
    <ele>4165.5</ele>
    <time>2026-06-22T06:13:33Z</time>
   </trkpt>
   <trkpt lat="-3.0965340" lon="37.3348300">
    <ele>4165.5</ele>
    <time>2026-06-22T06:13:34Z</time>
   </trkpt>
   <trkpt lat="-3.0965350" lon="37.3348310">
    <ele>4165.6</ele>
    <time>2026-06-22T06:13:35Z</time>
   </trkpt>
   <trkpt lat="-3.0965340" lon="37.3348310">
    <ele>4165.6</ele>
    <time>2026-06-22T06:13:36Z</time>
   </trkpt>
   <trkpt lat="-3.0965360" lon="37.3348310">
    <ele>4165.6</ele>
    <time>2026-06-22T06:13:37Z</time>
   </trkpt>
   <trkpt lat="-3.0965370" lon="37.3348350">
    <ele>4165.6</ele>
    <time>2026-06-22T06:13:38Z</time>
   </trkpt>
   <trkpt lat="-3.0965390" lon="37.3348400">
    <ele>4165.7</ele>
    <time>2026-06-22T06:13:39Z</time>
   </trkpt>
   <trkpt lat="-3.0965400" lon="37.3348410">
    <ele>4165.7</ele>
    <time>2026-06-22T06:13:40Z</time>
   </trkpt>
   <trkpt lat="-3.0965390" lon="37.3348430">
    <ele>4165.7</ele>
    <time>2026-06-22T06:13:41Z</time>
   </trkpt>
   <trkpt lat="-3.0965410" lon="37.3348470">
    <ele>4165.8</ele>
    <time>2026-06-22T06:13:42Z</time>
   </trkpt>
   <trkpt lat="-3.0965430" lon="37.3348490">
    <ele>4165.8</ele>
    <time>2026-06-22T06:13:43Z</time>
   </trkpt>
   <trkpt lat="-3.0965460" lon="37.3348500">
    <ele>4165.9</ele>
    <time>2026-06-22T06:13:44Z</time>
   </trkpt>
   <trkpt lat="-3.0965530" lon="37.3348520">
    <ele>4165.9</ele>
    <time>2026-06-22T06:13:45Z</time>
   </trkpt>
   <trkpt lat="-3.0965530" lon="37.3348520">
    <ele>4165.9</ele>
    <time>2026-06-22T06:13:46Z</time>
   </trkpt>
   <trkpt lat="-3.0965580" lon="37.3348520">
    <ele>4166.0</ele>
    <time>2026-06-22T06:13:47Z</time>
   </trkpt>
   <trkpt lat="-3.0965620" lon="37.3348500">
    <ele>4166.1</ele>
    <time>2026-06-22T06:13:48Z</time>
   </trkpt>
   <trkpt lat="-3.0965670" lon="37.3348500">
    <ele>4166.1</ele>
    <time>2026-06-22T06:13:49Z</time>
   </trkpt>
   <trkpt lat="-3.0965720" lon="37.3348470">
    <ele>4166.2</ele>
    <time>2026-06-22T06:13:50Z</time>
   </trkpt>
   <trkpt lat="-3.0965810" lon="37.3348480">
    <ele>4166.3</ele>
    <time>2026-06-22T06:13:51Z</time>
   </trkpt>
   <trkpt lat="-3.0965860" lon="37.3348430">
    <ele>4166.4</ele>
    <time>2026-06-22T06:13:52Z</time>
   </trkpt>
   <trkpt lat="-3.0965900" lon="37.3348400">
    <ele>4166.4</ele>
    <time>2026-06-22T06:13:53Z</time>
   </trkpt>
   <trkpt lat="-3.0965950" lon="37.3348360">
    <ele>4166.5</ele>
    <time>2026-06-22T06:13:54Z</time>
   </trkpt>
   <trkpt lat="-3.0966020" lon="37.3348320">
    <ele>4166.6</ele>
    <time>2026-06-22T06:13:55Z</time>
   </trkpt>
   <trkpt lat="-3.0966100" lon="37.3348310">
    <ele>4166.7</ele>
    <time>2026-06-22T06:13:56Z</time>
   </trkpt>
   <trkpt lat="-3.0966120" lon="37.3348330">
    <ele>4166.7</ele>
    <time>2026-06-22T06:13:57Z</time>
   </trkpt>
   <trkpt lat="-3.0966090" lon="37.3348330">
    <ele>4166.7</ele>
    <time>2026-06-22T06:13:58Z</time>
   </trkpt>
   <trkpt lat="-3.0966100" lon="37.3348340">
    <ele>4166.8</ele>
    <time>2026-06-22T06:13:59Z</time>
   </trkpt>
   <trkpt lat="-3.0966100" lon="37.3348350">
    <ele>4166.8</ele>
    <time>2026-06-22T06:14:00Z</time>
   </trkpt>
   <trkpt lat="-3.0966120" lon="37.3348350">
    <ele>4166.8</ele>
    <time>2026-06-22T06:14:01Z</time>
   </trkpt>
   <trkpt lat="-3.0966120" lon="37.3348360">
    <ele>4166.8</ele>
    <time>2026-06-22T06:14:02Z</time>
   </trkpt>
   <trkpt lat="-3.0966130" lon="37.3348360">
    <ele>4166.8</ele>
    <time>2026-06-22T06:14:03Z</time>
   </trkpt>
   <trkpt lat="-3.0966130" lon="37.3348340">
    <ele>4166.8</ele>
    <time>2026-06-22T06:14:04Z</time>
   </trkpt>
   <trkpt lat="-3.0966150" lon="37.3348290">
    <ele>4166.9</ele>
    <time>2026-06-22T06:14:05Z</time>
   </trkpt>
   <trkpt lat="-3.0966180" lon="37.3348240">
    <ele>4167.0</ele>
    <time>2026-06-22T06:14:06Z</time>
   </trkpt>
   <trkpt lat="-3.0966210" lon="37.3348180">
    <ele>4167.0</ele>
    <time>2026-06-22T06:14:07Z</time>
   </trkpt>
   <trkpt lat="-3.0966240" lon="37.3348110">
    <ele>4167.1</ele>
    <time>2026-06-22T06:14:08Z</time>
   </trkpt>
   <trkpt lat="-3.0966240" lon="37.3348070">
    <ele>4167.2</ele>
    <time>2026-06-22T06:14:09Z</time>
   </trkpt>
   <trkpt lat="-3.0966210" lon="37.3348070">
    <ele>4167.2</ele>
    <time>2026-06-22T06:14:10Z</time>
   </trkpt>
   <trkpt lat="-3.0966190" lon="37.3348020">
    <ele>4167.2</ele>
    <time>2026-06-22T06:14:11Z</time>
   </trkpt>
   <trkpt lat="-3.0966200" lon="37.3347960">
    <ele>4167.3</ele>
    <time>2026-06-22T06:14:12Z</time>
   </trkpt>
   <trkpt lat="-3.0966200" lon="37.3347920">
    <ele>4167.4</ele>
    <time>2026-06-22T06:14:13Z</time>
   </trkpt>
   <trkpt lat="-3.0966240" lon="37.3347930">
    <ele>4167.4</ele>
    <time>2026-06-22T06:14:14Z</time>
   </trkpt>
   <trkpt lat="-3.0966220" lon="37.3347930">
    <ele>4167.4</ele>
    <time>2026-06-22T06:14:15Z</time>
   </trkpt>
   <trkpt lat="-3.0966160" lon="37.3347860">
    <ele>4167.5</ele>
    <time>2026-06-22T06:14:16Z</time>
   </trkpt>
   <trkpt lat="-3.0966150" lon="37.3347800">
    <ele>4167.6</ele>
    <time>2026-06-22T06:14:17Z</time>
   </trkpt>
   <trkpt lat="-3.0966160" lon="37.3347790">
    <ele>4167.6</ele>
    <time>2026-06-22T06:14:18Z</time>
   </trkpt>
   <trkpt lat="-3.0966160" lon="37.3347790">
    <ele>4167.6</ele>
    <time>2026-06-22T06:14:19Z</time>
   </trkpt>
   <trkpt lat="-3.0966160" lon="37.3347760">
    <ele>4167.6</ele>
    <time>2026-06-22T06:14:20Z</time>
   </trkpt>
   <trkpt lat="-3.0966150" lon="37.3347760">
    <ele>4167.7</ele>
    <time>2026-06-22T06:14:21Z</time>
   </trkpt>
   <trkpt lat="-3.0966130" lon="37.3347730">
    <ele>4167.7</ele>
    <time>2026-06-22T06:14:22Z</time>
   </trkpt>
   <trkpt lat="-3.0966130" lon="37.3347740">
    <ele>4167.7</ele>
    <time>2026-06-22T06:14:23Z</time>
   </trkpt>
   <trkpt lat="-3.0966130" lon="37.3347740">
    <ele>4167.7</ele>
    <time>2026-06-22T06:14:24Z</time>
   </trkpt>
   <trkpt lat="-3.0966130" lon="37.3347730">
    <ele>4167.7</ele>
    <time>2026-06-22T06:14:25Z</time>
   </trkpt>
   <trkpt lat="-3.0966140" lon="37.3347730">
    <ele>4167.7</ele>
    <time>2026-06-22T06:14:26Z</time>
   </trkpt>
   <trkpt lat="-3.0966130" lon="37.3347740">
    <ele>4167.7</ele>
    <time>2026-06-22T06:14:27Z</time>
   </trkpt>
   <trkpt lat="-3.0966130" lon="37.3347740">
    <ele>4167.7</ele>
    <time>2026-06-22T06:14:28Z</time>
   </trkpt>
   <trkpt lat="-3.0966130" lon="37.3347740">
    <ele>4167.7</ele>
    <time>2026-06-22T06:14:29Z</time>
   </trkpt>
   <trkpt lat="-3.0966130" lon="37.3347740">
    <ele>4167.7</ele>
    <time>2026-06-22T06:14:30Z</time>
   </trkpt>
   <trkpt lat="-3.0966130" lon="37.3347740">
    <ele>4167.7</ele>
    <time>2026-06-22T06:14:31Z</time>
   </trkpt>
   <trkpt lat="-3.0966130" lon="37.3347740">
    <ele>4167.7</ele>
    <time>2026-06-22T06:14:32Z</time>
   </trkpt>
   <trkpt lat="-3.0966130" lon="37.3347740">
    <ele>4167.7</ele>
    <time>2026-06-22T06:14:33Z</time>
   </trkpt>
   <trkpt lat="-3.0966130" lon="37.3347740">
    <ele>4167.7</ele>
    <time>2026-06-22T06:14:34Z</time>
   </trkpt>
   <trkpt lat="-3.0966130" lon="37.3347740">
    <ele>4167.7</ele>
    <time>2026-06-22T06:14:35Z</time>
   </trkpt>
   <trkpt lat="-3.0966130" lon="37.3347740">
    <ele>4167.7</ele>
    <time>2026-06-22T06:14:36Z</time>
   </trkpt>
   <trkpt lat="-3.0966130" lon="37.3347740">
    <ele>4167.7</ele>
    <time>2026-06-22T06:14:37Z</time>
   </trkpt>
   <trkpt lat="-3.0966130" lon="37.3347740">
    <ele>4167.7</ele>
    <time>2026-06-22T06:14:38Z</time>
   </trkpt>
   <trkpt lat="-3.0966130" lon="37.3347740">
    <ele>4167.7</ele>
    <time>2026-06-22T06:14:39Z</time>
   </trkpt>
   <trkpt lat="-3.0966130" lon="37.3347740">
    <ele>4167.7</ele>
    <time>2026-06-22T06:14:40Z</time>
   </trkpt>
   <trkpt lat="-3.0966130" lon="37.3347740">
    <ele>4167.7</ele>
    <time>2026-06-22T06:14:41Z</time>
   </trkpt>
   <trkpt lat="-3.0966130" lon="37.3347740">
    <ele>4167.7</ele>
    <time>2026-06-22T06:14:42Z</time>
   </trkpt>
   <trkpt lat="-3.0966130" lon="37.3347740">
    <ele>4167.7</ele>
    <time>2026-06-22T06:14:43Z</time>
   </trkpt>
   <trkpt lat="-3.0966130" lon="37.3347740">
    <ele>4167.7</ele>
    <time>2026-06-22T06:14:44Z</time>
   </trkpt>
   <trkpt lat="-3.0966130" lon="37.3347740">
    <ele>4167.7</ele>
    <time>2026-06-22T06:14:45Z</time>
   </trkpt>
   <trkpt lat="-3.0966090" lon="37.3347780">
    <ele>4167.8</ele>
    <time>2026-06-22T06:14:46Z</time>
   </trkpt>
   <trkpt lat="-3.0966080" lon="37.3347720">
    <ele>4167.9</ele>
    <time>2026-06-22T06:14:47Z</time>
   </trkpt>
   <trkpt lat="-3.0966090" lon="37.3347690">
    <ele>4167.9</ele>
    <time>2026-06-22T06:14:48Z</time>
   </trkpt>
   <trkpt lat="-3.0966070" lon="37.3347730">
    <ele>4168.0</ele>
    <time>2026-06-22T06:14:49Z</time>
   </trkpt>
   <trkpt lat="-3.0966060" lon="37.3347710">
    <ele>4168.0</ele>
    <time>2026-06-22T06:14:50Z</time>
   </trkpt>
   <trkpt lat="-3.0966060" lon="37.3347720">
    <ele>4168.0</ele>
    <time>2026-06-22T06:14:51Z</time>
   </trkpt>
   <trkpt lat="-3.0966040" lon="37.3347760">
    <ele>4168.0</ele>
    <time>2026-06-22T06:14:52Z</time>
   </trkpt>
   <trkpt lat="-3.0966030" lon="37.3347740">
    <ele>4168.1</ele>
    <time>2026-06-22T06:14:53Z</time>
   </trkpt>
   <trkpt lat="-3.0966030" lon="37.3347700">
    <ele>4168.1</ele>
    <time>2026-06-22T06:14:54Z</time>
   </trkpt>
   <trkpt lat="-3.0966060" lon="37.3347770">
    <ele>4168.2</ele>
    <time>2026-06-22T06:14:55Z</time>
   </trkpt>
   <trkpt lat="-3.0966070" lon="37.3347810">
    <ele>4168.2</ele>
    <time>2026-06-22T06:14:56Z</time>
   </trkpt>
   <trkpt lat="-3.0966080" lon="37.3347830">
    <ele>4168.3</ele>
    <time>2026-06-22T06:14:57Z</time>
   </trkpt>
   <trkpt lat="-3.0966100" lon="37.3347850">
    <ele>4168.3</ele>
    <time>2026-06-22T06:14:58Z</time>
   </trkpt>
   <trkpt lat="-3.0966100" lon="37.3347880">
    <ele>4168.3</ele>
    <time>2026-06-22T06:14:59Z</time>
   </trkpt>
   <trkpt lat="-3.0966110" lon="37.3347910">
    <ele>4168.4</ele>
    <time>2026-06-22T06:15:00Z</time>
   </trkpt>
   <trkpt lat="-3.0966100" lon="37.3347930">
    <ele>4168.4</ele>
    <time>2026-06-22T06:15:01Z</time>
   </trkpt>
   <trkpt lat="-3.0966080" lon="37.3347930">
    <ele>4168.4</ele>
    <time>2026-06-22T06:15:02Z</time>
   </trkpt>
   <trkpt lat="-3.0966080" lon="37.3347940">
    <ele>4168.4</ele>
    <time>2026-06-22T06:15:03Z</time>
   </trkpt>
   <trkpt lat="-3.0966070" lon="37.3347940">
    <ele>4168.4</ele>
    <time>2026-06-22T06:15:04Z</time>
   </trkpt>
   <trkpt lat="-3.0966140" lon="37.3348050">
    <ele>4168.6</ele>
    <time>2026-06-22T06:15:05Z</time>
   </trkpt>
   <trkpt lat="-3.0966040" lon="37.3348080">
    <ele>4168.7</ele>
    <time>2026-06-22T06:15:06Z</time>
   </trkpt>
   <trkpt lat="-3.0966040" lon="37.3348090">
    <ele>4168.7</ele>
    <time>2026-06-22T06:15:07Z</time>
   </trkpt>
   <trkpt lat="-3.0966080" lon="37.3348110">
    <ele>4168.7</ele>
    <time>2026-06-22T06:15:08Z</time>
   </trkpt>
   <trkpt lat="-3.0966080" lon="37.3348090">
    <ele>4168.8</ele>
    <time>2026-06-22T06:15:09Z</time>
   </trkpt>
   <trkpt lat="-3.0966080" lon="37.3348080">
    <ele>4168.8</ele>
    <time>2026-06-22T06:15:10Z</time>
   </trkpt>
   <trkpt lat="-3.0966090" lon="37.3348070">
    <ele>4168.8</ele>
    <time>2026-06-22T06:15:11Z</time>
   </trkpt>
   <trkpt lat="-3.0966090" lon="37.3348060">
    <ele>4168.8</ele>
    <time>2026-06-22T06:15:12Z</time>
   </trkpt>
   <trkpt lat="-3.0966090" lon="37.3348060">
    <ele>4168.8</ele>
    <time>2026-06-22T06:15:13Z</time>
   </trkpt>
   <trkpt lat="-3.0966100" lon="37.3348040">
    <ele>4168.8</ele>
    <time>2026-06-22T06:15:14Z</time>
   </trkpt>
   <trkpt lat="-3.0966110" lon="37.3348020">
    <ele>4168.9</ele>
    <time>2026-06-22T06:15:15Z</time>
   </trkpt>
   <trkpt lat="-3.0966110" lon="37.3348020">
    <ele>4168.9</ele>
    <time>2026-06-22T06:15:16Z</time>
   </trkpt>
   <trkpt lat="-3.0966120" lon="37.3348040">
    <ele>4168.9</ele>
    <time>2026-06-22T06:15:17Z</time>
   </trkpt>
   <trkpt lat="-3.0966150" lon="37.3348060">
    <ele>4168.9</ele>
    <time>2026-06-22T06:15:18Z</time>
   </trkpt>
   <trkpt lat="-3.0966140" lon="37.3348080">
    <ele>4168.9</ele>
    <time>2026-06-22T06:15:19Z</time>
   </trkpt>
   <trkpt lat="-3.0966140" lon="37.3348080">
    <ele>4168.9</ele>
    <time>2026-06-22T06:15:20Z</time>
   </trkpt>
   <trkpt lat="-3.0966130" lon="37.3348080">
    <ele>4169.0</ele>
    <time>2026-06-22T06:15:21Z</time>
   </trkpt>
   <trkpt lat="-3.0966130" lon="37.3348100">
    <ele>4169.0</ele>
    <time>2026-06-22T06:15:22Z</time>
   </trkpt>
   <trkpt lat="-3.0966120" lon="37.3348100">
    <ele>4169.0</ele>
    <time>2026-06-22T06:15:23Z</time>
   </trkpt>
   <trkpt lat="-3.0966110" lon="37.3348110">
    <ele>4169.0</ele>
    <time>2026-06-22T06:15:24Z</time>
   </trkpt>
   <trkpt lat="-3.0966110" lon="37.3348110">
    <ele>4169.0</ele>
    <time>2026-06-22T06:15:25Z</time>
   </trkpt>
   <trkpt lat="-3.0966110" lon="37.3348110">
    <ele>4169.0</ele>
    <time>2026-06-22T06:15:26Z</time>
   </trkpt>
   <trkpt lat="-3.0966110" lon="37.3348130">
    <ele>4169.0</ele>
    <time>2026-06-22T06:15:27Z</time>
   </trkpt>
   <trkpt lat="-3.0966100" lon="37.3348140">
    <ele>4169.0</ele>
    <time>2026-06-22T06:15:28Z</time>
   </trkpt>
   <trkpt lat="-3.0966100" lon="37.3348170">
    <ele>4169.1</ele>
    <time>2026-06-22T06:15:29Z</time>
   </trkpt>
   <trkpt lat="-3.0966100" lon="37.3348260">
    <ele>4169.2</ele>
    <time>2026-06-22T06:15:30Z</time>
   </trkpt>
   <trkpt lat="-3.0966080" lon="37.3348300">
    <ele>4169.2</ele>
    <time>2026-06-22T06:15:31Z</time>
   </trkpt>
   <trkpt lat="-3.0966110" lon="37.3348250">
    <ele>4169.3</ele>
    <time>2026-06-22T06:15:32Z</time>
   </trkpt>
   <trkpt lat="-3.0966090" lon="37.3348320">
    <ele>4169.4</ele>
    <time>2026-06-22T06:15:33Z</time>
   </trkpt>
   <trkpt lat="-3.0966090" lon="37.3348280">
    <ele>4169.4</ele>
    <time>2026-06-22T06:15:34Z</time>
   </trkpt>
   <trkpt lat="-3.0966070" lon="37.3348290">
    <ele>4169.4</ele>
    <time>2026-06-22T06:15:35Z</time>
   </trkpt>
   <trkpt lat="-3.0966060" lon="37.3348280">
    <ele>4169.5</ele>
    <time>2026-06-22T06:15:36Z</time>
   </trkpt>
   <trkpt lat="-3.0966050" lon="37.3348290">
    <ele>4169.5</ele>
    <time>2026-06-22T06:15:37Z</time>
   </trkpt>
   <trkpt lat="-3.0966050" lon="37.3348290">
    <ele>4169.5</ele>
    <time>2026-06-22T06:15:38Z</time>
   </trkpt>
   <trkpt lat="-3.0966050" lon="37.3348290">
    <ele>4169.5</ele>
    <time>2026-06-22T06:15:39Z</time>
   </trkpt>
   <trkpt lat="-3.0966050" lon="37.3348290">
    <ele>4169.5</ele>
    <time>2026-06-22T06:15:40Z</time>
   </trkpt>
   <trkpt lat="-3.0966030" lon="37.3348300">
    <ele>4169.5</ele>
    <time>2026-06-22T06:15:41Z</time>
   </trkpt>
   <trkpt lat="-3.0966030" lon="37.3348300">
    <ele>4169.5</ele>
    <time>2026-06-22T06:15:42Z</time>
   </trkpt>
   <trkpt lat="-3.0966040" lon="37.3348300">
    <ele>4169.5</ele>
    <time>2026-06-22T06:15:43Z</time>
   </trkpt>
   <trkpt lat="-3.0966030" lon="37.3348300">
    <ele>4169.5</ele>
    <time>2026-06-22T06:15:44Z</time>
   </trkpt>
   <trkpt lat="-3.0966030" lon="37.3348300">
    <ele>4169.5</ele>
    <time>2026-06-22T06:15:45Z</time>
   </trkpt>
   <trkpt lat="-3.0966030" lon="37.3348300">
    <ele>4169.5</ele>
    <time>2026-06-22T06:15:46Z</time>
   </trkpt>
   <trkpt lat="-3.0966030" lon="37.3348300">
    <ele>4169.5</ele>
    <time>2026-06-22T06:15:47Z</time>
   </trkpt>
   <trkpt lat="-3.0966030" lon="37.3348300">
    <ele>4169.5</ele>
    <time>2026-06-22T06:15:48Z</time>
   </trkpt>
   <trkpt lat="-3.0966030" lon="37.3348300">
    <ele>4169.5</ele>
    <time>2026-06-22T06:15:49Z</time>
   </trkpt>
   <trkpt lat="-3.0966060" lon="37.3348390">
    <ele>4169.6</ele>
    <time>2026-06-22T06:15:50Z</time>
   </trkpt>
   <trkpt lat="-3.0966020" lon="37.3348320">
    <ele>4169.7</ele>
    <time>2026-06-22T06:15:51Z</time>
   </trkpt>
   <trkpt lat="-3.0966030" lon="37.3348330">
    <ele>4169.7</ele>
    <time>2026-06-22T06:15:52Z</time>
   </trkpt>
   <trkpt lat="-3.0966020" lon="37.3348320">
    <ele>4169.7</ele>
    <time>2026-06-22T06:15:53Z</time>
   </trkpt>
   <trkpt lat="-3.0966020" lon="37.3348320">
    <ele>4169.7</ele>
    <time>2026-06-22T06:15:54Z</time>
   </trkpt>
   <trkpt lat="-3.0966020" lon="37.3348320">
    <ele>4169.7</ele>
    <time>2026-06-22T06:15:55Z</time>
   </trkpt>
   <trkpt lat="-3.0966010" lon="37.3348320">
    <ele>4169.7</ele>
    <time>2026-06-22T06:15:56Z</time>
   </trkpt>
   <trkpt lat="-3.0966010" lon="37.3348330">
    <ele>4169.8</ele>
    <time>2026-06-22T06:15:57Z</time>
   </trkpt>
   <trkpt lat="-3.0966010" lon="37.3348330">
    <ele>4169.8</ele>
    <time>2026-06-22T06:15:58Z</time>
   </trkpt>
   <trkpt lat="-3.0966030" lon="37.3348360">
    <ele>4169.8</ele>
    <time>2026-06-22T06:15:59Z</time>
   </trkpt>
   <trkpt lat="-3.0966030" lon="37.3348360">
    <ele>4169.8</ele>
    <time>2026-06-22T06:16:00Z</time>
   </trkpt>
   <trkpt lat="-3.0966020" lon="37.3348360">
    <ele>4169.8</ele>
    <time>2026-06-22T06:16:01Z</time>
   </trkpt>
   <trkpt lat="-3.0966020" lon="37.3348360">
    <ele>4169.8</ele>
    <time>2026-06-22T06:16:02Z</time>
   </trkpt>
   <trkpt lat="-3.0966020" lon="37.3348360">
    <ele>4169.8</ele>
    <time>2026-06-22T06:16:03Z</time>
   </trkpt>
   <trkpt lat="-3.0966020" lon="37.3348350">
    <ele>4169.8</ele>
    <time>2026-06-22T06:16:04Z</time>
   </trkpt>
   <trkpt lat="-3.0966020" lon="37.3348360">
    <ele>4169.8</ele>
    <time>2026-06-22T06:16:05Z</time>
   </trkpt>
   <trkpt lat="-3.0966020" lon="37.3348350">
    <ele>4169.8</ele>
    <time>2026-06-22T06:16:06Z</time>
   </trkpt>
   <trkpt lat="-3.0966040" lon="37.3348370">
    <ele>4169.9</ele>
    <time>2026-06-22T06:16:07Z</time>
   </trkpt>
   <trkpt lat="-3.0966030" lon="37.3348370">
    <ele>4169.9</ele>
    <time>2026-06-22T06:16:08Z</time>
   </trkpt>
   <trkpt lat="-3.0966040" lon="37.3348380">
    <ele>4169.9</ele>
    <time>2026-06-22T06:16:09Z</time>
   </trkpt>
   <trkpt lat="-3.0966040" lon="37.3348380">
    <ele>4169.9</ele>
    <time>2026-06-22T06:16:10Z</time>
   </trkpt>
   <trkpt lat="-3.0966040" lon="37.3348380">
    <ele>4169.9</ele>
    <time>2026-06-22T06:16:11Z</time>
   </trkpt>
   <trkpt lat="-3.0966040" lon="37.3348380">
    <ele>4169.9</ele>
    <time>2026-06-22T06:16:12Z</time>
   </trkpt>
   <trkpt lat="-3.0966040" lon="37.3348380">
    <ele>4169.9</ele>
    <time>2026-06-22T06:16:13Z</time>
   </trkpt>
   <trkpt lat="-3.0966040" lon="37.3348380">
    <ele>4169.9</ele>
    <time>2026-06-22T06:16:14Z</time>
   </trkpt>
   <trkpt lat="-3.0966050" lon="37.3348390">
    <ele>4169.9</ele>
    <time>2026-06-22T06:16:15Z</time>
   </trkpt>
   <trkpt lat="-3.0966050" lon="37.3348390">
    <ele>4169.9</ele>
    <time>2026-06-22T06:16:16Z</time>
   </trkpt>
   <trkpt lat="-3.0966050" lon="37.3348390">
    <ele>4169.9</ele>
    <time>2026-06-22T06:16:17Z</time>
   </trkpt>
   <trkpt lat="-3.0966060" lon="37.3348390">
    <ele>4169.9</ele>
    <time>2026-06-22T06:16:18Z</time>
   </trkpt>
   <trkpt lat="-3.0966060" lon="37.3348410">
    <ele>4170.0</ele>
    <time>2026-06-22T06:16:19Z</time>
   </trkpt>
   <trkpt lat="-3.0966070" lon="37.3348400">
    <ele>4170.0</ele>
    <time>2026-06-22T06:16:20Z</time>
   </trkpt>
   <trkpt lat="-3.0966070" lon="37.3348400">
    <ele>4170.0</ele>
    <time>2026-06-22T06:16:21Z</time>
   </trkpt>
   <trkpt lat="-3.0966070" lon="37.3348400">
    <ele>4170.0</ele>
    <time>2026-06-22T06:16:22Z</time>
   </trkpt>
   <trkpt lat="-3.0966080" lon="37.3348410">
    <ele>4170.0</ele>
    <time>2026-06-22T06:16:23Z</time>
   </trkpt>
   <trkpt lat="-3.0966080" lon="37.3348400">
    <ele>4170.0</ele>
    <time>2026-06-22T06:16:24Z</time>
   </trkpt>
   <trkpt lat="-3.0966080" lon="37.3348400">
    <ele>4170.0</ele>
    <time>2026-06-22T06:16:25Z</time>
   </trkpt>
   <trkpt lat="-3.0966070" lon="37.3348410">
    <ele>4170.0</ele>
    <time>2026-06-22T06:16:26Z</time>
   </trkpt>
   <trkpt lat="-3.0966070" lon="37.3348410">
    <ele>4170.0</ele>
    <time>2026-06-22T06:16:27Z</time>
   </trkpt>
   <trkpt lat="-3.0966070" lon="37.3348410">
    <ele>4170.0</ele>
    <time>2026-06-22T06:16:28Z</time>
   </trkpt>
   <trkpt lat="-3.0966070" lon="37.3348410">
    <ele>4170.0</ele>
    <time>2026-06-22T06:16:29Z</time>
   </trkpt>
   <trkpt lat="-3.0966090" lon="37.3348400">
    <ele>4170.0</ele>
    <time>2026-06-22T06:16:30Z</time>
   </trkpt>
   <trkpt lat="-3.0966090" lon="37.3348410">
    <ele>4170.0</ele>
    <time>2026-06-22T06:16:31Z</time>
   </trkpt>
   <trkpt lat="-3.0966090" lon="37.3348400">
    <ele>4170.1</ele>
    <time>2026-06-22T06:16:32Z</time>
   </trkpt>
   <trkpt lat="-3.0966090" lon="37.3348410">
    <ele>4170.1</ele>
    <time>2026-06-22T06:16:33Z</time>
   </trkpt>
   <trkpt lat="-3.0966100" lon="37.3348420">
    <ele>4170.1</ele>
    <time>2026-06-22T06:16:34Z</time>
   </trkpt>
   <trkpt lat="-3.0966100" lon="37.3348430">
    <ele>4170.1</ele>
    <time>2026-06-22T06:16:35Z</time>
   </trkpt>
   <trkpt lat="-3.0966110" lon="37.3348430">
    <ele>4170.1</ele>
    <time>2026-06-22T06:16:36Z</time>
   </trkpt>
   <trkpt lat="-3.0966100" lon="37.3348430">
    <ele>4170.1</ele>
    <time>2026-06-22T06:16:37Z</time>
   </trkpt>
   <trkpt lat="-3.0966100" lon="37.3348440">
    <ele>4170.1</ele>
    <time>2026-06-22T06:16:38Z</time>
   </trkpt>
   <trkpt lat="-3.0966090" lon="37.3348480">
    <ele>4170.2</ele>
    <time>2026-06-22T06:16:39Z</time>
   </trkpt>
   <trkpt lat="-3.0966070" lon="37.3348490">
    <ele>4170.2</ele>
    <time>2026-06-22T06:16:40Z</time>
   </trkpt>
   <trkpt lat="-3.0966090" lon="37.3348490">
    <ele>4170.2</ele>
    <time>2026-06-22T06:16:41Z</time>
   </trkpt>
   <trkpt lat="-3.0966100" lon="37.3348460">
    <ele>4170.3</ele>
    <time>2026-06-22T06:16:42Z</time>
   </trkpt>
   <trkpt lat="-3.0966120" lon="37.3348450">
    <ele>4170.3</ele>
    <time>2026-06-22T06:16:43Z</time>
   </trkpt>
   <trkpt lat="-3.0966120" lon="37.3348430">
    <ele>4170.3</ele>
    <time>2026-06-22T06:16:44Z</time>
   </trkpt>
   <trkpt lat="-3.0966110" lon="37.3348430">
    <ele>4170.3</ele>
    <time>2026-06-22T06:16:45Z</time>
   </trkpt>
   <trkpt lat="-3.0966140" lon="37.3348460">
    <ele>4170.4</ele>
    <time>2026-06-22T06:16:46Z</time>
   </trkpt>
   <trkpt lat="-3.0966140" lon="37.3348470">
    <ele>4170.4</ele>
    <time>2026-06-22T06:16:47Z</time>
   </trkpt>
   <trkpt lat="-3.0966140" lon="37.3348470">
    <ele>4170.4</ele>
    <time>2026-06-22T06:16:48Z</time>
   </trkpt>
   <trkpt lat="-3.0966120" lon="37.3348470">
    <ele>4170.4</ele>
    <time>2026-06-22T06:16:49Z</time>
   </trkpt>
   <trkpt lat="-3.0966110" lon="37.3348490">
    <ele>4170.4</ele>
    <time>2026-06-22T06:16:50Z</time>
   </trkpt>
   <trkpt lat="-3.0966100" lon="37.3348470">
    <ele>4170.4</ele>
    <time>2026-06-22T06:16:51Z</time>
   </trkpt>
   <trkpt lat="-3.0966110" lon="37.3348460">
    <ele>4170.5</ele>
    <time>2026-06-22T06:16:52Z</time>
   </trkpt>
   <trkpt lat="-3.0966110" lon="37.3348460">
    <ele>4170.5</ele>
    <time>2026-06-22T06:16:53Z</time>
   </trkpt>
   <trkpt lat="-3.0966080" lon="37.3348440">
    <ele>4170.5</ele>
    <time>2026-06-22T06:16:54Z</time>
   </trkpt>
   <trkpt lat="-3.0966070" lon="37.3348430">
    <ele>4170.5</ele>
    <time>2026-06-22T06:16:55Z</time>
   </trkpt>
   <trkpt lat="-3.0966050" lon="37.3348420">
    <ele>4170.5</ele>
    <time>2026-06-22T06:16:56Z</time>
   </trkpt>
   <trkpt lat="-3.0966050" lon="37.3348420">
    <ele>4170.5</ele>
    <time>2026-06-22T06:16:57Z</time>
   </trkpt>
   <trkpt lat="-3.0966040" lon="37.3348410">
    <ele>4170.5</ele>
    <time>2026-06-22T06:16:58Z</time>
   </trkpt>
   <trkpt lat="-3.0966040" lon="37.3348410">
    <ele>4170.5</ele>
    <time>2026-06-22T06:16:59Z</time>
   </trkpt>
   <trkpt lat="-3.0966030" lon="37.3348420">
    <ele>4170.6</ele>
    <time>2026-06-22T06:17:00Z</time>
   </trkpt>
   <trkpt lat="-3.0966020" lon="37.3348420">
    <ele>4170.6</ele>
    <time>2026-06-22T06:17:01Z</time>
   </trkpt>
   <trkpt lat="-3.0966000" lon="37.3348410">
    <ele>4170.6</ele>
    <time>2026-06-22T06:17:02Z</time>
   </trkpt>
   <trkpt lat="-3.0966000" lon="37.3348400">
    <ele>4170.6</ele>
    <time>2026-06-22T06:17:03Z</time>
   </trkpt>
   <trkpt lat="-3.0966000" lon="37.3348400">
    <ele>4170.6</ele>
    <time>2026-06-22T06:17:04Z</time>
   </trkpt>
   <trkpt lat="-3.0966040" lon="37.3348410">
    <ele>4170.7</ele>
    <time>2026-06-22T06:17:05Z</time>
   </trkpt>
   <trkpt lat="-3.0966030" lon="37.3348400">
    <ele>4170.7</ele>
    <time>2026-06-22T06:17:06Z</time>
   </trkpt>
   <trkpt lat="-3.0965980" lon="37.3348400">
    <ele>4170.7</ele>
    <time>2026-06-22T06:17:07Z</time>
   </trkpt>
   <trkpt lat="-3.0965960" lon="37.3348390">
    <ele>4170.8</ele>
    <time>2026-06-22T06:17:08Z</time>
   </trkpt>
   <trkpt lat="-3.0965960" lon="37.3348400">
    <ele>4170.8</ele>
    <time>2026-06-22T06:17:09Z</time>
   </trkpt>
   <trkpt lat="-3.0965950" lon="37.3348400">
    <ele>4170.8</ele>
    <time>2026-06-22T06:17:10Z</time>
   </trkpt>
   <trkpt lat="-3.0965950" lon="37.3348410">
    <ele>4170.8</ele>
    <time>2026-06-22T06:17:11Z</time>
   </trkpt>
   <trkpt lat="-3.0965950" lon="37.3348410">
    <ele>4170.8</ele>
    <time>2026-06-22T06:17:12Z</time>
   </trkpt>
   <trkpt lat="-3.0965940" lon="37.3348410">
    <ele>4170.8</ele>
    <time>2026-06-22T06:17:13Z</time>
   </trkpt>
   <trkpt lat="-3.0965930" lon="37.3348400">
    <ele>4170.8</ele>
    <time>2026-06-22T06:17:14Z</time>
   </trkpt>
   <trkpt lat="-3.0965930" lon="37.3348410">
    <ele>4170.8</ele>
    <time>2026-06-22T06:17:15Z</time>
   </trkpt>
   <trkpt lat="-3.0965930" lon="37.3348410">
    <ele>4170.8</ele>
    <time>2026-06-22T06:17:16Z</time>
   </trkpt>
   <trkpt lat="-3.0965930" lon="37.3348410">
    <ele>4170.8</ele>
    <time>2026-06-22T06:17:17Z</time>
   </trkpt>
   <trkpt lat="-3.0965930" lon="37.3348410">
    <ele>4170.8</ele>
    <time>2026-06-22T06:17:18Z</time>
   </trkpt>
   <trkpt lat="-3.0965930" lon="37.3348410">
    <ele>4170.8</ele>
    <time>2026-06-22T06:17:19Z</time>
   </trkpt>
   <trkpt lat="-3.0965920" lon="37.3348400">
    <ele>4170.8</ele>
    <time>2026-06-22T06:17:20Z</time>
   </trkpt>
   <trkpt lat="-3.0965910" lon="37.3348400">
    <ele>4170.8</ele>
    <time>2026-06-22T06:17:21Z</time>
   </trkpt>
   <trkpt lat="-3.0965910" lon="37.3348390">
    <ele>4170.9</ele>
    <time>2026-06-22T06:17:22Z</time>
   </trkpt>
   <trkpt lat="-3.0965910" lon="37.3348390">
    <ele>4170.9</ele>
    <time>2026-06-22T06:17:23Z</time>
   </trkpt>
   <trkpt lat="-3.0965910" lon="37.3348390">
    <ele>4170.9</ele>
    <time>2026-06-22T06:17:24Z</time>
   </trkpt>
   <trkpt lat="-3.0965900" lon="37.3348380">
    <ele>4170.9</ele>
    <time>2026-06-22T06:17:25Z</time>
   </trkpt>
   <trkpt lat="-3.0965900" lon="37.3348380">
    <ele>4170.9</ele>
    <time>2026-06-22T06:17:26Z</time>
   </trkpt>
   <trkpt lat="-3.0965910" lon="37.3348390">
    <ele>4170.9</ele>
    <time>2026-06-22T06:17:27Z</time>
   </trkpt>
   <trkpt lat="-3.0965900" lon="37.3348380">
    <ele>4170.9</ele>
    <time>2026-06-22T06:17:28Z</time>
   </trkpt>
   <trkpt lat="-3.0965900" lon="37.3348380">
    <ele>4170.9</ele>
    <time>2026-06-22T06:17:29Z</time>
   </trkpt>
   <trkpt lat="-3.0965900" lon="37.3348380">
    <ele>4170.9</ele>
    <time>2026-06-22T06:17:30Z</time>
   </trkpt>
   <trkpt lat="-3.0965890" lon="37.3348380">
    <ele>4170.9</ele>
    <time>2026-06-22T06:17:31Z</time>
   </trkpt>
   <trkpt lat="-3.0965890" lon="37.3348370">
    <ele>4170.9</ele>
    <time>2026-06-22T06:17:32Z</time>
   </trkpt>
   <trkpt lat="-3.0965880" lon="37.3348380">
    <ele>4170.9</ele>
    <time>2026-06-22T06:17:33Z</time>
   </trkpt>
   <trkpt lat="-3.0965880" lon="37.3348370">
    <ele>4171.0</ele>
    <time>2026-06-22T06:17:34Z</time>
   </trkpt>
   <trkpt lat="-3.0965880" lon="37.3348370">
    <ele>4171.0</ele>
    <time>2026-06-22T06:17:35Z</time>
   </trkpt>
   <trkpt lat="-3.0965880" lon="37.3348370">
    <ele>4171.0</ele>
    <time>2026-06-22T06:17:36Z</time>
   </trkpt>
   <trkpt lat="-3.0965870" lon="37.3348370">
    <ele>4171.0</ele>
    <time>2026-06-22T06:17:37Z</time>
   </trkpt>
   <trkpt lat="-3.0965870" lon="37.3348370">
    <ele>4171.0</ele>
    <time>2026-06-22T06:17:38Z</time>
   </trkpt>
   <trkpt lat="-3.0965870" lon="37.3348370">
    <ele>4171.0</ele>
    <time>2026-06-22T06:17:39Z</time>
   </trkpt>
   <trkpt lat="-3.0965870" lon="37.3348370">
    <ele>4171.0</ele>
    <time>2026-06-22T06:17:40Z</time>
   </trkpt>
   <trkpt lat="-3.0965850" lon="37.3348370">
    <ele>4171.0</ele>
    <time>2026-06-22T06:17:41Z</time>
   </trkpt>
   <trkpt lat="-3.0965850" lon="37.3348370">
    <ele>4171.0</ele>
    <time>2026-06-22T06:17:42Z</time>
   </trkpt>
   <trkpt lat="-3.0965850" lon="37.3348370">
    <ele>4171.0</ele>
    <time>2026-06-22T06:17:43Z</time>
   </trkpt>
   <trkpt lat="-3.0965850" lon="37.3348370">
    <ele>4171.0</ele>
    <time>2026-06-22T06:17:44Z</time>
   </trkpt>
   <trkpt lat="-3.0965850" lon="37.3348370">
    <ele>4171.0</ele>
    <time>2026-06-22T06:17:45Z</time>
   </trkpt>
   <trkpt lat="-3.0965840" lon="37.3348350">
    <ele>4171.0</ele>
    <time>2026-06-22T06:17:46Z</time>
   </trkpt>
   <trkpt lat="-3.0965850" lon="37.3348350">
    <ele>4171.0</ele>
    <time>2026-06-22T06:17:47Z</time>
   </trkpt>
   <trkpt lat="-3.0965840" lon="37.3348350">
    <ele>4171.0</ele>
    <time>2026-06-22T06:17:48Z</time>
   </trkpt>
   <trkpt lat="-3.0965850" lon="37.3348350">
    <ele>4171.0</ele>
    <time>2026-06-22T06:17:49Z</time>
   </trkpt>
   <trkpt lat="-3.0965850" lon="37.3348350">
    <ele>4171.0</ele>
    <time>2026-06-22T06:17:50Z</time>
   </trkpt>
   <trkpt lat="-3.0965850" lon="37.3348340">
    <ele>4171.1</ele>
    <time>2026-06-22T06:17:51Z</time>
   </trkpt>
   <trkpt lat="-3.0965850" lon="37.3348340">
    <ele>4171.1</ele>
    <time>2026-06-22T06:17:52Z</time>
   </trkpt>
   <trkpt lat="-3.0965850" lon="37.3348340">
    <ele>4171.1</ele>
    <time>2026-06-22T06:17:53Z</time>
   </trkpt>
   <trkpt lat="-3.0965860" lon="37.3348350">
    <ele>4171.1</ele>
    <time>2026-06-22T06:17:54Z</time>
   </trkpt>
   <trkpt lat="-3.0965860" lon="37.3348340">
    <ele>4171.1</ele>
    <time>2026-06-22T06:17:55Z</time>
   </trkpt>
   <trkpt lat="-3.0965860" lon="37.3348330">
    <ele>4171.1</ele>
    <time>2026-06-22T06:17:56Z</time>
   </trkpt>
   <trkpt lat="-3.0965870" lon="37.3348340">
    <ele>4171.1</ele>
    <time>2026-06-22T06:17:57Z</time>
   </trkpt>
   <trkpt lat="-3.0965870" lon="37.3348340">
    <ele>4171.1</ele>
    <time>2026-06-22T06:17:58Z</time>
   </trkpt>
   <trkpt lat="-3.0965870" lon="37.3348340">
    <ele>4171.1</ele>
    <time>2026-06-22T06:17:59Z</time>
   </trkpt>
   <trkpt lat="-3.0965870" lon="37.3348340">
    <ele>4171.1</ele>
    <time>2026-06-22T06:18:00Z</time>
   </trkpt>
   <trkpt lat="-3.0965870" lon="37.3348330">
    <ele>4171.1</ele>
    <time>2026-06-22T06:18:01Z</time>
   </trkpt>
   <trkpt lat="-3.0965870" lon="37.3348330">
    <ele>4171.1</ele>
    <time>2026-06-22T06:18:02Z</time>
   </trkpt>
   <trkpt lat="-3.0965880" lon="37.3348340">
    <ele>4171.1</ele>
    <time>2026-06-22T06:18:03Z</time>
   </trkpt>
   <trkpt lat="-3.0965890" lon="37.3348340">
    <ele>4171.1</ele>
    <time>2026-06-22T06:18:04Z</time>
   </trkpt>
   <trkpt lat="-3.0965880" lon="37.3348340">
    <ele>4171.2</ele>
    <time>2026-06-22T06:18:05Z</time>
   </trkpt>
   <trkpt lat="-3.0965880" lon="37.3348390">
    <ele>4171.2</ele>
    <time>2026-06-22T06:18:06Z</time>
   </trkpt>
   <trkpt lat="-3.0965910" lon="37.3348440">
    <ele>4171.3</ele>
    <time>2026-06-22T06:18:07Z</time>
   </trkpt>
   <trkpt lat="-3.0965890" lon="37.3348430">
    <ele>4171.3</ele>
    <time>2026-06-22T06:18:08Z</time>
   </trkpt>
   <trkpt lat="-3.0965900" lon="37.3348430">
    <ele>4171.3</ele>
    <time>2026-06-22T06:18:09Z</time>
   </trkpt>
   <trkpt lat="-3.0965920" lon="37.3348440">
    <ele>4171.3</ele>
    <time>2026-06-22T06:18:10Z</time>
   </trkpt>
   <trkpt lat="-3.0965940" lon="37.3348450">
    <ele>4171.4</ele>
    <time>2026-06-22T06:18:11Z</time>
   </trkpt>
   <trkpt lat="-3.0965940" lon="37.3348450">
    <ele>4171.4</ele>
    <time>2026-06-22T06:18:12Z</time>
   </trkpt>
   <trkpt lat="-3.0965940" lon="37.3348450">
    <ele>4171.4</ele>
    <time>2026-06-22T06:18:13Z</time>
   </trkpt>
   <trkpt lat="-3.0965940" lon="37.3348450">
    <ele>4171.4</ele>
    <time>2026-06-22T06:18:14Z</time>
   </trkpt>
   <trkpt lat="-3.0965940" lon="37.3348450">
    <ele>4171.4</ele>
    <time>2026-06-22T06:18:15Z</time>
   </trkpt>
   <trkpt lat="-3.0965990" lon="37.3348460">
    <ele>4171.4</ele>
    <time>2026-06-22T06:18:16Z</time>
   </trkpt>
   <trkpt lat="-3.0965990" lon="37.3348460">
    <ele>4171.4</ele>
    <time>2026-06-22T06:18:17Z</time>
   </trkpt>
   <trkpt lat="-3.0966010" lon="37.3348470">
    <ele>4171.4</ele>
    <time>2026-06-22T06:18:18Z</time>
   </trkpt>
   <trkpt lat="-3.0966010" lon="37.3348470">
    <ele>4171.4</ele>
    <time>2026-06-22T06:18:19Z</time>
   </trkpt>
   <trkpt lat="-3.0966020" lon="37.3348480">
    <ele>4171.5</ele>
    <time>2026-06-22T06:18:20Z</time>
   </trkpt>
   <trkpt lat="-3.0966020" lon="37.3348480">
    <ele>4171.5</ele>
    <time>2026-06-22T06:18:21Z</time>
   </trkpt>
   <trkpt lat="-3.0966020" lon="37.3348480">
    <ele>4171.5</ele>
    <time>2026-06-22T06:18:22Z</time>
   </trkpt>
   <trkpt lat="-3.0966040" lon="37.3348490">
    <ele>4171.5</ele>
    <time>2026-06-22T06:18:23Z</time>
   </trkpt>
   <trkpt lat="-3.0966030" lon="37.3348480">
    <ele>4171.5</ele>
    <time>2026-06-22T06:18:24Z</time>
   </trkpt>
   <trkpt lat="-3.0966050" lon="37.3348490">
    <ele>4171.5</ele>
    <time>2026-06-22T06:18:25Z</time>
   </trkpt>
   <trkpt lat="-3.0966060" lon="37.3348490">
    <ele>4171.5</ele>
    <time>2026-06-22T06:18:26Z</time>
   </trkpt>
   <trkpt lat="-3.0966060" lon="37.3348500">
    <ele>4171.5</ele>
    <time>2026-06-22T06:18:27Z</time>
   </trkpt>
   <trkpt lat="-3.0966050" lon="37.3348480">
    <ele>4171.6</ele>
    <time>2026-06-22T06:18:28Z</time>
   </trkpt>
   <trkpt lat="-3.0966060" lon="37.3348480">
    <ele>4171.6</ele>
    <time>2026-06-22T06:18:29Z</time>
   </trkpt>
   <trkpt lat="-3.0966060" lon="37.3348480">
    <ele>4171.6</ele>
    <time>2026-06-22T06:18:30Z</time>
   </trkpt>
   <trkpt lat="-3.0966060" lon="37.3348480">
    <ele>4171.6</ele>
    <time>2026-06-22T06:18:31Z</time>
   </trkpt>
   <trkpt lat="-3.0966060" lon="37.3348480">
    <ele>4171.6</ele>
    <time>2026-06-22T06:18:32Z</time>
   </trkpt>
   <trkpt lat="-3.0966060" lon="37.3348490">
    <ele>4171.6</ele>
    <time>2026-06-22T06:18:33Z</time>
   </trkpt>
   <trkpt lat="-3.0966060" lon="37.3348490">
    <ele>4171.6</ele>
    <time>2026-06-22T06:18:34Z</time>
   </trkpt>
   <trkpt lat="-3.0966060" lon="37.3348490">
    <ele>4171.6</ele>
    <time>2026-06-22T06:18:35Z</time>
   </trkpt>
   <trkpt lat="-3.0966070" lon="37.3348490">
    <ele>4171.6</ele>
    <time>2026-06-22T06:18:36Z</time>
   </trkpt>
   <trkpt lat="-3.0966060" lon="37.3348490">
    <ele>4171.6</ele>
    <time>2026-06-22T06:18:37Z</time>
   </trkpt>
   <trkpt lat="-3.0966060" lon="37.3348510">
    <ele>4171.6</ele>
    <time>2026-06-22T06:18:38Z</time>
   </trkpt>
   <trkpt lat="-3.0966060" lon="37.3348500">
    <ele>4171.6</ele>
    <time>2026-06-22T06:18:39Z</time>
   </trkpt>
   <trkpt lat="-3.0966070" lon="37.3348500">
    <ele>4171.7</ele>
    <time>2026-06-22T06:18:40Z</time>
   </trkpt>
   <trkpt lat="-3.0966070" lon="37.3348500">
    <ele>4171.7</ele>
    <time>2026-06-22T06:18:41Z</time>
   </trkpt>
   <trkpt lat="-3.0966080" lon="37.3348500">
    <ele>4171.7</ele>
    <time>2026-06-22T06:18:42Z</time>
   </trkpt>
   <trkpt lat="-3.0966080" lon="37.3348520">
    <ele>4171.7</ele>
    <time>2026-06-22T06:18:43Z</time>
   </trkpt>
   <trkpt lat="-3.0966090" lon="37.3348510">
    <ele>4171.7</ele>
    <time>2026-06-22T06:18:44Z</time>
   </trkpt>
   <trkpt lat="-3.0966090" lon="37.3348530">
    <ele>4171.7</ele>
    <time>2026-06-22T06:18:45Z</time>
   </trkpt>
   <trkpt lat="-3.0966100" lon="37.3348520">
    <ele>4171.7</ele>
    <time>2026-06-22T06:18:46Z</time>
   </trkpt>
   <trkpt lat="-3.0966110" lon="37.3348540">
    <ele>4171.8</ele>
    <time>2026-06-22T06:18:47Z</time>
   </trkpt>
   <trkpt lat="-3.0966120" lon="37.3348540">
    <ele>4171.8</ele>
    <time>2026-06-22T06:18:48Z</time>
   </trkpt>
   <trkpt lat="-3.0966150" lon="37.3348560">
    <ele>4171.8</ele>
    <time>2026-06-22T06:18:49Z</time>
   </trkpt>
   <trkpt lat="-3.0966140" lon="37.3348550">
    <ele>4171.8</ele>
    <time>2026-06-22T06:18:50Z</time>
   </trkpt>
   <trkpt lat="-3.0966160" lon="37.3348570">
    <ele>4171.9</ele>
    <time>2026-06-22T06:18:51Z</time>
   </trkpt>
   <trkpt lat="-3.0966150" lon="37.3348560">
    <ele>4171.9</ele>
    <time>2026-06-22T06:18:52Z</time>
   </trkpt>
   <trkpt lat="-3.0966160" lon="37.3348570">
    <ele>4171.9</ele>
    <time>2026-06-22T06:18:53Z</time>
   </trkpt>
   <trkpt lat="-3.0966160" lon="37.3348570">
    <ele>4171.9</ele>
    <time>2026-06-22T06:18:54Z</time>
   </trkpt>
   <trkpt lat="-3.0966160" lon="37.3348570">
    <ele>4171.9</ele>
    <time>2026-06-22T06:18:55Z</time>
   </trkpt>
   <trkpt lat="-3.0966190" lon="37.3348580">
    <ele>4171.9</ele>
    <time>2026-06-22T06:18:56Z</time>
   </trkpt>
   <trkpt lat="-3.0966190" lon="37.3348580">
    <ele>4171.9</ele>
    <time>2026-06-22T06:18:57Z</time>
   </trkpt>
   <trkpt lat="-3.0966190" lon="37.3348580">
    <ele>4171.9</ele>
    <time>2026-06-22T06:18:58Z</time>
   </trkpt>
   <trkpt lat="-3.0966190" lon="37.3348580">
    <ele>4171.9</ele>
    <time>2026-06-22T06:18:59Z</time>
   </trkpt>
   <trkpt lat="-3.0966190" lon="37.3348580">
    <ele>4171.9</ele>
    <time>2026-06-22T06:19:00Z</time>
   </trkpt>
   <trkpt lat="-3.0966210" lon="37.3348580">
    <ele>4172.0</ele>
    <time>2026-06-22T06:19:01Z</time>
   </trkpt>
   <trkpt lat="-3.0966260" lon="37.3348580">
    <ele>4172.0</ele>
    <time>2026-06-22T06:19:02Z</time>
   </trkpt>
   <trkpt lat="-3.0966330" lon="37.3348580">
    <ele>4172.1</ele>
    <time>2026-06-22T06:19:03Z</time>
   </trkpt>
   <trkpt lat="-3.0966380" lon="37.3348580">
    <ele>4172.1</ele>
    <time>2026-06-22T06:19:04Z</time>
   </trkpt>
   <trkpt lat="-3.0966410" lon="37.3348580">
    <ele>4172.2</ele>
    <time>2026-06-22T06:19:05Z</time>
   </trkpt>
   <trkpt lat="-3.0966420" lon="37.3348610">
    <ele>4172.2</ele>
    <time>2026-06-22T06:19:06Z</time>
   </trkpt>
   <trkpt lat="-3.0966420" lon="37.3348640">
    <ele>4172.2</ele>
    <time>2026-06-22T06:19:07Z</time>
   </trkpt>
   <trkpt lat="-3.0966400" lon="37.3348650">
    <ele>4172.3</ele>
    <time>2026-06-22T06:19:08Z</time>
   </trkpt>
   <trkpt lat="-3.0966390" lon="37.3348660">
    <ele>4172.3</ele>
    <time>2026-06-22T06:19:09Z</time>
   </trkpt>
   <trkpt lat="-3.0966390" lon="37.3348650">
    <ele>4172.3</ele>
    <time>2026-06-22T06:19:10Z</time>
   </trkpt>
   <trkpt lat="-3.0966380" lon="37.3348650">
    <ele>4172.3</ele>
    <time>2026-06-22T06:19:11Z</time>
   </trkpt>
   <trkpt lat="-3.0966380" lon="37.3348660">
    <ele>4172.3</ele>
    <time>2026-06-22T06:19:12Z</time>
   </trkpt>
   <trkpt lat="-3.0966380" lon="37.3348660">
    <ele>4172.3</ele>
    <time>2026-06-22T06:19:13Z</time>
   </trkpt>
   <trkpt lat="-3.0966420" lon="37.3348690">
    <ele>4172.4</ele>
    <time>2026-06-22T06:19:14Z</time>
   </trkpt>
   <trkpt lat="-3.0966440" lon="37.3348720">
    <ele>4172.4</ele>
    <time>2026-06-22T06:19:15Z</time>
   </trkpt>
   <trkpt lat="-3.0966510" lon="37.3348740">
    <ele>4172.5</ele>
    <time>2026-06-22T06:19:16Z</time>
   </trkpt>
   <trkpt lat="-3.0966580" lon="37.3348750">
    <ele>4172.6</ele>
    <time>2026-06-22T06:19:17Z</time>
   </trkpt>
   <trkpt lat="-3.0966640" lon="37.3348730">
    <ele>4172.6</ele>
    <time>2026-06-22T06:19:18Z</time>
   </trkpt>
   <trkpt lat="-3.0966670" lon="37.3348740">
    <ele>4172.7</ele>
    <time>2026-06-22T06:19:19Z</time>
   </trkpt>
   <trkpt lat="-3.0966670" lon="37.3348750">
    <ele>4172.7</ele>
    <time>2026-06-22T06:19:20Z</time>
   </trkpt>
   <trkpt lat="-3.0966740" lon="37.3348770">
    <ele>4172.8</ele>
    <time>2026-06-22T06:19:21Z</time>
   </trkpt>
   <trkpt lat="-3.0966770" lon="37.3348790">
    <ele>4172.8</ele>
    <time>2026-06-22T06:19:22Z</time>
   </trkpt>
   <trkpt lat="-3.0966830" lon="37.3348810">
    <ele>4172.9</ele>
    <time>2026-06-22T06:19:23Z</time>
   </trkpt>
   <trkpt lat="-3.0966860" lon="37.3348800">
    <ele>4172.9</ele>
    <time>2026-06-22T06:19:24Z</time>
   </trkpt>
   <trkpt lat="-3.0966900" lon="37.3348790">
    <ele>4173.0</ele>
    <time>2026-06-22T06:19:25Z</time>
   </trkpt>
   <trkpt lat="-3.0966940" lon="37.3348790">
    <ele>4173.0</ele>
    <time>2026-06-22T06:19:26Z</time>
   </trkpt>
   <trkpt lat="-3.0966990" lon="37.3348770">
    <ele>4173.1</ele>
    <time>2026-06-22T06:19:27Z</time>
   </trkpt>
   <trkpt lat="-3.0967000" lon="37.3348760">
    <ele>4173.1</ele>
    <time>2026-06-22T06:19:28Z</time>
   </trkpt>
   <trkpt lat="-3.0967000" lon="37.3348760">
    <ele>4173.1</ele>
    <time>2026-06-22T06:19:29Z</time>
   </trkpt>
   <trkpt lat="-3.0967040" lon="37.3348760">
    <ele>4173.1</ele>
    <time>2026-06-22T06:19:30Z</time>
   </trkpt>
   <trkpt lat="-3.0967090" lon="37.3348760">
    <ele>4173.2</ele>
    <time>2026-06-22T06:19:31Z</time>
   </trkpt>
   <trkpt lat="-3.0967170" lon="37.3348770">
    <ele>4173.3</ele>
    <time>2026-06-22T06:19:32Z</time>
   </trkpt>
   <trkpt lat="-3.0967190" lon="37.3348780">
    <ele>4173.3</ele>
    <time>2026-06-22T06:19:33Z</time>
   </trkpt>
   <trkpt lat="-3.0967240" lon="37.3348770">
    <ele>4173.3</ele>
    <time>2026-06-22T06:19:34Z</time>
   </trkpt>
   <trkpt lat="-3.0967250" lon="37.3348750">
    <ele>4173.4</ele>
    <time>2026-06-22T06:19:35Z</time>
   </trkpt>
   <trkpt lat="-3.0967310" lon="37.3348760">
    <ele>4173.4</ele>
    <time>2026-06-22T06:19:36Z</time>
   </trkpt>
   <trkpt lat="-3.0967330" lon="37.3348730">
    <ele>4173.5</ele>
    <time>2026-06-22T06:19:37Z</time>
   </trkpt>
   <trkpt lat="-3.0967340" lon="37.3348760">
    <ele>4173.5</ele>
    <time>2026-06-22T06:19:38Z</time>
   </trkpt>
   <trkpt lat="-3.0967350" lon="37.3348770">
    <ele>4173.5</ele>
    <time>2026-06-22T06:19:39Z</time>
   </trkpt>
   <trkpt lat="-3.0967340" lon="37.3348770">
    <ele>4173.5</ele>
    <time>2026-06-22T06:19:40Z</time>
   </trkpt>
   <trkpt lat="-3.0967390" lon="37.3348800">
    <ele>4173.6</ele>
    <time>2026-06-22T06:19:41Z</time>
   </trkpt>
   <trkpt lat="-3.0967410" lon="37.3348800">
    <ele>4173.6</ele>
    <time>2026-06-22T06:19:42Z</time>
   </trkpt>
   <trkpt lat="-3.0967460" lon="37.3348820">
    <ele>4173.7</ele>
    <time>2026-06-22T06:19:43Z</time>
   </trkpt>
   <trkpt lat="-3.0967480" lon="37.3348820">
    <ele>4173.7</ele>
    <time>2026-06-22T06:19:44Z</time>
   </trkpt>
   <trkpt lat="-3.0967540" lon="37.3348820">
    <ele>4173.8</ele>
    <time>2026-06-22T06:19:45Z</time>
   </trkpt>
   <trkpt lat="-3.0967590" lon="37.3348820">
    <ele>4173.8</ele>
    <time>2026-06-22T06:19:46Z</time>
   </trkpt>
   <trkpt lat="-3.0967630" lon="37.3348820">
    <ele>4173.9</ele>
    <time>2026-06-22T06:19:47Z</time>
   </trkpt>
   <trkpt lat="-3.0967660" lon="37.3348820">
    <ele>4173.9</ele>
    <time>2026-06-22T06:19:48Z</time>
   </trkpt>
   <trkpt lat="-3.0967710" lon="37.3348820">
    <ele>4174.0</ele>
    <time>2026-06-22T06:19:49Z</time>
   </trkpt>
   <trkpt lat="-3.0967760" lon="37.3348830">
    <ele>4174.0</ele>
    <time>2026-06-22T06:19:50Z</time>
   </trkpt>
   <trkpt lat="-3.0967810" lon="37.3348810">
    <ele>4174.1</ele>
    <time>2026-06-22T06:19:51Z</time>
   </trkpt>
   <trkpt lat="-3.0967880" lon="37.3348790">
    <ele>4174.1</ele>
    <time>2026-06-22T06:19:52Z</time>
   </trkpt>
   <trkpt lat="-3.0967890" lon="37.3348800">
    <ele>4174.2</ele>
    <time>2026-06-22T06:19:53Z</time>
   </trkpt>
   <trkpt lat="-3.0967880" lon="37.3348840">
    <ele>4174.2</ele>
    <time>2026-06-22T06:19:54Z</time>
   </trkpt>
   <trkpt lat="-3.0967950" lon="37.3348840">
    <ele>4174.3</ele>
    <time>2026-06-22T06:19:55Z</time>
   </trkpt>
   <trkpt lat="-3.0967990" lon="37.3348860">
    <ele>4174.3</ele>
    <time>2026-06-22T06:19:56Z</time>
   </trkpt>
   <trkpt lat="-3.0968060" lon="37.3348900">
    <ele>4174.4</ele>
    <time>2026-06-22T06:19:57Z</time>
   </trkpt>
   <trkpt lat="-3.0968070" lon="37.3348960">
    <ele>4174.5</ele>
    <time>2026-06-22T06:19:58Z</time>
   </trkpt>
   <trkpt lat="-3.0968120" lon="37.3349000">
    <ele>4174.6</ele>
    <time>2026-06-22T06:19:59Z</time>
   </trkpt>
   <trkpt lat="-3.0968120" lon="37.3349010">
    <ele>4174.6</ele>
    <time>2026-06-22T06:20:00Z</time>
   </trkpt>
   <trkpt lat="-3.0968180" lon="37.3349010">
    <ele>4174.6</ele>
    <time>2026-06-22T06:20:01Z</time>
   </trkpt>
   <trkpt lat="-3.0968230" lon="37.3349030">
    <ele>4174.7</ele>
    <time>2026-06-22T06:20:02Z</time>
   </trkpt>
   <trkpt lat="-3.0968240" lon="37.3349050">
    <ele>4174.7</ele>
    <time>2026-06-22T06:20:03Z</time>
   </trkpt>
   <trkpt lat="-3.0968230" lon="37.3349050">
    <ele>4174.7</ele>
    <time>2026-06-22T06:20:04Z</time>
   </trkpt>
   <trkpt lat="-3.0968290" lon="37.3349040">
    <ele>4174.8</ele>
    <time>2026-06-22T06:20:05Z</time>
   </trkpt>
   <trkpt lat="-3.0968360" lon="37.3349050">
    <ele>4174.9</ele>
    <time>2026-06-22T06:20:06Z</time>
   </trkpt>
   <trkpt lat="-3.0968410" lon="37.3349080">
    <ele>4174.9</ele>
    <time>2026-06-22T06:20:07Z</time>
   </trkpt>
   <trkpt lat="-3.0968440" lon="37.3349080">
    <ele>4175.0</ele>
    <time>2026-06-22T06:20:08Z</time>
   </trkpt>
   <trkpt lat="-3.0968420" lon="37.3349040">
    <ele>4175.0</ele>
    <time>2026-06-22T06:20:09Z</time>
   </trkpt>
   <trkpt lat="-3.0968460" lon="37.3349060">
    <ele>4175.0</ele>
    <time>2026-06-22T06:20:10Z</time>
   </trkpt>
   <trkpt lat="-3.0968520" lon="37.3349070">
    <ele>4175.1</ele>
    <time>2026-06-22T06:20:11Z</time>
   </trkpt>
   <trkpt lat="-3.0968520" lon="37.3349100">
    <ele>4175.1</ele>
    <time>2026-06-22T06:20:12Z</time>
   </trkpt>
   <trkpt lat="-3.0968560" lon="37.3349100">
    <ele>4175.2</ele>
    <time>2026-06-22T06:20:13Z</time>
   </trkpt>
   <trkpt lat="-3.0968580" lon="37.3349100">
    <ele>4175.2</ele>
    <time>2026-06-22T06:20:14Z</time>
   </trkpt>
   <trkpt lat="-3.0968600" lon="37.3349130">
    <ele>4175.2</ele>
    <time>2026-06-22T06:20:15Z</time>
   </trkpt>
   <trkpt lat="-3.0968630" lon="37.3349190">
    <ele>4175.3</ele>
    <time>2026-06-22T06:20:16Z</time>
   </trkpt>
   <trkpt lat="-3.0968710" lon="37.3349210">
    <ele>4175.4</ele>
    <time>2026-06-22T06:20:17Z</time>
   </trkpt>
   <trkpt lat="-3.0968680" lon="37.3349240">
    <ele>4175.4</ele>
    <time>2026-06-22T06:20:18Z</time>
   </trkpt>
   <trkpt lat="-3.0968770" lon="37.3349300">
    <ele>4175.5</ele>
    <time>2026-06-22T06:20:19Z</time>
   </trkpt>
   <trkpt lat="-3.0968830" lon="37.3349290">
    <ele>4175.6</ele>
    <time>2026-06-22T06:20:20Z</time>
   </trkpt>
   <trkpt lat="-3.0968840" lon="37.3349310">
    <ele>4175.6</ele>
    <time>2026-06-22T06:20:21Z</time>
   </trkpt>
   <trkpt lat="-3.0968850" lon="37.3349350">
    <ele>4175.7</ele>
    <time>2026-06-22T06:20:22Z</time>
   </trkpt>
   <trkpt lat="-3.0968870" lon="37.3349380">
    <ele>4175.7</ele>
    <time>2026-06-22T06:20:23Z</time>
   </trkpt>
   <trkpt lat="-3.0968900" lon="37.3349400">
    <ele>4175.7</ele>
    <time>2026-06-22T06:20:24Z</time>
   </trkpt>
   <trkpt lat="-3.0968950" lon="37.3349410">
    <ele>4175.8</ele>
    <time>2026-06-22T06:20:25Z</time>
   </trkpt>
   <trkpt lat="-3.0968950" lon="37.3349400">
    <ele>4175.8</ele>
    <time>2026-06-22T06:20:26Z</time>
   </trkpt>
   <trkpt lat="-3.0968960" lon="37.3349370">
    <ele>4175.8</ele>
    <time>2026-06-22T06:20:27Z</time>
   </trkpt>
   <trkpt lat="-3.0968980" lon="37.3349340">
    <ele>4175.9</ele>
    <time>2026-06-22T06:20:28Z</time>
   </trkpt>
   <trkpt lat="-3.0969000" lon="37.3349290">
    <ele>4175.9</ele>
    <time>2026-06-22T06:20:29Z</time>
   </trkpt>
   <trkpt lat="-3.0969020" lon="37.3349260">
    <ele>4176.0</ele>
    <time>2026-06-22T06:20:30Z</time>
   </trkpt>
   <trkpt lat="-3.0969130" lon="37.3349130">
    <ele>4176.1</ele>
    <time>2026-06-22T06:20:31Z</time>
   </trkpt>
   <trkpt lat="-3.0969170" lon="37.3349030">
    <ele>4176.2</ele>
    <time>2026-06-22T06:20:32Z</time>
   </trkpt>
   <trkpt lat="-3.0969230" lon="37.3349010">
    <ele>4176.3</ele>
    <time>2026-06-22T06:20:33Z</time>
   </trkpt>
   <trkpt lat="-3.0969280" lon="37.3349000">
    <ele>4176.4</ele>
    <time>2026-06-22T06:20:34Z</time>
   </trkpt>
   <trkpt lat="-3.0969300" lon="37.3348990">
    <ele>4176.4</ele>
    <time>2026-06-22T06:20:35Z</time>
   </trkpt>
   <trkpt lat="-3.0969360" lon="37.3348950">
    <ele>4176.5</ele>
    <time>2026-06-22T06:20:36Z</time>
   </trkpt>
   <trkpt lat="-3.0969360" lon="37.3348910">
    <ele>4176.5</ele>
    <time>2026-06-22T06:20:37Z</time>
   </trkpt>
   <trkpt lat="-3.0969380" lon="37.3348890">
    <ele>4176.5</ele>
    <time>2026-06-22T06:20:38Z</time>
   </trkpt>
   <trkpt lat="-3.0969420" lon="37.3348870">
    <ele>4176.6</ele>
    <time>2026-06-22T06:20:39Z</time>
   </trkpt>
   <trkpt lat="-3.0969500" lon="37.3348890">
    <ele>4176.6</ele>
    <time>2026-06-22T06:20:40Z</time>
   </trkpt>
   <trkpt lat="-3.0969520" lon="37.3348870">
    <ele>4176.7</ele>
    <time>2026-06-22T06:20:41Z</time>
   </trkpt>
   <trkpt lat="-3.0969570" lon="37.3348870">
    <ele>4176.7</ele>
    <time>2026-06-22T06:20:42Z</time>
   </trkpt>
   <trkpt lat="-3.0969610" lon="37.3348840">
    <ele>4176.8</ele>
    <time>2026-06-22T06:20:43Z</time>
   </trkpt>
   <trkpt lat="-3.0969670" lon="37.3348810">
    <ele>4176.8</ele>
    <time>2026-06-22T06:20:44Z</time>
   </trkpt>
   <trkpt lat="-3.0969700" lon="37.3348810">
    <ele>4176.9</ele>
    <time>2026-06-22T06:20:45Z</time>
   </trkpt>
   <trkpt lat="-3.0969740" lon="37.3348820">
    <ele>4176.9</ele>
    <time>2026-06-22T06:20:46Z</time>
   </trkpt>
   <trkpt lat="-3.0969770" lon="37.3348830">
    <ele>4176.9</ele>
    <time>2026-06-22T06:20:47Z</time>
   </trkpt>
   <trkpt lat="-3.0969830" lon="37.3348840">
    <ele>4177.0</ele>
    <time>2026-06-22T06:20:48Z</time>
   </trkpt>
   <trkpt lat="-3.0969850" lon="37.3348860">
    <ele>4177.0</ele>
    <time>2026-06-22T06:20:49Z</time>
   </trkpt>
   <trkpt lat="-3.0969870" lon="37.3348870">
    <ele>4177.0</ele>
    <time>2026-06-22T06:20:50Z</time>
   </trkpt>
   <trkpt lat="-3.0969900" lon="37.3348900">
    <ele>4177.1</ele>
    <time>2026-06-22T06:20:51Z</time>
   </trkpt>
   <trkpt lat="-3.0969930" lon="37.3348930">
    <ele>4177.1</ele>
    <time>2026-06-22T06:20:52Z</time>
   </trkpt>
   <trkpt lat="-3.0969930" lon="37.3348970">
    <ele>4177.2</ele>
    <time>2026-06-22T06:20:53Z</time>
   </trkpt>
   <trkpt lat="-3.0969920" lon="37.3348980">
    <ele>4177.2</ele>
    <time>2026-06-22T06:20:54Z</time>
   </trkpt>
   <trkpt lat="-3.0969990" lon="37.3349020">
    <ele>4177.2</ele>
    <time>2026-06-22T06:20:55Z</time>
   </trkpt>
   <trkpt lat="-3.0969990" lon="37.3349040">
    <ele>4177.3</ele>
    <time>2026-06-22T06:20:56Z</time>
   </trkpt>
   <trkpt lat="-3.0970030" lon="37.3349080">
    <ele>4177.3</ele>
    <time>2026-06-22T06:20:57Z</time>
   </trkpt>
   <trkpt lat="-3.0970060" lon="37.3349140">
    <ele>4177.4</ele>
    <time>2026-06-22T06:20:58Z</time>
   </trkpt>
   <trkpt lat="-3.0970090" lon="37.3349160">
    <ele>4177.4</ele>
    <time>2026-06-22T06:20:59Z</time>
   </trkpt>
   <trkpt lat="-3.0970090" lon="37.3349170">
    <ele>4177.4</ele>
    <time>2026-06-22T06:21:00Z</time>
   </trkpt>
   <trkpt lat="-3.0970150" lon="37.3349220">
    <ele>4177.5</ele>
    <time>2026-06-22T06:21:01Z</time>
   </trkpt>
   <trkpt lat="-3.0970130" lon="37.3349260">
    <ele>4177.5</ele>
    <time>2026-06-22T06:21:02Z</time>
   </trkpt>
   <trkpt lat="-3.0970160" lon="37.3349310">
    <ele>4177.6</ele>
    <time>2026-06-22T06:21:03Z</time>
   </trkpt>
   <trkpt lat="-3.0970160" lon="37.3349360">
    <ele>4177.6</ele>
    <time>2026-06-22T06:21:04Z</time>
   </trkpt>
   <trkpt lat="-3.0970150" lon="37.3349390">
    <ele>4177.7</ele>
    <time>2026-06-22T06:21:05Z</time>
   </trkpt>
   <trkpt lat="-3.0970120" lon="37.3349400">
    <ele>4177.7</ele>
    <time>2026-06-22T06:21:06Z</time>
   </trkpt>
   <trkpt lat="-3.0970180" lon="37.3349450">
    <ele>4177.8</ele>
    <time>2026-06-22T06:21:07Z</time>
   </trkpt>
   <trkpt lat="-3.0970190" lon="37.3349450">
    <ele>4177.8</ele>
    <time>2026-06-22T06:21:08Z</time>
   </trkpt>
   <trkpt lat="-3.0970170" lon="37.3349440">
    <ele>4177.8</ele>
    <time>2026-06-22T06:21:09Z</time>
   </trkpt>
   <trkpt lat="-3.0970180" lon="37.3349440">
    <ele>4177.8</ele>
    <time>2026-06-22T06:21:10Z</time>
   </trkpt>
   <trkpt lat="-3.0970180" lon="37.3349440">
    <ele>4177.8</ele>
    <time>2026-06-22T06:21:11Z</time>
   </trkpt>
   <trkpt lat="-3.0970180" lon="37.3349450">
    <ele>4177.8</ele>
    <time>2026-06-22T06:21:12Z</time>
   </trkpt>
   <trkpt lat="-3.0970180" lon="37.3349450">
    <ele>4177.8</ele>
    <time>2026-06-22T06:21:13Z</time>
   </trkpt>
   <trkpt lat="-3.0970180" lon="37.3349450">
    <ele>4177.8</ele>
    <time>2026-06-22T06:21:14Z</time>
   </trkpt>
   <trkpt lat="-3.0970230" lon="37.3349500">
    <ele>4177.9</ele>
    <time>2026-06-22T06:21:15Z</time>
   </trkpt>
   <trkpt lat="-3.0970270" lon="37.3349510">
    <ele>4177.9</ele>
    <time>2026-06-22T06:21:16Z</time>
   </trkpt>
   <trkpt lat="-3.0970310" lon="37.3349530">
    <ele>4178.0</ele>
    <time>2026-06-22T06:21:17Z</time>
   </trkpt>
   <trkpt lat="-3.0970320" lon="37.3349530">
    <ele>4178.0</ele>
    <time>2026-06-22T06:21:18Z</time>
   </trkpt>
   <trkpt lat="-3.0970370" lon="37.3349550">
    <ele>4178.0</ele>
    <time>2026-06-22T06:21:19Z</time>
   </trkpt>
   <trkpt lat="-3.0970370" lon="37.3349580">
    <ele>4178.1</ele>
    <time>2026-06-22T06:21:20Z</time>
   </trkpt>
   <trkpt lat="-3.0970420" lon="37.3349610">
    <ele>4178.1</ele>
    <time>2026-06-22T06:21:21Z</time>
   </trkpt>
   <trkpt lat="-3.0970390" lon="37.3349660">
    <ele>4178.2</ele>
    <time>2026-06-22T06:21:22Z</time>
   </trkpt>
   <trkpt lat="-3.0970330" lon="37.3349720">
    <ele>4178.2</ele>
    <time>2026-06-22T06:21:23Z</time>
   </trkpt>
   <trkpt lat="-3.0970270" lon="37.3349720">
    <ele>4178.3</ele>
    <time>2026-06-22T06:21:24Z</time>
   </trkpt>
   <trkpt lat="-3.0970200" lon="37.3349750">
    <ele>4178.4</ele>
    <time>2026-06-22T06:21:25Z</time>
   </trkpt>
   <trkpt lat="-3.0970150" lon="37.3349770">
    <ele>4178.4</ele>
    <time>2026-06-22T06:21:26Z</time>
   </trkpt>
   <trkpt lat="-3.0970110" lon="37.3349800">
    <ele>4178.5</ele>
    <time>2026-06-22T06:21:27Z</time>
   </trkpt>
   <trkpt lat="-3.0970090" lon="37.3349870">
    <ele>4178.5</ele>
    <time>2026-06-22T06:21:28Z</time>
   </trkpt>
   <trkpt lat="-3.0970100" lon="37.3349910">
    <ele>4178.6</ele>
    <time>2026-06-22T06:21:29Z</time>
   </trkpt>
   <trkpt lat="-3.0970110" lon="37.3349980">
    <ele>4178.7</ele>
    <time>2026-06-22T06:21:30Z</time>
   </trkpt>
   <trkpt lat="-3.0970120" lon="37.3350030">
    <ele>4178.7</ele>
    <time>2026-06-22T06:21:31Z</time>
   </trkpt>
   <trkpt lat="-3.0970150" lon="37.3350100">
    <ele>4178.8</ele>
    <time>2026-06-22T06:21:32Z</time>
   </trkpt>
   <trkpt lat="-3.0970160" lon="37.3350150">
    <ele>4178.8</ele>
    <time>2026-06-22T06:21:33Z</time>
   </trkpt>
   <trkpt lat="-3.0970190" lon="37.3350180">
    <ele>4178.9</ele>
    <time>2026-06-22T06:21:34Z</time>
   </trkpt>
   <trkpt lat="-3.0970210" lon="37.3350250">
    <ele>4178.9</ele>
    <time>2026-06-22T06:21:35Z</time>
   </trkpt>
   <trkpt lat="-3.0970230" lon="37.3350290">
    <ele>4179.0</ele>
    <time>2026-06-22T06:21:36Z</time>
   </trkpt>
   <trkpt lat="-3.0970240" lon="37.3350310">
    <ele>4179.0</ele>
    <time>2026-06-22T06:21:37Z</time>
   </trkpt>
   <trkpt lat="-3.0970280" lon="37.3350340">
    <ele>4179.0</ele>
    <time>2026-06-22T06:21:38Z</time>
   </trkpt>
   <trkpt lat="-3.0970320" lon="37.3350360">
    <ele>4179.1</ele>
    <time>2026-06-22T06:21:39Z</time>
   </trkpt>
   <trkpt lat="-3.0970360" lon="37.3350410">
    <ele>4179.1</ele>
    <time>2026-06-22T06:21:40Z</time>
   </trkpt>
   <trkpt lat="-3.0970410" lon="37.3350460">
    <ele>4179.2</ele>
    <time>2026-06-22T06:21:41Z</time>
   </trkpt>
   <trkpt lat="-3.0970460" lon="37.3350480">
    <ele>4179.3</ele>
    <time>2026-06-22T06:21:42Z</time>
   </trkpt>
   <trkpt lat="-3.0970540" lon="37.3350530">
    <ele>4179.4</ele>
    <time>2026-06-22T06:21:43Z</time>
   </trkpt>
   <trkpt lat="-3.0970570" lon="37.3350560">
    <ele>4179.4</ele>
    <time>2026-06-22T06:21:44Z</time>
   </trkpt>
   <trkpt lat="-3.0970590" lon="37.3350590">
    <ele>4179.4</ele>
    <time>2026-06-22T06:21:45Z</time>
   </trkpt>
   <trkpt lat="-3.0970640" lon="37.3350640">
    <ele>4179.5</ele>
    <time>2026-06-22T06:21:46Z</time>
   </trkpt>
   <trkpt lat="-3.0970700" lon="37.3350660">
    <ele>4179.6</ele>
    <time>2026-06-22T06:21:47Z</time>
   </trkpt>
   <trkpt lat="-3.0970790" lon="37.3350680">
    <ele>4179.7</ele>
    <time>2026-06-22T06:21:48Z</time>
   </trkpt>
   <trkpt lat="-3.0970860" lon="37.3350700">
    <ele>4179.8</ele>
    <time>2026-06-22T06:21:49Z</time>
   </trkpt>
   <trkpt lat="-3.0970930" lon="37.3350670">
    <ele>4179.8</ele>
    <time>2026-06-22T06:21:50Z</time>
   </trkpt>
   <trkpt lat="-3.0970990" lon="37.3350630">
    <ele>4179.9</ele>
    <time>2026-06-22T06:21:51Z</time>
   </trkpt>
   <trkpt lat="-3.0971070" lon="37.3350620">
    <ele>4180.0</ele>
    <time>2026-06-22T06:21:52Z</time>
   </trkpt>
   <trkpt lat="-3.0971140" lon="37.3350630">
    <ele>4180.1</ele>
    <time>2026-06-22T06:21:53Z</time>
   </trkpt>
   <trkpt lat="-3.0971180" lon="37.3350660">
    <ele>4180.1</ele>
    <time>2026-06-22T06:21:54Z</time>
   </trkpt>
   <trkpt lat="-3.0971250" lon="37.3350700">
    <ele>4180.2</ele>
    <time>2026-06-22T06:21:55Z</time>
   </trkpt>
   <trkpt lat="-3.0971300" lon="37.3350760">
    <ele>4180.3</ele>
    <time>2026-06-22T06:21:56Z</time>
   </trkpt>
   <trkpt lat="-3.0971320" lon="37.3350810">
    <ele>4180.3</ele>
    <time>2026-06-22T06:21:57Z</time>
   </trkpt>
   <trkpt lat="-3.0971360" lon="37.3350890">
    <ele>4180.4</ele>
    <time>2026-06-22T06:21:58Z</time>
   </trkpt>
   <trkpt lat="-3.0971370" lon="37.3350940">
    <ele>4180.5</ele>
    <time>2026-06-22T06:21:59Z</time>
   </trkpt>
   <trkpt lat="-3.0971370" lon="37.3350980">
    <ele>4180.5</ele>
    <time>2026-06-22T06:22:00Z</time>
   </trkpt>
   <trkpt lat="-3.0971370" lon="37.3351030">
    <ele>4180.6</ele>
    <time>2026-06-22T06:22:01Z</time>
   </trkpt>
   <trkpt lat="-3.0971380" lon="37.3351090">
    <ele>4180.7</ele>
    <time>2026-06-22T06:22:02Z</time>
   </trkpt>
   <trkpt lat="-3.0971390" lon="37.3351140">
    <ele>4180.7</ele>
    <time>2026-06-22T06:22:03Z</time>
   </trkpt>
   <trkpt lat="-3.0971440" lon="37.3351180">
    <ele>4180.8</ele>
    <time>2026-06-22T06:22:04Z</time>
   </trkpt>
   <trkpt lat="-3.0971490" lon="37.3351200">
    <ele>4180.9</ele>
    <time>2026-06-22T06:22:05Z</time>
   </trkpt>
   <trkpt lat="-3.0971560" lon="37.3351220">
    <ele>4180.9</ele>
    <time>2026-06-22T06:22:06Z</time>
   </trkpt>
   <trkpt lat="-3.0971640" lon="37.3351210">
    <ele>4181.0</ele>
    <time>2026-06-22T06:22:07Z</time>
   </trkpt>
   <trkpt lat="-3.0971710" lon="37.3351220">
    <ele>4181.1</ele>
    <time>2026-06-22T06:22:08Z</time>
   </trkpt>
   <trkpt lat="-3.0971780" lon="37.3351220">
    <ele>4181.2</ele>
    <time>2026-06-22T06:22:09Z</time>
   </trkpt>
   <trkpt lat="-3.0971830" lon="37.3351220">
    <ele>4181.2</ele>
    <time>2026-06-22T06:22:10Z</time>
   </trkpt>
   <trkpt lat="-3.0971880" lon="37.3351240">
    <ele>4181.3</ele>
    <time>2026-06-22T06:22:11Z</time>
   </trkpt>
   <trkpt lat="-3.0971910" lon="37.3351280">
    <ele>4181.4</ele>
    <time>2026-06-22T06:22:12Z</time>
   </trkpt>
   <trkpt lat="-3.0971900" lon="37.3351340">
    <ele>4181.4</ele>
    <time>2026-06-22T06:22:13Z</time>
   </trkpt>
   <trkpt lat="-3.0971940" lon="37.3351410">
    <ele>4181.5</ele>
    <time>2026-06-22T06:22:14Z</time>
   </trkpt>
   <trkpt lat="-3.0971960" lon="37.3351480">
    <ele>4181.6</ele>
    <time>2026-06-22T06:22:15Z</time>
   </trkpt>
   <trkpt lat="-3.0972010" lon="37.3351520">
    <ele>4181.7</ele>
    <time>2026-06-22T06:22:16Z</time>
   </trkpt>
   <trkpt lat="-3.0972070" lon="37.3351530">
    <ele>4181.8</ele>
    <time>2026-06-22T06:22:17Z</time>
   </trkpt>
   <trkpt lat="-3.0972140" lon="37.3351560">
    <ele>4181.9</ele>
    <time>2026-06-22T06:22:18Z</time>
   </trkpt>
   <trkpt lat="-3.0972210" lon="37.3351570">
    <ele>4181.9</ele>
    <time>2026-06-22T06:22:19Z</time>
   </trkpt>
   <trkpt lat="-3.0972290" lon="37.3351600">
    <ele>4182.1</ele>
    <time>2026-06-22T06:22:20Z</time>
   </trkpt>
   <trkpt lat="-3.0972360" lon="37.3351620">
    <ele>4182.1</ele>
    <time>2026-06-22T06:22:21Z</time>
   </trkpt>
   <trkpt lat="-3.0972390" lon="37.3351640">
    <ele>4182.2</ele>
    <time>2026-06-22T06:22:22Z</time>
   </trkpt>
   <trkpt lat="-3.0972470" lon="37.3351680">
    <ele>4182.3</ele>
    <time>2026-06-22T06:22:23Z</time>
   </trkpt>
   <trkpt lat="-3.0972520" lon="37.3351750">
    <ele>4182.4</ele>
    <time>2026-06-22T06:22:24Z</time>
   </trkpt>
   <trkpt lat="-3.0972540" lon="37.3351790">
    <ele>4182.5</ele>
    <time>2026-06-22T06:22:25Z</time>
   </trkpt>
   <trkpt lat="-3.0972580" lon="37.3351840">
    <ele>4182.5</ele>
    <time>2026-06-22T06:22:26Z</time>
   </trkpt>
   <trkpt lat="-3.0972620" lon="37.3351870">
    <ele>4182.6</ele>
    <time>2026-06-22T06:22:27Z</time>
   </trkpt>
   <trkpt lat="-3.0972680" lon="37.3351920">
    <ele>4182.7</ele>
    <time>2026-06-22T06:22:28Z</time>
   </trkpt>
   <trkpt lat="-3.0972720" lon="37.3351950">
    <ele>4182.8</ele>
    <time>2026-06-22T06:22:29Z</time>
   </trkpt>
   <trkpt lat="-3.0972770" lon="37.3351980">
    <ele>4182.8</ele>
    <time>2026-06-22T06:22:30Z</time>
   </trkpt>
   <trkpt lat="-3.0972830" lon="37.3352010">
    <ele>4182.9</ele>
    <time>2026-06-22T06:22:31Z</time>
   </trkpt>
   <trkpt lat="-3.0972870" lon="37.3352030">
    <ele>4183.0</ele>
    <time>2026-06-22T06:22:32Z</time>
   </trkpt>
   <trkpt lat="-3.0972890" lon="37.3352050">
    <ele>4183.0</ele>
    <time>2026-06-22T06:22:33Z</time>
   </trkpt>
   <trkpt lat="-3.0972950" lon="37.3352090">
    <ele>4183.1</ele>
    <time>2026-06-22T06:22:34Z</time>
   </trkpt>
   <trkpt lat="-3.0973040" lon="37.3352110">
    <ele>4183.2</ele>
    <time>2026-06-22T06:22:35Z</time>
   </trkpt>
   <trkpt lat="-3.0973110" lon="37.3352150">
    <ele>4183.3</ele>
    <time>2026-06-22T06:22:36Z</time>
   </trkpt>
   <trkpt lat="-3.0973160" lon="37.3352190">
    <ele>4183.4</ele>
    <time>2026-06-22T06:22:37Z</time>
   </trkpt>
   <trkpt lat="-3.0973200" lon="37.3352240">
    <ele>4183.5</ele>
    <time>2026-06-22T06:22:38Z</time>
   </trkpt>
   <trkpt lat="-3.0973240" lon="37.3352280">
    <ele>4183.6</ele>
    <time>2026-06-22T06:22:39Z</time>
   </trkpt>
   <trkpt lat="-3.0973260" lon="37.3352300">
    <ele>4183.6</ele>
    <time>2026-06-22T06:22:40Z</time>
   </trkpt>
   <trkpt lat="-3.0973290" lon="37.3352360">
    <ele>4183.7</ele>
    <time>2026-06-22T06:22:41Z</time>
   </trkpt>
   <trkpt lat="-3.0973330" lon="37.3352420">
    <ele>4183.8</ele>
    <time>2026-06-22T06:22:42Z</time>
   </trkpt>
   <trkpt lat="-3.0973360" lon="37.3352430">
    <ele>4183.8</ele>
    <time>2026-06-22T06:22:43Z</time>
   </trkpt>
   <trkpt lat="-3.0973420" lon="37.3352450">
    <ele>4183.9</ele>
    <time>2026-06-22T06:22:44Z</time>
   </trkpt>
   <trkpt lat="-3.0973480" lon="37.3352480">
    <ele>4184.0</ele>
    <time>2026-06-22T06:22:45Z</time>
   </trkpt>
   <trkpt lat="-3.0973560" lon="37.3352490">
    <ele>4184.1</ele>
    <time>2026-06-22T06:22:46Z</time>
   </trkpt>
   <trkpt lat="-3.0973600" lon="37.3352520">
    <ele>4184.2</ele>
    <time>2026-06-22T06:22:47Z</time>
   </trkpt>
   <trkpt lat="-3.0973650" lon="37.3352540">
    <ele>4184.2</ele>
    <time>2026-06-22T06:22:48Z</time>
   </trkpt>
   <trkpt lat="-3.0973690" lon="37.3352550">
    <ele>4184.3</ele>
    <time>2026-06-22T06:22:49Z</time>
   </trkpt>
   <trkpt lat="-3.0973710" lon="37.3352580">
    <ele>4184.3</ele>
    <time>2026-06-22T06:22:50Z</time>
   </trkpt>
   <trkpt lat="-3.0973740" lon="37.3352620">
    <ele>4184.4</ele>
    <time>2026-06-22T06:22:51Z</time>
   </trkpt>
   <trkpt lat="-3.0973770" lon="37.3352660">
    <ele>4184.5</ele>
    <time>2026-06-22T06:22:52Z</time>
   </trkpt>
   <trkpt lat="-3.0973840" lon="37.3352720">
    <ele>4184.6</ele>
    <time>2026-06-22T06:22:53Z</time>
   </trkpt>
   <trkpt lat="-3.0973920" lon="37.3352700">
    <ele>4184.7</ele>
    <time>2026-06-22T06:22:54Z</time>
   </trkpt>
   <trkpt lat="-3.0973990" lon="37.3352700">
    <ele>4184.8</ele>
    <time>2026-06-22T06:22:55Z</time>
   </trkpt>
   <trkpt lat="-3.0974030" lon="37.3352720">
    <ele>4184.8</ele>
    <time>2026-06-22T06:22:56Z</time>
   </trkpt>
   <trkpt lat="-3.0974100" lon="37.3352770">
    <ele>4185.0</ele>
    <time>2026-06-22T06:22:57Z</time>
   </trkpt>
   <trkpt lat="-3.0974160" lon="37.3352820">
    <ele>4185.1</ele>
    <time>2026-06-22T06:22:58Z</time>
   </trkpt>
   <trkpt lat="-3.0974250" lon="37.3352870">
    <ele>4185.2</ele>
    <time>2026-06-22T06:22:59Z</time>
   </trkpt>
   <trkpt lat="-3.0974300" lon="37.3352880">
    <ele>4185.3</ele>
    <time>2026-06-22T06:23:00Z</time>
   </trkpt>
   <trkpt lat="-3.0974350" lon="37.3352920">
    <ele>4185.3</ele>
    <time>2026-06-22T06:23:01Z</time>
   </trkpt>
   <trkpt lat="-3.0974400" lon="37.3352970">
    <ele>4185.4</ele>
    <time>2026-06-22T06:23:02Z</time>
   </trkpt>
   <trkpt lat="-3.0974430" lon="37.3353020">
    <ele>4185.5</ele>
    <time>2026-06-22T06:23:03Z</time>
   </trkpt>
   <trkpt lat="-3.0974480" lon="37.3353070">
    <ele>4185.6</ele>
    <time>2026-06-22T06:23:04Z</time>
   </trkpt>
   <trkpt lat="-3.0974530" lon="37.3353120">
    <ele>4185.7</ele>
    <time>2026-06-22T06:23:05Z</time>
   </trkpt>
   <trkpt lat="-3.0974540" lon="37.3353150">
    <ele>4185.7</ele>
    <time>2026-06-22T06:23:06Z</time>
   </trkpt>
   <trkpt lat="-3.0974590" lon="37.3353190">
    <ele>4185.8</ele>
    <time>2026-06-22T06:23:07Z</time>
   </trkpt>
   <trkpt lat="-3.0974640" lon="37.3353210">
    <ele>4185.9</ele>
    <time>2026-06-22T06:23:08Z</time>
   </trkpt>
   <trkpt lat="-3.0974720" lon="37.3353220">
    <ele>4186.0</ele>
    <time>2026-06-22T06:23:09Z</time>
   </trkpt>
   <trkpt lat="-3.0974790" lon="37.3353220">
    <ele>4186.1</ele>
    <time>2026-06-22T06:23:10Z</time>
   </trkpt>
   <trkpt lat="-3.0974860" lon="37.3353240">
    <ele>4186.2</ele>
    <time>2026-06-22T06:23:11Z</time>
   </trkpt>
   <trkpt lat="-3.0974930" lon="37.3353240">
    <ele>4186.2</ele>
    <time>2026-06-22T06:23:12Z</time>
   </trkpt>
   <trkpt lat="-3.0974980" lon="37.3353260">
    <ele>4186.3</ele>
    <time>2026-06-22T06:23:13Z</time>
   </trkpt>
   <trkpt lat="-3.0975040" lon="37.3353260">
    <ele>4186.4</ele>
    <time>2026-06-22T06:23:14Z</time>
   </trkpt>
   <trkpt lat="-3.0975110" lon="37.3353240">
    <ele>4186.5</ele>
    <time>2026-06-22T06:23:15Z</time>
   </trkpt>
   <trkpt lat="-3.0975180" lon="37.3353240">
    <ele>4186.6</ele>
    <time>2026-06-22T06:23:16Z</time>
   </trkpt>
   <trkpt lat="-3.0975220" lon="37.3353250">
    <ele>4186.6</ele>
    <time>2026-06-22T06:23:17Z</time>
   </trkpt>
   <trkpt lat="-3.0975270" lon="37.3353240">
    <ele>4186.7</ele>
    <time>2026-06-22T06:23:18Z</time>
   </trkpt>
   <trkpt lat="-3.0975300" lon="37.3353230">
    <ele>4186.7</ele>
    <time>2026-06-22T06:23:19Z</time>
   </trkpt>
   <trkpt lat="-3.0975390" lon="37.3353250">
    <ele>4186.8</ele>
    <time>2026-06-22T06:23:20Z</time>
   </trkpt>
   <trkpt lat="-3.0975370" lon="37.3353270">
    <ele>4186.8</ele>
    <time>2026-06-22T06:23:21Z</time>
   </trkpt>
   <trkpt lat="-3.0975390" lon="37.3353240">
    <ele>4186.9</ele>
    <time>2026-06-22T06:23:22Z</time>
   </trkpt>
   <trkpt lat="-3.0975390" lon="37.3353220">
    <ele>4186.9</ele>
    <time>2026-06-22T06:23:23Z</time>
   </trkpt>
   <trkpt lat="-3.0975400" lon="37.3353200">
    <ele>4186.9</ele>
    <time>2026-06-22T06:23:24Z</time>
   </trkpt>
   <trkpt lat="-3.0975400" lon="37.3353250">
    <ele>4187.0</ele>
    <time>2026-06-22T06:23:25Z</time>
   </trkpt>
   <trkpt lat="-3.0975440" lon="37.3353220">
    <ele>4187.1</ele>
    <time>2026-06-22T06:23:26Z</time>
   </trkpt>
   <trkpt lat="-3.0975440" lon="37.3353220">
    <ele>4187.1</ele>
    <time>2026-06-22T06:23:27Z</time>
   </trkpt>
   <trkpt lat="-3.0975440" lon="37.3353210">
    <ele>4187.1</ele>
    <time>2026-06-22T06:23:28Z</time>
   </trkpt>
   <trkpt lat="-3.0975430" lon="37.3353190">
    <ele>4187.1</ele>
    <time>2026-06-22T06:23:29Z</time>
   </trkpt>
   <trkpt lat="-3.0975470" lon="37.3353200">
    <ele>4187.1</ele>
    <time>2026-06-22T06:23:30Z</time>
   </trkpt>
   <trkpt lat="-3.0975510" lon="37.3353210">
    <ele>4187.2</ele>
    <time>2026-06-22T06:23:31Z</time>
   </trkpt>
   <trkpt lat="-3.0975480" lon="37.3353200">
    <ele>4187.2</ele>
    <time>2026-06-22T06:23:32Z</time>
   </trkpt>
   <trkpt lat="-3.0975540" lon="37.3353190">
    <ele>4187.3</ele>
    <time>2026-06-22T06:23:33Z</time>
   </trkpt>
   <trkpt lat="-3.0975560" lon="37.3353140">
    <ele>4187.3</ele>
    <time>2026-06-22T06:23:34Z</time>
   </trkpt>
   <trkpt lat="-3.0975540" lon="37.3353130">
    <ele>4187.4</ele>
    <time>2026-06-22T06:23:35Z</time>
   </trkpt>
   <trkpt lat="-3.0975590" lon="37.3353090">
    <ele>4187.4</ele>
    <time>2026-06-22T06:23:36Z</time>
   </trkpt>
   <trkpt lat="-3.0975600" lon="37.3353070">
    <ele>4187.5</ele>
    <time>2026-06-22T06:23:37Z</time>
   </trkpt>
   <trkpt lat="-3.0975650" lon="37.3353050">
    <ele>4187.5</ele>
    <time>2026-06-22T06:23:38Z</time>
   </trkpt>
   <trkpt lat="-3.0975650" lon="37.3353030">
    <ele>4187.5</ele>
    <time>2026-06-22T06:23:39Z</time>
   </trkpt>
   <trkpt lat="-3.0975740" lon="37.3353020">
    <ele>4187.6</ele>
    <time>2026-06-22T06:23:40Z</time>
   </trkpt>
   <trkpt lat="-3.0975740" lon="37.3352980">
    <ele>4187.7</ele>
    <time>2026-06-22T06:23:41Z</time>
   </trkpt>
   <trkpt lat="-3.0975790" lon="37.3352990">
    <ele>4187.7</ele>
    <time>2026-06-22T06:23:42Z</time>
   </trkpt>
   <trkpt lat="-3.0975780" lon="37.3352990">
    <ele>4187.7</ele>
    <time>2026-06-22T06:23:43Z</time>
   </trkpt>
   <trkpt lat="-3.0975850" lon="37.3352950">
    <ele>4187.8</ele>
    <time>2026-06-22T06:23:44Z</time>
   </trkpt>
   <trkpt lat="-3.0975870" lon="37.3352940">
    <ele>4187.9</ele>
    <time>2026-06-22T06:23:45Z</time>
   </trkpt>
   <trkpt lat="-3.0975880" lon="37.3352970">
    <ele>4187.9</ele>
    <time>2026-06-22T06:23:46Z</time>
   </trkpt>
   <trkpt lat="-3.0975880" lon="37.3352970">
    <ele>4187.9</ele>
    <time>2026-06-22T06:23:47Z</time>
   </trkpt>
   <trkpt lat="-3.0975890" lon="37.3353010">
    <ele>4187.9</ele>
    <time>2026-06-22T06:23:48Z</time>
   </trkpt>
   <trkpt lat="-3.0975860" lon="37.3353040">
    <ele>4188.0</ele>
    <time>2026-06-22T06:23:49Z</time>
   </trkpt>
   <trkpt lat="-3.0975840" lon="37.3353060">
    <ele>4188.0</ele>
    <time>2026-06-22T06:23:50Z</time>
   </trkpt>
   <trkpt lat="-3.0975820" lon="37.3353120">
    <ele>4188.1</ele>
    <time>2026-06-22T06:23:51Z</time>
   </trkpt>
   <trkpt lat="-3.0975790" lon="37.3353120">
    <ele>4188.1</ele>
    <time>2026-06-22T06:23:52Z</time>
   </trkpt>
   <trkpt lat="-3.0975780" lon="37.3353130">
    <ele>4188.1</ele>
    <time>2026-06-22T06:23:53Z</time>
   </trkpt>
   <trkpt lat="-3.0975750" lon="37.3353160">
    <ele>4188.2</ele>
    <time>2026-06-22T06:23:54Z</time>
   </trkpt>
   <trkpt lat="-3.0975760" lon="37.3353170">
    <ele>4188.2</ele>
    <time>2026-06-22T06:23:55Z</time>
   </trkpt>
   <trkpt lat="-3.0975730" lon="37.3353180">
    <ele>4188.2</ele>
    <time>2026-06-22T06:23:56Z</time>
   </trkpt>
   <trkpt lat="-3.0975730" lon="37.3353190">
    <ele>4188.2</ele>
    <time>2026-06-22T06:23:57Z</time>
   </trkpt>
   <trkpt lat="-3.0975710" lon="37.3353220">
    <ele>4188.3</ele>
    <time>2026-06-22T06:23:58Z</time>
   </trkpt>
   <trkpt lat="-3.0975680" lon="37.3353250">
    <ele>4188.3</ele>
    <time>2026-06-22T06:23:59Z</time>
   </trkpt>
   <trkpt lat="-3.0975630" lon="37.3353270">
    <ele>4188.4</ele>
    <time>2026-06-22T06:24:00Z</time>
   </trkpt>
   <trkpt lat="-3.0975650" lon="37.3353300">
    <ele>4188.4</ele>
    <time>2026-06-22T06:24:01Z</time>
   </trkpt>
   <trkpt lat="-3.0975610" lon="37.3353350">
    <ele>4188.5</ele>
    <time>2026-06-22T06:24:02Z</time>
   </trkpt>
   <trkpt lat="-3.0975580" lon="37.3353380">
    <ele>4188.5</ele>
    <time>2026-06-22T06:24:03Z</time>
   </trkpt>
   <trkpt lat="-3.0975570" lon="37.3353420">
    <ele>4188.5</ele>
    <time>2026-06-22T06:24:04Z</time>
   </trkpt>
   <trkpt lat="-3.0975550" lon="37.3353460">
    <ele>4188.6</ele>
    <time>2026-06-22T06:24:05Z</time>
   </trkpt>
   <trkpt lat="-3.0975570" lon="37.3353520">
    <ele>4188.6</ele>
    <time>2026-06-22T06:24:06Z</time>
   </trkpt>
   <trkpt lat="-3.0975560" lon="37.3353540">
    <ele>4188.7</ele>
    <time>2026-06-22T06:24:07Z</time>
   </trkpt>
   <trkpt lat="-3.0975530" lon="37.3353590">
    <ele>4188.7</ele>
    <time>2026-06-22T06:24:08Z</time>
   </trkpt>
   <trkpt lat="-3.0975580" lon="37.3353630">
    <ele>4188.8</ele>
    <time>2026-06-22T06:24:09Z</time>
   </trkpt>
   <trkpt lat="-3.0975590" lon="37.3353660">
    <ele>4188.8</ele>
    <time>2026-06-22T06:24:10Z</time>
   </trkpt>
   <trkpt lat="-3.0975680" lon="37.3353680">
    <ele>4188.9</ele>
    <time>2026-06-22T06:24:11Z</time>
   </trkpt>
   <trkpt lat="-3.0975710" lon="37.3353670">
    <ele>4188.9</ele>
    <time>2026-06-22T06:24:12Z</time>
   </trkpt>
   <trkpt lat="-3.0975760" lon="37.3353670">
    <ele>4189.0</ele>
    <time>2026-06-22T06:24:13Z</time>
   </trkpt>
   <trkpt lat="-3.0975810" lon="37.3353660">
    <ele>4189.0</ele>
    <time>2026-06-22T06:24:14Z</time>
   </trkpt>
   <trkpt lat="-3.0975880" lon="37.3353620">
    <ele>4189.1</ele>
    <time>2026-06-22T06:24:15Z</time>
   </trkpt>
   <trkpt lat="-3.0975930" lon="37.3353560">
    <ele>4189.2</ele>
    <time>2026-06-22T06:24:16Z</time>
   </trkpt>
   <trkpt lat="-3.0975950" lon="37.3353500">
    <ele>4189.2</ele>
    <time>2026-06-22T06:24:17Z</time>
   </trkpt>
   <trkpt lat="-3.0975980" lon="37.3353450">
    <ele>4189.3</ele>
    <time>2026-06-22T06:24:18Z</time>
   </trkpt>
   <trkpt lat="-3.0976050" lon="37.3353370">
    <ele>4189.4</ele>
    <time>2026-06-22T06:24:19Z</time>
   </trkpt>
   <trkpt lat="-3.0976090" lon="37.3353360">
    <ele>4189.4</ele>
    <time>2026-06-22T06:24:20Z</time>
   </trkpt>
   <trkpt lat="-3.0976120" lon="37.3353340">
    <ele>4189.5</ele>
    <time>2026-06-22T06:24:21Z</time>
   </trkpt>
   <trkpt lat="-3.0976160" lon="37.3353310">
    <ele>4189.5</ele>
    <time>2026-06-22T06:24:22Z</time>
   </trkpt>
   <trkpt lat="-3.0976190" lon="37.3353280">
    <ele>4189.5</ele>
    <time>2026-06-22T06:24:23Z</time>
   </trkpt>
   <trkpt lat="-3.0976190" lon="37.3353280">
    <ele>4189.5</ele>
    <time>2026-06-22T06:24:24Z</time>
   </trkpt>
   <trkpt lat="-3.0976220" lon="37.3353230">
    <ele>4189.6</ele>
    <time>2026-06-22T06:24:25Z</time>
   </trkpt>
   <trkpt lat="-3.0976220" lon="37.3353210">
    <ele>4189.6</ele>
    <time>2026-06-22T06:24:26Z</time>
   </trkpt>
   <trkpt lat="-3.0976260" lon="37.3353160">
    <ele>4189.7</ele>
    <time>2026-06-22T06:24:27Z</time>
   </trkpt>
   <trkpt lat="-3.0976280" lon="37.3353130">
    <ele>4189.7</ele>
    <time>2026-06-22T06:24:28Z</time>
   </trkpt>
   <trkpt lat="-3.0976290" lon="37.3353130">
    <ele>4189.7</ele>
    <time>2026-06-22T06:24:29Z</time>
   </trkpt>
   <trkpt lat="-3.0976290" lon="37.3353130">
    <ele>4189.7</ele>
    <time>2026-06-22T06:24:30Z</time>
   </trkpt>
   <trkpt lat="-3.0976300" lon="37.3353110">
    <ele>4189.7</ele>
    <time>2026-06-22T06:24:31Z</time>
   </trkpt>
   <trkpt lat="-3.0976310" lon="37.3353090">
    <ele>4189.7</ele>
    <time>2026-06-22T06:24:32Z</time>
   </trkpt>
   <trkpt lat="-3.0976370" lon="37.3353050">
    <ele>4189.8</ele>
    <time>2026-06-22T06:24:33Z</time>
   </trkpt>
   <trkpt lat="-3.0976430" lon="37.3353010">
    <ele>4189.9</ele>
    <time>2026-06-22T06:24:34Z</time>
   </trkpt>
   <trkpt lat="-3.0976470" lon="37.3353010">
    <ele>4189.9</ele>
    <time>2026-06-22T06:24:35Z</time>
   </trkpt>
   <trkpt lat="-3.0976490" lon="37.3353040">
    <ele>4189.9</ele>
    <time>2026-06-22T06:24:36Z</time>
   </trkpt>
   <trkpt lat="-3.0976530" lon="37.3353070">
    <ele>4190.0</ele>
    <time>2026-06-22T06:24:37Z</time>
   </trkpt>
   <trkpt lat="-3.0976580" lon="37.3353120">
    <ele>4190.0</ele>
    <time>2026-06-22T06:24:38Z</time>
   </trkpt>
   <trkpt lat="-3.0976610" lon="37.3353160">
    <ele>4190.1</ele>
    <time>2026-06-22T06:24:39Z</time>
   </trkpt>
   <trkpt lat="-3.0976660" lon="37.3353180">
    <ele>4190.1</ele>
    <time>2026-06-22T06:24:40Z</time>
   </trkpt>
   <trkpt lat="-3.0976730" lon="37.3353190">
    <ele>4190.2</ele>
    <time>2026-06-22T06:24:41Z</time>
   </trkpt>
   <trkpt lat="-3.0976790" lon="37.3353200">
    <ele>4190.2</ele>
    <time>2026-06-22T06:24:42Z</time>
   </trkpt>
   <trkpt lat="-3.0976820" lon="37.3353220">
    <ele>4190.3</ele>
    <time>2026-06-22T06:24:43Z</time>
   </trkpt>
   <trkpt lat="-3.0976850" lon="37.3353260">
    <ele>4190.3</ele>
    <time>2026-06-22T06:24:44Z</time>
   </trkpt>
   <trkpt lat="-3.0976850" lon="37.3353290">
    <ele>4190.3</ele>
    <time>2026-06-22T06:24:45Z</time>
   </trkpt>
   <trkpt lat="-3.0976850" lon="37.3353360">
    <ele>4190.4</ele>
    <time>2026-06-22T06:24:46Z</time>
   </trkpt>
   <trkpt lat="-3.0976890" lon="37.3353380">
    <ele>4190.4</ele>
    <time>2026-06-22T06:24:47Z</time>
   </trkpt>
   <trkpt lat="-3.0976940" lon="37.3353470">
    <ele>4190.5</ele>
    <time>2026-06-22T06:24:48Z</time>
   </trkpt>
   <trkpt lat="-3.0976920" lon="37.3353510">
    <ele>4190.5</ele>
    <time>2026-06-22T06:24:49Z</time>
   </trkpt>
   <trkpt lat="-3.0976890" lon="37.3353580">
    <ele>4190.6</ele>
    <time>2026-06-22T06:24:50Z</time>
   </trkpt>
   <trkpt lat="-3.0976890" lon="37.3353660">
    <ele>4190.7</ele>
    <time>2026-06-22T06:24:51Z</time>
   </trkpt>
   <trkpt lat="-3.0976940" lon="37.3353690">
    <ele>4190.7</ele>
    <time>2026-06-22T06:24:52Z</time>
   </trkpt>
   <trkpt lat="-3.0977020" lon="37.3353770">
    <ele>4190.8</ele>
    <time>2026-06-22T06:24:53Z</time>
   </trkpt>
   <trkpt lat="-3.0977090" lon="37.3353800">
    <ele>4190.9</ele>
    <time>2026-06-22T06:24:54Z</time>
   </trkpt>
   <trkpt lat="-3.0977150" lon="37.3353850">
    <ele>4190.9</ele>
    <time>2026-06-22T06:24:55Z</time>
   </trkpt>
   <trkpt lat="-3.0977190" lon="37.3353910">
    <ele>4191.0</ele>
    <time>2026-06-22T06:24:56Z</time>
   </trkpt>
   <trkpt lat="-3.0977220" lon="37.3353970">
    <ele>4191.0</ele>
    <time>2026-06-22T06:24:57Z</time>
   </trkpt>
   <trkpt lat="-3.0977260" lon="37.3354010">
    <ele>4191.1</ele>
    <time>2026-06-22T06:24:58Z</time>
   </trkpt>
   <trkpt lat="-3.0977320" lon="37.3354070">
    <ele>4191.1</ele>
    <time>2026-06-22T06:24:59Z</time>
   </trkpt>
   <trkpt lat="-3.0977390" lon="37.3354060">
    <ele>4191.2</ele>
    <time>2026-06-22T06:25:00Z</time>
   </trkpt>
   <trkpt lat="-3.0977440" lon="37.3354070">
    <ele>4191.2</ele>
    <time>2026-06-22T06:25:01Z</time>
   </trkpt>
   <trkpt lat="-3.0977500" lon="37.3354090">
    <ele>4191.3</ele>
    <time>2026-06-22T06:25:02Z</time>
   </trkpt>
   <trkpt lat="-3.0977560" lon="37.3354110">
    <ele>4191.3</ele>
    <time>2026-06-22T06:25:03Z</time>
   </trkpt>
   <trkpt lat="-3.0977590" lon="37.3354140">
    <ele>4191.3</ele>
    <time>2026-06-22T06:25:04Z</time>
   </trkpt>
   <trkpt lat="-3.0977660" lon="37.3354170">
    <ele>4191.4</ele>
    <time>2026-06-22T06:25:05Z</time>
   </trkpt>
   <trkpt lat="-3.0977720" lon="37.3354200">
    <ele>4191.5</ele>
    <time>2026-06-22T06:25:06Z</time>
   </trkpt>
   <trkpt lat="-3.0977740" lon="37.3354210">
    <ele>4191.5</ele>
    <time>2026-06-22T06:25:07Z</time>
   </trkpt>
   <trkpt lat="-3.0977790" lon="37.3354270">
    <ele>4191.5</ele>
    <time>2026-06-22T06:25:08Z</time>
   </trkpt>
   <trkpt lat="-3.0977810" lon="37.3354300">
    <ele>4191.5</ele>
    <time>2026-06-22T06:25:09Z</time>
   </trkpt>
   <trkpt lat="-3.0977820" lon="37.3354310">
    <ele>4191.6</ele>
    <time>2026-06-22T06:25:10Z</time>
   </trkpt>
   <trkpt lat="-3.0977850" lon="37.3354360">
    <ele>4191.6</ele>
    <time>2026-06-22T06:25:11Z</time>
   </trkpt>
   <trkpt lat="-3.0977880" lon="37.3354430">
    <ele>4191.7</ele>
    <time>2026-06-22T06:25:12Z</time>
   </trkpt>
   <trkpt lat="-3.0977890" lon="37.3354480">
    <ele>4191.7</ele>
    <time>2026-06-22T06:25:13Z</time>
   </trkpt>
   <trkpt lat="-3.0977910" lon="37.3354550">
    <ele>4191.7</ele>
    <time>2026-06-22T06:25:14Z</time>
   </trkpt>
   <trkpt lat="-3.0977920" lon="37.3354600">
    <ele>4191.8</ele>
    <time>2026-06-22T06:25:15Z</time>
   </trkpt>
   <trkpt lat="-3.0977950" lon="37.3354690">
    <ele>4191.8</ele>
    <time>2026-06-22T06:25:16Z</time>
   </trkpt>
   <trkpt lat="-3.0977970" lon="37.3354730">
    <ele>4191.9</ele>
    <time>2026-06-22T06:25:17Z</time>
   </trkpt>
   <trkpt lat="-3.0978000" lon="37.3354760">
    <ele>4191.9</ele>
    <time>2026-06-22T06:25:18Z</time>
   </trkpt>
   <trkpt lat="-3.0978060" lon="37.3354820">
    <ele>4192.0</ele>
    <time>2026-06-22T06:25:19Z</time>
   </trkpt>
   <trkpt lat="-3.0978110" lon="37.3354870">
    <ele>4192.0</ele>
    <time>2026-06-22T06:25:20Z</time>
   </trkpt>
   <trkpt lat="-3.0978170" lon="37.3354900">
    <ele>4192.1</ele>
    <time>2026-06-22T06:25:21Z</time>
   </trkpt>
   <trkpt lat="-3.0978230" lon="37.3354940">
    <ele>4192.1</ele>
    <time>2026-06-22T06:25:22Z</time>
   </trkpt>
   <trkpt lat="-3.0978260" lon="37.3354990">
    <ele>4192.1</ele>
    <time>2026-06-22T06:25:23Z</time>
   </trkpt>
   <trkpt lat="-3.0978230" lon="37.3354980">
    <ele>4192.2</ele>
    <time>2026-06-22T06:25:24Z</time>
   </trkpt>
   <trkpt lat="-3.0978250" lon="37.3355020">
    <ele>4192.2</ele>
    <time>2026-06-22T06:25:25Z</time>
   </trkpt>
   <trkpt lat="-3.0978310" lon="37.3355070">
    <ele>4192.3</ele>
    <time>2026-06-22T06:25:26Z</time>
   </trkpt>
   <trkpt lat="-3.0978290" lon="37.3355090">
    <ele>4192.3</ele>
    <time>2026-06-22T06:25:27Z</time>
   </trkpt>
   <trkpt lat="-3.0978310" lon="37.3355110">
    <ele>4192.3</ele>
    <time>2026-06-22T06:25:28Z</time>
   </trkpt>
   <trkpt lat="-3.0978340" lon="37.3355110">
    <ele>4192.3</ele>
    <time>2026-06-22T06:25:29Z</time>
   </trkpt>
   <trkpt lat="-3.0978360" lon="37.3355100">
    <ele>4192.3</ele>
    <time>2026-06-22T06:25:30Z</time>
   </trkpt>
   <trkpt lat="-3.0978410" lon="37.3355140">
    <ele>4192.4</ele>
    <time>2026-06-22T06:25:31Z</time>
   </trkpt>
   <trkpt lat="-3.0978440" lon="37.3355150">
    <ele>4192.4</ele>
    <time>2026-06-22T06:25:32Z</time>
   </trkpt>
   <trkpt lat="-3.0978420" lon="37.3355210">
    <ele>4192.4</ele>
    <time>2026-06-22T06:25:33Z</time>
   </trkpt>
   <trkpt lat="-3.0978450" lon="37.3355250">
    <ele>4192.5</ele>
    <time>2026-06-22T06:25:34Z</time>
   </trkpt>
   <trkpt lat="-3.0978490" lon="37.3355230">
    <ele>4192.5</ele>
    <time>2026-06-22T06:25:35Z</time>
   </trkpt>
   <trkpt lat="-3.0978540" lon="37.3355220">
    <ele>4192.5</ele>
    <time>2026-06-22T06:25:36Z</time>
   </trkpt>
   <trkpt lat="-3.0978540" lon="37.3355210">
    <ele>4192.6</ele>
    <time>2026-06-22T06:25:37Z</time>
   </trkpt>
   <trkpt lat="-3.0978600" lon="37.3355210">
    <ele>4192.6</ele>
    <time>2026-06-22T06:25:38Z</time>
   </trkpt>
   <trkpt lat="-3.0978660" lon="37.3355230">
    <ele>4192.6</ele>
    <time>2026-06-22T06:25:39Z</time>
   </trkpt>
   <trkpt lat="-3.0978770" lon="37.3355160">
    <ele>4192.7</ele>
    <time>2026-06-22T06:25:40Z</time>
   </trkpt>
   <trkpt lat="-3.0978820" lon="37.3355200">
    <ele>4192.8</ele>
    <time>2026-06-22T06:25:41Z</time>
   </trkpt>
   <trkpt lat="-3.0978870" lon="37.3355230">
    <ele>4192.8</ele>
    <time>2026-06-22T06:25:42Z</time>
   </trkpt>
   <trkpt lat="-3.0978910" lon="37.3355250">
    <ele>4192.8</ele>
    <time>2026-06-22T06:25:43Z</time>
   </trkpt>
   <trkpt lat="-3.0978990" lon="37.3355280">
    <ele>4192.9</ele>
    <time>2026-06-22T06:25:44Z</time>
   </trkpt>
   <trkpt lat="-3.0979030" lon="37.3355320">
    <ele>4192.9</ele>
    <time>2026-06-22T06:25:45Z</time>
   </trkpt>
   <trkpt lat="-3.0979100" lon="37.3355340">
    <ele>4193.0</ele>
    <time>2026-06-22T06:25:46Z</time>
   </trkpt>
   <trkpt lat="-3.0979180" lon="37.3355360">
    <ele>4193.0</ele>
    <time>2026-06-22T06:25:47Z</time>
   </trkpt>
   <trkpt lat="-3.0979240" lon="37.3355380">
    <ele>4193.1</ele>
    <time>2026-06-22T06:25:48Z</time>
   </trkpt>
   <trkpt lat="-3.0979290" lon="37.3355420">
    <ele>4193.1</ele>
    <time>2026-06-22T06:25:49Z</time>
   </trkpt>
   <trkpt lat="-3.0979360" lon="37.3355510">
    <ele>4193.2</ele>
    <time>2026-06-22T06:25:50Z</time>
   </trkpt>
   <trkpt lat="-3.0979360" lon="37.3355600">
    <ele>4193.3</ele>
    <time>2026-06-22T06:25:51Z</time>
   </trkpt>
   <trkpt lat="-3.0979350" lon="37.3355660">
    <ele>4193.3</ele>
    <time>2026-06-22T06:25:52Z</time>
   </trkpt>
   <trkpt lat="-3.0979340" lon="37.3355690">
    <ele>4193.3</ele>
    <time>2026-06-22T06:25:53Z</time>
   </trkpt>
   <trkpt lat="-3.0979380" lon="37.3355700">
    <ele>4193.4</ele>
    <time>2026-06-22T06:25:54Z</time>
   </trkpt>
   <trkpt lat="-3.0979560" lon="37.3355730">
    <ele>4193.5</ele>
    <time>2026-06-22T06:25:55Z</time>
   </trkpt>
   <trkpt lat="-3.0979650" lon="37.3355740">
    <ele>4193.5</ele>
    <time>2026-06-22T06:25:56Z</time>
   </trkpt>
   <trkpt lat="-3.0979710" lon="37.3355750">
    <ele>4193.6</ele>
    <time>2026-06-22T06:25:57Z</time>
   </trkpt>
   <trkpt lat="-3.0979770" lon="37.3355760">
    <ele>4193.6</ele>
    <time>2026-06-22T06:25:58Z</time>
   </trkpt>
   <trkpt lat="-3.0979840" lon="37.3355750">
    <ele>4193.7</ele>
    <time>2026-06-22T06:25:59Z</time>
   </trkpt>
   <trkpt lat="-3.0979940" lon="37.3355760">
    <ele>4193.7</ele>
    <time>2026-06-22T06:26:00Z</time>
   </trkpt>
   <trkpt lat="-3.0979990" lon="37.3355750">
    <ele>4193.8</ele>
    <time>2026-06-22T06:26:01Z</time>
   </trkpt>
   <trkpt lat="-3.0980070" lon="37.3355730">
    <ele>4193.8</ele>
    <time>2026-06-22T06:26:02Z</time>
   </trkpt>
   <trkpt lat="-3.0980110" lon="37.3355690">
    <ele>4193.9</ele>
    <time>2026-06-22T06:26:03Z</time>
   </trkpt>
   <trkpt lat="-3.0980170" lon="37.3355640">
    <ele>4193.9</ele>
    <time>2026-06-22T06:26:04Z</time>
   </trkpt>
   <trkpt lat="-3.0980220" lon="37.3355620">
    <ele>4193.9</ele>
    <time>2026-06-22T06:26:05Z</time>
   </trkpt>
   <trkpt lat="-3.0980260" lon="37.3355610">
    <ele>4194.0</ele>
    <time>2026-06-22T06:26:06Z</time>
   </trkpt>
   <trkpt lat="-3.0980320" lon="37.3355580">
    <ele>4194.0</ele>
    <time>2026-06-22T06:26:07Z</time>
   </trkpt>
   <trkpt lat="-3.0980360" lon="37.3355570">
    <ele>4194.0</ele>
    <time>2026-06-22T06:26:08Z</time>
   </trkpt>
   <trkpt lat="-3.0980370" lon="37.3355610">
    <ele>4194.1</ele>
    <time>2026-06-22T06:26:09Z</time>
   </trkpt>
   <trkpt lat="-3.0980450" lon="37.3355660">
    <ele>4194.1</ele>
    <time>2026-06-22T06:26:10Z</time>
   </trkpt>
   <trkpt lat="-3.0980480" lon="37.3355730">
    <ele>4194.2</ele>
    <time>2026-06-22T06:26:11Z</time>
   </trkpt>
   <trkpt lat="-3.0980470" lon="37.3355750">
    <ele>4194.2</ele>
    <time>2026-06-22T06:26:12Z</time>
   </trkpt>
   <trkpt lat="-3.0980520" lon="37.3355780">
    <ele>4194.2</ele>
    <time>2026-06-22T06:26:13Z</time>
   </trkpt>
   <trkpt lat="-3.0980610" lon="37.3355860">
    <ele>4194.3</ele>
    <time>2026-06-22T06:26:14Z</time>
   </trkpt>
   <trkpt lat="-3.0980590" lon="37.3355850">
    <ele>4194.3</ele>
    <time>2026-06-22T06:26:15Z</time>
   </trkpt>
   <trkpt lat="-3.0980680" lon="37.3355890">
    <ele>4194.4</ele>
    <time>2026-06-22T06:26:16Z</time>
   </trkpt>
   <trkpt lat="-3.0980730" lon="37.3355890">
    <ele>4194.4</ele>
    <time>2026-06-22T06:26:17Z</time>
   </trkpt>
   <trkpt lat="-3.0980760" lon="37.3355930">
    <ele>4194.4</ele>
    <time>2026-06-22T06:26:18Z</time>
   </trkpt>
   <trkpt lat="-3.0980790" lon="37.3355980">
    <ele>4194.5</ele>
    <time>2026-06-22T06:26:19Z</time>
   </trkpt>
   <trkpt lat="-3.0980820" lon="37.3356050">
    <ele>4194.5</ele>
    <time>2026-06-22T06:26:20Z</time>
   </trkpt>
   <trkpt lat="-3.0980840" lon="37.3356100">
    <ele>4194.6</ele>
    <time>2026-06-22T06:26:21Z</time>
   </trkpt>
   <trkpt lat="-3.0980880" lon="37.3356120">
    <ele>4194.6</ele>
    <time>2026-06-22T06:26:22Z</time>
   </trkpt>
   <trkpt lat="-3.0980940" lon="37.3356140">
    <ele>4194.6</ele>
    <time>2026-06-22T06:26:23Z</time>
   </trkpt>
   <trkpt lat="-3.0981010" lon="37.3356120">
    <ele>4194.7</ele>
    <time>2026-06-22T06:26:24Z</time>
   </trkpt>
   <trkpt lat="-3.0981050" lon="37.3356160">
    <ele>4194.7</ele>
    <time>2026-06-22T06:26:25Z</time>
   </trkpt>
   <trkpt lat="-3.0981120" lon="37.3356200">
    <ele>4194.8</ele>
    <time>2026-06-22T06:26:26Z</time>
   </trkpt>
   <trkpt lat="-3.0981170" lon="37.3356250">
    <ele>4194.8</ele>
    <time>2026-06-22T06:26:27Z</time>
   </trkpt>
   <trkpt lat="-3.0981160" lon="37.3356290">
    <ele>4194.9</ele>
    <time>2026-06-22T06:26:28Z</time>
   </trkpt>
   <trkpt lat="-3.0981170" lon="37.3356360">
    <ele>4194.9</ele>
    <time>2026-06-22T06:26:29Z</time>
   </trkpt>
   <trkpt lat="-3.0981200" lon="37.3356420">
    <ele>4195.0</ele>
    <time>2026-06-22T06:26:30Z</time>
   </trkpt>
   <trkpt lat="-3.0981230" lon="37.3356440">
    <ele>4195.0</ele>
    <time>2026-06-22T06:26:31Z</time>
   </trkpt>
   <trkpt lat="-3.0981290" lon="37.3356460">
    <ele>4195.0</ele>
    <time>2026-06-22T06:26:32Z</time>
   </trkpt>
   <trkpt lat="-3.0981320" lon="37.3356430">
    <ele>4195.1</ele>
    <time>2026-06-22T06:26:33Z</time>
   </trkpt>
   <trkpt lat="-3.0981420" lon="37.3356440">
    <ele>4195.1</ele>
    <time>2026-06-22T06:26:34Z</time>
   </trkpt>
   <trkpt lat="-3.0981450" lon="37.3356440">
    <ele>4195.1</ele>
    <time>2026-06-22T06:26:35Z</time>
   </trkpt>
   <trkpt lat="-3.0981530" lon="37.3356460">
    <ele>4195.2</ele>
    <time>2026-06-22T06:26:36Z</time>
   </trkpt>
   <trkpt lat="-3.0981580" lon="37.3356460">
    <ele>4195.2</ele>
    <time>2026-06-22T06:26:37Z</time>
   </trkpt>
   <trkpt lat="-3.0981690" lon="37.3356450">
    <ele>4195.3</ele>
    <time>2026-06-22T06:26:38Z</time>
   </trkpt>
   <trkpt lat="-3.0981750" lon="37.3356460">
    <ele>4195.4</ele>
    <time>2026-06-22T06:26:39Z</time>
   </trkpt>
   <trkpt lat="-3.0981800" lon="37.3356480">
    <ele>4195.4</ele>
    <time>2026-06-22T06:26:40Z</time>
   </trkpt>
   <trkpt lat="-3.0981870" lon="37.3356500">
    <ele>4195.5</ele>
    <time>2026-06-22T06:26:41Z</time>
   </trkpt>
   <trkpt lat="-3.0981950" lon="37.3356540">
    <ele>4195.6</ele>
    <time>2026-06-22T06:26:42Z</time>
   </trkpt>
   <trkpt lat="-3.0981990" lon="37.3356570">
    <ele>4195.6</ele>
    <time>2026-06-22T06:26:43Z</time>
   </trkpt>
   <trkpt lat="-3.0982040" lon="37.3356570">
    <ele>4195.7</ele>
    <time>2026-06-22T06:26:44Z</time>
   </trkpt>
   <trkpt lat="-3.0982090" lon="37.3356570">
    <ele>4195.7</ele>
    <time>2026-06-22T06:26:45Z</time>
   </trkpt>
   <trkpt lat="-3.0982180" lon="37.3356590">
    <ele>4195.8</ele>
    <time>2026-06-22T06:26:46Z</time>
   </trkpt>
   <trkpt lat="-3.0982220" lon="37.3356600">
    <ele>4195.9</ele>
    <time>2026-06-22T06:26:47Z</time>
   </trkpt>
   <trkpt lat="-3.0982280" lon="37.3356610">
    <ele>4195.9</ele>
    <time>2026-06-22T06:26:48Z</time>
   </trkpt>
   <trkpt lat="-3.0982270" lon="37.3356630">
    <ele>4195.9</ele>
    <time>2026-06-22T06:26:49Z</time>
   </trkpt>
   <trkpt lat="-3.0982350" lon="37.3356640">
    <ele>4196.0</ele>
    <time>2026-06-22T06:26:50Z</time>
   </trkpt>
   <trkpt lat="-3.0982460" lon="37.3356690">
    <ele>4196.1</ele>
    <time>2026-06-22T06:26:51Z</time>
   </trkpt>
   <trkpt lat="-3.0982480" lon="37.3356690">
    <ele>4196.2</ele>
    <time>2026-06-22T06:26:52Z</time>
   </trkpt>
   <trkpt lat="-3.0982540" lon="37.3356710">
    <ele>4196.2</ele>
    <time>2026-06-22T06:26:53Z</time>
   </trkpt>
   <trkpt lat="-3.0982580" lon="37.3356770">
    <ele>4196.3</ele>
    <time>2026-06-22T06:26:54Z</time>
   </trkpt>
   <trkpt lat="-3.0982580" lon="37.3356790">
    <ele>4196.3</ele>
    <time>2026-06-22T06:26:55Z</time>
   </trkpt>
   <trkpt lat="-3.0982690" lon="37.3356760">
    <ele>4196.5</ele>
    <time>2026-06-22T06:26:56Z</time>
   </trkpt>
   <trkpt lat="-3.0982740" lon="37.3356730">
    <ele>4196.6</ele>
    <time>2026-06-22T06:26:57Z</time>
   </trkpt>
   <trkpt lat="-3.0982780" lon="37.3356700">
    <ele>4196.6</ele>
    <time>2026-06-22T06:26:58Z</time>
   </trkpt>
   <trkpt lat="-3.0982780" lon="37.3356710">
    <ele>4196.6</ele>
    <time>2026-06-22T06:26:59Z</time>
   </trkpt>
   <trkpt lat="-3.0982840" lon="37.3356730">
    <ele>4196.7</ele>
    <time>2026-06-22T06:27:00Z</time>
   </trkpt>
   <trkpt lat="-3.0982870" lon="37.3356690">
    <ele>4196.8</ele>
    <time>2026-06-22T06:27:01Z</time>
   </trkpt>
   <trkpt lat="-3.0982940" lon="37.3356730">
    <ele>4196.9</ele>
    <time>2026-06-22T06:27:02Z</time>
   </trkpt>
   <trkpt lat="-3.0982940" lon="37.3356710">
    <ele>4196.9</ele>
    <time>2026-06-22T06:27:03Z</time>
   </trkpt>
   <trkpt lat="-3.0982940" lon="37.3356700">
    <ele>4196.9</ele>
    <time>2026-06-22T06:27:04Z</time>
   </trkpt>
   <trkpt lat="-3.0982960" lon="37.3356680">
    <ele>4196.9</ele>
    <time>2026-06-22T06:27:05Z</time>
   </trkpt>
   <trkpt lat="-3.0983080" lon="37.3356540">
    <ele>4197.2</ele>
    <time>2026-06-22T06:27:06Z</time>
   </trkpt>
   <trkpt lat="-3.0983070" lon="37.3356500">
    <ele>4197.2</ele>
    <time>2026-06-22T06:27:07Z</time>
   </trkpt>
   <trkpt lat="-3.0983050" lon="37.3356560">
    <ele>4197.3</ele>
    <time>2026-06-22T06:27:08Z</time>
   </trkpt>
   <trkpt lat="-3.0983040" lon="37.3356550">
    <ele>4197.3</ele>
    <time>2026-06-22T06:27:09Z</time>
   </trkpt>
   <trkpt lat="-3.0983050" lon="37.3356560">
    <ele>4197.4</ele>
    <time>2026-06-22T06:27:10Z</time>
   </trkpt>
   <trkpt lat="-3.0983050" lon="37.3356580">
    <ele>4197.4</ele>
    <time>2026-06-22T06:27:11Z</time>
   </trkpt>
   <trkpt lat="-3.0983050" lon="37.3356590">
    <ele>4197.4</ele>
    <time>2026-06-22T06:27:12Z</time>
   </trkpt>
   <trkpt lat="-3.0983050" lon="37.3356600">
    <ele>4197.4</ele>
    <time>2026-06-22T06:27:13Z</time>
   </trkpt>
   <trkpt lat="-3.0983050" lon="37.3356630">
    <ele>4197.5</ele>
    <time>2026-06-22T06:27:14Z</time>
   </trkpt>
   <trkpt lat="-3.0983080" lon="37.3356680">
    <ele>4197.5</ele>
    <time>2026-06-22T06:27:15Z</time>
   </trkpt>
   <trkpt lat="-3.0983110" lon="37.3356720">
    <ele>4197.6</ele>
    <time>2026-06-22T06:27:16Z</time>
   </trkpt>
   <trkpt lat="-3.0983150" lon="37.3356730">
    <ele>4197.7</ele>
    <time>2026-06-22T06:27:17Z</time>
   </trkpt>
   <trkpt lat="-3.0983180" lon="37.3356760">
    <ele>4197.8</ele>
    <time>2026-06-22T06:27:18Z</time>
   </trkpt>
   <trkpt lat="-3.0983210" lon="37.3356730">
    <ele>4197.8</ele>
    <time>2026-06-22T06:27:19Z</time>
   </trkpt>
   <trkpt lat="-3.0983230" lon="37.3356750">
    <ele>4197.9</ele>
    <time>2026-06-22T06:27:20Z</time>
   </trkpt>
   <trkpt lat="-3.0983260" lon="37.3356760">
    <ele>4197.9</ele>
    <time>2026-06-22T06:27:21Z</time>
   </trkpt>
   <trkpt lat="-3.0983290" lon="37.3356790">
    <ele>4198.0</ele>
    <time>2026-06-22T06:27:22Z</time>
   </trkpt>
   <trkpt lat="-3.0983330" lon="37.3356790">
    <ele>4198.0</ele>
    <time>2026-06-22T06:27:23Z</time>
   </trkpt>
   <trkpt lat="-3.0983360" lon="37.3356810">
    <ele>4198.1</ele>
    <time>2026-06-22T06:27:24Z</time>
   </trkpt>
   <trkpt lat="-3.0983410" lon="37.3356810">
    <ele>4198.2</ele>
    <time>2026-06-22T06:27:25Z</time>
   </trkpt>
   <trkpt lat="-3.0983410" lon="37.3356810">
    <ele>4198.2</ele>
    <time>2026-06-22T06:27:26Z</time>
   </trkpt>
   <trkpt lat="-3.0983400" lon="37.3356820">
    <ele>4198.2</ele>
    <time>2026-06-22T06:27:27Z</time>
   </trkpt>
   <trkpt lat="-3.0983370" lon="37.3356830">
    <ele>4198.2</ele>
    <time>2026-06-22T06:27:28Z</time>
   </trkpt>
   <trkpt lat="-3.0983350" lon="37.3356840">
    <ele>4198.3</ele>
    <time>2026-06-22T06:27:29Z</time>
   </trkpt>
   <trkpt lat="-3.0983360" lon="37.3356900">
    <ele>4198.4</ele>
    <time>2026-06-22T06:27:30Z</time>
   </trkpt>
   <trkpt lat="-3.0983350" lon="37.3356840">
    <ele>4198.5</ele>
    <time>2026-06-22T06:27:31Z</time>
   </trkpt>
   <trkpt lat="-3.0983330" lon="37.3356820">
    <ele>4198.5</ele>
    <time>2026-06-22T06:27:32Z</time>
   </trkpt>
   <trkpt lat="-3.0983410" lon="37.3356860">
    <ele>4198.6</ele>
    <time>2026-06-22T06:27:33Z</time>
   </trkpt>
   <trkpt lat="-3.0983400" lon="37.3356880">
    <ele>4198.7</ele>
    <time>2026-06-22T06:27:34Z</time>
   </trkpt>
   <trkpt lat="-3.0983370" lon="37.3356920">
    <ele>4198.8</ele>
    <time>2026-06-22T06:27:35Z</time>
   </trkpt>
   <trkpt lat="-3.0983370" lon="37.3356910">
    <ele>4198.8</ele>
    <time>2026-06-22T06:27:36Z</time>
   </trkpt>
   <trkpt lat="-3.0983380" lon="37.3356890">
    <ele>4198.8</ele>
    <time>2026-06-22T06:27:37Z</time>
   </trkpt>
   <trkpt lat="-3.0983380" lon="37.3356900">
    <ele>4198.8</ele>
    <time>2026-06-22T06:27:38Z</time>
   </trkpt>
   <trkpt lat="-3.0983380" lon="37.3356940">
    <ele>4198.9</ele>
    <time>2026-06-22T06:27:39Z</time>
   </trkpt>
   <trkpt lat="-3.0983360" lon="37.3356930">
    <ele>4198.9</ele>
    <time>2026-06-22T06:27:40Z</time>
   </trkpt>
   <trkpt lat="-3.0983360" lon="37.3356940">
    <ele>4199.0</ele>
    <time>2026-06-22T06:27:41Z</time>
   </trkpt>
   <trkpt lat="-3.0983350" lon="37.3356980">
    <ele>4199.0</ele>
    <time>2026-06-22T06:27:42Z</time>
   </trkpt>
   <trkpt lat="-3.0983350" lon="37.3356930">
    <ele>4199.1</ele>
    <time>2026-06-22T06:27:43Z</time>
   </trkpt>
   <trkpt lat="-3.0983370" lon="37.3356940">
    <ele>4199.1</ele>
    <time>2026-06-22T06:27:44Z</time>
   </trkpt>
   <trkpt lat="-3.0983360" lon="37.3356950">
    <ele>4199.2</ele>
    <time>2026-06-22T06:27:45Z</time>
   </trkpt>
   <trkpt lat="-3.0983370" lon="37.3356990">
    <ele>4199.2</ele>
    <time>2026-06-22T06:27:46Z</time>
   </trkpt>
   <trkpt lat="-3.0983320" lon="37.3357000">
    <ele>4199.3</ele>
    <time>2026-06-22T06:27:47Z</time>
   </trkpt>
   <trkpt lat="-3.0983410" lon="37.3357050">
    <ele>4199.5</ele>
    <time>2026-06-22T06:27:48Z</time>
   </trkpt>
   <trkpt lat="-3.0983350" lon="37.3357030">
    <ele>4199.6</ele>
    <time>2026-06-22T06:27:49Z</time>
   </trkpt>
   <trkpt lat="-3.0983350" lon="37.3357050">
    <ele>4199.6</ele>
    <time>2026-06-22T06:27:50Z</time>
   </trkpt>
   <trkpt lat="-3.0983340" lon="37.3357080">
    <ele>4199.7</ele>
    <time>2026-06-22T06:27:51Z</time>
   </trkpt>
   <trkpt lat="-3.0983380" lon="37.3357100">
    <ele>4199.8</ele>
    <time>2026-06-22T06:27:52Z</time>
   </trkpt>
   <trkpt lat="-3.0983370" lon="37.3357050">
    <ele>4199.9</ele>
    <time>2026-06-22T06:27:53Z</time>
   </trkpt>
   <trkpt lat="-3.0983350" lon="37.3357070">
    <ele>4199.9</ele>
    <time>2026-06-22T06:27:54Z</time>
   </trkpt>
   <trkpt lat="-3.0983330" lon="37.3357100">
    <ele>4200.0</ele>
    <time>2026-06-22T06:27:55Z</time>
   </trkpt>
   <trkpt lat="-3.0983320" lon="37.3357100">
    <ele>4200.0</ele>
    <time>2026-06-22T06:27:56Z</time>
   </trkpt>
   <trkpt lat="-3.0983300" lon="37.3357090">
    <ele>4200.0</ele>
    <time>2026-06-22T06:27:57Z</time>
   </trkpt>
   <trkpt lat="-3.0983300" lon="37.3357090">
    <ele>4200.0</ele>
    <time>2026-06-22T06:27:58Z</time>
   </trkpt>
   <trkpt lat="-3.0983300" lon="37.3357090">
    <ele>4200.0</ele>
    <time>2026-06-22T06:27:59Z</time>
   </trkpt>
   <trkpt lat="-3.0983300" lon="37.3357090">
    <ele>4200.0</ele>
    <time>2026-06-22T06:28:00Z</time>
   </trkpt>
   <trkpt lat="-3.0983300" lon="37.3357090">
    <ele>4200.0</ele>
    <time>2026-06-22T06:28:01Z</time>
   </trkpt>
   <trkpt lat="-3.0983280" lon="37.3357080">
    <ele>4200.1</ele>
    <time>2026-06-22T06:28:02Z</time>
   </trkpt>
   <trkpt lat="-3.0983270" lon="37.3357080">
    <ele>4200.1</ele>
    <time>2026-06-22T06:28:03Z</time>
   </trkpt>
   <trkpt lat="-3.0983280" lon="37.3357090">
    <ele>4200.1</ele>
    <time>2026-06-22T06:28:04Z</time>
   </trkpt>
   <trkpt lat="-3.0983180" lon="37.3357090">
    <ele>4200.3</ele>
    <time>2026-06-22T06:28:05Z</time>
   </trkpt>
   <trkpt lat="-3.0983180" lon="37.3357090">
    <ele>4200.3</ele>
    <time>2026-06-22T06:28:06Z</time>
   </trkpt>
   <trkpt lat="-3.0983170" lon="37.3357100">
    <ele>4200.3</ele>
    <time>2026-06-22T06:28:07Z</time>
   </trkpt>
   <trkpt lat="-3.0983170" lon="37.3357080">
    <ele>4200.3</ele>
    <time>2026-06-22T06:28:08Z</time>
   </trkpt>
   <trkpt lat="-3.0983170" lon="37.3357070">
    <ele>4200.3</ele>
    <time>2026-06-22T06:28:09Z</time>
   </trkpt>
   <trkpt lat="-3.0983160" lon="37.3357070">
    <ele>4200.4</ele>
    <time>2026-06-22T06:28:10Z</time>
   </trkpt>
   <trkpt lat="-3.0983160" lon="37.3357070">
    <ele>4200.4</ele>
    <time>2026-06-22T06:28:11Z</time>
   </trkpt>
   <trkpt lat="-3.0983160" lon="37.3357050">
    <ele>4200.4</ele>
    <time>2026-06-22T06:28:12Z</time>
   </trkpt>
   <trkpt lat="-3.0983150" lon="37.3357070">
    <ele>4200.4</ele>
    <time>2026-06-22T06:28:13Z</time>
   </trkpt>
   <trkpt lat="-3.0983140" lon="37.3357090">
    <ele>4200.5</ele>
    <time>2026-06-22T06:28:14Z</time>
   </trkpt>
   <trkpt lat="-3.0983120" lon="37.3357130">
    <ele>4200.5</ele>
    <time>2026-06-22T06:28:15Z</time>
   </trkpt>
   <trkpt lat="-3.0983120" lon="37.3357140">
    <ele>4200.6</ele>
    <time>2026-06-22T06:28:16Z</time>
   </trkpt>
   <trkpt lat="-3.0983130" lon="37.3357130">
    <ele>4200.6</ele>
    <time>2026-06-22T06:28:17Z</time>
   </trkpt>
   <trkpt lat="-3.0983130" lon="37.3357130">
    <ele>4200.6</ele>
    <time>2026-06-22T06:28:18Z</time>
   </trkpt>
   <trkpt lat="-3.0983110" lon="37.3357200">
    <ele>4200.7</ele>
    <time>2026-06-22T06:28:19Z</time>
   </trkpt>
   <trkpt lat="-3.0983060" lon="37.3357240">
    <ele>4200.8</ele>
    <time>2026-06-22T06:28:20Z</time>
   </trkpt>
   <trkpt lat="-3.0983100" lon="37.3357170">
    <ele>4201.0</ele>
    <time>2026-06-22T06:28:21Z</time>
   </trkpt>
   <trkpt lat="-3.0983100" lon="37.3357210">
    <ele>4201.0</ele>
    <time>2026-06-22T06:28:22Z</time>
   </trkpt>
   <trkpt lat="-3.0983070" lon="37.3357260">
    <ele>4201.1</ele>
    <time>2026-06-22T06:28:23Z</time>
   </trkpt>
   <trkpt lat="-3.0983070" lon="37.3357280">
    <ele>4201.2</ele>
    <time>2026-06-22T06:28:24Z</time>
   </trkpt>
   <trkpt lat="-3.0983080" lon="37.3357230">
    <ele>4201.2</ele>
    <time>2026-06-22T06:28:25Z</time>
   </trkpt>
   <trkpt lat="-3.0983080" lon="37.3357240">
    <ele>4201.3</ele>
    <time>2026-06-22T06:28:26Z</time>
   </trkpt>
   <trkpt lat="-3.0983090" lon="37.3357210">
    <ele>4201.3</ele>
    <time>2026-06-22T06:28:27Z</time>
   </trkpt>
   <trkpt lat="-3.0983100" lon="37.3357190">
    <ele>4201.4</ele>
    <time>2026-06-22T06:28:28Z</time>
   </trkpt>
   <trkpt lat="-3.0983060" lon="37.3357210">
    <ele>4201.4</ele>
    <time>2026-06-22T06:28:29Z</time>
   </trkpt>
   <trkpt lat="-3.0983030" lon="37.3357190">
    <ele>4201.5</ele>
    <time>2026-06-22T06:28:30Z</time>
   </trkpt>
   <trkpt lat="-3.0983020" lon="37.3357190">
    <ele>4201.5</ele>
    <time>2026-06-22T06:28:31Z</time>
   </trkpt>
   <trkpt lat="-3.0983030" lon="37.3357200">
    <ele>4201.5</ele>
    <time>2026-06-22T06:28:32Z</time>
   </trkpt>
   <trkpt lat="-3.0983030" lon="37.3357210">
    <ele>4201.5</ele>
    <time>2026-06-22T06:28:33Z</time>
   </trkpt>
   <trkpt lat="-3.0983040" lon="37.3357200">
    <ele>4201.6</ele>
    <time>2026-06-22T06:28:34Z</time>
   </trkpt>
   <trkpt lat="-3.0983050" lon="37.3357210">
    <ele>4201.6</ele>
    <time>2026-06-22T06:28:35Z</time>
   </trkpt>
   <trkpt lat="-3.0983050" lon="37.3357210">
    <ele>4201.6</ele>
    <time>2026-06-22T06:28:36Z</time>
   </trkpt>
   <trkpt lat="-3.0983070" lon="37.3357170">
    <ele>4201.7</ele>
    <time>2026-06-22T06:28:37Z</time>
   </trkpt>
   <trkpt lat="-3.0983070" lon="37.3357170">
    <ele>4201.7</ele>
    <time>2026-06-22T06:28:38Z</time>
   </trkpt>
   <trkpt lat="-3.0983070" lon="37.3357170">
    <ele>4201.7</ele>
    <time>2026-06-22T06:28:39Z</time>
   </trkpt>
   <trkpt lat="-3.0983100" lon="37.3357170">
    <ele>4201.7</ele>
    <time>2026-06-22T06:28:40Z</time>
   </trkpt>
   <trkpt lat="-3.0983120" lon="37.3357160">
    <ele>4201.8</ele>
    <time>2026-06-22T06:28:41Z</time>
   </trkpt>
   <trkpt lat="-3.0983120" lon="37.3357160">
    <ele>4201.8</ele>
    <time>2026-06-22T06:28:42Z</time>
   </trkpt>
   <trkpt lat="-3.0983130" lon="37.3357160">
    <ele>4201.8</ele>
    <time>2026-06-22T06:28:43Z</time>
   </trkpt>
   <trkpt lat="-3.0983130" lon="37.3357160">
    <ele>4201.8</ele>
    <time>2026-06-22T06:28:44Z</time>
   </trkpt>
   <trkpt lat="-3.0983130" lon="37.3357160">
    <ele>4201.8</ele>
    <time>2026-06-22T06:28:45Z</time>
   </trkpt>
   <trkpt lat="-3.0983130" lon="37.3357160">
    <ele>4201.8</ele>
    <time>2026-06-22T06:28:46Z</time>
   </trkpt>
   <trkpt lat="-3.0983140" lon="37.3357170">
    <ele>4201.8</ele>
    <time>2026-06-22T06:28:47Z</time>
   </trkpt>
   <trkpt lat="-3.0983140" lon="37.3357170">
    <ele>4201.8</ele>
    <time>2026-06-22T06:28:48Z</time>
   </trkpt>
   <trkpt lat="-3.0983160" lon="37.3357160">
    <ele>4201.8</ele>
    <time>2026-06-22T06:28:49Z</time>
   </trkpt>
   <trkpt lat="-3.0983190" lon="37.3357150">
    <ele>4201.9</ele>
    <time>2026-06-22T06:28:50Z</time>
   </trkpt>
   <trkpt lat="-3.0983190" lon="37.3357190">
    <ele>4202.0</ele>
    <time>2026-06-22T06:28:51Z</time>
   </trkpt>
   <trkpt lat="-3.0983210" lon="37.3357180">
    <ele>4202.0</ele>
    <time>2026-06-22T06:28:52Z</time>
   </trkpt>
   <trkpt lat="-3.0983230" lon="37.3357170">
    <ele>4202.0</ele>
    <time>2026-06-22T06:28:53Z</time>
   </trkpt>
   <trkpt lat="-3.0983230" lon="37.3357180">
    <ele>4202.1</ele>
    <time>2026-06-22T06:28:54Z</time>
   </trkpt>
   <trkpt lat="-3.0983250" lon="37.3357180">
    <ele>4202.1</ele>
    <time>2026-06-22T06:28:55Z</time>
   </trkpt>
   <trkpt lat="-3.0983240" lon="37.3357190">
    <ele>4202.1</ele>
    <time>2026-06-22T06:28:56Z</time>
   </trkpt>
   <trkpt lat="-3.0983230" lon="37.3357210">
    <ele>4202.1</ele>
    <time>2026-06-22T06:28:57Z</time>
   </trkpt>
   <trkpt lat="-3.0983240" lon="37.3357220">
    <ele>4202.2</ele>
    <time>2026-06-22T06:28:58Z</time>
   </trkpt>
   <trkpt lat="-3.0983270" lon="37.3357230">
    <ele>4202.2</ele>
    <time>2026-06-22T06:28:59Z</time>
   </trkpt>
   <trkpt lat="-3.0983270" lon="37.3357230">
    <ele>4202.2</ele>
    <time>2026-06-22T06:29:00Z</time>
   </trkpt>
   <trkpt lat="-3.0983280" lon="37.3357260">
    <ele>4202.3</ele>
    <time>2026-06-22T06:29:01Z</time>
   </trkpt>
   <trkpt lat="-3.0983260" lon="37.3357270">
    <ele>4202.3</ele>
    <time>2026-06-22T06:29:02Z</time>
   </trkpt>
   <trkpt lat="-3.0983260" lon="37.3357270">
    <ele>4202.3</ele>
    <time>2026-06-22T06:29:03Z</time>
   </trkpt>
   <trkpt lat="-3.0983270" lon="37.3357270">
    <ele>4202.3</ele>
    <time>2026-06-22T06:29:04Z</time>
   </trkpt>
   <trkpt lat="-3.0983280" lon="37.3357300">
    <ele>4202.4</ele>
    <time>2026-06-22T06:29:05Z</time>
   </trkpt>
   <trkpt lat="-3.0983300" lon="37.3357300">
    <ele>4202.4</ele>
    <time>2026-06-22T06:29:06Z</time>
   </trkpt>
   <trkpt lat="-3.0983350" lon="37.3357370">
    <ele>4202.6</ele>
    <time>2026-06-22T06:29:07Z</time>
   </trkpt>
   <trkpt lat="-3.0983330" lon="37.3357360">
    <ele>4202.6</ele>
    <time>2026-06-22T06:29:08Z</time>
   </trkpt>
   <trkpt lat="-3.0983320" lon="37.3357370">
    <ele>4202.6</ele>
    <time>2026-06-22T06:29:09Z</time>
   </trkpt>
   <trkpt lat="-3.0983290" lon="37.3357370">
    <ele>4202.7</ele>
    <time>2026-06-22T06:29:10Z</time>
   </trkpt>
   <trkpt lat="-3.0983230" lon="37.3357420">
    <ele>4202.8</ele>
    <time>2026-06-22T06:29:11Z</time>
   </trkpt>
   <trkpt lat="-3.0983240" lon="37.3357480">
    <ele>4202.9</ele>
    <time>2026-06-22T06:29:12Z</time>
   </trkpt>
   <trkpt lat="-3.0983200" lon="37.3357520">
    <ele>4203.0</ele>
    <time>2026-06-22T06:29:13Z</time>
   </trkpt>
   <trkpt lat="-3.0983170" lon="37.3357560">
    <ele>4203.1</ele>
    <time>2026-06-22T06:29:14Z</time>
   </trkpt>
   <trkpt lat="-3.0983140" lon="37.3357590">
    <ele>4203.2</ele>
    <time>2026-06-22T06:29:15Z</time>
   </trkpt>
   <trkpt lat="-3.0983120" lon="37.3357610">
    <ele>4203.2</ele>
    <time>2026-06-22T06:29:16Z</time>
   </trkpt>
   <trkpt lat="-3.0983090" lon="37.3357650">
    <ele>4203.3</ele>
    <time>2026-06-22T06:29:17Z</time>
   </trkpt>
   <trkpt lat="-3.0983070" lon="37.3357690">
    <ele>4203.4</ele>
    <time>2026-06-22T06:29:18Z</time>
   </trkpt>
   <trkpt lat="-3.0982980" lon="37.3357740">
    <ele>4203.5</ele>
    <time>2026-06-22T06:29:19Z</time>
   </trkpt>
   <trkpt lat="-3.0983030" lon="37.3357800">
    <ele>4203.7</ele>
    <time>2026-06-22T06:29:20Z</time>
   </trkpt>
   <trkpt lat="-3.0983170" lon="37.3357730">
    <ele>4203.9</ele>
    <time>2026-06-22T06:29:21Z</time>
   </trkpt>
   <trkpt lat="-3.0983220" lon="37.3357730">
    <ele>4204.0</ele>
    <time>2026-06-22T06:29:22Z</time>
   </trkpt>
   <trkpt lat="-3.0983210" lon="37.3357720">
    <ele>4204.0</ele>
    <time>2026-06-22T06:29:23Z</time>
   </trkpt>
   <trkpt lat="-3.0983210" lon="37.3357740">
    <ele>4204.0</ele>
    <time>2026-06-22T06:29:24Z</time>
   </trkpt>
   <trkpt lat="-3.0983220" lon="37.3357750">
    <ele>4204.0</ele>
    <time>2026-06-22T06:29:25Z</time>
   </trkpt>
   <trkpt lat="-3.0983260" lon="37.3357760">
    <ele>4204.1</ele>
    <time>2026-06-22T06:29:26Z</time>
   </trkpt>
   <trkpt lat="-3.0983280" lon="37.3357780">
    <ele>4204.1</ele>
    <time>2026-06-22T06:29:27Z</time>
   </trkpt>
   <trkpt lat="-3.0983320" lon="37.3357780">
    <ele>4204.2</ele>
    <time>2026-06-22T06:29:28Z</time>
   </trkpt>
   <trkpt lat="-3.0983300" lon="37.3357780">
    <ele>4204.2</ele>
    <time>2026-06-22T06:29:29Z</time>
   </trkpt>
   <trkpt lat="-3.0983320" lon="37.3357780">
    <ele>4204.3</ele>
    <time>2026-06-22T06:29:30Z</time>
   </trkpt>
   <trkpt lat="-3.0983320" lon="37.3357790">
    <ele>4204.3</ele>
    <time>2026-06-22T06:29:31Z</time>
   </trkpt>
   <trkpt lat="-3.0983370" lon="37.3357780">
    <ele>4204.4</ele>
    <time>2026-06-22T06:29:32Z</time>
   </trkpt>
   <trkpt lat="-3.0983510" lon="37.3357730">
    <ele>4204.6</ele>
    <time>2026-06-22T06:29:33Z</time>
   </trkpt>
   <trkpt lat="-3.0983460" lon="37.3357770">
    <ele>4204.7</ele>
    <time>2026-06-22T06:29:34Z</time>
   </trkpt>
   <trkpt lat="-3.0983480" lon="37.3357770">
    <ele>4204.7</ele>
    <time>2026-06-22T06:29:35Z</time>
   </trkpt>
   <trkpt lat="-3.0983560" lon="37.3357780">
    <ele>4204.8</ele>
    <time>2026-06-22T06:29:36Z</time>
   </trkpt>
   <trkpt lat="-3.0983570" lon="37.3357780">
    <ele>4204.8</ele>
    <time>2026-06-22T06:29:37Z</time>
   </trkpt>
   <trkpt lat="-3.0983630" lon="37.3357770">
    <ele>4204.9</ele>
    <time>2026-06-22T06:29:38Z</time>
   </trkpt>
   <trkpt lat="-3.0983700" lon="37.3357780">
    <ele>4205.0</ele>
    <time>2026-06-22T06:29:39Z</time>
   </trkpt>
   <trkpt lat="-3.0983750" lon="37.3357770">
    <ele>4205.1</ele>
    <time>2026-06-22T06:29:40Z</time>
   </trkpt>
   <trkpt lat="-3.0983800" lon="37.3357750">
    <ele>4205.2</ele>
    <time>2026-06-22T06:29:41Z</time>
   </trkpt>
   <trkpt lat="-3.0983830" lon="37.3357730">
    <ele>4205.2</ele>
    <time>2026-06-22T06:29:42Z</time>
   </trkpt>
   <trkpt lat="-3.0983910" lon="37.3357730">
    <ele>4205.3</ele>
    <time>2026-06-22T06:29:43Z</time>
   </trkpt>
   <trkpt lat="-3.0983960" lon="37.3357700">
    <ele>4205.4</ele>
    <time>2026-06-22T06:29:44Z</time>
   </trkpt>
   <trkpt lat="-3.0984010" lon="37.3357690">
    <ele>4205.4</ele>
    <time>2026-06-22T06:29:45Z</time>
   </trkpt>
   <trkpt lat="-3.0984030" lon="37.3357680">
    <ele>4205.5</ele>
    <time>2026-06-22T06:29:46Z</time>
   </trkpt>
   <trkpt lat="-3.0984070" lon="37.3357670">
    <ele>4205.5</ele>
    <time>2026-06-22T06:29:47Z</time>
   </trkpt>
   <trkpt lat="-3.0984090" lon="37.3357680">
    <ele>4205.6</ele>
    <time>2026-06-22T06:29:48Z</time>
   </trkpt>
   <trkpt lat="-3.0984160" lon="37.3357710">
    <ele>4205.7</ele>
    <time>2026-06-22T06:29:49Z</time>
   </trkpt>
   <trkpt lat="-3.0984210" lon="37.3357710">
    <ele>4205.7</ele>
    <time>2026-06-22T06:29:50Z</time>
   </trkpt>
   <trkpt lat="-3.0984230" lon="37.3357710">
    <ele>4205.7</ele>
    <time>2026-06-22T06:29:51Z</time>
   </trkpt>
   <trkpt lat="-3.0984250" lon="37.3357710">
    <ele>4205.8</ele>
    <time>2026-06-22T06:29:52Z</time>
   </trkpt>
   <trkpt lat="-3.0984230" lon="37.3357710">
    <ele>4205.8</ele>
    <time>2026-06-22T06:29:53Z</time>
   </trkpt>
   <trkpt lat="-3.0984220" lon="37.3357720">
    <ele>4205.8</ele>
    <time>2026-06-22T06:29:54Z</time>
   </trkpt>
   <trkpt lat="-3.0984230" lon="37.3357730">
    <ele>4205.8</ele>
    <time>2026-06-22T06:29:55Z</time>
   </trkpt>
   <trkpt lat="-3.0984230" lon="37.3357730">
    <ele>4205.8</ele>
    <time>2026-06-22T06:29:56Z</time>
   </trkpt>
   <trkpt lat="-3.0984290" lon="37.3357760">
    <ele>4205.9</ele>
    <time>2026-06-22T06:29:57Z</time>
   </trkpt>
   <trkpt lat="-3.0984300" lon="37.3357780">
    <ele>4206.0</ele>
    <time>2026-06-22T06:29:58Z</time>
   </trkpt>
   <trkpt lat="-3.0984300" lon="37.3357780">
    <ele>4206.0</ele>
    <time>2026-06-22T06:29:59Z</time>
   </trkpt>
   <trkpt lat="-3.0984320" lon="37.3357810">
    <ele>4206.0</ele>
    <time>2026-06-22T06:30:00Z</time>
   </trkpt>
   <trkpt lat="-3.0984330" lon="37.3357810">
    <ele>4206.0</ele>
    <time>2026-06-22T06:30:01Z</time>
   </trkpt>
   <trkpt lat="-3.0984360" lon="37.3357820">
    <ele>4206.0</ele>
    <time>2026-06-22T06:30:02Z</time>
   </trkpt>
   <trkpt lat="-3.0984380" lon="37.3357830">
    <ele>4206.1</ele>
    <time>2026-06-22T06:30:03Z</time>
   </trkpt>
   <trkpt lat="-3.0984410" lon="37.3357840">
    <ele>4206.1</ele>
    <time>2026-06-22T06:30:04Z</time>
   </trkpt>
   <trkpt lat="-3.0984460" lon="37.3357830">
    <ele>4206.2</ele>
    <time>2026-06-22T06:30:05Z</time>
   </trkpt>
   <trkpt lat="-3.0984460" lon="37.3357860">
    <ele>4206.2</ele>
    <time>2026-06-22T06:30:06Z</time>
   </trkpt>
   <trkpt lat="-3.0984500" lon="37.3357900">
    <ele>4206.2</ele>
    <time>2026-06-22T06:30:07Z</time>
   </trkpt>
   <trkpt lat="-3.0984520" lon="37.3357900">
    <ele>4206.3</ele>
    <time>2026-06-22T06:30:08Z</time>
   </trkpt>
   <trkpt lat="-3.0984520" lon="37.3357900">
    <ele>4206.3</ele>
    <time>2026-06-22T06:30:09Z</time>
   </trkpt>
   <trkpt lat="-3.0984520" lon="37.3357900">
    <ele>4206.3</ele>
    <time>2026-06-22T06:30:10Z</time>
   </trkpt>
   <trkpt lat="-3.0984520" lon="37.3357930">
    <ele>4206.3</ele>
    <time>2026-06-22T06:30:11Z</time>
   </trkpt>
   <trkpt lat="-3.0984520" lon="37.3357930">
    <ele>4206.3</ele>
    <time>2026-06-22T06:30:12Z</time>
   </trkpt>
   <trkpt lat="-3.0984520" lon="37.3357940">
    <ele>4206.3</ele>
    <time>2026-06-22T06:30:13Z</time>
   </trkpt>
   <trkpt lat="-3.0984520" lon="37.3357950">
    <ele>4206.3</ele>
    <time>2026-06-22T06:30:14Z</time>
   </trkpt>
   <trkpt lat="-3.0984520" lon="37.3357960">
    <ele>4206.3</ele>
    <time>2026-06-22T06:30:15Z</time>
   </trkpt>
   <trkpt lat="-3.0984530" lon="37.3357990">
    <ele>4206.3</ele>
    <time>2026-06-22T06:30:16Z</time>
   </trkpt>
   <trkpt lat="-3.0984580" lon="37.3358000">
    <ele>4206.4</ele>
    <time>2026-06-22T06:30:17Z</time>
   </trkpt>
   <trkpt lat="-3.0984550" lon="37.3358040">
    <ele>4206.4</ele>
    <time>2026-06-22T06:30:18Z</time>
   </trkpt>
   <trkpt lat="-3.0984550" lon="37.3358060">
    <ele>4206.5</ele>
    <time>2026-06-22T06:30:19Z</time>
   </trkpt>
   <trkpt lat="-3.0984570" lon="37.3358070">
    <ele>4206.5</ele>
    <time>2026-06-22T06:30:20Z</time>
   </trkpt>
   <trkpt lat="-3.0984580" lon="37.3358070">
    <ele>4206.5</ele>
    <time>2026-06-22T06:30:21Z</time>
   </trkpt>
   <trkpt lat="-3.0984570" lon="37.3358080">
    <ele>4206.5</ele>
    <time>2026-06-22T06:30:22Z</time>
   </trkpt>
   <trkpt lat="-3.0984580" lon="37.3358090">
    <ele>4206.5</ele>
    <time>2026-06-22T06:30:23Z</time>
   </trkpt>
   <trkpt lat="-3.0984580" lon="37.3358090">
    <ele>4206.5</ele>
    <time>2026-06-22T06:30:24Z</time>
   </trkpt>
   <trkpt lat="-3.0984580" lon="37.3358130">
    <ele>4206.6</ele>
    <time>2026-06-22T06:30:25Z</time>
   </trkpt>
   <trkpt lat="-3.0984610" lon="37.3358140">
    <ele>4206.6</ele>
    <time>2026-06-22T06:30:26Z</time>
   </trkpt>
   <trkpt lat="-3.0984590" lon="37.3358200">
    <ele>4206.7</ele>
    <time>2026-06-22T06:30:27Z</time>
   </trkpt>
   <trkpt lat="-3.0984570" lon="37.3358240">
    <ele>4206.7</ele>
    <time>2026-06-22T06:30:28Z</time>
   </trkpt>
   <trkpt lat="-3.0984530" lon="37.3358260">
    <ele>4206.8</ele>
    <time>2026-06-22T06:30:29Z</time>
   </trkpt>
   <trkpt lat="-3.0984520" lon="37.3358340">
    <ele>4206.8</ele>
    <time>2026-06-22T06:30:30Z</time>
   </trkpt>
   <trkpt lat="-3.0984500" lon="37.3358380">
    <ele>4206.9</ele>
    <time>2026-06-22T06:30:31Z</time>
   </trkpt>
   <trkpt lat="-3.0984480" lon="37.3358430">
    <ele>4206.9</ele>
    <time>2026-06-22T06:30:32Z</time>
   </trkpt>
   <trkpt lat="-3.0984470" lon="37.3358480">
    <ele>4207.0</ele>
    <time>2026-06-22T06:30:33Z</time>
   </trkpt>
   <trkpt lat="-3.0984460" lon="37.3358500">
    <ele>4207.0</ele>
    <time>2026-06-22T06:30:34Z</time>
   </trkpt>
   <trkpt lat="-3.0984420" lon="37.3358480">
    <ele>4207.0</ele>
    <time>2026-06-22T06:30:35Z</time>
   </trkpt>
   <trkpt lat="-3.0984390" lon="37.3358580">
    <ele>4207.1</ele>
    <time>2026-06-22T06:30:36Z</time>
   </trkpt>
   <trkpt lat="-3.0984400" lon="37.3358580">
    <ele>4207.1</ele>
    <time>2026-06-22T06:30:37Z</time>
   </trkpt>
   <trkpt lat="-3.0984450" lon="37.3358580">
    <ele>4207.1</ele>
    <time>2026-06-22T06:30:38Z</time>
   </trkpt>
   <trkpt lat="-3.0984480" lon="37.3358620">
    <ele>4207.2</ele>
    <time>2026-06-22T06:30:39Z</time>
   </trkpt>
   <trkpt lat="-3.0984520" lon="37.3358630">
    <ele>4207.2</ele>
    <time>2026-06-22T06:30:40Z</time>
   </trkpt>
   <trkpt lat="-3.0984520" lon="37.3358710">
    <ele>4207.2</ele>
    <time>2026-06-22T06:30:41Z</time>
   </trkpt>
   <trkpt lat="-3.0984530" lon="37.3358710">
    <ele>4207.3</ele>
    <time>2026-06-22T06:30:42Z</time>
   </trkpt>
   <trkpt lat="-3.0984560" lon="37.3358770">
    <ele>4207.3</ele>
    <time>2026-06-22T06:30:43Z</time>
   </trkpt>
   <trkpt lat="-3.0984580" lon="37.3358770">
    <ele>4207.3</ele>
    <time>2026-06-22T06:30:44Z</time>
   </trkpt>
   <trkpt lat="-3.0984580" lon="37.3358760">
    <ele>4207.3</ele>
    <time>2026-06-22T06:30:45Z</time>
   </trkpt>
   <trkpt lat="-3.0984590" lon="37.3358760">
    <ele>4207.3</ele>
    <time>2026-06-22T06:30:46Z</time>
   </trkpt>
   <trkpt lat="-3.0984630" lon="37.3358810">
    <ele>4207.4</ele>
    <time>2026-06-22T06:30:47Z</time>
   </trkpt>
   <trkpt lat="-3.0984700" lon="37.3358870">
    <ele>4207.4</ele>
    <time>2026-06-22T06:30:48Z</time>
   </trkpt>
   <trkpt lat="-3.0984750" lon="37.3358950">
    <ele>4207.5</ele>
    <time>2026-06-22T06:30:49Z</time>
   </trkpt>
   <trkpt lat="-3.0984760" lon="37.3358990">
    <ele>4207.5</ele>
    <time>2026-06-22T06:30:50Z</time>
   </trkpt>
   <trkpt lat="-3.0984800" lon="37.3359060">
    <ele>4207.6</ele>
    <time>2026-06-22T06:30:51Z</time>
   </trkpt>
   <trkpt lat="-3.0984840" lon="37.3359070">
    <ele>4207.6</ele>
    <time>2026-06-22T06:30:52Z</time>
   </trkpt>
   <trkpt lat="-3.0984890" lon="37.3359120">
    <ele>4207.6</ele>
    <time>2026-06-22T06:30:53Z</time>
   </trkpt>
   <trkpt lat="-3.0984960" lon="37.3359130">
    <ele>4207.7</ele>
    <time>2026-06-22T06:30:54Z</time>
   </trkpt>
   <trkpt lat="-3.0985020" lon="37.3359120">
    <ele>4207.7</ele>
    <time>2026-06-22T06:30:55Z</time>
   </trkpt>
   <trkpt lat="-3.0985120" lon="37.3359130">
    <ele>4207.7</ele>
    <time>2026-06-22T06:30:56Z</time>
   </trkpt>
   <trkpt lat="-3.0985150" lon="37.3359150">
    <ele>4207.8</ele>
    <time>2026-06-22T06:30:57Z</time>
   </trkpt>
   <trkpt lat="-3.0985200" lon="37.3359150">
    <ele>4207.8</ele>
    <time>2026-06-22T06:30:58Z</time>
   </trkpt>
   <trkpt lat="-3.0985160" lon="37.3359140">
    <ele>4207.8</ele>
    <time>2026-06-22T06:30:59Z</time>
   </trkpt>
   <trkpt lat="-3.0985160" lon="37.3359140">
    <ele>4207.8</ele>
    <time>2026-06-22T06:31:00Z</time>
   </trkpt>
   <trkpt lat="-3.0985160" lon="37.3359140">
    <ele>4207.8</ele>
    <time>2026-06-22T06:31:01Z</time>
   </trkpt>
   <trkpt lat="-3.0985160" lon="37.3359140">
    <ele>4207.8</ele>
    <time>2026-06-22T06:31:02Z</time>
   </trkpt>
   <trkpt lat="-3.0985130" lon="37.3359130">
    <ele>4207.8</ele>
    <time>2026-06-22T06:31:03Z</time>
   </trkpt>
   <trkpt lat="-3.0985110" lon="37.3359110">
    <ele>4207.8</ele>
    <time>2026-06-22T06:31:04Z</time>
   </trkpt>
   <trkpt lat="-3.0985140" lon="37.3359130">
    <ele>4207.9</ele>
    <time>2026-06-22T06:31:05Z</time>
   </trkpt>
   <trkpt lat="-3.0985130" lon="37.3359140">
    <ele>4207.9</ele>
    <time>2026-06-22T06:31:06Z</time>
   </trkpt>
   <trkpt lat="-3.0985140" lon="37.3359120">
    <ele>4207.9</ele>
    <time>2026-06-22T06:31:07Z</time>
   </trkpt>
   <trkpt lat="-3.0985180" lon="37.3359110">
    <ele>4207.9</ele>
    <time>2026-06-22T06:31:08Z</time>
   </trkpt>
   <trkpt lat="-3.0985190" lon="37.3359100">
    <ele>4207.9</ele>
    <time>2026-06-22T06:31:09Z</time>
   </trkpt>
   <trkpt lat="-3.0985190" lon="37.3359110">
    <ele>4207.9</ele>
    <time>2026-06-22T06:31:10Z</time>
   </trkpt>
   <trkpt lat="-3.0985180" lon="37.3359110">
    <ele>4207.9</ele>
    <time>2026-06-22T06:31:11Z</time>
   </trkpt>
   <trkpt lat="-3.0985180" lon="37.3359120">
    <ele>4207.9</ele>
    <time>2026-06-22T06:31:12Z</time>
   </trkpt>
   <trkpt lat="-3.0985170" lon="37.3359120">
    <ele>4207.9</ele>
    <time>2026-06-22T06:31:13Z</time>
   </trkpt>
   <trkpt lat="-3.0985170" lon="37.3359120">
    <ele>4207.9</ele>
    <time>2026-06-22T06:31:14Z</time>
   </trkpt>
   <trkpt lat="-3.0985170" lon="37.3359120">
    <ele>4207.9</ele>
    <time>2026-06-22T06:31:15Z</time>
   </trkpt>
   <trkpt lat="-3.0985170" lon="37.3359120">
    <ele>4207.9</ele>
    <time>2026-06-22T06:31:16Z</time>
   </trkpt>
   <trkpt lat="-3.0985180" lon="37.3359120">
    <ele>4207.9</ele>
    <time>2026-06-22T06:31:17Z</time>
   </trkpt>
   <trkpt lat="-3.0985200" lon="37.3359110">
    <ele>4207.9</ele>
    <time>2026-06-22T06:31:18Z</time>
   </trkpt>
   <trkpt lat="-3.0985200" lon="37.3359100">
    <ele>4207.9</ele>
    <time>2026-06-22T06:31:19Z</time>
   </trkpt>
   <trkpt lat="-3.0985210" lon="37.3359100">
    <ele>4207.9</ele>
    <time>2026-06-22T06:31:20Z</time>
   </trkpt>
   <trkpt lat="-3.0985210" lon="37.3359110">
    <ele>4207.9</ele>
    <time>2026-06-22T06:31:21Z</time>
   </trkpt>
   <trkpt lat="-3.0985210" lon="37.3359100">
    <ele>4207.9</ele>
    <time>2026-06-22T06:31:22Z</time>
   </trkpt>
   <trkpt lat="-3.0985200" lon="37.3359090">
    <ele>4208.0</ele>
    <time>2026-06-22T06:31:23Z</time>
   </trkpt>
   <trkpt lat="-3.0985200" lon="37.3359080">
    <ele>4208.0</ele>
    <time>2026-06-22T06:31:24Z</time>
   </trkpt>
   <trkpt lat="-3.0985190" lon="37.3359090">
    <ele>4208.0</ele>
    <time>2026-06-22T06:31:25Z</time>
   </trkpt>
   <trkpt lat="-3.0985200" lon="37.3359110">
    <ele>4208.0</ele>
    <time>2026-06-22T06:31:26Z</time>
   </trkpt>
   <trkpt lat="-3.0985200" lon="37.3359120">
    <ele>4208.0</ele>
    <time>2026-06-22T06:31:27Z</time>
   </trkpt>
   <trkpt lat="-3.0985200" lon="37.3359100">
    <ele>4208.0</ele>
    <time>2026-06-22T06:31:28Z</time>
   </trkpt>
   <trkpt lat="-3.0985170" lon="37.3359100">
    <ele>4208.0</ele>
    <time>2026-06-22T06:31:29Z</time>
   </trkpt>
   <trkpt lat="-3.0985160" lon="37.3359100">
    <ele>4208.0</ele>
    <time>2026-06-22T06:31:30Z</time>
   </trkpt>
   <trkpt lat="-3.0985150" lon="37.3359100">
    <ele>4208.0</ele>
    <time>2026-06-22T06:31:31Z</time>
   </trkpt>
   <trkpt lat="-3.0985130" lon="37.3359090">
    <ele>4208.0</ele>
    <time>2026-06-22T06:31:32Z</time>
   </trkpt>
   <trkpt lat="-3.0985130" lon="37.3359080">
    <ele>4208.0</ele>
    <time>2026-06-22T06:31:33Z</time>
   </trkpt>
   <trkpt lat="-3.0985130" lon="37.3359080">
    <ele>4208.0</ele>
    <time>2026-06-22T06:31:34Z</time>
   </trkpt>
   <trkpt lat="-3.0985120" lon="37.3359080">
    <ele>4208.0</ele>
    <time>2026-06-22T06:31:35Z</time>
   </trkpt>
   <trkpt lat="-3.0985120" lon="37.3359080">
    <ele>4208.0</ele>
    <time>2026-06-22T06:31:36Z</time>
   </trkpt>
   <trkpt lat="-3.0985130" lon="37.3359090">
    <ele>4208.0</ele>
    <time>2026-06-22T06:31:37Z</time>
   </trkpt>
   <trkpt lat="-3.0985120" lon="37.3359080">
    <ele>4208.0</ele>
    <time>2026-06-22T06:31:38Z</time>
   </trkpt>
   <trkpt lat="-3.0985180" lon="37.3359100">
    <ele>4208.1</ele>
    <time>2026-06-22T06:31:39Z</time>
   </trkpt>
   <trkpt lat="-3.0985270" lon="37.3359160">
    <ele>4208.1</ele>
    <time>2026-06-22T06:31:40Z</time>
   </trkpt>
   <trkpt lat="-3.0985320" lon="37.3359240">
    <ele>4208.1</ele>
    <time>2026-06-22T06:31:41Z</time>
   </trkpt>
   <trkpt lat="-3.0985360" lon="37.3359290">
    <ele>4208.2</ele>
    <time>2026-06-22T06:31:42Z</time>
   </trkpt>
   <trkpt lat="-3.0985340" lon="37.3359270">
    <ele>4208.2</ele>
    <time>2026-06-22T06:31:43Z</time>
   </trkpt>
   <trkpt lat="-3.0985400" lon="37.3359320">
    <ele>4208.2</ele>
    <time>2026-06-22T06:31:44Z</time>
   </trkpt>
   <trkpt lat="-3.0985460" lon="37.3359380">
    <ele>4208.2</ele>
    <time>2026-06-22T06:31:45Z</time>
   </trkpt>
   <trkpt lat="-3.0985540" lon="37.3359430">
    <ele>4208.3</ele>
    <time>2026-06-22T06:31:46Z</time>
   </trkpt>
   <trkpt lat="-3.0985590" lon="37.3359490">
    <ele>4208.3</ele>
    <time>2026-06-22T06:31:47Z</time>
   </trkpt>
   <trkpt lat="-3.0985650" lon="37.3359550">
    <ele>4208.3</ele>
    <time>2026-06-22T06:31:48Z</time>
   </trkpt>
   <trkpt lat="-3.0985690" lon="37.3359580">
    <ele>4208.3</ele>
    <time>2026-06-22T06:31:49Z</time>
   </trkpt>
   <trkpt lat="-3.0985690" lon="37.3359660">
    <ele>4208.4</ele>
    <time>2026-06-22T06:31:50Z</time>
   </trkpt>
   <trkpt lat="-3.0985700" lon="37.3359770">
    <ele>4208.4</ele>
    <time>2026-06-22T06:31:51Z</time>
   </trkpt>
   <trkpt lat="-3.0985710" lon="37.3359850">
    <ele>4208.4</ele>
    <time>2026-06-22T06:31:52Z</time>
   </trkpt>
   <trkpt lat="-3.0985720" lon="37.3359930">
    <ele>4208.5</ele>
    <time>2026-06-22T06:31:53Z</time>
   </trkpt>
   <trkpt lat="-3.0985720" lon="37.3359990">
    <ele>4208.5</ele>
    <time>2026-06-22T06:31:54Z</time>
   </trkpt>
   <trkpt lat="-3.0985740" lon="37.3360040">
    <ele>4208.5</ele>
    <time>2026-06-22T06:31:55Z</time>
   </trkpt>
   <trkpt lat="-3.0985750" lon="37.3360130">
    <ele>4208.5</ele>
    <time>2026-06-22T06:31:56Z</time>
   </trkpt>
   <trkpt lat="-3.0985790" lon="37.3360210">
    <ele>4208.6</ele>
    <time>2026-06-22T06:31:57Z</time>
   </trkpt>
   <trkpt lat="-3.0985830" lon="37.3360290">
    <ele>4208.6</ele>
    <time>2026-06-22T06:31:58Z</time>
   </trkpt>
   <trkpt lat="-3.0985840" lon="37.3360350">
    <ele>4208.6</ele>
    <time>2026-06-22T06:31:59Z</time>
   </trkpt>
   <trkpt lat="-3.0985820" lon="37.3360420">
    <ele>4208.6</ele>
    <time>2026-06-22T06:32:00Z</time>
   </trkpt>
   <trkpt lat="-3.0985830" lon="37.3360520">
    <ele>4208.7</ele>
    <time>2026-06-22T06:32:01Z</time>
   </trkpt>
   <trkpt lat="-3.0985830" lon="37.3360580">
    <ele>4208.7</ele>
    <time>2026-06-22T06:32:02Z</time>
   </trkpt>
   <trkpt lat="-3.0985810" lon="37.3360650">
    <ele>4208.7</ele>
    <time>2026-06-22T06:32:03Z</time>
   </trkpt>
   <trkpt lat="-3.0985790" lon="37.3360750">
    <ele>4208.7</ele>
    <time>2026-06-22T06:32:04Z</time>
   </trkpt>
   <trkpt lat="-3.0985780" lon="37.3360800">
    <ele>4208.8</ele>
    <time>2026-06-22T06:32:05Z</time>
   </trkpt>
   <trkpt lat="-3.0985780" lon="37.3360900">
    <ele>4208.8</ele>
    <time>2026-06-22T06:32:06Z</time>
   </trkpt>
   <trkpt lat="-3.0985790" lon="37.3360950">
    <ele>4208.8</ele>
    <time>2026-06-22T06:32:07Z</time>
   </trkpt>
   <trkpt lat="-3.0985790" lon="37.3361030">
    <ele>4208.8</ele>
    <time>2026-06-22T06:32:08Z</time>
   </trkpt>
   <trkpt lat="-3.0985790" lon="37.3361120">
    <ele>4208.9</ele>
    <time>2026-06-22T06:32:09Z</time>
   </trkpt>
   <trkpt lat="-3.0985780" lon="37.3361220">
    <ele>4208.9</ele>
    <time>2026-06-22T06:32:10Z</time>
   </trkpt>
   <trkpt lat="-3.0985800" lon="37.3361310">
    <ele>4208.9</ele>
    <time>2026-06-22T06:32:11Z</time>
   </trkpt>
   <trkpt lat="-3.0985830" lon="37.3361380">
    <ele>4209.0</ele>
    <time>2026-06-22T06:32:12Z</time>
   </trkpt>
   <trkpt lat="-3.0985830" lon="37.3361440">
    <ele>4209.0</ele>
    <time>2026-06-22T06:32:13Z</time>
   </trkpt>
   <trkpt lat="-3.0985820" lon="37.3361520">
    <ele>4209.0</ele>
    <time>2026-06-22T06:32:14Z</time>
   </trkpt>
   <trkpt lat="-3.0985830" lon="37.3361620">
    <ele>4209.1</ele>
    <time>2026-06-22T06:32:15Z</time>
   </trkpt>
   <trkpt lat="-3.0985840" lon="37.3361730">
    <ele>4209.1</ele>
    <time>2026-06-22T06:32:16Z</time>
   </trkpt>
   <trkpt lat="-3.0985880" lon="37.3361790">
    <ele>4209.1</ele>
    <time>2026-06-22T06:32:17Z</time>
   </trkpt>
   <trkpt lat="-3.0985890" lon="37.3361850">
    <ele>4209.1</ele>
    <time>2026-06-22T06:32:18Z</time>
   </trkpt>
   <trkpt lat="-3.0985870" lon="37.3361900">
    <ele>4209.2</ele>
    <time>2026-06-22T06:32:19Z</time>
   </trkpt>
   <trkpt lat="-3.0985910" lon="37.3361980">
    <ele>4209.2</ele>
    <time>2026-06-22T06:32:20Z</time>
   </trkpt>
   <trkpt lat="-3.0985900" lon="37.3362050">
    <ele>4209.2</ele>
    <time>2026-06-22T06:32:21Z</time>
   </trkpt>
   <trkpt lat="-3.0985920" lon="37.3362110">
    <ele>4209.2</ele>
    <time>2026-06-22T06:32:22Z</time>
   </trkpt>
   <trkpt lat="-3.0985950" lon="37.3362180">
    <ele>4209.3</ele>
    <time>2026-06-22T06:32:23Z</time>
   </trkpt>
   <trkpt lat="-3.0985960" lon="37.3362210">
    <ele>4209.3</ele>
    <time>2026-06-22T06:32:24Z</time>
   </trkpt>
   <trkpt lat="-3.0985950" lon="37.3362240">
    <ele>4209.3</ele>
    <time>2026-06-22T06:32:25Z</time>
   </trkpt>
   <trkpt lat="-3.0985950" lon="37.3362290">
    <ele>4209.3</ele>
    <time>2026-06-22T06:32:26Z</time>
   </trkpt>
   <trkpt lat="-3.0985990" lon="37.3362350">
    <ele>4209.3</ele>
    <time>2026-06-22T06:32:27Z</time>
   </trkpt>
   <trkpt lat="-3.0986030" lon="37.3362420">
    <ele>4209.3</ele>
    <time>2026-06-22T06:32:28Z</time>
   </trkpt>
   <trkpt lat="-3.0986070" lon="37.3362470">
    <ele>4209.4</ele>
    <time>2026-06-22T06:32:29Z</time>
   </trkpt>
   <trkpt lat="-3.0986100" lon="37.3362490">
    <ele>4209.4</ele>
    <time>2026-06-22T06:32:30Z</time>
   </trkpt>
   <trkpt lat="-3.0986150" lon="37.3362520">
    <ele>4209.4</ele>
    <time>2026-06-22T06:32:31Z</time>
   </trkpt>
   <trkpt lat="-3.0986170" lon="37.3362570">
    <ele>4209.4</ele>
    <time>2026-06-22T06:32:32Z</time>
   </trkpt>
   <trkpt lat="-3.0986160" lon="37.3362610">
    <ele>4209.4</ele>
    <time>2026-06-22T06:32:33Z</time>
   </trkpt>
   <trkpt lat="-3.0986170" lon="37.3362690">
    <ele>4209.4</ele>
    <time>2026-06-22T06:32:34Z</time>
   </trkpt>
   <trkpt lat="-3.0986170" lon="37.3362740">
    <ele>4209.4</ele>
    <time>2026-06-22T06:32:35Z</time>
   </trkpt>
   <trkpt lat="-3.0986180" lon="37.3362790">
    <ele>4209.5</ele>
    <time>2026-06-22T06:32:36Z</time>
   </trkpt>
   <trkpt lat="-3.0986190" lon="37.3362820">
    <ele>4209.5</ele>
    <time>2026-06-22T06:32:37Z</time>
   </trkpt>
   <trkpt lat="-3.0986250" lon="37.3362860">
    <ele>4209.5</ele>
    <time>2026-06-22T06:32:38Z</time>
   </trkpt>
   <trkpt lat="-3.0986280" lon="37.3362940">
    <ele>4209.5</ele>
    <time>2026-06-22T06:32:39Z</time>
   </trkpt>
   <trkpt lat="-3.0986300" lon="37.3362970">
    <ele>4209.5</ele>
    <time>2026-06-22T06:32:40Z</time>
   </trkpt>
   <trkpt lat="-3.0986280" lon="37.3363000">
    <ele>4209.5</ele>
    <time>2026-06-22T06:32:41Z</time>
   </trkpt>
   <trkpt lat="-3.0986280" lon="37.3363010">
    <ele>4209.5</ele>
    <time>2026-06-22T06:32:42Z</time>
   </trkpt>
   <trkpt lat="-3.0986300" lon="37.3363070">
    <ele>4209.5</ele>
    <time>2026-06-22T06:32:43Z</time>
   </trkpt>
   <trkpt lat="-3.0986330" lon="37.3363070">
    <ele>4209.5</ele>
    <time>2026-06-22T06:32:44Z</time>
   </trkpt>
   <trkpt lat="-3.0986330" lon="37.3363100">
    <ele>4209.5</ele>
    <time>2026-06-22T06:32:45Z</time>
   </trkpt>
   <trkpt lat="-3.0986380" lon="37.3363110">
    <ele>4209.5</ele>
    <time>2026-06-22T06:32:46Z</time>
   </trkpt>
   <trkpt lat="-3.0986390" lon="37.3363110">
    <ele>4209.5</ele>
    <time>2026-06-22T06:32:47Z</time>
   </trkpt>
   <trkpt lat="-3.0986490" lon="37.3363160">
    <ele>4209.5</ele>
    <time>2026-06-22T06:32:48Z</time>
   </trkpt>
   <trkpt lat="-3.0986500" lon="37.3363190">
    <ele>4209.5</ele>
    <time>2026-06-22T06:32:49Z</time>
   </trkpt>
   <trkpt lat="-3.0986510" lon="37.3363240">
    <ele>4209.5</ele>
    <time>2026-06-22T06:32:50Z</time>
   </trkpt>
   <trkpt lat="-3.0986550" lon="37.3363270">
    <ele>4209.5</ele>
    <time>2026-06-22T06:32:51Z</time>
   </trkpt>
   <trkpt lat="-3.0986610" lon="37.3363300">
    <ele>4209.5</ele>
    <time>2026-06-22T06:32:52Z</time>
   </trkpt>
   <trkpt lat="-3.0986680" lon="37.3363340">
    <ele>4209.5</ele>
    <time>2026-06-22T06:32:53Z</time>
   </trkpt>
   <trkpt lat="-3.0986740" lon="37.3363370">
    <ele>4209.5</ele>
    <time>2026-06-22T06:32:54Z</time>
   </trkpt>
   <trkpt lat="-3.0986800" lon="37.3363400">
    <ele>4209.5</ele>
    <time>2026-06-22T06:32:55Z</time>
   </trkpt>
   <trkpt lat="-3.0986850" lon="37.3363450">
    <ele>4209.5</ele>
    <time>2026-06-22T06:32:56Z</time>
   </trkpt>
   <trkpt lat="-3.0986870" lon="37.3363500">
    <ele>4209.5</ele>
    <time>2026-06-22T06:32:57Z</time>
   </trkpt>
   <trkpt lat="-3.0986920" lon="37.3363590">
    <ele>4209.5</ele>
    <time>2026-06-22T06:32:58Z</time>
   </trkpt>
   <trkpt lat="-3.0986910" lon="37.3363650">
    <ele>4209.5</ele>
    <time>2026-06-22T06:32:59Z</time>
   </trkpt>
   <trkpt lat="-3.0986930" lon="37.3363660">
    <ele>4209.5</ele>
    <time>2026-06-22T06:33:00Z</time>
   </trkpt>
   <trkpt lat="-3.0986990" lon="37.3363710">
    <ele>4209.5</ele>
    <time>2026-06-22T06:33:01Z</time>
   </trkpt>
   <trkpt lat="-3.0987030" lon="37.3363700">
    <ele>4209.5</ele>
    <time>2026-06-22T06:33:02Z</time>
   </trkpt>
   <trkpt lat="-3.0987120" lon="37.3363760">
    <ele>4209.5</ele>
    <time>2026-06-22T06:33:03Z</time>
   </trkpt>
   <trkpt lat="-3.0987120" lon="37.3363810">
    <ele>4209.5</ele>
    <time>2026-06-22T06:33:04Z</time>
   </trkpt>
   <trkpt lat="-3.0987150" lon="37.3363820">
    <ele>4209.5</ele>
    <time>2026-06-22T06:33:05Z</time>
   </trkpt>
   <trkpt lat="-3.0987180" lon="37.3363840">
    <ele>4209.5</ele>
    <time>2026-06-22T06:33:06Z</time>
   </trkpt>
   <trkpt lat="-3.0987240" lon="37.3363890">
    <ele>4209.5</ele>
    <time>2026-06-22T06:33:07Z</time>
   </trkpt>
   <trkpt lat="-3.0987290" lon="37.3363910">
    <ele>4209.5</ele>
    <time>2026-06-22T06:33:08Z</time>
   </trkpt>
   <trkpt lat="-3.0987310" lon="37.3363940">
    <ele>4209.4</ele>
    <time>2026-06-22T06:33:09Z</time>
   </trkpt>
   <trkpt lat="-3.0987330" lon="37.3363980">
    <ele>4209.4</ele>
    <time>2026-06-22T06:33:10Z</time>
   </trkpt>
   <trkpt lat="-3.0987360" lon="37.3364050">
    <ele>4209.4</ele>
    <time>2026-06-22T06:33:11Z</time>
   </trkpt>
   <trkpt lat="-3.0987370" lon="37.3364110">
    <ele>4209.4</ele>
    <time>2026-06-22T06:33:12Z</time>
   </trkpt>
   <trkpt lat="-3.0987410" lon="37.3364110">
    <ele>4209.4</ele>
    <time>2026-06-22T06:33:13Z</time>
   </trkpt>
   <trkpt lat="-3.0987460" lon="37.3364090">
    <ele>4209.4</ele>
    <time>2026-06-22T06:33:14Z</time>
   </trkpt>
   <trkpt lat="-3.0987550" lon="37.3364150">
    <ele>4209.4</ele>
    <time>2026-06-22T06:33:15Z</time>
   </trkpt>
   <trkpt lat="-3.0987580" lon="37.3364150">
    <ele>4209.4</ele>
    <time>2026-06-22T06:33:16Z</time>
   </trkpt>
   <trkpt lat="-3.0987570" lon="37.3364130">
    <ele>4209.4</ele>
    <time>2026-06-22T06:33:17Z</time>
   </trkpt>
   <trkpt lat="-3.0987610" lon="37.3364100">
    <ele>4209.4</ele>
    <time>2026-06-22T06:33:18Z</time>
   </trkpt>
   <trkpt lat="-3.0987650" lon="37.3364060">
    <ele>4209.4</ele>
    <time>2026-06-22T06:33:19Z</time>
   </trkpt>
   <trkpt lat="-3.0987670" lon="37.3364030">
    <ele>4209.4</ele>
    <time>2026-06-22T06:33:20Z</time>
   </trkpt>
   <trkpt lat="-3.0987670" lon="37.3364010">
    <ele>4209.4</ele>
    <time>2026-06-22T06:33:21Z</time>
   </trkpt>
   <trkpt lat="-3.0987740" lon="37.3363970">
    <ele>4209.4</ele>
    <time>2026-06-22T06:33:22Z</time>
   </trkpt>
   <trkpt lat="-3.0987810" lon="37.3363970">
    <ele>4209.4</ele>
    <time>2026-06-22T06:33:23Z</time>
   </trkpt>
   <trkpt lat="-3.0987890" lon="37.3364000">
    <ele>4209.3</ele>
    <time>2026-06-22T06:33:24Z</time>
   </trkpt>
   <trkpt lat="-3.0987940" lon="37.3364010">
    <ele>4209.3</ele>
    <time>2026-06-22T06:33:25Z</time>
   </trkpt>
   <trkpt lat="-3.0987930" lon="37.3364050">
    <ele>4209.3</ele>
    <time>2026-06-22T06:33:26Z</time>
   </trkpt>
   <trkpt lat="-3.0987940" lon="37.3364080">
    <ele>4209.3</ele>
    <time>2026-06-22T06:33:27Z</time>
   </trkpt>
   <trkpt lat="-3.0988000" lon="37.3364110">
    <ele>4209.3</ele>
    <time>2026-06-22T06:33:28Z</time>
   </trkpt>
   <trkpt lat="-3.0988040" lon="37.3364110">
    <ele>4209.3</ele>
    <time>2026-06-22T06:33:29Z</time>
   </trkpt>
   <trkpt lat="-3.0988080" lon="37.3364120">
    <ele>4209.3</ele>
    <time>2026-06-22T06:33:30Z</time>
   </trkpt>
   <trkpt lat="-3.0988130" lon="37.3364120">
    <ele>4209.3</ele>
    <time>2026-06-22T06:33:31Z</time>
   </trkpt>
   <trkpt lat="-3.0988200" lon="37.3364090">
    <ele>4209.3</ele>
    <time>2026-06-22T06:33:32Z</time>
   </trkpt>
   <trkpt lat="-3.0988230" lon="37.3364120">
    <ele>4209.3</ele>
    <time>2026-06-22T06:33:33Z</time>
   </trkpt>
   <trkpt lat="-3.0988230" lon="37.3364110">
    <ele>4209.3</ele>
    <time>2026-06-22T06:33:34Z</time>
   </trkpt>
   <trkpt lat="-3.0988250" lon="37.3364110">
    <ele>4209.3</ele>
    <time>2026-06-22T06:33:35Z</time>
   </trkpt>
   <trkpt lat="-3.0988240" lon="37.3364100">
    <ele>4209.3</ele>
    <time>2026-06-22T06:33:36Z</time>
   </trkpt>
   <trkpt lat="-3.0988240" lon="37.3364100">
    <ele>4209.3</ele>
    <time>2026-06-22T06:33:37Z</time>
   </trkpt>
   <trkpt lat="-3.0988260" lon="37.3364130">
    <ele>4209.3</ele>
    <time>2026-06-22T06:33:38Z</time>
   </trkpt>
   <trkpt lat="-3.0988240" lon="37.3364170">
    <ele>4209.3</ele>
    <time>2026-06-22T06:33:39Z</time>
   </trkpt>
   <trkpt lat="-3.0988280" lon="37.3364200">
    <ele>4209.3</ele>
    <time>2026-06-22T06:33:40Z</time>
   </trkpt>
   <trkpt lat="-3.0988330" lon="37.3364230">
    <ele>4209.3</ele>
    <time>2026-06-22T06:33:41Z</time>
   </trkpt>
   <trkpt lat="-3.0988360" lon="37.3364260">
    <ele>4209.3</ele>
    <time>2026-06-22T06:33:42Z</time>
   </trkpt>
   <trkpt lat="-3.0988400" lon="37.3364270">
    <ele>4209.4</ele>
    <time>2026-06-22T06:33:43Z</time>
   </trkpt>
   <trkpt lat="-3.0988400" lon="37.3364280">
    <ele>4209.4</ele>
    <time>2026-06-22T06:33:44Z</time>
   </trkpt>
   <trkpt lat="-3.0988420" lon="37.3364300">
    <ele>4209.4</ele>
    <time>2026-06-22T06:33:45Z</time>
   </trkpt>
   <trkpt lat="-3.0988420" lon="37.3364310">
    <ele>4209.4</ele>
    <time>2026-06-22T06:33:46Z</time>
   </trkpt>
   <trkpt lat="-3.0988430" lon="37.3364310">
    <ele>4209.4</ele>
    <time>2026-06-22T06:33:47Z</time>
   </trkpt>
   <trkpt lat="-3.0988460" lon="37.3364340">
    <ele>4209.4</ele>
    <time>2026-06-22T06:33:48Z</time>
   </trkpt>
   <trkpt lat="-3.0988490" lon="37.3364390">
    <ele>4209.4</ele>
    <time>2026-06-22T06:33:49Z</time>
   </trkpt>
   <trkpt lat="-3.0988480" lon="37.3364390">
    <ele>4209.4</ele>
    <time>2026-06-22T06:33:50Z</time>
   </trkpt>
   <trkpt lat="-3.0988510" lon="37.3364410">
    <ele>4209.4</ele>
    <time>2026-06-22T06:33:51Z</time>
   </trkpt>
   <trkpt lat="-3.0988500" lon="37.3364420">
    <ele>4209.4</ele>
    <time>2026-06-22T06:33:52Z</time>
   </trkpt>
   <trkpt lat="-3.0988480" lon="37.3364430">
    <ele>4209.4</ele>
    <time>2026-06-22T06:33:53Z</time>
   </trkpt>
   <trkpt lat="-3.0988470" lon="37.3364430">
    <ele>4209.4</ele>
    <time>2026-06-22T06:33:54Z</time>
   </trkpt>
   <trkpt lat="-3.0988490" lon="37.3364460">
    <ele>4209.4</ele>
    <time>2026-06-22T06:33:55Z</time>
   </trkpt>
   <trkpt lat="-3.0988490" lon="37.3364450">
    <ele>4209.4</ele>
    <time>2026-06-22T06:33:56Z</time>
   </trkpt>
   <trkpt lat="-3.0988480" lon="37.3364450">
    <ele>4209.4</ele>
    <time>2026-06-22T06:33:57Z</time>
   </trkpt>
   <trkpt lat="-3.0988480" lon="37.3364440">
    <ele>4209.4</ele>
    <time>2026-06-22T06:33:58Z</time>
   </trkpt>
   <trkpt lat="-3.0988500" lon="37.3364450">
    <ele>4209.4</ele>
    <time>2026-06-22T06:33:59Z</time>
   </trkpt>
   <trkpt lat="-3.0988520" lon="37.3364450">
    <ele>4209.4</ele>
    <time>2026-06-22T06:34:00Z</time>
   </trkpt>
   <trkpt lat="-3.0988510" lon="37.3364420">
    <ele>4209.4</ele>
    <time>2026-06-22T06:34:01Z</time>
   </trkpt>
   <trkpt lat="-3.0988540" lon="37.3364440">
    <ele>4209.4</ele>
    <time>2026-06-22T06:34:02Z</time>
   </trkpt>
   <trkpt lat="-3.0988550" lon="37.3364410">
    <ele>4209.4</ele>
    <time>2026-06-22T06:34:03Z</time>
   </trkpt>
   <trkpt lat="-3.0988510" lon="37.3364440">
    <ele>4209.5</ele>
    <time>2026-06-22T06:34:04Z</time>
   </trkpt>
   <trkpt lat="-3.0988510" lon="37.3364450">
    <ele>4209.5</ele>
    <time>2026-06-22T06:34:05Z</time>
   </trkpt>
   <trkpt lat="-3.0988470" lon="37.3364450">
    <ele>4209.5</ele>
    <time>2026-06-22T06:34:06Z</time>
   </trkpt>
   <trkpt lat="-3.0988580" lon="37.3364400">
    <ele>4209.6</ele>
    <time>2026-06-22T06:34:07Z</time>
   </trkpt>
   <trkpt lat="-3.0988560" lon="37.3364420">
    <ele>4209.6</ele>
    <time>2026-06-22T06:34:08Z</time>
   </trkpt>
   <trkpt lat="-3.0988500" lon="37.3364480">
    <ele>4209.7</ele>
    <time>2026-06-22T06:34:09Z</time>
   </trkpt>
   <trkpt lat="-3.0988490" lon="37.3364480">
    <ele>4209.7</ele>
    <time>2026-06-22T06:34:10Z</time>
   </trkpt>
   <trkpt lat="-3.0988500" lon="37.3364480">
    <ele>4209.7</ele>
    <time>2026-06-22T06:34:11Z</time>
   </trkpt>
   <trkpt lat="-3.0988480" lon="37.3364500">
    <ele>4209.7</ele>
    <time>2026-06-22T06:34:12Z</time>
   </trkpt>
   <trkpt lat="-3.0988480" lon="37.3364510">
    <ele>4209.7</ele>
    <time>2026-06-22T06:34:13Z</time>
   </trkpt>
   <trkpt lat="-3.0988460" lon="37.3364540">
    <ele>4209.7</ele>
    <time>2026-06-22T06:34:14Z</time>
   </trkpt>
   <trkpt lat="-3.0988490" lon="37.3364470">
    <ele>4209.8</ele>
    <time>2026-06-22T06:34:15Z</time>
   </trkpt>
   <trkpt lat="-3.0988460" lon="37.3364510">
    <ele>4209.8</ele>
    <time>2026-06-22T06:34:16Z</time>
   </trkpt>
   <trkpt lat="-3.0988460" lon="37.3364500">
    <ele>4209.8</ele>
    <time>2026-06-22T06:34:17Z</time>
   </trkpt>
   <trkpt lat="-3.0988470" lon="37.3364470">
    <ele>4209.9</ele>
    <time>2026-06-22T06:34:18Z</time>
   </trkpt>
   <trkpt lat="-3.0988480" lon="37.3364490">
    <ele>4209.9</ele>
    <time>2026-06-22T06:34:19Z</time>
   </trkpt>
   <trkpt lat="-3.0988490" lon="37.3364480">
    <ele>4209.9</ele>
    <time>2026-06-22T06:34:20Z</time>
   </trkpt>
   <trkpt lat="-3.0988590" lon="37.3364500">
    <ele>4210.0</ele>
    <time>2026-06-22T06:34:21Z</time>
   </trkpt>
   <trkpt lat="-3.0988540" lon="37.3364520">
    <ele>4210.0</ele>
    <time>2026-06-22T06:34:22Z</time>
   </trkpt>
   <trkpt lat="-3.0988560" lon="37.3364530">
    <ele>4210.0</ele>
    <time>2026-06-22T06:34:23Z</time>
   </trkpt>
   <trkpt lat="-3.0988620" lon="37.3364570">
    <ele>4210.1</ele>
    <time>2026-06-22T06:34:24Z</time>
   </trkpt>
   <trkpt lat="-3.0988620" lon="37.3364680">
    <ele>4210.2</ele>
    <time>2026-06-22T06:34:25Z</time>
   </trkpt>
   <trkpt lat="-3.0988640" lon="37.3364660">
    <ele>4210.3</ele>
    <time>2026-06-22T06:34:26Z</time>
   </trkpt>
   <trkpt lat="-3.0988670" lon="37.3364660">
    <ele>4210.3</ele>
    <time>2026-06-22T06:34:27Z</time>
   </trkpt>
   <trkpt lat="-3.0988690" lon="37.3364700">
    <ele>4210.4</ele>
    <time>2026-06-22T06:34:28Z</time>
   </trkpt>
   <trkpt lat="-3.0988690" lon="37.3364710">
    <ele>4210.4</ele>
    <time>2026-06-22T06:34:29Z</time>
   </trkpt>
   <trkpt lat="-3.0988690" lon="37.3364700">
    <ele>4210.4</ele>
    <time>2026-06-22T06:34:30Z</time>
   </trkpt>
   <trkpt lat="-3.0988690" lon="37.3364730">
    <ele>4210.4</ele>
    <time>2026-06-22T06:34:31Z</time>
   </trkpt>
   <trkpt lat="-3.0988680" lon="37.3364720">
    <ele>4210.4</ele>
    <time>2026-06-22T06:34:32Z</time>
   </trkpt>
   <trkpt lat="-3.0988740" lon="37.3364710">
    <ele>4210.5</ele>
    <time>2026-06-22T06:34:33Z</time>
   </trkpt>
   <trkpt lat="-3.0988750" lon="37.3364640">
    <ele>4210.6</ele>
    <time>2026-06-22T06:34:34Z</time>
   </trkpt>
   <trkpt lat="-3.0988780" lon="37.3364650">
    <ele>4210.6</ele>
    <time>2026-06-22T06:34:35Z</time>
   </trkpt>
   <trkpt lat="-3.0988820" lon="37.3364610">
    <ele>4210.7</ele>
    <time>2026-06-22T06:34:36Z</time>
   </trkpt>
   <trkpt lat="-3.0988820" lon="37.3364650">
    <ele>4210.7</ele>
    <time>2026-06-22T06:34:37Z</time>
   </trkpt>
   <trkpt lat="-3.0988860" lon="37.3364630">
    <ele>4210.8</ele>
    <time>2026-06-22T06:34:38Z</time>
   </trkpt>
   <trkpt lat="-3.0988870" lon="37.3364670">
    <ele>4210.8</ele>
    <time>2026-06-22T06:34:39Z</time>
   </trkpt>
   <trkpt lat="-3.0988880" lon="37.3364700">
    <ele>4210.9</ele>
    <time>2026-06-22T06:34:40Z</time>
   </trkpt>
   <trkpt lat="-3.0988930" lon="37.3364660">
    <ele>4211.0</ele>
    <time>2026-06-22T06:34:41Z</time>
   </trkpt>
   <trkpt lat="-3.0988950" lon="37.3364710">
    <ele>4211.1</ele>
    <time>2026-06-22T06:34:42Z</time>
   </trkpt>
   <trkpt lat="-3.0989010" lon="37.3364770">
    <ele>4211.2</ele>
    <time>2026-06-22T06:34:43Z</time>
   </trkpt>
   <trkpt lat="-3.0989040" lon="37.3364770">
    <ele>4211.2</ele>
    <time>2026-06-22T06:34:44Z</time>
   </trkpt>
   <trkpt lat="-3.0989100" lon="37.3364770">
    <ele>4211.3</ele>
    <time>2026-06-22T06:34:45Z</time>
   </trkpt>
   <trkpt lat="-3.0989110" lon="37.3364760">
    <ele>4211.4</ele>
    <time>2026-06-22T06:34:46Z</time>
   </trkpt>
   <trkpt lat="-3.0989190" lon="37.3364800">
    <ele>4211.5</ele>
    <time>2026-06-22T06:34:47Z</time>
   </trkpt>
   <trkpt lat="-3.0989220" lon="37.3364860">
    <ele>4211.6</ele>
    <time>2026-06-22T06:34:48Z</time>
   </trkpt>
   <trkpt lat="-3.0989270" lon="37.3364880">
    <ele>4211.7</ele>
    <time>2026-06-22T06:34:49Z</time>
   </trkpt>
   <trkpt lat="-3.0989310" lon="37.3364900">
    <ele>4211.8</ele>
    <time>2026-06-22T06:34:50Z</time>
   </trkpt>
   <trkpt lat="-3.0989280" lon="37.3364880">
    <ele>4211.8</ele>
    <time>2026-06-22T06:34:51Z</time>
   </trkpt>
   <trkpt lat="-3.0989270" lon="37.3364840">
    <ele>4211.9</ele>
    <time>2026-06-22T06:34:52Z</time>
   </trkpt>
   <trkpt lat="-3.0989260" lon="37.3364830">
    <ele>4211.9</ele>
    <time>2026-06-22T06:34:53Z</time>
   </trkpt>
   <trkpt lat="-3.0989260" lon="37.3364830">
    <ele>4211.9</ele>
    <time>2026-06-22T06:34:54Z</time>
   </trkpt>
   <trkpt lat="-3.0989260" lon="37.3364830">
    <ele>4211.9</ele>
    <time>2026-06-22T06:34:55Z</time>
   </trkpt>
   <trkpt lat="-3.0989240" lon="37.3364880">
    <ele>4212.0</ele>
    <time>2026-06-22T06:34:56Z</time>
   </trkpt>
   <trkpt lat="-3.0989250" lon="37.3364890">
    <ele>4212.0</ele>
    <time>2026-06-22T06:34:57Z</time>
   </trkpt>
   <trkpt lat="-3.0989300" lon="37.3364900">
    <ele>4212.1</ele>
    <time>2026-06-22T06:34:58Z</time>
   </trkpt>
   <trkpt lat="-3.0989290" lon="37.3364880">
    <ele>4212.1</ele>
    <time>2026-06-22T06:34:59Z</time>
   </trkpt>
   <trkpt lat="-3.0989300" lon="37.3364860">
    <ele>4212.2</ele>
    <time>2026-06-22T06:35:00Z</time>
   </trkpt>
   <trkpt lat="-3.0989300" lon="37.3364850">
    <ele>4212.2</ele>
    <time>2026-06-22T06:35:01Z</time>
   </trkpt>
   <trkpt lat="-3.0989300" lon="37.3364850">
    <ele>4212.2</ele>
    <time>2026-06-22T06:35:02Z</time>
   </trkpt>
   <trkpt lat="-3.0989300" lon="37.3364850">
    <ele>4212.2</ele>
    <time>2026-06-22T06:35:03Z</time>
   </trkpt>
   <trkpt lat="-3.0989300" lon="37.3364850">
    <ele>4212.2</ele>
    <time>2026-06-22T06:35:04Z</time>
   </trkpt>
   <trkpt lat="-3.0989300" lon="37.3364820">
    <ele>4212.2</ele>
    <time>2026-06-22T06:35:05Z</time>
   </trkpt>
   <trkpt lat="-3.0989300" lon="37.3364820">
    <ele>4212.2</ele>
    <time>2026-06-22T06:35:06Z</time>
   </trkpt>
   <trkpt lat="-3.0989300" lon="37.3364820">
    <ele>4212.2</ele>
    <time>2026-06-22T06:35:07Z</time>
   </trkpt>
   <trkpt lat="-3.0989300" lon="37.3364820">
    <ele>4212.2</ele>
    <time>2026-06-22T06:35:08Z</time>
   </trkpt>
   <trkpt lat="-3.0989300" lon="37.3364820">
    <ele>4212.2</ele>
    <time>2026-06-22T06:35:09Z</time>
   </trkpt>
   <trkpt lat="-3.0989300" lon="37.3364820">
    <ele>4212.2</ele>
    <time>2026-06-22T06:35:10Z</time>
   </trkpt>
   <trkpt lat="-3.0989300" lon="37.3364820">
    <ele>4212.2</ele>
    <time>2026-06-22T06:35:11Z</time>
   </trkpt>
   <trkpt lat="-3.0989300" lon="37.3364820">
    <ele>4212.2</ele>
    <time>2026-06-22T06:35:12Z</time>
   </trkpt>
   <trkpt lat="-3.0989300" lon="37.3364820">
    <ele>4212.2</ele>
    <time>2026-06-22T06:35:13Z</time>
   </trkpt>
   <trkpt lat="-3.0989310" lon="37.3364830">
    <ele>4212.3</ele>
    <time>2026-06-22T06:35:14Z</time>
   </trkpt>
   <trkpt lat="-3.0989310" lon="37.3364870">
    <ele>4212.3</ele>
    <time>2026-06-22T06:35:15Z</time>
   </trkpt>
   <trkpt lat="-3.0989300" lon="37.3364930">
    <ele>4212.5</ele>
    <time>2026-06-22T06:35:16Z</time>
   </trkpt>
   <trkpt lat="-3.0989320" lon="37.3364980">
    <ele>4212.6</ele>
    <time>2026-06-22T06:35:17Z</time>
   </trkpt>
   <trkpt lat="-3.0989280" lon="37.3365030">
    <ele>4212.7</ele>
    <time>2026-06-22T06:35:18Z</time>
   </trkpt>
   <trkpt lat="-3.0989350" lon="37.3365050">
    <ele>4212.8</ele>
    <time>2026-06-22T06:35:19Z</time>
   </trkpt>
   <trkpt lat="-3.0989410" lon="37.3365070">
    <ele>4212.9</ele>
    <time>2026-06-22T06:35:20Z</time>
   </trkpt>
   <trkpt lat="-3.0989430" lon="37.3365070">
    <ele>4212.9</ele>
    <time>2026-06-22T06:35:21Z</time>
   </trkpt>
   <trkpt lat="-3.0989420" lon="37.3365050">
    <ele>4213.0</ele>
    <time>2026-06-22T06:35:22Z</time>
   </trkpt>
   <trkpt lat="-3.0989500" lon="37.3365070">
    <ele>4213.1</ele>
    <time>2026-06-22T06:35:23Z</time>
   </trkpt>
   <trkpt lat="-3.0989610" lon="37.3365110">
    <ele>4213.3</ele>
    <time>2026-06-22T06:35:24Z</time>
   </trkpt>
   <trkpt lat="-3.0989600" lon="37.3365180">
    <ele>4213.5</ele>
    <time>2026-06-22T06:35:25Z</time>
   </trkpt>
   <trkpt lat="-3.0989500" lon="37.3365200">
    <ele>4213.7</ele>
    <time>2026-06-22T06:35:26Z</time>
   </trkpt>
   <trkpt lat="-3.0989400" lon="37.3365240">
    <ele>4213.9</ele>
    <time>2026-06-22T06:35:27Z</time>
   </trkpt>
   <trkpt lat="-3.0989370" lon="37.3365240">
    <ele>4213.9</ele>
    <time>2026-06-22T06:35:28Z</time>
   </trkpt>
   <trkpt lat="-3.0989330" lon="37.3365230">
    <ele>4214.0</ele>
    <time>2026-06-22T06:35:29Z</time>
   </trkpt>
   <trkpt lat="-3.0989260" lon="37.3365230">
    <ele>4214.1</ele>
    <time>2026-06-22T06:35:30Z</time>
   </trkpt>
   <trkpt lat="-3.0989230" lon="37.3365230">
    <ele>4214.2</ele>
    <time>2026-06-22T06:35:31Z</time>
   </trkpt>
   <trkpt lat="-3.0989180" lon="37.3365270">
    <ele>4214.3</ele>
    <time>2026-06-22T06:35:32Z</time>
   </trkpt>
   <trkpt lat="-3.0989160" lon="37.3365320">
    <ele>4214.4</ele>
    <time>2026-06-22T06:35:33Z</time>
   </trkpt>
   <trkpt lat="-3.0989120" lon="37.3365360">
    <ele>4214.5</ele>
    <time>2026-06-22T06:35:34Z</time>
   </trkpt>
   <trkpt lat="-3.0989140" lon="37.3365330">
    <ele>4214.6</ele>
    <time>2026-06-22T06:35:35Z</time>
   </trkpt>
   <trkpt lat="-3.0989140" lon="37.3365380">
    <ele>4214.7</ele>
    <time>2026-06-22T06:35:36Z</time>
   </trkpt>
   <trkpt lat="-3.0989150" lon="37.3365520">
    <ele>4215.0</ele>
    <time>2026-06-22T06:35:37Z</time>
   </trkpt>
   <trkpt lat="-3.0989140" lon="37.3365510">
    <ele>4215.0</ele>
    <time>2026-06-22T06:35:38Z</time>
   </trkpt>
   <trkpt lat="-3.0989240" lon="37.3365490">
    <ele>4215.2</ele>
    <time>2026-06-22T06:35:39Z</time>
   </trkpt>
   <trkpt lat="-3.0989320" lon="37.3365540">
    <ele>4215.4</ele>
    <time>2026-06-22T06:35:40Z</time>
   </trkpt>
   <trkpt lat="-3.0989290" lon="37.3365530">
    <ele>4215.4</ele>
    <time>2026-06-22T06:35:41Z</time>
   </trkpt>
   <trkpt lat="-3.0989430" lon="37.3365570">
    <ele>4215.7</ele>
    <time>2026-06-22T06:35:42Z</time>
   </trkpt>
   <trkpt lat="-3.0989410" lon="37.3365630">
    <ele>4215.8</ele>
    <time>2026-06-22T06:35:43Z</time>
   </trkpt>
   <trkpt lat="-3.0989380" lon="37.3365660">
    <ele>4215.9</ele>
    <time>2026-06-22T06:35:44Z</time>
   </trkpt>
   <trkpt lat="-3.0989360" lon="37.3365670">
    <ele>4215.9</ele>
    <time>2026-06-22T06:35:45Z</time>
   </trkpt>
   <trkpt lat="-3.0989350" lon="37.3365700">
    <ele>4216.0</ele>
    <time>2026-06-22T06:35:46Z</time>
   </trkpt>
   <trkpt lat="-3.0989350" lon="37.3365740">
    <ele>4216.1</ele>
    <time>2026-06-22T06:35:47Z</time>
   </trkpt>
   <trkpt lat="-3.0989320" lon="37.3365820">
    <ele>4216.2</ele>
    <time>2026-06-22T06:35:48Z</time>
   </trkpt>
   <trkpt lat="-3.0989300" lon="37.3365860">
    <ele>4216.3</ele>
    <time>2026-06-22T06:35:49Z</time>
   </trkpt>
   <trkpt lat="-3.0989300" lon="37.3365900">
    <ele>4216.4</ele>
    <time>2026-06-22T06:35:50Z</time>
   </trkpt>
   <trkpt lat="-3.0989360" lon="37.3365900">
    <ele>4216.5</ele>
    <time>2026-06-22T06:35:51Z</time>
   </trkpt>
   <trkpt lat="-3.0989450" lon="37.3365970">
    <ele>4216.7</ele>
    <time>2026-06-22T06:35:52Z</time>
   </trkpt>
   <trkpt lat="-3.0989480" lon="37.3366030">
    <ele>4216.9</ele>
    <time>2026-06-22T06:35:53Z</time>
   </trkpt>
   <trkpt lat="-3.0989520" lon="37.3366070">
    <ele>4217.0</ele>
    <time>2026-06-22T06:35:54Z</time>
   </trkpt>
   <trkpt lat="-3.0989580" lon="37.3366030">
    <ele>4217.1</ele>
    <time>2026-06-22T06:35:55Z</time>
   </trkpt>
   <trkpt lat="-3.0989690" lon="37.3366050">
    <ele>4217.3</ele>
    <time>2026-06-22T06:35:56Z</time>
   </trkpt>
   <trkpt lat="-3.0989720" lon="37.3366070">
    <ele>4217.4</ele>
    <time>2026-06-22T06:35:57Z</time>
   </trkpt>
   <trkpt lat="-3.0989760" lon="37.3366080">
    <ele>4217.5</ele>
    <time>2026-06-22T06:35:58Z</time>
   </trkpt>
   <trkpt lat="-3.0989790" lon="37.3366060">
    <ele>4217.5</ele>
    <time>2026-06-22T06:35:59Z</time>
   </trkpt>
   <trkpt lat="-3.0989780" lon="37.3366060">
    <ele>4217.6</ele>
    <time>2026-06-22T06:36:00Z</time>
   </trkpt>
   <trkpt lat="-3.0989810" lon="37.3366010">
    <ele>4217.7</ele>
    <time>2026-06-22T06:36:01Z</time>
   </trkpt>
   <trkpt lat="-3.0989870" lon="37.3366030">
    <ele>4217.8</ele>
    <time>2026-06-22T06:36:02Z</time>
   </trkpt>
   <trkpt lat="-3.0989800" lon="37.3366030">
    <ele>4217.9</ele>
    <time>2026-06-22T06:36:03Z</time>
   </trkpt>
   <trkpt lat="-3.0989800" lon="37.3366030">
    <ele>4217.9</ele>
    <time>2026-06-22T06:36:04Z</time>
   </trkpt>
   <trkpt lat="-3.0989840" lon="37.3366010">
    <ele>4218.0</ele>
    <time>2026-06-22T06:36:05Z</time>
   </trkpt>
   <trkpt lat="-3.0989840" lon="37.3366000">
    <ele>4218.0</ele>
    <time>2026-06-22T06:36:06Z</time>
   </trkpt>
   <trkpt lat="-3.0989840" lon="37.3366000">
    <ele>4218.0</ele>
    <time>2026-06-22T06:36:07Z</time>
   </trkpt>
   <trkpt lat="-3.0989840" lon="37.3366000">
    <ele>4218.0</ele>
    <time>2026-06-22T06:36:08Z</time>
   </trkpt>
   <trkpt lat="-3.0989840" lon="37.3366010">
    <ele>4218.0</ele>
    <time>2026-06-22T06:36:09Z</time>
   </trkpt>
   <trkpt lat="-3.0989830" lon="37.3366000">
    <ele>4218.1</ele>
    <time>2026-06-22T06:36:10Z</time>
   </trkpt>
   <trkpt lat="-3.0989830" lon="37.3366010">
    <ele>4218.1</ele>
    <time>2026-06-22T06:36:11Z</time>
   </trkpt>
   <trkpt lat="-3.0989820" lon="37.3366010">
    <ele>4218.1</ele>
    <time>2026-06-22T06:36:12Z</time>
   </trkpt>
   <trkpt lat="-3.0989820" lon="37.3366000">
    <ele>4218.1</ele>
    <time>2026-06-22T06:36:13Z</time>
   </trkpt>
   <trkpt lat="-3.0989840" lon="37.3365980">
    <ele>4218.2</ele>
    <time>2026-06-22T06:36:14Z</time>
   </trkpt>
   <trkpt lat="-3.0989780" lon="37.3365940">
    <ele>4218.3</ele>
    <time>2026-06-22T06:36:15Z</time>
   </trkpt>
   <trkpt lat="-3.0989760" lon="37.3365940">
    <ele>4218.3</ele>
    <time>2026-06-22T06:36:16Z</time>
   </trkpt>
   <trkpt lat="-3.0989750" lon="37.3365930">
    <ele>4218.4</ele>
    <time>2026-06-22T06:36:17Z</time>
   </trkpt>
   <trkpt lat="-3.0989740" lon="37.3365930">
    <ele>4218.4</ele>
    <time>2026-06-22T06:36:18Z</time>
   </trkpt>
   <trkpt lat="-3.0989750" lon="37.3365940">
    <ele>4218.4</ele>
    <time>2026-06-22T06:36:19Z</time>
   </trkpt>
   <trkpt lat="-3.0989800" lon="37.3366030">
    <ele>4218.6</ele>
    <time>2026-06-22T06:36:20Z</time>
   </trkpt>
   <trkpt lat="-3.0989880" lon="37.3366010">
    <ele>4218.7</ele>
    <time>2026-06-22T06:36:21Z</time>
   </trkpt>
   <trkpt lat="-3.0989960" lon="37.3366000">
    <ele>4218.9</ele>
    <time>2026-06-22T06:36:22Z</time>
   </trkpt>
   <trkpt lat="-3.0990040" lon="37.3365960">
    <ele>4219.0</ele>
    <time>2026-06-22T06:36:23Z</time>
   </trkpt>
   <trkpt lat="-3.0990090" lon="37.3366010">
    <ele>4219.2</ele>
    <time>2026-06-22T06:36:24Z</time>
   </trkpt>
   <trkpt lat="-3.0990180" lon="37.3365980">
    <ele>4219.3</ele>
    <time>2026-06-22T06:36:25Z</time>
   </trkpt>
   <trkpt lat="-3.0990270" lon="37.3365940">
    <ele>4219.5</ele>
    <time>2026-06-22T06:36:26Z</time>
   </trkpt>
   <trkpt lat="-3.0990330" lon="37.3365950">
    <ele>4219.6</ele>
    <time>2026-06-22T06:36:27Z</time>
   </trkpt>
   <trkpt lat="-3.0990440" lon="37.3365980">
    <ele>4219.8</ele>
    <time>2026-06-22T06:36:28Z</time>
   </trkpt>
   <trkpt lat="-3.0990540" lon="37.3366040">
    <ele>4220.0</ele>
    <time>2026-06-22T06:36:29Z</time>
   </trkpt>
   <trkpt lat="-3.0990610" lon="37.3366050">
    <ele>4220.1</ele>
    <time>2026-06-22T06:36:30Z</time>
   </trkpt>
   <trkpt lat="-3.0990710" lon="37.3366100">
    <ele>4220.3</ele>
    <time>2026-06-22T06:36:31Z</time>
   </trkpt>
   <trkpt lat="-3.0990800" lon="37.3366090">
    <ele>4220.5</ele>
    <time>2026-06-22T06:36:32Z</time>
   </trkpt>
   <trkpt lat="-3.0990880" lon="37.3366070">
    <ele>4220.6</ele>
    <time>2026-06-22T06:36:33Z</time>
   </trkpt>
   <trkpt lat="-3.0990970" lon="37.3366070">
    <ele>4220.8</ele>
    <time>2026-06-22T06:36:34Z</time>
   </trkpt>
   <trkpt lat="-3.0990990" lon="37.3366050">
    <ele>4220.8</ele>
    <time>2026-06-22T06:36:35Z</time>
   </trkpt>
   <trkpt lat="-3.0991040" lon="37.3366020">
    <ele>4220.9</ele>
    <time>2026-06-22T06:36:36Z</time>
   </trkpt>
   <trkpt lat="-3.0991180" lon="37.3365970">
    <ele>4221.2</ele>
    <time>2026-06-22T06:36:37Z</time>
   </trkpt>
   <trkpt lat="-3.0991330" lon="37.3365920">
    <ele>4221.5</ele>
    <time>2026-06-22T06:36:38Z</time>
   </trkpt>
   <trkpt lat="-3.0991340" lon="37.3365970">
    <ele>4221.5</ele>
    <time>2026-06-22T06:36:39Z</time>
   </trkpt>
   <trkpt lat="-3.0991320" lon="37.3365960">
    <ele>4221.6</ele>
    <time>2026-06-22T06:36:40Z</time>
   </trkpt>
   <trkpt lat="-3.0991470" lon="37.3365920">
    <ele>4221.8</ele>
    <time>2026-06-22T06:36:41Z</time>
   </trkpt>
   <trkpt lat="-3.0991460" lon="37.3365800">
    <ele>4222.1</ele>
    <time>2026-06-22T06:36:42Z</time>
   </trkpt>
   <trkpt lat="-3.0991380" lon="37.3365820">
    <ele>4222.2</ele>
    <time>2026-06-22T06:36:43Z</time>
   </trkpt>
   <trkpt lat="-3.0991410" lon="37.3365810">
    <ele>4222.3</ele>
    <time>2026-06-22T06:36:44Z</time>
   </trkpt>
   <trkpt lat="-3.0991410" lon="37.3365830">
    <ele>4222.3</ele>
    <time>2026-06-22T06:36:45Z</time>
   </trkpt>
   <trkpt lat="-3.0991400" lon="37.3365850">
    <ele>4222.3</ele>
    <time>2026-06-22T06:36:46Z</time>
   </trkpt>
   <trkpt lat="-3.0991400" lon="37.3365850">
    <ele>4222.3</ele>
    <time>2026-06-22T06:36:47Z</time>
   </trkpt>
   <trkpt lat="-3.0991390" lon="37.3365860">
    <ele>4222.4</ele>
    <time>2026-06-22T06:36:48Z</time>
   </trkpt>
   <trkpt lat="-3.0991400" lon="37.3365860">
    <ele>4222.4</ele>
    <time>2026-06-22T06:36:49Z</time>
   </trkpt>
   <trkpt lat="-3.0991400" lon="37.3365860">
    <ele>4222.4</ele>
    <time>2026-06-22T06:36:50Z</time>
   </trkpt>
   <trkpt lat="-3.0991380" lon="37.3365860">
    <ele>4222.4</ele>
    <time>2026-06-22T06:36:51Z</time>
   </trkpt>
   <trkpt lat="-3.0991400" lon="37.3365800">
    <ele>4222.5</ele>
    <time>2026-06-22T06:36:52Z</time>
   </trkpt>
   <trkpt lat="-3.0991470" lon="37.3365700">
    <ele>4222.7</ele>
    <time>2026-06-22T06:36:53Z</time>
   </trkpt>
   <trkpt lat="-3.0991430" lon="37.3365760">
    <ele>4222.8</ele>
    <time>2026-06-22T06:36:54Z</time>
   </trkpt>
   <trkpt lat="-3.0991440" lon="37.3365760">
    <ele>4222.9</ele>
    <time>2026-06-22T06:36:55Z</time>
   </trkpt>
   <trkpt lat="-3.0991470" lon="37.3365760">
    <ele>4222.9</ele>
    <time>2026-06-22T06:36:56Z</time>
   </trkpt>
   <trkpt lat="-3.0991470" lon="37.3365770">
    <ele>4222.9</ele>
    <time>2026-06-22T06:36:57Z</time>
   </trkpt>
   <trkpt lat="-3.0991440" lon="37.3365770">
    <ele>4223.0</ele>
    <time>2026-06-22T06:36:58Z</time>
   </trkpt>
   <trkpt lat="-3.0991430" lon="37.3365770">
    <ele>4223.0</ele>
    <time>2026-06-22T06:36:59Z</time>
   </trkpt>
   <trkpt lat="-3.0991430" lon="37.3365780">
    <ele>4223.0</ele>
    <time>2026-06-22T06:37:00Z</time>
   </trkpt>
   <trkpt lat="-3.0991430" lon="37.3365780">
    <ele>4223.0</ele>
    <time>2026-06-22T06:37:01Z</time>
   </trkpt>
   <trkpt lat="-3.0991420" lon="37.3365800">
    <ele>4223.1</ele>
    <time>2026-06-22T06:37:02Z</time>
   </trkpt>
   <trkpt lat="-3.0991410" lon="37.3365790">
    <ele>4223.1</ele>
    <time>2026-06-22T06:37:03Z</time>
   </trkpt>
   <trkpt lat="-3.0991400" lon="37.3365790">
    <ele>4223.1</ele>
    <time>2026-06-22T06:37:04Z</time>
   </trkpt>
   <trkpt lat="-3.0991400" lon="37.3365800">
    <ele>4223.1</ele>
    <time>2026-06-22T06:37:05Z</time>
   </trkpt>
   <trkpt lat="-3.0991380" lon="37.3365800">
    <ele>4223.2</ele>
    <time>2026-06-22T06:37:06Z</time>
   </trkpt>
   <trkpt lat="-3.0991380" lon="37.3365800">
    <ele>4223.2</ele>
    <time>2026-06-22T06:37:07Z</time>
   </trkpt>
   <trkpt lat="-3.0991380" lon="37.3365810">
    <ele>4223.2</ele>
    <time>2026-06-22T06:37:08Z</time>
   </trkpt>
   <trkpt lat="-3.0991370" lon="37.3365820">
    <ele>4223.2</ele>
    <time>2026-06-22T06:37:09Z</time>
   </trkpt>
   <trkpt lat="-3.0991380" lon="37.3365830">
    <ele>4223.2</ele>
    <time>2026-06-22T06:37:10Z</time>
   </trkpt>
   <trkpt lat="-3.0991370" lon="37.3365830">
    <ele>4223.3</ele>
    <time>2026-06-22T06:37:11Z</time>
   </trkpt>
   <trkpt lat="-3.0991380" lon="37.3365840">
    <ele>4223.3</ele>
    <time>2026-06-22T06:37:12Z</time>
   </trkpt>
   <trkpt lat="-3.0991380" lon="37.3365840">
    <ele>4223.3</ele>
    <time>2026-06-22T06:37:13Z</time>
   </trkpt>
   <trkpt lat="-3.0991380" lon="37.3365840">
    <ele>4223.3</ele>
    <time>2026-06-22T06:37:14Z</time>
   </trkpt>
   <trkpt lat="-3.0991380" lon="37.3365840">
    <ele>4223.3</ele>
    <time>2026-06-22T06:37:15Z</time>
   </trkpt>
   <trkpt lat="-3.0991380" lon="37.3365840">
    <ele>4223.3</ele>
    <time>2026-06-22T06:37:16Z</time>
   </trkpt>
   <trkpt lat="-3.0991390" lon="37.3365860">
    <ele>4223.3</ele>
    <time>2026-06-22T06:37:17Z</time>
   </trkpt>
   <trkpt lat="-3.0991380" lon="37.3365850">
    <ele>4223.3</ele>
    <time>2026-06-22T06:37:18Z</time>
   </trkpt>
   <trkpt lat="-3.0991350" lon="37.3365850">
    <ele>4223.4</ele>
    <time>2026-06-22T06:37:19Z</time>
   </trkpt>
   <trkpt lat="-3.0991380" lon="37.3365810">
    <ele>4223.5</ele>
    <time>2026-06-22T06:37:20Z</time>
   </trkpt>
   <trkpt lat="-3.0991370" lon="37.3365820">
    <ele>4223.5</ele>
    <time>2026-06-22T06:37:21Z</time>
   </trkpt>
   <trkpt lat="-3.0991360" lon="37.3365800">
    <ele>4223.6</ele>
    <time>2026-06-22T06:37:22Z</time>
   </trkpt>
   <trkpt lat="-3.0991360" lon="37.3365790">
    <ele>4223.6</ele>
    <time>2026-06-22T06:37:23Z</time>
   </trkpt>
   <trkpt lat="-3.0991350" lon="37.3365810">
    <ele>4223.6</ele>
    <time>2026-06-22T06:37:24Z</time>
   </trkpt>
   <trkpt lat="-3.0991350" lon="37.3365850">
    <ele>4223.7</ele>
    <time>2026-06-22T06:37:25Z</time>
   </trkpt>
   <trkpt lat="-3.0991360" lon="37.3365870">
    <ele>4223.7</ele>
    <time>2026-06-22T06:37:26Z</time>
   </trkpt>
   <trkpt lat="-3.0991370" lon="37.3365880">
    <ele>4223.8</ele>
    <time>2026-06-22T06:37:27Z</time>
   </trkpt>
   <trkpt lat="-3.0991360" lon="37.3365880">
    <ele>4223.8</ele>
    <time>2026-06-22T06:37:28Z</time>
   </trkpt>
   <trkpt lat="-3.0991370" lon="37.3365880">
    <ele>4223.8</ele>
    <time>2026-06-22T06:37:29Z</time>
   </trkpt>
   <trkpt lat="-3.0991360" lon="37.3365880">
    <ele>4223.8</ele>
    <time>2026-06-22T06:37:30Z</time>
   </trkpt>
   <trkpt lat="-3.0991360" lon="37.3365880">
    <ele>4223.8</ele>
    <time>2026-06-22T06:37:31Z</time>
   </trkpt>
   <trkpt lat="-3.0991370" lon="37.3365880">
    <ele>4223.8</ele>
    <time>2026-06-22T06:37:32Z</time>
   </trkpt>
   <trkpt lat="-3.0991370" lon="37.3365870">
    <ele>4223.9</ele>
    <time>2026-06-22T06:37:33Z</time>
   </trkpt>
   <trkpt lat="-3.0991370" lon="37.3365880">
    <ele>4223.9</ele>
    <time>2026-06-22T06:37:34Z</time>
   </trkpt>
   <trkpt lat="-3.0991370" lon="37.3365880">
    <ele>4223.9</ele>
    <time>2026-06-22T06:37:35Z</time>
   </trkpt>
   <trkpt lat="-3.0991360" lon="37.3365880">
    <ele>4223.9</ele>
    <time>2026-06-22T06:37:36Z</time>
   </trkpt>
   <trkpt lat="-3.0991310" lon="37.3365860">
    <ele>4224.0</ele>
    <time>2026-06-22T06:37:37Z</time>
   </trkpt>
   <trkpt lat="-3.0991350" lon="37.3365770">
    <ele>4224.2</ele>
    <time>2026-06-22T06:37:38Z</time>
   </trkpt>
   <trkpt lat="-3.0991340" lon="37.3365840">
    <ele>4224.3</ele>
    <time>2026-06-22T06:37:39Z</time>
   </trkpt>
   <trkpt lat="-3.0991360" lon="37.3365910">
    <ele>4224.4</ele>
    <time>2026-06-22T06:37:40Z</time>
   </trkpt>
   <trkpt lat="-3.0991340" lon="37.3365940">
    <ele>4224.5</ele>
    <time>2026-06-22T06:37:41Z</time>
   </trkpt>
   <trkpt lat="-3.0991310" lon="37.3365830">
    <ele>4224.7</ele>
    <time>2026-06-22T06:37:42Z</time>
   </trkpt>
   <trkpt lat="-3.0991350" lon="37.3365820">
    <ele>4224.8</ele>
    <time>2026-06-22T06:37:43Z</time>
   </trkpt>
   <trkpt lat="-3.0991290" lon="37.3365810">
    <ele>4224.9</ele>
    <time>2026-06-22T06:37:44Z</time>
   </trkpt>
   <trkpt lat="-3.0991280" lon="37.3365820">
    <ele>4224.9</ele>
    <time>2026-06-22T06:37:45Z</time>
   </trkpt>
   <trkpt lat="-3.0991290" lon="37.3365840">
    <ele>4225.0</ele>
    <time>2026-06-22T06:37:46Z</time>
   </trkpt>
   <trkpt lat="-3.0991280" lon="37.3365820">
    <ele>4225.0</ele>
    <time>2026-06-22T06:37:47Z</time>
   </trkpt>
   <trkpt lat="-3.0991280" lon="37.3365820">
    <ele>4225.0</ele>
    <time>2026-06-22T06:37:48Z</time>
   </trkpt>
   <trkpt lat="-3.0991280" lon="37.3365820">
    <ele>4225.0</ele>
    <time>2026-06-22T06:37:49Z</time>
   </trkpt>
   <trkpt lat="-3.0991280" lon="37.3365820">
    <ele>4225.0</ele>
    <time>2026-06-22T06:37:50Z</time>
   </trkpt>
   <trkpt lat="-3.0991280" lon="37.3365820">
    <ele>4225.0</ele>
    <time>2026-06-22T06:37:51Z</time>
   </trkpt>
   <trkpt lat="-3.0991280" lon="37.3365820">
    <ele>4225.0</ele>
    <time>2026-06-22T06:37:52Z</time>
   </trkpt>
   <trkpt lat="-3.0991280" lon="37.3365820">
    <ele>4225.0</ele>
    <time>2026-06-22T06:37:53Z</time>
   </trkpt>
   <trkpt lat="-3.0991280" lon="37.3365800">
    <ele>4225.1</ele>
    <time>2026-06-22T06:37:54Z</time>
   </trkpt>
   <trkpt lat="-3.0991280" lon="37.3365800">
    <ele>4225.1</ele>
    <time>2026-06-22T06:37:55Z</time>
   </trkpt>
   <trkpt lat="-3.0991280" lon="37.3365800">
    <ele>4225.1</ele>
    <time>2026-06-22T06:37:56Z</time>
   </trkpt>
   <trkpt lat="-3.0991270" lon="37.3365810">
    <ele>4225.1</ele>
    <time>2026-06-22T06:37:57Z</time>
   </trkpt>
   <trkpt lat="-3.0991270" lon="37.3365820">
    <ele>4225.1</ele>
    <time>2026-06-22T06:37:58Z</time>
   </trkpt>
   <trkpt lat="-3.0991280" lon="37.3365830">
    <ele>4225.1</ele>
    <time>2026-06-22T06:37:59Z</time>
   </trkpt>
   <trkpt lat="-3.0991280" lon="37.3365830">
    <ele>4225.1</ele>
    <time>2026-06-22T06:38:00Z</time>
   </trkpt>
   <trkpt lat="-3.0991290" lon="37.3365800">
    <ele>4225.2</ele>
    <time>2026-06-22T06:38:01Z</time>
   </trkpt>
   <trkpt lat="-3.0991290" lon="37.3365830">
    <ele>4225.2</ele>
    <time>2026-06-22T06:38:02Z</time>
   </trkpt>
   <trkpt lat="-3.0991240" lon="37.3365890">
    <ele>4225.4</ele>
    <time>2026-06-22T06:38:03Z</time>
   </trkpt>
   <trkpt lat="-3.0991090" lon="37.3365960">
    <ele>4225.7</ele>
    <time>2026-06-22T06:38:04Z</time>
   </trkpt>
   <trkpt lat="-3.0991040" lon="37.3365990">
    <ele>4225.8</ele>
    <time>2026-06-22T06:38:05Z</time>
   </trkpt>
   <trkpt lat="-3.0990970" lon="37.3365970">
    <ele>4225.9</ele>
    <time>2026-06-22T06:38:06Z</time>
   </trkpt>
   <trkpt lat="-3.0990900" lon="37.3365970">
    <ele>4226.1</ele>
    <time>2026-06-22T06:38:07Z</time>
   </trkpt>
   <trkpt lat="-3.0990930" lon="37.3365980">
    <ele>4226.1</ele>
    <time>2026-06-22T06:38:08Z</time>
   </trkpt>
   <trkpt lat="-3.0990940" lon="37.3365970">
    <ele>4226.1</ele>
    <time>2026-06-22T06:38:09Z</time>
   </trkpt>
   <trkpt lat="-3.0990960" lon="37.3365970">
    <ele>4226.2</ele>
    <time>2026-06-22T06:38:10Z</time>
   </trkpt>
   <trkpt lat="-3.0990970" lon="37.3365960">
    <ele>4226.2</ele>
    <time>2026-06-22T06:38:11Z</time>
   </trkpt>
   <trkpt lat="-3.0990980" lon="37.3365950">
    <ele>4226.2</ele>
    <time>2026-06-22T06:38:12Z</time>
   </trkpt>
   <trkpt lat="-3.0990980" lon="37.3365950">
    <ele>4226.2</ele>
    <time>2026-06-22T06:38:13Z</time>
   </trkpt>
   <trkpt lat="-3.0990980" lon="37.3365950">
    <ele>4226.2</ele>
    <time>2026-06-22T06:38:14Z</time>
   </trkpt>
   <trkpt lat="-3.0990970" lon="37.3365980">
    <ele>4226.3</ele>
    <time>2026-06-22T06:38:15Z</time>
   </trkpt>
   <trkpt lat="-3.0990970" lon="37.3365980">
    <ele>4226.3</ele>
    <time>2026-06-22T06:38:16Z</time>
   </trkpt>
   <trkpt lat="-3.0990970" lon="37.3365980">
    <ele>4226.3</ele>
    <time>2026-06-22T06:38:17Z</time>
   </trkpt>
   <trkpt lat="-3.0990980" lon="37.3365990">
    <ele>4226.3</ele>
    <time>2026-06-22T06:38:18Z</time>
   </trkpt>
   <trkpt lat="-3.0990980" lon="37.3365980">
    <ele>4226.3</ele>
    <time>2026-06-22T06:38:19Z</time>
   </trkpt>
   <trkpt lat="-3.0990980" lon="37.3365980">
    <ele>4226.3</ele>
    <time>2026-06-22T06:38:20Z</time>
   </trkpt>
   <trkpt lat="-3.0990970" lon="37.3365970">
    <ele>4226.4</ele>
    <time>2026-06-22T06:38:21Z</time>
   </trkpt>
   <trkpt lat="-3.0990970" lon="37.3365980">
    <ele>4226.4</ele>
    <time>2026-06-22T06:38:22Z</time>
   </trkpt>
   <trkpt lat="-3.0990970" lon="37.3365970">
    <ele>4226.4</ele>
    <time>2026-06-22T06:38:23Z</time>
   </trkpt>
   <trkpt lat="-3.0990970" lon="37.3365980">
    <ele>4226.4</ele>
    <time>2026-06-22T06:38:24Z</time>
   </trkpt>
   <trkpt lat="-3.0990970" lon="37.3365970">
    <ele>4226.4</ele>
    <time>2026-06-22T06:38:25Z</time>
   </trkpt>
   <trkpt lat="-3.0990970" lon="37.3365980">
    <ele>4226.5</ele>
    <time>2026-06-22T06:38:26Z</time>
   </trkpt>
   <trkpt lat="-3.0990970" lon="37.3365980">
    <ele>4226.5</ele>
    <time>2026-06-22T06:38:27Z</time>
   </trkpt>
   <trkpt lat="-3.0990970" lon="37.3365980">
    <ele>4226.5</ele>
    <time>2026-06-22T06:38:28Z</time>
   </trkpt>
   <trkpt lat="-3.0990970" lon="37.3365980">
    <ele>4226.5</ele>
    <time>2026-06-22T06:38:29Z</time>
   </trkpt>
   <trkpt lat="-3.0990980" lon="37.3365980">
    <ele>4226.5</ele>
    <time>2026-06-22T06:38:30Z</time>
   </trkpt>
   <trkpt lat="-3.0990980" lon="37.3365980">
    <ele>4226.5</ele>
    <time>2026-06-22T06:38:31Z</time>
   </trkpt>
   <trkpt lat="-3.0990980" lon="37.3365990">
    <ele>4226.5</ele>
    <time>2026-06-22T06:38:32Z</time>
   </trkpt>
   <trkpt lat="-3.0990990" lon="37.3365990">
    <ele>4226.5</ele>
    <time>2026-06-22T06:38:33Z</time>
   </trkpt>
   <trkpt lat="-3.0990990" lon="37.3365990">
    <ele>4226.5</ele>
    <time>2026-06-22T06:38:34Z</time>
   </trkpt>
   <trkpt lat="-3.0990990" lon="37.3365990">
    <ele>4226.5</ele>
    <time>2026-06-22T06:38:35Z</time>
   </trkpt>
   <trkpt lat="-3.0990990" lon="37.3365990">
    <ele>4226.5</ele>
    <time>2026-06-22T06:38:36Z</time>
   </trkpt>
   <trkpt lat="-3.0990990" lon="37.3365990">
    <ele>4226.5</ele>
    <time>2026-06-22T06:38:37Z</time>
   </trkpt>
   <trkpt lat="-3.0991000" lon="37.3365990">
    <ele>4226.5</ele>
    <time>2026-06-22T06:38:38Z</time>
   </trkpt>
   <trkpt lat="-3.0991000" lon="37.3365990">
    <ele>4226.5</ele>
    <time>2026-06-22T06:38:39Z</time>
   </trkpt>
   <trkpt lat="-3.0991000" lon="37.3365990">
    <ele>4226.5</ele>
    <time>2026-06-22T06:38:40Z</time>
   </trkpt>
   <trkpt lat="-3.0991000" lon="37.3365990">
    <ele>4226.5</ele>
    <time>2026-06-22T06:38:41Z</time>
   </trkpt>
   <trkpt lat="-3.0991000" lon="37.3366000">
    <ele>4226.6</ele>
    <time>2026-06-22T06:38:42Z</time>
   </trkpt>
   <trkpt lat="-3.0991000" lon="37.3366000">
    <ele>4226.6</ele>
    <time>2026-06-22T06:38:43Z</time>
   </trkpt>
   <trkpt lat="-3.0991000" lon="37.3366000">
    <ele>4226.6</ele>
    <time>2026-06-22T06:38:44Z</time>
   </trkpt>
   <trkpt lat="-3.0991000" lon="37.3365990">
    <ele>4226.6</ele>
    <time>2026-06-22T06:38:45Z</time>
   </trkpt>
   <trkpt lat="-3.0991000" lon="37.3366000">
    <ele>4226.6</ele>
    <time>2026-06-22T06:38:46Z</time>
   </trkpt>
   <trkpt lat="-3.0991000" lon="37.3366000">
    <ele>4226.6</ele>
    <time>2026-06-22T06:38:47Z</time>
   </trkpt>
   <trkpt lat="-3.0990980" lon="37.3366020">
    <ele>4226.6</ele>
    <time>2026-06-22T06:38:48Z</time>
   </trkpt>
   <trkpt lat="-3.0990860" lon="37.3366060">
    <ele>4226.9</ele>
    <time>2026-06-22T06:38:49Z</time>
   </trkpt>
   <trkpt lat="-3.0990800" lon="37.3366070">
    <ele>4227.0</ele>
    <time>2026-06-22T06:38:50Z</time>
   </trkpt>
   <trkpt lat="-3.0990690" lon="37.3366040">
    <ele>4227.2</ele>
    <time>2026-06-22T06:38:51Z</time>
   </trkpt>
   <trkpt lat="-3.0990580" lon="37.3366050">
    <ele>4227.4</ele>
    <time>2026-06-22T06:38:52Z</time>
   </trkpt>
   <trkpt lat="-3.0990460" lon="37.3366060">
    <ele>4227.6</ele>
    <time>2026-06-22T06:38:53Z</time>
   </trkpt>
   <trkpt lat="-3.0990350" lon="37.3366050">
    <ele>4227.8</ele>
    <time>2026-06-22T06:38:54Z</time>
   </trkpt>
   <trkpt lat="-3.0990280" lon="37.3365980">
    <ele>4227.9</ele>
    <time>2026-06-22T06:38:55Z</time>
   </trkpt>
   <trkpt lat="-3.0990200" lon="37.3365940">
    <ele>4228.1</ele>
    <time>2026-06-22T06:38:56Z</time>
   </trkpt>
   <trkpt lat="-3.0990160" lon="37.3365920">
    <ele>4228.1</ele>
    <time>2026-06-22T06:38:57Z</time>
   </trkpt>
   <trkpt lat="-3.0990100" lon="37.3365930">
    <ele>4228.2</ele>
    <time>2026-06-22T06:38:58Z</time>
   </trkpt>
   <trkpt lat="-3.0990000" lon="37.3365950">
    <ele>4228.4</ele>
    <time>2026-06-22T06:38:59Z</time>
   </trkpt>
   <trkpt lat="-3.0989950" lon="37.3366000">
    <ele>4228.5</ele>
    <time>2026-06-22T06:39:00Z</time>
   </trkpt>
   <trkpt lat="-3.0989930" lon="37.3366040">
    <ele>4228.6</ele>
    <time>2026-06-22T06:39:01Z</time>
   </trkpt>
   <trkpt lat="-3.0989880" lon="37.3366030">
    <ele>4228.6</ele>
    <time>2026-06-22T06:39:02Z</time>
   </trkpt>
   <trkpt lat="-3.0989830" lon="37.3366070">
    <ele>4228.7</ele>
    <time>2026-06-22T06:39:03Z</time>
   </trkpt>
   <trkpt lat="-3.0989850" lon="37.3366100">
    <ele>4228.8</ele>
    <time>2026-06-22T06:39:04Z</time>
   </trkpt>
   <trkpt lat="-3.0989850" lon="37.3366100">
    <ele>4228.8</ele>
    <time>2026-06-22T06:39:05Z</time>
   </trkpt>
   <trkpt lat="-3.0989840" lon="37.3366090">
    <ele>4228.8</ele>
    <time>2026-06-22T06:39:06Z</time>
   </trkpt>
   <trkpt lat="-3.0989890" lon="37.3366080">
    <ele>4228.9</ele>
    <time>2026-06-22T06:39:07Z</time>
   </trkpt>
   <trkpt lat="-3.0989840" lon="37.3366100">
    <ele>4228.9</ele>
    <time>2026-06-22T06:39:08Z</time>
   </trkpt>
   <trkpt lat="-3.0989800" lon="37.3366120">
    <ele>4229.0</ele>
    <time>2026-06-22T06:39:09Z</time>
   </trkpt>
   <trkpt lat="-3.0989820" lon="37.3366090">
    <ele>4229.0</ele>
    <time>2026-06-22T06:39:10Z</time>
   </trkpt>
   <trkpt lat="-3.0989820" lon="37.3366090">
    <ele>4229.0</ele>
    <time>2026-06-22T06:39:11Z</time>
   </trkpt>
   <trkpt lat="-3.0989820" lon="37.3366090">
    <ele>4229.0</ele>
    <time>2026-06-22T06:39:12Z</time>
   </trkpt>
   <trkpt lat="-3.0989770" lon="37.3366070">
    <ele>4229.1</ele>
    <time>2026-06-22T06:39:13Z</time>
   </trkpt>
   <trkpt lat="-3.0989780" lon="37.3366060">
    <ele>4229.1</ele>
    <time>2026-06-22T06:39:14Z</time>
   </trkpt>
   <trkpt lat="-3.0989770" lon="37.3366050">
    <ele>4229.1</ele>
    <time>2026-06-22T06:39:15Z</time>
   </trkpt>
   <trkpt lat="-3.0989780" lon="37.3366030">
    <ele>4229.2</ele>
    <time>2026-06-22T06:39:16Z</time>
   </trkpt>
   <trkpt lat="-3.0989810" lon="37.3366000">
    <ele>4229.2</ele>
    <time>2026-06-22T06:39:17Z</time>
   </trkpt>
   <trkpt lat="-3.0989830" lon="37.3365910">
    <ele>4229.3</ele>
    <time>2026-06-22T06:39:18Z</time>
   </trkpt>
   <trkpt lat="-3.0989910" lon="37.3365880">
    <ele>4229.4</ele>
    <time>2026-06-22T06:39:19Z</time>
   </trkpt>
   <trkpt lat="-3.0989930" lon="37.3365840">
    <ele>4229.5</ele>
    <time>2026-06-22T06:39:20Z</time>
   </trkpt>
   <trkpt lat="-3.0989910" lon="37.3365860">
    <ele>4229.5</ele>
    <time>2026-06-22T06:39:21Z</time>
   </trkpt>
   <trkpt lat="-3.0989910" lon="37.3365860">
    <ele>4229.5</ele>
    <time>2026-06-22T06:39:22Z</time>
   </trkpt>
   <trkpt lat="-3.0989920" lon="37.3365880">
    <ele>4229.5</ele>
    <time>2026-06-22T06:39:23Z</time>
   </trkpt>
   <trkpt lat="-3.0989940" lon="37.3365870">
    <ele>4229.6</ele>
    <time>2026-06-22T06:39:24Z</time>
   </trkpt>
   <trkpt lat="-3.0989930" lon="37.3365880">
    <ele>4229.6</ele>
    <time>2026-06-22T06:39:25Z</time>
   </trkpt>
   <trkpt lat="-3.0989930" lon="37.3365880">
    <ele>4229.6</ele>
    <time>2026-06-22T06:39:26Z</time>
   </trkpt>
   <trkpt lat="-3.0989950" lon="37.3365870">
    <ele>4229.6</ele>
    <time>2026-06-22T06:39:27Z</time>
   </trkpt>
   <trkpt lat="-3.0989950" lon="37.3365870">
    <ele>4229.6</ele>
    <time>2026-06-22T06:39:28Z</time>
   </trkpt>
   <trkpt lat="-3.0989960" lon="37.3365850">
    <ele>4229.6</ele>
    <time>2026-06-22T06:39:29Z</time>
   </trkpt>
   <trkpt lat="-3.0989960" lon="37.3365850">
    <ele>4229.6</ele>
    <time>2026-06-22T06:39:30Z</time>
   </trkpt>
   <trkpt lat="-3.0989960" lon="37.3365840">
    <ele>4229.6</ele>
    <time>2026-06-22T06:39:31Z</time>
   </trkpt>
   <trkpt lat="-3.0989960" lon="37.3365840">
    <ele>4229.6</ele>
    <time>2026-06-22T06:39:32Z</time>
   </trkpt>
   <trkpt lat="-3.0989970" lon="37.3365850">
    <ele>4229.6</ele>
    <time>2026-06-22T06:39:33Z</time>
   </trkpt>
   <trkpt lat="-3.0989970" lon="37.3365850">
    <ele>4229.6</ele>
    <time>2026-06-22T06:39:34Z</time>
   </trkpt>
   <trkpt lat="-3.0989970" lon="37.3365840">
    <ele>4229.6</ele>
    <time>2026-06-22T06:39:35Z</time>
   </trkpt>
   <trkpt lat="-3.0989980" lon="37.3365840">
    <ele>4229.6</ele>
    <time>2026-06-22T06:39:36Z</time>
   </trkpt>
   <trkpt lat="-3.0989980" lon="37.3365830">
    <ele>4229.7</ele>
    <time>2026-06-22T06:39:37Z</time>
   </trkpt>
   <trkpt lat="-3.0989970" lon="37.3365850">
    <ele>4229.7</ele>
    <time>2026-06-22T06:39:38Z</time>
   </trkpt>
   <trkpt lat="-3.0989960" lon="37.3365860">
    <ele>4229.7</ele>
    <time>2026-06-22T06:39:39Z</time>
   </trkpt>
   <trkpt lat="-3.0989960" lon="37.3365850">
    <ele>4229.7</ele>
    <time>2026-06-22T06:39:40Z</time>
   </trkpt>
   <trkpt lat="-3.0989950" lon="37.3365850">
    <ele>4229.7</ele>
    <time>2026-06-22T06:39:41Z</time>
   </trkpt>
   <trkpt lat="-3.0989950" lon="37.3365850">
    <ele>4229.7</ele>
    <time>2026-06-22T06:39:42Z</time>
   </trkpt>
   <trkpt lat="-3.0989950" lon="37.3365840">
    <ele>4229.7</ele>
    <time>2026-06-22T06:39:43Z</time>
   </trkpt>
   <trkpt lat="-3.0989950" lon="37.3365840">
    <ele>4229.7</ele>
    <time>2026-06-22T06:39:44Z</time>
   </trkpt>
   <trkpt lat="-3.0989950" lon="37.3365850">
    <ele>4229.7</ele>
    <time>2026-06-22T06:39:45Z</time>
   </trkpt>
   <trkpt lat="-3.0989950" lon="37.3365850">
    <ele>4229.7</ele>
    <time>2026-06-22T06:39:46Z</time>
   </trkpt>
   <trkpt lat="-3.0989950" lon="37.3365850">
    <ele>4229.7</ele>
    <time>2026-06-22T06:39:47Z</time>
   </trkpt>
   <trkpt lat="-3.0989950" lon="37.3365850">
    <ele>4229.7</ele>
    <time>2026-06-22T06:39:48Z</time>
   </trkpt>
   <trkpt lat="-3.0989950" lon="37.3365850">
    <ele>4229.7</ele>
    <time>2026-06-22T06:39:49Z</time>
   </trkpt>
   <trkpt lat="-3.0989960" lon="37.3365860">
    <ele>4229.7</ele>
    <time>2026-06-22T06:39:50Z</time>
   </trkpt>
   <trkpt lat="-3.0989960" lon="37.3365860">
    <ele>4229.7</ele>
    <time>2026-06-22T06:39:51Z</time>
   </trkpt>
   <trkpt lat="-3.0989960" lon="37.3365860">
    <ele>4229.7</ele>
    <time>2026-06-22T06:39:52Z</time>
   </trkpt>
   <trkpt lat="-3.0989960" lon="37.3365860">
    <ele>4229.7</ele>
    <time>2026-06-22T06:39:53Z</time>
   </trkpt>
   <trkpt lat="-3.0989960" lon="37.3365860">
    <ele>4229.7</ele>
    <time>2026-06-22T06:39:54Z</time>
   </trkpt>
   <trkpt lat="-3.0989950" lon="37.3365860">
    <ele>4229.7</ele>
    <time>2026-06-22T06:39:55Z</time>
   </trkpt>
   <trkpt lat="-3.0989940" lon="37.3365860">
    <ele>4229.7</ele>
    <time>2026-06-22T06:39:56Z</time>
   </trkpt>
   <trkpt lat="-3.0989940" lon="37.3365860">
    <ele>4229.7</ele>
    <time>2026-06-22T06:39:57Z</time>
   </trkpt>
   <trkpt lat="-3.0989940" lon="37.3365860">
    <ele>4229.7</ele>
    <time>2026-06-22T06:39:58Z</time>
   </trkpt>
   <trkpt lat="-3.0989960" lon="37.3365870">
    <ele>4229.8</ele>
    <time>2026-06-22T06:39:59Z</time>
   </trkpt>
   <trkpt lat="-3.0989990" lon="37.3365890">
    <ele>4229.8</ele>
    <time>2026-06-22T06:40:00Z</time>
   </trkpt>
   <trkpt lat="-3.0990000" lon="37.3365870">
    <ele>4229.8</ele>
    <time>2026-06-22T06:40:01Z</time>
   </trkpt>
   <trkpt lat="-3.0990020" lon="37.3365870">
    <ele>4229.8</ele>
    <time>2026-06-22T06:40:02Z</time>
   </trkpt>
   <trkpt lat="-3.0990020" lon="37.3365870">
    <ele>4229.8</ele>
    <time>2026-06-22T06:40:03Z</time>
   </trkpt>
   <trkpt lat="-3.0990030" lon="37.3365870">
    <ele>4229.8</ele>
    <time>2026-06-22T06:40:04Z</time>
   </trkpt>
   <trkpt lat="-3.0990030" lon="37.3365860">
    <ele>4229.9</ele>
    <time>2026-06-22T06:40:05Z</time>
   </trkpt>
   <trkpt lat="-3.0990030" lon="37.3365850">
    <ele>4229.9</ele>
    <time>2026-06-22T06:40:06Z</time>
   </trkpt>
   <trkpt lat="-3.0990030" lon="37.3365850">
    <ele>4229.9</ele>
    <time>2026-06-22T06:40:07Z</time>
   </trkpt>
   <trkpt lat="-3.0990030" lon="37.3365850">
    <ele>4229.9</ele>
    <time>2026-06-22T06:40:08Z</time>
   </trkpt>
   <trkpt lat="-3.0990030" lon="37.3365860">
    <ele>4229.9</ele>
    <time>2026-06-22T06:40:09Z</time>
   </trkpt>
   <trkpt lat="-3.0990030" lon="37.3365860">
    <ele>4229.9</ele>
    <time>2026-06-22T06:40:10Z</time>
   </trkpt>
   <trkpt lat="-3.0990030" lon="37.3365860">
    <ele>4229.9</ele>
    <time>2026-06-22T06:40:11Z</time>
   </trkpt>
   <trkpt lat="-3.0990030" lon="37.3365860">
    <ele>4229.9</ele>
    <time>2026-06-22T06:40:12Z</time>
   </trkpt>
   <trkpt lat="-3.0990030" lon="37.3365860">
    <ele>4229.9</ele>
    <time>2026-06-22T06:40:13Z</time>
   </trkpt>
   <trkpt lat="-3.0990030" lon="37.3365860">
    <ele>4229.9</ele>
    <time>2026-06-22T06:40:14Z</time>
   </trkpt>
   <trkpt lat="-3.0990030" lon="37.3365860">
    <ele>4229.9</ele>
    <time>2026-06-22T06:40:15Z</time>
   </trkpt>
   <trkpt lat="-3.0990030" lon="37.3365870">
    <ele>4229.9</ele>
    <time>2026-06-22T06:40:16Z</time>
   </trkpt>
   <trkpt lat="-3.0990040" lon="37.3365890">
    <ele>4229.9</ele>
    <time>2026-06-22T06:40:17Z</time>
   </trkpt>
   <trkpt lat="-3.0990040" lon="37.3365890">
    <ele>4229.9</ele>
    <time>2026-06-22T06:40:18Z</time>
   </trkpt>
   <trkpt lat="-3.0990050" lon="37.3365880">
    <ele>4229.9</ele>
    <time>2026-06-22T06:40:19Z</time>
   </trkpt>
   <trkpt lat="-3.0990050" lon="37.3365880">
    <ele>4229.9</ele>
    <time>2026-06-22T06:40:20Z</time>
   </trkpt>
   <trkpt lat="-3.0990050" lon="37.3365880">
    <ele>4229.9</ele>
    <time>2026-06-22T06:40:21Z</time>
   </trkpt>
   <trkpt lat="-3.0990050" lon="37.3365880">
    <ele>4229.9</ele>
    <time>2026-06-22T06:40:22Z</time>
   </trkpt>
   <trkpt lat="-3.0990050" lon="37.3365880">
    <ele>4229.9</ele>
    <time>2026-06-22T06:40:23Z</time>
   </trkpt>
   <trkpt lat="-3.0990050" lon="37.3365880">
    <ele>4229.9</ele>
    <time>2026-06-22T06:40:24Z</time>
   </trkpt>
   <trkpt lat="-3.0990050" lon="37.3365880">
    <ele>4229.9</ele>
    <time>2026-06-22T06:40:25Z</time>
   </trkpt>
   <trkpt lat="-3.0990060" lon="37.3365880">
    <ele>4229.9</ele>
    <time>2026-06-22T06:40:26Z</time>
   </trkpt>
   <trkpt lat="-3.0990050" lon="37.3365880">
    <ele>4229.9</ele>
    <time>2026-06-22T06:40:27Z</time>
   </trkpt>
   <trkpt lat="-3.0990050" lon="37.3365880">
    <ele>4229.9</ele>
    <time>2026-06-22T06:40:28Z</time>
   </trkpt>
   <trkpt lat="-3.0990050" lon="37.3365880">
    <ele>4229.9</ele>
    <time>2026-06-22T06:40:29Z</time>
   </trkpt>
   <trkpt lat="-3.0990060" lon="37.3365870">
    <ele>4229.9</ele>
    <time>2026-06-22T06:40:30Z</time>
   </trkpt>
   <trkpt lat="-3.0990080" lon="37.3365870">
    <ele>4230.0</ele>
    <time>2026-06-22T06:40:31Z</time>
   </trkpt>
   <trkpt lat="-3.0990100" lon="37.3365860">
    <ele>4230.0</ele>
    <time>2026-06-22T06:40:32Z</time>
   </trkpt>
   <trkpt lat="-3.0990100" lon="37.3365880">
    <ele>4230.0</ele>
    <time>2026-06-22T06:40:33Z</time>
   </trkpt>
   <trkpt lat="-3.0990090" lon="37.3365890">
    <ele>4230.0</ele>
    <time>2026-06-22T06:40:34Z</time>
   </trkpt>
   <trkpt lat="-3.0990090" lon="37.3365890">
    <ele>4230.0</ele>
    <time>2026-06-22T06:40:35Z</time>
   </trkpt>
   <trkpt lat="-3.0990110" lon="37.3365860">
    <ele>4230.0</ele>
    <time>2026-06-22T06:40:36Z</time>
   </trkpt>
   <trkpt lat="-3.0990110" lon="37.3365850">
    <ele>4230.0</ele>
    <time>2026-06-22T06:40:37Z</time>
   </trkpt>
   <trkpt lat="-3.0990100" lon="37.3365850">
    <ele>4230.1</ele>
    <time>2026-06-22T06:40:38Z</time>
   </trkpt>
   <trkpt lat="-3.0990100" lon="37.3365850">
    <ele>4230.1</ele>
    <time>2026-06-22T06:40:39Z</time>
   </trkpt>
   <trkpt lat="-3.0990100" lon="37.3365850">
    <ele>4230.1</ele>
    <time>2026-06-22T06:40:40Z</time>
   </trkpt>
   <trkpt lat="-3.0990110" lon="37.3365870">
    <ele>4230.1</ele>
    <time>2026-06-22T06:40:41Z</time>
   </trkpt>
   <trkpt lat="-3.0990170" lon="37.3365900">
    <ele>4230.1</ele>
    <time>2026-06-22T06:40:42Z</time>
   </trkpt>
   <trkpt lat="-3.0990260" lon="37.3365890">
    <ele>4230.2</ele>
    <time>2026-06-22T06:40:43Z</time>
   </trkpt>
   <trkpt lat="-3.0990310" lon="37.3365890">
    <ele>4230.2</ele>
    <time>2026-06-22T06:40:44Z</time>
   </trkpt>
   <trkpt lat="-3.0990330" lon="37.3365930">
    <ele>4230.2</ele>
    <time>2026-06-22T06:40:45Z</time>
   </trkpt>
   <trkpt lat="-3.0990460" lon="37.3365980">
    <ele>4230.3</ele>
    <time>2026-06-22T06:40:46Z</time>
   </trkpt>
   <trkpt lat="-3.0990580" lon="37.3366010">
    <ele>4230.3</ele>
    <time>2026-06-22T06:40:47Z</time>
   </trkpt>
   <trkpt lat="-3.0990680" lon="37.3366050">
    <ele>4230.4</ele>
    <time>2026-06-22T06:40:48Z</time>
   </trkpt>
   <trkpt lat="-3.0990790" lon="37.3366040">
    <ele>4230.4</ele>
    <time>2026-06-22T06:40:49Z</time>
   </trkpt>
   <trkpt lat="-3.0990880" lon="37.3366030">
    <ele>4230.5</ele>
    <time>2026-06-22T06:40:50Z</time>
   </trkpt>
   <trkpt lat="-3.0990970" lon="37.3366030">
    <ele>4230.5</ele>
    <time>2026-06-22T06:40:51Z</time>
   </trkpt>
   <trkpt lat="-3.0991010" lon="37.3366020">
    <ele>4230.5</ele>
    <time>2026-06-22T06:40:52Z</time>
   </trkpt>
   <trkpt lat="-3.0991080" lon="37.3365990">
    <ele>4230.5</ele>
    <time>2026-06-22T06:40:53Z</time>
   </trkpt>
   <trkpt lat="-3.0991190" lon="37.3365960">
    <ele>4230.5</ele>
    <time>2026-06-22T06:40:54Z</time>
   </trkpt>
   <trkpt lat="-3.0991360" lon="37.3365950">
    <ele>4230.6</ele>
    <time>2026-06-22T06:40:55Z</time>
   </trkpt>
   <trkpt lat="-3.0991410" lon="37.3365950">
    <ele>4230.6</ele>
    <time>2026-06-22T06:40:56Z</time>
   </trkpt>
   <trkpt lat="-3.0991440" lon="37.3365930">
    <ele>4230.6</ele>
    <time>2026-06-22T06:40:57Z</time>
   </trkpt>
   <trkpt lat="-3.0991470" lon="37.3365910">
    <ele>4230.6</ele>
    <time>2026-06-22T06:40:58Z</time>
   </trkpt>
   <trkpt lat="-3.0991450" lon="37.3365920">
    <ele>4230.6</ele>
    <time>2026-06-22T06:40:59Z</time>
   </trkpt>
   <trkpt lat="-3.0991440" lon="37.3365920">
    <ele>4230.6</ele>
    <time>2026-06-22T06:41:00Z</time>
   </trkpt>
   <trkpt lat="-3.0991440" lon="37.3365920">
    <ele>4230.6</ele>
    <time>2026-06-22T06:41:01Z</time>
   </trkpt>
   <trkpt lat="-3.0991440" lon="37.3365910">
    <ele>4230.6</ele>
    <time>2026-06-22T06:41:02Z</time>
   </trkpt>
   <trkpt lat="-3.0991450" lon="37.3365920">
    <ele>4230.6</ele>
    <time>2026-06-22T06:41:03Z</time>
   </trkpt>
   <trkpt lat="-3.0991450" lon="37.3365930">
    <ele>4230.6</ele>
    <time>2026-06-22T06:41:04Z</time>
   </trkpt>
   <trkpt lat="-3.0991460" lon="37.3365930">
    <ele>4230.6</ele>
    <time>2026-06-22T06:41:05Z</time>
   </trkpt>
   <trkpt lat="-3.0991470" lon="37.3365930">
    <ele>4230.6</ele>
    <time>2026-06-22T06:41:06Z</time>
   </trkpt>
   <trkpt lat="-3.0991480" lon="37.3365930">
    <ele>4230.6</ele>
    <time>2026-06-22T06:41:07Z</time>
   </trkpt>
   <trkpt lat="-3.0991480" lon="37.3365920">
    <ele>4230.6</ele>
    <time>2026-06-22T06:41:08Z</time>
   </trkpt>
   <trkpt lat="-3.0991480" lon="37.3365910">
    <ele>4230.6</ele>
    <time>2026-06-22T06:41:09Z</time>
   </trkpt>
   <trkpt lat="-3.0991480" lon="37.3365910">
    <ele>4230.6</ele>
    <time>2026-06-22T06:41:10Z</time>
   </trkpt>
   <trkpt lat="-3.0991480" lon="37.3365920">
    <ele>4230.6</ele>
    <time>2026-06-22T06:41:11Z</time>
   </trkpt>
   <trkpt lat="-3.0991480" lon="37.3365920">
    <ele>4230.6</ele>
    <time>2026-06-22T06:41:12Z</time>
   </trkpt>
   <trkpt lat="-3.0991480" lon="37.3365930">
    <ele>4230.6</ele>
    <time>2026-06-22T06:41:13Z</time>
   </trkpt>
   <trkpt lat="-3.0991490" lon="37.3365920">
    <ele>4230.6</ele>
    <time>2026-06-22T06:41:14Z</time>
   </trkpt>
   <trkpt lat="-3.0991480" lon="37.3365930">
    <ele>4230.6</ele>
    <time>2026-06-22T06:41:15Z</time>
   </trkpt>
   <trkpt lat="-3.0991480" lon="37.3365930">
    <ele>4230.6</ele>
    <time>2026-06-22T06:41:16Z</time>
   </trkpt>
   <trkpt lat="-3.0991490" lon="37.3365920">
    <ele>4230.6</ele>
    <time>2026-06-22T06:41:17Z</time>
   </trkpt>
   <trkpt lat="-3.0991490" lon="37.3365920">
    <ele>4230.6</ele>
    <time>2026-06-22T06:41:18Z</time>
   </trkpt>
   <trkpt lat="-3.0991500" lon="37.3365910">
    <ele>4230.6</ele>
    <time>2026-06-22T06:41:19Z</time>
   </trkpt>
   <trkpt lat="-3.0991490" lon="37.3365910">
    <ele>4230.6</ele>
    <time>2026-06-22T06:41:20Z</time>
   </trkpt>
   <trkpt lat="-3.0991490" lon="37.3365910">
    <ele>4230.6</ele>
    <time>2026-06-22T06:41:21Z</time>
   </trkpt>
   <trkpt lat="-3.0991490" lon="37.3365910">
    <ele>4230.6</ele>
    <time>2026-06-22T06:41:22Z</time>
   </trkpt>
   <trkpt lat="-3.0991500" lon="37.3365910">
    <ele>4230.6</ele>
    <time>2026-06-22T06:41:23Z</time>
   </trkpt>
   <trkpt lat="-3.0991500" lon="37.3365910">
    <ele>4230.6</ele>
    <time>2026-06-22T06:41:24Z</time>
   </trkpt>
   <trkpt lat="-3.0991510" lon="37.3365910">
    <ele>4230.6</ele>
    <time>2026-06-22T06:41:25Z</time>
   </trkpt>
   <trkpt lat="-3.0991510" lon="37.3365910">
    <ele>4230.6</ele>
    <time>2026-06-22T06:41:26Z</time>
   </trkpt>
   <trkpt lat="-3.0991510" lon="37.3365910">
    <ele>4230.6</ele>
    <time>2026-06-22T06:41:27Z</time>
   </trkpt>
   <trkpt lat="-3.0991510" lon="37.3365910">
    <ele>4230.6</ele>
    <time>2026-06-22T06:41:28Z</time>
   </trkpt>
   <trkpt lat="-3.0991510" lon="37.3365910">
    <ele>4230.6</ele>
    <time>2026-06-22T06:41:29Z</time>
   </trkpt>
   <trkpt lat="-3.0991510" lon="37.3365910">
    <ele>4230.6</ele>
    <time>2026-06-22T06:41:30Z</time>
   </trkpt>
   <trkpt lat="-3.0991520" lon="37.3365900">
    <ele>4230.6</ele>
    <time>2026-06-22T06:41:31Z</time>
   </trkpt>
   <trkpt lat="-3.0991520" lon="37.3365900">
    <ele>4230.6</ele>
    <time>2026-06-22T06:41:32Z</time>
   </trkpt>
   <trkpt lat="-3.0991520" lon="37.3365900">
    <ele>4230.6</ele>
    <time>2026-06-22T06:41:33Z</time>
   </trkpt>
   <trkpt lat="-3.0991520" lon="37.3365900">
    <ele>4230.6</ele>
    <time>2026-06-22T06:41:34Z</time>
   </trkpt>
   <trkpt lat="-3.0991520" lon="37.3365900">
    <ele>4230.6</ele>
    <time>2026-06-22T06:41:35Z</time>
   </trkpt>
   <trkpt lat="-3.0991520" lon="37.3365900">
    <ele>4230.6</ele>
    <time>2026-06-22T06:41:36Z</time>
   </trkpt>
   <trkpt lat="-3.0991520" lon="37.3365900">
    <ele>4230.6</ele>
    <time>2026-06-22T06:41:37Z</time>
   </trkpt>
   <trkpt lat="-3.0991520" lon="37.3365900">
    <ele>4230.6</ele>
    <time>2026-06-22T06:41:38Z</time>
   </trkpt>
   <trkpt lat="-3.0991520" lon="37.3365900">
    <ele>4230.6</ele>
    <time>2026-06-22T06:41:39Z</time>
   </trkpt>
   <trkpt lat="-3.0991520" lon="37.3365900">
    <ele>4230.6</ele>
    <time>2026-06-22T06:41:40Z</time>
   </trkpt>
   <trkpt lat="-3.0991520" lon="37.3365900">
    <ele>4230.6</ele>
    <time>2026-06-22T06:41:41Z</time>
   </trkpt>
   <trkpt lat="-3.0991520" lon="37.3365900">
    <ele>4230.6</ele>
    <time>2026-06-22T06:41:42Z</time>
   </trkpt>
   <trkpt lat="-3.0991530" lon="37.3365890">
    <ele>4230.6</ele>
    <time>2026-06-22T06:41:43Z</time>
   </trkpt>
   <trkpt lat="-3.0991530" lon="37.3365890">
    <ele>4230.6</ele>
    <time>2026-06-22T06:41:44Z</time>
   </trkpt>
   <trkpt lat="-3.0991530" lon="37.3365890">
    <ele>4230.6</ele>
    <time>2026-06-22T06:41:45Z</time>
   </trkpt>
   <trkpt lat="-3.0991530" lon="37.3365890">
    <ele>4230.6</ele>
    <time>2026-06-22T06:41:46Z</time>
   </trkpt>
   <trkpt lat="-3.0991530" lon="37.3365890">
    <ele>4230.6</ele>
    <time>2026-06-22T06:41:47Z</time>
   </trkpt>
   <trkpt lat="-3.0991530" lon="37.3365890">
    <ele>4230.6</ele>
    <time>2026-06-22T06:41:48Z</time>
   </trkpt>
   <trkpt lat="-3.0991530" lon="37.3365890">
    <ele>4230.6</ele>
    <time>2026-06-22T06:41:49Z</time>
   </trkpt>
   <trkpt lat="-3.0991520" lon="37.3365880">
    <ele>4230.6</ele>
    <time>2026-06-22T06:41:50Z</time>
   </trkpt>
   <trkpt lat="-3.0991520" lon="37.3365880">
    <ele>4230.6</ele>
    <time>2026-06-22T06:41:51Z</time>
   </trkpt>
   <trkpt lat="-3.0991520" lon="37.3365880">
    <ele>4230.6</ele>
    <time>2026-06-22T06:41:52Z</time>
   </trkpt>
   <trkpt lat="-3.0991520" lon="37.3365880">
    <ele>4230.6</ele>
    <time>2026-06-22T06:41:53Z</time>
   </trkpt>
   <trkpt lat="-3.0991520" lon="37.3365880">
    <ele>4230.6</ele>
    <time>2026-06-22T06:41:54Z</time>
   </trkpt>
   <trkpt lat="-3.0991520" lon="37.3365880">
    <ele>4230.6</ele>
    <time>2026-06-22T06:41:55Z</time>
   </trkpt>
   <trkpt lat="-3.0991530" lon="37.3365870">
    <ele>4230.6</ele>
    <time>2026-06-22T06:41:56Z</time>
   </trkpt>
   <trkpt lat="-3.0991510" lon="37.3365850">
    <ele>4230.6</ele>
    <time>2026-06-22T06:41:57Z</time>
   </trkpt>
   <trkpt lat="-3.0991490" lon="37.3365850">
    <ele>4230.6</ele>
    <time>2026-06-22T06:41:58Z</time>
   </trkpt>
   <trkpt lat="-3.0991460" lon="37.3365870">
    <ele>4230.6</ele>
    <time>2026-06-22T06:41:59Z</time>
   </trkpt>
   <trkpt lat="-3.0991400" lon="37.3365890">
    <ele>4230.6</ele>
    <time>2026-06-22T06:42:00Z</time>
   </trkpt>
   <trkpt lat="-3.0991310" lon="37.3365910">
    <ele>4230.6</ele>
    <time>2026-06-22T06:42:01Z</time>
   </trkpt>
   <trkpt lat="-3.0991220" lon="37.3365920">
    <ele>4230.6</ele>
    <time>2026-06-22T06:42:02Z</time>
   </trkpt>
   <trkpt lat="-3.0991130" lon="37.3365930">
    <ele>4230.6</ele>
    <time>2026-06-22T06:42:03Z</time>
   </trkpt>
   <trkpt lat="-3.0991040" lon="37.3365950">
    <ele>4230.6</ele>
    <time>2026-06-22T06:42:04Z</time>
   </trkpt>
   <trkpt lat="-3.0990980" lon="37.3365970">
    <ele>4230.6</ele>
    <time>2026-06-22T06:42:05Z</time>
   </trkpt>
   <trkpt lat="-3.0990930" lon="37.3365960">
    <ele>4230.6</ele>
    <time>2026-06-22T06:42:06Z</time>
   </trkpt>
   <trkpt lat="-3.0990880" lon="37.3365950">
    <ele>4230.6</ele>
    <time>2026-06-22T06:42:07Z</time>
   </trkpt>
   <trkpt lat="-3.0990880" lon="37.3365950">
    <ele>4230.6</ele>
    <time>2026-06-22T06:42:08Z</time>
   </trkpt>
   <trkpt lat="-3.0990870" lon="37.3365950">
    <ele>4230.6</ele>
    <time>2026-06-22T06:42:09Z</time>
   </trkpt>
   <trkpt lat="-3.0990810" lon="37.3365960">
    <ele>4230.6</ele>
    <time>2026-06-22T06:42:10Z</time>
   </trkpt>
   <trkpt lat="-3.0990870" lon="37.3365910">
    <ele>4230.6</ele>
    <time>2026-06-22T06:42:11Z</time>
   </trkpt>
   <trkpt lat="-3.0990820" lon="37.3365930">
    <ele>4230.6</ele>
    <time>2026-06-22T06:42:12Z</time>
   </trkpt>
   <trkpt lat="-3.0990860" lon="37.3365920">
    <ele>4230.6</ele>
    <time>2026-06-22T06:42:13Z</time>
   </trkpt>
   <trkpt lat="-3.0990830" lon="37.3365950">
    <ele>4230.6</ele>
    <time>2026-06-22T06:42:14Z</time>
   </trkpt>
   <trkpt lat="-3.0990840" lon="37.3365940">
    <ele>4230.6</ele>
    <time>2026-06-22T06:42:15Z</time>
   </trkpt>
   <trkpt lat="-3.0990850" lon="37.3365950">
    <ele>4230.6</ele>
    <time>2026-06-22T06:42:16Z</time>
   </trkpt>
   <trkpt lat="-3.0990860" lon="37.3365950">
    <ele>4230.6</ele>
    <time>2026-06-22T06:42:17Z</time>
   </trkpt>
   <trkpt lat="-3.0990850" lon="37.3365950">
    <ele>4230.6</ele>
    <time>2026-06-22T06:42:18Z</time>
   </trkpt>
   <trkpt lat="-3.0990780" lon="37.3365950">
    <ele>4230.6</ele>
    <time>2026-06-22T06:42:19Z</time>
   </trkpt>
   <trkpt lat="-3.0990730" lon="37.3365950">
    <ele>4230.6</ele>
    <time>2026-06-22T06:42:20Z</time>
   </trkpt>
   <trkpt lat="-3.0990750" lon="37.3365970">
    <ele>4230.6</ele>
    <time>2026-06-22T06:42:21Z</time>
   </trkpt>
   <trkpt lat="-3.0990740" lon="37.3365980">
    <ele>4230.6</ele>
    <time>2026-06-22T06:42:22Z</time>
   </trkpt>
   <trkpt lat="-3.0990740" lon="37.3365980">
    <ele>4230.6</ele>
    <time>2026-06-22T06:42:23Z</time>
   </trkpt>
   <trkpt lat="-3.0990720" lon="37.3365980">
    <ele>4230.6</ele>
    <time>2026-06-22T06:42:24Z</time>
   </trkpt>
   <trkpt lat="-3.0990740" lon="37.3365960">
    <ele>4230.6</ele>
    <time>2026-06-22T06:42:25Z</time>
   </trkpt>
   <trkpt lat="-3.0990660" lon="37.3365980">
    <ele>4230.6</ele>
    <time>2026-06-22T06:42:26Z</time>
   </trkpt>
   <trkpt lat="-3.0990560" lon="37.3366000">
    <ele>4230.6</ele>
    <time>2026-06-22T06:42:27Z</time>
   </trkpt>
   <trkpt lat="-3.0990390" lon="37.3365950">
    <ele>4230.6</ele>
    <time>2026-06-22T06:42:28Z</time>
   </trkpt>
   <trkpt lat="-3.0990260" lon="37.3365920">
    <ele>4230.6</ele>
    <time>2026-06-22T06:42:29Z</time>
   </trkpt>
   <trkpt lat="-3.0990230" lon="37.3365880">
    <ele>4230.6</ele>
    <time>2026-06-22T06:42:30Z</time>
   </trkpt>
   <trkpt lat="-3.0990170" lon="37.3365850">
    <ele>4230.6</ele>
    <time>2026-06-22T06:42:31Z</time>
   </trkpt>
   <trkpt lat="-3.0990120" lon="37.3365870">
    <ele>4230.6</ele>
    <time>2026-06-22T06:42:32Z</time>
   </trkpt>
   <trkpt lat="-3.0989980" lon="37.3365860">
    <ele>4230.6</ele>
    <time>2026-06-22T06:42:33Z</time>
   </trkpt>
   <trkpt lat="-3.0989910" lon="37.3365880">
    <ele>4230.6</ele>
    <time>2026-06-22T06:42:34Z</time>
   </trkpt>
   <trkpt lat="-3.0989770" lon="37.3365940">
    <ele>4230.6</ele>
    <time>2026-06-22T06:42:35Z</time>
   </trkpt>
   <trkpt lat="-3.0989660" lon="37.3365980">
    <ele>4230.6</ele>
    <time>2026-06-22T06:42:36Z</time>
   </trkpt>
   <trkpt lat="-3.0989570" lon="37.3365970">
    <ele>4230.5</ele>
    <time>2026-06-22T06:42:37Z</time>
   </trkpt>
   <trkpt lat="-3.0989480" lon="37.3366000">
    <ele>4230.5</ele>
    <time>2026-06-22T06:42:38Z</time>
   </trkpt>
   <trkpt lat="-3.0989460" lon="37.3366040">
    <ele>4230.5</ele>
    <time>2026-06-22T06:42:39Z</time>
   </trkpt>
   <trkpt lat="-3.0989450" lon="37.3366050">
    <ele>4230.5</ele>
    <time>2026-06-22T06:42:40Z</time>
   </trkpt>
   <trkpt lat="-3.0989440" lon="37.3366060">
    <ele>4230.5</ele>
    <time>2026-06-22T06:42:41Z</time>
   </trkpt>
   <trkpt lat="-3.0989450" lon="37.3366050">
    <ele>4230.5</ele>
    <time>2026-06-22T06:42:42Z</time>
   </trkpt>
   <trkpt lat="-3.0989450" lon="37.3366050">
    <ele>4230.5</ele>
    <time>2026-06-22T06:42:43Z</time>
   </trkpt>
   <trkpt lat="-3.0989450" lon="37.3366050">
    <ele>4230.5</ele>
    <time>2026-06-22T06:42:44Z</time>
   </trkpt>
   <trkpt lat="-3.0989440" lon="37.3366070">
    <ele>4230.5</ele>
    <time>2026-06-22T06:42:45Z</time>
   </trkpt>
   <trkpt lat="-3.0989420" lon="37.3366070">
    <ele>4230.5</ele>
    <time>2026-06-22T06:42:46Z</time>
   </trkpt>
   <trkpt lat="-3.0989380" lon="37.3366110">
    <ele>4230.5</ele>
    <time>2026-06-22T06:42:47Z</time>
   </trkpt>
   <trkpt lat="-3.0989390" lon="37.3366110">
    <ele>4230.5</ele>
    <time>2026-06-22T06:42:48Z</time>
   </trkpt>
   <trkpt lat="-3.0989410" lon="37.3366100">
    <ele>4230.5</ele>
    <time>2026-06-22T06:42:49Z</time>
   </trkpt>
   <trkpt lat="-3.0989420" lon="37.3366090">
    <ele>4230.5</ele>
    <time>2026-06-22T06:42:50Z</time>
   </trkpt>
   <trkpt lat="-3.0989390" lon="37.3366140">
    <ele>4230.5</ele>
    <time>2026-06-22T06:42:51Z</time>
   </trkpt>
   <trkpt lat="-3.0989350" lon="37.3366170">
    <ele>4230.5</ele>
    <time>2026-06-22T06:42:52Z</time>
   </trkpt>
   <trkpt lat="-3.0989340" lon="37.3366210">
    <ele>4230.5</ele>
    <time>2026-06-22T06:42:53Z</time>
   </trkpt>
   <trkpt lat="-3.0989280" lon="37.3366220">
    <ele>4230.5</ele>
    <time>2026-06-22T06:42:54Z</time>
   </trkpt>
   <trkpt lat="-3.0989270" lon="37.3366230">
    <ele>4230.5</ele>
    <time>2026-06-22T06:42:55Z</time>
   </trkpt>
   <trkpt lat="-3.0989240" lon="37.3366240">
    <ele>4230.5</ele>
    <time>2026-06-22T06:42:56Z</time>
   </trkpt>
   <trkpt lat="-3.0989250" lon="37.3366240">
    <ele>4230.5</ele>
    <time>2026-06-22T06:42:57Z</time>
   </trkpt>
   <trkpt lat="-3.0989250" lon="37.3366260">
    <ele>4230.5</ele>
    <time>2026-06-22T06:42:58Z</time>
   </trkpt>
   <trkpt lat="-3.0989240" lon="37.3366410">
    <ele>4230.5</ele>
    <time>2026-06-22T06:42:59Z</time>
   </trkpt>
   <trkpt lat="-3.0989200" lon="37.3366250">
    <ele>4230.5</ele>
    <time>2026-06-22T06:43:00Z</time>
   </trkpt>
   <trkpt lat="-3.0989190" lon="37.3366310">
    <ele>4230.5</ele>
    <time>2026-06-22T06:43:01Z</time>
   </trkpt>
   <trkpt lat="-3.0989190" lon="37.3366330">
    <ele>4230.5</ele>
    <time>2026-06-22T06:43:02Z</time>
   </trkpt>
   <trkpt lat="-3.0989190" lon="37.3366390">
    <ele>4230.5</ele>
    <time>2026-06-22T06:43:03Z</time>
   </trkpt>
   <trkpt lat="-3.0989170" lon="37.3366400">
    <ele>4230.4</ele>
    <time>2026-06-22T06:43:04Z</time>
   </trkpt>
   <trkpt lat="-3.0989140" lon="37.3366400">
    <ele>4230.4</ele>
    <time>2026-06-22T06:43:05Z</time>
   </trkpt>
   <trkpt lat="-3.0989110" lon="37.3366420">
    <ele>4230.4</ele>
    <time>2026-06-22T06:43:06Z</time>
   </trkpt>
   <trkpt lat="-3.0989090" lon="37.3366450">
    <ele>4230.4</ele>
    <time>2026-06-22T06:43:07Z</time>
   </trkpt>
   <trkpt lat="-3.0989100" lon="37.3366440">
    <ele>4230.4</ele>
    <time>2026-06-22T06:43:08Z</time>
   </trkpt>
   <trkpt lat="-3.0989080" lon="37.3366450">
    <ele>4230.4</ele>
    <time>2026-06-22T06:43:09Z</time>
   </trkpt>
   <trkpt lat="-3.0989050" lon="37.3366430">
    <ele>4230.4</ele>
    <time>2026-06-22T06:43:10Z</time>
   </trkpt>
   <trkpt lat="-3.0989010" lon="37.3366380">
    <ele>4230.4</ele>
    <time>2026-06-22T06:43:11Z</time>
   </trkpt>
   <trkpt lat="-3.0988970" lon="37.3366360">
    <ele>4230.4</ele>
    <time>2026-06-22T06:43:12Z</time>
   </trkpt>
   <trkpt lat="-3.0988920" lon="37.3366350">
    <ele>4230.4</ele>
    <time>2026-06-22T06:43:13Z</time>
   </trkpt>
   <trkpt lat="-3.0988910" lon="37.3366350">
    <ele>4230.4</ele>
    <time>2026-06-22T06:43:14Z</time>
   </trkpt>
   <trkpt lat="-3.0988860" lon="37.3366370">
    <ele>4230.4</ele>
    <time>2026-06-22T06:43:15Z</time>
   </trkpt>
   <trkpt lat="-3.0988830" lon="37.3366390">
    <ele>4230.4</ele>
    <time>2026-06-22T06:43:16Z</time>
   </trkpt>
   <trkpt lat="-3.0988760" lon="37.3366430">
    <ele>4230.4</ele>
    <time>2026-06-22T06:43:17Z</time>
   </trkpt>
   <trkpt lat="-3.0988710" lon="37.3366460">
    <ele>4230.4</ele>
    <time>2026-06-22T06:43:18Z</time>
   </trkpt>
   <trkpt lat="-3.0988740" lon="37.3366440">
    <ele>4230.4</ele>
    <time>2026-06-22T06:43:19Z</time>
   </trkpt>
   <trkpt lat="-3.0988700" lon="37.3366450">
    <ele>4230.4</ele>
    <time>2026-06-22T06:43:20Z</time>
   </trkpt>
   <trkpt lat="-3.0988670" lon="37.3366440">
    <ele>4230.4</ele>
    <time>2026-06-22T06:43:21Z</time>
   </trkpt>
   <trkpt lat="-3.0988560" lon="37.3366520">
    <ele>4230.4</ele>
    <time>2026-06-22T06:43:22Z</time>
   </trkpt>
   <trkpt lat="-3.0988540" lon="37.3366530">
    <ele>4230.4</ele>
    <time>2026-06-22T06:43:23Z</time>
   </trkpt>
   <trkpt lat="-3.0988580" lon="37.3366540">
    <ele>4230.4</ele>
    <time>2026-06-22T06:43:24Z</time>
   </trkpt>
   <trkpt lat="-3.0988640" lon="37.3366540">
    <ele>4230.3</ele>
    <time>2026-06-22T06:43:25Z</time>
   </trkpt>
   <trkpt lat="-3.0988680" lon="37.3366600">
    <ele>4230.3</ele>
    <time>2026-06-22T06:43:26Z</time>
   </trkpt>
   <trkpt lat="-3.0988750" lon="37.3366610">
    <ele>4230.3</ele>
    <time>2026-06-22T06:43:27Z</time>
   </trkpt>
   <trkpt lat="-3.0988790" lon="37.3366630">
    <ele>4230.3</ele>
    <time>2026-06-22T06:43:28Z</time>
   </trkpt>
   <trkpt lat="-3.0988900" lon="37.3366620">
    <ele>4230.3</ele>
    <time>2026-06-22T06:43:29Z</time>
   </trkpt>
   <trkpt lat="-3.0988950" lon="37.3366630">
    <ele>4230.3</ele>
    <time>2026-06-22T06:43:30Z</time>
   </trkpt>
   <trkpt lat="-3.0989010" lon="37.3366660">
    <ele>4230.3</ele>
    <time>2026-06-22T06:43:31Z</time>
   </trkpt>
   <trkpt lat="-3.0989060" lon="37.3366650">
    <ele>4230.3</ele>
    <time>2026-06-22T06:43:32Z</time>
   </trkpt>
   <trkpt lat="-3.0989120" lon="37.3366670">
    <ele>4230.3</ele>
    <time>2026-06-22T06:43:33Z</time>
   </trkpt>
   <trkpt lat="-3.0989180" lon="37.3366670">
    <ele>4230.3</ele>
    <time>2026-06-22T06:43:34Z</time>
   </trkpt>
   <trkpt lat="-3.0989200" lon="37.3366700">
    <ele>4230.3</ele>
    <time>2026-06-22T06:43:35Z</time>
   </trkpt>
   <trkpt lat="-3.0989220" lon="37.3366710">
    <ele>4230.3</ele>
    <time>2026-06-22T06:43:36Z</time>
   </trkpt>
   <trkpt lat="-3.0989240" lon="37.3366700">
    <ele>4230.3</ele>
    <time>2026-06-22T06:43:37Z</time>
   </trkpt>
   <trkpt lat="-3.0989240" lon="37.3366730">
    <ele>4230.3</ele>
    <time>2026-06-22T06:43:38Z</time>
   </trkpt>
   <trkpt lat="-3.0989280" lon="37.3366740">
    <ele>4230.3</ele>
    <time>2026-06-22T06:43:39Z</time>
   </trkpt>
   <trkpt lat="-3.0989290" lon="37.3366770">
    <ele>4230.3</ele>
    <time>2026-06-22T06:43:40Z</time>
   </trkpt>
   <trkpt lat="-3.0989340" lon="37.3366840">
    <ele>4230.3</ele>
    <time>2026-06-22T06:43:41Z</time>
   </trkpt>
   <trkpt lat="-3.0989350" lon="37.3366820">
    <ele>4230.3</ele>
    <time>2026-06-22T06:43:42Z</time>
   </trkpt>
   <trkpt lat="-3.0989360" lon="37.3366820">
    <ele>4230.3</ele>
    <time>2026-06-22T06:43:43Z</time>
   </trkpt>
   <trkpt lat="-3.0989370" lon="37.3366840">
    <ele>4230.3</ele>
    <time>2026-06-22T06:43:44Z</time>
   </trkpt>
   <trkpt lat="-3.0989380" lon="37.3366880">
    <ele>4230.2</ele>
    <time>2026-06-22T06:43:45Z</time>
   </trkpt>
   <trkpt lat="-3.0989470" lon="37.3366960">
    <ele>4230.2</ele>
    <time>2026-06-22T06:43:46Z</time>
   </trkpt>
   <trkpt lat="-3.0989480" lon="37.3366950">
    <ele>4230.2</ele>
    <time>2026-06-22T06:43:47Z</time>
   </trkpt>
   <trkpt lat="-3.0989520" lon="37.3366990">
    <ele>4230.2</ele>
    <time>2026-06-22T06:43:48Z</time>
   </trkpt>
   <trkpt lat="-3.0989560" lon="37.3367030">
    <ele>4230.2</ele>
    <time>2026-06-22T06:43:49Z</time>
   </trkpt>
   <trkpt lat="-3.0989560" lon="37.3367040">
    <ele>4230.2</ele>
    <time>2026-06-22T06:43:50Z</time>
   </trkpt>
   <trkpt lat="-3.0989520" lon="37.3367080">
    <ele>4230.2</ele>
    <time>2026-06-22T06:43:51Z</time>
   </trkpt>
   <trkpt lat="-3.0989510" lon="37.3367090">
    <ele>4230.2</ele>
    <time>2026-06-22T06:43:52Z</time>
   </trkpt>
   <trkpt lat="-3.0989490" lon="37.3367090">
    <ele>4230.2</ele>
    <time>2026-06-22T06:43:53Z</time>
   </trkpt>
   <trkpt lat="-3.0989490" lon="37.3367100">
    <ele>4230.2</ele>
    <time>2026-06-22T06:43:54Z</time>
   </trkpt>
   <trkpt lat="-3.0989480" lon="37.3367140">
    <ele>4230.2</ele>
    <time>2026-06-22T06:43:55Z</time>
   </trkpt>
   <trkpt lat="-3.0989460" lon="37.3367130">
    <ele>4230.2</ele>
    <time>2026-06-22T06:43:56Z</time>
   </trkpt>
   <trkpt lat="-3.0989470" lon="37.3367170">
    <ele>4230.2</ele>
    <time>2026-06-22T06:43:57Z</time>
   </trkpt>
   <trkpt lat="-3.0989500" lon="37.3367200">
    <ele>4230.2</ele>
    <time>2026-06-22T06:43:58Z</time>
   </trkpt>
   <trkpt lat="-3.0989510" lon="37.3367250">
    <ele>4230.2</ele>
    <time>2026-06-22T06:43:59Z</time>
   </trkpt>
   <trkpt lat="-3.0989490" lon="37.3367360">
    <ele>4230.2</ele>
    <time>2026-06-22T06:44:00Z</time>
   </trkpt>
   <trkpt lat="-3.0989410" lon="37.3367380">
    <ele>4230.2</ele>
    <time>2026-06-22T06:44:01Z</time>
   </trkpt>
   <trkpt lat="-3.0989320" lon="37.3367360">
    <ele>4230.1</ele>
    <time>2026-06-22T06:44:02Z</time>
   </trkpt>
   <trkpt lat="-3.0989280" lon="37.3367340">
    <ele>4230.1</ele>
    <time>2026-06-22T06:44:03Z</time>
   </trkpt>
   <trkpt lat="-3.0989230" lon="37.3367340">
    <ele>4230.1</ele>
    <time>2026-06-22T06:44:04Z</time>
   </trkpt>
   <trkpt lat="-3.0989230" lon="37.3367350">
    <ele>4230.1</ele>
    <time>2026-06-22T06:44:05Z</time>
   </trkpt>
   <trkpt lat="-3.0989220" lon="37.3367340">
    <ele>4230.1</ele>
    <time>2026-06-22T06:44:06Z</time>
   </trkpt>
   <trkpt lat="-3.0989180" lon="37.3367370">
    <ele>4230.1</ele>
    <time>2026-06-22T06:44:07Z</time>
   </trkpt>
   <trkpt lat="-3.0989170" lon="37.3367390">
    <ele>4230.1</ele>
    <time>2026-06-22T06:44:08Z</time>
   </trkpt>
   <trkpt lat="-3.0989120" lon="37.3367400">
    <ele>4230.1</ele>
    <time>2026-06-22T06:44:09Z</time>
   </trkpt>
   <trkpt lat="-3.0989080" lon="37.3367400">
    <ele>4230.1</ele>
    <time>2026-06-22T06:44:10Z</time>
   </trkpt>
   <trkpt lat="-3.0989050" lon="37.3367410">
    <ele>4230.1</ele>
    <time>2026-06-22T06:44:11Z</time>
   </trkpt>
   <trkpt lat="-3.0989020" lon="37.3367430">
    <ele>4230.1</ele>
    <time>2026-06-22T06:44:12Z</time>
   </trkpt>
   <trkpt lat="-3.0988950" lon="37.3367560">
    <ele>4230.1</ele>
    <time>2026-06-22T06:44:13Z</time>
   </trkpt>
   <trkpt lat="-3.0988980" lon="37.3367530">
    <ele>4230.0</ele>
    <time>2026-06-22T06:44:14Z</time>
   </trkpt>
   <trkpt lat="-3.0988950" lon="37.3367550">
    <ele>4230.0</ele>
    <time>2026-06-22T06:44:15Z</time>
   </trkpt>
   <trkpt lat="-3.0988930" lon="37.3367550">
    <ele>4230.0</ele>
    <time>2026-06-22T06:44:16Z</time>
   </trkpt>
   <trkpt lat="-3.0988920" lon="37.3367590">
    <ele>4230.0</ele>
    <time>2026-06-22T06:44:17Z</time>
   </trkpt>
   <trkpt lat="-3.0988880" lon="37.3367610">
    <ele>4230.0</ele>
    <time>2026-06-22T06:44:18Z</time>
   </trkpt>
   <trkpt lat="-3.0988880" lon="37.3367600">
    <ele>4230.0</ele>
    <time>2026-06-22T06:44:19Z</time>
   </trkpt>
   <trkpt lat="-3.0988820" lon="37.3367620">
    <ele>4230.0</ele>
    <time>2026-06-22T06:44:20Z</time>
   </trkpt>
   <trkpt lat="-3.0988820" lon="37.3367610">
    <ele>4230.0</ele>
    <time>2026-06-22T06:44:21Z</time>
   </trkpt>
   <trkpt lat="-3.0988800" lon="37.3367600">
    <ele>4230.0</ele>
    <time>2026-06-22T06:44:22Z</time>
   </trkpt>
   <trkpt lat="-3.0988790" lon="37.3367590">
    <ele>4230.0</ele>
    <time>2026-06-22T06:44:23Z</time>
   </trkpt>
   <trkpt lat="-3.0988660" lon="37.3367620">
    <ele>4229.9</ele>
    <time>2026-06-22T06:44:24Z</time>
   </trkpt>
   <trkpt lat="-3.0988670" lon="37.3367610">
    <ele>4229.9</ele>
    <time>2026-06-22T06:44:25Z</time>
   </trkpt>
   <trkpt lat="-3.0988690" lon="37.3367600">
    <ele>4229.9</ele>
    <time>2026-06-22T06:44:26Z</time>
   </trkpt>
   <trkpt lat="-3.0988680" lon="37.3367590">
    <ele>4229.9</ele>
    <time>2026-06-22T06:44:27Z</time>
   </trkpt>
   <trkpt lat="-3.0988670" lon="37.3367590">
    <ele>4229.9</ele>
    <time>2026-06-22T06:44:28Z</time>
   </trkpt>
   <trkpt lat="-3.0988630" lon="37.3367600">
    <ele>4229.9</ele>
    <time>2026-06-22T06:44:29Z</time>
   </trkpt>
   <trkpt lat="-3.0988580" lon="37.3367590">
    <ele>4229.9</ele>
    <time>2026-06-22T06:44:30Z</time>
   </trkpt>
   <trkpt lat="-3.0988600" lon="37.3367580">
    <ele>4229.9</ele>
    <time>2026-06-22T06:44:31Z</time>
   </trkpt>
   <trkpt lat="-3.0988580" lon="37.3367580">
    <ele>4229.9</ele>
    <time>2026-06-22T06:44:32Z</time>
   </trkpt>
   <trkpt lat="-3.0988580" lon="37.3367580">
    <ele>4229.9</ele>
    <time>2026-06-22T06:44:33Z</time>
   </trkpt>
   <trkpt lat="-3.0988520" lon="37.3367520">
    <ele>4229.9</ele>
    <time>2026-06-22T06:44:34Z</time>
   </trkpt>
   <trkpt lat="-3.0988610" lon="37.3367640">
    <ele>4229.8</ele>
    <time>2026-06-22T06:44:35Z</time>
   </trkpt>
   <trkpt lat="-3.0988550" lon="37.3367530">
    <ele>4229.8</ele>
    <time>2026-06-22T06:44:36Z</time>
   </trkpt>
   <trkpt lat="-3.0988520" lon="37.3367460">
    <ele>4229.8</ele>
    <time>2026-06-22T06:44:37Z</time>
   </trkpt>
   <trkpt lat="-3.0988540" lon="37.3367470">
    <ele>4229.8</ele>
    <time>2026-06-22T06:44:38Z</time>
   </trkpt>
   <trkpt lat="-3.0988520" lon="37.3367460">
    <ele>4229.7</ele>
    <time>2026-06-22T06:44:39Z</time>
   </trkpt>
   <trkpt lat="-3.0988490" lon="37.3367460">
    <ele>4229.7</ele>
    <time>2026-06-22T06:44:40Z</time>
   </trkpt>
   <trkpt lat="-3.0988470" lon="37.3367460">
    <ele>4229.7</ele>
    <time>2026-06-22T06:44:41Z</time>
   </trkpt>
   <trkpt lat="-3.0988460" lon="37.3367400">
    <ele>4229.7</ele>
    <time>2026-06-22T06:44:42Z</time>
   </trkpt>
   <trkpt lat="-3.0988490" lon="37.3367330">
    <ele>4229.7</ele>
    <time>2026-06-22T06:44:43Z</time>
   </trkpt>
   <trkpt lat="-3.0988480" lon="37.3367310">
    <ele>4229.7</ele>
    <time>2026-06-22T06:44:44Z</time>
   </trkpt>
   <trkpt lat="-3.0988460" lon="37.3367320">
    <ele>4229.7</ele>
    <time>2026-06-22T06:44:45Z</time>
   </trkpt>
   <trkpt lat="-3.0988410" lon="37.3367340">
    <ele>4229.7</ele>
    <time>2026-06-22T06:44:46Z</time>
   </trkpt>
   <trkpt lat="-3.0988340" lon="37.3367340">
    <ele>4229.6</ele>
    <time>2026-06-22T06:44:47Z</time>
   </trkpt>
   <trkpt lat="-3.0988390" lon="37.3367220">
    <ele>4229.6</ele>
    <time>2026-06-22T06:44:48Z</time>
   </trkpt>
   <trkpt lat="-3.0988280" lon="37.3367310">
    <ele>4229.5</ele>
    <time>2026-06-22T06:44:49Z</time>
   </trkpt>
   <trkpt lat="-3.0988280" lon="37.3367290">
    <ele>4229.5</ele>
    <time>2026-06-22T06:44:50Z</time>
   </trkpt>
   <trkpt lat="-3.0988300" lon="37.3367300">
    <ele>4229.5</ele>
    <time>2026-06-22T06:44:51Z</time>
   </trkpt>
   <trkpt lat="-3.0988290" lon="37.3367280">
    <ele>4229.5</ele>
    <time>2026-06-22T06:44:52Z</time>
   </trkpt>
   <trkpt lat="-3.0988280" lon="37.3367270">
    <ele>4229.5</ele>
    <time>2026-06-22T06:44:53Z</time>
   </trkpt>
   <trkpt lat="-3.0988280" lon="37.3367270">
    <ele>4229.5</ele>
    <time>2026-06-22T06:44:54Z</time>
   </trkpt>
   <trkpt lat="-3.0988290" lon="37.3367270">
    <ele>4229.5</ele>
    <time>2026-06-22T06:44:55Z</time>
   </trkpt>
   <trkpt lat="-3.0988300" lon="37.3367270">
    <ele>4229.5</ele>
    <time>2026-06-22T06:44:56Z</time>
   </trkpt>
   <trkpt lat="-3.0988300" lon="37.3367270">
    <ele>4229.5</ele>
    <time>2026-06-22T06:44:57Z</time>
   </trkpt>
   <trkpt lat="-3.0988220" lon="37.3367290">
    <ele>4229.4</ele>
    <time>2026-06-22T06:44:58Z</time>
   </trkpt>
   <trkpt lat="-3.0988220" lon="37.3367290">
    <ele>4229.4</ele>
    <time>2026-06-22T06:44:59Z</time>
   </trkpt>
   <trkpt lat="-3.0988220" lon="37.3367300">
    <ele>4229.4</ele>
    <time>2026-06-22T06:45:00Z</time>
   </trkpt>
   <trkpt lat="-3.0988180" lon="37.3367300">
    <ele>4229.4</ele>
    <time>2026-06-22T06:45:01Z</time>
   </trkpt>
   <trkpt lat="-3.0988170" lon="37.3367280">
    <ele>4229.4</ele>
    <time>2026-06-22T06:45:02Z</time>
   </trkpt>
   <trkpt lat="-3.0988160" lon="37.3367260">
    <ele>4229.4</ele>
    <time>2026-06-22T06:45:03Z</time>
   </trkpt>
   <trkpt lat="-3.0988150" lon="37.3367250">
    <ele>4229.4</ele>
    <time>2026-06-22T06:45:04Z</time>
   </trkpt>
   <trkpt lat="-3.0988170" lon="37.3367240">
    <ele>4229.4</ele>
    <time>2026-06-22T06:45:05Z</time>
   </trkpt>
   <trkpt lat="-3.0988120" lon="37.3367240">
    <ele>4229.4</ele>
    <time>2026-06-22T06:45:06Z</time>
   </trkpt>
   <trkpt lat="-3.0988100" lon="37.3367280">
    <ele>4229.3</ele>
    <time>2026-06-22T06:45:07Z</time>
   </trkpt>
   <trkpt lat="-3.0988080" lon="37.3367290">
    <ele>4229.3</ele>
    <time>2026-06-22T06:45:08Z</time>
   </trkpt>
   <trkpt lat="-3.0988040" lon="37.3367340">
    <ele>4229.3</ele>
    <time>2026-06-22T06:45:09Z</time>
   </trkpt>
   <trkpt lat="-3.0988020" lon="37.3367330">
    <ele>4229.3</ele>
    <time>2026-06-22T06:45:10Z</time>
   </trkpt>
   <trkpt lat="-3.0988030" lon="37.3367340">
    <ele>4229.3</ele>
    <time>2026-06-22T06:45:11Z</time>
   </trkpt>
   <trkpt lat="-3.0988020" lon="37.3367320">
    <ele>4229.3</ele>
    <time>2026-06-22T06:45:12Z</time>
   </trkpt>
   <trkpt lat="-3.0987990" lon="37.3367330">
    <ele>4229.2</ele>
    <time>2026-06-22T06:45:13Z</time>
   </trkpt>
   <trkpt lat="-3.0987980" lon="37.3367310">
    <ele>4229.2</ele>
    <time>2026-06-22T06:45:14Z</time>
   </trkpt>
   <trkpt lat="-3.0987970" lon="37.3367300">
    <ele>4229.2</ele>
    <time>2026-06-22T06:45:15Z</time>
   </trkpt>
   <trkpt lat="-3.0987950" lon="37.3367320">
    <ele>4229.2</ele>
    <time>2026-06-22T06:45:16Z</time>
   </trkpt>
   <trkpt lat="-3.0987930" lon="37.3367320">
    <ele>4229.2</ele>
    <time>2026-06-22T06:45:17Z</time>
   </trkpt>
   <trkpt lat="-3.0987950" lon="37.3367330">
    <ele>4229.2</ele>
    <time>2026-06-22T06:45:18Z</time>
   </trkpt>
   <trkpt lat="-3.0987940" lon="37.3367370">
    <ele>4229.2</ele>
    <time>2026-06-22T06:45:19Z</time>
   </trkpt>
   <trkpt lat="-3.0987930" lon="37.3367360">
    <ele>4229.2</ele>
    <time>2026-06-22T06:45:20Z</time>
   </trkpt>
   <trkpt lat="-3.0987900" lon="37.3367410">
    <ele>4229.1</ele>
    <time>2026-06-22T06:45:21Z</time>
   </trkpt>
   <trkpt lat="-3.0987970" lon="37.3367470">
    <ele>4229.1</ele>
    <time>2026-06-22T06:45:22Z</time>
   </trkpt>
   <trkpt lat="-3.0987990" lon="37.3367500">
    <ele>4229.1</ele>
    <time>2026-06-22T06:45:23Z</time>
   </trkpt>
   <trkpt lat="-3.0987990" lon="37.3367570">
    <ele>4229.0</ele>
    <time>2026-06-22T06:45:24Z</time>
   </trkpt>
   <trkpt lat="-3.0987990" lon="37.3367630">
    <ele>4229.0</ele>
    <time>2026-06-22T06:45:25Z</time>
   </trkpt>
   <trkpt lat="-3.0988000" lon="37.3367680">
    <ele>4229.0</ele>
    <time>2026-06-22T06:45:26Z</time>
   </trkpt>
   <trkpt lat="-3.0988010" lon="37.3367750">
    <ele>4228.9</ele>
    <time>2026-06-22T06:45:27Z</time>
   </trkpt>
   <trkpt lat="-3.0988000" lon="37.3367760">
    <ele>4228.9</ele>
    <time>2026-06-22T06:45:28Z</time>
   </trkpt>
   <trkpt lat="-3.0988000" lon="37.3367780">
    <ele>4228.9</ele>
    <time>2026-06-22T06:45:29Z</time>
   </trkpt>
   <trkpt lat="-3.0987990" lon="37.3367810">
    <ele>4228.9</ele>
    <time>2026-06-22T06:45:30Z</time>
   </trkpt>
   <trkpt lat="-3.0987990" lon="37.3367820">
    <ele>4228.9</ele>
    <time>2026-06-22T06:45:31Z</time>
   </trkpt>
   <trkpt lat="-3.0988020" lon="37.3367920">
    <ele>4228.8</ele>
    <time>2026-06-22T06:45:32Z</time>
   </trkpt>
   <trkpt lat="-3.0988030" lon="37.3367930">
    <ele>4228.8</ele>
    <time>2026-06-22T06:45:33Z</time>
   </trkpt>
   <trkpt lat="-3.0988040" lon="37.3367940">
    <ele>4228.8</ele>
    <time>2026-06-22T06:45:34Z</time>
   </trkpt>
   <trkpt lat="-3.0988060" lon="37.3367960">
    <ele>4228.8</ele>
    <time>2026-06-22T06:45:35Z</time>
   </trkpt>
   <trkpt lat="-3.0988110" lon="37.3368040">
    <ele>4228.7</ele>
    <time>2026-06-22T06:45:36Z</time>
   </trkpt>
   <trkpt lat="-3.0988150" lon="37.3368070">
    <ele>4228.7</ele>
    <time>2026-06-22T06:45:37Z</time>
   </trkpt>
   <trkpt lat="-3.0988150" lon="37.3368110">
    <ele>4228.7</ele>
    <time>2026-06-22T06:45:38Z</time>
   </trkpt>
   <trkpt lat="-3.0988170" lon="37.3368140">
    <ele>4228.7</ele>
    <time>2026-06-22T06:45:39Z</time>
   </trkpt>
   <trkpt lat="-3.0988180" lon="37.3368160">
    <ele>4228.7</ele>
    <time>2026-06-22T06:45:40Z</time>
   </trkpt>
   <trkpt lat="-3.0988190" lon="37.3368190">
    <ele>4228.6</ele>
    <time>2026-06-22T06:45:41Z</time>
   </trkpt>
   <trkpt lat="-3.0988200" lon="37.3368210">
    <ele>4228.6</ele>
    <time>2026-06-22T06:45:42Z</time>
   </trkpt>
   <trkpt lat="-3.0988210" lon="37.3368220">
    <ele>4228.6</ele>
    <time>2026-06-22T06:45:43Z</time>
   </trkpt>
   <trkpt lat="-3.0988240" lon="37.3368280">
    <ele>4228.6</ele>
    <time>2026-06-22T06:45:44Z</time>
   </trkpt>
   <trkpt lat="-3.0988260" lon="37.3368310">
    <ele>4228.5</ele>
    <time>2026-06-22T06:45:45Z</time>
   </trkpt>
   <trkpt lat="-3.0988280" lon="37.3368330">
    <ele>4228.5</ele>
    <time>2026-06-22T06:45:46Z</time>
   </trkpt>
   <trkpt lat="-3.0988300" lon="37.3368380">
    <ele>4228.5</ele>
    <time>2026-06-22T06:45:47Z</time>
   </trkpt>
   <trkpt lat="-3.0988340" lon="37.3368390">
    <ele>4228.5</ele>
    <time>2026-06-22T06:45:48Z</time>
   </trkpt>
   <trkpt lat="-3.0988390" lon="37.3368410">
    <ele>4228.4</ele>
    <time>2026-06-22T06:45:49Z</time>
   </trkpt>
   <trkpt lat="-3.0988430" lon="37.3368440">
    <ele>4228.4</ele>
    <time>2026-06-22T06:45:50Z</time>
   </trkpt>
   <trkpt lat="-3.0988490" lon="37.3368480">
    <ele>4228.3</ele>
    <time>2026-06-22T06:45:51Z</time>
   </trkpt>
   <trkpt lat="-3.0988520" lon="37.3368530">
    <ele>4228.3</ele>
    <time>2026-06-22T06:45:52Z</time>
   </trkpt>
   <trkpt lat="-3.0988540" lon="37.3368570">
    <ele>4228.3</ele>
    <time>2026-06-22T06:45:53Z</time>
   </trkpt>
   <trkpt lat="-3.0988550" lon="37.3368600">
    <ele>4228.3</ele>
    <time>2026-06-22T06:45:54Z</time>
   </trkpt>
   <trkpt lat="-3.0988570" lon="37.3368610">
    <ele>4228.2</ele>
    <time>2026-06-22T06:45:55Z</time>
   </trkpt>
   <trkpt lat="-3.0988580" lon="37.3368660">
    <ele>4228.2</ele>
    <time>2026-06-22T06:45:56Z</time>
   </trkpt>
   <trkpt lat="-3.0988600" lon="37.3368670">
    <ele>4228.2</ele>
    <time>2026-06-22T06:45:57Z</time>
   </trkpt>
   <trkpt lat="-3.0988670" lon="37.3368710">
    <ele>4228.1</ele>
    <time>2026-06-22T06:45:58Z</time>
   </trkpt>
   <trkpt lat="-3.0988720" lon="37.3368720">
    <ele>4228.1</ele>
    <time>2026-06-22T06:45:59Z</time>
   </trkpt>
   <trkpt lat="-3.0988760" lon="37.3368750">
    <ele>4228.1</ele>
    <time>2026-06-22T06:46:00Z</time>
   </trkpt>
   <trkpt lat="-3.0988750" lon="37.3368810">
    <ele>4228.0</ele>
    <time>2026-06-22T06:46:01Z</time>
   </trkpt>
   <trkpt lat="-3.0988770" lon="37.3368840">
    <ele>4228.0</ele>
    <time>2026-06-22T06:46:02Z</time>
   </trkpt>
   <trkpt lat="-3.0988790" lon="37.3368880">
    <ele>4228.0</ele>
    <time>2026-06-22T06:46:03Z</time>
   </trkpt>
   <trkpt lat="-3.0988820" lon="37.3368930">
    <ele>4227.9</ele>
    <time>2026-06-22T06:46:04Z</time>
   </trkpt>
   <trkpt lat="-3.0988840" lon="37.3369000">
    <ele>4227.9</ele>
    <time>2026-06-22T06:46:05Z</time>
   </trkpt>
   <trkpt lat="-3.0988840" lon="37.3369040">
    <ele>4227.8</ele>
    <time>2026-06-22T06:46:06Z</time>
   </trkpt>
   <trkpt lat="-3.0988840" lon="37.3369100">
    <ele>4227.8</ele>
    <time>2026-06-22T06:46:07Z</time>
   </trkpt>
   <trkpt lat="-3.0988830" lon="37.3369140">
    <ele>4227.7</ele>
    <time>2026-06-22T06:46:08Z</time>
   </trkpt>
   <trkpt lat="-3.0988820" lon="37.3369100">
    <ele>4227.7</ele>
    <time>2026-06-22T06:46:09Z</time>
   </trkpt>
   <trkpt lat="-3.0988810" lon="37.3369120">
    <ele>4227.7</ele>
    <time>2026-06-22T06:46:10Z</time>
   </trkpt>
   <trkpt lat="-3.0988810" lon="37.3369140">
    <ele>4227.7</ele>
    <time>2026-06-22T06:46:11Z</time>
   </trkpt>
   <trkpt lat="-3.0988790" lon="37.3369150">
    <ele>4227.7</ele>
    <time>2026-06-22T06:46:12Z</time>
   </trkpt>
   <trkpt lat="-3.0988790" lon="37.3369140">
    <ele>4227.7</ele>
    <time>2026-06-22T06:46:13Z</time>
   </trkpt>
   <trkpt lat="-3.0988790" lon="37.3369090">
    <ele>4227.6</ele>
    <time>2026-06-22T06:46:14Z</time>
   </trkpt>
   <trkpt lat="-3.0988820" lon="37.3369100">
    <ele>4227.6</ele>
    <time>2026-06-22T06:46:15Z</time>
   </trkpt>
   <trkpt lat="-3.0988820" lon="37.3369100">
    <ele>4227.6</ele>
    <time>2026-06-22T06:46:16Z</time>
   </trkpt>
   <trkpt lat="-3.0988820" lon="37.3369060">
    <ele>4227.6</ele>
    <time>2026-06-22T06:46:17Z</time>
   </trkpt>
   <trkpt lat="-3.0988820" lon="37.3369040">
    <ele>4227.5</ele>
    <time>2026-06-22T06:46:18Z</time>
   </trkpt>
   <trkpt lat="-3.0988820" lon="37.3369010">
    <ele>4227.5</ele>
    <time>2026-06-22T06:46:19Z</time>
   </trkpt>
   <trkpt lat="-3.0988860" lon="37.3369030">
    <ele>4227.5</ele>
    <time>2026-06-22T06:46:20Z</time>
   </trkpt>
   <trkpt lat="-3.0988730" lon="37.3369000">
    <ele>4227.4</ele>
    <time>2026-06-22T06:46:21Z</time>
   </trkpt>
   <trkpt lat="-3.0988800" lon="37.3369000">
    <ele>4227.3</ele>
    <time>2026-06-22T06:46:22Z</time>
   </trkpt>
   <trkpt lat="-3.0988800" lon="37.3369000">
    <ele>4227.3</ele>
    <time>2026-06-22T06:46:23Z</time>
   </trkpt>
   <trkpt lat="-3.0988800" lon="37.3368990">
    <ele>4227.3</ele>
    <time>2026-06-22T06:46:24Z</time>
   </trkpt>
   <trkpt lat="-3.0988780" lon="37.3368930">
    <ele>4227.3</ele>
    <time>2026-06-22T06:46:25Z</time>
   </trkpt>
   <trkpt lat="-3.0988780" lon="37.3368900">
    <ele>4227.2</ele>
    <time>2026-06-22T06:46:26Z</time>
   </trkpt>
   <trkpt lat="-3.0988780" lon="37.3368880">
    <ele>4227.2</ele>
    <time>2026-06-22T06:46:27Z</time>
   </trkpt>
   <trkpt lat="-3.0988780" lon="37.3368870">
    <ele>4227.2</ele>
    <time>2026-06-22T06:46:28Z</time>
   </trkpt>
   <trkpt lat="-3.0988780" lon="37.3368870">
    <ele>4227.2</ele>
    <time>2026-06-22T06:46:29Z</time>
   </trkpt>
   <trkpt lat="-3.0988780" lon="37.3368870">
    <ele>4227.2</ele>
    <time>2026-06-22T06:46:30Z</time>
   </trkpt>
   <trkpt lat="-3.0988780" lon="37.3368860">
    <ele>4227.2</ele>
    <time>2026-06-22T06:46:31Z</time>
   </trkpt>
   <trkpt lat="-3.0988780" lon="37.3368860">
    <ele>4227.2</ele>
    <time>2026-06-22T06:46:32Z</time>
   </trkpt>
   <trkpt lat="-3.0988780" lon="37.3368860">
    <ele>4227.2</ele>
    <time>2026-06-22T06:46:33Z</time>
   </trkpt>
   <trkpt lat="-3.0988780" lon="37.3368840">
    <ele>4227.2</ele>
    <time>2026-06-22T06:46:34Z</time>
   </trkpt>
   <trkpt lat="-3.0988780" lon="37.3368880">
    <ele>4227.1</ele>
    <time>2026-06-22T06:46:35Z</time>
   </trkpt>
   <trkpt lat="-3.0988820" lon="37.3368910">
    <ele>4227.1</ele>
    <time>2026-06-22T06:46:36Z</time>
   </trkpt>
   <trkpt lat="-3.0988850" lon="37.3368860">
    <ele>4227.1</ele>
    <time>2026-06-22T06:46:37Z</time>
   </trkpt>
   <trkpt lat="-3.0988870" lon="37.3368890">
    <ele>4227.0</ele>
    <time>2026-06-22T06:46:38Z</time>
   </trkpt>
   <trkpt lat="-3.0988880" lon="37.3368830">
    <ele>4227.0</ele>
    <time>2026-06-22T06:46:39Z</time>
   </trkpt>
   <trkpt lat="-3.0988900" lon="37.3368840">
    <ele>4226.9</ele>
    <time>2026-06-22T06:46:40Z</time>
   </trkpt>
   <trkpt lat="-3.0988910" lon="37.3368870">
    <ele>4226.9</ele>
    <time>2026-06-22T06:46:41Z</time>
   </trkpt>
   <trkpt lat="-3.0988880" lon="37.3368850">
    <ele>4226.9</ele>
    <time>2026-06-22T06:46:42Z</time>
   </trkpt>
   <trkpt lat="-3.0988850" lon="37.3368830">
    <ele>4226.9</ele>
    <time>2026-06-22T06:46:43Z</time>
   </trkpt>
   <trkpt lat="-3.0988870" lon="37.3368850">
    <ele>4226.8</ele>
    <time>2026-06-22T06:46:44Z</time>
   </trkpt>
   <trkpt lat="-3.0988850" lon="37.3368860">
    <ele>4226.8</ele>
    <time>2026-06-22T06:46:45Z</time>
   </trkpt>
   <trkpt lat="-3.0988850" lon="37.3368860">
    <ele>4226.8</ele>
    <time>2026-06-22T06:46:46Z</time>
   </trkpt>
   <trkpt lat="-3.0988820" lon="37.3368860">
    <ele>4226.8</ele>
    <time>2026-06-22T06:46:47Z</time>
   </trkpt>
   <trkpt lat="-3.0988800" lon="37.3368900">
    <ele>4226.7</ele>
    <time>2026-06-22T06:46:48Z</time>
   </trkpt>
   <trkpt lat="-3.0988800" lon="37.3368890">
    <ele>4226.7</ele>
    <time>2026-06-22T06:46:49Z</time>
   </trkpt>
   <trkpt lat="-3.0988790" lon="37.3368920">
    <ele>4226.7</ele>
    <time>2026-06-22T06:46:50Z</time>
   </trkpt>
   <trkpt lat="-3.0988800" lon="37.3368920">
    <ele>4226.7</ele>
    <time>2026-06-22T06:46:51Z</time>
   </trkpt>
   <trkpt lat="-3.0988770" lon="37.3368890">
    <ele>4226.7</ele>
    <time>2026-06-22T06:46:52Z</time>
   </trkpt>
   <trkpt lat="-3.0988770" lon="37.3368880">
    <ele>4226.7</ele>
    <time>2026-06-22T06:46:53Z</time>
   </trkpt>
   <trkpt lat="-3.0988770" lon="37.3368880">
    <ele>4226.7</ele>
    <time>2026-06-22T06:46:54Z</time>
   </trkpt>
   <trkpt lat="-3.0988780" lon="37.3368870">
    <ele>4226.6</ele>
    <time>2026-06-22T06:46:55Z</time>
   </trkpt>
   <trkpt lat="-3.0988780" lon="37.3368870">
    <ele>4226.6</ele>
    <time>2026-06-22T06:46:56Z</time>
   </trkpt>
   <trkpt lat="-3.0988780" lon="37.3368860">
    <ele>4226.6</ele>
    <time>2026-06-22T06:46:57Z</time>
   </trkpt>
   <trkpt lat="-3.0988780" lon="37.3368860">
    <ele>4226.6</ele>
    <time>2026-06-22T06:46:58Z</time>
   </trkpt>
   <trkpt lat="-3.0988780" lon="37.3368860">
    <ele>4226.6</ele>
    <time>2026-06-22T06:46:59Z</time>
   </trkpt>
   <trkpt lat="-3.0988780" lon="37.3368880">
    <ele>4226.6</ele>
    <time>2026-06-22T06:47:00Z</time>
   </trkpt>
   <trkpt lat="-3.0988790" lon="37.3368870">
    <ele>4226.6</ele>
    <time>2026-06-22T06:47:01Z</time>
   </trkpt>
   <trkpt lat="-3.0988790" lon="37.3368870">
    <ele>4226.6</ele>
    <time>2026-06-22T06:47:02Z</time>
   </trkpt>
   <trkpt lat="-3.0988730" lon="37.3368920">
    <ele>4226.5</ele>
    <time>2026-06-22T06:47:03Z</time>
   </trkpt>
   <trkpt lat="-3.0988760" lon="37.3368890">
    <ele>4226.5</ele>
    <time>2026-06-22T06:47:04Z</time>
   </trkpt>
   <trkpt lat="-3.0988740" lon="37.3368920">
    <ele>4226.5</ele>
    <time>2026-06-22T06:47:05Z</time>
   </trkpt>
   <trkpt lat="-3.0988720" lon="37.3368950">
    <ele>4226.4</ele>
    <time>2026-06-22T06:47:06Z</time>
   </trkpt>
   <trkpt lat="-3.0988710" lon="37.3368970">
    <ele>4226.4</ele>
    <time>2026-06-22T06:47:07Z</time>
   </trkpt>
   <trkpt lat="-3.0988670" lon="37.3368960">
    <ele>4226.4</ele>
    <time>2026-06-22T06:47:08Z</time>
   </trkpt>
   <trkpt lat="-3.0988630" lon="37.3368990">
    <ele>4226.3</ele>
    <time>2026-06-22T06:47:09Z</time>
   </trkpt>
   <trkpt lat="-3.0988650" lon="37.3369030">
    <ele>4226.3</ele>
    <time>2026-06-22T06:47:10Z</time>
   </trkpt>
   <trkpt lat="-3.0988650" lon="37.3369030">
    <ele>4226.3</ele>
    <time>2026-06-22T06:47:11Z</time>
   </trkpt>
   <trkpt lat="-3.0988660" lon="37.3369030">
    <ele>4226.3</ele>
    <time>2026-06-22T06:47:12Z</time>
   </trkpt>
   <trkpt lat="-3.0988630" lon="37.3369030">
    <ele>4226.2</ele>
    <time>2026-06-22T06:47:13Z</time>
   </trkpt>
   <trkpt lat="-3.0988570" lon="37.3369080">
    <ele>4226.2</ele>
    <time>2026-06-22T06:47:14Z</time>
   </trkpt>
   <trkpt lat="-3.0988550" lon="37.3369060">
    <ele>4226.1</ele>
    <time>2026-06-22T06:47:15Z</time>
   </trkpt>
   <trkpt lat="-3.0988560" lon="37.3369040">
    <ele>4226.1</ele>
    <time>2026-06-22T06:47:16Z</time>
   </trkpt>
   <trkpt lat="-3.0988470" lon="37.3369040">
    <ele>4226.0</ele>
    <time>2026-06-22T06:47:17Z</time>
   </trkpt>
   <trkpt lat="-3.0988440" lon="37.3369050">
    <ele>4226.0</ele>
    <time>2026-06-22T06:47:18Z</time>
   </trkpt>
   <trkpt lat="-3.0988440" lon="37.3369060">
    <ele>4226.0</ele>
    <time>2026-06-22T06:47:19Z</time>
   </trkpt>
   <trkpt lat="-3.0988440" lon="37.3369080">
    <ele>4226.0</ele>
    <time>2026-06-22T06:47:20Z</time>
   </trkpt>
   <trkpt lat="-3.0988540" lon="37.3369110">
    <ele>4225.9</ele>
    <time>2026-06-22T06:47:21Z</time>
   </trkpt>
   <trkpt lat="-3.0988470" lon="37.3369120">
    <ele>4225.8</ele>
    <time>2026-06-22T06:47:22Z</time>
   </trkpt>
   <trkpt lat="-3.0988490" lon="37.3369120">
    <ele>4225.8</ele>
    <time>2026-06-22T06:47:23Z</time>
   </trkpt>
   <trkpt lat="-3.0988480" lon="37.3369110">
    <ele>4225.8</ele>
    <time>2026-06-22T06:47:24Z</time>
   </trkpt>
   <trkpt lat="-3.0988470" lon="37.3369110">
    <ele>4225.8</ele>
    <time>2026-06-22T06:47:25Z</time>
   </trkpt>
   <trkpt lat="-3.0988450" lon="37.3369100">
    <ele>4225.7</ele>
    <time>2026-06-22T06:47:26Z</time>
   </trkpt>
   <trkpt lat="-3.0988430" lon="37.3369100">
    <ele>4225.7</ele>
    <time>2026-06-22T06:47:27Z</time>
   </trkpt>
   <trkpt lat="-3.0988420" lon="37.3369090">
    <ele>4225.7</ele>
    <time>2026-06-22T06:47:28Z</time>
   </trkpt>
   <trkpt lat="-3.0988400" lon="37.3369090">
    <ele>4225.7</ele>
    <time>2026-06-22T06:47:29Z</time>
   </trkpt>
   <trkpt lat="-3.0988380" lon="37.3369090">
    <ele>4225.7</ele>
    <time>2026-06-22T06:47:30Z</time>
   </trkpt>
   <trkpt lat="-3.0988340" lon="37.3369100">
    <ele>4225.6</ele>
    <time>2026-06-22T06:47:31Z</time>
   </trkpt>
   <trkpt lat="-3.0988300" lon="37.3369140">
    <ele>4225.6</ele>
    <time>2026-06-22T06:47:32Z</time>
   </trkpt>
   <trkpt lat="-3.0988270" lon="37.3369170">
    <ele>4225.5</ele>
    <time>2026-06-22T06:47:33Z</time>
   </trkpt>
   <trkpt lat="-3.0988240" lon="37.3369200">
    <ele>4225.5</ele>
    <time>2026-06-22T06:47:34Z</time>
   </trkpt>
   <trkpt lat="-3.0988190" lon="37.3369230">
    <ele>4225.4</ele>
    <time>2026-06-22T06:47:35Z</time>
   </trkpt>
   <trkpt lat="-3.0988190" lon="37.3369240">
    <ele>4225.4</ele>
    <time>2026-06-22T06:47:36Z</time>
   </trkpt>
   <trkpt lat="-3.0988290" lon="37.3369240">
    <ele>4225.3</ele>
    <time>2026-06-22T06:47:37Z</time>
   </trkpt>
   <trkpt lat="-3.0988370" lon="37.3369260">
    <ele>4225.2</ele>
    <time>2026-06-22T06:47:38Z</time>
   </trkpt>
   <trkpt lat="-3.0988390" lon="37.3369330">
    <ele>4225.1</ele>
    <time>2026-06-22T06:47:39Z</time>
   </trkpt>
   <trkpt lat="-3.0988360" lon="37.3369410">
    <ele>4225.1</ele>
    <time>2026-06-22T06:47:40Z</time>
   </trkpt>
   <trkpt lat="-3.0988360" lon="37.3369400">
    <ele>4225.0</ele>
    <time>2026-06-22T06:47:41Z</time>
   </trkpt>
   <trkpt lat="-3.0988370" lon="37.3369380">
    <ele>4225.0</ele>
    <time>2026-06-22T06:47:42Z</time>
   </trkpt>
   <trkpt lat="-3.0988380" lon="37.3369390">
    <ele>4225.0</ele>
    <time>2026-06-22T06:47:43Z</time>
   </trkpt>
   <trkpt lat="-3.0988390" lon="37.3369380">
    <ele>4225.0</ele>
    <time>2026-06-22T06:47:44Z</time>
   </trkpt>
   <trkpt lat="-3.0988390" lon="37.3369380">
    <ele>4225.0</ele>
    <time>2026-06-22T06:47:45Z</time>
   </trkpt>
   <trkpt lat="-3.0988400" lon="37.3369380">
    <ele>4225.0</ele>
    <time>2026-06-22T06:47:46Z</time>
   </trkpt>
   <trkpt lat="-3.0988400" lon="37.3369380">
    <ele>4225.0</ele>
    <time>2026-06-22T06:47:47Z</time>
   </trkpt>
   <trkpt lat="-3.0988400" lon="37.3369380">
    <ele>4225.0</ele>
    <time>2026-06-22T06:47:48Z</time>
   </trkpt>
   <trkpt lat="-3.0988400" lon="37.3369390">
    <ele>4225.0</ele>
    <time>2026-06-22T06:47:49Z</time>
   </trkpt>
   <trkpt lat="-3.0988410" lon="37.3369380">
    <ele>4225.0</ele>
    <time>2026-06-22T06:47:50Z</time>
   </trkpt>
   <trkpt lat="-3.0988410" lon="37.3369380">
    <ele>4225.0</ele>
    <time>2026-06-22T06:47:51Z</time>
   </trkpt>
   <trkpt lat="-3.0988410" lon="37.3369380">
    <ele>4225.0</ele>
    <time>2026-06-22T06:47:52Z</time>
   </trkpt>
   <trkpt lat="-3.0988410" lon="37.3369380">
    <ele>4225.0</ele>
    <time>2026-06-22T06:47:53Z</time>
   </trkpt>
   <trkpt lat="-3.0988410" lon="37.3369380">
    <ele>4225.0</ele>
    <time>2026-06-22T06:47:54Z</time>
   </trkpt>
   <trkpt lat="-3.0988410" lon="37.3369380">
    <ele>4225.0</ele>
    <time>2026-06-22T06:47:55Z</time>
   </trkpt>
   <trkpt lat="-3.0988410" lon="37.3369380">
    <ele>4225.0</ele>
    <time>2026-06-22T06:47:56Z</time>
   </trkpt>
   <trkpt lat="-3.0988410" lon="37.3369370">
    <ele>4225.0</ele>
    <time>2026-06-22T06:47:57Z</time>
   </trkpt>
   <trkpt lat="-3.0988410" lon="37.3369380">
    <ele>4224.9</ele>
    <time>2026-06-22T06:47:58Z</time>
   </trkpt>
   <trkpt lat="-3.0988410" lon="37.3369380">
    <ele>4224.9</ele>
    <time>2026-06-22T06:47:59Z</time>
   </trkpt>
   <trkpt lat="-3.0988410" lon="37.3369370">
    <ele>4224.9</ele>
    <time>2026-06-22T06:48:00Z</time>
   </trkpt>
   <trkpt lat="-3.0988410" lon="37.3369380">
    <ele>4224.9</ele>
    <time>2026-06-22T06:48:01Z</time>
   </trkpt>
   <trkpt lat="-3.0988410" lon="37.3369370">
    <ele>4224.9</ele>
    <time>2026-06-22T06:48:02Z</time>
   </trkpt>
   <trkpt lat="-3.0988410" lon="37.3369370">
    <ele>4224.9</ele>
    <time>2026-06-22T06:48:03Z</time>
   </trkpt>
   <trkpt lat="-3.0988410" lon="37.3369360">
    <ele>4224.9</ele>
    <time>2026-06-22T06:48:04Z</time>
   </trkpt>
   <trkpt lat="-3.0988420" lon="37.3369360">
    <ele>4224.9</ele>
    <time>2026-06-22T06:48:05Z</time>
   </trkpt>
   <trkpt lat="-3.0988420" lon="37.3369360">
    <ele>4224.9</ele>
    <time>2026-06-22T06:48:06Z</time>
   </trkpt>
   <trkpt lat="-3.0988420" lon="37.3369360">
    <ele>4224.9</ele>
    <time>2026-06-22T06:48:07Z</time>
   </trkpt>
   <trkpt lat="-3.0988420" lon="37.3369350">
    <ele>4224.9</ele>
    <time>2026-06-22T06:48:08Z</time>
   </trkpt>
   <trkpt lat="-3.0988420" lon="37.3369370">
    <ele>4224.9</ele>
    <time>2026-06-22T06:48:09Z</time>
   </trkpt>
   <trkpt lat="-3.0988420" lon="37.3369370">
    <ele>4224.9</ele>
    <time>2026-06-22T06:48:10Z</time>
   </trkpt>
   <trkpt lat="-3.0988430" lon="37.3369370">
    <ele>4224.9</ele>
    <time>2026-06-22T06:48:11Z</time>
   </trkpt>
   <trkpt lat="-3.0988430" lon="37.3369370">
    <ele>4224.9</ele>
    <time>2026-06-22T06:48:12Z</time>
   </trkpt>
   <trkpt lat="-3.0988430" lon="37.3369360">
    <ele>4224.8</ele>
    <time>2026-06-22T06:48:13Z</time>
   </trkpt>
   <trkpt lat="-3.0988420" lon="37.3369370">
    <ele>4224.8</ele>
    <time>2026-06-22T06:48:14Z</time>
   </trkpt>
   <trkpt lat="-3.0988410" lon="37.3369370">
    <ele>4224.8</ele>
    <time>2026-06-22T06:48:15Z</time>
   </trkpt>
   <trkpt lat="-3.0988410" lon="37.3369380">
    <ele>4224.8</ele>
    <time>2026-06-22T06:48:16Z</time>
   </trkpt>
   <trkpt lat="-3.0988420" lon="37.3369370">
    <ele>4224.8</ele>
    <time>2026-06-22T06:48:17Z</time>
   </trkpt>
   <trkpt lat="-3.0988420" lon="37.3369370">
    <ele>4224.8</ele>
    <time>2026-06-22T06:48:18Z</time>
   </trkpt>
   <trkpt lat="-3.0988420" lon="37.3369370">
    <ele>4224.8</ele>
    <time>2026-06-22T06:48:19Z</time>
   </trkpt>
   <trkpt lat="-3.0988420" lon="37.3369370">
    <ele>4224.8</ele>
    <time>2026-06-22T06:48:20Z</time>
   </trkpt>
   <trkpt lat="-3.0988420" lon="37.3369370">
    <ele>4224.8</ele>
    <time>2026-06-22T06:48:21Z</time>
   </trkpt>
   <trkpt lat="-3.0988420" lon="37.3369370">
    <ele>4224.8</ele>
    <time>2026-06-22T06:48:22Z</time>
   </trkpt>
   <trkpt lat="-3.0988430" lon="37.3369370">
    <ele>4224.8</ele>
    <time>2026-06-22T06:48:23Z</time>
   </trkpt>
   <trkpt lat="-3.0988430" lon="37.3369370">
    <ele>4224.8</ele>
    <time>2026-06-22T06:48:24Z</time>
   </trkpt>
   <trkpt lat="-3.0988430" lon="37.3369370">
    <ele>4224.8</ele>
    <time>2026-06-22T06:48:25Z</time>
   </trkpt>
   <trkpt lat="-3.0988430" lon="37.3369370">
    <ele>4224.8</ele>
    <time>2026-06-22T06:48:26Z</time>
   </trkpt>
   <trkpt lat="-3.0988430" lon="37.3369370">
    <ele>4224.8</ele>
    <time>2026-06-22T06:48:27Z</time>
   </trkpt>
   <trkpt lat="-3.0988430" lon="37.3369370">
    <ele>4224.8</ele>
    <time>2026-06-22T06:48:28Z</time>
   </trkpt>
   <trkpt lat="-3.0988430" lon="37.3369370">
    <ele>4224.8</ele>
    <time>2026-06-22T06:48:29Z</time>
   </trkpt>
   <trkpt lat="-3.0988450" lon="37.3369350">
    <ele>4224.8</ele>
    <time>2026-06-22T06:48:30Z</time>
   </trkpt>
   <trkpt lat="-3.0988440" lon="37.3369350">
    <ele>4224.7</ele>
    <time>2026-06-22T06:48:31Z</time>
   </trkpt>
   <trkpt lat="-3.0988440" lon="37.3369350">
    <ele>4224.7</ele>
    <time>2026-06-22T06:48:32Z</time>
   </trkpt>
   <trkpt lat="-3.0988410" lon="37.3369380">
    <ele>4224.7</ele>
    <time>2026-06-22T06:48:33Z</time>
   </trkpt>
   <trkpt lat="-3.0988390" lon="37.3369390">
    <ele>4224.7</ele>
    <time>2026-06-22T06:48:34Z</time>
   </trkpt>
   <trkpt lat="-3.0988400" lon="37.3369360">
    <ele>4224.6</ele>
    <time>2026-06-22T06:48:35Z</time>
   </trkpt>
   <trkpt lat="-3.0988410" lon="37.3369340">
    <ele>4224.6</ele>
    <time>2026-06-22T06:48:36Z</time>
   </trkpt>
   <trkpt lat="-3.0988400" lon="37.3369310">
    <ele>4224.6</ele>
    <time>2026-06-22T06:48:37Z</time>
   </trkpt>
   <trkpt lat="-3.0988320" lon="37.3369470">
    <ele>4224.4</ele>
    <time>2026-06-22T06:48:38Z</time>
   </trkpt>
   <trkpt lat="-3.0988210" lon="37.3369540">
    <ele>4224.3</ele>
    <time>2026-06-22T06:48:39Z</time>
   </trkpt>
   <trkpt lat="-3.0988070" lon="37.3369600">
    <ele>4224.1</ele>
    <time>2026-06-22T06:48:40Z</time>
   </trkpt>
   <trkpt lat="-3.0988010" lon="37.3369630">
    <ele>4224.0</ele>
    <time>2026-06-22T06:48:41Z</time>
   </trkpt>
   <trkpt lat="-3.0988050" lon="37.3369610">
    <ele>4224.0</ele>
    <time>2026-06-22T06:48:42Z</time>
   </trkpt>
   <trkpt lat="-3.0988160" lon="37.3369600">
    <ele>4223.9</ele>
    <time>2026-06-22T06:48:43Z</time>
   </trkpt>
   <trkpt lat="-3.0988280" lon="37.3369500">
    <ele>4223.7</ele>
    <time>2026-06-22T06:48:44Z</time>
   </trkpt>
   <trkpt lat="-3.0988400" lon="37.3369430">
    <ele>4223.6</ele>
    <time>2026-06-22T06:48:45Z</time>
   </trkpt>
   <trkpt lat="-3.0988480" lon="37.3369340">
    <ele>4223.4</ele>
    <time>2026-06-22T06:48:46Z</time>
   </trkpt>
   <trkpt lat="-3.0988480" lon="37.3369300">
    <ele>4223.4</ele>
    <time>2026-06-22T06:48:47Z</time>
   </trkpt>
   <trkpt lat="-3.0988500" lon="37.3369300">
    <ele>4223.4</ele>
    <time>2026-06-22T06:48:48Z</time>
   </trkpt>
   <trkpt lat="-3.0988490" lon="37.3369320">
    <ele>4223.4</ele>
    <time>2026-06-22T06:48:49Z</time>
   </trkpt>
   <trkpt lat="-3.0988490" lon="37.3369310">
    <ele>4223.4</ele>
    <time>2026-06-22T06:48:50Z</time>
   </trkpt>
   <trkpt lat="-3.0988480" lon="37.3369320">
    <ele>4223.3</ele>
    <time>2026-06-22T06:48:51Z</time>
   </trkpt>
   <trkpt lat="-3.0988480" lon="37.3369330">
    <ele>4223.3</ele>
    <time>2026-06-22T06:48:52Z</time>
   </trkpt>
   <trkpt lat="-3.0988480" lon="37.3369340">
    <ele>4223.3</ele>
    <time>2026-06-22T06:48:53Z</time>
   </trkpt>
   <trkpt lat="-3.0988480" lon="37.3369340">
    <ele>4223.3</ele>
    <time>2026-06-22T06:48:54Z</time>
   </trkpt>
   <trkpt lat="-3.0988480" lon="37.3369340">
    <ele>4223.3</ele>
    <time>2026-06-22T06:48:55Z</time>
   </trkpt>
   <trkpt lat="-3.0988480" lon="37.3369340">
    <ele>4223.3</ele>
    <time>2026-06-22T06:48:56Z</time>
   </trkpt>
   <trkpt lat="-3.0988470" lon="37.3369350">
    <ele>4223.3</ele>
    <time>2026-06-22T06:48:57Z</time>
   </trkpt>
   <trkpt lat="-3.0988470" lon="37.3369350">
    <ele>4223.3</ele>
    <time>2026-06-22T06:48:58Z</time>
   </trkpt>
   <trkpt lat="-3.0988470" lon="37.3369350">
    <ele>4223.3</ele>
    <time>2026-06-22T06:48:59Z</time>
   </trkpt>
   <trkpt lat="-3.0988480" lon="37.3369350">
    <ele>4223.3</ele>
    <time>2026-06-22T06:49:00Z</time>
   </trkpt>
   <trkpt lat="-3.0988480" lon="37.3369350">
    <ele>4223.3</ele>
    <time>2026-06-22T06:49:01Z</time>
   </trkpt>
   <trkpt lat="-3.0988450" lon="37.3369340">
    <ele>4223.3</ele>
    <time>2026-06-22T06:49:02Z</time>
   </trkpt>
   <trkpt lat="-3.0988460" lon="37.3369350">
    <ele>4223.2</ele>
    <time>2026-06-22T06:49:03Z</time>
   </trkpt>
   <trkpt lat="-3.0988470" lon="37.3369340">
    <ele>4223.2</ele>
    <time>2026-06-22T06:49:04Z</time>
   </trkpt>
   <trkpt lat="-3.0988470" lon="37.3369360">
    <ele>4223.2</ele>
    <time>2026-06-22T06:49:05Z</time>
   </trkpt>
   <trkpt lat="-3.0988470" lon="37.3369360">
    <ele>4223.2</ele>
    <time>2026-06-22T06:49:06Z</time>
   </trkpt>
   <trkpt lat="-3.0988460" lon="37.3369360">
    <ele>4223.2</ele>
    <time>2026-06-22T06:49:07Z</time>
   </trkpt>
   <trkpt lat="-3.0988470" lon="37.3369360">
    <ele>4223.2</ele>
    <time>2026-06-22T06:49:08Z</time>
   </trkpt>
   <trkpt lat="-3.0988470" lon="37.3369360">
    <ele>4223.2</ele>
    <time>2026-06-22T06:49:09Z</time>
   </trkpt>
   <trkpt lat="-3.0988460" lon="37.3369360">
    <ele>4223.2</ele>
    <time>2026-06-22T06:49:10Z</time>
   </trkpt>
   <trkpt lat="-3.0988460" lon="37.3369360">
    <ele>4223.2</ele>
    <time>2026-06-22T06:49:11Z</time>
   </trkpt>
   <trkpt lat="-3.0988460" lon="37.3369360">
    <ele>4223.2</ele>
    <time>2026-06-22T06:49:12Z</time>
   </trkpt>
   <trkpt lat="-3.0988460" lon="37.3369360">
    <ele>4223.2</ele>
    <time>2026-06-22T06:49:13Z</time>
   </trkpt>
   <trkpt lat="-3.0988460" lon="37.3369360">
    <ele>4223.2</ele>
    <time>2026-06-22T06:49:14Z</time>
   </trkpt>
   <trkpt lat="-3.0988460" lon="37.3369360">
    <ele>4223.2</ele>
    <time>2026-06-22T06:49:15Z</time>
   </trkpt>
   <trkpt lat="-3.0988460" lon="37.3369360">
    <ele>4223.2</ele>
    <time>2026-06-22T06:49:16Z</time>
   </trkpt>
   <trkpt lat="-3.0988460" lon="37.3369360">
    <ele>4223.2</ele>
    <time>2026-06-22T06:49:17Z</time>
   </trkpt>
   <trkpt lat="-3.0988460" lon="37.3369360">
    <ele>4223.2</ele>
    <time>2026-06-22T06:49:18Z</time>
   </trkpt>
   <trkpt lat="-3.0988450" lon="37.3369380">
    <ele>4223.2</ele>
    <time>2026-06-22T06:49:19Z</time>
   </trkpt>
   <trkpt lat="-3.0988470" lon="37.3369370">
    <ele>4223.1</ele>
    <time>2026-06-22T06:49:20Z</time>
   </trkpt>
   <trkpt lat="-3.0988500" lon="37.3369330">
    <ele>4223.1</ele>
    <time>2026-06-22T06:49:21Z</time>
   </trkpt>
   <trkpt lat="-3.0988450" lon="37.3369410">
    <ele>4223.0</ele>
    <time>2026-06-22T06:49:22Z</time>
   </trkpt>
   <trkpt lat="-3.0988470" lon="37.3369460">
    <ele>4222.9</ele>
    <time>2026-06-22T06:49:23Z</time>
   </trkpt>
   <trkpt lat="-3.0988430" lon="37.3369530">
    <ele>4222.8</ele>
    <time>2026-06-22T06:49:24Z</time>
   </trkpt>
   <trkpt lat="-3.0988330" lon="37.3369600">
    <ele>4222.7</ele>
    <time>2026-06-22T06:49:25Z</time>
   </trkpt>
   <trkpt lat="-3.0988280" lon="37.3369590">
    <ele>4222.6</ele>
    <time>2026-06-22T06:49:26Z</time>
   </trkpt>
   <trkpt lat="-3.0988240" lon="37.3369590">
    <ele>4222.6</ele>
    <time>2026-06-22T06:49:27Z</time>
   </trkpt>
   <trkpt lat="-3.0988210" lon="37.3369610">
    <ele>4222.6</ele>
    <time>2026-06-22T06:49:28Z</time>
   </trkpt>
   <trkpt lat="-3.0988140" lon="37.3369650">
    <ele>4222.5</ele>
    <time>2026-06-22T06:49:29Z</time>
   </trkpt>
   <trkpt lat="-3.0988090" lon="37.3369690">
    <ele>4222.4</ele>
    <time>2026-06-22T06:49:30Z</time>
   </trkpt>
   <trkpt lat="-3.0988110" lon="37.3369690">
    <ele>4222.4</ele>
    <time>2026-06-22T06:49:31Z</time>
   </trkpt>
   <trkpt lat="-3.0988090" lon="37.3369690">
    <ele>4222.4</ele>
    <time>2026-06-22T06:49:32Z</time>
   </trkpt>
   <trkpt lat="-3.0988080" lon="37.3369690">
    <ele>4222.3</ele>
    <time>2026-06-22T06:49:33Z</time>
   </trkpt>
   <trkpt lat="-3.0988040" lon="37.3369710">
    <ele>4222.3</ele>
    <time>2026-06-22T06:49:34Z</time>
   </trkpt>
   <trkpt lat="-3.0987990" lon="37.3369750">
    <ele>4222.2</ele>
    <time>2026-06-22T06:49:35Z</time>
   </trkpt>
   <trkpt lat="-3.0988020" lon="37.3369700">
    <ele>4222.2</ele>
    <time>2026-06-22T06:49:36Z</time>
   </trkpt>
   <trkpt lat="-3.0988060" lon="37.3369730">
    <ele>4222.1</ele>
    <time>2026-06-22T06:49:37Z</time>
   </trkpt>
   <trkpt lat="-3.0988020" lon="37.3369850">
    <ele>4222.0</ele>
    <time>2026-06-22T06:49:38Z</time>
   </trkpt>
   <trkpt lat="-3.0987960" lon="37.3369960">
    <ele>4221.8</ele>
    <time>2026-06-22T06:49:39Z</time>
   </trkpt>
   <trkpt lat="-3.0987860" lon="37.3370040">
    <ele>4221.6</ele>
    <time>2026-06-22T06:49:40Z</time>
   </trkpt>
   <trkpt lat="-3.0987830" lon="37.3370030">
    <ele>4221.6</ele>
    <time>2026-06-22T06:49:41Z</time>
   </trkpt>
   <trkpt lat="-3.0987870" lon="37.3370000">
    <ele>4221.6</ele>
    <time>2026-06-22T06:49:42Z</time>
   </trkpt>
   <trkpt lat="-3.0987930" lon="37.3369980">
    <ele>4221.5</ele>
    <time>2026-06-22T06:49:43Z</time>
   </trkpt>
   <trkpt lat="-3.0987940" lon="37.3370000">
    <ele>4221.4</ele>
    <time>2026-06-22T06:49:44Z</time>
   </trkpt>
   <trkpt lat="-3.0987950" lon="37.3370000">
    <ele>4221.4</ele>
    <time>2026-06-22T06:49:45Z</time>
   </trkpt>
   <trkpt lat="-3.0987940" lon="37.3369990">
    <ele>4221.4</ele>
    <time>2026-06-22T06:49:46Z</time>
   </trkpt>
   <trkpt lat="-3.0987940" lon="37.3369990">
    <ele>4221.4</ele>
    <time>2026-06-22T06:49:47Z</time>
   </trkpt>
   <trkpt lat="-3.0987950" lon="37.3369990">
    <ele>4221.4</ele>
    <time>2026-06-22T06:49:48Z</time>
   </trkpt>
   <trkpt lat="-3.0987950" lon="37.3369990">
    <ele>4221.4</ele>
    <time>2026-06-22T06:49:49Z</time>
   </trkpt>
   <trkpt lat="-3.0987950" lon="37.3370000">
    <ele>4221.4</ele>
    <time>2026-06-22T06:49:50Z</time>
   </trkpt>
   <trkpt lat="-3.0987960" lon="37.3369990">
    <ele>4221.4</ele>
    <time>2026-06-22T06:49:51Z</time>
   </trkpt>
   <trkpt lat="-3.0987950" lon="37.3369990">
    <ele>4221.4</ele>
    <time>2026-06-22T06:49:52Z</time>
   </trkpt>
   <trkpt lat="-3.0987940" lon="37.3369990">
    <ele>4221.4</ele>
    <time>2026-06-22T06:49:53Z</time>
   </trkpt>
   <trkpt lat="-3.0987960" lon="37.3369980">
    <ele>4221.3</ele>
    <time>2026-06-22T06:49:54Z</time>
   </trkpt>
   <trkpt lat="-3.0987960" lon="37.3369980">
    <ele>4221.3</ele>
    <time>2026-06-22T06:49:55Z</time>
   </trkpt>
   <trkpt lat="-3.0987960" lon="37.3369970">
    <ele>4221.3</ele>
    <time>2026-06-22T06:49:56Z</time>
   </trkpt>
   <trkpt lat="-3.0987960" lon="37.3369970">
    <ele>4221.3</ele>
    <time>2026-06-22T06:49:57Z</time>
   </trkpt>
   <trkpt lat="-3.0987960" lon="37.3369970">
    <ele>4221.3</ele>
    <time>2026-06-22T06:49:58Z</time>
   </trkpt>
   <trkpt lat="-3.0987960" lon="37.3369970">
    <ele>4221.3</ele>
    <time>2026-06-22T06:49:59Z</time>
   </trkpt>
   <trkpt lat="-3.0987960" lon="37.3369970">
    <ele>4221.3</ele>
    <time>2026-06-22T06:50:00Z</time>
   </trkpt>
   <trkpt lat="-3.0987960" lon="37.3369980">
    <ele>4221.3</ele>
    <time>2026-06-22T06:50:01Z</time>
   </trkpt>
   <trkpt lat="-3.0987970" lon="37.3369970">
    <ele>4221.3</ele>
    <time>2026-06-22T06:50:02Z</time>
   </trkpt>
   <trkpt lat="-3.0987970" lon="37.3369970">
    <ele>4221.3</ele>
    <time>2026-06-22T06:50:03Z</time>
   </trkpt>
   <trkpt lat="-3.0987970" lon="37.3369970">
    <ele>4221.3</ele>
    <time>2026-06-22T06:50:04Z</time>
   </trkpt>
   <trkpt lat="-3.0987980" lon="37.3369960">
    <ele>4221.3</ele>
    <time>2026-06-22T06:50:05Z</time>
   </trkpt>
   <trkpt lat="-3.0987980" lon="37.3369970">
    <ele>4221.3</ele>
    <time>2026-06-22T06:50:06Z</time>
   </trkpt>
   <trkpt lat="-3.0987980" lon="37.3369980">
    <ele>4221.2</ele>
    <time>2026-06-22T06:50:07Z</time>
   </trkpt>
   <trkpt lat="-3.0987980" lon="37.3369970">
    <ele>4221.2</ele>
    <time>2026-06-22T06:50:08Z</time>
   </trkpt>
   <trkpt lat="-3.0987980" lon="37.3369970">
    <ele>4221.2</ele>
    <time>2026-06-22T06:50:09Z</time>
   </trkpt>
   <trkpt lat="-3.0987980" lon="37.3369970">
    <ele>4221.2</ele>
    <time>2026-06-22T06:50:10Z</time>
   </trkpt>
   <trkpt lat="-3.0987980" lon="37.3369970">
    <ele>4221.2</ele>
    <time>2026-06-22T06:50:11Z</time>
   </trkpt>
   <trkpt lat="-3.0987970" lon="37.3369980">
    <ele>4221.2</ele>
    <time>2026-06-22T06:50:12Z</time>
   </trkpt>
   <trkpt lat="-3.0987980" lon="37.3369960">
    <ele>4221.2</ele>
    <time>2026-06-22T06:50:13Z</time>
   </trkpt>
   <trkpt lat="-3.0987980" lon="37.3369970">
    <ele>4221.2</ele>
    <time>2026-06-22T06:50:14Z</time>
   </trkpt>
   <trkpt lat="-3.0987970" lon="37.3369970">
    <ele>4221.2</ele>
    <time>2026-06-22T06:50:15Z</time>
   </trkpt>
   <trkpt lat="-3.0987980" lon="37.3369960">
    <ele>4221.2</ele>
    <time>2026-06-22T06:50:16Z</time>
   </trkpt>
   <trkpt lat="-3.0987980" lon="37.3369960">
    <ele>4221.2</ele>
    <time>2026-06-22T06:50:17Z</time>
   </trkpt>
   <trkpt lat="-3.0987980" lon="37.3369970">
    <ele>4221.1</ele>
    <time>2026-06-22T06:50:18Z</time>
   </trkpt>
   <trkpt lat="-3.0987970" lon="37.3369960">
    <ele>4221.1</ele>
    <time>2026-06-22T06:50:19Z</time>
   </trkpt>
   <trkpt lat="-3.0987980" lon="37.3369960">
    <ele>4221.1</ele>
    <time>2026-06-22T06:50:20Z</time>
   </trkpt>
   <trkpt lat="-3.0987980" lon="37.3369960">
    <ele>4221.1</ele>
    <time>2026-06-22T06:50:21Z</time>
   </trkpt>
   <trkpt lat="-3.0987990" lon="37.3369950">
    <ele>4221.1</ele>
    <time>2026-06-22T06:50:22Z</time>
   </trkpt>
   <trkpt lat="-3.0987990" lon="37.3369950">
    <ele>4221.1</ele>
    <time>2026-06-22T06:50:23Z</time>
   </trkpt>
   <trkpt lat="-3.0988000" lon="37.3369960">
    <ele>4221.1</ele>
    <time>2026-06-22T06:50:24Z</time>
   </trkpt>
   <trkpt lat="-3.0987970" lon="37.3369950">
    <ele>4221.0</ele>
    <time>2026-06-22T06:50:25Z</time>
   </trkpt>
   <trkpt lat="-3.0987980" lon="37.3369940">
    <ele>4221.0</ele>
    <time>2026-06-22T06:50:26Z</time>
   </trkpt>
   <trkpt lat="-3.0987980" lon="37.3369940">
    <ele>4221.0</ele>
    <time>2026-06-22T06:50:27Z</time>
   </trkpt>
   <trkpt lat="-3.0987980" lon="37.3369940">
    <ele>4221.0</ele>
    <time>2026-06-22T06:50:28Z</time>
   </trkpt>
   <trkpt lat="-3.0987980" lon="37.3369940">
    <ele>4221.0</ele>
    <time>2026-06-22T06:50:29Z</time>
   </trkpt>
   <trkpt lat="-3.0987980" lon="37.3369940">
    <ele>4221.0</ele>
    <time>2026-06-22T06:50:30Z</time>
   </trkpt>
   <trkpt lat="-3.0987980" lon="37.3369940">
    <ele>4221.0</ele>
    <time>2026-06-22T06:50:31Z</time>
   </trkpt>
   <trkpt lat="-3.0987980" lon="37.3369940">
    <ele>4221.0</ele>
    <time>2026-06-22T06:50:32Z</time>
   </trkpt>
   <trkpt lat="-3.0988010" lon="37.3369950">
    <ele>4221.0</ele>
    <time>2026-06-22T06:50:33Z</time>
   </trkpt>
   <trkpt lat="-3.0987990" lon="37.3369960">
    <ele>4220.9</ele>
    <time>2026-06-22T06:50:34Z</time>
   </trkpt>
   <trkpt lat="-3.0987960" lon="37.3369940">
    <ele>4220.9</ele>
    <time>2026-06-22T06:50:35Z</time>
   </trkpt>
   <trkpt lat="-3.0987960" lon="37.3369900">
    <ele>4220.8</ele>
    <time>2026-06-22T06:50:36Z</time>
   </trkpt>
   <trkpt lat="-3.0987950" lon="37.3369890">
    <ele>4220.8</ele>
    <time>2026-06-22T06:50:37Z</time>
   </trkpt>
   <trkpt lat="-3.0987940" lon="37.3369890">
    <ele>4220.8</ele>
    <time>2026-06-22T06:50:38Z</time>
   </trkpt>
   <trkpt lat="-3.0987920" lon="37.3369870">
    <ele>4220.8</ele>
    <time>2026-06-22T06:50:39Z</time>
   </trkpt>
   <trkpt lat="-3.0987910" lon="37.3369870">
    <ele>4220.8</ele>
    <time>2026-06-22T06:50:40Z</time>
   </trkpt>
   <trkpt lat="-3.0987910" lon="37.3369880">
    <ele>4220.7</ele>
    <time>2026-06-22T06:50:41Z</time>
   </trkpt>
   <trkpt lat="-3.0987900" lon="37.3369880">
    <ele>4220.7</ele>
    <time>2026-06-22T06:50:42Z</time>
   </trkpt>
   <trkpt lat="-3.0987890" lon="37.3369890">
    <ele>4220.7</ele>
    <time>2026-06-22T06:50:43Z</time>
   </trkpt>
   <trkpt lat="-3.0987890" lon="37.3369890">
    <ele>4220.7</ele>
    <time>2026-06-22T06:50:44Z</time>
   </trkpt>
   <trkpt lat="-3.0987900" lon="37.3369900">
    <ele>4220.7</ele>
    <time>2026-06-22T06:50:45Z</time>
   </trkpt>
   <trkpt lat="-3.0987910" lon="37.3369910">
    <ele>4220.7</ele>
    <time>2026-06-22T06:50:46Z</time>
   </trkpt>
   <trkpt lat="-3.0987910" lon="37.3369920">
    <ele>4220.7</ele>
    <time>2026-06-22T06:50:47Z</time>
   </trkpt>
   <trkpt lat="-3.0987900" lon="37.3369920">
    <ele>4220.6</ele>
    <time>2026-06-22T06:50:48Z</time>
   </trkpt>
   <trkpt lat="-3.0987910" lon="37.3369910">
    <ele>4220.6</ele>
    <time>2026-06-22T06:50:49Z</time>
   </trkpt>
   <trkpt lat="-3.0987920" lon="37.3369910">
    <ele>4220.6</ele>
    <time>2026-06-22T06:50:50Z</time>
   </trkpt>
   <trkpt lat="-3.0987920" lon="37.3369910">
    <ele>4220.6</ele>
    <time>2026-06-22T06:50:51Z</time>
   </trkpt>
   <trkpt lat="-3.0987920" lon="37.3369920">
    <ele>4220.6</ele>
    <time>2026-06-22T06:50:52Z</time>
   </trkpt>
   <trkpt lat="-3.0987920" lon="37.3369960">
    <ele>4220.5</ele>
    <time>2026-06-22T06:50:53Z</time>
   </trkpt>
   <trkpt lat="-3.0987960" lon="37.3369940">
    <ele>4220.5</ele>
    <time>2026-06-22T06:50:54Z</time>
   </trkpt>
   <trkpt lat="-3.0987950" lon="37.3369930">
    <ele>4220.5</ele>
    <time>2026-06-22T06:50:55Z</time>
   </trkpt>
   <trkpt lat="-3.0987950" lon="37.3369940">
    <ele>4220.5</ele>
    <time>2026-06-22T06:50:56Z</time>
   </trkpt>
   <trkpt lat="-3.0987960" lon="37.3369930">
    <ele>4220.4</ele>
    <time>2026-06-22T06:50:57Z</time>
   </trkpt>
   <trkpt lat="-3.0987960" lon="37.3369930">
    <ele>4220.4</ele>
    <time>2026-06-22T06:50:58Z</time>
   </trkpt>
   <trkpt lat="-3.0987970" lon="37.3369940">
    <ele>4220.4</ele>
    <time>2026-06-22T06:50:59Z</time>
   </trkpt>
   <trkpt lat="-3.0987960" lon="37.3369940">
    <ele>4220.4</ele>
    <time>2026-06-22T06:51:00Z</time>
   </trkpt>
   <trkpt lat="-3.0987960" lon="37.3369930">
    <ele>4220.4</ele>
    <time>2026-06-22T06:51:01Z</time>
   </trkpt>
   <trkpt lat="-3.0988000" lon="37.3369990">
    <ele>4220.3</ele>
    <time>2026-06-22T06:51:02Z</time>
   </trkpt>
   <trkpt lat="-3.0987970" lon="37.3369930">
    <ele>4220.2</ele>
    <time>2026-06-22T06:51:03Z</time>
   </trkpt>
   <trkpt lat="-3.0987980" lon="37.3369950">
    <ele>4220.2</ele>
    <time>2026-06-22T06:51:04Z</time>
   </trkpt>
   <trkpt lat="-3.0987980" lon="37.3369940">
    <ele>4220.2</ele>
    <time>2026-06-22T06:51:05Z</time>
   </trkpt>
   <trkpt lat="-3.0987950" lon="37.3369960">
    <ele>4220.1</ele>
    <time>2026-06-22T06:51:06Z</time>
   </trkpt>
   <trkpt lat="-3.0987970" lon="37.3369980">
    <ele>4220.1</ele>
    <time>2026-06-22T06:51:07Z</time>
   </trkpt>
   <trkpt lat="-3.0987960" lon="37.3369970">
    <ele>4220.1</ele>
    <time>2026-06-22T06:51:08Z</time>
   </trkpt>
   <trkpt lat="-3.0987970" lon="37.3369960">
    <ele>4220.0</ele>
    <time>2026-06-22T06:51:09Z</time>
   </trkpt>
   <trkpt lat="-3.0987960" lon="37.3369960">
    <ele>4220.0</ele>
    <time>2026-06-22T06:51:10Z</time>
   </trkpt>
   <trkpt lat="-3.0987980" lon="37.3369960">
    <ele>4220.0</ele>
    <time>2026-06-22T06:51:11Z</time>
   </trkpt>
   <trkpt lat="-3.0988050" lon="37.3369900">
    <ele>4219.9</ele>
    <time>2026-06-22T06:51:12Z</time>
   </trkpt>
   <trkpt lat="-3.0988070" lon="37.3369850">
    <ele>4219.8</ele>
    <time>2026-06-22T06:51:13Z</time>
   </trkpt>
   <trkpt lat="-3.0988150" lon="37.3369770">
    <ele>4219.7</ele>
    <time>2026-06-22T06:51:14Z</time>
   </trkpt>
   <trkpt lat="-3.0988140" lon="37.3369630">
    <ele>4219.5</ele>
    <time>2026-06-22T06:51:15Z</time>
   </trkpt>
   <trkpt lat="-3.0988260" lon="37.3369580">
    <ele>4219.3</ele>
    <time>2026-06-22T06:51:16Z</time>
   </trkpt>
   <trkpt lat="-3.0988410" lon="37.3369490">
    <ele>4219.1</ele>
    <time>2026-06-22T06:51:17Z</time>
   </trkpt>
   <trkpt lat="-3.0988380" lon="37.3369470">
    <ele>4219.0</ele>
    <time>2026-06-22T06:51:18Z</time>
   </trkpt>
   <trkpt lat="-3.0988350" lon="37.3369480">
    <ele>4219.0</ele>
    <time>2026-06-22T06:51:19Z</time>
   </trkpt>
   <trkpt lat="-3.0988340" lon="37.3369480">
    <ele>4218.9</ele>
    <time>2026-06-22T06:51:20Z</time>
   </trkpt>
   <trkpt lat="-3.0988360" lon="37.3369490">
    <ele>4218.9</ele>
    <time>2026-06-22T06:51:21Z</time>
   </trkpt>
   <trkpt lat="-3.0988380" lon="37.3369500">
    <ele>4218.9</ele>
    <time>2026-06-22T06:51:22Z</time>
   </trkpt>
   <trkpt lat="-3.0988490" lon="37.3369530">
    <ele>4218.7</ele>
    <time>2026-06-22T06:51:23Z</time>
   </trkpt>
   <trkpt lat="-3.0988490" lon="37.3369530">
    <ele>4218.7</ele>
    <time>2026-06-22T06:51:24Z</time>
   </trkpt>
   <trkpt lat="-3.0988510" lon="37.3369500">
    <ele>4218.7</ele>
    <time>2026-06-22T06:51:25Z</time>
   </trkpt>
   <trkpt lat="-3.0988560" lon="37.3369530">
    <ele>4218.6</ele>
    <time>2026-06-22T06:51:26Z</time>
   </trkpt>
   <trkpt lat="-3.0988590" lon="37.3369520">
    <ele>4218.5</ele>
    <time>2026-06-22T06:51:27Z</time>
   </trkpt>
   <trkpt lat="-3.0988640" lon="37.3369560">
    <ele>4218.5</ele>
    <time>2026-06-22T06:51:28Z</time>
   </trkpt>
   <trkpt lat="-3.0988610" lon="37.3369550">
    <ele>4218.4</ele>
    <time>2026-06-22T06:51:29Z</time>
   </trkpt>
   <trkpt lat="-3.0988610" lon="37.3369540">
    <ele>4218.4</ele>
    <time>2026-06-22T06:51:30Z</time>
   </trkpt>
   <trkpt lat="-3.0988620" lon="37.3369540">
    <ele>4218.4</ele>
    <time>2026-06-22T06:51:31Z</time>
   </trkpt>
   <trkpt lat="-3.0988600" lon="37.3369550">
    <ele>4218.3</ele>
    <time>2026-06-22T06:51:32Z</time>
   </trkpt>
   <trkpt lat="-3.0988620" lon="37.3369550">
    <ele>4218.3</ele>
    <time>2026-06-22T06:51:33Z</time>
   </trkpt>
   <trkpt lat="-3.0988640" lon="37.3369600">
    <ele>4218.2</ele>
    <time>2026-06-22T06:51:34Z</time>
   </trkpt>
   <trkpt lat="-3.0988690" lon="37.3369590">
    <ele>4218.2</ele>
    <time>2026-06-22T06:51:35Z</time>
   </trkpt>
   <trkpt lat="-3.0988670" lon="37.3369590">
    <ele>4218.1</ele>
    <time>2026-06-22T06:51:36Z</time>
   </trkpt>
   <trkpt lat="-3.0988660" lon="37.3369610">
    <ele>4218.1</ele>
    <time>2026-06-22T06:51:37Z</time>
   </trkpt>
   <trkpt lat="-3.0988660" lon="37.3369610">
    <ele>4218.1</ele>
    <time>2026-06-22T06:51:38Z</time>
   </trkpt>
   <trkpt lat="-3.0988660" lon="37.3369600">
    <ele>4218.1</ele>
    <time>2026-06-22T06:51:39Z</time>
   </trkpt>
   <trkpt lat="-3.0988670" lon="37.3369610">
    <ele>4218.1</ele>
    <time>2026-06-22T06:51:40Z</time>
   </trkpt>
   <trkpt lat="-3.0988670" lon="37.3369600">
    <ele>4218.1</ele>
    <time>2026-06-22T06:51:41Z</time>
   </trkpt>
   <trkpt lat="-3.0988670" lon="37.3369600">
    <ele>4218.1</ele>
    <time>2026-06-22T06:51:42Z</time>
   </trkpt>
   <trkpt lat="-3.0988660" lon="37.3369610">
    <ele>4218.0</ele>
    <time>2026-06-22T06:51:43Z</time>
   </trkpt>
   <trkpt lat="-3.0988660" lon="37.3369620">
    <ele>4218.0</ele>
    <time>2026-06-22T06:51:44Z</time>
   </trkpt>
   <trkpt lat="-3.0988630" lon="37.3369610">
    <ele>4218.0</ele>
    <time>2026-06-22T06:51:45Z</time>
   </trkpt>
   <trkpt lat="-3.0988640" lon="37.3369620">
    <ele>4218.0</ele>
    <time>2026-06-22T06:51:46Z</time>
   </trkpt>
   <trkpt lat="-3.0988630" lon="37.3369620">
    <ele>4217.9</ele>
    <time>2026-06-22T06:51:47Z</time>
   </trkpt>
   <trkpt lat="-3.0988620" lon="37.3369620">
    <ele>4217.9</ele>
    <time>2026-06-22T06:51:48Z</time>
   </trkpt>
   <trkpt lat="-3.0988630" lon="37.3369620">
    <ele>4217.9</ele>
    <time>2026-06-22T06:51:49Z</time>
   </trkpt>
   <trkpt lat="-3.0988620" lon="37.3369620">
    <ele>4217.9</ele>
    <time>2026-06-22T06:51:50Z</time>
   </trkpt>
   <trkpt lat="-3.0988620" lon="37.3369620">
    <ele>4217.9</ele>
    <time>2026-06-22T06:51:51Z</time>
   </trkpt>
   <trkpt lat="-3.0988620" lon="37.3369610">
    <ele>4217.9</ele>
    <time>2026-06-22T06:51:52Z</time>
   </trkpt>
   <trkpt lat="-3.0988620" lon="37.3369620">
    <ele>4217.9</ele>
    <time>2026-06-22T06:51:53Z</time>
   </trkpt>
   <trkpt lat="-3.0988630" lon="37.3369620">
    <ele>4217.9</ele>
    <time>2026-06-22T06:51:54Z</time>
   </trkpt>
   <trkpt lat="-3.0988620" lon="37.3369620">
    <ele>4217.8</ele>
    <time>2026-06-22T06:51:55Z</time>
   </trkpt>
   <trkpt lat="-3.0988620" lon="37.3369620">
    <ele>4217.8</ele>
    <time>2026-06-22T06:51:56Z</time>
   </trkpt>
   <trkpt lat="-3.0988640" lon="37.3369620">
    <ele>4217.8</ele>
    <time>2026-06-22T06:51:57Z</time>
   </trkpt>
   <trkpt lat="-3.0988640" lon="37.3369630">
    <ele>4217.8</ele>
    <time>2026-06-22T06:51:58Z</time>
   </trkpt>
   <trkpt lat="-3.0988640" lon="37.3369630">
    <ele>4217.8</ele>
    <time>2026-06-22T06:51:59Z</time>
   </trkpt>
   <trkpt lat="-3.0988640" lon="37.3369620">
    <ele>4217.8</ele>
    <time>2026-06-22T06:52:00Z</time>
   </trkpt>
   <trkpt lat="-3.0988630" lon="37.3369630">
    <ele>4217.8</ele>
    <time>2026-06-22T06:52:01Z</time>
   </trkpt>
   <trkpt lat="-3.0988640" lon="37.3369620">
    <ele>4217.8</ele>
    <time>2026-06-22T06:52:02Z</time>
   </trkpt>
   <trkpt lat="-3.0988620" lon="37.3369630">
    <ele>4217.7</ele>
    <time>2026-06-22T06:52:03Z</time>
   </trkpt>
   <trkpt lat="-3.0988640" lon="37.3369630">
    <ele>4217.7</ele>
    <time>2026-06-22T06:52:04Z</time>
   </trkpt>
   <trkpt lat="-3.0988630" lon="37.3369640">
    <ele>4217.7</ele>
    <time>2026-06-22T06:52:05Z</time>
   </trkpt>
   <trkpt lat="-3.0988630" lon="37.3369630">
    <ele>4217.7</ele>
    <time>2026-06-22T06:52:06Z</time>
   </trkpt>
   <trkpt lat="-3.0988620" lon="37.3369630">
    <ele>4217.6</ele>
    <time>2026-06-22T06:52:07Z</time>
   </trkpt>
   <trkpt lat="-3.0988610" lon="37.3369610">
    <ele>4217.6</ele>
    <time>2026-06-22T06:52:08Z</time>
   </trkpt>
   <trkpt lat="-3.0988600" lon="37.3369580">
    <ele>4217.6</ele>
    <time>2026-06-22T06:52:09Z</time>
   </trkpt>
   <trkpt lat="-3.0988550" lon="37.3369520">
    <ele>4217.5</ele>
    <time>2026-06-22T06:52:10Z</time>
   </trkpt>
   <trkpt lat="-3.0988490" lon="37.3369490">
    <ele>4217.4</ele>
    <time>2026-06-22T06:52:11Z</time>
   </trkpt>
   <trkpt lat="-3.0988430" lon="37.3369490">
    <ele>4217.3</ele>
    <time>2026-06-22T06:52:12Z</time>
   </trkpt>
   <trkpt lat="-3.0988390" lon="37.3369550">
    <ele>4217.2</ele>
    <time>2026-06-22T06:52:13Z</time>
   </trkpt>
   <trkpt lat="-3.0988350" lon="37.3369560">
    <ele>4217.1</ele>
    <time>2026-06-22T06:52:14Z</time>
   </trkpt>
   <trkpt lat="-3.0988330" lon="37.3369540">
    <ele>4217.1</ele>
    <time>2026-06-22T06:52:15Z</time>
   </trkpt>
   <trkpt lat="-3.0988330" lon="37.3369540">
    <ele>4217.1</ele>
    <time>2026-06-22T06:52:16Z</time>
   </trkpt>
   <trkpt lat="-3.0988310" lon="37.3369550">
    <ele>4217.0</ele>
    <time>2026-06-22T06:52:17Z</time>
   </trkpt>
   <trkpt lat="-3.0988310" lon="37.3369540">
    <ele>4217.0</ele>
    <time>2026-06-22T06:52:18Z</time>
   </trkpt>
   <trkpt lat="-3.0988230" lon="37.3369460">
    <ele>4216.9</ele>
    <time>2026-06-22T06:52:19Z</time>
   </trkpt>
   <trkpt lat="-3.0988280" lon="37.3369530">
    <ele>4216.7</ele>
    <time>2026-06-22T06:52:20Z</time>
   </trkpt>
   <trkpt lat="-3.0988260" lon="37.3369520">
    <ele>4216.7</ele>
    <time>2026-06-22T06:52:21Z</time>
   </trkpt>
   <trkpt lat="-3.0988270" lon="37.3369530">
    <ele>4216.7</ele>
    <time>2026-06-22T06:52:22Z</time>
   </trkpt>
   <trkpt lat="-3.0988270" lon="37.3369520">
    <ele>4216.7</ele>
    <time>2026-06-22T06:52:23Z</time>
   </trkpt>
   <trkpt lat="-3.0988270" lon="37.3369540">
    <ele>4216.6</ele>
    <time>2026-06-22T06:52:24Z</time>
   </trkpt>
   <trkpt lat="-3.0988250" lon="37.3369530">
    <ele>4216.6</ele>
    <time>2026-06-22T06:52:25Z</time>
   </trkpt>
   <trkpt lat="-3.0988260" lon="37.3369540">
    <ele>4216.6</ele>
    <time>2026-06-22T06:52:26Z</time>
   </trkpt>
   <trkpt lat="-3.0988260" lon="37.3369550">
    <ele>4216.6</ele>
    <time>2026-06-22T06:52:27Z</time>
   </trkpt>
   <trkpt lat="-3.0988250" lon="37.3369540">
    <ele>4216.6</ele>
    <time>2026-06-22T06:52:28Z</time>
   </trkpt>
   <trkpt lat="-3.0988250" lon="37.3369560">
    <ele>4216.5</ele>
    <time>2026-06-22T06:52:29Z</time>
   </trkpt>
   <trkpt lat="-3.0988260" lon="37.3369560">
    <ele>4216.5</ele>
    <time>2026-06-22T06:52:30Z</time>
   </trkpt>
   <trkpt lat="-3.0988250" lon="37.3369570">
    <ele>4216.5</ele>
    <time>2026-06-22T06:52:31Z</time>
   </trkpt>
   <trkpt lat="-3.0988240" lon="37.3369570">
    <ele>4216.5</ele>
    <time>2026-06-22T06:52:32Z</time>
   </trkpt>
   <trkpt lat="-3.0988240" lon="37.3369580">
    <ele>4216.5</ele>
    <time>2026-06-22T06:52:33Z</time>
   </trkpt>
   <trkpt lat="-3.0988250" lon="37.3369560">
    <ele>4216.4</ele>
    <time>2026-06-22T06:52:34Z</time>
   </trkpt>
   <trkpt lat="-3.0988220" lon="37.3369560">
    <ele>4216.4</ele>
    <time>2026-06-22T06:52:35Z</time>
   </trkpt>
   <trkpt lat="-3.0988230" lon="37.3369570">
    <ele>4216.4</ele>
    <time>2026-06-22T06:52:36Z</time>
   </trkpt>
   <trkpt lat="-3.0988230" lon="37.3369580">
    <ele>4216.3</ele>
    <time>2026-06-22T06:52:37Z</time>
   </trkpt>
   <trkpt lat="-3.0988220" lon="37.3369580">
    <ele>4216.3</ele>
    <time>2026-06-22T06:52:38Z</time>
   </trkpt>
   <trkpt lat="-3.0988230" lon="37.3369590">
    <ele>4216.3</ele>
    <time>2026-06-22T06:52:39Z</time>
   </trkpt>
   <trkpt lat="-3.0988220" lon="37.3369580">
    <ele>4216.3</ele>
    <time>2026-06-22T06:52:40Z</time>
   </trkpt>
   <trkpt lat="-3.0988220" lon="37.3369580">
    <ele>4216.3</ele>
    <time>2026-06-22T06:52:41Z</time>
   </trkpt>
   <trkpt lat="-3.0988210" lon="37.3369580">
    <ele>4216.3</ele>
    <time>2026-06-22T06:52:42Z</time>
   </trkpt>
   <trkpt lat="-3.0988210" lon="37.3369580">
    <ele>4216.3</ele>
    <time>2026-06-22T06:52:43Z</time>
   </trkpt>
   <trkpt lat="-3.0988210" lon="37.3369580">
    <ele>4216.3</ele>
    <time>2026-06-22T06:52:44Z</time>
   </trkpt>
   <trkpt lat="-3.0988210" lon="37.3369590">
    <ele>4216.3</ele>
    <time>2026-06-22T06:52:45Z</time>
   </trkpt>
   <trkpt lat="-3.0988210" lon="37.3369590">
    <ele>4216.3</ele>
    <time>2026-06-22T06:52:46Z</time>
   </trkpt>
   <trkpt lat="-3.0988200" lon="37.3369590">
    <ele>4216.2</ele>
    <time>2026-06-22T06:52:47Z</time>
   </trkpt>
   <trkpt lat="-3.0988200" lon="37.3369590">
    <ele>4216.2</ele>
    <time>2026-06-22T06:52:48Z</time>
   </trkpt>
   <trkpt lat="-3.0988190" lon="37.3369580">
    <ele>4216.2</ele>
    <time>2026-06-22T06:52:49Z</time>
   </trkpt>
   <trkpt lat="-3.0988190" lon="37.3369580">
    <ele>4216.2</ele>
    <time>2026-06-22T06:52:50Z</time>
   </trkpt>
   <trkpt lat="-3.0988180" lon="37.3369580">
    <ele>4216.2</ele>
    <time>2026-06-22T06:52:51Z</time>
   </trkpt>
   <trkpt lat="-3.0988190" lon="37.3369570">
    <ele>4216.2</ele>
    <time>2026-06-22T06:52:52Z</time>
   </trkpt>
   <trkpt lat="-3.0988190" lon="37.3369570">
    <ele>4216.2</ele>
    <time>2026-06-22T06:52:53Z</time>
   </trkpt>
   <trkpt lat="-3.0988190" lon="37.3369580">
    <ele>4216.2</ele>
    <time>2026-06-22T06:52:54Z</time>
   </trkpt>
   <trkpt lat="-3.0988190" lon="37.3369580">
    <ele>4216.2</ele>
    <time>2026-06-22T06:52:55Z</time>
   </trkpt>
   <trkpt lat="-3.0988190" lon="37.3369580">
    <ele>4216.2</ele>
    <time>2026-06-22T06:52:56Z</time>
   </trkpt>
   <trkpt lat="-3.0988190" lon="37.3369580">
    <ele>4216.2</ele>
    <time>2026-06-22T06:52:57Z</time>
   </trkpt>
   <trkpt lat="-3.0988190" lon="37.3369590">
    <ele>4216.2</ele>
    <time>2026-06-22T06:52:58Z</time>
   </trkpt>
   <trkpt lat="-3.0988180" lon="37.3369610">
    <ele>4216.1</ele>
    <time>2026-06-22T06:52:59Z</time>
   </trkpt>
   <trkpt lat="-3.0988200" lon="37.3369620">
    <ele>4216.1</ele>
    <time>2026-06-22T06:53:00Z</time>
   </trkpt>
   <trkpt lat="-3.0988190" lon="37.3369610">
    <ele>4216.1</ele>
    <time>2026-06-22T06:53:01Z</time>
   </trkpt>
   <trkpt lat="-3.0988190" lon="37.3369610">
    <ele>4216.1</ele>
    <time>2026-06-22T06:53:02Z</time>
   </trkpt>
   <trkpt lat="-3.0988190" lon="37.3369620">
    <ele>4216.1</ele>
    <time>2026-06-22T06:53:03Z</time>
   </trkpt>
   <trkpt lat="-3.0988200" lon="37.3369610">
    <ele>4216.0</ele>
    <time>2026-06-22T06:53:04Z</time>
   </trkpt>
   <trkpt lat="-3.0988200" lon="37.3369580">
    <ele>4216.0</ele>
    <time>2026-06-22T06:53:05Z</time>
   </trkpt>
   <trkpt lat="-3.0988210" lon="37.3369570">
    <ele>4216.0</ele>
    <time>2026-06-22T06:53:06Z</time>
   </trkpt>
   <trkpt lat="-3.0988210" lon="37.3369560">
    <ele>4216.0</ele>
    <time>2026-06-22T06:53:07Z</time>
   </trkpt>
   <trkpt lat="-3.0988210" lon="37.3369570">
    <ele>4215.9</ele>
    <time>2026-06-22T06:53:08Z</time>
   </trkpt>
   <trkpt lat="-3.0988200" lon="37.3369570">
    <ele>4215.9</ele>
    <time>2026-06-22T06:53:09Z</time>
   </trkpt>
   <trkpt lat="-3.0988200" lon="37.3369580">
    <ele>4215.9</ele>
    <time>2026-06-22T06:53:10Z</time>
   </trkpt>
   <trkpt lat="-3.0988200" lon="37.3369580">
    <ele>4215.9</ele>
    <time>2026-06-22T06:53:11Z</time>
   </trkpt>
   <trkpt lat="-3.0988200" lon="37.3369580">
    <ele>4215.9</ele>
    <time>2026-06-22T06:53:12Z</time>
   </trkpt>
   <trkpt lat="-3.0988200" lon="37.3369580">
    <ele>4215.9</ele>
    <time>2026-06-22T06:53:13Z</time>
   </trkpt>
   <trkpt lat="-3.0988200" lon="37.3369560">
    <ele>4215.9</ele>
    <time>2026-06-22T06:53:14Z</time>
   </trkpt>
   <trkpt lat="-3.0988200" lon="37.3369560">
    <ele>4215.9</ele>
    <time>2026-06-22T06:53:15Z</time>
   </trkpt>
   <trkpt lat="-3.0988200" lon="37.3369560">
    <ele>4215.9</ele>
    <time>2026-06-22T06:53:16Z</time>
   </trkpt>
   <trkpt lat="-3.0988200" lon="37.3369560">
    <ele>4215.9</ele>
    <time>2026-06-22T06:53:17Z</time>
   </trkpt>
   <trkpt lat="-3.0988190" lon="37.3369550">
    <ele>4215.9</ele>
    <time>2026-06-22T06:53:18Z</time>
   </trkpt>
   <trkpt lat="-3.0988200" lon="37.3369550">
    <ele>4215.9</ele>
    <time>2026-06-22T06:53:19Z</time>
   </trkpt>
   <trkpt lat="-3.0988180" lon="37.3369570">
    <ele>4215.8</ele>
    <time>2026-06-22T06:53:20Z</time>
   </trkpt>
   <trkpt lat="-3.0988180" lon="37.3369570">
    <ele>4215.8</ele>
    <time>2026-06-22T06:53:21Z</time>
   </trkpt>
   <trkpt lat="-3.0988170" lon="37.3369570">
    <ele>4215.8</ele>
    <time>2026-06-22T06:53:22Z</time>
   </trkpt>
   <trkpt lat="-3.0988180" lon="37.3369570">
    <ele>4215.8</ele>
    <time>2026-06-22T06:53:23Z</time>
   </trkpt>
   <trkpt lat="-3.0988190" lon="37.3369560">
    <ele>4215.8</ele>
    <time>2026-06-22T06:53:24Z</time>
   </trkpt>
   <trkpt lat="-3.0988180" lon="37.3369570">
    <ele>4215.7</ele>
    <time>2026-06-22T06:53:25Z</time>
   </trkpt>
   <trkpt lat="-3.0988190" lon="37.3369560">
    <ele>4215.7</ele>
    <time>2026-06-22T06:53:26Z</time>
   </trkpt>
   <trkpt lat="-3.0988190" lon="37.3369560">
    <ele>4215.7</ele>
    <time>2026-06-22T06:53:27Z</time>
   </trkpt>
   <trkpt lat="-3.0988190" lon="37.3369550">
    <ele>4215.7</ele>
    <time>2026-06-22T06:53:28Z</time>
   </trkpt>
   <trkpt lat="-3.0988180" lon="37.3369560">
    <ele>4215.7</ele>
    <time>2026-06-22T06:53:29Z</time>
   </trkpt>
   <trkpt lat="-3.0988180" lon="37.3369560">
    <ele>4215.7</ele>
    <time>2026-06-22T06:53:30Z</time>
   </trkpt>
   <trkpt lat="-3.0988180" lon="37.3369560">
    <ele>4215.7</ele>
    <time>2026-06-22T06:53:31Z</time>
   </trkpt>
   <trkpt lat="-3.0988180" lon="37.3369560">
    <ele>4215.7</ele>
    <time>2026-06-22T06:53:32Z</time>
   </trkpt>
   <trkpt lat="-3.0988180" lon="37.3369560">
    <ele>4215.7</ele>
    <time>2026-06-22T06:53:33Z</time>
   </trkpt>
   <trkpt lat="-3.0988180" lon="37.3369560">
    <ele>4215.7</ele>
    <time>2026-06-22T06:53:34Z</time>
   </trkpt>
   <trkpt lat="-3.0988180" lon="37.3369550">
    <ele>4215.7</ele>
    <time>2026-06-22T06:53:35Z</time>
   </trkpt>
   <trkpt lat="-3.0988180" lon="37.3369550">
    <ele>4215.7</ele>
    <time>2026-06-22T06:53:36Z</time>
   </trkpt>
   <trkpt lat="-3.0988180" lon="37.3369540">
    <ele>4215.6</ele>
    <time>2026-06-22T06:53:37Z</time>
   </trkpt>
   <trkpt lat="-3.0988180" lon="37.3369540">
    <ele>4215.6</ele>
    <time>2026-06-22T06:53:38Z</time>
   </trkpt>
   <trkpt lat="-3.0988190" lon="37.3369560">
    <ele>4215.6</ele>
    <time>2026-06-22T06:53:39Z</time>
   </trkpt>
   <trkpt lat="-3.0988180" lon="37.3369550">
    <ele>4215.6</ele>
    <time>2026-06-22T06:53:40Z</time>
   </trkpt>
   <trkpt lat="-3.0988180" lon="37.3369560">
    <ele>4215.6</ele>
    <time>2026-06-22T06:53:41Z</time>
   </trkpt>
   <trkpt lat="-3.0988180" lon="37.3369560">
    <ele>4215.6</ele>
    <time>2026-06-22T06:53:42Z</time>
   </trkpt>
   <trkpt lat="-3.0988180" lon="37.3369560">
    <ele>4215.6</ele>
    <time>2026-06-22T06:53:43Z</time>
   </trkpt>
   <trkpt lat="-3.0988180" lon="37.3369560">
    <ele>4215.6</ele>
    <time>2026-06-22T06:53:44Z</time>
   </trkpt>
   <trkpt lat="-3.0988180" lon="37.3369560">
    <ele>4215.6</ele>
    <time>2026-06-22T06:53:45Z</time>
   </trkpt>
   <trkpt lat="-3.0988180" lon="37.3369560">
    <ele>4215.6</ele>
    <time>2026-06-22T06:53:46Z</time>
   </trkpt>
   <trkpt lat="-3.0988190" lon="37.3369560">
    <ele>4215.6</ele>
    <time>2026-06-22T06:53:47Z</time>
   </trkpt>
   <trkpt lat="-3.0988190" lon="37.3369550">
    <ele>4215.5</ele>
    <time>2026-06-22T06:53:48Z</time>
   </trkpt>
   <trkpt lat="-3.0988190" lon="37.3369560">
    <ele>4215.5</ele>
    <time>2026-06-22T06:53:49Z</time>
   </trkpt>
   <trkpt lat="-3.0988190" lon="37.3369560">
    <ele>4215.5</ele>
    <time>2026-06-22T06:53:50Z</time>
   </trkpt>
   <trkpt lat="-3.0988190" lon="37.3369560">
    <ele>4215.5</ele>
    <time>2026-06-22T06:53:51Z</time>
   </trkpt>
   <trkpt lat="-3.0988190" lon="37.3369560">
    <ele>4215.5</ele>
    <time>2026-06-22T06:53:52Z</time>
   </trkpt>
   <trkpt lat="-3.0988190" lon="37.3369560">
    <ele>4215.5</ele>
    <time>2026-06-22T06:53:53Z</time>
   </trkpt>
   <trkpt lat="-3.0988190" lon="37.3369550">
    <ele>4215.5</ele>
    <time>2026-06-22T06:53:54Z</time>
   </trkpt>
   <trkpt lat="-3.0988190" lon="37.3369560">
    <ele>4215.5</ele>
    <time>2026-06-22T06:53:55Z</time>
   </trkpt>
   <trkpt lat="-3.0988190" lon="37.3369560">
    <ele>4215.5</ele>
    <time>2026-06-22T06:53:56Z</time>
   </trkpt>
   <trkpt lat="-3.0988190" lon="37.3369560">
    <ele>4215.5</ele>
    <time>2026-06-22T06:53:57Z</time>
   </trkpt>
   <trkpt lat="-3.0988200" lon="37.3369550">
    <ele>4215.5</ele>
    <time>2026-06-22T06:53:58Z</time>
   </trkpt>
   <trkpt lat="-3.0988200" lon="37.3369550">
    <ele>4215.5</ele>
    <time>2026-06-22T06:53:59Z</time>
   </trkpt>
   <trkpt lat="-3.0988200" lon="37.3369540">
    <ele>4215.5</ele>
    <time>2026-06-22T06:54:00Z</time>
   </trkpt>
   <trkpt lat="-3.0988210" lon="37.3369540">
    <ele>4215.4</ele>
    <time>2026-06-22T06:54:01Z</time>
   </trkpt>
   <trkpt lat="-3.0988220" lon="37.3369540">
    <ele>4215.4</ele>
    <time>2026-06-22T06:54:02Z</time>
   </trkpt>
   <trkpt lat="-3.0988220" lon="37.3369540">
    <ele>4215.4</ele>
    <time>2026-06-22T06:54:03Z</time>
   </trkpt>
   <trkpt lat="-3.0988210" lon="37.3369540">
    <ele>4215.4</ele>
    <time>2026-06-22T06:54:05Z</time>
   </trkpt>
   <trkpt lat="-3.0988210" lon="37.3369540">
    <ele>4215.4</ele>
    <time>2026-06-22T06:54:06Z</time>
   </trkpt>
   <trkpt lat="-3.0988210" lon="37.3369540">
    <ele>4215.4</ele>
    <time>2026-06-22T06:54:07Z</time>
   </trkpt>
   <trkpt lat="-3.0988200" lon="37.3369540">
    <ele>4215.4</ele>
    <time>2026-06-22T06:54:08Z</time>
   </trkpt>
   <trkpt lat="-3.0988200" lon="37.3369550">
    <ele>4215.4</ele>
    <time>2026-06-22T06:54:09Z</time>
   </trkpt>
   <trkpt lat="-3.0988200" lon="37.3369540">
    <ele>4215.4</ele>
    <time>2026-06-22T06:54:10Z</time>
   </trkpt>
   <trkpt lat="-3.0988190" lon="37.3369550">
    <ele>4215.3</ele>
    <time>2026-06-22T06:54:11Z</time>
   </trkpt>
   <trkpt lat="-3.0988190" lon="37.3369540">
    <ele>4215.3</ele>
    <time>2026-06-22T06:54:12Z</time>
   </trkpt>
   <trkpt lat="-3.0988180" lon="37.3369550">
    <ele>4215.3</ele>
    <time>2026-06-22T06:54:13Z</time>
   </trkpt>
   <trkpt lat="-3.0988180" lon="37.3369550">
    <ele>4215.3</ele>
    <time>2026-06-22T06:54:14Z</time>
   </trkpt>
   <trkpt lat="-3.0988190" lon="37.3369560">
    <ele>4215.3</ele>
    <time>2026-06-22T06:54:15Z</time>
   </trkpt>
   <trkpt lat="-3.0988180" lon="37.3369550">
    <ele>4215.3</ele>
    <time>2026-06-22T06:54:16Z</time>
   </trkpt>
   <trkpt lat="-3.0988180" lon="37.3369560">
    <ele>4215.2</ele>
    <time>2026-06-22T06:54:17Z</time>
   </trkpt>
   <trkpt lat="-3.0988190" lon="37.3369550">
    <ele>4215.2</ele>
    <time>2026-06-22T06:54:18Z</time>
   </trkpt>
   <trkpt lat="-3.0988190" lon="37.3369560">
    <ele>4215.2</ele>
    <time>2026-06-22T06:54:19Z</time>
   </trkpt>
   <trkpt lat="-3.0988190" lon="37.3369560">
    <ele>4215.2</ele>
    <time>2026-06-22T06:54:20Z</time>
   </trkpt>
   <trkpt lat="-3.0988190" lon="37.3369560">
    <ele>4215.2</ele>
    <time>2026-06-22T06:54:21Z</time>
   </trkpt>
   <trkpt lat="-3.0988190" lon="37.3369560">
    <ele>4215.2</ele>
    <time>2026-06-22T06:54:22Z</time>
   </trkpt>
   <trkpt lat="-3.0988190" lon="37.3369560">
    <ele>4215.2</ele>
    <time>2026-06-22T06:54:23Z</time>
   </trkpt>
   <trkpt lat="-3.0988190" lon="37.3369560">
    <ele>4215.2</ele>
    <time>2026-06-22T06:54:24Z</time>
   </trkpt>
   <trkpt lat="-3.0988200" lon="37.3369570">
    <ele>4215.2</ele>
    <time>2026-06-22T06:54:25Z</time>
   </trkpt>
   <trkpt lat="-3.0988210" lon="37.3369570">
    <ele>4215.2</ele>
    <time>2026-06-22T06:54:26Z</time>
   </trkpt>
   <trkpt lat="-3.0988190" lon="37.3369570">
    <ele>4215.1</ele>
    <time>2026-06-22T06:54:27Z</time>
   </trkpt>
   <trkpt lat="-3.0988200" lon="37.3369570">
    <ele>4215.1</ele>
    <time>2026-06-22T06:54:28Z</time>
   </trkpt>
   <trkpt lat="-3.0988200" lon="37.3369570">
    <ele>4215.1</ele>
    <time>2026-06-22T06:54:29Z</time>
   </trkpt>
   <trkpt lat="-3.0988200" lon="37.3369570">
    <ele>4215.1</ele>
    <time>2026-06-22T06:54:30Z</time>
   </trkpt>
   <trkpt lat="-3.0988200" lon="37.3369570">
    <ele>4215.1</ele>
    <time>2026-06-22T06:54:31Z</time>
   </trkpt>
   <trkpt lat="-3.0988200" lon="37.3369570">
    <ele>4215.1</ele>
    <time>2026-06-22T06:54:32Z</time>
   </trkpt>
   <trkpt lat="-3.0988200" lon="37.3369570">
    <ele>4215.1</ele>
    <time>2026-06-22T06:54:33Z</time>
   </trkpt>
   <trkpt lat="-3.0988200" lon="37.3369570">
    <ele>4215.1</ele>
    <time>2026-06-22T06:54:34Z</time>
   </trkpt>
   <trkpt lat="-3.0988200" lon="37.3369560">
    <ele>4215.1</ele>
    <time>2026-06-22T06:54:35Z</time>
   </trkpt>
   <trkpt lat="-3.0988200" lon="37.3369550">
    <ele>4215.1</ele>
    <time>2026-06-22T06:54:36Z</time>
   </trkpt>
   <trkpt lat="-3.0988220" lon="37.3369550">
    <ele>4215.1</ele>
    <time>2026-06-22T06:54:37Z</time>
   </trkpt>
   <trkpt lat="-3.0988200" lon="37.3369540">
    <ele>4215.0</ele>
    <time>2026-06-22T06:54:38Z</time>
   </trkpt>
   <trkpt lat="-3.0988210" lon="37.3369550">
    <ele>4215.0</ele>
    <time>2026-06-22T06:54:39Z</time>
   </trkpt>
   <trkpt lat="-3.0988210" lon="37.3369550">
    <ele>4215.0</ele>
    <time>2026-06-22T06:54:40Z</time>
   </trkpt>
   <trkpt lat="-3.0988210" lon="37.3369540">
    <ele>4215.0</ele>
    <time>2026-06-22T06:54:41Z</time>
   </trkpt>
   <trkpt lat="-3.0988220" lon="37.3369530">
    <ele>4215.0</ele>
    <time>2026-06-22T06:54:42Z</time>
   </trkpt>
   <trkpt lat="-3.0988230" lon="37.3369540">
    <ele>4214.9</ele>
    <time>2026-06-22T06:54:43Z</time>
   </trkpt>
   <trkpt lat="-3.0988230" lon="37.3369540">
    <ele>4214.9</ele>
    <time>2026-06-22T06:54:44Z</time>
   </trkpt>
   <trkpt lat="-3.0988240" lon="37.3369530">
    <ele>4214.9</ele>
    <time>2026-06-22T06:54:45Z</time>
   </trkpt>
   <trkpt lat="-3.0988250" lon="37.3369530">
    <ele>4214.9</ele>
    <time>2026-06-22T06:54:46Z</time>
   </trkpt>
   <trkpt lat="-3.0988250" lon="37.3369530">
    <ele>4214.9</ele>
    <time>2026-06-22T06:54:47Z</time>
   </trkpt>
   <trkpt lat="-3.0988250" lon="37.3369530">
    <ele>4214.9</ele>
    <time>2026-06-22T06:54:48Z</time>
   </trkpt>
   <trkpt lat="-3.0988250" lon="37.3369530">
    <ele>4214.9</ele>
    <time>2026-06-22T06:54:49Z</time>
   </trkpt>
   <trkpt lat="-3.0988280" lon="37.3369510">
    <ele>4214.9</ele>
    <time>2026-06-22T06:54:50Z</time>
   </trkpt>
   <trkpt lat="-3.0988310" lon="37.3369500">
    <ele>4214.8</ele>
    <time>2026-06-22T06:54:51Z</time>
   </trkpt>
   <trkpt lat="-3.0988340" lon="37.3369460">
    <ele>4214.7</ele>
    <time>2026-06-22T06:54:52Z</time>
   </trkpt>
   <trkpt lat="-3.0988330" lon="37.3369460">
    <ele>4214.7</ele>
    <time>2026-06-22T06:54:53Z</time>
   </trkpt>
   <trkpt lat="-3.0988300" lon="37.3369470">
    <ele>4214.7</ele>
    <time>2026-06-22T06:54:54Z</time>
   </trkpt>
   <trkpt lat="-3.0988250" lon="37.3369490">
    <ele>4214.6</ele>
    <time>2026-06-22T06:54:55Z</time>
   </trkpt>
   <trkpt lat="-3.0988240" lon="37.3369500">
    <ele>4214.6</ele>
    <time>2026-06-22T06:54:56Z</time>
   </trkpt>
   <trkpt lat="-3.0988270" lon="37.3369480">
    <ele>4214.5</ele>
    <time>2026-06-22T06:54:57Z</time>
   </trkpt>
   <trkpt lat="-3.0988280" lon="37.3369490">
    <ele>4214.5</ele>
    <time>2026-06-22T06:54:58Z</time>
   </trkpt>
   <trkpt lat="-3.0988270" lon="37.3369470">
    <ele>4214.4</ele>
    <time>2026-06-22T06:54:59Z</time>
   </trkpt>
   <trkpt lat="-3.0988290" lon="37.3369470">
    <ele>4214.4</ele>
    <time>2026-06-22T06:55:00Z</time>
   </trkpt>
   <trkpt lat="-3.0988290" lon="37.3369460">
    <ele>4214.4</ele>
    <time>2026-06-22T06:55:01Z</time>
   </trkpt>
   <trkpt lat="-3.0988290" lon="37.3369460">
    <ele>4214.4</ele>
    <time>2026-06-22T06:55:02Z</time>
   </trkpt>
   <trkpt lat="-3.0988290" lon="37.3369460">
    <ele>4214.4</ele>
    <time>2026-06-22T06:55:03Z</time>
   </trkpt>
   <trkpt lat="-3.0988300" lon="37.3369450">
    <ele>4214.4</ele>
    <time>2026-06-22T06:55:04Z</time>
   </trkpt>
   <trkpt lat="-3.0988300" lon="37.3369450">
    <ele>4214.4</ele>
    <time>2026-06-22T06:55:05Z</time>
   </trkpt>
   <trkpt lat="-3.0988300" lon="37.3369450">
    <ele>4214.4</ele>
    <time>2026-06-22T06:55:06Z</time>
   </trkpt>
   <trkpt lat="-3.0988300" lon="37.3369450">
    <ele>4214.4</ele>
    <time>2026-06-22T06:55:07Z</time>
   </trkpt>
   <trkpt lat="-3.0988300" lon="37.3369450">
    <ele>4214.4</ele>
    <time>2026-06-22T06:55:08Z</time>
   </trkpt>
   <trkpt lat="-3.0988300" lon="37.3369450">
    <ele>4214.4</ele>
    <time>2026-06-22T06:55:09Z</time>
   </trkpt>
   <trkpt lat="-3.0988300" lon="37.3369450">
    <ele>4214.4</ele>
    <time>2026-06-22T06:55:10Z</time>
   </trkpt>
   <trkpt lat="-3.0988300" lon="37.3369430">
    <ele>4214.4</ele>
    <time>2026-06-22T06:55:11Z</time>
   </trkpt>
   <trkpt lat="-3.0988310" lon="37.3369430">
    <ele>4214.3</ele>
    <time>2026-06-22T06:55:12Z</time>
   </trkpt>
   <trkpt lat="-3.0988300" lon="37.3369410">
    <ele>4214.3</ele>
    <time>2026-06-22T06:55:13Z</time>
   </trkpt>
   <trkpt lat="-3.0988310" lon="37.3369410">
    <ele>4214.3</ele>
    <time>2026-06-22T06:55:14Z</time>
   </trkpt>
   <trkpt lat="-3.0988320" lon="37.3369410">
    <ele>4214.3</ele>
    <time>2026-06-22T06:55:15Z</time>
   </trkpt>
   <trkpt lat="-3.0988320" lon="37.3369400">
    <ele>4214.3</ele>
    <time>2026-06-22T06:55:16Z</time>
   </trkpt>
   <trkpt lat="-3.0988320" lon="37.3369410">
    <ele>4214.2</ele>
    <time>2026-06-22T06:55:17Z</time>
   </trkpt>
   <trkpt lat="-3.0988320" lon="37.3369410">
    <ele>4214.2</ele>
    <time>2026-06-22T06:55:18Z</time>
   </trkpt>
   <trkpt lat="-3.0988330" lon="37.3369410">
    <ele>4214.2</ele>
    <time>2026-06-22T06:55:19Z</time>
   </trkpt>
   <trkpt lat="-3.0988320" lon="37.3369420">
    <ele>4214.2</ele>
    <time>2026-06-22T06:55:20Z</time>
   </trkpt>
   <trkpt lat="-3.0988330" lon="37.3369420">
    <ele>4214.2</ele>
    <time>2026-06-22T06:55:21Z</time>
   </trkpt>
   <trkpt lat="-3.0988330" lon="37.3369410">
    <ele>4214.2</ele>
    <time>2026-06-22T06:55:22Z</time>
   </trkpt>
   <trkpt lat="-3.0988330" lon="37.3369420">
    <ele>4214.2</ele>
    <time>2026-06-22T06:55:23Z</time>
   </trkpt>
   <trkpt lat="-3.0988340" lon="37.3369420">
    <ele>4214.1</ele>
    <time>2026-06-22T06:55:24Z</time>
   </trkpt>
   <trkpt lat="-3.0988340" lon="37.3369410">
    <ele>4214.1</ele>
    <time>2026-06-22T06:55:25Z</time>
   </trkpt>
   <trkpt lat="-3.0988340" lon="37.3369420">
    <ele>4214.1</ele>
    <time>2026-06-22T06:55:26Z</time>
   </trkpt>
   <trkpt lat="-3.0988340" lon="37.3369430">
    <ele>4214.1</ele>
    <time>2026-06-22T06:55:27Z</time>
   </trkpt>
   <trkpt lat="-3.0988340" lon="37.3369430">
    <ele>4214.1</ele>
    <time>2026-06-22T06:55:28Z</time>
   </trkpt>
   <trkpt lat="-3.0988340" lon="37.3369430">
    <ele>4214.1</ele>
    <time>2026-06-22T06:55:29Z</time>
   </trkpt>
   <trkpt lat="-3.0988330" lon="37.3369440">
    <ele>4214.1</ele>
    <time>2026-06-22T06:55:30Z</time>
   </trkpt>
   <trkpt lat="-3.0988340" lon="37.3369440">
    <ele>4214.1</ele>
    <time>2026-06-22T06:55:31Z</time>
   </trkpt>
   <trkpt lat="-3.0988340" lon="37.3369440">
    <ele>4214.1</ele>
    <time>2026-06-22T06:55:32Z</time>
   </trkpt>
   <trkpt lat="-3.0988330" lon="37.3369440">
    <ele>4214.0</ele>
    <time>2026-06-22T06:55:33Z</time>
   </trkpt>
   <trkpt lat="-3.0988330" lon="37.3369440">
    <ele>4214.0</ele>
    <time>2026-06-22T06:55:34Z</time>
   </trkpt>
   <trkpt lat="-3.0988330" lon="37.3369440">
    <ele>4214.0</ele>
    <time>2026-06-22T06:55:35Z</time>
   </trkpt>
   <trkpt lat="-3.0988330" lon="37.3369440">
    <ele>4214.0</ele>
    <time>2026-06-22T06:55:36Z</time>
   </trkpt>
   <trkpt lat="-3.0988340" lon="37.3369440">
    <ele>4214.0</ele>
    <time>2026-06-22T06:55:37Z</time>
   </trkpt>
   <trkpt lat="-3.0988390" lon="37.3369430">
    <ele>4213.9</ele>
    <time>2026-06-22T06:55:38Z</time>
   </trkpt>
   <trkpt lat="-3.0988430" lon="37.3369380">
    <ele>4213.8</ele>
    <time>2026-06-22T06:55:39Z</time>
   </trkpt>
   <trkpt lat="-3.0988480" lon="37.3369320">
    <ele>4213.7</ele>
    <time>2026-06-22T06:55:40Z</time>
   </trkpt>
   <trkpt lat="-3.0988580" lon="37.3369270">
    <ele>4213.6</ele>
    <time>2026-06-22T06:55:41Z</time>
   </trkpt>
   <trkpt lat="-3.0988700" lon="37.3369170">
    <ele>4213.3</ele>
    <time>2026-06-22T06:55:42Z</time>
   </trkpt>
   <trkpt lat="-3.0988720" lon="37.3369100">
    <ele>4213.2</ele>
    <time>2026-06-22T06:55:43Z</time>
   </trkpt>
   <trkpt lat="-3.0988810" lon="37.3369040">
    <ele>4213.0</ele>
    <time>2026-06-22T06:55:44Z</time>
   </trkpt>
   <trkpt lat="-3.0988870" lon="37.3369050">
    <ele>4212.9</ele>
    <time>2026-06-22T06:55:45Z</time>
   </trkpt>
   <trkpt lat="-3.0988910" lon="37.3369020">
    <ele>4212.9</ele>
    <time>2026-06-22T06:55:46Z</time>
   </trkpt>
   <trkpt lat="-3.0988980" lon="37.3368970">
    <ele>4212.7</ele>
    <time>2026-06-22T06:55:47Z</time>
   </trkpt>
   <trkpt lat="-3.0989050" lon="37.3368920">
    <ele>4212.6</ele>
    <time>2026-06-22T06:55:48Z</time>
   </trkpt>
   <trkpt lat="-3.0989080" lon="37.3368810">
    <ele>4212.4</ele>
    <time>2026-06-22T06:55:49Z</time>
   </trkpt>
   <trkpt lat="-3.0989120" lon="37.3368710">
    <ele>4212.3</ele>
    <time>2026-06-22T06:55:50Z</time>
   </trkpt>
   <trkpt lat="-3.0989160" lon="37.3368640">
    <ele>4212.1</ele>
    <time>2026-06-22T06:55:51Z</time>
   </trkpt>
   <trkpt lat="-3.0989180" lon="37.3368600">
    <ele>4212.1</ele>
    <time>2026-06-22T06:55:52Z</time>
   </trkpt>
   <trkpt lat="-3.0989180" lon="37.3368550">
    <ele>4212.0</ele>
    <time>2026-06-22T06:55:53Z</time>
   </trkpt>
   <trkpt lat="-3.0989190" lon="37.3368510">
    <ele>4211.9</ele>
    <time>2026-06-22T06:55:54Z</time>
   </trkpt>
   <trkpt lat="-3.0989210" lon="37.3368490">
    <ele>4211.9</ele>
    <time>2026-06-22T06:55:55Z</time>
   </trkpt>
   <trkpt lat="-3.0989230" lon="37.3368460">
    <ele>4211.8</ele>
    <time>2026-06-22T06:55:56Z</time>
   </trkpt>
   <trkpt lat="-3.0989240" lon="37.3368470">
    <ele>4211.8</ele>
    <time>2026-06-22T06:55:57Z</time>
   </trkpt>
   <trkpt lat="-3.0989230" lon="37.3368480">
    <ele>4211.8</ele>
    <time>2026-06-22T06:55:58Z</time>
   </trkpt>
   <trkpt lat="-3.0989250" lon="37.3368470">
    <ele>4211.8</ele>
    <time>2026-06-22T06:55:59Z</time>
   </trkpt>
   <trkpt lat="-3.0989230" lon="37.3368470">
    <ele>4211.7</ele>
    <time>2026-06-22T06:56:00Z</time>
   </trkpt>
   <trkpt lat="-3.0989230" lon="37.3368470">
    <ele>4211.7</ele>
    <time>2026-06-22T06:56:01Z</time>
   </trkpt>
   <trkpt lat="-3.0989230" lon="37.3368460">
    <ele>4211.7</ele>
    <time>2026-06-22T06:56:02Z</time>
   </trkpt>
   <trkpt lat="-3.0989220" lon="37.3368460">
    <ele>4211.7</ele>
    <time>2026-06-22T06:56:03Z</time>
   </trkpt>
   <trkpt lat="-3.0989210" lon="37.3368470">
    <ele>4211.7</ele>
    <time>2026-06-22T06:56:04Z</time>
   </trkpt>
   <trkpt lat="-3.0989210" lon="37.3368470">
    <ele>4211.7</ele>
    <time>2026-06-22T06:56:05Z</time>
   </trkpt>
   <trkpt lat="-3.0989210" lon="37.3368470">
    <ele>4211.7</ele>
    <time>2026-06-22T06:56:06Z</time>
   </trkpt>
   <trkpt lat="-3.0989210" lon="37.3368470">
    <ele>4211.7</ele>
    <time>2026-06-22T06:56:07Z</time>
   </trkpt>
   <trkpt lat="-3.0989200" lon="37.3368490">
    <ele>4211.6</ele>
    <time>2026-06-22T06:56:08Z</time>
   </trkpt>
   <trkpt lat="-3.0989220" lon="37.3368470">
    <ele>4211.6</ele>
    <time>2026-06-22T06:56:09Z</time>
   </trkpt>
   <trkpt lat="-3.0989210" lon="37.3368480">
    <ele>4211.6</ele>
    <time>2026-06-22T06:56:11Z</time>
   </trkpt>
   <trkpt lat="-3.0989200" lon="37.3368480">
    <ele>4211.6</ele>
    <time>2026-06-22T06:56:12Z</time>
   </trkpt>
   <trkpt lat="-3.0989170" lon="37.3368480">
    <ele>4211.5</ele>
    <time>2026-06-22T06:56:13Z</time>
   </trkpt>
   <trkpt lat="-3.0989170" lon="37.3368520">
    <ele>4211.5</ele>
    <time>2026-06-22T06:56:14Z</time>
   </trkpt>
   <trkpt lat="-3.0989190" lon="37.3368530">
    <ele>4211.4</ele>
    <time>2026-06-22T06:56:15Z</time>
   </trkpt>
   <trkpt lat="-3.0989190" lon="37.3368540">
    <ele>4211.4</ele>
    <time>2026-06-22T06:56:16Z</time>
   </trkpt>
   <trkpt lat="-3.0989180" lon="37.3368540">
    <ele>4211.4</ele>
    <time>2026-06-22T06:56:17Z</time>
   </trkpt>
   <trkpt lat="-3.0989160" lon="37.3368530">
    <ele>4211.4</ele>
    <time>2026-06-22T06:56:18Z</time>
   </trkpt>
   <trkpt lat="-3.0989160" lon="37.3368520">
    <ele>4211.3</ele>
    <time>2026-06-22T06:56:19Z</time>
   </trkpt>
   <trkpt lat="-3.0989120" lon="37.3368570">
    <ele>4211.2</ele>
    <time>2026-06-22T06:56:20Z</time>
   </trkpt>
   <trkpt lat="-3.0989050" lon="37.3368640">
    <ele>4211.1</ele>
    <time>2026-06-22T06:56:21Z</time>
   </trkpt>
   <trkpt lat="-3.0988970" lon="37.3368730">
    <ele>4210.9</ele>
    <time>2026-06-22T06:56:22Z</time>
   </trkpt>
   <trkpt lat="-3.0988900" lon="37.3368840">
    <ele>4210.7</ele>
    <time>2026-06-22T06:56:23Z</time>
   </trkpt>
   <trkpt lat="-3.0988810" lon="37.3368930">
    <ele>4210.5</ele>
    <time>2026-06-22T06:56:24Z</time>
   </trkpt>
   <trkpt lat="-3.0988760" lon="37.3369010">
    <ele>4210.4</ele>
    <time>2026-06-22T06:56:25Z</time>
   </trkpt>
   <trkpt lat="-3.0988680" lon="37.3369060">
    <ele>4210.2</ele>
    <time>2026-06-22T06:56:26Z</time>
   </trkpt>
   <trkpt lat="-3.0988610" lon="37.3369100">
    <ele>4210.1</ele>
    <time>2026-06-22T06:56:27Z</time>
   </trkpt>
   <trkpt lat="-3.0988550" lon="37.3369160">
    <ele>4210.0</ele>
    <time>2026-06-22T06:56:28Z</time>
   </trkpt>
   <trkpt lat="-3.0988610" lon="37.3369110">
    <ele>4209.9</ele>
    <time>2026-06-22T06:56:29Z</time>
   </trkpt>
   <trkpt lat="-3.0988660" lon="37.3369170">
    <ele>4209.8</ele>
    <time>2026-06-22T06:56:30Z</time>
   </trkpt>
   <trkpt lat="-3.0988690" lon="37.3369240">
    <ele>4209.6</ele>
    <time>2026-06-22T06:56:31Z</time>
   </trkpt>
   <trkpt lat="-3.0988630" lon="37.3369190">
    <ele>4209.5</ele>
    <time>2026-06-22T06:56:32Z</time>
   </trkpt>
   <trkpt lat="-3.0988640" lon="37.3369200">
    <ele>4209.5</ele>
    <time>2026-06-22T06:56:33Z</time>
   </trkpt>
   <trkpt lat="-3.0988650" lon="37.3369180">
    <ele>4209.5</ele>
    <time>2026-06-22T06:56:34Z</time>
   </trkpt>
   <trkpt lat="-3.0988650" lon="37.3369190">
    <ele>4209.4</ele>
    <time>2026-06-22T06:56:35Z</time>
   </trkpt>
   <trkpt lat="-3.0988670" lon="37.3369190">
    <ele>4209.4</ele>
    <time>2026-06-22T06:56:36Z</time>
   </trkpt>
   <trkpt lat="-3.0988730" lon="37.3369250">
    <ele>4209.3</ele>
    <time>2026-06-22T06:56:37Z</time>
   </trkpt>
   <trkpt lat="-3.0988760" lon="37.3369260">
    <ele>4209.2</ele>
    <time>2026-06-22T06:56:38Z</time>
   </trkpt>
   <trkpt lat="-3.0988800" lon="37.3369290">
    <ele>4209.2</ele>
    <time>2026-06-22T06:56:39Z</time>
   </trkpt>
   <trkpt lat="-3.0988800" lon="37.3369310">
    <ele>4209.1</ele>
    <time>2026-06-22T06:56:40Z</time>
   </trkpt>
   <trkpt lat="-3.0988800" lon="37.3369310">
    <ele>4209.1</ele>
    <time>2026-06-22T06:56:41Z</time>
   </trkpt>
   <trkpt lat="-3.0988890" lon="37.3369350">
    <ele>4209.0</ele>
    <time>2026-06-22T06:56:42Z</time>
   </trkpt>
   <trkpt lat="-3.0988820" lon="37.3369470">
    <ele>4208.8</ele>
    <time>2026-06-22T06:56:43Z</time>
   </trkpt>
   <trkpt lat="-3.0988760" lon="37.3369490">
    <ele>4208.7</ele>
    <time>2026-06-22T06:56:44Z</time>
   </trkpt>
   <trkpt lat="-3.0988730" lon="37.3369430">
    <ele>4208.6</ele>
    <time>2026-06-22T06:56:45Z</time>
   </trkpt>
   <trkpt lat="-3.0988780" lon="37.3369420">
    <ele>4208.5</ele>
    <time>2026-06-22T06:56:46Z</time>
   </trkpt>
   <trkpt lat="-3.0988780" lon="37.3369340">
    <ele>4208.4</ele>
    <time>2026-06-22T06:56:47Z</time>
   </trkpt>
   <trkpt lat="-3.0988770" lon="37.3369380">
    <ele>4208.3</ele>
    <time>2026-06-22T06:56:48Z</time>
   </trkpt>
   <trkpt lat="-3.0988840" lon="37.3369450">
    <ele>4208.2</ele>
    <time>2026-06-22T06:56:49Z</time>
   </trkpt>
   <trkpt lat="-3.0988810" lon="37.3369500">
    <ele>4208.1</ele>
    <time>2026-06-22T06:56:50Z</time>
   </trkpt>
   <trkpt lat="-3.0988870" lon="37.3369470">
    <ele>4208.0</ele>
    <time>2026-06-22T06:56:51Z</time>
   </trkpt>
   <trkpt lat="-3.0988890" lon="37.3369470">
    <ele>4208.0</ele>
    <time>2026-06-22T06:56:52Z</time>
   </trkpt>
   <trkpt lat="-3.0988880" lon="37.3369480">
    <ele>4207.9</ele>
    <time>2026-06-22T06:56:53Z</time>
   </trkpt>
   <trkpt lat="-3.0988880" lon="37.3369450">
    <ele>4207.9</ele>
    <time>2026-06-22T06:56:54Z</time>
   </trkpt>
   <trkpt lat="-3.0988890" lon="37.3369450">
    <ele>4207.9</ele>
    <time>2026-06-22T06:56:55Z</time>
   </trkpt>
   <trkpt lat="-3.0988880" lon="37.3369440">
    <ele>4207.8</ele>
    <time>2026-06-22T06:56:56Z</time>
   </trkpt>
   <trkpt lat="-3.0988830" lon="37.3369530">
    <ele>4207.7</ele>
    <time>2026-06-22T06:56:57Z</time>
   </trkpt>
   <trkpt lat="-3.0988850" lon="37.3369490">
    <ele>4207.6</ele>
    <time>2026-06-22T06:56:58Z</time>
   </trkpt>
   <trkpt lat="-3.0988880" lon="37.3369520">
    <ele>4207.6</ele>
    <time>2026-06-22T06:56:59Z</time>
   </trkpt>
   <trkpt lat="-3.0988840" lon="37.3369530">
    <ele>4207.5</ele>
    <time>2026-06-22T06:57:00Z</time>
   </trkpt>
   <trkpt lat="-3.0988910" lon="37.3369530">
    <ele>4207.4</ele>
    <time>2026-06-22T06:57:01Z</time>
   </trkpt>
   <trkpt lat="-3.0988890" lon="37.3369510">
    <ele>4207.3</ele>
    <time>2026-06-22T06:57:02Z</time>
   </trkpt>
   <trkpt lat="-3.0988890" lon="37.3369530">
    <ele>4207.3</ele>
    <time>2026-06-22T06:57:03Z</time>
   </trkpt>
   <trkpt lat="-3.0988900" lon="37.3369510">
    <ele>4207.3</ele>
    <time>2026-06-22T06:57:04Z</time>
   </trkpt>
   <trkpt lat="-3.0988900" lon="37.3369510">
    <ele>4207.3</ele>
    <time>2026-06-22T06:57:05Z</time>
   </trkpt>
   <trkpt lat="-3.0988890" lon="37.3369550">
    <ele>4207.2</ele>
    <time>2026-06-22T06:57:06Z</time>
   </trkpt>
   <trkpt lat="-3.0988880" lon="37.3369530">
    <ele>4207.2</ele>
    <time>2026-06-22T06:57:07Z</time>
   </trkpt>
   <trkpt lat="-3.0988880" lon="37.3369510">
    <ele>4207.1</ele>
    <time>2026-06-22T06:57:08Z</time>
   </trkpt>
   <trkpt lat="-3.0988890" lon="37.3369510">
    <ele>4207.1</ele>
    <time>2026-06-22T06:57:09Z</time>
   </trkpt>
   <trkpt lat="-3.0988880" lon="37.3369500">
    <ele>4207.1</ele>
    <time>2026-06-22T06:57:10Z</time>
   </trkpt>
   <trkpt lat="-3.0988880" lon="37.3369500">
    <ele>4207.1</ele>
    <time>2026-06-22T06:57:11Z</time>
   </trkpt>
   <trkpt lat="-3.0988870" lon="37.3369500">
    <ele>4207.1</ele>
    <time>2026-06-22T06:57:12Z</time>
   </trkpt>
   <trkpt lat="-3.0988860" lon="37.3369490">
    <ele>4207.1</ele>
    <time>2026-06-22T06:57:13Z</time>
   </trkpt>
   <trkpt lat="-3.0988860" lon="37.3369490">
    <ele>4207.1</ele>
    <time>2026-06-22T06:57:14Z</time>
   </trkpt>
   <trkpt lat="-3.0988870" lon="37.3369490">
    <ele>4207.1</ele>
    <time>2026-06-22T06:57:15Z</time>
   </trkpt>
   <trkpt lat="-3.0988860" lon="37.3369490">
    <ele>4207.0</ele>
    <time>2026-06-22T06:57:16Z</time>
   </trkpt>
   <trkpt lat="-3.0988850" lon="37.3369490">
    <ele>4207.0</ele>
    <time>2026-06-22T06:57:17Z</time>
   </trkpt>
   <trkpt lat="-3.0988870" lon="37.3369490">
    <ele>4207.0</ele>
    <time>2026-06-22T06:57:18Z</time>
   </trkpt>
   <trkpt lat="-3.0988910" lon="37.3369470">
    <ele>4206.9</ele>
    <time>2026-06-22T06:57:19Z</time>
   </trkpt>
   <trkpt lat="-3.0988960" lon="37.3369450">
    <ele>4206.8</ele>
    <time>2026-06-22T06:57:20Z</time>
   </trkpt>
   <trkpt lat="-3.0988990" lon="37.3369450">
    <ele>4206.8</ele>
    <time>2026-06-22T06:57:21Z</time>
   </trkpt>
   <trkpt lat="-3.0988990" lon="37.3369430">
    <ele>4206.8</ele>
    <time>2026-06-22T06:57:22Z</time>
   </trkpt>
   <trkpt lat="-3.0988990" lon="37.3369420">
    <ele>4206.7</ele>
    <time>2026-06-22T06:57:23Z</time>
   </trkpt>
   <trkpt lat="-3.0988990" lon="37.3369420">
    <ele>4206.7</ele>
    <time>2026-06-22T06:57:24Z</time>
   </trkpt>
   <trkpt lat="-3.0988990" lon="37.3369420">
    <ele>4206.7</ele>
    <time>2026-06-22T06:57:25Z</time>
   </trkpt>
   <trkpt lat="-3.0989000" lon="37.3369410">
    <ele>4206.7</ele>
    <time>2026-06-22T06:57:26Z</time>
   </trkpt>
   <trkpt lat="-3.0989000" lon="37.3369410">
    <ele>4206.7</ele>
    <time>2026-06-22T06:57:27Z</time>
   </trkpt>
   <trkpt lat="-3.0988990" lon="37.3369400">
    <ele>4206.7</ele>
    <time>2026-06-22T06:57:28Z</time>
   </trkpt>
   <trkpt lat="-3.0988990" lon="37.3369400">
    <ele>4206.7</ele>
    <time>2026-06-22T06:57:29Z</time>
   </trkpt>
   <trkpt lat="-3.0988960" lon="37.3369550">
    <ele>4206.5</ele>
    <time>2026-06-22T06:57:30Z</time>
   </trkpt>
   <trkpt lat="-3.0988980" lon="37.3369430">
    <ele>4206.3</ele>
    <time>2026-06-22T06:57:31Z</time>
   </trkpt>
   <trkpt lat="-3.0988980" lon="37.3369450">
    <ele>4206.2</ele>
    <time>2026-06-22T06:57:32Z</time>
   </trkpt>
   <trkpt lat="-3.0988990" lon="37.3369420">
    <ele>4206.2</ele>
    <time>2026-06-22T06:57:33Z</time>
   </trkpt>
   <trkpt lat="-3.0988980" lon="37.3369420">
    <ele>4206.2</ele>
    <time>2026-06-22T06:57:34Z</time>
   </trkpt>
   <trkpt lat="-3.0988990" lon="37.3369420">
    <ele>4206.2</ele>
    <time>2026-06-22T06:57:35Z</time>
   </trkpt>
   <trkpt lat="-3.0988990" lon="37.3369420">
    <ele>4206.2</ele>
    <time>2026-06-22T06:57:36Z</time>
   </trkpt>
   <trkpt lat="-3.0988990" lon="37.3369400">
    <ele>4206.1</ele>
    <time>2026-06-22T06:57:37Z</time>
   </trkpt>
   <trkpt lat="-3.0989050" lon="37.3369400">
    <ele>4206.0</ele>
    <time>2026-06-22T06:57:38Z</time>
   </trkpt>
   <trkpt lat="-3.0989040" lon="37.3369390">
    <ele>4206.0</ele>
    <time>2026-06-22T06:57:39Z</time>
   </trkpt>
   <trkpt lat="-3.0989050" lon="37.3369380">
    <ele>4206.0</ele>
    <time>2026-06-22T06:57:40Z</time>
   </trkpt>
   <trkpt lat="-3.0989050" lon="37.3369380">
    <ele>4206.0</ele>
    <time>2026-06-22T06:57:41Z</time>
   </trkpt>
   <trkpt lat="-3.0989040" lon="37.3369380">
    <ele>4206.0</ele>
    <time>2026-06-22T06:57:42Z</time>
   </trkpt>
   <trkpt lat="-3.0989040" lon="37.3369380">
    <ele>4206.0</ele>
    <time>2026-06-22T06:57:43Z</time>
   </trkpt>
   <trkpt lat="-3.0989040" lon="37.3369390">
    <ele>4206.0</ele>
    <time>2026-06-22T06:57:44Z</time>
   </trkpt>
   <trkpt lat="-3.0989030" lon="37.3369380">
    <ele>4205.9</ele>
    <time>2026-06-22T06:57:45Z</time>
   </trkpt>
   <trkpt lat="-3.0989030" lon="37.3369380">
    <ele>4205.9</ele>
    <time>2026-06-22T06:57:46Z</time>
   </trkpt>
   <trkpt lat="-3.0989030" lon="37.3369380">
    <ele>4205.9</ele>
    <time>2026-06-22T06:57:47Z</time>
   </trkpt>
   <trkpt lat="-3.0989030" lon="37.3369380">
    <ele>4205.9</ele>
    <time>2026-06-22T06:57:48Z</time>
   </trkpt>
   <trkpt lat="-3.0989020" lon="37.3369390">
    <ele>4205.9</ele>
    <time>2026-06-22T06:57:49Z</time>
   </trkpt>
   <trkpt lat="-3.0989020" lon="37.3369380">
    <ele>4205.9</ele>
    <time>2026-06-22T06:57:50Z</time>
   </trkpt>
   <trkpt lat="-3.0989020" lon="37.3369380">
    <ele>4205.9</ele>
    <time>2026-06-22T06:57:51Z</time>
   </trkpt>
   <trkpt lat="-3.0989020" lon="37.3369380">
    <ele>4205.9</ele>
    <time>2026-06-22T06:57:52Z</time>
   </trkpt>
   <trkpt lat="-3.0989020" lon="37.3369380">
    <ele>4205.9</ele>
    <time>2026-06-22T06:57:53Z</time>
   </trkpt>
   <trkpt lat="-3.0989010" lon="37.3369380">
    <ele>4205.9</ele>
    <time>2026-06-22T06:57:54Z</time>
   </trkpt>
   <trkpt lat="-3.0989020" lon="37.3369380">
    <ele>4205.9</ele>
    <time>2026-06-22T06:57:55Z</time>
   </trkpt>
   <trkpt lat="-3.0989000" lon="37.3369370">
    <ele>4205.8</ele>
    <time>2026-06-22T06:57:56Z</time>
   </trkpt>
   <trkpt lat="-3.0989020" lon="37.3369370">
    <ele>4205.8</ele>
    <time>2026-06-22T06:57:57Z</time>
   </trkpt>
   <trkpt lat="-3.0989020" lon="37.3369370">
    <ele>4205.8</ele>
    <time>2026-06-22T06:57:58Z</time>
   </trkpt>
   <trkpt lat="-3.0989010" lon="37.3369370">
    <ele>4205.8</ele>
    <time>2026-06-22T06:57:59Z</time>
   </trkpt>
   <trkpt lat="-3.0989010" lon="37.3369370">
    <ele>4205.8</ele>
    <time>2026-06-22T06:58:00Z</time>
   </trkpt>
   <trkpt lat="-3.0989010" lon="37.3369360">
    <ele>4205.8</ele>
    <time>2026-06-22T06:58:01Z</time>
   </trkpt>
   <trkpt lat="-3.0989000" lon="37.3369370">
    <ele>4205.8</ele>
    <time>2026-06-22T06:58:02Z</time>
   </trkpt>
   <trkpt lat="-3.0989010" lon="37.3369360">
    <ele>4205.7</ele>
    <time>2026-06-22T06:58:03Z</time>
   </trkpt>
   <trkpt lat="-3.0989000" lon="37.3369360">
    <ele>4205.7</ele>
    <time>2026-06-22T06:58:04Z</time>
   </trkpt>
   <trkpt lat="-3.0989000" lon="37.3369370">
    <ele>4205.7</ele>
    <time>2026-06-22T06:58:05Z</time>
   </trkpt>
   <trkpt lat="-3.0988990" lon="37.3369370">
    <ele>4205.7</ele>
    <time>2026-06-22T06:58:06Z</time>
   </trkpt>
   <trkpt lat="-3.0988990" lon="37.3369360">
    <ele>4205.7</ele>
    <time>2026-06-22T06:58:07Z</time>
   </trkpt>
   <trkpt lat="-3.0988990" lon="37.3369360">
    <ele>4205.7</ele>
    <time>2026-06-22T06:58:08Z</time>
   </trkpt>
   <trkpt lat="-3.0988980" lon="37.3369360">
    <ele>4205.7</ele>
    <time>2026-06-22T06:58:09Z</time>
   </trkpt>
   <trkpt lat="-3.0988980" lon="37.3369360">
    <ele>4205.7</ele>
    <time>2026-06-22T06:58:10Z</time>
   </trkpt>
   <trkpt lat="-3.0988980" lon="37.3369360">
    <ele>4205.7</ele>
    <time>2026-06-22T06:58:11Z</time>
   </trkpt>
   <trkpt lat="-3.0988980" lon="37.3369360">
    <ele>4205.7</ele>
    <time>2026-06-22T06:58:12Z</time>
   </trkpt>
   <trkpt lat="-3.0988970" lon="37.3369370">
    <ele>4205.6</ele>
    <time>2026-06-22T06:58:13Z</time>
   </trkpt>
   <trkpt lat="-3.0988970" lon="37.3369370">
    <ele>4205.6</ele>
    <time>2026-06-22T06:58:14Z</time>
   </trkpt>
   <trkpt lat="-3.0988970" lon="37.3369370">
    <ele>4205.6</ele>
    <time>2026-06-22T06:58:16Z</time>
   </trkpt>
   <trkpt lat="-3.0988970" lon="37.3369370">
    <ele>4205.6</ele>
    <time>2026-06-22T06:58:17Z</time>
   </trkpt>
   <trkpt lat="-3.0989010" lon="37.3369390">
    <ele>4205.6</ele>
    <time>2026-06-22T06:58:18Z</time>
   </trkpt>
   <trkpt lat="-3.0989020" lon="37.3369360">
    <ele>4205.5</ele>
    <time>2026-06-22T06:58:19Z</time>
   </trkpt>
   <trkpt lat="-3.0989030" lon="37.3369390">
    <ele>4205.5</ele>
    <time>2026-06-22T06:58:20Z</time>
   </trkpt>
   <trkpt lat="-3.0989030" lon="37.3369380">
    <ele>4205.5</ele>
    <time>2026-06-22T06:58:21Z</time>
   </trkpt>
   <trkpt lat="-3.0989030" lon="37.3369380">
    <ele>4205.5</ele>
    <time>2026-06-22T06:58:22Z</time>
   </trkpt>
   <trkpt lat="-3.0989030" lon="37.3369380">
    <ele>4205.5</ele>
    <time>2026-06-22T06:58:23Z</time>
   </trkpt>
   <trkpt lat="-3.0989030" lon="37.3369380">
    <ele>4205.5</ele>
    <time>2026-06-22T06:58:24Z</time>
   </trkpt>
   <trkpt lat="-3.0989030" lon="37.3369380">
    <ele>4205.5</ele>
    <time>2026-06-22T06:58:25Z</time>
   </trkpt>
   <trkpt lat="-3.0989030" lon="37.3369380">
    <ele>4205.5</ele>
    <time>2026-06-22T06:58:26Z</time>
   </trkpt>
   <trkpt lat="-3.0989030" lon="37.3369380">
    <ele>4205.5</ele>
    <time>2026-06-22T06:58:27Z</time>
   </trkpt>
   <trkpt lat="-3.0989030" lon="37.3369390">
    <ele>4205.4</ele>
    <time>2026-06-22T06:58:28Z</time>
   </trkpt>
   <trkpt lat="-3.0989030" lon="37.3369390">
    <ele>4205.4</ele>
    <time>2026-06-22T06:58:29Z</time>
   </trkpt>
   <trkpt lat="-3.0989040" lon="37.3369400">
    <ele>4205.4</ele>
    <time>2026-06-22T06:58:30Z</time>
   </trkpt>
   <trkpt lat="-3.0989050" lon="37.3369390">
    <ele>4205.4</ele>
    <time>2026-06-22T06:58:31Z</time>
   </trkpt>
   <trkpt lat="-3.0989040" lon="37.3369390">
    <ele>4205.4</ele>
    <time>2026-06-22T06:58:32Z</time>
   </trkpt>
   <trkpt lat="-3.0989040" lon="37.3369400">
    <ele>4205.4</ele>
    <time>2026-06-22T06:58:33Z</time>
   </trkpt>
   <trkpt lat="-3.0989090" lon="37.3369390">
    <ele>4205.3</ele>
    <time>2026-06-22T06:58:34Z</time>
   </trkpt>
   <trkpt lat="-3.0989020" lon="37.3369420">
    <ele>4205.2</ele>
    <time>2026-06-22T06:58:35Z</time>
   </trkpt>
   <trkpt lat="-3.0989040" lon="37.3369390">
    <ele>4205.1</ele>
    <time>2026-06-22T06:58:36Z</time>
   </trkpt>
   <trkpt lat="-3.0989050" lon="37.3369400">
    <ele>4205.1</ele>
    <time>2026-06-22T06:58:37Z</time>
   </trkpt>
   <trkpt lat="-3.0989060" lon="37.3369400">
    <ele>4205.1</ele>
    <time>2026-06-22T06:58:38Z</time>
   </trkpt>
   <trkpt lat="-3.0989050" lon="37.3369380">
    <ele>4205.0</ele>
    <time>2026-06-22T06:58:39Z</time>
   </trkpt>
   <trkpt lat="-3.0989050" lon="37.3369380">
    <ele>4205.0</ele>
    <time>2026-06-22T06:58:40Z</time>
   </trkpt>
   <trkpt lat="-3.0989040" lon="37.3369370">
    <ele>4205.0</ele>
    <time>2026-06-22T06:58:41Z</time>
   </trkpt>
   <trkpt lat="-3.0989010" lon="37.3369350">
    <ele>4205.0</ele>
    <time>2026-06-22T06:58:42Z</time>
   </trkpt>
   <trkpt lat="-3.0989020" lon="37.3369330">
    <ele>4204.9</ele>
    <time>2026-06-22T06:58:43Z</time>
   </trkpt>
   <trkpt lat="-3.0989020" lon="37.3369340">
    <ele>4204.9</ele>
    <time>2026-06-22T06:58:44Z</time>
   </trkpt>
   <trkpt lat="-3.0989020" lon="37.3369340">
    <ele>4204.9</ele>
    <time>2026-06-22T06:58:45Z</time>
   </trkpt>
   <trkpt lat="-3.0989030" lon="37.3369360">
    <ele>4204.9</ele>
    <time>2026-06-22T06:58:46Z</time>
   </trkpt>
   <trkpt lat="-3.0989030" lon="37.3369360">
    <ele>4204.9</ele>
    <time>2026-06-22T06:58:47Z</time>
   </trkpt>
   <trkpt lat="-3.0989030" lon="37.3369370">
    <ele>4204.9</ele>
    <time>2026-06-22T06:58:48Z</time>
   </trkpt>
   <trkpt lat="-3.0989040" lon="37.3369360">
    <ele>4204.8</ele>
    <time>2026-06-22T06:58:49Z</time>
   </trkpt>
   <trkpt lat="-3.0989040" lon="37.3369370">
    <ele>4204.8</ele>
    <time>2026-06-22T06:58:50Z</time>
   </trkpt>
   <trkpt lat="-3.0989040" lon="37.3369380">
    <ele>4204.8</ele>
    <time>2026-06-22T06:58:51Z</time>
   </trkpt>
   <trkpt lat="-3.0989040" lon="37.3369380">
    <ele>4204.8</ele>
    <time>2026-06-22T06:58:52Z</time>
   </trkpt>
   <trkpt lat="-3.0989040" lon="37.3369380">
    <ele>4204.8</ele>
    <time>2026-06-22T06:58:53Z</time>
   </trkpt>
   <trkpt lat="-3.0989040" lon="37.3369380">
    <ele>4204.8</ele>
    <time>2026-06-22T06:58:54Z</time>
   </trkpt>
   <trkpt lat="-3.0989040" lon="37.3369380">
    <ele>4204.8</ele>
    <time>2026-06-22T06:58:55Z</time>
   </trkpt>
   <trkpt lat="-3.0989030" lon="37.3369390">
    <ele>4204.8</ele>
    <time>2026-06-22T06:58:56Z</time>
   </trkpt>
   <trkpt lat="-3.0989020" lon="37.3369390">
    <ele>4204.8</ele>
    <time>2026-06-22T06:58:57Z</time>
   </trkpt>
   <trkpt lat="-3.0989030" lon="37.3369390">
    <ele>4204.8</ele>
    <time>2026-06-22T06:58:58Z</time>
   </trkpt>
   <trkpt lat="-3.0989030" lon="37.3369380">
    <ele>4204.7</ele>
    <time>2026-06-22T06:58:59Z</time>
   </trkpt>
   <trkpt lat="-3.0989030" lon="37.3369390">
    <ele>4204.7</ele>
    <time>2026-06-22T06:59:00Z</time>
   </trkpt>
   <trkpt lat="-3.0989030" lon="37.3369390">
    <ele>4204.7</ele>
    <time>2026-06-22T06:59:01Z</time>
   </trkpt>
   <trkpt lat="-3.0989030" lon="37.3369390">
    <ele>4204.7</ele>
    <time>2026-06-22T06:59:02Z</time>
   </trkpt>
   <trkpt lat="-3.0989020" lon="37.3369400">
    <ele>4204.7</ele>
    <time>2026-06-22T06:59:03Z</time>
   </trkpt>
   <trkpt lat="-3.0989020" lon="37.3369400">
    <ele>4204.7</ele>
    <time>2026-06-22T06:59:04Z</time>
   </trkpt>
   <trkpt lat="-3.0989010" lon="37.3369410">
    <ele>4204.7</ele>
    <time>2026-06-22T06:59:05Z</time>
   </trkpt>
   <trkpt lat="-3.0989030" lon="37.3369410">
    <ele>4204.6</ele>
    <time>2026-06-22T06:59:06Z</time>
   </trkpt>
   <trkpt lat="-3.0989020" lon="37.3369410">
    <ele>4204.6</ele>
    <time>2026-06-22T06:59:07Z</time>
   </trkpt>
   <trkpt lat="-3.0989030" lon="37.3369410">
    <ele>4204.6</ele>
    <time>2026-06-22T06:59:08Z</time>
   </trkpt>
   <trkpt lat="-3.0989030" lon="37.3369400">
    <ele>4204.6</ele>
    <time>2026-06-22T06:59:09Z</time>
   </trkpt>
   <trkpt lat="-3.0989040" lon="37.3369410">
    <ele>4204.6</ele>
    <time>2026-06-22T06:59:10Z</time>
   </trkpt>
   <trkpt lat="-3.0989050" lon="37.3369400">
    <ele>4204.6</ele>
    <time>2026-06-22T06:59:11Z</time>
   </trkpt>
   <trkpt lat="-3.0989050" lon="37.3369400">
    <ele>4204.6</ele>
    <time>2026-06-22T06:59:12Z</time>
   </trkpt>
   <trkpt lat="-3.0989050" lon="37.3369400">
    <ele>4204.6</ele>
    <time>2026-06-22T06:59:13Z</time>
   </trkpt>
   <trkpt lat="-3.0989050" lon="37.3369410">
    <ele>4204.5</ele>
    <time>2026-06-22T06:59:14Z</time>
   </trkpt>
   <trkpt lat="-3.0989050" lon="37.3369410">
    <ele>4204.5</ele>
    <time>2026-06-22T06:59:15Z</time>
   </trkpt>
   <trkpt lat="-3.0989070" lon="37.3369440">
    <ele>4204.5</ele>
    <time>2026-06-22T06:59:16Z</time>
   </trkpt>
   <trkpt lat="-3.0989090" lon="37.3369440">
    <ele>4204.5</ele>
    <time>2026-06-22T06:59:17Z</time>
   </trkpt>
   <trkpt lat="-3.0989090" lon="37.3369450">
    <ele>4204.4</ele>
    <time>2026-06-22T06:59:18Z</time>
   </trkpt>
   <trkpt lat="-3.0989110" lon="37.3369470">
    <ele>4204.4</ele>
    <time>2026-06-22T06:59:19Z</time>
   </trkpt>
   <trkpt lat="-3.0989120" lon="37.3369520">
    <ele>4204.3</ele>
    <time>2026-06-22T06:59:20Z</time>
   </trkpt>
   <trkpt lat="-3.0989180" lon="37.3369530">
    <ele>4204.2</ele>
    <time>2026-06-22T06:59:21Z</time>
   </trkpt>
   <trkpt lat="-3.0989250" lon="37.3369560">
    <ele>4204.1</ele>
    <time>2026-06-22T06:59:22Z</time>
   </trkpt>
   <trkpt lat="-3.0989290" lon="37.3369590">
    <ele>4204.0</ele>
    <time>2026-06-22T06:59:23Z</time>
   </trkpt>
   <trkpt lat="-3.0989310" lon="37.3369590">
    <ele>4204.0</ele>
    <time>2026-06-22T06:59:24Z</time>
   </trkpt>
   <trkpt lat="-3.0989310" lon="37.3369600">
    <ele>4204.0</ele>
    <time>2026-06-22T06:59:25Z</time>
   </trkpt>
   <trkpt lat="-3.0989310" lon="37.3369600">
    <ele>4204.0</ele>
    <time>2026-06-22T06:59:26Z</time>
   </trkpt>
   <trkpt lat="-3.0989310" lon="37.3369590">
    <ele>4204.0</ele>
    <time>2026-06-22T06:59:27Z</time>
   </trkpt>
   <trkpt lat="-3.0989310" lon="37.3369590">
    <ele>4204.0</ele>
    <time>2026-06-22T06:59:28Z</time>
   </trkpt>
   <trkpt lat="-3.0989300" lon="37.3369590">
    <ele>4204.0</ele>
    <time>2026-06-22T06:59:29Z</time>
   </trkpt>
   <trkpt lat="-3.0989370" lon="37.3369610">
    <ele>4203.9</ele>
    <time>2026-06-22T06:59:30Z</time>
   </trkpt>
   <trkpt lat="-3.0989380" lon="37.3369600">
    <ele>4203.8</ele>
    <time>2026-06-22T06:59:31Z</time>
   </trkpt>
   <trkpt lat="-3.0989380" lon="37.3369600">
    <ele>4203.8</ele>
    <time>2026-06-22T06:59:32Z</time>
   </trkpt>
   <trkpt lat="-3.0989330" lon="37.3369590">
    <ele>4203.8</ele>
    <time>2026-06-22T06:59:33Z</time>
   </trkpt>
   <trkpt lat="-3.0989350" lon="37.3369600">
    <ele>4203.7</ele>
    <time>2026-06-22T06:59:34Z</time>
   </trkpt>
   <trkpt lat="-3.0989370" lon="37.3369570">
    <ele>4203.7</ele>
    <time>2026-06-22T06:59:35Z</time>
   </trkpt>
   <trkpt lat="-3.0989380" lon="37.3369580">
    <ele>4203.6</ele>
    <time>2026-06-22T06:59:36Z</time>
   </trkpt>
   <trkpt lat="-3.0989380" lon="37.3369580">
    <ele>4203.6</ele>
    <time>2026-06-22T06:59:37Z</time>
   </trkpt>
   <trkpt lat="-3.0989420" lon="37.3369590">
    <ele>4203.6</ele>
    <time>2026-06-22T06:59:38Z</time>
   </trkpt>
   <trkpt lat="-3.0989450" lon="37.3369580">
    <ele>4203.5</ele>
    <time>2026-06-22T06:59:39Z</time>
   </trkpt>
   <trkpt lat="-3.0989460" lon="37.3369580">
    <ele>4203.5</ele>
    <time>2026-06-22T06:59:40Z</time>
   </trkpt>
   <trkpt lat="-3.0989470" lon="37.3369570">
    <ele>4203.5</ele>
    <time>2026-06-22T06:59:41Z</time>
   </trkpt>
   <trkpt lat="-3.0989460" lon="37.3369570">
    <ele>4203.5</ele>
    <time>2026-06-22T06:59:42Z</time>
   </trkpt>
   <trkpt lat="-3.0989470" lon="37.3369550">
    <ele>4203.5</ele>
    <time>2026-06-22T06:59:43Z</time>
   </trkpt>
   <trkpt lat="-3.0989500" lon="37.3369520">
    <ele>4203.4</ele>
    <time>2026-06-22T06:59:44Z</time>
   </trkpt>
   <trkpt lat="-3.0989540" lon="37.3369500">
    <ele>4203.3</ele>
    <time>2026-06-22T06:59:45Z</time>
   </trkpt>
   <trkpt lat="-3.0989590" lon="37.3369520">
    <ele>4203.2</ele>
    <time>2026-06-22T06:59:46Z</time>
   </trkpt>
   <trkpt lat="-3.0989610" lon="37.3369520">
    <ele>4203.2</ele>
    <time>2026-06-22T06:59:47Z</time>
   </trkpt>
   <trkpt lat="-3.0989620" lon="37.3369520">
    <ele>4203.2</ele>
    <time>2026-06-22T06:59:48Z</time>
   </trkpt>
   <trkpt lat="-3.0989620" lon="37.3369520">
    <ele>4203.2</ele>
    <time>2026-06-22T06:59:49Z</time>
   </trkpt>
   <trkpt lat="-3.0989620" lon="37.3369540">
    <ele>4203.2</ele>
    <time>2026-06-22T06:59:50Z</time>
   </trkpt>
   <trkpt lat="-3.0989630" lon="37.3369540">
    <ele>4203.2</ele>
    <time>2026-06-22T06:59:51Z</time>
   </trkpt>
   <trkpt lat="-3.0989650" lon="37.3369540">
    <ele>4203.1</ele>
    <time>2026-06-22T06:59:52Z</time>
   </trkpt>
   <trkpt lat="-3.0989680" lon="37.3369560">
    <ele>4203.1</ele>
    <time>2026-06-22T06:59:53Z</time>
   </trkpt>
   <trkpt lat="-3.0989690" lon="37.3369540">
    <ele>4203.0</ele>
    <time>2026-06-22T06:59:54Z</time>
   </trkpt>
   <trkpt lat="-3.0989710" lon="37.3369540">
    <ele>4203.0</ele>
    <time>2026-06-22T06:59:55Z</time>
   </trkpt>
   <trkpt lat="-3.0989730" lon="37.3369540">
    <ele>4203.0</ele>
    <time>2026-06-22T06:59:56Z</time>
   </trkpt>
   <trkpt lat="-3.0989740" lon="37.3369530">
    <ele>4203.0</ele>
    <time>2026-06-22T06:59:57Z</time>
   </trkpt>
   <trkpt lat="-3.0989790" lon="37.3369560">
    <ele>4202.9</ele>
    <time>2026-06-22T06:59:58Z</time>
   </trkpt>
   <trkpt lat="-3.0989800" lon="37.3369600">
    <ele>4202.8</ele>
    <time>2026-06-22T06:59:59Z</time>
   </trkpt>
   <trkpt lat="-3.0989820" lon="37.3369630">
    <ele>4202.8</ele>
    <time>2026-06-22T07:00:00Z</time>
   </trkpt>
   <trkpt lat="-3.0989770" lon="37.3369670">
    <ele>4202.7</ele>
    <time>2026-06-22T07:00:01Z</time>
   </trkpt>
   <trkpt lat="-3.0989940" lon="37.3369660">
    <ele>4202.4</ele>
    <time>2026-06-22T07:00:02Z</time>
   </trkpt>
   <trkpt lat="-3.0989950" lon="37.3369740">
    <ele>4202.3</ele>
    <time>2026-06-22T07:00:03Z</time>
   </trkpt>
   <trkpt lat="-3.0989970" lon="37.3369820">
    <ele>4202.2</ele>
    <time>2026-06-22T07:00:04Z</time>
   </trkpt>
   <trkpt lat="-3.0989980" lon="37.3369900">
    <ele>4202.0</ele>
    <time>2026-06-22T07:00:05Z</time>
   </trkpt>
   <trkpt lat="-3.0989960" lon="37.3369960">
    <ele>4201.9</ele>
    <time>2026-06-22T07:00:06Z</time>
   </trkpt>
   <trkpt lat="-3.0989940" lon="37.3369990">
    <ele>4201.9</ele>
    <time>2026-06-22T07:00:07Z</time>
   </trkpt>
   <trkpt lat="-3.0989940" lon="37.3370010">
    <ele>4201.9</ele>
    <time>2026-06-22T07:00:08Z</time>
   </trkpt>
   <trkpt lat="-3.0989950" lon="37.3370050">
    <ele>4201.8</ele>
    <time>2026-06-22T07:00:09Z</time>
   </trkpt>
   <trkpt lat="-3.0989940" lon="37.3370070">
    <ele>4201.8</ele>
    <time>2026-06-22T07:00:10Z</time>
   </trkpt>
   <trkpt lat="-3.0989910" lon="37.3370150">
    <ele>4201.6</ele>
    <time>2026-06-22T07:00:11Z</time>
   </trkpt>
   <trkpt lat="-3.0989850" lon="37.3370230">
    <ele>4201.5</ele>
    <time>2026-06-22T07:00:12Z</time>
   </trkpt>
   <trkpt lat="-3.0989850" lon="37.3370250">
    <ele>4201.5</ele>
    <time>2026-06-22T07:00:13Z</time>
   </trkpt>
   <trkpt lat="-3.0989860" lon="37.3370280">
    <ele>4201.4</ele>
    <time>2026-06-22T07:00:14Z</time>
   </trkpt>
   <trkpt lat="-3.0989870" lon="37.3370310">
    <ele>4201.4</ele>
    <time>2026-06-22T07:00:15Z</time>
   </trkpt>
   <trkpt lat="-3.0989900" lon="37.3370340">
    <ele>4201.3</ele>
    <time>2026-06-22T07:00:16Z</time>
   </trkpt>
   <trkpt lat="-3.0989940" lon="37.3370390">
    <ele>4201.2</ele>
    <time>2026-06-22T07:00:17Z</time>
   </trkpt>
   <trkpt lat="-3.0990000" lon="37.3370470">
    <ele>4201.1</ele>
    <time>2026-06-22T07:00:18Z</time>
   </trkpt>
   <trkpt lat="-3.0990000" lon="37.3370510">
    <ele>4201.0</ele>
    <time>2026-06-22T07:00:19Z</time>
   </trkpt>
   <trkpt lat="-3.0990020" lon="37.3370530">
    <ele>4201.0</ele>
    <time>2026-06-22T07:00:20Z</time>
   </trkpt>
   <trkpt lat="-3.0990080" lon="37.3370570">
    <ele>4200.9</ele>
    <time>2026-06-22T07:00:22Z</time>
   </trkpt>
   <trkpt lat="-3.0990160" lon="37.3370620">
    <ele>4200.7</ele>
    <time>2026-06-22T07:00:23Z</time>
   </trkpt>
   <trkpt lat="-3.0990220" lon="37.3370650">
    <ele>4200.6</ele>
    <time>2026-06-22T07:00:24Z</time>
   </trkpt>
   <trkpt lat="-3.0990250" lon="37.3370630">
    <ele>4200.6</ele>
    <time>2026-06-22T07:00:25Z</time>
   </trkpt>
   <trkpt lat="-3.0990290" lon="37.3370640">
    <ele>4200.5</ele>
    <time>2026-06-22T07:00:26Z</time>
   </trkpt>
   <trkpt lat="-3.0990310" lon="37.3370650">
    <ele>4200.5</ele>
    <time>2026-06-22T07:00:27Z</time>
   </trkpt>
   <trkpt lat="-3.0990350" lon="37.3370680">
    <ele>4200.4</ele>
    <time>2026-06-22T07:00:28Z</time>
   </trkpt>
   <trkpt lat="-3.0990370" lon="37.3370710">
    <ele>4200.3</ele>
    <time>2026-06-22T07:00:29Z</time>
   </trkpt>
   <trkpt lat="-3.0990410" lon="37.3370760">
    <ele>4200.2</ele>
    <time>2026-06-22T07:00:30Z</time>
   </trkpt>
   <trkpt lat="-3.0990460" lon="37.3370830">
    <ele>4200.1</ele>
    <time>2026-06-22T07:00:31Z</time>
   </trkpt>
   <trkpt lat="-3.0990500" lon="37.3370840">
    <ele>4200.1</ele>
    <time>2026-06-22T07:00:32Z</time>
   </trkpt>
   <trkpt lat="-3.0990580" lon="37.3370850">
    <ele>4199.9</ele>
    <time>2026-06-22T07:00:33Z</time>
   </trkpt>
   <trkpt lat="-3.0990600" lon="37.3370870">
    <ele>4199.9</ele>
    <time>2026-06-22T07:00:34Z</time>
   </trkpt>
   <trkpt lat="-3.0990650" lon="37.3370940">
    <ele>4199.8</ele>
    <time>2026-06-22T07:00:35Z</time>
   </trkpt>
   <trkpt lat="-3.0990680" lon="37.3371020">
    <ele>4199.6</ele>
    <time>2026-06-22T07:00:36Z</time>
   </trkpt>
   <trkpt lat="-3.0990670" lon="37.3371080">
    <ele>4199.5</ele>
    <time>2026-06-22T07:00:37Z</time>
   </trkpt>
   <trkpt lat="-3.0990660" lon="37.3371150">
    <ele>4199.4</ele>
    <time>2026-06-22T07:00:38Z</time>
   </trkpt>
   <trkpt lat="-3.0990680" lon="37.3371220">
    <ele>4199.3</ele>
    <time>2026-06-22T07:00:39Z</time>
   </trkpt>
   <trkpt lat="-3.0990730" lon="37.3371290">
    <ele>4199.2</ele>
    <time>2026-06-22T07:00:40Z</time>
   </trkpt>
   <trkpt lat="-3.0990780" lon="37.3371330">
    <ele>4199.1</ele>
    <time>2026-06-22T07:00:41Z</time>
   </trkpt>
   <trkpt lat="-3.0990840" lon="37.3371390">
    <ele>4199.0</ele>
    <time>2026-06-22T07:00:42Z</time>
   </trkpt>
   <trkpt lat="-3.0990870" lon="37.3371450">
    <ele>4198.9</ele>
    <time>2026-06-22T07:00:43Z</time>
   </trkpt>
   <trkpt lat="-3.0990900" lon="37.3371530">
    <ele>4198.8</ele>
    <time>2026-06-22T07:00:44Z</time>
   </trkpt>
   <trkpt lat="-3.0990940" lon="37.3371600">
    <ele>4198.6</ele>
    <time>2026-06-22T07:00:45Z</time>
   </trkpt>
   <trkpt lat="-3.0990960" lon="37.3371650">
    <ele>4198.6</ele>
    <time>2026-06-22T07:00:46Z</time>
   </trkpt>
   <trkpt lat="-3.0991010" lon="37.3371700">
    <ele>4198.4</ele>
    <time>2026-06-22T07:00:47Z</time>
   </trkpt>
   <trkpt lat="-3.0991060" lon="37.3371750">
    <ele>4198.3</ele>
    <time>2026-06-22T07:00:48Z</time>
   </trkpt>
   <trkpt lat="-3.0991070" lon="37.3371790">
    <ele>4198.3</ele>
    <time>2026-06-22T07:00:49Z</time>
   </trkpt>
   <trkpt lat="-3.0991110" lon="37.3371870">
    <ele>4198.1</ele>
    <time>2026-06-22T07:00:50Z</time>
   </trkpt>
   <trkpt lat="-3.0991140" lon="37.3371940">
    <ele>4198.0</ele>
    <time>2026-06-22T07:00:51Z</time>
   </trkpt>
   <trkpt lat="-3.0991210" lon="37.3372000">
    <ele>4197.9</ele>
    <time>2026-06-22T07:00:52Z</time>
   </trkpt>
   <trkpt lat="-3.0991240" lon="37.3372020">
    <ele>4197.8</ele>
    <time>2026-06-22T07:00:53Z</time>
   </trkpt>
   <trkpt lat="-3.0991290" lon="37.3372060">
    <ele>4197.7</ele>
    <time>2026-06-22T07:00:54Z</time>
   </trkpt>
   <trkpt lat="-3.0991350" lon="37.3372080">
    <ele>4197.7</ele>
    <time>2026-06-22T07:00:55Z</time>
   </trkpt>
   <trkpt lat="-3.0991380" lon="37.3372080">
    <ele>4197.6</ele>
    <time>2026-06-22T07:00:56Z</time>
   </trkpt>
   <trkpt lat="-3.0991420" lon="37.3372090">
    <ele>4197.5</ele>
    <time>2026-06-22T07:00:57Z</time>
   </trkpt>
   <trkpt lat="-3.0991490" lon="37.3372100">
    <ele>4197.4</ele>
    <time>2026-06-22T07:00:58Z</time>
   </trkpt>
   <trkpt lat="-3.0991540" lon="37.3372110">
    <ele>4197.4</ele>
    <time>2026-06-22T07:00:59Z</time>
   </trkpt>
   <trkpt lat="-3.0991620" lon="37.3372120">
    <ele>4197.2</ele>
    <time>2026-06-22T07:01:00Z</time>
   </trkpt>
   <trkpt lat="-3.0991670" lon="37.3372160">
    <ele>4197.1</ele>
    <time>2026-06-22T07:01:01Z</time>
   </trkpt>
   <trkpt lat="-3.0991730" lon="37.3372210">
    <ele>4197.0</ele>
    <time>2026-06-22T07:01:02Z</time>
   </trkpt>
   <trkpt lat="-3.0991830" lon="37.3372290">
    <ele>4196.8</ele>
    <time>2026-06-22T07:01:03Z</time>
   </trkpt>
   <trkpt lat="-3.0991880" lon="37.3372360">
    <ele>4196.7</ele>
    <time>2026-06-22T07:01:04Z</time>
   </trkpt>
   <trkpt lat="-3.0991930" lon="37.3372420">
    <ele>4196.5</ele>
    <time>2026-06-22T07:01:05Z</time>
   </trkpt>
   <trkpt lat="-3.0991980" lon="37.3372460">
    <ele>4196.4</ele>
    <time>2026-06-22T07:01:06Z</time>
   </trkpt>
   <trkpt lat="-3.0992050" lon="37.3372500">
    <ele>4196.3</ele>
    <time>2026-06-22T07:01:07Z</time>
   </trkpt>
   <trkpt lat="-3.0992070" lon="37.3372510">
    <ele>4196.3</ele>
    <time>2026-06-22T07:01:08Z</time>
   </trkpt>
   <trkpt lat="-3.0992120" lon="37.3372540">
    <ele>4196.2</ele>
    <time>2026-06-22T07:01:09Z</time>
   </trkpt>
   <trkpt lat="-3.0992180" lon="37.3372580">
    <ele>4196.1</ele>
    <time>2026-06-22T07:01:10Z</time>
   </trkpt>
   <trkpt lat="-3.0992190" lon="37.3372580">
    <ele>4196.1</ele>
    <time>2026-06-22T07:01:11Z</time>
   </trkpt>
   <trkpt lat="-3.0992230" lon="37.3372620">
    <ele>4196.0</ele>
    <time>2026-06-22T07:01:12Z</time>
   </trkpt>
   <trkpt lat="-3.0992260" lon="37.3372650">
    <ele>4195.9</ele>
    <time>2026-06-22T07:01:13Z</time>
   </trkpt>
   <trkpt lat="-3.0992260" lon="37.3372690">
    <ele>4195.8</ele>
    <time>2026-06-22T07:01:14Z</time>
   </trkpt>
   <trkpt lat="-3.0992250" lon="37.3372730">
    <ele>4195.8</ele>
    <time>2026-06-22T07:01:15Z</time>
   </trkpt>
   <trkpt lat="-3.0992240" lon="37.3372770">
    <ele>4195.7</ele>
    <time>2026-06-22T07:01:16Z</time>
   </trkpt>
   <trkpt lat="-3.0992210" lon="37.3372800">
    <ele>4195.6</ele>
    <time>2026-06-22T07:01:17Z</time>
   </trkpt>
   <trkpt lat="-3.0992220" lon="37.3372840">
    <ele>4195.6</ele>
    <time>2026-06-22T07:01:18Z</time>
   </trkpt>
   <trkpt lat="-3.0992230" lon="37.3372900">
    <ele>4195.5</ele>
    <time>2026-06-22T07:01:19Z</time>
   </trkpt>
   <trkpt lat="-3.0992250" lon="37.3372930">
    <ele>4195.4</ele>
    <time>2026-06-22T07:01:20Z</time>
   </trkpt>
   <trkpt lat="-3.0992350" lon="37.3372950">
    <ele>4195.3</ele>
    <time>2026-06-22T07:01:21Z</time>
   </trkpt>
   <trkpt lat="-3.0992390" lon="37.3372990">
    <ele>4195.2</ele>
    <time>2026-06-22T07:01:22Z</time>
   </trkpt>
   <trkpt lat="-3.0992400" lon="37.3373020">
    <ele>4195.1</ele>
    <time>2026-06-22T07:01:23Z</time>
   </trkpt>
   <trkpt lat="-3.0992410" lon="37.3373080">
    <ele>4195.0</ele>
    <time>2026-06-22T07:01:24Z</time>
   </trkpt>
   <trkpt lat="-3.0992400" lon="37.3373120">
    <ele>4195.0</ele>
    <time>2026-06-22T07:01:25Z</time>
   </trkpt>
   <trkpt lat="-3.0992400" lon="37.3373120">
    <ele>4195.0</ele>
    <time>2026-06-22T07:01:26Z</time>
   </trkpt>
   <trkpt lat="-3.0992430" lon="37.3373130">
    <ele>4194.9</ele>
    <time>2026-06-22T07:01:27Z</time>
   </trkpt>
   <trkpt lat="-3.0992450" lon="37.3373130">
    <ele>4194.9</ele>
    <time>2026-06-22T07:01:28Z</time>
   </trkpt>
   <trkpt lat="-3.0992530" lon="37.3373160">
    <ele>4194.8</ele>
    <time>2026-06-22T07:01:29Z</time>
   </trkpt>
   <trkpt lat="-3.0992570" lon="37.3373140">
    <ele>4194.7</ele>
    <time>2026-06-22T07:01:30Z</time>
   </trkpt>
   <trkpt lat="-3.0992580" lon="37.3373120">
    <ele>4194.7</ele>
    <time>2026-06-22T07:01:31Z</time>
   </trkpt>
   <trkpt lat="-3.0992640" lon="37.3373130">
    <ele>4194.6</ele>
    <time>2026-06-22T07:01:32Z</time>
   </trkpt>
   <trkpt lat="-3.0992710" lon="37.3373140">
    <ele>4194.4</ele>
    <time>2026-06-22T07:01:33Z</time>
   </trkpt>
   <trkpt lat="-3.0992790" lon="37.3373170">
    <ele>4194.3</ele>
    <time>2026-06-22T07:01:34Z</time>
   </trkpt>
   <trkpt lat="-3.0992860" lon="37.3373210">
    <ele>4194.2</ele>
    <time>2026-06-22T07:01:35Z</time>
   </trkpt>
   <trkpt lat="-3.0992990" lon="37.3373240">
    <ele>4194.0</ele>
    <time>2026-06-22T07:01:36Z</time>
   </trkpt>
   <trkpt lat="-3.0993080" lon="37.3373230">
    <ele>4193.8</ele>
    <time>2026-06-22T07:01:37Z</time>
   </trkpt>
   <trkpt lat="-3.0993150" lon="37.3373220">
    <ele>4193.7</ele>
    <time>2026-06-22T07:01:38Z</time>
   </trkpt>
   <trkpt lat="-3.0993230" lon="37.3373250">
    <ele>4193.6</ele>
    <time>2026-06-22T07:01:39Z</time>
   </trkpt>
   <trkpt lat="-3.0993330" lon="37.3373300">
    <ele>4193.4</ele>
    <time>2026-06-22T07:01:40Z</time>
   </trkpt>
   <trkpt lat="-3.0993400" lon="37.3373330">
    <ele>4193.3</ele>
    <time>2026-06-22T07:01:41Z</time>
   </trkpt>
   <trkpt lat="-3.0993450" lon="37.3373320">
    <ele>4193.2</ele>
    <time>2026-06-22T07:01:42Z</time>
   </trkpt>
   <trkpt lat="-3.0993490" lon="37.3373310">
    <ele>4193.1</ele>
    <time>2026-06-22T07:01:43Z</time>
   </trkpt>
   <trkpt lat="-3.0993540" lon="37.3373320">
    <ele>4193.1</ele>
    <time>2026-06-22T07:01:44Z</time>
   </trkpt>
   <trkpt lat="-3.0993570" lon="37.3373340">
    <ele>4193.0</ele>
    <time>2026-06-22T07:01:45Z</time>
   </trkpt>
   <trkpt lat="-3.0993620" lon="37.3373370">
    <ele>4192.9</ele>
    <time>2026-06-22T07:01:46Z</time>
   </trkpt>
   <trkpt lat="-3.0993650" lon="37.3373430">
    <ele>4192.8</ele>
    <time>2026-06-22T07:01:47Z</time>
   </trkpt>
   <trkpt lat="-3.0993660" lon="37.3373510">
    <ele>4192.7</ele>
    <time>2026-06-22T07:01:48Z</time>
   </trkpt>
   <trkpt lat="-3.0993690" lon="37.3373600">
    <ele>4192.5</ele>
    <time>2026-06-22T07:01:49Z</time>
   </trkpt>
   <trkpt lat="-3.0993730" lon="37.3373680">
    <ele>4192.4</ele>
    <time>2026-06-22T07:01:50Z</time>
   </trkpt>
   <trkpt lat="-3.0993740" lon="37.3373730">
    <ele>4192.3</ele>
    <time>2026-06-22T07:01:51Z</time>
   </trkpt>
   <trkpt lat="-3.0993820" lon="37.3373800">
    <ele>4192.1</ele>
    <time>2026-06-22T07:01:52Z</time>
   </trkpt>
   <trkpt lat="-3.0993850" lon="37.3373790">
    <ele>4192.1</ele>
    <time>2026-06-22T07:01:53Z</time>
   </trkpt>
   <trkpt lat="-3.0993920" lon="37.3373800">
    <ele>4192.0</ele>
    <time>2026-06-22T07:01:54Z</time>
   </trkpt>
   <trkpt lat="-3.0993960" lon="37.3373770">
    <ele>4191.9</ele>
    <time>2026-06-22T07:01:55Z</time>
   </trkpt>
   <trkpt lat="-3.0993980" lon="37.3373730">
    <ele>4191.8</ele>
    <time>2026-06-22T07:01:56Z</time>
   </trkpt>
   <trkpt lat="-3.0994000" lon="37.3373710">
    <ele>4191.8</ele>
    <time>2026-06-22T07:01:57Z</time>
   </trkpt>
   <trkpt lat="-3.0994000" lon="37.3373700">
    <ele>4191.8</ele>
    <time>2026-06-22T07:01:58Z</time>
   </trkpt>
   <trkpt lat="-3.0993990" lon="37.3373700">
    <ele>4191.8</ele>
    <time>2026-06-22T07:01:59Z</time>
   </trkpt>
   <trkpt lat="-3.0994020" lon="37.3373670">
    <ele>4191.7</ele>
    <time>2026-06-22T07:02:00Z</time>
   </trkpt>
   <trkpt lat="-3.0994030" lon="37.3373650">
    <ele>4191.7</ele>
    <time>2026-06-22T07:02:01Z</time>
   </trkpt>
   <trkpt lat="-3.0994050" lon="37.3373610">
    <ele>4191.6</ele>
    <time>2026-06-22T07:02:02Z</time>
   </trkpt>
   <trkpt lat="-3.0994050" lon="37.3373580">
    <ele>4191.5</ele>
    <time>2026-06-22T07:02:03Z</time>
   </trkpt>
   <trkpt lat="-3.0994030" lon="37.3373540">
    <ele>4191.5</ele>
    <time>2026-06-22T07:02:04Z</time>
   </trkpt>
   <trkpt lat="-3.0994040" lon="37.3373500">
    <ele>4191.4</ele>
    <time>2026-06-22T07:02:05Z</time>
   </trkpt>
   <trkpt lat="-3.0994050" lon="37.3373450">
    <ele>4191.3</ele>
    <time>2026-06-22T07:02:06Z</time>
   </trkpt>
   <trkpt lat="-3.0994070" lon="37.3373410">
    <ele>4191.2</ele>
    <time>2026-06-22T07:02:07Z</time>
   </trkpt>
   <trkpt lat="-3.0994070" lon="37.3373380">
    <ele>4191.2</ele>
    <time>2026-06-22T07:02:08Z</time>
   </trkpt>
   <trkpt lat="-3.0994110" lon="37.3373340">
    <ele>4191.1</ele>
    <time>2026-06-22T07:02:09Z</time>
   </trkpt>
   <trkpt lat="-3.0994120" lon="37.3373290">
    <ele>4191.0</ele>
    <time>2026-06-22T07:02:10Z</time>
   </trkpt>
   <trkpt lat="-3.0994140" lon="37.3373240">
    <ele>4190.9</ele>
    <time>2026-06-22T07:02:11Z</time>
   </trkpt>
   <trkpt lat="-3.0994160" lon="37.3373170">
    <ele>4190.8</ele>
    <time>2026-06-22T07:02:12Z</time>
   </trkpt>
   <trkpt lat="-3.0994170" lon="37.3373150">
    <ele>4190.8</ele>
    <time>2026-06-22T07:02:13Z</time>
   </trkpt>
   <trkpt lat="-3.0994220" lon="37.3373110">
    <ele>4190.7</ele>
    <time>2026-06-22T07:02:14Z</time>
   </trkpt>
   <trkpt lat="-3.0994290" lon="37.3373090">
    <ele>4190.6</ele>
    <time>2026-06-22T07:02:15Z</time>
   </trkpt>
   <trkpt lat="-3.0994320" lon="37.3373020">
    <ele>4190.5</ele>
    <time>2026-06-22T07:02:16Z</time>
   </trkpt>
   <trkpt lat="-3.0994430" lon="37.3372950">
    <ele>4190.3</ele>
    <time>2026-06-22T07:02:17Z</time>
   </trkpt>
   <trkpt lat="-3.0994500" lon="37.3372930">
    <ele>4190.1</ele>
    <time>2026-06-22T07:02:18Z</time>
   </trkpt>
   <trkpt lat="-3.0994540" lon="37.3372930">
    <ele>4190.1</ele>
    <time>2026-06-22T07:02:19Z</time>
   </trkpt>
   <trkpt lat="-3.0994630" lon="37.3372900">
    <ele>4189.9</ele>
    <time>2026-06-22T07:02:20Z</time>
   </trkpt>
   <trkpt lat="-3.0994660" lon="37.3372940">
    <ele>4189.8</ele>
    <time>2026-06-22T07:02:21Z</time>
   </trkpt>
   <trkpt lat="-3.0994720" lon="37.3372970">
    <ele>4189.7</ele>
    <time>2026-06-22T07:02:22Z</time>
   </trkpt>
   <trkpt lat="-3.0994760" lon="37.3373020">
    <ele>4189.6</ele>
    <time>2026-06-22T07:02:23Z</time>
   </trkpt>
   <trkpt lat="-3.0994850" lon="37.3373120">
    <ele>4189.4</ele>
    <time>2026-06-22T07:02:24Z</time>
   </trkpt>
   <trkpt lat="-3.0994890" lon="37.3373180">
    <ele>4189.3</ele>
    <time>2026-06-22T07:02:25Z</time>
   </trkpt>
   <trkpt lat="-3.0994970" lon="37.3373240">
    <ele>4189.1</ele>
    <time>2026-06-22T07:02:27Z</time>
   </trkpt>
   <trkpt lat="-3.0995050" lon="37.3373270">
    <ele>4188.9</ele>
    <time>2026-06-22T07:02:28Z</time>
   </trkpt>
   <trkpt lat="-3.0995060" lon="37.3373330">
    <ele>4188.8</ele>
    <time>2026-06-22T07:02:29Z</time>
   </trkpt>
   <trkpt lat="-3.0995080" lon="37.3373380">
    <ele>4188.8</ele>
    <time>2026-06-22T07:02:30Z</time>
   </trkpt>
   <trkpt lat="-3.0995090" lon="37.3373450">
    <ele>4188.6</ele>
    <time>2026-06-22T07:02:31Z</time>
   </trkpt>
   <trkpt lat="-3.0995120" lon="37.3373470">
    <ele>4188.6</ele>
    <time>2026-06-22T07:02:32Z</time>
   </trkpt>
   <trkpt lat="-3.0995170" lon="37.3373480">
    <ele>4188.5</ele>
    <time>2026-06-22T07:02:33Z</time>
   </trkpt>
   <trkpt lat="-3.0995230" lon="37.3373480">
    <ele>4188.4</ele>
    <time>2026-06-22T07:02:34Z</time>
   </trkpt>
   <trkpt lat="-3.0995300" lon="37.3373500">
    <ele>4188.3</ele>
    <time>2026-06-22T07:02:35Z</time>
   </trkpt>
   <trkpt lat="-3.0995320" lon="37.3373510">
    <ele>4188.2</ele>
    <time>2026-06-22T07:02:36Z</time>
   </trkpt>
   <trkpt lat="-3.0995320" lon="37.3373540">
    <ele>4188.2</ele>
    <time>2026-06-22T07:02:37Z</time>
   </trkpt>
   <trkpt lat="-3.0995350" lon="37.3373600">
    <ele>4188.1</ele>
    <time>2026-06-22T07:02:38Z</time>
   </trkpt>
   <trkpt lat="-3.0995440" lon="37.3373680">
    <ele>4187.9</ele>
    <time>2026-06-22T07:02:39Z</time>
   </trkpt>
   <trkpt lat="-3.0995430" lon="37.3373750">
    <ele>4187.7</ele>
    <time>2026-06-22T07:02:40Z</time>
   </trkpt>
   <trkpt lat="-3.0995470" lon="37.3373780">
    <ele>4187.7</ele>
    <time>2026-06-22T07:02:41Z</time>
   </trkpt>
   <trkpt lat="-3.0995490" lon="37.3373820">
    <ele>4187.6</ele>
    <time>2026-06-22T07:02:42Z</time>
   </trkpt>
   <trkpt lat="-3.0995520" lon="37.3373860">
    <ele>4187.5</ele>
    <time>2026-06-22T07:02:43Z</time>
   </trkpt>
   <trkpt lat="-3.0995580" lon="37.3373930">
    <ele>4187.3</ele>
    <time>2026-06-22T07:02:44Z</time>
   </trkpt>
   <trkpt lat="-3.0995650" lon="37.3374010">
    <ele>4187.1</ele>
    <time>2026-06-22T07:02:45Z</time>
   </trkpt>
   <trkpt lat="-3.0995700" lon="37.3374090">
    <ele>4187.0</ele>
    <time>2026-06-22T07:02:46Z</time>
   </trkpt>
   <trkpt lat="-3.0995710" lon="37.3374150">
    <ele>4186.9</ele>
    <time>2026-06-22T07:02:47Z</time>
   </trkpt>
   <trkpt lat="-3.0995730" lon="37.3374190">
    <ele>4186.8</ele>
    <time>2026-06-22T07:02:48Z</time>
   </trkpt>
   <trkpt lat="-3.0995780" lon="37.3374220">
    <ele>4186.7</ele>
    <time>2026-06-22T07:02:49Z</time>
   </trkpt>
   <trkpt lat="-3.0995840" lon="37.3374210">
    <ele>4186.6</ele>
    <time>2026-06-22T07:02:50Z</time>
   </trkpt>
   <trkpt lat="-3.0995930" lon="37.3374220">
    <ele>4186.4</ele>
    <time>2026-06-22T07:02:51Z</time>
   </trkpt>
   <trkpt lat="-3.0995980" lon="37.3374230">
    <ele>4186.3</ele>
    <time>2026-06-22T07:02:52Z</time>
   </trkpt>
   <trkpt lat="-3.0996020" lon="37.3374250">
    <ele>4186.2</ele>
    <time>2026-06-22T07:02:53Z</time>
   </trkpt>
   <trkpt lat="-3.0996010" lon="37.3374270">
    <ele>4186.2</ele>
    <time>2026-06-22T07:02:54Z</time>
   </trkpt>
   <trkpt lat="-3.0996050" lon="37.3374300">
    <ele>4186.1</ele>
    <time>2026-06-22T07:02:55Z</time>
   </trkpt>
   <trkpt lat="-3.0996080" lon="37.3374340">
    <ele>4186.0</ele>
    <time>2026-06-22T07:02:56Z</time>
   </trkpt>
   <trkpt lat="-3.0996060" lon="37.3374350">
    <ele>4186.0</ele>
    <time>2026-06-22T07:02:57Z</time>
   </trkpt>
   <trkpt lat="-3.0996050" lon="37.3374340">
    <ele>4185.9</ele>
    <time>2026-06-22T07:02:58Z</time>
   </trkpt>
   <trkpt lat="-3.0996050" lon="37.3374360">
    <ele>4185.9</ele>
    <time>2026-06-22T07:02:59Z</time>
   </trkpt>
   <trkpt lat="-3.0996050" lon="37.3374350">
    <ele>4185.9</ele>
    <time>2026-06-22T07:03:00Z</time>
   </trkpt>
   <trkpt lat="-3.0996040" lon="37.3374360">
    <ele>4185.9</ele>
    <time>2026-06-22T07:03:01Z</time>
   </trkpt>
   <trkpt lat="-3.0996040" lon="37.3374360">
    <ele>4185.9</ele>
    <time>2026-06-22T07:03:02Z</time>
   </trkpt>
   <trkpt lat="-3.0996040" lon="37.3374370">
    <ele>4185.8</ele>
    <time>2026-06-22T07:03:03Z</time>
   </trkpt>
   <trkpt lat="-3.0996030" lon="37.3374360">
    <ele>4185.8</ele>
    <time>2026-06-22T07:03:04Z</time>
   </trkpt>
   <trkpt lat="-3.0996030" lon="37.3374360">
    <ele>4185.8</ele>
    <time>2026-06-22T07:03:05Z</time>
   </trkpt>
   <trkpt lat="-3.0996040" lon="37.3374380">
    <ele>4185.8</ele>
    <time>2026-06-22T07:03:06Z</time>
   </trkpt>
   <trkpt lat="-3.0996040" lon="37.3374390">
    <ele>4185.8</ele>
    <time>2026-06-22T07:03:07Z</time>
   </trkpt>
   <trkpt lat="-3.0996020" lon="37.3374400">
    <ele>4185.7</ele>
    <time>2026-06-22T07:03:08Z</time>
   </trkpt>
   <trkpt lat="-3.0996030" lon="37.3374400">
    <ele>4185.7</ele>
    <time>2026-06-22T07:03:09Z</time>
   </trkpt>
   <trkpt lat="-3.0996030" lon="37.3374400">
    <ele>4185.7</ele>
    <time>2026-06-22T07:03:10Z</time>
   </trkpt>
   <trkpt lat="-3.0996020" lon="37.3374410">
    <ele>4185.7</ele>
    <time>2026-06-22T07:03:11Z</time>
   </trkpt>
   <trkpt lat="-3.0996010" lon="37.3374420">
    <ele>4185.7</ele>
    <time>2026-06-22T07:03:12Z</time>
   </trkpt>
   <trkpt lat="-3.0996010" lon="37.3374430">
    <ele>4185.6</ele>
    <time>2026-06-22T07:03:13Z</time>
   </trkpt>
   <trkpt lat="-3.0996010" lon="37.3374420">
    <ele>4185.6</ele>
    <time>2026-06-22T07:03:14Z</time>
   </trkpt>
   <trkpt lat="-3.0996020" lon="37.3374420">
    <ele>4185.6</ele>
    <time>2026-06-22T07:03:15Z</time>
   </trkpt>
   <trkpt lat="-3.0996030" lon="37.3374430">
    <ele>4185.6</ele>
    <time>2026-06-22T07:03:16Z</time>
   </trkpt>
   <trkpt lat="-3.0996020" lon="37.3374430">
    <ele>4185.6</ele>
    <time>2026-06-22T07:03:17Z</time>
   </trkpt>
   <trkpt lat="-3.0996030" lon="37.3374440">
    <ele>4185.5</ele>
    <time>2026-06-22T07:03:18Z</time>
   </trkpt>
   <trkpt lat="-3.0996030" lon="37.3374450">
    <ele>4185.5</ele>
    <time>2026-06-22T07:03:19Z</time>
   </trkpt>
   <trkpt lat="-3.0996040" lon="37.3374450">
    <ele>4185.5</ele>
    <time>2026-06-22T07:03:20Z</time>
   </trkpt>
   <trkpt lat="-3.0996070" lon="37.3374490">
    <ele>4185.4</ele>
    <time>2026-06-22T07:03:21Z</time>
   </trkpt>
   <trkpt lat="-3.0996060" lon="37.3374580">
    <ele>4185.2</ele>
    <time>2026-06-22T07:03:22Z</time>
   </trkpt>
   <trkpt lat="-3.0996090" lon="37.3374610">
    <ele>4185.2</ele>
    <time>2026-06-22T07:03:23Z</time>
   </trkpt>
   <trkpt lat="-3.0996160" lon="37.3374630">
    <ele>4185.0</ele>
    <time>2026-06-22T07:03:24Z</time>
   </trkpt>
   <trkpt lat="-3.0996200" lon="37.3374640">
    <ele>4185.0</ele>
    <time>2026-06-22T07:03:25Z</time>
   </trkpt>
   <trkpt lat="-3.0996240" lon="37.3374650">
    <ele>4184.9</ele>
    <time>2026-06-22T07:03:26Z</time>
   </trkpt>
   <trkpt lat="-3.0996300" lon="37.3374680">
    <ele>4184.8</ele>
    <time>2026-06-22T07:03:27Z</time>
   </trkpt>
   <trkpt lat="-3.0996340" lon="37.3374700">
    <ele>4184.7</ele>
    <time>2026-06-22T07:03:28Z</time>
   </trkpt>
   <trkpt lat="-3.0996380" lon="37.3374720">
    <ele>4184.6</ele>
    <time>2026-06-22T07:03:29Z</time>
   </trkpt>
   <trkpt lat="-3.0996430" lon="37.3374750">
    <ele>4184.5</ele>
    <time>2026-06-22T07:03:30Z</time>
   </trkpt>
   <trkpt lat="-3.0996490" lon="37.3374760">
    <ele>4184.4</ele>
    <time>2026-06-22T07:03:31Z</time>
   </trkpt>
   <trkpt lat="-3.0996500" lon="37.3374740">
    <ele>4184.3</ele>
    <time>2026-06-22T07:03:32Z</time>
   </trkpt>
   <trkpt lat="-3.0996550" lon="37.3374700">
    <ele>4184.2</ele>
    <time>2026-06-22T07:03:33Z</time>
   </trkpt>
   <trkpt lat="-3.0996600" lon="37.3374690">
    <ele>4184.1</ele>
    <time>2026-06-22T07:03:34Z</time>
   </trkpt>
   <trkpt lat="-3.0996650" lon="37.3374660">
    <ele>4184.0</ele>
    <time>2026-06-22T07:03:35Z</time>
   </trkpt>
   <trkpt lat="-3.0996710" lon="37.3374640">
    <ele>4183.9</ele>
    <time>2026-06-22T07:03:36Z</time>
   </trkpt>
   <trkpt lat="-3.0996740" lon="37.3374610">
    <ele>4183.8</ele>
    <time>2026-06-22T07:03:37Z</time>
   </trkpt>
   <trkpt lat="-3.0996770" lon="37.3374590">
    <ele>4183.7</ele>
    <time>2026-06-22T07:03:38Z</time>
   </trkpt>
   <trkpt lat="-3.0996810" lon="37.3374560">
    <ele>4183.6</ele>
    <time>2026-06-22T07:03:39Z</time>
   </trkpt>
   <trkpt lat="-3.0996870" lon="37.3374540">
    <ele>4183.5</ele>
    <time>2026-06-22T07:03:40Z</time>
   </trkpt>
   <trkpt lat="-3.0996930" lon="37.3374520">
    <ele>4183.4</ele>
    <time>2026-06-22T07:03:41Z</time>
   </trkpt>
   <trkpt lat="-3.0996990" lon="37.3374500">
    <ele>4183.2</ele>
    <time>2026-06-22T07:03:42Z</time>
   </trkpt>
   <trkpt lat="-3.0997050" lon="37.3374500">
    <ele>4183.1</ele>
    <time>2026-06-22T07:03:43Z</time>
   </trkpt>
   <trkpt lat="-3.0997100" lon="37.3374490">
    <ele>4183.0</ele>
    <time>2026-06-22T07:03:44Z</time>
   </trkpt>
   <trkpt lat="-3.0997160" lon="37.3374480">
    <ele>4182.9</ele>
    <time>2026-06-22T07:03:45Z</time>
   </trkpt>
   <trkpt lat="-3.0997190" lon="37.3374530">
    <ele>4182.8</ele>
    <time>2026-06-22T07:03:46Z</time>
   </trkpt>
   <trkpt lat="-3.0997250" lon="37.3374600">
    <ele>4182.6</ele>
    <time>2026-06-22T07:03:47Z</time>
   </trkpt>
   <trkpt lat="-3.0997300" lon="37.3374690">
    <ele>4182.4</ele>
    <time>2026-06-22T07:03:48Z</time>
   </trkpt>
   <trkpt lat="-3.0997390" lon="37.3374710">
    <ele>4182.2</ele>
    <time>2026-06-22T07:03:49Z</time>
   </trkpt>
   <trkpt lat="-3.0997520" lon="37.3374740">
    <ele>4181.9</ele>
    <time>2026-06-22T07:03:50Z</time>
   </trkpt>
   <trkpt lat="-3.0997560" lon="37.3374710">
    <ele>4181.8</ele>
    <time>2026-06-22T07:03:51Z</time>
   </trkpt>
   <trkpt lat="-3.0997630" lon="37.3374700">
    <ele>4181.7</ele>
    <time>2026-06-22T07:03:52Z</time>
   </trkpt>
   <trkpt lat="-3.0997670" lon="37.3374720">
    <ele>4181.6</ele>
    <time>2026-06-22T07:03:53Z</time>
   </trkpt>
   <trkpt lat="-3.0997770" lon="37.3374730">
    <ele>4181.4</ele>
    <time>2026-06-22T07:03:54Z</time>
   </trkpt>
   <trkpt lat="-3.0997830" lon="37.3374740">
    <ele>4181.3</ele>
    <time>2026-06-22T07:03:55Z</time>
   </trkpt>
   <trkpt lat="-3.0997870" lon="37.3374720">
    <ele>4181.2</ele>
    <time>2026-06-22T07:03:56Z</time>
   </trkpt>
   <trkpt lat="-3.0997920" lon="37.3374700">
    <ele>4181.1</ele>
    <time>2026-06-22T07:03:57Z</time>
   </trkpt>
   <trkpt lat="-3.0997970" lon="37.3374690">
    <ele>4181.0</ele>
    <time>2026-06-22T07:03:58Z</time>
   </trkpt>
   <trkpt lat="-3.0998020" lon="37.3374710">
    <ele>4180.8</ele>
    <time>2026-06-22T07:03:59Z</time>
   </trkpt>
   <trkpt lat="-3.0998120" lon="37.3374750">
    <ele>4180.6</ele>
    <time>2026-06-22T07:04:00Z</time>
   </trkpt>
   <trkpt lat="-3.0998160" lon="37.3374760">
    <ele>4180.5</ele>
    <time>2026-06-22T07:04:01Z</time>
   </trkpt>
   <trkpt lat="-3.0998200" lon="37.3374760">
    <ele>4180.5</ele>
    <time>2026-06-22T07:04:02Z</time>
   </trkpt>
   <trkpt lat="-3.0998240" lon="37.3374750">
    <ele>4180.4</ele>
    <time>2026-06-22T07:04:03Z</time>
   </trkpt>
   <trkpt lat="-3.0998270" lon="37.3374750">
    <ele>4180.3</ele>
    <time>2026-06-22T07:04:04Z</time>
   </trkpt>
   <trkpt lat="-3.0998280" lon="37.3374760">
    <ele>4180.3</ele>
    <time>2026-06-22T07:04:05Z</time>
   </trkpt>
   <trkpt lat="-3.0998300" lon="37.3374790">
    <ele>4180.2</ele>
    <time>2026-06-22T07:04:06Z</time>
   </trkpt>
   <trkpt lat="-3.0998320" lon="37.3374810">
    <ele>4180.2</ele>
    <time>2026-06-22T07:04:07Z</time>
   </trkpt>
   <trkpt lat="-3.0998340" lon="37.3374830">
    <ele>4180.1</ele>
    <time>2026-06-22T07:04:08Z</time>
   </trkpt>
   <trkpt lat="-3.0998380" lon="37.3374820">
    <ele>4180.0</ele>
    <time>2026-06-22T07:04:09Z</time>
   </trkpt>
   <trkpt lat="-3.0998390" lon="37.3374800">
    <ele>4180.0</ele>
    <time>2026-06-22T07:04:10Z</time>
   </trkpt>
   <trkpt lat="-3.0998460" lon="37.3374720">
    <ele>4179.8</ele>
    <time>2026-06-22T07:04:11Z</time>
   </trkpt>
   <trkpt lat="-3.0998510" lon="37.3374710">
    <ele>4179.6</ele>
    <time>2026-06-22T07:04:12Z</time>
   </trkpt>
   <trkpt lat="-3.0998600" lon="37.3374740">
    <ele>4179.5</ele>
    <time>2026-06-22T07:04:13Z</time>
   </trkpt>
   <trkpt lat="-3.0998640" lon="37.3374840">
    <ele>4179.2</ele>
    <time>2026-06-22T07:04:14Z</time>
   </trkpt>
   <trkpt lat="-3.0998700" lon="37.3374920">
    <ele>4179.0</ele>
    <time>2026-06-22T07:04:15Z</time>
   </trkpt>
   <trkpt lat="-3.0998760" lon="37.3374970">
    <ele>4178.9</ele>
    <time>2026-06-22T07:04:16Z</time>
   </trkpt>
   <trkpt lat="-3.0998810" lon="37.3375000">
    <ele>4178.8</ele>
    <time>2026-06-22T07:04:17Z</time>
   </trkpt>
   <trkpt lat="-3.0998890" lon="37.3375010">
    <ele>4178.6</ele>
    <time>2026-06-22T07:04:18Z</time>
   </trkpt>
   <trkpt lat="-3.0998990" lon="37.3375030">
    <ele>4178.4</ele>
    <time>2026-06-22T07:04:19Z</time>
   </trkpt>
   <trkpt lat="-3.0999050" lon="37.3375010">
    <ele>4178.3</ele>
    <time>2026-06-22T07:04:20Z</time>
   </trkpt>
   <trkpt lat="-3.0999100" lon="37.3374980">
    <ele>4178.1</ele>
    <time>2026-06-22T07:04:21Z</time>
   </trkpt>
   <trkpt lat="-3.0999150" lon="37.3375000">
    <ele>4178.0</ele>
    <time>2026-06-22T07:04:22Z</time>
   </trkpt>
   <trkpt lat="-3.0999240" lon="37.3375020">
    <ele>4177.8</ele>
    <time>2026-06-22T07:04:23Z</time>
   </trkpt>
   <trkpt lat="-3.0999350" lon="37.3375040">
    <ele>4177.6</ele>
    <time>2026-06-22T07:04:24Z</time>
   </trkpt>
   <trkpt lat="-3.0999380" lon="37.3375030">
    <ele>4177.6</ele>
    <time>2026-06-22T07:04:25Z</time>
   </trkpt>
   <trkpt lat="-3.0999410" lon="37.3375020">
    <ele>4177.5</ele>
    <time>2026-06-22T07:04:26Z</time>
   </trkpt>
   <trkpt lat="-3.0999480" lon="37.3375020">
    <ele>4177.3</ele>
    <time>2026-06-22T07:04:27Z</time>
   </trkpt>
   <trkpt lat="-3.0999530" lon="37.3375010">
    <ele>4177.2</ele>
    <time>2026-06-22T07:04:28Z</time>
   </trkpt>
   <trkpt lat="-3.0999580" lon="37.3374990">
    <ele>4177.1</ele>
    <time>2026-06-22T07:04:29Z</time>
   </trkpt>
   <trkpt lat="-3.0999600" lon="37.3375060">
    <ele>4177.0</ele>
    <time>2026-06-22T07:04:30Z</time>
   </trkpt>
   <trkpt lat="-3.0999660" lon="37.3375180">
    <ele>4176.7</ele>
    <time>2026-06-22T07:04:31Z</time>
   </trkpt>
   <trkpt lat="-3.0999740" lon="37.3375270">
    <ele>4176.5</ele>
    <time>2026-06-22T07:04:33Z</time>
   </trkpt>
   <trkpt lat="-3.0999850" lon="37.3375270">
    <ele>4176.2</ele>
    <time>2026-06-22T07:04:34Z</time>
   </trkpt>
   <trkpt lat="-3.0999910" lon="37.3375220">
    <ele>4176.1</ele>
    <time>2026-06-22T07:04:35Z</time>
   </trkpt>
   <trkpt lat="-3.1000000" lon="37.3375230">
    <ele>4175.9</ele>
    <time>2026-06-22T07:04:36Z</time>
   </trkpt>
   <trkpt lat="-3.1000060" lon="37.3375300">
    <ele>4175.7</ele>
    <time>2026-06-22T07:04:37Z</time>
   </trkpt>
   <trkpt lat="-3.1000140" lon="37.3375390">
    <ele>4175.5</ele>
    <time>2026-06-22T07:04:38Z</time>
   </trkpt>
   <trkpt lat="-3.1000200" lon="37.3375490">
    <ele>4175.2</ele>
    <time>2026-06-22T07:04:39Z</time>
   </trkpt>
   <trkpt lat="-3.1000250" lon="37.3375560">
    <ele>4175.1</ele>
    <time>2026-06-22T07:04:40Z</time>
   </trkpt>
   <trkpt lat="-3.1000270" lon="37.3375640">
    <ele>4174.9</ele>
    <time>2026-06-22T07:04:41Z</time>
   </trkpt>
   <trkpt lat="-3.1000300" lon="37.3375710">
    <ele>4174.7</ele>
    <time>2026-06-22T07:04:42Z</time>
   </trkpt>
   <trkpt lat="-3.1000330" lon="37.3375740">
    <ele>4174.7</ele>
    <time>2026-06-22T07:04:43Z</time>
   </trkpt>
   <trkpt lat="-3.1000370" lon="37.3375760">
    <ele>4174.6</ele>
    <time>2026-06-22T07:04:44Z</time>
   </trkpt>
   <trkpt lat="-3.1000420" lon="37.3375810">
    <ele>4174.4</ele>
    <time>2026-06-22T07:04:45Z</time>
   </trkpt>
   <trkpt lat="-3.1000470" lon="37.3375880">
    <ele>4174.2</ele>
    <time>2026-06-22T07:04:46Z</time>
   </trkpt>
   <trkpt lat="-3.1000500" lon="37.3375970">
    <ele>4174.0</ele>
    <time>2026-06-22T07:04:47Z</time>
   </trkpt>
   <trkpt lat="-3.1000480" lon="37.3376070">
    <ele>4173.8</ele>
    <time>2026-06-22T07:04:48Z</time>
   </trkpt>
   <trkpt lat="-3.1000430" lon="37.3376120">
    <ele>4173.7</ele>
    <time>2026-06-22T07:04:49Z</time>
   </trkpt>
   <trkpt lat="-3.1000410" lon="37.3376180">
    <ele>4173.6</ele>
    <time>2026-06-22T07:04:50Z</time>
   </trkpt>
   <trkpt lat="-3.1000390" lon="37.3376260">
    <ele>4173.4</ele>
    <time>2026-06-22T07:04:51Z</time>
   </trkpt>
   <trkpt lat="-3.1000380" lon="37.3376330">
    <ele>4173.2</ele>
    <time>2026-06-22T07:04:52Z</time>
   </trkpt>
   <trkpt lat="-3.1000360" lon="37.3376390">
    <ele>4173.1</ele>
    <time>2026-06-22T07:04:53Z</time>
   </trkpt>
   <trkpt lat="-3.1000360" lon="37.3376430">
    <ele>4173.0</ele>
    <time>2026-06-22T07:04:54Z</time>
   </trkpt>
   <trkpt lat="-3.1000390" lon="37.3376470">
    <ele>4172.9</ele>
    <time>2026-06-22T07:04:55Z</time>
   </trkpt>
   <trkpt lat="-3.1000410" lon="37.3376530">
    <ele>4172.8</ele>
    <time>2026-06-22T07:04:56Z</time>
   </trkpt>
   <trkpt lat="-3.1000460" lon="37.3376570">
    <ele>4172.6</ele>
    <time>2026-06-22T07:04:57Z</time>
   </trkpt>
   <trkpt lat="-3.1000550" lon="37.3376630">
    <ele>4172.4</ele>
    <time>2026-06-22T07:04:58Z</time>
   </trkpt>
   <trkpt lat="-3.1000580" lon="37.3376670">
    <ele>4172.3</ele>
    <time>2026-06-22T07:04:59Z</time>
   </trkpt>
   <trkpt lat="-3.1000550" lon="37.3376630">
    <ele>4172.2</ele>
    <time>2026-06-22T07:05:00Z</time>
   </trkpt>
   <trkpt lat="-3.1000530" lon="37.3376620">
    <ele>4172.2</ele>
    <time>2026-06-22T07:05:01Z</time>
   </trkpt>
   <trkpt lat="-3.1000520" lon="37.3376610">
    <ele>4172.1</ele>
    <time>2026-06-22T07:05:02Z</time>
   </trkpt>
   <trkpt lat="-3.1000520" lon="37.3376610">
    <ele>4172.1</ele>
    <time>2026-06-22T07:05:03Z</time>
   </trkpt>
   <trkpt lat="-3.1000520" lon="37.3376610">
    <ele>4172.1</ele>
    <time>2026-06-22T07:05:04Z</time>
   </trkpt>
   <trkpt lat="-3.1000500" lon="37.3376620">
    <ele>4172.1</ele>
    <time>2026-06-22T07:05:05Z</time>
   </trkpt>
   <trkpt lat="-3.1000500" lon="37.3376620">
    <ele>4172.1</ele>
    <time>2026-06-22T07:05:06Z</time>
   </trkpt>
   <trkpt lat="-3.1000510" lon="37.3376620">
    <ele>4172.1</ele>
    <time>2026-06-22T07:05:07Z</time>
   </trkpt>
   <trkpt lat="-3.1000520" lon="37.3376630">
    <ele>4172.0</ele>
    <time>2026-06-22T07:05:08Z</time>
   </trkpt>
   <trkpt lat="-3.1000510" lon="37.3376630">
    <ele>4172.0</ele>
    <time>2026-06-22T07:05:09Z</time>
   </trkpt>
   <trkpt lat="-3.1000510" lon="37.3376640">
    <ele>4172.0</ele>
    <time>2026-06-22T07:05:10Z</time>
   </trkpt>
   <trkpt lat="-3.1000500" lon="37.3376660">
    <ele>4171.9</ele>
    <time>2026-06-22T07:05:11Z</time>
   </trkpt>
   <trkpt lat="-3.1000490" lon="37.3376670">
    <ele>4171.9</ele>
    <time>2026-06-22T07:05:12Z</time>
   </trkpt>
   <trkpt lat="-3.1000460" lon="37.3376710">
    <ele>4171.8</ele>
    <time>2026-06-22T07:05:13Z</time>
   </trkpt>
   <trkpt lat="-3.1000430" lon="37.3376740">
    <ele>4171.7</ele>
    <time>2026-06-22T07:05:14Z</time>
   </trkpt>
   <trkpt lat="-3.1000400" lon="37.3376740">
    <ele>4171.7</ele>
    <time>2026-06-22T07:05:15Z</time>
   </trkpt>
   <trkpt lat="-3.1000360" lon="37.3376800">
    <ele>4171.5</ele>
    <time>2026-06-22T07:05:16Z</time>
   </trkpt>
   <trkpt lat="-3.1000330" lon="37.3376800">
    <ele>4171.4</ele>
    <time>2026-06-22T07:05:17Z</time>
   </trkpt>
   <trkpt lat="-3.1000260" lon="37.3376780">
    <ele>4171.3</ele>
    <time>2026-06-22T07:05:18Z</time>
   </trkpt>
   <trkpt lat="-3.1000200" lon="37.3376750">
    <ele>4171.2</ele>
    <time>2026-06-22T07:05:19Z</time>
   </trkpt>
   <trkpt lat="-3.1000140" lon="37.3376740">
    <ele>4171.0</ele>
    <time>2026-06-22T07:05:20Z</time>
   </trkpt>
   <trkpt lat="-3.1000090" lon="37.3376740">
    <ele>4170.9</ele>
    <time>2026-06-22T07:05:21Z</time>
   </trkpt>
   <trkpt lat="-3.0999960" lon="37.3376840">
    <ele>4170.6</ele>
    <time>2026-06-22T07:05:22Z</time>
   </trkpt>
   <trkpt lat="-3.0999860" lon="37.3376910">
    <ele>4170.3</ele>
    <time>2026-06-22T07:05:23Z</time>
   </trkpt>
   <trkpt lat="-3.0999740" lon="37.3376940">
    <ele>4170.1</ele>
    <time>2026-06-22T07:05:24Z</time>
   </trkpt>
   <trkpt lat="-3.0999690" lon="37.3376840">
    <ele>4169.8</ele>
    <time>2026-06-22T07:05:25Z</time>
   </trkpt>
   <trkpt lat="-3.0999650" lon="37.3376760">
    <ele>4169.6</ele>
    <time>2026-06-22T07:05:26Z</time>
   </trkpt>
   <trkpt lat="-3.0999640" lon="37.3376720">
    <ele>4169.6</ele>
    <time>2026-06-22T07:05:27Z</time>
   </trkpt>
   <trkpt lat="-3.0999570" lon="37.3376700">
    <ele>4169.4</ele>
    <time>2026-06-22T07:05:28Z</time>
   </trkpt>
   <trkpt lat="-3.0999570" lon="37.3376700">
    <ele>4169.4</ele>
    <time>2026-06-22T07:05:29Z</time>
   </trkpt>
   <trkpt lat="-3.0999580" lon="37.3376700">
    <ele>4169.4</ele>
    <time>2026-06-22T07:05:30Z</time>
   </trkpt>
   <trkpt lat="-3.0999490" lon="37.3376680">
    <ele>4169.2</ele>
    <time>2026-06-22T07:05:31Z</time>
   </trkpt>
   <trkpt lat="-3.0999450" lon="37.3376660">
    <ele>4169.1</ele>
    <time>2026-06-22T07:05:32Z</time>
   </trkpt>
   <trkpt lat="-3.0999420" lon="37.3376670">
    <ele>4169.0</ele>
    <time>2026-06-22T07:05:33Z</time>
   </trkpt>
   <trkpt lat="-3.0999420" lon="37.3376680">
    <ele>4169.0</ele>
    <time>2026-06-22T07:05:34Z</time>
   </trkpt>
   <trkpt lat="-3.0999400" lon="37.3376670">
    <ele>4168.9</ele>
    <time>2026-06-22T07:05:35Z</time>
   </trkpt>
   <trkpt lat="-3.0999290" lon="37.3376660">
    <ele>4168.7</ele>
    <time>2026-06-22T07:05:36Z</time>
   </trkpt>
   <trkpt lat="-3.0999270" lon="37.3376620">
    <ele>4168.6</ele>
    <time>2026-06-22T07:05:37Z</time>
   </trkpt>
   <trkpt lat="-3.0999260" lon="37.3376640">
    <ele>4168.6</ele>
    <time>2026-06-22T07:05:38Z</time>
   </trkpt>
   <trkpt lat="-3.0999200" lon="37.3376630">
    <ele>4168.4</ele>
    <time>2026-06-22T07:05:39Z</time>
   </trkpt>
   <trkpt lat="-3.0999170" lon="37.3376630">
    <ele>4168.4</ele>
    <time>2026-06-22T07:05:40Z</time>
   </trkpt>
   <trkpt lat="-3.0999150" lon="37.3376600">
    <ele>4168.3</ele>
    <time>2026-06-22T07:05:41Z</time>
   </trkpt>
   <trkpt lat="-3.0999120" lon="37.3376610">
    <ele>4168.2</ele>
    <time>2026-06-22T07:05:42Z</time>
   </trkpt>
   <trkpt lat="-3.0999110" lon="37.3376640">
    <ele>4168.2</ele>
    <time>2026-06-22T07:05:43Z</time>
   </trkpt>
   <trkpt lat="-3.0999090" lon="37.3376640">
    <ele>4168.1</ele>
    <time>2026-06-22T07:05:44Z</time>
   </trkpt>
   <trkpt lat="-3.0999070" lon="37.3376660">
    <ele>4168.1</ele>
    <time>2026-06-22T07:05:45Z</time>
   </trkpt>
   <trkpt lat="-3.0999070" lon="37.3376660">
    <ele>4168.1</ele>
    <time>2026-06-22T07:05:46Z</time>
   </trkpt>
   <trkpt lat="-3.0999080" lon="37.3376700">
    <ele>4168.0</ele>
    <time>2026-06-22T07:05:47Z</time>
   </trkpt>
   <trkpt lat="-3.0999060" lon="37.3376710">
    <ele>4167.9</ele>
    <time>2026-06-22T07:05:48Z</time>
   </trkpt>
   <trkpt lat="-3.0999020" lon="37.3376720">
    <ele>4167.8</ele>
    <time>2026-06-22T07:05:49Z</time>
   </trkpt>
   <trkpt lat="-3.0999030" lon="37.3376740">
    <ele>4167.8</ele>
    <time>2026-06-22T07:05:50Z</time>
   </trkpt>
   <trkpt lat="-3.0999020" lon="37.3376780">
    <ele>4167.7</ele>
    <time>2026-06-22T07:05:51Z</time>
   </trkpt>
   <trkpt lat="-3.0998980" lon="37.3376800">
    <ele>4167.6</ele>
    <time>2026-06-22T07:05:52Z</time>
   </trkpt>
   <trkpt lat="-3.0998950" lon="37.3376820">
    <ele>4167.5</ele>
    <time>2026-06-22T07:05:53Z</time>
   </trkpt>
   <trkpt lat="-3.0998910" lon="37.3376850">
    <ele>4167.4</ele>
    <time>2026-06-22T07:05:54Z</time>
   </trkpt>
   <trkpt lat="-3.0998900" lon="37.3376850">
    <ele>4167.4</ele>
    <time>2026-06-22T07:05:55Z</time>
   </trkpt>
   <trkpt lat="-3.0998930" lon="37.3376870">
    <ele>4167.3</ele>
    <time>2026-06-22T07:05:56Z</time>
   </trkpt>
   <trkpt lat="-3.0998950" lon="37.3376930">
    <ele>4167.2</ele>
    <time>2026-06-22T07:05:57Z</time>
   </trkpt>
   <trkpt lat="-3.0998970" lon="37.3376930">
    <ele>4167.1</ele>
    <time>2026-06-22T07:05:58Z</time>
   </trkpt>
   <trkpt lat="-3.0999000" lon="37.3376940">
    <ele>4167.1</ele>
    <time>2026-06-22T07:05:59Z</time>
   </trkpt>
   <trkpt lat="-3.0999060" lon="37.3376960">
    <ele>4166.9</ele>
    <time>2026-06-22T07:06:00Z</time>
   </trkpt>
   <trkpt lat="-3.0999110" lon="37.3377020">
    <ele>4166.8</ele>
    <time>2026-06-22T07:06:01Z</time>
   </trkpt>
   <trkpt lat="-3.0999100" lon="37.3377080">
    <ele>4166.6</ele>
    <time>2026-06-22T07:06:02Z</time>
   </trkpt>
   <trkpt lat="-3.0999130" lon="37.3377110">
    <ele>4166.6</ele>
    <time>2026-06-22T07:06:03Z</time>
   </trkpt>
   <trkpt lat="-3.0999100" lon="37.3377160">
    <ele>4166.4</ele>
    <time>2026-06-22T07:06:04Z</time>
   </trkpt>
   <trkpt lat="-3.0999090" lon="37.3377210">
    <ele>4166.3</ele>
    <time>2026-06-22T07:06:05Z</time>
   </trkpt>
   <trkpt lat="-3.0999050" lon="37.3377230">
    <ele>4166.2</ele>
    <time>2026-06-22T07:06:06Z</time>
   </trkpt>
   <trkpt lat="-3.0999010" lon="37.3377260">
    <ele>4166.1</ele>
    <time>2026-06-22T07:06:07Z</time>
   </trkpt>
   <trkpt lat="-3.0998970" lon="37.3377250">
    <ele>4166.0</ele>
    <time>2026-06-22T07:06:08Z</time>
   </trkpt>
   <trkpt lat="-3.0998920" lon="37.3377280">
    <ele>4165.9</ele>
    <time>2026-06-22T07:06:09Z</time>
   </trkpt>
   <trkpt lat="-3.0998910" lon="37.3377300">
    <ele>4165.9</ele>
    <time>2026-06-22T07:06:10Z</time>
   </trkpt>
   <trkpt lat="-3.0998900" lon="37.3377340">
    <ele>4165.8</ele>
    <time>2026-06-22T07:06:11Z</time>
   </trkpt>
   <trkpt lat="-3.0998940" lon="37.3377360">
    <ele>4165.7</ele>
    <time>2026-06-22T07:06:12Z</time>
   </trkpt>
   <trkpt lat="-3.0998990" lon="37.3377380">
    <ele>4165.6</ele>
    <time>2026-06-22T07:06:13Z</time>
   </trkpt>
   <trkpt lat="-3.0999010" lon="37.3377440">
    <ele>4165.4</ele>
    <time>2026-06-22T07:06:14Z</time>
   </trkpt>
   <trkpt lat="-3.0999020" lon="37.3377450">
    <ele>4165.4</ele>
    <time>2026-06-22T07:06:15Z</time>
   </trkpt>
   <trkpt lat="-3.0999030" lon="37.3377450">
    <ele>4165.4</ele>
    <time>2026-06-22T07:06:16Z</time>
   </trkpt>
   <trkpt lat="-3.0999040" lon="37.3377450">
    <ele>4165.4</ele>
    <time>2026-06-22T07:06:17Z</time>
   </trkpt>
   <trkpt lat="-3.0999040" lon="37.3377450">
    <ele>4165.4</ele>
    <time>2026-06-22T07:06:18Z</time>
   </trkpt>
   <trkpt lat="-3.0999040" lon="37.3377450">
    <ele>4165.4</ele>
    <time>2026-06-22T07:06:19Z</time>
   </trkpt>
   <trkpt lat="-3.0999060" lon="37.3377500">
    <ele>4165.2</ele>
    <time>2026-06-22T07:06:20Z</time>
   </trkpt>
   <trkpt lat="-3.0999100" lon="37.3377560">
    <ele>4165.1</ele>
    <time>2026-06-22T07:06:21Z</time>
   </trkpt>
   <trkpt lat="-3.0999090" lon="37.3377550">
    <ele>4165.1</ele>
    <time>2026-06-22T07:06:22Z</time>
   </trkpt>
   <trkpt lat="-3.0999110" lon="37.3377620">
    <ele>4164.9</ele>
    <time>2026-06-22T07:06:23Z</time>
   </trkpt>
   <trkpt lat="-3.0999090" lon="37.3377700">
    <ele>4164.7</ele>
    <time>2026-06-22T07:06:24Z</time>
   </trkpt>
   <trkpt lat="-3.0999090" lon="37.3377730">
    <ele>4164.7</ele>
    <time>2026-06-22T07:06:25Z</time>
   </trkpt>
   <trkpt lat="-3.0999100" lon="37.3377730">
    <ele>4164.6</ele>
    <time>2026-06-22T07:06:26Z</time>
   </trkpt>
   <trkpt lat="-3.0999140" lon="37.3377810">
    <ele>4164.5</ele>
    <time>2026-06-22T07:06:27Z</time>
   </trkpt>
   <trkpt lat="-3.0999180" lon="37.3377860">
    <ele>4164.3</ele>
    <time>2026-06-22T07:06:28Z</time>
   </trkpt>
   <trkpt lat="-3.0999210" lon="37.3377850">
    <ele>4164.2</ele>
    <time>2026-06-22T07:06:29Z</time>
   </trkpt>
   <trkpt lat="-3.0999260" lon="37.3377880">
    <ele>4164.1</ele>
    <time>2026-06-22T07:06:30Z</time>
   </trkpt>
   <trkpt lat="-3.0999300" lon="37.3377880">
    <ele>4164.0</ele>
    <time>2026-06-22T07:06:31Z</time>
   </trkpt>
   <trkpt lat="-3.0999340" lon="37.3377890">
    <ele>4164.0</ele>
    <time>2026-06-22T07:06:32Z</time>
   </trkpt>
   <trkpt lat="-3.0999410" lon="37.3377890">
    <ele>4163.8</ele>
    <time>2026-06-22T07:06:33Z</time>
   </trkpt>
   <trkpt lat="-3.0999450" lon="37.3377880">
    <ele>4163.7</ele>
    <time>2026-06-22T07:06:34Z</time>
   </trkpt>
   <trkpt lat="-3.0999480" lon="37.3377890">
    <ele>4163.6</ele>
    <time>2026-06-22T07:06:35Z</time>
   </trkpt>
   <trkpt lat="-3.0999480" lon="37.3377910">
    <ele>4163.6</ele>
    <time>2026-06-22T07:06:36Z</time>
   </trkpt>
   <trkpt lat="-3.0999490" lon="37.3377930">
    <ele>4163.6</ele>
    <time>2026-06-22T07:06:37Z</time>
   </trkpt>
   <trkpt lat="-3.0999490" lon="37.3377960">
    <ele>4163.5</ele>
    <time>2026-06-22T07:06:39Z</time>
   </trkpt>
   <trkpt lat="-3.0999500" lon="37.3377980">
    <ele>4163.4</ele>
    <time>2026-06-22T07:06:40Z</time>
   </trkpt>
   <trkpt lat="-3.0999460" lon="37.3377980">
    <ele>4163.4</ele>
    <time>2026-06-22T07:06:41Z</time>
   </trkpt>
   <trkpt lat="-3.0999500" lon="37.3378010">
    <ele>4163.3</ele>
    <time>2026-06-22T07:06:42Z</time>
   </trkpt>
   <trkpt lat="-3.0999500" lon="37.3378040">
    <ele>4163.2</ele>
    <time>2026-06-22T07:06:43Z</time>
   </trkpt>
   <trkpt lat="-3.0999520" lon="37.3378070">
    <ele>4163.1</ele>
    <time>2026-06-22T07:06:44Z</time>
   </trkpt>
   <trkpt lat="-3.0999510" lon="37.3378060">
    <ele>4163.1</ele>
    <time>2026-06-22T07:06:45Z</time>
   </trkpt>
   <trkpt lat="-3.0999590" lon="37.3378130">
    <ele>4162.8</ele>
    <time>2026-06-22T07:06:46Z</time>
   </trkpt>
   <trkpt lat="-3.0999580" lon="37.3378170">
    <ele>4162.8</ele>
    <time>2026-06-22T07:06:47Z</time>
   </trkpt>
   <trkpt lat="-3.0999560" lon="37.3378250">
    <ele>4162.6</ele>
    <time>2026-06-22T07:06:48Z</time>
   </trkpt>
   <trkpt lat="-3.0999510" lon="37.3378300">
    <ele>4162.4</ele>
    <time>2026-06-22T07:06:49Z</time>
   </trkpt>
   <trkpt lat="-3.0999460" lon="37.3378350">
    <ele>4162.3</ele>
    <time>2026-06-22T07:06:50Z</time>
   </trkpt>
   <trkpt lat="-3.0999410" lon="37.3378390">
    <ele>4162.1</ele>
    <time>2026-06-22T07:06:51Z</time>
   </trkpt>
   <trkpt lat="-3.0999360" lon="37.3378380">
    <ele>4162.0</ele>
    <time>2026-06-22T07:06:52Z</time>
   </trkpt>
   <trkpt lat="-3.0999260" lon="37.3378380">
    <ele>4161.8</ele>
    <time>2026-06-22T07:06:53Z</time>
   </trkpt>
   <trkpt lat="-3.0999210" lon="37.3378370">
    <ele>4161.7</ele>
    <time>2026-06-22T07:06:54Z</time>
   </trkpt>
   <trkpt lat="-3.0999150" lon="37.3378400">
    <ele>4161.5</ele>
    <time>2026-06-22T07:06:55Z</time>
   </trkpt>
   <trkpt lat="-3.0999110" lon="37.3378450">
    <ele>4161.4</ele>
    <time>2026-06-22T07:06:56Z</time>
   </trkpt>
   <trkpt lat="-3.0999150" lon="37.3378500">
    <ele>4161.2</ele>
    <time>2026-06-22T07:06:57Z</time>
   </trkpt>
   <trkpt lat="-3.0999220" lon="37.3378550">
    <ele>4161.0</ele>
    <time>2026-06-22T07:06:58Z</time>
   </trkpt>
   <trkpt lat="-3.0999300" lon="37.3378580">
    <ele>4160.8</ele>
    <time>2026-06-22T07:06:59Z</time>
   </trkpt>
   <trkpt lat="-3.0999410" lon="37.3378650">
    <ele>4160.6</ele>
    <time>2026-06-22T07:07:00Z</time>
   </trkpt>
   <trkpt lat="-3.0999460" lon="37.3378640">
    <ele>4160.4</ele>
    <time>2026-06-22T07:07:01Z</time>
   </trkpt>
   <trkpt lat="-3.0999530" lon="37.3378670">
    <ele>4160.3</ele>
    <time>2026-06-22T07:07:02Z</time>
   </trkpt>
   <trkpt lat="-3.0999590" lon="37.3378690">
    <ele>4160.1</ele>
    <time>2026-06-22T07:07:03Z</time>
   </trkpt>
   <trkpt lat="-3.0999650" lon="37.3378720">
    <ele>4160.0</ele>
    <time>2026-06-22T07:07:04Z</time>
   </trkpt>
   <trkpt lat="-3.0999700" lon="37.3378750">
    <ele>4159.9</ele>
    <time>2026-06-22T07:07:05Z</time>
   </trkpt>
   <trkpt lat="-3.0999750" lon="37.3378770">
    <ele>4159.7</ele>
    <time>2026-06-22T07:07:06Z</time>
   </trkpt>
   <trkpt lat="-3.0999840" lon="37.3378830">
    <ele>4159.5</ele>
    <time>2026-06-22T07:07:07Z</time>
   </trkpt>
   <trkpt lat="-3.0999830" lon="37.3378870">
    <ele>4159.4</ele>
    <time>2026-06-22T07:07:08Z</time>
   </trkpt>
   <trkpt lat="-3.0999820" lon="37.3378900">
    <ele>4159.3</ele>
    <time>2026-06-22T07:07:09Z</time>
   </trkpt>
   <trkpt lat="-3.0999800" lon="37.3378950">
    <ele>4159.2</ele>
    <time>2026-06-22T07:07:10Z</time>
   </trkpt>
   <trkpt lat="-3.0999750" lon="37.3379000">
    <ele>4159.1</ele>
    <time>2026-06-22T07:07:11Z</time>
   </trkpt>
   <trkpt lat="-3.0999700" lon="37.3379020">
    <ele>4158.9</ele>
    <time>2026-06-22T07:07:12Z</time>
   </trkpt>
   <trkpt lat="-3.0999650" lon="37.3378970">
    <ele>4158.8</ele>
    <time>2026-06-22T07:07:13Z</time>
   </trkpt>
   <trkpt lat="-3.0999650" lon="37.3378960">
    <ele>4158.8</ele>
    <time>2026-06-22T07:07:14Z</time>
   </trkpt>
   <trkpt lat="-3.0999570" lon="37.3379000">
    <ele>4158.6</ele>
    <time>2026-06-22T07:07:15Z</time>
   </trkpt>
   <trkpt lat="-3.0999550" lon="37.3379030">
    <ele>4158.5</ele>
    <time>2026-06-22T07:07:16Z</time>
   </trkpt>
   <trkpt lat="-3.0999520" lon="37.3379060">
    <ele>4158.4</ele>
    <time>2026-06-22T07:07:17Z</time>
   </trkpt>
   <trkpt lat="-3.0999510" lon="37.3379090">
    <ele>4158.3</ele>
    <time>2026-06-22T07:07:18Z</time>
   </trkpt>
   <trkpt lat="-3.0999460" lon="37.3379140">
    <ele>4158.1</ele>
    <time>2026-06-22T07:07:19Z</time>
   </trkpt>
   <trkpt lat="-3.0999430" lon="37.3379220">
    <ele>4158.0</ele>
    <time>2026-06-22T07:07:20Z</time>
   </trkpt>
   <trkpt lat="-3.0999450" lon="37.3379290">
    <ele>4157.8</ele>
    <time>2026-06-22T07:07:21Z</time>
   </trkpt>
   <trkpt lat="-3.0999490" lon="37.3379320">
    <ele>4157.7</ele>
    <time>2026-06-22T07:07:22Z</time>
   </trkpt>
   <trkpt lat="-3.0999540" lon="37.3379340">
    <ele>4157.6</ele>
    <time>2026-06-22T07:07:23Z</time>
   </trkpt>
   <trkpt lat="-3.0999610" lon="37.3379370">
    <ele>4157.4</ele>
    <time>2026-06-22T07:07:24Z</time>
   </trkpt>
   <trkpt lat="-3.0999650" lon="37.3379380">
    <ele>4157.3</ele>
    <time>2026-06-22T07:07:25Z</time>
   </trkpt>
   <trkpt lat="-3.0999710" lon="37.3379400">
    <ele>4157.2</ele>
    <time>2026-06-22T07:07:26Z</time>
   </trkpt>
   <trkpt lat="-3.0999750" lon="37.3379440">
    <ele>4157.0</ele>
    <time>2026-06-22T07:07:27Z</time>
   </trkpt>
   <trkpt lat="-3.0999790" lon="37.3379470">
    <ele>4156.9</ele>
    <time>2026-06-22T07:07:28Z</time>
   </trkpt>
   <trkpt lat="-3.0999810" lon="37.3379530">
    <ele>4156.8</ele>
    <time>2026-06-22T07:07:29Z</time>
   </trkpt>
   <trkpt lat="-3.0999830" lon="37.3379580">
    <ele>4156.7</ele>
    <time>2026-06-22T07:07:30Z</time>
   </trkpt>
   <trkpt lat="-3.0999870" lon="37.3379630">
    <ele>4156.5</ele>
    <time>2026-06-22T07:07:31Z</time>
   </trkpt>
   <trkpt lat="-3.0999920" lon="37.3379670">
    <ele>4156.4</ele>
    <time>2026-06-22T07:07:32Z</time>
   </trkpt>
   <trkpt lat="-3.0999970" lon="37.3379730">
    <ele>4156.2</ele>
    <time>2026-06-22T07:07:33Z</time>
   </trkpt>
   <trkpt lat="-3.1000020" lon="37.3379760">
    <ele>4156.1</ele>
    <time>2026-06-22T07:07:34Z</time>
   </trkpt>
   <trkpt lat="-3.1000110" lon="37.3379800">
    <ele>4155.9</ele>
    <time>2026-06-22T07:07:35Z</time>
   </trkpt>
   <trkpt lat="-3.1000160" lon="37.3379820">
    <ele>4155.7</ele>
    <time>2026-06-22T07:07:36Z</time>
   </trkpt>
   <trkpt lat="-3.1000250" lon="37.3379850">
    <ele>4155.5</ele>
    <time>2026-06-22T07:07:37Z</time>
   </trkpt>
   <trkpt lat="-3.1000300" lon="37.3379860">
    <ele>4155.4</ele>
    <time>2026-06-22T07:07:38Z</time>
   </trkpt>
   <trkpt lat="-3.1000360" lon="37.3379870">
    <ele>4155.3</ele>
    <time>2026-06-22T07:07:39Z</time>
   </trkpt>
   <trkpt lat="-3.1000410" lon="37.3379870">
    <ele>4155.2</ele>
    <time>2026-06-22T07:07:40Z</time>
   </trkpt>
   <trkpt lat="-3.1000470" lon="37.3379890">
    <ele>4155.0</ele>
    <time>2026-06-22T07:07:41Z</time>
   </trkpt>
   <trkpt lat="-3.1000490" lon="37.3379910">
    <ele>4155.0</ele>
    <time>2026-06-22T07:07:42Z</time>
   </trkpt>
   <trkpt lat="-3.1000490" lon="37.3379960">
    <ele>4154.9</ele>
    <time>2026-06-22T07:07:43Z</time>
   </trkpt>
   <trkpt lat="-3.1000510" lon="37.3380020">
    <ele>4154.7</ele>
    <time>2026-06-22T07:07:44Z</time>
   </trkpt>
   <trkpt lat="-3.1000540" lon="37.3380060">
    <ele>4154.6</ele>
    <time>2026-06-22T07:07:45Z</time>
   </trkpt>
   <trkpt lat="-3.1000640" lon="37.3380120">
    <ele>4154.3</ele>
    <time>2026-06-22T07:07:46Z</time>
   </trkpt>
   <trkpt lat="-3.1000690" lon="37.3380130">
    <ele>4154.2</ele>
    <time>2026-06-22T07:07:47Z</time>
   </trkpt>
   <trkpt lat="-3.1000720" lon="37.3380140">
    <ele>4154.2</ele>
    <time>2026-06-22T07:07:48Z</time>
   </trkpt>
   <trkpt lat="-3.1000770" lon="37.3380160">
    <ele>4154.0</ele>
    <time>2026-06-22T07:07:49Z</time>
   </trkpt>
   <trkpt lat="-3.1000800" lon="37.3380180">
    <ele>4154.0</ele>
    <time>2026-06-22T07:07:50Z</time>
   </trkpt>
   <trkpt lat="-3.1000830" lon="37.3380210">
    <ele>4153.9</ele>
    <time>2026-06-22T07:07:51Z</time>
   </trkpt>
   <trkpt lat="-3.1000870" lon="37.3380230">
    <ele>4153.8</ele>
    <time>2026-06-22T07:07:52Z</time>
   </trkpt>
   <trkpt lat="-3.1000920" lon="37.3380260">
    <ele>4153.6</ele>
    <time>2026-06-22T07:07:53Z</time>
   </trkpt>
   <trkpt lat="-3.1000970" lon="37.3380300">
    <ele>4153.5</ele>
    <time>2026-06-22T07:07:54Z</time>
   </trkpt>
   <trkpt lat="-3.1001000" lon="37.3380300">
    <ele>4153.4</ele>
    <time>2026-06-22T07:07:55Z</time>
   </trkpt>
   <trkpt lat="-3.1001030" lon="37.3380330">
    <ele>4153.3</ele>
    <time>2026-06-22T07:07:56Z</time>
   </trkpt>
   <trkpt lat="-3.1001060" lon="37.3380380">
    <ele>4153.2</ele>
    <time>2026-06-22T07:07:57Z</time>
   </trkpt>
   <trkpt lat="-3.1001070" lon="37.3380440">
    <ele>4153.1</ele>
    <time>2026-06-22T07:07:58Z</time>
   </trkpt>
   <trkpt lat="-3.1001050" lon="37.3380500">
    <ele>4152.9</ele>
    <time>2026-06-22T07:07:59Z</time>
   </trkpt>
   <trkpt lat="-3.1001000" lon="37.3380540">
    <ele>4152.8</ele>
    <time>2026-06-22T07:08:00Z</time>
   </trkpt>
   <trkpt lat="-3.1000990" lon="37.3380560">
    <ele>4152.7</ele>
    <time>2026-06-22T07:08:01Z</time>
   </trkpt>
   <trkpt lat="-3.1000970" lon="37.3380590">
    <ele>4152.7</ele>
    <time>2026-06-22T07:08:02Z</time>
   </trkpt>
   <trkpt lat="-3.1000990" lon="37.3380610">
    <ele>4152.6</ele>
    <time>2026-06-22T07:08:03Z</time>
   </trkpt>
   <trkpt lat="-3.1001030" lon="37.3380660">
    <ele>4152.4</ele>
    <time>2026-06-22T07:08:04Z</time>
   </trkpt>
   <trkpt lat="-3.1001050" lon="37.3380690">
    <ele>4152.4</ele>
    <time>2026-06-22T07:08:05Z</time>
   </trkpt>
   <trkpt lat="-3.1001080" lon="37.3380710">
    <ele>4152.3</ele>
    <time>2026-06-22T07:08:06Z</time>
   </trkpt>
   <trkpt lat="-3.1001100" lon="37.3380730">
    <ele>4152.2</ele>
    <time>2026-06-22T07:08:07Z</time>
   </trkpt>
   <trkpt lat="-3.1001140" lon="37.3380780">
    <ele>4152.1</ele>
    <time>2026-06-22T07:08:08Z</time>
   </trkpt>
   <trkpt lat="-3.1001190" lon="37.3380800">
    <ele>4152.0</ele>
    <time>2026-06-22T07:08:09Z</time>
   </trkpt>
   <trkpt lat="-3.1001240" lon="37.3380830">
    <ele>4151.8</ele>
    <time>2026-06-22T07:08:10Z</time>
   </trkpt>
   <trkpt lat="-3.1001280" lon="37.3380870">
    <ele>4151.7</ele>
    <time>2026-06-22T07:08:11Z</time>
   </trkpt>
   <trkpt lat="-3.1001290" lon="37.3380930">
    <ele>4151.6</ele>
    <time>2026-06-22T07:08:12Z</time>
   </trkpt>
   <trkpt lat="-3.1001300" lon="37.3380980">
    <ele>4151.5</ele>
    <time>2026-06-22T07:08:13Z</time>
   </trkpt>
   <trkpt lat="-3.1001310" lon="37.3381030">
    <ele>4151.3</ele>
    <time>2026-06-22T07:08:14Z</time>
   </trkpt>
   <trkpt lat="-3.1001310" lon="37.3381080">
    <ele>4151.2</ele>
    <time>2026-06-22T07:08:15Z</time>
   </trkpt>
   <trkpt lat="-3.1001350" lon="37.3381090">
    <ele>4151.1</ele>
    <time>2026-06-22T07:08:16Z</time>
   </trkpt>
   <trkpt lat="-3.1001390" lon="37.3381140">
    <ele>4151.0</ele>
    <time>2026-06-22T07:08:17Z</time>
   </trkpt>
   <trkpt lat="-3.1001420" lon="37.3381180">
    <ele>4150.9</ele>
    <time>2026-06-22T07:08:18Z</time>
   </trkpt>
   <trkpt lat="-3.1001460" lon="37.3381200">
    <ele>4150.8</ele>
    <time>2026-06-22T07:08:19Z</time>
   </trkpt>
   <trkpt lat="-3.1001500" lon="37.3381250">
    <ele>4150.6</ele>
    <time>2026-06-22T07:08:20Z</time>
   </trkpt>
   <trkpt lat="-3.1001550" lon="37.3381300">
    <ele>4150.5</ele>
    <time>2026-06-22T07:08:21Z</time>
   </trkpt>
   <trkpt lat="-3.1001580" lon="37.3381330">
    <ele>4150.4</ele>
    <time>2026-06-22T07:08:22Z</time>
   </trkpt>
   <trkpt lat="-3.1001620" lon="37.3381370">
    <ele>4150.3</ele>
    <time>2026-06-22T07:08:23Z</time>
   </trkpt>
   <trkpt lat="-3.1001620" lon="37.3381420">
    <ele>4150.2</ele>
    <time>2026-06-22T07:08:24Z</time>
   </trkpt>
   <trkpt lat="-3.1001610" lon="37.3381500">
    <ele>4150.0</ele>
    <time>2026-06-22T07:08:25Z</time>
   </trkpt>
   <trkpt lat="-3.1001570" lon="37.3381560">
    <ele>4149.8</ele>
    <time>2026-06-22T07:08:26Z</time>
   </trkpt>
   <trkpt lat="-3.1001540" lon="37.3381600">
    <ele>4149.7</ele>
    <time>2026-06-22T07:08:27Z</time>
   </trkpt>
   <trkpt lat="-3.1001520" lon="37.3381660">
    <ele>4149.6</ele>
    <time>2026-06-22T07:08:28Z</time>
   </trkpt>
   <trkpt lat="-3.1001530" lon="37.3381730">
    <ele>4149.4</ele>
    <time>2026-06-22T07:08:29Z</time>
   </trkpt>
   <trkpt lat="-3.1001560" lon="37.3381750">
    <ele>4149.3</ele>
    <time>2026-06-22T07:08:30Z</time>
   </trkpt>
   <trkpt lat="-3.1001630" lon="37.3381780">
    <ele>4149.2</ele>
    <time>2026-06-22T07:08:31Z</time>
   </trkpt>
   <trkpt lat="-3.1001690" lon="37.3381810">
    <ele>4149.0</ele>
    <time>2026-06-22T07:08:32Z</time>
   </trkpt>
   <trkpt lat="-3.1001680" lon="37.3381820">
    <ele>4149.0</ele>
    <time>2026-06-22T07:08:33Z</time>
   </trkpt>
   <trkpt lat="-3.1001680" lon="37.3381850">
    <ele>4148.9</ele>
    <time>2026-06-22T07:08:34Z</time>
   </trkpt>
   <trkpt lat="-3.1001670" lon="37.3381890">
    <ele>4148.8</ele>
    <time>2026-06-22T07:08:35Z</time>
   </trkpt>
   <trkpt lat="-3.1001700" lon="37.3381960">
    <ele>4148.6</ele>
    <time>2026-06-22T07:08:36Z</time>
   </trkpt>
   <trkpt lat="-3.1001700" lon="37.3382050">
    <ele>4148.4</ele>
    <time>2026-06-22T07:08:37Z</time>
   </trkpt>
   <trkpt lat="-3.1001730" lon="37.3382110">
    <ele>4148.3</ele>
    <time>2026-06-22T07:08:38Z</time>
   </trkpt>
   <trkpt lat="-3.1001760" lon="37.3382150">
    <ele>4148.2</ele>
    <time>2026-06-22T07:08:39Z</time>
   </trkpt>
   <trkpt lat="-3.1001830" lon="37.3382220">
    <ele>4148.0</ele>
    <time>2026-06-22T07:08:40Z</time>
   </trkpt>
   <trkpt lat="-3.1001880" lon="37.3382260">
    <ele>4147.8</ele>
    <time>2026-06-22T07:08:41Z</time>
   </trkpt>
   <trkpt lat="-3.1001950" lon="37.3382310">
    <ele>4147.6</ele>
    <time>2026-06-22T07:08:42Z</time>
   </trkpt>
   <trkpt lat="-3.1002010" lon="37.3382350">
    <ele>4147.5</ele>
    <time>2026-06-22T07:08:43Z</time>
   </trkpt>
   <trkpt lat="-3.1002060" lon="37.3382400">
    <ele>4147.3</ele>
    <time>2026-06-22T07:08:45Z</time>
   </trkpt>
   <trkpt lat="-3.1002090" lon="37.3382420">
    <ele>4147.2</ele>
    <time>2026-06-22T07:08:46Z</time>
   </trkpt>
   <trkpt lat="-3.1002120" lon="37.3382460">
    <ele>4147.1</ele>
    <time>2026-06-22T07:08:47Z</time>
   </trkpt>
   <trkpt lat="-3.1002160" lon="37.3382500">
    <ele>4147.0</ele>
    <time>2026-06-22T07:08:48Z</time>
   </trkpt>
   <trkpt lat="-3.1002180" lon="37.3382490">
    <ele>4146.9</ele>
    <time>2026-06-22T07:08:49Z</time>
   </trkpt>
   <trkpt lat="-3.1002250" lon="37.3382490">
    <ele>4146.8</ele>
    <time>2026-06-22T07:08:50Z</time>
   </trkpt>
   <trkpt lat="-3.1002310" lon="37.3382490">
    <ele>4146.7</ele>
    <time>2026-06-22T07:08:51Z</time>
   </trkpt>
   <trkpt lat="-3.1002360" lon="37.3382490">
    <ele>4146.5</ele>
    <time>2026-06-22T07:08:52Z</time>
   </trkpt>
   <trkpt lat="-3.1002400" lon="37.3382490">
    <ele>4146.5</ele>
    <time>2026-06-22T07:08:53Z</time>
   </trkpt>
   <trkpt lat="-3.1002470" lon="37.3382510">
    <ele>4146.3</ele>
    <time>2026-06-22T07:08:54Z</time>
   </trkpt>
   <trkpt lat="-3.1002520" lon="37.3382510">
    <ele>4146.2</ele>
    <time>2026-06-22T07:08:55Z</time>
   </trkpt>
   <trkpt lat="-3.1002570" lon="37.3382500">
    <ele>4146.1</ele>
    <time>2026-06-22T07:08:56Z</time>
   </trkpt>
   <trkpt lat="-3.1002620" lon="37.3382520">
    <ele>4145.9</ele>
    <time>2026-06-22T07:08:57Z</time>
   </trkpt>
   <trkpt lat="-3.1002630" lon="37.3382560">
    <ele>4145.9</ele>
    <time>2026-06-22T07:08:58Z</time>
   </trkpt>
   <trkpt lat="-3.1002630" lon="37.3382600">
    <ele>4145.8</ele>
    <time>2026-06-22T07:08:59Z</time>
   </trkpt>
   <trkpt lat="-3.1002660" lon="37.3382640">
    <ele>4145.7</ele>
    <time>2026-06-22T07:09:00Z</time>
   </trkpt>
   <trkpt lat="-3.1002670" lon="37.3382660">
    <ele>4145.6</ele>
    <time>2026-06-22T07:09:01Z</time>
   </trkpt>
   <trkpt lat="-3.1002700" lon="37.3382700">
    <ele>4145.5</ele>
    <time>2026-06-22T07:09:02Z</time>
   </trkpt>
   <trkpt lat="-3.1002710" lon="37.3382740">
    <ele>4145.4</ele>
    <time>2026-06-22T07:09:03Z</time>
   </trkpt>
   <trkpt lat="-3.1002710" lon="37.3382780">
    <ele>4145.3</ele>
    <time>2026-06-22T07:09:04Z</time>
   </trkpt>
   <trkpt lat="-3.1002690" lon="37.3382880">
    <ele>4145.1</ele>
    <time>2026-06-22T07:09:05Z</time>
   </trkpt>
   <trkpt lat="-3.1002690" lon="37.3382920">
    <ele>4145.0</ele>
    <time>2026-06-22T07:09:06Z</time>
   </trkpt>
   <trkpt lat="-3.1002720" lon="37.3382960">
    <ele>4144.9</ele>
    <time>2026-06-22T07:09:07Z</time>
   </trkpt>
   <trkpt lat="-3.1002720" lon="37.3383010">
    <ele>4144.8</ele>
    <time>2026-06-22T07:09:08Z</time>
   </trkpt>
   <trkpt lat="-3.1002760" lon="37.3383040">
    <ele>4144.7</ele>
    <time>2026-06-22T07:09:09Z</time>
   </trkpt>
   <trkpt lat="-3.1002760" lon="37.3383060">
    <ele>4144.6</ele>
    <time>2026-06-22T07:09:10Z</time>
   </trkpt>
   <trkpt lat="-3.1002770" lon="37.3383110">
    <ele>4144.5</ele>
    <time>2026-06-22T07:09:11Z</time>
   </trkpt>
   <trkpt lat="-3.1002770" lon="37.3383120">
    <ele>4144.5</ele>
    <time>2026-06-22T07:09:12Z</time>
   </trkpt>
   <trkpt lat="-3.1002820" lon="37.3383150">
    <ele>4144.4</ele>
    <time>2026-06-22T07:09:13Z</time>
   </trkpt>
   <trkpt lat="-3.1002890" lon="37.3383140">
    <ele>4144.2</ele>
    <time>2026-06-22T07:09:14Z</time>
   </trkpt>
   <trkpt lat="-3.1002910" lon="37.3383090">
    <ele>4144.1</ele>
    <time>2026-06-22T07:09:15Z</time>
   </trkpt>
   <trkpt lat="-3.1002970" lon="37.3383050">
    <ele>4143.9</ele>
    <time>2026-06-22T07:09:16Z</time>
   </trkpt>
   <trkpt lat="-3.1003010" lon="37.3383020">
    <ele>4143.8</ele>
    <time>2026-06-22T07:09:17Z</time>
   </trkpt>
   <trkpt lat="-3.1003050" lon="37.3382990">
    <ele>4143.7</ele>
    <time>2026-06-22T07:09:18Z</time>
   </trkpt>
   <trkpt lat="-3.1003100" lon="37.3382970">
    <ele>4143.6</ele>
    <time>2026-06-22T07:09:19Z</time>
   </trkpt>
   <trkpt lat="-3.1003160" lon="37.3382960">
    <ele>4143.4</ele>
    <time>2026-06-22T07:09:20Z</time>
   </trkpt>
   <trkpt lat="-3.1003170" lon="37.3383000">
    <ele>4143.3</ele>
    <time>2026-06-22T07:09:21Z</time>
   </trkpt>
   <trkpt lat="-3.1003180" lon="37.3383060">
    <ele>4143.2</ele>
    <time>2026-06-22T07:09:22Z</time>
   </trkpt>
   <trkpt lat="-3.1003170" lon="37.3383100">
    <ele>4143.1</ele>
    <time>2026-06-22T07:09:23Z</time>
   </trkpt>
   <trkpt lat="-3.1003150" lon="37.3383120">
    <ele>4143.1</ele>
    <time>2026-06-22T07:09:24Z</time>
   </trkpt>
   <trkpt lat="-3.1003140" lon="37.3383150">
    <ele>4143.0</ele>
    <time>2026-06-22T07:09:25Z</time>
   </trkpt>
   <trkpt lat="-3.1003160" lon="37.3383180">
    <ele>4142.9</ele>
    <time>2026-06-22T07:09:26Z</time>
   </trkpt>
   <trkpt lat="-3.1003150" lon="37.3383180">
    <ele>4142.9</ele>
    <time>2026-06-22T07:09:27Z</time>
   </trkpt>
   <trkpt lat="-3.1003140" lon="37.3383210">
    <ele>4142.8</ele>
    <time>2026-06-22T07:09:28Z</time>
   </trkpt>
   <trkpt lat="-3.1003150" lon="37.3383240">
    <ele>4142.7</ele>
    <time>2026-06-22T07:09:29Z</time>
   </trkpt>
   <trkpt lat="-3.1003180" lon="37.3383290">
    <ele>4142.6</ele>
    <time>2026-06-22T07:09:30Z</time>
   </trkpt>
   <trkpt lat="-3.1003240" lon="37.3383320">
    <ele>4142.5</ele>
    <time>2026-06-22T07:09:31Z</time>
   </trkpt>
   <trkpt lat="-3.1003290" lon="37.3383360">
    <ele>4142.3</ele>
    <time>2026-06-22T07:09:32Z</time>
   </trkpt>
   <trkpt lat="-3.1003320" lon="37.3383390">
    <ele>4142.3</ele>
    <time>2026-06-22T07:09:33Z</time>
   </trkpt>
   <trkpt lat="-3.1003350" lon="37.3383410">
    <ele>4142.2</ele>
    <time>2026-06-22T07:09:34Z</time>
   </trkpt>
   <trkpt lat="-3.1003390" lon="37.3383460">
    <ele>4142.0</ele>
    <time>2026-06-22T07:09:35Z</time>
   </trkpt>
   <trkpt lat="-3.1003400" lon="37.3383510">
    <ele>4141.9</ele>
    <time>2026-06-22T07:09:36Z</time>
   </trkpt>
   <trkpt lat="-3.1003380" lon="37.3383590">
    <ele>4141.8</ele>
    <time>2026-06-22T07:09:37Z</time>
   </trkpt>
   <trkpt lat="-3.1003460" lon="37.3383620">
    <ele>4141.6</ele>
    <time>2026-06-22T07:09:38Z</time>
   </trkpt>
   <trkpt lat="-3.1003530" lon="37.3383680">
    <ele>4141.4</ele>
    <time>2026-06-22T07:09:39Z</time>
   </trkpt>
   <trkpt lat="-3.1003590" lon="37.3383750">
    <ele>4141.2</ele>
    <time>2026-06-22T07:09:40Z</time>
   </trkpt>
   <trkpt lat="-3.1003630" lon="37.3383780">
    <ele>4141.1</ele>
    <time>2026-06-22T07:09:41Z</time>
   </trkpt>
   <trkpt lat="-3.1003700" lon="37.3383810">
    <ele>4140.9</ele>
    <time>2026-06-22T07:09:42Z</time>
   </trkpt>
   <trkpt lat="-3.1003790" lon="37.3383820">
    <ele>4140.7</ele>
    <time>2026-06-22T07:09:43Z</time>
   </trkpt>
   <trkpt lat="-3.1003840" lon="37.3383820">
    <ele>4140.6</ele>
    <time>2026-06-22T07:09:44Z</time>
   </trkpt>
   <trkpt lat="-3.1003890" lon="37.3383820">
    <ele>4140.5</ele>
    <time>2026-06-22T07:09:45Z</time>
   </trkpt>
   <trkpt lat="-3.1004050" lon="37.3383830">
    <ele>4140.2</ele>
    <time>2026-06-22T07:09:46Z</time>
   </trkpt>
   <trkpt lat="-3.1004110" lon="37.3383830">
    <ele>4140.0</ele>
    <time>2026-06-22T07:09:47Z</time>
   </trkpt>
   <trkpt lat="-3.1004180" lon="37.3383810">
    <ele>4139.9</ele>
    <time>2026-06-22T07:09:48Z</time>
   </trkpt>
   <trkpt lat="-3.1004250" lon="37.3383800">
    <ele>4139.7</ele>
    <time>2026-06-22T07:09:49Z</time>
   </trkpt>
   <trkpt lat="-3.1004310" lon="37.3383830">
    <ele>4139.6</ele>
    <time>2026-06-22T07:09:50Z</time>
   </trkpt>
   <trkpt lat="-3.1004370" lon="37.3383890">
    <ele>4139.4</ele>
    <time>2026-06-22T07:09:51Z</time>
   </trkpt>
   <trkpt lat="-3.1004380" lon="37.3383910">
    <ele>4139.3</ele>
    <time>2026-06-22T07:09:52Z</time>
   </trkpt>
   <trkpt lat="-3.1004410" lon="37.3383950">
    <ele>4139.2</ele>
    <time>2026-06-22T07:09:53Z</time>
   </trkpt>
   <trkpt lat="-3.1004460" lon="37.3383980">
    <ele>4139.1</ele>
    <time>2026-06-22T07:09:54Z</time>
   </trkpt>
   <trkpt lat="-3.1004510" lon="37.3384030">
    <ele>4139.0</ele>
    <time>2026-06-22T07:09:55Z</time>
   </trkpt>
   <trkpt lat="-3.1004570" lon="37.3384080">
    <ele>4138.8</ele>
    <time>2026-06-22T07:09:56Z</time>
   </trkpt>
   <trkpt lat="-3.1004560" lon="37.3384150">
    <ele>4138.6</ele>
    <time>2026-06-22T07:09:57Z</time>
   </trkpt>
   <trkpt lat="-3.1004540" lon="37.3384200">
    <ele>4138.5</ele>
    <time>2026-06-22T07:09:58Z</time>
   </trkpt>
   <trkpt lat="-3.1004520" lon="37.3384250">
    <ele>4138.4</ele>
    <time>2026-06-22T07:09:59Z</time>
   </trkpt>
   <trkpt lat="-3.1004470" lon="37.3384290">
    <ele>4138.3</ele>
    <time>2026-06-22T07:10:00Z</time>
   </trkpt>
   <trkpt lat="-3.1004490" lon="37.3384360">
    <ele>4138.1</ele>
    <time>2026-06-22T07:10:01Z</time>
   </trkpt>
   <trkpt lat="-3.1004510" lon="37.3384400">
    <ele>4138.0</ele>
    <time>2026-06-22T07:10:02Z</time>
   </trkpt>
   <trkpt lat="-3.1004550" lon="37.3384440">
    <ele>4137.9</ele>
    <time>2026-06-22T07:10:03Z</time>
   </trkpt>
   <trkpt lat="-3.1004610" lon="37.3384490">
    <ele>4137.7</ele>
    <time>2026-06-22T07:10:04Z</time>
   </trkpt>
   <trkpt lat="-3.1004660" lon="37.3384510">
    <ele>4137.6</ele>
    <time>2026-06-22T07:10:05Z</time>
   </trkpt>
   <trkpt lat="-3.1004710" lon="37.3384570">
    <ele>4137.5</ele>
    <time>2026-06-22T07:10:06Z</time>
   </trkpt>
   <trkpt lat="-3.1004750" lon="37.3384630">
    <ele>4137.3</ele>
    <time>2026-06-22T07:10:07Z</time>
   </trkpt>
   <trkpt lat="-3.1004790" lon="37.3384690">
    <ele>4137.1</ele>
    <time>2026-06-22T07:10:08Z</time>
   </trkpt>
   <trkpt lat="-3.1004820" lon="37.3384750">
    <ele>4137.0</ele>
    <time>2026-06-22T07:10:09Z</time>
   </trkpt>
   <trkpt lat="-3.1004840" lon="37.3384790">
    <ele>4136.9</ele>
    <time>2026-06-22T07:10:10Z</time>
   </trkpt>
   <trkpt lat="-3.1004860" lon="37.3384840">
    <ele>4136.8</ele>
    <time>2026-06-22T07:10:11Z</time>
   </trkpt>
   <trkpt lat="-3.1004890" lon="37.3384880">
    <ele>4136.7</ele>
    <time>2026-06-22T07:10:12Z</time>
   </trkpt>
   <trkpt lat="-3.1004910" lon="37.3384930">
    <ele>4136.6</ele>
    <time>2026-06-22T07:10:13Z</time>
   </trkpt>
   <trkpt lat="-3.1004950" lon="37.3384990">
    <ele>4136.4</ele>
    <time>2026-06-22T07:10:14Z</time>
   </trkpt>
   <trkpt lat="-3.1004980" lon="37.3385060">
    <ele>4136.3</ele>
    <time>2026-06-22T07:10:15Z</time>
   </trkpt>
   <trkpt lat="-3.1005030" lon="37.3385080">
    <ele>4136.1</ele>
    <time>2026-06-22T07:10:16Z</time>
   </trkpt>
   <trkpt lat="-3.1005070" lon="37.3385120">
    <ele>4136.0</ele>
    <time>2026-06-22T07:10:17Z</time>
   </trkpt>
   <trkpt lat="-3.1005140" lon="37.3385130">
    <ele>4135.9</ele>
    <time>2026-06-22T07:10:18Z</time>
   </trkpt>
   <trkpt lat="-3.1005180" lon="37.3385120">
    <ele>4135.8</ele>
    <time>2026-06-22T07:10:19Z</time>
   </trkpt>
   <trkpt lat="-3.1005220" lon="37.3385150">
    <ele>4135.7</ele>
    <time>2026-06-22T07:10:20Z</time>
   </trkpt>
   <trkpt lat="-3.1005300" lon="37.3385200">
    <ele>4135.5</ele>
    <time>2026-06-22T07:10:21Z</time>
   </trkpt>
   <trkpt lat="-3.1005340" lon="37.3385250">
    <ele>4135.3</ele>
    <time>2026-06-22T07:10:22Z</time>
   </trkpt>
   <trkpt lat="-3.1005340" lon="37.3385310">
    <ele>4135.2</ele>
    <time>2026-06-22T07:10:23Z</time>
   </trkpt>
   <trkpt lat="-3.1005330" lon="37.3385360">
    <ele>4135.1</ele>
    <time>2026-06-22T07:10:24Z</time>
   </trkpt>
   <trkpt lat="-3.1005330" lon="37.3385420">
    <ele>4135.0</ele>
    <time>2026-06-22T07:10:25Z</time>
   </trkpt>
   <trkpt lat="-3.1005350" lon="37.3385470">
    <ele>4134.9</ele>
    <time>2026-06-22T07:10:26Z</time>
   </trkpt>
   <trkpt lat="-3.1005370" lon="37.3385520">
    <ele>4134.7</ele>
    <time>2026-06-22T07:10:27Z</time>
   </trkpt>
   <trkpt lat="-3.1005350" lon="37.3385590">
    <ele>4134.6</ele>
    <time>2026-06-22T07:10:28Z</time>
   </trkpt>
   <trkpt lat="-3.1005350" lon="37.3385640">
    <ele>4134.5</ele>
    <time>2026-06-22T07:10:29Z</time>
   </trkpt>
   <trkpt lat="-3.1005300" lon="37.3385690">
    <ele>4134.3</ele>
    <time>2026-06-22T07:10:30Z</time>
   </trkpt>
   <trkpt lat="-3.1005260" lon="37.3385770">
    <ele>4134.1</ele>
    <time>2026-06-22T07:10:31Z</time>
   </trkpt>
   <trkpt lat="-3.1005250" lon="37.3385820">
    <ele>4134.0</ele>
    <time>2026-06-22T07:10:32Z</time>
   </trkpt>
   <trkpt lat="-3.1005200" lon="37.3385890">
    <ele>4133.8</ele>
    <time>2026-06-22T07:10:33Z</time>
   </trkpt>
   <trkpt lat="-3.1005200" lon="37.3385950">
    <ele>4133.7</ele>
    <time>2026-06-22T07:10:34Z</time>
   </trkpt>
   <trkpt lat="-3.1005160" lon="37.3386000">
    <ele>4133.6</ele>
    <time>2026-06-22T07:10:35Z</time>
   </trkpt>
   <trkpt lat="-3.1005130" lon="37.3386040">
    <ele>4133.5</ele>
    <time>2026-06-22T07:10:36Z</time>
   </trkpt>
   <trkpt lat="-3.1005090" lon="37.3386070">
    <ele>4133.4</ele>
    <time>2026-06-22T07:10:37Z</time>
   </trkpt>
   <trkpt lat="-3.1005080" lon="37.3386070">
    <ele>4133.3</ele>
    <time>2026-06-22T07:10:38Z</time>
   </trkpt>
   <trkpt lat="-3.1005040" lon="37.3386120">
    <ele>4133.2</ele>
    <time>2026-06-22T07:10:39Z</time>
   </trkpt>
   <trkpt lat="-3.1005030" lon="37.3386170">
    <ele>4133.1</ele>
    <time>2026-06-22T07:10:40Z</time>
   </trkpt>
   <trkpt lat="-3.1005050" lon="37.3386280">
    <ele>4132.9</ele>
    <time>2026-06-22T07:10:41Z</time>
   </trkpt>
   <trkpt lat="-3.1005100" lon="37.3386290">
    <ele>4132.7</ele>
    <time>2026-06-22T07:10:42Z</time>
   </trkpt>
   <trkpt lat="-3.1005140" lon="37.3386300">
    <ele>4132.7</ele>
    <time>2026-06-22T07:10:43Z</time>
   </trkpt>
   <trkpt lat="-3.1005190" lon="37.3386300">
    <ele>4132.6</ele>
    <time>2026-06-22T07:10:44Z</time>
   </trkpt>
   <trkpt lat="-3.1005250" lon="37.3386320">
    <ele>4132.4</ele>
    <time>2026-06-22T07:10:45Z</time>
   </trkpt>
   <trkpt lat="-3.1005350" lon="37.3386350">
    <ele>4132.2</ele>
    <time>2026-06-22T07:10:46Z</time>
   </trkpt>
   <trkpt lat="-3.1005400" lon="37.3386360">
    <ele>4132.1</ele>
    <time>2026-06-22T07:10:47Z</time>
   </trkpt>
   <trkpt lat="-3.1005450" lon="37.3386380">
    <ele>4132.0</ele>
    <time>2026-06-22T07:10:48Z</time>
   </trkpt>
   <trkpt lat="-3.1005530" lon="37.3386390">
    <ele>4131.8</ele>
    <time>2026-06-22T07:10:50Z</time>
   </trkpt>
   <trkpt lat="-3.1005590" lon="37.3386370">
    <ele>4131.7</ele>
    <time>2026-06-22T07:10:51Z</time>
   </trkpt>
   <trkpt lat="-3.1005650" lon="37.3386410">
    <ele>4131.5</ele>
    <time>2026-06-22T07:10:52Z</time>
   </trkpt>
   <trkpt lat="-3.1005660" lon="37.3386470">
    <ele>4131.4</ele>
    <time>2026-06-22T07:10:53Z</time>
   </trkpt>
   <trkpt lat="-3.1005660" lon="37.3386530">
    <ele>4131.2</ele>
    <time>2026-06-22T07:10:54Z</time>
   </trkpt>
   <trkpt lat="-3.1005640" lon="37.3386610">
    <ele>4131.1</ele>
    <time>2026-06-22T07:10:55Z</time>
   </trkpt>
   <trkpt lat="-3.1005630" lon="37.3386670">
    <ele>4130.9</ele>
    <time>2026-06-22T07:10:56Z</time>
   </trkpt>
   <trkpt lat="-3.1005670" lon="37.3386690">
    <ele>4130.8</ele>
    <time>2026-06-22T07:10:57Z</time>
   </trkpt>
   <trkpt lat="-3.1005740" lon="37.3386700">
    <ele>4130.7</ele>
    <time>2026-06-22T07:10:58Z</time>
   </trkpt>
   <trkpt lat="-3.1005810" lon="37.3386680">
    <ele>4130.5</ele>
    <time>2026-06-22T07:10:59Z</time>
   </trkpt>
   <trkpt lat="-3.1005870" lon="37.3386660">
    <ele>4130.4</ele>
    <time>2026-06-22T07:11:00Z</time>
   </trkpt>
   <trkpt lat="-3.1005950" lon="37.3386640">
    <ele>4130.2</ele>
    <time>2026-06-22T07:11:01Z</time>
   </trkpt>
   <trkpt lat="-3.1006030" lon="37.3386650">
    <ele>4130.1</ele>
    <time>2026-06-22T07:11:02Z</time>
   </trkpt>
   <trkpt lat="-3.1006090" lon="37.3386690">
    <ele>4129.9</ele>
    <time>2026-06-22T07:11:03Z</time>
   </trkpt>
   <trkpt lat="-3.1006140" lon="37.3386690">
    <ele>4129.8</ele>
    <time>2026-06-22T07:11:04Z</time>
   </trkpt>
   <trkpt lat="-3.1006220" lon="37.3386720">
    <ele>4129.6</ele>
    <time>2026-06-22T07:11:05Z</time>
   </trkpt>
   <trkpt lat="-3.1006250" lon="37.3386720">
    <ele>4129.6</ele>
    <time>2026-06-22T07:11:06Z</time>
   </trkpt>
   <trkpt lat="-3.1006260" lon="37.3386720">
    <ele>4129.5</ele>
    <time>2026-06-22T07:11:07Z</time>
   </trkpt>
   <trkpt lat="-3.1006280" lon="37.3386730">
    <ele>4129.5</ele>
    <time>2026-06-22T07:11:08Z</time>
   </trkpt>
   <trkpt lat="-3.1006330" lon="37.3386720">
    <ele>4129.4</ele>
    <time>2026-06-22T07:11:09Z</time>
   </trkpt>
   <trkpt lat="-3.1006370" lon="37.3386710">
    <ele>4129.3</ele>
    <time>2026-06-22T07:11:10Z</time>
   </trkpt>
   <trkpt lat="-3.1006430" lon="37.3386720">
    <ele>4129.2</ele>
    <time>2026-06-22T07:11:11Z</time>
   </trkpt>
   <trkpt lat="-3.1006440" lon="37.3386770">
    <ele>4129.1</ele>
    <time>2026-06-22T07:11:12Z</time>
   </trkpt>
   <trkpt lat="-3.1006430" lon="37.3386820">
    <ele>4129.0</ele>
    <time>2026-06-22T07:11:13Z</time>
   </trkpt>
   <trkpt lat="-3.1006400" lon="37.3386850">
    <ele>4128.9</ele>
    <time>2026-06-22T07:11:14Z</time>
   </trkpt>
   <trkpt lat="-3.1006370" lon="37.3386890">
    <ele>4128.8</ele>
    <time>2026-06-22T07:11:15Z</time>
   </trkpt>
   <trkpt lat="-3.1006340" lon="37.3386920">
    <ele>4128.7</ele>
    <time>2026-06-22T07:11:16Z</time>
   </trkpt>
   <trkpt lat="-3.1006310" lon="37.3386970">
    <ele>4128.6</ele>
    <time>2026-06-22T07:11:17Z</time>
   </trkpt>
   <trkpt lat="-3.1006300" lon="37.3387010">
    <ele>4128.5</ele>
    <time>2026-06-22T07:11:18Z</time>
   </trkpt>
   <trkpt lat="-3.1006300" lon="37.3387050">
    <ele>4128.4</ele>
    <time>2026-06-22T07:11:19Z</time>
   </trkpt>
   <trkpt lat="-3.1006330" lon="37.3387100">
    <ele>4128.3</ele>
    <time>2026-06-22T07:11:20Z</time>
   </trkpt>
   <trkpt lat="-3.1006380" lon="37.3387150">
    <ele>4128.2</ele>
    <time>2026-06-22T07:11:21Z</time>
   </trkpt>
   <trkpt lat="-3.1006430" lon="37.3387180">
    <ele>4128.1</ele>
    <time>2026-06-22T07:11:22Z</time>
   </trkpt>
   <trkpt lat="-3.1006460" lon="37.3387200">
    <ele>4128.0</ele>
    <time>2026-06-22T07:11:23Z</time>
   </trkpt>
   <trkpt lat="-3.1006480" lon="37.3387220">
    <ele>4127.9</ele>
    <time>2026-06-22T07:11:24Z</time>
   </trkpt>
   <trkpt lat="-3.1006530" lon="37.3387240">
    <ele>4127.8</ele>
    <time>2026-06-22T07:11:25Z</time>
   </trkpt>
   <trkpt lat="-3.1006540" lon="37.3387300">
    <ele>4127.7</ele>
    <time>2026-06-22T07:11:26Z</time>
   </trkpt>
   <trkpt lat="-3.1006560" lon="37.3387330">
    <ele>4127.6</ele>
    <time>2026-06-22T07:11:27Z</time>
   </trkpt>
   <trkpt lat="-3.1006550" lon="37.3387380">
    <ele>4127.5</ele>
    <time>2026-06-22T07:11:28Z</time>
   </trkpt>
   <trkpt lat="-3.1006530" lon="37.3387450">
    <ele>4127.4</ele>
    <time>2026-06-22T07:11:29Z</time>
   </trkpt>
   <trkpt lat="-3.1006480" lon="37.3387500">
    <ele>4127.2</ele>
    <time>2026-06-22T07:11:30Z</time>
   </trkpt>
   <trkpt lat="-3.1006440" lon="37.3387530">
    <ele>4127.1</ele>
    <time>2026-06-22T07:11:31Z</time>
   </trkpt>
   <trkpt lat="-3.1006450" lon="37.3387610">
    <ele>4127.0</ele>
    <time>2026-06-22T07:11:32Z</time>
   </trkpt>
   <trkpt lat="-3.1006410" lon="37.3387670">
    <ele>4126.8</ele>
    <time>2026-06-22T07:11:33Z</time>
   </trkpt>
   <trkpt lat="-3.1006370" lon="37.3387720">
    <ele>4126.7</ele>
    <time>2026-06-22T07:11:34Z</time>
   </trkpt>
   <trkpt lat="-3.1006390" lon="37.3387780">
    <ele>4126.6</ele>
    <time>2026-06-22T07:11:35Z</time>
   </trkpt>
   <trkpt lat="-3.1006400" lon="37.3387840">
    <ele>4126.5</ele>
    <time>2026-06-22T07:11:36Z</time>
   </trkpt>
   <trkpt lat="-3.1006410" lon="37.3387850">
    <ele>4126.4</ele>
    <time>2026-06-22T07:11:37Z</time>
   </trkpt>
   <trkpt lat="-3.1006430" lon="37.3387890">
    <ele>4126.3</ele>
    <time>2026-06-22T07:11:38Z</time>
   </trkpt>
   <trkpt lat="-3.1006460" lon="37.3387950">
    <ele>4126.2</ele>
    <time>2026-06-22T07:11:39Z</time>
   </trkpt>
   <trkpt lat="-3.1006440" lon="37.3387990">
    <ele>4126.1</ele>
    <time>2026-06-22T07:11:40Z</time>
   </trkpt>
   <trkpt lat="-3.1006430" lon="37.3388080">
    <ele>4126.0</ele>
    <time>2026-06-22T07:11:41Z</time>
   </trkpt>
   <trkpt lat="-3.1006440" lon="37.3388130">
    <ele>4125.9</ele>
    <time>2026-06-22T07:11:42Z</time>
   </trkpt>
   <trkpt lat="-3.1006490" lon="37.3388190">
    <ele>4125.7</ele>
    <time>2026-06-22T07:11:43Z</time>
   </trkpt>
   <trkpt lat="-3.1006540" lon="37.3388210">
    <ele>4125.6</ele>
    <time>2026-06-22T07:11:44Z</time>
   </trkpt>
   <trkpt lat="-3.1006730" lon="37.3388270">
    <ele>4125.2</ele>
    <time>2026-06-22T07:11:45Z</time>
   </trkpt>
   <trkpt lat="-3.1006720" lon="37.3388330">
    <ele>4125.1</ele>
    <time>2026-06-22T07:11:46Z</time>
   </trkpt>
   <trkpt lat="-3.1006670" lon="37.3388420">
    <ele>4124.9</ele>
    <time>2026-06-22T07:11:47Z</time>
   </trkpt>
   <trkpt lat="-3.1006710" lon="37.3388520">
    <ele>4124.7</ele>
    <time>2026-06-22T07:11:48Z</time>
   </trkpt>
   <trkpt lat="-3.1006750" lon="37.3388540">
    <ele>4124.7</ele>
    <time>2026-06-22T07:11:49Z</time>
   </trkpt>
   <trkpt lat="-3.1006810" lon="37.3388580">
    <ele>4124.5</ele>
    <time>2026-06-22T07:11:50Z</time>
   </trkpt>
   <trkpt lat="-3.1006810" lon="37.3388580">
    <ele>4124.5</ele>
    <time>2026-06-22T07:11:51Z</time>
   </trkpt>
   <trkpt lat="-3.1006790" lon="37.3388550">
    <ele>4124.5</ele>
    <time>2026-06-22T07:11:52Z</time>
   </trkpt>
   <trkpt lat="-3.1006790" lon="37.3388560">
    <ele>4124.5</ele>
    <time>2026-06-22T07:11:53Z</time>
   </trkpt>
   <trkpt lat="-3.1006800" lon="37.3388550">
    <ele>4124.4</ele>
    <time>2026-06-22T07:11:54Z</time>
   </trkpt>
   <trkpt lat="-3.1006860" lon="37.3388570">
    <ele>4124.3</ele>
    <time>2026-06-22T07:11:55Z</time>
   </trkpt>
   <trkpt lat="-3.1006920" lon="37.3388560">
    <ele>4124.2</ele>
    <time>2026-06-22T07:11:56Z</time>
   </trkpt>
   <trkpt lat="-3.1007000" lon="37.3388520">
    <ele>4124.1</ele>
    <time>2026-06-22T07:11:57Z</time>
   </trkpt>
   <trkpt lat="-3.1007080" lon="37.3388500">
    <ele>4123.9</ele>
    <time>2026-06-22T07:11:58Z</time>
   </trkpt>
   <trkpt lat="-3.1007120" lon="37.3388500">
    <ele>4123.8</ele>
    <time>2026-06-22T07:11:59Z</time>
   </trkpt>
   <trkpt lat="-3.1007140" lon="37.3388530">
    <ele>4123.8</ele>
    <time>2026-06-22T07:12:00Z</time>
   </trkpt>
   <trkpt lat="-3.1007160" lon="37.3388590">
    <ele>4123.7</ele>
    <time>2026-06-22T07:12:01Z</time>
   </trkpt>
   <trkpt lat="-3.1007150" lon="37.3388630">
    <ele>4123.6</ele>
    <time>2026-06-22T07:12:02Z</time>
   </trkpt>
   <trkpt lat="-3.1007130" lon="37.3388680">
    <ele>4123.5</ele>
    <time>2026-06-22T07:12:03Z</time>
   </trkpt>
   <trkpt lat="-3.1007140" lon="37.3388750">
    <ele>4123.4</ele>
    <time>2026-06-22T07:12:04Z</time>
   </trkpt>
   <trkpt lat="-3.1007130" lon="37.3388760">
    <ele>4123.4</ele>
    <time>2026-06-22T07:12:05Z</time>
   </trkpt>
   <trkpt lat="-3.1007140" lon="37.3388790">
    <ele>4123.3</ele>
    <time>2026-06-22T07:12:06Z</time>
   </trkpt>
   <trkpt lat="-3.1007150" lon="37.3388830">
    <ele>4123.3</ele>
    <time>2026-06-22T07:12:07Z</time>
   </trkpt>
   <trkpt lat="-3.1007190" lon="37.3388930">
    <ele>4123.1</ele>
    <time>2026-06-22T07:12:08Z</time>
   </trkpt>
   <trkpt lat="-3.1007240" lon="37.3389020">
    <ele>4122.9</ele>
    <time>2026-06-22T07:12:09Z</time>
   </trkpt>
   <trkpt lat="-3.1007300" lon="37.3389010">
    <ele>4122.8</ele>
    <time>2026-06-22T07:12:10Z</time>
   </trkpt>
   <trkpt lat="-3.1007340" lon="37.3388980">
    <ele>4122.7</ele>
    <time>2026-06-22T07:12:11Z</time>
   </trkpt>
   <trkpt lat="-3.1007420" lon="37.3388960">
    <ele>4122.6</ele>
    <time>2026-06-22T07:12:12Z</time>
   </trkpt>
   <trkpt lat="-3.1007430" lon="37.3388920">
    <ele>4122.6</ele>
    <time>2026-06-22T07:12:13Z</time>
   </trkpt>
   <trkpt lat="-3.1007490" lon="37.3388940">
    <ele>4122.5</ele>
    <time>2026-06-22T07:12:14Z</time>
   </trkpt>
   <trkpt lat="-3.1007510" lon="37.3389040">
    <ele>4122.3</ele>
    <time>2026-06-22T07:12:15Z</time>
   </trkpt>
   <trkpt lat="-3.1007460" lon="37.3389110">
    <ele>4122.2</ele>
    <time>2026-06-22T07:12:16Z</time>
   </trkpt>
   <trkpt lat="-3.1007410" lon="37.3389140">
    <ele>4122.1</ele>
    <time>2026-06-22T07:12:17Z</time>
   </trkpt>
   <trkpt lat="-3.1007350" lon="37.3389180">
    <ele>4122.0</ele>
    <time>2026-06-22T07:12:18Z</time>
   </trkpt>
   <trkpt lat="-3.1007310" lon="37.3389200">
    <ele>4121.9</ele>
    <time>2026-06-22T07:12:19Z</time>
   </trkpt>
   <trkpt lat="-3.1007280" lon="37.3389230">
    <ele>4121.8</ele>
    <time>2026-06-22T07:12:20Z</time>
   </trkpt>
   <trkpt lat="-3.1007310" lon="37.3389280">
    <ele>4121.8</ele>
    <time>2026-06-22T07:12:21Z</time>
   </trkpt>
   <trkpt lat="-3.1007340" lon="37.3389340">
    <ele>4121.7</ele>
    <time>2026-06-22T07:12:22Z</time>
   </trkpt>
   <trkpt lat="-3.1007370" lon="37.3389400">
    <ele>4121.6</ele>
    <time>2026-06-22T07:12:23Z</time>
   </trkpt>
   <trkpt lat="-3.1007420" lon="37.3389420">
    <ele>4121.5</ele>
    <time>2026-06-22T07:12:24Z</time>
   </trkpt>
   <trkpt lat="-3.1007480" lon="37.3389440">
    <ele>4121.4</ele>
    <time>2026-06-22T07:12:25Z</time>
   </trkpt>
   <trkpt lat="-3.1007520" lon="37.3389430">
    <ele>4121.3</ele>
    <time>2026-06-22T07:12:26Z</time>
   </trkpt>
   <trkpt lat="-3.1007530" lon="37.3389420">
    <ele>4121.3</ele>
    <time>2026-06-22T07:12:27Z</time>
   </trkpt>
   <trkpt lat="-3.1007570" lon="37.3389420">
    <ele>4121.3</ele>
    <time>2026-06-22T07:12:28Z</time>
   </trkpt>
   <trkpt lat="-3.1007570" lon="37.3389420">
    <ele>4121.3</ele>
    <time>2026-06-22T07:12:29Z</time>
   </trkpt>
   <trkpt lat="-3.1007610" lon="37.3389460">
    <ele>4121.2</ele>
    <time>2026-06-22T07:12:30Z</time>
   </trkpt>
   <trkpt lat="-3.1007590" lon="37.3389510">
    <ele>4121.1</ele>
    <time>2026-06-22T07:12:31Z</time>
   </trkpt>
   <trkpt lat="-3.1007630" lon="37.3389570">
    <ele>4121.0</ele>
    <time>2026-06-22T07:12:32Z</time>
   </trkpt>
   <trkpt lat="-3.1007630" lon="37.3389710">
    <ele>4120.8</ele>
    <time>2026-06-22T07:12:33Z</time>
   </trkpt>
   <trkpt lat="-3.1007640" lon="37.3389720">
    <ele>4120.8</ele>
    <time>2026-06-22T07:12:34Z</time>
   </trkpt>
   <trkpt lat="-3.1007650" lon="37.3389760">
    <ele>4120.7</ele>
    <time>2026-06-22T07:12:35Z</time>
   </trkpt>
   <trkpt lat="-3.1007670" lon="37.3389770">
    <ele>4120.7</ele>
    <time>2026-06-22T07:12:36Z</time>
   </trkpt>
   <trkpt lat="-3.1007680" lon="37.3389810">
    <ele>4120.6</ele>
    <time>2026-06-22T07:12:37Z</time>
   </trkpt>
   <trkpt lat="-3.1007690" lon="37.3389870">
    <ele>4120.6</ele>
    <time>2026-06-22T07:12:38Z</time>
   </trkpt>
   <trkpt lat="-3.1007710" lon="37.3389890">
    <ele>4120.5</ele>
    <time>2026-06-22T07:12:39Z</time>
   </trkpt>
   <trkpt lat="-3.1007720" lon="37.3389890">
    <ele>4120.5</ele>
    <time>2026-06-22T07:12:40Z</time>
   </trkpt>
   <trkpt lat="-3.1007730" lon="37.3389900">
    <ele>4120.5</ele>
    <time>2026-06-22T07:12:41Z</time>
   </trkpt>
   <trkpt lat="-3.1007720" lon="37.3389890">
    <ele>4120.5</ele>
    <time>2026-06-22T07:12:42Z</time>
   </trkpt>
   <trkpt lat="-3.1007720" lon="37.3389890">
    <ele>4120.5</ele>
    <time>2026-06-22T07:12:43Z</time>
   </trkpt>
   <trkpt lat="-3.1007740" lon="37.3389900">
    <ele>4120.4</ele>
    <time>2026-06-22T07:12:44Z</time>
   </trkpt>
   <trkpt lat="-3.1007740" lon="37.3389890">
    <ele>4120.4</ele>
    <time>2026-06-22T07:12:45Z</time>
   </trkpt>
   <trkpt lat="-3.1007760" lon="37.3389880">
    <ele>4120.4</ele>
    <time>2026-06-22T07:12:46Z</time>
   </trkpt>
   <trkpt lat="-3.1007800" lon="37.3389920">
    <ele>4120.3</ele>
    <time>2026-06-22T07:12:47Z</time>
   </trkpt>
   <trkpt lat="-3.1007850" lon="37.3389950">
    <ele>4120.2</ele>
    <time>2026-06-22T07:12:48Z</time>
   </trkpt>
   <trkpt lat="-3.1007850" lon="37.3389980">
    <ele>4120.2</ele>
    <time>2026-06-22T07:12:49Z</time>
   </trkpt>
   <trkpt lat="-3.1007820" lon="37.3389990">
    <ele>4120.2</ele>
    <time>2026-06-22T07:12:50Z</time>
   </trkpt>
   <trkpt lat="-3.1007800" lon="37.3389980">
    <ele>4120.1</ele>
    <time>2026-06-22T07:12:51Z</time>
   </trkpt>
   <trkpt lat="-3.1007780" lon="37.3390000">
    <ele>4120.1</ele>
    <time>2026-06-22T07:12:52Z</time>
   </trkpt>
   <trkpt lat="-3.1007780" lon="37.3390030">
    <ele>4120.1</ele>
    <time>2026-06-22T07:12:53Z</time>
   </trkpt>
   <trkpt lat="-3.1007750" lon="37.3390070">
    <ele>4120.0</ele>
    <time>2026-06-22T07:12:54Z</time>
   </trkpt>
   <trkpt lat="-3.1007800" lon="37.3390110">
    <ele>4119.9</ele>
    <time>2026-06-22T07:12:56Z</time>
   </trkpt>
   <trkpt lat="-3.1007810" lon="37.3390160">
    <ele>4119.8</ele>
    <time>2026-06-22T07:12:57Z</time>
   </trkpt>
   <trkpt lat="-3.1007800" lon="37.3390210">
    <ele>4119.8</ele>
    <time>2026-06-22T07:12:58Z</time>
   </trkpt>
   <trkpt lat="-3.1007780" lon="37.3390310">
    <ele>4119.6</ele>
    <time>2026-06-22T07:12:59Z</time>
   </trkpt>
   <trkpt lat="-3.1007790" lon="37.3390270">
    <ele>4119.6</ele>
    <time>2026-06-22T07:13:00Z</time>
   </trkpt>
   <trkpt lat="-3.1007850" lon="37.3390270">
    <ele>4119.5</ele>
    <time>2026-06-22T07:13:01Z</time>
   </trkpt>
   <trkpt lat="-3.1007990" lon="37.3390250">
    <ele>4119.3</ele>
    <time>2026-06-22T07:13:02Z</time>
   </trkpt>
   <trkpt lat="-3.1008010" lon="37.3390280">
    <ele>4119.3</ele>
    <time>2026-06-22T07:13:03Z</time>
   </trkpt>
   <trkpt lat="-3.1008050" lon="37.3390300">
    <ele>4119.2</ele>
    <time>2026-06-22T07:13:04Z</time>
   </trkpt>
   <trkpt lat="-3.1008080" lon="37.3390340">
    <ele>4119.2</ele>
    <time>2026-06-22T07:13:05Z</time>
   </trkpt>
   <trkpt lat="-3.1008110" lon="37.3390430">
    <ele>4119.1</ele>
    <time>2026-06-22T07:13:06Z</time>
   </trkpt>
   <trkpt lat="-3.1008030" lon="37.3390460">
    <ele>4119.0</ele>
    <time>2026-06-22T07:13:07Z</time>
   </trkpt>
   <trkpt lat="-3.1007950" lon="37.3390500">
    <ele>4118.9</ele>
    <time>2026-06-22T07:13:08Z</time>
   </trkpt>
   <trkpt lat="-3.1007850" lon="37.3390540">
    <ele>4118.7</ele>
    <time>2026-06-22T07:13:09Z</time>
   </trkpt>
   <trkpt lat="-3.1007840" lon="37.3390570">
    <ele>4118.7</ele>
    <time>2026-06-22T07:13:10Z</time>
   </trkpt>
   <trkpt lat="-3.1007860" lon="37.3390600">
    <ele>4118.6</ele>
    <time>2026-06-22T07:13:11Z</time>
   </trkpt>
   <trkpt lat="-3.1007860" lon="37.3390610">
    <ele>4118.6</ele>
    <time>2026-06-22T07:13:12Z</time>
   </trkpt>
   <trkpt lat="-3.1007880" lon="37.3390660">
    <ele>4118.6</ele>
    <time>2026-06-22T07:13:13Z</time>
   </trkpt>
   <trkpt lat="-3.1007910" lon="37.3390780">
    <ele>4118.4</ele>
    <time>2026-06-22T07:13:14Z</time>
   </trkpt>
   <trkpt lat="-3.1007940" lon="37.3390830">
    <ele>4118.4</ele>
    <time>2026-06-22T07:13:15Z</time>
   </trkpt>
   <trkpt lat="-3.1007960" lon="37.3390800">
    <ele>4118.3</ele>
    <time>2026-06-22T07:13:16Z</time>
   </trkpt>
   <trkpt lat="-3.1007960" lon="37.3390870">
    <ele>4118.3</ele>
    <time>2026-06-22T07:13:17Z</time>
   </trkpt>
   <trkpt lat="-3.1008010" lon="37.3390920">
    <ele>4118.2</ele>
    <time>2026-06-22T07:13:18Z</time>
   </trkpt>
   <trkpt lat="-3.1008080" lon="37.3390990">
    <ele>4118.1</ele>
    <time>2026-06-22T07:13:19Z</time>
   </trkpt>
   <trkpt lat="-3.1008110" lon="37.3391050">
    <ele>4118.0</ele>
    <time>2026-06-22T07:13:20Z</time>
   </trkpt>
   <trkpt lat="-3.1008040" lon="37.3391060">
    <ele>4117.9</ele>
    <time>2026-06-22T07:13:21Z</time>
   </trkpt>
   <trkpt lat="-3.1007990" lon="37.3391110">
    <ele>4117.8</ele>
    <time>2026-06-22T07:13:22Z</time>
   </trkpt>
   <trkpt lat="-3.1007930" lon="37.3391140">
    <ele>4117.8</ele>
    <time>2026-06-22T07:13:23Z</time>
   </trkpt>
   <trkpt lat="-3.1007870" lon="37.3391180">
    <ele>4117.7</ele>
    <time>2026-06-22T07:13:24Z</time>
   </trkpt>
   <trkpt lat="-3.1007880" lon="37.3391200">
    <ele>4117.7</ele>
    <time>2026-06-22T07:13:25Z</time>
   </trkpt>
   <trkpt lat="-3.1007910" lon="37.3391240">
    <ele>4117.6</ele>
    <time>2026-06-22T07:13:26Z</time>
   </trkpt>
   <trkpt lat="-3.1007960" lon="37.3391260">
    <ele>4117.5</ele>
    <time>2026-06-22T07:13:27Z</time>
   </trkpt>
   <trkpt lat="-3.1008000" lon="37.3391290">
    <ele>4117.5</ele>
    <time>2026-06-22T07:13:28Z</time>
   </trkpt>
   <trkpt lat="-3.1008060" lon="37.3391330">
    <ele>4117.4</ele>
    <time>2026-06-22T07:13:29Z</time>
   </trkpt>
   <trkpt lat="-3.1008120" lon="37.3391350">
    <ele>4117.3</ele>
    <time>2026-06-22T07:13:30Z</time>
   </trkpt>
   <trkpt lat="-3.1008230" lon="37.3391360">
    <ele>4117.2</ele>
    <time>2026-06-22T07:13:31Z</time>
   </trkpt>
   <trkpt lat="-3.1008290" lon="37.3391380">
    <ele>4117.2</ele>
    <time>2026-06-22T07:13:32Z</time>
   </trkpt>
   <trkpt lat="-3.1008350" lon="37.3391400">
    <ele>4117.1</ele>
    <time>2026-06-22T07:13:33Z</time>
   </trkpt>
   <trkpt lat="-3.1008430" lon="37.3391450">
    <ele>4117.0</ele>
    <time>2026-06-22T07:13:34Z</time>
   </trkpt>
   <trkpt lat="-3.1008410" lon="37.3391510">
    <ele>4116.9</ele>
    <time>2026-06-22T07:13:35Z</time>
   </trkpt>
   <trkpt lat="-3.1008390" lon="37.3391570">
    <ele>4116.9</ele>
    <time>2026-06-22T07:13:36Z</time>
   </trkpt>
   <trkpt lat="-3.1008360" lon="37.3391670">
    <ele>4116.8</ele>
    <time>2026-06-22T07:13:37Z</time>
   </trkpt>
   <trkpt lat="-3.1008370" lon="37.3391720">
    <ele>4116.7</ele>
    <time>2026-06-22T07:13:38Z</time>
   </trkpt>
   <trkpt lat="-3.1008410" lon="37.3391700">
    <ele>4116.7</ele>
    <time>2026-06-22T07:13:39Z</time>
   </trkpt>
   <trkpt lat="-3.1008500" lon="37.3391690">
    <ele>4116.6</ele>
    <time>2026-06-22T07:13:40Z</time>
   </trkpt>
   <trkpt lat="-3.1008570" lon="37.3391680">
    <ele>4116.5</ele>
    <time>2026-06-22T07:13:41Z</time>
   </trkpt>
   <trkpt lat="-3.1008640" lon="37.3391700">
    <ele>4116.4</ele>
    <time>2026-06-22T07:13:42Z</time>
   </trkpt>
   <trkpt lat="-3.1008660" lon="37.3391740">
    <ele>4116.4</ele>
    <time>2026-06-22T07:13:43Z</time>
   </trkpt>
   <trkpt lat="-3.1008690" lon="37.3391820">
    <ele>4116.3</ele>
    <time>2026-06-22T07:13:44Z</time>
   </trkpt>
   <trkpt lat="-3.1008670" lon="37.3391910">
    <ele>4116.2</ele>
    <time>2026-06-22T07:13:45Z</time>
   </trkpt>
   <trkpt lat="-3.1008660" lon="37.3391990">
    <ele>4116.1</ele>
    <time>2026-06-22T07:13:46Z</time>
   </trkpt>
   <trkpt lat="-3.1008670" lon="37.3392060">
    <ele>4116.1</ele>
    <time>2026-06-22T07:13:47Z</time>
   </trkpt>
   <trkpt lat="-3.1008700" lon="37.3392040">
    <ele>4116.0</ele>
    <time>2026-06-22T07:13:48Z</time>
   </trkpt>
   <trkpt lat="-3.1008740" lon="37.3392060">
    <ele>4116.0</ele>
    <time>2026-06-22T07:13:49Z</time>
   </trkpt>
   <trkpt lat="-3.1008790" lon="37.3392060">
    <ele>4116.0</ele>
    <time>2026-06-22T07:13:50Z</time>
   </trkpt>
   <trkpt lat="-3.1008900" lon="37.3392080">
    <ele>4115.8</ele>
    <time>2026-06-22T07:13:51Z</time>
   </trkpt>
   <trkpt lat="-3.1008960" lon="37.3392060">
    <ele>4115.8</ele>
    <time>2026-06-22T07:13:52Z</time>
   </trkpt>
   <trkpt lat="-3.1009030" lon="37.3392100">
    <ele>4115.7</ele>
    <time>2026-06-22T07:13:53Z</time>
   </trkpt>
   <trkpt lat="-3.1009110" lon="37.3392150">
    <ele>4115.6</ele>
    <time>2026-06-22T07:13:54Z</time>
   </trkpt>
   <trkpt lat="-3.1009150" lon="37.3392190">
    <ele>4115.6</ele>
    <time>2026-06-22T07:13:55Z</time>
   </trkpt>
   <trkpt lat="-3.1009210" lon="37.3392260">
    <ele>4115.5</ele>
    <time>2026-06-22T07:13:56Z</time>
   </trkpt>
   <trkpt lat="-3.1009270" lon="37.3392340">
    <ele>4115.4</ele>
    <time>2026-06-22T07:13:57Z</time>
   </trkpt>
   <trkpt lat="-3.1009310" lon="37.3392400">
    <ele>4115.3</ele>
    <time>2026-06-22T07:13:58Z</time>
   </trkpt>
   <trkpt lat="-3.1009350" lon="37.3392480">
    <ele>4115.2</ele>
    <time>2026-06-22T07:13:59Z</time>
   </trkpt>
   <trkpt lat="-3.1009370" lon="37.3392550">
    <ele>4115.2</ele>
    <time>2026-06-22T07:14:00Z</time>
   </trkpt>
   <trkpt lat="-3.1009420" lon="37.3392620">
    <ele>4115.1</ele>
    <time>2026-06-22T07:14:01Z</time>
   </trkpt>
   <trkpt lat="-3.1009460" lon="37.3392690">
    <ele>4115.0</ele>
    <time>2026-06-22T07:14:02Z</time>
   </trkpt>
   <trkpt lat="-3.1009500" lon="37.3392770">
    <ele>4114.9</ele>
    <time>2026-06-22T07:14:03Z</time>
   </trkpt>
   <trkpt lat="-3.1009560" lon="37.3392860">
    <ele>4114.8</ele>
    <time>2026-06-22T07:14:04Z</time>
   </trkpt>
   <trkpt lat="-3.1009600" lon="37.3392930">
    <ele>4114.8</ele>
    <time>2026-06-22T07:14:05Z</time>
   </trkpt>
   <trkpt lat="-3.1009620" lon="37.3393050">
    <ele>4114.6</ele>
    <time>2026-06-22T07:14:06Z</time>
   </trkpt>
   <trkpt lat="-3.1009650" lon="37.3393130">
    <ele>4114.6</ele>
    <time>2026-06-22T07:14:07Z</time>
   </trkpt>
   <trkpt lat="-3.1009710" lon="37.3393190">
    <ele>4114.5</ele>
    <time>2026-06-22T07:14:08Z</time>
   </trkpt>
   <trkpt lat="-3.1009780" lon="37.3393240">
    <ele>4114.4</ele>
    <time>2026-06-22T07:14:09Z</time>
   </trkpt>
   <trkpt lat="-3.1009900" lon="37.3393310">
    <ele>4114.3</ele>
    <time>2026-06-22T07:14:10Z</time>
   </trkpt>
   <trkpt lat="-3.1009940" lon="37.3393360">
    <ele>4114.2</ele>
    <time>2026-06-22T07:14:11Z</time>
   </trkpt>
   <trkpt lat="-3.1009930" lon="37.3393430">
    <ele>4114.1</ele>
    <time>2026-06-22T07:14:12Z</time>
   </trkpt>
   <trkpt lat="-3.1009940" lon="37.3393560">
    <ele>4114.0</ele>
    <time>2026-06-22T07:14:13Z</time>
   </trkpt>
   <trkpt lat="-3.1009910" lon="37.3393680">
    <ele>4113.9</ele>
    <time>2026-06-22T07:14:14Z</time>
   </trkpt>
   <trkpt lat="-3.1009880" lon="37.3393760">
    <ele>4113.8</ele>
    <time>2026-06-22T07:14:15Z</time>
   </trkpt>
   <trkpt lat="-3.1009870" lon="37.3393850">
    <ele>4113.7</ele>
    <time>2026-06-22T07:14:16Z</time>
   </trkpt>
   <trkpt lat="-3.1009880" lon="37.3393950">
    <ele>4113.6</ele>
    <time>2026-06-22T07:14:17Z</time>
   </trkpt>
   <trkpt lat="-3.1009910" lon="37.3394010">
    <ele>4113.6</ele>
    <time>2026-06-22T07:14:18Z</time>
   </trkpt>
   <trkpt lat="-3.1009920" lon="37.3394070">
    <ele>4113.5</ele>
    <time>2026-06-22T07:14:19Z</time>
   </trkpt>
   <trkpt lat="-3.1009920" lon="37.3394170">
    <ele>4113.4</ele>
    <time>2026-06-22T07:14:20Z</time>
   </trkpt>
   <trkpt lat="-3.1009950" lon="37.3394270">
    <ele>4113.3</ele>
    <time>2026-06-22T07:14:21Z</time>
   </trkpt>
   <trkpt lat="-3.1009990" lon="37.3394340">
    <ele>4113.3</ele>
    <time>2026-06-22T07:14:22Z</time>
   </trkpt>
   <trkpt lat="-3.1010010" lon="37.3394420">
    <ele>4113.2</ele>
    <time>2026-06-22T07:14:23Z</time>
   </trkpt>
   <trkpt lat="-3.1010070" lon="37.3394500">
    <ele>4113.1</ele>
    <time>2026-06-22T07:14:24Z</time>
   </trkpt>
   <trkpt lat="-3.1010120" lon="37.3394560">
    <ele>4113.0</ele>
    <time>2026-06-22T07:14:25Z</time>
   </trkpt>
   <trkpt lat="-3.1010140" lon="37.3394630">
    <ele>4112.9</ele>
    <time>2026-06-22T07:14:26Z</time>
   </trkpt>
   <trkpt lat="-3.1010180" lon="37.3394720">
    <ele>4112.8</ele>
    <time>2026-06-22T07:14:27Z</time>
   </trkpt>
   <trkpt lat="-3.1010210" lon="37.3394780">
    <ele>4112.8</ele>
    <time>2026-06-22T07:14:28Z</time>
   </trkpt>
   <trkpt lat="-3.1010240" lon="37.3394880">
    <ele>4112.7</ele>
    <time>2026-06-22T07:14:29Z</time>
   </trkpt>
   <trkpt lat="-3.1010270" lon="37.3394960">
    <ele>4112.6</ele>
    <time>2026-06-22T07:14:30Z</time>
   </trkpt>
   <trkpt lat="-3.1010300" lon="37.3395050">
    <ele>4112.5</ele>
    <time>2026-06-22T07:14:31Z</time>
   </trkpt>
   <trkpt lat="-3.1010300" lon="37.3395100">
    <ele>4112.4</ele>
    <time>2026-06-22T07:14:32Z</time>
   </trkpt>
   <trkpt lat="-3.1010310" lon="37.3395180">
    <ele>4112.3</ele>
    <time>2026-06-22T07:14:33Z</time>
   </trkpt>
   <trkpt lat="-3.1010310" lon="37.3395280">
    <ele>4112.2</ele>
    <time>2026-06-22T07:14:34Z</time>
   </trkpt>
   <trkpt lat="-3.1010330" lon="37.3395350">
    <ele>4112.2</ele>
    <time>2026-06-22T07:14:35Z</time>
   </trkpt>
   <trkpt lat="-3.1010340" lon="37.3395430">
    <ele>4112.1</ele>
    <time>2026-06-22T07:14:36Z</time>
   </trkpt>
   <trkpt lat="-3.1010360" lon="37.3395480">
    <ele>4112.0</ele>
    <time>2026-06-22T07:14:37Z</time>
   </trkpt>
   <trkpt lat="-3.1010380" lon="37.3395560">
    <ele>4112.0</ele>
    <time>2026-06-22T07:14:38Z</time>
   </trkpt>
   <trkpt lat="-3.1010410" lon="37.3395640">
    <ele>4111.9</ele>
    <time>2026-06-22T07:14:39Z</time>
   </trkpt>
   <trkpt lat="-3.1010470" lon="37.3395740">
    <ele>4111.8</ele>
    <time>2026-06-22T07:14:40Z</time>
   </trkpt>
   <trkpt lat="-3.1010500" lon="37.3395820">
    <ele>4111.7</ele>
    <time>2026-06-22T07:14:41Z</time>
   </trkpt>
   <trkpt lat="-3.1010530" lon="37.3395900">
    <ele>4111.6</ele>
    <time>2026-06-22T07:14:42Z</time>
   </trkpt>
   <trkpt lat="-3.1010580" lon="37.3396010">
    <ele>4111.5</ele>
    <time>2026-06-22T07:14:43Z</time>
   </trkpt>
   <trkpt lat="-3.1010570" lon="37.3396060">
    <ele>4111.4</ele>
    <time>2026-06-22T07:14:44Z</time>
   </trkpt>
   <trkpt lat="-3.1010540" lon="37.3396160">
    <ele>4111.3</ele>
    <time>2026-06-22T07:14:45Z</time>
   </trkpt>
   <trkpt lat="-3.1010530" lon="37.3396240">
    <ele>4111.2</ele>
    <time>2026-06-22T07:14:46Z</time>
   </trkpt>
   <trkpt lat="-3.1010520" lon="37.3396350">
    <ele>4111.1</ele>
    <time>2026-06-22T07:14:47Z</time>
   </trkpt>
   <trkpt lat="-3.1010510" lon="37.3396410">
    <ele>4111.1</ele>
    <time>2026-06-22T07:14:48Z</time>
   </trkpt>
   <trkpt lat="-3.1010490" lon="37.3396480">
    <ele>4111.0</ele>
    <time>2026-06-22T07:14:49Z</time>
   </trkpt>
   <trkpt lat="-3.1010460" lon="37.3396580">
    <ele>4110.9</ele>
    <time>2026-06-22T07:14:50Z</time>
   </trkpt>
   <trkpt lat="-3.1010410" lon="37.3396640">
    <ele>4110.8</ele>
    <time>2026-06-22T07:14:51Z</time>
   </trkpt>
   <trkpt lat="-3.1010360" lon="37.3396720">
    <ele>4110.7</ele>
    <time>2026-06-22T07:14:52Z</time>
   </trkpt>
   <trkpt lat="-3.1010320" lon="37.3396800">
    <ele>4110.6</ele>
    <time>2026-06-22T07:14:53Z</time>
   </trkpt>
   <trkpt lat="-3.1010320" lon="37.3396880">
    <ele>4110.6</ele>
    <time>2026-06-22T07:14:54Z</time>
   </trkpt>
   <trkpt lat="-3.1010290" lon="37.3397000">
    <ele>4110.4</ele>
    <time>2026-06-22T07:14:55Z</time>
   </trkpt>
   <trkpt lat="-3.1010310" lon="37.3397090">
    <ele>4110.3</ele>
    <time>2026-06-22T07:14:56Z</time>
   </trkpt>
   <trkpt lat="-3.1010300" lon="37.3397160">
    <ele>4110.3</ele>
    <time>2026-06-22T07:14:57Z</time>
   </trkpt>
   <trkpt lat="-3.1010320" lon="37.3397270">
    <ele>4110.2</ele>
    <time>2026-06-22T07:14:58Z</time>
   </trkpt>
   <trkpt lat="-3.1010330" lon="37.3397380">
    <ele>4110.0</ele>
    <time>2026-06-22T07:14:59Z</time>
   </trkpt>
   <trkpt lat="-3.1010340" lon="37.3397450">
    <ele>4110.0</ele>
    <time>2026-06-22T07:15:00Z</time>
   </trkpt>
   <trkpt lat="-3.1010330" lon="37.3397520">
    <ele>4109.9</ele>
    <time>2026-06-22T07:15:02Z</time>
   </trkpt>
   <trkpt lat="-3.1010390" lon="37.3397610">
    <ele>4109.8</ele>
    <time>2026-06-22T07:15:03Z</time>
   </trkpt>
   <trkpt lat="-3.1010450" lon="37.3397630">
    <ele>4109.7</ele>
    <time>2026-06-22T07:15:04Z</time>
   </trkpt>
   <trkpt lat="-3.1010520" lon="37.3397660">
    <ele>4109.7</ele>
    <time>2026-06-22T07:15:05Z</time>
   </trkpt>
   <trkpt lat="-3.1010580" lon="37.3397700">
    <ele>4109.6</ele>
    <time>2026-06-22T07:15:06Z</time>
   </trkpt>
   <trkpt lat="-3.1010660" lon="37.3397730">
    <ele>4109.5</ele>
    <time>2026-06-22T07:15:07Z</time>
   </trkpt>
   <trkpt lat="-3.1010720" lon="37.3397750">
    <ele>4109.5</ele>
    <time>2026-06-22T07:15:08Z</time>
   </trkpt>
   <trkpt lat="-3.1010720" lon="37.3397780">
    <ele>4109.4</ele>
    <time>2026-06-22T07:15:09Z</time>
   </trkpt>
   <trkpt lat="-3.1010740" lon="37.3397880">
    <ele>4109.3</ele>
    <time>2026-06-22T07:15:10Z</time>
   </trkpt>
   <trkpt lat="-3.1010740" lon="37.3397960">
    <ele>4109.3</ele>
    <time>2026-06-22T07:15:11Z</time>
   </trkpt>
   <trkpt lat="-3.1010790" lon="37.3398030">
    <ele>4109.2</ele>
    <time>2026-06-22T07:15:12Z</time>
   </trkpt>
   <trkpt lat="-3.1010830" lon="37.3398110">
    <ele>4109.1</ele>
    <time>2026-06-22T07:15:13Z</time>
   </trkpt>
   <trkpt lat="-3.1010830" lon="37.3398160">
    <ele>4109.0</ele>
    <time>2026-06-22T07:15:14Z</time>
   </trkpt>
   <trkpt lat="-3.1010870" lon="37.3398250">
    <ele>4109.0</ele>
    <time>2026-06-22T07:15:15Z</time>
   </trkpt>
   <trkpt lat="-3.1010860" lon="37.3398350">
    <ele>4108.9</ele>
    <time>2026-06-22T07:15:16Z</time>
   </trkpt>
   <trkpt lat="-3.1010860" lon="37.3398400">
    <ele>4108.8</ele>
    <time>2026-06-22T07:15:17Z</time>
   </trkpt>
   <trkpt lat="-3.1010860" lon="37.3398450">
    <ele>4108.8</ele>
    <time>2026-06-22T07:15:18Z</time>
   </trkpt>
   <trkpt lat="-3.1010880" lon="37.3398510">
    <ele>4108.7</ele>
    <time>2026-06-22T07:15:19Z</time>
   </trkpt>
   <trkpt lat="-3.1010890" lon="37.3398550">
    <ele>4108.7</ele>
    <time>2026-06-22T07:15:20Z</time>
   </trkpt>
   <trkpt lat="-3.1010920" lon="37.3398620">
    <ele>4108.6</ele>
    <time>2026-06-22T07:15:21Z</time>
   </trkpt>
   <trkpt lat="-3.1010970" lon="37.3398670">
    <ele>4108.6</ele>
    <time>2026-06-22T07:15:22Z</time>
   </trkpt>
   <trkpt lat="-3.1010990" lon="37.3398770">
    <ele>4108.5</ele>
    <time>2026-06-22T07:15:23Z</time>
   </trkpt>
   <trkpt lat="-3.1010980" lon="37.3398870">
    <ele>4108.4</ele>
    <time>2026-06-22T07:15:24Z</time>
   </trkpt>
   <trkpt lat="-3.1010980" lon="37.3398970">
    <ele>4108.3</ele>
    <time>2026-06-22T07:15:25Z</time>
   </trkpt>
   <trkpt lat="-3.1011000" lon="37.3399030">
    <ele>4108.3</ele>
    <time>2026-06-22T07:15:26Z</time>
   </trkpt>
   <trkpt lat="-3.1011000" lon="37.3399100">
    <ele>4108.2</ele>
    <time>2026-06-22T07:15:27Z</time>
   </trkpt>
   <trkpt lat="-3.1011000" lon="37.3399210">
    <ele>4108.1</ele>
    <time>2026-06-22T07:15:28Z</time>
   </trkpt>
   <trkpt lat="-3.1011010" lon="37.3399270">
    <ele>4108.1</ele>
    <time>2026-06-22T07:15:29Z</time>
   </trkpt>
   <trkpt lat="-3.1011010" lon="37.3399320">
    <ele>4108.0</ele>
    <time>2026-06-22T07:15:30Z</time>
   </trkpt>
   <trkpt lat="-3.1011040" lon="37.3399390">
    <ele>4108.0</ele>
    <time>2026-06-22T07:15:31Z</time>
   </trkpt>
   <trkpt lat="-3.1011070" lon="37.3399490">
    <ele>4107.9</ele>
    <time>2026-06-22T07:15:32Z</time>
   </trkpt>
   <trkpt lat="-3.1011100" lon="37.3399530">
    <ele>4107.9</ele>
    <time>2026-06-22T07:15:33Z</time>
   </trkpt>
   <trkpt lat="-3.1011120" lon="37.3399520">
    <ele>4107.8</ele>
    <time>2026-06-22T07:15:34Z</time>
   </trkpt>
   <trkpt lat="-3.1011170" lon="37.3399540">
    <ele>4107.8</ele>
    <time>2026-06-22T07:15:35Z</time>
   </trkpt>
   <trkpt lat="-3.1011200" lon="37.3399570">
    <ele>4107.8</ele>
    <time>2026-06-22T07:15:36Z</time>
   </trkpt>
   <trkpt lat="-3.1011240" lon="37.3399620">
    <ele>4107.7</ele>
    <time>2026-06-22T07:15:37Z</time>
   </trkpt>
   <trkpt lat="-3.1011300" lon="37.3399730">
    <ele>4107.6</ele>
    <time>2026-06-22T07:15:38Z</time>
   </trkpt>
   <trkpt lat="-3.1011310" lon="37.3399770">
    <ele>4107.6</ele>
    <time>2026-06-22T07:15:39Z</time>
   </trkpt>
   <trkpt lat="-3.1011370" lon="37.3399860">
    <ele>4107.5</ele>
    <time>2026-06-22T07:15:40Z</time>
   </trkpt>
   <trkpt lat="-3.1011380" lon="37.3399920">
    <ele>4107.5</ele>
    <time>2026-06-22T07:15:41Z</time>
   </trkpt>
   <trkpt lat="-3.1011400" lon="37.3399980">
    <ele>4107.5</ele>
    <time>2026-06-22T07:15:42Z</time>
   </trkpt>
   <trkpt lat="-3.1011420" lon="37.3400030">
    <ele>4107.4</ele>
    <time>2026-06-22T07:15:43Z</time>
   </trkpt>
   <trkpt lat="-3.1011460" lon="37.3400100">
    <ele>4107.4</ele>
    <time>2026-06-22T07:15:44Z</time>
   </trkpt>
   <trkpt lat="-3.1011440" lon="37.3400130">
    <ele>4107.3</ele>
    <time>2026-06-22T07:15:45Z</time>
   </trkpt>
   <trkpt lat="-3.1011430" lon="37.3400200">
    <ele>4107.3</ele>
    <time>2026-06-22T07:15:46Z</time>
   </trkpt>
   <trkpt lat="-3.1011430" lon="37.3400250">
    <ele>4107.3</ele>
    <time>2026-06-22T07:15:47Z</time>
   </trkpt>
   <trkpt lat="-3.1011420" lon="37.3400280">
    <ele>4107.2</ele>
    <time>2026-06-22T07:15:48Z</time>
   </trkpt>
   <trkpt lat="-3.1011430" lon="37.3400380">
    <ele>4107.2</ele>
    <time>2026-06-22T07:15:49Z</time>
   </trkpt>
   <trkpt lat="-3.1011440" lon="37.3400480">
    <ele>4107.1</ele>
    <time>2026-06-22T07:15:50Z</time>
   </trkpt>
   <trkpt lat="-3.1011430" lon="37.3400540">
    <ele>4107.1</ele>
    <time>2026-06-22T07:15:51Z</time>
   </trkpt>
   <trkpt lat="-3.1011440" lon="37.3400550">
    <ele>4107.1</ele>
    <time>2026-06-22T07:15:52Z</time>
   </trkpt>
   <trkpt lat="-3.1011460" lon="37.3400600">
    <ele>4107.1</ele>
    <time>2026-06-22T07:15:53Z</time>
   </trkpt>
   <trkpt lat="-3.1011510" lon="37.3400620">
    <ele>4107.0</ele>
    <time>2026-06-22T07:15:54Z</time>
   </trkpt>
   <trkpt lat="-3.1011530" lon="37.3400640">
    <ele>4107.0</ele>
    <time>2026-06-22T07:15:55Z</time>
   </trkpt>
   <trkpt lat="-3.1011550" lon="37.3400610">
    <ele>4107.0</ele>
    <time>2026-06-22T07:15:56Z</time>
   </trkpt>
   <trkpt lat="-3.1011690" lon="37.3400600">
    <ele>4106.9</ele>
    <time>2026-06-22T07:15:57Z</time>
   </trkpt>
   <trkpt lat="-3.1011780" lon="37.3400640">
    <ele>4106.9</ele>
    <time>2026-06-22T07:15:58Z</time>
   </trkpt>
   <trkpt lat="-3.1011780" lon="37.3400690">
    <ele>4106.8</ele>
    <time>2026-06-22T07:15:59Z</time>
   </trkpt>
   <trkpt lat="-3.1011800" lon="37.3400790">
    <ele>4106.8</ele>
    <time>2026-06-22T07:16:00Z</time>
   </trkpt>
   <trkpt lat="-3.1011790" lon="37.3400860">
    <ele>4106.8</ele>
    <time>2026-06-22T07:16:01Z</time>
   </trkpt>
   <trkpt lat="-3.1011740" lon="37.3400900">
    <ele>4106.7</ele>
    <time>2026-06-22T07:16:02Z</time>
   </trkpt>
   <trkpt lat="-3.1011750" lon="37.3400950">
    <ele>4106.7</ele>
    <time>2026-06-22T07:16:03Z</time>
   </trkpt>
   <trkpt lat="-3.1011830" lon="37.3400990">
    <ele>4106.7</ele>
    <time>2026-06-22T07:16:04Z</time>
   </trkpt>
   <trkpt lat="-3.1011900" lon="37.3401060">
    <ele>4106.6</ele>
    <time>2026-06-22T07:16:05Z</time>
   </trkpt>
   <trkpt lat="-3.1011890" lon="37.3401100">
    <ele>4106.6</ele>
    <time>2026-06-22T07:16:06Z</time>
   </trkpt>
   <trkpt lat="-3.1011910" lon="37.3401130">
    <ele>4106.6</ele>
    <time>2026-06-22T07:16:07Z</time>
   </trkpt>
   <trkpt lat="-3.1011920" lon="37.3401160">
    <ele>4106.6</ele>
    <time>2026-06-22T07:16:08Z</time>
   </trkpt>
   <trkpt lat="-3.1011940" lon="37.3401220">
    <ele>4106.6</ele>
    <time>2026-06-22T07:16:09Z</time>
   </trkpt>
   <trkpt lat="-3.1011930" lon="37.3401310">
    <ele>4106.5</ele>
    <time>2026-06-22T07:16:10Z</time>
   </trkpt>
   <trkpt lat="-3.1011890" lon="37.3401370">
    <ele>4106.5</ele>
    <time>2026-06-22T07:16:11Z</time>
   </trkpt>
   <trkpt lat="-3.1011820" lon="37.3401410">
    <ele>4106.5</ele>
    <time>2026-06-22T07:16:12Z</time>
   </trkpt>
   <trkpt lat="-3.1011780" lon="37.3401430">
    <ele>4106.5</ele>
    <time>2026-06-22T07:16:13Z</time>
   </trkpt>
   <trkpt lat="-3.1011750" lon="37.3401480">
    <ele>4106.4</ele>
    <time>2026-06-22T07:16:14Z</time>
   </trkpt>
   <trkpt lat="-3.1011780" lon="37.3401510">
    <ele>4106.4</ele>
    <time>2026-06-22T07:16:15Z</time>
   </trkpt>
   <trkpt lat="-3.1011800" lon="37.3401570">
    <ele>4106.4</ele>
    <time>2026-06-22T07:16:16Z</time>
   </trkpt>
   <trkpt lat="-3.1011820" lon="37.3401610">
    <ele>4106.4</ele>
    <time>2026-06-22T07:16:17Z</time>
   </trkpt>
   <trkpt lat="-3.1011820" lon="37.3401640">
    <ele>4106.4</ele>
    <time>2026-06-22T07:16:18Z</time>
   </trkpt>
   <trkpt lat="-3.1011840" lon="37.3401680">
    <ele>4106.4</ele>
    <time>2026-06-22T07:16:19Z</time>
   </trkpt>
   <trkpt lat="-3.1011880" lon="37.3401750">
    <ele>4106.3</ele>
    <time>2026-06-22T07:16:20Z</time>
   </trkpt>
   <trkpt lat="-3.1011900" lon="37.3401860">
    <ele>4106.3</ele>
    <time>2026-06-22T07:16:21Z</time>
   </trkpt>
   <trkpt lat="-3.1011910" lon="37.3401900">
    <ele>4106.3</ele>
    <time>2026-06-22T07:16:22Z</time>
   </trkpt>
   <trkpt lat="-3.1011900" lon="37.3402020">
    <ele>4106.3</ele>
    <time>2026-06-22T07:16:23Z</time>
   </trkpt>
   <trkpt lat="-3.1011860" lon="37.3402080">
    <ele>4106.2</ele>
    <time>2026-06-22T07:16:24Z</time>
   </trkpt>
   <trkpt lat="-3.1011810" lon="37.3402100">
    <ele>4106.2</ele>
    <time>2026-06-22T07:16:25Z</time>
   </trkpt>
   <trkpt lat="-3.1011790" lon="37.3402150">
    <ele>4106.2</ele>
    <time>2026-06-22T07:16:26Z</time>
   </trkpt>
   <trkpt lat="-3.1011790" lon="37.3402200">
    <ele>4106.2</ele>
    <time>2026-06-22T07:16:27Z</time>
   </trkpt>
   <trkpt lat="-3.1011780" lon="37.3402260">
    <ele>4106.2</ele>
    <time>2026-06-22T07:16:28Z</time>
   </trkpt>
   <trkpt lat="-3.1011780" lon="37.3402240">
    <ele>4106.2</ele>
    <time>2026-06-22T07:16:29Z</time>
   </trkpt>
   <trkpt lat="-3.1011810" lon="37.3402290">
    <ele>4106.2</ele>
    <time>2026-06-22T07:16:30Z</time>
   </trkpt>
   <trkpt lat="-3.1011800" lon="37.3402320">
    <ele>4106.1</ele>
    <time>2026-06-22T07:16:31Z</time>
   </trkpt>
   <trkpt lat="-3.1011860" lon="37.3402320">
    <ele>4106.1</ele>
    <time>2026-06-22T07:16:32Z</time>
   </trkpt>
   <trkpt lat="-3.1011900" lon="37.3402340">
    <ele>4106.1</ele>
    <time>2026-06-22T07:16:33Z</time>
   </trkpt>
   <trkpt lat="-3.1011950" lon="37.3402380">
    <ele>4106.1</ele>
    <time>2026-06-22T07:16:34Z</time>
   </trkpt>
   <trkpt lat="-3.1011980" lon="37.3402430">
    <ele>4106.1</ele>
    <time>2026-06-22T07:16:35Z</time>
   </trkpt>
   <trkpt lat="-3.1012040" lon="37.3402500">
    <ele>4106.1</ele>
    <time>2026-06-22T07:16:36Z</time>
   </trkpt>
   <trkpt lat="-3.1012160" lon="37.3402560">
    <ele>4106.0</ele>
    <time>2026-06-22T07:16:37Z</time>
   </trkpt>
   <trkpt lat="-3.1012210" lon="37.3402580">
    <ele>4106.0</ele>
    <time>2026-06-22T07:16:38Z</time>
   </trkpt>
   <trkpt lat="-3.1012250" lon="37.3402620">
    <ele>4106.0</ele>
    <time>2026-06-22T07:16:39Z</time>
   </trkpt>
   <trkpt lat="-3.1012290" lon="37.3402680">
    <ele>4106.0</ele>
    <time>2026-06-22T07:16:40Z</time>
   </trkpt>
   <trkpt lat="-3.1012260" lon="37.3402680">
    <ele>4106.0</ele>
    <time>2026-06-22T07:16:41Z</time>
   </trkpt>
   <trkpt lat="-3.1012260" lon="37.3402690">
    <ele>4106.0</ele>
    <time>2026-06-22T07:16:42Z</time>
   </trkpt>
   <trkpt lat="-3.1012310" lon="37.3402790">
    <ele>4106.0</ele>
    <time>2026-06-22T07:16:43Z</time>
   </trkpt>
   <trkpt lat="-3.1012340" lon="37.3402900">
    <ele>4105.9</ele>
    <time>2026-06-22T07:16:44Z</time>
   </trkpt>
   <trkpt lat="-3.1012370" lon="37.3402970">
    <ele>4105.9</ele>
    <time>2026-06-22T07:16:45Z</time>
   </trkpt>
   <trkpt lat="-3.1012420" lon="37.3403080">
    <ele>4105.9</ele>
    <time>2026-06-22T07:16:46Z</time>
   </trkpt>
   <trkpt lat="-3.1012430" lon="37.3403160">
    <ele>4105.9</ele>
    <time>2026-06-22T07:16:47Z</time>
   </trkpt>
   <trkpt lat="-3.1012450" lon="37.3403260">
    <ele>4105.9</ele>
    <time>2026-06-22T07:16:48Z</time>
   </trkpt>
   <trkpt lat="-3.1012460" lon="37.3403390">
    <ele>4105.8</ele>
    <time>2026-06-22T07:16:49Z</time>
   </trkpt>
   <trkpt lat="-3.1012480" lon="37.3403460">
    <ele>4105.8</ele>
    <time>2026-06-22T07:16:50Z</time>
   </trkpt>
   <trkpt lat="-3.1012490" lon="37.3403540">
    <ele>4105.8</ele>
    <time>2026-06-22T07:16:51Z</time>
   </trkpt>
   <trkpt lat="-3.1012500" lon="37.3403640">
    <ele>4105.8</ele>
    <time>2026-06-22T07:16:52Z</time>
   </trkpt>
   <trkpt lat="-3.1012520" lon="37.3403720">
    <ele>4105.8</ele>
    <time>2026-06-22T07:16:53Z</time>
   </trkpt>
   <trkpt lat="-3.1012560" lon="37.3403820">
    <ele>4105.7</ele>
    <time>2026-06-22T07:16:54Z</time>
   </trkpt>
   <trkpt lat="-3.1012570" lon="37.3403880">
    <ele>4105.7</ele>
    <time>2026-06-22T07:16:55Z</time>
   </trkpt>
   <trkpt lat="-3.1012590" lon="37.3403930">
    <ele>4105.7</ele>
    <time>2026-06-22T07:16:56Z</time>
   </trkpt>
   <trkpt lat="-3.1012630" lon="37.3404020">
    <ele>4105.7</ele>
    <time>2026-06-22T07:16:57Z</time>
   </trkpt>
   <trkpt lat="-3.1012670" lon="37.3404130">
    <ele>4105.7</ele>
    <time>2026-06-22T07:16:58Z</time>
   </trkpt>
   <trkpt lat="-3.1012720" lon="37.3404220">
    <ele>4105.6</ele>
    <time>2026-06-22T07:16:59Z</time>
   </trkpt>
   <trkpt lat="-3.1012750" lon="37.3404310">
    <ele>4105.6</ele>
    <time>2026-06-22T07:17:00Z</time>
   </trkpt>
   <trkpt lat="-3.1012800" lon="37.3404410">
    <ele>4105.6</ele>
    <time>2026-06-22T07:17:01Z</time>
   </trkpt>
   <trkpt lat="-3.1012860" lon="37.3404450">
    <ele>4105.6</ele>
    <time>2026-06-22T07:17:02Z</time>
   </trkpt>
   <trkpt lat="-3.1012900" lon="37.3404560">
    <ele>4105.6</ele>
    <time>2026-06-22T07:17:03Z</time>
   </trkpt>
   <trkpt lat="-3.1012940" lon="37.3404690">
    <ele>4105.5</ele>
    <time>2026-06-22T07:17:04Z</time>
   </trkpt>
   <trkpt lat="-3.1012920" lon="37.3404790">
    <ele>4105.5</ele>
    <time>2026-06-22T07:17:05Z</time>
   </trkpt>
   <trkpt lat="-3.1012910" lon="37.3404900">
    <ele>4105.5</ele>
    <time>2026-06-22T07:17:06Z</time>
   </trkpt>
   <trkpt lat="-3.1012930" lon="37.3404970">
    <ele>4105.5</ele>
    <time>2026-06-22T07:17:08Z</time>
   </trkpt>
   <trkpt lat="-3.1012970" lon="37.3405050">
    <ele>4105.4</ele>
    <time>2026-06-22T07:17:09Z</time>
   </trkpt>
   <trkpt lat="-3.1013000" lon="37.3405150">
    <ele>4105.4</ele>
    <time>2026-06-22T07:17:10Z</time>
   </trkpt>
   <trkpt lat="-3.1012970" lon="37.3405240">
    <ele>4105.4</ele>
    <time>2026-06-22T07:17:11Z</time>
   </trkpt>
   <trkpt lat="-3.1012930" lon="37.3405340">
    <ele>4105.4</ele>
    <time>2026-06-22T07:17:12Z</time>
   </trkpt>
   <trkpt lat="-3.1012920" lon="37.3405400">
    <ele>4105.3</ele>
    <time>2026-06-22T07:17:13Z</time>
   </trkpt>
   <trkpt lat="-3.1012980" lon="37.3405490">
    <ele>4105.3</ele>
    <time>2026-06-22T07:17:14Z</time>
   </trkpt>
   <trkpt lat="-3.1013060" lon="37.3405580">
    <ele>4105.3</ele>
    <time>2026-06-22T07:17:15Z</time>
   </trkpt>
   <trkpt lat="-3.1013090" lon="37.3405700">
    <ele>4105.2</ele>
    <time>2026-06-22T07:17:16Z</time>
   </trkpt>
   <trkpt lat="-3.1013100" lon="37.3405740">
    <ele>4105.2</ele>
    <time>2026-06-22T07:17:17Z</time>
   </trkpt>
   <trkpt lat="-3.1013090" lon="37.3405830">
    <ele>4105.2</ele>
    <time>2026-06-22T07:17:18Z</time>
   </trkpt>
   <trkpt lat="-3.1013110" lon="37.3405910">
    <ele>4105.2</ele>
    <time>2026-06-22T07:17:19Z</time>
   </trkpt>
   <trkpt lat="-3.1013120" lon="37.3405950">
    <ele>4105.2</ele>
    <time>2026-06-22T07:17:20Z</time>
   </trkpt>
   <trkpt lat="-3.1013130" lon="37.3406030">
    <ele>4105.2</ele>
    <time>2026-06-22T07:17:21Z</time>
   </trkpt>
   <trkpt lat="-3.1013140" lon="37.3406100">
    <ele>4105.1</ele>
    <time>2026-06-22T07:17:22Z</time>
   </trkpt>
   <trkpt lat="-3.1013170" lon="37.3406190">
    <ele>4105.1</ele>
    <time>2026-06-22T07:17:23Z</time>
   </trkpt>
   <trkpt lat="-3.1013200" lon="37.3406260">
    <ele>4105.1</ele>
    <time>2026-06-22T07:17:24Z</time>
   </trkpt>
   <trkpt lat="-3.1013210" lon="37.3406350">
    <ele>4105.1</ele>
    <time>2026-06-22T07:17:25Z</time>
   </trkpt>
   <trkpt lat="-3.1013200" lon="37.3406400">
    <ele>4105.0</ele>
    <time>2026-06-22T07:17:26Z</time>
   </trkpt>
   <trkpt lat="-3.1013190" lon="37.3406480">
    <ele>4105.0</ele>
    <time>2026-06-22T07:17:27Z</time>
   </trkpt>
   <trkpt lat="-3.1013170" lon="37.3406550">
    <ele>4105.0</ele>
    <time>2026-06-22T07:17:28Z</time>
   </trkpt>
   <trkpt lat="-3.1013160" lon="37.3406600">
    <ele>4105.0</ele>
    <time>2026-06-22T07:17:29Z</time>
   </trkpt>
   <trkpt lat="-3.1013150" lon="37.3406640">
    <ele>4105.0</ele>
    <time>2026-06-22T07:17:30Z</time>
   </trkpt>
   <trkpt lat="-3.1013130" lon="37.3406680">
    <ele>4105.0</ele>
    <time>2026-06-22T07:17:31Z</time>
   </trkpt>
   <trkpt lat="-3.1013110" lon="37.3406770">
    <ele>4104.9</ele>
    <time>2026-06-22T07:17:32Z</time>
   </trkpt>
   <trkpt lat="-3.1013090" lon="37.3406820">
    <ele>4104.9</ele>
    <time>2026-06-22T07:17:33Z</time>
   </trkpt>
   <trkpt lat="-3.1013060" lon="37.3406860">
    <ele>4104.9</ele>
    <time>2026-06-22T07:17:34Z</time>
   </trkpt>
   <trkpt lat="-3.1013010" lon="37.3406930">
    <ele>4104.9</ele>
    <time>2026-06-22T07:17:35Z</time>
   </trkpt>
   <trkpt lat="-3.1012980" lon="37.3406980">
    <ele>4104.9</ele>
    <time>2026-06-22T07:17:36Z</time>
   </trkpt>
   <trkpt lat="-3.1012930" lon="37.3407010">
    <ele>4104.8</ele>
    <time>2026-06-22T07:17:37Z</time>
   </trkpt>
   <trkpt lat="-3.1012880" lon="37.3407090">
    <ele>4104.8</ele>
    <time>2026-06-22T07:17:38Z</time>
   </trkpt>
   <trkpt lat="-3.1012840" lon="37.3407170">
    <ele>4104.8</ele>
    <time>2026-06-22T07:17:39Z</time>
   </trkpt>
   <trkpt lat="-3.1012830" lon="37.3407230">
    <ele>4104.8</ele>
    <time>2026-06-22T07:17:40Z</time>
   </trkpt>
   <trkpt lat="-3.1012790" lon="37.3407290">
    <ele>4104.7</ele>
    <time>2026-06-22T07:17:41Z</time>
   </trkpt>
   <trkpt lat="-3.1012660" lon="37.3407420">
    <ele>4104.7</ele>
    <time>2026-06-22T07:17:42Z</time>
   </trkpt>
   <trkpt lat="-3.1012600" lon="37.3407500">
    <ele>4104.6</ele>
    <time>2026-06-22T07:17:43Z</time>
   </trkpt>
   <trkpt lat="-3.1012550" lon="37.3407580">
    <ele>4104.6</ele>
    <time>2026-06-22T07:17:44Z</time>
   </trkpt>
   <trkpt lat="-3.1012550" lon="37.3407670">
    <ele>4104.6</ele>
    <time>2026-06-22T07:17:45Z</time>
   </trkpt>
   <trkpt lat="-3.1012550" lon="37.3407740">
    <ele>4104.5</ele>
    <time>2026-06-22T07:17:46Z</time>
   </trkpt>
   <trkpt lat="-3.1012500" lon="37.3407830">
    <ele>4104.5</ele>
    <time>2026-06-22T07:17:47Z</time>
   </trkpt>
   <trkpt lat="-3.1012450" lon="37.3407880">
    <ele>4104.5</ele>
    <time>2026-06-22T07:17:48Z</time>
   </trkpt>
   <trkpt lat="-3.1012400" lon="37.3407950">
    <ele>4104.5</ele>
    <time>2026-06-22T07:17:49Z</time>
   </trkpt>
   <trkpt lat="-3.1012360" lon="37.3408000">
    <ele>4104.4</ele>
    <time>2026-06-22T07:17:50Z</time>
   </trkpt>
   <trkpt lat="-3.1012320" lon="37.3408070">
    <ele>4104.4</ele>
    <time>2026-06-22T07:17:51Z</time>
   </trkpt>
   <trkpt lat="-3.1012300" lon="37.3408140">
    <ele>4104.4</ele>
    <time>2026-06-22T07:17:52Z</time>
   </trkpt>
   <trkpt lat="-3.1012280" lon="37.3408200">
    <ele>4104.4</ele>
    <time>2026-06-22T07:17:53Z</time>
   </trkpt>
   <trkpt lat="-3.1012230" lon="37.3408290">
    <ele>4104.3</ele>
    <time>2026-06-22T07:17:54Z</time>
   </trkpt>
   <trkpt lat="-3.1012160" lon="37.3408370">
    <ele>4104.3</ele>
    <time>2026-06-22T07:17:55Z</time>
   </trkpt>
   <trkpt lat="-3.1012100" lon="37.3408450">
    <ele>4104.2</ele>
    <time>2026-06-22T07:17:56Z</time>
   </trkpt>
   <trkpt lat="-3.1012050" lon="37.3408530">
    <ele>4104.2</ele>
    <time>2026-06-22T07:17:57Z</time>
   </trkpt>
   <trkpt lat="-3.1012020" lon="37.3408610">
    <ele>4104.2</ele>
    <time>2026-06-22T07:17:58Z</time>
   </trkpt>
   <trkpt lat="-3.1012010" lon="37.3408660">
    <ele>4104.1</ele>
    <time>2026-06-22T07:17:59Z</time>
   </trkpt>
   <trkpt lat="-3.1011980" lon="37.3408680">
    <ele>4104.1</ele>
    <time>2026-06-22T07:18:00Z</time>
   </trkpt>
   <trkpt lat="-3.1011950" lon="37.3408760">
    <ele>4104.1</ele>
    <time>2026-06-22T07:18:01Z</time>
   </trkpt>
   <trkpt lat="-3.1011920" lon="37.3408810">
    <ele>4104.1</ele>
    <time>2026-06-22T07:18:02Z</time>
   </trkpt>
   <trkpt lat="-3.1011890" lon="37.3408840">
    <ele>4104.1</ele>
    <time>2026-06-22T07:18:03Z</time>
   </trkpt>
   <trkpt lat="-3.1011840" lon="37.3408890">
    <ele>4104.0</ele>
    <time>2026-06-22T07:18:04Z</time>
   </trkpt>
   <trkpt lat="-3.1011810" lon="37.3408950">
    <ele>4104.0</ele>
    <time>2026-06-22T07:18:05Z</time>
   </trkpt>
   <trkpt lat="-3.1011780" lon="37.3409030">
    <ele>4104.0</ele>
    <time>2026-06-22T07:18:06Z</time>
   </trkpt>
   <trkpt lat="-3.1011790" lon="37.3409110">
    <ele>4103.9</ele>
    <time>2026-06-22T07:18:07Z</time>
   </trkpt>
   <trkpt lat="-3.1011820" lon="37.3409230">
    <ele>4103.9</ele>
    <time>2026-06-22T07:18:08Z</time>
   </trkpt>
   <trkpt lat="-3.1011790" lon="37.3409280">
    <ele>4103.9</ele>
    <time>2026-06-22T07:18:09Z</time>
   </trkpt>
   <trkpt lat="-3.1011760" lon="37.3409380">
    <ele>4103.8</ele>
    <time>2026-06-22T07:18:10Z</time>
   </trkpt>
   <trkpt lat="-3.1011710" lon="37.3409490">
    <ele>4103.8</ele>
    <time>2026-06-22T07:18:11Z</time>
   </trkpt>
   <trkpt lat="-3.1011690" lon="37.3409580">
    <ele>4103.8</ele>
    <time>2026-06-22T07:18:12Z</time>
   </trkpt>
   <trkpt lat="-3.1011680" lon="37.3409650">
    <ele>4103.7</ele>
    <time>2026-06-22T07:18:13Z</time>
   </trkpt>
   <trkpt lat="-3.1011670" lon="37.3409680">
    <ele>4103.7</ele>
    <time>2026-06-22T07:18:14Z</time>
   </trkpt>
   <trkpt lat="-3.1011650" lon="37.3409760">
    <ele>4103.7</ele>
    <time>2026-06-22T07:18:15Z</time>
   </trkpt>
   <trkpt lat="-3.1011610" lon="37.3409810">
    <ele>4103.7</ele>
    <time>2026-06-22T07:18:16Z</time>
   </trkpt>
   <trkpt lat="-3.1011570" lon="37.3409870">
    <ele>4103.6</ele>
    <time>2026-06-22T07:18:17Z</time>
   </trkpt>
   <trkpt lat="-3.1011520" lon="37.3409920">
    <ele>4103.6</ele>
    <time>2026-06-22T07:18:18Z</time>
   </trkpt>
   <trkpt lat="-3.1011490" lon="37.3409990">
    <ele>4103.6</ele>
    <time>2026-06-22T07:18:19Z</time>
   </trkpt>
   <trkpt lat="-3.1011510" lon="37.3410080">
    <ele>4103.5</ele>
    <time>2026-06-22T07:18:20Z</time>
   </trkpt>
   <trkpt lat="-3.1011500" lon="37.3410160">
    <ele>4103.5</ele>
    <time>2026-06-22T07:18:21Z</time>
   </trkpt>
   <trkpt lat="-3.1011480" lon="37.3410220">
    <ele>4103.5</ele>
    <time>2026-06-22T07:18:22Z</time>
   </trkpt>
   <trkpt lat="-3.1011440" lon="37.3410290">
    <ele>4103.5</ele>
    <time>2026-06-22T07:18:23Z</time>
   </trkpt>
   <trkpt lat="-3.1011390" lon="37.3410400">
    <ele>4103.4</ele>
    <time>2026-06-22T07:18:24Z</time>
   </trkpt>
   <trkpt lat="-3.1011370" lon="37.3410490">
    <ele>4103.4</ele>
    <time>2026-06-22T07:18:25Z</time>
   </trkpt>
   <trkpt lat="-3.1011370" lon="37.3410560">
    <ele>4103.4</ele>
    <time>2026-06-22T07:18:26Z</time>
   </trkpt>
   <trkpt lat="-3.1011350" lon="37.3410660">
    <ele>4103.3</ele>
    <time>2026-06-22T07:18:27Z</time>
   </trkpt>
   <trkpt lat="-3.1011320" lon="37.3410750">
    <ele>4103.3</ele>
    <time>2026-06-22T07:18:28Z</time>
   </trkpt>
   <trkpt lat="-3.1011300" lon="37.3410860">
    <ele>4103.2</ele>
    <time>2026-06-22T07:18:29Z</time>
   </trkpt>
   <trkpt lat="-3.1011290" lon="37.3410970">
    <ele>4103.2</ele>
    <time>2026-06-22T07:18:30Z</time>
   </trkpt>
   <trkpt lat="-3.1011280" lon="37.3411040">
    <ele>4103.2</ele>
    <time>2026-06-22T07:18:31Z</time>
   </trkpt>
   <trkpt lat="-3.1011300" lon="37.3411130">
    <ele>4103.1</ele>
    <time>2026-06-22T07:18:32Z</time>
   </trkpt>
   <trkpt lat="-3.1011270" lon="37.3411200">
    <ele>4103.1</ele>
    <time>2026-06-22T07:18:33Z</time>
   </trkpt>
   <trkpt lat="-3.1011230" lon="37.3411270">
    <ele>4103.0</ele>
    <time>2026-06-22T07:18:34Z</time>
   </trkpt>
   <trkpt lat="-3.1011170" lon="37.3411340">
    <ele>4103.0</ele>
    <time>2026-06-22T07:18:35Z</time>
   </trkpt>
   <trkpt lat="-3.1011150" lon="37.3411410">
    <ele>4103.0</ele>
    <time>2026-06-22T07:18:36Z</time>
   </trkpt>
   <trkpt lat="-3.1011120" lon="37.3411480">
    <ele>4102.9</ele>
    <time>2026-06-22T07:18:37Z</time>
   </trkpt>
   <trkpt lat="-3.1011090" lon="37.3411530">
    <ele>4102.9</ele>
    <time>2026-06-22T07:18:38Z</time>
   </trkpt>
   <trkpt lat="-3.1011080" lon="37.3411600">
    <ele>4102.9</ele>
    <time>2026-06-22T07:18:39Z</time>
   </trkpt>
   <trkpt lat="-3.1011070" lon="37.3411670">
    <ele>4102.9</ele>
    <time>2026-06-22T07:18:40Z</time>
   </trkpt>
   <trkpt lat="-3.1011060" lon="37.3411760">
    <ele>4102.8</ele>
    <time>2026-06-22T07:18:41Z</time>
   </trkpt>
   <trkpt lat="-3.1011060" lon="37.3411840">
    <ele>4102.8</ele>
    <time>2026-06-22T07:18:42Z</time>
   </trkpt>
   <trkpt lat="-3.1011060" lon="37.3411950">
    <ele>4102.7</ele>
    <time>2026-06-22T07:18:43Z</time>
   </trkpt>
   <trkpt lat="-3.1011060" lon="37.3412030">
    <ele>4102.7</ele>
    <time>2026-06-22T07:18:44Z</time>
   </trkpt>
   <trkpt lat="-3.1011050" lon="37.3412070">
    <ele>4102.7</ele>
    <time>2026-06-22T07:18:45Z</time>
   </trkpt>
   <trkpt lat="-3.1011050" lon="37.3412150">
    <ele>4102.6</ele>
    <time>2026-06-22T07:18:46Z</time>
   </trkpt>
   <trkpt lat="-3.1011080" lon="37.3412250">
    <ele>4102.6</ele>
    <time>2026-06-22T07:18:47Z</time>
   </trkpt>
   <trkpt lat="-3.1011100" lon="37.3412350">
    <ele>4102.5</ele>
    <time>2026-06-22T07:18:48Z</time>
   </trkpt>
   <trkpt lat="-3.1011110" lon="37.3412460">
    <ele>4102.5</ele>
    <time>2026-06-22T07:18:49Z</time>
   </trkpt>
   <trkpt lat="-3.1011140" lon="37.3412520">
    <ele>4102.5</ele>
    <time>2026-06-22T07:18:50Z</time>
   </trkpt>
   <trkpt lat="-3.1011170" lon="37.3412590">
    <ele>4102.4</ele>
    <time>2026-06-22T07:18:51Z</time>
   </trkpt>
   <trkpt lat="-3.1011170" lon="37.3412710">
    <ele>4102.4</ele>
    <time>2026-06-22T07:18:52Z</time>
   </trkpt>
   <trkpt lat="-3.1011150" lon="37.3412750">
    <ele>4102.3</ele>
    <time>2026-06-22T07:18:53Z</time>
   </trkpt>
   <trkpt lat="-3.1011130" lon="37.3412800">
    <ele>4102.3</ele>
    <time>2026-06-22T07:18:54Z</time>
   </trkpt>
   <trkpt lat="-3.1011130" lon="37.3412820">
    <ele>4102.3</ele>
    <time>2026-06-22T07:18:55Z</time>
   </trkpt>
   <trkpt lat="-3.1011140" lon="37.3412880">
    <ele>4102.3</ele>
    <time>2026-06-22T07:18:56Z</time>
   </trkpt>
   <trkpt lat="-3.1011180" lon="37.3412970">
    <ele>4102.2</ele>
    <time>2026-06-22T07:18:57Z</time>
   </trkpt>
   <trkpt lat="-3.1011200" lon="37.3413020">
    <ele>4102.2</ele>
    <time>2026-06-22T07:18:58Z</time>
   </trkpt>
   <trkpt lat="-3.1011210" lon="37.3413110">
    <ele>4102.1</ele>
    <time>2026-06-22T07:18:59Z</time>
   </trkpt>
   <trkpt lat="-3.1011220" lon="37.3413190">
    <ele>4102.1</ele>
    <time>2026-06-22T07:19:00Z</time>
   </trkpt>
   <trkpt lat="-3.1011270" lon="37.3413280">
    <ele>4102.0</ele>
    <time>2026-06-22T07:19:01Z</time>
   </trkpt>
   <trkpt lat="-3.1011270" lon="37.3413360">
    <ele>4102.0</ele>
    <time>2026-06-22T07:19:02Z</time>
   </trkpt>
   <trkpt lat="-3.1011260" lon="37.3413450">
    <ele>4101.9</ele>
    <time>2026-06-22T07:19:03Z</time>
   </trkpt>
   <trkpt lat="-3.1011280" lon="37.3413490">
    <ele>4101.9</ele>
    <time>2026-06-22T07:19:04Z</time>
   </trkpt>
   <trkpt lat="-3.1011320" lon="37.3413540">
    <ele>4101.9</ele>
    <time>2026-06-22T07:19:05Z</time>
   </trkpt>
   <trkpt lat="-3.1011350" lon="37.3413600">
    <ele>4101.8</ele>
    <time>2026-06-22T07:19:06Z</time>
   </trkpt>
   <trkpt lat="-3.1011400" lon="37.3413670">
    <ele>4101.8</ele>
    <time>2026-06-22T07:19:07Z</time>
   </trkpt>
   <trkpt lat="-3.1011490" lon="37.3413750">
    <ele>4101.7</ele>
    <time>2026-06-22T07:19:08Z</time>
   </trkpt>
   <trkpt lat="-3.1011610" lon="37.3413900">
    <ele>4101.6</ele>
    <time>2026-06-22T07:19:09Z</time>
   </trkpt>
   <trkpt lat="-3.1011620" lon="37.3413970">
    <ele>4101.5</ele>
    <time>2026-06-22T07:19:10Z</time>
   </trkpt>
   <trkpt lat="-3.1011610" lon="37.3414030">
    <ele>4101.5</ele>
    <time>2026-06-22T07:19:11Z</time>
   </trkpt>
   <trkpt lat="-3.1011580" lon="37.3414120">
    <ele>4101.4</ele>
    <time>2026-06-22T07:19:12Z</time>
   </trkpt>
   <trkpt lat="-3.1011580" lon="37.3414250">
    <ele>4101.4</ele>
    <time>2026-06-22T07:19:14Z</time>
   </trkpt>
   <trkpt lat="-3.1011600" lon="37.3414340">
    <ele>4101.3</ele>
    <time>2026-06-22T07:19:15Z</time>
   </trkpt>
   <trkpt lat="-3.1011630" lon="37.3414450">
    <ele>4101.2</ele>
    <time>2026-06-22T07:19:16Z</time>
   </trkpt>
   <trkpt lat="-3.1011650" lon="37.3414560">
    <ele>4101.1</ele>
    <time>2026-06-22T07:19:17Z</time>
   </trkpt>
   <trkpt lat="-3.1011660" lon="37.3414620">
    <ele>4101.1</ele>
    <time>2026-06-22T07:19:18Z</time>
   </trkpt>
   <trkpt lat="-3.1011670" lon="37.3414740">
    <ele>4101.0</ele>
    <time>2026-06-22T07:19:19Z</time>
   </trkpt>
   <trkpt lat="-3.1011670" lon="37.3414840">
    <ele>4100.9</ele>
    <time>2026-06-22T07:19:20Z</time>
   </trkpt>
   <trkpt lat="-3.1011660" lon="37.3414930">
    <ele>4100.9</ele>
    <time>2026-06-22T07:19:21Z</time>
   </trkpt>
   <trkpt lat="-3.1011650" lon="37.3415000">
    <ele>4100.8</ele>
    <time>2026-06-22T07:19:22Z</time>
   </trkpt>
   <trkpt lat="-3.1011630" lon="37.3415100">
    <ele>4100.7</ele>
    <time>2026-06-22T07:19:23Z</time>
   </trkpt>
   <trkpt lat="-3.1011610" lon="37.3415160">
    <ele>4100.7</ele>
    <time>2026-06-22T07:19:24Z</time>
   </trkpt>
   <trkpt lat="-3.1011630" lon="37.3415180">
    <ele>4100.7</ele>
    <time>2026-06-22T07:19:25Z</time>
   </trkpt>
   <trkpt lat="-3.1011650" lon="37.3415230">
    <ele>4100.6</ele>
    <time>2026-06-22T07:19:26Z</time>
   </trkpt>
   <trkpt lat="-3.1011670" lon="37.3415310">
    <ele>4100.5</ele>
    <time>2026-06-22T07:19:27Z</time>
   </trkpt>
   <trkpt lat="-3.1011700" lon="37.3415490">
    <ele>4100.4</ele>
    <time>2026-06-22T07:19:28Z</time>
   </trkpt>
   <trkpt lat="-3.1011760" lon="37.3415690">
    <ele>4100.2</ele>
    <time>2026-06-22T07:19:29Z</time>
   </trkpt>
   <trkpt lat="-3.1011730" lon="37.3415730">
    <ele>4100.2</ele>
    <time>2026-06-22T07:19:30Z</time>
   </trkpt>
   <trkpt lat="-3.1011700" lon="37.3415890">
    <ele>4100.1</ele>
    <time>2026-06-22T07:19:31Z</time>
   </trkpt>
   <trkpt lat="-3.1011660" lon="37.3416030">
    <ele>4099.9</ele>
    <time>2026-06-22T07:19:32Z</time>
   </trkpt>
   <trkpt lat="-3.1011640" lon="37.3416130">
    <ele>4099.8</ele>
    <time>2026-06-22T07:19:33Z</time>
   </trkpt>
   <trkpt lat="-3.1011640" lon="37.3416170">
    <ele>4099.8</ele>
    <time>2026-06-22T07:19:34Z</time>
   </trkpt>
   <trkpt lat="-3.1011640" lon="37.3416340">
    <ele>4099.7</ele>
    <time>2026-06-22T07:19:35Z</time>
   </trkpt>
   <trkpt lat="-3.1011650" lon="37.3416500">
    <ele>4099.5</ele>
    <time>2026-06-22T07:19:36Z</time>
   </trkpt>
   <trkpt lat="-3.1011670" lon="37.3416590">
    <ele>4099.4</ele>
    <time>2026-06-22T07:19:37Z</time>
   </trkpt>
   <trkpt lat="-3.1011670" lon="37.3416690">
    <ele>4099.3</ele>
    <time>2026-06-22T07:19:38Z</time>
   </trkpt>
   <trkpt lat="-3.1011680" lon="37.3416790">
    <ele>4099.2</ele>
    <time>2026-06-22T07:19:39Z</time>
   </trkpt>
   <trkpt lat="-3.1011640" lon="37.3416910">
    <ele>4099.1</ele>
    <time>2026-06-22T07:19:40Z</time>
   </trkpt>
   <trkpt lat="-3.1011600" lon="37.3417020">
    <ele>4099.0</ele>
    <time>2026-06-22T07:19:41Z</time>
   </trkpt>
   <trkpt lat="-3.1011600" lon="37.3417130">
    <ele>4098.9</ele>
    <time>2026-06-22T07:19:42Z</time>
   </trkpt>
   <trkpt lat="-3.1011610" lon="37.3417230">
    <ele>4098.8</ele>
    <time>2026-06-22T07:19:43Z</time>
   </trkpt>
   <trkpt lat="-3.1011600" lon="37.3417360">
    <ele>4098.7</ele>
    <time>2026-06-22T07:19:44Z</time>
   </trkpt>
   <trkpt lat="-3.1011560" lon="37.3417460">
    <ele>4098.5</ele>
    <time>2026-06-22T07:19:45Z</time>
   </trkpt>
   <trkpt lat="-3.1011550" lon="37.3417650">
    <ele>4098.3</ele>
    <time>2026-06-22T07:19:46Z</time>
   </trkpt>
   <trkpt lat="-3.1011570" lon="37.3417780">
    <ele>4098.2</ele>
    <time>2026-06-22T07:19:47Z</time>
   </trkpt>
   <trkpt lat="-3.1011590" lon="37.3417900">
    <ele>4098.1</ele>
    <time>2026-06-22T07:19:48Z</time>
   </trkpt>
   <trkpt lat="-3.1011620" lon="37.3418030">
    <ele>4097.9</ele>
    <time>2026-06-22T07:19:49Z</time>
   </trkpt>
   <trkpt lat="-3.1011620" lon="37.3418130">
    <ele>4097.8</ele>
    <time>2026-06-22T07:19:50Z</time>
   </trkpt>
   <trkpt lat="-3.1011660" lon="37.3418250">
    <ele>4097.6</ele>
    <time>2026-06-22T07:19:51Z</time>
   </trkpt>
   <trkpt lat="-3.1011650" lon="37.3418330">
    <ele>4097.5</ele>
    <time>2026-06-22T07:19:52Z</time>
   </trkpt>
   <trkpt lat="-3.1011640" lon="37.3418380">
    <ele>4097.5</ele>
    <time>2026-06-22T07:19:53Z</time>
   </trkpt>
   <trkpt lat="-3.1011690" lon="37.3418480">
    <ele>4097.4</ele>
    <time>2026-06-22T07:19:54Z</time>
   </trkpt>
   <trkpt lat="-3.1011740" lon="37.3418560">
    <ele>4097.2</ele>
    <time>2026-06-22T07:19:55Z</time>
   </trkpt>
   <trkpt lat="-3.1011810" lon="37.3418600">
    <ele>4097.1</ele>
    <time>2026-06-22T07:19:56Z</time>
   </trkpt>
   <trkpt lat="-3.1011880" lon="37.3418670">
    <ele>4097.0</ele>
    <time>2026-06-22T07:19:57Z</time>
   </trkpt>
   <trkpt lat="-3.1011910" lon="37.3418740">
    <ele>4096.9</ele>
    <time>2026-06-22T07:19:58Z</time>
   </trkpt>
   <trkpt lat="-3.1011940" lon="37.3418840">
    <ele>4096.8</ele>
    <time>2026-06-22T07:19:59Z</time>
   </trkpt>
   <trkpt lat="-3.1011980" lon="37.3418960">
    <ele>4096.6</ele>
    <time>2026-06-22T07:20:00Z</time>
   </trkpt>
   <trkpt lat="-3.1012000" lon="37.3419040">
    <ele>4096.5</ele>
    <time>2026-06-22T07:20:01Z</time>
   </trkpt>
   <trkpt lat="-3.1012020" lon="37.3419130">
    <ele>4096.4</ele>
    <time>2026-06-22T07:20:02Z</time>
   </trkpt>
   <trkpt lat="-3.1012020" lon="37.3419210">
    <ele>4096.3</ele>
    <time>2026-06-22T07:20:03Z</time>
   </trkpt>
   <trkpt lat="-3.1012010" lon="37.3419360">
    <ele>4096.1</ele>
    <time>2026-06-22T07:20:04Z</time>
   </trkpt>
   <trkpt lat="-3.1012020" lon="37.3419450">
    <ele>4096.0</ele>
    <time>2026-06-22T07:20:05Z</time>
   </trkpt>
   <trkpt lat="-3.1012040" lon="37.3419540">
    <ele>4095.8</ele>
    <time>2026-06-22T07:20:06Z</time>
   </trkpt>
   <trkpt lat="-3.1012060" lon="37.3419640">
    <ele>4095.7</ele>
    <time>2026-06-22T07:20:07Z</time>
   </trkpt>
   <trkpt lat="-3.1012090" lon="37.3419770">
    <ele>4095.5</ele>
    <time>2026-06-22T07:20:08Z</time>
   </trkpt>
   <trkpt lat="-3.1012110" lon="37.3419820">
    <ele>4095.4</ele>
    <time>2026-06-22T07:20:09Z</time>
   </trkpt>
   <trkpt lat="-3.1012150" lon="37.3419910">
    <ele>4095.3</ele>
    <time>2026-06-22T07:20:10Z</time>
   </trkpt>
   <trkpt lat="-3.1012180" lon="37.3419980">
    <ele>4095.2</ele>
    <time>2026-06-22T07:20:11Z</time>
   </trkpt>
   <trkpt lat="-3.1012240" lon="37.3420060">
    <ele>4095.0</ele>
    <time>2026-06-22T07:20:12Z</time>
   </trkpt>
   <trkpt lat="-3.1012270" lon="37.3420150">
    <ele>4094.9</ele>
    <time>2026-06-22T07:20:13Z</time>
   </trkpt>
   <trkpt lat="-3.1012280" lon="37.3420220">
    <ele>4094.8</ele>
    <time>2026-06-22T07:20:14Z</time>
   </trkpt>
   <trkpt lat="-3.1012250" lon="37.3420320">
    <ele>4094.6</ele>
    <time>2026-06-22T07:20:15Z</time>
   </trkpt>
   <trkpt lat="-3.1012220" lon="37.3420430">
    <ele>4094.4</ele>
    <time>2026-06-22T07:20:16Z</time>
   </trkpt>
   <trkpt lat="-3.1012200" lon="37.3420500">
    <ele>4094.3</ele>
    <time>2026-06-22T07:20:17Z</time>
   </trkpt>
   <trkpt lat="-3.1012220" lon="37.3420510">
    <ele>4094.3</ele>
    <time>2026-06-22T07:20:18Z</time>
   </trkpt>
   <trkpt lat="-3.1012240" lon="37.3420600">
    <ele>4094.1</ele>
    <time>2026-06-22T07:20:19Z</time>
   </trkpt>
   <trkpt lat="-3.1012280" lon="37.3420670">
    <ele>4094.0</ele>
    <time>2026-06-22T07:20:20Z</time>
   </trkpt>
   <trkpt lat="-3.1012290" lon="37.3420710">
    <ele>4093.9</ele>
    <time>2026-06-22T07:20:21Z</time>
   </trkpt>
   <trkpt lat="-3.1012300" lon="37.3420770">
    <ele>4093.8</ele>
    <time>2026-06-22T07:20:22Z</time>
   </trkpt>
   <trkpt lat="-3.1012280" lon="37.3420830">
    <ele>4093.7</ele>
    <time>2026-06-22T07:20:23Z</time>
   </trkpt>
   <trkpt lat="-3.1012240" lon="37.3420880">
    <ele>4093.6</ele>
    <time>2026-06-22T07:20:24Z</time>
   </trkpt>
   <trkpt lat="-3.1012190" lon="37.3420900">
    <ele>4093.5</ele>
    <time>2026-06-22T07:20:25Z</time>
   </trkpt>
   <trkpt lat="-3.1012160" lon="37.3420940">
    <ele>4093.4</ele>
    <time>2026-06-22T07:20:26Z</time>
   </trkpt>
   <trkpt lat="-3.1012170" lon="37.3420960">
    <ele>4093.4</ele>
    <time>2026-06-22T07:20:27Z</time>
   </trkpt>
   <trkpt lat="-3.1012190" lon="37.3421020">
    <ele>4093.3</ele>
    <time>2026-06-22T07:20:28Z</time>
   </trkpt>
   <trkpt lat="-3.1012150" lon="37.3421030">
    <ele>4093.2</ele>
    <time>2026-06-22T07:20:29Z</time>
   </trkpt>
   <trkpt lat="-3.1012110" lon="37.3421080">
    <ele>4093.1</ele>
    <time>2026-06-22T07:20:30Z</time>
   </trkpt>
   <trkpt lat="-3.1012030" lon="37.3421140">
    <ele>4092.9</ele>
    <time>2026-06-22T07:20:31Z</time>
   </trkpt>
   <trkpt lat="-3.1011990" lon="37.3421150">
    <ele>4092.8</ele>
    <time>2026-06-22T07:20:32Z</time>
   </trkpt>
   <trkpt lat="-3.1011970" lon="37.3421190">
    <ele>4092.8</ele>
    <time>2026-06-22T07:20:33Z</time>
   </trkpt>
   <trkpt lat="-3.1011970" lon="37.3421210">
    <ele>4092.7</ele>
    <time>2026-06-22T07:20:34Z</time>
   </trkpt>
   <trkpt lat="-3.1011970" lon="37.3421290">
    <ele>4092.6</ele>
    <time>2026-06-22T07:20:35Z</time>
   </trkpt>
   <trkpt lat="-3.1011970" lon="37.3421380">
    <ele>4092.4</ele>
    <time>2026-06-22T07:20:36Z</time>
   </trkpt>
   <trkpt lat="-3.1012000" lon="37.3421350">
    <ele>4092.3</ele>
    <time>2026-06-22T07:20:37Z</time>
   </trkpt>
   <trkpt lat="-3.1012010" lon="37.3421380">
    <ele>4092.3</ele>
    <time>2026-06-22T07:20:38Z</time>
   </trkpt>
   <trkpt lat="-3.1012060" lon="37.3421480">
    <ele>4092.1</ele>
    <time>2026-06-22T07:20:39Z</time>
   </trkpt>
   <trkpt lat="-3.1012090" lon="37.3421460">
    <ele>4092.0</ele>
    <time>2026-06-22T07:20:40Z</time>
   </trkpt>
   <trkpt lat="-3.1012050" lon="37.3421460">
    <ele>4091.9</ele>
    <time>2026-06-22T07:20:41Z</time>
   </trkpt>
   <trkpt lat="-3.1012050" lon="37.3421450">
    <ele>4091.9</ele>
    <time>2026-06-22T07:20:42Z</time>
   </trkpt>
   <trkpt lat="-3.1012100" lon="37.3421440">
    <ele>4091.8</ele>
    <time>2026-06-22T07:20:43Z</time>
   </trkpt>
   <trkpt lat="-3.1012090" lon="37.3421430">
    <ele>4091.8</ele>
    <time>2026-06-22T07:20:44Z</time>
   </trkpt>
   <trkpt lat="-3.1012110" lon="37.3421440">
    <ele>4091.7</ele>
    <time>2026-06-22T07:20:45Z</time>
   </trkpt>
   <trkpt lat="-3.1012140" lon="37.3421440">
    <ele>4091.7</ele>
    <time>2026-06-22T07:20:46Z</time>
   </trkpt>
   <trkpt lat="-3.1012220" lon="37.3421450">
    <ele>4091.5</ele>
    <time>2026-06-22T07:20:47Z</time>
   </trkpt>
   <trkpt lat="-3.1012310" lon="37.3421430">
    <ele>4091.3</ele>
    <time>2026-06-22T07:20:48Z</time>
   </trkpt>
   <trkpt lat="-3.1012360" lon="37.3421420">
    <ele>4091.2</ele>
    <time>2026-06-22T07:20:49Z</time>
   </trkpt>
   <trkpt lat="-3.1012370" lon="37.3421470">
    <ele>4091.1</ele>
    <time>2026-06-22T07:20:50Z</time>
   </trkpt>
   <trkpt lat="-3.1012360" lon="37.3421550">
    <ele>4090.9</ele>
    <time>2026-06-22T07:20:51Z</time>
   </trkpt>
   <trkpt lat="-3.1012300" lon="37.3421630">
    <ele>4090.7</ele>
    <time>2026-06-22T07:20:52Z</time>
   </trkpt>
   <trkpt lat="-3.1012270" lon="37.3421680">
    <ele>4090.6</ele>
    <time>2026-06-22T07:20:53Z</time>
   </trkpt>
   <trkpt lat="-3.1012260" lon="37.3421710">
    <ele>4090.5</ele>
    <time>2026-06-22T07:20:54Z</time>
   </trkpt>
   <trkpt lat="-3.1012280" lon="37.3421720">
    <ele>4090.5</ele>
    <time>2026-06-22T07:20:55Z</time>
   </trkpt>
   <trkpt lat="-3.1012320" lon="37.3421730">
    <ele>4090.4</ele>
    <time>2026-06-22T07:20:56Z</time>
   </trkpt>
   <trkpt lat="-3.1012330" lon="37.3421760">
    <ele>4090.3</ele>
    <time>2026-06-22T07:20:57Z</time>
   </trkpt>
   <trkpt lat="-3.1012370" lon="37.3421770">
    <ele>4090.2</ele>
    <time>2026-06-22T07:20:58Z</time>
   </trkpt>
   <trkpt lat="-3.1012390" lon="37.3421770">
    <ele>4090.2</ele>
    <time>2026-06-22T07:20:59Z</time>
   </trkpt>
   <trkpt lat="-3.1012410" lon="37.3421780">
    <ele>4090.1</ele>
    <time>2026-06-22T07:21:00Z</time>
   </trkpt>
   <trkpt lat="-3.1012430" lon="37.3421800">
    <ele>4090.1</ele>
    <time>2026-06-22T07:21:01Z</time>
   </trkpt>
   <trkpt lat="-3.1012440" lon="37.3421860">
    <ele>4089.9</ele>
    <time>2026-06-22T07:21:02Z</time>
   </trkpt>
   <trkpt lat="-3.1012500" lon="37.3421890">
    <ele>4089.8</ele>
    <time>2026-06-22T07:21:03Z</time>
   </trkpt>
   <trkpt lat="-3.1012570" lon="37.3421920">
    <ele>4089.6</ele>
    <time>2026-06-22T07:21:04Z</time>
   </trkpt>
   <trkpt lat="-3.1012620" lon="37.3421900">
    <ele>4089.5</ele>
    <time>2026-06-22T07:21:05Z</time>
   </trkpt>
   <trkpt lat="-3.1012650" lon="37.3421900">
    <ele>4089.4</ele>
    <time>2026-06-22T07:21:06Z</time>
   </trkpt>
   <trkpt lat="-3.1012670" lon="37.3421910">
    <ele>4089.4</ele>
    <time>2026-06-22T07:21:07Z</time>
   </trkpt>
   <trkpt lat="-3.1012690" lon="37.3421940">
    <ele>4089.3</ele>
    <time>2026-06-22T07:21:08Z</time>
   </trkpt>
   <trkpt lat="-3.1012710" lon="37.3421930">
    <ele>4089.3</ele>
    <time>2026-06-22T07:21:09Z</time>
   </trkpt>
   <trkpt lat="-3.1012720" lon="37.3421930">
    <ele>4089.2</ele>
    <time>2026-06-22T07:21:10Z</time>
   </trkpt>
   <trkpt lat="-3.1012760" lon="37.3421920">
    <ele>4089.2</ele>
    <time>2026-06-22T07:21:11Z</time>
   </trkpt>
   <trkpt lat="-3.1012800" lon="37.3421930">
    <ele>4089.1</ele>
    <time>2026-06-22T07:21:12Z</time>
   </trkpt>
   <trkpt lat="-3.1012800" lon="37.3421950">
    <ele>4089.0</ele>
    <time>2026-06-22T07:21:13Z</time>
   </trkpt>
   <trkpt lat="-3.1012810" lon="37.3421950">
    <ele>4089.0</ele>
    <time>2026-06-22T07:21:14Z</time>
   </trkpt>
   <trkpt lat="-3.1012860" lon="37.3421970">
    <ele>4088.9</ele>
    <time>2026-06-22T07:21:15Z</time>
   </trkpt>
   <trkpt lat="-3.1012900" lon="37.3422020">
    <ele>4088.7</ele>
    <time>2026-06-22T07:21:16Z</time>
   </trkpt>
   <trkpt lat="-3.1012890" lon="37.3422020">
    <ele>4088.7</ele>
    <time>2026-06-22T07:21:17Z</time>
   </trkpt>
   <trkpt lat="-3.1012900" lon="37.3422080">
    <ele>4088.6</ele>
    <time>2026-06-22T07:21:18Z</time>
   </trkpt>
   <trkpt lat="-3.1012910" lon="37.3422110">
    <ele>4088.5</ele>
    <time>2026-06-22T07:21:20Z</time>
   </trkpt>
   <trkpt lat="-3.1012880" lon="37.3422130">
    <ele>4088.4</ele>
    <time>2026-06-22T07:21:21Z</time>
   </trkpt>
   <trkpt lat="-3.1012910" lon="37.3422150">
    <ele>4088.4</ele>
    <time>2026-06-22T07:21:22Z</time>
   </trkpt>
   <trkpt lat="-3.1012900" lon="37.3422180">
    <ele>4088.3</ele>
    <time>2026-06-22T07:21:23Z</time>
   </trkpt>
   <trkpt lat="-3.1012870" lon="37.3422240">
    <ele>4088.1</ele>
    <time>2026-06-22T07:21:24Z</time>
   </trkpt>
   <trkpt lat="-3.1012850" lon="37.3422250">
    <ele>4088.1</ele>
    <time>2026-06-22T07:21:25Z</time>
   </trkpt>
   <trkpt lat="-3.1012860" lon="37.3422280">
    <ele>4088.0</ele>
    <time>2026-06-22T07:21:26Z</time>
   </trkpt>
   <trkpt lat="-3.1012820" lon="37.3422310">
    <ele>4087.9</ele>
    <time>2026-06-22T07:21:27Z</time>
   </trkpt>
   <trkpt lat="-3.1012740" lon="37.3422320">
    <ele>4087.7</ele>
    <time>2026-06-22T07:21:28Z</time>
   </trkpt>
   <trkpt lat="-3.1012730" lon="37.3422400">
    <ele>4087.6</ele>
    <time>2026-06-22T07:21:29Z</time>
   </trkpt>
   <trkpt lat="-3.1012700" lon="37.3422400">
    <ele>4087.5</ele>
    <time>2026-06-22T07:21:30Z</time>
   </trkpt>
   <trkpt lat="-3.1012640" lon="37.3422420">
    <ele>4087.4</ele>
    <time>2026-06-22T07:21:31Z</time>
   </trkpt>
   <trkpt lat="-3.1012660" lon="37.3422420">
    <ele>4087.3</ele>
    <time>2026-06-22T07:21:32Z</time>
   </trkpt>
   <trkpt lat="-3.1012670" lon="37.3422490">
    <ele>4087.2</ele>
    <time>2026-06-22T07:21:33Z</time>
   </trkpt>
   <trkpt lat="-3.1012720" lon="37.3422460">
    <ele>4087.0</ele>
    <time>2026-06-22T07:21:34Z</time>
   </trkpt>
   <trkpt lat="-3.1012740" lon="37.3422490">
    <ele>4087.0</ele>
    <time>2026-06-22T07:21:35Z</time>
   </trkpt>
   <trkpt lat="-3.1012750" lon="37.3422500">
    <ele>4086.9</ele>
    <time>2026-06-22T07:21:36Z</time>
   </trkpt>
   <trkpt lat="-3.1012810" lon="37.3422500">
    <ele>4086.8</ele>
    <time>2026-06-22T07:21:37Z</time>
   </trkpt>
   <trkpt lat="-3.1012850" lon="37.3422510">
    <ele>4086.7</ele>
    <time>2026-06-22T07:21:38Z</time>
   </trkpt>
   <trkpt lat="-3.1012850" lon="37.3422540">
    <ele>4086.6</ele>
    <time>2026-06-22T07:21:39Z</time>
   </trkpt>
   <trkpt lat="-3.1012860" lon="37.3422590">
    <ele>4086.5</ele>
    <time>2026-06-22T07:21:40Z</time>
   </trkpt>
   <trkpt lat="-3.1012910" lon="37.3422580">
    <ele>4086.4</ele>
    <time>2026-06-22T07:21:41Z</time>
   </trkpt>
   <trkpt lat="-3.1012880" lon="37.3422650">
    <ele>4086.2</ele>
    <time>2026-06-22T07:21:42Z</time>
   </trkpt>
   <trkpt lat="-3.1012870" lon="37.3422690">
    <ele>4086.2</ele>
    <time>2026-06-22T07:21:43Z</time>
   </trkpt>
   <trkpt lat="-3.1012960" lon="37.3422700">
    <ele>4086.0</ele>
    <time>2026-06-22T07:21:44Z</time>
   </trkpt>
   <trkpt lat="-3.1013100" lon="37.3422790">
    <ele>4085.6</ele>
    <time>2026-06-22T07:21:45Z</time>
   </trkpt>
   <trkpt lat="-3.1013140" lon="37.3422840">
    <ele>4085.5</ele>
    <time>2026-06-22T07:21:46Z</time>
   </trkpt>
   <trkpt lat="-3.1013190" lon="37.3422890">
    <ele>4085.4</ele>
    <time>2026-06-22T07:21:47Z</time>
   </trkpt>
   <trkpt lat="-3.1013330" lon="37.3422970">
    <ele>4085.0</ele>
    <time>2026-06-22T07:21:48Z</time>
   </trkpt>
   <trkpt lat="-3.1013330" lon="37.3423020">
    <ele>4084.9</ele>
    <time>2026-06-22T07:21:49Z</time>
   </trkpt>
   <trkpt lat="-3.1013350" lon="37.3423130">
    <ele>4084.7</ele>
    <time>2026-06-22T07:21:50Z</time>
   </trkpt>
   <trkpt lat="-3.1013300" lon="37.3423200">
    <ele>4084.5</ele>
    <time>2026-06-22T07:21:51Z</time>
   </trkpt>
   <trkpt lat="-3.1013380" lon="37.3423290">
    <ele>4084.3</ele>
    <time>2026-06-22T07:21:52Z</time>
   </trkpt>
   <trkpt lat="-3.1013450" lon="37.3423330">
    <ele>4084.2</ele>
    <time>2026-06-22T07:21:53Z</time>
   </trkpt>
   <trkpt lat="-3.1013550" lon="37.3423400">
    <ele>4083.9</ele>
    <time>2026-06-22T07:21:54Z</time>
   </trkpt>
   <trkpt lat="-3.1013590" lon="37.3423430">
    <ele>4083.8</ele>
    <time>2026-06-22T07:21:55Z</time>
   </trkpt>
   <trkpt lat="-3.1013700" lon="37.3423490">
    <ele>4083.6</ele>
    <time>2026-06-22T07:21:56Z</time>
   </trkpt>
   <trkpt lat="-3.1013780" lon="37.3423520">
    <ele>4083.5</ele>
    <time>2026-06-22T07:21:57Z</time>
   </trkpt>
   <trkpt lat="-3.1013880" lon="37.3423530">
    <ele>4083.3</ele>
    <time>2026-06-22T07:21:58Z</time>
   </trkpt>
   <trkpt lat="-3.1013960" lon="37.3423540">
    <ele>4083.1</ele>
    <time>2026-06-22T07:21:59Z</time>
   </trkpt>
   <trkpt lat="-3.1014000" lon="37.3423570">
    <ele>4083.0</ele>
    <time>2026-06-22T07:22:00Z</time>
   </trkpt>
   <trkpt lat="-3.1014060" lon="37.3423600">
    <ele>4082.9</ele>
    <time>2026-06-22T07:22:01Z</time>
   </trkpt>
   <trkpt lat="-3.1014120" lon="37.3423640">
    <ele>4082.8</ele>
    <time>2026-06-22T07:22:02Z</time>
   </trkpt>
   <trkpt lat="-3.1014210" lon="37.3423690">
    <ele>4082.6</ele>
    <time>2026-06-22T07:22:03Z</time>
   </trkpt>
   <trkpt lat="-3.1014300" lon="37.3423700">
    <ele>4082.5</ele>
    <time>2026-06-22T07:22:04Z</time>
   </trkpt>
   <trkpt lat="-3.1014390" lon="37.3423680">
    <ele>4082.3</ele>
    <time>2026-06-22T07:22:05Z</time>
   </trkpt>
   <trkpt lat="-3.1014490" lon="37.3423650">
    <ele>4082.2</ele>
    <time>2026-06-22T07:22:06Z</time>
   </trkpt>
   <trkpt lat="-3.1014580" lon="37.3423600">
    <ele>4082.0</ele>
    <time>2026-06-22T07:22:07Z</time>
   </trkpt>
   <trkpt lat="-3.1014650" lon="37.3423580">
    <ele>4081.9</ele>
    <time>2026-06-22T07:22:08Z</time>
   </trkpt>
   <trkpt lat="-3.1014730" lon="37.3423590">
    <ele>4081.7</ele>
    <time>2026-06-22T07:22:09Z</time>
   </trkpt>
   <trkpt lat="-3.1014740" lon="37.3423620">
    <ele>4081.7</ele>
    <time>2026-06-22T07:22:10Z</time>
   </trkpt>
   <trkpt lat="-3.1014770" lon="37.3423630">
    <ele>4081.6</ele>
    <time>2026-06-22T07:22:11Z</time>
   </trkpt>
   <trkpt lat="-3.1014830" lon="37.3423620">
    <ele>4081.6</ele>
    <time>2026-06-22T07:22:12Z</time>
   </trkpt>
   <trkpt lat="-3.1014870" lon="37.3423600">
    <ele>4081.5</ele>
    <time>2026-06-22T07:22:13Z</time>
   </trkpt>
   <trkpt lat="-3.1014910" lon="37.3423590">
    <ele>4081.4</ele>
    <time>2026-06-22T07:22:14Z</time>
   </trkpt>
   <trkpt lat="-3.1014960" lon="37.3423530">
    <ele>4081.3</ele>
    <time>2026-06-22T07:22:15Z</time>
   </trkpt>
   <trkpt lat="-3.1015000" lon="37.3423470">
    <ele>4081.2</ele>
    <time>2026-06-22T07:22:16Z</time>
   </trkpt>
   <trkpt lat="-3.1015050" lon="37.3423390">
    <ele>4081.0</ele>
    <time>2026-06-22T07:22:17Z</time>
   </trkpt>
   <trkpt lat="-3.1015090" lon="37.3423370">
    <ele>4081.0</ele>
    <time>2026-06-22T07:22:18Z</time>
   </trkpt>
   <trkpt lat="-3.1015150" lon="37.3423350">
    <ele>4080.9</ele>
    <time>2026-06-22T07:22:19Z</time>
   </trkpt>
   <trkpt lat="-3.1015210" lon="37.3423330">
    <ele>4080.8</ele>
    <time>2026-06-22T07:22:20Z</time>
   </trkpt>
   <trkpt lat="-3.1015290" lon="37.3423330">
    <ele>4080.6</ele>
    <time>2026-06-22T07:22:21Z</time>
   </trkpt>
   <trkpt lat="-3.1015310" lon="37.3423330">
    <ele>4080.6</ele>
    <time>2026-06-22T07:22:22Z</time>
   </trkpt>
   <trkpt lat="-3.1015370" lon="37.3423310">
    <ele>4080.5</ele>
    <time>2026-06-22T07:22:23Z</time>
   </trkpt>
   <trkpt lat="-3.1015420" lon="37.3423320">
    <ele>4080.4</ele>
    <time>2026-06-22T07:22:24Z</time>
   </trkpt>
   <trkpt lat="-3.1015470" lon="37.3423340">
    <ele>4080.4</ele>
    <time>2026-06-22T07:22:25Z</time>
   </trkpt>
   <trkpt lat="-3.1015490" lon="37.3423390">
    <ele>4080.3</ele>
    <time>2026-06-22T07:22:26Z</time>
   </trkpt>
   <trkpt lat="-3.1015500" lon="37.3423450">
    <ele>4080.2</ele>
    <time>2026-06-22T07:22:27Z</time>
   </trkpt>
   <trkpt lat="-3.1015550" lon="37.3423490">
    <ele>4080.1</ele>
    <time>2026-06-22T07:22:28Z</time>
   </trkpt>
   <trkpt lat="-3.1015630" lon="37.3423510">
    <ele>4079.9</ele>
    <time>2026-06-22T07:22:29Z</time>
   </trkpt>
   <trkpt lat="-3.1015720" lon="37.3423540">
    <ele>4079.8</ele>
    <time>2026-06-22T07:22:30Z</time>
   </trkpt>
   <trkpt lat="-3.1015760" lon="37.3423550">
    <ele>4079.7</ele>
    <time>2026-06-22T07:22:31Z</time>
   </trkpt>
   <trkpt lat="-3.1015850" lon="37.3423560">
    <ele>4079.6</ele>
    <time>2026-06-22T07:22:32Z</time>
   </trkpt>
   <trkpt lat="-3.1015910" lon="37.3423570">
    <ele>4079.5</ele>
    <time>2026-06-22T07:22:33Z</time>
   </trkpt>
   <trkpt lat="-3.1015990" lon="37.3423570">
    <ele>4079.4</ele>
    <time>2026-06-22T07:22:34Z</time>
   </trkpt>
   <trkpt lat="-3.1016090" lon="37.3423590">
    <ele>4079.2</ele>
    <time>2026-06-22T07:22:35Z</time>
   </trkpt>
   <trkpt lat="-3.1016210" lon="37.3423620">
    <ele>4079.0</ele>
    <time>2026-06-22T07:22:36Z</time>
   </trkpt>
   <trkpt lat="-3.1016300" lon="37.3423650">
    <ele>4078.9</ele>
    <time>2026-06-22T07:22:37Z</time>
   </trkpt>
   <trkpt lat="-3.1016360" lon="37.3423650">
    <ele>4078.8</ele>
    <time>2026-06-22T07:22:38Z</time>
   </trkpt>
   <trkpt lat="-3.1016390" lon="37.3423660">
    <ele>4078.7</ele>
    <time>2026-06-22T07:22:39Z</time>
   </trkpt>
   <trkpt lat="-3.1016510" lon="37.3423680">
    <ele>4078.5</ele>
    <time>2026-06-22T07:22:40Z</time>
   </trkpt>
   <trkpt lat="-3.1016580" lon="37.3423670">
    <ele>4078.4</ele>
    <time>2026-06-22T07:22:41Z</time>
   </trkpt>
   <trkpt lat="-3.1016630" lon="37.3423630">
    <ele>4078.3</ele>
    <time>2026-06-22T07:22:42Z</time>
   </trkpt>
   <trkpt lat="-3.1016690" lon="37.3423590">
    <ele>4078.2</ele>
    <time>2026-06-22T07:22:43Z</time>
   </trkpt>
   <trkpt lat="-3.1016730" lon="37.3423550">
    <ele>4078.1</ele>
    <time>2026-06-22T07:22:44Z</time>
   </trkpt>
   <trkpt lat="-3.1016790" lon="37.3423490">
    <ele>4078.0</ele>
    <time>2026-06-22T07:22:45Z</time>
   </trkpt>
   <trkpt lat="-3.1016850" lon="37.3423430">
    <ele>4077.9</ele>
    <time>2026-06-22T07:22:46Z</time>
   </trkpt>
   <trkpt lat="-3.1016910" lon="37.3423390">
    <ele>4077.8</ele>
    <time>2026-06-22T07:22:47Z</time>
   </trkpt>
   <trkpt lat="-3.1016970" lon="37.3423400">
    <ele>4077.7</ele>
    <time>2026-06-22T07:22:48Z</time>
   </trkpt>
   <trkpt lat="-3.1017040" lon="37.3423390">
    <ele>4077.6</ele>
    <time>2026-06-22T07:22:49Z</time>
   </trkpt>
   <trkpt lat="-3.1017100" lon="37.3423420">
    <ele>4077.5</ele>
    <time>2026-06-22T07:22:50Z</time>
   </trkpt>
   <trkpt lat="-3.1017180" lon="37.3423430">
    <ele>4077.4</ele>
    <time>2026-06-22T07:22:51Z</time>
   </trkpt>
   <trkpt lat="-3.1017240" lon="37.3423430">
    <ele>4077.3</ele>
    <time>2026-06-22T07:22:52Z</time>
   </trkpt>
   <trkpt lat="-3.1017330" lon="37.3423450">
    <ele>4077.2</ele>
    <time>2026-06-22T07:22:53Z</time>
   </trkpt>
   <trkpt lat="-3.1017370" lon="37.3423450">
    <ele>4077.1</ele>
    <time>2026-06-22T07:22:54Z</time>
   </trkpt>
   <trkpt lat="-3.1017450" lon="37.3423470">
    <ele>4077.1</ele>
    <time>2026-06-22T07:22:55Z</time>
   </trkpt>
   <trkpt lat="-3.1017490" lon="37.3423460">
    <ele>4077.1</ele>
    <time>2026-06-22T07:22:56Z</time>
   </trkpt>
   <trkpt lat="-3.1017580" lon="37.3423480">
    <ele>4076.9</ele>
    <time>2026-06-22T07:22:57Z</time>
   </trkpt>
   <trkpt lat="-3.1017650" lon="37.3423500">
    <ele>4076.8</ele>
    <time>2026-06-22T07:22:58Z</time>
   </trkpt>
   <trkpt lat="-3.1017750" lon="37.3423520">
    <ele>4076.7</ele>
    <time>2026-06-22T07:22:59Z</time>
   </trkpt>
   <trkpt lat="-3.1017790" lon="37.3423500">
    <ele>4076.6</ele>
    <time>2026-06-22T07:23:00Z</time>
   </trkpt>
   <trkpt lat="-3.1017850" lon="37.3423480">
    <ele>4076.5</ele>
    <time>2026-06-22T07:23:01Z</time>
   </trkpt>
   <trkpt lat="-3.1017930" lon="37.3423480">
    <ele>4076.4</ele>
    <time>2026-06-22T07:23:02Z</time>
   </trkpt>
   <trkpt lat="-3.1017990" lon="37.3423500">
    <ele>4076.4</ele>
    <time>2026-06-22T07:23:03Z</time>
   </trkpt>
   <trkpt lat="-3.1018040" lon="37.3423520">
    <ele>4076.3</ele>
    <time>2026-06-22T07:23:04Z</time>
   </trkpt>
   <trkpt lat="-3.1018080" lon="37.3423510">
    <ele>4076.2</ele>
    <time>2026-06-22T07:23:05Z</time>
   </trkpt>
   <trkpt lat="-3.1018160" lon="37.3423520">
    <ele>4076.1</ele>
    <time>2026-06-22T07:23:06Z</time>
   </trkpt>
   <trkpt lat="-3.1018260" lon="37.3423530">
    <ele>4076.0</ele>
    <time>2026-06-22T07:23:07Z</time>
   </trkpt>
   <trkpt lat="-3.1018330" lon="37.3423550">
    <ele>4075.9</ele>
    <time>2026-06-22T07:23:08Z</time>
   </trkpt>
   <trkpt lat="-3.1018390" lon="37.3423580">
    <ele>4075.8</ele>
    <time>2026-06-22T07:23:09Z</time>
   </trkpt>
   <trkpt lat="-3.1018470" lon="37.3423590">
    <ele>4075.7</ele>
    <time>2026-06-22T07:23:10Z</time>
   </trkpt>
   <trkpt lat="-3.1018510" lon="37.3423600">
    <ele>4075.7</ele>
    <time>2026-06-22T07:23:11Z</time>
   </trkpt>
   <trkpt lat="-3.1018560" lon="37.3423620">
    <ele>4075.6</ele>
    <time>2026-06-22T07:23:12Z</time>
   </trkpt>
   <trkpt lat="-3.1018600" lon="37.3423640">
    <ele>4075.5</ele>
    <time>2026-06-22T07:23:13Z</time>
   </trkpt>
   <trkpt lat="-3.1018670" lon="37.3423630">
    <ele>4075.4</ele>
    <time>2026-06-22T07:23:14Z</time>
   </trkpt>
   <trkpt lat="-3.1018730" lon="37.3423600">
    <ele>4075.4</ele>
    <time>2026-06-22T07:23:15Z</time>
   </trkpt>
   <trkpt lat="-3.1018750" lon="37.3423540">
    <ele>4075.3</ele>
    <time>2026-06-22T07:23:16Z</time>
   </trkpt>
   <trkpt lat="-3.1018820" lon="37.3423470">
    <ele>4075.2</ele>
    <time>2026-06-22T07:23:17Z</time>
   </trkpt>
   <trkpt lat="-3.1018870" lon="37.3423430">
    <ele>4075.1</ele>
    <time>2026-06-22T07:23:18Z</time>
   </trkpt>
   <trkpt lat="-3.1018930" lon="37.3423420">
    <ele>4075.0</ele>
    <time>2026-06-22T07:23:19Z</time>
   </trkpt>
   <trkpt lat="-3.1018990" lon="37.3423420">
    <ele>4074.9</ele>
    <time>2026-06-22T07:23:20Z</time>
   </trkpt>
   <trkpt lat="-3.1019050" lon="37.3423430">
    <ele>4074.8</ele>
    <time>2026-06-22T07:23:21Z</time>
   </trkpt>
   <trkpt lat="-3.1019090" lon="37.3423490">
    <ele>4074.6</ele>
    <time>2026-06-22T07:23:22Z</time>
   </trkpt>
   <trkpt lat="-3.1019150" lon="37.3423540">
    <ele>4074.5</ele>
    <time>2026-06-22T07:23:23Z</time>
   </trkpt>
   <trkpt lat="-3.1019190" lon="37.3423560">
    <ele>4074.5</ele>
    <time>2026-06-22T07:23:24Z</time>
   </trkpt>
   <trkpt lat="-3.1019240" lon="37.3423570">
    <ele>4074.4</ele>
    <time>2026-06-22T07:23:26Z</time>
   </trkpt>
   <trkpt lat="-3.1019280" lon="37.3423570">
    <ele>4074.4</ele>
    <time>2026-06-22T07:23:27Z</time>
   </trkpt>
   <trkpt lat="-3.1019350" lon="37.3423580">
    <ele>4074.3</ele>
    <time>2026-06-22T07:23:28Z</time>
   </trkpt>
   <trkpt lat="-3.1019380" lon="37.3423560">
    <ele>4074.2</ele>
    <time>2026-06-22T07:23:29Z</time>
   </trkpt>
   <trkpt lat="-3.1019390" lon="37.3423530">
    <ele>4074.2</ele>
    <time>2026-06-22T07:23:30Z</time>
   </trkpt>
   <trkpt lat="-3.1019440" lon="37.3423510">
    <ele>4074.1</ele>
    <time>2026-06-22T07:23:31Z</time>
   </trkpt>
   <trkpt lat="-3.1019470" lon="37.3423490">
    <ele>4074.1</ele>
    <time>2026-06-22T07:23:32Z</time>
   </trkpt>
   <trkpt lat="-3.1019500" lon="37.3423460">
    <ele>4074.0</ele>
    <time>2026-06-22T07:23:33Z</time>
   </trkpt>
   <trkpt lat="-3.1019540" lon="37.3423410">
    <ele>4073.9</ele>
    <time>2026-06-22T07:23:34Z</time>
   </trkpt>
   <trkpt lat="-3.1019590" lon="37.3423360">
    <ele>4073.8</ele>
    <time>2026-06-22T07:23:35Z</time>
   </trkpt>
   <trkpt lat="-3.1019640" lon="37.3423340">
    <ele>4073.7</ele>
    <time>2026-06-22T07:23:36Z</time>
   </trkpt>
   <trkpt lat="-3.1019690" lon="37.3423340">
    <ele>4073.6</ele>
    <time>2026-06-22T07:23:37Z</time>
   </trkpt>
   <trkpt lat="-3.1019760" lon="37.3423330">
    <ele>4073.5</ele>
    <time>2026-06-22T07:23:38Z</time>
   </trkpt>
   <trkpt lat="-3.1019850" lon="37.3423330">
    <ele>4073.4</ele>
    <time>2026-06-22T07:23:39Z</time>
   </trkpt>
   <trkpt lat="-3.1019900" lon="37.3423340">
    <ele>4073.3</ele>
    <time>2026-06-22T07:23:40Z</time>
   </trkpt>
   <trkpt lat="-3.1019830" lon="37.3423300">
    <ele>4073.1</ele>
    <time>2026-06-22T07:23:41Z</time>
   </trkpt>
   <trkpt lat="-3.1019840" lon="37.3423220">
    <ele>4073.0</ele>
    <time>2026-06-22T07:23:42Z</time>
   </trkpt>
   <trkpt lat="-3.1019870" lon="37.3423170">
    <ele>4072.9</ele>
    <time>2026-06-22T07:23:43Z</time>
   </trkpt>
   <trkpt lat="-3.1019970" lon="37.3423190">
    <ele>4072.7</ele>
    <time>2026-06-22T07:23:44Z</time>
   </trkpt>
   <trkpt lat="-3.1019980" lon="37.3423180">
    <ele>4072.6</ele>
    <time>2026-06-22T07:23:45Z</time>
   </trkpt>
   <trkpt lat="-3.1020010" lon="37.3423180">
    <ele>4072.6</ele>
    <time>2026-06-22T07:23:46Z</time>
   </trkpt>
   <trkpt lat="-3.1020040" lon="37.3423180">
    <ele>4072.5</ele>
    <time>2026-06-22T07:23:47Z</time>
   </trkpt>
   <trkpt lat="-3.1020060" lon="37.3423150">
    <ele>4072.5</ele>
    <time>2026-06-22T07:23:48Z</time>
   </trkpt>
   <trkpt lat="-3.1020080" lon="37.3423130">
    <ele>4072.4</ele>
    <time>2026-06-22T07:23:49Z</time>
   </trkpt>
   <trkpt lat="-3.1020110" lon="37.3423110">
    <ele>4072.3</ele>
    <time>2026-06-22T07:23:50Z</time>
   </trkpt>
   <trkpt lat="-3.1020150" lon="37.3423050">
    <ele>4072.2</ele>
    <time>2026-06-22T07:23:51Z</time>
   </trkpt>
   <trkpt lat="-3.1020200" lon="37.3423010">
    <ele>4072.0</ele>
    <time>2026-06-22T07:23:52Z</time>
   </trkpt>
   <trkpt lat="-3.1020260" lon="37.3422940">
    <ele>4071.9</ele>
    <time>2026-06-22T07:23:53Z</time>
   </trkpt>
   <trkpt lat="-3.1020310" lon="37.3422910">
    <ele>4071.8</ele>
    <time>2026-06-22T07:23:54Z</time>
   </trkpt>
   <trkpt lat="-3.1020350" lon="37.3422930">
    <ele>4071.7</ele>
    <time>2026-06-22T07:23:55Z</time>
   </trkpt>
   <trkpt lat="-3.1020430" lon="37.3422900">
    <ele>4071.5</ele>
    <time>2026-06-22T07:23:56Z</time>
   </trkpt>
   <trkpt lat="-3.1020460" lon="37.3422910">
    <ele>4071.5</ele>
    <time>2026-06-22T07:23:57Z</time>
   </trkpt>
   <trkpt lat="-3.1020520" lon="37.3422910">
    <ele>4071.4</ele>
    <time>2026-06-22T07:23:58Z</time>
   </trkpt>
   <trkpt lat="-3.1020560" lon="37.3422910">
    <ele>4071.2</ele>
    <time>2026-06-22T07:23:59Z</time>
   </trkpt>
   <trkpt lat="-3.1020580" lon="37.3422890">
    <ele>4071.2</ele>
    <time>2026-06-22T07:24:00Z</time>
   </trkpt>
   <trkpt lat="-3.1020550" lon="37.3422880">
    <ele>4071.1</ele>
    <time>2026-06-22T07:24:01Z</time>
   </trkpt>
   <trkpt lat="-3.1020550" lon="37.3422880">
    <ele>4071.1</ele>
    <time>2026-06-22T07:24:02Z</time>
   </trkpt>
   <trkpt lat="-3.1020540" lon="37.3422880">
    <ele>4071.0</ele>
    <time>2026-06-22T07:24:03Z</time>
   </trkpt>
   <trkpt lat="-3.1020530" lon="37.3422880">
    <ele>4071.0</ele>
    <time>2026-06-22T07:24:04Z</time>
   </trkpt>
   <trkpt lat="-3.1020540" lon="37.3422880">
    <ele>4071.0</ele>
    <time>2026-06-22T07:24:05Z</time>
   </trkpt>
   <trkpt lat="-3.1020540" lon="37.3422880">
    <ele>4071.0</ele>
    <time>2026-06-22T07:24:06Z</time>
   </trkpt>
   <trkpt lat="-3.1020550" lon="37.3422870">
    <ele>4070.9</ele>
    <time>2026-06-22T07:24:07Z</time>
   </trkpt>
   <trkpt lat="-3.1020550" lon="37.3422870">
    <ele>4070.9</ele>
    <time>2026-06-22T07:24:08Z</time>
   </trkpt>
   <trkpt lat="-3.1020580" lon="37.3422860">
    <ele>4070.9</ele>
    <time>2026-06-22T07:24:09Z</time>
   </trkpt>
   <trkpt lat="-3.1020590" lon="37.3422860">
    <ele>4070.8</ele>
    <time>2026-06-22T07:24:10Z</time>
   </trkpt>
   <trkpt lat="-3.1020580" lon="37.3422860">
    <ele>4070.8</ele>
    <time>2026-06-22T07:24:11Z</time>
   </trkpt>
   <trkpt lat="-3.1020580" lon="37.3422860">
    <ele>4070.8</ele>
    <time>2026-06-22T07:24:12Z</time>
   </trkpt>
   <trkpt lat="-3.1020580" lon="37.3422860">
    <ele>4070.8</ele>
    <time>2026-06-22T07:24:13Z</time>
   </trkpt>
   <trkpt lat="-3.1020580" lon="37.3422860">
    <ele>4070.7</ele>
    <time>2026-06-22T07:24:14Z</time>
   </trkpt>
   <trkpt lat="-3.1020570" lon="37.3422860">
    <ele>4070.7</ele>
    <time>2026-06-22T07:24:15Z</time>
   </trkpt>
   <trkpt lat="-3.1020570" lon="37.3422860">
    <ele>4070.7</ele>
    <time>2026-06-22T07:24:16Z</time>
   </trkpt>
   <trkpt lat="-3.1020560" lon="37.3422850">
    <ele>4070.7</ele>
    <time>2026-06-22T07:24:17Z</time>
   </trkpt>
   <trkpt lat="-3.1020570" lon="37.3422860">
    <ele>4070.6</ele>
    <time>2026-06-22T07:24:18Z</time>
   </trkpt>
   <trkpt lat="-3.1020610" lon="37.3422850">
    <ele>4070.5</ele>
    <time>2026-06-22T07:24:19Z</time>
   </trkpt>
   <trkpt lat="-3.1020580" lon="37.3422860">
    <ele>4070.5</ele>
    <time>2026-06-22T07:24:20Z</time>
   </trkpt>
   <trkpt lat="-3.1020580" lon="37.3422850">
    <ele>4070.4</ele>
    <time>2026-06-22T07:24:21Z</time>
   </trkpt>
   <trkpt lat="-3.1020590" lon="37.3422850">
    <ele>4070.4</ele>
    <time>2026-06-22T07:24:22Z</time>
   </trkpt>
   <trkpt lat="-3.1020590" lon="37.3422850">
    <ele>4070.4</ele>
    <time>2026-06-22T07:24:23Z</time>
   </trkpt>
   <trkpt lat="-3.1020580" lon="37.3422850">
    <ele>4070.4</ele>
    <time>2026-06-22T07:24:24Z</time>
   </trkpt>
   <trkpt lat="-3.1020580" lon="37.3422850">
    <ele>4070.4</ele>
    <time>2026-06-22T07:24:25Z</time>
   </trkpt>
   <trkpt lat="-3.1020580" lon="37.3422860">
    <ele>4070.3</ele>
    <time>2026-06-22T07:24:26Z</time>
   </trkpt>
   <trkpt lat="-3.1020580" lon="37.3422860">
    <ele>4070.3</ele>
    <time>2026-06-22T07:24:27Z</time>
   </trkpt>
   <trkpt lat="-3.1020590" lon="37.3422860">
    <ele>4070.3</ele>
    <time>2026-06-22T07:24:28Z</time>
   </trkpt>
   <trkpt lat="-3.1020590" lon="37.3422860">
    <ele>4070.3</ele>
    <time>2026-06-22T07:24:29Z</time>
   </trkpt>
   <trkpt lat="-3.1020590" lon="37.3422850">
    <ele>4070.2</ele>
    <time>2026-06-22T07:24:30Z</time>
   </trkpt>
   <trkpt lat="-3.1020590" lon="37.3422850">
    <ele>4070.2</ele>
    <time>2026-06-22T07:24:31Z</time>
   </trkpt>
   <trkpt lat="-3.1020590" lon="37.3422850">
    <ele>4070.2</ele>
    <time>2026-06-22T07:24:32Z</time>
   </trkpt>
   <trkpt lat="-3.1020580" lon="37.3422860">
    <ele>4070.2</ele>
    <time>2026-06-22T07:24:33Z</time>
   </trkpt>
   <trkpt lat="-3.1020590" lon="37.3422850">
    <ele>4070.2</ele>
    <time>2026-06-22T07:24:34Z</time>
   </trkpt>
   <trkpt lat="-3.1020560" lon="37.3422850">
    <ele>4070.1</ele>
    <time>2026-06-22T07:24:35Z</time>
   </trkpt>
   <trkpt lat="-3.1020570" lon="37.3422860">
    <ele>4070.1</ele>
    <time>2026-06-22T07:24:36Z</time>
   </trkpt>
   <trkpt lat="-3.1020570" lon="37.3422860">
    <ele>4070.1</ele>
    <time>2026-06-22T07:24:37Z</time>
   </trkpt>
   <trkpt lat="-3.1020550" lon="37.3422840">
    <ele>4070.0</ele>
    <time>2026-06-22T07:24:38Z</time>
   </trkpt>
   <trkpt lat="-3.1020580" lon="37.3422800">
    <ele>4069.9</ele>
    <time>2026-06-22T07:24:39Z</time>
   </trkpt>
   <trkpt lat="-3.1020570" lon="37.3422810">
    <ele>4069.9</ele>
    <time>2026-06-22T07:24:40Z</time>
   </trkpt>
   <trkpt lat="-3.1020550" lon="37.3422830">
    <ele>4069.8</ele>
    <time>2026-06-22T07:24:41Z</time>
   </trkpt>
   <trkpt lat="-3.1020550" lon="37.3422830">
    <ele>4069.8</ele>
    <time>2026-06-22T07:24:42Z</time>
   </trkpt>
   <trkpt lat="-3.1020560" lon="37.3422850">
    <ele>4069.7</ele>
    <time>2026-06-22T07:24:43Z</time>
   </trkpt>
   <trkpt lat="-3.1020600" lon="37.3422810">
    <ele>4069.6</ele>
    <time>2026-06-22T07:24:44Z</time>
   </trkpt>
   <trkpt lat="-3.1020610" lon="37.3422780">
    <ele>4069.5</ele>
    <time>2026-06-22T07:24:45Z</time>
   </trkpt>
   <trkpt lat="-3.1020630" lon="37.3422760">
    <ele>4069.5</ele>
    <time>2026-06-22T07:24:46Z</time>
   </trkpt>
   <trkpt lat="-3.1020620" lon="37.3422740">
    <ele>4069.4</ele>
    <time>2026-06-22T07:24:47Z</time>
   </trkpt>
   <trkpt lat="-3.1020670" lon="37.3422720">
    <ele>4069.3</ele>
    <time>2026-06-22T07:24:48Z</time>
   </trkpt>
   <trkpt lat="-3.1020700" lon="37.3422670">
    <ele>4069.2</ele>
    <time>2026-06-22T07:24:49Z</time>
   </trkpt>
   <trkpt lat="-3.1020750" lon="37.3422640">
    <ele>4069.0</ele>
    <time>2026-06-22T07:24:50Z</time>
   </trkpt>
   <trkpt lat="-3.1020770" lon="37.3422620">
    <ele>4069.0</ele>
    <time>2026-06-22T07:24:51Z</time>
   </trkpt>
   <trkpt lat="-3.1020770" lon="37.3422610">
    <ele>4068.9</ele>
    <time>2026-06-22T07:24:52Z</time>
   </trkpt>
   <trkpt lat="-3.1020820" lon="37.3422600">
    <ele>4068.8</ele>
    <time>2026-06-22T07:24:53Z</time>
   </trkpt>
   <trkpt lat="-3.1020800" lon="37.3422610">
    <ele>4068.8</ele>
    <time>2026-06-22T07:24:54Z</time>
   </trkpt>
   <trkpt lat="-3.1020810" lon="37.3422610">
    <ele>4068.7</ele>
    <time>2026-06-22T07:24:55Z</time>
   </trkpt>
   <trkpt lat="-3.1020810" lon="37.3422610">
    <ele>4068.7</ele>
    <time>2026-06-22T07:24:56Z</time>
   </trkpt>
   <trkpt lat="-3.1020810" lon="37.3422620">
    <ele>4068.7</ele>
    <time>2026-06-22T07:24:57Z</time>
   </trkpt>
   <trkpt lat="-3.1020810" lon="37.3422630">
    <ele>4068.7</ele>
    <time>2026-06-22T07:24:58Z</time>
   </trkpt>
   <trkpt lat="-3.1020810" lon="37.3422630">
    <ele>4068.7</ele>
    <time>2026-06-22T07:24:59Z</time>
   </trkpt>
   <trkpt lat="-3.1020820" lon="37.3422620">
    <ele>4068.6</ele>
    <time>2026-06-22T07:25:00Z</time>
   </trkpt>
   <trkpt lat="-3.1020860" lon="37.3422600">
    <ele>4068.5</ele>
    <time>2026-06-22T07:25:01Z</time>
   </trkpt>
   <trkpt lat="-3.1020890" lon="37.3422610">
    <ele>4068.5</ele>
    <time>2026-06-22T07:25:02Z</time>
   </trkpt>
   <trkpt lat="-3.1020910" lon="37.3422610">
    <ele>4068.4</ele>
    <time>2026-06-22T07:25:03Z</time>
   </trkpt>
   <trkpt lat="-3.1020900" lon="37.3422620">
    <ele>4068.4</ele>
    <time>2026-06-22T07:25:04Z</time>
   </trkpt>
   <trkpt lat="-3.1020900" lon="37.3422620">
    <ele>4068.4</ele>
    <time>2026-06-22T07:25:05Z</time>
   </trkpt>
   <trkpt lat="-3.1020900" lon="37.3422610">
    <ele>4068.4</ele>
    <time>2026-06-22T07:25:06Z</time>
   </trkpt>
   <trkpt lat="-3.1020910" lon="37.3422610">
    <ele>4068.3</ele>
    <time>2026-06-22T07:25:07Z</time>
   </trkpt>
   <trkpt lat="-3.1020910" lon="37.3422610">
    <ele>4068.3</ele>
    <time>2026-06-22T07:25:08Z</time>
   </trkpt>
   <trkpt lat="-3.1020930" lon="37.3422600">
    <ele>4068.3</ele>
    <time>2026-06-22T07:25:09Z</time>
   </trkpt>
   <trkpt lat="-3.1020910" lon="37.3422600">
    <ele>4068.2</ele>
    <time>2026-06-22T07:25:10Z</time>
   </trkpt>
   <trkpt lat="-3.1020910" lon="37.3422590">
    <ele>4068.2</ele>
    <time>2026-06-22T07:25:11Z</time>
   </trkpt>
   <trkpt lat="-3.1020910" lon="37.3422600">
    <ele>4068.2</ele>
    <time>2026-06-22T07:25:12Z</time>
   </trkpt>
   <trkpt lat="-3.1020910" lon="37.3422600">
    <ele>4068.2</ele>
    <time>2026-06-22T07:25:13Z</time>
   </trkpt>
   <trkpt lat="-3.1020910" lon="37.3422600">
    <ele>4068.2</ele>
    <time>2026-06-22T07:25:14Z</time>
   </trkpt>
   <trkpt lat="-3.1020910" lon="37.3422600">
    <ele>4068.2</ele>
    <time>2026-06-22T07:25:15Z</time>
   </trkpt>
   <trkpt lat="-3.1020910" lon="37.3422600">
    <ele>4068.2</ele>
    <time>2026-06-22T07:25:16Z</time>
   </trkpt>
   <trkpt lat="-3.1020910" lon="37.3422600">
    <ele>4068.2</ele>
    <time>2026-06-22T07:25:17Z</time>
   </trkpt>
   <trkpt lat="-3.1020910" lon="37.3422600">
    <ele>4068.2</ele>
    <time>2026-06-22T07:25:18Z</time>
   </trkpt>
   <trkpt lat="-3.1020910" lon="37.3422600">
    <ele>4068.2</ele>
    <time>2026-06-22T07:25:19Z</time>
   </trkpt>
   <trkpt lat="-3.1020910" lon="37.3422600">
    <ele>4068.2</ele>
    <time>2026-06-22T07:25:20Z</time>
   </trkpt>
   <trkpt lat="-3.1020910" lon="37.3422600">
    <ele>4068.2</ele>
    <time>2026-06-22T07:25:21Z</time>
   </trkpt>
   <trkpt lat="-3.1020900" lon="37.3422620">
    <ele>4068.1</ele>
    <time>2026-06-22T07:25:22Z</time>
   </trkpt>
   <trkpt lat="-3.1020900" lon="37.3422620">
    <ele>4068.1</ele>
    <time>2026-06-22T07:25:23Z</time>
   </trkpt>
   <trkpt lat="-3.1020900" lon="37.3422620">
    <ele>4068.1</ele>
    <time>2026-06-22T07:25:24Z</time>
   </trkpt>
   <trkpt lat="-3.1020910" lon="37.3422630">
    <ele>4068.1</ele>
    <time>2026-06-22T07:25:25Z</time>
   </trkpt>
   <trkpt lat="-3.1020930" lon="37.3422630">
    <ele>4068.1</ele>
    <time>2026-06-22T07:25:26Z</time>
   </trkpt>
   <trkpt lat="-3.1020930" lon="37.3422630">
    <ele>4068.1</ele>
    <time>2026-06-22T07:25:27Z</time>
   </trkpt>
   <trkpt lat="-3.1020950" lon="37.3422620">
    <ele>4068.0</ele>
    <time>2026-06-22T07:25:28Z</time>
   </trkpt>
   <trkpt lat="-3.1020950" lon="37.3422620">
    <ele>4068.0</ele>
    <time>2026-06-22T07:25:29Z</time>
   </trkpt>
   <trkpt lat="-3.1020940" lon="37.3422610">
    <ele>4068.0</ele>
    <time>2026-06-22T07:25:30Z</time>
   </trkpt>
   <trkpt lat="-3.1020930" lon="37.3422610">
    <ele>4067.9</ele>
    <time>2026-06-22T07:25:32Z</time>
   </trkpt>
   <trkpt lat="-3.1020930" lon="37.3422610">
    <ele>4067.9</ele>
    <time>2026-06-22T07:25:33Z</time>
   </trkpt>
   <trkpt lat="-3.1020930" lon="37.3422610">
    <ele>4067.9</ele>
    <time>2026-06-22T07:25:34Z</time>
   </trkpt>
   <trkpt lat="-3.1020930" lon="37.3422610">
    <ele>4067.9</ele>
    <time>2026-06-22T07:25:35Z</time>
   </trkpt>
   <trkpt lat="-3.1020930" lon="37.3422610">
    <ele>4067.9</ele>
    <time>2026-06-22T07:25:36Z</time>
   </trkpt>
   <trkpt lat="-3.1020920" lon="37.3422610">
    <ele>4067.9</ele>
    <time>2026-06-22T07:25:37Z</time>
   </trkpt>
   <trkpt lat="-3.1020950" lon="37.3422590">
    <ele>4067.8</ele>
    <time>2026-06-22T07:25:38Z</time>
   </trkpt>
   <trkpt lat="-3.1020950" lon="37.3422610">
    <ele>4067.8</ele>
    <time>2026-06-22T07:25:39Z</time>
   </trkpt>
   <trkpt lat="-3.1021030" lon="37.3422590">
    <ele>4067.6</ele>
    <time>2026-06-22T07:25:40Z</time>
   </trkpt>
   <trkpt lat="-3.1021030" lon="37.3422600">
    <ele>4067.6</ele>
    <time>2026-06-22T07:25:41Z</time>
   </trkpt>
   <trkpt lat="-3.1020990" lon="37.3422610">
    <ele>4067.5</ele>
    <time>2026-06-22T07:25:42Z</time>
   </trkpt>
   <trkpt lat="-3.1020990" lon="37.3422620">
    <ele>4067.4</ele>
    <time>2026-06-22T07:25:43Z</time>
   </trkpt>
   <trkpt lat="-3.1020990" lon="37.3422610">
    <ele>4067.4</ele>
    <time>2026-06-22T07:25:44Z</time>
   </trkpt>
   <trkpt lat="-3.1020990" lon="37.3422610">
    <ele>4067.4</ele>
    <time>2026-06-22T07:25:45Z</time>
   </trkpt>
   <trkpt lat="-3.1020990" lon="37.3422610">
    <ele>4067.4</ele>
    <time>2026-06-22T07:25:46Z</time>
   </trkpt>
   <trkpt lat="-3.1020990" lon="37.3422610">
    <ele>4067.4</ele>
    <time>2026-06-22T07:25:47Z</time>
   </trkpt>
   <trkpt lat="-3.1020990" lon="37.3422610">
    <ele>4067.4</ele>
    <time>2026-06-22T07:25:48Z</time>
   </trkpt>
   <trkpt lat="-3.1020990" lon="37.3422610">
    <ele>4067.4</ele>
    <time>2026-06-22T07:25:49Z</time>
   </trkpt>
   <trkpt lat="-3.1020990" lon="37.3422610">
    <ele>4067.4</ele>
    <time>2026-06-22T07:25:50Z</time>
   </trkpt>
   <trkpt lat="-3.1021020" lon="37.3422630">
    <ele>4067.3</ele>
    <time>2026-06-22T07:25:51Z</time>
   </trkpt>
   <trkpt lat="-3.1021010" lon="37.3422630">
    <ele>4067.3</ele>
    <time>2026-06-22T07:25:52Z</time>
   </trkpt>
   <trkpt lat="-3.1021040" lon="37.3422630">
    <ele>4067.2</ele>
    <time>2026-06-22T07:25:53Z</time>
   </trkpt>
   <trkpt lat="-3.1021030" lon="37.3422630">
    <ele>4067.2</ele>
    <time>2026-06-22T07:25:54Z</time>
   </trkpt>
   <trkpt lat="-3.1021030" lon="37.3422630">
    <ele>4067.2</ele>
    <time>2026-06-22T07:25:55Z</time>
   </trkpt>
   <trkpt lat="-3.1021020" lon="37.3422630">
    <ele>4067.2</ele>
    <time>2026-06-22T07:25:56Z</time>
   </trkpt>
   <trkpt lat="-3.1021020" lon="37.3422630">
    <ele>4067.2</ele>
    <time>2026-06-22T07:25:57Z</time>
   </trkpt>
   <trkpt lat="-3.1021020" lon="37.3422630">
    <ele>4067.2</ele>
    <time>2026-06-22T07:25:58Z</time>
   </trkpt>
   <trkpt lat="-3.1021020" lon="37.3422630">
    <ele>4067.2</ele>
    <time>2026-06-22T07:25:59Z</time>
   </trkpt>
   <trkpt lat="-3.1021040" lon="37.3422620">
    <ele>4067.1</ele>
    <time>2026-06-22T07:26:00Z</time>
   </trkpt>
   <trkpt lat="-3.1021030" lon="37.3422620">
    <ele>4067.1</ele>
    <time>2026-06-22T07:26:01Z</time>
   </trkpt>
   <trkpt lat="-3.1021030" lon="37.3422620">
    <ele>4067.1</ele>
    <time>2026-06-22T07:26:02Z</time>
   </trkpt>
   <trkpt lat="-3.1021030" lon="37.3422620">
    <ele>4067.1</ele>
    <time>2026-06-22T07:26:03Z</time>
   </trkpt>
   <trkpt lat="-3.1021030" lon="37.3422600">
    <ele>4067.1</ele>
    <time>2026-06-22T07:26:04Z</time>
   </trkpt>
   <trkpt lat="-3.1021030" lon="37.3422600">
    <ele>4067.1</ele>
    <time>2026-06-22T07:26:05Z</time>
   </trkpt>
   <trkpt lat="-3.1021020" lon="37.3422600">
    <ele>4067.0</ele>
    <time>2026-06-22T07:26:06Z</time>
   </trkpt>
   <trkpt lat="-3.1021060" lon="37.3422600">
    <ele>4066.9</ele>
    <time>2026-06-22T07:26:07Z</time>
   </trkpt>
   <trkpt lat="-3.1021080" lon="37.3422580">
    <ele>4066.9</ele>
    <time>2026-06-22T07:26:08Z</time>
   </trkpt>
   <trkpt lat="-3.1021130" lon="37.3422580">
    <ele>4066.8</ele>
    <time>2026-06-22T07:26:09Z</time>
   </trkpt>
   <trkpt lat="-3.1021170" lon="37.3422560">
    <ele>4066.6</ele>
    <time>2026-06-22T07:26:10Z</time>
   </trkpt>
   <trkpt lat="-3.1021160" lon="37.3422550">
    <ele>4066.6</ele>
    <time>2026-06-22T07:26:11Z</time>
   </trkpt>
   <trkpt lat="-3.1021230" lon="37.3422530">
    <ele>4066.4</ele>
    <time>2026-06-22T07:26:12Z</time>
   </trkpt>
   <trkpt lat="-3.1021290" lon="37.3422480">
    <ele>4066.2</ele>
    <time>2026-06-22T07:26:13Z</time>
   </trkpt>
   <trkpt lat="-3.1021350" lon="37.3422440">
    <ele>4066.1</ele>
    <time>2026-06-22T07:26:14Z</time>
   </trkpt>
   <trkpt lat="-3.1021360" lon="37.3422420">
    <ele>4066.0</ele>
    <time>2026-06-22T07:26:15Z</time>
   </trkpt>
   <trkpt lat="-3.1021380" lon="37.3422400">
    <ele>4066.0</ele>
    <time>2026-06-22T07:26:16Z</time>
   </trkpt>
   <trkpt lat="-3.1021390" lon="37.3422400">
    <ele>4065.9</ele>
    <time>2026-06-22T07:26:17Z</time>
   </trkpt>
   <trkpt lat="-3.1021400" lon="37.3422390">
    <ele>4065.9</ele>
    <time>2026-06-22T07:26:18Z</time>
   </trkpt>
   <trkpt lat="-3.1021440" lon="37.3422370">
    <ele>4065.8</ele>
    <time>2026-06-22T07:26:19Z</time>
   </trkpt>
   <trkpt lat="-3.1021450" lon="37.3422390">
    <ele>4065.7</ele>
    <time>2026-06-22T07:26:20Z</time>
   </trkpt>
   <trkpt lat="-3.1021480" lon="37.3422360">
    <ele>4065.6</ele>
    <time>2026-06-22T07:26:21Z</time>
   </trkpt>
   <trkpt lat="-3.1021530" lon="37.3422330">
    <ele>4065.5</ele>
    <time>2026-06-22T07:26:22Z</time>
   </trkpt>
   <trkpt lat="-3.1021560" lon="37.3422330">
    <ele>4065.4</ele>
    <time>2026-06-22T07:26:23Z</time>
   </trkpt>
   <trkpt lat="-3.1021620" lon="37.3422300">
    <ele>4065.3</ele>
    <time>2026-06-22T07:26:24Z</time>
   </trkpt>
   <trkpt lat="-3.1021650" lon="37.3422280">
    <ele>4065.2</ele>
    <time>2026-06-22T07:26:25Z</time>
   </trkpt>
   <trkpt lat="-3.1021670" lon="37.3422280">
    <ele>4065.1</ele>
    <time>2026-06-22T07:26:26Z</time>
   </trkpt>
   <trkpt lat="-3.1021700" lon="37.3422250">
    <ele>4065.0</ele>
    <time>2026-06-22T07:26:27Z</time>
   </trkpt>
   <trkpt lat="-3.1021750" lon="37.3422220">
    <ele>4064.9</ele>
    <time>2026-06-22T07:26:28Z</time>
   </trkpt>
   <trkpt lat="-3.1021830" lon="37.3422240">
    <ele>4064.7</ele>
    <time>2026-06-22T07:26:29Z</time>
   </trkpt>
   <trkpt lat="-3.1021890" lon="37.3422220">
    <ele>4064.5</ele>
    <time>2026-06-22T07:26:30Z</time>
   </trkpt>
   <trkpt lat="-3.1021900" lon="37.3422160">
    <ele>4064.4</ele>
    <time>2026-06-22T07:26:31Z</time>
   </trkpt>
   <trkpt lat="-3.1021940" lon="37.3422080">
    <ele>4064.2</ele>
    <time>2026-06-22T07:26:32Z</time>
   </trkpt>
   <trkpt lat="-3.1022000" lon="37.3422010">
    <ele>4064.0</ele>
    <time>2026-06-22T07:26:33Z</time>
   </trkpt>
   <trkpt lat="-3.1022030" lon="37.3421970">
    <ele>4063.8</ele>
    <time>2026-06-22T07:26:34Z</time>
   </trkpt>
   <trkpt lat="-3.1022070" lon="37.3421930">
    <ele>4063.7</ele>
    <time>2026-06-22T07:26:35Z</time>
   </trkpt>
   <trkpt lat="-3.1022110" lon="37.3421890">
    <ele>4063.6</ele>
    <time>2026-06-22T07:26:36Z</time>
   </trkpt>
   <trkpt lat="-3.1022160" lon="37.3421850">
    <ele>4063.4</ele>
    <time>2026-06-22T07:26:37Z</time>
   </trkpt>
   <trkpt lat="-3.1022170" lon="37.3421790">
    <ele>4063.3</ele>
    <time>2026-06-22T07:26:38Z</time>
   </trkpt>
   <trkpt lat="-3.1022260" lon="37.3421660">
    <ele>4062.9</ele>
    <time>2026-06-22T07:26:39Z</time>
   </trkpt>
   <trkpt lat="-3.1022270" lon="37.3421670">
    <ele>4062.9</ele>
    <time>2026-06-22T07:26:40Z</time>
   </trkpt>
   <trkpt lat="-3.1022300" lon="37.3421680">
    <ele>4062.8</ele>
    <time>2026-06-22T07:26:41Z</time>
   </trkpt>
   <trkpt lat="-3.1022370" lon="37.3421690">
    <ele>4062.6</ele>
    <time>2026-06-22T07:26:42Z</time>
   </trkpt>
   <trkpt lat="-3.1022400" lon="37.3421690">
    <ele>4062.5</ele>
    <time>2026-06-22T07:26:43Z</time>
   </trkpt>
   <trkpt lat="-3.1022460" lon="37.3421690">
    <ele>4062.4</ele>
    <time>2026-06-22T07:26:44Z</time>
   </trkpt>
   <trkpt lat="-3.1022500" lon="37.3421650">
    <ele>4062.3</ele>
    <time>2026-06-22T07:26:45Z</time>
   </trkpt>
   <trkpt lat="-3.1022570" lon="37.3421590">
    <ele>4062.1</ele>
    <time>2026-06-22T07:26:46Z</time>
   </trkpt>
   <trkpt lat="-3.1022560" lon="37.3421560">
    <ele>4062.0</ele>
    <time>2026-06-22T07:26:47Z</time>
   </trkpt>
   <trkpt lat="-3.1022550" lon="37.3421510">
    <ele>4061.9</ele>
    <time>2026-06-22T07:26:48Z</time>
   </trkpt>
   <trkpt lat="-3.1022560" lon="37.3421440">
    <ele>4061.7</ele>
    <time>2026-06-22T07:26:49Z</time>
   </trkpt>
   <trkpt lat="-3.1022530" lon="37.3421380">
    <ele>4061.6</ele>
    <time>2026-06-22T07:26:50Z</time>
   </trkpt>
   <trkpt lat="-3.1022520" lon="37.3421300">
    <ele>4061.4</ele>
    <time>2026-06-22T07:26:51Z</time>
   </trkpt>
   <trkpt lat="-3.1022530" lon="37.3421240">
    <ele>4061.2</ele>
    <time>2026-06-22T07:26:52Z</time>
   </trkpt>
   <trkpt lat="-3.1022570" lon="37.3421190">
    <ele>4061.1</ele>
    <time>2026-06-22T07:26:53Z</time>
   </trkpt>
   <trkpt lat="-3.1022640" lon="37.3421180">
    <ele>4060.9</ele>
    <time>2026-06-22T07:26:54Z</time>
   </trkpt>
   <trkpt lat="-3.1022700" lon="37.3421190">
    <ele>4060.8</ele>
    <time>2026-06-22T07:26:55Z</time>
   </trkpt>
   <trkpt lat="-3.1022740" lon="37.3421220">
    <ele>4060.7</ele>
    <time>2026-06-22T07:26:56Z</time>
   </trkpt>
   <trkpt lat="-3.1022770" lon="37.3421270">
    <ele>4060.5</ele>
    <time>2026-06-22T07:26:57Z</time>
   </trkpt>
   <trkpt lat="-3.1022810" lon="37.3421350">
    <ele>4060.3</ele>
    <time>2026-06-22T07:26:58Z</time>
   </trkpt>
   <trkpt lat="-3.1022840" lon="37.3421400">
    <ele>4060.2</ele>
    <time>2026-06-22T07:26:59Z</time>
   </trkpt>
   <trkpt lat="-3.1022880" lon="37.3421440">
    <ele>4060.1</ele>
    <time>2026-06-22T07:27:00Z</time>
   </trkpt>
   <trkpt lat="-3.1022920" lon="37.3421410">
    <ele>4060.0</ele>
    <time>2026-06-22T07:27:01Z</time>
   </trkpt>
   <trkpt lat="-3.1022970" lon="37.3421390">
    <ele>4059.8</ele>
    <time>2026-06-22T07:27:02Z</time>
   </trkpt>
   <trkpt lat="-3.1023070" lon="37.3421340">
    <ele>4059.6</ele>
    <time>2026-06-22T07:27:03Z</time>
   </trkpt>
   <trkpt lat="-3.1023120" lon="37.3421290">
    <ele>4059.4</ele>
    <time>2026-06-22T07:27:04Z</time>
   </trkpt>
   <trkpt lat="-3.1023190" lon="37.3421270">
    <ele>4059.3</ele>
    <time>2026-06-22T07:27:05Z</time>
   </trkpt>
   <trkpt lat="-3.1023230" lon="37.3421280">
    <ele>4059.2</ele>
    <time>2026-06-22T07:27:06Z</time>
   </trkpt>
   <trkpt lat="-3.1023300" lon="37.3421290">
    <ele>4059.0</ele>
    <time>2026-06-22T07:27:07Z</time>
   </trkpt>
   <trkpt lat="-3.1023370" lon="37.3421280">
    <ele>4058.9</ele>
    <time>2026-06-22T07:27:08Z</time>
   </trkpt>
   <trkpt lat="-3.1023410" lon="37.3421280">
    <ele>4058.8</ele>
    <time>2026-06-22T07:27:09Z</time>
   </trkpt>
   <trkpt lat="-3.1023460" lon="37.3421260">
    <ele>4058.7</ele>
    <time>2026-06-22T07:27:10Z</time>
   </trkpt>
   <trkpt lat="-3.1023510" lon="37.3421250">
    <ele>4058.6</ele>
    <time>2026-06-22T07:27:11Z</time>
   </trkpt>
   <trkpt lat="-3.1023590" lon="37.3421210">
    <ele>4058.4</ele>
    <time>2026-06-22T07:27:12Z</time>
   </trkpt>
   <trkpt lat="-3.1023640" lon="37.3421180">
    <ele>4058.3</ele>
    <time>2026-06-22T07:27:13Z</time>
   </trkpt>
   <trkpt lat="-3.1023700" lon="37.3421150">
    <ele>4058.1</ele>
    <time>2026-06-22T07:27:14Z</time>
   </trkpt>
   <trkpt lat="-3.1023760" lon="37.3421110">
    <ele>4058.0</ele>
    <time>2026-06-22T07:27:15Z</time>
   </trkpt>
   <trkpt lat="-3.1023840" lon="37.3421050">
    <ele>4057.8</ele>
    <time>2026-06-22T07:27:16Z</time>
   </trkpt>
   <trkpt lat="-3.1023910" lon="37.3420980">
    <ele>4057.6</ele>
    <time>2026-06-22T07:27:17Z</time>
   </trkpt>
   <trkpt lat="-3.1023990" lon="37.3420930">
    <ele>4057.4</ele>
    <time>2026-06-22T07:27:18Z</time>
   </trkpt>
   <trkpt lat="-3.1024040" lon="37.3420920">
    <ele>4057.3</ele>
    <time>2026-06-22T07:27:19Z</time>
   </trkpt>
   <trkpt lat="-3.1024080" lon="37.3420910">
    <ele>4057.2</ele>
    <time>2026-06-22T07:27:20Z</time>
   </trkpt>
   <trkpt lat="-3.1024140" lon="37.3420890">
    <ele>4057.1</ele>
    <time>2026-06-22T07:27:21Z</time>
   </trkpt>
   <trkpt lat="-3.1024240" lon="37.3420870">
    <ele>4056.9</ele>
    <time>2026-06-22T07:27:22Z</time>
   </trkpt>
   <trkpt lat="-3.1024270" lon="37.3420860">
    <ele>4056.8</ele>
    <time>2026-06-22T07:27:23Z</time>
   </trkpt>
   <trkpt lat="-3.1024350" lon="37.3420850">
    <ele>4056.7</ele>
    <time>2026-06-22T07:27:24Z</time>
   </trkpt>
   <trkpt lat="-3.1024440" lon="37.3420850">
    <ele>4056.5</ele>
    <time>2026-06-22T07:27:25Z</time>
   </trkpt>
   <trkpt lat="-3.1024500" lon="37.3420870">
    <ele>4056.4</ele>
    <time>2026-06-22T07:27:26Z</time>
   </trkpt>
   <trkpt lat="-3.1024560" lon="37.3420900">
    <ele>4056.2</ele>
    <time>2026-06-22T07:27:27Z</time>
   </trkpt>
   <trkpt lat="-3.1024610" lon="37.3420910">
    <ele>4056.1</ele>
    <time>2026-06-22T07:27:28Z</time>
   </trkpt>
   <trkpt lat="-3.1024680" lon="37.3420910">
    <ele>4056.0</ele>
    <time>2026-06-22T07:27:29Z</time>
   </trkpt>
   <trkpt lat="-3.1024740" lon="37.3420900">
    <ele>4055.9</ele>
    <time>2026-06-22T07:27:30Z</time>
   </trkpt>
   <trkpt lat="-3.1024810" lon="37.3420890">
    <ele>4055.7</ele>
    <time>2026-06-22T07:27:31Z</time>
   </trkpt>
   <trkpt lat="-3.1024880" lon="37.3420910">
    <ele>4055.6</ele>
    <time>2026-06-22T07:27:32Z</time>
   </trkpt>
   <trkpt lat="-3.1025020" lon="37.3420950">
    <ele>4055.3</ele>
    <time>2026-06-22T07:27:33Z</time>
   </trkpt>
   <trkpt lat="-3.1025050" lon="37.3420970">
    <ele>4055.2</ele>
    <time>2026-06-22T07:27:34Z</time>
   </trkpt>
   <trkpt lat="-3.1025100" lon="37.3421010">
    <ele>4055.1</ele>
    <time>2026-06-22T07:27:35Z</time>
   </trkpt>
   <trkpt lat="-3.1025160" lon="37.3421040">
    <ele>4055.0</ele>
    <time>2026-06-22T07:27:36Z</time>
   </trkpt>
   <trkpt lat="-3.1025130" lon="37.3421070">
    <ele>4054.9</ele>
    <time>2026-06-22T07:27:37Z</time>
   </trkpt>
   <trkpt lat="-3.1025120" lon="37.3421120">
    <ele>4054.8</ele>
    <time>2026-06-22T07:27:38Z</time>
   </trkpt>
   <trkpt lat="-3.1025100" lon="37.3421170">
    <ele>4054.7</ele>
    <time>2026-06-22T07:27:39Z</time>
   </trkpt>
   <trkpt lat="-3.1025060" lon="37.3421230">
    <ele>4054.6</ele>
    <time>2026-06-22T07:27:40Z</time>
   </trkpt>
   <trkpt lat="-3.1025050" lon="37.3421270">
    <ele>4054.5</ele>
    <time>2026-06-22T07:27:41Z</time>
   </trkpt>
   <trkpt lat="-3.1025050" lon="37.3421330">
    <ele>4054.4</ele>
    <time>2026-06-22T07:27:42Z</time>
   </trkpt>
   <trkpt lat="-3.1025100" lon="37.3421410">
    <ele>4054.2</ele>
    <time>2026-06-22T07:27:43Z</time>
   </trkpt>
   <trkpt lat="-3.1025150" lon="37.3421460">
    <ele>4054.1</ele>
    <time>2026-06-22T07:27:44Z</time>
   </trkpt>
   <trkpt lat="-3.1025210" lon="37.3421490">
    <ele>4054.0</ele>
    <time>2026-06-22T07:27:45Z</time>
   </trkpt>
   <trkpt lat="-3.1025270" lon="37.3421540">
    <ele>4053.9</ele>
    <time>2026-06-22T07:27:46Z</time>
   </trkpt>
   <trkpt lat="-3.1025300" lon="37.3421600">
    <ele>4053.8</ele>
    <time>2026-06-22T07:27:47Z</time>
   </trkpt>
   <trkpt lat="-3.1025320" lon="37.3421660">
    <ele>4053.6</ele>
    <time>2026-06-22T07:27:48Z</time>
   </trkpt>
   <trkpt lat="-3.1025330" lon="37.3421680">
    <ele>4053.6</ele>
    <time>2026-06-22T07:27:49Z</time>
   </trkpt>
   <trkpt lat="-3.1025340" lon="37.3421760">
    <ele>4053.5</ele>
    <time>2026-06-22T07:27:50Z</time>
   </trkpt>
   <trkpt lat="-3.1025320" lon="37.3421820">
    <ele>4053.4</ele>
    <time>2026-06-22T07:27:51Z</time>
   </trkpt>
   <trkpt lat="-3.1025330" lon="37.3421890">
    <ele>4053.2</ele>
    <time>2026-06-22T07:27:52Z</time>
   </trkpt>
   <trkpt lat="-3.1025340" lon="37.3421930">
    <ele>4053.2</ele>
    <time>2026-06-22T07:27:53Z</time>
   </trkpt>
   <trkpt lat="-3.1025320" lon="37.3421940">
    <ele>4053.1</ele>
    <time>2026-06-22T07:27:54Z</time>
   </trkpt>
   <trkpt lat="-3.1025310" lon="37.3421960">
    <ele>4053.1</ele>
    <time>2026-06-22T07:27:55Z</time>
   </trkpt>
   <trkpt lat="-3.1025340" lon="37.3421990">
    <ele>4053.0</ele>
    <time>2026-06-22T07:27:56Z</time>
   </trkpt>
   <trkpt lat="-3.1025350" lon="37.3422040">
    <ele>4052.9</ele>
    <time>2026-06-22T07:27:57Z</time>
   </trkpt>
   <trkpt lat="-3.1025370" lon="37.3422050">
    <ele>4052.9</ele>
    <time>2026-06-22T07:27:58Z</time>
   </trkpt>
   <trkpt lat="-3.1025420" lon="37.3422080">
    <ele>4052.8</ele>
    <time>2026-06-22T07:27:59Z</time>
   </trkpt>
   <trkpt lat="-3.1025480" lon="37.3422080">
    <ele>4052.7</ele>
    <time>2026-06-22T07:28:00Z</time>
   </trkpt>
   <trkpt lat="-3.1025580" lon="37.3422130">
    <ele>4052.5</ele>
    <time>2026-06-22T07:28:01Z</time>
   </trkpt>
   <trkpt lat="-3.1025660" lon="37.3422160">
    <ele>4052.3</ele>
    <time>2026-06-22T07:28:02Z</time>
   </trkpt>
   <trkpt lat="-3.1025740" lon="37.3422190">
    <ele>4052.2</ele>
    <time>2026-06-22T07:28:03Z</time>
   </trkpt>
   <trkpt lat="-3.1025740" lon="37.3422220">
    <ele>4052.1</ele>
    <time>2026-06-22T07:28:04Z</time>
   </trkpt>
   <trkpt lat="-3.1025770" lon="37.3422250">
    <ele>4052.1</ele>
    <time>2026-06-22T07:28:05Z</time>
   </trkpt>
   <trkpt lat="-3.1025780" lon="37.3422320">
    <ele>4052.0</ele>
    <time>2026-06-22T07:28:06Z</time>
   </trkpt>
   <trkpt lat="-3.1025800" lon="37.3422370">
    <ele>4051.9</ele>
    <time>2026-06-22T07:28:07Z</time>
   </trkpt>
   <trkpt lat="-3.1025790" lon="37.3422390">
    <ele>4051.8</ele>
    <time>2026-06-22T07:28:08Z</time>
   </trkpt>
   <trkpt lat="-3.1025830" lon="37.3422480">
    <ele>4051.7</ele>
    <time>2026-06-22T07:28:09Z</time>
   </trkpt>
   <trkpt lat="-3.1025870" lon="37.3422550">
    <ele>4051.5</ele>
    <time>2026-06-22T07:28:10Z</time>
   </trkpt>
   <trkpt lat="-3.1025920" lon="37.3422620">
    <ele>4051.4</ele>
    <time>2026-06-22T07:28:11Z</time>
   </trkpt>
   <trkpt lat="-3.1025990" lon="37.3422720">
    <ele>4051.2</ele>
    <time>2026-06-22T07:28:12Z</time>
   </trkpt>
   <trkpt lat="-3.1026040" lon="37.3422740">
    <ele>4051.1</ele>
    <time>2026-06-22T07:28:13Z</time>
   </trkpt>
   <trkpt lat="-3.1026100" lon="37.3422770">
    <ele>4051.0</ele>
    <time>2026-06-22T07:28:14Z</time>
   </trkpt>
   <trkpt lat="-3.1026230" lon="37.3422840">
    <ele>4050.7</ele>
    <time>2026-06-22T07:28:15Z</time>
   </trkpt>
   <trkpt lat="-3.1026320" lon="37.3422880">
    <ele>4050.6</ele>
    <time>2026-06-22T07:28:16Z</time>
   </trkpt>
   <trkpt lat="-3.1026390" lon="37.3422920">
    <ele>4050.4</ele>
    <time>2026-06-22T07:28:17Z</time>
   </trkpt>
   <trkpt lat="-3.1026440" lon="37.3422960">
    <ele>4050.3</ele>
    <time>2026-06-22T07:28:18Z</time>
   </trkpt>
   <trkpt lat="-3.1026510" lon="37.3423010">
    <ele>4050.2</ele>
    <time>2026-06-22T07:28:19Z</time>
   </trkpt>
   <trkpt lat="-3.1026600" lon="37.3423040">
    <ele>4050.0</ele>
    <time>2026-06-22T07:28:20Z</time>
   </trkpt>
   <trkpt lat="-3.1026650" lon="37.3423040">
    <ele>4050.0</ele>
    <time>2026-06-22T07:28:21Z</time>
   </trkpt>
   <trkpt lat="-3.1026720" lon="37.3423070">
    <ele>4049.8</ele>
    <time>2026-06-22T07:28:22Z</time>
   </trkpt>
   <trkpt lat="-3.1026780" lon="37.3423100">
    <ele>4049.7</ele>
    <time>2026-06-22T07:28:23Z</time>
   </trkpt>
   <trkpt lat="-3.1026850" lon="37.3423170">
    <ele>4049.6</ele>
    <time>2026-06-22T07:28:24Z</time>
   </trkpt>
   <trkpt lat="-3.1026880" lon="37.3423220">
    <ele>4049.5</ele>
    <time>2026-06-22T07:28:25Z</time>
   </trkpt>
   <trkpt lat="-3.1026920" lon="37.3423270">
    <ele>4049.4</ele>
    <time>2026-06-22T07:28:26Z</time>
   </trkpt>
   <trkpt lat="-3.1026990" lon="37.3423360">
    <ele>4049.2</ele>
    <time>2026-06-22T07:28:27Z</time>
   </trkpt>
   <trkpt lat="-3.1026960" lon="37.3423450">
    <ele>4049.1</ele>
    <time>2026-06-22T07:28:28Z</time>
   </trkpt>
   <trkpt lat="-3.1026950" lon="37.3423580">
    <ele>4048.9</ele>
    <time>2026-06-22T07:28:29Z</time>
   </trkpt>
   <trkpt lat="-3.1026910" lon="37.3423640">
    <ele>4048.8</ele>
    <time>2026-06-22T07:28:30Z</time>
   </trkpt>
   <trkpt lat="-3.1026890" lon="37.3423710">
    <ele>4048.7</ele>
    <time>2026-06-22T07:28:31Z</time>
   </trkpt>
   <trkpt lat="-3.1026860" lon="37.3423830">
    <ele>4048.6</ele>
    <time>2026-06-22T07:28:32Z</time>
   </trkpt>
   <trkpt lat="-3.1026830" lon="37.3423930">
    <ele>4048.4</ele>
    <time>2026-06-22T07:28:33Z</time>
   </trkpt>
   <trkpt lat="-3.1026820" lon="37.3424010">
    <ele>4048.3</ele>
    <time>2026-06-22T07:28:34Z</time>
   </trkpt>
   <trkpt lat="-3.1026800" lon="37.3424080">
    <ele>4048.3</ele>
    <time>2026-06-22T07:28:35Z</time>
   </trkpt>
   <trkpt lat="-3.1026760" lon="37.3424170">
    <ele>4048.1</ele>
    <time>2026-06-22T07:28:36Z</time>
   </trkpt>
   <trkpt lat="-3.1026690" lon="37.3424280">
    <ele>4048.0</ele>
    <time>2026-06-22T07:28:37Z</time>
   </trkpt>
   <trkpt lat="-3.1026660" lon="37.3424360">
    <ele>4047.9</ele>
    <time>2026-06-22T07:28:38Z</time>
   </trkpt>
   <trkpt lat="-3.1026640" lon="37.3424460">
    <ele>4047.8</ele>
    <time>2026-06-22T07:28:39Z</time>
   </trkpt>
   <trkpt lat="-3.1026650" lon="37.3424550">
    <ele>4047.7</ele>
    <time>2026-06-22T07:28:40Z</time>
   </trkpt>
   <trkpt lat="-3.1026610" lon="37.3424640">
    <ele>4047.6</ele>
    <time>2026-06-22T07:28:41Z</time>
   </trkpt>
   <trkpt lat="-3.1026570" lon="37.3424700">
    <ele>4047.5</ele>
    <time>2026-06-22T07:28:42Z</time>
   </trkpt>
   <trkpt lat="-3.1026540" lon="37.3424720">
    <ele>4047.5</ele>
    <time>2026-06-22T07:28:43Z</time>
   </trkpt>
   <trkpt lat="-3.1026500" lon="37.3424840">
    <ele>4047.4</ele>
    <time>2026-06-22T07:28:44Z</time>
   </trkpt>
   <trkpt lat="-3.1026470" lon="37.3424920">
    <ele>4047.3</ele>
    <time>2026-06-22T07:28:45Z</time>
   </trkpt>
   <trkpt lat="-3.1026460" lon="37.3425000">
    <ele>4047.2</ele>
    <time>2026-06-22T07:28:46Z</time>
   </trkpt>
   <trkpt lat="-3.1026430" lon="37.3425070">
    <ele>4047.2</ele>
    <time>2026-06-22T07:28:47Z</time>
   </trkpt>
   <trkpt lat="-3.1026380" lon="37.3425110">
    <ele>4047.1</ele>
    <time>2026-06-22T07:28:48Z</time>
   </trkpt>
   <trkpt lat="-3.1026330" lon="37.3425170">
    <ele>4047.1</ele>
    <time>2026-06-22T07:28:49Z</time>
   </trkpt>
   <trkpt lat="-3.1026270" lon="37.3425250">
    <ele>4047.0</ele>
    <time>2026-06-22T07:28:50Z</time>
   </trkpt>
   <trkpt lat="-3.1026240" lon="37.3425310">
    <ele>4046.9</ele>
    <time>2026-06-22T07:28:51Z</time>
   </trkpt>
   <trkpt lat="-3.1026230" lon="37.3425420">
    <ele>4046.9</ele>
    <time>2026-06-22T07:28:52Z</time>
   </trkpt>
   <trkpt lat="-3.1026190" lon="37.3425500">
    <ele>4046.8</ele>
    <time>2026-06-22T07:28:53Z</time>
   </trkpt>
   <trkpt lat="-3.1026170" lon="37.3425580">
    <ele>4046.8</ele>
    <time>2026-06-22T07:28:54Z</time>
   </trkpt>
   <trkpt lat="-3.1026160" lon="37.3425660">
    <ele>4046.7</ele>
    <time>2026-06-22T07:28:55Z</time>
   </trkpt>
   <trkpt lat="-3.1026150" lon="37.3425740">
    <ele>4046.7</ele>
    <time>2026-06-22T07:28:56Z</time>
   </trkpt>
   <trkpt lat="-3.1026130" lon="37.3425810">
    <ele>4046.6</ele>
    <time>2026-06-22T07:28:57Z</time>
   </trkpt>
   <trkpt lat="-3.1026120" lon="37.3425850">
    <ele>4046.6</ele>
    <time>2026-06-22T07:28:58Z</time>
   </trkpt>
   <trkpt lat="-3.1026110" lon="37.3425920">
    <ele>4046.6</ele>
    <time>2026-06-22T07:28:59Z</time>
   </trkpt>
   <trkpt lat="-3.1026090" lon="37.3426000">
    <ele>4046.5</ele>
    <time>2026-06-22T07:29:00Z</time>
   </trkpt>
   <trkpt lat="-3.1026100" lon="37.3426080">
    <ele>4046.5</ele>
    <time>2026-06-22T07:29:01Z</time>
   </trkpt>
   <trkpt lat="-3.1026080" lon="37.3426150">
    <ele>4046.4</ele>
    <time>2026-06-22T07:29:02Z</time>
   </trkpt>
   <trkpt lat="-3.1026040" lon="37.3426250">
    <ele>4046.4</ele>
    <time>2026-06-22T07:29:03Z</time>
   </trkpt>
   <trkpt lat="-3.1026040" lon="37.3426330">
    <ele>4046.4</ele>
    <time>2026-06-22T07:29:04Z</time>
   </trkpt>
   <trkpt lat="-3.1026020" lon="37.3426430">
    <ele>4046.3</ele>
    <time>2026-06-22T07:29:05Z</time>
   </trkpt>
   <trkpt lat="-3.1026000" lon="37.3426480">
    <ele>4046.3</ele>
    <time>2026-06-22T07:29:06Z</time>
   </trkpt>
   <trkpt lat="-3.1025970" lon="37.3426550">
    <ele>4046.3</ele>
    <time>2026-06-22T07:29:07Z</time>
   </trkpt>
   <trkpt lat="-3.1025970" lon="37.3426610">
    <ele>4046.2</ele>
    <time>2026-06-22T07:29:08Z</time>
   </trkpt>
   <trkpt lat="-3.1025920" lon="37.3426710">
    <ele>4046.2</ele>
    <time>2026-06-22T07:29:09Z</time>
   </trkpt>
   <trkpt lat="-3.1025910" lon="37.3426750">
    <ele>4046.2</ele>
    <time>2026-06-22T07:29:10Z</time>
   </trkpt>
   <trkpt lat="-3.1025900" lon="37.3426750">
    <ele>4046.2</ele>
    <time>2026-06-22T07:29:11Z</time>
   </trkpt>
   <trkpt lat="-3.1025880" lon="37.3426810">
    <ele>4046.2</ele>
    <time>2026-06-22T07:29:12Z</time>
   </trkpt>
   <trkpt lat="-3.1025870" lon="37.3426880">
    <ele>4046.1</ele>
    <time>2026-06-22T07:29:13Z</time>
   </trkpt>
   <trkpt lat="-3.1025840" lon="37.3426940">
    <ele>4046.1</ele>
    <time>2026-06-22T07:29:14Z</time>
   </trkpt>
   <trkpt lat="-3.1025840" lon="37.3426990">
    <ele>4046.1</ele>
    <time>2026-06-22T07:29:15Z</time>
   </trkpt>
   <trkpt lat="-3.1025830" lon="37.3427050">
    <ele>4046.1</ele>
    <time>2026-06-22T07:29:16Z</time>
   </trkpt>
   <trkpt lat="-3.1025810" lon="37.3427130">
    <ele>4046.1</ele>
    <time>2026-06-22T07:29:17Z</time>
   </trkpt>
   <trkpt lat="-3.1025780" lon="37.3427190">
    <ele>4046.0</ele>
    <time>2026-06-22T07:29:18Z</time>
   </trkpt>
   <trkpt lat="-3.1025760" lon="37.3427240">
    <ele>4046.0</ele>
    <time>2026-06-22T07:29:19Z</time>
   </trkpt>
   <trkpt lat="-3.1025720" lon="37.3427320">
    <ele>4046.0</ele>
    <time>2026-06-22T07:29:20Z</time>
   </trkpt>
   <trkpt lat="-3.1025710" lon="37.3427380">
    <ele>4046.0</ele>
    <time>2026-06-22T07:29:21Z</time>
   </trkpt>
   <trkpt lat="-3.1025730" lon="37.3427420">
    <ele>4046.0</ele>
    <time>2026-06-22T07:29:22Z</time>
   </trkpt>
   <trkpt lat="-3.1025730" lon="37.3427480">
    <ele>4046.0</ele>
    <time>2026-06-22T07:29:23Z</time>
   </trkpt>
   <trkpt lat="-3.1025710" lon="37.3427570">
    <ele>4045.9</ele>
    <time>2026-06-22T07:29:24Z</time>
   </trkpt>
   <trkpt lat="-3.1025700" lon="37.3427610">
    <ele>4045.9</ele>
    <time>2026-06-22T07:29:25Z</time>
   </trkpt>
   <trkpt lat="-3.1025700" lon="37.3427640">
    <ele>4045.9</ele>
    <time>2026-06-22T07:29:26Z</time>
   </trkpt>
   <trkpt lat="-3.1025680" lon="37.3427680">
    <ele>4045.9</ele>
    <time>2026-06-22T07:29:27Z</time>
   </trkpt>
   <trkpt lat="-3.1025670" lon="37.3427710">
    <ele>4045.9</ele>
    <time>2026-06-22T07:29:28Z</time>
   </trkpt>
   <trkpt lat="-3.1025640" lon="37.3427740">
    <ele>4045.9</ele>
    <time>2026-06-22T07:29:29Z</time>
   </trkpt>
   <trkpt lat="-3.1025600" lon="37.3427810">
    <ele>4045.9</ele>
    <time>2026-06-22T07:29:30Z</time>
   </trkpt>
   <trkpt lat="-3.1025590" lon="37.3427820">
    <ele>4045.9</ele>
    <time>2026-06-22T07:29:31Z</time>
   </trkpt>
   <trkpt lat="-3.1025610" lon="37.3427860">
    <ele>4045.9</ele>
    <time>2026-06-22T07:29:32Z</time>
   </trkpt>
   <trkpt lat="-3.1025570" lon="37.3427960">
    <ele>4045.9</ele>
    <time>2026-06-22T07:29:33Z</time>
   </trkpt>
   <trkpt lat="-3.1025570" lon="37.3428010">
    <ele>4045.8</ele>
    <time>2026-06-22T07:29:34Z</time>
   </trkpt>
   <trkpt lat="-3.1025570" lon="37.3428050">
    <ele>4045.8</ele>
    <time>2026-06-22T07:29:35Z</time>
   </trkpt>
   <trkpt lat="-3.1025560" lon="37.3428120">
    <ele>4045.8</ele>
    <time>2026-06-22T07:29:36Z</time>
   </trkpt>
   <trkpt lat="-3.1025540" lon="37.3428190">
    <ele>4045.8</ele>
    <time>2026-06-22T07:29:37Z</time>
   </trkpt>
   <trkpt lat="-3.1025520" lon="37.3428270">
    <ele>4045.8</ele>
    <time>2026-06-22T07:29:38Z</time>
   </trkpt>
   <trkpt lat="-3.1025490" lon="37.3428330">
    <ele>4045.8</ele>
    <time>2026-06-22T07:29:39Z</time>
   </trkpt>
   <trkpt lat="-3.1025440" lon="37.3428360">
    <ele>4045.8</ele>
    <time>2026-06-22T07:29:40Z</time>
   </trkpt>
   <trkpt lat="-3.1025400" lon="37.3428440">
    <ele>4045.8</ele>
    <time>2026-06-22T07:29:41Z</time>
   </trkpt>
   <trkpt lat="-3.1025390" lon="37.3428520">
    <ele>4045.8</ele>
    <time>2026-06-22T07:29:42Z</time>
   </trkpt>
   <trkpt lat="-3.1025410" lon="37.3428600">
    <ele>4045.8</ele>
    <time>2026-06-22T07:29:43Z</time>
   </trkpt>
   <trkpt lat="-3.1025410" lon="37.3428650">
    <ele>4045.8</ele>
    <time>2026-06-22T07:29:44Z</time>
   </trkpt>
   <trkpt lat="-3.1025430" lon="37.3428720">
    <ele>4045.8</ele>
    <time>2026-06-22T07:29:45Z</time>
   </trkpt>
   <trkpt lat="-3.1025440" lon="37.3428780">
    <ele>4045.7</ele>
    <time>2026-06-22T07:29:46Z</time>
   </trkpt>
   <trkpt lat="-3.1025430" lon="37.3428860">
    <ele>4045.7</ele>
    <time>2026-06-22T07:29:47Z</time>
   </trkpt>
   <trkpt lat="-3.1025430" lon="37.3428880">
    <ele>4045.7</ele>
    <time>2026-06-22T07:29:48Z</time>
   </trkpt>
   <trkpt lat="-3.1025430" lon="37.3428920">
    <ele>4045.7</ele>
    <time>2026-06-22T07:29:49Z</time>
   </trkpt>
   <trkpt lat="-3.1025430" lon="37.3428970">
    <ele>4045.7</ele>
    <time>2026-06-22T07:29:50Z</time>
   </trkpt>
   <trkpt lat="-3.1025420" lon="37.3429000">
    <ele>4045.7</ele>
    <time>2026-06-22T07:29:51Z</time>
   </trkpt>
   <trkpt lat="-3.1025430" lon="37.3429020">
    <ele>4045.7</ele>
    <time>2026-06-22T07:29:52Z</time>
   </trkpt>
   <trkpt lat="-3.1025420" lon="37.3429060">
    <ele>4045.7</ele>
    <time>2026-06-22T07:29:53Z</time>
   </trkpt>
   <trkpt lat="-3.1025440" lon="37.3429080">
    <ele>4045.7</ele>
    <time>2026-06-22T07:29:54Z</time>
   </trkpt>
   <trkpt lat="-3.1025480" lon="37.3429130">
    <ele>4045.7</ele>
    <time>2026-06-22T07:29:55Z</time>
   </trkpt>
   <trkpt lat="-3.1025490" lon="37.3429180">
    <ele>4045.7</ele>
    <time>2026-06-22T07:29:56Z</time>
   </trkpt>
   <trkpt lat="-3.1025550" lon="37.3429240">
    <ele>4045.7</ele>
    <time>2026-06-22T07:29:57Z</time>
   </trkpt>
   <trkpt lat="-3.1025540" lon="37.3429290">
    <ele>4045.7</ele>
    <time>2026-06-22T07:29:58Z</time>
   </trkpt>
   <trkpt lat="-3.1025530" lon="37.3429370">
    <ele>4045.6</ele>
    <time>2026-06-22T07:29:59Z</time>
   </trkpt>
   <trkpt lat="-3.1025530" lon="37.3429420">
    <ele>4045.6</ele>
    <time>2026-06-22T07:30:00Z</time>
   </trkpt>
   <trkpt lat="-3.1025530" lon="37.3429470">
    <ele>4045.6</ele>
    <time>2026-06-22T07:30:01Z</time>
   </trkpt>
   <trkpt lat="-3.1025520" lon="37.3429590">
    <ele>4045.6</ele>
    <time>2026-06-22T07:30:02Z</time>
   </trkpt>
   <trkpt lat="-3.1025480" lon="37.3429680">
    <ele>4045.6</ele>
    <time>2026-06-22T07:30:03Z</time>
   </trkpt>
   <trkpt lat="-3.1025440" lon="37.3429730">
    <ele>4045.6</ele>
    <time>2026-06-22T07:30:04Z</time>
   </trkpt>
   <trkpt lat="-3.1025390" lon="37.3429770">
    <ele>4045.5</ele>
    <time>2026-06-22T07:30:05Z</time>
   </trkpt>
   <trkpt lat="-3.1025340" lon="37.3429840">
    <ele>4045.5</ele>
    <time>2026-06-22T07:30:06Z</time>
   </trkpt>
   <trkpt lat="-3.1025290" lon="37.3429900">
    <ele>4045.5</ele>
    <time>2026-06-22T07:30:07Z</time>
   </trkpt>
   <trkpt lat="-3.1025260" lon="37.3429990">
    <ele>4045.5</ele>
    <time>2026-06-22T07:30:08Z</time>
   </trkpt>
   <trkpt lat="-3.1025220" lon="37.3430020">
    <ele>4045.4</ele>
    <time>2026-06-22T07:30:09Z</time>
   </trkpt>
   <trkpt lat="-3.1025180" lon="37.3430070">
    <ele>4045.4</ele>
    <time>2026-06-22T07:30:10Z</time>
   </trkpt>
   <trkpt lat="-3.1025130" lon="37.3430150">
    <ele>4045.4</ele>
    <time>2026-06-22T07:30:11Z</time>
   </trkpt>
   <trkpt lat="-3.1025090" lon="37.3430210">
    <ele>4045.4</ele>
    <time>2026-06-22T07:30:12Z</time>
   </trkpt>
   <trkpt lat="-3.1025050" lon="37.3430270">
    <ele>4045.3</ele>
    <time>2026-06-22T07:30:13Z</time>
   </trkpt>
   <trkpt lat="-3.1025010" lon="37.3430330">
    <ele>4045.3</ele>
    <time>2026-06-22T07:30:14Z</time>
   </trkpt>
   <trkpt lat="-3.1024990" lon="37.3430370">
    <ele>4045.3</ele>
    <time>2026-06-22T07:30:15Z</time>
   </trkpt>
   <trkpt lat="-3.1024960" lon="37.3430420">
    <ele>4045.3</ele>
    <time>2026-06-22T07:30:16Z</time>
   </trkpt>
   <trkpt lat="-3.1024950" lon="37.3430470">
    <ele>4045.2</ele>
    <time>2026-06-22T07:30:17Z</time>
   </trkpt>
   <trkpt lat="-3.1024930" lon="37.3430500">
    <ele>4045.2</ele>
    <time>2026-06-22T07:30:18Z</time>
   </trkpt>
   <trkpt lat="-3.1024870" lon="37.3430550">
    <ele>4045.2</ele>
    <time>2026-06-22T07:30:19Z</time>
   </trkpt>
   <trkpt lat="-3.1024830" lon="37.3430600">
    <ele>4045.2</ele>
    <time>2026-06-22T07:30:20Z</time>
   </trkpt>
   <trkpt lat="-3.1024800" lon="37.3430670">
    <ele>4045.1</ele>
    <time>2026-06-22T07:30:21Z</time>
   </trkpt>
   <trkpt lat="-3.1024810" lon="37.3430740">
    <ele>4045.1</ele>
    <time>2026-06-22T07:30:22Z</time>
   </trkpt>
   <trkpt lat="-3.1024800" lon="37.3430840">
    <ele>4045.0</ele>
    <time>2026-06-22T07:30:23Z</time>
   </trkpt>
   <trkpt lat="-3.1024770" lon="37.3430940">
    <ele>4045.0</ele>
    <time>2026-06-22T07:30:24Z</time>
   </trkpt>
   <trkpt lat="-3.1024730" lon="37.3431050">
    <ele>4044.9</ele>
    <time>2026-06-22T07:30:25Z</time>
   </trkpt>
   <trkpt lat="-3.1024700" lon="37.3431130">
    <ele>4044.9</ele>
    <time>2026-06-22T07:30:26Z</time>
   </trkpt>
   <trkpt lat="-3.1024680" lon="37.3431150">
    <ele>4044.9</ele>
    <time>2026-06-22T07:30:27Z</time>
   </trkpt>
   <trkpt lat="-3.1024670" lon="37.3431230">
    <ele>4044.8</ele>
    <time>2026-06-22T07:30:28Z</time>
   </trkpt>
   <trkpt lat="-3.1024600" lon="37.3431370">
    <ele>4044.7</ele>
    <time>2026-06-22T07:30:29Z</time>
   </trkpt>
   <trkpt lat="-3.1024530" lon="37.3431480">
    <ele>4044.7</ele>
    <time>2026-06-22T07:30:30Z</time>
   </trkpt>
   <trkpt lat="-3.1024480" lon="37.3431560">
    <ele>4044.6</ele>
    <time>2026-06-22T07:30:31Z</time>
   </trkpt>
   <trkpt lat="-3.1024440" lon="37.3431640">
    <ele>4044.6</ele>
    <time>2026-06-22T07:30:32Z</time>
   </trkpt>
   <trkpt lat="-3.1024430" lon="37.3431690">
    <ele>4044.5</ele>
    <time>2026-06-22T07:30:33Z</time>
   </trkpt>
   <trkpt lat="-3.1024440" lon="37.3431690">
    <ele>4044.5</ele>
    <time>2026-06-22T07:30:34Z</time>
   </trkpt>
   <trkpt lat="-3.1024430" lon="37.3431730">
    <ele>4044.5</ele>
    <time>2026-06-22T07:30:35Z</time>
   </trkpt>
   <trkpt lat="-3.1024400" lon="37.3431810">
    <ele>4044.5</ele>
    <time>2026-06-22T07:30:36Z</time>
   </trkpt>
   <trkpt lat="-3.1024370" lon="37.3431880">
    <ele>4044.4</ele>
    <time>2026-06-22T07:30:37Z</time>
   </trkpt>
   <trkpt lat="-3.1024370" lon="37.3431940">
    <ele>4044.4</ele>
    <time>2026-06-22T07:30:38Z</time>
   </trkpt>
   <trkpt lat="-3.1024360" lon="37.3431960">
    <ele>4044.4</ele>
    <time>2026-06-22T07:30:39Z</time>
   </trkpt>
   <trkpt lat="-3.1024340" lon="37.3432030">
    <ele>4044.3</ele>
    <time>2026-06-22T07:30:40Z</time>
   </trkpt>
   <trkpt lat="-3.1024320" lon="37.3432090">
    <ele>4044.3</ele>
    <time>2026-06-22T07:30:41Z</time>
   </trkpt>
   <trkpt lat="-3.1024310" lon="37.3432150">
    <ele>4044.3</ele>
    <time>2026-06-22T07:30:42Z</time>
   </trkpt>
   <trkpt lat="-3.1024280" lon="37.3432220">
    <ele>4044.2</ele>
    <time>2026-06-22T07:30:43Z</time>
   </trkpt>
   <trkpt lat="-3.1024260" lon="37.3432240">
    <ele>4044.2</ele>
    <time>2026-06-22T07:30:44Z</time>
   </trkpt>
   <trkpt lat="-3.1024220" lon="37.3432280">
    <ele>4044.2</ele>
    <time>2026-06-22T07:30:45Z</time>
   </trkpt>
   <trkpt lat="-3.1024190" lon="37.3432330">
    <ele>4044.2</ele>
    <time>2026-06-22T07:30:46Z</time>
   </trkpt>
   <trkpt lat="-3.1024180" lon="37.3432340">
    <ele>4044.2</ele>
    <time>2026-06-22T07:30:47Z</time>
   </trkpt>
   <trkpt lat="-3.1024150" lon="37.3432410">
    <ele>4044.1</ele>
    <time>2026-06-22T07:30:48Z</time>
   </trkpt>
   <trkpt lat="-3.1024150" lon="37.3432480">
    <ele>4044.1</ele>
    <time>2026-06-22T07:30:49Z</time>
   </trkpt>
   <trkpt lat="-3.1024140" lon="37.3432520">
    <ele>4044.1</ele>
    <time>2026-06-22T07:30:50Z</time>
   </trkpt>
   <trkpt lat="-3.1024140" lon="37.3432550">
    <ele>4044.0</ele>
    <time>2026-06-22T07:30:51Z</time>
   </trkpt>
   <trkpt lat="-3.1024140" lon="37.3432570">
    <ele>4044.0</ele>
    <time>2026-06-22T07:30:52Z</time>
   </trkpt>
   <trkpt lat="-3.1024150" lon="37.3432640">
    <ele>4044.0</ele>
    <time>2026-06-22T07:30:53Z</time>
   </trkpt>
   <trkpt lat="-3.1024140" lon="37.3432660">
    <ele>4044.0</ele>
    <time>2026-06-22T07:30:54Z</time>
   </trkpt>
   <trkpt lat="-3.1024140" lon="37.3432700">
    <ele>4044.0</ele>
    <time>2026-06-22T07:30:55Z</time>
   </trkpt>
   <trkpt lat="-3.1024130" lon="37.3432740">
    <ele>4044.0</ele>
    <time>2026-06-22T07:30:56Z</time>
   </trkpt>
   <trkpt lat="-3.1024120" lon="37.3432750">
    <ele>4043.9</ele>
    <time>2026-06-22T07:30:57Z</time>
   </trkpt>
   <trkpt lat="-3.1024130" lon="37.3432790">
    <ele>4043.9</ele>
    <time>2026-06-22T07:30:58Z</time>
   </trkpt>
   <trkpt lat="-3.1024130" lon="37.3432820">
    <ele>4043.9</ele>
    <time>2026-06-22T07:30:59Z</time>
   </trkpt>
   <trkpt lat="-3.1024150" lon="37.3432860">
    <ele>4043.9</ele>
    <time>2026-06-22T07:31:00Z</time>
   </trkpt>
   <trkpt lat="-3.1024150" lon="37.3432930">
    <ele>4043.9</ele>
    <time>2026-06-22T07:31:01Z</time>
   </trkpt>
   <trkpt lat="-3.1024140" lon="37.3432970">
    <ele>4043.9</ele>
    <time>2026-06-22T07:31:02Z</time>
   </trkpt>
   <trkpt lat="-3.1024120" lon="37.3433010">
    <ele>4043.8</ele>
    <time>2026-06-22T07:31:03Z</time>
   </trkpt>
   <trkpt lat="-3.1024100" lon="37.3433000">
    <ele>4043.8</ele>
    <time>2026-06-22T07:31:04Z</time>
   </trkpt>
   <trkpt lat="-3.1024070" lon="37.3433030">
    <ele>4043.8</ele>
    <time>2026-06-22T07:31:05Z</time>
   </trkpt>
   <trkpt lat="-3.1024030" lon="37.3433060">
    <ele>4043.8</ele>
    <time>2026-06-22T07:31:06Z</time>
   </trkpt>
   <trkpt lat="-3.1023990" lon="37.3433100">
    <ele>4043.8</ele>
    <time>2026-06-22T07:31:07Z</time>
   </trkpt>
   <trkpt lat="-3.1023970" lon="37.3433120">
    <ele>4043.8</ele>
    <time>2026-06-22T07:31:08Z</time>
   </trkpt>
   <trkpt lat="-3.1023970" lon="37.3433150">
    <ele>4043.8</ele>
    <time>2026-06-22T07:31:09Z</time>
   </trkpt>
   <trkpt lat="-3.1023970" lon="37.3433190">
    <ele>4043.8</ele>
    <time>2026-06-22T07:31:10Z</time>
   </trkpt>
   <trkpt lat="-3.1023950" lon="37.3433220">
    <ele>4043.8</ele>
    <time>2026-06-22T07:31:11Z</time>
   </trkpt>
   <trkpt lat="-3.1023950" lon="37.3433280">
    <ele>4043.7</ele>
    <time>2026-06-22T07:31:12Z</time>
   </trkpt>
   <trkpt lat="-3.1023950" lon="37.3433280">
    <ele>4043.7</ele>
    <time>2026-06-22T07:31:13Z</time>
   </trkpt>
   <trkpt lat="-3.1023920" lon="37.3433320">
    <ele>4043.7</ele>
    <time>2026-06-22T07:31:14Z</time>
   </trkpt>
   <trkpt lat="-3.1023910" lon="37.3433340">
    <ele>4043.7</ele>
    <time>2026-06-22T07:31:15Z</time>
   </trkpt>
   <trkpt lat="-3.1023880" lon="37.3433370">
    <ele>4043.7</ele>
    <time>2026-06-22T07:31:16Z</time>
   </trkpt>
   <trkpt lat="-3.1023880" lon="37.3433410">
    <ele>4043.7</ele>
    <time>2026-06-22T07:31:17Z</time>
   </trkpt>
   <trkpt lat="-3.1023870" lon="37.3433450">
    <ele>4043.7</ele>
    <time>2026-06-22T07:31:18Z</time>
   </trkpt>
   <trkpt lat="-3.1023890" lon="37.3433500">
    <ele>4043.7</ele>
    <time>2026-06-22T07:31:19Z</time>
   </trkpt>
   <trkpt lat="-3.1023920" lon="37.3433580">
    <ele>4043.7</ele>
    <time>2026-06-22T07:31:20Z</time>
   </trkpt>
   <trkpt lat="-3.1023950" lon="37.3433620">
    <ele>4043.7</ele>
    <time>2026-06-22T07:31:21Z</time>
   </trkpt>
   <trkpt lat="-3.1023970" lon="37.3433670">
    <ele>4043.7</ele>
    <time>2026-06-22T07:31:22Z</time>
   </trkpt>
   <trkpt lat="-3.1023970" lon="37.3433700">
    <ele>4043.7</ele>
    <time>2026-06-22T07:31:23Z</time>
   </trkpt>
   <trkpt lat="-3.1023980" lon="37.3433740">
    <ele>4043.7</ele>
    <time>2026-06-22T07:31:24Z</time>
   </trkpt>
   <trkpt lat="-3.1023970" lon="37.3433790">
    <ele>4043.7</ele>
    <time>2026-06-22T07:31:25Z</time>
   </trkpt>
   <trkpt lat="-3.1023970" lon="37.3433810">
    <ele>4043.7</ele>
    <time>2026-06-22T07:31:26Z</time>
   </trkpt>
   <trkpt lat="-3.1023990" lon="37.3433880">
    <ele>4043.7</ele>
    <time>2026-06-22T07:31:27Z</time>
   </trkpt>
   <trkpt lat="-3.1023980" lon="37.3433920">
    <ele>4043.7</ele>
    <time>2026-06-22T07:31:28Z</time>
   </trkpt>
   <trkpt lat="-3.1024000" lon="37.3433960">
    <ele>4043.7</ele>
    <time>2026-06-22T07:31:29Z</time>
   </trkpt>
   <trkpt lat="-3.1024020" lon="37.3434020">
    <ele>4043.7</ele>
    <time>2026-06-22T07:31:30Z</time>
   </trkpt>
   <trkpt lat="-3.1024010" lon="37.3434060">
    <ele>4043.7</ele>
    <time>2026-06-22T07:31:31Z</time>
   </trkpt>
   <trkpt lat="-3.1024030" lon="37.3434090">
    <ele>4043.7</ele>
    <time>2026-06-22T07:31:32Z</time>
   </trkpt>
   <trkpt lat="-3.1024050" lon="37.3434150">
    <ele>4043.8</ele>
    <time>2026-06-22T07:31:33Z</time>
   </trkpt>
   <trkpt lat="-3.1024060" lon="37.3434210">
    <ele>4043.8</ele>
    <time>2026-06-22T07:31:34Z</time>
   </trkpt>
   <trkpt lat="-3.1024060" lon="37.3434260">
    <ele>4043.8</ele>
    <time>2026-06-22T07:31:35Z</time>
   </trkpt>
   <trkpt lat="-3.1024050" lon="37.3434340">
    <ele>4043.8</ele>
    <time>2026-06-22T07:31:36Z</time>
   </trkpt>
   <trkpt lat="-3.1024020" lon="37.3434370">
    <ele>4043.8</ele>
    <time>2026-06-22T07:31:37Z</time>
   </trkpt>
   <trkpt lat="-3.1024010" lon="37.3434410">
    <ele>4043.8</ele>
    <time>2026-06-22T07:31:38Z</time>
   </trkpt>
   <trkpt lat="-3.1023970" lon="37.3434450">
    <ele>4043.9</ele>
    <time>2026-06-22T07:31:39Z</time>
   </trkpt>
   <trkpt lat="-3.1023950" lon="37.3434490">
    <ele>4043.9</ele>
    <time>2026-06-22T07:31:40Z</time>
   </trkpt>
   <trkpt lat="-3.1023930" lon="37.3434500">
    <ele>4043.9</ele>
    <time>2026-06-22T07:31:41Z</time>
   </trkpt>
   <trkpt lat="-3.1023900" lon="37.3434530">
    <ele>4043.9</ele>
    <time>2026-06-22T07:31:42Z</time>
   </trkpt>
   <trkpt lat="-3.1023850" lon="37.3434580">
    <ele>4043.9</ele>
    <time>2026-06-22T07:31:43Z</time>
   </trkpt>
   <trkpt lat="-3.1023860" lon="37.3434640">
    <ele>4044.0</ele>
    <time>2026-06-22T07:31:44Z</time>
   </trkpt>
   <trkpt lat="-3.1023830" lon="37.3434670">
    <ele>4044.0</ele>
    <time>2026-06-22T07:31:45Z</time>
   </trkpt>
   <trkpt lat="-3.1023820" lon="37.3434720">
    <ele>4044.0</ele>
    <time>2026-06-22T07:31:46Z</time>
   </trkpt>
   <trkpt lat="-3.1023800" lon="37.3434750">
    <ele>4044.1</ele>
    <time>2026-06-22T07:31:47Z</time>
   </trkpt>
   <trkpt lat="-3.1023790" lon="37.3434790">
    <ele>4044.1</ele>
    <time>2026-06-22T07:31:48Z</time>
   </trkpt>
   <trkpt lat="-3.1023760" lon="37.3434820">
    <ele>4044.1</ele>
    <time>2026-06-22T07:31:49Z</time>
   </trkpt>
   <trkpt lat="-3.1023730" lon="37.3434860">
    <ele>4044.1</ele>
    <time>2026-06-22T07:31:50Z</time>
   </trkpt>
   <trkpt lat="-3.1023710" lon="37.3434870">
    <ele>4044.2</ele>
    <time>2026-06-22T07:31:51Z</time>
   </trkpt>
   <trkpt lat="-3.1023700" lon="37.3434870">
    <ele>4044.2</ele>
    <time>2026-06-22T07:31:52Z</time>
   </trkpt>
   <trkpt lat="-3.1023650" lon="37.3434920">
    <ele>4044.2</ele>
    <time>2026-06-22T07:31:53Z</time>
   </trkpt>
   <trkpt lat="-3.1023630" lon="37.3434960">
    <ele>4044.2</ele>
    <time>2026-06-22T07:31:54Z</time>
   </trkpt>
   <trkpt lat="-3.1023600" lon="37.3434990">
    <ele>4044.3</ele>
    <time>2026-06-22T07:31:55Z</time>
   </trkpt>
   <trkpt lat="-3.1023570" lon="37.3435020">
    <ele>4044.3</ele>
    <time>2026-06-22T07:31:56Z</time>
   </trkpt>
   <trkpt lat="-3.1023540" lon="37.3435030">
    <ele>4044.3</ele>
    <time>2026-06-22T07:31:57Z</time>
   </trkpt>
   <trkpt lat="-3.1023480" lon="37.3435030">
    <ele>4044.4</ele>
    <time>2026-06-22T07:31:58Z</time>
   </trkpt>
   <trkpt lat="-3.1023460" lon="37.3435030">
    <ele>4044.4</ele>
    <time>2026-06-22T07:31:59Z</time>
   </trkpt>
   <trkpt lat="-3.1023450" lon="37.3435100">
    <ele>4044.5</ele>
    <time>2026-06-22T07:32:00Z</time>
   </trkpt>
   <trkpt lat="-3.1023430" lon="37.3435150">
    <ele>4044.5</ele>
    <time>2026-06-22T07:32:01Z</time>
   </trkpt>
   <trkpt lat="-3.1023430" lon="37.3435190">
    <ele>4044.5</ele>
    <time>2026-06-22T07:32:02Z</time>
   </trkpt>
   <trkpt lat="-3.1023420" lon="37.3435230">
    <ele>4044.6</ele>
    <time>2026-06-22T07:32:03Z</time>
   </trkpt>
   <trkpt lat="-3.1023410" lon="37.3435260">
    <ele>4044.6</ele>
    <time>2026-06-22T07:32:04Z</time>
   </trkpt>
   <trkpt lat="-3.1023380" lon="37.3435300">
    <ele>4044.6</ele>
    <time>2026-06-22T07:32:05Z</time>
   </trkpt>
   <trkpt lat="-3.1023380" lon="37.3435310">
    <ele>4044.6</ele>
    <time>2026-06-22T07:32:06Z</time>
   </trkpt>
   <trkpt lat="-3.1023390" lon="37.3435340">
    <ele>4044.7</ele>
    <time>2026-06-22T07:32:07Z</time>
   </trkpt>
   <trkpt lat="-3.1023370" lon="37.3435390">
    <ele>4044.7</ele>
    <time>2026-06-22T07:32:08Z</time>
   </trkpt>
   <trkpt lat="-3.1023370" lon="37.3435430">
    <ele>4044.8</ele>
    <time>2026-06-22T07:32:09Z</time>
   </trkpt>
   <trkpt lat="-3.1023370" lon="37.3435470">
    <ele>4044.8</ele>
    <time>2026-06-22T07:32:10Z</time>
   </trkpt>
   <trkpt lat="-3.1023370" lon="37.3435550">
    <ele>4044.9</ele>
    <time>2026-06-22T07:32:11Z</time>
   </trkpt>
   <trkpt lat="-3.1023350" lon="37.3435590">
    <ele>4044.9</ele>
    <time>2026-06-22T07:32:12Z</time>
   </trkpt>
   <trkpt lat="-3.1023340" lon="37.3435650">
    <ele>4045.0</ele>
    <time>2026-06-22T07:32:13Z</time>
   </trkpt>
   <trkpt lat="-3.1023340" lon="37.3435720">
    <ele>4045.1</ele>
    <time>2026-06-22T07:32:14Z</time>
   </trkpt>
   <trkpt lat="-3.1023350" lon="37.3435780">
    <ele>4045.1</ele>
    <time>2026-06-22T07:32:15Z</time>
   </trkpt>
   <trkpt lat="-3.1023350" lon="37.3435830">
    <ele>4045.2</ele>
    <time>2026-06-22T07:32:16Z</time>
   </trkpt>
   <trkpt lat="-3.1023340" lon="37.3435870">
    <ele>4045.2</ele>
    <time>2026-06-22T07:32:17Z</time>
   </trkpt>
   <trkpt lat="-3.1023310" lon="37.3435940">
    <ele>4045.3</ele>
    <time>2026-06-22T07:32:18Z</time>
   </trkpt>
   <trkpt lat="-3.1023290" lon="37.3436000">
    <ele>4045.4</ele>
    <time>2026-06-22T07:32:19Z</time>
   </trkpt>
   <trkpt lat="-3.1023270" lon="37.3436040">
    <ele>4045.4</ele>
    <time>2026-06-22T07:32:20Z</time>
   </trkpt>
   <trkpt lat="-3.1023220" lon="37.3436070">
    <ele>4045.5</ele>
    <time>2026-06-22T07:32:21Z</time>
   </trkpt>
   <trkpt lat="-3.1023200" lon="37.3436120">
    <ele>4045.6</ele>
    <time>2026-06-22T07:32:22Z</time>
   </trkpt>
   <trkpt lat="-3.1023180" lon="37.3436170">
    <ele>4045.6</ele>
    <time>2026-06-22T07:32:23Z</time>
   </trkpt>
   <trkpt lat="-3.1023160" lon="37.3436210">
    <ele>4045.7</ele>
    <time>2026-06-22T07:32:24Z</time>
   </trkpt>
   <trkpt lat="-3.1023150" lon="37.3436240">
    <ele>4045.7</ele>
    <time>2026-06-22T07:32:25Z</time>
   </trkpt>
   <trkpt lat="-3.1023140" lon="37.3436200">
    <ele>4045.8</ele>
    <time>2026-06-22T07:32:26Z</time>
   </trkpt>
   <trkpt lat="-3.1023110" lon="37.3436320">
    <ele>4045.9</ele>
    <time>2026-06-22T07:32:27Z</time>
   </trkpt>
   <trkpt lat="-3.1023090" lon="37.3436350">
    <ele>4046.0</ele>
    <time>2026-06-22T07:32:28Z</time>
   </trkpt>
   <trkpt lat="-3.1023070" lon="37.3436390">
    <ele>4046.0</ele>
    <time>2026-06-22T07:32:29Z</time>
   </trkpt>
   <trkpt lat="-3.1023070" lon="37.3436440">
    <ele>4046.1</ele>
    <time>2026-06-22T07:32:30Z</time>
   </trkpt>
   <trkpt lat="-3.1023050" lon="37.3436490">
    <ele>4046.1</ele>
    <time>2026-06-22T07:32:31Z</time>
   </trkpt>
   <trkpt lat="-3.1023060" lon="37.3436540">
    <ele>4046.2</ele>
    <time>2026-06-22T07:32:32Z</time>
   </trkpt>
   <trkpt lat="-3.1023070" lon="37.3436570">
    <ele>4046.2</ele>
    <time>2026-06-22T07:32:33Z</time>
   </trkpt>
   <trkpt lat="-3.1023080" lon="37.3436640">
    <ele>4046.3</ele>
    <time>2026-06-22T07:32:34Z</time>
   </trkpt>
   <trkpt lat="-3.1023080" lon="37.3436640">
    <ele>4046.3</ele>
    <time>2026-06-22T07:32:35Z</time>
   </trkpt>
   <trkpt lat="-3.1023130" lon="37.3436720">
    <ele>4046.5</ele>
    <time>2026-06-22T07:32:36Z</time>
   </trkpt>
   <trkpt lat="-3.1023130" lon="37.3436720">
    <ele>4046.5</ele>
    <time>2026-06-22T07:32:37Z</time>
   </trkpt>
   <trkpt lat="-3.1023130" lon="37.3436770">
    <ele>4046.5</ele>
    <time>2026-06-22T07:32:38Z</time>
   </trkpt>
   <trkpt lat="-3.1023150" lon="37.3436790">
    <ele>4046.5</ele>
    <time>2026-06-22T07:32:39Z</time>
   </trkpt>
   <trkpt lat="-3.1023160" lon="37.3436830">
    <ele>4046.6</ele>
    <time>2026-06-22T07:32:40Z</time>
   </trkpt>
   <trkpt lat="-3.1023190" lon="37.3436850">
    <ele>4046.6</ele>
    <time>2026-06-22T07:32:41Z</time>
   </trkpt>
   <trkpt lat="-3.1023190" lon="37.3436870">
    <ele>4046.7</ele>
    <time>2026-06-22T07:32:42Z</time>
   </trkpt>
   <trkpt lat="-3.1023240" lon="37.3436900">
    <ele>4046.7</ele>
    <time>2026-06-22T07:32:43Z</time>
   </trkpt>
   <trkpt lat="-3.1023240" lon="37.3436920">
    <ele>4046.8</ele>
    <time>2026-06-22T07:32:44Z</time>
   </trkpt>
   <trkpt lat="-3.1023270" lon="37.3436960">
    <ele>4046.8</ele>
    <time>2026-06-22T07:32:45Z</time>
   </trkpt>
   <trkpt lat="-3.1023260" lon="37.3436990">
    <ele>4046.9</ele>
    <time>2026-06-22T07:32:46Z</time>
   </trkpt>
   <trkpt lat="-3.1023240" lon="37.3437000">
    <ele>4046.9</ele>
    <time>2026-06-22T07:32:47Z</time>
   </trkpt>
   <trkpt lat="-3.1023230" lon="37.3437040">
    <ele>4047.0</ele>
    <time>2026-06-22T07:32:48Z</time>
   </trkpt>
   <trkpt lat="-3.1023200" lon="37.3437060">
    <ele>4047.0</ele>
    <time>2026-06-22T07:32:49Z</time>
   </trkpt>
   <trkpt lat="-3.1023160" lon="37.3437070">
    <ele>4047.1</ele>
    <time>2026-06-22T07:32:50Z</time>
   </trkpt>
   <trkpt lat="-3.1023140" lon="37.3437060">
    <ele>4047.1</ele>
    <time>2026-06-22T07:32:51Z</time>
   </trkpt>
   <trkpt lat="-3.1023100" lon="37.3437070">
    <ele>4047.1</ele>
    <time>2026-06-22T07:32:52Z</time>
   </trkpt>
   <trkpt lat="-3.1023060" lon="37.3437060">
    <ele>4047.2</ele>
    <time>2026-06-22T07:32:53Z</time>
   </trkpt>
   <trkpt lat="-3.1023020" lon="37.3437070">
    <ele>4047.3</ele>
    <time>2026-06-22T07:32:54Z</time>
   </trkpt>
   <trkpt lat="-3.1022960" lon="37.3437050">
    <ele>4047.3</ele>
    <time>2026-06-22T07:32:55Z</time>
   </trkpt>
   <trkpt lat="-3.1022930" lon="37.3437070">
    <ele>4047.4</ele>
    <time>2026-06-22T07:32:56Z</time>
   </trkpt>
   <trkpt lat="-3.1022890" lon="37.3437080">
    <ele>4047.4</ele>
    <time>2026-06-22T07:32:57Z</time>
   </trkpt>
   <trkpt lat="-3.1022860" lon="37.3437100">
    <ele>4047.5</ele>
    <time>2026-06-22T07:32:58Z</time>
   </trkpt>
   <trkpt lat="-3.1022830" lon="37.3437140">
    <ele>4047.6</ele>
    <time>2026-06-22T07:32:59Z</time>
   </trkpt>
   <trkpt lat="-3.1022840" lon="37.3437160">
    <ele>4047.6</ele>
    <time>2026-06-22T07:33:00Z</time>
   </trkpt>
   <trkpt lat="-3.1022770" lon="37.3437230">
    <ele>4047.7</ele>
    <time>2026-06-22T07:33:01Z</time>
   </trkpt>
   <trkpt lat="-3.1022770" lon="37.3437280">
    <ele>4047.8</ele>
    <time>2026-06-22T07:33:02Z</time>
   </trkpt>
   <trkpt lat="-3.1022780" lon="37.3437300">
    <ele>4047.8</ele>
    <time>2026-06-22T07:33:03Z</time>
   </trkpt>
   <trkpt lat="-3.1022760" lon="37.3437360">
    <ele>4047.9</ele>
    <time>2026-06-22T07:33:04Z</time>
   </trkpt>
   <trkpt lat="-3.1022760" lon="37.3437390">
    <ele>4047.9</ele>
    <time>2026-06-22T07:33:05Z</time>
   </trkpt>
   <trkpt lat="-3.1022740" lon="37.3437450">
    <ele>4048.0</ele>
    <time>2026-06-22T07:33:06Z</time>
   </trkpt>
   <trkpt lat="-3.1022740" lon="37.3437480">
    <ele>4048.1</ele>
    <time>2026-06-22T07:33:07Z</time>
   </trkpt>
   <trkpt lat="-3.1022740" lon="37.3437530">
    <ele>4048.1</ele>
    <time>2026-06-22T07:33:08Z</time>
   </trkpt>
   <trkpt lat="-3.1022740" lon="37.3437570">
    <ele>4048.2</ele>
    <time>2026-06-22T07:33:09Z</time>
   </trkpt>
   <trkpt lat="-3.1022750" lon="37.3437630">
    <ele>4048.3</ele>
    <time>2026-06-22T07:33:10Z</time>
   </trkpt>
   <trkpt lat="-3.1022760" lon="37.3437680">
    <ele>4048.3</ele>
    <time>2026-06-22T07:33:11Z</time>
   </trkpt>
   <trkpt lat="-3.1022750" lon="37.3437720">
    <ele>4048.4</ele>
    <time>2026-06-22T07:33:12Z</time>
   </trkpt>
   <trkpt lat="-3.1022750" lon="37.3437790">
    <ele>4048.5</ele>
    <time>2026-06-22T07:33:13Z</time>
   </trkpt>
   <trkpt lat="-3.1022750" lon="37.3437830">
    <ele>4048.6</ele>
    <time>2026-06-22T07:33:14Z</time>
   </trkpt>
   <trkpt lat="-3.1022720" lon="37.3437860">
    <ele>4048.6</ele>
    <time>2026-06-22T07:33:15Z</time>
   </trkpt>
   <trkpt lat="-3.1022720" lon="37.3437910">
    <ele>4048.7</ele>
    <time>2026-06-22T07:33:16Z</time>
   </trkpt>
   <trkpt lat="-3.1022700" lon="37.3437960">
    <ele>4048.8</ele>
    <time>2026-06-22T07:33:17Z</time>
   </trkpt>
   <trkpt lat="-3.1022700" lon="37.3437980">
    <ele>4048.8</ele>
    <time>2026-06-22T07:33:18Z</time>
   </trkpt>
   <trkpt lat="-3.1022680" lon="37.3438010">
    <ele>4048.8</ele>
    <time>2026-06-22T07:33:19Z</time>
   </trkpt>
   <trkpt lat="-3.1022650" lon="37.3438060">
    <ele>4048.9</ele>
    <time>2026-06-22T07:33:20Z</time>
   </trkpt>
   <trkpt lat="-3.1022630" lon="37.3438100">
    <ele>4049.0</ele>
    <time>2026-06-22T07:33:21Z</time>
   </trkpt>
   <trkpt lat="-3.1022620" lon="37.3438160">
    <ele>4049.1</ele>
    <time>2026-06-22T07:33:22Z</time>
   </trkpt>
   <trkpt lat="-3.1022610" lon="37.3438180">
    <ele>4049.1</ele>
    <time>2026-06-22T07:33:23Z</time>
   </trkpt>
   <trkpt lat="-3.1022550" lon="37.3438230">
    <ele>4049.2</ele>
    <time>2026-06-22T07:33:24Z</time>
   </trkpt>
   <trkpt lat="-3.1022570" lon="37.3438290">
    <ele>4049.3</ele>
    <time>2026-06-22T07:33:25Z</time>
   </trkpt>
   <trkpt lat="-3.1022550" lon="37.3438340">
    <ele>4049.4</ele>
    <time>2026-06-22T07:33:26Z</time>
   </trkpt>
   <trkpt lat="-3.1022530" lon="37.3438380">
    <ele>4049.5</ele>
    <time>2026-06-22T07:33:27Z</time>
   </trkpt>
   <trkpt lat="-3.1022480" lon="37.3438420">
    <ele>4049.5</ele>
    <time>2026-06-22T07:33:28Z</time>
   </trkpt>
   <trkpt lat="-3.1022470" lon="37.3438450">
    <ele>4049.6</ele>
    <time>2026-06-22T07:33:29Z</time>
   </trkpt>
   <trkpt lat="-3.1022450" lon="37.3438510">
    <ele>4049.7</ele>
    <time>2026-06-22T07:33:30Z</time>
   </trkpt>
   <trkpt lat="-3.1022440" lon="37.3438550">
    <ele>4049.7</ele>
    <time>2026-06-22T07:33:31Z</time>
   </trkpt>
   <trkpt lat="-3.1022420" lon="37.3438570">
    <ele>4049.8</ele>
    <time>2026-06-22T07:33:32Z</time>
   </trkpt>
   <trkpt lat="-3.1022410" lon="37.3438650">
    <ele>4049.9</ele>
    <time>2026-06-22T07:33:33Z</time>
   </trkpt>
   <trkpt lat="-3.1022400" lon="37.3438680">
    <ele>4050.0</ele>
    <time>2026-06-22T07:33:34Z</time>
   </trkpt>
   <trkpt lat="-3.1022390" lon="37.3438730">
    <ele>4050.0</ele>
    <time>2026-06-22T07:33:35Z</time>
   </trkpt>
   <trkpt lat="-3.1022380" lon="37.3438760">
    <ele>4050.1</ele>
    <time>2026-06-22T07:33:36Z</time>
   </trkpt>
   <trkpt lat="-3.1022360" lon="37.3438820">
    <ele>4050.2</ele>
    <time>2026-06-22T07:33:37Z</time>
   </trkpt>
   <trkpt lat="-3.1022360" lon="37.3438850">
    <ele>4050.2</ele>
    <time>2026-06-22T07:33:38Z</time>
   </trkpt>
   <trkpt lat="-3.1022330" lon="37.3438900">
    <ele>4050.3</ele>
    <time>2026-06-22T07:33:39Z</time>
   </trkpt>
   <trkpt lat="-3.1022320" lon="37.3438930">
    <ele>4050.4</ele>
    <time>2026-06-22T07:33:40Z</time>
   </trkpt>
   <trkpt lat="-3.1022320" lon="37.3438980">
    <ele>4050.4</ele>
    <time>2026-06-22T07:33:41Z</time>
   </trkpt>
   <trkpt lat="-3.1022330" lon="37.3439000">
    <ele>4050.5</ele>
    <time>2026-06-22T07:33:42Z</time>
   </trkpt>
   <trkpt lat="-3.1022320" lon="37.3439060">
    <ele>4050.6</ele>
    <time>2026-06-22T07:33:43Z</time>
   </trkpt>
   <trkpt lat="-3.1022340" lon="37.3439090">
    <ele>4050.6</ele>
    <time>2026-06-22T07:33:44Z</time>
   </trkpt>
   <trkpt lat="-3.1022330" lon="37.3439150">
    <ele>4050.7</ele>
    <time>2026-06-22T07:33:45Z</time>
   </trkpt>
   <trkpt lat="-3.1022320" lon="37.3439170">
    <ele>4050.8</ele>
    <time>2026-06-22T07:33:46Z</time>
   </trkpt>
   <trkpt lat="-3.1022300" lon="37.3439220">
    <ele>4050.8</ele>
    <time>2026-06-22T07:33:47Z</time>
   </trkpt>
   <trkpt lat="-3.1022300" lon="37.3439260">
    <ele>4050.9</ele>
    <time>2026-06-22T07:33:48Z</time>
   </trkpt>
   <trkpt lat="-3.1022290" lon="37.3439280">
    <ele>4050.9</ele>
    <time>2026-06-22T07:33:49Z</time>
   </trkpt>
   <trkpt lat="-3.1022290" lon="37.3439320">
    <ele>4051.0</ele>
    <time>2026-06-22T07:33:50Z</time>
   </trkpt>
   <trkpt lat="-3.1022240" lon="37.3439380">
    <ele>4051.1</ele>
    <time>2026-06-22T07:33:51Z</time>
   </trkpt>
   <trkpt lat="-3.1022220" lon="37.3439420">
    <ele>4051.2</ele>
    <time>2026-06-22T07:33:52Z</time>
   </trkpt>
   <trkpt lat="-3.1022190" lon="37.3439460">
    <ele>4051.3</ele>
    <time>2026-06-22T07:33:53Z</time>
   </trkpt>
   <trkpt lat="-3.1022170" lon="37.3439500">
    <ele>4051.4</ele>
    <time>2026-06-22T07:33:54Z</time>
   </trkpt>
   <trkpt lat="-3.1022150" lon="37.3439530">
    <ele>4051.4</ele>
    <time>2026-06-22T07:33:55Z</time>
   </trkpt>
   <trkpt lat="-3.1022120" lon="37.3439580">
    <ele>4051.5</ele>
    <time>2026-06-22T07:33:56Z</time>
   </trkpt>
   <trkpt lat="-3.1022100" lon="37.3439610">
    <ele>4051.6</ele>
    <time>2026-06-22T07:33:57Z</time>
   </trkpt>
   <trkpt lat="-3.1022060" lon="37.3439630">
    <ele>4051.7</ele>
    <time>2026-06-22T07:33:58Z</time>
   </trkpt>
   <trkpt lat="-3.1022020" lon="37.3439670">
    <ele>4051.7</ele>
    <time>2026-06-22T07:33:59Z</time>
   </trkpt>
   <trkpt lat="-3.1021990" lon="37.3439690">
    <ele>4051.8</ele>
    <time>2026-06-22T07:34:00Z</time>
   </trkpt>
   <trkpt lat="-3.1021980" lon="37.3439710">
    <ele>4051.8</ele>
    <time>2026-06-22T07:34:01Z</time>
   </trkpt>
   <trkpt lat="-3.1021970" lon="37.3439800">
    <ele>4052.0</ele>
    <time>2026-06-22T07:34:02Z</time>
   </trkpt>
   <trkpt lat="-3.1021960" lon="37.3439820">
    <ele>4052.0</ele>
    <time>2026-06-22T07:34:03Z</time>
   </trkpt>
   <trkpt lat="-3.1021960" lon="37.3439880">
    <ele>4052.1</ele>
    <time>2026-06-22T07:34:04Z</time>
   </trkpt>
   <trkpt lat="-3.1021960" lon="37.3439920">
    <ele>4052.2</ele>
    <time>2026-06-22T07:34:05Z</time>
   </trkpt>
   <trkpt lat="-3.1021950" lon="37.3439970">
    <ele>4052.3</ele>
    <time>2026-06-22T07:34:06Z</time>
   </trkpt>
   <trkpt lat="-3.1021970" lon="37.3439950">
    <ele>4052.3</ele>
    <time>2026-06-22T07:34:07Z</time>
   </trkpt>
   <trkpt lat="-3.1021940" lon="37.3440050">
    <ele>4052.5</ele>
    <time>2026-06-22T07:34:08Z</time>
   </trkpt>
   <trkpt lat="-3.1021950" lon="37.3440100">
    <ele>4052.6</ele>
    <time>2026-06-22T07:34:09Z</time>
   </trkpt>
   <trkpt lat="-3.1021940" lon="37.3440120">
    <ele>4052.6</ele>
    <time>2026-06-22T07:34:10Z</time>
   </trkpt>
   <trkpt lat="-3.1021950" lon="37.3440170">
    <ele>4052.7</ele>
    <time>2026-06-22T07:34:11Z</time>
   </trkpt>
   <trkpt lat="-3.1021940" lon="37.3440220">
    <ele>4052.8</ele>
    <time>2026-06-22T07:34:12Z</time>
   </trkpt>
   <trkpt lat="-3.1021950" lon="37.3440260">
    <ele>4052.8</ele>
    <time>2026-06-22T07:34:13Z</time>
   </trkpt>
   <trkpt lat="-3.1021960" lon="37.3440340">
    <ele>4053.0</ele>
    <time>2026-06-22T07:34:14Z</time>
   </trkpt>
   <trkpt lat="-3.1021940" lon="37.3440390">
    <ele>4053.0</ele>
    <time>2026-06-22T07:34:15Z</time>
   </trkpt>
   <trkpt lat="-3.1021950" lon="37.3440420">
    <ele>4053.1</ele>
    <time>2026-06-22T07:34:16Z</time>
   </trkpt>
   <trkpt lat="-3.1021920" lon="37.3440500">
    <ele>4053.2</ele>
    <time>2026-06-22T07:34:17Z</time>
   </trkpt>
   <trkpt lat="-3.1021940" lon="37.3440530">
    <ele>4053.3</ele>
    <time>2026-06-22T07:34:18Z</time>
   </trkpt>
   <trkpt lat="-3.1021920" lon="37.3440580">
    <ele>4053.4</ele>
    <time>2026-06-22T07:34:19Z</time>
   </trkpt>
   <trkpt lat="-3.1021880" lon="37.3440660">
    <ele>4053.5</ele>
    <time>2026-06-22T07:34:20Z</time>
   </trkpt>
   <trkpt lat="-3.1021850" lon="37.3440660">
    <ele>4053.6</ele>
    <time>2026-06-22T07:34:21Z</time>
   </trkpt>
   <trkpt lat="-3.1021810" lon="37.3440710">
    <ele>4053.7</ele>
    <time>2026-06-22T07:34:22Z</time>
   </trkpt>
   <trkpt lat="-3.1021780" lon="37.3440710">
    <ele>4053.7</ele>
    <time>2026-06-22T07:34:23Z</time>
   </trkpt>
   <trkpt lat="-3.1021750" lon="37.3440770">
    <ele>4053.8</ele>
    <time>2026-06-22T07:34:24Z</time>
   </trkpt>
   <trkpt lat="-3.1021760" lon="37.3440680">
    <ele>4054.0</ele>
    <time>2026-06-22T07:34:25Z</time>
   </trkpt>
   <trkpt lat="-3.1021710" lon="37.3440850">
    <ele>4054.3</ele>
    <time>2026-06-22T07:34:26Z</time>
   </trkpt>
   <trkpt lat="-3.1021660" lon="37.3440890">
    <ele>4054.4</ele>
    <time>2026-06-22T07:34:27Z</time>
   </trkpt>
   <trkpt lat="-3.1021620" lon="37.3440980">
    <ele>4054.5</ele>
    <time>2026-06-22T07:34:28Z</time>
   </trkpt>
   <trkpt lat="-3.1021650" lon="37.3441020">
    <ele>4054.6</ele>
    <time>2026-06-22T07:34:29Z</time>
   </trkpt>
   <trkpt lat="-3.1021690" lon="37.3441070">
    <ele>4054.7</ele>
    <time>2026-06-22T07:34:30Z</time>
   </trkpt>
   <trkpt lat="-3.1021710" lon="37.3441140">
    <ele>4054.8</ele>
    <time>2026-06-22T07:34:31Z</time>
   </trkpt>
   <trkpt lat="-3.1021730" lon="37.3441180">
    <ele>4054.9</ele>
    <time>2026-06-22T07:34:32Z</time>
   </trkpt>
   <trkpt lat="-3.1021690" lon="37.3441200">
    <ele>4055.0</ele>
    <time>2026-06-22T07:34:33Z</time>
   </trkpt>
   <trkpt lat="-3.1021640" lon="37.3441230">
    <ele>4055.1</ele>
    <time>2026-06-22T07:34:34Z</time>
   </trkpt>
   <trkpt lat="-3.1021640" lon="37.3441260">
    <ele>4055.1</ele>
    <time>2026-06-22T07:34:35Z</time>
   </trkpt>
   <trkpt lat="-3.1021640" lon="37.3441340">
    <ele>4055.3</ele>
    <time>2026-06-22T07:34:36Z</time>
   </trkpt>
   <trkpt lat="-3.1021640" lon="37.3441380">
    <ele>4055.3</ele>
    <time>2026-06-22T07:34:37Z</time>
   </trkpt>
   <trkpt lat="-3.1021640" lon="37.3441440">
    <ele>4055.4</ele>
    <time>2026-06-22T07:34:38Z</time>
   </trkpt>
   <trkpt lat="-3.1021660" lon="37.3441510">
    <ele>4055.5</ele>
    <time>2026-06-22T07:34:39Z</time>
   </trkpt>
   <trkpt lat="-3.1021640" lon="37.3441570">
    <ele>4055.6</ele>
    <time>2026-06-22T07:34:40Z</time>
   </trkpt>
   <trkpt lat="-3.1021630" lon="37.3441580">
    <ele>4055.7</ele>
    <time>2026-06-22T07:34:41Z</time>
   </trkpt>
   <trkpt lat="-3.1021630" lon="37.3441620">
    <ele>4055.7</ele>
    <time>2026-06-22T07:34:42Z</time>
   </trkpt>
   <trkpt lat="-3.1021640" lon="37.3441670">
    <ele>4055.8</ele>
    <time>2026-06-22T07:34:43Z</time>
   </trkpt>
   <trkpt lat="-3.1021640" lon="37.3441740">
    <ele>4055.9</ele>
    <time>2026-06-22T07:34:44Z</time>
   </trkpt>
   <trkpt lat="-3.1021640" lon="37.3441800">
    <ele>4056.0</ele>
    <time>2026-06-22T07:34:45Z</time>
   </trkpt>
   <trkpt lat="-3.1021640" lon="37.3441860">
    <ele>4056.1</ele>
    <time>2026-06-22T07:34:46Z</time>
   </trkpt>
   <trkpt lat="-3.1021640" lon="37.3441920">
    <ele>4056.2</ele>
    <time>2026-06-22T07:34:47Z</time>
   </trkpt>
   <trkpt lat="-3.1021630" lon="37.3441970">
    <ele>4056.3</ele>
    <time>2026-06-22T07:34:48Z</time>
   </trkpt>
   <trkpt lat="-3.1021620" lon="37.3442020">
    <ele>4056.3</ele>
    <time>2026-06-22T07:34:49Z</time>
   </trkpt>
   <trkpt lat="-3.1021580" lon="37.3442040">
    <ele>4056.4</ele>
    <time>2026-06-22T07:34:50Z</time>
   </trkpt>
   <trkpt lat="-3.1021540" lon="37.3442050">
    <ele>4056.5</ele>
    <time>2026-06-22T07:34:51Z</time>
   </trkpt>
   <trkpt lat="-3.1021510" lon="37.3442070">
    <ele>4056.5</ele>
    <time>2026-06-22T07:34:52Z</time>
   </trkpt>
   <trkpt lat="-3.1021470" lon="37.3442080">
    <ele>4056.6</ele>
    <time>2026-06-22T07:34:53Z</time>
   </trkpt>
   <trkpt lat="-3.1021410" lon="37.3442090">
    <ele>4056.7</ele>
    <time>2026-06-22T07:34:54Z</time>
   </trkpt>
   <trkpt lat="-3.1021380" lon="37.3442100">
    <ele>4056.8</ele>
    <time>2026-06-22T07:34:55Z</time>
   </trkpt>
   <trkpt lat="-3.1021370" lon="37.3442140">
    <ele>4056.8</ele>
    <time>2026-06-22T07:34:56Z</time>
   </trkpt>
   <trkpt lat="-3.1021340" lon="37.3442190">
    <ele>4056.9</ele>
    <time>2026-06-22T07:34:57Z</time>
   </trkpt>
   <trkpt lat="-3.1021340" lon="37.3442230">
    <ele>4057.0</ele>
    <time>2026-06-22T07:34:58Z</time>
   </trkpt>
   <trkpt lat="-3.1021330" lon="37.3442270">
    <ele>4057.0</ele>
    <time>2026-06-22T07:34:59Z</time>
   </trkpt>
   <trkpt lat="-3.1021330" lon="37.3442330">
    <ele>4057.1</ele>
    <time>2026-06-22T07:35:00Z</time>
   </trkpt>
   <trkpt lat="-3.1021230" lon="37.3442350">
    <ele>4057.3</ele>
    <time>2026-06-22T07:35:01Z</time>
   </trkpt>
   <trkpt lat="-3.1021300" lon="37.3442420">
    <ele>4057.4</ele>
    <time>2026-06-22T07:35:02Z</time>
   </trkpt>
   <trkpt lat="-3.1021300" lon="37.3442460">
    <ele>4057.5</ele>
    <time>2026-06-22T07:35:03Z</time>
   </trkpt>
   <trkpt lat="-3.1021290" lon="37.3442480">
    <ele>4057.5</ele>
    <time>2026-06-22T07:35:04Z</time>
   </trkpt>
   <trkpt lat="-3.1021290" lon="37.3442510">
    <ele>4057.6</ele>
    <time>2026-06-22T07:35:05Z</time>
   </trkpt>
   <trkpt lat="-3.1021300" lon="37.3442550">
    <ele>4057.6</ele>
    <time>2026-06-22T07:35:06Z</time>
   </trkpt>
   <trkpt lat="-3.1021270" lon="37.3442570">
    <ele>4057.7</ele>
    <time>2026-06-22T07:35:07Z</time>
   </trkpt>
   <trkpt lat="-3.1021270" lon="37.3442590">
    <ele>4057.7</ele>
    <time>2026-06-22T07:35:08Z</time>
   </trkpt>
   <trkpt lat="-3.1021260" lon="37.3442640">
    <ele>4057.8</ele>
    <time>2026-06-22T07:35:09Z</time>
   </trkpt>
   <trkpt lat="-3.1021240" lon="37.3442700">
    <ele>4057.9</ele>
    <time>2026-06-22T07:35:10Z</time>
   </trkpt>
   <trkpt lat="-3.1021230" lon="37.3442760">
    <ele>4058.0</ele>
    <time>2026-06-22T07:35:11Z</time>
   </trkpt>
   <trkpt lat="-3.1021200" lon="37.3442800">
    <ele>4058.1</ele>
    <time>2026-06-22T07:35:12Z</time>
   </trkpt>
   <trkpt lat="-3.1021180" lon="37.3442860">
    <ele>4058.2</ele>
    <time>2026-06-22T07:35:13Z</time>
   </trkpt>
   <trkpt lat="-3.1021180" lon="37.3442950">
    <ele>4058.3</ele>
    <time>2026-06-22T07:35:14Z</time>
   </trkpt>
   <trkpt lat="-3.1021130" lon="37.3442970">
    <ele>4058.4</ele>
    <time>2026-06-22T07:35:15Z</time>
   </trkpt>
   <trkpt lat="-3.1021100" lon="37.3443010">
    <ele>4058.5</ele>
    <time>2026-06-22T07:35:16Z</time>
   </trkpt>
   <trkpt lat="-3.1021090" lon="37.3443050">
    <ele>4058.5</ele>
    <time>2026-06-22T07:35:17Z</time>
   </trkpt>
   <trkpt lat="-3.1021060" lon="37.3443120">
    <ele>4058.6</ele>
    <time>2026-06-22T07:35:18Z</time>
   </trkpt>
   <trkpt lat="-3.1021070" lon="37.3443170">
    <ele>4058.7</ele>
    <time>2026-06-22T07:35:19Z</time>
   </trkpt>
   <trkpt lat="-3.1021070" lon="37.3443220">
    <ele>4058.8</ele>
    <time>2026-06-22T07:35:20Z</time>
   </trkpt>
   <trkpt lat="-3.1021100" lon="37.3443250">
    <ele>4058.9</ele>
    <time>2026-06-22T07:35:21Z</time>
   </trkpt>
   <trkpt lat="-3.1021150" lon="37.3443300">
    <ele>4059.0</ele>
    <time>2026-06-22T07:35:22Z</time>
   </trkpt>
   <trkpt lat="-3.1021150" lon="37.3443360">
    <ele>4059.1</ele>
    <time>2026-06-22T07:35:23Z</time>
   </trkpt>
   <trkpt lat="-3.1021190" lon="37.3443390">
    <ele>4059.1</ele>
    <time>2026-06-22T07:35:24Z</time>
   </trkpt>
   <trkpt lat="-3.1021190" lon="37.3443430">
    <ele>4059.2</ele>
    <time>2026-06-22T07:35:25Z</time>
   </trkpt>
   <trkpt lat="-3.1021220" lon="37.3443460">
    <ele>4059.3</ele>
    <time>2026-06-22T07:35:26Z</time>
   </trkpt>
   <trkpt lat="-3.1021240" lon="37.3443520">
    <ele>4059.4</ele>
    <time>2026-06-22T07:35:27Z</time>
   </trkpt>
   <trkpt lat="-3.1021270" lon="37.3443540">
    <ele>4059.4</ele>
    <time>2026-06-22T07:35:28Z</time>
   </trkpt>
   <trkpt lat="-3.1021300" lon="37.3443560">
    <ele>4059.5</ele>
    <time>2026-06-22T07:35:29Z</time>
   </trkpt>
   <trkpt lat="-3.1021330" lon="37.3443620">
    <ele>4059.6</ele>
    <time>2026-06-22T07:35:30Z</time>
   </trkpt>
   <trkpt lat="-3.1021290" lon="37.3443700">
    <ele>4059.7</ele>
    <time>2026-06-22T07:35:31Z</time>
   </trkpt>
   <trkpt lat="-3.1021300" lon="37.3443730">
    <ele>4059.8</ele>
    <time>2026-06-22T07:35:32Z</time>
   </trkpt>
   <trkpt lat="-3.1021290" lon="37.3443740">
    <ele>4059.8</ele>
    <time>2026-06-22T07:35:33Z</time>
   </trkpt>
   <trkpt lat="-3.1021270" lon="37.3443800">
    <ele>4059.9</ele>
    <time>2026-06-22T07:35:34Z</time>
   </trkpt>
   <trkpt lat="-3.1021280" lon="37.3443830">
    <ele>4060.0</ele>
    <time>2026-06-22T07:35:35Z</time>
   </trkpt>
   <trkpt lat="-3.1021230" lon="37.3443870">
    <ele>4060.1</ele>
    <time>2026-06-22T07:35:36Z</time>
   </trkpt>
   <trkpt lat="-3.1021200" lon="37.3443900">
    <ele>4060.1</ele>
    <time>2026-06-22T07:35:37Z</time>
   </trkpt>
   <trkpt lat="-3.1021160" lon="37.3443940">
    <ele>4060.2</ele>
    <time>2026-06-22T07:35:38Z</time>
   </trkpt>
   <trkpt lat="-3.1021120" lon="37.3443970">
    <ele>4060.3</ele>
    <time>2026-06-22T07:35:39Z</time>
   </trkpt>
   <trkpt lat="-3.1021130" lon="37.3444000">
    <ele>4060.4</ele>
    <time>2026-06-22T07:35:40Z</time>
   </trkpt>
   <trkpt lat="-3.1021160" lon="37.3444040">
    <ele>4060.4</ele>
    <time>2026-06-22T07:35:41Z</time>
   </trkpt>
   <trkpt lat="-3.1021190" lon="37.3444070">
    <ele>4060.5</ele>
    <time>2026-06-22T07:35:42Z</time>
   </trkpt>
   <trkpt lat="-3.1021250" lon="37.3444080">
    <ele>4060.6</ele>
    <time>2026-06-22T07:35:43Z</time>
   </trkpt>
   <trkpt lat="-3.1021300" lon="37.3444120">
    <ele>4060.7</ele>
    <time>2026-06-22T07:35:44Z</time>
   </trkpt>
   <trkpt lat="-3.1021350" lon="37.3444150">
    <ele>4060.8</ele>
    <time>2026-06-22T07:35:45Z</time>
   </trkpt>
   <trkpt lat="-3.1021400" lon="37.3444180">
    <ele>4060.9</ele>
    <time>2026-06-22T07:35:46Z</time>
   </trkpt>
   <trkpt lat="-3.1021440" lon="37.3444220">
    <ele>4061.0</ele>
    <time>2026-06-22T07:35:47Z</time>
   </trkpt>
   <trkpt lat="-3.1021470" lon="37.3444280">
    <ele>4061.1</ele>
    <time>2026-06-22T07:35:48Z</time>
   </trkpt>
   <trkpt lat="-3.1021490" lon="37.3444340">
    <ele>4061.2</ele>
    <time>2026-06-22T07:35:49Z</time>
   </trkpt>
   <trkpt lat="-3.1021500" lon="37.3444400">
    <ele>4061.3</ele>
    <time>2026-06-22T07:35:50Z</time>
   </trkpt>
   <trkpt lat="-3.1021530" lon="37.3444440">
    <ele>4061.4</ele>
    <time>2026-06-22T07:35:51Z</time>
   </trkpt>
   <trkpt lat="-3.1021540" lon="37.3444520">
    <ele>4061.5</ele>
    <time>2026-06-22T07:35:52Z</time>
   </trkpt>
   <trkpt lat="-3.1021540" lon="37.3444600">
    <ele>4061.6</ele>
    <time>2026-06-22T07:35:53Z</time>
   </trkpt>
   <trkpt lat="-3.1021570" lon="37.3444660">
    <ele>4061.8</ele>
    <time>2026-06-22T07:35:54Z</time>
   </trkpt>
   <trkpt lat="-3.1021550" lon="37.3444720">
    <ele>4061.9</ele>
    <time>2026-06-22T07:35:55Z</time>
   </trkpt>
   <trkpt lat="-3.1021540" lon="37.3444760">
    <ele>4061.9</ele>
    <time>2026-06-22T07:35:56Z</time>
   </trkpt>
   <trkpt lat="-3.1021530" lon="37.3444790">
    <ele>4062.0</ele>
    <time>2026-06-22T07:35:57Z</time>
   </trkpt>
   <trkpt lat="-3.1021540" lon="37.3444830">
    <ele>4062.1</ele>
    <time>2026-06-22T07:35:58Z</time>
   </trkpt>
   <trkpt lat="-3.1021520" lon="37.3444860">
    <ele>4062.1</ele>
    <time>2026-06-22T07:35:59Z</time>
   </trkpt>
   <trkpt lat="-3.1021550" lon="37.3444910">
    <ele>4062.2</ele>
    <time>2026-06-22T07:36:00Z</time>
   </trkpt>
   <trkpt lat="-3.1021540" lon="37.3444900">
    <ele>4062.2</ele>
    <time>2026-06-22T07:36:01Z</time>
   </trkpt>
   <trkpt lat="-3.1021550" lon="37.3444900">
    <ele>4062.3</ele>
    <time>2026-06-22T07:36:02Z</time>
   </trkpt>
   <trkpt lat="-3.1021550" lon="37.3444900">
    <ele>4062.3</ele>
    <time>2026-06-22T07:36:03Z</time>
   </trkpt>
   <trkpt lat="-3.1021550" lon="37.3444950">
    <ele>4062.3</ele>
    <time>2026-06-22T07:36:04Z</time>
   </trkpt>
   <trkpt lat="-3.1021570" lon="37.3444990">
    <ele>4062.4</ele>
    <time>2026-06-22T07:36:05Z</time>
   </trkpt>
   <trkpt lat="-3.1021550" lon="37.3445050">
    <ele>4062.5</ele>
    <time>2026-06-22T07:36:06Z</time>
   </trkpt>
   <trkpt lat="-3.1021550" lon="37.3445070">
    <ele>4062.6</ele>
    <time>2026-06-22T07:36:07Z</time>
   </trkpt>
   <trkpt lat="-3.1021520" lon="37.3445090">
    <ele>4062.6</ele>
    <time>2026-06-22T07:36:08Z</time>
   </trkpt>
   <trkpt lat="-3.1021480" lon="37.3445130">
    <ele>4062.7</ele>
    <time>2026-06-22T07:36:09Z</time>
   </trkpt>
   <trkpt lat="-3.1021480" lon="37.3445180">
    <ele>4062.8</ele>
    <time>2026-06-22T07:36:10Z</time>
   </trkpt>
   <trkpt lat="-3.1021480" lon="37.3445210">
    <ele>4062.9</ele>
    <time>2026-06-22T07:36:11Z</time>
   </trkpt>
   <trkpt lat="-3.1021500" lon="37.3445220">
    <ele>4062.9</ele>
    <time>2026-06-22T07:36:12Z</time>
   </trkpt>
   <trkpt lat="-3.1021530" lon="37.3445280">
    <ele>4063.0</ele>
    <time>2026-06-22T07:36:13Z</time>
   </trkpt>
   <trkpt lat="-3.1021530" lon="37.3445320">
    <ele>4063.1</ele>
    <time>2026-06-22T07:36:14Z</time>
   </trkpt>
   <trkpt lat="-3.1021530" lon="37.3445360">
    <ele>4063.1</ele>
    <time>2026-06-22T07:36:15Z</time>
   </trkpt>
   <trkpt lat="-3.1021530" lon="37.3445410">
    <ele>4063.2</ele>
    <time>2026-06-22T07:36:16Z</time>
   </trkpt>
   <trkpt lat="-3.1021530" lon="37.3445470">
    <ele>4063.3</ele>
    <time>2026-06-22T07:36:17Z</time>
   </trkpt>
   <trkpt lat="-3.1021560" lon="37.3445490">
    <ele>4063.4</ele>
    <time>2026-06-22T07:36:18Z</time>
   </trkpt>
   <trkpt lat="-3.1021600" lon="37.3445470">
    <ele>4063.5</ele>
    <time>2026-06-22T07:36:19Z</time>
   </trkpt>
   <trkpt lat="-3.1021640" lon="37.3445480">
    <ele>4063.5</ele>
    <time>2026-06-22T07:36:20Z</time>
   </trkpt>
   <trkpt lat="-3.1021700" lon="37.3445530">
    <ele>4063.7</ele>
    <time>2026-06-22T07:36:21Z</time>
   </trkpt>
   <trkpt lat="-3.1021720" lon="37.3445520">
    <ele>4063.7</ele>
    <time>2026-06-22T07:36:22Z</time>
   </trkpt>
   <trkpt lat="-3.1021760" lon="37.3445560">
    <ele>4063.8</ele>
    <time>2026-06-22T07:36:23Z</time>
   </trkpt>
   <trkpt lat="-3.1021800" lon="37.3445590">
    <ele>4063.9</ele>
    <time>2026-06-22T07:36:24Z</time>
   </trkpt>
   <trkpt lat="-3.1021810" lon="37.3445600">
    <ele>4063.9</ele>
    <time>2026-06-22T07:36:25Z</time>
   </trkpt>
   <trkpt lat="-3.1021840" lon="37.3445650">
    <ele>4064.0</ele>
    <time>2026-06-22T07:36:26Z</time>
   </trkpt>
   <trkpt lat="-3.1021850" lon="37.3445680">
    <ele>4064.1</ele>
    <time>2026-06-22T07:36:27Z</time>
   </trkpt>
   <trkpt lat="-3.1021880" lon="37.3445710">
    <ele>4064.1</ele>
    <time>2026-06-22T07:36:28Z</time>
   </trkpt>
   <trkpt lat="-3.1021900" lon="37.3445720">
    <ele>4064.2</ele>
    <time>2026-06-22T07:36:29Z</time>
   </trkpt>
   <trkpt lat="-3.1021920" lon="37.3445760">
    <ele>4064.2</ele>
    <time>2026-06-22T07:36:30Z</time>
   </trkpt>
   <trkpt lat="-3.1021920" lon="37.3445780">
    <ele>4064.3</ele>
    <time>2026-06-22T07:36:31Z</time>
   </trkpt>
   <trkpt lat="-3.1021930" lon="37.3445800">
    <ele>4064.3</ele>
    <time>2026-06-22T07:36:32Z</time>
   </trkpt>
   <trkpt lat="-3.1021950" lon="37.3445840">
    <ele>4064.4</ele>
    <time>2026-06-22T07:36:33Z</time>
   </trkpt>
   <trkpt lat="-3.1021960" lon="37.3445870">
    <ele>4064.4</ele>
    <time>2026-06-22T07:36:34Z</time>
   </trkpt>
   <trkpt lat="-3.1021950" lon="37.3445880">
    <ele>4064.5</ele>
    <time>2026-06-22T07:36:35Z</time>
   </trkpt>
   <trkpt lat="-3.1021980" lon="37.3445920">
    <ele>4064.5</ele>
    <time>2026-06-22T07:36:36Z</time>
   </trkpt>
   <trkpt lat="-3.1022000" lon="37.3445930">
    <ele>4064.6</ele>
    <time>2026-06-22T07:36:37Z</time>
   </trkpt>
   <trkpt lat="-3.1022010" lon="37.3445960">
    <ele>4064.6</ele>
    <time>2026-06-22T07:36:38Z</time>
   </trkpt>
   <trkpt lat="-3.1022030" lon="37.3445970">
    <ele>4064.7</ele>
    <time>2026-06-22T07:36:39Z</time>
   </trkpt>
   <trkpt lat="-3.1022020" lon="37.3445990">
    <ele>4064.7</ele>
    <time>2026-06-22T07:36:40Z</time>
   </trkpt>
   <trkpt lat="-3.1022020" lon="37.3446040">
    <ele>4064.8</ele>
    <time>2026-06-22T07:36:41Z</time>
   </trkpt>
   <trkpt lat="-3.1022010" lon="37.3446060">
    <ele>4064.8</ele>
    <time>2026-06-22T07:36:42Z</time>
   </trkpt>
   <trkpt lat="-3.1022040" lon="37.3446060">
    <ele>4064.9</ele>
    <time>2026-06-22T07:36:43Z</time>
   </trkpt>
   <trkpt lat="-3.1022060" lon="37.3446120">
    <ele>4065.0</ele>
    <time>2026-06-22T07:36:44Z</time>
   </trkpt>
   <trkpt lat="-3.1022050" lon="37.3446130">
    <ele>4065.0</ele>
    <time>2026-06-22T07:36:45Z</time>
   </trkpt>
   <trkpt lat="-3.1022070" lon="37.3446140">
    <ele>4065.1</ele>
    <time>2026-06-22T07:36:46Z</time>
   </trkpt>
   <trkpt lat="-3.1022080" lon="37.3446160">
    <ele>4065.1</ele>
    <time>2026-06-22T07:36:47Z</time>
   </trkpt>
   <trkpt lat="-3.1022090" lon="37.3446190">
    <ele>4065.1</ele>
    <time>2026-06-22T07:36:48Z</time>
   </trkpt>
   <trkpt lat="-3.1022090" lon="37.3446220">
    <ele>4065.2</ele>
    <time>2026-06-22T07:36:49Z</time>
   </trkpt>
   <trkpt lat="-3.1022080" lon="37.3446290">
    <ele>4065.3</ele>
    <time>2026-06-22T07:36:50Z</time>
   </trkpt>
   <trkpt lat="-3.1022030" lon="37.3446350">
    <ele>4065.5</ele>
    <time>2026-06-22T07:36:51Z</time>
   </trkpt>
   <trkpt lat="-3.1021990" lon="37.3446350">
    <ele>4065.5</ele>
    <time>2026-06-22T07:36:52Z</time>
   </trkpt>
   <trkpt lat="-3.1021950" lon="37.3446380">
    <ele>4065.6</ele>
    <time>2026-06-22T07:36:53Z</time>
   </trkpt>
   <trkpt lat="-3.1021920" lon="37.3446390">
    <ele>4065.7</ele>
    <time>2026-06-22T07:36:54Z</time>
   </trkpt>
   <trkpt lat="-3.1021890" lon="37.3446420">
    <ele>4065.7</ele>
    <time>2026-06-22T07:36:55Z</time>
   </trkpt>
   <trkpt lat="-3.1021860" lon="37.3446450">
    <ele>4065.8</ele>
    <time>2026-06-22T07:36:56Z</time>
   </trkpt>
   <trkpt lat="-3.1021850" lon="37.3446470">
    <ele>4065.8</ele>
    <time>2026-06-22T07:36:57Z</time>
   </trkpt>
   <trkpt lat="-3.1021840" lon="37.3446510">
    <ele>4065.9</ele>
    <time>2026-06-22T07:36:58Z</time>
   </trkpt>
   <trkpt lat="-3.1021840" lon="37.3446570">
    <ele>4066.0</ele>
    <time>2026-06-22T07:36:59Z</time>
   </trkpt>
   <trkpt lat="-3.1021840" lon="37.3446610">
    <ele>4066.1</ele>
    <time>2026-06-22T07:37:00Z</time>
   </trkpt>
   <trkpt lat="-3.1021860" lon="37.3446650">
    <ele>4066.2</ele>
    <time>2026-06-22T07:37:01Z</time>
   </trkpt>
   <trkpt lat="-3.1021860" lon="37.3446700">
    <ele>4066.2</ele>
    <time>2026-06-22T07:37:02Z</time>
   </trkpt>
   <trkpt lat="-3.1021850" lon="37.3446750">
    <ele>4066.3</ele>
    <time>2026-06-22T07:37:03Z</time>
   </trkpt>
   <trkpt lat="-3.1021850" lon="37.3446790">
    <ele>4066.4</ele>
    <time>2026-06-22T07:37:04Z</time>
   </trkpt>
   <trkpt lat="-3.1021870" lon="37.3446860">
    <ele>4066.5</ele>
    <time>2026-06-22T07:37:05Z</time>
   </trkpt>
   <trkpt lat="-3.1021900" lon="37.3446900">
    <ele>4066.6</ele>
    <time>2026-06-22T07:37:06Z</time>
   </trkpt>
   <trkpt lat="-3.1021930" lon="37.3446950">
    <ele>4066.7</ele>
    <time>2026-06-22T07:37:07Z</time>
   </trkpt>
   <trkpt lat="-3.1021980" lon="37.3447000">
    <ele>4066.8</ele>
    <time>2026-06-22T07:37:08Z</time>
   </trkpt>
   <trkpt lat="-3.1022010" lon="37.3447030">
    <ele>4066.9</ele>
    <time>2026-06-22T07:37:09Z</time>
   </trkpt>
   <trkpt lat="-3.1022040" lon="37.3447090">
    <ele>4067.0</ele>
    <time>2026-06-22T07:37:10Z</time>
   </trkpt>
   <trkpt lat="-3.1022060" lon="37.3447150">
    <ele>4067.1</ele>
    <time>2026-06-22T07:37:11Z</time>
   </trkpt>
   <trkpt lat="-3.1022110" lon="37.3447170">
    <ele>4067.2</ele>
    <time>2026-06-22T07:37:12Z</time>
   </trkpt>
   <trkpt lat="-3.1022140" lon="37.3447200">
    <ele>4067.3</ele>
    <time>2026-06-22T07:37:13Z</time>
   </trkpt>
   <trkpt lat="-3.1022200" lon="37.3447230">
    <ele>4067.4</ele>
    <time>2026-06-22T07:37:14Z</time>
   </trkpt>
   <trkpt lat="-3.1022240" lon="37.3447270">
    <ele>4067.5</ele>
    <time>2026-06-22T07:37:15Z</time>
   </trkpt>
   <trkpt lat="-3.1022260" lon="37.3447310">
    <ele>4067.6</ele>
    <time>2026-06-22T07:37:16Z</time>
   </trkpt>
   <trkpt lat="-3.1022290" lon="37.3447390">
    <ele>4067.7</ele>
    <time>2026-06-22T07:37:17Z</time>
   </trkpt>
   <trkpt lat="-3.1022270" lon="37.3447420">
    <ele>4067.8</ele>
    <time>2026-06-22T07:37:18Z</time>
   </trkpt>
   <trkpt lat="-3.1022240" lon="37.3447480">
    <ele>4067.9</ele>
    <time>2026-06-22T07:37:19Z</time>
   </trkpt>
   <trkpt lat="-3.1022200" lon="37.3447490">
    <ele>4068.0</ele>
    <time>2026-06-22T07:37:20Z</time>
   </trkpt>
   <trkpt lat="-3.1022160" lon="37.3447540">
    <ele>4068.1</ele>
    <time>2026-06-22T07:37:21Z</time>
   </trkpt>
   <trkpt lat="-3.1022110" lon="37.3447550">
    <ele>4068.2</ele>
    <time>2026-06-22T07:37:22Z</time>
   </trkpt>
   <trkpt lat="-3.1022060" lon="37.3447580">
    <ele>4068.3</ele>
    <time>2026-06-22T07:37:23Z</time>
   </trkpt>
   <trkpt lat="-3.1022020" lon="37.3447600">
    <ele>4068.4</ele>
    <time>2026-06-22T07:37:24Z</time>
   </trkpt>
   <trkpt lat="-3.1021960" lon="37.3447650">
    <ele>4068.5</ele>
    <time>2026-06-22T07:37:25Z</time>
   </trkpt>
   <trkpt lat="-3.1021910" lon="37.3447640">
    <ele>4068.6</ele>
    <time>2026-06-22T07:37:26Z</time>
   </trkpt>
   <trkpt lat="-3.1021870" lon="37.3447670">
    <ele>4068.7</ele>
    <time>2026-06-22T07:37:27Z</time>
   </trkpt>
   <trkpt lat="-3.1021810" lon="37.3447690">
    <ele>4068.8</ele>
    <time>2026-06-22T07:37:28Z</time>
   </trkpt>
   <trkpt lat="-3.1021790" lon="37.3447690">
    <ele>4068.8</ele>
    <time>2026-06-22T07:37:29Z</time>
   </trkpt>
   <trkpt lat="-3.1021720" lon="37.3447710">
    <ele>4069.0</ele>
    <time>2026-06-22T07:37:30Z</time>
   </trkpt>
   <trkpt lat="-3.1021680" lon="37.3447720">
    <ele>4069.0</ele>
    <time>2026-06-22T07:37:31Z</time>
   </trkpt>
   <trkpt lat="-3.1021670" lon="37.3447690">
    <ele>4069.1</ele>
    <time>2026-06-22T07:37:32Z</time>
   </trkpt>
   <trkpt lat="-3.1021600" lon="37.3447710">
    <ele>4069.2</ele>
    <time>2026-06-22T07:37:33Z</time>
   </trkpt>
   <trkpt lat="-3.1021550" lon="37.3447750">
    <ele>4069.3</ele>
    <time>2026-06-22T07:37:34Z</time>
   </trkpt>
   <trkpt lat="-3.1021550" lon="37.3447780">
    <ele>4069.4</ele>
    <time>2026-06-22T07:37:35Z</time>
   </trkpt>
   <trkpt lat="-3.1021540" lon="37.3447820">
    <ele>4069.5</ele>
    <time>2026-06-22T07:37:36Z</time>
   </trkpt>
   <trkpt lat="-3.1021550" lon="37.3447870">
    <ele>4069.5</ele>
    <time>2026-06-22T07:37:37Z</time>
   </trkpt>
   <trkpt lat="-3.1021550" lon="37.3447910">
    <ele>4069.6</ele>
    <time>2026-06-22T07:37:38Z</time>
   </trkpt>
   <trkpt lat="-3.1021570" lon="37.3447950">
    <ele>4069.7</ele>
    <time>2026-06-22T07:37:39Z</time>
   </trkpt>
   <trkpt lat="-3.1021570" lon="37.3448000">
    <ele>4069.8</ele>
    <time>2026-06-22T07:37:40Z</time>
   </trkpt>
   <trkpt lat="-3.1021590" lon="37.3448030">
    <ele>4069.8</ele>
    <time>2026-06-22T07:37:41Z</time>
   </trkpt>
   <trkpt lat="-3.1021560" lon="37.3448070">
    <ele>4069.9</ele>
    <time>2026-06-22T07:37:42Z</time>
   </trkpt>
   <trkpt lat="-3.1021520" lon="37.3448090">
    <ele>4070.0</ele>
    <time>2026-06-22T07:37:43Z</time>
   </trkpt>
   <trkpt lat="-3.1021490" lon="37.3448110">
    <ele>4070.1</ele>
    <time>2026-06-22T07:37:44Z</time>
   </trkpt>
   <trkpt lat="-3.1021450" lon="37.3448120">
    <ele>4070.1</ele>
    <time>2026-06-22T07:37:45Z</time>
   </trkpt>
   <trkpt lat="-3.1021420" lon="37.3448110">
    <ele>4070.2</ele>
    <time>2026-06-22T07:37:46Z</time>
   </trkpt>
   <trkpt lat="-3.1021350" lon="37.3448110">
    <ele>4070.3</ele>
    <time>2026-06-22T07:37:47Z</time>
   </trkpt>
   <trkpt lat="-3.1021330" lon="37.3448110">
    <ele>4070.4</ele>
    <time>2026-06-22T07:37:48Z</time>
   </trkpt>
   <trkpt lat="-3.1021280" lon="37.3448130">
    <ele>4070.4</ele>
    <time>2026-06-22T07:37:49Z</time>
   </trkpt>
   <trkpt lat="-3.1021290" lon="37.3448160">
    <ele>4070.5</ele>
    <time>2026-06-22T07:37:50Z</time>
   </trkpt>
   <trkpt lat="-3.1021290" lon="37.3448190">
    <ele>4070.6</ele>
    <time>2026-06-22T07:37:51Z</time>
   </trkpt>
   <trkpt lat="-3.1021310" lon="37.3448230">
    <ele>4070.6</ele>
    <time>2026-06-22T07:37:52Z</time>
   </trkpt>
   <trkpt lat="-3.1021360" lon="37.3448280">
    <ele>4070.8</ele>
    <time>2026-06-22T07:37:53Z</time>
   </trkpt>
   <trkpt lat="-3.1021360" lon="37.3448310">
    <ele>4070.8</ele>
    <time>2026-06-22T07:37:54Z</time>
   </trkpt>
   <trkpt lat="-3.1021340" lon="37.3448350">
    <ele>4070.9</ele>
    <time>2026-06-22T07:37:55Z</time>
   </trkpt>
   <trkpt lat="-3.1021330" lon="37.3448390">
    <ele>4071.0</ele>
    <time>2026-06-22T07:37:56Z</time>
   </trkpt>
   <trkpt lat="-3.1021310" lon="37.3448400">
    <ele>4071.0</ele>
    <time>2026-06-22T07:37:57Z</time>
   </trkpt>
   <trkpt lat="-3.1021260" lon="37.3448450">
    <ele>4071.1</ele>
    <time>2026-06-22T07:37:58Z</time>
   </trkpt>
   <trkpt lat="-3.1021220" lon="37.3448470">
    <ele>4071.2</ele>
    <time>2026-06-22T07:37:59Z</time>
   </trkpt>
   <trkpt lat="-3.1021200" lon="37.3448470">
    <ele>4071.2</ele>
    <time>2026-06-22T07:38:00Z</time>
   </trkpt>
   <trkpt lat="-3.1021160" lon="37.3448480">
    <ele>4071.3</ele>
    <time>2026-06-22T07:38:01Z</time>
   </trkpt>
   <trkpt lat="-3.1021110" lon="37.3448510">
    <ele>4071.4</ele>
    <time>2026-06-22T07:38:02Z</time>
   </trkpt>
   <trkpt lat="-3.1021080" lon="37.3448510">
    <ele>4071.5</ele>
    <time>2026-06-22T07:38:03Z</time>
   </trkpt>
   <trkpt lat="-3.1021060" lon="37.3448520">
    <ele>4071.5</ele>
    <time>2026-06-22T07:38:04Z</time>
   </trkpt>
   <trkpt lat="-3.1021010" lon="37.3448540">
    <ele>4071.6</ele>
    <time>2026-06-22T07:38:05Z</time>
   </trkpt>
   <trkpt lat="-3.1020990" lon="37.3448550">
    <ele>4071.7</ele>
    <time>2026-06-22T07:38:07Z</time>
   </trkpt>
   <trkpt lat="-3.1020960" lon="37.3448570">
    <ele>4071.7</ele>
    <time>2026-06-22T07:38:08Z</time>
   </trkpt>
   <trkpt lat="-3.1020910" lon="37.3448590">
    <ele>4071.8</ele>
    <time>2026-06-22T07:38:09Z</time>
   </trkpt>
   <trkpt lat="-3.1020910" lon="37.3448600">
    <ele>4071.8</ele>
    <time>2026-06-22T07:38:10Z</time>
   </trkpt>
   <trkpt lat="-3.1020850" lon="37.3448630">
    <ele>4072.0</ele>
    <time>2026-06-22T07:38:11Z</time>
   </trkpt>
   <trkpt lat="-3.1020860" lon="37.3448640">
    <ele>4072.0</ele>
    <time>2026-06-22T07:38:12Z</time>
   </trkpt>
   <trkpt lat="-3.1020820" lon="37.3448670">
    <ele>4072.1</ele>
    <time>2026-06-22T07:38:13Z</time>
   </trkpt>
   <trkpt lat="-3.1020790" lon="37.3448700">
    <ele>4072.1</ele>
    <time>2026-06-22T07:38:14Z</time>
   </trkpt>
   <trkpt lat="-3.1020800" lon="37.3448720">
    <ele>4072.2</ele>
    <time>2026-06-22T07:38:15Z</time>
   </trkpt>
   <trkpt lat="-3.1020760" lon="37.3448730">
    <ele>4072.3</ele>
    <time>2026-06-22T07:38:16Z</time>
   </trkpt>
   <trkpt lat="-3.1020750" lon="37.3448760">
    <ele>4072.3</ele>
    <time>2026-06-22T07:38:17Z</time>
   </trkpt>
   <trkpt lat="-3.1020710" lon="37.3448770">
    <ele>4072.4</ele>
    <time>2026-06-22T07:38:18Z</time>
   </trkpt>
   <trkpt lat="-3.1020680" lon="37.3448790">
    <ele>4072.5</ele>
    <time>2026-06-22T07:38:19Z</time>
   </trkpt>
   <trkpt lat="-3.1020660" lon="37.3448830">
    <ele>4072.5</ele>
    <time>2026-06-22T07:38:20Z</time>
   </trkpt>
   <trkpt lat="-3.1020630" lon="37.3448840">
    <ele>4072.6</ele>
    <time>2026-06-22T07:38:21Z</time>
   </trkpt>
   <trkpt lat="-3.1020580" lon="37.3448880">
    <ele>4072.7</ele>
    <time>2026-06-22T07:38:22Z</time>
   </trkpt>
   <trkpt lat="-3.1020560" lon="37.3448900">
    <ele>4072.8</ele>
    <time>2026-06-22T07:38:23Z</time>
   </trkpt>
   <trkpt lat="-3.1020540" lon="37.3448900">
    <ele>4072.8</ele>
    <time>2026-06-22T07:38:24Z</time>
   </trkpt>
   <trkpt lat="-3.1020500" lon="37.3448950">
    <ele>4072.9</ele>
    <time>2026-06-22T07:38:25Z</time>
   </trkpt>
   <trkpt lat="-3.1020460" lon="37.3449020">
    <ele>4073.1</ele>
    <time>2026-06-22T07:38:26Z</time>
   </trkpt>
   <trkpt lat="-3.1020430" lon="37.3449050">
    <ele>4073.1</ele>
    <time>2026-06-22T07:38:27Z</time>
   </trkpt>
   <trkpt lat="-3.1020420" lon="37.3449050">
    <ele>4073.2</ele>
    <time>2026-06-22T07:38:28Z</time>
   </trkpt>
   <trkpt lat="-3.1020370" lon="37.3449100">
    <ele>4073.3</ele>
    <time>2026-06-22T07:38:29Z</time>
   </trkpt>
   <trkpt lat="-3.1020360" lon="37.3449090">
    <ele>4073.3</ele>
    <time>2026-06-22T07:38:30Z</time>
   </trkpt>
   <trkpt lat="-3.1020340" lon="37.3449110">
    <ele>4073.4</ele>
    <time>2026-06-22T07:38:31Z</time>
   </trkpt>
   <trkpt lat="-3.1020320" lon="37.3449140">
    <ele>4073.4</ele>
    <time>2026-06-22T07:38:32Z</time>
   </trkpt>
   <trkpt lat="-3.1020270" lon="37.3449150">
    <ele>4073.5</ele>
    <time>2026-06-22T07:38:33Z</time>
   </trkpt>
   <trkpt lat="-3.1020260" lon="37.3449160">
    <ele>4073.5</ele>
    <time>2026-06-22T07:38:34Z</time>
   </trkpt>
   <trkpt lat="-3.1020240" lon="37.3449190">
    <ele>4073.6</ele>
    <time>2026-06-22T07:38:35Z</time>
   </trkpt>
   <trkpt lat="-3.1020200" lon="37.3449230">
    <ele>4073.7</ele>
    <time>2026-06-22T07:38:36Z</time>
   </trkpt>
   <trkpt lat="-3.1020180" lon="37.3449240">
    <ele>4073.8</ele>
    <time>2026-06-22T07:38:37Z</time>
   </trkpt>
   <trkpt lat="-3.1020160" lon="37.3449250">
    <ele>4073.8</ele>
    <time>2026-06-22T07:38:38Z</time>
   </trkpt>
   <trkpt lat="-3.1020130" lon="37.3449280">
    <ele>4073.9</ele>
    <time>2026-06-22T07:38:39Z</time>
   </trkpt>
   <trkpt lat="-3.1020130" lon="37.3449290">
    <ele>4073.9</ele>
    <time>2026-06-22T07:38:40Z</time>
   </trkpt>
   <trkpt lat="-3.1020080" lon="37.3449330">
    <ele>4074.0</ele>
    <time>2026-06-22T07:38:41Z</time>
   </trkpt>
   <trkpt lat="-3.1020050" lon="37.3449350">
    <ele>4074.1</ele>
    <time>2026-06-22T07:38:42Z</time>
   </trkpt>
   <trkpt lat="-3.1020040" lon="37.3449380">
    <ele>4074.1</ele>
    <time>2026-06-22T07:38:43Z</time>
   </trkpt>
   <trkpt lat="-3.1020000" lon="37.3449400">
    <ele>4074.2</ele>
    <time>2026-06-22T07:38:44Z</time>
   </trkpt>
   <trkpt lat="-3.1019970" lon="37.3449420">
    <ele>4074.3</ele>
    <time>2026-06-22T07:38:45Z</time>
   </trkpt>
   <trkpt lat="-3.1019960" lon="37.3449450">
    <ele>4074.3</ele>
    <time>2026-06-22T07:38:46Z</time>
   </trkpt>
   <trkpt lat="-3.1019920" lon="37.3449480">
    <ele>4074.4</ele>
    <time>2026-06-22T07:38:47Z</time>
   </trkpt>
   <trkpt lat="-3.1019930" lon="37.3449520">
    <ele>4074.5</ele>
    <time>2026-06-22T07:38:48Z</time>
   </trkpt>
   <trkpt lat="-3.1019890" lon="37.3449550">
    <ele>4074.6</ele>
    <time>2026-06-22T07:38:49Z</time>
   </trkpt>
   <trkpt lat="-3.1019850" lon="37.3449600">
    <ele>4074.7</ele>
    <time>2026-06-22T07:38:50Z</time>
   </trkpt>
   <trkpt lat="-3.1019850" lon="37.3449600">
    <ele>4074.7</ele>
    <time>2026-06-22T07:38:51Z</time>
   </trkpt>
   <trkpt lat="-3.1019820" lon="37.3449650">
    <ele>4074.8</ele>
    <time>2026-06-22T07:38:52Z</time>
   </trkpt>
   <trkpt lat="-3.1019820" lon="37.3449670">
    <ele>4074.9</ele>
    <time>2026-06-22T07:38:53Z</time>
   </trkpt>
   <trkpt lat="-3.1019810" lon="37.3449720">
    <ele>4074.9</ele>
    <time>2026-06-22T07:38:54Z</time>
   </trkpt>
   <trkpt lat="-3.1019790" lon="37.3449750">
    <ele>4075.0</ele>
    <time>2026-06-22T07:38:55Z</time>
   </trkpt>
   <trkpt lat="-3.1019770" lon="37.3449790">
    <ele>4075.1</ele>
    <time>2026-06-22T07:38:56Z</time>
   </trkpt>
   <trkpt lat="-3.1019760" lon="37.3449790">
    <ele>4075.1</ele>
    <time>2026-06-22T07:38:57Z</time>
   </trkpt>
   <trkpt lat="-3.1019730" lon="37.3449840">
    <ele>4075.2</ele>
    <time>2026-06-22T07:38:58Z</time>
   </trkpt>
   <trkpt lat="-3.1019740" lon="37.3449900">
    <ele>4075.3</ele>
    <time>2026-06-22T07:38:59Z</time>
   </trkpt>
   <trkpt lat="-3.1019730" lon="37.3449940">
    <ele>4075.4</ele>
    <time>2026-06-22T07:39:00Z</time>
   </trkpt>
   <trkpt lat="-3.1019720" lon="37.3450000">
    <ele>4075.5</ele>
    <time>2026-06-22T07:39:01Z</time>
   </trkpt>
   <trkpt lat="-3.1019730" lon="37.3450040">
    <ele>4075.6</ele>
    <time>2026-06-22T07:39:02Z</time>
   </trkpt>
   <trkpt lat="-3.1019740" lon="37.3450110">
    <ele>4075.7</ele>
    <time>2026-06-22T07:39:03Z</time>
   </trkpt>
   <trkpt lat="-3.1019740" lon="37.3450130">
    <ele>4075.8</ele>
    <time>2026-06-22T07:39:04Z</time>
   </trkpt>
   <trkpt lat="-3.1019770" lon="37.3450180">
    <ele>4075.9</ele>
    <time>2026-06-22T07:39:05Z</time>
   </trkpt>
   <trkpt lat="-3.1019780" lon="37.3450240">
    <ele>4076.0</ele>
    <time>2026-06-22T07:39:06Z</time>
   </trkpt>
   <trkpt lat="-3.1019770" lon="37.3450250">
    <ele>4076.0</ele>
    <time>2026-06-22T07:39:07Z</time>
   </trkpt>
   <trkpt lat="-3.1019770" lon="37.3450300">
    <ele>4076.1</ele>
    <time>2026-06-22T07:39:08Z</time>
   </trkpt>
   <trkpt lat="-3.1019780" lon="37.3450320">
    <ele>4076.2</ele>
    <time>2026-06-22T07:39:09Z</time>
   </trkpt>
   <trkpt lat="-3.1019780" lon="37.3450380">
    <ele>4076.3</ele>
    <time>2026-06-22T07:39:10Z</time>
   </trkpt>
   <trkpt lat="-3.1019750" lon="37.3450400">
    <ele>4076.4</ele>
    <time>2026-06-22T07:39:11Z</time>
   </trkpt>
   <trkpt lat="-3.1019760" lon="37.3450440">
    <ele>4076.4</ele>
    <time>2026-06-22T07:39:12Z</time>
   </trkpt>
   <trkpt lat="-3.1019750" lon="37.3450490">
    <ele>4076.5</ele>
    <time>2026-06-22T07:39:13Z</time>
   </trkpt>
   <trkpt lat="-3.1019750" lon="37.3450520">
    <ele>4076.6</ele>
    <time>2026-06-22T07:39:14Z</time>
   </trkpt>
   <trkpt lat="-3.1019750" lon="37.3450560">
    <ele>4076.7</ele>
    <time>2026-06-22T07:39:15Z</time>
   </trkpt>
   <trkpt lat="-3.1019750" lon="37.3450590">
    <ele>4076.7</ele>
    <time>2026-06-22T07:39:16Z</time>
   </trkpt>
   <trkpt lat="-3.1019750" lon="37.3450640">
    <ele>4076.8</ele>
    <time>2026-06-22T07:39:17Z</time>
   </trkpt>
   <trkpt lat="-3.1019780" lon="37.3450660">
    <ele>4076.9</ele>
    <time>2026-06-22T07:39:18Z</time>
   </trkpt>
   <trkpt lat="-3.1019770" lon="37.3450700">
    <ele>4077.0</ele>
    <time>2026-06-22T07:39:19Z</time>
   </trkpt>
   <trkpt lat="-3.1019780" lon="37.3450740">
    <ele>4077.1</ele>
    <time>2026-06-22T07:39:20Z</time>
   </trkpt>
   <trkpt lat="-3.1019780" lon="37.3450770">
    <ele>4077.1</ele>
    <time>2026-06-22T07:39:21Z</time>
   </trkpt>
   <trkpt lat="-3.1019780" lon="37.3450810">
    <ele>4077.2</ele>
    <time>2026-06-22T07:39:22Z</time>
   </trkpt>
   <trkpt lat="-3.1019780" lon="37.3450850">
    <ele>4077.3</ele>
    <time>2026-06-22T07:39:23Z</time>
   </trkpt>
   <trkpt lat="-3.1019780" lon="37.3450890">
    <ele>4077.3</ele>
    <time>2026-06-22T07:39:24Z</time>
   </trkpt>
   <trkpt lat="-3.1019780" lon="37.3450930">
    <ele>4077.4</ele>
    <time>2026-06-22T07:39:25Z</time>
   </trkpt>
   <trkpt lat="-3.1019780" lon="37.3450960">
    <ele>4077.5</ele>
    <time>2026-06-22T07:39:26Z</time>
   </trkpt>
   <trkpt lat="-3.1019790" lon="37.3450980">
    <ele>4077.5</ele>
    <time>2026-06-22T07:39:27Z</time>
   </trkpt>
   <trkpt lat="-3.1019800" lon="37.3451020">
    <ele>4077.6</ele>
    <time>2026-06-22T07:39:28Z</time>
   </trkpt>
   <trkpt lat="-3.1019810" lon="37.3451050">
    <ele>4077.7</ele>
    <time>2026-06-22T07:39:29Z</time>
   </trkpt>
   <trkpt lat="-3.1019820" lon="37.3451070">
    <ele>4077.7</ele>
    <time>2026-06-22T07:39:30Z</time>
   </trkpt>
   <trkpt lat="-3.1019810" lon="37.3451100">
    <ele>4077.8</ele>
    <time>2026-06-22T07:39:31Z</time>
   </trkpt>
   <trkpt lat="-3.1019830" lon="37.3451150">
    <ele>4077.9</ele>
    <time>2026-06-22T07:39:32Z</time>
   </trkpt>
   <trkpt lat="-3.1019840" lon="37.3451180">
    <ele>4077.9</ele>
    <time>2026-06-22T07:39:33Z</time>
   </trkpt>
   <trkpt lat="-3.1019850" lon="37.3451220">
    <ele>4078.0</ele>
    <time>2026-06-22T07:39:34Z</time>
   </trkpt>
   <trkpt lat="-3.1019860" lon="37.3451250">
    <ele>4078.1</ele>
    <time>2026-06-22T07:39:35Z</time>
   </trkpt>
   <trkpt lat="-3.1019870" lon="37.3451280">
    <ele>4078.1</ele>
    <time>2026-06-22T07:39:36Z</time>
   </trkpt>
   <trkpt lat="-3.1019880" lon="37.3451310">
    <ele>4078.2</ele>
    <time>2026-06-22T07:39:37Z</time>
   </trkpt>
   <trkpt lat="-3.1019910" lon="37.3451320">
    <ele>4078.3</ele>
    <time>2026-06-22T07:39:38Z</time>
   </trkpt>
   <trkpt lat="-3.1019960" lon="37.3451360">
    <ele>4078.4</ele>
    <time>2026-06-22T07:39:39Z</time>
   </trkpt>
   <trkpt lat="-3.1019970" lon="37.3451360">
    <ele>4078.4</ele>
    <time>2026-06-22T07:39:40Z</time>
   </trkpt>
   <trkpt lat="-3.1020000" lon="37.3451360">
    <ele>4078.5</ele>
    <time>2026-06-22T07:39:41Z</time>
   </trkpt>
   <trkpt lat="-3.1020030" lon="37.3451410">
    <ele>4078.6</ele>
    <time>2026-06-22T07:39:42Z</time>
   </trkpt>
   <trkpt lat="-3.1020040" lon="37.3451440">
    <ele>4078.6</ele>
    <time>2026-06-22T07:39:43Z</time>
   </trkpt>
   <trkpt lat="-3.1020030" lon="37.3451470">
    <ele>4078.7</ele>
    <time>2026-06-22T07:39:44Z</time>
   </trkpt>
   <trkpt lat="-3.1020040" lon="37.3451510">
    <ele>4078.8</ele>
    <time>2026-06-22T07:39:45Z</time>
   </trkpt>
   <trkpt lat="-3.1020060" lon="37.3451550">
    <ele>4078.9</ele>
    <time>2026-06-22T07:39:46Z</time>
   </trkpt>
   <trkpt lat="-3.1020060" lon="37.3451580">
    <ele>4078.9</ele>
    <time>2026-06-22T07:39:47Z</time>
   </trkpt>
   <trkpt lat="-3.1020090" lon="37.3451610">
    <ele>4079.0</ele>
    <time>2026-06-22T07:39:48Z</time>
   </trkpt>
   <trkpt lat="-3.1020090" lon="37.3451600">
    <ele>4079.0</ele>
    <time>2026-06-22T07:39:49Z</time>
   </trkpt>
   <trkpt lat="-3.1020150" lon="37.3451630">
    <ele>4079.1</ele>
    <time>2026-06-22T07:39:50Z</time>
   </trkpt>
   <trkpt lat="-3.1020180" lon="37.3451630">
    <ele>4079.2</ele>
    <time>2026-06-22T07:39:51Z</time>
   </trkpt>
   <trkpt lat="-3.1020210" lon="37.3451650">
    <ele>4079.3</ele>
    <time>2026-06-22T07:39:52Z</time>
   </trkpt>
   <trkpt lat="-3.1020220" lon="37.3451680">
    <ele>4079.3</ele>
    <time>2026-06-22T07:39:53Z</time>
   </trkpt>
   <trkpt lat="-3.1020260" lon="37.3451720">
    <ele>4079.4</ele>
    <time>2026-06-22T07:39:54Z</time>
   </trkpt>
   <trkpt lat="-3.1020280" lon="37.3451750">
    <ele>4079.5</ele>
    <time>2026-06-22T07:39:55Z</time>
   </trkpt>
   <trkpt lat="-3.1020300" lon="37.3451760">
    <ele>4079.6</ele>
    <time>2026-06-22T07:39:56Z</time>
   </trkpt>
   <trkpt lat="-3.1020320" lon="37.3451790">
    <ele>4079.6</ele>
    <time>2026-06-22T07:39:57Z</time>
   </trkpt>
   <trkpt lat="-3.1020360" lon="37.3451820">
    <ele>4079.7</ele>
    <time>2026-06-22T07:39:58Z</time>
   </trkpt>
   <trkpt lat="-3.1020390" lon="37.3451810">
    <ele>4079.8</ele>
    <time>2026-06-22T07:39:59Z</time>
   </trkpt>
   <trkpt lat="-3.1020430" lon="37.3451810">
    <ele>4079.9</ele>
    <time>2026-06-22T07:40:00Z</time>
   </trkpt>
   <trkpt lat="-3.1020470" lon="37.3451840">
    <ele>4080.0</ele>
    <time>2026-06-22T07:40:01Z</time>
   </trkpt>
   <trkpt lat="-3.1020510" lon="37.3451870">
    <ele>4080.1</ele>
    <time>2026-06-22T07:40:02Z</time>
   </trkpt>
   <trkpt lat="-3.1020540" lon="37.3451880">
    <ele>4080.1</ele>
    <time>2026-06-22T07:40:03Z</time>
   </trkpt>
   <trkpt lat="-3.1020570" lon="37.3451920">
    <ele>4080.2</ele>
    <time>2026-06-22T07:40:04Z</time>
   </trkpt>
   <trkpt lat="-3.1020600" lon="37.3451940">
    <ele>4080.3</ele>
    <time>2026-06-22T07:40:05Z</time>
   </trkpt>
   <trkpt lat="-3.1020630" lon="37.3451980">
    <ele>4080.4</ele>
    <time>2026-06-22T07:40:06Z</time>
   </trkpt>
   <trkpt lat="-3.1020670" lon="37.3451990">
    <ele>4080.5</ele>
    <time>2026-06-22T07:40:07Z</time>
   </trkpt>
   <trkpt lat="-3.1020680" lon="37.3452010">
    <ele>4080.5</ele>
    <time>2026-06-22T07:40:08Z</time>
   </trkpt>
   <trkpt lat="-3.1020710" lon="37.3452050">
    <ele>4080.6</ele>
    <time>2026-06-22T07:40:09Z</time>
   </trkpt>
   <trkpt lat="-3.1020730" lon="37.3452090">
    <ele>4080.7</ele>
    <time>2026-06-22T07:40:10Z</time>
   </trkpt>
   <trkpt lat="-3.1020760" lon="37.3452130">
    <ele>4080.8</ele>
    <time>2026-06-22T07:40:11Z</time>
   </trkpt>
   <trkpt lat="-3.1020780" lon="37.3452150">
    <ele>4080.8</ele>
    <time>2026-06-22T07:40:13Z</time>
   </trkpt>
   <trkpt lat="-3.1020800" lon="37.3452180">
    <ele>4080.9</ele>
    <time>2026-06-22T07:40:14Z</time>
   </trkpt>
   <trkpt lat="-3.1020820" lon="37.3452220">
    <ele>4081.0</ele>
    <time>2026-06-22T07:40:15Z</time>
   </trkpt>
   <trkpt lat="-3.1020840" lon="37.3452250">
    <ele>4081.1</ele>
    <time>2026-06-22T07:40:16Z</time>
   </trkpt>
   <trkpt lat="-3.1020840" lon="37.3452260">
    <ele>4081.1</ele>
    <time>2026-06-22T07:40:17Z</time>
   </trkpt>
   <trkpt lat="-3.1020850" lon="37.3452310">
    <ele>4081.2</ele>
    <time>2026-06-22T07:40:18Z</time>
   </trkpt>
   <trkpt lat="-3.1020860" lon="37.3452340">
    <ele>4081.2</ele>
    <time>2026-06-22T07:40:19Z</time>
   </trkpt>
   <trkpt lat="-3.1020860" lon="37.3452380">
    <ele>4081.3</ele>
    <time>2026-06-22T07:40:20Z</time>
   </trkpt>
   <trkpt lat="-3.1020850" lon="37.3452430">
    <ele>4081.4</ele>
    <time>2026-06-22T07:40:21Z</time>
   </trkpt>
   <trkpt lat="-3.1020910" lon="37.3452440">
    <ele>4081.5</ele>
    <time>2026-06-22T07:40:22Z</time>
   </trkpt>
   <trkpt lat="-3.1020950" lon="37.3452470">
    <ele>4081.6</ele>
    <time>2026-06-22T07:40:23Z</time>
   </trkpt>
   <trkpt lat="-3.1020920" lon="37.3452460">
    <ele>4081.7</ele>
    <time>2026-06-22T07:40:24Z</time>
   </trkpt>
   <trkpt lat="-3.1020990" lon="37.3452500">
    <ele>4081.8</ele>
    <time>2026-06-22T07:40:25Z</time>
   </trkpt>
   <trkpt lat="-3.1021020" lon="37.3452530">
    <ele>4081.9</ele>
    <time>2026-06-22T07:40:26Z</time>
   </trkpt>
   <trkpt lat="-3.1021070" lon="37.3452540">
    <ele>4082.0</ele>
    <time>2026-06-22T07:40:27Z</time>
   </trkpt>
   <trkpt lat="-3.1021120" lon="37.3452570">
    <ele>4082.1</ele>
    <time>2026-06-22T07:40:28Z</time>
   </trkpt>
   <trkpt lat="-3.1021150" lon="37.3452580">
    <ele>4082.2</ele>
    <time>2026-06-22T07:40:29Z</time>
   </trkpt>
   <trkpt lat="-3.1021180" lon="37.3452590">
    <ele>4082.3</ele>
    <time>2026-06-22T07:40:30Z</time>
   </trkpt>
   <trkpt lat="-3.1021200" lon="37.3452640">
    <ele>4082.4</ele>
    <time>2026-06-22T07:40:31Z</time>
   </trkpt>
   <trkpt lat="-3.1021250" lon="37.3452660">
    <ele>4082.5</ele>
    <time>2026-06-22T07:40:32Z</time>
   </trkpt>
   <trkpt lat="-3.1021280" lon="37.3452670">
    <ele>4082.5</ele>
    <time>2026-06-22T07:40:33Z</time>
   </trkpt>
   <trkpt lat="-3.1021300" lon="37.3452690">
    <ele>4082.6</ele>
    <time>2026-06-22T07:40:34Z</time>
   </trkpt>
   <trkpt lat="-3.1021340" lon="37.3452720">
    <ele>4082.7</ele>
    <time>2026-06-22T07:40:35Z</time>
   </trkpt>
   <trkpt lat="-3.1021360" lon="37.3452760">
    <ele>4082.8</ele>
    <time>2026-06-22T07:40:36Z</time>
   </trkpt>
   <trkpt lat="-3.1021380" lon="37.3452790">
    <ele>4082.8</ele>
    <time>2026-06-22T07:40:37Z</time>
   </trkpt>
   <trkpt lat="-3.1021390" lon="37.3452800">
    <ele>4082.9</ele>
    <time>2026-06-22T07:40:38Z</time>
   </trkpt>
   <trkpt lat="-3.1021450" lon="37.3452870">
    <ele>4083.0</ele>
    <time>2026-06-22T07:40:39Z</time>
   </trkpt>
   <trkpt lat="-3.1021490" lon="37.3452910">
    <ele>4083.1</ele>
    <time>2026-06-22T07:40:40Z</time>
   </trkpt>
   <trkpt lat="-3.1021470" lon="37.3452930">
    <ele>4083.2</ele>
    <time>2026-06-22T07:40:41Z</time>
   </trkpt>
   <trkpt lat="-3.1021490" lon="37.3452970">
    <ele>4083.3</ele>
    <time>2026-06-22T07:40:42Z</time>
   </trkpt>
   <trkpt lat="-3.1021490" lon="37.3453010">
    <ele>4083.3</ele>
    <time>2026-06-22T07:40:43Z</time>
   </trkpt>
   <trkpt lat="-3.1021490" lon="37.3453040">
    <ele>4083.4</ele>
    <time>2026-06-22T07:40:44Z</time>
   </trkpt>
   <trkpt lat="-3.1021490" lon="37.3453090">
    <ele>4083.5</ele>
    <time>2026-06-22T07:40:45Z</time>
   </trkpt>
   <trkpt lat="-3.1021490" lon="37.3453110">
    <ele>4083.5</ele>
    <time>2026-06-22T07:40:46Z</time>
   </trkpt>
   <trkpt lat="-3.1021480" lon="37.3453140">
    <ele>4083.6</ele>
    <time>2026-06-22T07:40:47Z</time>
   </trkpt>
   <trkpt lat="-3.1021500" lon="37.3453160">
    <ele>4083.6</ele>
    <time>2026-06-22T07:40:48Z</time>
   </trkpt>
   <trkpt lat="-3.1021510" lon="37.3453190">
    <ele>4083.7</ele>
    <time>2026-06-22T07:40:49Z</time>
   </trkpt>
   <trkpt lat="-3.1021530" lon="37.3453240">
    <ele>4083.8</ele>
    <time>2026-06-22T07:40:50Z</time>
   </trkpt>
   <trkpt lat="-3.1021550" lon="37.3453270">
    <ele>4083.9</ele>
    <time>2026-06-22T07:40:51Z</time>
   </trkpt>
   <trkpt lat="-3.1021540" lon="37.3453300">
    <ele>4083.9</ele>
    <time>2026-06-22T07:40:52Z</time>
   </trkpt>
   <trkpt lat="-3.1021580" lon="37.3453360">
    <ele>4084.1</ele>
    <time>2026-06-22T07:40:53Z</time>
   </trkpt>
   <trkpt lat="-3.1021610" lon="37.3453370">
    <ele>4084.1</ele>
    <time>2026-06-22T07:40:54Z</time>
   </trkpt>
   <trkpt lat="-3.1021630" lon="37.3453410">
    <ele>4084.2</ele>
    <time>2026-06-22T07:40:55Z</time>
   </trkpt>
   <trkpt lat="-3.1021660" lon="37.3453450">
    <ele>4084.3</ele>
    <time>2026-06-22T07:40:56Z</time>
   </trkpt>
   <trkpt lat="-3.1021670" lon="37.3453470">
    <ele>4084.3</ele>
    <time>2026-06-22T07:40:57Z</time>
   </trkpt>
   <trkpt lat="-3.1021710" lon="37.3453530">
    <ele>4084.5</ele>
    <time>2026-06-22T07:40:58Z</time>
   </trkpt>
   <trkpt lat="-3.1021750" lon="37.3453590">
    <ele>4084.6</ele>
    <time>2026-06-22T07:40:59Z</time>
   </trkpt>
   <trkpt lat="-3.1021780" lon="37.3453640">
    <ele>4084.7</ele>
    <time>2026-06-22T07:41:00Z</time>
   </trkpt>
   <trkpt lat="-3.1021740" lon="37.3453680">
    <ele>4084.8</ele>
    <time>2026-06-22T07:41:01Z</time>
   </trkpt>
   <trkpt lat="-3.1021760" lon="37.3453730">
    <ele>4084.9</ele>
    <time>2026-06-22T07:41:02Z</time>
   </trkpt>
   <trkpt lat="-3.1021780" lon="37.3453790">
    <ele>4085.0</ele>
    <time>2026-06-22T07:41:03Z</time>
   </trkpt>
   <trkpt lat="-3.1021810" lon="37.3453840">
    <ele>4085.1</ele>
    <time>2026-06-22T07:41:04Z</time>
   </trkpt>
   <trkpt lat="-3.1021830" lon="37.3453900">
    <ele>4085.3</ele>
    <time>2026-06-22T07:41:05Z</time>
   </trkpt>
   <trkpt lat="-3.1021810" lon="37.3453950">
    <ele>4085.4</ele>
    <time>2026-06-22T07:41:06Z</time>
   </trkpt>
   <trkpt lat="-3.1021760" lon="37.3453980">
    <ele>4085.5</ele>
    <time>2026-06-22T07:41:07Z</time>
   </trkpt>
   <trkpt lat="-3.1021700" lon="37.3454040">
    <ele>4085.6</ele>
    <time>2026-06-22T07:41:08Z</time>
   </trkpt>
   <trkpt lat="-3.1021650" lon="37.3454070">
    <ele>4085.7</ele>
    <time>2026-06-22T07:41:09Z</time>
   </trkpt>
   <trkpt lat="-3.1021640" lon="37.3454120">
    <ele>4085.8</ele>
    <time>2026-06-22T07:41:10Z</time>
   </trkpt>
   <trkpt lat="-3.1021640" lon="37.3454160">
    <ele>4085.9</ele>
    <time>2026-06-22T07:41:11Z</time>
   </trkpt>
   <trkpt lat="-3.1021670" lon="37.3454210">
    <ele>4086.0</ele>
    <time>2026-06-22T07:41:12Z</time>
   </trkpt>
   <trkpt lat="-3.1021680" lon="37.3454270">
    <ele>4086.1</ele>
    <time>2026-06-22T07:41:13Z</time>
   </trkpt>
   <trkpt lat="-3.1021710" lon="37.3454320">
    <ele>4086.2</ele>
    <time>2026-06-22T07:41:14Z</time>
   </trkpt>
   <trkpt lat="-3.1021700" lon="37.3454340">
    <ele>4086.2</ele>
    <time>2026-06-22T07:41:15Z</time>
   </trkpt>
   <trkpt lat="-3.1021720" lon="37.3454410">
    <ele>4086.4</ele>
    <time>2026-06-22T07:41:16Z</time>
   </trkpt>
   <trkpt lat="-3.1021730" lon="37.3454470">
    <ele>4086.5</ele>
    <time>2026-06-22T07:41:17Z</time>
   </trkpt>
   <trkpt lat="-3.1021740" lon="37.3454530">
    <ele>4086.6</ele>
    <time>2026-06-22T07:41:18Z</time>
   </trkpt>
   <trkpt lat="-3.1021750" lon="37.3454580">
    <ele>4086.7</ele>
    <time>2026-06-22T07:41:19Z</time>
   </trkpt>
   <trkpt lat="-3.1021740" lon="37.3454630">
    <ele>4086.8</ele>
    <time>2026-06-22T07:41:20Z</time>
   </trkpt>
   <trkpt lat="-3.1021670" lon="37.3454670">
    <ele>4086.9</ele>
    <time>2026-06-22T07:41:21Z</time>
   </trkpt>
   <trkpt lat="-3.1021690" lon="37.3454710">
    <ele>4087.0</ele>
    <time>2026-06-22T07:41:22Z</time>
   </trkpt>
   <trkpt lat="-3.1021700" lon="37.3454770">
    <ele>4087.1</ele>
    <time>2026-06-22T07:41:23Z</time>
   </trkpt>
   <trkpt lat="-3.1021690" lon="37.3454820">
    <ele>4087.2</ele>
    <time>2026-06-22T07:41:24Z</time>
   </trkpt>
   <trkpt lat="-3.1021700" lon="37.3454870">
    <ele>4087.3</ele>
    <time>2026-06-22T07:41:25Z</time>
   </trkpt>
   <trkpt lat="-3.1021710" lon="37.3454930">
    <ele>4087.4</ele>
    <time>2026-06-22T07:41:26Z</time>
   </trkpt>
   <trkpt lat="-3.1021720" lon="37.3454990">
    <ele>4087.5</ele>
    <time>2026-06-22T07:41:27Z</time>
   </trkpt>
   <trkpt lat="-3.1021720" lon="37.3455010">
    <ele>4087.5</ele>
    <time>2026-06-22T07:41:28Z</time>
   </trkpt>
   <trkpt lat="-3.1021730" lon="37.3455090">
    <ele>4087.7</ele>
    <time>2026-06-22T07:41:29Z</time>
   </trkpt>
   <trkpt lat="-3.1021710" lon="37.3455140">
    <ele>4087.8</ele>
    <time>2026-06-22T07:41:30Z</time>
   </trkpt>
   <trkpt lat="-3.1021720" lon="37.3455190">
    <ele>4087.9</ele>
    <time>2026-06-22T07:41:31Z</time>
   </trkpt>
   <trkpt lat="-3.1021730" lon="37.3455250">
    <ele>4088.0</ele>
    <time>2026-06-22T07:41:32Z</time>
   </trkpt>
   <trkpt lat="-3.1021740" lon="37.3455300">
    <ele>4088.1</ele>
    <time>2026-06-22T07:41:33Z</time>
   </trkpt>
   <trkpt lat="-3.1021770" lon="37.3455370">
    <ele>4088.2</ele>
    <time>2026-06-22T07:41:34Z</time>
   </trkpt>
   <trkpt lat="-3.1021790" lon="37.3455390">
    <ele>4088.3</ele>
    <time>2026-06-22T07:41:35Z</time>
   </trkpt>
   <trkpt lat="-3.1021820" lon="37.3455460">
    <ele>4088.4</ele>
    <time>2026-06-22T07:41:36Z</time>
   </trkpt>
   <trkpt lat="-3.1021810" lon="37.3455480">
    <ele>4088.4</ele>
    <time>2026-06-22T07:41:37Z</time>
   </trkpt>
   <trkpt lat="-3.1021830" lon="37.3455580">
    <ele>4088.6</ele>
    <time>2026-06-22T07:41:38Z</time>
   </trkpt>
   <trkpt lat="-3.1021860" lon="37.3455630">
    <ele>4088.7</ele>
    <time>2026-06-22T07:41:39Z</time>
   </trkpt>
   <trkpt lat="-3.1021860" lon="37.3455660">
    <ele>4088.8</ele>
    <time>2026-06-22T07:41:40Z</time>
   </trkpt>
   <trkpt lat="-3.1021910" lon="37.3455750">
    <ele>4089.0</ele>
    <time>2026-06-22T07:41:41Z</time>
   </trkpt>
   <trkpt lat="-3.1021920" lon="37.3455830">
    <ele>4089.1</ele>
    <time>2026-06-22T07:41:42Z</time>
   </trkpt>
   <trkpt lat="-3.1021940" lon="37.3455900">
    <ele>4089.2</ele>
    <time>2026-06-22T07:41:43Z</time>
   </trkpt>
   <trkpt lat="-3.1021990" lon="37.3455970">
    <ele>4089.4</ele>
    <time>2026-06-22T07:41:44Z</time>
   </trkpt>
   <trkpt lat="-3.1022030" lon="37.3456030">
    <ele>4089.5</ele>
    <time>2026-06-22T07:41:45Z</time>
   </trkpt>
   <trkpt lat="-3.1022050" lon="37.3456070">
    <ele>4089.6</ele>
    <time>2026-06-22T07:41:46Z</time>
   </trkpt>
   <trkpt lat="-3.1022080" lon="37.3456120">
    <ele>4089.7</ele>
    <time>2026-06-22T07:41:47Z</time>
   </trkpt>
   <trkpt lat="-3.1022100" lon="37.3456180">
    <ele>4089.8</ele>
    <time>2026-06-22T07:41:48Z</time>
   </trkpt>
   <trkpt lat="-3.1022130" lon="37.3456250">
    <ele>4089.9</ele>
    <time>2026-06-22T07:41:49Z</time>
   </trkpt>
   <trkpt lat="-3.1022130" lon="37.3456300">
    <ele>4090.0</ele>
    <time>2026-06-22T07:41:50Z</time>
   </trkpt>
   <trkpt lat="-3.1022150" lon="37.3456370">
    <ele>4090.1</ele>
    <time>2026-06-22T07:41:51Z</time>
   </trkpt>
   <trkpt lat="-3.1022160" lon="37.3456430">
    <ele>4090.2</ele>
    <time>2026-06-22T07:41:52Z</time>
   </trkpt>
   <trkpt lat="-3.1022160" lon="37.3456490">
    <ele>4090.3</ele>
    <time>2026-06-22T07:41:53Z</time>
   </trkpt>
   <trkpt lat="-3.1022160" lon="37.3456530">
    <ele>4090.4</ele>
    <time>2026-06-22T07:41:54Z</time>
   </trkpt>
   <trkpt lat="-3.1022170" lon="37.3456620">
    <ele>4090.5</ele>
    <time>2026-06-22T07:41:55Z</time>
   </trkpt>
   <trkpt lat="-3.1022170" lon="37.3456690">
    <ele>4090.7</ele>
    <time>2026-06-22T07:41:56Z</time>
   </trkpt>
   <trkpt lat="-3.1022150" lon="37.3456720">
    <ele>4090.7</ele>
    <time>2026-06-22T07:41:57Z</time>
   </trkpt>
   <trkpt lat="-3.1022150" lon="37.3456790">
    <ele>4090.8</ele>
    <time>2026-06-22T07:41:58Z</time>
   </trkpt>
   <trkpt lat="-3.1022140" lon="37.3456870">
    <ele>4091.0</ele>
    <time>2026-06-22T07:41:59Z</time>
   </trkpt>
   <trkpt lat="-3.1022160" lon="37.3456930">
    <ele>4091.1</ele>
    <time>2026-06-22T07:42:00Z</time>
   </trkpt>
   <trkpt lat="-3.1022170" lon="37.3457000">
    <ele>4091.2</ele>
    <time>2026-06-22T07:42:01Z</time>
   </trkpt>
   <trkpt lat="-3.1022190" lon="37.3457080">
    <ele>4091.3</ele>
    <time>2026-06-22T07:42:02Z</time>
   </trkpt>
   <trkpt lat="-3.1022220" lon="37.3457140">
    <ele>4091.4</ele>
    <time>2026-06-22T07:42:03Z</time>
   </trkpt>
   <trkpt lat="-3.1022240" lon="37.3457200">
    <ele>4091.5</ele>
    <time>2026-06-22T07:42:04Z</time>
   </trkpt>
   <trkpt lat="-3.1022260" lon="37.3457250">
    <ele>4091.6</ele>
    <time>2026-06-22T07:42:05Z</time>
   </trkpt>
   <trkpt lat="-3.1022270" lon="37.3457300">
    <ele>4091.7</ele>
    <time>2026-06-22T07:42:06Z</time>
   </trkpt>
   <trkpt lat="-3.1022310" lon="37.3457380">
    <ele>4091.8</ele>
    <time>2026-06-22T07:42:07Z</time>
   </trkpt>
   <trkpt lat="-3.1022340" lon="37.3457400">
    <ele>4091.9</ele>
    <time>2026-06-22T07:42:08Z</time>
   </trkpt>
   <trkpt lat="-3.1022350" lon="37.3457490">
    <ele>4092.0</ele>
    <time>2026-06-22T07:42:09Z</time>
   </trkpt>
   <trkpt lat="-3.1022360" lon="37.3457550">
    <ele>4092.1</ele>
    <time>2026-06-22T07:42:10Z</time>
   </trkpt>
   <trkpt lat="-3.1022370" lon="37.3457590">
    <ele>4092.2</ele>
    <time>2026-06-22T07:42:11Z</time>
   </trkpt>
   <trkpt lat="-3.1022370" lon="37.3457660">
    <ele>4092.3</ele>
    <time>2026-06-22T07:42:12Z</time>
   </trkpt>
   <trkpt lat="-3.1022390" lon="37.3457720">
    <ele>4092.4</ele>
    <time>2026-06-22T07:42:13Z</time>
   </trkpt>
   <trkpt lat="-3.1022380" lon="37.3457760">
    <ele>4092.4</ele>
    <time>2026-06-22T07:42:14Z</time>
   </trkpt>
   <trkpt lat="-3.1022370" lon="37.3457830">
    <ele>4092.5</ele>
    <time>2026-06-22T07:42:15Z</time>
   </trkpt>
   <trkpt lat="-3.1022390" lon="37.3457880">
    <ele>4092.6</ele>
    <time>2026-06-22T07:42:16Z</time>
   </trkpt>
   <trkpt lat="-3.1022390" lon="37.3457950">
    <ele>4092.7</ele>
    <time>2026-06-22T07:42:17Z</time>
   </trkpt>
   <trkpt lat="-3.1022410" lon="37.3457990">
    <ele>4092.8</ele>
    <time>2026-06-22T07:42:19Z</time>
   </trkpt>
   <trkpt lat="-3.1022400" lon="37.3458060">
    <ele>4092.9</ele>
    <time>2026-06-22T07:42:20Z</time>
   </trkpt>
   <trkpt lat="-3.1022420" lon="37.3458080">
    <ele>4092.9</ele>
    <time>2026-06-22T07:42:21Z</time>
   </trkpt>
   <trkpt lat="-3.1022480" lon="37.3458120">
    <ele>4093.0</ele>
    <time>2026-06-22T07:42:22Z</time>
   </trkpt>
   <trkpt lat="-3.1022520" lon="37.3458140">
    <ele>4093.1</ele>
    <time>2026-06-22T07:42:23Z</time>
   </trkpt>
   <trkpt lat="-3.1022620" lon="37.3458170">
    <ele>4093.3</ele>
    <time>2026-06-22T07:42:24Z</time>
   </trkpt>
   <trkpt lat="-3.1022690" lon="37.3458210">
    <ele>4093.4</ele>
    <time>2026-06-22T07:42:25Z</time>
   </trkpt>
   <trkpt lat="-3.1022730" lon="37.3458210">
    <ele>4093.4</ele>
    <time>2026-06-22T07:42:26Z</time>
   </trkpt>
   <trkpt lat="-3.1022810" lon="37.3458210">
    <ele>4093.5</ele>
    <time>2026-06-22T07:42:27Z</time>
   </trkpt>
   <trkpt lat="-3.1022860" lon="37.3458240">
    <ele>4093.6</ele>
    <time>2026-06-22T07:42:28Z</time>
   </trkpt>
   <trkpt lat="-3.1022920" lon="37.3458280">
    <ele>4093.7</ele>
    <time>2026-06-22T07:42:29Z</time>
   </trkpt>
   <trkpt lat="-3.1022940" lon="37.3458330">
    <ele>4093.8</ele>
    <time>2026-06-22T07:42:30Z</time>
   </trkpt>
   <trkpt lat="-3.1022980" lon="37.3458370">
    <ele>4093.9</ele>
    <time>2026-06-22T07:42:31Z</time>
   </trkpt>
   <trkpt lat="-3.1023020" lon="37.3458410">
    <ele>4093.9</ele>
    <time>2026-06-22T07:42:32Z</time>
   </trkpt>
   <trkpt lat="-3.1023060" lon="37.3458420">
    <ele>4094.0</ele>
    <time>2026-06-22T07:42:33Z</time>
   </trkpt>
   <trkpt lat="-3.1023120" lon="37.3458450">
    <ele>4094.1</ele>
    <time>2026-06-22T07:42:34Z</time>
   </trkpt>
   <trkpt lat="-3.1023180" lon="37.3458470">
    <ele>4094.2</ele>
    <time>2026-06-22T07:42:35Z</time>
   </trkpt>
   <trkpt lat="-3.1023230" lon="37.3458490">
    <ele>4094.2</ele>
    <time>2026-06-22T07:42:36Z</time>
   </trkpt>
   <trkpt lat="-3.1023230" lon="37.3458480">
    <ele>4094.2</ele>
    <time>2026-06-22T07:42:37Z</time>
   </trkpt>
   <trkpt lat="-3.1023340" lon="37.3458540">
    <ele>4094.4</ele>
    <time>2026-06-22T07:42:38Z</time>
   </trkpt>
   <trkpt lat="-3.1023380" lon="37.3458570">
    <ele>4094.5</ele>
    <time>2026-06-22T07:42:39Z</time>
   </trkpt>
   <trkpt lat="-3.1023430" lon="37.3458700">
    <ele>4094.6</ele>
    <time>2026-06-22T07:42:40Z</time>
   </trkpt>
   <trkpt lat="-3.1023430" lon="37.3458770">
    <ele>4094.7</ele>
    <time>2026-06-22T07:42:41Z</time>
   </trkpt>
   <trkpt lat="-3.1023470" lon="37.3458840">
    <ele>4094.8</ele>
    <time>2026-06-22T07:42:42Z</time>
   </trkpt>
   <trkpt lat="-3.1023480" lon="37.3458880">
    <ele>4094.9</ele>
    <time>2026-06-22T07:42:43Z</time>
   </trkpt>
   <trkpt lat="-3.1023530" lon="37.3458950">
    <ele>4095.0</ele>
    <time>2026-06-22T07:42:44Z</time>
   </trkpt>
   <trkpt lat="-3.1023580" lon="37.3459010">
    <ele>4095.0</ele>
    <time>2026-06-22T07:42:45Z</time>
   </trkpt>
   <trkpt lat="-3.1023610" lon="37.3459050">
    <ele>4095.1</ele>
    <time>2026-06-22T07:42:46Z</time>
   </trkpt>
   <trkpt lat="-3.1023630" lon="37.3459100">
    <ele>4095.2</ele>
    <time>2026-06-22T07:42:47Z</time>
   </trkpt>
   <trkpt lat="-3.1023640" lon="37.3459150">
    <ele>4095.2</ele>
    <time>2026-06-22T07:42:48Z</time>
   </trkpt>
   <trkpt lat="-3.1023630" lon="37.3459200">
    <ele>4095.3</ele>
    <time>2026-06-22T07:42:49Z</time>
   </trkpt>
   <trkpt lat="-3.1023640" lon="37.3459290">
    <ele>4095.4</ele>
    <time>2026-06-22T07:42:50Z</time>
   </trkpt>
   <trkpt lat="-3.1023660" lon="37.3459340">
    <ele>4095.4</ele>
    <time>2026-06-22T07:42:51Z</time>
   </trkpt>
   <trkpt lat="-3.1023670" lon="37.3459380">
    <ele>4095.5</ele>
    <time>2026-06-22T07:42:52Z</time>
   </trkpt>
   <trkpt lat="-3.1023690" lon="37.3459430">
    <ele>4095.6</ele>
    <time>2026-06-22T07:42:53Z</time>
   </trkpt>
   <trkpt lat="-3.1023700" lon="37.3459490">
    <ele>4095.6</ele>
    <time>2026-06-22T07:42:54Z</time>
   </trkpt>
   <trkpt lat="-3.1023710" lon="37.3459530">
    <ele>4095.7</ele>
    <time>2026-06-22T07:42:55Z</time>
   </trkpt>
   <trkpt lat="-3.1023700" lon="37.3459590">
    <ele>4095.7</ele>
    <time>2026-06-22T07:42:56Z</time>
   </trkpt>
   <trkpt lat="-3.1023700" lon="37.3459610">
    <ele>4095.7</ele>
    <time>2026-06-22T07:42:57Z</time>
   </trkpt>
   <trkpt lat="-3.1023730" lon="37.3459630">
    <ele>4095.8</ele>
    <time>2026-06-22T07:42:58Z</time>
   </trkpt>
   <trkpt lat="-3.1023760" lon="37.3459690">
    <ele>4095.9</ele>
    <time>2026-06-22T07:42:59Z</time>
   </trkpt>
   <trkpt lat="-3.1023780" lon="37.3459740">
    <ele>4095.9</ele>
    <time>2026-06-22T07:43:00Z</time>
   </trkpt>
   <trkpt lat="-3.1023840" lon="37.3459780">
    <ele>4096.0</ele>
    <time>2026-06-22T07:43:01Z</time>
   </trkpt>
   <trkpt lat="-3.1023900" lon="37.3459800">
    <ele>4096.1</ele>
    <time>2026-06-22T07:43:02Z</time>
   </trkpt>
   <trkpt lat="-3.1023930" lon="37.3459820">
    <ele>4096.1</ele>
    <time>2026-06-22T07:43:03Z</time>
   </trkpt>
   <trkpt lat="-3.1023980" lon="37.3459850">
    <ele>4096.2</ele>
    <time>2026-06-22T07:43:04Z</time>
   </trkpt>
   <trkpt lat="-3.1024030" lon="37.3459880">
    <ele>4096.2</ele>
    <time>2026-06-22T07:43:05Z</time>
   </trkpt>
   <trkpt lat="-3.1024080" lon="37.3459890">
    <ele>4096.3</ele>
    <time>2026-06-22T07:43:06Z</time>
   </trkpt>
   <trkpt lat="-3.1024130" lon="37.3459910">
    <ele>4096.3</ele>
    <time>2026-06-22T07:43:07Z</time>
   </trkpt>
   <trkpt lat="-3.1024190" lon="37.3459910">
    <ele>4096.4</ele>
    <time>2026-06-22T07:43:08Z</time>
   </trkpt>
   <trkpt lat="-3.1024240" lon="37.3459910">
    <ele>4096.5</ele>
    <time>2026-06-22T07:43:09Z</time>
   </trkpt>
   <trkpt lat="-3.1024290" lon="37.3459880">
    <ele>4096.5</ele>
    <time>2026-06-22T07:43:10Z</time>
   </trkpt>
   <trkpt lat="-3.1024350" lon="37.3459870">
    <ele>4096.6</ele>
    <time>2026-06-22T07:43:11Z</time>
   </trkpt>
   <trkpt lat="-3.1024400" lon="37.3459890">
    <ele>4096.6</ele>
    <time>2026-06-22T07:43:12Z</time>
   </trkpt>
   <trkpt lat="-3.1024420" lon="37.3459940">
    <ele>4096.7</ele>
    <time>2026-06-22T07:43:13Z</time>
   </trkpt>
   <trkpt lat="-3.1024460" lon="37.3459980">
    <ele>4096.8</ele>
    <time>2026-06-22T07:43:14Z</time>
   </trkpt>
   <trkpt lat="-3.1024470" lon="37.3460020">
    <ele>4096.8</ele>
    <time>2026-06-22T07:43:15Z</time>
   </trkpt>
   <trkpt lat="-3.1024490" lon="37.3460050">
    <ele>4096.8</ele>
    <time>2026-06-22T07:43:16Z</time>
   </trkpt>
   <trkpt lat="-3.1024530" lon="37.3460070">
    <ele>4096.9</ele>
    <time>2026-06-22T07:43:17Z</time>
   </trkpt>
   <trkpt lat="-3.1024570" lon="37.3460080">
    <ele>4096.9</ele>
    <time>2026-06-22T07:43:18Z</time>
   </trkpt>
   <trkpt lat="-3.1024590" lon="37.3460050">
    <ele>4097.0</ele>
    <time>2026-06-22T07:43:19Z</time>
   </trkpt>
   <trkpt lat="-3.1024640" lon="37.3460070">
    <ele>4097.0</ele>
    <time>2026-06-22T07:43:20Z</time>
   </trkpt>
   <trkpt lat="-3.1024670" lon="37.3460100">
    <ele>4097.1</ele>
    <time>2026-06-22T07:43:21Z</time>
   </trkpt>
   <trkpt lat="-3.1024700" lon="37.3460110">
    <ele>4097.1</ele>
    <time>2026-06-22T07:43:22Z</time>
   </trkpt>
   <trkpt lat="-3.1024750" lon="37.3460130">
    <ele>4097.1</ele>
    <time>2026-06-22T07:43:23Z</time>
   </trkpt>
   <trkpt lat="-3.1024780" lon="37.3460130">
    <ele>4097.2</ele>
    <time>2026-06-22T07:43:24Z</time>
   </trkpt>
   <trkpt lat="-3.1024820" lon="37.3460170">
    <ele>4097.2</ele>
    <time>2026-06-22T07:43:25Z</time>
   </trkpt>
   <trkpt lat="-3.1024860" lon="37.3460170">
    <ele>4097.3</ele>
    <time>2026-06-22T07:43:26Z</time>
   </trkpt>
   <trkpt lat="-3.1024900" lon="37.3460200">
    <ele>4097.3</ele>
    <time>2026-06-22T07:43:27Z</time>
   </trkpt>
   <trkpt lat="-3.1024920" lon="37.3460190">
    <ele>4097.3</ele>
    <time>2026-06-22T07:43:28Z</time>
   </trkpt>
   <trkpt lat="-3.1024960" lon="37.3460200">
    <ele>4097.4</ele>
    <time>2026-06-22T07:43:29Z</time>
   </trkpt>
   <trkpt lat="-3.1025000" lon="37.3460190">
    <ele>4097.4</ele>
    <time>2026-06-22T07:43:30Z</time>
   </trkpt>
   <trkpt lat="-3.1025050" lon="37.3460200">
    <ele>4097.5</ele>
    <time>2026-06-22T07:43:31Z</time>
   </trkpt>
   <trkpt lat="-3.1025080" lon="37.3460200">
    <ele>4097.5</ele>
    <time>2026-06-22T07:43:32Z</time>
   </trkpt>
   <trkpt lat="-3.1025110" lon="37.3460240">
    <ele>4097.5</ele>
    <time>2026-06-22T07:43:33Z</time>
   </trkpt>
   <trkpt lat="-3.1025140" lon="37.3460260">
    <ele>4097.6</ele>
    <time>2026-06-22T07:43:34Z</time>
   </trkpt>
   <trkpt lat="-3.1025180" lon="37.3460290">
    <ele>4097.6</ele>
    <time>2026-06-22T07:43:35Z</time>
   </trkpt>
   <trkpt lat="-3.1025200" lon="37.3460300">
    <ele>4097.7</ele>
    <time>2026-06-22T07:43:36Z</time>
   </trkpt>
   <trkpt lat="-3.1025230" lon="37.3460310">
    <ele>4097.7</ele>
    <time>2026-06-22T07:43:37Z</time>
   </trkpt>
   <trkpt lat="-3.1025250" lon="37.3460300">
    <ele>4097.7</ele>
    <time>2026-06-22T07:43:38Z</time>
   </trkpt>
   <trkpt lat="-3.1025300" lon="37.3460300">
    <ele>4097.8</ele>
    <time>2026-06-22T07:43:39Z</time>
   </trkpt>
   <trkpt lat="-3.1025330" lon="37.3460300">
    <ele>4097.8</ele>
    <time>2026-06-22T07:43:40Z</time>
   </trkpt>
   <trkpt lat="-3.1025370" lon="37.3460280">
    <ele>4097.8</ele>
    <time>2026-06-22T07:43:41Z</time>
   </trkpt>
   <trkpt lat="-3.1025420" lon="37.3460260">
    <ele>4097.9</ele>
    <time>2026-06-22T07:43:42Z</time>
   </trkpt>
   <trkpt lat="-3.1025480" lon="37.3460260">
    <ele>4097.9</ele>
    <time>2026-06-22T07:43:43Z</time>
   </trkpt>
   <trkpt lat="-3.1025510" lon="37.3460240">
    <ele>4098.0</ele>
    <time>2026-06-22T07:43:44Z</time>
   </trkpt>
   <trkpt lat="-3.1025570" lon="37.3460230">
    <ele>4098.0</ele>
    <time>2026-06-22T07:43:45Z</time>
   </trkpt>
   <trkpt lat="-3.1025610" lon="37.3460220">
    <ele>4098.1</ele>
    <time>2026-06-22T07:43:46Z</time>
   </trkpt>
   <trkpt lat="-3.1025660" lon="37.3460220">
    <ele>4098.1</ele>
    <time>2026-06-22T07:43:47Z</time>
   </trkpt>
   <trkpt lat="-3.1025690" lon="37.3460210">
    <ele>4098.2</ele>
    <time>2026-06-22T07:43:48Z</time>
   </trkpt>
   <trkpt lat="-3.1025750" lon="37.3460220">
    <ele>4098.2</ele>
    <time>2026-06-22T07:43:49Z</time>
   </trkpt>
   <trkpt lat="-3.1025780" lon="37.3460250">
    <ele>4098.3</ele>
    <time>2026-06-22T07:43:50Z</time>
   </trkpt>
   <trkpt lat="-3.1025800" lon="37.3460270">
    <ele>4098.3</ele>
    <time>2026-06-22T07:43:51Z</time>
   </trkpt>
   <trkpt lat="-3.1025810" lon="37.3460310">
    <ele>4098.3</ele>
    <time>2026-06-22T07:43:52Z</time>
   </trkpt>
   <trkpt lat="-3.1025810" lon="37.3460330">
    <ele>4098.4</ele>
    <time>2026-06-22T07:43:53Z</time>
   </trkpt>
   <trkpt lat="-3.1025820" lon="37.3460370">
    <ele>4098.4</ele>
    <time>2026-06-22T07:43:54Z</time>
   </trkpt>
   <trkpt lat="-3.1025830" lon="37.3460410">
    <ele>4098.4</ele>
    <time>2026-06-22T07:43:55Z</time>
   </trkpt>
   <trkpt lat="-3.1025850" lon="37.3460450">
    <ele>4098.5</ele>
    <time>2026-06-22T07:43:56Z</time>
   </trkpt>
   <trkpt lat="-3.1025870" lon="37.3460490">
    <ele>4098.5</ele>
    <time>2026-06-22T07:43:57Z</time>
   </trkpt>
   <trkpt lat="-3.1025890" lon="37.3460480">
    <ele>4098.6</ele>
    <time>2026-06-22T07:43:58Z</time>
   </trkpt>
   <trkpt lat="-3.1025930" lon="37.3460480">
    <ele>4098.6</ele>
    <time>2026-06-22T07:43:59Z</time>
   </trkpt>
   <trkpt lat="-3.1025970" lon="37.3460470">
    <ele>4098.6</ele>
    <time>2026-06-22T07:44:00Z</time>
   </trkpt>
   <trkpt lat="-3.1026020" lon="37.3460450">
    <ele>4098.7</ele>
    <time>2026-06-22T07:44:01Z</time>
   </trkpt>
   <trkpt lat="-3.1026060" lon="37.3460440">
    <ele>4098.7</ele>
    <time>2026-06-22T07:44:02Z</time>
   </trkpt>
   <trkpt lat="-3.1026090" lon="37.3460450">
    <ele>4098.8</ele>
    <time>2026-06-22T07:44:03Z</time>
   </trkpt>
   <trkpt lat="-3.1026140" lon="37.3460480">
    <ele>4098.8</ele>
    <time>2026-06-22T07:44:04Z</time>
   </trkpt>
   <trkpt lat="-3.1026160" lon="37.3460470">
    <ele>4098.9</ele>
    <time>2026-06-22T07:44:05Z</time>
   </trkpt>
   <trkpt lat="-3.1026200" lon="37.3460460">
    <ele>4098.9</ele>
    <time>2026-06-22T07:44:06Z</time>
   </trkpt>
   <trkpt lat="-3.1026230" lon="37.3460470">
    <ele>4098.9</ele>
    <time>2026-06-22T07:44:07Z</time>
   </trkpt>
   <trkpt lat="-3.1026250" lon="37.3460430">
    <ele>4099.0</ele>
    <time>2026-06-22T07:44:08Z</time>
   </trkpt>
   <trkpt lat="-3.1026290" lon="37.3460440">
    <ele>4099.0</ele>
    <time>2026-06-22T07:44:09Z</time>
   </trkpt>
   <trkpt lat="-3.1026320" lon="37.3460400">
    <ele>4099.1</ele>
    <time>2026-06-22T07:44:10Z</time>
   </trkpt>
   <trkpt lat="-3.1026370" lon="37.3460390">
    <ele>4099.2</ele>
    <time>2026-06-22T07:44:11Z</time>
   </trkpt>
   <trkpt lat="-3.1026410" lon="37.3460380">
    <ele>4099.2</ele>
    <time>2026-06-22T07:44:12Z</time>
   </trkpt>
   <trkpt lat="-3.1026450" lon="37.3460390">
    <ele>4099.3</ele>
    <time>2026-06-22T07:44:13Z</time>
   </trkpt>
   <trkpt lat="-3.1026500" lon="37.3460390">
    <ele>4099.3</ele>
    <time>2026-06-22T07:44:14Z</time>
   </trkpt>
   <trkpt lat="-3.1026530" lon="37.3460400">
    <ele>4099.4</ele>
    <time>2026-06-22T07:44:15Z</time>
   </trkpt>
   <trkpt lat="-3.1026560" lon="37.3460410">
    <ele>4099.4</ele>
    <time>2026-06-22T07:44:16Z</time>
   </trkpt>
   <trkpt lat="-3.1026570" lon="37.3460440">
    <ele>4099.4</ele>
    <time>2026-06-22T07:44:17Z</time>
   </trkpt>
   <trkpt lat="-3.1026590" lon="37.3460490">
    <ele>4099.5</ele>
    <time>2026-06-22T07:44:18Z</time>
   </trkpt>
   <trkpt lat="-3.1026620" lon="37.3460530">
    <ele>4099.5</ele>
    <time>2026-06-22T07:44:19Z</time>
   </trkpt>
   <trkpt lat="-3.1026630" lon="37.3460560">
    <ele>4099.6</ele>
    <time>2026-06-22T07:44:20Z</time>
   </trkpt>
   <trkpt lat="-3.1026640" lon="37.3460600">
    <ele>4099.6</ele>
    <time>2026-06-22T07:44:21Z</time>
   </trkpt>
   <trkpt lat="-3.1026670" lon="37.3460650">
    <ele>4099.7</ele>
    <time>2026-06-22T07:44:22Z</time>
   </trkpt>
   <trkpt lat="-3.1026690" lon="37.3460670">
    <ele>4099.7</ele>
    <time>2026-06-22T07:44:23Z</time>
   </trkpt>
   <trkpt lat="-3.1026700" lon="37.3460700">
    <ele>4099.8</ele>
    <time>2026-06-22T07:44:24Z</time>
   </trkpt>
   <trkpt lat="-3.1026700" lon="37.3460710">
    <ele>4099.8</ele>
    <time>2026-06-22T07:44:25Z</time>
   </trkpt>
   <trkpt lat="-3.1026740" lon="37.3460770">
    <ele>4099.9</ele>
    <time>2026-06-22T07:44:26Z</time>
   </trkpt>
   <trkpt lat="-3.1026730" lon="37.3460770">
    <ele>4099.9</ele>
    <time>2026-06-22T07:44:27Z</time>
   </trkpt>
   <trkpt lat="-3.1026760" lon="37.3460830">
    <ele>4100.0</ele>
    <time>2026-06-22T07:44:28Z</time>
   </trkpt>
   <trkpt lat="-3.1026740" lon="37.3460870">
    <ele>4100.0</ele>
    <time>2026-06-22T07:44:29Z</time>
   </trkpt>
   <trkpt lat="-3.1026760" lon="37.3460860">
    <ele>4100.1</ele>
    <time>2026-06-22T07:44:30Z</time>
   </trkpt>
   <trkpt lat="-3.1026770" lon="37.3460880">
    <ele>4100.1</ele>
    <time>2026-06-22T07:44:31Z</time>
   </trkpt>
   <trkpt lat="-3.1026790" lon="37.3460880">
    <ele>4100.1</ele>
    <time>2026-06-22T07:44:32Z</time>
   </trkpt>
   <trkpt lat="-3.1026860" lon="37.3460900">
    <ele>4100.2</ele>
    <time>2026-06-22T07:44:33Z</time>
   </trkpt>
   <trkpt lat="-3.1026870" lon="37.3460920">
    <ele>4100.2</ele>
    <time>2026-06-22T07:44:34Z</time>
   </trkpt>
   <trkpt lat="-3.1026910" lon="37.3460920">
    <ele>4100.3</ele>
    <time>2026-06-22T07:44:35Z</time>
   </trkpt>
   <trkpt lat="-3.1026930" lon="37.3460960">
    <ele>4100.3</ele>
    <time>2026-06-22T07:44:36Z</time>
   </trkpt>
   <trkpt lat="-3.1026960" lon="37.3460970">
    <ele>4100.4</ele>
    <time>2026-06-22T07:44:37Z</time>
   </trkpt>
   <trkpt lat="-3.1026990" lon="37.3461030">
    <ele>4100.5</ele>
    <time>2026-06-22T07:44:38Z</time>
   </trkpt>
   <trkpt lat="-3.1027020" lon="37.3461050">
    <ele>4100.5</ele>
    <time>2026-06-22T07:44:39Z</time>
   </trkpt>
   <trkpt lat="-3.1027050" lon="37.3461100">
    <ele>4100.6</ele>
    <time>2026-06-22T07:44:40Z</time>
   </trkpt>
   <trkpt lat="-3.1027090" lon="37.3461180">
    <ele>4100.7</ele>
    <time>2026-06-22T07:44:41Z</time>
   </trkpt>
   <trkpt lat="-3.1027110" lon="37.3461190">
    <ele>4100.7</ele>
    <time>2026-06-22T07:44:42Z</time>
   </trkpt>
   <trkpt lat="-3.1027130" lon="37.3461210">
    <ele>4100.8</ele>
    <time>2026-06-22T07:44:43Z</time>
   </trkpt>
   <trkpt lat="-3.1027170" lon="37.3461260">
    <ele>4100.9</ele>
    <time>2026-06-22T07:44:44Z</time>
   </trkpt>
   <trkpt lat="-3.1027190" lon="37.3461290">
    <ele>4100.9</ele>
    <time>2026-06-22T07:44:45Z</time>
   </trkpt>
   <trkpt lat="-3.1027220" lon="37.3461320">
    <ele>4101.0</ele>
    <time>2026-06-22T07:44:46Z</time>
   </trkpt>
   <trkpt lat="-3.1027240" lon="37.3461360">
    <ele>4101.0</ele>
    <time>2026-06-22T07:44:47Z</time>
   </trkpt>
   <trkpt lat="-3.1027270" lon="37.3461380">
    <ele>4101.1</ele>
    <time>2026-06-22T07:44:48Z</time>
   </trkpt>
   <trkpt lat="-3.1027300" lon="37.3461440">
    <ele>4101.2</ele>
    <time>2026-06-22T07:44:49Z</time>
   </trkpt>
   <trkpt lat="-3.1027320" lon="37.3461460">
    <ele>4101.2</ele>
    <time>2026-06-22T07:44:50Z</time>
   </trkpt>
   <trkpt lat="-3.1027350" lon="37.3461520">
    <ele>4101.3</ele>
    <time>2026-06-22T07:44:51Z</time>
   </trkpt>
   <trkpt lat="-3.1027380" lon="37.3461540">
    <ele>4101.3</ele>
    <time>2026-06-22T07:44:52Z</time>
   </trkpt>
   <trkpt lat="-3.1027400" lon="37.3461580">
    <ele>4101.4</ele>
    <time>2026-06-22T07:44:53Z</time>
   </trkpt>
   <trkpt lat="-3.1027440" lon="37.3461600">
    <ele>4101.5</ele>
    <time>2026-06-22T07:44:54Z</time>
   </trkpt>
   <trkpt lat="-3.1027470" lon="37.3461660">
    <ele>4101.6</ele>
    <time>2026-06-22T07:44:55Z</time>
   </trkpt>
   <trkpt lat="-3.1027510" lon="37.3461700">
    <ele>4101.7</ele>
    <time>2026-06-22T07:44:56Z</time>
   </trkpt>
   <trkpt lat="-3.1027530" lon="37.3461750">
    <ele>4101.7</ele>
    <time>2026-06-22T07:44:57Z</time>
   </trkpt>
   <trkpt lat="-3.1027550" lon="37.3461800">
    <ele>4101.8</ele>
    <time>2026-06-22T07:44:58Z</time>
   </trkpt>
   <trkpt lat="-3.1027570" lon="37.3461850">
    <ele>4101.9</ele>
    <time>2026-06-22T07:44:59Z</time>
   </trkpt>
   <trkpt lat="-3.1027600" lon="37.3461900">
    <ele>4102.0</ele>
    <time>2026-06-22T07:45:00Z</time>
   </trkpt>
   <trkpt lat="-3.1027640" lon="37.3461940">
    <ele>4102.1</ele>
    <time>2026-06-22T07:45:01Z</time>
   </trkpt>
   <trkpt lat="-3.1027690" lon="37.3461950">
    <ele>4102.2</ele>
    <time>2026-06-22T07:45:02Z</time>
   </trkpt>
   <trkpt lat="-3.1027750" lon="37.3461990">
    <ele>4102.3</ele>
    <time>2026-06-22T07:45:03Z</time>
   </trkpt>
   <trkpt lat="-3.1027790" lon="37.3462040">
    <ele>4102.4</ele>
    <time>2026-06-22T07:45:04Z</time>
   </trkpt>
   <trkpt lat="-3.1027810" lon="37.3462090">
    <ele>4102.5</ele>
    <time>2026-06-22T07:45:05Z</time>
   </trkpt>
   <trkpt lat="-3.1027820" lon="37.3462130">
    <ele>4102.5</ele>
    <time>2026-06-22T07:45:06Z</time>
   </trkpt>
   <trkpt lat="-3.1027840" lon="37.3462170">
    <ele>4102.6</ele>
    <time>2026-06-22T07:45:07Z</time>
   </trkpt>
   <trkpt lat="-3.1027860" lon="37.3462260">
    <ele>4102.7</ele>
    <time>2026-06-22T07:45:08Z</time>
   </trkpt>
   <trkpt lat="-3.1027850" lon="37.3462270">
    <ele>4102.7</ele>
    <time>2026-06-22T07:45:09Z</time>
   </trkpt>
   <trkpt lat="-3.1027890" lon="37.3462310">
    <ele>4102.8</ele>
    <time>2026-06-22T07:45:10Z</time>
   </trkpt>
   <trkpt lat="-3.1027950" lon="37.3462380">
    <ele>4103.0</ele>
    <time>2026-06-22T07:45:11Z</time>
   </trkpt>
   <trkpt lat="-3.1027970" lon="37.3462390">
    <ele>4103.0</ele>
    <time>2026-06-22T07:45:12Z</time>
   </trkpt>
   <trkpt lat="-3.1028010" lon="37.3462380">
    <ele>4103.1</ele>
    <time>2026-06-22T07:45:13Z</time>
   </trkpt>
   <trkpt lat="-3.1028120" lon="37.3462380">
    <ele>4103.3</ele>
    <time>2026-06-22T07:45:14Z</time>
   </trkpt>
   <trkpt lat="-3.1028150" lon="37.3462380">
    <ele>4103.3</ele>
    <time>2026-06-22T07:45:15Z</time>
   </trkpt>
   <trkpt lat="-3.1028200" lon="37.3462380">
    <ele>4103.4</ele>
    <time>2026-06-22T07:45:16Z</time>
   </trkpt>
   <trkpt lat="-3.1028260" lon="37.3462390">
    <ele>4103.5</ele>
    <time>2026-06-22T07:45:17Z</time>
   </trkpt>
   <trkpt lat="-3.1028320" lon="37.3462410">
    <ele>4103.6</ele>
    <time>2026-06-22T07:45:18Z</time>
   </trkpt>
   <trkpt lat="-3.1028350" lon="37.3462430">
    <ele>4103.7</ele>
    <time>2026-06-22T07:45:19Z</time>
   </trkpt>
   <trkpt lat="-3.1028370" lon="37.3462470">
    <ele>4103.8</ele>
    <time>2026-06-22T07:45:20Z</time>
   </trkpt>
   <trkpt lat="-3.1028370" lon="37.3462530">
    <ele>4103.9</ele>
    <time>2026-06-22T07:45:21Z</time>
   </trkpt>
   <trkpt lat="-3.1028340" lon="37.3462580">
    <ele>4104.0</ele>
    <time>2026-06-22T07:45:22Z</time>
   </trkpt>
   <trkpt lat="-3.1028350" lon="37.3462640">
    <ele>4104.1</ele>
    <time>2026-06-22T07:45:23Z</time>
   </trkpt>
   <trkpt lat="-3.1028330" lon="37.3462690">
    <ele>4104.2</ele>
    <time>2026-06-22T07:45:24Z</time>
   </trkpt>
   <trkpt lat="-3.1028360" lon="37.3462730">
    <ele>4104.3</ele>
    <time>2026-06-22T07:45:25Z</time>
   </trkpt>
   <trkpt lat="-3.1028380" lon="37.3462760">
    <ele>4104.3</ele>
    <time>2026-06-22T07:45:26Z</time>
   </trkpt>
   <trkpt lat="-3.1028400" lon="37.3462810">
    <ele>4104.4</ele>
    <time>2026-06-22T07:45:27Z</time>
   </trkpt>
   <trkpt lat="-3.1028450" lon="37.3462880">
    <ele>4104.6</ele>
    <time>2026-06-22T07:45:28Z</time>
   </trkpt>
   <trkpt lat="-3.1028470" lon="37.3462910">
    <ele>4104.7</ele>
    <time>2026-06-22T07:45:29Z</time>
   </trkpt>
   <trkpt lat="-3.1028510" lon="37.3462950">
    <ele>4104.8</ele>
    <time>2026-06-22T07:45:30Z</time>
   </trkpt>
   <trkpt lat="-3.1028530" lon="37.3463000">
    <ele>4104.9</ele>
    <time>2026-06-22T07:45:31Z</time>
   </trkpt>
   <trkpt lat="-3.1028560" lon="37.3463040">
    <ele>4105.0</ele>
    <time>2026-06-22T07:45:32Z</time>
   </trkpt>
   <trkpt lat="-3.1028590" lon="37.3463100">
    <ele>4105.1</ele>
    <time>2026-06-22T07:45:33Z</time>
   </trkpt>
   <trkpt lat="-3.1028630" lon="37.3463150">
    <ele>4105.2</ele>
    <time>2026-06-22T07:45:34Z</time>
   </trkpt>
   <trkpt lat="-3.1028640" lon="37.3463190">
    <ele>4105.3</ele>
    <time>2026-06-22T07:45:35Z</time>
   </trkpt>
   <trkpt lat="-3.1028660" lon="37.3463230">
    <ele>4105.4</ele>
    <time>2026-06-22T07:45:36Z</time>
   </trkpt>
   <trkpt lat="-3.1028690" lon="37.3463270">
    <ele>4105.5</ele>
    <time>2026-06-22T07:45:37Z</time>
   </trkpt>
   <trkpt lat="-3.1028730" lon="37.3463300">
    <ele>4105.6</ele>
    <time>2026-06-22T07:45:38Z</time>
   </trkpt>
   <trkpt lat="-3.1028770" lon="37.3463360">
    <ele>4105.7</ele>
    <time>2026-06-22T07:45:39Z</time>
   </trkpt>
   <trkpt lat="-3.1028790" lon="37.3463390">
    <ele>4105.8</ele>
    <time>2026-06-22T07:45:40Z</time>
   </trkpt>
   <trkpt lat="-3.1028820" lon="37.3463450">
    <ele>4105.9</ele>
    <time>2026-06-22T07:45:41Z</time>
   </trkpt>
   <trkpt lat="-3.1028860" lon="37.3463490">
    <ele>4106.0</ele>
    <time>2026-06-22T07:45:42Z</time>
   </trkpt>
   <trkpt lat="-3.1028890" lon="37.3463540">
    <ele>4106.1</ele>
    <time>2026-06-22T07:45:43Z</time>
   </trkpt>
   <trkpt lat="-3.1028930" lon="37.3463570">
    <ele>4106.2</ele>
    <time>2026-06-22T07:45:44Z</time>
   </trkpt>
   <trkpt lat="-3.1028970" lon="37.3463630">
    <ele>4106.4</ele>
    <time>2026-06-22T07:45:45Z</time>
   </trkpt>
   <trkpt lat="-3.1029000" lon="37.3463670">
    <ele>4106.5</ele>
    <time>2026-06-22T07:45:46Z</time>
   </trkpt>
   <trkpt lat="-3.1029010" lon="37.3463720">
    <ele>4106.6</ele>
    <time>2026-06-22T07:45:47Z</time>
   </trkpt>
   <trkpt lat="-3.1029040" lon="37.3463750">
    <ele>4106.6</ele>
    <time>2026-06-22T07:45:48Z</time>
   </trkpt>
   <trkpt lat="-3.1029080" lon="37.3463810">
    <ele>4106.8</ele>
    <time>2026-06-22T07:45:49Z</time>
   </trkpt>
   <trkpt lat="-3.1029120" lon="37.3463860">
    <ele>4106.9</ele>
    <time>2026-06-22T07:45:50Z</time>
   </trkpt>
   <trkpt lat="-3.1029150" lon="37.3463920">
    <ele>4107.0</ele>
    <time>2026-06-22T07:45:51Z</time>
   </trkpt>
   <trkpt lat="-3.1029170" lon="37.3463980">
    <ele>4107.2</ele>
    <time>2026-06-22T07:45:52Z</time>
   </trkpt>
   <trkpt lat="-3.1029170" lon="37.3464020">
    <ele>4107.2</ele>
    <time>2026-06-22T07:45:53Z</time>
   </trkpt>
   <trkpt lat="-3.1029180" lon="37.3464090">
    <ele>4107.4</ele>
    <time>2026-06-22T07:45:54Z</time>
   </trkpt>
   <trkpt lat="-3.1029190" lon="37.3464130">
    <ele>4107.5</ele>
    <time>2026-06-22T07:45:55Z</time>
   </trkpt>
   <trkpt lat="-3.1029220" lon="37.3464180">
    <ele>4107.6</ele>
    <time>2026-06-22T07:45:56Z</time>
   </trkpt>
   <trkpt lat="-3.1029270" lon="37.3464230">
    <ele>4107.7</ele>
    <time>2026-06-22T07:45:57Z</time>
   </trkpt>
   <trkpt lat="-3.1029320" lon="37.3464250">
    <ele>4107.8</ele>
    <time>2026-06-22T07:45:58Z</time>
   </trkpt>
   <trkpt lat="-3.1029390" lon="37.3464280">
    <ele>4108.0</ele>
    <time>2026-06-22T07:45:59Z</time>
   </trkpt>
   <trkpt lat="-3.1029440" lon="37.3464310">
    <ele>4108.1</ele>
    <time>2026-06-22T07:46:00Z</time>
   </trkpt>
   <trkpt lat="-3.1029490" lon="37.3464330">
    <ele>4108.2</ele>
    <time>2026-06-22T07:46:01Z</time>
   </trkpt>
   <trkpt lat="-3.1029530" lon="37.3464360">
    <ele>4108.3</ele>
    <time>2026-06-22T07:46:02Z</time>
   </trkpt>
   <trkpt lat="-3.1029580" lon="37.3464390">
    <ele>4108.4</ele>
    <time>2026-06-22T07:46:03Z</time>
   </trkpt>
   <trkpt lat="-3.1029640" lon="37.3464400">
    <ele>4108.5</ele>
    <time>2026-06-22T07:46:04Z</time>
   </trkpt>
   <trkpt lat="-3.1029700" lon="37.3464400">
    <ele>4108.6</ele>
    <time>2026-06-22T07:46:05Z</time>
   </trkpt>
   <trkpt lat="-3.1029720" lon="37.3464440">
    <ele>4108.7</ele>
    <time>2026-06-22T07:46:06Z</time>
   </trkpt>
   <trkpt lat="-3.1029730" lon="37.3464510">
    <ele>4108.8</ele>
    <time>2026-06-22T07:46:07Z</time>
   </trkpt>
   <trkpt lat="-3.1029740" lon="37.3464620">
    <ele>4109.0</ele>
    <time>2026-06-22T07:46:08Z</time>
   </trkpt>
   <trkpt lat="-3.1029750" lon="37.3464710">
    <ele>4109.2</ele>
    <time>2026-06-22T07:46:09Z</time>
   </trkpt>
   <trkpt lat="-3.1029770" lon="37.3464790">
    <ele>4109.3</ele>
    <time>2026-06-22T07:46:10Z</time>
   </trkpt>
   <trkpt lat="-3.1029800" lon="37.3464860">
    <ele>4109.5</ele>
    <time>2026-06-22T07:46:11Z</time>
   </trkpt>
   <trkpt lat="-3.1029820" lon="37.3464930">
    <ele>4109.6</ele>
    <time>2026-06-22T07:46:12Z</time>
   </trkpt>
   <trkpt lat="-3.1029830" lon="37.3464970">
    <ele>4109.6</ele>
    <time>2026-06-22T07:46:13Z</time>
   </trkpt>
   <trkpt lat="-3.1029840" lon="37.3464930">
    <ele>4109.7</ele>
    <time>2026-06-22T07:46:14Z</time>
   </trkpt>
   <trkpt lat="-3.1029860" lon="37.3465040">
    <ele>4109.9</ele>
    <time>2026-06-22T07:46:15Z</time>
   </trkpt>
   <trkpt lat="-3.1029850" lon="37.3465130">
    <ele>4110.1</ele>
    <time>2026-06-22T07:46:16Z</time>
   </trkpt>
   <trkpt lat="-3.1029850" lon="37.3465190">
    <ele>4110.2</ele>
    <time>2026-06-22T07:46:17Z</time>
   </trkpt>
   <trkpt lat="-3.1029870" lon="37.3465240">
    <ele>4110.3</ele>
    <time>2026-06-22T07:46:18Z</time>
   </trkpt>
   <trkpt lat="-3.1029900" lon="37.3465300">
    <ele>4110.4</ele>
    <time>2026-06-22T07:46:19Z</time>
   </trkpt>
   <trkpt lat="-3.1029940" lon="37.3465360">
    <ele>4110.5</ele>
    <time>2026-06-22T07:46:20Z</time>
   </trkpt>
   <trkpt lat="-3.1029990" lon="37.3465420">
    <ele>4110.6</ele>
    <time>2026-06-22T07:46:21Z</time>
   </trkpt>
   <trkpt lat="-3.1030040" lon="37.3465460">
    <ele>4110.7</ele>
    <time>2026-06-22T07:46:22Z</time>
   </trkpt>
   <trkpt lat="-3.1030100" lon="37.3465500">
    <ele>4110.8</ele>
    <time>2026-06-22T07:46:23Z</time>
   </trkpt>
   <trkpt lat="-3.1030170" lon="37.3465550">
    <ele>4111.0</ele>
    <time>2026-06-22T07:46:24Z</time>
   </trkpt>
   <trkpt lat="-3.1030220" lon="37.3465590">
    <ele>4111.1</ele>
    <time>2026-06-22T07:46:25Z</time>
   </trkpt>
   <trkpt lat="-3.1030280" lon="37.3465610">
    <ele>4111.2</ele>
    <time>2026-06-22T07:46:26Z</time>
   </trkpt>
   <trkpt lat="-3.1030340" lon="37.3465630">
    <ele>4111.2</ele>
    <time>2026-06-22T07:46:27Z</time>
   </trkpt>
   <trkpt lat="-3.1030420" lon="37.3465670">
    <ele>4111.4</ele>
    <time>2026-06-22T07:46:28Z</time>
   </trkpt>
   <trkpt lat="-3.1030500" lon="37.3465700">
    <ele>4111.5</ele>
    <time>2026-06-22T07:46:29Z</time>
   </trkpt>
   <trkpt lat="-3.1030560" lon="37.3465750">
    <ele>4111.6</ele>
    <time>2026-06-22T07:46:30Z</time>
   </trkpt>
   <trkpt lat="-3.1030620" lon="37.3465820">
    <ele>4111.7</ele>
    <time>2026-06-22T07:46:31Z</time>
   </trkpt>
   <trkpt lat="-3.1030660" lon="37.3465890">
    <ele>4111.8</ele>
    <time>2026-06-22T07:46:32Z</time>
   </trkpt>
   <trkpt lat="-3.1030720" lon="37.3465970">
    <ele>4112.0</ele>
    <time>2026-06-22T07:46:33Z</time>
   </trkpt>
   <trkpt lat="-3.1030790" lon="37.3466030">
    <ele>4112.1</ele>
    <time>2026-06-22T07:46:34Z</time>
   </trkpt>
   <trkpt lat="-3.1030840" lon="37.3466110">
    <ele>4112.2</ele>
    <time>2026-06-22T07:46:35Z</time>
   </trkpt>
   <trkpt lat="-3.1030900" lon="37.3466180">
    <ele>4112.3</ele>
    <time>2026-06-22T07:46:36Z</time>
   </trkpt>
   <trkpt lat="-3.1030940" lon="37.3466220">
    <ele>4112.4</ele>
    <time>2026-06-22T07:46:37Z</time>
   </trkpt>
   <trkpt lat="-3.1030990" lon="37.3466260">
    <ele>4112.4</ele>
    <time>2026-06-22T07:46:38Z</time>
   </trkpt>
   <trkpt lat="-3.1031070" lon="37.3466320">
    <ele>4112.5</ele>
    <time>2026-06-22T07:46:39Z</time>
   </trkpt>
   <trkpt lat="-3.1031150" lon="37.3466390">
    <ele>4112.6</ele>
    <time>2026-06-22T07:46:40Z</time>
   </trkpt>
   <trkpt lat="-3.1031230" lon="37.3466480">
    <ele>4112.8</ele>
    <time>2026-06-22T07:46:41Z</time>
   </trkpt>
   <trkpt lat="-3.1031300" lon="37.3466540">
    <ele>4112.8</ele>
    <time>2026-06-22T07:46:42Z</time>
   </trkpt>
   <trkpt lat="-3.1031370" lon="37.3466640">
    <ele>4112.9</ele>
    <time>2026-06-22T07:46:43Z</time>
   </trkpt>
   <trkpt lat="-3.1031420" lon="37.3466700">
    <ele>4113.0</ele>
    <time>2026-06-22T07:46:44Z</time>
   </trkpt>
   <trkpt lat="-3.1031460" lon="37.3466780">
    <ele>4113.1</ele>
    <time>2026-06-22T07:46:45Z</time>
   </trkpt>
   <trkpt lat="-3.1031520" lon="37.3466870">
    <ele>4113.1</ele>
    <time>2026-06-22T07:46:46Z</time>
   </trkpt>
   <trkpt lat="-3.1031580" lon="37.3466930">
    <ele>4113.2</ele>
    <time>2026-06-22T07:46:47Z</time>
   </trkpt>
   <trkpt lat="-3.1031650" lon="37.3466970">
    <ele>4113.2</ele>
    <time>2026-06-22T07:46:48Z</time>
   </trkpt>
   <trkpt lat="-3.1031700" lon="37.3467010">
    <ele>4113.3</ele>
    <time>2026-06-22T07:46:49Z</time>
   </trkpt>
   <trkpt lat="-3.1031740" lon="37.3467050">
    <ele>4113.3</ele>
    <time>2026-06-22T07:46:50Z</time>
   </trkpt>
   <trkpt lat="-3.1031810" lon="37.3467140">
    <ele>4113.4</ele>
    <time>2026-06-22T07:46:51Z</time>
   </trkpt>
   <trkpt lat="-3.1031880" lon="37.3467200">
    <ele>4113.4</ele>
    <time>2026-06-22T07:46:52Z</time>
   </trkpt>
   <trkpt lat="-3.1031960" lon="37.3467250">
    <ele>4113.4</ele>
    <time>2026-06-22T07:46:53Z</time>
   </trkpt>
   <trkpt lat="-3.1032000" lon="37.3467300">
    <ele>4113.4</ele>
    <time>2026-06-22T07:46:54Z</time>
   </trkpt>
   <trkpt lat="-3.1032060" lon="37.3467340">
    <ele>4113.4</ele>
    <time>2026-06-22T07:46:55Z</time>
   </trkpt>
   <trkpt lat="-3.1032100" lon="37.3467390">
    <ele>4113.5</ele>
    <time>2026-06-22T07:46:56Z</time>
   </trkpt>
   <trkpt lat="-3.1032150" lon="37.3467460">
    <ele>4113.5</ele>
    <time>2026-06-22T07:46:57Z</time>
   </trkpt>
   <trkpt lat="-3.1032260" lon="37.3467550">
    <ele>4113.5</ele>
    <time>2026-06-22T07:46:58Z</time>
   </trkpt>
   <trkpt lat="-3.1032320" lon="37.3467590">
    <ele>4113.5</ele>
    <time>2026-06-22T07:46:59Z</time>
   </trkpt>
   <trkpt lat="-3.1032390" lon="37.3467620">
    <ele>4113.5</ele>
    <time>2026-06-22T07:47:00Z</time>
   </trkpt>
   <trkpt lat="-3.1032480" lon="37.3467670">
    <ele>4113.5</ele>
    <time>2026-06-22T07:47:01Z</time>
   </trkpt>
   <trkpt lat="-3.1032540" lon="37.3467690">
    <ele>4113.5</ele>
    <time>2026-06-22T07:47:02Z</time>
   </trkpt>
   <trkpt lat="-3.1032620" lon="37.3467720">
    <ele>4113.4</ele>
    <time>2026-06-22T07:47:03Z</time>
   </trkpt>
   <trkpt lat="-3.1032710" lon="37.3467760">
    <ele>4113.4</ele>
    <time>2026-06-22T07:47:04Z</time>
   </trkpt>
   <trkpt lat="-3.1032780" lon="37.3467790">
    <ele>4113.4</ele>
    <time>2026-06-22T07:47:05Z</time>
   </trkpt>
   <trkpt lat="-3.1032840" lon="37.3467800">
    <ele>4113.4</ele>
    <time>2026-06-22T07:47:06Z</time>
   </trkpt>
   <trkpt lat="-3.1032910" lon="37.3467820">
    <ele>4113.3</ele>
    <time>2026-06-22T07:47:07Z</time>
   </trkpt>
   <trkpt lat="-3.1032970" lon="37.3467850">
    <ele>4113.3</ele>
    <time>2026-06-22T07:47:08Z</time>
   </trkpt>
   <trkpt lat="-3.1033030" lon="37.3467900">
    <ele>4113.3</ele>
    <time>2026-06-22T07:47:09Z</time>
   </trkpt>
   <trkpt lat="-3.1033120" lon="37.3467950">
    <ele>4113.2</ele>
    <time>2026-06-22T07:47:10Z</time>
   </trkpt>
   <trkpt lat="-3.1033190" lon="37.3468010">
    <ele>4113.2</ele>
    <time>2026-06-22T07:47:11Z</time>
   </trkpt>
   <trkpt lat="-3.1033240" lon="37.3468080">
    <ele>4113.1</ele>
    <time>2026-06-22T07:47:12Z</time>
   </trkpt>
   <trkpt lat="-3.1033260" lon="37.3468130">
    <ele>4113.1</ele>
    <time>2026-06-22T07:47:13Z</time>
   </trkpt>
   <trkpt lat="-3.1033310" lon="37.3468200">
    <ele>4113.0</ele>
    <time>2026-06-22T07:47:14Z</time>
   </trkpt>
   <trkpt lat="-3.1033360" lon="37.3468280">
    <ele>4113.0</ele>
    <time>2026-06-22T07:47:15Z</time>
   </trkpt>
   <trkpt lat="-3.1033400" lon="37.3468340">
    <ele>4112.9</ele>
    <time>2026-06-22T07:47:16Z</time>
   </trkpt>
   <trkpt lat="-3.1033440" lon="37.3468430">
    <ele>4112.9</ele>
    <time>2026-06-22T07:47:17Z</time>
   </trkpt>
   <trkpt lat="-3.1033470" lon="37.3468490">
    <ele>4112.8</ele>
    <time>2026-06-22T07:47:18Z</time>
   </trkpt>
   <trkpt lat="-3.1033530" lon="37.3468560">
    <ele>4112.7</ele>
    <time>2026-06-22T07:47:19Z</time>
   </trkpt>
   <trkpt lat="-3.1033570" lon="37.3468630">
    <ele>4112.7</ele>
    <time>2026-06-22T07:47:20Z</time>
   </trkpt>
   <trkpt lat="-3.1033620" lon="37.3468680">
    <ele>4112.6</ele>
    <time>2026-06-22T07:47:21Z</time>
   </trkpt>
   <trkpt lat="-3.1033680" lon="37.3468730">
    <ele>4112.5</ele>
    <time>2026-06-22T07:47:22Z</time>
   </trkpt>
   <trkpt lat="-3.1033730" lon="37.3468770">
    <ele>4112.5</ele>
    <time>2026-06-22T07:47:23Z</time>
   </trkpt>
   <trkpt lat="-3.1033800" lon="37.3468820">
    <ele>4112.4</ele>
    <time>2026-06-22T07:47:24Z</time>
   </trkpt>
   <trkpt lat="-3.1033860" lon="37.3468880">
    <ele>4112.3</ele>
    <time>2026-06-22T07:47:25Z</time>
   </trkpt>
   <trkpt lat="-3.1033910" lon="37.3468920">
    <ele>4112.3</ele>
    <time>2026-06-22T07:47:26Z</time>
   </trkpt>
   <trkpt lat="-3.1033950" lon="37.3468950">
    <ele>4112.2</ele>
    <time>2026-06-22T07:47:27Z</time>
   </trkpt>
   <trkpt lat="-3.1033990" lon="37.3468980">
    <ele>4112.2</ele>
    <time>2026-06-22T07:47:28Z</time>
   </trkpt>
   <trkpt lat="-3.1034010" lon="37.3468980">
    <ele>4112.2</ele>
    <time>2026-06-22T07:47:29Z</time>
   </trkpt>
   <trkpt lat="-3.1034010" lon="37.3468990">
    <ele>4112.1</ele>
    <time>2026-06-22T07:47:30Z</time>
   </trkpt>
   <trkpt lat="-3.1034060" lon="37.3469070">
    <ele>4112.0</ele>
    <time>2026-06-22T07:47:31Z</time>
   </trkpt>
   <trkpt lat="-3.1034070" lon="37.3469100">
    <ele>4112.0</ele>
    <time>2026-06-22T07:47:32Z</time>
   </trkpt>
   <trkpt lat="-3.1034080" lon="37.3469100">
    <ele>4112.0</ele>
    <time>2026-06-22T07:47:33Z</time>
   </trkpt>
   <trkpt lat="-3.1034130" lon="37.3469140">
    <ele>4111.9</ele>
    <time>2026-06-22T07:47:34Z</time>
   </trkpt>
   <trkpt lat="-3.1034230" lon="37.3469180">
    <ele>4111.8</ele>
    <time>2026-06-22T07:47:35Z</time>
   </trkpt>
   <trkpt lat="-3.1034290" lon="37.3469160">
    <ele>4111.8</ele>
    <time>2026-06-22T07:47:36Z</time>
   </trkpt>
   <trkpt lat="-3.1034300" lon="37.3469150">
    <ele>4111.8</ele>
    <time>2026-06-22T07:47:37Z</time>
   </trkpt>
   <trkpt lat="-3.1034300" lon="37.3469150">
    <ele>4111.8</ele>
    <time>2026-06-22T07:47:38Z</time>
   </trkpt>
   <trkpt lat="-3.1034340" lon="37.3469160">
    <ele>4111.7</ele>
    <time>2026-06-22T07:47:39Z</time>
   </trkpt>
   <trkpt lat="-3.1034420" lon="37.3469160">
    <ele>4111.6</ele>
    <time>2026-06-22T07:47:40Z</time>
   </trkpt>
   <trkpt lat="-3.1034460" lon="37.3469170">
    <ele>4111.6</ele>
    <time>2026-06-22T07:47:41Z</time>
   </trkpt>
   <trkpt lat="-3.1034440" lon="37.3469170">
    <ele>4111.6</ele>
    <time>2026-06-22T07:47:42Z</time>
   </trkpt>
   <trkpt lat="-3.1034450" lon="37.3469200">
    <ele>4111.5</ele>
    <time>2026-06-22T07:47:43Z</time>
   </trkpt>
   <trkpt lat="-3.1034560" lon="37.3469260">
    <ele>4111.4</ele>
    <time>2026-06-22T07:47:44Z</time>
   </trkpt>
   <trkpt lat="-3.1034550" lon="37.3469280">
    <ele>4111.4</ele>
    <time>2026-06-22T07:47:45Z</time>
   </trkpt>
   <trkpt lat="-3.1034550" lon="37.3469290">
    <ele>4111.4</ele>
    <time>2026-06-22T07:47:46Z</time>
   </trkpt>
   <trkpt lat="-3.1034550" lon="37.3469320">
    <ele>4111.3</ele>
    <time>2026-06-22T07:47:47Z</time>
   </trkpt>
   <trkpt lat="-3.1034540" lon="37.3469320">
    <ele>4111.3</ele>
    <time>2026-06-22T07:47:48Z</time>
   </trkpt>
   <trkpt lat="-3.1034560" lon="37.3469340">
    <ele>4111.3</ele>
    <time>2026-06-22T07:47:49Z</time>
   </trkpt>
   <trkpt lat="-3.1034550" lon="37.3469380">
    <ele>4111.3</ele>
    <time>2026-06-22T07:47:50Z</time>
   </trkpt>
   <trkpt lat="-3.1034530" lon="37.3469430">
    <ele>4111.2</ele>
    <time>2026-06-22T07:47:51Z</time>
   </trkpt>
   <trkpt lat="-3.1034520" lon="37.3469480">
    <ele>4111.1</ele>
    <time>2026-06-22T07:47:52Z</time>
   </trkpt>
   <trkpt lat="-3.1034510" lon="37.3469480">
    <ele>4111.1</ele>
    <time>2026-06-22T07:47:53Z</time>
   </trkpt>
   <trkpt lat="-3.1034500" lon="37.3469480">
    <ele>4111.1</ele>
    <time>2026-06-22T07:47:54Z</time>
   </trkpt>
   <trkpt lat="-3.1034490" lon="37.3469520">
    <ele>4111.1</ele>
    <time>2026-06-22T07:47:55Z</time>
   </trkpt>
   <trkpt lat="-3.1034490" lon="37.3469570">
    <ele>4111.0</ele>
    <time>2026-06-22T07:47:56Z</time>
   </trkpt>
   <trkpt lat="-3.1034490" lon="37.3469580">
    <ele>4111.0</ele>
    <time>2026-06-22T07:47:57Z</time>
   </trkpt>
   <trkpt lat="-3.1034480" lon="37.3469600">
    <ele>4111.0</ele>
    <time>2026-06-22T07:47:58Z</time>
   </trkpt>
   <trkpt lat="-3.1034480" lon="37.3469630">
    <ele>4111.0</ele>
    <time>2026-06-22T07:47:59Z</time>
   </trkpt>
   <trkpt lat="-3.1034530" lon="37.3469660">
    <ele>4110.9</ele>
    <time>2026-06-22T07:48:00Z</time>
   </trkpt>
   <trkpt lat="-3.1034530" lon="37.3469680">
    <ele>4110.9</ele>
    <time>2026-06-22T07:48:01Z</time>
   </trkpt>
   <trkpt lat="-3.1034540" lon="37.3469680">
    <ele>4110.9</ele>
    <time>2026-06-22T07:48:02Z</time>
   </trkpt>
   <trkpt lat="-3.1034580" lon="37.3469740">
    <ele>4110.8</ele>
    <time>2026-06-22T07:48:03Z</time>
   </trkpt>
   <trkpt lat="-3.1034560" lon="37.3469760">
    <ele>4110.8</ele>
    <time>2026-06-22T07:48:04Z</time>
   </trkpt>
   <trkpt lat="-3.1034570" lon="37.3469780">
    <ele>4110.7</ele>
    <time>2026-06-22T07:48:05Z</time>
   </trkpt>
   <trkpt lat="-3.1034560" lon="37.3469810">
    <ele>4110.7</ele>
    <time>2026-06-22T07:48:06Z</time>
   </trkpt>
   <trkpt lat="-3.1034600" lon="37.3469800">
    <ele>4110.7</ele>
    <time>2026-06-22T07:48:07Z</time>
   </trkpt>
   <trkpt lat="-3.1034620" lon="37.3469830">
    <ele>4110.6</ele>
    <time>2026-06-22T07:48:08Z</time>
   </trkpt>
   <trkpt lat="-3.1034630" lon="37.3469820">
    <ele>4110.6</ele>
    <time>2026-06-22T07:48:09Z</time>
   </trkpt>
   <trkpt lat="-3.1034670" lon="37.3469850">
    <ele>4110.6</ele>
    <time>2026-06-22T07:48:10Z</time>
   </trkpt>
   <trkpt lat="-3.1034700" lon="37.3469870">
    <ele>4110.5</ele>
    <time>2026-06-22T07:48:11Z</time>
   </trkpt>
   <trkpt lat="-3.1034710" lon="37.3469880">
    <ele>4110.5</ele>
    <time>2026-06-22T07:48:12Z</time>
   </trkpt>
   <trkpt lat="-3.1034740" lon="37.3469910">
    <ele>4110.5</ele>
    <time>2026-06-22T07:48:13Z</time>
   </trkpt>
   <trkpt lat="-3.1034770" lon="37.3469910">
    <ele>4110.4</ele>
    <time>2026-06-22T07:48:14Z</time>
   </trkpt>
   <trkpt lat="-3.1034800" lon="37.3469930">
    <ele>4110.4</ele>
    <time>2026-06-22T07:48:15Z</time>
   </trkpt>
   <trkpt lat="-3.1034850" lon="37.3469940">
    <ele>4110.3</ele>
    <time>2026-06-22T07:48:16Z</time>
   </trkpt>
   <trkpt lat="-3.1034940" lon="37.3470060">
    <ele>4110.2</ele>
    <time>2026-06-22T07:48:17Z</time>
   </trkpt>
   <trkpt lat="-3.1034990" lon="37.3470070">
    <ele>4110.1</ele>
    <time>2026-06-22T07:48:18Z</time>
   </trkpt>
   <trkpt lat="-3.1034980" lon="37.3470110">
    <ele>4110.1</ele>
    <time>2026-06-22T07:48:19Z</time>
   </trkpt>
   <trkpt lat="-3.1035020" lon="37.3470160">
    <ele>4110.0</ele>
    <time>2026-06-22T07:48:20Z</time>
   </trkpt>
   <trkpt lat="-3.1035050" lon="37.3470190">
    <ele>4110.0</ele>
    <time>2026-06-22T07:48:21Z</time>
   </trkpt>
   <trkpt lat="-3.1035090" lon="37.3470220">
    <ele>4109.9</ele>
    <time>2026-06-22T07:48:22Z</time>
   </trkpt>
   <trkpt lat="-3.1035130" lon="37.3470220">
    <ele>4109.9</ele>
    <time>2026-06-22T07:48:23Z</time>
   </trkpt>
   <trkpt lat="-3.1035210" lon="37.3470290">
    <ele>4109.8</ele>
    <time>2026-06-22T07:48:24Z</time>
   </trkpt>
   <trkpt lat="-3.1035260" lon="37.3470360">
    <ele>4109.7</ele>
    <time>2026-06-22T07:48:25Z</time>
   </trkpt>
   <trkpt lat="-3.1035270" lon="37.3470400">
    <ele>4109.6</ele>
    <time>2026-06-22T07:48:26Z</time>
   </trkpt>
   <trkpt lat="-3.1035280" lon="37.3470430">
    <ele>4109.6</ele>
    <time>2026-06-22T07:48:27Z</time>
   </trkpt>
   <trkpt lat="-3.1035320" lon="37.3470480">
    <ele>4109.6</ele>
    <time>2026-06-22T07:48:28Z</time>
   </trkpt>
   <trkpt lat="-3.1035350" lon="37.3470530">
    <ele>4109.5</ele>
    <time>2026-06-22T07:48:29Z</time>
   </trkpt>
   <trkpt lat="-3.1035370" lon="37.3470570">
    <ele>4109.5</ele>
    <time>2026-06-22T07:48:30Z</time>
   </trkpt>
   <trkpt lat="-3.1035410" lon="37.3470640">
    <ele>4109.4</ele>
    <time>2026-06-22T07:48:31Z</time>
   </trkpt>
   <trkpt lat="-3.1035420" lon="37.3470740">
    <ele>4109.3</ele>
    <time>2026-06-22T07:48:32Z</time>
   </trkpt>
   <trkpt lat="-3.1035400" lon="37.3470790">
    <ele>4109.3</ele>
    <time>2026-06-22T07:48:33Z</time>
   </trkpt>
   <trkpt lat="-3.1035420" lon="37.3470900">
    <ele>4109.2</ele>
    <time>2026-06-22T07:48:34Z</time>
   </trkpt>
   <trkpt lat="-3.1035460" lon="37.3470990">
    <ele>4109.1</ele>
    <time>2026-06-22T07:48:35Z</time>
   </trkpt>
   <trkpt lat="-3.1035480" lon="37.3471040">
    <ele>4109.0</ele>
    <time>2026-06-22T07:48:36Z</time>
   </trkpt>
   <trkpt lat="-3.1035480" lon="37.3471070">
    <ele>4109.0</ele>
    <time>2026-06-22T07:48:37Z</time>
   </trkpt>
   <trkpt lat="-3.1035490" lon="37.3471130">
    <ele>4109.0</ele>
    <time>2026-06-22T07:48:38Z</time>
   </trkpt>
   <trkpt lat="-3.1035510" lon="37.3471200">
    <ele>4108.9</ele>
    <time>2026-06-22T07:48:39Z</time>
   </trkpt>
   <trkpt lat="-3.1035520" lon="37.3471190">
    <ele>4108.9</ele>
    <time>2026-06-22T07:48:40Z</time>
   </trkpt>
   <trkpt lat="-3.1035570" lon="37.3471240">
    <ele>4108.9</ele>
    <time>2026-06-22T07:48:41Z</time>
   </trkpt>
   <trkpt lat="-3.1035670" lon="37.3471270">
    <ele>4108.8</ele>
    <time>2026-06-22T07:48:42Z</time>
   </trkpt>
   <trkpt lat="-3.1035720" lon="37.3471300">
    <ele>4108.8</ele>
    <time>2026-06-22T07:48:43Z</time>
   </trkpt>
   <trkpt lat="-3.1035790" lon="37.3471350">
    <ele>4108.7</ele>
    <time>2026-06-22T07:48:44Z</time>
   </trkpt>
   <trkpt lat="-3.1035850" lon="37.3471380">
    <ele>4108.6</ele>
    <time>2026-06-22T07:48:45Z</time>
   </trkpt>
   <trkpt lat="-3.1035890" lon="37.3471400">
    <ele>4108.6</ele>
    <time>2026-06-22T07:48:46Z</time>
   </trkpt>
   <trkpt lat="-3.1035940" lon="37.3471410">
    <ele>4108.6</ele>
    <time>2026-06-22T07:48:47Z</time>
   </trkpt>
   <trkpt lat="-3.1035990" lon="37.3471440">
    <ele>4108.5</ele>
    <time>2026-06-22T07:48:48Z</time>
   </trkpt>
   <trkpt lat="-3.1036020" lon="37.3471490">
    <ele>4108.5</ele>
    <time>2026-06-22T07:48:49Z</time>
   </trkpt>
   <trkpt lat="-3.1036060" lon="37.3471550">
    <ele>4108.5</ele>
    <time>2026-06-22T07:48:50Z</time>
   </trkpt>
   <trkpt lat="-3.1036080" lon="37.3471590">
    <ele>4108.5</ele>
    <time>2026-06-22T07:48:51Z</time>
   </trkpt>
   <trkpt lat="-3.1036110" lon="37.3471660">
    <ele>4108.4</ele>
    <time>2026-06-22T07:48:52Z</time>
   </trkpt>
   <trkpt lat="-3.1036110" lon="37.3471690">
    <ele>4108.4</ele>
    <time>2026-06-22T07:48:53Z</time>
   </trkpt>
   <trkpt lat="-3.1036100" lon="37.3471730">
    <ele>4108.4</ele>
    <time>2026-06-22T07:48:54Z</time>
   </trkpt>
   <trkpt lat="-3.1036090" lon="37.3471800">
    <ele>4108.3</ele>
    <time>2026-06-22T07:48:55Z</time>
   </trkpt>
   <trkpt lat="-3.1036080" lon="37.3471810">
    <ele>4108.3</ele>
    <time>2026-06-22T07:48:56Z</time>
   </trkpt>
   <trkpt lat="-3.1036070" lon="37.3471790">
    <ele>4108.3</ele>
    <time>2026-06-22T07:48:57Z</time>
   </trkpt>
   <trkpt lat="-3.1036070" lon="37.3471790">
    <ele>4108.3</ele>
    <time>2026-06-22T07:48:58Z</time>
   </trkpt>
   <trkpt lat="-3.1036060" lon="37.3471790">
    <ele>4108.3</ele>
    <time>2026-06-22T07:48:59Z</time>
   </trkpt>
   <trkpt lat="-3.1036060" lon="37.3471790">
    <ele>4108.3</ele>
    <time>2026-06-22T07:49:00Z</time>
   </trkpt>
   <trkpt lat="-3.1036070" lon="37.3471820">
    <ele>4108.3</ele>
    <time>2026-06-22T07:49:01Z</time>
   </trkpt>
   <trkpt lat="-3.1036050" lon="37.3471830">
    <ele>4108.3</ele>
    <time>2026-06-22T07:49:02Z</time>
   </trkpt>
   <trkpt lat="-3.1036050" lon="37.3471790">
    <ele>4108.3</ele>
    <time>2026-06-22T07:49:03Z</time>
   </trkpt>
   <trkpt lat="-3.1036050" lon="37.3471780">
    <ele>4108.3</ele>
    <time>2026-06-22T07:49:04Z</time>
   </trkpt>
   <trkpt lat="-3.1036050" lon="37.3471780">
    <ele>4108.3</ele>
    <time>2026-06-22T07:49:05Z</time>
   </trkpt>
   <trkpt lat="-3.1036050" lon="37.3471780">
    <ele>4108.3</ele>
    <time>2026-06-22T07:49:06Z</time>
   </trkpt>
   <trkpt lat="-3.1036050" lon="37.3471800">
    <ele>4108.2</ele>
    <time>2026-06-22T07:49:07Z</time>
   </trkpt>
   <trkpt lat="-3.1036050" lon="37.3471800">
    <ele>4108.2</ele>
    <time>2026-06-22T07:49:08Z</time>
   </trkpt>
   <trkpt lat="-3.1036050" lon="37.3471790">
    <ele>4108.2</ele>
    <time>2026-06-22T07:49:09Z</time>
   </trkpt>
   <trkpt lat="-3.1036060" lon="37.3471780">
    <ele>4108.2</ele>
    <time>2026-06-22T07:49:10Z</time>
   </trkpt>
   <trkpt lat="-3.1036060" lon="37.3471790">
    <ele>4108.2</ele>
    <time>2026-06-22T07:49:11Z</time>
   </trkpt>
   <trkpt lat="-3.1036060" lon="37.3471790">
    <ele>4108.2</ele>
    <time>2026-06-22T07:49:12Z</time>
   </trkpt>
   <trkpt lat="-3.1036060" lon="37.3471770">
    <ele>4108.2</ele>
    <time>2026-06-22T07:49:13Z</time>
   </trkpt>
   <trkpt lat="-3.1036060" lon="37.3471780">
    <ele>4108.2</ele>
    <time>2026-06-22T07:49:14Z</time>
   </trkpt>
   <trkpt lat="-3.1036060" lon="37.3471790">
    <ele>4108.2</ele>
    <time>2026-06-22T07:49:15Z</time>
   </trkpt>
   <trkpt lat="-3.1036060" lon="37.3471790">
    <ele>4108.2</ele>
    <time>2026-06-22T07:49:16Z</time>
   </trkpt>
   <trkpt lat="-3.1036060" lon="37.3471770">
    <ele>4108.2</ele>
    <time>2026-06-22T07:49:17Z</time>
   </trkpt>
   <trkpt lat="-3.1036060" lon="37.3471770">
    <ele>4108.2</ele>
    <time>2026-06-22T07:49:18Z</time>
   </trkpt>
   <trkpt lat="-3.1036050" lon="37.3471780">
    <ele>4108.2</ele>
    <time>2026-06-22T07:49:19Z</time>
   </trkpt>
   <trkpt lat="-3.1036010" lon="37.3471830">
    <ele>4108.2</ele>
    <time>2026-06-22T07:49:20Z</time>
   </trkpt>
   <trkpt lat="-3.1036010" lon="37.3471870">
    <ele>4108.2</ele>
    <time>2026-06-22T07:49:21Z</time>
   </trkpt>
   <trkpt lat="-3.1036010" lon="37.3471870">
    <ele>4108.2</ele>
    <time>2026-06-22T07:49:22Z</time>
   </trkpt>
   <trkpt lat="-3.1036020" lon="37.3471920">
    <ele>4108.1</ele>
    <time>2026-06-22T07:49:23Z</time>
   </trkpt>
   <trkpt lat="-3.1036030" lon="37.3471890">
    <ele>4108.1</ele>
    <time>2026-06-22T07:49:24Z</time>
   </trkpt>
   <trkpt lat="-3.1036040" lon="37.3471900">
    <ele>4108.1</ele>
    <time>2026-06-22T07:49:25Z</time>
   </trkpt>
   <trkpt lat="-3.1036050" lon="37.3471910">
    <ele>4108.1</ele>
    <time>2026-06-22T07:49:26Z</time>
   </trkpt>
   <trkpt lat="-3.1036050" lon="37.3471900">
    <ele>4108.1</ele>
    <time>2026-06-22T07:49:27Z</time>
   </trkpt>
   <trkpt lat="-3.1036100" lon="37.3471930">
    <ele>4108.1</ele>
    <time>2026-06-22T07:49:28Z</time>
   </trkpt>
   <trkpt lat="-3.1036130" lon="37.3471940">
    <ele>4108.1</ele>
    <time>2026-06-22T07:49:29Z</time>
   </trkpt>
   <trkpt lat="-3.1036150" lon="37.3472000">
    <ele>4108.1</ele>
    <time>2026-06-22T07:49:30Z</time>
   </trkpt>
   <trkpt lat="-3.1036190" lon="37.3472020">
    <ele>4108.1</ele>
    <time>2026-06-22T07:49:31Z</time>
   </trkpt>
   <trkpt lat="-3.1036190" lon="37.3472050">
    <ele>4108.0</ele>
    <time>2026-06-22T07:49:32Z</time>
   </trkpt>
   <trkpt lat="-3.1036160" lon="37.3472020">
    <ele>4108.0</ele>
    <time>2026-06-22T07:49:33Z</time>
   </trkpt>
   <trkpt lat="-3.1036190" lon="37.3472030">
    <ele>4108.0</ele>
    <time>2026-06-22T07:49:34Z</time>
   </trkpt>
   <trkpt lat="-3.1036190" lon="37.3472050">
    <ele>4108.0</ele>
    <time>2026-06-22T07:49:35Z</time>
   </trkpt>
   <trkpt lat="-3.1036200" lon="37.3472030">
    <ele>4108.0</ele>
    <time>2026-06-22T07:49:36Z</time>
   </trkpt>
   <trkpt lat="-3.1036220" lon="37.3472030">
    <ele>4108.0</ele>
    <time>2026-06-22T07:49:37Z</time>
   </trkpt>
   <trkpt lat="-3.1036260" lon="37.3472040">
    <ele>4108.0</ele>
    <time>2026-06-22T07:49:38Z</time>
   </trkpt>
   <trkpt lat="-3.1036320" lon="37.3472060">
    <ele>4108.0</ele>
    <time>2026-06-22T07:49:39Z</time>
   </trkpt>
   <trkpt lat="-3.1036360" lon="37.3472050">
    <ele>4108.0</ele>
    <time>2026-06-22T07:49:40Z</time>
   </trkpt>
   <trkpt lat="-3.1036380" lon="37.3472000">
    <ele>4108.0</ele>
    <time>2026-06-22T07:49:41Z</time>
   </trkpt>
   <trkpt lat="-3.1036410" lon="37.3472000">
    <ele>4108.0</ele>
    <time>2026-06-22T07:49:42Z</time>
   </trkpt>
   <trkpt lat="-3.1036440" lon="37.3471990">
    <ele>4108.0</ele>
    <time>2026-06-22T07:49:43Z</time>
   </trkpt>
   <trkpt lat="-3.1036510" lon="37.3471960">
    <ele>4107.9</ele>
    <time>2026-06-22T07:49:44Z</time>
   </trkpt>
   <trkpt lat="-3.1036550" lon="37.3471960">
    <ele>4107.9</ele>
    <time>2026-06-22T07:49:45Z</time>
   </trkpt>
   <trkpt lat="-3.1036650" lon="37.3471960">
    <ele>4107.9</ele>
    <time>2026-06-22T07:49:46Z</time>
   </trkpt>
   <trkpt lat="-3.1036710" lon="37.3471990">
    <ele>4107.9</ele>
    <time>2026-06-22T07:49:47Z</time>
   </trkpt>
   <trkpt lat="-3.1036740" lon="37.3471990">
    <ele>4107.9</ele>
    <time>2026-06-22T07:49:48Z</time>
   </trkpt>
   <trkpt lat="-3.1036800" lon="37.3471980">
    <ele>4107.9</ele>
    <time>2026-06-22T07:49:49Z</time>
   </trkpt>
   <trkpt lat="-3.1036860" lon="37.3471980">
    <ele>4107.9</ele>
    <time>2026-06-22T07:49:50Z</time>
   </trkpt>
   <trkpt lat="-3.1036910" lon="37.3471960">
    <ele>4107.9</ele>
    <time>2026-06-22T07:49:51Z</time>
   </trkpt>
   <trkpt lat="-3.1036950" lon="37.3471930">
    <ele>4107.9</ele>
    <time>2026-06-22T07:49:52Z</time>
   </trkpt>
   <trkpt lat="-3.1036990" lon="37.3471880">
    <ele>4107.9</ele>
    <time>2026-06-22T07:49:53Z</time>
   </trkpt>
   <trkpt lat="-3.1037040" lon="37.3471860">
    <ele>4107.9</ele>
    <time>2026-06-22T07:49:54Z</time>
   </trkpt>
   <trkpt lat="-3.1037100" lon="37.3471820">
    <ele>4107.9</ele>
    <time>2026-06-22T07:49:55Z</time>
   </trkpt>
   <trkpt lat="-3.1037190" lon="37.3471790">
    <ele>4107.9</ele>
    <time>2026-06-22T07:49:56Z</time>
   </trkpt>
   <trkpt lat="-3.1037240" lon="37.3471780">
    <ele>4107.9</ele>
    <time>2026-06-22T07:49:57Z</time>
   </trkpt>
   <trkpt lat="-3.1037290" lon="37.3471780">
    <ele>4107.9</ele>
    <time>2026-06-22T07:49:58Z</time>
   </trkpt>
   <trkpt lat="-3.1037360" lon="37.3471740">
    <ele>4107.9</ele>
    <time>2026-06-22T07:49:59Z</time>
   </trkpt>
   <trkpt lat="-3.1037380" lon="37.3471730">
    <ele>4107.9</ele>
    <time>2026-06-22T07:50:00Z</time>
   </trkpt>
   <trkpt lat="-3.1037440" lon="37.3471730">
    <ele>4107.9</ele>
    <time>2026-06-22T07:50:01Z</time>
   </trkpt>
   <trkpt lat="-3.1037550" lon="37.3471710">
    <ele>4107.9</ele>
    <time>2026-06-22T07:50:02Z</time>
   </trkpt>
   <trkpt lat="-3.1037620" lon="37.3471680">
    <ele>4107.9</ele>
    <time>2026-06-22T07:50:03Z</time>
   </trkpt>
   <trkpt lat="-3.1037660" lon="37.3471690">
    <ele>4107.9</ele>
    <time>2026-06-22T07:50:04Z</time>
   </trkpt>
   <trkpt lat="-3.1037710" lon="37.3471700">
    <ele>4107.9</ele>
    <time>2026-06-22T07:50:05Z</time>
   </trkpt>
   <trkpt lat="-3.1037730" lon="37.3471700">
    <ele>4107.9</ele>
    <time>2026-06-22T07:50:06Z</time>
   </trkpt>
   <trkpt lat="-3.1037750" lon="37.3471690">
    <ele>4107.9</ele>
    <time>2026-06-22T07:50:07Z</time>
   </trkpt>
   <trkpt lat="-3.1037850" lon="37.3471670">
    <ele>4107.9</ele>
    <time>2026-06-22T07:50:08Z</time>
   </trkpt>
   <trkpt lat="-3.1037930" lon="37.3471630">
    <ele>4108.0</ele>
    <time>2026-06-22T07:50:09Z</time>
   </trkpt>
   <trkpt lat="-3.1037950" lon="37.3471600">
    <ele>4108.0</ele>
    <time>2026-06-22T07:50:10Z</time>
   </trkpt>
   <trkpt lat="-3.1038030" lon="37.3471560">
    <ele>4108.0</ele>
    <time>2026-06-22T07:50:11Z</time>
   </trkpt>
   <trkpt lat="-3.1038080" lon="37.3471520">
    <ele>4108.0</ele>
    <time>2026-06-22T07:50:12Z</time>
   </trkpt>
   <trkpt lat="-3.1038150" lon="37.3471510">
    <ele>4108.0</ele>
    <time>2026-06-22T07:50:13Z</time>
   </trkpt>
   <trkpt lat="-3.1038190" lon="37.3471490">
    <ele>4108.0</ele>
    <time>2026-06-22T07:50:14Z</time>
   </trkpt>
   <trkpt lat="-3.1038250" lon="37.3471490">
    <ele>4108.0</ele>
    <time>2026-06-22T07:50:15Z</time>
   </trkpt>
   <trkpt lat="-3.1038330" lon="37.3471460">
    <ele>4108.0</ele>
    <time>2026-06-22T07:50:16Z</time>
   </trkpt>
   <trkpt lat="-3.1038380" lon="37.3471460">
    <ele>4108.1</ele>
    <time>2026-06-22T07:50:17Z</time>
   </trkpt>
   <trkpt lat="-3.1038430" lon="37.3471450">
    <ele>4108.1</ele>
    <time>2026-06-22T07:50:18Z</time>
   </trkpt>
   <trkpt lat="-3.1038420" lon="37.3471450">
    <ele>4108.1</ele>
    <time>2026-06-22T07:50:19Z</time>
   </trkpt>
   <trkpt lat="-3.1038410" lon="37.3471450">
    <ele>4108.1</ele>
    <time>2026-06-22T07:50:20Z</time>
   </trkpt>
   <trkpt lat="-3.1038410" lon="37.3471460">
    <ele>4108.1</ele>
    <time>2026-06-22T07:50:21Z</time>
   </trkpt>
   <trkpt lat="-3.1038400" lon="37.3471460">
    <ele>4108.1</ele>
    <time>2026-06-22T07:50:22Z</time>
   </trkpt>
   <trkpt lat="-3.1038400" lon="37.3471440">
    <ele>4108.1</ele>
    <time>2026-06-22T07:50:23Z</time>
   </trkpt>
   <trkpt lat="-3.1038410" lon="37.3471440">
    <ele>4108.1</ele>
    <time>2026-06-22T07:50:24Z</time>
   </trkpt>
   <trkpt lat="-3.1038430" lon="37.3471450">
    <ele>4108.1</ele>
    <time>2026-06-22T07:50:25Z</time>
   </trkpt>
   <trkpt lat="-3.1038430" lon="37.3471440">
    <ele>4108.1</ele>
    <time>2026-06-22T07:50:26Z</time>
   </trkpt>
   <trkpt lat="-3.1038420" lon="37.3471440">
    <ele>4108.1</ele>
    <time>2026-06-22T07:50:27Z</time>
   </trkpt>
   <trkpt lat="-3.1038420" lon="37.3471440">
    <ele>4108.1</ele>
    <time>2026-06-22T07:50:28Z</time>
   </trkpt>
   <trkpt lat="-3.1038420" lon="37.3471440">
    <ele>4108.1</ele>
    <time>2026-06-22T07:50:29Z</time>
   </trkpt>
   <trkpt lat="-3.1038410" lon="37.3471440">
    <ele>4108.1</ele>
    <time>2026-06-22T07:50:30Z</time>
   </trkpt>
   <trkpt lat="-3.1038420" lon="37.3471450">
    <ele>4108.1</ele>
    <time>2026-06-22T07:50:31Z</time>
   </trkpt>
   <trkpt lat="-3.1038420" lon="37.3471440">
    <ele>4108.1</ele>
    <time>2026-06-22T07:50:32Z</time>
   </trkpt>
   <trkpt lat="-3.1038420" lon="37.3471410">
    <ele>4108.1</ele>
    <time>2026-06-22T07:50:33Z</time>
   </trkpt>
   <trkpt lat="-3.1038410" lon="37.3471420">
    <ele>4108.1</ele>
    <time>2026-06-22T07:50:34Z</time>
   </trkpt>
   <trkpt lat="-3.1038420" lon="37.3471420">
    <ele>4108.1</ele>
    <time>2026-06-22T07:50:35Z</time>
   </trkpt>
   <trkpt lat="-3.1038410" lon="37.3471420">
    <ele>4108.1</ele>
    <time>2026-06-22T07:50:36Z</time>
   </trkpt>
   <trkpt lat="-3.1038420" lon="37.3471410">
    <ele>4108.1</ele>
    <time>2026-06-22T07:50:37Z</time>
   </trkpt>
   <trkpt lat="-3.1038410" lon="37.3471410">
    <ele>4108.1</ele>
    <time>2026-06-22T07:50:38Z</time>
   </trkpt>
   <trkpt lat="-3.1038410" lon="37.3471390">
    <ele>4108.1</ele>
    <time>2026-06-22T07:50:39Z</time>
   </trkpt>
   <trkpt lat="-3.1038430" lon="37.3471350">
    <ele>4108.1</ele>
    <time>2026-06-22T07:50:40Z</time>
   </trkpt>
   <trkpt lat="-3.1038490" lon="37.3471330">
    <ele>4108.1</ele>
    <time>2026-06-22T07:50:41Z</time>
   </trkpt>
   <trkpt lat="-3.1038510" lon="37.3471250">
    <ele>4108.2</ele>
    <time>2026-06-22T07:50:42Z</time>
   </trkpt>
   <trkpt lat="-3.1038620" lon="37.3471200">
    <ele>4108.2</ele>
    <time>2026-06-22T07:50:43Z</time>
   </trkpt>
   <trkpt lat="-3.1038690" lon="37.3471140">
    <ele>4108.2</ele>
    <time>2026-06-22T07:50:44Z</time>
   </trkpt>
   <trkpt lat="-3.1038790" lon="37.3471100">
    <ele>4108.2</ele>
    <time>2026-06-22T07:50:45Z</time>
   </trkpt>
   <trkpt lat="-3.1038930" lon="37.3471080">
    <ele>4108.2</ele>
    <time>2026-06-22T07:50:46Z</time>
   </trkpt>
   <trkpt lat="-3.1039030" lon="37.3471020">
    <ele>4108.2</ele>
    <time>2026-06-22T07:50:47Z</time>
   </trkpt>
   <trkpt lat="-3.1039110" lon="37.3470980">
    <ele>4108.3</ele>
    <time>2026-06-22T07:50:48Z</time>
   </trkpt>
   <trkpt lat="-3.1039200" lon="37.3470920">
    <ele>4108.3</ele>
    <time>2026-06-22T07:50:49Z</time>
   </trkpt>
   <trkpt lat="-3.1039270" lon="37.3470900">
    <ele>4108.3</ele>
    <time>2026-06-22T07:50:50Z</time>
   </trkpt>
   <trkpt lat="-3.1039350" lon="37.3470850">
    <ele>4108.3</ele>
    <time>2026-06-22T07:50:51Z</time>
   </trkpt>
   <trkpt lat="-3.1039420" lon="37.3470800">
    <ele>4108.3</ele>
    <time>2026-06-22T07:50:52Z</time>
   </trkpt>
   <trkpt lat="-3.1039510" lon="37.3470750">
    <ele>4108.3</ele>
    <time>2026-06-22T07:50:53Z</time>
   </trkpt>
   <trkpt lat="-3.1039620" lon="37.3470700">
    <ele>4108.3</ele>
    <time>2026-06-22T07:50:54Z</time>
   </trkpt>
   <trkpt lat="-3.1039660" lon="37.3470660">
    <ele>4108.3</ele>
    <time>2026-06-22T07:50:55Z</time>
   </trkpt>
   <trkpt lat="-3.1039740" lon="37.3470560">
    <ele>4108.3</ele>
    <time>2026-06-22T07:50:56Z</time>
   </trkpt>
   <trkpt lat="-3.1039860" lon="37.3470500">
    <ele>4108.3</ele>
    <time>2026-06-22T07:50:57Z</time>
   </trkpt>
   <trkpt lat="-3.1039980" lon="37.3470510">
    <ele>4108.3</ele>
    <time>2026-06-22T07:50:58Z</time>
   </trkpt>
   <trkpt lat="-3.1040120" lon="37.3470520">
    <ele>4108.2</ele>
    <time>2026-06-22T07:50:59Z</time>
   </trkpt>
   <trkpt lat="-3.1040200" lon="37.3470490">
    <ele>4108.2</ele>
    <time>2026-06-22T07:51:00Z</time>
   </trkpt>
   <trkpt lat="-3.1040290" lon="37.3470440">
    <ele>4108.2</ele>
    <time>2026-06-22T07:51:01Z</time>
   </trkpt>
   <trkpt lat="-3.1040340" lon="37.3470390">
    <ele>4108.2</ele>
    <time>2026-06-22T07:51:02Z</time>
   </trkpt>
   <trkpt lat="-3.1040390" lon="37.3470340">
    <ele>4108.2</ele>
    <time>2026-06-22T07:51:03Z</time>
   </trkpt>
   <trkpt lat="-3.1040490" lon="37.3470290">
    <ele>4108.2</ele>
    <time>2026-06-22T07:51:04Z</time>
   </trkpt>
   <trkpt lat="-3.1040630" lon="37.3470210">
    <ele>4108.2</ele>
    <time>2026-06-22T07:51:05Z</time>
   </trkpt>
   <trkpt lat="-3.1040730" lon="37.3470220">
    <ele>4108.2</ele>
    <time>2026-06-22T07:51:06Z</time>
   </trkpt>
   <trkpt lat="-3.1040790" lon="37.3470170">
    <ele>4108.2</ele>
    <time>2026-06-22T07:51:07Z</time>
   </trkpt>
   <trkpt lat="-3.1040850" lon="37.3470190">
    <ele>4108.2</ele>
    <time>2026-06-22T07:51:08Z</time>
   </trkpt>
   <trkpt lat="-3.1040860" lon="37.3470300">
    <ele>4108.2</ele>
    <time>2026-06-22T07:51:09Z</time>
   </trkpt>
   <trkpt lat="-3.1040860" lon="37.3470390">
    <ele>4108.2</ele>
    <time>2026-06-22T07:51:10Z</time>
   </trkpt>
   <trkpt lat="-3.1040830" lon="37.3470410">
    <ele>4108.2</ele>
    <time>2026-06-22T07:51:11Z</time>
   </trkpt>
   <trkpt lat="-3.1040810" lon="37.3470340">
    <ele>4108.2</ele>
    <time>2026-06-22T07:51:12Z</time>
   </trkpt>
   <trkpt lat="-3.1040810" lon="37.3470310">
    <ele>4108.2</ele>
    <time>2026-06-22T07:51:13Z</time>
   </trkpt>
   <trkpt lat="-3.1040800" lon="37.3470400">
    <ele>4108.2</ele>
    <time>2026-06-22T07:51:14Z</time>
   </trkpt>
   <trkpt lat="-3.1040810" lon="37.3470310">
    <ele>4108.3</ele>
    <time>2026-06-22T07:51:15Z</time>
   </trkpt>
   <trkpt lat="-3.1040860" lon="37.3470270">
    <ele>4108.3</ele>
    <time>2026-06-22T07:51:16Z</time>
   </trkpt>
   <trkpt lat="-3.1040870" lon="37.3470260">
    <ele>4108.3</ele>
    <time>2026-06-22T07:51:17Z</time>
   </trkpt>
   <trkpt lat="-3.1040870" lon="37.3470260">
    <ele>4108.3</ele>
    <time>2026-06-22T07:51:18Z</time>
   </trkpt>
   <trkpt lat="-3.1040870" lon="37.3470260">
    <ele>4108.3</ele>
    <time>2026-06-22T07:51:19Z</time>
   </trkpt>
   <trkpt lat="-3.1040850" lon="37.3470240">
    <ele>4108.3</ele>
    <time>2026-06-22T07:51:20Z</time>
   </trkpt>
   <trkpt lat="-3.1040850" lon="37.3470230">
    <ele>4108.3</ele>
    <time>2026-06-22T07:51:21Z</time>
   </trkpt>
   <trkpt lat="-3.1040850" lon="37.3470230">
    <ele>4108.3</ele>
    <time>2026-06-22T07:51:22Z</time>
   </trkpt>
   <trkpt lat="-3.1040850" lon="37.3470230">
    <ele>4108.3</ele>
    <time>2026-06-22T07:51:23Z</time>
   </trkpt>
   <trkpt lat="-3.1040850" lon="37.3470230">
    <ele>4108.3</ele>
    <time>2026-06-22T07:51:24Z</time>
   </trkpt>
   <trkpt lat="-3.1040850" lon="37.3470230">
    <ele>4108.3</ele>
    <time>2026-06-22T07:51:25Z</time>
   </trkpt>
   <trkpt lat="-3.1040850" lon="37.3470230">
    <ele>4108.3</ele>
    <time>2026-06-22T07:51:26Z</time>
   </trkpt>
   <trkpt lat="-3.1040850" lon="37.3470230">
    <ele>4108.3</ele>
    <time>2026-06-22T07:51:27Z</time>
   </trkpt>
   <trkpt lat="-3.1040850" lon="37.3470230">
    <ele>4108.3</ele>
    <time>2026-06-22T07:51:28Z</time>
   </trkpt>
   <trkpt lat="-3.1040850" lon="37.3470230">
    <ele>4108.3</ele>
    <time>2026-06-22T07:51:29Z</time>
   </trkpt>
   <trkpt lat="-3.1040850" lon="37.3470230">
    <ele>4108.3</ele>
    <time>2026-06-22T07:51:30Z</time>
   </trkpt>
   <trkpt lat="-3.1040850" lon="37.3470230">
    <ele>4108.3</ele>
    <time>2026-06-22T07:51:31Z</time>
   </trkpt>
   <trkpt lat="-3.1040850" lon="37.3470230">
    <ele>4108.3</ele>
    <time>2026-06-22T07:51:32Z</time>
   </trkpt>
   <trkpt lat="-3.1040850" lon="37.3470230">
    <ele>4108.3</ele>
    <time>2026-06-22T07:51:33Z</time>
   </trkpt>
   <trkpt lat="-3.1040850" lon="37.3470230">
    <ele>4108.3</ele>
    <time>2026-06-22T07:51:34Z</time>
   </trkpt>
   <trkpt lat="-3.1040890" lon="37.3470290">
    <ele>4108.3</ele>
    <time>2026-06-22T07:51:35Z</time>
   </trkpt>
   <trkpt lat="-3.1040930" lon="37.3470240">
    <ele>4108.4</ele>
    <time>2026-06-22T07:51:36Z</time>
   </trkpt>
   <trkpt lat="-3.1040920" lon="37.3470210">
    <ele>4108.4</ele>
    <time>2026-06-22T07:51:37Z</time>
   </trkpt>
   <trkpt lat="-3.1040930" lon="37.3470170">
    <ele>4108.4</ele>
    <time>2026-06-22T07:51:38Z</time>
   </trkpt>
   <trkpt lat="-3.1040920" lon="37.3470170">
    <ele>4108.4</ele>
    <time>2026-06-22T07:51:39Z</time>
   </trkpt>
   <trkpt lat="-3.1040920" lon="37.3470180">
    <ele>4108.4</ele>
    <time>2026-06-22T07:51:40Z</time>
   </trkpt>
   <trkpt lat="-3.1040910" lon="37.3470180">
    <ele>4108.4</ele>
    <time>2026-06-22T07:51:41Z</time>
   </trkpt>
   <trkpt lat="-3.1040910" lon="37.3470210">
    <ele>4108.4</ele>
    <time>2026-06-22T07:51:42Z</time>
   </trkpt>
   <trkpt lat="-3.1040890" lon="37.3470220">
    <ele>4108.4</ele>
    <time>2026-06-22T07:51:43Z</time>
   </trkpt>
   <trkpt lat="-3.1040890" lon="37.3470240">
    <ele>4108.4</ele>
    <time>2026-06-22T07:51:44Z</time>
   </trkpt>
   <trkpt lat="-3.1040880" lon="37.3470240">
    <ele>4108.4</ele>
    <time>2026-06-22T07:51:45Z</time>
   </trkpt>
   <trkpt lat="-3.1040890" lon="37.3470270">
    <ele>4108.4</ele>
    <time>2026-06-22T07:51:46Z</time>
   </trkpt>
   <trkpt lat="-3.1040880" lon="37.3470220">
    <ele>4108.4</ele>
    <time>2026-06-22T07:51:47Z</time>
   </trkpt>
   <trkpt lat="-3.1040890" lon="37.3470260">
    <ele>4108.5</ele>
    <time>2026-06-22T07:51:48Z</time>
   </trkpt>
   <trkpt lat="-3.1040880" lon="37.3470290">
    <ele>4108.5</ele>
    <time>2026-06-22T07:51:49Z</time>
   </trkpt>
   <trkpt lat="-3.1040860" lon="37.3470250">
    <ele>4108.5</ele>
    <time>2026-06-22T07:51:50Z</time>
   </trkpt>
   <trkpt lat="-3.1040880" lon="37.3470260">
    <ele>4108.5</ele>
    <time>2026-06-22T07:51:51Z</time>
   </trkpt>
   <trkpt lat="-3.1040870" lon="37.3470240">
    <ele>4108.5</ele>
    <time>2026-06-22T07:51:52Z</time>
   </trkpt>
   <trkpt lat="-3.1040890" lon="37.3470240">
    <ele>4108.5</ele>
    <time>2026-06-22T07:51:53Z</time>
   </trkpt>
   <trkpt lat="-3.1040890" lon="37.3470210">
    <ele>4108.6</ele>
    <time>2026-06-22T07:51:54Z</time>
   </trkpt>
   <trkpt lat="-3.1040900" lon="37.3470210">
    <ele>4108.6</ele>
    <time>2026-06-22T07:51:55Z</time>
   </trkpt>
   <trkpt lat="-3.1040890" lon="37.3470200">
    <ele>4108.6</ele>
    <time>2026-06-22T07:51:56Z</time>
   </trkpt>
   <trkpt lat="-3.1040870" lon="37.3470240">
    <ele>4108.6</ele>
    <time>2026-06-22T07:51:57Z</time>
   </trkpt>
   <trkpt lat="-3.1040880" lon="37.3470220">
    <ele>4108.6</ele>
    <time>2026-06-22T07:51:58Z</time>
   </trkpt>
   <trkpt lat="-3.1040890" lon="37.3470210">
    <ele>4108.6</ele>
    <time>2026-06-22T07:51:59Z</time>
   </trkpt>
   <trkpt lat="-3.1040900" lon="37.3470210">
    <ele>4108.6</ele>
    <time>2026-06-22T07:52:00Z</time>
   </trkpt>
   <trkpt lat="-3.1040890" lon="37.3470210">
    <ele>4108.6</ele>
    <time>2026-06-22T07:52:01Z</time>
   </trkpt>
   <trkpt lat="-3.1040900" lon="37.3470210">
    <ele>4108.6</ele>
    <time>2026-06-22T07:52:02Z</time>
   </trkpt>
   <trkpt lat="-3.1040880" lon="37.3470230">
    <ele>4108.6</ele>
    <time>2026-06-22T07:52:03Z</time>
   </trkpt>
   <trkpt lat="-3.1040880" lon="37.3470210">
    <ele>4108.7</ele>
    <time>2026-06-22T07:52:04Z</time>
   </trkpt>
   <trkpt lat="-3.1040890" lon="37.3470190">
    <ele>4108.7</ele>
    <time>2026-06-22T07:52:05Z</time>
   </trkpt>
   <trkpt lat="-3.1040910" lon="37.3470180">
    <ele>4108.7</ele>
    <time>2026-06-22T07:52:06Z</time>
   </trkpt>
   <trkpt lat="-3.1040920" lon="37.3470190">
    <ele>4108.7</ele>
    <time>2026-06-22T07:52:07Z</time>
   </trkpt>
   <trkpt lat="-3.1040920" lon="37.3470170">
    <ele>4108.7</ele>
    <time>2026-06-22T07:52:08Z</time>
   </trkpt>
   <trkpt lat="-3.1040930" lon="37.3470160">
    <ele>4108.7</ele>
    <time>2026-06-22T07:52:09Z</time>
   </trkpt>
   <trkpt lat="-3.1040920" lon="37.3470170">
    <ele>4108.7</ele>
    <time>2026-06-22T07:52:10Z</time>
   </trkpt>
   <trkpt lat="-3.1040930" lon="37.3470170">
    <ele>4108.7</ele>
    <time>2026-06-22T07:52:11Z</time>
   </trkpt>
   <trkpt lat="-3.1040920" lon="37.3470170">
    <ele>4108.7</ele>
    <time>2026-06-22T07:52:12Z</time>
   </trkpt>
   <trkpt lat="-3.1040920" lon="37.3470160">
    <ele>4108.7</ele>
    <time>2026-06-22T07:52:13Z</time>
   </trkpt>
   <trkpt lat="-3.1040920" lon="37.3470170">
    <ele>4108.7</ele>
    <time>2026-06-22T07:52:14Z</time>
   </trkpt>
   <trkpt lat="-3.1040920" lon="37.3470160">
    <ele>4108.7</ele>
    <time>2026-06-22T07:52:15Z</time>
   </trkpt>
   <trkpt lat="-3.1040920" lon="37.3470160">
    <ele>4108.7</ele>
    <time>2026-06-22T07:52:16Z</time>
   </trkpt>
   <trkpt lat="-3.1040910" lon="37.3470150">
    <ele>4108.7</ele>
    <time>2026-06-22T07:52:17Z</time>
   </trkpt>
   <trkpt lat="-3.1040900" lon="37.3470150">
    <ele>4108.8</ele>
    <time>2026-06-22T07:52:18Z</time>
   </trkpt>
   <trkpt lat="-3.1040900" lon="37.3470150">
    <ele>4108.8</ele>
    <time>2026-06-22T07:52:19Z</time>
   </trkpt>
   <trkpt lat="-3.1040910" lon="37.3470150">
    <ele>4108.8</ele>
    <time>2026-06-22T07:52:20Z</time>
   </trkpt>
   <trkpt lat="-3.1040910" lon="37.3470150">
    <ele>4108.8</ele>
    <time>2026-06-22T07:52:21Z</time>
   </trkpt>
   <trkpt lat="-3.1040900" lon="37.3470160">
    <ele>4108.8</ele>
    <time>2026-06-22T07:52:22Z</time>
   </trkpt>
   <trkpt lat="-3.1040910" lon="37.3470160">
    <ele>4108.8</ele>
    <time>2026-06-22T07:52:23Z</time>
   </trkpt>
   <trkpt lat="-3.1040880" lon="37.3470120">
    <ele>4108.8</ele>
    <time>2026-06-22T07:52:24Z</time>
   </trkpt>
   <trkpt lat="-3.1040840" lon="37.3470100">
    <ele>4108.8</ele>
    <time>2026-06-22T07:52:25Z</time>
   </trkpt>
   <trkpt lat="-3.1040820" lon="37.3470030">
    <ele>4108.9</ele>
    <time>2026-06-22T07:52:26Z</time>
   </trkpt>
   <trkpt lat="-3.1040800" lon="37.3469980">
    <ele>4108.9</ele>
    <time>2026-06-22T07:52:27Z</time>
   </trkpt>
   <trkpt lat="-3.1040790" lon="37.3469950">
    <ele>4108.9</ele>
    <time>2026-06-22T07:52:28Z</time>
   </trkpt>
   <trkpt lat="-3.1040800" lon="37.3469990">
    <ele>4108.9</ele>
    <time>2026-06-22T07:52:29Z</time>
   </trkpt>
   <trkpt lat="-3.1040780" lon="37.3469990">
    <ele>4108.9</ele>
    <time>2026-06-22T07:52:30Z</time>
   </trkpt>
   <trkpt lat="-3.1040770" lon="37.3470000">
    <ele>4108.9</ele>
    <time>2026-06-22T07:52:31Z</time>
   </trkpt>
   <trkpt lat="-3.1040770" lon="37.3470010">
    <ele>4109.0</ele>
    <time>2026-06-22T07:52:32Z</time>
   </trkpt>
   <trkpt lat="-3.1040760" lon="37.3470030">
    <ele>4109.0</ele>
    <time>2026-06-22T07:52:33Z</time>
   </trkpt>
   <trkpt lat="-3.1040770" lon="37.3470030">
    <ele>4109.0</ele>
    <time>2026-06-22T07:52:34Z</time>
   </trkpt>
   <trkpt lat="-3.1040770" lon="37.3470030">
    <ele>4109.0</ele>
    <time>2026-06-22T07:52:35Z</time>
   </trkpt>
   <trkpt lat="-3.1040770" lon="37.3470080">
    <ele>4109.0</ele>
    <time>2026-06-22T07:52:36Z</time>
   </trkpt>
   <trkpt lat="-3.1040770" lon="37.3470080">
    <ele>4109.0</ele>
    <time>2026-06-22T07:52:37Z</time>
   </trkpt>
   <trkpt lat="-3.1040760" lon="37.3470100">
    <ele>4109.0</ele>
    <time>2026-06-22T07:52:38Z</time>
   </trkpt>
   <trkpt lat="-3.1040760" lon="37.3470110">
    <ele>4109.0</ele>
    <time>2026-06-22T07:52:39Z</time>
   </trkpt>
   <trkpt lat="-3.1040760" lon="37.3470120">
    <ele>4109.0</ele>
    <time>2026-06-22T07:52:40Z</time>
   </trkpt>
   <trkpt lat="-3.1040760" lon="37.3470120">
    <ele>4109.0</ele>
    <time>2026-06-22T07:52:41Z</time>
   </trkpt>
   <trkpt lat="-3.1040780" lon="37.3470140">
    <ele>4109.0</ele>
    <time>2026-06-22T07:52:42Z</time>
   </trkpt>
   <trkpt lat="-3.1040770" lon="37.3470150">
    <ele>4109.0</ele>
    <time>2026-06-22T07:52:43Z</time>
   </trkpt>
   <trkpt lat="-3.1040770" lon="37.3470150">
    <ele>4109.0</ele>
    <time>2026-06-22T07:52:44Z</time>
   </trkpt>
   <trkpt lat="-3.1040730" lon="37.3470200">
    <ele>4109.1</ele>
    <time>2026-06-22T07:52:45Z</time>
   </trkpt>
   <trkpt lat="-3.1040680" lon="37.3470250">
    <ele>4109.1</ele>
    <time>2026-06-22T07:52:46Z</time>
   </trkpt>
   <trkpt lat="-3.1040580" lon="37.3470280">
    <ele>4109.1</ele>
    <time>2026-06-22T07:52:47Z</time>
   </trkpt>
   <trkpt lat="-3.1040510" lon="37.3470310">
    <ele>4109.2</ele>
    <time>2026-06-22T07:52:48Z</time>
   </trkpt>
   <trkpt lat="-3.1040400" lon="37.3470330">
    <ele>4109.2</ele>
    <time>2026-06-22T07:52:49Z</time>
   </trkpt>
   <trkpt lat="-3.1040320" lon="37.3470320">
    <ele>4109.2</ele>
    <time>2026-06-22T07:52:50Z</time>
   </trkpt>
   <trkpt lat="-3.1040220" lon="37.3470360">
    <ele>4109.2</ele>
    <time>2026-06-22T07:52:51Z</time>
   </trkpt>
   <trkpt lat="-3.1040130" lon="37.3470380">
    <ele>4109.3</ele>
    <time>2026-06-22T07:52:52Z</time>
   </trkpt>
   <trkpt lat="-3.1040080" lon="37.3470350">
    <ele>4109.3</ele>
    <time>2026-06-22T07:52:53Z</time>
   </trkpt>
   <trkpt lat="-3.1039990" lon="37.3470370">
    <ele>4109.3</ele>
    <time>2026-06-22T07:52:54Z</time>
   </trkpt>
   <trkpt lat="-3.1039900" lon="37.3470400">
    <ele>4109.3</ele>
    <time>2026-06-22T07:52:55Z</time>
   </trkpt>
   <trkpt lat="-3.1039800" lon="37.3470340">
    <ele>4109.3</ele>
    <time>2026-06-22T07:52:56Z</time>
   </trkpt>
   <trkpt lat="-3.1039720" lon="37.3470410">
    <ele>4109.3</ele>
    <time>2026-06-22T07:52:57Z</time>
   </trkpt>
   <trkpt lat="-3.1039670" lon="37.3470480">
    <ele>4109.3</ele>
    <time>2026-06-22T07:52:58Z</time>
   </trkpt>
   <trkpt lat="-3.1039610" lon="37.3470510">
    <ele>4109.3</ele>
    <time>2026-06-22T07:52:59Z</time>
   </trkpt>
   <trkpt lat="-3.1039530" lon="37.3470560">
    <ele>4109.2</ele>
    <time>2026-06-22T07:53:00Z</time>
   </trkpt>
   <trkpt lat="-3.1039460" lon="37.3470550">
    <ele>4109.2</ele>
    <time>2026-06-22T07:53:01Z</time>
   </trkpt>
   <trkpt lat="-3.1039400" lon="37.3470540">
    <ele>4109.2</ele>
    <time>2026-06-22T07:53:02Z</time>
   </trkpt>
   <trkpt lat="-3.1039310" lon="37.3470560">
    <ele>4109.2</ele>
    <time>2026-06-22T07:53:03Z</time>
   </trkpt>
   <trkpt lat="-3.1039260" lon="37.3470570">
    <ele>4109.2</ele>
    <time>2026-06-22T07:53:04Z</time>
   </trkpt>
   <trkpt lat="-3.1039240" lon="37.3470600">
    <ele>4109.2</ele>
    <time>2026-06-22T07:53:05Z</time>
   </trkpt>
   <trkpt lat="-3.1039200" lon="37.3470660">
    <ele>4109.2</ele>
    <time>2026-06-22T07:53:06Z</time>
   </trkpt>
   <trkpt lat="-3.1039140" lon="37.3470730">
    <ele>4109.1</ele>
    <time>2026-06-22T07:53:07Z</time>
   </trkpt>
   <trkpt lat="-3.1039130" lon="37.3470760">
    <ele>4109.1</ele>
    <time>2026-06-22T07:53:08Z</time>
   </trkpt>
   <trkpt lat="-3.1039110" lon="37.3470850">
    <ele>4109.1</ele>
    <time>2026-06-22T07:53:09Z</time>
   </trkpt>
   <trkpt lat="-3.1039090" lon="37.3470900">
    <ele>4109.1</ele>
    <time>2026-06-22T07:53:10Z</time>
   </trkpt>
   <trkpt lat="-3.1039050" lon="37.3470930">
    <ele>4109.1</ele>
    <time>2026-06-22T07:53:11Z</time>
   </trkpt>
   <trkpt lat="-3.1039010" lon="37.3470940">
    <ele>4109.1</ele>
    <time>2026-06-22T07:53:12Z</time>
   </trkpt>
   <trkpt lat="-3.1038940" lon="37.3470950">
    <ele>4109.0</ele>
    <time>2026-06-22T07:53:13Z</time>
   </trkpt>
   <trkpt lat="-3.1038890" lon="37.3470970">
    <ele>4109.0</ele>
    <time>2026-06-22T07:53:14Z</time>
   </trkpt>
   <trkpt lat="-3.1038860" lon="37.3471040">
    <ele>4109.0</ele>
    <time>2026-06-22T07:53:15Z</time>
   </trkpt>
   <trkpt lat="-3.1038810" lon="37.3471080">
    <ele>4109.0</ele>
    <time>2026-06-22T07:53:16Z</time>
   </trkpt>
   <trkpt lat="-3.1038790" lon="37.3471060">
    <ele>4109.0</ele>
    <time>2026-06-22T07:53:17Z</time>
   </trkpt>
   <trkpt lat="-3.1038820" lon="37.3471030">
    <ele>4108.9</ele>
    <time>2026-06-22T07:53:18Z</time>
   </trkpt>
   <trkpt lat="-3.1038820" lon="37.3471020">
    <ele>4108.9</ele>
    <time>2026-06-22T07:53:19Z</time>
   </trkpt>
   <trkpt lat="-3.1038830" lon="37.3471010">
    <ele>4108.9</ele>
    <time>2026-06-22T07:53:20Z</time>
   </trkpt>
   <trkpt lat="-3.1038840" lon="37.3471010">
    <ele>4108.9</ele>
    <time>2026-06-22T07:53:21Z</time>
   </trkpt>
   <trkpt lat="-3.1038840" lon="37.3470990">
    <ele>4108.9</ele>
    <time>2026-06-22T07:53:22Z</time>
   </trkpt>
   <trkpt lat="-3.1038830" lon="37.3471000">
    <ele>4108.9</ele>
    <time>2026-06-22T07:53:23Z</time>
   </trkpt>
   <trkpt lat="-3.1038810" lon="37.3471020">
    <ele>4108.9</ele>
    <time>2026-06-22T07:53:24Z</time>
   </trkpt>
   <trkpt lat="-3.1038730" lon="37.3471060">
    <ele>4108.9</ele>
    <time>2026-06-22T07:53:25Z</time>
   </trkpt>
   <trkpt lat="-3.1038670" lon="37.3471070">
    <ele>4108.8</ele>
    <time>2026-06-22T07:53:26Z</time>
   </trkpt>
   <trkpt lat="-3.1038600" lon="37.3471080">
    <ele>4108.8</ele>
    <time>2026-06-22T07:53:27Z</time>
   </trkpt>
   <trkpt lat="-3.1038500" lon="37.3471140">
    <ele>4108.7</ele>
    <time>2026-06-22T07:53:28Z</time>
   </trkpt>
   <trkpt lat="-3.1038470" lon="37.3471200">
    <ele>4108.7</ele>
    <time>2026-06-22T07:53:29Z</time>
   </trkpt>
   <trkpt lat="-3.1038480" lon="37.3471220">
    <ele>4108.7</ele>
    <time>2026-06-22T07:53:30Z</time>
   </trkpt>
   <trkpt lat="-3.1038470" lon="37.3471250">
    <ele>4108.7</ele>
    <time>2026-06-22T07:53:31Z</time>
   </trkpt>
   <trkpt lat="-3.1038500" lon="37.3471250">
    <ele>4108.7</ele>
    <time>2026-06-22T07:53:32Z</time>
   </trkpt>
   <trkpt lat="-3.1038490" lon="37.3471240">
    <ele>4108.7</ele>
    <time>2026-06-22T07:53:33Z</time>
   </trkpt>
   <trkpt lat="-3.1038450" lon="37.3471260">
    <ele>4108.6</ele>
    <time>2026-06-22T07:53:34Z</time>
   </trkpt>
   <trkpt lat="-3.1038450" lon="37.3471260">
    <ele>4108.6</ele>
    <time>2026-06-22T07:53:35Z</time>
   </trkpt>
   <trkpt lat="-3.1038460" lon="37.3471280">
    <ele>4108.6</ele>
    <time>2026-06-22T07:53:36Z</time>
   </trkpt>
   <trkpt lat="-3.1038420" lon="37.3471360">
    <ele>4108.6</ele>
    <time>2026-06-22T07:53:37Z</time>
   </trkpt>
   <trkpt lat="-3.1038360" lon="37.3471400">
    <ele>4108.5</ele>
    <time>2026-06-22T07:53:38Z</time>
   </trkpt>
   <trkpt lat="-3.1038330" lon="37.3471410">
    <ele>4108.5</ele>
    <time>2026-06-22T07:53:39Z</time>
   </trkpt>
   <trkpt lat="-3.1038290" lon="37.3471460">
    <ele>4108.5</ele>
    <time>2026-06-22T07:53:40Z</time>
   </trkpt>
   <trkpt lat="-3.1038320" lon="37.3471450">
    <ele>4108.5</ele>
    <time>2026-06-22T07:53:41Z</time>
   </trkpt>
   <trkpt lat="-3.1038300" lon="37.3471480">
    <ele>4108.4</ele>
    <time>2026-06-22T07:53:42Z</time>
   </trkpt>
   <trkpt lat="-3.1038290" lon="37.3471510">
    <ele>4108.4</ele>
    <time>2026-06-22T07:53:43Z</time>
   </trkpt>
   <trkpt lat="-3.1038300" lon="37.3471480">
    <ele>4108.4</ele>
    <time>2026-06-22T07:53:44Z</time>
   </trkpt>
   <trkpt lat="-3.1038280" lon="37.3471470">
    <ele>4108.4</ele>
    <time>2026-06-22T07:53:45Z</time>
   </trkpt>
   <trkpt lat="-3.1038270" lon="37.3471400">
    <ele>4108.3</ele>
    <time>2026-06-22T07:53:46Z</time>
   </trkpt>
   <trkpt lat="-3.1038280" lon="37.3471330">
    <ele>4108.3</ele>
    <time>2026-06-22T07:53:47Z</time>
   </trkpt>
   <trkpt lat="-3.1038290" lon="37.3471300">
    <ele>4108.3</ele>
    <time>2026-06-22T07:53:48Z</time>
   </trkpt>
   <trkpt lat="-3.1038300" lon="37.3471310">
    <ele>4108.2</ele>
    <time>2026-06-22T07:53:49Z</time>
   </trkpt>
   <trkpt lat="-3.1038290" lon="37.3471370">
    <ele>4108.2</ele>
    <time>2026-06-22T07:53:50Z</time>
   </trkpt>
   <trkpt lat="-3.1038300" lon="37.3471350">
    <ele>4108.2</ele>
    <time>2026-06-22T07:53:51Z</time>
   </trkpt>
   <trkpt lat="-3.1038290" lon="37.3471340">
    <ele>4108.2</ele>
    <time>2026-06-22T07:53:52Z</time>
   </trkpt>
   <trkpt lat="-3.1038290" lon="37.3471300">
    <ele>4108.1</ele>
    <time>2026-06-22T07:53:53Z</time>
   </trkpt>
   <trkpt lat="-3.1038280" lon="37.3471330">
    <ele>4108.1</ele>
    <time>2026-06-22T07:53:54Z</time>
   </trkpt>
   <trkpt lat="-3.1038300" lon="37.3471290">
    <ele>4108.1</ele>
    <time>2026-06-22T07:53:55Z</time>
   </trkpt>
   <trkpt lat="-3.1038290" lon="37.3471320">
    <ele>4108.1</ele>
    <time>2026-06-22T07:53:56Z</time>
   </trkpt>
   <trkpt lat="-3.1038310" lon="37.3471310">
    <ele>4108.0</ele>
    <time>2026-06-22T07:53:57Z</time>
   </trkpt>
   <trkpt lat="-3.1038310" lon="37.3471310">
    <ele>4108.0</ele>
    <time>2026-06-22T07:53:58Z</time>
   </trkpt>
   <trkpt lat="-3.1038310" lon="37.3471310">
    <ele>4108.0</ele>
    <time>2026-06-22T07:53:59Z</time>
   </trkpt>
   <trkpt lat="-3.1038300" lon="37.3471350">
    <ele>4108.0</ele>
    <time>2026-06-22T07:54:00Z</time>
   </trkpt>
   <trkpt lat="-3.1038320" lon="37.3471320">
    <ele>4108.0</ele>
    <time>2026-06-22T07:54:01Z</time>
   </trkpt>
   <trkpt lat="-3.1038310" lon="37.3471340">
    <ele>4107.9</ele>
    <time>2026-06-22T07:54:02Z</time>
   </trkpt>
   <trkpt lat="-3.1038310" lon="37.3471340">
    <ele>4107.9</ele>
    <time>2026-06-22T07:54:03Z</time>
   </trkpt>
   <trkpt lat="-3.1038320" lon="37.3471340">
    <ele>4107.9</ele>
    <time>2026-06-22T07:54:04Z</time>
   </trkpt>
   <trkpt lat="-3.1038320" lon="37.3471360">
    <ele>4107.9</ele>
    <time>2026-06-22T07:54:05Z</time>
   </trkpt>
   <trkpt lat="-3.1038320" lon="37.3471370">
    <ele>4107.9</ele>
    <time>2026-06-22T07:54:06Z</time>
   </trkpt>
   <trkpt lat="-3.1038340" lon="37.3471370">
    <ele>4107.9</ele>
    <time>2026-06-22T07:54:07Z</time>
   </trkpt>
   <trkpt lat="-3.1038340" lon="37.3471380">
    <ele>4107.9</ele>
    <time>2026-06-22T07:54:08Z</time>
   </trkpt>
   <trkpt lat="-3.1038330" lon="37.3471350">
    <ele>4107.8</ele>
    <time>2026-06-22T07:54:09Z</time>
   </trkpt>
   <trkpt lat="-3.1038350" lon="37.3471350">
    <ele>4107.8</ele>
    <time>2026-06-22T07:54:10Z</time>
   </trkpt>
   <trkpt lat="-3.1038340" lon="37.3471340">
    <ele>4107.8</ele>
    <time>2026-06-22T07:54:11Z</time>
   </trkpt>
   <trkpt lat="-3.1038340" lon="37.3471320">
    <ele>4107.8</ele>
    <time>2026-06-22T07:54:12Z</time>
   </trkpt>
   <trkpt lat="-3.1038470" lon="37.3471250">
    <ele>4107.6</ele>
    <time>2026-06-22T07:54:13Z</time>
   </trkpt>
   <trkpt lat="-3.1038360" lon="37.3471430">
    <ele>4107.4</ele>
    <time>2026-06-22T07:54:14Z</time>
   </trkpt>
   <trkpt lat="-3.1038360" lon="37.3471450">
    <ele>4107.4</ele>
    <time>2026-06-22T07:54:15Z</time>
   </trkpt>
   <trkpt lat="-3.1038380" lon="37.3471450">
    <ele>4107.4</ele>
    <time>2026-06-22T07:54:16Z</time>
   </trkpt>
   <trkpt lat="-3.1038420" lon="37.3471450">
    <ele>4107.3</ele>
    <time>2026-06-22T07:54:17Z</time>
   </trkpt>
   <trkpt lat="-3.1038450" lon="37.3471450">
    <ele>4107.3</ele>
    <time>2026-06-22T07:54:18Z</time>
   </trkpt>
   <trkpt lat="-3.1038490" lon="37.3471450">
    <ele>4107.2</ele>
    <time>2026-06-22T07:54:19Z</time>
   </trkpt>
   <trkpt lat="-3.1038530" lon="37.3471410">
    <ele>4107.2</ele>
    <time>2026-06-22T07:54:20Z</time>
   </trkpt>
   <trkpt lat="-3.1038560" lon="37.3471420">
    <ele>4107.1</ele>
    <time>2026-06-22T07:54:21Z</time>
   </trkpt>
   <trkpt lat="-3.1038620" lon="37.3471400">
    <ele>4107.1</ele>
    <time>2026-06-22T07:54:22Z</time>
   </trkpt>
   <trkpt lat="-3.1038620" lon="37.3471420">
    <ele>4107.0</ele>
    <time>2026-06-22T07:54:23Z</time>
   </trkpt>
   <trkpt lat="-3.1038630" lon="37.3471400">
    <ele>4107.0</ele>
    <time>2026-06-22T07:54:24Z</time>
   </trkpt>
   <trkpt lat="-3.1038660" lon="37.3471350">
    <ele>4106.9</ele>
    <time>2026-06-22T07:54:25Z</time>
   </trkpt>
   <trkpt lat="-3.1038680" lon="37.3471310">
    <ele>4106.9</ele>
    <time>2026-06-22T07:54:26Z</time>
   </trkpt>
   <trkpt lat="-3.1038750" lon="37.3471300">
    <ele>4106.8</ele>
    <time>2026-06-22T07:54:27Z</time>
   </trkpt>
   <trkpt lat="-3.1038820" lon="37.3471310">
    <ele>4106.7</ele>
    <time>2026-06-22T07:54:28Z</time>
   </trkpt>
   <trkpt lat="-3.1038890" lon="37.3471310">
    <ele>4106.6</ele>
    <time>2026-06-22T07:54:29Z</time>
   </trkpt>
   <trkpt lat="-3.1038930" lon="37.3471290">
    <ele>4106.6</ele>
    <time>2026-06-22T07:54:30Z</time>
   </trkpt>
   <trkpt lat="-3.1038990" lon="37.3471310">
    <ele>4106.5</ele>
    <time>2026-06-22T07:54:31Z</time>
   </trkpt>
   <trkpt lat="-3.1039060" lon="37.3471300">
    <ele>4106.4</ele>
    <time>2026-06-22T07:54:32Z</time>
   </trkpt>
   <trkpt lat="-3.1039110" lon="37.3471330">
    <ele>4106.3</ele>
    <time>2026-06-22T07:54:33Z</time>
   </trkpt>
   <trkpt lat="-3.1039140" lon="37.3471360">
    <ele>4106.3</ele>
    <time>2026-06-22T07:54:34Z</time>
   </trkpt>
   <trkpt lat="-3.1039160" lon="37.3471370">
    <ele>4106.2</ele>
    <time>2026-06-22T07:54:35Z</time>
   </trkpt>
   <trkpt lat="-3.1039200" lon="37.3471380">
    <ele>4106.2</ele>
    <time>2026-06-22T07:54:36Z</time>
   </trkpt>
   <trkpt lat="-3.1039230" lon="37.3471470">
    <ele>4106.0</ele>
    <time>2026-06-22T07:54:37Z</time>
   </trkpt>
   <trkpt lat="-3.1039310" lon="37.3471490">
    <ele>4105.9</ele>
    <time>2026-06-22T07:54:38Z</time>
   </trkpt>
   <trkpt lat="-3.1039330" lon="37.3471520">
    <ele>4105.9</ele>
    <time>2026-06-22T07:54:39Z</time>
   </trkpt>
   <trkpt lat="-3.1039360" lon="37.3471550">
    <ele>4105.8</ele>
    <time>2026-06-22T07:54:40Z</time>
   </trkpt>
   <trkpt lat="-3.1039420" lon="37.3471580">
    <ele>4105.7</ele>
    <time>2026-06-22T07:54:41Z</time>
   </trkpt>
   <trkpt lat="-3.1039430" lon="37.3471590">
    <ele>4105.7</ele>
    <time>2026-06-22T07:54:42Z</time>
   </trkpt>
   <trkpt lat="-3.1039480" lon="37.3471630">
    <ele>4105.6</ele>
    <time>2026-06-22T07:54:43Z</time>
   </trkpt>
   <trkpt lat="-3.1039580" lon="37.3471690">
    <ele>4105.4</ele>
    <time>2026-06-22T07:54:44Z</time>
   </trkpt>
   <trkpt lat="-3.1039650" lon="37.3471710">
    <ele>4105.3</ele>
    <time>2026-06-22T07:54:45Z</time>
   </trkpt>
   <trkpt lat="-3.1039660" lon="37.3471660">
    <ele>4105.3</ele>
    <time>2026-06-22T07:54:46Z</time>
   </trkpt>
   <trkpt lat="-3.1039720" lon="37.3471580">
    <ele>4105.1</ele>
    <time>2026-06-22T07:54:47Z</time>
   </trkpt>
   <trkpt lat="-3.1039760" lon="37.3471530">
    <ele>4105.0</ele>
    <time>2026-06-22T07:54:48Z</time>
   </trkpt>
   <trkpt lat="-3.1039840" lon="37.3471540">
    <ele>4104.9</ele>
    <time>2026-06-22T07:54:49Z</time>
   </trkpt>
   <trkpt lat="-3.1039910" lon="37.3471540">
    <ele>4104.8</ele>
    <time>2026-06-22T07:54:50Z</time>
   </trkpt>
   <trkpt lat="-3.1040010" lon="37.3471540">
    <ele>4104.7</ele>
    <time>2026-06-22T07:54:51Z</time>
   </trkpt>
   <trkpt lat="-3.1040050" lon="37.3471560">
    <ele>4104.6</ele>
    <time>2026-06-22T07:54:52Z</time>
   </trkpt>
   <trkpt lat="-3.1040110" lon="37.3471590">
    <ele>4104.5</ele>
    <time>2026-06-22T07:54:53Z</time>
   </trkpt>
   <trkpt lat="-3.1040180" lon="37.3471600">
    <ele>4104.4</ele>
    <time>2026-06-22T07:54:54Z</time>
   </trkpt>
   <trkpt lat="-3.1040230" lon="37.3471630">
    <ele>4104.3</ele>
    <time>2026-06-22T07:54:55Z</time>
   </trkpt>
   <trkpt lat="-3.1040250" lon="37.3471610">
    <ele>4104.3</ele>
    <time>2026-06-22T07:54:56Z</time>
   </trkpt>
   <trkpt lat="-3.1040290" lon="37.3471580">
    <ele>4104.2</ele>
    <time>2026-06-22T07:54:57Z</time>
   </trkpt>
   <trkpt lat="-3.1040340" lon="37.3471550">
    <ele>4104.2</ele>
    <time>2026-06-22T07:54:58Z</time>
   </trkpt>
   <trkpt lat="-3.1040390" lon="37.3471510">
    <ele>4104.1</ele>
    <time>2026-06-22T07:54:59Z</time>
   </trkpt>
   <trkpt lat="-3.1040430" lon="37.3471490">
    <ele>4104.0</ele>
    <time>2026-06-22T07:55:00Z</time>
   </trkpt>
   <trkpt lat="-3.1040460" lon="37.3471490">
    <ele>4104.0</ele>
    <time>2026-06-22T07:55:01Z</time>
   </trkpt>
   <trkpt lat="-3.1040530" lon="37.3471480">
    <ele>4103.9</ele>
    <time>2026-06-22T07:55:02Z</time>
   </trkpt>
   <trkpt lat="-3.1040580" lon="37.3471500">
    <ele>4103.8</ele>
    <time>2026-06-22T07:55:03Z</time>
   </trkpt>
   <trkpt lat="-3.1040640" lon="37.3471540">
    <ele>4103.7</ele>
    <time>2026-06-22T07:55:04Z</time>
   </trkpt>
   <trkpt lat="-3.1040680" lon="37.3471580">
    <ele>4103.6</ele>
    <time>2026-06-22T07:55:05Z</time>
   </trkpt>
   <trkpt lat="-3.1040680" lon="37.3471590">
    <ele>4103.6</ele>
    <time>2026-06-22T07:55:06Z</time>
   </trkpt>
   <trkpt lat="-3.1040680" lon="37.3471590">
    <ele>4103.6</ele>
    <time>2026-06-22T07:55:07Z</time>
   </trkpt>
   <trkpt lat="-3.1040690" lon="37.3471570">
    <ele>4103.6</ele>
    <time>2026-06-22T07:55:08Z</time>
   </trkpt>
   <trkpt lat="-3.1040690" lon="37.3471570">
    <ele>4103.6</ele>
    <time>2026-06-22T07:55:09Z</time>
   </trkpt>
   <trkpt lat="-3.1040690" lon="37.3471560">
    <ele>4103.6</ele>
    <time>2026-06-22T07:55:10Z</time>
   </trkpt>
   <trkpt lat="-3.1040710" lon="37.3471570">
    <ele>4103.5</ele>
    <time>2026-06-22T07:55:11Z</time>
   </trkpt>
   <trkpt lat="-3.1040710" lon="37.3471570">
    <ele>4103.5</ele>
    <time>2026-06-22T07:55:12Z</time>
   </trkpt>
   <trkpt lat="-3.1040750" lon="37.3471560">
    <ele>4103.5</ele>
    <time>2026-06-22T07:55:13Z</time>
   </trkpt>
   <trkpt lat="-3.1040840" lon="37.3471520">
    <ele>4103.4</ele>
    <time>2026-06-22T07:55:14Z</time>
   </trkpt>
   <trkpt lat="-3.1040910" lon="37.3471490">
    <ele>4103.3</ele>
    <time>2026-06-22T07:55:15Z</time>
   </trkpt>
   <trkpt lat="-3.1040990" lon="37.3471440">
    <ele>4103.1</ele>
    <time>2026-06-22T07:55:16Z</time>
   </trkpt>
   <trkpt lat="-3.1041080" lon="37.3471410">
    <ele>4103.0</ele>
    <time>2026-06-22T07:55:17Z</time>
   </trkpt>
   <trkpt lat="-3.1041120" lon="37.3471420">
    <ele>4103.0</ele>
    <time>2026-06-22T07:55:18Z</time>
   </trkpt>
   <trkpt lat="-3.1041210" lon="37.3471450">
    <ele>4102.8</ele>
    <time>2026-06-22T07:55:19Z</time>
   </trkpt>
   <trkpt lat="-3.1041320" lon="37.3471500">
    <ele>4102.7</ele>
    <time>2026-06-22T07:55:20Z</time>
   </trkpt>
   <trkpt lat="-3.1041410" lon="37.3471540">
    <ele>4102.6</ele>
    <time>2026-06-22T07:55:21Z</time>
   </trkpt>
   <trkpt lat="-3.1041450" lon="37.3471570">
    <ele>4102.5</ele>
    <time>2026-06-22T07:55:22Z</time>
   </trkpt>
   <trkpt lat="-3.1041560" lon="37.3471590">
    <ele>4102.4</ele>
    <time>2026-06-22T07:55:23Z</time>
   </trkpt>
   <trkpt lat="-3.1041660" lon="37.3471590">
    <ele>4102.3</ele>
    <time>2026-06-22T07:55:24Z</time>
   </trkpt>
   <trkpt lat="-3.1041710" lon="37.3471610">
    <ele>4102.2</ele>
    <time>2026-06-22T07:55:25Z</time>
   </trkpt>
   <trkpt lat="-3.1041770" lon="37.3471670">
    <ele>4102.1</ele>
    <time>2026-06-22T07:55:26Z</time>
   </trkpt>
   <trkpt lat="-3.1041770" lon="37.3471690">
    <ele>4102.1</ele>
    <time>2026-06-22T07:55:27Z</time>
   </trkpt>
   <trkpt lat="-3.1041730" lon="37.3471700">
    <ele>4102.0</ele>
    <time>2026-06-22T07:55:28Z</time>
   </trkpt>
   <trkpt lat="-3.1041700" lon="37.3471690">
    <ele>4102.0</ele>
    <time>2026-06-22T07:55:29Z</time>
   </trkpt>
   <trkpt lat="-3.1041690" lon="37.3471690">
    <ele>4102.0</ele>
    <time>2026-06-22T07:55:30Z</time>
   </trkpt>
   <trkpt lat="-3.1041690" lon="37.3471680">
    <ele>4102.0</ele>
    <time>2026-06-22T07:55:31Z</time>
   </trkpt>
   <trkpt lat="-3.1041680" lon="37.3471700">
    <ele>4101.9</ele>
    <time>2026-06-22T07:55:32Z</time>
   </trkpt>
   <trkpt lat="-3.1041710" lon="37.3471710">
    <ele>4101.9</ele>
    <time>2026-06-22T07:55:33Z</time>
   </trkpt>
   <trkpt lat="-3.1041800" lon="37.3471740">
    <ele>4101.8</ele>
    <time>2026-06-22T07:55:34Z</time>
   </trkpt>
   <trkpt lat="-3.1041850" lon="37.3471800">
    <ele>4101.7</ele>
    <time>2026-06-22T07:55:35Z</time>
   </trkpt>
   <trkpt lat="-3.1041920" lon="37.3471840">
    <ele>4101.6</ele>
    <time>2026-06-22T07:55:36Z</time>
   </trkpt>
   <trkpt lat="-3.1041990" lon="37.3471890">
    <ele>4101.5</ele>
    <time>2026-06-22T07:55:37Z</time>
   </trkpt>
   <trkpt lat="-3.1042030" lon="37.3471920">
    <ele>4101.5</ele>
    <time>2026-06-22T07:55:38Z</time>
   </trkpt>
   <trkpt lat="-3.1042090" lon="37.3471950">
    <ele>4101.4</ele>
    <time>2026-06-22T07:55:39Z</time>
   </trkpt>
   <trkpt lat="-3.1042130" lon="37.3471940">
    <ele>4101.4</ele>
    <time>2026-06-22T07:55:40Z</time>
   </trkpt>
   <trkpt lat="-3.1042170" lon="37.3471960">
    <ele>4101.3</ele>
    <time>2026-06-22T07:55:41Z</time>
   </trkpt>
   <trkpt lat="-3.1042180" lon="37.3471970">
    <ele>4101.3</ele>
    <time>2026-06-22T07:55:42Z</time>
   </trkpt>
   <trkpt lat="-3.1042200" lon="37.3472020">
    <ele>4101.3</ele>
    <time>2026-06-22T07:55:43Z</time>
   </trkpt>
   <trkpt lat="-3.1042220" lon="37.3472030">
    <ele>4101.2</ele>
    <time>2026-06-22T07:55:44Z</time>
   </trkpt>
   <trkpt lat="-3.1042290" lon="37.3472080">
    <ele>4101.2</ele>
    <time>2026-06-22T07:55:45Z</time>
   </trkpt>
   <trkpt lat="-3.1042290" lon="37.3472130">
    <ele>4101.1</ele>
    <time>2026-06-22T07:55:46Z</time>
   </trkpt>
   <trkpt lat="-3.1042360" lon="37.3472200">
    <ele>4101.0</ele>
    <time>2026-06-22T07:55:47Z</time>
   </trkpt>
   <trkpt lat="-3.1042430" lon="37.3472220">
    <ele>4100.9</ele>
    <time>2026-06-22T07:55:48Z</time>
   </trkpt>
   <trkpt lat="-3.1042510" lon="37.3472220">
    <ele>4100.9</ele>
    <time>2026-06-22T07:55:49Z</time>
   </trkpt>
   <trkpt lat="-3.1042660" lon="37.3472200">
    <ele>4100.7</ele>
    <time>2026-06-22T07:55:50Z</time>
   </trkpt>
   <trkpt lat="-3.1042810" lon="37.3472160">
    <ele>4100.6</ele>
    <time>2026-06-22T07:55:51Z</time>
   </trkpt>
   <trkpt lat="-3.1042880" lon="37.3472160">
    <ele>4100.5</ele>
    <time>2026-06-22T07:55:52Z</time>
   </trkpt>
   <trkpt lat="-3.1042980" lon="37.3472190">
    <ele>4100.4</ele>
    <time>2026-06-22T07:55:53Z</time>
   </trkpt>
   <trkpt lat="-3.1043090" lon="37.3472200">
    <ele>4100.3</ele>
    <time>2026-06-22T07:55:54Z</time>
   </trkpt>
   <trkpt lat="-3.1043180" lon="37.3472230">
    <ele>4100.2</ele>
    <time>2026-06-22T07:55:55Z</time>
   </trkpt>
   <trkpt lat="-3.1043280" lon="37.3472280">
    <ele>4100.1</ele>
    <time>2026-06-22T07:55:56Z</time>
   </trkpt>
   <trkpt lat="-3.1043340" lon="37.3472320">
    <ele>4100.1</ele>
    <time>2026-06-22T07:55:57Z</time>
   </trkpt>
   <trkpt lat="-3.1043400" lon="37.3472430">
    <ele>4100.0</ele>
    <time>2026-06-22T07:55:58Z</time>
   </trkpt>
   <trkpt lat="-3.1043510" lon="37.3472460">
    <ele>4099.9</ele>
    <time>2026-06-22T07:55:59Z</time>
   </trkpt>
   <trkpt lat="-3.1043580" lon="37.3472360">
    <ele>4099.8</ele>
    <time>2026-06-22T07:56:00Z</time>
   </trkpt>
   <trkpt lat="-3.1043690" lon="37.3472300">
    <ele>4099.7</ele>
    <time>2026-06-22T07:56:01Z</time>
   </trkpt>
   <trkpt lat="-3.1043790" lon="37.3472250">
    <ele>4099.7</ele>
    <time>2026-06-22T07:56:02Z</time>
   </trkpt>
   <trkpt lat="-3.1043880" lon="37.3472210">
    <ele>4099.6</ele>
    <time>2026-06-22T07:56:03Z</time>
   </trkpt>
   <trkpt lat="-3.1043910" lon="37.3472250">
    <ele>4099.6</ele>
    <time>2026-06-22T07:56:04Z</time>
   </trkpt>
   <trkpt lat="-3.1044020" lon="37.3472330">
    <ele>4099.6</ele>
    <time>2026-06-22T07:56:05Z</time>
   </trkpt>
   <trkpt lat="-3.1044090" lon="37.3472370">
    <ele>4099.5</ele>
    <time>2026-06-22T07:56:06Z</time>
   </trkpt>
   <trkpt lat="-3.1044160" lon="37.3472350">
    <ele>4099.5</ele>
    <time>2026-06-22T07:56:07Z</time>
   </trkpt>
   <trkpt lat="-3.1044200" lon="37.3472300">
    <ele>4099.5</ele>
    <time>2026-06-22T07:56:08Z</time>
   </trkpt>
   <trkpt lat="-3.1044290" lon="37.3472280">
    <ele>4099.4</ele>
    <time>2026-06-22T07:56:09Z</time>
   </trkpt>
   <trkpt lat="-3.1044330" lon="37.3472270">
    <ele>4099.4</ele>
    <time>2026-06-22T07:56:10Z</time>
   </trkpt>
   <trkpt lat="-3.1044390" lon="37.3472310">
    <ele>4099.4</ele>
    <time>2026-06-22T07:56:11Z</time>
   </trkpt>
   <trkpt lat="-3.1044430" lon="37.3472410">
    <ele>4099.4</ele>
    <time>2026-06-22T07:56:12Z</time>
   </trkpt>
   <trkpt lat="-3.1044470" lon="37.3472500">
    <ele>4099.4</ele>
    <time>2026-06-22T07:56:13Z</time>
   </trkpt>
   <trkpt lat="-3.1044490" lon="37.3472460">
    <ele>4099.4</ele>
    <time>2026-06-22T07:56:14Z</time>
   </trkpt>
   <trkpt lat="-3.1044590" lon="37.3472440">
    <ele>4099.3</ele>
    <time>2026-06-22T07:56:15Z</time>
   </trkpt>
   <trkpt lat="-3.1044670" lon="37.3472430">
    <ele>4099.3</ele>
    <time>2026-06-22T07:56:16Z</time>
   </trkpt>
   <trkpt lat="-3.1044700" lon="37.3472490">
    <ele>4099.3</ele>
    <time>2026-06-22T07:56:17Z</time>
   </trkpt>
   <trkpt lat="-3.1044720" lon="37.3472540">
    <ele>4099.3</ele>
    <time>2026-06-22T07:56:18Z</time>
   </trkpt>
   <trkpt lat="-3.1044820" lon="37.3472550">
    <ele>4099.3</ele>
    <time>2026-06-22T07:56:19Z</time>
   </trkpt>
   <trkpt lat="-3.1044910" lon="37.3472600">
    <ele>4099.3</ele>
    <time>2026-06-22T07:56:20Z</time>
   </trkpt>
   <trkpt lat="-3.1044960" lon="37.3472660">
    <ele>4099.3</ele>
    <time>2026-06-22T07:56:21Z</time>
   </trkpt>
   <trkpt lat="-3.1045030" lon="37.3472710">
    <ele>4099.3</ele>
    <time>2026-06-22T07:56:22Z</time>
   </trkpt>
   <trkpt lat="-3.1045120" lon="37.3472780">
    <ele>4099.4</ele>
    <time>2026-06-22T07:56:23Z</time>
   </trkpt>
   <trkpt lat="-3.1045220" lon="37.3472780">
    <ele>4099.4</ele>
    <time>2026-06-22T07:56:24Z</time>
   </trkpt>
   <trkpt lat="-3.1045300" lon="37.3472800">
    <ele>4099.4</ele>
    <time>2026-06-22T07:56:25Z</time>
   </trkpt>
   <trkpt lat="-3.1045360" lon="37.3472800">
    <ele>4099.4</ele>
    <time>2026-06-22T07:56:26Z</time>
   </trkpt>
   <trkpt lat="-3.1045490" lon="37.3472830">
    <ele>4099.4</ele>
    <time>2026-06-22T07:56:27Z</time>
   </trkpt>
   <trkpt lat="-3.1045610" lon="37.3472830">
    <ele>4099.4</ele>
    <time>2026-06-22T07:56:28Z</time>
   </trkpt>
   <trkpt lat="-3.1045680" lon="37.3472770">
    <ele>4099.5</ele>
    <time>2026-06-22T07:56:29Z</time>
   </trkpt>
   <trkpt lat="-3.1045750" lon="37.3472760">
    <ele>4099.5</ele>
    <time>2026-06-22T07:56:30Z</time>
   </trkpt>
   <trkpt lat="-3.1045830" lon="37.3472770">
    <ele>4099.5</ele>
    <time>2026-06-22T07:56:31Z</time>
   </trkpt>
   <trkpt lat="-3.1045900" lon="37.3472780">
    <ele>4099.5</ele>
    <time>2026-06-22T07:56:32Z</time>
   </trkpt>
   <trkpt lat="-3.1045980" lon="37.3472810">
    <ele>4099.5</ele>
    <time>2026-06-22T07:56:33Z</time>
   </trkpt>
   <trkpt lat="-3.1046040" lon="37.3472820">
    <ele>4099.5</ele>
    <time>2026-06-22T07:56:34Z</time>
   </trkpt>
   <trkpt lat="-3.1046160" lon="37.3472840">
    <ele>4099.6</ele>
    <time>2026-06-22T07:56:35Z</time>
   </trkpt>
   <trkpt lat="-3.1046230" lon="37.3472860">
    <ele>4099.6</ele>
    <time>2026-06-22T07:56:36Z</time>
   </trkpt>
   <trkpt lat="-3.1046340" lon="37.3472890">
    <ele>4099.6</ele>
    <time>2026-06-22T07:56:37Z</time>
   </trkpt>
   <trkpt lat="-3.1046420" lon="37.3472930">
    <ele>4099.6</ele>
    <time>2026-06-22T07:56:38Z</time>
   </trkpt>
   <trkpt lat="-3.1046500" lon="37.3472990">
    <ele>4099.7</ele>
    <time>2026-06-22T07:56:39Z</time>
   </trkpt>
   <trkpt lat="-3.1046610" lon="37.3473010">
    <ele>4099.7</ele>
    <time>2026-06-22T07:56:40Z</time>
   </trkpt>
   <trkpt lat="-3.1046740" lon="37.3473020">
    <ele>4099.7</ele>
    <time>2026-06-22T07:56:41Z</time>
   </trkpt>
   <trkpt lat="-3.1046850" lon="37.3472980">
    <ele>4099.7</ele>
    <time>2026-06-22T07:56:42Z</time>
   </trkpt>
   <trkpt lat="-3.1046930" lon="37.3473010">
    <ele>4099.7</ele>
    <time>2026-06-22T07:56:43Z</time>
   </trkpt>
   <trkpt lat="-3.1046980" lon="37.3473040">
    <ele>4099.7</ele>
    <time>2026-06-22T07:56:44Z</time>
   </trkpt>
   <trkpt lat="-3.1047000" lon="37.3473050">
    <ele>4099.7</ele>
    <time>2026-06-22T07:56:45Z</time>
   </trkpt>
   <trkpt lat="-3.1047080" lon="37.3473050">
    <ele>4099.7</ele>
    <time>2026-06-22T07:56:46Z</time>
   </trkpt>
   <trkpt lat="-3.1047090" lon="37.3473020">
    <ele>4099.7</ele>
    <time>2026-06-22T07:56:47Z</time>
   </trkpt>
   <trkpt lat="-3.1047130" lon="37.3472990">
    <ele>4099.7</ele>
    <time>2026-06-22T07:56:48Z</time>
   </trkpt>
   <trkpt lat="-3.1047090" lon="37.3473000">
    <ele>4099.7</ele>
    <time>2026-06-22T07:56:49Z</time>
   </trkpt>
   <trkpt lat="-3.1047110" lon="37.3473010">
    <ele>4099.7</ele>
    <time>2026-06-22T07:56:50Z</time>
   </trkpt>
   <trkpt lat="-3.1047130" lon="37.3473010">
    <ele>4099.7</ele>
    <time>2026-06-22T07:56:51Z</time>
   </trkpt>
   <trkpt lat="-3.1047130" lon="37.3473000">
    <ele>4099.7</ele>
    <time>2026-06-22T07:56:52Z</time>
   </trkpt>
   <trkpt lat="-3.1047120" lon="37.3473010">
    <ele>4099.7</ele>
    <time>2026-06-22T07:56:53Z</time>
   </trkpt>
   <trkpt lat="-3.1047110" lon="37.3473020">
    <ele>4099.7</ele>
    <time>2026-06-22T07:56:54Z</time>
   </trkpt>
   <trkpt lat="-3.1047110" lon="37.3473030">
    <ele>4099.7</ele>
    <time>2026-06-22T07:56:55Z</time>
   </trkpt>
   <trkpt lat="-3.1047100" lon="37.3473050">
    <ele>4099.7</ele>
    <time>2026-06-22T07:56:56Z</time>
   </trkpt>
   <trkpt lat="-3.1047080" lon="37.3473070">
    <ele>4099.7</ele>
    <time>2026-06-22T07:56:57Z</time>
   </trkpt>
   <trkpt lat="-3.1047070" lon="37.3473120">
    <ele>4099.8</ele>
    <time>2026-06-22T07:56:58Z</time>
   </trkpt>
   <trkpt lat="-3.1047080" lon="37.3473120">
    <ele>4099.8</ele>
    <time>2026-06-22T07:56:59Z</time>
   </trkpt>
   <trkpt lat="-3.1047220" lon="37.3473140">
    <ele>4099.8</ele>
    <time>2026-06-22T07:57:00Z</time>
   </trkpt>
   <trkpt lat="-3.1047290" lon="37.3473160">
    <ele>4099.8</ele>
    <time>2026-06-22T07:57:01Z</time>
   </trkpt>
   <trkpt lat="-3.1047320" lon="37.3473170">
    <ele>4099.8</ele>
    <time>2026-06-22T07:57:02Z</time>
   </trkpt>
   <trkpt lat="-3.1047380" lon="37.3473150">
    <ele>4099.8</ele>
    <time>2026-06-22T07:57:03Z</time>
   </trkpt>
   <trkpt lat="-3.1047440" lon="37.3473180">
    <ele>4099.8</ele>
    <time>2026-06-22T07:57:04Z</time>
   </trkpt>
   <trkpt lat="-3.1047500" lon="37.3473200">
    <ele>4099.8</ele>
    <time>2026-06-22T07:57:05Z</time>
   </trkpt>
   <trkpt lat="-3.1047540" lon="37.3473230">
    <ele>4099.8</ele>
    <time>2026-06-22T07:57:06Z</time>
   </trkpt>
   <trkpt lat="-3.1047590" lon="37.3473220">
    <ele>4099.8</ele>
    <time>2026-06-22T07:57:07Z</time>
   </trkpt>
   <trkpt lat="-3.1047630" lon="37.3473200">
    <ele>4099.8</ele>
    <time>2026-06-22T07:57:08Z</time>
   </trkpt>
   <trkpt lat="-3.1047710" lon="37.3473240">
    <ele>4099.8</ele>
    <time>2026-06-22T07:57:09Z</time>
   </trkpt>
   <trkpt lat="-3.1047800" lon="37.3473240">
    <ele>4099.8</ele>
    <time>2026-06-22T07:57:10Z</time>
   </trkpt>
   <trkpt lat="-3.1047850" lon="37.3473240">
    <ele>4099.8</ele>
    <time>2026-06-22T07:57:11Z</time>
   </trkpt>
   <trkpt lat="-3.1047860" lon="37.3473230">
    <ele>4099.8</ele>
    <time>2026-06-22T07:57:12Z</time>
   </trkpt>
   <trkpt lat="-3.1047910" lon="37.3473200">
    <ele>4099.8</ele>
    <time>2026-06-22T07:57:13Z</time>
   </trkpt>
   <trkpt lat="-3.1047950" lon="37.3473180">
    <ele>4099.8</ele>
    <time>2026-06-22T07:57:14Z</time>
   </trkpt>
   <trkpt lat="-3.1047980" lon="37.3473150">
    <ele>4099.9</ele>
    <time>2026-06-22T07:57:15Z</time>
   </trkpt>
   <trkpt lat="-3.1047970" lon="37.3473160">
    <ele>4099.9</ele>
    <time>2026-06-22T07:57:16Z</time>
   </trkpt>
   <trkpt lat="-3.1048090" lon="37.3473140">
    <ele>4099.9</ele>
    <time>2026-06-22T07:57:17Z</time>
   </trkpt>
   <trkpt lat="-3.1048190" lon="37.3473130">
    <ele>4099.9</ele>
    <time>2026-06-22T07:57:18Z</time>
   </trkpt>
   <trkpt lat="-3.1048230" lon="37.3473130">
    <ele>4099.9</ele>
    <time>2026-06-22T07:57:19Z</time>
   </trkpt>
   <trkpt lat="-3.1048230" lon="37.3473100">
    <ele>4099.9</ele>
    <time>2026-06-22T07:57:20Z</time>
   </trkpt>
   <trkpt lat="-3.1048280" lon="37.3473090">
    <ele>4099.9</ele>
    <time>2026-06-22T07:57:21Z</time>
   </trkpt>
   <trkpt lat="-3.1048320" lon="37.3473070">
    <ele>4099.9</ele>
    <time>2026-06-22T07:57:22Z</time>
   </trkpt>
   <trkpt lat="-3.1048370" lon="37.3473080">
    <ele>4099.9</ele>
    <time>2026-06-22T07:57:23Z</time>
   </trkpt>
   <trkpt lat="-3.1048390" lon="37.3473060">
    <ele>4099.9</ele>
    <time>2026-06-22T07:57:24Z</time>
   </trkpt>
   <trkpt lat="-3.1048420" lon="37.3473080">
    <ele>4100.0</ele>
    <time>2026-06-22T07:57:25Z</time>
   </trkpt>
   <trkpt lat="-3.1048410" lon="37.3473080">
    <ele>4100.0</ele>
    <time>2026-06-22T07:57:26Z</time>
   </trkpt>
   <trkpt lat="-3.1048410" lon="37.3473080">
    <ele>4100.0</ele>
    <time>2026-06-22T07:57:27Z</time>
   </trkpt>
   <trkpt lat="-3.1048410" lon="37.3473080">
    <ele>4100.0</ele>
    <time>2026-06-22T07:57:28Z</time>
   </trkpt>
   <trkpt lat="-3.1048410" lon="37.3473080">
    <ele>4100.0</ele>
    <time>2026-06-22T07:57:29Z</time>
   </trkpt>
   <trkpt lat="-3.1048450" lon="37.3473050">
    <ele>4100.0</ele>
    <time>2026-06-22T07:57:30Z</time>
   </trkpt>
   <trkpt lat="-3.1048530" lon="37.3473020">
    <ele>4100.0</ele>
    <time>2026-06-22T07:57:31Z</time>
   </trkpt>
   <trkpt lat="-3.1048600" lon="37.3473000">
    <ele>4100.0</ele>
    <time>2026-06-22T07:57:32Z</time>
   </trkpt>
   <trkpt lat="-3.1048600" lon="37.3473030">
    <ele>4100.0</ele>
    <time>2026-06-22T07:57:33Z</time>
   </trkpt>
   <trkpt lat="-3.1048590" lon="37.3473010">
    <ele>4100.0</ele>
    <time>2026-06-22T07:57:34Z</time>
   </trkpt>
   <trkpt lat="-3.1048620" lon="37.3473020">
    <ele>4100.0</ele>
    <time>2026-06-22T07:57:35Z</time>
   </trkpt>
   <trkpt lat="-3.1048670" lon="37.3472990">
    <ele>4100.1</ele>
    <time>2026-06-22T07:57:36Z</time>
   </trkpt>
   <trkpt lat="-3.1048720" lon="37.3472990">
    <ele>4100.1</ele>
    <time>2026-06-22T07:57:37Z</time>
   </trkpt>
   <trkpt lat="-3.1048800" lon="37.3472910">
    <ele>4100.1</ele>
    <time>2026-06-22T07:57:38Z</time>
   </trkpt>
   <trkpt lat="-3.1048860" lon="37.3472850">
    <ele>4100.2</ele>
    <time>2026-06-22T07:57:39Z</time>
   </trkpt>
   <trkpt lat="-3.1048880" lon="37.3472820">
    <ele>4100.2</ele>
    <time>2026-06-22T07:57:40Z</time>
   </trkpt>
   <trkpt lat="-3.1048950" lon="37.3472770">
    <ele>4100.2</ele>
    <time>2026-06-22T07:57:41Z</time>
   </trkpt>
   <trkpt lat="-3.1048990" lon="37.3472770">
    <ele>4100.2</ele>
    <time>2026-06-22T07:57:42Z</time>
   </trkpt>
   <trkpt lat="-3.1049050" lon="37.3472710">
    <ele>4100.3</ele>
    <time>2026-06-22T07:57:43Z</time>
   </trkpt>
   <trkpt lat="-3.1049090" lon="37.3472620">
    <ele>4100.3</ele>
    <time>2026-06-22T07:57:44Z</time>
   </trkpt>
   <trkpt lat="-3.1049180" lon="37.3472520">
    <ele>4100.4</ele>
    <time>2026-06-22T07:57:45Z</time>
   </trkpt>
   <trkpt lat="-3.1049230" lon="37.3472520">
    <ele>4100.4</ele>
    <time>2026-06-22T07:57:46Z</time>
   </trkpt>
   <trkpt lat="-3.1049280" lon="37.3472520">
    <ele>4100.5</ele>
    <time>2026-06-22T07:57:47Z</time>
   </trkpt>
   <trkpt lat="-3.1049380" lon="37.3472520">
    <ele>4100.5</ele>
    <time>2026-06-22T07:57:48Z</time>
   </trkpt>
   <trkpt lat="-3.1049470" lon="37.3472490">
    <ele>4100.6</ele>
    <time>2026-06-22T07:57:49Z</time>
   </trkpt>
   <trkpt lat="-3.1049550" lon="37.3472470">
    <ele>4100.6</ele>
    <time>2026-06-22T07:57:50Z</time>
   </trkpt>
   <trkpt lat="-3.1049640" lon="37.3472410">
    <ele>4100.7</ele>
    <time>2026-06-22T07:57:51Z</time>
   </trkpt>
   <trkpt lat="-3.1049660" lon="37.3472370">
    <ele>4100.7</ele>
    <time>2026-06-22T07:57:52Z</time>
   </trkpt>
   <trkpt lat="-3.1049700" lon="37.3472330">
    <ele>4100.8</ele>
    <time>2026-06-22T07:57:53Z</time>
   </trkpt>
   <trkpt lat="-3.1049760" lon="37.3472300">
    <ele>4100.8</ele>
    <time>2026-06-22T07:57:54Z</time>
   </trkpt>
   <trkpt lat="-3.1049810" lon="37.3472270">
    <ele>4100.8</ele>
    <time>2026-06-22T07:57:55Z</time>
   </trkpt>
   <trkpt lat="-3.1049890" lon="37.3472270">
    <ele>4100.9</ele>
    <time>2026-06-22T07:57:56Z</time>
   </trkpt>
   <trkpt lat="-3.1049950" lon="37.3472310">
    <ele>4101.0</ele>
    <time>2026-06-22T07:57:57Z</time>
   </trkpt>
   <trkpt lat="-3.1050030" lon="37.3472330">
    <ele>4101.0</ele>
    <time>2026-06-22T07:57:58Z</time>
   </trkpt>
   <trkpt lat="-3.1050080" lon="37.3472350">
    <ele>4101.1</ele>
    <time>2026-06-22T07:57:59Z</time>
   </trkpt>
   <trkpt lat="-3.1050120" lon="37.3472390">
    <ele>4101.1</ele>
    <time>2026-06-22T07:58:00Z</time>
   </trkpt>
   <trkpt lat="-3.1050190" lon="37.3472420">
    <ele>4101.2</ele>
    <time>2026-06-22T07:58:01Z</time>
   </trkpt>
   <trkpt lat="-3.1050230" lon="37.3472430">
    <ele>4101.2</ele>
    <time>2026-06-22T07:58:02Z</time>
   </trkpt>
   <trkpt lat="-3.1050300" lon="37.3472430">
    <ele>4101.3</ele>
    <time>2026-06-22T07:58:03Z</time>
   </trkpt>
   <trkpt lat="-3.1050340" lon="37.3472410">
    <ele>4101.3</ele>
    <time>2026-06-22T07:58:04Z</time>
   </trkpt>
   <trkpt lat="-3.1050410" lon="37.3472390">
    <ele>4101.4</ele>
    <time>2026-06-22T07:58:05Z</time>
   </trkpt>
   <trkpt lat="-3.1050460" lon="37.3472350">
    <ele>4101.5</ele>
    <time>2026-06-22T07:58:06Z</time>
   </trkpt>
   <trkpt lat="-3.1050500" lon="37.3472350">
    <ele>4101.5</ele>
    <time>2026-06-22T07:58:07Z</time>
   </trkpt>
   <trkpt lat="-3.1050540" lon="37.3472360">
    <ele>4101.5</ele>
    <time>2026-06-22T07:58:08Z</time>
   </trkpt>
   <trkpt lat="-3.1050610" lon="37.3472370">
    <ele>4101.6</ele>
    <time>2026-06-22T07:58:09Z</time>
   </trkpt>
   <trkpt lat="-3.1050680" lon="37.3472370">
    <ele>4101.7</ele>
    <time>2026-06-22T07:58:10Z</time>
   </trkpt>
   <trkpt lat="-3.1050750" lon="37.3472380">
    <ele>4101.7</ele>
    <time>2026-06-22T07:58:11Z</time>
   </trkpt>
   <trkpt lat="-3.1050810" lon="37.3472380">
    <ele>4101.8</ele>
    <time>2026-06-22T07:58:12Z</time>
   </trkpt>
   <trkpt lat="-3.1050870" lon="37.3472400">
    <ele>4101.9</ele>
    <time>2026-06-22T07:58:13Z</time>
   </trkpt>
   <trkpt lat="-3.1050930" lon="37.3472410">
    <ele>4101.9</ele>
    <time>2026-06-22T07:58:14Z</time>
   </trkpt>
   <trkpt lat="-3.1051010" lon="37.3472420">
    <ele>4102.0</ele>
    <time>2026-06-22T07:58:15Z</time>
   </trkpt>
   <trkpt lat="-3.1051060" lon="37.3472430">
    <ele>4102.1</ele>
    <time>2026-06-22T07:58:16Z</time>
   </trkpt>
   <trkpt lat="-3.1051120" lon="37.3472430">
    <ele>4102.2</ele>
    <time>2026-06-22T07:58:17Z</time>
   </trkpt>
   <trkpt lat="-3.1051180" lon="37.3472440">
    <ele>4102.2</ele>
    <time>2026-06-22T07:58:18Z</time>
   </trkpt>
   <trkpt lat="-3.1051250" lon="37.3472450">
    <ele>4102.3</ele>
    <time>2026-06-22T07:58:19Z</time>
   </trkpt>
   <trkpt lat="-3.1051310" lon="37.3472460">
    <ele>4102.4</ele>
    <time>2026-06-22T07:58:20Z</time>
   </trkpt>
   <trkpt lat="-3.1051360" lon="37.3472470">
    <ele>4102.4</ele>
    <time>2026-06-22T07:58:21Z</time>
   </trkpt>
   <trkpt lat="-3.1051400" lon="37.3472510">
    <ele>4102.5</ele>
    <time>2026-06-22T07:58:22Z</time>
   </trkpt>
   <trkpt lat="-3.1051430" lon="37.3472540">
    <ele>4102.6</ele>
    <time>2026-06-22T07:58:23Z</time>
   </trkpt>
   <trkpt lat="-3.1051410" lon="37.3472570">
    <ele>4102.6</ele>
    <time>2026-06-22T07:58:24Z</time>
   </trkpt>
   <trkpt lat="-3.1051520" lon="37.3472570">
    <ele>4102.8</ele>
    <time>2026-06-22T07:58:25Z</time>
   </trkpt>
   <trkpt lat="-3.1051570" lon="37.3472540">
    <ele>4102.8</ele>
    <time>2026-06-22T07:58:26Z</time>
   </trkpt>
   <trkpt lat="-3.1051600" lon="37.3472510">
    <ele>4102.9</ele>
    <time>2026-06-22T07:58:27Z</time>
   </trkpt>
   <trkpt lat="-3.1051640" lon="37.3472460">
    <ele>4103.0</ele>
    <time>2026-06-22T07:58:28Z</time>
   </trkpt>
   <trkpt lat="-3.1051680" lon="37.3472420">
    <ele>4103.0</ele>
    <time>2026-06-22T07:58:29Z</time>
   </trkpt>
   <trkpt lat="-3.1051730" lon="37.3472390">
    <ele>4103.1</ele>
    <time>2026-06-22T07:58:30Z</time>
   </trkpt>
   <trkpt lat="-3.1051790" lon="37.3472360">
    <ele>4103.2</ele>
    <time>2026-06-22T07:58:31Z</time>
   </trkpt>
   <trkpt lat="-3.1051850" lon="37.3472340">
    <ele>4103.3</ele>
    <time>2026-06-22T07:58:32Z</time>
   </trkpt>
   <trkpt lat="-3.1051900" lon="37.3472330">
    <ele>4103.4</ele>
    <time>2026-06-22T07:58:33Z</time>
   </trkpt>
   <trkpt lat="-3.1051940" lon="37.3472320">
    <ele>4103.4</ele>
    <time>2026-06-22T07:58:34Z</time>
   </trkpt>
   <trkpt lat="-3.1052000" lon="37.3472290">
    <ele>4103.5</ele>
    <time>2026-06-22T07:58:35Z</time>
   </trkpt>
   <trkpt lat="-3.1052040" lon="37.3472270">
    <ele>4103.6</ele>
    <time>2026-06-22T07:58:36Z</time>
   </trkpt>
   <trkpt lat="-3.1052110" lon="37.3472230">
    <ele>4103.7</ele>
    <time>2026-06-22T07:58:37Z</time>
   </trkpt>
   <trkpt lat="-3.1052150" lon="37.3472200">
    <ele>4103.7</ele>
    <time>2026-06-22T07:58:38Z</time>
   </trkpt>
   <trkpt lat="-3.1052210" lon="37.3472170">
    <ele>4103.8</ele>
    <time>2026-06-22T07:58:39Z</time>
   </trkpt>
   <trkpt lat="-3.1052260" lon="37.3472150">
    <ele>4103.9</ele>
    <time>2026-06-22T07:58:40Z</time>
   </trkpt>
   <trkpt lat="-3.1052330" lon="37.3472150">
    <ele>4104.0</ele>
    <time>2026-06-22T07:58:41Z</time>
   </trkpt>
   <trkpt lat="-3.1052380" lon="37.3472160">
    <ele>4104.1</ele>
    <time>2026-06-22T07:58:42Z</time>
   </trkpt>
   <trkpt lat="-3.1052440" lon="37.3472160">
    <ele>4104.2</ele>
    <time>2026-06-22T07:58:43Z</time>
   </trkpt>
   <trkpt lat="-3.1052490" lon="37.3472180">
    <ele>4104.2</ele>
    <time>2026-06-22T07:58:44Z</time>
   </trkpt>
   <trkpt lat="-3.1052550" lon="37.3472180">
    <ele>4104.3</ele>
    <time>2026-06-22T07:58:45Z</time>
   </trkpt>
   <trkpt lat="-3.1052600" lon="37.3472190">
    <ele>4104.4</ele>
    <time>2026-06-22T07:58:46Z</time>
   </trkpt>
   <trkpt lat="-3.1052650" lon="37.3472170">
    <ele>4104.5</ele>
    <time>2026-06-22T07:58:47Z</time>
   </trkpt>
   <trkpt lat="-3.1052710" lon="37.3472160">
    <ele>4104.5</ele>
    <time>2026-06-22T07:58:48Z</time>
   </trkpt>
   <trkpt lat="-3.1052760" lon="37.3472140">
    <ele>4104.6</ele>
    <time>2026-06-22T07:58:49Z</time>
   </trkpt>
   <trkpt lat="-3.1052810" lon="37.3472140">
    <ele>4104.7</ele>
    <time>2026-06-22T07:58:50Z</time>
   </trkpt>
   <trkpt lat="-3.1052880" lon="37.3472120">
    <ele>4104.8</ele>
    <time>2026-06-22T07:58:51Z</time>
   </trkpt>
   <trkpt lat="-3.1052930" lon="37.3472130">
    <ele>4104.9</ele>
    <time>2026-06-22T07:58:52Z</time>
   </trkpt>
   <trkpt lat="-3.1052980" lon="37.3472120">
    <ele>4104.9</ele>
    <time>2026-06-22T07:58:53Z</time>
   </trkpt>
   <trkpt lat="-3.1053030" lon="37.3472110">
    <ele>4105.0</ele>
    <time>2026-06-22T07:58:54Z</time>
   </trkpt>
   <trkpt lat="-3.1053180" lon="37.3471960">
    <ele>4105.3</ele>
    <time>2026-06-22T07:58:55Z</time>
   </trkpt>
   <trkpt lat="-3.1053160" lon="37.3472060">
    <ele>4105.5</ele>
    <time>2026-06-22T07:58:56Z</time>
   </trkpt>
   <trkpt lat="-3.1053190" lon="37.3472080">
    <ele>4105.5</ele>
    <time>2026-06-22T07:58:57Z</time>
   </trkpt>
   <trkpt lat="-3.1053240" lon="37.3472040">
    <ele>4105.6</ele>
    <time>2026-06-22T07:58:58Z</time>
   </trkpt>
   <trkpt lat="-3.1053260" lon="37.3472010">
    <ele>4105.6</ele>
    <time>2026-06-22T07:58:59Z</time>
   </trkpt>
   <trkpt lat="-3.1053290" lon="37.3471970">
    <ele>4105.7</ele>
    <time>2026-06-22T07:59:00Z</time>
   </trkpt>
   <trkpt lat="-3.1053300" lon="37.3471970">
    <ele>4105.7</ele>
    <time>2026-06-22T07:59:01Z</time>
   </trkpt>
   <trkpt lat="-3.1053360" lon="37.3471930">
    <ele>4105.8</ele>
    <time>2026-06-22T07:59:02Z</time>
   </trkpt>
   <trkpt lat="-3.1053410" lon="37.3471900">
    <ele>4105.9</ele>
    <time>2026-06-22T07:59:03Z</time>
   </trkpt>
   <trkpt lat="-3.1053440" lon="37.3471900">
    <ele>4106.0</ele>
    <time>2026-06-22T07:59:04Z</time>
   </trkpt>
   <trkpt lat="-3.1053480" lon="37.3471880">
    <ele>4106.0</ele>
    <time>2026-06-22T07:59:05Z</time>
   </trkpt>
   <trkpt lat="-3.1053500" lon="37.3471870">
    <ele>4106.0</ele>
    <time>2026-06-22T07:59:06Z</time>
   </trkpt>
   <trkpt lat="-3.1053580" lon="37.3471710">
    <ele>4106.3</ele>
    <time>2026-06-22T07:59:07Z</time>
   </trkpt>
   <trkpt lat="-3.1053560" lon="37.3471760">
    <ele>4106.3</ele>
    <time>2026-06-22T07:59:08Z</time>
   </trkpt>
   <trkpt lat="-3.1053610" lon="37.3471720">
    <ele>4106.4</ele>
    <time>2026-06-22T07:59:09Z</time>
   </trkpt>
   <trkpt lat="-3.1053640" lon="37.3471710">
    <ele>4106.5</ele>
    <time>2026-06-22T07:59:10Z</time>
   </trkpt>
   <trkpt lat="-3.1053690" lon="37.3471660">
    <ele>4106.5</ele>
    <time>2026-06-22T07:59:11Z</time>
   </trkpt>
   <trkpt lat="-3.1053710" lon="37.3471620">
    <ele>4106.6</ele>
    <time>2026-06-22T07:59:12Z</time>
   </trkpt>
   <trkpt lat="-3.1053730" lon="37.3471590">
    <ele>4106.6</ele>
    <time>2026-06-22T07:59:13Z</time>
   </trkpt>
   <trkpt lat="-3.1053770" lon="37.3471550">
    <ele>4106.7</ele>
    <time>2026-06-22T07:59:14Z</time>
   </trkpt>
   <trkpt lat="-3.1053800" lon="37.3471520">
    <ele>4106.8</ele>
    <time>2026-06-22T07:59:15Z</time>
   </trkpt>
   <trkpt lat="-3.1053840" lon="37.3471470">
    <ele>4106.8</ele>
    <time>2026-06-22T07:59:16Z</time>
   </trkpt>
   <trkpt lat="-3.1053870" lon="37.3471450">
    <ele>4106.9</ele>
    <time>2026-06-22T07:59:17Z</time>
   </trkpt>
   <trkpt lat="-3.1053910" lon="37.3471420">
    <ele>4106.9</ele>
    <time>2026-06-22T07:59:18Z</time>
   </trkpt>
   <trkpt lat="-3.1053920" lon="37.3471400">
    <ele>4106.9</ele>
    <time>2026-06-22T07:59:19Z</time>
   </trkpt>
   <trkpt lat="-3.1054010" lon="37.3471320">
    <ele>4107.1</ele>
    <time>2026-06-22T07:59:20Z</time>
   </trkpt>
   <trkpt lat="-3.1054030" lon="37.3471300">
    <ele>4107.1</ele>
    <time>2026-06-22T07:59:21Z</time>
   </trkpt>
   <trkpt lat="-3.1054060" lon="37.3471280">
    <ele>4107.1</ele>
    <time>2026-06-22T07:59:22Z</time>
   </trkpt>
   <trkpt lat="-3.1054090" lon="37.3471260">
    <ele>4107.2</ele>
    <time>2026-06-22T07:59:23Z</time>
   </trkpt>
   <trkpt lat="-3.1054140" lon="37.3471220">
    <ele>4107.2</ele>
    <time>2026-06-22T07:59:24Z</time>
   </trkpt>
   <trkpt lat="-3.1054160" lon="37.3471200">
    <ele>4107.2</ele>
    <time>2026-06-22T07:59:25Z</time>
   </trkpt>
   <trkpt lat="-3.1054200" lon="37.3471170">
    <ele>4107.3</ele>
    <time>2026-06-22T07:59:26Z</time>
   </trkpt>
   <trkpt lat="-3.1054240" lon="37.3471130">
    <ele>4107.4</ele>
    <time>2026-06-22T07:59:27Z</time>
   </trkpt>
   <trkpt lat="-3.1054250" lon="37.3471110">
    <ele>4107.4</ele>
    <time>2026-06-22T07:59:28Z</time>
   </trkpt>
   <trkpt lat="-3.1054300" lon="37.3471090">
    <ele>4107.4</ele>
    <time>2026-06-22T07:59:29Z</time>
   </trkpt>
   <trkpt lat="-3.1054340" lon="37.3471040">
    <ele>4107.5</ele>
    <time>2026-06-22T07:59:30Z</time>
   </trkpt>
   <trkpt lat="-3.1054360" lon="37.3471030">
    <ele>4107.5</ele>
    <time>2026-06-22T07:59:31Z</time>
   </trkpt>
   <trkpt lat="-3.1054400" lon="37.3470980">
    <ele>4107.5</ele>
    <time>2026-06-22T07:59:32Z</time>
   </trkpt>
   <trkpt lat="-3.1054430" lon="37.3470960">
    <ele>4107.5</ele>
    <time>2026-06-22T07:59:33Z</time>
   </trkpt>
   <trkpt lat="-3.1054470" lon="37.3470940">
    <ele>4107.6</ele>
    <time>2026-06-22T07:59:34Z</time>
   </trkpt>
   <trkpt lat="-3.1054500" lon="37.3470900">
    <ele>4107.6</ele>
    <time>2026-06-22T07:59:35Z</time>
   </trkpt>
   <trkpt lat="-3.1054540" lon="37.3470880">
    <ele>4107.6</ele>
    <time>2026-06-22T07:59:36Z</time>
   </trkpt>
   <trkpt lat="-3.1054590" lon="37.3470830">
    <ele>4107.7</ele>
    <time>2026-06-22T07:59:37Z</time>
   </trkpt>
   <trkpt lat="-3.1054620" lon="37.3470810">
    <ele>4107.7</ele>
    <time>2026-06-22T07:59:38Z</time>
   </trkpt>
   <trkpt lat="-3.1054650" lon="37.3470790">
    <ele>4107.7</ele>
    <time>2026-06-22T07:59:39Z</time>
   </trkpt>
   <trkpt lat="-3.1054700" lon="37.3470750">
    <ele>4107.8</ele>
    <time>2026-06-22T07:59:40Z</time>
   </trkpt>
   <trkpt lat="-3.1054730" lon="37.3470730">
    <ele>4107.8</ele>
    <time>2026-06-22T07:59:41Z</time>
   </trkpt>
   <trkpt lat="-3.1054780" lon="37.3470680">
    <ele>4107.8</ele>
    <time>2026-06-22T07:59:42Z</time>
   </trkpt>
   <trkpt lat="-3.1054820" lon="37.3470640">
    <ele>4107.8</ele>
    <time>2026-06-22T07:59:43Z</time>
   </trkpt>
   <trkpt lat="-3.1054850" lon="37.3470620">
    <ele>4107.9</ele>
    <time>2026-06-22T07:59:44Z</time>
   </trkpt>
   <trkpt lat="-3.1054910" lon="37.3470580">
    <ele>4107.9</ele>
    <time>2026-06-22T07:59:45Z</time>
   </trkpt>
   <trkpt lat="-3.1054960" lon="37.3470560">
    <ele>4107.9</ele>
    <time>2026-06-22T07:59:46Z</time>
   </trkpt>
   <trkpt lat="-3.1055030" lon="37.3470520">
    <ele>4107.9</ele>
    <time>2026-06-22T07:59:47Z</time>
   </trkpt>
   <trkpt lat="-3.1055090" lon="37.3470490">
    <ele>4108.0</ele>
    <time>2026-06-22T07:59:48Z</time>
   </trkpt>
   <trkpt lat="-3.1055150" lon="37.3470450">
    <ele>4108.0</ele>
    <time>2026-06-22T07:59:49Z</time>
   </trkpt>
   <trkpt lat="-3.1055220" lon="37.3470410">
    <ele>4108.0</ele>
    <time>2026-06-22T07:59:50Z</time>
   </trkpt>
   <trkpt lat="-3.1055270" lon="37.3470370">
    <ele>4108.0</ele>
    <time>2026-06-22T07:59:51Z</time>
   </trkpt>
   <trkpt lat="-3.1055350" lon="37.3470350">
    <ele>4108.0</ele>
    <time>2026-06-22T07:59:52Z</time>
   </trkpt>
   <trkpt lat="-3.1055420" lon="37.3470350">
    <ele>4108.1</ele>
    <time>2026-06-22T07:59:53Z</time>
   </trkpt>
   <trkpt lat="-3.1055500" lon="37.3470320">
    <ele>4108.1</ele>
    <time>2026-06-22T07:59:54Z</time>
   </trkpt>
   <trkpt lat="-3.1055560" lon="37.3470300">
    <ele>4108.1</ele>
    <time>2026-06-22T07:59:55Z</time>
   </trkpt>
   <trkpt lat="-3.1055630" lon="37.3470280">
    <ele>4108.1</ele>
    <time>2026-06-22T07:59:56Z</time>
   </trkpt>
   <trkpt lat="-3.1055710" lon="37.3470280">
    <ele>4108.1</ele>
    <time>2026-06-22T07:59:57Z</time>
   </trkpt>
   <trkpt lat="-3.1055790" lon="37.3470280">
    <ele>4108.1</ele>
    <time>2026-06-22T07:59:58Z</time>
   </trkpt>
   <trkpt lat="-3.1055810" lon="37.3470230">
    <ele>4108.1</ele>
    <time>2026-06-22T07:59:59Z</time>
   </trkpt>
   <trkpt lat="-3.1055880" lon="37.3470200">
    <ele>4108.1</ele>
    <time>2026-06-22T08:00:00Z</time>
   </trkpt>
   <trkpt lat="-3.1055920" lon="37.3470190">
    <ele>4108.1</ele>
    <time>2026-06-22T08:00:01Z</time>
   </trkpt>
   <trkpt lat="-3.1055940" lon="37.3470190">
    <ele>4108.1</ele>
    <time>2026-06-22T08:00:02Z</time>
   </trkpt>
   <trkpt lat="-3.1055970" lon="37.3470190">
    <ele>4108.1</ele>
    <time>2026-06-22T08:00:03Z</time>
   </trkpt>
   <trkpt lat="-3.1056090" lon="37.3470170">
    <ele>4108.1</ele>
    <time>2026-06-22T08:00:04Z</time>
   </trkpt>
   <trkpt lat="-3.1056210" lon="37.3470180">
    <ele>4108.1</ele>
    <time>2026-06-22T08:00:05Z</time>
   </trkpt>
   <trkpt lat="-3.1056290" lon="37.3470180">
    <ele>4108.1</ele>
    <time>2026-06-22T08:00:06Z</time>
   </trkpt>
   <trkpt lat="-3.1056410" lon="37.3470210">
    <ele>4108.1</ele>
    <time>2026-06-22T08:00:07Z</time>
   </trkpt>
   <trkpt lat="-3.1056510" lon="37.3470190">
    <ele>4108.0</ele>
    <time>2026-06-22T08:00:08Z</time>
   </trkpt>
   <trkpt lat="-3.1056560" lon="37.3470160">
    <ele>4108.0</ele>
    <time>2026-06-22T08:00:09Z</time>
   </trkpt>
   <trkpt lat="-3.1056660" lon="37.3470120">
    <ele>4108.0</ele>
    <time>2026-06-22T08:00:10Z</time>
   </trkpt>
   <trkpt lat="-3.1056760" lon="37.3470120">
    <ele>4108.0</ele>
    <time>2026-06-22T08:00:11Z</time>
   </trkpt>
   <trkpt lat="-3.1056780" lon="37.3470140">
    <ele>4108.0</ele>
    <time>2026-06-22T08:00:12Z</time>
   </trkpt>
   <trkpt lat="-3.1056770" lon="37.3470130">
    <ele>4108.0</ele>
    <time>2026-06-22T08:00:13Z</time>
   </trkpt>
   <trkpt lat="-3.1056810" lon="37.3470150">
    <ele>4108.0</ele>
    <time>2026-06-22T08:00:14Z</time>
   </trkpt>
   <trkpt lat="-3.1056860" lon="37.3470170">
    <ele>4108.0</ele>
    <time>2026-06-22T08:00:15Z</time>
   </trkpt>
   <trkpt lat="-3.1056970" lon="37.3470170">
    <ele>4107.9</ele>
    <time>2026-06-22T08:00:16Z</time>
   </trkpt>
   <trkpt lat="-3.1057050" lon="37.3470180">
    <ele>4107.9</ele>
    <time>2026-06-22T08:00:17Z</time>
   </trkpt>
   <trkpt lat="-3.1057130" lon="37.3470170">
    <ele>4107.9</ele>
    <time>2026-06-22T08:00:18Z</time>
   </trkpt>
   <trkpt lat="-3.1057220" lon="37.3470150">
    <ele>4107.9</ele>
    <time>2026-06-22T08:00:19Z</time>
   </trkpt>
   <trkpt lat="-3.1057300" lon="37.3470130">
    <ele>4107.9</ele>
    <time>2026-06-22T08:00:20Z</time>
   </trkpt>
   <trkpt lat="-3.1057380" lon="37.3470120">
    <ele>4107.9</ele>
    <time>2026-06-22T08:00:21Z</time>
   </trkpt>
   <trkpt lat="-3.1057450" lon="37.3470110">
    <ele>4107.8</ele>
    <time>2026-06-22T08:00:22Z</time>
   </trkpt>
   <trkpt lat="-3.1057550" lon="37.3470090">
    <ele>4107.8</ele>
    <time>2026-06-22T08:00:23Z</time>
   </trkpt>
   <trkpt lat="-3.1057600" lon="37.3470100">
    <ele>4107.8</ele>
    <time>2026-06-22T08:00:24Z</time>
   </trkpt>
   <trkpt lat="-3.1057700" lon="37.3470100">
    <ele>4107.8</ele>
    <time>2026-06-22T08:00:25Z</time>
   </trkpt>
   <trkpt lat="-3.1057770" lon="37.3470080">
    <ele>4107.7</ele>
    <time>2026-06-22T08:00:26Z</time>
   </trkpt>
   <trkpt lat="-3.1057830" lon="37.3470060">
    <ele>4107.7</ele>
    <time>2026-06-22T08:00:27Z</time>
   </trkpt>
   <trkpt lat="-3.1057900" lon="37.3470050">
    <ele>4107.7</ele>
    <time>2026-06-22T08:00:28Z</time>
   </trkpt>
   <trkpt lat="-3.1057970" lon="37.3470070">
    <ele>4107.7</ele>
    <time>2026-06-22T08:00:29Z</time>
   </trkpt>
   <trkpt lat="-3.1058030" lon="37.3470070">
    <ele>4107.7</ele>
    <time>2026-06-22T08:00:30Z</time>
   </trkpt>
   <trkpt lat="-3.1058090" lon="37.3470030">
    <ele>4107.6</ele>
    <time>2026-06-22T08:00:31Z</time>
   </trkpt>
   <trkpt lat="-3.1058180" lon="37.3469990">
    <ele>4107.6</ele>
    <time>2026-06-22T08:00:32Z</time>
   </trkpt>
   <trkpt lat="-3.1058250" lon="37.3469960">
    <ele>4107.6</ele>
    <time>2026-06-22T08:00:33Z</time>
   </trkpt>
   <trkpt lat="-3.1058300" lon="37.3469930">
    <ele>4107.6</ele>
    <time>2026-06-22T08:00:34Z</time>
   </trkpt>
   <trkpt lat="-3.1058370" lon="37.3469900">
    <ele>4107.5</ele>
    <time>2026-06-22T08:00:35Z</time>
   </trkpt>
   <trkpt lat="-3.1058470" lon="37.3469880">
    <ele>4107.5</ele>
    <time>2026-06-22T08:00:36Z</time>
   </trkpt>
   <trkpt lat="-3.1058540" lon="37.3469880">
    <ele>4107.5</ele>
    <time>2026-06-22T08:00:37Z</time>
   </trkpt>
   <trkpt lat="-3.1058620" lon="37.3469870">
    <ele>4107.5</ele>
    <time>2026-06-22T08:00:38Z</time>
   </trkpt>
   <trkpt lat="-3.1058730" lon="37.3469850">
    <ele>4107.4</ele>
    <time>2026-06-22T08:00:39Z</time>
   </trkpt>
   <trkpt lat="-3.1058800" lon="37.3469820">
    <ele>4107.4</ele>
    <time>2026-06-22T08:00:40Z</time>
   </trkpt>
   <trkpt lat="-3.1058870" lon="37.3469800">
    <ele>4107.4</ele>
    <time>2026-06-22T08:00:41Z</time>
   </trkpt>
   <trkpt lat="-3.1058930" lon="37.3469780">
    <ele>4107.3</ele>
    <time>2026-06-22T08:00:42Z</time>
   </trkpt>
   <trkpt lat="-3.1059000" lon="37.3469770">
    <ele>4107.3</ele>
    <time>2026-06-22T08:00:43Z</time>
   </trkpt>
   <trkpt lat="-3.1059110" lon="37.3469770">
    <ele>4107.3</ele>
    <time>2026-06-22T08:00:44Z</time>
   </trkpt>
   <trkpt lat="-3.1059190" lon="37.3469770">
    <ele>4107.2</ele>
    <time>2026-06-22T08:00:45Z</time>
   </trkpt>
   <trkpt lat="-3.1059280" lon="37.3469760">
    <ele>4107.2</ele>
    <time>2026-06-22T08:00:46Z</time>
   </trkpt>
   <trkpt lat="-3.1059380" lon="37.3469760">
    <ele>4107.1</ele>
    <time>2026-06-22T08:00:47Z</time>
   </trkpt>
   <trkpt lat="-3.1059440" lon="37.3469730">
    <ele>4107.1</ele>
    <time>2026-06-22T08:00:48Z</time>
   </trkpt>
   <trkpt lat="-3.1059530" lon="37.3469690">
    <ele>4107.1</ele>
    <time>2026-06-22T08:00:49Z</time>
   </trkpt>
   <trkpt lat="-3.1059600" lon="37.3469650">
    <ele>4107.0</ele>
    <time>2026-06-22T08:00:50Z</time>
   </trkpt>
   <trkpt lat="-3.1059690" lon="37.3469630">
    <ele>4107.0</ele>
    <time>2026-06-22T08:00:51Z</time>
   </trkpt>
   <trkpt lat="-3.1059780" lon="37.3469590">
    <ele>4106.9</ele>
    <time>2026-06-22T08:00:52Z</time>
   </trkpt>
   <trkpt lat="-3.1059860" lon="37.3469570">
    <ele>4106.9</ele>
    <time>2026-06-22T08:00:53Z</time>
   </trkpt>
   <trkpt lat="-3.1059980" lon="37.3469550">
    <ele>4106.9</ele>
    <time>2026-06-22T08:00:54Z</time>
   </trkpt>
   <trkpt lat="-3.1060070" lon="37.3469530">
    <ele>4106.8</ele>
    <time>2026-06-22T08:00:55Z</time>
   </trkpt>
   <trkpt lat="-3.1060150" lon="37.3469530">
    <ele>4106.8</ele>
    <time>2026-06-22T08:00:56Z</time>
   </trkpt>
   <trkpt lat="-3.1060230" lon="37.3469540">
    <ele>4106.7</ele>
    <time>2026-06-22T08:00:57Z</time>
   </trkpt>
   <trkpt lat="-3.1060300" lon="37.3469510">
    <ele>4106.7</ele>
    <time>2026-06-22T08:00:58Z</time>
   </trkpt>
   <trkpt lat="-3.1060350" lon="37.3469490">
    <ele>4106.7</ele>
    <time>2026-06-22T08:00:59Z</time>
   </trkpt>
   <trkpt lat="-3.1060420" lon="37.3469470">
    <ele>4106.6</ele>
    <time>2026-06-22T08:01:00Z</time>
   </trkpt>
   <trkpt lat="-3.1060510" lon="37.3469460">
    <ele>4106.6</ele>
    <time>2026-06-22T08:01:01Z</time>
   </trkpt>
   <trkpt lat="-3.1060590" lon="37.3469430">
    <ele>4106.5</ele>
    <time>2026-06-22T08:01:02Z</time>
   </trkpt>
   <trkpt lat="-3.1060670" lon="37.3469410">
    <ele>4106.5</ele>
    <time>2026-06-22T08:01:03Z</time>
   </trkpt>
   <trkpt lat="-3.1060750" lon="37.3469410">
    <ele>4106.5</ele>
    <time>2026-06-22T08:01:04Z</time>
   </trkpt>
   <trkpt lat="-3.1060850" lon="37.3469420">
    <ele>4106.4</ele>
    <time>2026-06-22T08:01:05Z</time>
   </trkpt>
   <trkpt lat="-3.1060930" lon="37.3469410">
    <ele>4106.4</ele>
    <time>2026-06-22T08:01:06Z</time>
   </trkpt>
   <trkpt lat="-3.1061040" lon="37.3469390">
    <ele>4106.3</ele>
    <time>2026-06-22T08:01:07Z</time>
   </trkpt>
   <trkpt lat="-3.1061120" lon="37.3469360">
    <ele>4106.3</ele>
    <time>2026-06-22T08:01:08Z</time>
   </trkpt>
   <trkpt lat="-3.1061190" lon="37.3469310">
    <ele>4106.2</ele>
    <time>2026-06-22T08:01:09Z</time>
   </trkpt>
   <trkpt lat="-3.1061270" lon="37.3469270">
    <ele>4106.2</ele>
    <time>2026-06-22T08:01:10Z</time>
   </trkpt>
   <trkpt lat="-3.1061350" lon="37.3469240">
    <ele>4106.1</ele>
    <time>2026-06-22T08:01:11Z</time>
   </trkpt>
   <trkpt lat="-3.1061440" lon="37.3469210">
    <ele>4106.1</ele>
    <time>2026-06-22T08:01:12Z</time>
   </trkpt>
   <trkpt lat="-3.1061520" lon="37.3469180">
    <ele>4106.0</ele>
    <time>2026-06-22T08:01:13Z</time>
   </trkpt>
   <trkpt lat="-3.1061600" lon="37.3469150">
    <ele>4106.0</ele>
    <time>2026-06-22T08:01:14Z</time>
   </trkpt>
   <trkpt lat="-3.1061690" lon="37.3469110">
    <ele>4105.9</ele>
    <time>2026-06-22T08:01:15Z</time>
   </trkpt>
   <trkpt lat="-3.1061760" lon="37.3469060">
    <ele>4105.8</ele>
    <time>2026-06-22T08:01:16Z</time>
   </trkpt>
   <trkpt lat="-3.1061850" lon="37.3469000">
    <ele>4105.8</ele>
    <time>2026-06-22T08:01:17Z</time>
   </trkpt>
   <trkpt lat="-3.1061940" lon="37.3468940">
    <ele>4105.7</ele>
    <time>2026-06-22T08:01:18Z</time>
   </trkpt>
   <trkpt lat="-3.1062040" lon="37.3468910">
    <ele>4105.6</ele>
    <time>2026-06-22T08:01:19Z</time>
   </trkpt>
   <trkpt lat="-3.1062130" lon="37.3468890">
    <ele>4105.6</ele>
    <time>2026-06-22T08:01:20Z</time>
   </trkpt>
   <trkpt lat="-3.1062220" lon="37.3468880">
    <ele>4105.5</ele>
    <time>2026-06-22T08:01:21Z</time>
   </trkpt>
   <trkpt lat="-3.1062310" lon="37.3468870">
    <ele>4105.5</ele>
    <time>2026-06-22T08:01:22Z</time>
   </trkpt>
   <trkpt lat="-3.1062390" lon="37.3468870">
    <ele>4105.4</ele>
    <time>2026-06-22T08:01:23Z</time>
   </trkpt>
   <trkpt lat="-3.1062470" lon="37.3468850">
    <ele>4105.3</ele>
    <time>2026-06-22T08:01:24Z</time>
   </trkpt>
   <trkpt lat="-3.1062540" lon="37.3468830">
    <ele>4105.3</ele>
    <time>2026-06-22T08:01:25Z</time>
   </trkpt>
   <trkpt lat="-3.1062650" lon="37.3468800">
    <ele>4105.2</ele>
    <time>2026-06-22T08:01:26Z</time>
   </trkpt>
   <trkpt lat="-3.1062720" lon="37.3468770">
    <ele>4105.2</ele>
    <time>2026-06-22T08:01:27Z</time>
   </trkpt>
   <trkpt lat="-3.1062770" lon="37.3468730">
    <ele>4105.1</ele>
    <time>2026-06-22T08:01:28Z</time>
   </trkpt>
   <trkpt lat="-3.1062860" lon="37.3468690">
    <ele>4105.1</ele>
    <time>2026-06-22T08:01:29Z</time>
   </trkpt>
   <trkpt lat="-3.1062970" lon="37.3468670">
    <ele>4105.0</ele>
    <time>2026-06-22T08:01:30Z</time>
   </trkpt>
   <trkpt lat="-3.1063050" lon="37.3468670">
    <ele>4104.9</ele>
    <time>2026-06-22T08:01:31Z</time>
   </trkpt>
   <trkpt lat="-3.1063130" lon="37.3468650">
    <ele>4104.9</ele>
    <time>2026-06-22T08:01:32Z</time>
   </trkpt>
   <trkpt lat="-3.1063220" lon="37.3468640">
    <ele>4104.8</ele>
    <time>2026-06-22T08:01:33Z</time>
   </trkpt>
   <trkpt lat="-3.1063310" lon="37.3468630">
    <ele>4104.7</ele>
    <time>2026-06-22T08:01:34Z</time>
   </trkpt>
   <trkpt lat="-3.1063400" lon="37.3468630">
    <ele>4104.7</ele>
    <time>2026-06-22T08:01:35Z</time>
   </trkpt>
   <trkpt lat="-3.1063470" lon="37.3468650">
    <ele>4104.6</ele>
    <time>2026-06-22T08:01:36Z</time>
   </trkpt>
   <trkpt lat="-3.1063560" lon="37.3468680">
    <ele>4104.5</ele>
    <time>2026-06-22T08:01:37Z</time>
   </trkpt>
   <trkpt lat="-3.1063650" lon="37.3468670">
    <ele>4104.5</ele>
    <time>2026-06-22T08:01:38Z</time>
   </trkpt>
   <trkpt lat="-3.1063730" lon="37.3468650">
    <ele>4104.4</ele>
    <time>2026-06-22T08:01:39Z</time>
   </trkpt>
   <trkpt lat="-3.1063830" lon="37.3468620">
    <ele>4104.3</ele>
    <time>2026-06-22T08:01:40Z</time>
   </trkpt>
   <trkpt lat="-3.1063930" lon="37.3468610">
    <ele>4104.2</ele>
    <time>2026-06-22T08:01:41Z</time>
   </trkpt>
   <trkpt lat="-3.1064010" lon="37.3468590">
    <ele>4104.2</ele>
    <time>2026-06-22T08:01:42Z</time>
   </trkpt>
   <trkpt lat="-3.1064100" lon="37.3468590">
    <ele>4104.1</ele>
    <time>2026-06-22T08:01:43Z</time>
   </trkpt>
   <trkpt lat="-3.1064180" lon="37.3468600">
    <ele>4104.0</ele>
    <time>2026-06-22T08:01:44Z</time>
   </trkpt>
   <trkpt lat="-3.1064270" lon="37.3468610">
    <ele>4103.9</ele>
    <time>2026-06-22T08:01:45Z</time>
   </trkpt>
   <trkpt lat="-3.1064370" lon="37.3468610">
    <ele>4103.7</ele>
    <time>2026-06-22T08:01:46Z</time>
   </trkpt>
   <trkpt lat="-3.1064460" lon="37.3468610">
    <ele>4103.6</ele>
    <time>2026-06-22T08:01:47Z</time>
   </trkpt>
   <trkpt lat="-3.1064560" lon="37.3468590">
    <ele>4103.4</ele>
    <time>2026-06-22T08:01:48Z</time>
   </trkpt>
   <trkpt lat="-3.1064640" lon="37.3468580">
    <ele>4103.2</ele>
    <time>2026-06-22T08:01:49Z</time>
   </trkpt>
   <trkpt lat="-3.1064740" lon="37.3468600">
    <ele>4103.0</ele>
    <time>2026-06-22T08:01:50Z</time>
   </trkpt>
   <trkpt lat="-3.1064830" lon="37.3468610">
    <ele>4102.8</ele>
    <time>2026-06-22T08:01:51Z</time>
   </trkpt>
   <trkpt lat="-3.1064930" lon="37.3468630">
    <ele>4102.7</ele>
    <time>2026-06-22T08:01:52Z</time>
   </trkpt>
   <trkpt lat="-3.1065010" lon="37.3468660">
    <ele>4102.5</ele>
    <time>2026-06-22T08:01:53Z</time>
   </trkpt>
   <trkpt lat="-3.1065100" lon="37.3468670">
    <ele>4102.3</ele>
    <time>2026-06-22T08:01:54Z</time>
   </trkpt>
   <trkpt lat="-3.1065190" lon="37.3468670">
    <ele>4102.1</ele>
    <time>2026-06-22T08:01:55Z</time>
   </trkpt>
   <trkpt lat="-3.1065250" lon="37.3468630">
    <ele>4102.0</ele>
    <time>2026-06-22T08:01:56Z</time>
   </trkpt>
   <trkpt lat="-3.1065320" lon="37.3468580">
    <ele>4101.8</ele>
    <time>2026-06-22T08:01:57Z</time>
   </trkpt>
   <trkpt lat="-3.1065410" lon="37.3468510">
    <ele>4101.6</ele>
    <time>2026-06-22T08:01:58Z</time>
   </trkpt>
   <trkpt lat="-3.1065430" lon="37.3468450">
    <ele>4101.5</ele>
    <time>2026-06-22T08:01:59Z</time>
   </trkpt>
   <trkpt lat="-3.1065520" lon="37.3468390">
    <ele>4101.2</ele>
    <time>2026-06-22T08:02:00Z</time>
   </trkpt>
   <trkpt lat="-3.1065620" lon="37.3468370">
    <ele>4101.0</ele>
    <time>2026-06-22T08:02:01Z</time>
   </trkpt>
   <trkpt lat="-3.1065700" lon="37.3468370">
    <ele>4100.9</ele>
    <time>2026-06-22T08:02:02Z</time>
   </trkpt>
   <trkpt lat="-3.1065770" lon="37.3468380">
    <ele>4100.7</ele>
    <time>2026-06-22T08:02:03Z</time>
   </trkpt>
   <trkpt lat="-3.1065860" lon="37.3468400">
    <ele>4100.5</ele>
    <time>2026-06-22T08:02:04Z</time>
   </trkpt>
   <trkpt lat="-3.1065950" lon="37.3468430">
    <ele>4100.4</ele>
    <time>2026-06-22T08:02:05Z</time>
   </trkpt>
   <trkpt lat="-3.1066080" lon="37.3468430">
    <ele>4100.1</ele>
    <time>2026-06-22T08:02:06Z</time>
   </trkpt>
   <trkpt lat="-3.1066150" lon="37.3468440">
    <ele>4099.9</ele>
    <time>2026-06-22T08:02:07Z</time>
   </trkpt>
   <trkpt lat="-3.1066240" lon="37.3468440">
    <ele>4099.8</ele>
    <time>2026-06-22T08:02:08Z</time>
   </trkpt>
   <trkpt lat="-3.1066340" lon="37.3468460">
    <ele>4099.6</ele>
    <time>2026-06-22T08:02:09Z</time>
   </trkpt>
   <trkpt lat="-3.1066430" lon="37.3468490">
    <ele>4099.4</ele>
    <time>2026-06-22T08:02:10Z</time>
   </trkpt>
   <trkpt lat="-3.1066510" lon="37.3468510">
    <ele>4099.2</ele>
    <time>2026-06-22T08:02:11Z</time>
   </trkpt>
   <trkpt lat="-3.1066610" lon="37.3468510">
    <ele>4099.0</ele>
    <time>2026-06-22T08:02:12Z</time>
   </trkpt>
   <trkpt lat="-3.1066710" lon="37.3468490">
    <ele>4098.8</ele>
    <time>2026-06-22T08:02:13Z</time>
   </trkpt>
   <trkpt lat="-3.1066780" lon="37.3468480">
    <ele>4098.7</ele>
    <time>2026-06-22T08:02:14Z</time>
   </trkpt>
   <trkpt lat="-3.1066840" lon="37.3468450">
    <ele>4098.5</ele>
    <time>2026-06-22T08:02:15Z</time>
   </trkpt>
   <trkpt lat="-3.1066950" lon="37.3468410">
    <ele>4098.3</ele>
    <time>2026-06-22T08:02:16Z</time>
   </trkpt>
   <trkpt lat="-3.1067070" lon="37.3468370">
    <ele>4098.0</ele>
    <time>2026-06-22T08:02:17Z</time>
   </trkpt>
   <trkpt lat="-3.1067150" lon="37.3468370">
    <ele>4097.8</ele>
    <time>2026-06-22T08:02:18Z</time>
   </trkpt>
   <trkpt lat="-3.1067190" lon="37.3468370">
    <ele>4097.8</ele>
    <time>2026-06-22T08:02:19Z</time>
   </trkpt>
   <trkpt lat="-3.1067280" lon="37.3468350">
    <ele>4097.6</ele>
    <time>2026-06-22T08:02:20Z</time>
   </trkpt>
   <trkpt lat="-3.1067350" lon="37.3468330">
    <ele>4097.4</ele>
    <time>2026-06-22T08:02:21Z</time>
   </trkpt>
   <trkpt lat="-3.1067480" lon="37.3468290">
    <ele>4097.1</ele>
    <time>2026-06-22T08:02:22Z</time>
   </trkpt>
   <trkpt lat="-3.1067550" lon="37.3468280">
    <ele>4097.0</ele>
    <time>2026-06-22T08:02:23Z</time>
   </trkpt>
   <trkpt lat="-3.1067610" lon="37.3468290">
    <ele>4096.9</ele>
    <time>2026-06-22T08:02:24Z</time>
   </trkpt>
   <trkpt lat="-3.1067700" lon="37.3468270">
    <ele>4096.7</ele>
    <time>2026-06-22T08:02:25Z</time>
   </trkpt>
   <trkpt lat="-3.1067760" lon="37.3468260">
    <ele>4096.6</ele>
    <time>2026-06-22T08:02:26Z</time>
   </trkpt>
   <trkpt lat="-3.1067820" lon="37.3468210">
    <ele>4096.4</ele>
    <time>2026-06-22T08:02:27Z</time>
   </trkpt>
   <trkpt lat="-3.1067830" lon="37.3468180">
    <ele>4096.3</ele>
    <time>2026-06-22T08:02:28Z</time>
   </trkpt>
   <trkpt lat="-3.1067880" lon="37.3468140">
    <ele>4096.2</ele>
    <time>2026-06-22T08:02:29Z</time>
   </trkpt>
   <trkpt lat="-3.1067960" lon="37.3468110">
    <ele>4096.0</ele>
    <time>2026-06-22T08:02:30Z</time>
   </trkpt>
   <trkpt lat="-3.1068080" lon="37.3468090">
    <ele>4095.8</ele>
    <time>2026-06-22T08:02:31Z</time>
   </trkpt>
   <trkpt lat="-3.1068170" lon="37.3468090">
    <ele>4095.6</ele>
    <time>2026-06-22T08:02:32Z</time>
   </trkpt>
   <trkpt lat="-3.1068270" lon="37.3468070">
    <ele>4095.4</ele>
    <time>2026-06-22T08:02:33Z</time>
   </trkpt>
   <trkpt lat="-3.1068360" lon="37.3468040">
    <ele>4095.2</ele>
    <time>2026-06-22T08:02:34Z</time>
   </trkpt>
   <trkpt lat="-3.1068440" lon="37.3468000">
    <ele>4095.1</ele>
    <time>2026-06-22T08:02:35Z</time>
   </trkpt>
   <trkpt lat="-3.1068520" lon="37.3467980">
    <ele>4094.9</ele>
    <time>2026-06-22T08:02:36Z</time>
   </trkpt>
   <trkpt lat="-3.1068610" lon="37.3467940">
    <ele>4094.8</ele>
    <time>2026-06-22T08:02:37Z</time>
   </trkpt>
   <trkpt lat="-3.1068670" lon="37.3467910">
    <ele>4094.6</ele>
    <time>2026-06-22T08:02:38Z</time>
   </trkpt>
   <trkpt lat="-3.1068750" lon="37.3467920">
    <ele>4094.5</ele>
    <time>2026-06-22T08:02:39Z</time>
   </trkpt>
   <trkpt lat="-3.1068810" lon="37.3467900">
    <ele>4094.4</ele>
    <time>2026-06-22T08:02:40Z</time>
   </trkpt>
   <trkpt lat="-3.1068880" lon="37.3467900">
    <ele>4094.3</ele>
    <time>2026-06-22T08:02:41Z</time>
   </trkpt>
   <trkpt lat="-3.1068950" lon="37.3467860">
    <ele>4094.1</ele>
    <time>2026-06-22T08:02:42Z</time>
   </trkpt>
   <trkpt lat="-3.1069010" lon="37.3467820">
    <ele>4094.0</ele>
    <time>2026-06-22T08:02:43Z</time>
   </trkpt>
   <trkpt lat="-3.1069070" lon="37.3467850">
    <ele>4093.9</ele>
    <time>2026-06-22T08:02:44Z</time>
   </trkpt>
   <trkpt lat="-3.1069180" lon="37.3467830">
    <ele>4093.7</ele>
    <time>2026-06-22T08:02:45Z</time>
   </trkpt>
   <trkpt lat="-3.1069290" lon="37.3467810">
    <ele>4093.5</ele>
    <time>2026-06-22T08:02:46Z</time>
   </trkpt>
   <trkpt lat="-3.1069370" lon="37.3467780">
    <ele>4093.3</ele>
    <time>2026-06-22T08:02:47Z</time>
   </trkpt>
   <trkpt lat="-3.1069490" lon="37.3467760">
    <ele>4093.1</ele>
    <time>2026-06-22T08:02:48Z</time>
   </trkpt>
   <trkpt lat="-3.1069580" lon="37.3467750">
    <ele>4093.0</ele>
    <time>2026-06-22T08:02:49Z</time>
   </trkpt>
   <trkpt lat="-3.1069670" lon="37.3467790">
    <ele>4092.9</ele>
    <time>2026-06-22T08:02:50Z</time>
   </trkpt>
   <trkpt lat="-3.1069770" lon="37.3467810">
    <ele>4092.8</ele>
    <time>2026-06-22T08:02:51Z</time>
   </trkpt>
   <trkpt lat="-3.1069870" lon="37.3467830">
    <ele>4092.7</ele>
    <time>2026-06-22T08:02:52Z</time>
   </trkpt>
   <trkpt lat="-3.1069990" lon="37.3467870">
    <ele>4092.6</ele>
    <time>2026-06-22T08:02:53Z</time>
   </trkpt>
   <trkpt lat="-3.1070040" lon="37.3467910">
    <ele>4092.6</ele>
    <time>2026-06-22T08:02:54Z</time>
   </trkpt>
   <trkpt lat="-3.1070130" lon="37.3467940">
    <ele>4092.5</ele>
    <time>2026-06-22T08:02:55Z</time>
   </trkpt>
   <trkpt lat="-3.1070220" lon="37.3467900">
    <ele>4092.4</ele>
    <time>2026-06-22T08:02:56Z</time>
   </trkpt>
   <trkpt lat="-3.1070320" lon="37.3467860">
    <ele>4092.3</ele>
    <time>2026-06-22T08:02:57Z</time>
   </trkpt>
   <trkpt lat="-3.1070400" lon="37.3467860">
    <ele>4092.3</ele>
    <time>2026-06-22T08:02:58Z</time>
   </trkpt>
   <trkpt lat="-3.1070570" lon="37.3467930">
    <ele>4092.2</ele>
    <time>2026-06-22T08:02:59Z</time>
   </trkpt>
   <trkpt lat="-3.1070650" lon="37.3467990">
    <ele>4092.1</ele>
    <time>2026-06-22T08:03:00Z</time>
   </trkpt>
   <trkpt lat="-3.1070730" lon="37.3468010">
    <ele>4092.1</ele>
    <time>2026-06-22T08:03:01Z</time>
   </trkpt>
   <trkpt lat="-3.1070800" lon="37.3468020">
    <ele>4092.0</ele>
    <time>2026-06-22T08:03:02Z</time>
   </trkpt>
   <trkpt lat="-3.1070930" lon="37.3468060">
    <ele>4091.9</ele>
    <time>2026-06-22T08:03:03Z</time>
   </trkpt>
   <trkpt lat="-3.1070960" lon="37.3468090">
    <ele>4091.9</ele>
    <time>2026-06-22T08:03:04Z</time>
   </trkpt>
   <trkpt lat="-3.1071030" lon="37.3468100">
    <ele>4091.9</ele>
    <time>2026-06-22T08:03:05Z</time>
   </trkpt>
   <trkpt lat="-3.1071120" lon="37.3468100">
    <ele>4091.8</ele>
    <time>2026-06-22T08:03:06Z</time>
   </trkpt>
   <trkpt lat="-3.1071190" lon="37.3468120">
    <ele>4091.8</ele>
    <time>2026-06-22T08:03:07Z</time>
   </trkpt>
   <trkpt lat="-3.1071230" lon="37.3468170">
    <ele>4091.8</ele>
    <time>2026-06-22T08:03:08Z</time>
   </trkpt>
   <trkpt lat="-3.1071300" lon="37.3468270">
    <ele>4091.7</ele>
    <time>2026-06-22T08:03:09Z</time>
   </trkpt>
   <trkpt lat="-3.1071350" lon="37.3468370">
    <ele>4091.7</ele>
    <time>2026-06-22T08:03:10Z</time>
   </trkpt>
   <trkpt lat="-3.1071390" lon="37.3468440">
    <ele>4091.6</ele>
    <time>2026-06-22T08:03:11Z</time>
   </trkpt>
   <trkpt lat="-3.1071430" lon="37.3468450">
    <ele>4091.6</ele>
    <time>2026-06-22T08:03:12Z</time>
   </trkpt>
   <trkpt lat="-3.1071510" lon="37.3468500">
    <ele>4091.6</ele>
    <time>2026-06-22T08:03:13Z</time>
   </trkpt>
   <trkpt lat="-3.1071600" lon="37.3468550">
    <ele>4091.5</ele>
    <time>2026-06-22T08:03:14Z</time>
   </trkpt>
   <trkpt lat="-3.1071700" lon="37.3468610">
    <ele>4091.5</ele>
    <time>2026-06-22T08:03:15Z</time>
   </trkpt>
   <trkpt lat="-3.1071780" lon="37.3468660">
    <ele>4091.5</ele>
    <time>2026-06-22T08:03:16Z</time>
   </trkpt>
   <trkpt lat="-3.1071880" lon="37.3468690">
    <ele>4091.4</ele>
    <time>2026-06-22T08:03:17Z</time>
   </trkpt>
   <trkpt lat="-3.1071950" lon="37.3468780">
    <ele>4091.4</ele>
    <time>2026-06-22T08:03:18Z</time>
   </trkpt>
   <trkpt lat="-3.1072010" lon="37.3468850">
    <ele>4091.4</ele>
    <time>2026-06-22T08:03:19Z</time>
   </trkpt>
   <trkpt lat="-3.1072110" lon="37.3468900">
    <ele>4091.3</ele>
    <time>2026-06-22T08:03:20Z</time>
   </trkpt>
   <trkpt lat="-3.1072200" lon="37.3468950">
    <ele>4091.3</ele>
    <time>2026-06-22T08:03:21Z</time>
   </trkpt>
   <trkpt lat="-3.1072290" lon="37.3468990">
    <ele>4091.3</ele>
    <time>2026-06-22T08:03:22Z</time>
   </trkpt>
   <trkpt lat="-3.1072360" lon="37.3469030">
    <ele>4091.2</ele>
    <time>2026-06-22T08:03:23Z</time>
   </trkpt>
   <trkpt lat="-3.1072460" lon="37.3469040">
    <ele>4091.2</ele>
    <time>2026-06-22T08:03:24Z</time>
   </trkpt>
   <trkpt lat="-3.1072560" lon="37.3469050">
    <ele>4091.1</ele>
    <time>2026-06-22T08:03:25Z</time>
   </trkpt>
   <trkpt lat="-3.1072640" lon="37.3469080">
    <ele>4091.1</ele>
    <time>2026-06-22T08:03:26Z</time>
   </trkpt>
   <trkpt lat="-3.1072730" lon="37.3469120">
    <ele>4091.1</ele>
    <time>2026-06-22T08:03:27Z</time>
   </trkpt>
   <trkpt lat="-3.1072840" lon="37.3469170">
    <ele>4091.0</ele>
    <time>2026-06-22T08:03:28Z</time>
   </trkpt>
   <trkpt lat="-3.1072900" lon="37.3469230">
    <ele>4091.0</ele>
    <time>2026-06-22T08:03:29Z</time>
   </trkpt>
   <trkpt lat="-3.1072970" lon="37.3469310">
    <ele>4090.9</ele>
    <time>2026-06-22T08:03:30Z</time>
   </trkpt>
   <trkpt lat="-3.1073000" lon="37.3469390">
    <ele>4090.8</ele>
    <time>2026-06-22T08:03:31Z</time>
   </trkpt>
   <trkpt lat="-3.1073040" lon="37.3469500">
    <ele>4090.8</ele>
    <time>2026-06-22T08:03:32Z</time>
   </trkpt>
   <trkpt lat="-3.1073040" lon="37.3469580">
    <ele>4090.7</ele>
    <time>2026-06-22T08:03:33Z</time>
   </trkpt>
   <trkpt lat="-3.1073030" lon="37.3469690">
    <ele>4090.6</ele>
    <time>2026-06-22T08:03:34Z</time>
   </trkpt>
   <trkpt lat="-3.1073050" lon="37.3469740">
    <ele>4090.6</ele>
    <time>2026-06-22T08:03:35Z</time>
   </trkpt>
   <trkpt lat="-3.1073110" lon="37.3469770">
    <ele>4090.5</ele>
    <time>2026-06-22T08:03:36Z</time>
   </trkpt>
   <trkpt lat="-3.1073150" lon="37.3469840">
    <ele>4090.4</ele>
    <time>2026-06-22T08:03:37Z</time>
   </trkpt>
   <trkpt lat="-3.1073200" lon="37.3469890">
    <ele>4090.4</ele>
    <time>2026-06-22T08:03:38Z</time>
   </trkpt>
   <trkpt lat="-3.1073240" lon="37.3469950">
    <ele>4090.3</ele>
    <time>2026-06-22T08:03:39Z</time>
   </trkpt>
   <trkpt lat="-3.1073280" lon="37.3470030">
    <ele>4090.2</ele>
    <time>2026-06-22T08:03:40Z</time>
   </trkpt>
   <trkpt lat="-3.1073320" lon="37.3470150">
    <ele>4090.1</ele>
    <time>2026-06-22T08:03:41Z</time>
   </trkpt>
   <trkpt lat="-3.1073320" lon="37.3470260">
    <ele>4090.0</ele>
    <time>2026-06-22T08:03:42Z</time>
   </trkpt>
   <trkpt lat="-3.1073300" lon="37.3470250">
    <ele>4089.9</ele>
    <time>2026-06-22T08:03:43Z</time>
   </trkpt>
   <trkpt lat="-3.1073420" lon="37.3470310">
    <ele>4089.8</ele>
    <time>2026-06-22T08:03:44Z</time>
   </trkpt>
   <trkpt lat="-3.1073510" lon="37.3470420">
    <ele>4089.6</ele>
    <time>2026-06-22T08:03:45Z</time>
   </trkpt>
   <trkpt lat="-3.1073530" lon="37.3470500">
    <ele>4089.5</ele>
    <time>2026-06-22T08:03:46Z</time>
   </trkpt>
   <trkpt lat="-3.1073520" lon="37.3470580">
    <ele>4089.4</ele>
    <time>2026-06-22T08:03:47Z</time>
   </trkpt>
   <trkpt lat="-3.1073510" lon="37.3470680">
    <ele>4089.2</ele>
    <time>2026-06-22T08:03:48Z</time>
   </trkpt>
   <trkpt lat="-3.1073500" lon="37.3470710">
    <ele>4089.2</ele>
    <time>2026-06-22T08:03:49Z</time>
   </trkpt>
   <trkpt lat="-3.1073520" lon="37.3470750">
    <ele>4089.1</ele>
    <time>2026-06-22T08:03:50Z</time>
   </trkpt>
   <trkpt lat="-3.1073590" lon="37.3470780">
    <ele>4089.0</ele>
    <time>2026-06-22T08:03:51Z</time>
   </trkpt>
   <trkpt lat="-3.1073660" lon="37.3470830">
    <ele>4088.8</ele>
    <time>2026-06-22T08:03:52Z</time>
   </trkpt>
   <trkpt lat="-3.1073710" lon="37.3470850">
    <ele>4088.7</ele>
    <time>2026-06-22T08:03:53Z</time>
   </trkpt>
   <trkpt lat="-3.1073780" lon="37.3470950">
    <ele>4088.6</ele>
    <time>2026-06-22T08:03:54Z</time>
   </trkpt>
   <trkpt lat="-3.1073780" lon="37.3471060">
    <ele>4088.4</ele>
    <time>2026-06-22T08:03:55Z</time>
   </trkpt>
   <trkpt lat="-3.1073770" lon="37.3471130">
    <ele>4088.3</ele>
    <time>2026-06-22T08:03:56Z</time>
   </trkpt>
   <trkpt lat="-3.1073790" lon="37.3471220">
    <ele>4088.1</ele>
    <time>2026-06-22T08:03:57Z</time>
   </trkpt>
   <trkpt lat="-3.1073850" lon="37.3471260">
    <ele>4088.0</ele>
    <time>2026-06-22T08:03:58Z</time>
   </trkpt>
   <trkpt lat="-3.1073950" lon="37.3471320">
    <ele>4087.8</ele>
    <time>2026-06-22T08:03:59Z</time>
   </trkpt>
   <trkpt lat="-3.1074080" lon="37.3471400">
    <ele>4087.5</ele>
    <time>2026-06-22T08:04:00Z</time>
   </trkpt>
   <trkpt lat="-3.1074160" lon="37.3471470">
    <ele>4087.3</ele>
    <time>2026-06-22T08:04:01Z</time>
   </trkpt>
   <trkpt lat="-3.1074190" lon="37.3471490">
    <ele>4087.3</ele>
    <time>2026-06-22T08:04:02Z</time>
   </trkpt>
   <trkpt lat="-3.1074240" lon="37.3471570">
    <ele>4087.1</ele>
    <time>2026-06-22T08:04:03Z</time>
   </trkpt>
   <trkpt lat="-3.1074270" lon="37.3471670">
    <ele>4086.9</ele>
    <time>2026-06-22T08:04:04Z</time>
   </trkpt>
   <trkpt lat="-3.1074270" lon="37.3471750">
    <ele>4086.8</ele>
    <time>2026-06-22T08:04:05Z</time>
   </trkpt>
   <trkpt lat="-3.1074280" lon="37.3471800">
    <ele>4086.7</ele>
    <time>2026-06-22T08:04:06Z</time>
   </trkpt>
   <trkpt lat="-3.1074340" lon="37.3471870">
    <ele>4086.5</ele>
    <time>2026-06-22T08:04:07Z</time>
   </trkpt>
   <trkpt lat="-3.1074420" lon="37.3471920">
    <ele>4086.4</ele>
    <time>2026-06-22T08:04:08Z</time>
   </trkpt>
   <trkpt lat="-3.1074490" lon="37.3471950">
    <ele>4086.2</ele>
    <time>2026-06-22T08:04:09Z</time>
   </trkpt>
   <trkpt lat="-3.1074590" lon="37.3471980">
    <ele>4086.0</ele>
    <time>2026-06-22T08:04:10Z</time>
   </trkpt>
   <trkpt lat="-3.1074680" lon="37.3472040">
    <ele>4085.9</ele>
    <time>2026-06-22T08:04:11Z</time>
   </trkpt>
   <trkpt lat="-3.1074750" lon="37.3472110">
    <ele>4085.7</ele>
    <time>2026-06-22T08:04:12Z</time>
   </trkpt>
   <trkpt lat="-3.1074780" lon="37.3472160">
    <ele>4085.6</ele>
    <time>2026-06-22T08:04:13Z</time>
   </trkpt>
   <trkpt lat="-3.1074800" lon="37.3472260">
    <ele>4085.4</ele>
    <time>2026-06-22T08:04:14Z</time>
   </trkpt>
   <trkpt lat="-3.1074780" lon="37.3472330">
    <ele>4085.3</ele>
    <time>2026-06-22T08:04:15Z</time>
   </trkpt>
   <trkpt lat="-3.1074780" lon="37.3472430">
    <ele>4085.1</ele>
    <time>2026-06-22T08:04:16Z</time>
   </trkpt>
   <trkpt lat="-3.1074780" lon="37.3472490">
    <ele>4085.0</ele>
    <time>2026-06-22T08:04:17Z</time>
   </trkpt>
   <trkpt lat="-3.1074820" lon="37.3472600">
    <ele>4084.8</ele>
    <time>2026-06-22T08:04:18Z</time>
   </trkpt>
   <trkpt lat="-3.1074850" lon="37.3472640">
    <ele>4084.7</ele>
    <time>2026-06-22T08:04:19Z</time>
   </trkpt>
   <trkpt lat="-3.1074900" lon="37.3472740">
    <ele>4084.5</ele>
    <time>2026-06-22T08:04:20Z</time>
   </trkpt>
   <trkpt lat="-3.1074960" lon="37.3472830">
    <ele>4084.4</ele>
    <time>2026-06-22T08:04:21Z</time>
   </trkpt>
   <trkpt lat="-3.1075030" lon="37.3472860">
    <ele>4084.2</ele>
    <time>2026-06-22T08:04:22Z</time>
   </trkpt>
   <trkpt lat="-3.1075100" lon="37.3472890">
    <ele>4084.1</ele>
    <time>2026-06-22T08:04:23Z</time>
   </trkpt>
   <trkpt lat="-3.1075120" lon="37.3472880">
    <ele>4084.1</ele>
    <time>2026-06-22T08:04:24Z</time>
   </trkpt>
   <trkpt lat="-3.1075150" lon="37.3472910">
    <ele>4084.0</ele>
    <time>2026-06-22T08:04:25Z</time>
   </trkpt>
   <trkpt lat="-3.1075180" lon="37.3472970">
    <ele>4083.9</ele>
    <time>2026-06-22T08:04:26Z</time>
   </trkpt>
   <trkpt lat="-3.1075240" lon="37.3473110">
    <ele>4083.7</ele>
    <time>2026-06-22T08:04:27Z</time>
   </trkpt>
   <trkpt lat="-3.1075310" lon="37.3473150">
    <ele>4083.5</ele>
    <time>2026-06-22T08:04:28Z</time>
   </trkpt>
   <trkpt lat="-3.1075340" lon="37.3473210">
    <ele>4083.4</ele>
    <time>2026-06-22T08:04:29Z</time>
   </trkpt>
   <trkpt lat="-3.1075340" lon="37.3473290">
    <ele>4083.3</ele>
    <time>2026-06-22T08:04:30Z</time>
   </trkpt>
   <trkpt lat="-3.1075320" lon="37.3473360">
    <ele>4083.2</ele>
    <time>2026-06-22T08:04:31Z</time>
   </trkpt>
   <trkpt lat="-3.1075330" lon="37.3473490">
    <ele>4083.0</ele>
    <time>2026-06-22T08:04:32Z</time>
   </trkpt>
   <trkpt lat="-3.1075360" lon="37.3473590">
    <ele>4082.9</ele>
    <time>2026-06-22T08:04:33Z</time>
   </trkpt>
   <trkpt lat="-3.1075400" lon="37.3473680">
    <ele>4082.7</ele>
    <time>2026-06-22T08:04:34Z</time>
   </trkpt>
   <trkpt lat="-3.1075460" lon="37.3473780">
    <ele>4082.5</ele>
    <time>2026-06-22T08:04:35Z</time>
   </trkpt>
   <trkpt lat="-3.1075570" lon="37.3473910">
    <ele>4082.3</ele>
    <time>2026-06-22T08:04:36Z</time>
   </trkpt>
   <trkpt lat="-3.1075630" lon="37.3473950">
    <ele>4082.2</ele>
    <time>2026-06-22T08:04:37Z</time>
   </trkpt>
   <trkpt lat="-3.1075710" lon="37.3473970">
    <ele>4082.1</ele>
    <time>2026-06-22T08:04:38Z</time>
   </trkpt>
   <trkpt lat="-3.1075760" lon="37.3473980">
    <ele>4082.0</ele>
    <time>2026-06-22T08:04:39Z</time>
   </trkpt>
   <trkpt lat="-3.1075830" lon="37.3474030">
    <ele>4081.9</ele>
    <time>2026-06-22T08:04:40Z</time>
   </trkpt>
   <trkpt lat="-3.1075880" lon="37.3474110">
    <ele>4081.7</ele>
    <time>2026-06-22T08:04:41Z</time>
   </trkpt>
   <trkpt lat="-3.1075940" lon="37.3474160">
    <ele>4081.6</ele>
    <time>2026-06-22T08:04:42Z</time>
   </trkpt>
   <trkpt lat="-3.1075960" lon="37.3474190">
    <ele>4081.6</ele>
    <time>2026-06-22T08:04:43Z</time>
   </trkpt>
   <trkpt lat="-3.1075990" lon="37.3474240">
    <ele>4081.5</ele>
    <time>2026-06-22T08:04:44Z</time>
   </trkpt>
   <trkpt lat="-3.1076060" lon="37.3474300">
    <ele>4081.4</ele>
    <time>2026-06-22T08:04:45Z</time>
   </trkpt>
   <trkpt lat="-3.1076150" lon="37.3474360">
    <ele>4081.2</ele>
    <time>2026-06-22T08:04:46Z</time>
   </trkpt>
   <trkpt lat="-3.1076230" lon="37.3474430">
    <ele>4081.1</ele>
    <time>2026-06-22T08:04:47Z</time>
   </trkpt>
   <trkpt lat="-3.1076300" lon="37.3474500">
    <ele>4080.9</ele>
    <time>2026-06-22T08:04:48Z</time>
   </trkpt>
   <trkpt lat="-3.1076360" lon="37.3474580">
    <ele>4080.8</ele>
    <time>2026-06-22T08:04:49Z</time>
   </trkpt>
   <trkpt lat="-3.1076410" lon="37.3474650">
    <ele>4080.7</ele>
    <time>2026-06-22T08:04:50Z</time>
   </trkpt>
   <trkpt lat="-3.1076480" lon="37.3474740">
    <ele>4080.5</ele>
    <time>2026-06-22T08:04:51Z</time>
   </trkpt>
   <trkpt lat="-3.1076530" lon="37.3474830">
    <ele>4080.4</ele>
    <time>2026-06-22T08:04:52Z</time>
   </trkpt>
   <trkpt lat="-3.1076600" lon="37.3474880">
    <ele>4080.3</ele>
    <time>2026-06-22T08:04:53Z</time>
   </trkpt>
   <trkpt lat="-3.1076670" lon="37.3474940">
    <ele>4080.2</ele>
    <time>2026-06-22T08:04:54Z</time>
   </trkpt>
   <trkpt lat="-3.1076710" lon="37.3474980">
    <ele>4080.1</ele>
    <time>2026-06-22T08:04:55Z</time>
   </trkpt>
   <trkpt lat="-3.1076780" lon="37.3475050">
    <ele>4080.0</ele>
    <time>2026-06-22T08:04:56Z</time>
   </trkpt>
   <trkpt lat="-3.1076840" lon="37.3475110">
    <ele>4079.9</ele>
    <time>2026-06-22T08:04:57Z</time>
   </trkpt>
   <trkpt lat="-3.1076920" lon="37.3475130">
    <ele>4079.8</ele>
    <time>2026-06-22T08:04:58Z</time>
   </trkpt>
   <trkpt lat="-3.1076980" lon="37.3475200">
    <ele>4079.6</ele>
    <time>2026-06-22T08:04:59Z</time>
   </trkpt>
   <trkpt lat="-3.1077050" lon="37.3475290">
    <ele>4079.5</ele>
    <time>2026-06-22T08:05:00Z</time>
   </trkpt>
   <trkpt lat="-3.1077100" lon="37.3475350">
    <ele>4079.4</ele>
    <time>2026-06-22T08:05:01Z</time>
   </trkpt>
   <trkpt lat="-3.1077150" lon="37.3475430">
    <ele>4079.3</ele>
    <time>2026-06-22T08:05:02Z</time>
   </trkpt>
   <trkpt lat="-3.1077210" lon="37.3475520">
    <ele>4079.2</ele>
    <time>2026-06-22T08:05:03Z</time>
   </trkpt>
   <trkpt lat="-3.1077290" lon="37.3475580">
    <ele>4079.1</ele>
    <time>2026-06-22T08:05:04Z</time>
   </trkpt>
   <trkpt lat="-3.1077360" lon="37.3475640">
    <ele>4079.0</ele>
    <time>2026-06-22T08:05:05Z</time>
   </trkpt>
   <trkpt lat="-3.1077450" lon="37.3475680">
    <ele>4078.9</ele>
    <time>2026-06-22T08:05:06Z</time>
   </trkpt>
   <trkpt lat="-3.1077530" lon="37.3475740">
    <ele>4078.8</ele>
    <time>2026-06-22T08:05:07Z</time>
   </trkpt>
   <trkpt lat="-3.1077620" lon="37.3475820">
    <ele>4078.6</ele>
    <time>2026-06-22T08:05:08Z</time>
   </trkpt>
   <trkpt lat="-3.1077660" lon="37.3475860">
    <ele>4078.6</ele>
    <time>2026-06-22T08:05:09Z</time>
   </trkpt>
   <trkpt lat="-3.1077720" lon="37.3475950">
    <ele>4078.5</ele>
    <time>2026-06-22T08:05:10Z</time>
   </trkpt>
   <trkpt lat="-3.1077820" lon="37.3476020">
    <ele>4078.3</ele>
    <time>2026-06-22T08:05:11Z</time>
   </trkpt>
   <trkpt lat="-3.1077950" lon="37.3476090">
    <ele>4078.2</ele>
    <time>2026-06-22T08:05:12Z</time>
   </trkpt>
   <trkpt lat="-3.1078020" lon="37.3476170">
    <ele>4078.1</ele>
    <time>2026-06-22T08:05:13Z</time>
   </trkpt>
   <trkpt lat="-3.1078100" lon="37.3476210">
    <ele>4078.0</ele>
    <time>2026-06-22T08:05:14Z</time>
   </trkpt>
   <trkpt lat="-3.1078160" lon="37.3476230">
    <ele>4077.9</ele>
    <time>2026-06-22T08:05:15Z</time>
   </trkpt>
   <trkpt lat="-3.1078260" lon="37.3476340">
    <ele>4077.8</ele>
    <time>2026-06-22T08:05:16Z</time>
   </trkpt>
   <trkpt lat="-3.1078320" lon="37.3476420">
    <ele>4077.7</ele>
    <time>2026-06-22T08:05:17Z</time>
   </trkpt>
   <trkpt lat="-3.1078350" lon="37.3476470">
    <ele>4077.6</ele>
    <time>2026-06-22T08:05:18Z</time>
   </trkpt>
   <trkpt lat="-3.1078430" lon="37.3476630">
    <ele>4077.4</ele>
    <time>2026-06-22T08:05:19Z</time>
   </trkpt>
   <trkpt lat="-3.1078500" lon="37.3476720">
    <ele>4077.3</ele>
    <time>2026-06-22T08:05:20Z</time>
   </trkpt>
   <trkpt lat="-3.1078600" lon="37.3476740">
    <ele>4077.2</ele>
    <time>2026-06-22T08:05:21Z</time>
   </trkpt>
   <trkpt lat="-3.1078680" lon="37.3476770">
    <ele>4077.1</ele>
    <time>2026-06-22T08:05:22Z</time>
   </trkpt>
   <trkpt lat="-3.1078760" lon="37.3476820">
    <ele>4077.1</ele>
    <time>2026-06-22T08:05:23Z</time>
   </trkpt>
   <trkpt lat="-3.1078860" lon="37.3476910">
    <ele>4076.9</ele>
    <time>2026-06-22T08:05:24Z</time>
   </trkpt>
   <trkpt lat="-3.1078910" lon="37.3477000">
    <ele>4076.8</ele>
    <time>2026-06-22T08:05:25Z</time>
   </trkpt>
   <trkpt lat="-3.1078970" lon="37.3477080">
    <ele>4076.7</ele>
    <time>2026-06-22T08:05:26Z</time>
   </trkpt>
   <trkpt lat="-3.1079060" lon="37.3477130">
    <ele>4076.7</ele>
    <time>2026-06-22T08:05:27Z</time>
   </trkpt>
   <trkpt lat="-3.1079140" lon="37.3477170">
    <ele>4076.6</ele>
    <time>2026-06-22T08:05:28Z</time>
   </trkpt>
   <trkpt lat="-3.1079230" lon="37.3477210">
    <ele>4076.5</ele>
    <time>2026-06-22T08:05:29Z</time>
   </trkpt>
   <trkpt lat="-3.1079310" lon="37.3477250">
    <ele>4076.4</ele>
    <time>2026-06-22T08:05:30Z</time>
   </trkpt>
   <trkpt lat="-3.1079410" lon="37.3477330">
    <ele>4076.3</ele>
    <time>2026-06-22T08:05:31Z</time>
   </trkpt>
   <trkpt lat="-3.1079450" lon="37.3477390">
    <ele>4076.3</ele>
    <time>2026-06-22T08:05:32Z</time>
   </trkpt>
   <trkpt lat="-3.1079520" lon="37.3477430">
    <ele>4076.2</ele>
    <time>2026-06-22T08:05:33Z</time>
   </trkpt>
   <trkpt lat="-3.1079620" lon="37.3477470">
    <ele>4076.1</ele>
    <time>2026-06-22T08:05:34Z</time>
   </trkpt>
   <trkpt lat="-3.1079720" lon="37.3477510">
    <ele>4076.0</ele>
    <time>2026-06-22T08:05:35Z</time>
   </trkpt>
   <trkpt lat="-3.1079860" lon="37.3477550">
    <ele>4075.9</ele>
    <time>2026-06-22T08:05:36Z</time>
   </trkpt>
   <trkpt lat="-3.1079920" lon="37.3477610">
    <ele>4075.8</ele>
    <time>2026-06-22T08:05:37Z</time>
   </trkpt>
   <trkpt lat="-3.1079940" lon="37.3477650">
    <ele>4075.8</ele>
    <time>2026-06-22T08:05:38Z</time>
   </trkpt>
   <trkpt lat="-3.1080000" lon="37.3477710">
    <ele>4075.7</ele>
    <time>2026-06-22T08:05:39Z</time>
   </trkpt>
   <trkpt lat="-3.1080140" lon="37.3477840">
    <ele>4075.6</ele>
    <time>2026-06-22T08:05:40Z</time>
   </trkpt>
   <trkpt lat="-3.1080210" lon="37.3477940">
    <ele>4075.5</ele>
    <time>2026-06-22T08:05:41Z</time>
   </trkpt>
   <trkpt lat="-3.1080270" lon="37.3478050">
    <ele>4075.4</ele>
    <time>2026-06-22T08:05:42Z</time>
   </trkpt>
   <trkpt lat="-3.1080330" lon="37.3478100">
    <ele>4075.3</ele>
    <time>2026-06-22T08:05:43Z</time>
   </trkpt>
   <trkpt lat="-3.1080390" lon="37.3478110">
    <ele>4075.3</ele>
    <time>2026-06-22T08:05:44Z</time>
   </trkpt>
   <trkpt lat="-3.1080340" lon="37.3478030">
    <ele>4075.2</ele>
    <time>2026-06-22T08:05:45Z</time>
   </trkpt>
   <trkpt lat="-3.1080360" lon="37.3478100">
    <ele>4075.1</ele>
    <time>2026-06-22T08:05:46Z</time>
   </trkpt>
   <trkpt lat="-3.1080520" lon="37.3478180">
    <ele>4075.0</ele>
    <time>2026-06-22T08:05:47Z</time>
   </trkpt>
   <trkpt lat="-3.1080630" lon="37.3478240">
    <ele>4074.9</ele>
    <time>2026-06-22T08:05:48Z</time>
   </trkpt>
   <trkpt lat="-3.1080690" lon="37.3478290">
    <ele>4074.9</ele>
    <time>2026-06-22T08:05:49Z</time>
   </trkpt>
   <trkpt lat="-3.1080760" lon="37.3478370">
    <ele>4074.8</ele>
    <time>2026-06-22T08:05:50Z</time>
   </trkpt>
   <trkpt lat="-3.1080820" lon="37.3478450">
    <ele>4074.7</ele>
    <time>2026-06-22T08:05:51Z</time>
   </trkpt>
   <trkpt lat="-3.1080870" lon="37.3478540">
    <ele>4074.6</ele>
    <time>2026-06-22T08:05:52Z</time>
   </trkpt>
   <trkpt lat="-3.1080910" lon="37.3478600">
    <ele>4074.6</ele>
    <time>2026-06-22T08:05:53Z</time>
   </trkpt>
   <trkpt lat="-3.1081000" lon="37.3478690">
    <ele>4074.5</ele>
    <time>2026-06-22T08:05:54Z</time>
   </trkpt>
   <trkpt lat="-3.1081160" lon="37.3478750">
    <ele>4074.4</ele>
    <time>2026-06-22T08:05:55Z</time>
   </trkpt>
   <trkpt lat="-3.1081260" lon="37.3478680">
    <ele>4074.3</ele>
    <time>2026-06-22T08:05:56Z</time>
   </trkpt>
   <trkpt lat="-3.1081360" lon="37.3478700">
    <ele>4074.2</ele>
    <time>2026-06-22T08:05:57Z</time>
   </trkpt>
   <trkpt lat="-3.1081450" lon="37.3478760">
    <ele>4074.1</ele>
    <time>2026-06-22T08:05:58Z</time>
   </trkpt>
   <trkpt lat="-3.1081560" lon="37.3478800">
    <ele>4074.1</ele>
    <time>2026-06-22T08:05:59Z</time>
   </trkpt>
   <trkpt lat="-3.1081640" lon="37.3478860">
    <ele>4074.0</ele>
    <time>2026-06-22T08:06:00Z</time>
   </trkpt>
   <trkpt lat="-3.1081720" lon="37.3478920">
    <ele>4073.9</ele>
    <time>2026-06-22T08:06:01Z</time>
   </trkpt>
   <trkpt lat="-3.1081790" lon="37.3478990">
    <ele>4073.9</ele>
    <time>2026-06-22T08:06:02Z</time>
   </trkpt>
   <trkpt lat="-3.1081840" lon="37.3479090">
    <ele>4073.8</ele>
    <time>2026-06-22T08:06:03Z</time>
   </trkpt>
   <trkpt lat="-3.1081830" lon="37.3479190">
    <ele>4073.7</ele>
    <time>2026-06-22T08:06:04Z</time>
   </trkpt>
   <trkpt lat="-3.1081780" lon="37.3479270">
    <ele>4073.7</ele>
    <time>2026-06-22T08:06:05Z</time>
   </trkpt>
   <trkpt lat="-3.1081740" lon="37.3479380">
    <ele>4073.6</ele>
    <time>2026-06-22T08:06:06Z</time>
   </trkpt>
   <trkpt lat="-3.1081770" lon="37.3479440">
    <ele>4073.5</ele>
    <time>2026-06-22T08:06:07Z</time>
   </trkpt>
   <trkpt lat="-3.1081850" lon="37.3479490">
    <ele>4073.5</ele>
    <time>2026-06-22T08:06:08Z</time>
   </trkpt>
   <trkpt lat="-3.1082000" lon="37.3479500">
    <ele>4073.4</ele>
    <time>2026-06-22T08:06:09Z</time>
   </trkpt>
   <trkpt lat="-3.1082110" lon="37.3479530">
    <ele>4073.3</ele>
    <time>2026-06-22T08:06:10Z</time>
   </trkpt>
   <trkpt lat="-3.1082230" lon="37.3479560">
    <ele>4073.3</ele>
    <time>2026-06-22T08:06:11Z</time>
   </trkpt>
   <trkpt lat="-3.1082300" lon="37.3479590">
    <ele>4073.3</ele>
    <time>2026-06-22T08:06:12Z</time>
   </trkpt>
   <trkpt lat="-3.1082380" lon="37.3479630">
    <ele>4073.2</ele>
    <time>2026-06-22T08:06:13Z</time>
   </trkpt>
   <trkpt lat="-3.1082490" lon="37.3479680">
    <ele>4073.2</ele>
    <time>2026-06-22T08:06:14Z</time>
   </trkpt>
   <trkpt lat="-3.1082560" lon="37.3479760">
    <ele>4073.1</ele>
    <time>2026-06-22T08:06:15Z</time>
   </trkpt>
   <trkpt lat="-3.1082630" lon="37.3479830">
    <ele>4073.1</ele>
    <time>2026-06-22T08:06:16Z</time>
   </trkpt>
   <trkpt lat="-3.1082720" lon="37.3479910">
    <ele>4073.0</ele>
    <time>2026-06-22T08:06:17Z</time>
   </trkpt>
   <trkpt lat="-3.1082840" lon="37.3479960">
    <ele>4073.0</ele>
    <time>2026-06-22T08:06:18Z</time>
   </trkpt>
   <trkpt lat="-3.1082900" lon="37.3480000">
    <ele>4072.9</ele>
    <time>2026-06-22T08:06:19Z</time>
   </trkpt>
   <trkpt lat="-3.1082960" lon="37.3480000">
    <ele>4072.9</ele>
    <time>2026-06-22T08:06:20Z</time>
   </trkpt>
   <trkpt lat="-3.1083070" lon="37.3480040">
    <ele>4072.9</ele>
    <time>2026-06-22T08:06:21Z</time>
   </trkpt>
   <trkpt lat="-3.1083160" lon="37.3480090">
    <ele>4072.8</ele>
    <time>2026-06-22T08:06:22Z</time>
   </trkpt>
   <trkpt lat="-3.1083230" lon="37.3480110">
    <ele>4072.8</ele>
    <time>2026-06-22T08:06:23Z</time>
   </trkpt>
   <trkpt lat="-3.1083290" lon="37.3480180">
    <ele>4072.8</ele>
    <time>2026-06-22T08:06:24Z</time>
   </trkpt>
   <trkpt lat="-3.1083350" lon="37.3480270">
    <ele>4072.7</ele>
    <time>2026-06-22T08:06:25Z</time>
   </trkpt>
   <trkpt lat="-3.1083390" lon="37.3480370">
    <ele>4072.7</ele>
    <time>2026-06-22T08:06:26Z</time>
   </trkpt>
   <trkpt lat="-3.1083430" lon="37.3480420">
    <ele>4072.7</ele>
    <time>2026-06-22T08:06:27Z</time>
   </trkpt>
   <trkpt lat="-3.1083520" lon="37.3480490">
    <ele>4072.7</ele>
    <time>2026-06-22T08:06:28Z</time>
   </trkpt>
   <trkpt lat="-3.1083630" lon="37.3480490">
    <ele>4072.6</ele>
    <time>2026-06-22T08:06:29Z</time>
   </trkpt>
   <trkpt lat="-3.1083700" lon="37.3480520">
    <ele>4072.6</ele>
    <time>2026-06-22T08:06:30Z</time>
   </trkpt>
   <trkpt lat="-3.1083760" lon="37.3480580">
    <ele>4072.6</ele>
    <time>2026-06-22T08:06:31Z</time>
   </trkpt>
   <trkpt lat="-3.1083780" lon="37.3480590">
    <ele>4072.6</ele>
    <time>2026-06-22T08:06:32Z</time>
   </trkpt>
   <trkpt lat="-3.1083860" lon="37.3480610">
    <ele>4072.6</ele>
    <time>2026-06-22T08:06:33Z</time>
   </trkpt>
   <trkpt lat="-3.1084030" lon="37.3480650">
    <ele>4072.5</ele>
    <time>2026-06-22T08:06:34Z</time>
   </trkpt>
   <trkpt lat="-3.1084110" lon="37.3480730">
    <ele>4072.5</ele>
    <time>2026-06-22T08:06:35Z</time>
   </trkpt>
   <trkpt lat="-3.1084210" lon="37.3480880">
    <ele>4072.5</ele>
    <time>2026-06-22T08:06:36Z</time>
   </trkpt>
   <trkpt lat="-3.1084280" lon="37.3480960">
    <ele>4072.5</ele>
    <time>2026-06-22T08:06:37Z</time>
   </trkpt>
   <trkpt lat="-3.1084340" lon="37.3480970">
    <ele>4072.5</ele>
    <time>2026-06-22T08:06:38Z</time>
   </trkpt>
   <trkpt lat="-3.1084410" lon="37.3481020">
    <ele>4072.4</ele>
    <time>2026-06-22T08:06:39Z</time>
   </trkpt>
   <trkpt lat="-3.1084490" lon="37.3481100">
    <ele>4072.4</ele>
    <time>2026-06-22T08:06:40Z</time>
   </trkpt>
   <trkpt lat="-3.1084580" lon="37.3481160">
    <ele>4072.4</ele>
    <time>2026-06-22T08:06:41Z</time>
   </trkpt>
   <trkpt lat="-3.1084660" lon="37.3481230">
    <ele>4072.4</ele>
    <time>2026-06-22T08:06:42Z</time>
   </trkpt>
   <trkpt lat="-3.1084730" lon="37.3481290">
    <ele>4072.4</ele>
    <time>2026-06-22T08:06:43Z</time>
   </trkpt>
   <trkpt lat="-3.1084800" lon="37.3481350">
    <ele>4072.4</ele>
    <time>2026-06-22T08:06:44Z</time>
   </trkpt>
   <trkpt lat="-3.1084900" lon="37.3481420">
    <ele>4072.4</ele>
    <time>2026-06-22T08:06:45Z</time>
   </trkpt>
   <trkpt lat="-3.1085000" lon="37.3481480">
    <ele>4072.4</ele>
    <time>2026-06-22T08:06:46Z</time>
   </trkpt>
   <trkpt lat="-3.1085090" lon="37.3481520">
    <ele>4072.4</ele>
    <time>2026-06-22T08:06:47Z</time>
   </trkpt>
   <trkpt lat="-3.1085180" lon="37.3481560">
    <ele>4072.4</ele>
    <time>2026-06-22T08:06:48Z</time>
   </trkpt>
   <trkpt lat="-3.1085280" lon="37.3481620">
    <ele>4072.4</ele>
    <time>2026-06-22T08:06:49Z</time>
   </trkpt>
   <trkpt lat="-3.1085390" lon="37.3481690">
    <ele>4072.4</ele>
    <time>2026-06-22T08:06:50Z</time>
   </trkpt>
   <trkpt lat="-3.1085520" lon="37.3481750">
    <ele>4072.4</ele>
    <time>2026-06-22T08:06:51Z</time>
   </trkpt>
   <trkpt lat="-3.1085590" lon="37.3481810">
    <ele>4072.4</ele>
    <time>2026-06-22T08:06:52Z</time>
   </trkpt>
   <trkpt lat="-3.1085680" lon="37.3481910">
    <ele>4072.4</ele>
    <time>2026-06-22T08:06:53Z</time>
   </trkpt>
   <trkpt lat="-3.1085740" lon="37.3481950">
    <ele>4072.4</ele>
    <time>2026-06-22T08:06:54Z</time>
   </trkpt>
   <trkpt lat="-3.1085820" lon="37.3482060">
    <ele>4072.4</ele>
    <time>2026-06-22T08:06:55Z</time>
   </trkpt>
   <trkpt lat="-3.1085890" lon="37.3482180">
    <ele>4072.4</ele>
    <time>2026-06-22T08:06:56Z</time>
   </trkpt>
   <trkpt lat="-3.1085950" lon="37.3482280">
    <ele>4072.4</ele>
    <time>2026-06-22T08:06:57Z</time>
   </trkpt>
   <trkpt lat="-3.1086020" lon="37.3482370">
    <ele>4072.4</ele>
    <time>2026-06-22T08:06:58Z</time>
   </trkpt>
   <trkpt lat="-3.1086070" lon="37.3482410">
    <ele>4072.4</ele>
    <time>2026-06-22T08:06:59Z</time>
   </trkpt>
   <trkpt lat="-3.1086150" lon="37.3482480">
    <ele>4072.4</ele>
    <time>2026-06-22T08:07:00Z</time>
   </trkpt>
   <trkpt lat="-3.1086230" lon="37.3482560">
    <ele>4072.4</ele>
    <time>2026-06-22T08:07:01Z</time>
   </trkpt>
   <trkpt lat="-3.1086320" lon="37.3482650">
    <ele>4072.4</ele>
    <time>2026-06-22T08:07:02Z</time>
   </trkpt>
   <trkpt lat="-3.1086410" lon="37.3482720">
    <ele>4072.4</ele>
    <time>2026-06-22T08:07:03Z</time>
   </trkpt>
   <trkpt lat="-3.1086490" lon="37.3482810">
    <ele>4072.4</ele>
    <time>2026-06-22T08:07:04Z</time>
   </trkpt>
   <trkpt lat="-3.1086560" lon="37.3482870">
    <ele>4072.5</ele>
    <time>2026-06-22T08:07:05Z</time>
   </trkpt>
   <trkpt lat="-3.1086600" lon="37.3482960">
    <ele>4072.5</ele>
    <time>2026-06-22T08:07:06Z</time>
   </trkpt>
   <trkpt lat="-3.1086640" lon="37.3483040">
    <ele>4072.5</ele>
    <time>2026-06-22T08:07:07Z</time>
   </trkpt>
   <trkpt lat="-3.1086700" lon="37.3483120">
    <ele>4072.5</ele>
    <time>2026-06-22T08:07:08Z</time>
   </trkpt>
   <trkpt lat="-3.1086760" lon="37.3483230">
    <ele>4072.5</ele>
    <time>2026-06-22T08:07:09Z</time>
   </trkpt>
   <trkpt lat="-3.1086780" lon="37.3483330">
    <ele>4072.5</ele>
    <time>2026-06-22T08:07:10Z</time>
   </trkpt>
   <trkpt lat="-3.1086820" lon="37.3483420">
    <ele>4072.5</ele>
    <time>2026-06-22T08:07:11Z</time>
   </trkpt>
   <trkpt lat="-3.1086850" lon="37.3483530">
    <ele>4072.4</ele>
    <time>2026-06-22T08:07:12Z</time>
   </trkpt>
   <trkpt lat="-3.1086900" lon="37.3483600">
    <ele>4072.4</ele>
    <time>2026-06-22T08:07:13Z</time>
   </trkpt>
   <trkpt lat="-3.1086940" lon="37.3483680">
    <ele>4072.4</ele>
    <time>2026-06-22T08:07:14Z</time>
   </trkpt>
   <trkpt lat="-3.1086930" lon="37.3483780">
    <ele>4072.4</ele>
    <time>2026-06-22T08:07:15Z</time>
   </trkpt>
   <trkpt lat="-3.1086910" lon="37.3483850">
    <ele>4072.4</ele>
    <time>2026-06-22T08:07:16Z</time>
   </trkpt>
   <trkpt lat="-3.1086950" lon="37.3483920">
    <ele>4072.4</ele>
    <time>2026-06-22T08:07:17Z</time>
   </trkpt>
   <trkpt lat="-3.1087030" lon="37.3483990">
    <ele>4072.3</ele>
    <time>2026-06-22T08:07:18Z</time>
   </trkpt>
   <trkpt lat="-3.1087110" lon="37.3484080">
    <ele>4072.3</ele>
    <time>2026-06-22T08:07:19Z</time>
   </trkpt>
   <trkpt lat="-3.1087200" lon="37.3484180">
    <ele>4072.2</ele>
    <time>2026-06-22T08:07:20Z</time>
   </trkpt>
   <trkpt lat="-3.1087290" lon="37.3484270">
    <ele>4072.2</ele>
    <time>2026-06-22T08:07:21Z</time>
   </trkpt>
   <trkpt lat="-3.1087330" lon="37.3484400">
    <ele>4072.1</ele>
    <time>2026-06-22T08:07:22Z</time>
   </trkpt>
   <trkpt lat="-3.1087360" lon="37.3484500">
    <ele>4072.1</ele>
    <time>2026-06-22T08:07:23Z</time>
   </trkpt>
   <trkpt lat="-3.1087410" lon="37.3484610">
    <ele>4072.0</ele>
    <time>2026-06-22T08:07:24Z</time>
   </trkpt>
   <trkpt lat="-3.1087450" lon="37.3484630">
    <ele>4072.0</ele>
    <time>2026-06-22T08:07:25Z</time>
   </trkpt>
   <trkpt lat="-3.1087440" lon="37.3484720">
    <ele>4071.9</ele>
    <time>2026-06-22T08:07:26Z</time>
   </trkpt>
   <trkpt lat="-3.1087450" lon="37.3484760">
    <ele>4071.9</ele>
    <time>2026-06-22T08:07:27Z</time>
   </trkpt>
   <trkpt lat="-3.1087560" lon="37.3484830">
    <ele>4071.8</ele>
    <time>2026-06-22T08:07:28Z</time>
   </trkpt>
   <trkpt lat="-3.1087660" lon="37.3484840">
    <ele>4071.7</ele>
    <time>2026-06-22T08:07:29Z</time>
   </trkpt>
   <trkpt lat="-3.1087740" lon="37.3484870">
    <ele>4071.6</ele>
    <time>2026-06-22T08:07:30Z</time>
   </trkpt>
   <trkpt lat="-3.1087810" lon="37.3484910">
    <ele>4071.6</ele>
    <time>2026-06-22T08:07:31Z</time>
   </trkpt>
   <trkpt lat="-3.1087940" lon="37.3484950">
    <ele>4071.4</ele>
    <time>2026-06-22T08:07:32Z</time>
   </trkpt>
   <trkpt lat="-3.1088060" lon="37.3484960">
    <ele>4071.3</ele>
    <time>2026-06-22T08:07:33Z</time>
   </trkpt>
   <trkpt lat="-3.1088210" lon="37.3484910">
    <ele>4071.2</ele>
    <time>2026-06-22T08:07:34Z</time>
   </trkpt>
   <trkpt lat="-3.1088330" lon="37.3484910">
    <ele>4071.0</ele>
    <time>2026-06-22T08:07:35Z</time>
   </trkpt>
   <trkpt lat="-3.1088420" lon="37.3484980">
    <ele>4070.9</ele>
    <time>2026-06-22T08:07:36Z</time>
   </trkpt>
   <trkpt lat="-3.1088390" lon="37.3485070">
    <ele>4070.8</ele>
    <time>2026-06-22T08:07:37Z</time>
   </trkpt>
   <trkpt lat="-3.1088390" lon="37.3485130">
    <ele>4070.7</ele>
    <time>2026-06-22T08:07:38Z</time>
   </trkpt>
   <trkpt lat="-3.1088350" lon="37.3485080">
    <ele>4070.6</ele>
    <time>2026-06-22T08:07:39Z</time>
   </trkpt>
   <trkpt lat="-3.1088370" lon="37.3485080">
    <ele>4070.6</ele>
    <time>2026-06-22T08:07:40Z</time>
   </trkpt>
   <trkpt lat="-3.1088380" lon="37.3485010">
    <ele>4070.5</ele>
    <time>2026-06-22T08:07:41Z</time>
   </trkpt>
   <trkpt lat="-3.1088410" lon="37.3484930">
    <ele>4070.4</ele>
    <time>2026-06-22T08:07:42Z</time>
   </trkpt>
   <trkpt lat="-3.1088410" lon="37.3484950">
    <ele>4070.4</ele>
    <time>2026-06-22T08:07:43Z</time>
   </trkpt>
   <trkpt lat="-3.1088420" lon="37.3484930">
    <ele>4070.4</ele>
    <time>2026-06-22T08:07:44Z</time>
   </trkpt>
   <trkpt lat="-3.1088420" lon="37.3484920">
    <ele>4070.4</ele>
    <time>2026-06-22T08:07:45Z</time>
   </trkpt>
   <trkpt lat="-3.1088410" lon="37.3484920">
    <ele>4070.3</ele>
    <time>2026-06-22T08:07:46Z</time>
   </trkpt>
   <trkpt lat="-3.1088410" lon="37.3484920">
    <ele>4070.3</ele>
    <time>2026-06-22T08:07:47Z</time>
   </trkpt>
   <trkpt lat="-3.1088410" lon="37.3484910">
    <ele>4070.3</ele>
    <time>2026-06-22T08:07:48Z</time>
   </trkpt>
   <trkpt lat="-3.1088410" lon="37.3484910">
    <ele>4070.3</ele>
    <time>2026-06-22T08:07:49Z</time>
   </trkpt>
   <trkpt lat="-3.1088410" lon="37.3484910">
    <ele>4070.3</ele>
    <time>2026-06-22T08:07:50Z</time>
   </trkpt>
   <trkpt lat="-3.1088400" lon="37.3484900">
    <ele>4070.3</ele>
    <time>2026-06-22T08:07:51Z</time>
   </trkpt>
   <trkpt lat="-3.1088400" lon="37.3484900">
    <ele>4070.3</ele>
    <time>2026-06-22T08:07:52Z</time>
   </trkpt>
   <trkpt lat="-3.1088390" lon="37.3484900">
    <ele>4070.3</ele>
    <time>2026-06-22T08:07:53Z</time>
   </trkpt>
   <trkpt lat="-3.1088390" lon="37.3484900">
    <ele>4070.3</ele>
    <time>2026-06-22T08:07:54Z</time>
   </trkpt>
   <trkpt lat="-3.1088380" lon="37.3484910">
    <ele>4070.3</ele>
    <time>2026-06-22T08:07:55Z</time>
   </trkpt>
   <trkpt lat="-3.1088370" lon="37.3484940">
    <ele>4070.2</ele>
    <time>2026-06-22T08:07:56Z</time>
   </trkpt>
   <trkpt lat="-3.1088370" lon="37.3484950">
    <ele>4070.2</ele>
    <time>2026-06-22T08:07:57Z</time>
   </trkpt>
   <trkpt lat="-3.1088360" lon="37.3484950">
    <ele>4070.2</ele>
    <time>2026-06-22T08:07:58Z</time>
   </trkpt>
   <trkpt lat="-3.1088370" lon="37.3484950">
    <ele>4070.2</ele>
    <time>2026-06-22T08:07:59Z</time>
   </trkpt>
   <trkpt lat="-3.1088370" lon="37.3484960">
    <ele>4070.2</ele>
    <time>2026-06-22T08:08:00Z</time>
   </trkpt>
   <trkpt lat="-3.1088380" lon="37.3484980">
    <ele>4070.1</ele>
    <time>2026-06-22T08:08:01Z</time>
   </trkpt>
   <trkpt lat="-3.1088360" lon="37.3485010">
    <ele>4070.1</ele>
    <time>2026-06-22T08:08:02Z</time>
   </trkpt>
   <trkpt lat="-3.1088340" lon="37.3485080">
    <ele>4070.0</ele>
    <time>2026-06-22T08:08:03Z</time>
   </trkpt>
   <trkpt lat="-3.1088320" lon="37.3485160">
    <ele>4069.9</ele>
    <time>2026-06-22T08:08:04Z</time>
   </trkpt>
   <trkpt lat="-3.1088310" lon="37.3485250">
    <ele>4069.7</ele>
    <time>2026-06-22T08:08:05Z</time>
   </trkpt>
   <trkpt lat="-3.1088320" lon="37.3485240">
    <ele>4069.7</ele>
    <time>2026-06-22T08:08:06Z</time>
   </trkpt>
   <trkpt lat="-3.1088290" lon="37.3485270">
    <ele>4069.6</ele>
    <time>2026-06-22T08:08:07Z</time>
   </trkpt>
   <trkpt lat="-3.1088250" lon="37.3485330">
    <ele>4069.5</ele>
    <time>2026-06-22T08:08:08Z</time>
   </trkpt>
   <trkpt lat="-3.1088180" lon="37.3485380">
    <ele>4069.4</ele>
    <time>2026-06-22T08:08:09Z</time>
   </trkpt>
   <trkpt lat="-3.1088190" lon="37.3485450">
    <ele>4069.3</ele>
    <time>2026-06-22T08:08:10Z</time>
   </trkpt>
   <trkpt lat="-3.1088210" lon="37.3485500">
    <ele>4069.2</ele>
    <time>2026-06-22T08:08:11Z</time>
   </trkpt>
   <trkpt lat="-3.1088210" lon="37.3485530">
    <ele>4069.2</ele>
    <time>2026-06-22T08:08:12Z</time>
   </trkpt>
   <trkpt lat="-3.1088260" lon="37.3485540">
    <ele>4069.1</ele>
    <time>2026-06-22T08:08:13Z</time>
   </trkpt>
   <trkpt lat="-3.1088310" lon="37.3485560">
    <ele>4069.0</ele>
    <time>2026-06-22T08:08:14Z</time>
   </trkpt>
   <trkpt lat="-3.1088340" lon="37.3485580">
    <ele>4069.0</ele>
    <time>2026-06-22T08:08:15Z</time>
   </trkpt>
   <trkpt lat="-3.1088400" lon="37.3485600">
    <ele>4068.9</ele>
    <time>2026-06-22T08:08:16Z</time>
   </trkpt>
   <trkpt lat="-3.1088410" lon="37.3485640">
    <ele>4068.8</ele>
    <time>2026-06-22T08:08:17Z</time>
   </trkpt>
   <trkpt lat="-3.1088400" lon="37.3485710">
    <ele>4068.7</ele>
    <time>2026-06-22T08:08:18Z</time>
   </trkpt>
   <trkpt lat="-3.1088400" lon="37.3485750">
    <ele>4068.7</ele>
    <time>2026-06-22T08:08:19Z</time>
   </trkpt>
   <trkpt lat="-3.1088390" lon="37.3485810">
    <ele>4068.6</ele>
    <time>2026-06-22T08:08:20Z</time>
   </trkpt>
   <trkpt lat="-3.1088390" lon="37.3485870">
    <ele>4068.5</ele>
    <time>2026-06-22T08:08:21Z</time>
   </trkpt>
   <trkpt lat="-3.1088390" lon="37.3485930">
    <ele>4068.4</ele>
    <time>2026-06-22T08:08:22Z</time>
   </trkpt>
   <trkpt lat="-3.1088380" lon="37.3485980">
    <ele>4068.3</ele>
    <time>2026-06-22T08:08:23Z</time>
   </trkpt>
   <trkpt lat="-3.1088400" lon="37.3486080">
    <ele>4068.2</ele>
    <time>2026-06-22T08:08:24Z</time>
   </trkpt>
   <trkpt lat="-3.1088370" lon="37.3486130">
    <ele>4068.1</ele>
    <time>2026-06-22T08:08:25Z</time>
   </trkpt>
   <trkpt lat="-3.1088380" lon="37.3486200">
    <ele>4068.0</ele>
    <time>2026-06-22T08:08:26Z</time>
   </trkpt>
   <trkpt lat="-3.1088400" lon="37.3486280">
    <ele>4067.9</ele>
    <time>2026-06-22T08:08:27Z</time>
   </trkpt>
   <trkpt lat="-3.1088450" lon="37.3486400">
    <ele>4067.8</ele>
    <time>2026-06-22T08:08:28Z</time>
   </trkpt>
   <trkpt lat="-3.1088500" lon="37.3486460">
    <ele>4067.7</ele>
    <time>2026-06-22T08:08:29Z</time>
   </trkpt>
   <trkpt lat="-3.1088550" lon="37.3486540">
    <ele>4067.6</ele>
    <time>2026-06-22T08:08:30Z</time>
   </trkpt>
   <trkpt lat="-3.1088580" lon="37.3486590">
    <ele>4067.5</ele>
    <time>2026-06-22T08:08:31Z</time>
   </trkpt>
   <trkpt lat="-3.1088620" lon="37.3486660">
    <ele>4067.4</ele>
    <time>2026-06-22T08:08:32Z</time>
   </trkpt>
   <trkpt lat="-3.1088670" lon="37.3486730">
    <ele>4067.3</ele>
    <time>2026-06-22T08:08:33Z</time>
   </trkpt>
   <trkpt lat="-3.1088750" lon="37.3486800">
    <ele>4067.2</ele>
    <time>2026-06-22T08:08:34Z</time>
   </trkpt>
   <trkpt lat="-3.1088840" lon="37.3486830">
    <ele>4067.1</ele>
    <time>2026-06-22T08:08:35Z</time>
   </trkpt>
   <trkpt lat="-3.1088930" lon="37.3486890">
    <ele>4067.0</ele>
    <time>2026-06-22T08:08:36Z</time>
   </trkpt>
   <trkpt lat="-3.1089000" lon="37.3486950">
    <ele>4067.0</ele>
    <time>2026-06-22T08:08:37Z</time>
   </trkpt>
   <trkpt lat="-3.1089080" lon="37.3487040">
    <ele>4066.9</ele>
    <time>2026-06-22T08:08:38Z</time>
   </trkpt>
   <trkpt lat="-3.1089180" lon="37.3487140">
    <ele>4066.7</ele>
    <time>2026-06-22T08:08:39Z</time>
   </trkpt>
   <trkpt lat="-3.1089230" lon="37.3487230">
    <ele>4066.6</ele>
    <time>2026-06-22T08:08:40Z</time>
   </trkpt>
   <trkpt lat="-3.1089250" lon="37.3487270">
    <ele>4066.6</ele>
    <time>2026-06-22T08:08:41Z</time>
   </trkpt>
   <trkpt lat="-3.1089270" lon="37.3487310">
    <ele>4066.6</ele>
    <time>2026-06-22T08:08:42Z</time>
   </trkpt>
   <trkpt lat="-3.1089360" lon="37.3487470">
    <ele>4066.4</ele>
    <time>2026-06-22T08:08:43Z</time>
   </trkpt>
   <trkpt lat="-3.1089450" lon="37.3487520">
    <ele>4066.3</ele>
    <time>2026-06-22T08:08:44Z</time>
   </trkpt>
   <trkpt lat="-3.1089500" lon="37.3487500">
    <ele>4066.3</ele>
    <time>2026-06-22T08:08:45Z</time>
   </trkpt>
   <trkpt lat="-3.1089620" lon="37.3487550">
    <ele>4066.1</ele>
    <time>2026-06-22T08:08:46Z</time>
   </trkpt>
   <trkpt lat="-3.1089710" lon="37.3487590">
    <ele>4066.0</ele>
    <time>2026-06-22T08:08:47Z</time>
   </trkpt>
   <trkpt lat="-3.1089760" lon="37.3487620">
    <ele>4066.0</ele>
    <time>2026-06-22T08:08:48Z</time>
   </trkpt>
   <trkpt lat="-3.1089860" lon="37.3487680">
    <ele>4065.8</ele>
    <time>2026-06-22T08:08:49Z</time>
   </trkpt>
   <trkpt lat="-3.1089920" lon="37.3487710">
    <ele>4065.8</ele>
    <time>2026-06-22T08:08:50Z</time>
   </trkpt>
   <trkpt lat="-3.1089970" lon="37.3487730">
    <ele>4065.7</ele>
    <time>2026-06-22T08:08:51Z</time>
   </trkpt>
   <trkpt lat="-3.1090060" lon="37.3487760">
    <ele>4065.6</ele>
    <time>2026-06-22T08:08:52Z</time>
   </trkpt>
   <trkpt lat="-3.1090110" lon="37.3487760">
    <ele>4065.5</ele>
    <time>2026-06-22T08:08:53Z</time>
   </trkpt>
   <trkpt lat="-3.1090130" lon="37.3487790">
    <ele>4065.5</ele>
    <time>2026-06-22T08:08:54Z</time>
   </trkpt>
   <trkpt lat="-3.1090160" lon="37.3487880">
    <ele>4065.4</ele>
    <time>2026-06-22T08:08:55Z</time>
   </trkpt>
   <trkpt lat="-3.1090200" lon="37.3487980">
    <ele>4065.3</ele>
    <time>2026-06-22T08:08:56Z</time>
   </trkpt>
   <trkpt lat="-3.1090240" lon="37.3488060">
    <ele>4065.1</ele>
    <time>2026-06-22T08:08:57Z</time>
   </trkpt>
   <trkpt lat="-3.1090310" lon="37.3488100">
    <ele>4065.0</ele>
    <time>2026-06-22T08:08:58Z</time>
   </trkpt>
   <trkpt lat="-3.1090380" lon="37.3488130">
    <ele>4064.9</ele>
    <time>2026-06-22T08:08:59Z</time>
   </trkpt>
   <trkpt lat="-3.1090440" lon="37.3488140">
    <ele>4064.9</ele>
    <time>2026-06-22T08:09:00Z</time>
   </trkpt>
   <trkpt lat="-3.1090450" lon="37.3488140">
    <ele>4064.8</ele>
    <time>2026-06-22T08:09:01Z</time>
   </trkpt>
   <trkpt lat="-3.1090460" lon="37.3488180">
    <ele>4064.8</ele>
    <time>2026-06-22T08:09:02Z</time>
   </trkpt>
   <trkpt lat="-3.1090490" lon="37.3488190">
    <ele>4064.7</ele>
    <time>2026-06-22T08:09:03Z</time>
   </trkpt>
   <trkpt lat="-3.1090480" lon="37.3488220">
    <ele>4064.7</ele>
    <time>2026-06-22T08:09:04Z</time>
   </trkpt>
   <trkpt lat="-3.1090470" lon="37.3488230">
    <ele>4064.7</ele>
    <time>2026-06-22T08:09:05Z</time>
   </trkpt>
   <trkpt lat="-3.1090470" lon="37.3488230">
    <ele>4064.7</ele>
    <time>2026-06-22T08:09:06Z</time>
   </trkpt>
   <trkpt lat="-3.1090470" lon="37.3488230">
    <ele>4064.7</ele>
    <time>2026-06-22T08:09:07Z</time>
   </trkpt>
   <trkpt lat="-3.1090460" lon="37.3488230">
    <ele>4064.7</ele>
    <time>2026-06-22T08:09:08Z</time>
   </trkpt>
   <trkpt lat="-3.1090490" lon="37.3488230">
    <ele>4064.6</ele>
    <time>2026-06-22T08:09:09Z</time>
   </trkpt>
   <trkpt lat="-3.1090540" lon="37.3488250">
    <ele>4064.5</ele>
    <time>2026-06-22T08:09:10Z</time>
   </trkpt>
   <trkpt lat="-3.1090580" lon="37.3488250">
    <ele>4064.5</ele>
    <time>2026-06-22T08:09:11Z</time>
   </trkpt>
   <trkpt lat="-3.1090590" lon="37.3488290">
    <ele>4064.4</ele>
    <time>2026-06-22T08:09:12Z</time>
   </trkpt>
   <trkpt lat="-3.1090610" lon="37.3488320">
    <ele>4064.4</ele>
    <time>2026-06-22T08:09:13Z</time>
   </trkpt>
   <trkpt lat="-3.1090640" lon="37.3488370">
    <ele>4064.3</ele>
    <time>2026-06-22T08:09:14Z</time>
   </trkpt>
   <trkpt lat="-3.1090640" lon="37.3488380">
    <ele>4064.3</ele>
    <time>2026-06-22T08:09:15Z</time>
   </trkpt>
   <trkpt lat="-3.1090630" lon="37.3488380">
    <ele>4064.3</ele>
    <time>2026-06-22T08:09:16Z</time>
   </trkpt>
   <trkpt lat="-3.1090630" lon="37.3488380">
    <ele>4064.3</ele>
    <time>2026-06-22T08:09:17Z</time>
   </trkpt>
   <trkpt lat="-3.1090630" lon="37.3488370">
    <ele>4064.3</ele>
    <time>2026-06-22T08:09:18Z</time>
   </trkpt>
   <trkpt lat="-3.1090640" lon="37.3488380">
    <ele>4064.2</ele>
    <time>2026-06-22T08:09:19Z</time>
   </trkpt>
   <trkpt lat="-3.1090630" lon="37.3488380">
    <ele>4064.2</ele>
    <time>2026-06-22T08:09:20Z</time>
   </trkpt>
   <trkpt lat="-3.1090630" lon="37.3488380">
    <ele>4064.2</ele>
    <time>2026-06-22T08:09:21Z</time>
   </trkpt>
   <trkpt lat="-3.1090630" lon="37.3488380">
    <ele>4064.2</ele>
    <time>2026-06-22T08:09:22Z</time>
   </trkpt>
   <trkpt lat="-3.1090630" lon="37.3488390">
    <ele>4064.2</ele>
    <time>2026-06-22T08:09:23Z</time>
   </trkpt>
   <trkpt lat="-3.1090660" lon="37.3488410">
    <ele>4064.1</ele>
    <time>2026-06-22T08:09:24Z</time>
   </trkpt>
   <trkpt lat="-3.1090710" lon="37.3488440">
    <ele>4064.1</ele>
    <time>2026-06-22T08:09:25Z</time>
   </trkpt>
   <trkpt lat="-3.1090730" lon="37.3488470">
    <ele>4064.0</ele>
    <time>2026-06-22T08:09:26Z</time>
   </trkpt>
   <trkpt lat="-3.1090750" lon="37.3488490">
    <ele>4064.0</ele>
    <time>2026-06-22T08:09:27Z</time>
   </trkpt>
   <trkpt lat="-3.1090770" lon="37.3488490">
    <ele>4063.9</ele>
    <time>2026-06-22T08:09:28Z</time>
   </trkpt>
   <trkpt lat="-3.1090860" lon="37.3488530">
    <ele>4063.8</ele>
    <time>2026-06-22T08:09:29Z</time>
   </trkpt>
   <trkpt lat="-3.1090910" lon="37.3488550">
    <ele>4063.7</ele>
    <time>2026-06-22T08:09:30Z</time>
   </trkpt>
   <trkpt lat="-3.1090960" lon="37.3488630">
    <ele>4063.6</ele>
    <time>2026-06-22T08:09:31Z</time>
   </trkpt>
   <trkpt lat="-3.1091000" lon="37.3488650">
    <ele>4063.5</ele>
    <time>2026-06-22T08:09:32Z</time>
   </trkpt>
   <trkpt lat="-3.1091050" lon="37.3488680">
    <ele>4063.4</ele>
    <time>2026-06-22T08:09:33Z</time>
   </trkpt>
   <trkpt lat="-3.1091150" lon="37.3488750">
    <ele>4063.2</ele>
    <time>2026-06-22T08:09:34Z</time>
   </trkpt>
   <trkpt lat="-3.1091220" lon="37.3488800">
    <ele>4063.1</ele>
    <time>2026-06-22T08:09:35Z</time>
   </trkpt>
   <trkpt lat="-3.1091260" lon="37.3488840">
    <ele>4063.0</ele>
    <time>2026-06-22T08:09:36Z</time>
   </trkpt>
   <trkpt lat="-3.1091330" lon="37.3488860">
    <ele>4062.9</ele>
    <time>2026-06-22T08:09:37Z</time>
   </trkpt>
   <trkpt lat="-3.1091480" lon="37.3488880">
    <ele>4062.7</ele>
    <time>2026-06-22T08:09:38Z</time>
   </trkpt>
   <trkpt lat="-3.1091530" lon="37.3488880">
    <ele>4062.6</ele>
    <time>2026-06-22T08:09:39Z</time>
   </trkpt>
   <trkpt lat="-3.1091590" lon="37.3488940">
    <ele>4062.5</ele>
    <time>2026-06-22T08:09:40Z</time>
   </trkpt>
   <trkpt lat="-3.1091740" lon="37.3489030">
    <ele>4062.2</ele>
    <time>2026-06-22T08:09:41Z</time>
   </trkpt>
   <trkpt lat="-3.1091760" lon="37.3489090">
    <ele>4062.1</ele>
    <time>2026-06-22T08:09:42Z</time>
   </trkpt>
   <trkpt lat="-3.1091800" lon="37.3489160">
    <ele>4062.0</ele>
    <time>2026-06-22T08:09:43Z</time>
   </trkpt>
   <trkpt lat="-3.1091850" lon="37.3489260">
    <ele>4061.8</ele>
    <time>2026-06-22T08:09:44Z</time>
   </trkpt>
   <trkpt lat="-3.1091880" lon="37.3489320">
    <ele>4061.7</ele>
    <time>2026-06-22T08:09:45Z</time>
   </trkpt>
   <trkpt lat="-3.1091940" lon="37.3489330">
    <ele>4061.6</ele>
    <time>2026-06-22T08:09:46Z</time>
   </trkpt>
   <trkpt lat="-3.1092010" lon="37.3489350">
    <ele>4061.5</ele>
    <time>2026-06-22T08:09:47Z</time>
   </trkpt>
   <trkpt lat="-3.1092030" lon="37.3489380">
    <ele>4061.5</ele>
    <time>2026-06-22T08:09:48Z</time>
   </trkpt>
   <trkpt lat="-3.1092100" lon="37.3489510">
    <ele>4061.2</ele>
    <time>2026-06-22T08:09:49Z</time>
   </trkpt>
   <trkpt lat="-3.1092150" lon="37.3489600">
    <ele>4061.1</ele>
    <time>2026-06-22T08:09:50Z</time>
   </trkpt>
   <trkpt lat="-3.1092210" lon="37.3489650">
    <ele>4061.0</ele>
    <time>2026-06-22T08:09:51Z</time>
   </trkpt>
   <trkpt lat="-3.1092250" lon="37.3489700">
    <ele>4060.9</ele>
    <time>2026-06-22T08:09:52Z</time>
   </trkpt>
   <trkpt lat="-3.1092280" lon="37.3489710">
    <ele>4060.8</ele>
    <time>2026-06-22T08:09:53Z</time>
   </trkpt>
   <trkpt lat="-3.1092320" lon="37.3489700">
    <ele>4060.8</ele>
    <time>2026-06-22T08:09:54Z</time>
   </trkpt>
   <trkpt lat="-3.1092390" lon="37.3489720">
    <ele>4060.7</ele>
    <time>2026-06-22T08:09:55Z</time>
   </trkpt>
   <trkpt lat="-3.1092410" lon="37.3489700">
    <ele>4060.6</ele>
    <time>2026-06-22T08:09:56Z</time>
   </trkpt>
   <trkpt lat="-3.1092440" lon="37.3489700">
    <ele>4060.6</ele>
    <time>2026-06-22T08:09:57Z</time>
   </trkpt>
   <trkpt lat="-3.1092540" lon="37.3489720">
    <ele>4060.4</ele>
    <time>2026-06-22T08:09:58Z</time>
   </trkpt>
   <trkpt lat="-3.1092560" lon="37.3489720">
    <ele>4060.4</ele>
    <time>2026-06-22T08:09:59Z</time>
   </trkpt>
   <trkpt lat="-3.1092600" lon="37.3489760">
    <ele>4060.3</ele>
    <time>2026-06-22T08:10:00Z</time>
   </trkpt>
   <trkpt lat="-3.1092600" lon="37.3489830">
    <ele>4060.2</ele>
    <time>2026-06-22T08:10:01Z</time>
   </trkpt>
   <trkpt lat="-3.1092640" lon="37.3489890">
    <ele>4060.1</ele>
    <time>2026-06-22T08:10:02Z</time>
   </trkpt>
   <trkpt lat="-3.1092710" lon="37.3489970">
    <ele>4059.9</ele>
    <time>2026-06-22T08:10:03Z</time>
   </trkpt>
   <trkpt lat="-3.1092730" lon="37.3490000">
    <ele>4059.9</ele>
    <time>2026-06-22T08:10:04Z</time>
   </trkpt>
   <trkpt lat="-3.1092740" lon="37.3490080">
    <ele>4059.8</ele>
    <time>2026-06-22T08:10:05Z</time>
   </trkpt>
   <trkpt lat="-3.1092750" lon="37.3490170">
    <ele>4059.6</ele>
    <time>2026-06-22T08:10:06Z</time>
   </trkpt>
   <trkpt lat="-3.1092790" lon="37.3490230">
    <ele>4059.5</ele>
    <time>2026-06-22T08:10:07Z</time>
   </trkpt>
   <trkpt lat="-3.1092850" lon="37.3490300">
    <ele>4059.4</ele>
    <time>2026-06-22T08:10:08Z</time>
   </trkpt>
   <trkpt lat="-3.1092850" lon="37.3490300">
    <ele>4059.4</ele>
    <time>2026-06-22T08:10:09Z</time>
   </trkpt>
   <trkpt lat="-3.1092880" lon="37.3490340">
    <ele>4059.3</ele>
    <time>2026-06-22T08:10:10Z</time>
   </trkpt>
   <trkpt lat="-3.1092920" lon="37.3490380">
    <ele>4059.2</ele>
    <time>2026-06-22T08:10:11Z</time>
   </trkpt>
   <trkpt lat="-3.1092970" lon="37.3490410">
    <ele>4059.1</ele>
    <time>2026-06-22T08:10:12Z</time>
   </trkpt>
   <trkpt lat="-3.1093050" lon="37.3490430">
    <ele>4059.0</ele>
    <time>2026-06-22T08:10:13Z</time>
   </trkpt>
   <trkpt lat="-3.1093060" lon="37.3490430">
    <ele>4059.0</ele>
    <time>2026-06-22T08:10:14Z</time>
   </trkpt>
   <trkpt lat="-3.1093140" lon="37.3490450">
    <ele>4058.8</ele>
    <time>2026-06-22T08:10:15Z</time>
   </trkpt>
   <trkpt lat="-3.1093190" lon="37.3490450">
    <ele>4058.8</ele>
    <time>2026-06-22T08:10:16Z</time>
   </trkpt>
   <trkpt lat="-3.1093230" lon="37.3490430">
    <ele>4058.7</ele>
    <time>2026-06-22T08:10:17Z</time>
   </trkpt>
   <trkpt lat="-3.1093260" lon="37.3490450">
    <ele>4058.6</ele>
    <time>2026-06-22T08:10:18Z</time>
   </trkpt>
   <trkpt lat="-3.1093260" lon="37.3490480">
    <ele>4058.6</ele>
    <time>2026-06-22T08:10:19Z</time>
   </trkpt>
   <trkpt lat="-3.1093300" lon="37.3490490">
    <ele>4058.5</ele>
    <time>2026-06-22T08:10:20Z</time>
   </trkpt>
   <trkpt lat="-3.1093350" lon="37.3490520">
    <ele>4058.4</ele>
    <time>2026-06-22T08:10:21Z</time>
   </trkpt>
   <trkpt lat="-3.1093440" lon="37.3490550">
    <ele>4058.3</ele>
    <time>2026-06-22T08:10:22Z</time>
   </trkpt>
   <trkpt lat="-3.1093440" lon="37.3490560">
    <ele>4058.3</ele>
    <time>2026-06-22T08:10:23Z</time>
   </trkpt>
   <trkpt lat="-3.1093500" lon="37.3490570">
    <ele>4058.2</ele>
    <time>2026-06-22T08:10:24Z</time>
   </trkpt>
   <trkpt lat="-3.1093530" lon="37.3490570">
    <ele>4058.1</ele>
    <time>2026-06-22T08:10:25Z</time>
   </trkpt>
   <trkpt lat="-3.1093600" lon="37.3490590">
    <ele>4058.0</ele>
    <time>2026-06-22T08:10:26Z</time>
   </trkpt>
   <trkpt lat="-3.1093630" lon="37.3490640">
    <ele>4057.9</ele>
    <time>2026-06-22T08:10:27Z</time>
   </trkpt>
   <trkpt lat="-3.1093650" lon="37.3490680">
    <ele>4057.9</ele>
    <time>2026-06-22T08:10:28Z</time>
   </trkpt>
   <trkpt lat="-3.1093710" lon="37.3490730">
    <ele>4057.7</ele>
    <time>2026-06-22T08:10:29Z</time>
   </trkpt>
   <trkpt lat="-3.1093760" lon="37.3490750">
    <ele>4057.7</ele>
    <time>2026-06-22T08:10:30Z</time>
   </trkpt>
   <trkpt lat="-3.1093790" lon="37.3490770">
    <ele>4057.6</ele>
    <time>2026-06-22T08:10:31Z</time>
   </trkpt>
   <trkpt lat="-3.1093790" lon="37.3490860">
    <ele>4057.5</ele>
    <time>2026-06-22T08:10:32Z</time>
   </trkpt>
   <trkpt lat="-3.1093850" lon="37.3490910">
    <ele>4057.4</ele>
    <time>2026-06-22T08:10:33Z</time>
   </trkpt>
   <trkpt lat="-3.1093900" lon="37.3490950">
    <ele>4057.3</ele>
    <time>2026-06-22T08:10:34Z</time>
   </trkpt>
   <trkpt lat="-3.1093920" lon="37.3490950">
    <ele>4057.2</ele>
    <time>2026-06-22T08:10:35Z</time>
   </trkpt>
   <trkpt lat="-3.1093980" lon="37.3490980">
    <ele>4057.1</ele>
    <time>2026-06-22T08:10:36Z</time>
   </trkpt>
   <trkpt lat="-3.1094030" lon="37.3491020">
    <ele>4057.0</ele>
    <time>2026-06-22T08:10:37Z</time>
   </trkpt>
   <trkpt lat="-3.1094050" lon="37.3491050">
    <ele>4057.0</ele>
    <time>2026-06-22T08:10:38Z</time>
   </trkpt>
   <trkpt lat="-3.1094090" lon="37.3491110">
    <ele>4056.9</ele>
    <time>2026-06-22T08:10:39Z</time>
   </trkpt>
   <trkpt lat="-3.1094110" lon="37.3491200">
    <ele>4056.8</ele>
    <time>2026-06-22T08:10:40Z</time>
   </trkpt>
   <trkpt lat="-3.1094130" lon="37.3491230">
    <ele>4056.7</ele>
    <time>2026-06-22T08:10:41Z</time>
   </trkpt>
   <trkpt lat="-3.1094200" lon="37.3491230">
    <ele>4056.6</ele>
    <time>2026-06-22T08:10:42Z</time>
   </trkpt>
   <trkpt lat="-3.1094230" lon="37.3491200">
    <ele>4056.6</ele>
    <time>2026-06-22T08:10:43Z</time>
   </trkpt>
   <trkpt lat="-3.1094310" lon="37.3491260">
    <ele>4056.4</ele>
    <time>2026-06-22T08:10:44Z</time>
   </trkpt>
   <trkpt lat="-3.1094330" lon="37.3491320">
    <ele>4056.3</ele>
    <time>2026-06-22T08:10:45Z</time>
   </trkpt>
   <trkpt lat="-3.1094350" lon="37.3491390">
    <ele>4056.2</ele>
    <time>2026-06-22T08:10:46Z</time>
   </trkpt>
   <trkpt lat="-3.1094370" lon="37.3491450">
    <ele>4056.1</ele>
    <time>2026-06-22T08:10:47Z</time>
   </trkpt>
   <trkpt lat="-3.1094400" lon="37.3491540">
    <ele>4056.0</ele>
    <time>2026-06-22T08:10:48Z</time>
   </trkpt>
   <trkpt lat="-3.1094380" lon="37.3491560">
    <ele>4056.0</ele>
    <time>2026-06-22T08:10:49Z</time>
   </trkpt>
   <trkpt lat="-3.1094340" lon="37.3491590">
    <ele>4055.9</ele>
    <time>2026-06-22T08:10:50Z</time>
   </trkpt>
   <trkpt lat="-3.1094310" lon="37.3491630">
    <ele>4055.9</ele>
    <time>2026-06-22T08:10:51Z</time>
   </trkpt>
   <trkpt lat="-3.1094310" lon="37.3491670">
    <ele>4055.8</ele>
    <time>2026-06-22T08:10:52Z</time>
   </trkpt>
   <trkpt lat="-3.1094330" lon="37.3491730">
    <ele>4055.7</ele>
    <time>2026-06-22T08:10:53Z</time>
   </trkpt>
   <trkpt lat="-3.1094340" lon="37.3491780">
    <ele>4055.7</ele>
    <time>2026-06-22T08:10:54Z</time>
   </trkpt>
   <trkpt lat="-3.1094390" lon="37.3491800">
    <ele>4055.6</ele>
    <time>2026-06-22T08:10:55Z</time>
   </trkpt>
   <trkpt lat="-3.1094460" lon="37.3491810">
    <ele>4055.5</ele>
    <time>2026-06-22T08:10:56Z</time>
   </trkpt>
   <trkpt lat="-3.1094450" lon="37.3491780">
    <ele>4055.5</ele>
    <time>2026-06-22T08:10:57Z</time>
   </trkpt>
   <trkpt lat="-3.1094520" lon="37.3491740">
    <ele>4055.3</ele>
    <time>2026-06-22T08:10:58Z</time>
   </trkpt>
   <trkpt lat="-3.1094570" lon="37.3491800">
    <ele>4055.2</ele>
    <time>2026-06-22T08:10:59Z</time>
   </trkpt>
   <trkpt lat="-3.1094690" lon="37.3491910">
    <ele>4055.0</ele>
    <time>2026-06-22T08:11:00Z</time>
   </trkpt>
   <trkpt lat="-3.1094680" lon="37.3491970">
    <ele>4055.0</ele>
    <time>2026-06-22T08:11:01Z</time>
   </trkpt>
   <trkpt lat="-3.1094700" lon="37.3492030">
    <ele>4054.9</ele>
    <time>2026-06-22T08:11:02Z</time>
   </trkpt>
   <trkpt lat="-3.1094720" lon="37.3492070">
    <ele>4054.8</ele>
    <time>2026-06-22T08:11:03Z</time>
   </trkpt>
   <trkpt lat="-3.1094750" lon="37.3492130">
    <ele>4054.7</ele>
    <time>2026-06-22T08:11:04Z</time>
   </trkpt>
   <trkpt lat="-3.1094770" lon="37.3492160">
    <ele>4054.7</ele>
    <time>2026-06-22T08:11:05Z</time>
   </trkpt>
   <trkpt lat="-3.1094760" lon="37.3492180">
    <ele>4054.7</ele>
    <time>2026-06-22T08:11:06Z</time>
   </trkpt>
   <trkpt lat="-3.1094770" lon="37.3492230">
    <ele>4054.6</ele>
    <time>2026-06-22T08:11:07Z</time>
   </trkpt>
   <trkpt lat="-3.1094860" lon="37.3492300">
    <ele>4054.5</ele>
    <time>2026-06-22T08:11:08Z</time>
   </trkpt>
   <trkpt lat="-3.1094930" lon="37.3492390">
    <ele>4054.3</ele>
    <time>2026-06-22T08:11:09Z</time>
   </trkpt>
   <trkpt lat="-3.1094900" lon="37.3492410">
    <ele>4054.3</ele>
    <time>2026-06-22T08:11:10Z</time>
   </trkpt>
   <trkpt lat="-3.1094940" lon="37.3492480">
    <ele>4054.2</ele>
    <time>2026-06-22T08:11:11Z</time>
   </trkpt>
   <trkpt lat="-3.1094960" lon="37.3492500">
    <ele>4054.2</ele>
    <time>2026-06-22T08:11:12Z</time>
   </trkpt>
   <trkpt lat="-3.1094970" lon="37.3492590">
    <ele>4054.1</ele>
    <time>2026-06-22T08:11:13Z</time>
   </trkpt>
   <trkpt lat="-3.1094960" lon="37.3492660">
    <ele>4054.0</ele>
    <time>2026-06-22T08:11:14Z</time>
   </trkpt>
   <trkpt lat="-3.1094910" lon="37.3492720">
    <ele>4053.9</ele>
    <time>2026-06-22T08:11:15Z</time>
   </trkpt>
   <trkpt lat="-3.1094850" lon="37.3492760">
    <ele>4053.8</ele>
    <time>2026-06-22T08:11:16Z</time>
   </trkpt>
   <trkpt lat="-3.1094800" lon="37.3492820">
    <ele>4053.7</ele>
    <time>2026-06-22T08:11:17Z</time>
   </trkpt>
   <trkpt lat="-3.1094770" lon="37.3492860">
    <ele>4053.7</ele>
    <time>2026-06-22T08:11:18Z</time>
   </trkpt>
   <trkpt lat="-3.1094780" lon="37.3492940">
    <ele>4053.6</ele>
    <time>2026-06-22T08:11:19Z</time>
   </trkpt>
   <trkpt lat="-3.1094840" lon="37.3493030">
    <ele>4053.5</ele>
    <time>2026-06-22T08:11:20Z</time>
   </trkpt>
   <trkpt lat="-3.1094900" lon="37.3493100">
    <ele>4053.4</ele>
    <time>2026-06-22T08:11:21Z</time>
   </trkpt>
   <trkpt lat="-3.1094890" lon="37.3493150">
    <ele>4053.4</ele>
    <time>2026-06-22T08:11:22Z</time>
   </trkpt>
   <trkpt lat="-3.1094890" lon="37.3493240">
    <ele>4053.3</ele>
    <time>2026-06-22T08:11:23Z</time>
   </trkpt>
   <trkpt lat="-3.1094860" lon="37.3493310">
    <ele>4053.3</ele>
    <time>2026-06-22T08:11:24Z</time>
   </trkpt>
   <trkpt lat="-3.1094830" lon="37.3493420">
    <ele>4053.2</ele>
    <time>2026-06-22T08:11:25Z</time>
   </trkpt>
   <trkpt lat="-3.1094810" lon="37.3493500">
    <ele>4053.1</ele>
    <time>2026-06-22T08:11:26Z</time>
   </trkpt>
   <trkpt lat="-3.1094760" lon="37.3493520">
    <ele>4053.1</ele>
    <time>2026-06-22T08:11:27Z</time>
   </trkpt>
   <trkpt lat="-3.1094710" lon="37.3493560">
    <ele>4053.0</ele>
    <time>2026-06-22T08:11:28Z</time>
   </trkpt>
   <trkpt lat="-3.1094720" lon="37.3493620">
    <ele>4053.0</ele>
    <time>2026-06-22T08:11:29Z</time>
   </trkpt>
   <trkpt lat="-3.1094760" lon="37.3493690">
    <ele>4052.9</ele>
    <time>2026-06-22T08:11:30Z</time>
   </trkpt>
   <trkpt lat="-3.1094820" lon="37.3493750">
    <ele>4052.8</ele>
    <time>2026-06-22T08:11:31Z</time>
   </trkpt>
   <trkpt lat="-3.1094890" lon="37.3493800">
    <ele>4052.8</ele>
    <time>2026-06-22T08:11:32Z</time>
   </trkpt>
   <trkpt lat="-3.1094880" lon="37.3493840">
    <ele>4052.7</ele>
    <time>2026-06-22T08:11:33Z</time>
   </trkpt>
   <trkpt lat="-3.1094830" lon="37.3493920">
    <ele>4052.7</ele>
    <time>2026-06-22T08:11:34Z</time>
   </trkpt>
   <trkpt lat="-3.1094800" lon="37.3493970">
    <ele>4052.6</ele>
    <time>2026-06-22T08:11:35Z</time>
   </trkpt>
   <trkpt lat="-3.1094790" lon="37.3494040">
    <ele>4052.6</ele>
    <time>2026-06-22T08:11:36Z</time>
   </trkpt>
   <trkpt lat="-3.1094800" lon="37.3494110">
    <ele>4052.5</ele>
    <time>2026-06-22T08:11:37Z</time>
   </trkpt>
   <trkpt lat="-3.1094830" lon="37.3494210">
    <ele>4052.4</ele>
    <time>2026-06-22T08:11:38Z</time>
   </trkpt>
   <trkpt lat="-3.1094830" lon="37.3494280">
    <ele>4052.4</ele>
    <time>2026-06-22T08:11:39Z</time>
   </trkpt>
   <trkpt lat="-3.1094830" lon="37.3494310">
    <ele>4052.3</ele>
    <time>2026-06-22T08:11:40Z</time>
   </trkpt>
   <trkpt lat="-3.1094810" lon="37.3494320">
    <ele>4052.3</ele>
    <time>2026-06-22T08:11:41Z</time>
   </trkpt>
   <trkpt lat="-3.1094780" lon="37.3494390">
    <ele>4052.3</ele>
    <time>2026-06-22T08:11:42Z</time>
   </trkpt>
   <trkpt lat="-3.1094750" lon="37.3494430">
    <ele>4052.2</ele>
    <time>2026-06-22T08:11:43Z</time>
   </trkpt>
   <trkpt lat="-3.1094710" lon="37.3494460">
    <ele>4052.2</ele>
    <time>2026-06-22T08:11:44Z</time>
   </trkpt>
   <trkpt lat="-3.1094690" lon="37.3494440">
    <ele>4052.1</ele>
    <time>2026-06-22T08:11:45Z</time>
   </trkpt>
   <trkpt lat="-3.1094690" lon="37.3494430">
    <ele>4052.1</ele>
    <time>2026-06-22T08:11:46Z</time>
   </trkpt>
   <trkpt lat="-3.1094680" lon="37.3494420">
    <ele>4052.1</ele>
    <time>2026-06-22T08:11:47Z</time>
   </trkpt>
   <trkpt lat="-3.1094670" lon="37.3494430">
    <ele>4052.1</ele>
    <time>2026-06-22T08:11:48Z</time>
   </trkpt>
   <trkpt lat="-3.1094660" lon="37.3494450">
    <ele>4052.1</ele>
    <time>2026-06-22T08:11:49Z</time>
   </trkpt>
   <trkpt lat="-3.1094650" lon="37.3494510">
    <ele>4052.0</ele>
    <time>2026-06-22T08:11:50Z</time>
   </trkpt>
   <trkpt lat="-3.1094690" lon="37.3494540">
    <ele>4052.0</ele>
    <time>2026-06-22T08:11:51Z</time>
   </trkpt>
   <trkpt lat="-3.1094680" lon="37.3494600">
    <ele>4051.9</ele>
    <time>2026-06-22T08:11:52Z</time>
   </trkpt>
   <trkpt lat="-3.1094680" lon="37.3494650">
    <ele>4051.9</ele>
    <time>2026-06-22T08:11:53Z</time>
   </trkpt>
   <trkpt lat="-3.1094680" lon="37.3494680">
    <ele>4051.8</ele>
    <time>2026-06-22T08:11:54Z</time>
   </trkpt>
   <trkpt lat="-3.1094670" lon="37.3494700">
    <ele>4051.8</ele>
    <time>2026-06-22T08:11:55Z</time>
   </trkpt>
   <trkpt lat="-3.1094630" lon="37.3494740">
    <ele>4051.7</ele>
    <time>2026-06-22T08:11:56Z</time>
   </trkpt>
   <trkpt lat="-3.1094630" lon="37.3494770">
    <ele>4051.7</ele>
    <time>2026-06-22T08:11:57Z</time>
   </trkpt>
   <trkpt lat="-3.1094670" lon="37.3494810">
    <ele>4051.6</ele>
    <time>2026-06-22T08:11:58Z</time>
   </trkpt>
   <trkpt lat="-3.1094700" lon="37.3494860">
    <ele>4051.5</ele>
    <time>2026-06-22T08:11:59Z</time>
   </trkpt>
   <trkpt lat="-3.1094750" lon="37.3494880">
    <ele>4051.4</ele>
    <time>2026-06-22T08:12:00Z</time>
   </trkpt>
   <trkpt lat="-3.1094790" lon="37.3494910">
    <ele>4051.4</ele>
    <time>2026-06-22T08:12:01Z</time>
   </trkpt>
   <trkpt lat="-3.1094800" lon="37.3494950">
    <ele>4051.3</ele>
    <time>2026-06-22T08:12:02Z</time>
   </trkpt>
   <trkpt lat="-3.1094820" lon="37.3495040">
    <ele>4051.2</ele>
    <time>2026-06-22T08:12:03Z</time>
   </trkpt>
   <trkpt lat="-3.1094810" lon="37.3495170">
    <ele>4051.0</ele>
    <time>2026-06-22T08:12:04Z</time>
   </trkpt>
   <trkpt lat="-3.1094800" lon="37.3495220">
    <ele>4051.0</ele>
    <time>2026-06-22T08:12:05Z</time>
   </trkpt>
   <trkpt lat="-3.1094780" lon="37.3495290">
    <ele>4050.9</ele>
    <time>2026-06-22T08:12:06Z</time>
   </trkpt>
   <trkpt lat="-3.1094760" lon="37.3495350">
    <ele>4050.8</ele>
    <time>2026-06-22T08:12:07Z</time>
   </trkpt>
   <trkpt lat="-3.1094780" lon="37.3495290">
    <ele>4050.7</ele>
    <time>2026-06-22T08:12:08Z</time>
   </trkpt>
   <trkpt lat="-3.1094730" lon="37.3495470">
    <ele>4050.5</ele>
    <time>2026-06-22T08:12:09Z</time>
   </trkpt>
   <trkpt lat="-3.1094750" lon="37.3495580">
    <ele>4050.3</ele>
    <time>2026-06-22T08:12:10Z</time>
   </trkpt>
   <trkpt lat="-3.1094700" lon="37.3495580">
    <ele>4050.2</ele>
    <time>2026-06-22T08:12:11Z</time>
   </trkpt>
   <trkpt lat="-3.1094640" lon="37.3495670">
    <ele>4050.1</ele>
    <time>2026-06-22T08:12:12Z</time>
   </trkpt>
   <trkpt lat="-3.1094600" lon="37.3495740">
    <ele>4050.0</ele>
    <time>2026-06-22T08:12:13Z</time>
   </trkpt>
   <trkpt lat="-3.1094560" lon="37.3495760">
    <ele>4049.9</ele>
    <time>2026-06-22T08:12:14Z</time>
   </trkpt>
   <trkpt lat="-3.1094490" lon="37.3495820">
    <ele>4049.8</ele>
    <time>2026-06-22T08:12:15Z</time>
   </trkpt>
   <trkpt lat="-3.1094470" lon="37.3495820">
    <ele>4049.8</ele>
    <time>2026-06-22T08:12:16Z</time>
   </trkpt>
   <trkpt lat="-3.1094460" lon="37.3495840">
    <ele>4049.8</ele>
    <time>2026-06-22T08:12:17Z</time>
   </trkpt>
   <trkpt lat="-3.1094410" lon="37.3495920">
    <ele>4049.6</ele>
    <time>2026-06-22T08:12:18Z</time>
   </trkpt>
   <trkpt lat="-3.1094430" lon="37.3495920">
    <ele>4049.6</ele>
    <time>2026-06-22T08:12:19Z</time>
   </trkpt>
   <trkpt lat="-3.1094430" lon="37.3496010">
    <ele>4049.5</ele>
    <time>2026-06-22T08:12:20Z</time>
   </trkpt>
   <trkpt lat="-3.1094430" lon="37.3496040">
    <ele>4049.4</ele>
    <time>2026-06-22T08:12:21Z</time>
   </trkpt>
   <trkpt lat="-3.1094440" lon="37.3496110">
    <ele>4049.3</ele>
    <time>2026-06-22T08:12:22Z</time>
   </trkpt>
   <trkpt lat="-3.1094480" lon="37.3496190">
    <ele>4049.2</ele>
    <time>2026-06-22T08:12:23Z</time>
   </trkpt>
   <trkpt lat="-3.1094510" lon="37.3496200">
    <ele>4049.1</ele>
    <time>2026-06-22T08:12:24Z</time>
   </trkpt>
   <trkpt lat="-3.1094550" lon="37.3496210">
    <ele>4049.1</ele>
    <time>2026-06-22T08:12:25Z</time>
   </trkpt>
   <trkpt lat="-3.1094600" lon="37.3496260">
    <ele>4049.0</ele>
    <time>2026-06-22T08:12:26Z</time>
   </trkpt>
   <trkpt lat="-3.1094670" lon="37.3496280">
    <ele>4048.8</ele>
    <time>2026-06-22T08:12:27Z</time>
   </trkpt>
   <trkpt lat="-3.1094740" lon="37.3496260">
    <ele>4048.7</ele>
    <time>2026-06-22T08:12:28Z</time>
   </trkpt>
   <trkpt lat="-3.1094780" lon="37.3496250">
    <ele>4048.7</ele>
    <time>2026-06-22T08:12:29Z</time>
   </trkpt>
   <trkpt lat="-3.1094750" lon="37.3496280">
    <ele>4048.6</ele>
    <time>2026-06-22T08:12:30Z</time>
   </trkpt>
   <trkpt lat="-3.1094750" lon="37.3496280">
    <ele>4048.6</ele>
    <time>2026-06-22T08:12:31Z</time>
   </trkpt>
   <trkpt lat="-3.1094750" lon="37.3496310">
    <ele>4048.6</ele>
    <time>2026-06-22T08:12:32Z</time>
   </trkpt>
   <trkpt lat="-3.1094760" lon="37.3496320">
    <ele>4048.5</ele>
    <time>2026-06-22T08:12:33Z</time>
   </trkpt>
   <trkpt lat="-3.1094780" lon="37.3496320">
    <ele>4048.5</ele>
    <time>2026-06-22T08:12:34Z</time>
   </trkpt>
   <trkpt lat="-3.1094790" lon="37.3496320">
    <ele>4048.5</ele>
    <time>2026-06-22T08:12:35Z</time>
   </trkpt>
   <trkpt lat="-3.1094790" lon="37.3496380">
    <ele>4048.4</ele>
    <time>2026-06-22T08:12:36Z</time>
   </trkpt>
   <trkpt lat="-3.1094840" lon="37.3496410">
    <ele>4048.3</ele>
    <time>2026-06-22T08:12:37Z</time>
   </trkpt>
   <trkpt lat="-3.1094830" lon="37.3496450">
    <ele>4048.2</ele>
    <time>2026-06-22T08:12:38Z</time>
   </trkpt>
   <trkpt lat="-3.1094830" lon="37.3496510">
    <ele>4048.1</ele>
    <time>2026-06-22T08:12:39Z</time>
   </trkpt>
   <trkpt lat="-3.1094820" lon="37.3496540">
    <ele>4048.1</ele>
    <time>2026-06-22T08:12:40Z</time>
   </trkpt>
   <trkpt lat="-3.1094810" lon="37.3496570">
    <ele>4048.0</ele>
    <time>2026-06-22T08:12:41Z</time>
   </trkpt>
   <trkpt lat="-3.1094800" lon="37.3496580">
    <ele>4048.0</ele>
    <time>2026-06-22T08:12:42Z</time>
   </trkpt>
   <trkpt lat="-3.1094780" lon="37.3496600">
    <ele>4048.0</ele>
    <time>2026-06-22T08:12:43Z</time>
   </trkpt>
   <trkpt lat="-3.1094800" lon="37.3496620">
    <ele>4047.9</ele>
    <time>2026-06-22T08:12:44Z</time>
   </trkpt>
   <trkpt lat="-3.1094830" lon="37.3496620">
    <ele>4047.9</ele>
    <time>2026-06-22T08:12:45Z</time>
   </trkpt>
   <trkpt lat="-3.1094840" lon="37.3496680">
    <ele>4047.8</ele>
    <time>2026-06-22T08:12:46Z</time>
   </trkpt>
   <trkpt lat="-3.1094770" lon="37.3496690">
    <ele>4047.7</ele>
    <time>2026-06-22T08:12:47Z</time>
   </trkpt>
   <trkpt lat="-3.1094700" lon="37.3496730">
    <ele>4047.5</ele>
    <time>2026-06-22T08:12:48Z</time>
   </trkpt>
   <trkpt lat="-3.1094680" lon="37.3496840">
    <ele>4047.3</ele>
    <time>2026-06-22T08:12:49Z</time>
   </trkpt>
   <trkpt lat="-3.1094690" lon="37.3496860">
    <ele>4047.3</ele>
    <time>2026-06-22T08:12:50Z</time>
   </trkpt>
   <trkpt lat="-3.1094710" lon="37.3496890">
    <ele>4047.3</ele>
    <time>2026-06-22T08:12:51Z</time>
   </trkpt>
   <trkpt lat="-3.1094700" lon="37.3496910">
    <ele>4047.2</ele>
    <time>2026-06-22T08:12:52Z</time>
   </trkpt>
   <trkpt lat="-3.1094690" lon="37.3496970">
    <ele>4047.1</ele>
    <time>2026-06-22T08:12:53Z</time>
   </trkpt>
   <trkpt lat="-3.1094700" lon="37.3496960">
    <ele>4047.1</ele>
    <time>2026-06-22T08:12:54Z</time>
   </trkpt>
   <trkpt lat="-3.1094690" lon="37.3496980">
    <ele>4047.0</ele>
    <time>2026-06-22T08:12:55Z</time>
   </trkpt>
   <trkpt lat="-3.1094680" lon="37.3496990">
    <ele>4047.0</ele>
    <time>2026-06-22T08:12:56Z</time>
   </trkpt>
   <trkpt lat="-3.1094670" lon="37.3497010">
    <ele>4047.0</ele>
    <time>2026-06-22T08:12:57Z</time>
   </trkpt>
   <trkpt lat="-3.1094660" lon="37.3497040">
    <ele>4046.9</ele>
    <time>2026-06-22T08:12:58Z</time>
   </trkpt>
   <trkpt lat="-3.1094650" lon="37.3497050">
    <ele>4046.9</ele>
    <time>2026-06-22T08:12:59Z</time>
   </trkpt>
   <trkpt lat="-3.1094640" lon="37.3497110">
    <ele>4046.8</ele>
    <time>2026-06-22T08:13:00Z</time>
   </trkpt>
   <trkpt lat="-3.1094630" lon="37.3497150">
    <ele>4046.7</ele>
    <time>2026-06-22T08:13:01Z</time>
   </trkpt>
   <trkpt lat="-3.1094620" lon="37.3497150">
    <ele>4046.7</ele>
    <time>2026-06-22T08:13:02Z</time>
   </trkpt>
   <trkpt lat="-3.1094620" lon="37.3497170">
    <ele>4046.6</ele>
    <time>2026-06-22T08:13:03Z</time>
   </trkpt>
   <trkpt lat="-3.1094620" lon="37.3497260">
    <ele>4046.5</ele>
    <time>2026-06-22T08:13:04Z</time>
   </trkpt>
   <trkpt lat="-3.1094640" lon="37.3497260">
    <ele>4046.4</ele>
    <time>2026-06-22T08:13:05Z</time>
   </trkpt>
   <trkpt lat="-3.1094640" lon="37.3497260">
    <ele>4046.4</ele>
    <time>2026-06-22T08:13:06Z</time>
   </trkpt>
   <trkpt lat="-3.1094650" lon="37.3497330">
    <ele>4046.3</ele>
    <time>2026-06-22T08:13:07Z</time>
   </trkpt>
   <trkpt lat="-3.1094670" lon="37.3497370">
    <ele>4046.2</ele>
    <time>2026-06-22T08:13:08Z</time>
   </trkpt>
   <trkpt lat="-3.1094690" lon="37.3497400">
    <ele>4046.2</ele>
    <time>2026-06-22T08:13:09Z</time>
   </trkpt>
   <trkpt lat="-3.1094710" lon="37.3497420">
    <ele>4046.1</ele>
    <time>2026-06-22T08:13:10Z</time>
   </trkpt>
   <trkpt lat="-3.1094720" lon="37.3497430">
    <ele>4046.1</ele>
    <time>2026-06-22T08:13:11Z</time>
   </trkpt>
   <trkpt lat="-3.1094740" lon="37.3497450">
    <ele>4046.0</ele>
    <time>2026-06-22T08:13:12Z</time>
   </trkpt>
   <trkpt lat="-3.1094740" lon="37.3497490">
    <ele>4046.0</ele>
    <time>2026-06-22T08:13:13Z</time>
   </trkpt>
   <trkpt lat="-3.1094730" lon="37.3497500">
    <ele>4045.9</ele>
    <time>2026-06-22T08:13:14Z</time>
   </trkpt>
   <trkpt lat="-3.1094740" lon="37.3497540">
    <ele>4045.9</ele>
    <time>2026-06-22T08:13:15Z</time>
   </trkpt>
   <trkpt lat="-3.1094790" lon="37.3497510">
    <ele>4045.7</ele>
    <time>2026-06-22T08:13:16Z</time>
   </trkpt>
   <trkpt lat="-3.1094820" lon="37.3497510">
    <ele>4045.7</ele>
    <time>2026-06-22T08:13:17Z</time>
   </trkpt>
   <trkpt lat="-3.1094880" lon="37.3497500">
    <ele>4045.6</ele>
    <time>2026-06-22T08:13:18Z</time>
   </trkpt>
   <trkpt lat="-3.1094930" lon="37.3497490">
    <ele>4045.5</ele>
    <time>2026-06-22T08:13:19Z</time>
   </trkpt>
   <trkpt lat="-3.1094980" lon="37.3497470">
    <ele>4045.4</ele>
    <time>2026-06-22T08:13:20Z</time>
   </trkpt>
   <trkpt lat="-3.1095010" lon="37.3497520">
    <ele>4045.2</ele>
    <time>2026-06-22T08:13:21Z</time>
   </trkpt>
   <trkpt lat="-3.1095040" lon="37.3497590">
    <ele>4045.1</ele>
    <time>2026-06-22T08:13:22Z</time>
   </trkpt>
   <trkpt lat="-3.1095060" lon="37.3497660">
    <ele>4044.9</ele>
    <time>2026-06-22T08:13:23Z</time>
   </trkpt>
   <trkpt lat="-3.1095050" lon="37.3497740">
    <ele>4044.8</ele>
    <time>2026-06-22T08:13:24Z</time>
   </trkpt>
   <trkpt lat="-3.1095040" lon="37.3497800">
    <ele>4044.7</ele>
    <time>2026-06-22T08:13:25Z</time>
   </trkpt>
   <trkpt lat="-3.1095030" lon="37.3497830">
    <ele>4044.6</ele>
    <time>2026-06-22T08:13:26Z</time>
   </trkpt>
   <trkpt lat="-3.1095000" lon="37.3497870">
    <ele>4044.5</ele>
    <time>2026-06-22T08:13:27Z</time>
   </trkpt>
   <trkpt lat="-3.1094980" lon="37.3497890">
    <ele>4044.4</ele>
    <time>2026-06-22T08:13:28Z</time>
   </trkpt>
   <trkpt lat="-3.1094950" lon="37.3497930">
    <ele>4044.3</ele>
    <time>2026-06-22T08:13:29Z</time>
   </trkpt>
   <trkpt lat="-3.1094930" lon="37.3497980">
    <ele>4044.2</ele>
    <time>2026-06-22T08:13:30Z</time>
   </trkpt>
   <trkpt lat="-3.1094910" lon="37.3498020">
    <ele>4044.1</ele>
    <time>2026-06-22T08:13:31Z</time>
   </trkpt>
   <trkpt lat="-3.1094920" lon="37.3498060">
    <ele>4044.0</ele>
    <time>2026-06-22T08:13:32Z</time>
   </trkpt>
   <trkpt lat="-3.1094960" lon="37.3498110">
    <ele>4043.9</ele>
    <time>2026-06-22T08:13:33Z</time>
   </trkpt>
   <trkpt lat="-3.1095040" lon="37.3498130">
    <ele>4043.7</ele>
    <time>2026-06-22T08:13:34Z</time>
   </trkpt>
   <trkpt lat="-3.1095090" lon="37.3498130">
    <ele>4043.6</ele>
    <time>2026-06-22T08:13:35Z</time>
   </trkpt>
   <trkpt lat="-3.1095160" lon="37.3498160">
    <ele>4043.5</ele>
    <time>2026-06-22T08:13:36Z</time>
   </trkpt>
   <trkpt lat="-3.1095170" lon="37.3498190">
    <ele>4043.4</ele>
    <time>2026-06-22T08:13:37Z</time>
   </trkpt>
   <trkpt lat="-3.1095200" lon="37.3498230">
    <ele>4043.3</ele>
    <time>2026-06-22T08:13:38Z</time>
   </trkpt>
   <trkpt lat="-3.1095220" lon="37.3498280">
    <ele>4043.1</ele>
    <time>2026-06-22T08:13:39Z</time>
   </trkpt>
   <trkpt lat="-3.1095230" lon="37.3498310">
    <ele>4043.1</ele>
    <time>2026-06-22T08:13:40Z</time>
   </trkpt>
   <trkpt lat="-3.1095220" lon="37.3498320">
    <ele>4043.0</ele>
    <time>2026-06-22T08:13:41Z</time>
   </trkpt>
   <trkpt lat="-3.1095220" lon="37.3498320">
    <ele>4043.0</ele>
    <time>2026-06-22T08:13:42Z</time>
   </trkpt>
   <trkpt lat="-3.1095320" lon="37.3498340">
    <ele>4042.8</ele>
    <time>2026-06-22T08:13:43Z</time>
   </trkpt>
   <trkpt lat="-3.1095350" lon="37.3498410">
    <ele>4042.7</ele>
    <time>2026-06-22T08:13:44Z</time>
   </trkpt>
   <trkpt lat="-3.1095340" lon="37.3498420">
    <ele>4042.6</ele>
    <time>2026-06-22T08:13:45Z</time>
   </trkpt>
   <trkpt lat="-3.1095320" lon="37.3498410">
    <ele>4042.6</ele>
    <time>2026-06-22T08:13:46Z</time>
   </trkpt>
   <trkpt lat="-3.1095310" lon="37.3498410">
    <ele>4042.5</ele>
    <time>2026-06-22T08:13:47Z</time>
   </trkpt>
   <trkpt lat="-3.1095290" lon="37.3498470">
    <ele>4042.4</ele>
    <time>2026-06-22T08:13:48Z</time>
   </trkpt>
   <trkpt lat="-3.1095270" lon="37.3498480">
    <ele>4042.4</ele>
    <time>2026-06-22T08:13:49Z</time>
   </trkpt>
   <trkpt lat="-3.1095270" lon="37.3498460">
    <ele>4042.3</ele>
    <time>2026-06-22T08:13:50Z</time>
   </trkpt>
   <trkpt lat="-3.1095310" lon="37.3498470">
    <ele>4042.2</ele>
    <time>2026-06-22T08:13:51Z</time>
   </trkpt>
   <trkpt lat="-3.1095330" lon="37.3498490">
    <ele>4042.2</ele>
    <time>2026-06-22T08:13:52Z</time>
   </trkpt>
   <trkpt lat="-3.1095370" lon="37.3498490">
    <ele>4042.1</ele>
    <time>2026-06-22T08:13:53Z</time>
   </trkpt>
   <trkpt lat="-3.1095370" lon="37.3498530">
    <ele>4042.0</ele>
    <time>2026-06-22T08:13:54Z</time>
   </trkpt>
   <trkpt lat="-3.1095410" lon="37.3498590">
    <ele>4041.8</ele>
    <time>2026-06-22T08:13:55Z</time>
   </trkpt>
   <trkpt lat="-3.1095380" lon="37.3498590">
    <ele>4041.7</ele>
    <time>2026-06-22T08:13:56Z</time>
   </trkpt>
   <trkpt lat="-3.1095400" lon="37.3498630">
    <ele>4041.6</ele>
    <time>2026-06-22T08:13:57Z</time>
   </trkpt>
   <trkpt lat="-3.1095370" lon="37.3498620">
    <ele>4041.6</ele>
    <time>2026-06-22T08:13:58Z</time>
   </trkpt>
   <trkpt lat="-3.1095420" lon="37.3498630">
    <ele>4041.4</ele>
    <time>2026-06-22T08:13:59Z</time>
   </trkpt>
   <trkpt lat="-3.1095420" lon="37.3498630">
    <ele>4041.4</ele>
    <time>2026-06-22T08:14:00Z</time>
   </trkpt>
   <trkpt lat="-3.1095490" lon="37.3498710">
    <ele>4041.2</ele>
    <time>2026-06-22T08:14:01Z</time>
   </trkpt>
   <trkpt lat="-3.1095500" lon="37.3498790">
    <ele>4041.0</ele>
    <time>2026-06-22T08:14:02Z</time>
   </trkpt>
   <trkpt lat="-3.1095500" lon="37.3498830">
    <ele>4040.9</ele>
    <time>2026-06-22T08:14:03Z</time>
   </trkpt>
   <trkpt lat="-3.1095510" lon="37.3498820">
    <ele>4040.8</ele>
    <time>2026-06-22T08:14:04Z</time>
   </trkpt>
   <trkpt lat="-3.1095530" lon="37.3498840">
    <ele>4040.8</ele>
    <time>2026-06-22T08:14:05Z</time>
   </trkpt>
   <trkpt lat="-3.1095560" lon="37.3498840">
    <ele>4040.7</ele>
    <time>2026-06-22T08:14:06Z</time>
   </trkpt>
   <trkpt lat="-3.1095600" lon="37.3498870">
    <ele>4040.6</ele>
    <time>2026-06-22T08:14:07Z</time>
   </trkpt>
   <trkpt lat="-3.1095620" lon="37.3498890">
    <ele>4040.5</ele>
    <time>2026-06-22T08:14:08Z</time>
   </trkpt>
   <trkpt lat="-3.1095640" lon="37.3498910">
    <ele>4040.4</ele>
    <time>2026-06-22T08:14:09Z</time>
   </trkpt>
   <trkpt lat="-3.1095670" lon="37.3498900">
    <ele>4040.4</ele>
    <time>2026-06-22T08:14:10Z</time>
   </trkpt>
   <trkpt lat="-3.1095710" lon="37.3498950">
    <ele>4040.2</ele>
    <time>2026-06-22T08:14:11Z</time>
   </trkpt>
   <trkpt lat="-3.1095730" lon="37.3498990">
    <ele>4040.1</ele>
    <time>2026-06-22T08:14:12Z</time>
   </trkpt>
   <trkpt lat="-3.1095770" lon="37.3499050">
    <ele>4039.9</ele>
    <time>2026-06-22T08:14:13Z</time>
   </trkpt>
   <trkpt lat="-3.1095760" lon="37.3499060">
    <ele>4039.9</ele>
    <time>2026-06-22T08:14:14Z</time>
   </trkpt>
   <trkpt lat="-3.1095770" lon="37.3499080">
    <ele>4039.8</ele>
    <time>2026-06-22T08:14:15Z</time>
   </trkpt>
   <trkpt lat="-3.1095820" lon="37.3499110">
    <ele>4039.7</ele>
    <time>2026-06-22T08:14:16Z</time>
   </trkpt>
   <trkpt lat="-3.1095860" lon="37.3499120">
    <ele>4039.6</ele>
    <time>2026-06-22T08:14:17Z</time>
   </trkpt>
   <trkpt lat="-3.1095880" lon="37.3499090">
    <ele>4039.5</ele>
    <time>2026-06-22T08:14:18Z</time>
   </trkpt>
   <trkpt lat="-3.1095900" lon="37.3499080">
    <ele>4039.4</ele>
    <time>2026-06-22T08:14:19Z</time>
   </trkpt>
   <trkpt lat="-3.1095940" lon="37.3499070">
    <ele>4039.3</ele>
    <time>2026-06-22T08:14:20Z</time>
   </trkpt>
   <trkpt lat="-3.1095980" lon="37.3499080">
    <ele>4039.2</ele>
    <time>2026-06-22T08:14:21Z</time>
   </trkpt>
   <trkpt lat="-3.1095990" lon="37.3499100">
    <ele>4039.2</ele>
    <time>2026-06-22T08:14:22Z</time>
   </trkpt>
   <trkpt lat="-3.1096000" lon="37.3499110">
    <ele>4039.1</ele>
    <time>2026-06-22T08:14:23Z</time>
   </trkpt>
   <trkpt lat="-3.1096020" lon="37.3499170">
    <ele>4039.0</ele>
    <time>2026-06-22T08:14:24Z</time>
   </trkpt>
   <trkpt lat="-3.1096000" lon="37.3499200">
    <ele>4038.9</ele>
    <time>2026-06-22T08:14:25Z</time>
   </trkpt>
   <trkpt lat="-3.1095970" lon="37.3499220">
    <ele>4038.8</ele>
    <time>2026-06-22T08:14:26Z</time>
   </trkpt>
   <trkpt lat="-3.1095940" lon="37.3499260">
    <ele>4038.7</ele>
    <time>2026-06-22T08:14:27Z</time>
   </trkpt>
   <trkpt lat="-3.1095920" lon="37.3499310">
    <ele>4038.5</ele>
    <time>2026-06-22T08:14:28Z</time>
   </trkpt>
   <trkpt lat="-3.1095930" lon="37.3499350">
    <ele>4038.4</ele>
    <time>2026-06-22T08:14:29Z</time>
   </trkpt>
   <trkpt lat="-3.1095970" lon="37.3499350">
    <ele>4038.3</ele>
    <time>2026-06-22T08:14:30Z</time>
   </trkpt>
   <trkpt lat="-3.1096000" lon="37.3499330">
    <ele>4038.2</ele>
    <time>2026-06-22T08:14:31Z</time>
   </trkpt>
   <trkpt lat="-3.1096030" lon="37.3499320">
    <ele>4038.2</ele>
    <time>2026-06-22T08:14:32Z</time>
   </trkpt>
   <trkpt lat="-3.1096060" lon="37.3499340">
    <ele>4038.1</ele>
    <time>2026-06-22T08:14:33Z</time>
   </trkpt>
   <trkpt lat="-3.1096110" lon="37.3499390">
    <ele>4037.9</ele>
    <time>2026-06-22T08:14:34Z</time>
   </trkpt>
   <trkpt lat="-3.1096110" lon="37.3499450">
    <ele>4037.7</ele>
    <time>2026-06-22T08:14:35Z</time>
   </trkpt>
   <trkpt lat="-3.1096100" lon="37.3499440">
    <ele>4037.7</ele>
    <time>2026-06-22T08:14:36Z</time>
   </trkpt>
   <trkpt lat="-3.1096080" lon="37.3499500">
    <ele>4037.5</ele>
    <time>2026-06-22T08:14:37Z</time>
   </trkpt>
   <trkpt lat="-3.1096090" lon="37.3499570">
    <ele>4037.4</ele>
    <time>2026-06-22T08:14:38Z</time>
   </trkpt>
   <trkpt lat="-3.1096120" lon="37.3499580">
    <ele>4037.3</ele>
    <time>2026-06-22T08:14:39Z</time>
   </trkpt>
   <trkpt lat="-3.1096160" lon="37.3499560">
    <ele>4037.2</ele>
    <time>2026-06-22T08:14:40Z</time>
   </trkpt>
   <trkpt lat="-3.1096200" lon="37.3499560">
    <ele>4037.1</ele>
    <time>2026-06-22T08:14:41Z</time>
   </trkpt>
   <trkpt lat="-3.1096240" lon="37.3499640">
    <ele>4036.8</ele>
    <time>2026-06-22T08:14:42Z</time>
   </trkpt>
   <trkpt lat="-3.1096230" lon="37.3499660">
    <ele>4036.8</ele>
    <time>2026-06-22T08:14:43Z</time>
   </trkpt>
   <trkpt lat="-3.1096240" lon="37.3499700">
    <ele>4036.7</ele>
    <time>2026-06-22T08:14:44Z</time>
   </trkpt>
   <trkpt lat="-3.1096250" lon="37.3499730">
    <ele>4036.6</ele>
    <time>2026-06-22T08:14:45Z</time>
   </trkpt>
   <trkpt lat="-3.1096260" lon="37.3499770">
    <ele>4036.5</ele>
    <time>2026-06-22T08:14:46Z</time>
   </trkpt>
   <trkpt lat="-3.1096250" lon="37.3499730">
    <ele>4036.4</ele>
    <time>2026-06-22T08:14:47Z</time>
   </trkpt>
   <trkpt lat="-3.1096260" lon="37.3499690">
    <ele>4036.3</ele>
    <time>2026-06-22T08:14:48Z</time>
   </trkpt>
   <trkpt lat="-3.1096340" lon="37.3499730">
    <ele>4036.1</ele>
    <time>2026-06-22T08:14:49Z</time>
   </trkpt>
   <trkpt lat="-3.1096380" lon="37.3499720">
    <ele>4036.0</ele>
    <time>2026-06-22T08:14:50Z</time>
   </trkpt>
   <trkpt lat="-3.1096410" lon="37.3499740">
    <ele>4035.9</ele>
    <time>2026-06-22T08:14:51Z</time>
   </trkpt>
   <trkpt lat="-3.1096410" lon="37.3499800">
    <ele>4035.7</ele>
    <time>2026-06-22T08:14:52Z</time>
   </trkpt>
   <trkpt lat="-3.1096470" lon="37.3499820">
    <ele>4035.6</ele>
    <time>2026-06-22T08:14:53Z</time>
   </trkpt>
   <trkpt lat="-3.1096510" lon="37.3499820">
    <ele>4035.5</ele>
    <time>2026-06-22T08:14:54Z</time>
   </trkpt>
   <trkpt lat="-3.1096520" lon="37.3499860">
    <ele>4035.4</ele>
    <time>2026-06-22T08:14:55Z</time>
   </trkpt>
   <trkpt lat="-3.1096550" lon="37.3499900">
    <ele>4035.2</ele>
    <time>2026-06-22T08:14:56Z</time>
   </trkpt>
   <trkpt lat="-3.1096550" lon="37.3499960">
    <ele>4035.1</ele>
    <time>2026-06-22T08:14:57Z</time>
   </trkpt>
   <trkpt lat="-3.1096480" lon="37.3500090">
    <ele>4034.7</ele>
    <time>2026-06-22T08:14:58Z</time>
   </trkpt>
   <trkpt lat="-3.1096520" lon="37.3500090">
    <ele>4034.6</ele>
    <time>2026-06-22T08:14:59Z</time>
   </trkpt>
   <trkpt lat="-3.1096550" lon="37.3500080">
    <ele>4034.5</ele>
    <time>2026-06-22T08:15:00Z</time>
   </trkpt>
   <trkpt lat="-3.1096600" lon="37.3500060">
    <ele>4034.4</ele>
    <time>2026-06-22T08:15:01Z</time>
   </trkpt>
   <trkpt lat="-3.1096670" lon="37.3500050">
    <ele>4034.2</ele>
    <time>2026-06-22T08:15:02Z</time>
   </trkpt>
   <trkpt lat="-3.1096700" lon="37.3500060">
    <ele>4034.1</ele>
    <time>2026-06-22T08:15:03Z</time>
   </trkpt>
   <trkpt lat="-3.1096710" lon="37.3500050">
    <ele>4034.1</ele>
    <time>2026-06-22T08:15:04Z</time>
   </trkpt>
   <trkpt lat="-3.1096740" lon="37.3500040">
    <ele>4034.0</ele>
    <time>2026-06-22T08:15:05Z</time>
   </trkpt>
   <trkpt lat="-3.1096760" lon="37.3500040">
    <ele>4034.0</ele>
    <time>2026-06-22T08:15:06Z</time>
   </trkpt>
   <trkpt lat="-3.1096810" lon="37.3500040">
    <ele>4033.8</ele>
    <time>2026-06-22T08:15:07Z</time>
   </trkpt>
   <trkpt lat="-3.1096850" lon="37.3500100">
    <ele>4033.7</ele>
    <time>2026-06-22T08:15:08Z</time>
   </trkpt>
   <trkpt lat="-3.1096800" lon="37.3500060">
    <ele>4033.5</ele>
    <time>2026-06-22T08:15:09Z</time>
   </trkpt>
   <trkpt lat="-3.1096790" lon="37.3500090">
    <ele>4033.4</ele>
    <time>2026-06-22T08:15:10Z</time>
   </trkpt>
   <trkpt lat="-3.1096790" lon="37.3500140">
    <ele>4033.3</ele>
    <time>2026-06-22T08:15:11Z</time>
   </trkpt>
   <trkpt lat="-3.1096810" lon="37.3500190">
    <ele>4033.2</ele>
    <time>2026-06-22T08:15:12Z</time>
   </trkpt>
   <trkpt lat="-3.1096860" lon="37.3500210">
    <ele>4033.0</ele>
    <time>2026-06-22T08:15:13Z</time>
   </trkpt>
   <trkpt lat="-3.1096920" lon="37.3500250">
    <ele>4032.9</ele>
    <time>2026-06-22T08:15:14Z</time>
   </trkpt>
   <trkpt lat="-3.1096990" lon="37.3500320">
    <ele>4032.6</ele>
    <time>2026-06-22T08:15:15Z</time>
   </trkpt>
   <trkpt lat="-3.1097020" lon="37.3500360">
    <ele>4032.5</ele>
    <time>2026-06-22T08:15:16Z</time>
   </trkpt>
   <trkpt lat="-3.1097060" lon="37.3500380">
    <ele>4032.4</ele>
    <time>2026-06-22T08:15:17Z</time>
   </trkpt>
   <trkpt lat="-3.1097070" lon="37.3500430">
    <ele>4032.3</ele>
    <time>2026-06-22T08:15:18Z</time>
   </trkpt>
   <trkpt lat="-3.1097050" lon="37.3500490">
    <ele>4032.1</ele>
    <time>2026-06-22T08:15:19Z</time>
   </trkpt>
   <trkpt lat="-3.1097030" lon="37.3500550">
    <ele>4032.0</ele>
    <time>2026-06-22T08:15:20Z</time>
   </trkpt>
   <trkpt lat="-3.1097040" lon="37.3500620">
    <ele>4031.8</ele>
    <time>2026-06-22T08:15:21Z</time>
   </trkpt>
   <trkpt lat="-3.1097050" lon="37.3500680">
    <ele>4031.6</ele>
    <time>2026-06-22T08:15:22Z</time>
   </trkpt>
   <trkpt lat="-3.1097080" lon="37.3500700">
    <ele>4031.5</ele>
    <time>2026-06-22T08:15:23Z</time>
   </trkpt>
   <trkpt lat="-3.1097110" lon="37.3500740">
    <ele>4031.4</ele>
    <time>2026-06-22T08:15:24Z</time>
   </trkpt>
   <trkpt lat="-3.1097150" lon="37.3500750">
    <ele>4031.3</ele>
    <time>2026-06-22T08:15:25Z</time>
   </trkpt>
   <trkpt lat="-3.1097190" lon="37.3500760">
    <ele>4031.2</ele>
    <time>2026-06-22T08:15:26Z</time>
   </trkpt>
   <trkpt lat="-3.1097180" lon="37.3500840">
    <ele>4031.0</ele>
    <time>2026-06-22T08:15:27Z</time>
   </trkpt>
   <trkpt lat="-3.1097160" lon="37.3500930">
    <ele>4030.8</ele>
    <time>2026-06-22T08:15:28Z</time>
   </trkpt>
   <trkpt lat="-3.1097170" lon="37.3500980">
    <ele>4030.7</ele>
    <time>2026-06-22T08:15:29Z</time>
   </trkpt>
   <trkpt lat="-3.1097140" lon="37.3501030">
    <ele>4030.5</ele>
    <time>2026-06-22T08:15:30Z</time>
   </trkpt>
   <trkpt lat="-3.1097130" lon="37.3501080">
    <ele>4030.4</ele>
    <time>2026-06-22T08:15:31Z</time>
   </trkpt>
   <trkpt lat="-3.1097130" lon="37.3501140">
    <ele>4030.3</ele>
    <time>2026-06-22T08:15:32Z</time>
   </trkpt>
   <trkpt lat="-3.1097150" lon="37.3501160">
    <ele>4030.2</ele>
    <time>2026-06-22T08:15:33Z</time>
   </trkpt>
   <trkpt lat="-3.1097150" lon="37.3501180">
    <ele>4030.1</ele>
    <time>2026-06-22T08:15:34Z</time>
   </trkpt>
   <trkpt lat="-3.1097180" lon="37.3501310">
    <ele>4029.8</ele>
    <time>2026-06-22T08:15:35Z</time>
   </trkpt>
   <trkpt lat="-3.1097230" lon="37.3501270">
    <ele>4029.7</ele>
    <time>2026-06-22T08:15:36Z</time>
   </trkpt>
   <trkpt lat="-3.1097250" lon="37.3501250">
    <ele>4029.6</ele>
    <time>2026-06-22T08:15:37Z</time>
   </trkpt>
   <trkpt lat="-3.1097290" lon="37.3501200">
    <ele>4029.4</ele>
    <time>2026-06-22T08:15:38Z</time>
   </trkpt>
   <trkpt lat="-3.1097320" lon="37.3501150">
    <ele>4029.3</ele>
    <time>2026-06-22T08:15:39Z</time>
   </trkpt>
   <trkpt lat="-3.1097330" lon="37.3501120">
    <ele>4029.2</ele>
    <time>2026-06-22T08:15:40Z</time>
   </trkpt>
   <trkpt lat="-3.1097350" lon="37.3501100">
    <ele>4029.2</ele>
    <time>2026-06-22T08:15:41Z</time>
   </trkpt>
   <trkpt lat="-3.1097410" lon="37.3501120">
    <ele>4029.0</ele>
    <time>2026-06-22T08:15:42Z</time>
   </trkpt>
   <trkpt lat="-3.1097420" lon="37.3501190">
    <ele>4028.9</ele>
    <time>2026-06-22T08:15:43Z</time>
   </trkpt>
   <trkpt lat="-3.1097440" lon="37.3501220">
    <ele>4028.8</ele>
    <time>2026-06-22T08:15:44Z</time>
   </trkpt>
   <trkpt lat="-3.1097490" lon="37.3501390">
    <ele>4028.4</ele>
    <time>2026-06-22T08:15:45Z</time>
   </trkpt>
   <trkpt lat="-3.1097470" lon="37.3501410">
    <ele>4028.3</ele>
    <time>2026-06-22T08:15:46Z</time>
   </trkpt>
   <trkpt lat="-3.1097500" lon="37.3501400">
    <ele>4028.2</ele>
    <time>2026-06-22T08:15:47Z</time>
   </trkpt>
   <trkpt lat="-3.1097510" lon="37.3501380">
    <ele>4028.2</ele>
    <time>2026-06-22T08:15:48Z</time>
   </trkpt>
   <trkpt lat="-3.1097550" lon="37.3501400">
    <ele>4028.1</ele>
    <time>2026-06-22T08:15:49Z</time>
   </trkpt>
   <trkpt lat="-3.1097570" lon="37.3501370">
    <ele>4028.0</ele>
    <time>2026-06-22T08:15:50Z</time>
   </trkpt>
   <trkpt lat="-3.1097630" lon="37.3501330">
    <ele>4027.8</ele>
    <time>2026-06-22T08:15:51Z</time>
   </trkpt>
   <trkpt lat="-3.1097690" lon="37.3501360">
    <ele>4027.7</ele>
    <time>2026-06-22T08:15:52Z</time>
   </trkpt>
   <trkpt lat="-3.1097730" lon="37.3501490">
    <ele>4027.4</ele>
    <time>2026-06-22T08:15:53Z</time>
   </trkpt>
   <trkpt lat="-3.1097680" lon="37.3501500">
    <ele>4027.3</ele>
    <time>2026-06-22T08:15:54Z</time>
   </trkpt>
   <trkpt lat="-3.1097650" lon="37.3501530">
    <ele>4027.2</ele>
    <time>2026-06-22T08:15:55Z</time>
   </trkpt>
   <trkpt lat="-3.1097610" lon="37.3501560">
    <ele>4027.0</ele>
    <time>2026-06-22T08:15:56Z</time>
   </trkpt>
   <trkpt lat="-3.1097620" lon="37.3501560">
    <ele>4027.0</ele>
    <time>2026-06-22T08:15:57Z</time>
   </trkpt>
   <trkpt lat="-3.1097650" lon="37.3501590">
    <ele>4026.9</ele>
    <time>2026-06-22T08:15:58Z</time>
   </trkpt>
   <trkpt lat="-3.1097670" lon="37.3501710">
    <ele>4026.6</ele>
    <time>2026-06-22T08:15:59Z</time>
   </trkpt>
   <trkpt lat="-3.1097660" lon="37.3501750">
    <ele>4026.5</ele>
    <time>2026-06-22T08:16:00Z</time>
   </trkpt>
   <trkpt lat="-3.1097650" lon="37.3501760">
    <ele>4026.5</ele>
    <time>2026-06-22T08:16:01Z</time>
   </trkpt>
   <trkpt lat="-3.1097670" lon="37.3501780">
    <ele>4026.4</ele>
    <time>2026-06-22T08:16:02Z</time>
   </trkpt>
   <trkpt lat="-3.1097690" lon="37.3501830">
    <ele>4026.3</ele>
    <time>2026-06-22T08:16:03Z</time>
   </trkpt>
   <trkpt lat="-3.1097710" lon="37.3501910">
    <ele>4026.1</ele>
    <time>2026-06-22T08:16:04Z</time>
   </trkpt>
   <trkpt lat="-3.1097750" lon="37.3501990">
    <ele>4025.9</ele>
    <time>2026-06-22T08:16:05Z</time>
   </trkpt>
   <trkpt lat="-3.1097790" lon="37.3501970">
    <ele>4025.8</ele>
    <time>2026-06-22T08:16:06Z</time>
   </trkpt>
   <trkpt lat="-3.1097840" lon="37.3501990">
    <ele>4025.7</ele>
    <time>2026-06-22T08:16:07Z</time>
   </trkpt>
   <trkpt lat="-3.1097900" lon="37.3502000">
    <ele>4025.6</ele>
    <time>2026-06-22T08:16:08Z</time>
   </trkpt>
   <trkpt lat="-3.1097950" lon="37.3502000">
    <ele>4025.4</ele>
    <time>2026-06-22T08:16:09Z</time>
   </trkpt>
   <trkpt lat="-3.1097960" lon="37.3502000">
    <ele>4025.4</ele>
    <time>2026-06-22T08:16:10Z</time>
   </trkpt>
   <trkpt lat="-3.1097920" lon="37.3502000">
    <ele>4025.3</ele>
    <time>2026-06-22T08:16:11Z</time>
   </trkpt>
   <trkpt lat="-3.1097940" lon="37.3502070">
    <ele>4025.2</ele>
    <time>2026-06-22T08:16:12Z</time>
   </trkpt>
   <trkpt lat="-3.1097940" lon="37.3502100">
    <ele>4025.1</ele>
    <time>2026-06-22T08:16:13Z</time>
   </trkpt>
   <trkpt lat="-3.1097940" lon="37.3502120">
    <ele>4025.0</ele>
    <time>2026-06-22T08:16:14Z</time>
   </trkpt>
   <trkpt lat="-3.1098020" lon="37.3502230">
    <ele>4024.7</ele>
    <time>2026-06-22T08:16:15Z</time>
   </trkpt>
   <trkpt lat="-3.1098010" lon="37.3502290">
    <ele>4024.6</ele>
    <time>2026-06-22T08:16:16Z</time>
   </trkpt>
   <trkpt lat="-3.1097970" lon="37.3502350">
    <ele>4024.4</ele>
    <time>2026-06-22T08:16:17Z</time>
   </trkpt>
   <trkpt lat="-3.1097970" lon="37.3502390">
    <ele>4024.3</ele>
    <time>2026-06-22T08:16:18Z</time>
   </trkpt>
   <trkpt lat="-3.1098010" lon="37.3502390">
    <ele>4024.2</ele>
    <time>2026-06-22T08:16:19Z</time>
   </trkpt>
   <trkpt lat="-3.1097970" lon="37.3502400">
    <ele>4024.1</ele>
    <time>2026-06-22T08:16:20Z</time>
   </trkpt>
   <trkpt lat="-3.1097990" lon="37.3502370">
    <ele>4024.1</ele>
    <time>2026-06-22T08:16:21Z</time>
   </trkpt>
   <trkpt lat="-3.1097980" lon="37.3502370">
    <ele>4024.0</ele>
    <time>2026-06-22T08:16:22Z</time>
   </trkpt>
   <trkpt lat="-3.1097980" lon="37.3502360">
    <ele>4024.0</ele>
    <time>2026-06-22T08:16:23Z</time>
   </trkpt>
   <trkpt lat="-3.1097960" lon="37.3502360">
    <ele>4024.0</ele>
    <time>2026-06-22T08:16:24Z</time>
   </trkpt>
   <trkpt lat="-3.1097940" lon="37.3502360">
    <ele>4023.9</ele>
    <time>2026-06-22T08:16:25Z</time>
   </trkpt>
   <trkpt lat="-3.1097880" lon="37.3502350">
    <ele>4023.8</ele>
    <time>2026-06-22T08:16:26Z</time>
   </trkpt>
   <trkpt lat="-3.1097820" lon="37.3502380">
    <ele>4023.6</ele>
    <time>2026-06-22T08:16:27Z</time>
   </trkpt>
   <trkpt lat="-3.1097830" lon="37.3502420">
    <ele>4023.5</ele>
    <time>2026-06-22T08:16:28Z</time>
   </trkpt>
   <trkpt lat="-3.1097810" lon="37.3502470">
    <ele>4023.4</ele>
    <time>2026-06-22T08:16:29Z</time>
   </trkpt>
   <trkpt lat="-3.1097860" lon="37.3502560">
    <ele>4023.2</ele>
    <time>2026-06-22T08:16:30Z</time>
   </trkpt>
   <trkpt lat="-3.1097970" lon="37.3502570">
    <ele>4023.0</ele>
    <time>2026-06-22T08:16:31Z</time>
   </trkpt>
   <trkpt lat="-3.1097970" lon="37.3502550">
    <ele>4022.9</ele>
    <time>2026-06-22T08:16:32Z</time>
   </trkpt>
   <trkpt lat="-3.1097980" lon="37.3502550">
    <ele>4022.9</ele>
    <time>2026-06-22T08:16:33Z</time>
   </trkpt>
   <trkpt lat="-3.1097970" lon="37.3502600">
    <ele>4022.8</ele>
    <time>2026-06-22T08:16:34Z</time>
   </trkpt>
   <trkpt lat="-3.1097950" lon="37.3502600">
    <ele>4022.7</ele>
    <time>2026-06-22T08:16:35Z</time>
   </trkpt>
   <trkpt lat="-3.1097960" lon="37.3502650">
    <ele>4022.6</ele>
    <time>2026-06-22T08:16:36Z</time>
   </trkpt>
   <trkpt lat="-3.1097950" lon="37.3502700">
    <ele>4022.5</ele>
    <time>2026-06-22T08:16:37Z</time>
   </trkpt>
   <trkpt lat="-3.1097970" lon="37.3502750">
    <ele>4022.4</ele>
    <time>2026-06-22T08:16:38Z</time>
   </trkpt>
   <trkpt lat="-3.1097950" lon="37.3502770">
    <ele>4022.3</ele>
    <time>2026-06-22T08:16:39Z</time>
   </trkpt>
   <trkpt lat="-3.1097980" lon="37.3502790">
    <ele>4022.2</ele>
    <time>2026-06-22T08:16:40Z</time>
   </trkpt>
   <trkpt lat="-3.1098000" lon="37.3502810">
    <ele>4022.2</ele>
    <time>2026-06-22T08:16:41Z</time>
   </trkpt>
   <trkpt lat="-3.1098030" lon="37.3502840">
    <ele>4022.1</ele>
    <time>2026-06-22T08:16:42Z</time>
   </trkpt>
   <trkpt lat="-3.1098060" lon="37.3502870">
    <ele>4022.0</ele>
    <time>2026-06-22T08:16:43Z</time>
   </trkpt>
   <trkpt lat="-3.1098100" lon="37.3502870">
    <ele>4021.9</ele>
    <time>2026-06-22T08:16:44Z</time>
   </trkpt>
   <trkpt lat="-3.1098140" lon="37.3502900">
    <ele>4021.8</ele>
    <time>2026-06-22T08:16:45Z</time>
   </trkpt>
   <trkpt lat="-3.1098190" lon="37.3502960">
    <ele>4021.6</ele>
    <time>2026-06-22T08:16:46Z</time>
   </trkpt>
   <trkpt lat="-3.1098190" lon="37.3502980">
    <ele>4021.6</ele>
    <time>2026-06-22T08:16:47Z</time>
   </trkpt>
   <trkpt lat="-3.1098200" lon="37.3503040">
    <ele>4021.4</ele>
    <time>2026-06-22T08:16:48Z</time>
   </trkpt>
   <trkpt lat="-3.1098230" lon="37.3503050">
    <ele>4021.4</ele>
    <time>2026-06-22T08:16:49Z</time>
   </trkpt>
   <trkpt lat="-3.1098310" lon="37.3503050">
    <ele>4021.2</ele>
    <time>2026-06-22T08:16:50Z</time>
   </trkpt>
   <trkpt lat="-3.1098350" lon="37.3503020">
    <ele>4021.1</ele>
    <time>2026-06-22T08:16:51Z</time>
   </trkpt>
   <trkpt lat="-3.1098370" lon="37.3502980">
    <ele>4021.0</ele>
    <time>2026-06-22T08:16:52Z</time>
   </trkpt>
   <trkpt lat="-3.1098390" lon="37.3502930">
    <ele>4020.9</ele>
    <time>2026-06-22T08:16:53Z</time>
   </trkpt>
   <trkpt lat="-3.1098420" lon="37.3502900">
    <ele>4020.8</ele>
    <time>2026-06-22T08:16:54Z</time>
   </trkpt>
   <trkpt lat="-3.1098440" lon="37.3502880">
    <ele>4020.7</ele>
    <time>2026-06-22T08:16:55Z</time>
   </trkpt>
   <trkpt lat="-3.1098440" lon="37.3502850">
    <ele>4020.6</ele>
    <time>2026-06-22T08:16:56Z</time>
   </trkpt>
   <trkpt lat="-3.1098470" lon="37.3502830">
    <ele>4020.6</ele>
    <time>2026-06-22T08:16:57Z</time>
   </trkpt>
   <trkpt lat="-3.1098520" lon="37.3502800">
    <ele>4020.4</ele>
    <time>2026-06-22T08:16:58Z</time>
   </trkpt>
   <trkpt lat="-3.1098570" lon="37.3502760">
    <ele>4020.3</ele>
    <time>2026-06-22T08:16:59Z</time>
   </trkpt>
   <trkpt lat="-3.1098620" lon="37.3502740">
    <ele>4020.2</ele>
    <time>2026-06-22T08:17:00Z</time>
   </trkpt>
   <trkpt lat="-3.1098600" lon="37.3502740">
    <ele>4020.1</ele>
    <time>2026-06-22T08:17:01Z</time>
   </trkpt>
   <trkpt lat="-3.1098650" lon="37.3502750">
    <ele>4020.0</ele>
    <time>2026-06-22T08:17:02Z</time>
   </trkpt>
   <trkpt lat="-3.1098710" lon="37.3502750">
    <ele>4019.9</ele>
    <time>2026-06-22T08:17:03Z</time>
   </trkpt>
   <trkpt lat="-3.1098690" lon="37.3502790">
    <ele>4019.8</ele>
    <time>2026-06-22T08:17:04Z</time>
   </trkpt>
   <trkpt lat="-3.1098670" lon="37.3502850">
    <ele>4019.7</ele>
    <time>2026-06-22T08:17:05Z</time>
   </trkpt>
   <trkpt lat="-3.1098650" lon="37.3502890">
    <ele>4019.6</ele>
    <time>2026-06-22T08:17:06Z</time>
   </trkpt>
   <trkpt lat="-3.1098650" lon="37.3502950">
    <ele>4019.4</ele>
    <time>2026-06-22T08:17:07Z</time>
   </trkpt>
   <trkpt lat="-3.1098670" lon="37.3502980">
    <ele>4019.4</ele>
    <time>2026-06-22T08:17:08Z</time>
   </trkpt>
   <trkpt lat="-3.1098680" lon="37.3503010">
    <ele>4019.3</ele>
    <time>2026-06-22T08:17:09Z</time>
   </trkpt>
   <trkpt lat="-3.1098690" lon="37.3503030">
    <ele>4019.2</ele>
    <time>2026-06-22T08:17:10Z</time>
   </trkpt>
   <trkpt lat="-3.1098720" lon="37.3503050">
    <ele>4019.2</ele>
    <time>2026-06-22T08:17:11Z</time>
   </trkpt>
   <trkpt lat="-3.1098740" lon="37.3503070">
    <ele>4019.1</ele>
    <time>2026-06-22T08:17:12Z</time>
   </trkpt>
   <trkpt lat="-3.1098780" lon="37.3503100">
    <ele>4019.0</ele>
    <time>2026-06-22T08:17:13Z</time>
   </trkpt>
   <trkpt lat="-3.1098800" lon="37.3503130">
    <ele>4018.9</ele>
    <time>2026-06-22T08:17:14Z</time>
   </trkpt>
   <trkpt lat="-3.1098840" lon="37.3503150">
    <ele>4018.8</ele>
    <time>2026-06-22T08:17:15Z</time>
   </trkpt>
   <trkpt lat="-3.1098850" lon="37.3503180">
    <ele>4018.8</ele>
    <time>2026-06-22T08:17:16Z</time>
   </trkpt>
   <trkpt lat="-3.1098880" lon="37.3503200">
    <ele>4018.7</ele>
    <time>2026-06-22T08:17:17Z</time>
   </trkpt>
   <trkpt lat="-3.1098890" lon="37.3503230">
    <ele>4018.6</ele>
    <time>2026-06-22T08:17:18Z</time>
   </trkpt>
   <trkpt lat="-3.1098870" lon="37.3503250">
    <ele>4018.6</ele>
    <time>2026-06-22T08:17:19Z</time>
   </trkpt>
   <trkpt lat="-3.1098860" lon="37.3503270">
    <ele>4018.5</ele>
    <time>2026-06-22T08:17:20Z</time>
   </trkpt>
   <trkpt lat="-3.1098850" lon="37.3503310">
    <ele>4018.4</ele>
    <time>2026-06-22T08:17:21Z</time>
   </trkpt>
   <trkpt lat="-3.1098850" lon="37.3503320">
    <ele>4018.4</ele>
    <time>2026-06-22T08:17:22Z</time>
   </trkpt>
   <trkpt lat="-3.1098890" lon="37.3503360">
    <ele>4018.3</ele>
    <time>2026-06-22T08:17:23Z</time>
   </trkpt>
   <trkpt lat="-3.1098920" lon="37.3503380">
    <ele>4018.2</ele>
    <time>2026-06-22T08:17:24Z</time>
   </trkpt>
   <trkpt lat="-3.1098980" lon="37.3503350">
    <ele>4018.1</ele>
    <time>2026-06-22T08:17:25Z</time>
   </trkpt>
   <trkpt lat="-3.1099010" lon="37.3503340">
    <ele>4018.0</ele>
    <time>2026-06-22T08:17:26Z</time>
   </trkpt>
   <trkpt lat="-3.1098990" lon="37.3503370">
    <ele>4017.9</ele>
    <time>2026-06-22T08:17:27Z</time>
   </trkpt>
   <trkpt lat="-3.1099050" lon="37.3503370">
    <ele>4017.8</ele>
    <time>2026-06-22T08:17:28Z</time>
   </trkpt>
   <trkpt lat="-3.1099100" lon="37.3503330">
    <ele>4017.6</ele>
    <time>2026-06-22T08:17:29Z</time>
   </trkpt>
   <trkpt lat="-3.1099080" lon="37.3503300">
    <ele>4017.6</ele>
    <time>2026-06-22T08:17:30Z</time>
   </trkpt>
   <trkpt lat="-3.1099150" lon="37.3503250">
    <ele>4017.4</ele>
    <time>2026-06-22T08:17:31Z</time>
   </trkpt>
   <trkpt lat="-3.1099200" lon="37.3503240">
    <ele>4017.3</ele>
    <time>2026-06-22T08:17:32Z</time>
   </trkpt>
   <trkpt lat="-3.1099240" lon="37.3503260">
    <ele>4017.2</ele>
    <time>2026-06-22T08:17:33Z</time>
   </trkpt>
   <trkpt lat="-3.1099230" lon="37.3503300">
    <ele>4017.1</ele>
    <time>2026-06-22T08:17:34Z</time>
   </trkpt>
   <trkpt lat="-3.1099240" lon="37.3503340">
    <ele>4017.0</ele>
    <time>2026-06-22T08:17:35Z</time>
   </trkpt>
   <trkpt lat="-3.1099250" lon="37.3503370">
    <ele>4016.9</ele>
    <time>2026-06-22T08:17:36Z</time>
   </trkpt>
   <trkpt lat="-3.1099230" lon="37.3503400">
    <ele>4016.9</ele>
    <time>2026-06-22T08:17:37Z</time>
   </trkpt>
   <trkpt lat="-3.1099170" lon="37.3503390">
    <ele>4016.7</ele>
    <time>2026-06-22T08:17:38Z</time>
   </trkpt>
   <trkpt lat="-3.1099190" lon="37.3503540">
    <ele>4016.4</ele>
    <time>2026-06-22T08:17:39Z</time>
   </trkpt>
   <trkpt lat="-3.1099170" lon="37.3503550">
    <ele>4016.4</ele>
    <time>2026-06-22T08:17:40Z</time>
   </trkpt>
   <trkpt lat="-3.1099190" lon="37.3503580">
    <ele>4016.3</ele>
    <time>2026-06-22T08:17:41Z</time>
   </trkpt>
   <trkpt lat="-3.1099210" lon="37.3503640">
    <ele>4016.2</ele>
    <time>2026-06-22T08:17:42Z</time>
   </trkpt>
   <trkpt lat="-3.1099240" lon="37.3503670">
    <ele>4016.1</ele>
    <time>2026-06-22T08:17:43Z</time>
   </trkpt>
   <trkpt lat="-3.1099250" lon="37.3503720">
    <ele>4016.0</ele>
    <time>2026-06-22T08:17:44Z</time>
   </trkpt>
   <trkpt lat="-3.1099270" lon="37.3503770">
    <ele>4015.9</ele>
    <time>2026-06-22T08:17:45Z</time>
   </trkpt>
   <trkpt lat="-3.1099320" lon="37.3503790">
    <ele>4015.8</ele>
    <time>2026-06-22T08:17:46Z</time>
   </trkpt>
   <trkpt lat="-3.1099370" lon="37.3503790">
    <ele>4015.7</ele>
    <time>2026-06-22T08:17:47Z</time>
   </trkpt>
   <trkpt lat="-3.1099460" lon="37.3503740">
    <ele>4015.4</ele>
    <time>2026-06-22T08:17:48Z</time>
   </trkpt>
   <trkpt lat="-3.1099510" lon="37.3503670">
    <ele>4015.3</ele>
    <time>2026-06-22T08:17:49Z</time>
   </trkpt>
   <trkpt lat="-3.1099530" lon="37.3503650">
    <ele>4015.2</ele>
    <time>2026-06-22T08:17:50Z</time>
   </trkpt>
   <trkpt lat="-3.1099530" lon="37.3503610">
    <ele>4015.1</ele>
    <time>2026-06-22T08:17:51Z</time>
   </trkpt>
   <trkpt lat="-3.1099530" lon="37.3503580">
    <ele>4015.1</ele>
    <time>2026-06-22T08:17:52Z</time>
   </trkpt>
   <trkpt lat="-3.1099600" lon="37.3503540">
    <ele>4014.9</ele>
    <time>2026-06-22T08:17:53Z</time>
   </trkpt>
   <trkpt lat="-3.1099610" lon="37.3503540">
    <ele>4014.9</ele>
    <time>2026-06-22T08:17:54Z</time>
   </trkpt>
   <trkpt lat="-3.1099670" lon="37.3503610">
    <ele>4014.7</ele>
    <time>2026-06-22T08:17:55Z</time>
   </trkpt>
   <trkpt lat="-3.1099690" lon="37.3503660">
    <ele>4014.6</ele>
    <time>2026-06-22T08:17:56Z</time>
   </trkpt>
   <trkpt lat="-3.1099720" lon="37.3503720">
    <ele>4014.5</ele>
    <time>2026-06-22T08:17:57Z</time>
   </trkpt>
   <trkpt lat="-3.1099770" lon="37.3503730">
    <ele>4014.4</ele>
    <time>2026-06-22T08:17:58Z</time>
   </trkpt>
   <trkpt lat="-3.1099840" lon="37.3503710">
    <ele>4014.2</ele>
    <time>2026-06-22T08:17:59Z</time>
   </trkpt>
   <trkpt lat="-3.1099870" lon="37.3503650">
    <ele>4014.1</ele>
    <time>2026-06-22T08:18:00Z</time>
   </trkpt>
   <trkpt lat="-3.1099900" lon="37.3503620">
    <ele>4014.0</ele>
    <time>2026-06-22T08:18:01Z</time>
   </trkpt>
   <trkpt lat="-3.1099930" lon="37.3503600">
    <ele>4013.9</ele>
    <time>2026-06-22T08:18:02Z</time>
   </trkpt>
   <trkpt lat="-3.1099940" lon="37.3503580">
    <ele>4013.9</ele>
    <time>2026-06-22T08:18:03Z</time>
   </trkpt>
   <trkpt lat="-3.1099960" lon="37.3503550">
    <ele>4013.8</ele>
    <time>2026-06-22T08:18:04Z</time>
   </trkpt>
   <trkpt lat="-3.1099970" lon="37.3503530">
    <ele>4013.7</ele>
    <time>2026-06-22T08:18:05Z</time>
   </trkpt>
   <trkpt lat="-3.1099970" lon="37.3503540">
    <ele>4013.7</ele>
    <time>2026-06-22T08:18:06Z</time>
   </trkpt>
   <trkpt lat="-3.1100010" lon="37.3503510">
    <ele>4013.6</ele>
    <time>2026-06-22T08:18:07Z</time>
   </trkpt>
   <trkpt lat="-3.1100080" lon="37.3503510">
    <ele>4013.5</ele>
    <time>2026-06-22T08:18:08Z</time>
   </trkpt>
   <trkpt lat="-3.1100170" lon="37.3503560">
    <ele>4013.3</ele>
    <time>2026-06-22T08:18:09Z</time>
   </trkpt>
   <trkpt lat="-3.1100230" lon="37.3503570">
    <ele>4013.1</ele>
    <time>2026-06-22T08:18:10Z</time>
   </trkpt>
   <trkpt lat="-3.1100280" lon="37.3503600">
    <ele>4013.0</ele>
    <time>2026-06-22T08:18:11Z</time>
   </trkpt>
   <trkpt lat="-3.1100320" lon="37.3503660">
    <ele>4012.9</ele>
    <time>2026-06-22T08:18:12Z</time>
   </trkpt>
   <trkpt lat="-3.1100400" lon="37.3503700">
    <ele>4012.7</ele>
    <time>2026-06-22T08:18:13Z</time>
   </trkpt>
   <trkpt lat="-3.1100450" lon="37.3503680">
    <ele>4012.6</ele>
    <time>2026-06-22T08:18:14Z</time>
   </trkpt>
   <trkpt lat="-3.1100520" lon="37.3503620">
    <ele>4012.4</ele>
    <time>2026-06-22T08:18:15Z</time>
   </trkpt>
   <trkpt lat="-3.1100560" lon="37.3503570">
    <ele>4012.3</ele>
    <time>2026-06-22T08:18:16Z</time>
   </trkpt>
   <trkpt lat="-3.1100610" lon="37.3503530">
    <ele>4012.2</ele>
    <time>2026-06-22T08:18:17Z</time>
   </trkpt>
   <trkpt lat="-3.1100660" lon="37.3503490">
    <ele>4012.1</ele>
    <time>2026-06-22T08:18:18Z</time>
   </trkpt>
   <trkpt lat="-3.1100700" lon="37.3503460">
    <ele>4012.0</ele>
    <time>2026-06-22T08:18:19Z</time>
   </trkpt>
   <trkpt lat="-3.1100800" lon="37.3503440">
    <ele>4011.8</ele>
    <time>2026-06-22T08:18:20Z</time>
   </trkpt>
   <trkpt lat="-3.1100820" lon="37.3503470">
    <ele>4011.7</ele>
    <time>2026-06-22T08:18:21Z</time>
   </trkpt>
   <trkpt lat="-3.1100820" lon="37.3503520">
    <ele>4011.6</ele>
    <time>2026-06-22T08:18:22Z</time>
   </trkpt>
   <trkpt lat="-3.1100830" lon="37.3503600">
    <ele>4011.5</ele>
    <time>2026-06-22T08:18:23Z</time>
   </trkpt>
   <trkpt lat="-3.1100840" lon="37.3503640">
    <ele>4011.4</ele>
    <time>2026-06-22T08:18:24Z</time>
   </trkpt>
   <trkpt lat="-3.1100830" lon="37.3503670">
    <ele>4011.3</ele>
    <time>2026-06-22T08:18:25Z</time>
   </trkpt>
   <trkpt lat="-3.1100840" lon="37.3503700">
    <ele>4011.3</ele>
    <time>2026-06-22T08:18:26Z</time>
   </trkpt>
   <trkpt lat="-3.1100840" lon="37.3503750">
    <ele>4011.2</ele>
    <time>2026-06-22T08:18:27Z</time>
   </trkpt>
   <trkpt lat="-3.1100850" lon="37.3503780">
    <ele>4011.1</ele>
    <time>2026-06-22T08:18:28Z</time>
   </trkpt>
   <trkpt lat="-3.1100860" lon="37.3503830">
    <ele>4011.0</ele>
    <time>2026-06-22T08:18:29Z</time>
   </trkpt>
   <trkpt lat="-3.1100840" lon="37.3503890">
    <ele>4010.9</ele>
    <time>2026-06-22T08:18:30Z</time>
   </trkpt>
   <trkpt lat="-3.1100820" lon="37.3503960">
    <ele>4010.8</ele>
    <time>2026-06-22T08:18:31Z</time>
   </trkpt>
   <trkpt lat="-3.1100770" lon="37.3503980">
    <ele>4010.7</ele>
    <time>2026-06-22T08:18:32Z</time>
   </trkpt>
   <trkpt lat="-3.1100710" lon="37.3504030">
    <ele>4010.5</ele>
    <time>2026-06-22T08:18:33Z</time>
   </trkpt>
   <trkpt lat="-3.1100660" lon="37.3504080">
    <ele>4010.4</ele>
    <time>2026-06-22T08:18:34Z</time>
   </trkpt>
   <trkpt lat="-3.1100580" lon="37.3504110">
    <ele>4010.2</ele>
    <time>2026-06-22T08:18:35Z</time>
   </trkpt>
   <trkpt lat="-3.1100520" lon="37.3504150">
    <ele>4010.1</ele>
    <time>2026-06-22T08:18:36Z</time>
   </trkpt>
   <trkpt lat="-3.1100450" lon="37.3504190">
    <ele>4009.9</ele>
    <time>2026-06-22T08:18:37Z</time>
   </trkpt>
   <trkpt lat="-3.1100370" lon="37.3504230">
    <ele>4009.8</ele>
    <time>2026-06-22T08:18:38Z</time>
   </trkpt>
   <trkpt lat="-3.1100280" lon="37.3504270">
    <ele>4009.6</ele>
    <time>2026-06-22T08:18:39Z</time>
   </trkpt>
   <trkpt lat="-3.1100240" lon="37.3504310">
    <ele>4009.5</ele>
    <time>2026-06-22T08:18:40Z</time>
   </trkpt>
   <trkpt lat="-3.1100170" lon="37.3504350">
    <ele>4009.3</ele>
    <time>2026-06-22T08:18:41Z</time>
   </trkpt>
   <trkpt lat="-3.1100150" lon="37.3504360">
    <ele>4009.3</ele>
    <time>2026-06-22T08:18:42Z</time>
   </trkpt>
   <trkpt lat="-3.1100150" lon="37.3504370">
    <ele>4009.3</ele>
    <time>2026-06-22T08:18:43Z</time>
   </trkpt>
   <trkpt lat="-3.1100160" lon="37.3504390">
    <ele>4009.2</ele>
    <time>2026-06-22T08:18:44Z</time>
   </trkpt>
   <trkpt lat="-3.1100140" lon="37.3504390">
    <ele>4009.2</ele>
    <time>2026-06-22T08:18:45Z</time>
   </trkpt>
   <trkpt lat="-3.1100130" lon="37.3504380">
    <ele>4009.1</ele>
    <time>2026-06-22T08:18:46Z</time>
   </trkpt>
   <trkpt lat="-3.1100120" lon="37.3504380">
    <ele>4009.1</ele>
    <time>2026-06-22T08:18:47Z</time>
   </trkpt>
   <trkpt lat="-3.1100120" lon="37.3504380">
    <ele>4009.1</ele>
    <time>2026-06-22T08:18:48Z</time>
   </trkpt>
   <trkpt lat="-3.1100130" lon="37.3504390">
    <ele>4009.1</ele>
    <time>2026-06-22T08:18:49Z</time>
   </trkpt>
   <trkpt lat="-3.1100130" lon="37.3504400">
    <ele>4009.1</ele>
    <time>2026-06-22T08:18:50Z</time>
   </trkpt>
   <trkpt lat="-3.1100120" lon="37.3504370">
    <ele>4009.0</ele>
    <time>2026-06-22T08:18:51Z</time>
   </trkpt>
   <trkpt lat="-3.1100140" lon="37.3504380">
    <ele>4009.0</ele>
    <time>2026-06-22T08:18:52Z</time>
   </trkpt>
   <trkpt lat="-3.1100130" lon="37.3504380">
    <ele>4009.0</ele>
    <time>2026-06-22T08:18:53Z</time>
   </trkpt>
   <trkpt lat="-3.1100120" lon="37.3504390">
    <ele>4008.9</ele>
    <time>2026-06-22T08:18:54Z</time>
   </trkpt>
   <trkpt lat="-3.1100120" lon="37.3504390">
    <ele>4008.9</ele>
    <time>2026-06-22T08:18:55Z</time>
   </trkpt>
   <trkpt lat="-3.1100130" lon="37.3504420">
    <ele>4008.9</ele>
    <time>2026-06-22T08:18:56Z</time>
   </trkpt>
   <trkpt lat="-3.1100130" lon="37.3504420">
    <ele>4008.9</ele>
    <time>2026-06-22T08:18:57Z</time>
   </trkpt>
   <trkpt lat="-3.1100140" lon="37.3504440">
    <ele>4008.8</ele>
    <time>2026-06-22T08:18:58Z</time>
   </trkpt>
   <trkpt lat="-3.1100110" lon="37.3504450">
    <ele>4008.8</ele>
    <time>2026-06-22T08:18:59Z</time>
   </trkpt>
   <trkpt lat="-3.1100100" lon="37.3504470">
    <ele>4008.7</ele>
    <time>2026-06-22T08:19:00Z</time>
   </trkpt>
   <trkpt lat="-3.1100100" lon="37.3504470">
    <ele>4008.7</ele>
    <time>2026-06-22T08:19:01Z</time>
   </trkpt>
   <trkpt lat="-3.1100090" lon="37.3504480">
    <ele>4008.7</ele>
    <time>2026-06-22T08:19:02Z</time>
   </trkpt>
   <trkpt lat="-3.1100110" lon="37.3504470">
    <ele>4008.7</ele>
    <time>2026-06-22T08:19:03Z</time>
   </trkpt>
   <trkpt lat="-3.1100100" lon="37.3504460">
    <ele>4008.6</ele>
    <time>2026-06-22T08:19:04Z</time>
   </trkpt>
   <trkpt lat="-3.1100100" lon="37.3504480">
    <ele>4008.6</ele>
    <time>2026-06-22T08:19:05Z</time>
   </trkpt>
   <trkpt lat="-3.1100090" lon="37.3504480">
    <ele>4008.6</ele>
    <time>2026-06-22T08:19:06Z</time>
   </trkpt>
   <trkpt lat="-3.1100090" lon="37.3504480">
    <ele>4008.6</ele>
    <time>2026-06-22T08:19:07Z</time>
   </trkpt>
   <trkpt lat="-3.1100090" lon="37.3504480">
    <ele>4008.6</ele>
    <time>2026-06-22T08:19:08Z</time>
   </trkpt>
   <trkpt lat="-3.1100080" lon="37.3504500">
    <ele>4008.5</ele>
    <time>2026-06-22T08:19:09Z</time>
   </trkpt>
   <trkpt lat="-3.1100090" lon="37.3504510">
    <ele>4008.5</ele>
    <time>2026-06-22T08:19:10Z</time>
   </trkpt>
   <trkpt lat="-3.1100060" lon="37.3504520">
    <ele>4008.5</ele>
    <time>2026-06-22T08:19:11Z</time>
   </trkpt>
   <trkpt lat="-3.1100030" lon="37.3504560">
    <ele>4008.4</ele>
    <time>2026-06-22T08:19:12Z</time>
   </trkpt>
   <trkpt lat="-3.1100020" lon="37.3504580">
    <ele>4008.3</ele>
    <time>2026-06-22T08:19:13Z</time>
   </trkpt>
   <trkpt lat="-3.1099990" lon="37.3504600">
    <ele>4008.2</ele>
    <time>2026-06-22T08:19:14Z</time>
   </trkpt>
   <trkpt lat="-3.1099970" lon="37.3504590">
    <ele>4008.2</ele>
    <time>2026-06-22T08:19:15Z</time>
   </trkpt>
   <trkpt lat="-3.1099970" lon="37.3504590">
    <ele>4008.2</ele>
    <time>2026-06-22T08:19:16Z</time>
   </trkpt>
   <trkpt lat="-3.1099930" lon="37.3504590">
    <ele>4008.1</ele>
    <time>2026-06-22T08:19:17Z</time>
   </trkpt>
   <trkpt lat="-3.1099910" lon="37.3504590">
    <ele>4008.1</ele>
    <time>2026-06-22T08:19:18Z</time>
   </trkpt>
   <trkpt lat="-3.1099900" lon="37.3504570">
    <ele>4008.0</ele>
    <time>2026-06-22T08:19:19Z</time>
   </trkpt>
   <trkpt lat="-3.1099900" lon="37.3504600">
    <ele>4008.0</ele>
    <time>2026-06-22T08:19:20Z</time>
   </trkpt>
   <trkpt lat="-3.1099880" lon="37.3504600">
    <ele>4008.0</ele>
    <time>2026-06-22T08:19:21Z</time>
   </trkpt>
   <trkpt lat="-3.1099860" lon="37.3504630">
    <ele>4007.9</ele>
    <time>2026-06-22T08:19:22Z</time>
   </trkpt>
   <trkpt lat="-3.1099830" lon="37.3504660">
    <ele>4007.8</ele>
    <time>2026-06-22T08:19:23Z</time>
   </trkpt>
   <trkpt lat="-3.1099800" lon="37.3504700">
    <ele>4007.7</ele>
    <time>2026-06-22T08:19:24Z</time>
   </trkpt>
   <trkpt lat="-3.1099820" lon="37.3504640">
    <ele>4007.6</ele>
    <time>2026-06-22T08:19:25Z</time>
   </trkpt>
   <trkpt lat="-3.1099780" lon="37.3504630">
    <ele>4007.5</ele>
    <time>2026-06-22T08:19:26Z</time>
   </trkpt>
   <trkpt lat="-3.1099830" lon="37.3504670">
    <ele>4007.4</ele>
    <time>2026-06-22T08:19:27Z</time>
   </trkpt>
   <trkpt lat="-3.1099860" lon="37.3504750">
    <ele>4007.2</ele>
    <time>2026-06-22T08:19:28Z</time>
   </trkpt>
   <trkpt lat="-3.1099940" lon="37.3504820">
    <ele>4007.0</ele>
    <time>2026-06-22T08:19:29Z</time>
   </trkpt>
   <trkpt lat="-3.1099980" lon="37.3504950">
    <ele>4006.8</ele>
    <time>2026-06-22T08:19:30Z</time>
   </trkpt>
   <trkpt lat="-3.1099880" lon="37.3504990">
    <ele>4006.6</ele>
    <time>2026-06-22T08:19:31Z</time>
   </trkpt>
   <trkpt lat="-3.1099780" lon="37.3505100">
    <ele>4006.3</ele>
    <time>2026-06-22T08:19:32Z</time>
   </trkpt>
   <trkpt lat="-3.1099710" lon="37.3505150">
    <ele>4006.1</ele>
    <time>2026-06-22T08:19:33Z</time>
   </trkpt>
   <trkpt lat="-3.1099620" lon="37.3505220">
    <ele>4005.9</ele>
    <time>2026-06-22T08:19:34Z</time>
   </trkpt>
   <trkpt lat="-3.1099570" lon="37.3505320">
    <ele>4005.7</ele>
    <time>2026-06-22T08:19:35Z</time>
   </trkpt>
   <trkpt lat="-3.1099580" lon="37.3505320">
    <ele>4005.7</ele>
    <time>2026-06-22T08:19:36Z</time>
   </trkpt>
   <trkpt lat="-3.1099590" lon="37.3505500">
    <ele>4005.3</ele>
    <time>2026-06-22T08:19:37Z</time>
   </trkpt>
   <trkpt lat="-3.1099550" lon="37.3505530">
    <ele>4005.2</ele>
    <time>2026-06-22T08:19:38Z</time>
   </trkpt>
   <trkpt lat="-3.1099490" lon="37.3505600">
    <ele>4005.1</ele>
    <time>2026-06-22T08:19:39Z</time>
   </trkpt>
   <trkpt lat="-3.1099480" lon="37.3505700">
    <ele>4004.9</ele>
    <time>2026-06-22T08:19:40Z</time>
   </trkpt>
   <trkpt lat="-3.1099480" lon="37.3505770">
    <ele>4004.7</ele>
    <time>2026-06-22T08:19:41Z</time>
   </trkpt>
   <trkpt lat="-3.1099460" lon="37.3505830">
    <ele>4004.6</ele>
    <time>2026-06-22T08:19:42Z</time>
   </trkpt>
   <trkpt lat="-3.1099440" lon="37.3505940">
    <ele>4004.4</ele>
    <time>2026-06-22T08:19:43Z</time>
   </trkpt>
   <trkpt lat="-3.1099460" lon="37.3506030">
    <ele>4004.2</ele>
    <time>2026-06-22T08:19:44Z</time>
   </trkpt>
   <trkpt lat="-3.1099480" lon="37.3506090">
    <ele>4004.1</ele>
    <time>2026-06-22T08:19:45Z</time>
   </trkpt>
   <trkpt lat="-3.1099440" lon="37.3506130">
    <ele>4003.9</ele>
    <time>2026-06-22T08:19:46Z</time>
   </trkpt>
   <trkpt lat="-3.1099350" lon="37.3506170">
    <ele>4003.7</ele>
    <time>2026-06-22T08:19:47Z</time>
   </trkpt>
   <trkpt lat="-3.1099270" lon="37.3506240">
    <ele>4003.5</ele>
    <time>2026-06-22T08:19:48Z</time>
   </trkpt>
   <trkpt lat="-3.1099280" lon="37.3506250">
    <ele>4003.5</ele>
    <time>2026-06-22T08:19:49Z</time>
   </trkpt>
   <trkpt lat="-3.1099250" lon="37.3506270">
    <ele>4003.4</ele>
    <time>2026-06-22T08:19:50Z</time>
   </trkpt>
   <trkpt lat="-3.1099230" lon="37.3506270">
    <ele>4003.4</ele>
    <time>2026-06-22T08:19:51Z</time>
   </trkpt>
   <trkpt lat="-3.1099210" lon="37.3506280">
    <ele>4003.4</ele>
    <time>2026-06-22T08:19:52Z</time>
   </trkpt>
   <trkpt lat="-3.1099230" lon="37.3506300">
    <ele>4003.3</ele>
    <time>2026-06-22T08:19:53Z</time>
   </trkpt>
   <trkpt lat="-3.1099230" lon="37.3506300">
    <ele>4003.3</ele>
    <time>2026-06-22T08:19:54Z</time>
   </trkpt>
   <trkpt lat="-3.1099200" lon="37.3506310">
    <ele>4003.2</ele>
    <time>2026-06-22T08:19:55Z</time>
   </trkpt>
   <trkpt lat="-3.1099180" lon="37.3506330">
    <ele>4003.2</ele>
    <time>2026-06-22T08:19:56Z</time>
   </trkpt>
   <trkpt lat="-3.1099160" lon="37.3506350">
    <ele>4003.1</ele>
    <time>2026-06-22T08:19:57Z</time>
   </trkpt>
   <trkpt lat="-3.1099130" lon="37.3506360">
    <ele>4003.1</ele>
    <time>2026-06-22T08:19:58Z</time>
   </trkpt>
   <trkpt lat="-3.1099120" lon="37.3506370">
    <ele>4003.0</ele>
    <time>2026-06-22T08:19:59Z</time>
   </trkpt>
   <trkpt lat="-3.1099110" lon="37.3506400">
    <ele>4003.0</ele>
    <time>2026-06-22T08:20:00Z</time>
   </trkpt>
   <trkpt lat="-3.1099070" lon="37.3506500">
    <ele>4002.8</ele>
    <time>2026-06-22T08:20:01Z</time>
   </trkpt>
   <trkpt lat="-3.1099090" lon="37.3506540">
    <ele>4002.7</ele>
    <time>2026-06-22T08:20:02Z</time>
   </trkpt>
   <trkpt lat="-3.1099110" lon="37.3506530">
    <ele>4002.6</ele>
    <time>2026-06-22T08:20:03Z</time>
   </trkpt>
   <trkpt lat="-3.1099120" lon="37.3506550">
    <ele>4002.6</ele>
    <time>2026-06-22T08:20:04Z</time>
   </trkpt>
   <trkpt lat="-3.1099100" lon="37.3506540">
    <ele>4002.5</ele>
    <time>2026-06-22T08:20:05Z</time>
   </trkpt>
   <trkpt lat="-3.1099110" lon="37.3506540">
    <ele>4002.5</ele>
    <time>2026-06-22T08:20:06Z</time>
   </trkpt>
   <trkpt lat="-3.1099110" lon="37.3506540">
    <ele>4002.5</ele>
    <time>2026-06-22T08:20:07Z</time>
   </trkpt>
   <trkpt lat="-3.1099080" lon="37.3506540">
    <ele>4002.4</ele>
    <time>2026-06-22T08:20:08Z</time>
   </trkpt>
   <trkpt lat="-3.1099080" lon="37.3506540">
    <ele>4002.4</ele>
    <time>2026-06-22T08:20:09Z</time>
   </trkpt>
   <trkpt lat="-3.1099080" lon="37.3506540">
    <ele>4002.4</ele>
    <time>2026-06-22T08:20:10Z</time>
   </trkpt>
   <trkpt lat="-3.1099080" lon="37.3506540">
    <ele>4002.4</ele>
    <time>2026-06-22T08:20:11Z</time>
   </trkpt>
   <trkpt lat="-3.1099080" lon="37.3506540">
    <ele>4002.4</ele>
    <time>2026-06-22T08:20:12Z</time>
   </trkpt>
   <trkpt lat="-3.1099100" lon="37.3506530">
    <ele>4002.4</ele>
    <time>2026-06-22T08:20:13Z</time>
   </trkpt>
   <trkpt lat="-3.1099100" lon="37.3506540">
    <ele>4002.4</ele>
    <time>2026-06-22T08:20:14Z</time>
   </trkpt>
   <trkpt lat="-3.1099100" lon="37.3506530">
    <ele>4002.4</ele>
    <time>2026-06-22T08:20:15Z</time>
   </trkpt>
   <trkpt lat="-3.1099090" lon="37.3506540">
    <ele>4002.3</ele>
    <time>2026-06-22T08:20:16Z</time>
   </trkpt>
   <trkpt lat="-3.1099100" lon="37.3506530">
    <ele>4002.3</ele>
    <time>2026-06-22T08:20:17Z</time>
   </trkpt>
   <trkpt lat="-3.1099100" lon="37.3506530">
    <ele>4002.3</ele>
    <time>2026-06-22T08:20:18Z</time>
   </trkpt>
   <trkpt lat="-3.1099110" lon="37.3506560">
    <ele>4002.2</ele>
    <time>2026-06-22T08:20:19Z</time>
   </trkpt>
   <trkpt lat="-3.1099110" lon="37.3506540">
    <ele>4002.2</ele>
    <time>2026-06-22T08:20:20Z</time>
   </trkpt>
   <trkpt lat="-3.1099100" lon="37.3506550">
    <ele>4002.2</ele>
    <time>2026-06-22T08:20:21Z</time>
   </trkpt>
   <trkpt lat="-3.1099100" lon="37.3506550">
    <ele>4002.2</ele>
    <time>2026-06-22T08:20:22Z</time>
   </trkpt>
   <trkpt lat="-3.1099090" lon="37.3506540">
    <ele>4002.1</ele>
    <time>2026-06-22T08:20:23Z</time>
   </trkpt>
   <trkpt lat="-3.1099110" lon="37.3506520">
    <ele>4002.1</ele>
    <time>2026-06-22T08:20:24Z</time>
   </trkpt>
   <trkpt lat="-3.1099100" lon="37.3506510">
    <ele>4002.1</ele>
    <time>2026-06-22T08:20:25Z</time>
   </trkpt>
   <trkpt lat="-3.1099100" lon="37.3506510">
    <ele>4002.1</ele>
    <time>2026-06-22T08:20:26Z</time>
   </trkpt>
   <trkpt lat="-3.1099100" lon="37.3506510">
    <ele>4002.1</ele>
    <time>2026-06-22T08:20:27Z</time>
   </trkpt>
   <trkpt lat="-3.1099120" lon="37.3506510">
    <ele>4002.0</ele>
    <time>2026-06-22T08:20:28Z</time>
   </trkpt>
   <trkpt lat="-3.1099120" lon="37.3506500">
    <ele>4002.0</ele>
    <time>2026-06-22T08:20:29Z</time>
   </trkpt>
   <trkpt lat="-3.1099110" lon="37.3506490">
    <ele>4002.0</ele>
    <time>2026-06-22T08:20:30Z</time>
   </trkpt>
   <trkpt lat="-3.1099110" lon="37.3506490">
    <ele>4002.0</ele>
    <time>2026-06-22T08:20:31Z</time>
   </trkpt>
   <trkpt lat="-3.1099110" lon="37.3506500">
    <ele>4002.0</ele>
    <time>2026-06-22T08:20:32Z</time>
   </trkpt>
   <trkpt lat="-3.1099110" lon="37.3506490">
    <ele>4001.9</ele>
    <time>2026-06-22T08:20:33Z</time>
   </trkpt>
   <trkpt lat="-3.1099110" lon="37.3506490">
    <ele>4001.9</ele>
    <time>2026-06-22T08:20:34Z</time>
   </trkpt>
   <trkpt lat="-3.1099090" lon="37.3506490">
    <ele>4001.9</ele>
    <time>2026-06-22T08:20:35Z</time>
   </trkpt>
   <trkpt lat="-3.1099090" lon="37.3506490">
    <ele>4001.9</ele>
    <time>2026-06-22T08:20:36Z</time>
   </trkpt>
   <trkpt lat="-3.1099080" lon="37.3506500">
    <ele>4001.9</ele>
    <time>2026-06-22T08:20:37Z</time>
   </trkpt>
   <trkpt lat="-3.1099080" lon="37.3506490">
    <ele>4001.8</ele>
    <time>2026-06-22T08:20:38Z</time>
   </trkpt>
   <trkpt lat="-3.1099080" lon="37.3506490">
    <ele>4001.8</ele>
    <time>2026-06-22T08:20:39Z</time>
   </trkpt>
   <trkpt lat="-3.1099080" lon="37.3506490">
    <ele>4001.8</ele>
    <time>2026-06-22T08:20:40Z</time>
   </trkpt>
   <trkpt lat="-3.1099080" lon="37.3506490">
    <ele>4001.8</ele>
    <time>2026-06-22T08:20:41Z</time>
   </trkpt>
   <trkpt lat="-3.1099080" lon="37.3506490">
    <ele>4001.8</ele>
    <time>2026-06-22T08:20:42Z</time>
   </trkpt>
   <trkpt lat="-3.1099080" lon="37.3506490">
    <ele>4001.8</ele>
    <time>2026-06-22T08:20:43Z</time>
   </trkpt>
   <trkpt lat="-3.1099080" lon="37.3506490">
    <ele>4001.8</ele>
    <time>2026-06-22T08:20:44Z</time>
   </trkpt>
   <trkpt lat="-3.1099080" lon="37.3506490">
    <ele>4001.8</ele>
    <time>2026-06-22T08:20:45Z</time>
   </trkpt>
   <trkpt lat="-3.1099080" lon="37.3506490">
    <ele>4001.8</ele>
    <time>2026-06-22T08:20:46Z</time>
   </trkpt>
   <trkpt lat="-3.1099080" lon="37.3506490">
    <ele>4001.8</ele>
    <time>2026-06-22T08:20:47Z</time>
   </trkpt>
   <trkpt lat="-3.1099080" lon="37.3506490">
    <ele>4001.8</ele>
    <time>2026-06-22T08:20:48Z</time>
   </trkpt>
   <trkpt lat="-3.1099050" lon="37.3506520">
    <ele>4001.8</ele>
    <time>2026-06-22T08:20:49Z</time>
   </trkpt>
   <trkpt lat="-3.1099080" lon="37.3506520">
    <ele>4001.7</ele>
    <time>2026-06-22T08:20:50Z</time>
   </trkpt>
   <trkpt lat="-3.1099100" lon="37.3506500">
    <ele>4001.6</ele>
    <time>2026-06-22T08:20:51Z</time>
   </trkpt>
   <trkpt lat="-3.1099110" lon="37.3506500">
    <ele>4001.6</ele>
    <time>2026-06-22T08:20:52Z</time>
   </trkpt>
   <trkpt lat="-3.1099160" lon="37.3506500">
    <ele>4001.5</ele>
    <time>2026-06-22T08:20:53Z</time>
   </trkpt>
   <trkpt lat="-3.1099190" lon="37.3506510">
    <ele>4001.4</ele>
    <time>2026-06-22T08:20:54Z</time>
   </trkpt>
   <trkpt lat="-3.1099190" lon="37.3506540">
    <ele>4001.4</ele>
    <time>2026-06-22T08:20:55Z</time>
   </trkpt>
   <trkpt lat="-3.1099240" lon="37.3506530">
    <ele>4001.3</ele>
    <time>2026-06-22T08:20:56Z</time>
   </trkpt>
   <trkpt lat="-3.1099280" lon="37.3506540">
    <ele>4001.2</ele>
    <time>2026-06-22T08:20:57Z</time>
   </trkpt>
   <trkpt lat="-3.1099360" lon="37.3506520">
    <ele>4001.0</ele>
    <time>2026-06-22T08:20:58Z</time>
   </trkpt>
   <trkpt lat="-3.1099400" lon="37.3506480">
    <ele>4000.9</ele>
    <time>2026-06-22T08:20:59Z</time>
   </trkpt>
   <trkpt lat="-3.1099420" lon="37.3506450">
    <ele>4000.8</ele>
    <time>2026-06-22T08:21:00Z</time>
   </trkpt>
   <trkpt lat="-3.1099430" lon="37.3506400">
    <ele>4000.7</ele>
    <time>2026-06-22T08:21:01Z</time>
   </trkpt>
   <trkpt lat="-3.1099460" lon="37.3506370">
    <ele>4000.6</ele>
    <time>2026-06-22T08:21:02Z</time>
   </trkpt>
   <trkpt lat="-3.1099480" lon="37.3506350">
    <ele>4000.5</ele>
    <time>2026-06-22T08:21:03Z</time>
   </trkpt>
   <trkpt lat="-3.1099510" lon="37.3506340">
    <ele>4000.5</ele>
    <time>2026-06-22T08:21:04Z</time>
   </trkpt>
   <trkpt lat="-3.1099550" lon="37.3506380">
    <ele>4000.4</ele>
    <time>2026-06-22T08:21:05Z</time>
   </trkpt>
   <trkpt lat="-3.1099600" lon="37.3506420">
    <ele>4000.2</ele>
    <time>2026-06-22T08:21:06Z</time>
   </trkpt>
   <trkpt lat="-3.1099630" lon="37.3506390">
    <ele>4000.1</ele>
    <time>2026-06-22T08:21:07Z</time>
   </trkpt>
   <trkpt lat="-3.1099620" lon="37.3506390">
    <ele>4000.1</ele>
    <time>2026-06-22T08:21:08Z</time>
   </trkpt>
   <trkpt lat="-3.1099660" lon="37.3506390">
    <ele>4000.0</ele>
    <time>2026-06-22T08:21:09Z</time>
   </trkpt>
   <trkpt lat="-3.1099700" lon="37.3506360">
    <ele>3999.9</ele>
    <time>2026-06-22T08:21:10Z</time>
   </trkpt>
   <trkpt lat="-3.1099700" lon="37.3506360">
    <ele>3999.9</ele>
    <time>2026-06-22T08:21:11Z</time>
   </trkpt>
   <trkpt lat="-3.1099720" lon="37.3506380">
    <ele>3999.9</ele>
    <time>2026-06-22T08:21:12Z</time>
   </trkpt>
   <trkpt lat="-3.1099900" lon="37.3506250">
    <ele>3999.4</ele>
    <time>2026-06-22T08:21:13Z</time>
   </trkpt>
   <trkpt lat="-3.1099820" lon="37.3506370">
    <ele>3999.1</ele>
    <time>2026-06-22T08:21:14Z</time>
   </trkpt>
   <trkpt lat="-3.1099800" lon="37.3506330">
    <ele>3999.0</ele>
    <time>2026-06-22T08:21:15Z</time>
   </trkpt>
   <trkpt lat="-3.1099890" lon="37.3506300">
    <ele>3998.8</ele>
    <time>2026-06-22T08:21:16Z</time>
   </trkpt>
   <trkpt lat="-3.1099880" lon="37.3506360">
    <ele>3998.6</ele>
    <time>2026-06-22T08:21:17Z</time>
   </trkpt>
   <trkpt lat="-3.1099900" lon="37.3506300">
    <ele>3998.5</ele>
    <time>2026-06-22T08:21:18Z</time>
   </trkpt>
   <trkpt lat="-3.1099930" lon="37.3506370">
    <ele>3998.4</ele>
    <time>2026-06-22T08:21:19Z</time>
   </trkpt>
   <trkpt lat="-3.1099940" lon="37.3506360">
    <ele>3998.3</ele>
    <time>2026-06-22T08:21:20Z</time>
   </trkpt>
   <trkpt lat="-3.1099940" lon="37.3506350">
    <ele>3998.3</ele>
    <time>2026-06-22T08:21:21Z</time>
   </trkpt>
   <trkpt lat="-3.1099930" lon="37.3506380">
    <ele>3998.2</ele>
    <time>2026-06-22T08:21:22Z</time>
   </trkpt>
   <trkpt lat="-3.1099910" lon="37.3506360">
    <ele>3998.2</ele>
    <time>2026-06-22T08:21:23Z</time>
   </trkpt>
   <trkpt lat="-3.1099910" lon="37.3506380">
    <ele>3998.1</ele>
    <time>2026-06-22T08:21:24Z</time>
   </trkpt>
   <trkpt lat="-3.1099910" lon="37.3506420">
    <ele>3998.0</ele>
    <time>2026-06-22T08:21:25Z</time>
   </trkpt>
   <trkpt lat="-3.1099940" lon="37.3506500">
    <ele>3997.9</ele>
    <time>2026-06-22T08:21:26Z</time>
   </trkpt>
   <trkpt lat="-3.1099940" lon="37.3506440">
    <ele>3997.7</ele>
    <time>2026-06-22T08:21:27Z</time>
   </trkpt>
   <trkpt lat="-3.1099940" lon="37.3506430">
    <ele>3997.7</ele>
    <time>2026-06-22T08:21:28Z</time>
   </trkpt>
   <trkpt lat="-3.1099940" lon="37.3506440">
    <ele>3997.7</ele>
    <time>2026-06-22T08:21:29Z</time>
   </trkpt>
   <trkpt lat="-3.1099930" lon="37.3506450">
    <ele>3997.6</ele>
    <time>2026-06-22T08:21:30Z</time>
   </trkpt>
   <trkpt lat="-3.1099930" lon="37.3506440">
    <ele>3997.6</ele>
    <time>2026-06-22T08:21:31Z</time>
   </trkpt>
   <trkpt lat="-3.1099930" lon="37.3506440">
    <ele>3997.6</ele>
    <time>2026-06-22T08:21:32Z</time>
   </trkpt>
   <trkpt lat="-3.1099940" lon="37.3506440">
    <ele>3997.6</ele>
    <time>2026-06-22T08:21:33Z</time>
   </trkpt>
   <trkpt lat="-3.1099920" lon="37.3506420">
    <ele>3997.5</ele>
    <time>2026-06-22T08:21:34Z</time>
   </trkpt>
   <trkpt lat="-3.1099920" lon="37.3506430">
    <ele>3997.5</ele>
    <time>2026-06-22T08:21:36Z</time>
   </trkpt>
   <trkpt lat="-3.1099910" lon="37.3506420">
    <ele>3997.5</ele>
    <time>2026-06-22T08:21:37Z</time>
   </trkpt>
   <trkpt lat="-3.1099920" lon="37.3506430">
    <ele>3997.5</ele>
    <time>2026-06-22T08:21:38Z</time>
   </trkpt>
   <trkpt lat="-3.1099920" lon="37.3506430">
    <ele>3997.5</ele>
    <time>2026-06-22T08:21:39Z</time>
   </trkpt>
   <trkpt lat="-3.1099920" lon="37.3506420">
    <ele>3997.4</ele>
    <time>2026-06-22T08:21:40Z</time>
   </trkpt>
   <trkpt lat="-3.1099920" lon="37.3506420">
    <ele>3997.4</ele>
    <time>2026-06-22T08:21:41Z</time>
   </trkpt>
   <trkpt lat="-3.1099920" lon="37.3506420">
    <ele>3997.4</ele>
    <time>2026-06-22T08:21:42Z</time>
   </trkpt>
   <trkpt lat="-3.1099920" lon="37.3506420">
    <ele>3997.4</ele>
    <time>2026-06-22T08:21:43Z</time>
   </trkpt>
   <trkpt lat="-3.1099950" lon="37.3506420">
    <ele>3997.4</ele>
    <time>2026-06-22T08:21:44Z</time>
   </trkpt>
   <trkpt lat="-3.1099940" lon="37.3506420">
    <ele>3997.3</ele>
    <time>2026-06-22T08:21:45Z</time>
   </trkpt>
   <trkpt lat="-3.1099940" lon="37.3506410">
    <ele>3997.3</ele>
    <time>2026-06-22T08:21:46Z</time>
   </trkpt>
   <trkpt lat="-3.1099940" lon="37.3506420">
    <ele>3997.3</ele>
    <time>2026-06-22T08:21:47Z</time>
   </trkpt>
   <trkpt lat="-3.1099940" lon="37.3506410">
    <ele>3997.3</ele>
    <time>2026-06-22T08:21:48Z</time>
   </trkpt>
   <trkpt lat="-3.1099930" lon="37.3506420">
    <ele>3997.2</ele>
    <time>2026-06-22T08:21:49Z</time>
   </trkpt>
   <trkpt lat="-3.1099940" lon="37.3506440">
    <ele>3997.2</ele>
    <time>2026-06-22T08:21:50Z</time>
   </trkpt>
   <trkpt lat="-3.1099940" lon="37.3506430">
    <ele>3997.2</ele>
    <time>2026-06-22T08:21:51Z</time>
   </trkpt>
   <trkpt lat="-3.1099940" lon="37.3506420">
    <ele>3997.2</ele>
    <time>2026-06-22T08:21:52Z</time>
   </trkpt>
   <trkpt lat="-3.1099970" lon="37.3506400">
    <ele>3997.1</ele>
    <time>2026-06-22T08:21:53Z</time>
   </trkpt>
   <trkpt lat="-3.1099990" lon="37.3506420">
    <ele>3997.0</ele>
    <time>2026-06-22T08:21:54Z</time>
   </trkpt>
   <trkpt lat="-3.1099970" lon="37.3506420">
    <ele>3997.0</ele>
    <time>2026-06-22T08:21:55Z</time>
   </trkpt>
   <trkpt lat="-3.1100050" lon="37.3506390">
    <ele>3996.8</ele>
    <time>2026-06-22T08:21:56Z</time>
   </trkpt>
   <trkpt lat="-3.1100130" lon="37.3506420">
    <ele>3996.6</ele>
    <time>2026-06-22T08:21:57Z</time>
   </trkpt>
   <trkpt lat="-3.1100070" lon="37.3506400">
    <ele>3996.5</ele>
    <time>2026-06-22T08:21:58Z</time>
   </trkpt>
   <trkpt lat="-3.1100110" lon="37.3506410">
    <ele>3996.4</ele>
    <time>2026-06-22T08:21:59Z</time>
   </trkpt>
   <trkpt lat="-3.1100140" lon="37.3506400">
    <ele>3996.3</ele>
    <time>2026-06-22T08:22:00Z</time>
   </trkpt>
   <trkpt lat="-3.1100170" lon="37.3506440">
    <ele>3996.2</ele>
    <time>2026-06-22T08:22:01Z</time>
   </trkpt>
   <trkpt lat="-3.1100210" lon="37.3506460">
    <ele>3996.1</ele>
    <time>2026-06-22T08:22:02Z</time>
   </trkpt>
   <trkpt lat="-3.1100240" lon="37.3506480">
    <ele>3996.0</ele>
    <time>2026-06-22T08:22:03Z</time>
   </trkpt>
   <trkpt lat="-3.1100250" lon="37.3506450">
    <ele>3995.9</ele>
    <time>2026-06-22T08:22:04Z</time>
   </trkpt>
   <trkpt lat="-3.1100240" lon="37.3506450">
    <ele>3995.9</ele>
    <time>2026-06-22T08:22:05Z</time>
   </trkpt>
   <trkpt lat="-3.1100240" lon="37.3506440">
    <ele>3995.9</ele>
    <time>2026-06-22T08:22:06Z</time>
   </trkpt>
   <trkpt lat="-3.1100240" lon="37.3506430">
    <ele>3995.9</ele>
    <time>2026-06-22T08:22:07Z</time>
   </trkpt>
   <trkpt lat="-3.1100240" lon="37.3506430">
    <ele>3995.9</ele>
    <time>2026-06-22T08:22:08Z</time>
   </trkpt>
   <trkpt lat="-3.1100240" lon="37.3506410">
    <ele>3995.8</ele>
    <time>2026-06-22T08:22:09Z</time>
   </trkpt>
   <trkpt lat="-3.1100240" lon="37.3506410">
    <ele>3995.8</ele>
    <time>2026-06-22T08:22:10Z</time>
   </trkpt>
   <trkpt lat="-3.1100250" lon="37.3506410">
    <ele>3995.8</ele>
    <time>2026-06-22T08:22:11Z</time>
   </trkpt>
   <trkpt lat="-3.1100240" lon="37.3506410">
    <ele>3995.8</ele>
    <time>2026-06-22T08:22:12Z</time>
   </trkpt>
   <trkpt lat="-3.1100260" lon="37.3506410">
    <ele>3995.7</ele>
    <time>2026-06-22T08:22:13Z</time>
   </trkpt>
   <trkpt lat="-3.1100250" lon="37.3506410">
    <ele>3995.7</ele>
    <time>2026-06-22T08:22:14Z</time>
   </trkpt>
   <trkpt lat="-3.1100250" lon="37.3506410">
    <ele>3995.7</ele>
    <time>2026-06-22T08:22:15Z</time>
   </trkpt>
   <trkpt lat="-3.1100270" lon="37.3506410">
    <ele>3995.7</ele>
    <time>2026-06-22T08:22:16Z</time>
   </trkpt>
   <trkpt lat="-3.1100270" lon="37.3506410">
    <ele>3995.7</ele>
    <time>2026-06-22T08:22:17Z</time>
   </trkpt>
   <trkpt lat="-3.1100270" lon="37.3506410">
    <ele>3995.7</ele>
    <time>2026-06-22T08:22:18Z</time>
   </trkpt>
   <trkpt lat="-3.1100270" lon="37.3506410">
    <ele>3995.7</ele>
    <time>2026-06-22T08:22:19Z</time>
   </trkpt>
   <trkpt lat="-3.1100270" lon="37.3506400">
    <ele>3995.6</ele>
    <time>2026-06-22T08:22:20Z</time>
   </trkpt>
   <trkpt lat="-3.1100270" lon="37.3506400">
    <ele>3995.6</ele>
    <time>2026-06-22T08:22:21Z</time>
   </trkpt>
   <trkpt lat="-3.1100280" lon="37.3506410">
    <ele>3995.6</ele>
    <time>2026-06-22T08:22:22Z</time>
   </trkpt>
   <trkpt lat="-3.1100280" lon="37.3506440">
    <ele>3995.6</ele>
    <time>2026-06-22T08:22:23Z</time>
   </trkpt>
   <trkpt lat="-3.1100280" lon="37.3506440">
    <ele>3995.6</ele>
    <time>2026-06-22T08:22:24Z</time>
   </trkpt>
   <trkpt lat="-3.1100270" lon="37.3506420">
    <ele>3995.5</ele>
    <time>2026-06-22T08:22:25Z</time>
   </trkpt>
   <trkpt lat="-3.1100280" lon="37.3506410">
    <ele>3995.5</ele>
    <time>2026-06-22T08:22:26Z</time>
   </trkpt>
   <trkpt lat="-3.1100280" lon="37.3506410">
    <ele>3995.5</ele>
    <time>2026-06-22T08:22:27Z</time>
   </trkpt>
   <trkpt lat="-3.1100280" lon="37.3506410">
    <ele>3995.5</ele>
    <time>2026-06-22T08:22:28Z</time>
   </trkpt>
   <trkpt lat="-3.1100300" lon="37.3506410">
    <ele>3995.4</ele>
    <time>2026-06-22T08:22:29Z</time>
   </trkpt>
   <trkpt lat="-3.1100290" lon="37.3506410">
    <ele>3995.4</ele>
    <time>2026-06-22T08:22:30Z</time>
   </trkpt>
   <trkpt lat="-3.1100300" lon="37.3506410">
    <ele>3995.4</ele>
    <time>2026-06-22T08:22:31Z</time>
   </trkpt>
   <trkpt lat="-3.1100300" lon="37.3506420">
    <ele>3995.4</ele>
    <time>2026-06-22T08:22:32Z</time>
   </trkpt>
   <trkpt lat="-3.1100300" lon="37.3506390">
    <ele>3995.3</ele>
    <time>2026-06-22T08:22:33Z</time>
   </trkpt>
   <trkpt lat="-3.1100300" lon="37.3506390">
    <ele>3995.3</ele>
    <time>2026-06-22T08:22:34Z</time>
   </trkpt>
   <trkpt lat="-3.1100310" lon="37.3506380">
    <ele>3995.3</ele>
    <time>2026-06-22T08:22:35Z</time>
   </trkpt>
   <trkpt lat="-3.1100300" lon="37.3506380">
    <ele>3995.2</ele>
    <time>2026-06-22T08:22:36Z</time>
   </trkpt>
   <trkpt lat="-3.1100300" lon="37.3506380">
    <ele>3995.2</ele>
    <time>2026-06-22T08:22:37Z</time>
   </trkpt>
   <trkpt lat="-3.1100320" lon="37.3506350">
    <ele>3995.2</ele>
    <time>2026-06-22T08:22:38Z</time>
   </trkpt>
   <trkpt lat="-3.1100310" lon="37.3506350">
    <ele>3995.1</ele>
    <time>2026-06-22T08:22:39Z</time>
   </trkpt>
   <trkpt lat="-3.1100320" lon="37.3506340">
    <ele>3995.1</ele>
    <time>2026-06-22T08:22:40Z</time>
   </trkpt>
   <trkpt lat="-3.1100320" lon="37.3506330">
    <ele>3995.1</ele>
    <time>2026-06-22T08:22:41Z</time>
   </trkpt>
   <trkpt lat="-3.1100340" lon="37.3506330">
    <ele>3995.0</ele>
    <time>2026-06-22T08:22:42Z</time>
   </trkpt>
   <trkpt lat="-3.1100340" lon="37.3506320">
    <ele>3995.0</ele>
    <time>2026-06-22T08:22:43Z</time>
   </trkpt>
   <trkpt lat="-3.1100340" lon="37.3506320">
    <ele>3995.0</ele>
    <time>2026-06-22T08:22:44Z</time>
   </trkpt>
   <trkpt lat="-3.1100340" lon="37.3506320">
    <ele>3995.0</ele>
    <time>2026-06-22T08:22:45Z</time>
   </trkpt>
   <trkpt lat="-3.1100370" lon="37.3506310">
    <ele>3995.0</ele>
    <time>2026-06-22T08:22:46Z</time>
   </trkpt>
   <trkpt lat="-3.1100360" lon="37.3506310">
    <ele>3994.9</ele>
    <time>2026-06-22T08:22:47Z</time>
   </trkpt>
   <trkpt lat="-3.1100360" lon="37.3506300">
    <ele>3994.9</ele>
    <time>2026-06-22T08:22:48Z</time>
   </trkpt>
   <trkpt lat="-3.1100390" lon="37.3506300">
    <ele>3994.8</ele>
    <time>2026-06-22T08:22:49Z</time>
   </trkpt>
   <trkpt lat="-3.1100370" lon="37.3506310">
    <ele>3994.8</ele>
    <time>2026-06-22T08:22:50Z</time>
   </trkpt>
   <trkpt lat="-3.1100350" lon="37.3506340">
    <ele>3994.7</ele>
    <time>2026-06-22T08:22:51Z</time>
   </trkpt>
   <trkpt lat="-3.1100340" lon="37.3506340">
    <ele>3994.7</ele>
    <time>2026-06-22T08:22:52Z</time>
   </trkpt>
   <trkpt lat="-3.1100330" lon="37.3506340">
    <ele>3994.7</ele>
    <time>2026-06-22T08:22:53Z</time>
   </trkpt>
   <trkpt lat="-3.1100330" lon="37.3506340">
    <ele>3994.7</ele>
    <time>2026-06-22T08:22:54Z</time>
   </trkpt>
   <trkpt lat="-3.1100340" lon="37.3506340">
    <ele>3994.6</ele>
    <time>2026-06-22T08:22:55Z</time>
   </trkpt>
   <trkpt lat="-3.1100340" lon="37.3506350">
    <ele>3994.6</ele>
    <time>2026-06-22T08:22:56Z</time>
   </trkpt>
   <trkpt lat="-3.1100350" lon="37.3506360">
    <ele>3994.6</ele>
    <time>2026-06-22T08:22:57Z</time>
   </trkpt>
   <trkpt lat="-3.1100380" lon="37.3506370">
    <ele>3994.5</ele>
    <time>2026-06-22T08:22:58Z</time>
   </trkpt>
   <trkpt lat="-3.1100370" lon="37.3506370">
    <ele>3994.5</ele>
    <time>2026-06-22T08:22:59Z</time>
   </trkpt>
   <trkpt lat="-3.1100370" lon="37.3506370">
    <ele>3994.5</ele>
    <time>2026-06-22T08:23:00Z</time>
   </trkpt>
   <trkpt lat="-3.1100360" lon="37.3506370">
    <ele>3994.5</ele>
    <time>2026-06-22T08:23:02Z</time>
   </trkpt>
   <trkpt lat="-3.1100350" lon="37.3506360">
    <ele>3994.4</ele>
    <time>2026-06-22T08:23:03Z</time>
   </trkpt>
   <trkpt lat="-3.1100340" lon="37.3506360">
    <ele>3994.4</ele>
    <time>2026-06-22T08:23:04Z</time>
   </trkpt>
   <trkpt lat="-3.1100370" lon="37.3506350">
    <ele>3994.4</ele>
    <time>2026-06-22T08:23:05Z</time>
   </trkpt>
   <trkpt lat="-3.1100400" lon="37.3506330">
    <ele>3994.3</ele>
    <time>2026-06-22T08:23:06Z</time>
   </trkpt>
   <trkpt lat="-3.1100460" lon="37.3506330">
    <ele>3994.1</ele>
    <time>2026-06-22T08:23:07Z</time>
   </trkpt>
   <trkpt lat="-3.1100460" lon="37.3506290">
    <ele>3994.1</ele>
    <time>2026-06-22T08:23:08Z</time>
   </trkpt>
   <trkpt lat="-3.1100470" lon="37.3506300">
    <ele>3994.0</ele>
    <time>2026-06-22T08:23:09Z</time>
   </trkpt>
   <trkpt lat="-3.1100480" lon="37.3506320">
    <ele>3994.0</ele>
    <time>2026-06-22T08:23:10Z</time>
   </trkpt>
   <trkpt lat="-3.1100460" lon="37.3506340">
    <ele>3993.9</ele>
    <time>2026-06-22T08:23:11Z</time>
   </trkpt>
   <trkpt lat="-3.1100460" lon="37.3506350">
    <ele>3993.9</ele>
    <time>2026-06-22T08:23:12Z</time>
   </trkpt>
   <trkpt lat="-3.1100460" lon="37.3506360">
    <ele>3993.9</ele>
    <time>2026-06-22T08:23:13Z</time>
   </trkpt>
   <trkpt lat="-3.1100490" lon="37.3506370">
    <ele>3993.8</ele>
    <time>2026-06-22T08:23:14Z</time>
   </trkpt>
   <trkpt lat="-3.1100480" lon="37.3506360">
    <ele>3993.8</ele>
    <time>2026-06-22T08:23:15Z</time>
   </trkpt>
   <trkpt lat="-3.1100470" lon="37.3506360">
    <ele>3993.7</ele>
    <time>2026-06-22T08:23:16Z</time>
   </trkpt>
   <trkpt lat="-3.1100470" lon="37.3506350">
    <ele>3993.7</ele>
    <time>2026-06-22T08:23:17Z</time>
   </trkpt>
   <trkpt lat="-3.1100500" lon="37.3506320">
    <ele>3993.6</ele>
    <time>2026-06-22T08:23:18Z</time>
   </trkpt>
   <trkpt lat="-3.1100520" lon="37.3506310">
    <ele>3993.6</ele>
    <time>2026-06-22T08:23:19Z</time>
   </trkpt>
   <trkpt lat="-3.1100550" lon="37.3506290">
    <ele>3993.5</ele>
    <time>2026-06-22T08:23:20Z</time>
   </trkpt>
   <trkpt lat="-3.1100580" lon="37.3506250">
    <ele>3993.4</ele>
    <time>2026-06-22T08:23:21Z</time>
   </trkpt>
   <trkpt lat="-3.1100620" lon="37.3506200">
    <ele>3993.3</ele>
    <time>2026-06-22T08:23:22Z</time>
   </trkpt>
   <trkpt lat="-3.1100660" lon="37.3506170">
    <ele>3993.1</ele>
    <time>2026-06-22T08:23:23Z</time>
   </trkpt>
   <trkpt lat="-3.1100650" lon="37.3506140">
    <ele>3993.1</ele>
    <time>2026-06-22T08:23:24Z</time>
   </trkpt>
   <trkpt lat="-3.1100700" lon="37.3506120">
    <ele>3993.0</ele>
    <time>2026-06-22T08:23:25Z</time>
   </trkpt>
   <trkpt lat="-3.1100800" lon="37.3506110">
    <ele>3992.7</ele>
    <time>2026-06-22T08:23:26Z</time>
   </trkpt>
   <trkpt lat="-3.1100810" lon="37.3506090">
    <ele>3992.7</ele>
    <time>2026-06-22T08:23:27Z</time>
   </trkpt>
   <trkpt lat="-3.1100810" lon="37.3506110">
    <ele>3992.6</ele>
    <time>2026-06-22T08:23:28Z</time>
   </trkpt>
   <trkpt lat="-3.1100890" lon="37.3506180">
    <ele>3992.4</ele>
    <time>2026-06-22T08:23:29Z</time>
   </trkpt>
   <trkpt lat="-3.1100880" lon="37.3506210">
    <ele>3992.3</ele>
    <time>2026-06-22T08:23:30Z</time>
   </trkpt>
   <trkpt lat="-3.1100920" lon="37.3506240">
    <ele>3992.2</ele>
    <time>2026-06-22T08:23:31Z</time>
   </trkpt>
   <trkpt lat="-3.1100930" lon="37.3506270">
    <ele>3992.2</ele>
    <time>2026-06-22T08:23:32Z</time>
   </trkpt>
   <trkpt lat="-3.1100950" lon="37.3506330">
    <ele>3992.0</ele>
    <time>2026-06-22T08:23:33Z</time>
   </trkpt>
   <trkpt lat="-3.1100990" lon="37.3506350">
    <ele>3991.9</ele>
    <time>2026-06-22T08:23:34Z</time>
   </trkpt>
   <trkpt lat="-3.1101040" lon="37.3506330">
    <ele>3991.8</ele>
    <time>2026-06-22T08:23:35Z</time>
   </trkpt>
   <trkpt lat="-3.1101000" lon="37.3506310">
    <ele>3991.7</ele>
    <time>2026-06-22T08:23:36Z</time>
   </trkpt>
   <trkpt lat="-3.1101140" lon="37.3506410">
    <ele>3991.3</ele>
    <time>2026-06-22T08:23:37Z</time>
   </trkpt>
   <trkpt lat="-3.1101120" lon="37.3506400">
    <ele>3991.3</ele>
    <time>2026-06-22T08:23:38Z</time>
   </trkpt>
   <trkpt lat="-3.1101120" lon="37.3506430">
    <ele>3991.2</ele>
    <time>2026-06-22T08:23:39Z</time>
   </trkpt>
   <trkpt lat="-3.1101170" lon="37.3506470">
    <ele>3991.1</ele>
    <time>2026-06-22T08:23:40Z</time>
   </trkpt>
   <trkpt lat="-3.1101180" lon="37.3506500">
    <ele>3991.0</ele>
    <time>2026-06-22T08:23:41Z</time>
   </trkpt>
   <trkpt lat="-3.1101280" lon="37.3506440">
    <ele>3990.7</ele>
    <time>2026-06-22T08:23:42Z</time>
   </trkpt>
   <trkpt lat="-3.1101360" lon="37.3506470">
    <ele>3990.5</ele>
    <time>2026-06-22T08:23:43Z</time>
   </trkpt>
   <trkpt lat="-3.1101360" lon="37.3506400">
    <ele>3990.4</ele>
    <time>2026-06-22T08:23:44Z</time>
   </trkpt>
   <trkpt lat="-3.1101390" lon="37.3506390">
    <ele>3990.3</ele>
    <time>2026-06-22T08:23:45Z</time>
   </trkpt>
   <trkpt lat="-3.1101390" lon="37.3506400">
    <ele>3990.3</ele>
    <time>2026-06-22T08:23:46Z</time>
   </trkpt>
   <trkpt lat="-3.1101400" lon="37.3506380">
    <ele>3990.3</ele>
    <time>2026-06-22T08:23:47Z</time>
   </trkpt>
   <trkpt lat="-3.1101430" lon="37.3506390">
    <ele>3990.2</ele>
    <time>2026-06-22T08:23:48Z</time>
   </trkpt>
   <trkpt lat="-3.1101480" lon="37.3506420">
    <ele>3990.1</ele>
    <time>2026-06-22T08:23:49Z</time>
   </trkpt>
   <trkpt lat="-3.1101480" lon="37.3506450">
    <ele>3990.0</ele>
    <time>2026-06-22T08:23:50Z</time>
   </trkpt>
   <trkpt lat="-3.1101480" lon="37.3506500">
    <ele>3989.9</ele>
    <time>2026-06-22T08:23:51Z</time>
   </trkpt>
   <trkpt lat="-3.1101470" lon="37.3506550">
    <ele>3989.8</ele>
    <time>2026-06-22T08:23:52Z</time>
   </trkpt>
   <trkpt lat="-3.1101430" lon="37.3506590">
    <ele>3989.6</ele>
    <time>2026-06-22T08:23:53Z</time>
   </trkpt>
   <trkpt lat="-3.1101390" lon="37.3506620">
    <ele>3989.5</ele>
    <time>2026-06-22T08:23:54Z</time>
   </trkpt>
   <trkpt lat="-3.1101330" lon="37.3506640">
    <ele>3989.4</ele>
    <time>2026-06-22T08:23:55Z</time>
   </trkpt>
   <trkpt lat="-3.1101280" lon="37.3506670">
    <ele>3989.3</ele>
    <time>2026-06-22T08:23:56Z</time>
   </trkpt>
   <trkpt lat="-3.1101250" lon="37.3506700">
    <ele>3989.2</ele>
    <time>2026-06-22T08:23:57Z</time>
   </trkpt>
   <trkpt lat="-3.1101200" lon="37.3506720">
    <ele>3989.1</ele>
    <time>2026-06-22T08:23:58Z</time>
   </trkpt>
   <trkpt lat="-3.1101150" lon="37.3506750">
    <ele>3988.9</ele>
    <time>2026-06-22T08:23:59Z</time>
   </trkpt>
   <trkpt lat="-3.1101120" lon="37.3506720">
    <ele>3988.8</ele>
    <time>2026-06-22T08:24:00Z</time>
   </trkpt>
   <trkpt lat="-3.1101070" lon="37.3506750">
    <ele>3988.7</ele>
    <time>2026-06-22T08:24:01Z</time>
   </trkpt>
   <trkpt lat="-3.1101040" lon="37.3506740">
    <ele>3988.6</ele>
    <time>2026-06-22T08:24:02Z</time>
   </trkpt>
   <trkpt lat="-3.1101000" lon="37.3506770">
    <ele>3988.5</ele>
    <time>2026-06-22T08:24:03Z</time>
   </trkpt>
   <trkpt lat="-3.1100970" lon="37.3506830">
    <ele>3988.4</ele>
    <time>2026-06-22T08:24:04Z</time>
   </trkpt>
   <trkpt lat="-3.1101000" lon="37.3506840">
    <ele>3988.3</ele>
    <time>2026-06-22T08:24:05Z</time>
   </trkpt>
   <trkpt lat="-3.1100940" lon="37.3506920">
    <ele>3988.1</ele>
    <time>2026-06-22T08:24:06Z</time>
   </trkpt>
   <trkpt lat="-3.1100920" lon="37.3506960">
    <ele>3988.0</ele>
    <time>2026-06-22T08:24:07Z</time>
   </trkpt>
   <trkpt lat="-3.1100920" lon="37.3507010">
    <ele>3987.9</ele>
    <time>2026-06-22T08:24:08Z</time>
   </trkpt>
   <trkpt lat="-3.1100880" lon="37.3507020">
    <ele>3987.8</ele>
    <time>2026-06-22T08:24:09Z</time>
   </trkpt>
   <trkpt lat="-3.1100890" lon="37.3507060">
    <ele>3987.7</ele>
    <time>2026-06-22T08:24:10Z</time>
   </trkpt>
   <trkpt lat="-3.1100880" lon="37.3507060">
    <ele>3987.7</ele>
    <time>2026-06-22T08:24:11Z</time>
   </trkpt>
   <trkpt lat="-3.1100860" lon="37.3507050">
    <ele>3987.6</ele>
    <time>2026-06-22T08:24:12Z</time>
   </trkpt>
   <trkpt lat="-3.1100810" lon="37.3507080">
    <ele>3987.5</ele>
    <time>2026-06-22T08:24:13Z</time>
   </trkpt>
   <trkpt lat="-3.1100830" lon="37.3507130">
    <ele>3987.4</ele>
    <time>2026-06-22T08:24:14Z</time>
   </trkpt>
   <trkpt lat="-3.1100810" lon="37.3507210">
    <ele>3987.2</ele>
    <time>2026-06-22T08:24:15Z</time>
   </trkpt>
   <trkpt lat="-3.1100750" lon="37.3507290">
    <ele>3987.0</ele>
    <time>2026-06-22T08:24:16Z</time>
   </trkpt>
   <trkpt lat="-3.1100720" lon="37.3507350">
    <ele>3986.8</ele>
    <time>2026-06-22T08:24:17Z</time>
   </trkpt>
   <trkpt lat="-3.1100710" lon="37.3507390">
    <ele>3986.7</ele>
    <time>2026-06-22T08:24:18Z</time>
   </trkpt>
   <trkpt lat="-3.1100700" lon="37.3507400">
    <ele>3986.7</ele>
    <time>2026-06-22T08:24:19Z</time>
   </trkpt>
   <trkpt lat="-3.1100680" lon="37.3507450">
    <ele>3986.6</ele>
    <time>2026-06-22T08:24:20Z</time>
   </trkpt>
   <trkpt lat="-3.1100670" lon="37.3507490">
    <ele>3986.5</ele>
    <time>2026-06-22T08:24:21Z</time>
   </trkpt>
   <trkpt lat="-3.1100660" lon="37.3507520">
    <ele>3986.4</ele>
    <time>2026-06-22T08:24:22Z</time>
   </trkpt>
   <trkpt lat="-3.1100640" lon="37.3507550">
    <ele>3986.3</ele>
    <time>2026-06-22T08:24:23Z</time>
   </trkpt>
   <trkpt lat="-3.1100630" lon="37.3507570">
    <ele>3986.3</ele>
    <time>2026-06-22T08:24:24Z</time>
   </trkpt>
   <trkpt lat="-3.1100620" lon="37.3507610">
    <ele>3986.2</ele>
    <time>2026-06-22T08:24:25Z</time>
   </trkpt>
   <trkpt lat="-3.1100620" lon="37.3507640">
    <ele>3986.1</ele>
    <time>2026-06-22T08:24:26Z</time>
   </trkpt>
   <trkpt lat="-3.1100600" lon="37.3507660">
    <ele>3986.1</ele>
    <time>2026-06-22T08:24:27Z</time>
   </trkpt>
   <trkpt lat="-3.1100600" lon="37.3507680">
    <ele>3986.0</ele>
    <time>2026-06-22T08:24:28Z</time>
   </trkpt>
   <trkpt lat="-3.1100600" lon="37.3507700">
    <ele>3986.0</ele>
    <time>2026-06-22T08:24:29Z</time>
   </trkpt>
   <trkpt lat="-3.1100590" lon="37.3507720">
    <ele>3985.9</ele>
    <time>2026-06-22T08:24:30Z</time>
   </trkpt>
   <trkpt lat="-3.1100550" lon="37.3507750">
    <ele>3985.8</ele>
    <time>2026-06-22T08:24:31Z</time>
   </trkpt>
   <trkpt lat="-3.1100530" lon="37.3507810">
    <ele>3985.7</ele>
    <time>2026-06-22T08:24:32Z</time>
   </trkpt>
   <trkpt lat="-3.1100550" lon="37.3507820">
    <ele>3985.6</ele>
    <time>2026-06-22T08:24:33Z</time>
   </trkpt>
   <trkpt lat="-3.1100630" lon="37.3507890">
    <ele>3985.4</ele>
    <time>2026-06-22T08:24:34Z</time>
   </trkpt>
   <trkpt lat="-3.1100700" lon="37.3507880">
    <ele>3985.3</ele>
    <time>2026-06-22T08:24:35Z</time>
   </trkpt>
   <trkpt lat="-3.1100750" lon="37.3507850">
    <ele>3985.1</ele>
    <time>2026-06-22T08:24:36Z</time>
   </trkpt>
   <trkpt lat="-3.1100780" lon="37.3507830">
    <ele>3985.0</ele>
    <time>2026-06-22T08:24:37Z</time>
   </trkpt>
   <trkpt lat="-3.1100840" lon="37.3507830">
    <ele>3984.9</ele>
    <time>2026-06-22T08:24:38Z</time>
   </trkpt>
   <trkpt lat="-3.1100920" lon="37.3507850">
    <ele>3984.7</ele>
    <time>2026-06-22T08:24:39Z</time>
   </trkpt>
   <trkpt lat="-3.1100890" lon="37.3507890">
    <ele>3984.6</ele>
    <time>2026-06-22T08:24:40Z</time>
   </trkpt>
   <trkpt lat="-3.1100870" lon="37.3507900">
    <ele>3984.6</ele>
    <time>2026-06-22T08:24:41Z</time>
   </trkpt>
   <trkpt lat="-3.1100890" lon="37.3507940">
    <ele>3984.5</ele>
    <time>2026-06-22T08:24:42Z</time>
   </trkpt>
   <trkpt lat="-3.1100890" lon="37.3507950">
    <ele>3984.5</ele>
    <time>2026-06-22T08:24:43Z</time>
   </trkpt>
   <trkpt lat="-3.1100930" lon="37.3507970">
    <ele>3984.4</ele>
    <time>2026-06-22T08:24:44Z</time>
   </trkpt>
   <trkpt lat="-3.1100930" lon="37.3507980">
    <ele>3984.3</ele>
    <time>2026-06-22T08:24:45Z</time>
   </trkpt>
   <trkpt lat="-3.1100920" lon="37.3507990">
    <ele>3984.3</ele>
    <time>2026-06-22T08:24:46Z</time>
   </trkpt>
   <trkpt lat="-3.1100950" lon="37.3508020">
    <ele>3984.2</ele>
    <time>2026-06-22T08:24:47Z</time>
   </trkpt>
   <trkpt lat="-3.1100950" lon="37.3508020">
    <ele>3984.2</ele>
    <time>2026-06-22T08:24:48Z</time>
   </trkpt>
   <trkpt lat="-3.1100980" lon="37.3508020">
    <ele>3984.1</ele>
    <time>2026-06-22T08:24:49Z</time>
   </trkpt>
   <trkpt lat="-3.1101070" lon="37.3508090">
    <ele>3983.9</ele>
    <time>2026-06-22T08:24:50Z</time>
   </trkpt>
   <trkpt lat="-3.1101030" lon="37.3508130">
    <ele>3983.8</ele>
    <time>2026-06-22T08:24:51Z</time>
   </trkpt>
   <trkpt lat="-3.1100990" lon="37.3508120">
    <ele>3983.7</ele>
    <time>2026-06-22T08:24:52Z</time>
   </trkpt>
   <trkpt lat="-3.1100980" lon="37.3508140">
    <ele>3983.6</ele>
    <time>2026-06-22T08:24:53Z</time>
   </trkpt>
   <trkpt lat="-3.1100940" lon="37.3508160">
    <ele>3983.5</ele>
    <time>2026-06-22T08:24:54Z</time>
   </trkpt>
   <trkpt lat="-3.1100930" lon="37.3508140">
    <ele>3983.5</ele>
    <time>2026-06-22T08:24:55Z</time>
   </trkpt>
   <trkpt lat="-3.1100940" lon="37.3508140">
    <ele>3983.5</ele>
    <time>2026-06-22T08:24:56Z</time>
   </trkpt>
   <trkpt lat="-3.1100900" lon="37.3508150">
    <ele>3983.4</ele>
    <time>2026-06-22T08:24:57Z</time>
   </trkpt>
   <trkpt lat="-3.1100870" lon="37.3508150">
    <ele>3983.3</ele>
    <time>2026-06-22T08:24:58Z</time>
   </trkpt>
   <trkpt lat="-3.1100840" lon="37.3508140">
    <ele>3983.2</ele>
    <time>2026-06-22T08:24:59Z</time>
   </trkpt>
   <trkpt lat="-3.1100840" lon="37.3508170">
    <ele>3983.2</ele>
    <time>2026-06-22T08:25:00Z</time>
   </trkpt>
   <trkpt lat="-3.1100840" lon="37.3508190">
    <ele>3983.1</ele>
    <time>2026-06-22T08:25:01Z</time>
   </trkpt>
   <trkpt lat="-3.1100880" lon="37.3508280">
    <ele>3982.9</ele>
    <time>2026-06-22T08:25:02Z</time>
   </trkpt>
   <trkpt lat="-3.1100860" lon="37.3508270">
    <ele>3982.9</ele>
    <time>2026-06-22T08:25:03Z</time>
   </trkpt>
   <trkpt lat="-3.1100860" lon="37.3508280">
    <ele>3982.8</ele>
    <time>2026-06-22T08:25:04Z</time>
   </trkpt>
   <trkpt lat="-3.1100860" lon="37.3508290">
    <ele>3982.8</ele>
    <time>2026-06-22T08:25:05Z</time>
   </trkpt>
   <trkpt lat="-3.1100860" lon="37.3508290">
    <ele>3982.8</ele>
    <time>2026-06-22T08:25:06Z</time>
   </trkpt>
   <trkpt lat="-3.1100860" lon="37.3508290">
    <ele>3982.8</ele>
    <time>2026-06-22T08:25:07Z</time>
   </trkpt>
   <trkpt lat="-3.1100850" lon="37.3508280">
    <ele>3982.8</ele>
    <time>2026-06-22T08:25:08Z</time>
   </trkpt>
   <trkpt lat="-3.1100860" lon="37.3508310">
    <ele>3982.7</ele>
    <time>2026-06-22T08:25:09Z</time>
   </trkpt>
   <trkpt lat="-3.1100830" lon="37.3508340">
    <ele>3982.6</ele>
    <time>2026-06-22T08:25:10Z</time>
   </trkpt>
   <trkpt lat="-3.1100860" lon="37.3508320">
    <ele>3982.5</ele>
    <time>2026-06-22T08:25:11Z</time>
   </trkpt>
   <trkpt lat="-3.1100830" lon="37.3508370">
    <ele>3982.4</ele>
    <time>2026-06-22T08:25:12Z</time>
   </trkpt>
   <trkpt lat="-3.1100870" lon="37.3508410">
    <ele>3982.3</ele>
    <time>2026-06-22T08:25:13Z</time>
   </trkpt>
   <trkpt lat="-3.1100890" lon="37.3508440">
    <ele>3982.2</ele>
    <time>2026-06-22T08:25:14Z</time>
   </trkpt>
   <trkpt lat="-3.1100960" lon="37.3508450">
    <ele>3982.0</ele>
    <time>2026-06-22T08:25:15Z</time>
   </trkpt>
   <trkpt lat="-3.1101000" lon="37.3508420">
    <ele>3981.9</ele>
    <time>2026-06-22T08:25:16Z</time>
   </trkpt>
   <trkpt lat="-3.1101030" lon="37.3508410">
    <ele>3981.9</ele>
    <time>2026-06-22T08:25:17Z</time>
   </trkpt>
   <trkpt lat="-3.1101120" lon="37.3508430">
    <ele>3981.7</ele>
    <time>2026-06-22T08:25:18Z</time>
   </trkpt>
   <trkpt lat="-3.1101170" lon="37.3508480">
    <ele>3981.5</ele>
    <time>2026-06-22T08:25:19Z</time>
   </trkpt>
   <trkpt lat="-3.1101200" lon="37.3508490">
    <ele>3981.4</ele>
    <time>2026-06-22T08:25:20Z</time>
   </trkpt>
   <trkpt lat="-3.1101290" lon="37.3508470">
    <ele>3981.2</ele>
    <time>2026-06-22T08:25:21Z</time>
   </trkpt>
   <trkpt lat="-3.1101320" lon="37.3508490">
    <ele>3981.2</ele>
    <time>2026-06-22T08:25:22Z</time>
   </trkpt>
   <trkpt lat="-3.1101360" lon="37.3508490">
    <ele>3981.1</ele>
    <time>2026-06-22T08:25:23Z</time>
   </trkpt>
   <trkpt lat="-3.1101410" lon="37.3508520">
    <ele>3980.9</ele>
    <time>2026-06-22T08:25:24Z</time>
   </trkpt>
   <trkpt lat="-3.1101470" lon="37.3508510">
    <ele>3980.8</ele>
    <time>2026-06-22T08:25:25Z</time>
   </trkpt>
   <trkpt lat="-3.1101560" lon="37.3508510">
    <ele>3980.6</ele>
    <time>2026-06-22T08:25:26Z</time>
   </trkpt>
   <trkpt lat="-3.1101580" lon="37.3508500">
    <ele>3980.6</ele>
    <time>2026-06-22T08:25:27Z</time>
   </trkpt>
   <trkpt lat="-3.1101620" lon="37.3508510">
    <ele>3980.5</ele>
    <time>2026-06-22T08:25:28Z</time>
   </trkpt>
   <trkpt lat="-3.1101710" lon="37.3508540">
    <ele>3980.3</ele>
    <time>2026-06-22T08:25:29Z</time>
   </trkpt>
   <trkpt lat="-3.1101740" lon="37.3508550">
    <ele>3980.2</ele>
    <time>2026-06-22T08:25:30Z</time>
   </trkpt>
   <trkpt lat="-3.1101770" lon="37.3508560">
    <ele>3980.1</ele>
    <time>2026-06-22T08:25:31Z</time>
   </trkpt>
   <trkpt lat="-3.1101790" lon="37.3508620">
    <ele>3980.0</ele>
    <time>2026-06-22T08:25:32Z</time>
   </trkpt>
   <trkpt lat="-3.1101840" lon="37.3508660">
    <ele>3979.8</ele>
    <time>2026-06-22T08:25:33Z</time>
   </trkpt>
   <trkpt lat="-3.1101900" lon="37.3508680">
    <ele>3979.7</ele>
    <time>2026-06-22T08:25:34Z</time>
   </trkpt>
   <trkpt lat="-3.1101950" lon="37.3508690">
    <ele>3979.6</ele>
    <time>2026-06-22T08:25:35Z</time>
   </trkpt>
   <trkpt lat="-3.1101960" lon="37.3508680">
    <ele>3979.6</ele>
    <time>2026-06-22T08:25:36Z</time>
   </trkpt>
   <trkpt lat="-3.1102130" lon="37.3508600">
    <ele>3979.2</ele>
    <time>2026-06-22T08:25:37Z</time>
   </trkpt>
   <trkpt lat="-3.1102160" lon="37.3508580">
    <ele>3979.1</ele>
    <time>2026-06-22T08:25:38Z</time>
   </trkpt>
   <trkpt lat="-3.1102200" lon="37.3508550">
    <ele>3979.0</ele>
    <time>2026-06-22T08:25:39Z</time>
   </trkpt>
   <trkpt lat="-3.1102230" lon="37.3508630">
    <ele>3978.8</ele>
    <time>2026-06-22T08:25:40Z</time>
   </trkpt>
   <trkpt lat="-3.1102320" lon="37.3508600">
    <ele>3978.6</ele>
    <time>2026-06-22T08:25:41Z</time>
   </trkpt>
   <trkpt lat="-3.1102330" lon="37.3508600">
    <ele>3978.6</ele>
    <time>2026-06-22T08:25:42Z</time>
   </trkpt>
   <trkpt lat="-3.1102400" lon="37.3508640">
    <ele>3978.4</ele>
    <time>2026-06-22T08:25:43Z</time>
   </trkpt>
   <trkpt lat="-3.1102460" lon="37.3508700">
    <ele>3978.2</ele>
    <time>2026-06-22T08:25:44Z</time>
   </trkpt>
   <trkpt lat="-3.1102470" lon="37.3508710">
    <ele>3978.2</ele>
    <time>2026-06-22T08:25:45Z</time>
   </trkpt>
   <trkpt lat="-3.1102500" lon="37.3508700">
    <ele>3978.1</ele>
    <time>2026-06-22T08:25:46Z</time>
   </trkpt>
   <trkpt lat="-3.1102540" lon="37.3508680">
    <ele>3978.0</ele>
    <time>2026-06-22T08:25:47Z</time>
   </trkpt>
   <trkpt lat="-3.1102580" lon="37.3508640">
    <ele>3977.9</ele>
    <time>2026-06-22T08:25:48Z</time>
   </trkpt>
   <trkpt lat="-3.1102620" lon="37.3508620">
    <ele>3977.8</ele>
    <time>2026-06-22T08:25:49Z</time>
   </trkpt>
   <trkpt lat="-3.1102680" lon="37.3508610">
    <ele>3977.7</ele>
    <time>2026-06-22T08:25:50Z</time>
   </trkpt>
   <trkpt lat="-3.1102780" lon="37.3508610">
    <ele>3977.5</ele>
    <time>2026-06-22T08:25:51Z</time>
   </trkpt>
   <trkpt lat="-3.1102820" lon="37.3508600">
    <ele>3977.4</ele>
    <time>2026-06-22T08:25:52Z</time>
   </trkpt>
   <trkpt lat="-3.1102880" lon="37.3508570">
    <ele>3977.3</ele>
    <time>2026-06-22T08:25:53Z</time>
   </trkpt>
   <trkpt lat="-3.1102920" lon="37.3508560">
    <ele>3977.2</ele>
    <time>2026-06-22T08:25:54Z</time>
   </trkpt>
   <trkpt lat="-3.1102950" lon="37.3508510">
    <ele>3977.1</ele>
    <time>2026-06-22T08:25:55Z</time>
   </trkpt>
   <trkpt lat="-3.1102890" lon="37.3508460">
    <ele>3976.9</ele>
    <time>2026-06-22T08:25:56Z</time>
   </trkpt>
   <trkpt lat="-3.1102920" lon="37.3508380">
    <ele>3976.7</ele>
    <time>2026-06-22T08:25:57Z</time>
   </trkpt>
   <trkpt lat="-3.1102970" lon="37.3508320">
    <ele>3976.5</ele>
    <time>2026-06-22T08:25:58Z</time>
   </trkpt>
   <trkpt lat="-3.1103070" lon="37.3508310">
    <ele>3976.3</ele>
    <time>2026-06-22T08:25:59Z</time>
   </trkpt>
   <trkpt lat="-3.1103120" lon="37.3508310">
    <ele>3976.2</ele>
    <time>2026-06-22T08:26:00Z</time>
   </trkpt>
   <trkpt lat="-3.1103180" lon="37.3508310">
    <ele>3976.1</ele>
    <time>2026-06-22T08:26:01Z</time>
   </trkpt>
   <trkpt lat="-3.1103250" lon="37.3508280">
    <ele>3975.9</ele>
    <time>2026-06-22T08:26:02Z</time>
   </trkpt>
   <trkpt lat="-3.1103280" lon="37.3508260">
    <ele>3975.9</ele>
    <time>2026-06-22T08:26:03Z</time>
   </trkpt>
   <trkpt lat="-3.1103300" lon="37.3508200">
    <ele>3975.7</ele>
    <time>2026-06-22T08:26:04Z</time>
   </trkpt>
   <trkpt lat="-3.1103330" lon="37.3508170">
    <ele>3975.6</ele>
    <time>2026-06-22T08:26:05Z</time>
   </trkpt>
   <trkpt lat="-3.1103320" lon="37.3508200">
    <ele>3975.6</ele>
    <time>2026-06-22T08:26:06Z</time>
   </trkpt>
   <trkpt lat="-3.1103320" lon="37.3508180">
    <ele>3975.5</ele>
    <time>2026-06-22T08:26:07Z</time>
   </trkpt>
   <trkpt lat="-3.1103310" lon="37.3508190">
    <ele>3975.5</ele>
    <time>2026-06-22T08:26:08Z</time>
   </trkpt>
   <trkpt lat="-3.1103330" lon="37.3508190">
    <ele>3975.5</ele>
    <time>2026-06-22T08:26:09Z</time>
   </trkpt>
   <trkpt lat="-3.1103330" lon="37.3508240">
    <ele>3975.4</ele>
    <time>2026-06-22T08:26:10Z</time>
   </trkpt>
   <trkpt lat="-3.1103310" lon="37.3508270">
    <ele>3975.3</ele>
    <time>2026-06-22T08:26:11Z</time>
   </trkpt>
   <trkpt lat="-3.1103300" lon="37.3508300">
    <ele>3975.2</ele>
    <time>2026-06-22T08:26:12Z</time>
   </trkpt>
   <trkpt lat="-3.1103310" lon="37.3508290">
    <ele>3975.2</ele>
    <time>2026-06-22T08:26:13Z</time>
   </trkpt>
   <trkpt lat="-3.1103300" lon="37.3508310">
    <ele>3975.1</ele>
    <time>2026-06-22T08:26:14Z</time>
   </trkpt>
   <trkpt lat="-3.1103330" lon="37.3508350">
    <ele>3975.0</ele>
    <time>2026-06-22T08:26:15Z</time>
   </trkpt>
   <trkpt lat="-3.1103360" lon="37.3508370">
    <ele>3975.0</ele>
    <time>2026-06-22T08:26:16Z</time>
   </trkpt>
   <trkpt lat="-3.1103420" lon="37.3508340">
    <ele>3974.8</ele>
    <time>2026-06-22T08:26:17Z</time>
   </trkpt>
   <trkpt lat="-3.1103510" lon="37.3508310">
    <ele>3974.6</ele>
    <time>2026-06-22T08:26:18Z</time>
   </trkpt>
   <trkpt lat="-3.1103610" lon="37.3508260">
    <ele>3974.4</ele>
    <time>2026-06-22T08:26:19Z</time>
   </trkpt>
   <trkpt lat="-3.1103610" lon="37.3508200">
    <ele>3974.3</ele>
    <time>2026-06-22T08:26:20Z</time>
   </trkpt>
   <trkpt lat="-3.1103610" lon="37.3508160">
    <ele>3974.2</ele>
    <time>2026-06-22T08:26:21Z</time>
   </trkpt>
   <trkpt lat="-3.1103660" lon="37.3508130">
    <ele>3974.0</ele>
    <time>2026-06-22T08:26:22Z</time>
   </trkpt>
   <trkpt lat="-3.1103810" lon="37.3508060">
    <ele>3973.7</ele>
    <time>2026-06-22T08:26:23Z</time>
   </trkpt>
   <trkpt lat="-3.1103820" lon="37.3508120">
    <ele>3973.6</ele>
    <time>2026-06-22T08:26:24Z</time>
   </trkpt>
   <trkpt lat="-3.1103840" lon="37.3508130">
    <ele>3973.5</ele>
    <time>2026-06-22T08:26:25Z</time>
   </trkpt>
   <trkpt lat="-3.1103960" lon="37.3508140">
    <ele>3973.3</ele>
    <time>2026-06-22T08:26:26Z</time>
   </trkpt>
   <trkpt lat="-3.1104010" lon="37.3508090">
    <ele>3973.1</ele>
    <time>2026-06-22T08:26:27Z</time>
   </trkpt>
   <trkpt lat="-3.1104090" lon="37.3508070">
    <ele>3973.0</ele>
    <time>2026-06-22T08:26:28Z</time>
   </trkpt>
   <trkpt lat="-3.1104150" lon="37.3508050">
    <ele>3972.8</ele>
    <time>2026-06-22T08:26:29Z</time>
   </trkpt>
   <trkpt lat="-3.1104230" lon="37.3508020">
    <ele>3972.6</ele>
    <time>2026-06-22T08:26:30Z</time>
   </trkpt>
   <trkpt lat="-3.1104240" lon="37.3507960">
    <ele>3972.5</ele>
    <time>2026-06-22T08:26:31Z</time>
   </trkpt>
   <trkpt lat="-3.1104250" lon="37.3507930">
    <ele>3972.4</ele>
    <time>2026-06-22T08:26:32Z</time>
   </trkpt>
   <trkpt lat="-3.1104290" lon="37.3507870">
    <ele>3972.3</ele>
    <time>2026-06-22T08:26:33Z</time>
   </trkpt>
   <trkpt lat="-3.1104300" lon="37.3507800">
    <ele>3972.1</ele>
    <time>2026-06-22T08:26:34Z</time>
   </trkpt>
   <trkpt lat="-3.1104300" lon="37.3507760">
    <ele>3972.1</ele>
    <time>2026-06-22T08:26:35Z</time>
   </trkpt>
   <trkpt lat="-3.1104310" lon="37.3507770">
    <ele>3972.0</ele>
    <time>2026-06-22T08:26:36Z</time>
   </trkpt>
   <trkpt lat="-3.1104330" lon="37.3507630">
    <ele>3971.7</ele>
    <time>2026-06-22T08:26:37Z</time>
   </trkpt>
   <trkpt lat="-3.1104320" lon="37.3507620">
    <ele>3971.7</ele>
    <time>2026-06-22T08:26:38Z</time>
   </trkpt>
   <trkpt lat="-3.1104300" lon="37.3507600">
    <ele>3971.6</ele>
    <time>2026-06-22T08:26:39Z</time>
   </trkpt>
   <trkpt lat="-3.1104340" lon="37.3507640">
    <ele>3971.5</ele>
    <time>2026-06-22T08:26:40Z</time>
   </trkpt>
   <trkpt lat="-3.1104390" lon="37.3507620">
    <ele>3971.4</ele>
    <time>2026-06-22T08:26:41Z</time>
   </trkpt>
   <trkpt lat="-3.1104430" lon="37.3507620">
    <ele>3971.3</ele>
    <time>2026-06-22T08:26:42Z</time>
   </trkpt>
   <trkpt lat="-3.1104450" lon="37.3507630">
    <ele>3971.3</ele>
    <time>2026-06-22T08:26:43Z</time>
   </trkpt>
   <trkpt lat="-3.1104520" lon="37.3507640">
    <ele>3971.1</ele>
    <time>2026-06-22T08:26:44Z</time>
   </trkpt>
   <trkpt lat="-3.1104530" lon="37.3507610">
    <ele>3971.1</ele>
    <time>2026-06-22T08:26:45Z</time>
   </trkpt>
   <trkpt lat="-3.1104570" lon="37.3507570">
    <ele>3970.9</ele>
    <time>2026-06-22T08:26:46Z</time>
   </trkpt>
   <trkpt lat="-3.1104590" lon="37.3507530">
    <ele>3970.9</ele>
    <time>2026-06-22T08:26:47Z</time>
   </trkpt>
   <trkpt lat="-3.1104620" lon="37.3507500">
    <ele>3970.8</ele>
    <time>2026-06-22T08:26:48Z</time>
   </trkpt>
   <trkpt lat="-3.1104680" lon="37.3507430">
    <ele>3970.6</ele>
    <time>2026-06-22T08:26:49Z</time>
   </trkpt>
   <trkpt lat="-3.1104630" lon="37.3507420">
    <ele>3970.5</ele>
    <time>2026-06-22T08:26:50Z</time>
   </trkpt>
   <trkpt lat="-3.1104630" lon="37.3507460">
    <ele>3970.4</ele>
    <time>2026-06-22T08:26:51Z</time>
   </trkpt>
   <trkpt lat="-3.1104630" lon="37.3507450">
    <ele>3970.4</ele>
    <time>2026-06-22T08:26:52Z</time>
   </trkpt>
   <trkpt lat="-3.1104640" lon="37.3507470">
    <ele>3970.3</ele>
    <time>2026-06-22T08:26:53Z</time>
   </trkpt>
   <trkpt lat="-3.1104640" lon="37.3507490">
    <ele>3970.3</ele>
    <time>2026-06-22T08:26:54Z</time>
   </trkpt>
   <trkpt lat="-3.1104650" lon="37.3507460">
    <ele>3970.2</ele>
    <time>2026-06-22T08:26:55Z</time>
   </trkpt>
   <trkpt lat="-3.1104680" lon="37.3507480">
    <ele>3970.1</ele>
    <time>2026-06-22T08:26:56Z</time>
   </trkpt>
   <trkpt lat="-3.1104690" lon="37.3507500">
    <ele>3970.1</ele>
    <time>2026-06-22T08:26:57Z</time>
   </trkpt>
   <trkpt lat="-3.1104700" lon="37.3507500">
    <ele>3970.1</ele>
    <time>2026-06-22T08:26:58Z</time>
   </trkpt>
   <trkpt lat="-3.1104750" lon="37.3507490">
    <ele>3969.9</ele>
    <time>2026-06-22T08:26:59Z</time>
   </trkpt>
   <trkpt lat="-3.1104760" lon="37.3507510">
    <ele>3969.9</ele>
    <time>2026-06-22T08:27:00Z</time>
   </trkpt>
   <trkpt lat="-3.1104830" lon="37.3507540">
    <ele>3969.7</ele>
    <time>2026-06-22T08:27:01Z</time>
   </trkpt>
   <trkpt lat="-3.1104940" lon="37.3507560">
    <ele>3969.5</ele>
    <time>2026-06-22T08:27:02Z</time>
   </trkpt>
   <trkpt lat="-3.1105030" lon="37.3507570">
    <ele>3969.3</ele>
    <time>2026-06-22T08:27:03Z</time>
   </trkpt>
   <trkpt lat="-3.1105120" lon="37.3507570">
    <ele>3969.1</ele>
    <time>2026-06-22T08:27:04Z</time>
   </trkpt>
   <trkpt lat="-3.1105120" lon="37.3507560">
    <ele>3969.1</ele>
    <time>2026-06-22T08:27:05Z</time>
   </trkpt>
   <trkpt lat="-3.1105120" lon="37.3507580">
    <ele>3969.0</ele>
    <time>2026-06-22T08:27:06Z</time>
   </trkpt>
   <trkpt lat="-3.1105150" lon="37.3507560">
    <ele>3969.0</ele>
    <time>2026-06-22T08:27:07Z</time>
   </trkpt>
   <trkpt lat="-3.1105170" lon="37.3507570">
    <ele>3968.9</ele>
    <time>2026-06-22T08:27:08Z</time>
   </trkpt>
   <trkpt lat="-3.1105210" lon="37.3507530">
    <ele>3968.8</ele>
    <time>2026-06-22T08:27:09Z</time>
   </trkpt>
   <trkpt lat="-3.1105240" lon="37.3507510">
    <ele>3968.7</ele>
    <time>2026-06-22T08:27:10Z</time>
   </trkpt>
   <trkpt lat="-3.1105290" lon="37.3507500">
    <ele>3968.6</ele>
    <time>2026-06-22T08:27:11Z</time>
   </trkpt>
   <trkpt lat="-3.1105310" lon="37.3507500">
    <ele>3968.6</ele>
    <time>2026-06-22T08:27:12Z</time>
   </trkpt>
   <trkpt lat="-3.1105390" lon="37.3507490">
    <ele>3968.4</ele>
    <time>2026-06-22T08:27:13Z</time>
   </trkpt>
   <trkpt lat="-3.1105350" lon="37.3507510">
    <ele>3968.3</ele>
    <time>2026-06-22T08:27:14Z</time>
   </trkpt>
   <trkpt lat="-3.1105420" lon="37.3507520">
    <ele>3968.2</ele>
    <time>2026-06-22T08:27:15Z</time>
   </trkpt>
   <trkpt lat="-3.1105480" lon="37.3507510">
    <ele>3968.0</ele>
    <time>2026-06-22T08:27:16Z</time>
   </trkpt>
   <trkpt lat="-3.1105510" lon="37.3507500">
    <ele>3968.0</ele>
    <time>2026-06-22T08:27:17Z</time>
   </trkpt>
   <trkpt lat="-3.1105530" lon="37.3507510">
    <ele>3967.9</ele>
    <time>2026-06-22T08:27:18Z</time>
   </trkpt>
   <trkpt lat="-3.1105560" lon="37.3507530">
    <ele>3967.8</ele>
    <time>2026-06-22T08:27:19Z</time>
   </trkpt>
   <trkpt lat="-3.1105590" lon="37.3507530">
    <ele>3967.8</ele>
    <time>2026-06-22T08:27:20Z</time>
   </trkpt>
   <trkpt lat="-3.1105610" lon="37.3507500">
    <ele>3967.7</ele>
    <time>2026-06-22T08:27:21Z</time>
   </trkpt>
   <trkpt lat="-3.1105650" lon="37.3507510">
    <ele>3967.6</ele>
    <time>2026-06-22T08:27:22Z</time>
   </trkpt>
   <trkpt lat="-3.1105680" lon="37.3507460">
    <ele>3967.5</ele>
    <time>2026-06-22T08:27:23Z</time>
   </trkpt>
   <trkpt lat="-3.1105720" lon="37.3507490">
    <ele>3967.4</ele>
    <time>2026-06-22T08:27:24Z</time>
   </trkpt>
   <trkpt lat="-3.1105770" lon="37.3507510">
    <ele>3967.3</ele>
    <time>2026-06-22T08:27:25Z</time>
   </trkpt>
   <trkpt lat="-3.1105820" lon="37.3507540">
    <ele>3967.1</ele>
    <time>2026-06-22T08:27:26Z</time>
   </trkpt>
   <trkpt lat="-3.1105900" lon="37.3507540">
    <ele>3967.0</ele>
    <time>2026-06-22T08:27:27Z</time>
   </trkpt>
   <trkpt lat="-3.1105920" lon="37.3507550">
    <ele>3966.9</ele>
    <time>2026-06-22T08:27:28Z</time>
   </trkpt>
   <trkpt lat="-3.1105890" lon="37.3507550">
    <ele>3966.9</ele>
    <time>2026-06-22T08:27:29Z</time>
   </trkpt>
   <trkpt lat="-3.1105910" lon="37.3507630">
    <ele>3966.7</ele>
    <time>2026-06-22T08:27:30Z</time>
   </trkpt>
   <trkpt lat="-3.1105920" lon="37.3507650">
    <ele>3966.6</ele>
    <time>2026-06-22T08:27:31Z</time>
   </trkpt>
   <trkpt lat="-3.1105930" lon="37.3507690">
    <ele>3966.6</ele>
    <time>2026-06-22T08:27:32Z</time>
   </trkpt>
   <trkpt lat="-3.1105900" lon="37.3507710">
    <ele>3966.5</ele>
    <time>2026-06-22T08:27:33Z</time>
   </trkpt>
   <trkpt lat="-3.1105910" lon="37.3507730">
    <ele>3966.4</ele>
    <time>2026-06-22T08:27:34Z</time>
   </trkpt>
   <trkpt lat="-3.1105900" lon="37.3507780">
    <ele>3966.3</ele>
    <time>2026-06-22T08:27:35Z</time>
   </trkpt>
   <trkpt lat="-3.1105930" lon="37.3507810">
    <ele>3966.2</ele>
    <time>2026-06-22T08:27:36Z</time>
   </trkpt>
   <trkpt lat="-3.1105940" lon="37.3507840">
    <ele>3966.2</ele>
    <time>2026-06-22T08:27:37Z</time>
   </trkpt>
   <trkpt lat="-3.1105960" lon="37.3507850">
    <ele>3966.1</ele>
    <time>2026-06-22T08:27:38Z</time>
   </trkpt>
   <trkpt lat="-3.1105970" lon="37.3507850">
    <ele>3966.1</ele>
    <time>2026-06-22T08:27:39Z</time>
   </trkpt>
   <trkpt lat="-3.1106040" lon="37.3507860">
    <ele>3965.9</ele>
    <time>2026-06-22T08:27:40Z</time>
   </trkpt>
   <trkpt lat="-3.1106060" lon="37.3507850">
    <ele>3965.9</ele>
    <time>2026-06-22T08:27:41Z</time>
   </trkpt>
   <trkpt lat="-3.1106120" lon="37.3507860">
    <ele>3965.8</ele>
    <time>2026-06-22T08:27:42Z</time>
   </trkpt>
   <trkpt lat="-3.1106220" lon="37.3507920">
    <ele>3965.5</ele>
    <time>2026-06-22T08:27:43Z</time>
   </trkpt>
   <trkpt lat="-3.1106250" lon="37.3507900">
    <ele>3965.4</ele>
    <time>2026-06-22T08:27:44Z</time>
   </trkpt>
   <trkpt lat="-3.1106250" lon="37.3507930">
    <ele>3965.4</ele>
    <time>2026-06-22T08:27:45Z</time>
   </trkpt>
   <trkpt lat="-3.1106280" lon="37.3507970">
    <ele>3965.3</ele>
    <time>2026-06-22T08:27:46Z</time>
   </trkpt>
   <trkpt lat="-3.1106300" lon="37.3508040">
    <ele>3965.1</ele>
    <time>2026-06-22T08:27:47Z</time>
   </trkpt>
   <trkpt lat="-3.1106270" lon="37.3508100">
    <ele>3965.0</ele>
    <time>2026-06-22T08:27:48Z</time>
   </trkpt>
   <trkpt lat="-3.1106230" lon="37.3508120">
    <ele>3964.9</ele>
    <time>2026-06-22T08:27:49Z</time>
   </trkpt>
   <trkpt lat="-3.1106190" lon="37.3508170">
    <ele>3964.7</ele>
    <time>2026-06-22T08:27:50Z</time>
   </trkpt>
   <trkpt lat="-3.1106120" lon="37.3508180">
    <ele>3964.6</ele>
    <time>2026-06-22T08:27:51Z</time>
   </trkpt>
   <trkpt lat="-3.1106050" lon="37.3508210">
    <ele>3964.4</ele>
    <time>2026-06-22T08:27:52Z</time>
   </trkpt>
   <trkpt lat="-3.1106000" lon="37.3508210">
    <ele>3964.3</ele>
    <time>2026-06-22T08:27:53Z</time>
   </trkpt>
   <trkpt lat="-3.1105950" lon="37.3508230">
    <ele>3964.2</ele>
    <time>2026-06-22T08:27:54Z</time>
   </trkpt>
   <trkpt lat="-3.1105930" lon="37.3508260">
    <ele>3964.1</ele>
    <time>2026-06-22T08:27:55Z</time>
   </trkpt>
   <trkpt lat="-3.1105880" lon="37.3508280">
    <ele>3964.0</ele>
    <time>2026-06-22T08:27:56Z</time>
   </trkpt>
   <trkpt lat="-3.1105830" lon="37.3508360">
    <ele>3963.8</ele>
    <time>2026-06-22T08:27:57Z</time>
   </trkpt>
   <trkpt lat="-3.1105800" lon="37.3508440">
    <ele>3963.6</ele>
    <time>2026-06-22T08:27:58Z</time>
   </trkpt>
   <trkpt lat="-3.1105770" lon="37.3508500">
    <ele>3963.5</ele>
    <time>2026-06-22T08:27:59Z</time>
   </trkpt>
   <trkpt lat="-3.1105720" lon="37.3508560">
    <ele>3963.3</ele>
    <time>2026-06-22T08:28:00Z</time>
   </trkpt>
   <trkpt lat="-3.1105710" lon="37.3508600">
    <ele>3963.2</ele>
    <time>2026-06-22T08:28:01Z</time>
   </trkpt>
   <trkpt lat="-3.1105690" lon="37.3508700">
    <ele>3963.0</ele>
    <time>2026-06-22T08:28:02Z</time>
   </trkpt>
   <trkpt lat="-3.1105670" lon="37.3508780">
    <ele>3962.9</ele>
    <time>2026-06-22T08:28:03Z</time>
   </trkpt>
   <trkpt lat="-3.1105610" lon="37.3508920">
    <ele>3962.5</ele>
    <time>2026-06-22T08:28:04Z</time>
   </trkpt>
   <trkpt lat="-3.1105580" lon="37.3508830">
    <ele>3962.3</ele>
    <time>2026-06-22T08:28:05Z</time>
   </trkpt>
   <trkpt lat="-3.1105550" lon="37.3508870">
    <ele>3962.2</ele>
    <time>2026-06-22T08:28:06Z</time>
   </trkpt>
   <trkpt lat="-3.1105580" lon="37.3508950">
    <ele>3962.0</ele>
    <time>2026-06-22T08:28:07Z</time>
   </trkpt>
   <trkpt lat="-3.1105600" lon="37.3508980">
    <ele>3962.0</ele>
    <time>2026-06-22T08:28:08Z</time>
   </trkpt>
   <trkpt lat="-3.1105610" lon="37.3508980">
    <ele>3961.9</ele>
    <time>2026-06-22T08:28:09Z</time>
   </trkpt>
   <trkpt lat="-3.1105650" lon="37.3508990">
    <ele>3961.9</ele>
    <time>2026-06-22T08:28:10Z</time>
   </trkpt>
   <trkpt lat="-3.1105580" lon="37.3509020">
    <ele>3961.7</ele>
    <time>2026-06-22T08:28:11Z</time>
   </trkpt>
   <trkpt lat="-3.1105670" lon="37.3509020">
    <ele>3961.5</ele>
    <time>2026-06-22T08:28:12Z</time>
   </trkpt>
   <trkpt lat="-3.1105700" lon="37.3508990">
    <ele>3961.4</ele>
    <time>2026-06-22T08:28:13Z</time>
   </trkpt>
   <trkpt lat="-3.1105740" lon="37.3508980">
    <ele>3961.3</ele>
    <time>2026-06-22T08:28:14Z</time>
   </trkpt>
   <trkpt lat="-3.1105770" lon="37.3508940">
    <ele>3961.2</ele>
    <time>2026-06-22T08:28:15Z</time>
   </trkpt>
   <trkpt lat="-3.1105860" lon="37.3508920">
    <ele>3961.0</ele>
    <time>2026-06-22T08:28:16Z</time>
   </trkpt>
   <trkpt lat="-3.1105940" lon="37.3508930">
    <ele>3960.9</ele>
    <time>2026-06-22T08:28:17Z</time>
   </trkpt>
   <trkpt lat="-3.1105990" lon="37.3508960">
    <ele>3960.8</ele>
    <time>2026-06-22T08:28:18Z</time>
   </trkpt>
   <trkpt lat="-3.1106070" lon="37.3509000">
    <ele>3960.6</ele>
    <time>2026-06-22T08:28:19Z</time>
   </trkpt>
   <trkpt lat="-3.1106150" lon="37.3509000">
    <ele>3960.4</ele>
    <time>2026-06-22T08:28:20Z</time>
   </trkpt>
   <trkpt lat="-3.1106200" lon="37.3509010">
    <ele>3960.3</ele>
    <time>2026-06-22T08:28:21Z</time>
   </trkpt>
   <trkpt lat="-3.1106300" lon="37.3509000">
    <ele>3960.1</ele>
    <time>2026-06-22T08:28:22Z</time>
   </trkpt>
   <trkpt lat="-3.1106380" lon="37.3508950">
    <ele>3959.9</ele>
    <time>2026-06-22T08:28:23Z</time>
   </trkpt>
   <trkpt lat="-3.1106310" lon="37.3509030">
    <ele>3959.7</ele>
    <time>2026-06-22T08:28:24Z</time>
   </trkpt>
   <trkpt lat="-3.1106370" lon="37.3509070">
    <ele>3959.6</ele>
    <time>2026-06-22T08:28:25Z</time>
   </trkpt>
   <trkpt lat="-3.1106340" lon="37.3509050">
    <ele>3959.5</ele>
    <time>2026-06-22T08:28:26Z</time>
   </trkpt>
   <trkpt lat="-3.1106330" lon="37.3509120">
    <ele>3959.4</ele>
    <time>2026-06-22T08:28:27Z</time>
   </trkpt>
   <trkpt lat="-3.1106320" lon="37.3509170">
    <ele>3959.3</ele>
    <time>2026-06-22T08:28:28Z</time>
   </trkpt>
   <trkpt lat="-3.1106310" lon="37.3509220">
    <ele>3959.2</ele>
    <time>2026-06-22T08:28:29Z</time>
   </trkpt>
   <trkpt lat="-3.1106270" lon="37.3509250">
    <ele>3959.1</ele>
    <time>2026-06-22T08:28:30Z</time>
   </trkpt>
   <trkpt lat="-3.1106210" lon="37.3509320">
    <ele>3958.9</ele>
    <time>2026-06-22T08:28:31Z</time>
   </trkpt>
   <trkpt lat="-3.1106200" lon="37.3509350">
    <ele>3958.8</ele>
    <time>2026-06-22T08:28:32Z</time>
   </trkpt>
   <trkpt lat="-3.1106180" lon="37.3509350">
    <ele>3958.8</ele>
    <time>2026-06-22T08:28:33Z</time>
   </trkpt>
   <trkpt lat="-3.1106190" lon="37.3509400">
    <ele>3958.7</ele>
    <time>2026-06-22T08:28:34Z</time>
   </trkpt>
   <trkpt lat="-3.1106150" lon="37.3509490">
    <ele>3958.5</ele>
    <time>2026-06-22T08:28:35Z</time>
   </trkpt>
   <trkpt lat="-3.1106160" lon="37.3509510">
    <ele>3958.5</ele>
    <time>2026-06-22T08:28:36Z</time>
   </trkpt>
   <trkpt lat="-3.1106170" lon="37.3509580">
    <ele>3958.3</ele>
    <time>2026-06-22T08:28:37Z</time>
   </trkpt>
   <trkpt lat="-3.1106180" lon="37.3509580">
    <ele>3958.3</ele>
    <time>2026-06-22T08:28:38Z</time>
   </trkpt>
   <trkpt lat="-3.1106210" lon="37.3509600">
    <ele>3958.2</ele>
    <time>2026-06-22T08:28:39Z</time>
   </trkpt>
   <trkpt lat="-3.1106250" lon="37.3509550">
    <ele>3958.1</ele>
    <time>2026-06-22T08:28:40Z</time>
   </trkpt>
   <trkpt lat="-3.1106310" lon="37.3509560">
    <ele>3958.0</ele>
    <time>2026-06-22T08:28:41Z</time>
   </trkpt>
   <trkpt lat="-3.1106330" lon="37.3509600">
    <ele>3957.9</ele>
    <time>2026-06-22T08:28:42Z</time>
   </trkpt>
   <trkpt lat="-3.1106350" lon="37.3509570">
    <ele>3957.9</ele>
    <time>2026-06-22T08:28:43Z</time>
   </trkpt>
   <trkpt lat="-3.1106380" lon="37.3509660">
    <ele>3957.7</ele>
    <time>2026-06-22T08:28:44Z</time>
   </trkpt>
   <trkpt lat="-3.1106430" lon="37.3509740">
    <ele>3957.5</ele>
    <time>2026-06-22T08:28:45Z</time>
   </trkpt>
   <trkpt lat="-3.1106410" lon="37.3509750">
    <ele>3957.5</ele>
    <time>2026-06-22T08:28:46Z</time>
   </trkpt>
   <trkpt lat="-3.1106430" lon="37.3509830">
    <ele>3957.3</ele>
    <time>2026-06-22T08:28:47Z</time>
   </trkpt>
   <trkpt lat="-3.1106400" lon="37.3509800">
    <ele>3957.3</ele>
    <time>2026-06-22T08:28:48Z</time>
   </trkpt>
   <trkpt lat="-3.1106460" lon="37.3509880">
    <ele>3957.1</ele>
    <time>2026-06-22T08:28:49Z</time>
   </trkpt>
   <trkpt lat="-3.1106540" lon="37.3509930">
    <ele>3956.9</ele>
    <time>2026-06-22T08:28:50Z</time>
   </trkpt>
   <trkpt lat="-3.1106570" lon="37.3509960">
    <ele>3956.8</ele>
    <time>2026-06-22T08:28:51Z</time>
   </trkpt>
   <trkpt lat="-3.1106590" lon="37.3509980">
    <ele>3956.8</ele>
    <time>2026-06-22T08:28:52Z</time>
   </trkpt>
   <trkpt lat="-3.1106630" lon="37.3509980">
    <ele>3956.7</ele>
    <time>2026-06-22T08:28:53Z</time>
   </trkpt>
   <trkpt lat="-3.1106650" lon="37.3510020">
    <ele>3956.6</ele>
    <time>2026-06-22T08:28:54Z</time>
   </trkpt>
   <trkpt lat="-3.1106680" lon="37.3510020">
    <ele>3956.6</ele>
    <time>2026-06-22T08:28:55Z</time>
   </trkpt>
   <trkpt lat="-3.1106710" lon="37.3510060">
    <ele>3956.5</ele>
    <time>2026-06-22T08:28:56Z</time>
   </trkpt>
   <trkpt lat="-3.1106690" lon="37.3510070">
    <ele>3956.5</ele>
    <time>2026-06-22T08:28:57Z</time>
   </trkpt>
   <trkpt lat="-3.1106710" lon="37.3510100">
    <ele>3956.4</ele>
    <time>2026-06-22T08:28:58Z</time>
   </trkpt>
   <trkpt lat="-3.1106710" lon="37.3510070">
    <ele>3956.3</ele>
    <time>2026-06-22T08:28:59Z</time>
   </trkpt>
   <trkpt lat="-3.1106710" lon="37.3510160">
    <ele>3956.2</ele>
    <time>2026-06-22T08:29:00Z</time>
   </trkpt>
   <trkpt lat="-3.1106680" lon="37.3510160">
    <ele>3956.1</ele>
    <time>2026-06-22T08:29:01Z</time>
   </trkpt>
   <trkpt lat="-3.1106670" lon="37.3510180">
    <ele>3956.1</ele>
    <time>2026-06-22T08:29:02Z</time>
   </trkpt>
   <trkpt lat="-3.1106710" lon="37.3510140">
    <ele>3956.0</ele>
    <time>2026-06-22T08:29:03Z</time>
   </trkpt>
   <trkpt lat="-3.1106830" lon="37.3510220">
    <ele>3955.8</ele>
    <time>2026-06-22T08:29:04Z</time>
   </trkpt>
   <trkpt lat="-3.1106960" lon="37.3510230">
    <ele>3955.5</ele>
    <time>2026-06-22T08:29:05Z</time>
   </trkpt>
   <trkpt lat="-3.1106950" lon="37.3510260">
    <ele>3955.5</ele>
    <time>2026-06-22T08:29:06Z</time>
   </trkpt>
   <trkpt lat="-3.1107010" lon="37.3510330">
    <ele>3955.3</ele>
    <time>2026-06-22T08:29:07Z</time>
   </trkpt>
   <trkpt lat="-3.1107010" lon="37.3510410">
    <ele>3955.2</ele>
    <time>2026-06-22T08:29:08Z</time>
   </trkpt>
   <trkpt lat="-3.1107040" lon="37.3510510">
    <ele>3955.1</ele>
    <time>2026-06-22T08:29:09Z</time>
   </trkpt>
   <trkpt lat="-3.1107020" lon="37.3510520">
    <ele>3955.0</ele>
    <time>2026-06-22T08:29:10Z</time>
   </trkpt>
   <trkpt lat="-3.1106980" lon="37.3510570">
    <ele>3954.9</ele>
    <time>2026-06-22T08:29:11Z</time>
   </trkpt>
   <trkpt lat="-3.1106960" lon="37.3510610">
    <ele>3954.8</ele>
    <time>2026-06-22T08:29:12Z</time>
   </trkpt>
   <trkpt lat="-3.1106950" lon="37.3510630">
    <ele>3954.8</ele>
    <time>2026-06-22T08:29:13Z</time>
   </trkpt>
   <trkpt lat="-3.1106930" lon="37.3510640">
    <ele>3954.8</ele>
    <time>2026-06-22T08:29:14Z</time>
   </trkpt>
   <trkpt lat="-3.1106900" lon="37.3510680">
    <ele>3954.7</ele>
    <time>2026-06-22T08:29:15Z</time>
   </trkpt>
   <trkpt lat="-3.1106980" lon="37.3510690">
    <ele>3954.6</ele>
    <time>2026-06-22T08:29:16Z</time>
   </trkpt>
   <trkpt lat="-3.1106990" lon="37.3510780">
    <ele>3954.4</ele>
    <time>2026-06-22T08:29:17Z</time>
   </trkpt>
   <trkpt lat="-3.1106950" lon="37.3510830">
    <ele>3954.3</ele>
    <time>2026-06-22T08:29:18Z</time>
   </trkpt>
   <trkpt lat="-3.1106950" lon="37.3510850">
    <ele>3954.3</ele>
    <time>2026-06-22T08:29:19Z</time>
   </trkpt>
   <trkpt lat="-3.1106950" lon="37.3510840">
    <ele>3954.3</ele>
    <time>2026-06-22T08:29:20Z</time>
   </trkpt>
   <trkpt lat="-3.1106930" lon="37.3510820">
    <ele>3954.2</ele>
    <time>2026-06-22T08:29:21Z</time>
   </trkpt>
   <trkpt lat="-3.1106930" lon="37.3510810">
    <ele>3954.2</ele>
    <time>2026-06-22T08:29:22Z</time>
   </trkpt>
   <trkpt lat="-3.1106930" lon="37.3510800">
    <ele>3954.2</ele>
    <time>2026-06-22T08:29:23Z</time>
   </trkpt>
   <trkpt lat="-3.1106900" lon="37.3510810">
    <ele>3954.2</ele>
    <time>2026-06-22T08:29:24Z</time>
   </trkpt>
   <trkpt lat="-3.1106890" lon="37.3510820">
    <ele>3954.1</ele>
    <time>2026-06-22T08:29:25Z</time>
   </trkpt>
   <trkpt lat="-3.1106860" lon="37.3510830">
    <ele>3954.1</ele>
    <time>2026-06-22T08:29:26Z</time>
   </trkpt>
   <trkpt lat="-3.1106840" lon="37.3510920">
    <ele>3953.9</ele>
    <time>2026-06-22T08:29:27Z</time>
   </trkpt>
   <trkpt lat="-3.1106830" lon="37.3510980">
    <ele>3953.8</ele>
    <time>2026-06-22T08:29:28Z</time>
   </trkpt>
   <trkpt lat="-3.1106820" lon="37.3511010">
    <ele>3953.8</ele>
    <time>2026-06-22T08:29:29Z</time>
   </trkpt>
   <trkpt lat="-3.1106840" lon="37.3511090">
    <ele>3953.7</ele>
    <time>2026-06-22T08:29:30Z</time>
   </trkpt>
   <trkpt lat="-3.1106920" lon="37.3511200">
    <ele>3953.5</ele>
    <time>2026-06-22T08:29:31Z</time>
   </trkpt>
   <trkpt lat="-3.1106930" lon="37.3511270">
    <ele>3953.3</ele>
    <time>2026-06-22T08:29:32Z</time>
   </trkpt>
   <trkpt lat="-3.1106970" lon="37.3511310">
    <ele>3953.3</ele>
    <time>2026-06-22T08:29:33Z</time>
   </trkpt>
   <trkpt lat="-3.1106980" lon="37.3511350">
    <ele>3953.2</ele>
    <time>2026-06-22T08:29:34Z</time>
   </trkpt>
   <trkpt lat="-3.1107020" lon="37.3511370">
    <ele>3953.1</ele>
    <time>2026-06-22T08:29:35Z</time>
   </trkpt>
   <trkpt lat="-3.1107050" lon="37.3511440">
    <ele>3953.0</ele>
    <time>2026-06-22T08:29:36Z</time>
   </trkpt>
   <trkpt lat="-3.1107090" lon="37.3511460">
    <ele>3952.9</ele>
    <time>2026-06-22T08:29:37Z</time>
   </trkpt>
   <trkpt lat="-3.1107090" lon="37.3511450">
    <ele>3952.9</ele>
    <time>2026-06-22T08:29:38Z</time>
   </trkpt>
   <trkpt lat="-3.1107090" lon="37.3511430">
    <ele>3952.9</ele>
    <time>2026-06-22T08:29:39Z</time>
   </trkpt>
   <trkpt lat="-3.1107120" lon="37.3511420">
    <ele>3952.8</ele>
    <time>2026-06-22T08:29:40Z</time>
   </trkpt>
   <trkpt lat="-3.1107120" lon="37.3511420">
    <ele>3952.8</ele>
    <time>2026-06-22T08:29:41Z</time>
   </trkpt>
   <trkpt lat="-3.1107120" lon="37.3511410">
    <ele>3952.8</ele>
    <time>2026-06-22T08:29:42Z</time>
   </trkpt>
   <trkpt lat="-3.1107120" lon="37.3511410">
    <ele>3952.8</ele>
    <time>2026-06-22T08:29:43Z</time>
   </trkpt>
   <trkpt lat="-3.1107130" lon="37.3511410">
    <ele>3952.8</ele>
    <time>2026-06-22T08:29:44Z</time>
   </trkpt>
   <trkpt lat="-3.1107130" lon="37.3511400">
    <ele>3952.8</ele>
    <time>2026-06-22T08:29:45Z</time>
   </trkpt>
   <trkpt lat="-3.1107130" lon="37.3511400">
    <ele>3952.8</ele>
    <time>2026-06-22T08:29:46Z</time>
   </trkpt>
   <trkpt lat="-3.1107130" lon="37.3511410">
    <ele>3952.8</ele>
    <time>2026-06-22T08:29:47Z</time>
   </trkpt>
   <trkpt lat="-3.1107140" lon="37.3511400">
    <ele>3952.8</ele>
    <time>2026-06-22T08:29:48Z</time>
   </trkpt>
   <trkpt lat="-3.1107170" lon="37.3511360">
    <ele>3952.7</ele>
    <time>2026-06-22T08:29:49Z</time>
   </trkpt>
   <trkpt lat="-3.1107170" lon="37.3511360">
    <ele>3952.7</ele>
    <time>2026-06-22T08:29:50Z</time>
   </trkpt>
   <trkpt lat="-3.1107150" lon="37.3511360">
    <ele>3952.7</ele>
    <time>2026-06-22T08:29:51Z</time>
   </trkpt>
   <trkpt lat="-3.1107160" lon="37.3511370">
    <ele>3952.6</ele>
    <time>2026-06-22T08:29:52Z</time>
   </trkpt>
   <trkpt lat="-3.1107170" lon="37.3511380">
    <ele>3952.6</ele>
    <time>2026-06-22T08:29:53Z</time>
   </trkpt>
   <trkpt lat="-3.1107170" lon="37.3511380">
    <ele>3952.6</ele>
    <time>2026-06-22T08:29:54Z</time>
   </trkpt>
   <trkpt lat="-3.1107180" lon="37.3511380">
    <ele>3952.6</ele>
    <time>2026-06-22T08:29:55Z</time>
   </trkpt>
   <trkpt lat="-3.1107180" lon="37.3511380">
    <ele>3952.6</ele>
    <time>2026-06-22T08:29:56Z</time>
   </trkpt>
   <trkpt lat="-3.1107170" lon="37.3511380">
    <ele>3952.6</ele>
    <time>2026-06-22T08:29:57Z</time>
   </trkpt>
   <trkpt lat="-3.1107170" lon="37.3511380">
    <ele>3952.6</ele>
    <time>2026-06-22T08:29:58Z</time>
   </trkpt>
   <trkpt lat="-3.1107170" lon="37.3511350">
    <ele>3952.5</ele>
    <time>2026-06-22T08:29:59Z</time>
   </trkpt>
   <trkpt lat="-3.1107170" lon="37.3511350">
    <ele>3952.5</ele>
    <time>2026-06-22T08:30:00Z</time>
   </trkpt>
   <trkpt lat="-3.1107170" lon="37.3511350">
    <ele>3952.5</ele>
    <time>2026-06-22T08:30:01Z</time>
   </trkpt>
   <trkpt lat="-3.1107180" lon="37.3511360">
    <ele>3952.5</ele>
    <time>2026-06-22T08:30:02Z</time>
   </trkpt>
   <trkpt lat="-3.1107180" lon="37.3511350">
    <ele>3952.5</ele>
    <time>2026-06-22T08:30:03Z</time>
   </trkpt>
   <trkpt lat="-3.1107170" lon="37.3511340">
    <ele>3952.5</ele>
    <time>2026-06-22T08:30:04Z</time>
   </trkpt>
   <trkpt lat="-3.1107180" lon="37.3511350">
    <ele>3952.5</ele>
    <time>2026-06-22T08:30:05Z</time>
   </trkpt>
   <trkpt lat="-3.1107200" lon="37.3511360">
    <ele>3952.4</ele>
    <time>2026-06-22T08:30:06Z</time>
   </trkpt>
   <trkpt lat="-3.1107250" lon="37.3511370">
    <ele>3952.4</ele>
    <time>2026-06-22T08:30:07Z</time>
   </trkpt>
   <trkpt lat="-3.1107230" lon="37.3511380">
    <ele>3952.3</ele>
    <time>2026-06-22T08:30:08Z</time>
   </trkpt>
   <trkpt lat="-3.1107250" lon="37.3511430">
    <ele>3952.2</ele>
    <time>2026-06-22T08:30:09Z</time>
   </trkpt>
   <trkpt lat="-3.1107330" lon="37.3511520">
    <ele>3952.1</ele>
    <time>2026-06-22T08:30:10Z</time>
   </trkpt>
   <trkpt lat="-3.1107360" lon="37.3511520">
    <ele>3952.0</ele>
    <time>2026-06-22T08:30:11Z</time>
   </trkpt>
   <trkpt lat="-3.1107380" lon="37.3511560">
    <ele>3952.0</ele>
    <time>2026-06-22T08:30:12Z</time>
   </trkpt>
   <trkpt lat="-3.1107330" lon="37.3511560">
    <ele>3951.9</ele>
    <time>2026-06-22T08:30:13Z</time>
   </trkpt>
   <trkpt lat="-3.1107300" lon="37.3511560">
    <ele>3951.8</ele>
    <time>2026-06-22T08:30:14Z</time>
   </trkpt>
   <trkpt lat="-3.1107250" lon="37.3511570">
    <ele>3951.8</ele>
    <time>2026-06-22T08:30:15Z</time>
   </trkpt>
   <trkpt lat="-3.1107220" lon="37.3511620">
    <ele>3951.7</ele>
    <time>2026-06-22T08:30:16Z</time>
   </trkpt>
   <trkpt lat="-3.1107210" lon="37.3511650">
    <ele>3951.6</ele>
    <time>2026-06-22T08:30:17Z</time>
   </trkpt>
   <trkpt lat="-3.1107220" lon="37.3511730">
    <ele>3951.5</ele>
    <time>2026-06-22T08:30:18Z</time>
   </trkpt>
   <trkpt lat="-3.1107250" lon="37.3511690">
    <ele>3951.4</ele>
    <time>2026-06-22T08:30:19Z</time>
   </trkpt>
   <trkpt lat="-3.1107250" lon="37.3511710">
    <ele>3951.4</ele>
    <time>2026-06-22T08:30:20Z</time>
   </trkpt>
   <trkpt lat="-3.1107300" lon="37.3511730">
    <ele>3951.3</ele>
    <time>2026-06-22T08:30:21Z</time>
   </trkpt>
   <trkpt lat="-3.1107360" lon="37.3511770">
    <ele>3951.2</ele>
    <time>2026-06-22T08:30:22Z</time>
   </trkpt>
   <trkpt lat="-3.1107390" lon="37.3511840">
    <ele>3951.1</ele>
    <time>2026-06-22T08:30:23Z</time>
   </trkpt>
   <trkpt lat="-3.1107430" lon="37.3511870">
    <ele>3951.0</ele>
    <time>2026-06-22T08:30:24Z</time>
   </trkpt>
   <trkpt lat="-3.1107410" lon="37.3511960">
    <ele>3950.9</ele>
    <time>2026-06-22T08:30:25Z</time>
   </trkpt>
   <trkpt lat="-3.1107350" lon="37.3512030">
    <ele>3950.8</ele>
    <time>2026-06-22T08:30:26Z</time>
   </trkpt>
   <trkpt lat="-3.1107370" lon="37.3512030">
    <ele>3950.7</ele>
    <time>2026-06-22T08:30:27Z</time>
   </trkpt>
   <trkpt lat="-3.1107380" lon="37.3512050">
    <ele>3950.7</ele>
    <time>2026-06-22T08:30:28Z</time>
   </trkpt>
   <trkpt lat="-3.1107410" lon="37.3512090">
    <ele>3950.6</ele>
    <time>2026-06-22T08:30:29Z</time>
   </trkpt>
   <trkpt lat="-3.1107420" lon="37.3512180">
    <ele>3950.5</ele>
    <time>2026-06-22T08:30:30Z</time>
   </trkpt>
   <trkpt lat="-3.1107420" lon="37.3512270">
    <ele>3950.4</ele>
    <time>2026-06-22T08:30:31Z</time>
   </trkpt>
   <trkpt lat="-3.1107420" lon="37.3512310">
    <ele>3950.3</ele>
    <time>2026-06-22T08:30:32Z</time>
   </trkpt>
   <trkpt lat="-3.1107460" lon="37.3512340">
    <ele>3950.2</ele>
    <time>2026-06-22T08:30:33Z</time>
   </trkpt>
   <trkpt lat="-3.1107520" lon="37.3512430">
    <ele>3950.1</ele>
    <time>2026-06-22T08:30:34Z</time>
   </trkpt>
   <trkpt lat="-3.1107550" lon="37.3512460">
    <ele>3950.0</ele>
    <time>2026-06-22T08:30:35Z</time>
   </trkpt>
   <trkpt lat="-3.1107580" lon="37.3512510">
    <ele>3949.9</ele>
    <time>2026-06-22T08:30:36Z</time>
   </trkpt>
   <trkpt lat="-3.1107620" lon="37.3512510">
    <ele>3949.9</ele>
    <time>2026-06-22T08:30:37Z</time>
   </trkpt>
   <trkpt lat="-3.1107690" lon="37.3512530">
    <ele>3949.8</ele>
    <time>2026-06-22T08:30:38Z</time>
   </trkpt>
   <trkpt lat="-3.1107750" lon="37.3512530">
    <ele>3949.7</ele>
    <time>2026-06-22T08:30:39Z</time>
   </trkpt>
   <trkpt lat="-3.1107750" lon="37.3512560">
    <ele>3949.6</ele>
    <time>2026-06-22T08:30:40Z</time>
   </trkpt>
   <trkpt lat="-3.1107780" lon="37.3512620">
    <ele>3949.5</ele>
    <time>2026-06-22T08:30:41Z</time>
   </trkpt>
   <trkpt lat="-3.1107780" lon="37.3512700">
    <ele>3949.4</ele>
    <time>2026-06-22T08:30:42Z</time>
   </trkpt>
   <trkpt lat="-3.1107780" lon="37.3512750">
    <ele>3949.3</ele>
    <time>2026-06-22T08:30:43Z</time>
   </trkpt>
   <trkpt lat="-3.1107770" lon="37.3512780">
    <ele>3949.3</ele>
    <time>2026-06-22T08:30:44Z</time>
   </trkpt>
   <trkpt lat="-3.1107750" lon="37.3512820">
    <ele>3949.2</ele>
    <time>2026-06-22T08:30:45Z</time>
   </trkpt>
   <trkpt lat="-3.1107750" lon="37.3512860">
    <ele>3949.2</ele>
    <time>2026-06-22T08:30:46Z</time>
   </trkpt>
   <trkpt lat="-3.1107740" lon="37.3512870">
    <ele>3949.1</ele>
    <time>2026-06-22T08:30:47Z</time>
   </trkpt>
   <trkpt lat="-3.1107750" lon="37.3512880">
    <ele>3949.1</ele>
    <time>2026-06-22T08:30:48Z</time>
   </trkpt>
   <trkpt lat="-3.1107750" lon="37.3512880">
    <ele>3949.1</ele>
    <time>2026-06-22T08:30:49Z</time>
   </trkpt>
   <trkpt lat="-3.1107750" lon="37.3512860">
    <ele>3949.1</ele>
    <time>2026-06-22T08:30:50Z</time>
   </trkpt>
   <trkpt lat="-3.1107750" lon="37.3512860">
    <ele>3949.1</ele>
    <time>2026-06-22T08:30:51Z</time>
   </trkpt>
   <trkpt lat="-3.1107740" lon="37.3512850">
    <ele>3949.1</ele>
    <time>2026-06-22T08:30:52Z</time>
   </trkpt>
   <trkpt lat="-3.1107740" lon="37.3512850">
    <ele>3949.1</ele>
    <time>2026-06-22T08:30:53Z</time>
   </trkpt>
   <trkpt lat="-3.1107750" lon="37.3512860">
    <ele>3949.0</ele>
    <time>2026-06-22T08:30:54Z</time>
   </trkpt>
   <trkpt lat="-3.1107750" lon="37.3512860">
    <ele>3949.0</ele>
    <time>2026-06-22T08:30:55Z</time>
   </trkpt>
   <trkpt lat="-3.1107770" lon="37.3512880">
    <ele>3949.0</ele>
    <time>2026-06-22T08:30:56Z</time>
   </trkpt>
   <trkpt lat="-3.1107780" lon="37.3512870">
    <ele>3949.0</ele>
    <time>2026-06-22T08:30:57Z</time>
   </trkpt>
   <trkpt lat="-3.1107780" lon="37.3512870">
    <ele>3949.0</ele>
    <time>2026-06-22T08:30:58Z</time>
   </trkpt>
   <trkpt lat="-3.1107780" lon="37.3512880">
    <ele>3949.0</ele>
    <time>2026-06-22T08:30:59Z</time>
   </trkpt>
   <trkpt lat="-3.1107780" lon="37.3512880">
    <ele>3949.0</ele>
    <time>2026-06-22T08:31:00Z</time>
   </trkpt>
   <trkpt lat="-3.1107790" lon="37.3512860">
    <ele>3948.9</ele>
    <time>2026-06-22T08:31:01Z</time>
   </trkpt>
   <trkpt lat="-3.1107790" lon="37.3512860">
    <ele>3948.9</ele>
    <time>2026-06-22T08:31:02Z</time>
   </trkpt>
   <trkpt lat="-3.1107790" lon="37.3512840">
    <ele>3948.9</ele>
    <time>2026-06-22T08:31:03Z</time>
   </trkpt>
   <trkpt lat="-3.1107780" lon="37.3512840">
    <ele>3948.9</ele>
    <time>2026-06-22T08:31:04Z</time>
   </trkpt>
   <trkpt lat="-3.1107780" lon="37.3512850">
    <ele>3948.9</ele>
    <time>2026-06-22T08:31:05Z</time>
   </trkpt>
   <trkpt lat="-3.1107770" lon="37.3512860">
    <ele>3948.8</ele>
    <time>2026-06-22T08:31:06Z</time>
   </trkpt>
   <trkpt lat="-3.1107780" lon="37.3512850">
    <ele>3948.8</ele>
    <time>2026-06-22T08:31:07Z</time>
   </trkpt>
   <trkpt lat="-3.1107790" lon="37.3512850">
    <ele>3948.8</ele>
    <time>2026-06-22T08:31:08Z</time>
   </trkpt>
   <trkpt lat="-3.1107790" lon="37.3512840">
    <ele>3948.8</ele>
    <time>2026-06-22T08:31:09Z</time>
   </trkpt>
   <trkpt lat="-3.1107800" lon="37.3512830">
    <ele>3948.8</ele>
    <time>2026-06-22T08:31:10Z</time>
   </trkpt>
   <trkpt lat="-3.1107800" lon="37.3512830">
    <ele>3948.8</ele>
    <time>2026-06-22T08:31:11Z</time>
   </trkpt>
   <trkpt lat="-3.1107810" lon="37.3512820">
    <ele>3948.7</ele>
    <time>2026-06-22T08:31:12Z</time>
   </trkpt>
   <trkpt lat="-3.1107810" lon="37.3512820">
    <ele>3948.7</ele>
    <time>2026-06-22T08:31:13Z</time>
   </trkpt>
   <trkpt lat="-3.1107800" lon="37.3512820">
    <ele>3948.7</ele>
    <time>2026-06-22T08:31:14Z</time>
   </trkpt>
   <trkpt lat="-3.1107800" lon="37.3512820">
    <ele>3948.7</ele>
    <time>2026-06-22T08:31:15Z</time>
   </trkpt>
   <trkpt lat="-3.1107780" lon="37.3512820">
    <ele>3948.7</ele>
    <time>2026-06-22T08:31:16Z</time>
   </trkpt>
   <trkpt lat="-3.1107780" lon="37.3512820">
    <ele>3948.7</ele>
    <time>2026-06-22T08:31:17Z</time>
   </trkpt>
   <trkpt lat="-3.1107780" lon="37.3512820">
    <ele>3948.7</ele>
    <time>2026-06-22T08:31:18Z</time>
   </trkpt>
   <trkpt lat="-3.1107790" lon="37.3512820">
    <ele>3948.7</ele>
    <time>2026-06-22T08:31:19Z</time>
   </trkpt>
   <trkpt lat="-3.1107790" lon="37.3512810">
    <ele>3948.7</ele>
    <time>2026-06-22T08:31:20Z</time>
   </trkpt>
   <trkpt lat="-3.1107790" lon="37.3512810">
    <ele>3948.7</ele>
    <time>2026-06-22T08:31:21Z</time>
   </trkpt>
   <trkpt lat="-3.1107780" lon="37.3512820">
    <ele>3948.6</ele>
    <time>2026-06-22T08:31:22Z</time>
   </trkpt>
   <trkpt lat="-3.1107780" lon="37.3512810">
    <ele>3948.6</ele>
    <time>2026-06-22T08:31:23Z</time>
   </trkpt>
   <trkpt lat="-3.1107790" lon="37.3512820">
    <ele>3948.6</ele>
    <time>2026-06-22T08:31:24Z</time>
   </trkpt>
   <trkpt lat="-3.1107790" lon="37.3512810">
    <ele>3948.6</ele>
    <time>2026-06-22T08:31:25Z</time>
   </trkpt>
   <trkpt lat="-3.1107790" lon="37.3512810">
    <ele>3948.6</ele>
    <time>2026-06-22T08:31:26Z</time>
   </trkpt>
   <trkpt lat="-3.1107800" lon="37.3512810">
    <ele>3948.6</ele>
    <time>2026-06-22T08:31:27Z</time>
   </trkpt>
   <trkpt lat="-3.1107810" lon="37.3512810">
    <ele>3948.5</ele>
    <time>2026-06-22T08:31:28Z</time>
   </trkpt>
   <trkpt lat="-3.1107820" lon="37.3512810">
    <ele>3948.5</ele>
    <time>2026-06-22T08:31:29Z</time>
   </trkpt>
   <trkpt lat="-3.1107820" lon="37.3512810">
    <ele>3948.5</ele>
    <time>2026-06-22T08:31:30Z</time>
   </trkpt>
   <trkpt lat="-3.1107820" lon="37.3512810">
    <ele>3948.5</ele>
    <time>2026-06-22T08:31:31Z</time>
   </trkpt>
   <trkpt lat="-3.1107830" lon="37.3512820">
    <ele>3948.5</ele>
    <time>2026-06-22T08:31:32Z</time>
   </trkpt>
   <trkpt lat="-3.1107830" lon="37.3512830">
    <ele>3948.5</ele>
    <time>2026-06-22T08:31:33Z</time>
   </trkpt>
   <trkpt lat="-3.1107820" lon="37.3512820">
    <ele>3948.5</ele>
    <time>2026-06-22T08:31:34Z</time>
   </trkpt>
   <trkpt lat="-3.1107820" lon="37.3512820">
    <ele>3948.5</ele>
    <time>2026-06-22T08:31:35Z</time>
   </trkpt>
   <trkpt lat="-3.1107820" lon="37.3512810">
    <ele>3948.5</ele>
    <time>2026-06-22T08:31:36Z</time>
   </trkpt>
   <trkpt lat="-3.1107810" lon="37.3512810">
    <ele>3948.4</ele>
    <time>2026-06-22T08:31:37Z</time>
   </trkpt>
   <trkpt lat="-3.1107810" lon="37.3512810">
    <ele>3948.4</ele>
    <time>2026-06-22T08:31:38Z</time>
   </trkpt>
   <trkpt lat="-3.1107800" lon="37.3512830">
    <ele>3948.4</ele>
    <time>2026-06-22T08:31:39Z</time>
   </trkpt>
   <trkpt lat="-3.1107800" lon="37.3512830">
    <ele>3948.4</ele>
    <time>2026-06-22T08:31:40Z</time>
   </trkpt>
   <trkpt lat="-3.1107800" lon="37.3512830">
    <ele>3948.4</ele>
    <time>2026-06-22T08:31:41Z</time>
   </trkpt>
   <trkpt lat="-3.1107790" lon="37.3512830">
    <ele>3948.4</ele>
    <time>2026-06-22T08:31:42Z</time>
   </trkpt>
   <trkpt lat="-3.1107810" lon="37.3512820">
    <ele>3948.4</ele>
    <time>2026-06-22T08:31:43Z</time>
   </trkpt>
   <trkpt lat="-3.1107810" lon="37.3512820">
    <ele>3948.4</ele>
    <time>2026-06-22T08:31:44Z</time>
   </trkpt>
   <trkpt lat="-3.1107810" lon="37.3512820">
    <ele>3948.4</ele>
    <time>2026-06-22T08:31:45Z</time>
   </trkpt>
   <trkpt lat="-3.1107810" lon="37.3512820">
    <ele>3948.4</ele>
    <time>2026-06-22T08:31:46Z</time>
   </trkpt>
   <trkpt lat="-3.1107810" lon="37.3512810">
    <ele>3948.3</ele>
    <time>2026-06-22T08:31:47Z</time>
   </trkpt>
   <trkpt lat="-3.1107810" lon="37.3512810">
    <ele>3948.3</ele>
    <time>2026-06-22T08:31:48Z</time>
   </trkpt>
   <trkpt lat="-3.1107810" lon="37.3512810">
    <ele>3948.3</ele>
    <time>2026-06-22T08:31:49Z</time>
   </trkpt>
   <trkpt lat="-3.1107800" lon="37.3512800">
    <ele>3948.3</ele>
    <time>2026-06-22T08:31:50Z</time>
   </trkpt>
   <trkpt lat="-3.1107800" lon="37.3512810">
    <ele>3948.3</ele>
    <time>2026-06-22T08:31:51Z</time>
   </trkpt>
   <trkpt lat="-3.1107810" lon="37.3512810">
    <ele>3948.3</ele>
    <time>2026-06-22T08:31:52Z</time>
   </trkpt>
   <trkpt lat="-3.1107810" lon="37.3512810">
    <ele>3948.3</ele>
    <time>2026-06-22T08:31:53Z</time>
   </trkpt>
   <trkpt lat="-3.1107810" lon="37.3512810">
    <ele>3948.3</ele>
    <time>2026-06-22T08:31:54Z</time>
   </trkpt>
   <trkpt lat="-3.1107800" lon="37.3512810">
    <ele>3948.3</ele>
    <time>2026-06-22T08:31:55Z</time>
   </trkpt>
   <trkpt lat="-3.1107800" lon="37.3512810">
    <ele>3948.3</ele>
    <time>2026-06-22T08:31:56Z</time>
   </trkpt>
   <trkpt lat="-3.1107800" lon="37.3512810">
    <ele>3948.3</ele>
    <time>2026-06-22T08:31:57Z</time>
   </trkpt>
   <trkpt lat="-3.1107800" lon="37.3512810">
    <ele>3948.3</ele>
    <time>2026-06-22T08:31:58Z</time>
   </trkpt>
   <trkpt lat="-3.1107800" lon="37.3512810">
    <ele>3948.3</ele>
    <time>2026-06-22T08:31:59Z</time>
   </trkpt>
   <trkpt lat="-3.1107790" lon="37.3512810">
    <ele>3948.3</ele>
    <time>2026-06-22T08:32:00Z</time>
   </trkpt>
   <trkpt lat="-3.1107770" lon="37.3512810">
    <ele>3948.2</ele>
    <time>2026-06-22T08:32:01Z</time>
   </trkpt>
   <trkpt lat="-3.1107770" lon="37.3512810">
    <ele>3948.2</ele>
    <time>2026-06-22T08:32:02Z</time>
   </trkpt>
   <trkpt lat="-3.1107770" lon="37.3512810">
    <ele>3948.2</ele>
    <time>2026-06-22T08:32:03Z</time>
   </trkpt>
   <trkpt lat="-3.1107770" lon="37.3512810">
    <ele>3948.2</ele>
    <time>2026-06-22T08:32:04Z</time>
   </trkpt>
   <trkpt lat="-3.1107770" lon="37.3512790">
    <ele>3948.2</ele>
    <time>2026-06-22T08:32:05Z</time>
   </trkpt>
   <trkpt lat="-3.1107780" lon="37.3512800">
    <ele>3948.2</ele>
    <time>2026-06-22T08:32:06Z</time>
   </trkpt>
   <trkpt lat="-3.1107760" lon="37.3512790">
    <ele>3948.1</ele>
    <time>2026-06-22T08:32:07Z</time>
   </trkpt>
   <trkpt lat="-3.1107780" lon="37.3512800">
    <ele>3948.1</ele>
    <time>2026-06-22T08:32:08Z</time>
   </trkpt>
   <trkpt lat="-3.1107820" lon="37.3512800">
    <ele>3948.0</ele>
    <time>2026-06-22T08:32:09Z</time>
   </trkpt>
   <trkpt lat="-3.1107860" lon="37.3512820">
    <ele>3948.0</ele>
    <time>2026-06-22T08:32:10Z</time>
   </trkpt>
   <trkpt lat="-3.1107920" lon="37.3512850">
    <ele>3947.9</ele>
    <time>2026-06-22T08:32:11Z</time>
   </trkpt>
   <trkpt lat="-3.1107920" lon="37.3512890">
    <ele>3947.8</ele>
    <time>2026-06-22T08:32:12Z</time>
   </trkpt>
   <trkpt lat="-3.1107950" lon="37.3512890">
    <ele>3947.7</ele>
    <time>2026-06-22T08:32:13Z</time>
   </trkpt>
   <trkpt lat="-3.1107900" lon="37.3512880">
    <ele>3947.6</ele>
    <time>2026-06-22T08:32:14Z</time>
   </trkpt>
   <trkpt lat="-3.1107930" lon="37.3512900">
    <ele>3947.6</ele>
    <time>2026-06-22T08:32:15Z</time>
   </trkpt>
   <trkpt lat="-3.1107930" lon="37.3512970">
    <ele>3947.5</ele>
    <time>2026-06-22T08:32:16Z</time>
   </trkpt>
   <trkpt lat="-3.1107940" lon="37.3512980">
    <ele>3947.4</ele>
    <time>2026-06-22T08:32:17Z</time>
   </trkpt>
   <trkpt lat="-3.1107950" lon="37.3513040">
    <ele>3947.3</ele>
    <time>2026-06-22T08:32:18Z</time>
   </trkpt>
   <trkpt lat="-3.1107980" lon="37.3513060">
    <ele>3947.3</ele>
    <time>2026-06-22T08:32:19Z</time>
   </trkpt>
   <trkpt lat="-3.1108000" lon="37.3513060">
    <ele>3947.2</ele>
    <time>2026-06-22T08:32:20Z</time>
   </trkpt>
   <trkpt lat="-3.1108050" lon="37.3513070">
    <ele>3947.1</ele>
    <time>2026-06-22T08:32:21Z</time>
   </trkpt>
   <trkpt lat="-3.1108070" lon="37.3513080">
    <ele>3947.1</ele>
    <time>2026-06-22T08:32:22Z</time>
   </trkpt>
   <trkpt lat="-3.1108090" lon="37.3513070">
    <ele>3947.1</ele>
    <time>2026-06-22T08:32:23Z</time>
   </trkpt>
   <trkpt lat="-3.1108110" lon="37.3513040">
    <ele>3947.0</ele>
    <time>2026-06-22T08:32:24Z</time>
   </trkpt>
   <trkpt lat="-3.1108170" lon="37.3513020">
    <ele>3946.9</ele>
    <time>2026-06-22T08:32:25Z</time>
   </trkpt>
   <trkpt lat="-3.1108150" lon="37.3513050">
    <ele>3946.8</ele>
    <time>2026-06-22T08:32:26Z</time>
   </trkpt>
   <trkpt lat="-3.1108110" lon="37.3513140">
    <ele>3946.7</ele>
    <time>2026-06-22T08:32:27Z</time>
   </trkpt>
   <trkpt lat="-3.1108090" lon="37.3513240">
    <ele>3946.5</ele>
    <time>2026-06-22T08:32:28Z</time>
   </trkpt>
   <trkpt lat="-3.1108100" lon="37.3513210">
    <ele>3946.4</ele>
    <time>2026-06-22T08:32:29Z</time>
   </trkpt>
   <trkpt lat="-3.1108090" lon="37.3513330">
    <ele>3946.2</ele>
    <time>2026-06-22T08:32:30Z</time>
   </trkpt>
   <trkpt lat="-3.1108100" lon="37.3513330">
    <ele>3946.2</ele>
    <time>2026-06-22T08:32:31Z</time>
   </trkpt>
   <trkpt lat="-3.1108130" lon="37.3513380">
    <ele>3946.1</ele>
    <time>2026-06-22T08:32:32Z</time>
   </trkpt>
   <trkpt lat="-3.1108140" lon="37.3513440">
    <ele>3946.0</ele>
    <time>2026-06-22T08:32:33Z</time>
   </trkpt>
   <trkpt lat="-3.1108130" lon="37.3513480">
    <ele>3945.9</ele>
    <time>2026-06-22T08:32:34Z</time>
   </trkpt>
   <trkpt lat="-3.1108120" lon="37.3513530">
    <ele>3945.8</ele>
    <time>2026-06-22T08:32:35Z</time>
   </trkpt>
   <trkpt lat="-3.1108120" lon="37.3513550">
    <ele>3945.7</ele>
    <time>2026-06-22T08:32:36Z</time>
   </trkpt>
   <trkpt lat="-3.1108140" lon="37.3513600">
    <ele>3945.6</ele>
    <time>2026-06-22T08:32:37Z</time>
   </trkpt>
   <trkpt lat="-3.1108150" lon="37.3513660">
    <ele>3945.5</ele>
    <time>2026-06-22T08:32:38Z</time>
   </trkpt>
   <trkpt lat="-3.1108200" lon="37.3513680">
    <ele>3945.4</ele>
    <time>2026-06-22T08:32:39Z</time>
   </trkpt>
   <trkpt lat="-3.1108220" lon="37.3513680">
    <ele>3945.4</ele>
    <time>2026-06-22T08:32:40Z</time>
   </trkpt>
   <trkpt lat="-3.1108250" lon="37.3513710">
    <ele>3945.3</ele>
    <time>2026-06-22T08:32:41Z</time>
   </trkpt>
   <trkpt lat="-3.1108300" lon="37.3513750">
    <ele>3945.2</ele>
    <time>2026-06-22T08:32:42Z</time>
   </trkpt>
   <trkpt lat="-3.1108320" lon="37.3513760">
    <ele>3945.2</ele>
    <time>2026-06-22T08:32:43Z</time>
   </trkpt>
   <trkpt lat="-3.1108370" lon="37.3513810">
    <ele>3945.0</ele>
    <time>2026-06-22T08:32:44Z</time>
   </trkpt>
   <trkpt lat="-3.1108400" lon="37.3513850">
    <ele>3944.9</ele>
    <time>2026-06-22T08:32:45Z</time>
   </trkpt>
   <trkpt lat="-3.1108390" lon="37.3513900">
    <ele>3944.8</ele>
    <time>2026-06-22T08:32:46Z</time>
   </trkpt>
   <trkpt lat="-3.1108370" lon="37.3514010">
    <ele>3944.6</ele>
    <time>2026-06-22T08:32:47Z</time>
   </trkpt>
   <trkpt lat="-3.1108460" lon="37.3514060">
    <ele>3944.4</ele>
    <time>2026-06-22T08:32:48Z</time>
   </trkpt>
   <trkpt lat="-3.1108510" lon="37.3514050">
    <ele>3944.3</ele>
    <time>2026-06-22T08:32:49Z</time>
   </trkpt>
   <trkpt lat="-3.1108520" lon="37.3513990">
    <ele>3944.2</ele>
    <time>2026-06-22T08:32:50Z</time>
   </trkpt>
   <trkpt lat="-3.1108580" lon="37.3513960">
    <ele>3944.1</ele>
    <time>2026-06-22T08:32:51Z</time>
   </trkpt>
   <trkpt lat="-3.1108590" lon="37.3513900">
    <ele>3943.9</ele>
    <time>2026-06-22T08:32:52Z</time>
   </trkpt>
   <trkpt lat="-3.1108650" lon="37.3513950">
    <ele>3943.8</ele>
    <time>2026-06-22T08:32:53Z</time>
   </trkpt>
   <trkpt lat="-3.1108670" lon="37.3513950">
    <ele>3943.7</ele>
    <time>2026-06-22T08:32:54Z</time>
   </trkpt>
   <trkpt lat="-3.1108670" lon="37.3513990">
    <ele>3943.7</ele>
    <time>2026-06-22T08:32:55Z</time>
   </trkpt>
   <trkpt lat="-3.1108680" lon="37.3514050">
    <ele>3943.5</ele>
    <time>2026-06-22T08:32:56Z</time>
   </trkpt>
   <trkpt lat="-3.1108770" lon="37.3514030">
    <ele>3943.4</ele>
    <time>2026-06-22T08:32:57Z</time>
   </trkpt>
   <trkpt lat="-3.1108840" lon="37.3513990">
    <ele>3943.2</ele>
    <time>2026-06-22T08:32:58Z</time>
   </trkpt>
   <trkpt lat="-3.1108830" lon="37.3513930">
    <ele>3943.1</ele>
    <time>2026-06-22T08:32:59Z</time>
   </trkpt>
   <trkpt lat="-3.1108860" lon="37.3513910">
    <ele>3943.0</ele>
    <time>2026-06-22T08:33:00Z</time>
   </trkpt>
   <trkpt lat="-3.1108890" lon="37.3513910">
    <ele>3942.9</ele>
    <time>2026-06-22T08:33:01Z</time>
   </trkpt>
   <trkpt lat="-3.1108920" lon="37.3513950">
    <ele>3942.9</ele>
    <time>2026-06-22T08:33:02Z</time>
   </trkpt>
   <trkpt lat="-3.1108970" lon="37.3514000">
    <ele>3942.7</ele>
    <time>2026-06-22T08:33:03Z</time>
   </trkpt>
   <trkpt lat="-3.1109010" lon="37.3514020">
    <ele>3942.6</ele>
    <time>2026-06-22T08:33:04Z</time>
   </trkpt>
   <trkpt lat="-3.1109010" lon="37.3514070">
    <ele>3942.5</ele>
    <time>2026-06-22T08:33:05Z</time>
   </trkpt>
   <trkpt lat="-3.1109030" lon="37.3514110">
    <ele>3942.4</ele>
    <time>2026-06-22T08:33:06Z</time>
   </trkpt>
   <trkpt lat="-3.1109020" lon="37.3514170">
    <ele>3942.3</ele>
    <time>2026-06-22T08:33:07Z</time>
   </trkpt>
   <trkpt lat="-3.1109020" lon="37.3514210">
    <ele>3942.2</ele>
    <time>2026-06-22T08:33:08Z</time>
   </trkpt>
   <trkpt lat="-3.1109060" lon="37.3514240">
    <ele>3942.1</ele>
    <time>2026-06-22T08:33:09Z</time>
   </trkpt>
   <trkpt lat="-3.1109100" lon="37.3514230">
    <ele>3942.1</ele>
    <time>2026-06-22T08:33:10Z</time>
   </trkpt>
   <trkpt lat="-3.1109270" lon="37.3514280">
    <ele>3941.7</ele>
    <time>2026-06-22T08:33:11Z</time>
   </trkpt>
   <trkpt lat="-3.1109330" lon="37.3514340">
    <ele>3941.5</ele>
    <time>2026-06-22T08:33:12Z</time>
   </trkpt>
   <trkpt lat="-3.1109370" lon="37.3514340">
    <ele>3941.5</ele>
    <time>2026-06-22T08:33:13Z</time>
   </trkpt>
   <trkpt lat="-3.1109370" lon="37.3514320">
    <ele>3941.4</ele>
    <time>2026-06-22T08:33:14Z</time>
   </trkpt>
   <trkpt lat="-3.1109390" lon="37.3514330">
    <ele>3941.4</ele>
    <time>2026-06-22T08:33:15Z</time>
   </trkpt>
   <trkpt lat="-3.1109390" lon="37.3514370">
    <ele>3941.3</ele>
    <time>2026-06-22T08:33:16Z</time>
   </trkpt>
   <trkpt lat="-3.1109410" lon="37.3514440">
    <ele>3941.2</ele>
    <time>2026-06-22T08:33:17Z</time>
   </trkpt>
   <trkpt lat="-3.1109440" lon="37.3514510">
    <ele>3941.0</ele>
    <time>2026-06-22T08:33:18Z</time>
   </trkpt>
   <trkpt lat="-3.1109470" lon="37.3514580">
    <ele>3940.8</ele>
    <time>2026-06-22T08:33:19Z</time>
   </trkpt>
   <trkpt lat="-3.1109500" lon="37.3514610">
    <ele>3940.8</ele>
    <time>2026-06-22T08:33:20Z</time>
   </trkpt>
   <trkpt lat="-3.1109510" lon="37.3514580">
    <ele>3940.7</ele>
    <time>2026-06-22T08:33:21Z</time>
   </trkpt>
   <trkpt lat="-3.1109520" lon="37.3514550">
    <ele>3940.6</ele>
    <time>2026-06-22T08:33:22Z</time>
   </trkpt>
   <trkpt lat="-3.1109580" lon="37.3514540">
    <ele>3940.5</ele>
    <time>2026-06-22T08:33:23Z</time>
   </trkpt>
   <trkpt lat="-3.1109620" lon="37.3514510">
    <ele>3940.4</ele>
    <time>2026-06-22T08:33:24Z</time>
   </trkpt>
   <trkpt lat="-3.1109650" lon="37.3514580">
    <ele>3940.3</ele>
    <time>2026-06-22T08:33:25Z</time>
   </trkpt>
   <trkpt lat="-3.1109720" lon="37.3514620">
    <ele>3940.1</ele>
    <time>2026-06-22T08:33:26Z</time>
   </trkpt>
   <trkpt lat="-3.1109780" lon="37.3514660">
    <ele>3940.0</ele>
    <time>2026-06-22T08:33:27Z</time>
   </trkpt>
   <trkpt lat="-3.1109820" lon="37.3514690">
    <ele>3939.9</ele>
    <time>2026-06-22T08:33:28Z</time>
   </trkpt>
   <trkpt lat="-3.1109820" lon="37.3514690">
    <ele>3939.9</ele>
    <time>2026-06-22T08:33:29Z</time>
   </trkpt>
   <trkpt lat="-3.1109820" lon="37.3514670">
    <ele>3939.8</ele>
    <time>2026-06-22T08:33:30Z</time>
   </trkpt>
   <trkpt lat="-3.1109860" lon="37.3514670">
    <ele>3939.8</ele>
    <time>2026-06-22T08:33:31Z</time>
   </trkpt>
   <trkpt lat="-3.1109900" lon="37.3514650">
    <ele>3939.7</ele>
    <time>2026-06-22T08:33:32Z</time>
   </trkpt>
   <trkpt lat="-3.1109940" lon="37.3514620">
    <ele>3939.6</ele>
    <time>2026-06-22T08:33:33Z</time>
   </trkpt>
   <trkpt lat="-3.1109990" lon="37.3514620">
    <ele>3939.5</ele>
    <time>2026-06-22T08:33:34Z</time>
   </trkpt>
   <trkpt lat="-3.1110030" lon="37.3514600">
    <ele>3939.4</ele>
    <time>2026-06-22T08:33:35Z</time>
   </trkpt>
   <trkpt lat="-3.1110110" lon="37.3514570">
    <ele>3939.3</ele>
    <time>2026-06-22T08:33:36Z</time>
   </trkpt>
   <trkpt lat="-3.1110210" lon="37.3514590">
    <ele>3939.1</ele>
    <time>2026-06-22T08:33:37Z</time>
   </trkpt>
   <trkpt lat="-3.1110260" lon="37.3514660">
    <ele>3938.9</ele>
    <time>2026-06-22T08:33:38Z</time>
   </trkpt>
   <trkpt lat="-3.1110250" lon="37.3514730">
    <ele>3938.8</ele>
    <time>2026-06-22T08:33:39Z</time>
   </trkpt>
   <trkpt lat="-3.1110220" lon="37.3514830">
    <ele>3938.6</ele>
    <time>2026-06-22T08:33:40Z</time>
   </trkpt>
   <trkpt lat="-3.1110210" lon="37.3514900">
    <ele>3938.5</ele>
    <time>2026-06-22T08:33:41Z</time>
   </trkpt>
   <trkpt lat="-3.1110220" lon="37.3514900">
    <ele>3938.4</ele>
    <time>2026-06-22T08:33:42Z</time>
   </trkpt>
   <trkpt lat="-3.1110290" lon="37.3514940">
    <ele>3938.3</ele>
    <time>2026-06-22T08:33:43Z</time>
   </trkpt>
   <trkpt lat="-3.1110390" lon="37.3514970">
    <ele>3938.1</ele>
    <time>2026-06-22T08:33:44Z</time>
   </trkpt>
   <trkpt lat="-3.1110440" lon="37.3515010">
    <ele>3938.0</ele>
    <time>2026-06-22T08:33:45Z</time>
   </trkpt>
   <trkpt lat="-3.1110480" lon="37.3515060">
    <ele>3937.9</ele>
    <time>2026-06-22T08:33:46Z</time>
   </trkpt>
   <trkpt lat="-3.1110460" lon="37.3515090">
    <ele>3937.8</ele>
    <time>2026-06-22T08:33:47Z</time>
   </trkpt>
   <trkpt lat="-3.1110550" lon="37.3515080">
    <ele>3937.7</ele>
    <time>2026-06-22T08:33:48Z</time>
   </trkpt>
   <trkpt lat="-3.1110660" lon="37.3515090">
    <ele>3937.5</ele>
    <time>2026-06-22T08:33:49Z</time>
   </trkpt>
   <trkpt lat="-3.1110780" lon="37.3515130">
    <ele>3937.3</ele>
    <time>2026-06-22T08:33:50Z</time>
   </trkpt>
   <trkpt lat="-3.1110810" lon="37.3515170">
    <ele>3937.2</ele>
    <time>2026-06-22T08:33:51Z</time>
   </trkpt>
   <trkpt lat="-3.1110790" lon="37.3515210">
    <ele>3937.2</ele>
    <time>2026-06-22T08:33:52Z</time>
   </trkpt>
   <trkpt lat="-3.1110750" lon="37.3515240">
    <ele>3937.1</ele>
    <time>2026-06-22T08:33:53Z</time>
   </trkpt>
   <trkpt lat="-3.1110750" lon="37.3515320">
    <ele>3936.9</ele>
    <time>2026-06-22T08:33:54Z</time>
   </trkpt>
   <trkpt lat="-3.1110670" lon="37.3515320">
    <ele>3936.8</ele>
    <time>2026-06-22T08:33:55Z</time>
   </trkpt>
   <trkpt lat="-3.1110610" lon="37.3515370">
    <ele>3936.7</ele>
    <time>2026-06-22T08:33:56Z</time>
   </trkpt>
   <trkpt lat="-3.1110580" lon="37.3515350">
    <ele>3936.6</ele>
    <time>2026-06-22T08:33:57Z</time>
   </trkpt>
   <trkpt lat="-3.1110590" lon="37.3515410">
    <ele>3936.6</ele>
    <time>2026-06-22T08:33:58Z</time>
   </trkpt>
   <trkpt lat="-3.1110650" lon="37.3515460">
    <ele>3936.4</ele>
    <time>2026-06-22T08:33:59Z</time>
   </trkpt>
   <trkpt lat="-3.1110710" lon="37.3515480">
    <ele>3936.3</ele>
    <time>2026-06-22T08:34:00Z</time>
   </trkpt>
   <trkpt lat="-3.1110770" lon="37.3515490">
    <ele>3936.3</ele>
    <time>2026-06-22T08:34:01Z</time>
   </trkpt>
   <trkpt lat="-3.1110880" lon="37.3515590">
    <ele>3936.0</ele>
    <time>2026-06-22T08:34:02Z</time>
   </trkpt>
   <trkpt lat="-3.1110900" lon="37.3515610">
    <ele>3936.0</ele>
    <time>2026-06-22T08:34:03Z</time>
   </trkpt>
   <trkpt lat="-3.1110860" lon="37.3515600">
    <ele>3935.9</ele>
    <time>2026-06-22T08:34:04Z</time>
   </trkpt>
   <trkpt lat="-3.1110730" lon="37.3515730">
    <ele>3935.7</ele>
    <time>2026-06-22T08:34:05Z</time>
   </trkpt>
   <trkpt lat="-3.1110660" lon="37.3515840">
    <ele>3935.5</ele>
    <time>2026-06-22T08:34:06Z</time>
   </trkpt>
   <trkpt lat="-3.1110620" lon="37.3515830">
    <ele>3935.4</ele>
    <time>2026-06-22T08:34:07Z</time>
   </trkpt>
   <trkpt lat="-3.1110570" lon="37.3515740">
    <ele>3935.3</ele>
    <time>2026-06-22T08:34:08Z</time>
   </trkpt>
   <trkpt lat="-3.1110500" lon="37.3515630">
    <ele>3935.1</ele>
    <time>2026-06-22T08:34:09Z</time>
   </trkpt>
   <trkpt lat="-3.1110520" lon="37.3515630">
    <ele>3935.1</ele>
    <time>2026-06-22T08:34:10Z</time>
   </trkpt>
   <trkpt lat="-3.1110550" lon="37.3515650">
    <ele>3935.1</ele>
    <time>2026-06-22T08:34:11Z</time>
   </trkpt>
   <trkpt lat="-3.1110520" lon="37.3515650">
    <ele>3935.0</ele>
    <time>2026-06-22T08:34:12Z</time>
   </trkpt>
   <trkpt lat="-3.1110500" lon="37.3515670">
    <ele>3935.0</ele>
    <time>2026-06-22T08:34:13Z</time>
   </trkpt>
   <trkpt lat="-3.1110500" lon="37.3515670">
    <ele>3935.0</ele>
    <time>2026-06-22T08:34:14Z</time>
   </trkpt>
   <trkpt lat="-3.1110500" lon="37.3515680">
    <ele>3935.0</ele>
    <time>2026-06-22T08:34:15Z</time>
   </trkpt>
   <trkpt lat="-3.1110490" lon="37.3515700">
    <ele>3935.0</ele>
    <time>2026-06-22T08:34:16Z</time>
   </trkpt>
   <trkpt lat="-3.1110510" lon="37.3515720">
    <ele>3934.9</ele>
    <time>2026-06-22T08:34:17Z</time>
   </trkpt>
   <trkpt lat="-3.1110520" lon="37.3515740">
    <ele>3934.9</ele>
    <time>2026-06-22T08:34:18Z</time>
   </trkpt>
   <trkpt lat="-3.1110520" lon="37.3515740">
    <ele>3934.9</ele>
    <time>2026-06-22T08:34:19Z</time>
   </trkpt>
   <trkpt lat="-3.1110540" lon="37.3515740">
    <ele>3934.9</ele>
    <time>2026-06-22T08:34:20Z</time>
   </trkpt>
   <trkpt lat="-3.1110530" lon="37.3515740">
    <ele>3934.9</ele>
    <time>2026-06-22T08:34:21Z</time>
   </trkpt>
   <trkpt lat="-3.1110520" lon="37.3515730">
    <ele>3934.8</ele>
    <time>2026-06-22T08:34:22Z</time>
   </trkpt>
   <trkpt lat="-3.1110520" lon="37.3515730">
    <ele>3934.8</ele>
    <time>2026-06-22T08:34:23Z</time>
   </trkpt>
   <trkpt lat="-3.1110520" lon="37.3515740">
    <ele>3934.8</ele>
    <time>2026-06-22T08:34:24Z</time>
   </trkpt>
   <trkpt lat="-3.1110520" lon="37.3515740">
    <ele>3934.8</ele>
    <time>2026-06-22T08:34:25Z</time>
   </trkpt>
   <trkpt lat="-3.1110540" lon="37.3515760">
    <ele>3934.8</ele>
    <time>2026-06-22T08:34:26Z</time>
   </trkpt>
   <trkpt lat="-3.1110540" lon="37.3515760">
    <ele>3934.8</ele>
    <time>2026-06-22T08:34:27Z</time>
   </trkpt>
   <trkpt lat="-3.1110550" lon="37.3515770">
    <ele>3934.8</ele>
    <time>2026-06-22T08:34:28Z</time>
   </trkpt>
   <trkpt lat="-3.1110580" lon="37.3515800">
    <ele>3934.7</ele>
    <time>2026-06-22T08:34:29Z</time>
   </trkpt>
   <trkpt lat="-3.1110630" lon="37.3515820">
    <ele>3934.7</ele>
    <time>2026-06-22T08:34:30Z</time>
   </trkpt>
   <trkpt lat="-3.1110680" lon="37.3515830">
    <ele>3934.6</ele>
    <time>2026-06-22T08:34:31Z</time>
   </trkpt>
   <trkpt lat="-3.1110720" lon="37.3515850">
    <ele>3934.5</ele>
    <time>2026-06-22T08:34:32Z</time>
   </trkpt>
   <trkpt lat="-3.1110780" lon="37.3515880">
    <ele>3934.5</ele>
    <time>2026-06-22T08:34:33Z</time>
   </trkpt>
   <trkpt lat="-3.1110780" lon="37.3515890">
    <ele>3934.5</ele>
    <time>2026-06-22T08:34:34Z</time>
   </trkpt>
   <trkpt lat="-3.1110790" lon="37.3515910">
    <ele>3934.4</ele>
    <time>2026-06-22T08:34:35Z</time>
   </trkpt>
   <trkpt lat="-3.1110810" lon="37.3515930">
    <ele>3934.4</ele>
    <time>2026-06-22T08:34:36Z</time>
   </trkpt>
   <trkpt lat="-3.1110790" lon="37.3515920">
    <ele>3934.4</ele>
    <time>2026-06-22T08:34:37Z</time>
   </trkpt>
   <trkpt lat="-3.1110810" lon="37.3515920">
    <ele>3934.4</ele>
    <time>2026-06-22T08:34:38Z</time>
   </trkpt>
   <trkpt lat="-3.1110810" lon="37.3515910">
    <ele>3934.4</ele>
    <time>2026-06-22T08:34:39Z</time>
   </trkpt>
   <trkpt lat="-3.1110800" lon="37.3515910">
    <ele>3934.3</ele>
    <time>2026-06-22T08:34:40Z</time>
   </trkpt>
   <trkpt lat="-3.1110820" lon="37.3515920">
    <ele>3934.3</ele>
    <time>2026-06-22T08:34:41Z</time>
   </trkpt>
   <trkpt lat="-3.1110830" lon="37.3515920">
    <ele>3934.3</ele>
    <time>2026-06-22T08:34:42Z</time>
   </trkpt>
   <trkpt lat="-3.1110830" lon="37.3515920">
    <ele>3934.3</ele>
    <time>2026-06-22T08:34:43Z</time>
   </trkpt>
   <trkpt lat="-3.1110830" lon="37.3515920">
    <ele>3934.3</ele>
    <time>2026-06-22T08:34:44Z</time>
   </trkpt>
   <trkpt lat="-3.1110860" lon="37.3515930">
    <ele>3934.3</ele>
    <time>2026-06-22T08:34:45Z</time>
   </trkpt>
   <trkpt lat="-3.1110860" lon="37.3515920">
    <ele>3934.3</ele>
    <time>2026-06-22T08:34:46Z</time>
   </trkpt>
   <trkpt lat="-3.1110880" lon="37.3515930">
    <ele>3934.2</ele>
    <time>2026-06-22T08:34:47Z</time>
   </trkpt>
   <trkpt lat="-3.1110910" lon="37.3515950">
    <ele>3934.2</ele>
    <time>2026-06-22T08:34:48Z</time>
   </trkpt>
   <trkpt lat="-3.1110970" lon="37.3515960">
    <ele>3934.1</ele>
    <time>2026-06-22T08:34:49Z</time>
   </trkpt>
   <trkpt lat="-3.1110920" lon="37.3515880">
    <ele>3934.0</ele>
    <time>2026-06-22T08:34:50Z</time>
   </trkpt>
   <trkpt lat="-3.1110980" lon="37.3515870">
    <ele>3934.0</ele>
    <time>2026-06-22T08:34:51Z</time>
   </trkpt>
   <trkpt lat="-3.1111070" lon="37.3515920">
    <ele>3933.9</ele>
    <time>2026-06-22T08:34:52Z</time>
   </trkpt>
   <trkpt lat="-3.1111070" lon="37.3515920">
    <ele>3933.9</ele>
    <time>2026-06-22T08:34:53Z</time>
   </trkpt>
   <trkpt lat="-3.1111060" lon="37.3515920">
    <ele>3933.9</ele>
    <time>2026-06-22T08:34:54Z</time>
   </trkpt>
   <trkpt lat="-3.1111060" lon="37.3515920">
    <ele>3933.9</ele>
    <time>2026-06-22T08:34:55Z</time>
   </trkpt>
   <trkpt lat="-3.1111030" lon="37.3515930">
    <ele>3933.8</ele>
    <time>2026-06-22T08:34:56Z</time>
   </trkpt>
   <trkpt lat="-3.1111030" lon="37.3515960">
    <ele>3933.8</ele>
    <time>2026-06-22T08:34:57Z</time>
   </trkpt>
   <trkpt lat="-3.1110970" lon="37.3515980">
    <ele>3933.7</ele>
    <time>2026-06-22T08:34:58Z</time>
   </trkpt>
   <trkpt lat="-3.1110970" lon="37.3516010">
    <ele>3933.7</ele>
    <time>2026-06-22T08:34:59Z</time>
   </trkpt>
   <trkpt lat="-3.1110960" lon="37.3516020">
    <ele>3933.7</ele>
    <time>2026-06-22T08:35:00Z</time>
   </trkpt>
   <trkpt lat="-3.1110950" lon="37.3516020">
    <ele>3933.7</ele>
    <time>2026-06-22T08:35:01Z</time>
   </trkpt>
   <trkpt lat="-3.1110970" lon="37.3516050">
    <ele>3933.7</ele>
    <time>2026-06-22T08:35:02Z</time>
   </trkpt>
   <trkpt lat="-3.1111000" lon="37.3516100">
    <ele>3933.6</ele>
    <time>2026-06-22T08:35:03Z</time>
   </trkpt>
   <trkpt lat="-3.1110950" lon="37.3516150">
    <ele>3933.5</ele>
    <time>2026-06-22T08:35:04Z</time>
   </trkpt>
   <trkpt lat="-3.1110950" lon="37.3516220">
    <ele>3933.5</ele>
    <time>2026-06-22T08:35:05Z</time>
   </trkpt>
   <trkpt lat="-3.1110990" lon="37.3516340">
    <ele>3933.4</ele>
    <time>2026-06-22T08:35:06Z</time>
   </trkpt>
   <trkpt lat="-3.1111030" lon="37.3516420">
    <ele>3933.3</ele>
    <time>2026-06-22T08:35:07Z</time>
   </trkpt>
   <trkpt lat="-3.1111080" lon="37.3516480">
    <ele>3933.2</ele>
    <time>2026-06-22T08:35:08Z</time>
   </trkpt>
   <trkpt lat="-3.1111150" lon="37.3516530">
    <ele>3933.1</ele>
    <time>2026-06-22T08:35:09Z</time>
   </trkpt>
   <trkpt lat="-3.1111270" lon="37.3516610">
    <ele>3933.0</ele>
    <time>2026-06-22T08:35:10Z</time>
   </trkpt>
   <trkpt lat="-3.1111350" lon="37.3516590">
    <ele>3932.9</ele>
    <time>2026-06-22T08:35:11Z</time>
   </trkpt>
   <trkpt lat="-3.1111450" lon="37.3516620">
    <ele>3932.9</ele>
    <time>2026-06-22T08:35:12Z</time>
   </trkpt>
   <trkpt lat="-3.1111500" lon="37.3516640">
    <ele>3932.8</ele>
    <time>2026-06-22T08:35:13Z</time>
   </trkpt>
   <trkpt lat="-3.1111560" lon="37.3516720">
    <ele>3932.7</ele>
    <time>2026-06-22T08:35:14Z</time>
   </trkpt>
   <trkpt lat="-3.1111570" lon="37.3516820">
    <ele>3932.7</ele>
    <time>2026-06-22T08:35:15Z</time>
   </trkpt>
   <trkpt lat="-3.1111630" lon="37.3516970">
    <ele>3932.6</ele>
    <time>2026-06-22T08:35:16Z</time>
   </trkpt>
   <trkpt lat="-3.1111610" lon="37.3517100">
    <ele>3932.5</ele>
    <time>2026-06-22T08:35:17Z</time>
   </trkpt>
   <trkpt lat="-3.1111620" lon="37.3517130">
    <ele>3932.4</ele>
    <time>2026-06-22T08:35:18Z</time>
   </trkpt>
   <trkpt lat="-3.1111660" lon="37.3517250">
    <ele>3932.3</ele>
    <time>2026-06-22T08:35:19Z</time>
   </trkpt>
   <trkpt lat="-3.1111680" lon="37.3517260">
    <ele>3932.3</ele>
    <time>2026-06-22T08:35:20Z</time>
   </trkpt>
   <trkpt lat="-3.1111720" lon="37.3517320">
    <ele>3932.3</ele>
    <time>2026-06-22T08:35:21Z</time>
   </trkpt>
   <trkpt lat="-3.1111730" lon="37.3517380">
    <ele>3932.2</ele>
    <time>2026-06-22T08:35:22Z</time>
   </trkpt>
   <trkpt lat="-3.1111720" lon="37.3517470">
    <ele>3932.2</ele>
    <time>2026-06-22T08:35:23Z</time>
   </trkpt>
   <trkpt lat="-3.1111730" lon="37.3517580">
    <ele>3932.1</ele>
    <time>2026-06-22T08:35:24Z</time>
   </trkpt>
   <trkpt lat="-3.1111770" lon="37.3517670">
    <ele>3932.1</ele>
    <time>2026-06-22T08:35:25Z</time>
   </trkpt>
   <trkpt lat="-3.1111810" lon="37.3517750">
    <ele>3932.0</ele>
    <time>2026-06-22T08:35:26Z</time>
   </trkpt>
   <trkpt lat="-3.1111800" lon="37.3517790">
    <ele>3932.0</ele>
    <time>2026-06-22T08:35:27Z</time>
   </trkpt>
   <trkpt lat="-3.1111800" lon="37.3517850">
    <ele>3931.9</ele>
    <time>2026-06-22T08:35:28Z</time>
   </trkpt>
   <trkpt lat="-3.1111820" lon="37.3517890">
    <ele>3931.9</ele>
    <time>2026-06-22T08:35:29Z</time>
   </trkpt>
   <trkpt lat="-3.1111850" lon="37.3517980">
    <ele>3931.8</ele>
    <time>2026-06-22T08:35:30Z</time>
   </trkpt>
   <trkpt lat="-3.1111860" lon="37.3518090">
    <ele>3931.8</ele>
    <time>2026-06-22T08:35:31Z</time>
   </trkpt>
   <trkpt lat="-3.1111890" lon="37.3518090">
    <ele>3931.8</ele>
    <time>2026-06-22T08:35:32Z</time>
   </trkpt>
   <trkpt lat="-3.1111860" lon="37.3518130">
    <ele>3931.7</ele>
    <time>2026-06-22T08:35:33Z</time>
   </trkpt>
   <trkpt lat="-3.1111890" lon="37.3518210">
    <ele>3931.7</ele>
    <time>2026-06-22T08:35:34Z</time>
   </trkpt>
   <trkpt lat="-3.1111910" lon="37.3518230">
    <ele>3931.7</ele>
    <time>2026-06-22T08:35:35Z</time>
   </trkpt>
   <trkpt lat="-3.1111940" lon="37.3518320">
    <ele>3931.6</ele>
    <time>2026-06-22T08:35:36Z</time>
   </trkpt>
   <trkpt lat="-3.1111950" lon="37.3518370">
    <ele>3931.6</ele>
    <time>2026-06-22T08:35:37Z</time>
   </trkpt>
   <trkpt lat="-3.1111960" lon="37.3518410">
    <ele>3931.6</ele>
    <time>2026-06-22T08:35:38Z</time>
   </trkpt>
   <trkpt lat="-3.1111980" lon="37.3518470">
    <ele>3931.5</ele>
    <time>2026-06-22T08:35:39Z</time>
   </trkpt>
   <trkpt lat="-3.1112020" lon="37.3518540">
    <ele>3931.5</ele>
    <time>2026-06-22T08:35:40Z</time>
   </trkpt>
   <trkpt lat="-3.1112040" lon="37.3518580">
    <ele>3931.5</ele>
    <time>2026-06-22T08:35:41Z</time>
   </trkpt>
   <trkpt lat="-3.1112050" lon="37.3518660">
    <ele>3931.4</ele>
    <time>2026-06-22T08:35:42Z</time>
   </trkpt>
   <trkpt lat="-3.1112060" lon="37.3518720">
    <ele>3931.4</ele>
    <time>2026-06-22T08:35:43Z</time>
   </trkpt>
   <trkpt lat="-3.1112070" lon="37.3518770">
    <ele>3931.4</ele>
    <time>2026-06-22T08:35:44Z</time>
   </trkpt>
   <trkpt lat="-3.1112090" lon="37.3518800">
    <ele>3931.3</ele>
    <time>2026-06-22T08:35:45Z</time>
   </trkpt>
   <trkpt lat="-3.1112110" lon="37.3518880">
    <ele>3931.3</ele>
    <time>2026-06-22T08:35:46Z</time>
   </trkpt>
   <trkpt lat="-3.1112110" lon="37.3518920">
    <ele>3931.3</ele>
    <time>2026-06-22T08:35:47Z</time>
   </trkpt>
   <trkpt lat="-3.1112100" lon="37.3518980">
    <ele>3931.3</ele>
    <time>2026-06-22T08:35:48Z</time>
   </trkpt>
   <trkpt lat="-3.1112080" lon="37.3519020">
    <ele>3931.2</ele>
    <time>2026-06-22T08:35:49Z</time>
   </trkpt>
   <trkpt lat="-3.1112060" lon="37.3519060">
    <ele>3931.2</ele>
    <time>2026-06-22T08:35:50Z</time>
   </trkpt>
   <trkpt lat="-3.1112020" lon="37.3519080">
    <ele>3931.2</ele>
    <time>2026-06-22T08:35:51Z</time>
   </trkpt>
   <trkpt lat="-3.1112000" lon="37.3519110">
    <ele>3931.2</ele>
    <time>2026-06-22T08:35:52Z</time>
   </trkpt>
   <trkpt lat="-3.1111990" lon="37.3519170">
    <ele>3931.1</ele>
    <time>2026-06-22T08:35:53Z</time>
   </trkpt>
   <trkpt lat="-3.1111980" lon="37.3519250">
    <ele>3931.1</ele>
    <time>2026-06-22T08:35:54Z</time>
   </trkpt>
   <trkpt lat="-3.1111970" lon="37.3519330">
    <ele>3931.1</ele>
    <time>2026-06-22T08:35:55Z</time>
   </trkpt>
   <trkpt lat="-3.1111970" lon="37.3519400">
    <ele>3931.0</ele>
    <time>2026-06-22T08:35:56Z</time>
   </trkpt>
   <trkpt lat="-3.1111980" lon="37.3519450">
    <ele>3931.0</ele>
    <time>2026-06-22T08:35:57Z</time>
   </trkpt>
   <trkpt lat="-3.1112000" lon="37.3519530">
    <ele>3931.0</ele>
    <time>2026-06-22T08:35:58Z</time>
   </trkpt>
   <trkpt lat="-3.1112010" lon="37.3519590">
    <ele>3930.9</ele>
    <time>2026-06-22T08:35:59Z</time>
   </trkpt>
   <trkpt lat="-3.1112050" lon="37.3519630">
    <ele>3930.9</ele>
    <time>2026-06-22T08:36:00Z</time>
   </trkpt>
   <trkpt lat="-3.1112100" lon="37.3519690">
    <ele>3930.9</ele>
    <time>2026-06-22T08:36:01Z</time>
   </trkpt>
   <trkpt lat="-3.1112150" lon="37.3519730">
    <ele>3930.8</ele>
    <time>2026-06-22T08:36:02Z</time>
   </trkpt>
   <trkpt lat="-3.1112130" lon="37.3519760">
    <ele>3930.8</ele>
    <time>2026-06-22T08:36:03Z</time>
   </trkpt>
   <trkpt lat="-3.1112140" lon="37.3519830">
    <ele>3930.8</ele>
    <time>2026-06-22T08:36:04Z</time>
   </trkpt>
   <trkpt lat="-3.1112130" lon="37.3519890">
    <ele>3930.8</ele>
    <time>2026-06-22T08:36:05Z</time>
   </trkpt>
   <trkpt lat="-3.1112110" lon="37.3519940">
    <ele>3930.7</ele>
    <time>2026-06-22T08:36:06Z</time>
   </trkpt>
   <trkpt lat="-3.1112080" lon="37.3520040">
    <ele>3930.7</ele>
    <time>2026-06-22T08:36:07Z</time>
   </trkpt>
   <trkpt lat="-3.1112070" lon="37.3520100">
    <ele>3930.6</ele>
    <time>2026-06-22T08:36:08Z</time>
   </trkpt>
   <trkpt lat="-3.1112090" lon="37.3520180">
    <ele>3930.6</ele>
    <time>2026-06-22T08:36:09Z</time>
   </trkpt>
   <trkpt lat="-3.1112130" lon="37.3520220">
    <ele>3930.6</ele>
    <time>2026-06-22T08:36:10Z</time>
   </trkpt>
   <trkpt lat="-3.1112160" lon="37.3520230">
    <ele>3930.6</ele>
    <time>2026-06-22T08:36:11Z</time>
   </trkpt>
   <trkpt lat="-3.1112190" lon="37.3520290">
    <ele>3930.5</ele>
    <time>2026-06-22T08:36:12Z</time>
   </trkpt>
   <trkpt lat="-3.1112240" lon="37.3520330">
    <ele>3930.5</ele>
    <time>2026-06-22T08:36:13Z</time>
   </trkpt>
   <trkpt lat="-3.1112280" lon="37.3520360">
    <ele>3930.5</ele>
    <time>2026-06-22T08:36:14Z</time>
   </trkpt>
   <trkpt lat="-3.1112310" lon="37.3520440">
    <ele>3930.5</ele>
    <time>2026-06-22T08:36:15Z</time>
   </trkpt>
   <trkpt lat="-3.1112330" lon="37.3520490">
    <ele>3930.4</ele>
    <time>2026-06-22T08:36:16Z</time>
   </trkpt>
   <trkpt lat="-3.1112370" lon="37.3520550">
    <ele>3930.4</ele>
    <time>2026-06-22T08:36:17Z</time>
   </trkpt>
   <trkpt lat="-3.1112420" lon="37.3520580">
    <ele>3930.4</ele>
    <time>2026-06-22T08:36:18Z</time>
   </trkpt>
   <trkpt lat="-3.1112470" lon="37.3520610">
    <ele>3930.4</ele>
    <time>2026-06-22T08:36:19Z</time>
   </trkpt>
   <trkpt lat="-3.1112500" lon="37.3520680">
    <ele>3930.3</ele>
    <time>2026-06-22T08:36:20Z</time>
   </trkpt>
   <trkpt lat="-3.1112540" lon="37.3520740">
    <ele>3930.3</ele>
    <time>2026-06-22T08:36:21Z</time>
   </trkpt>
   <trkpt lat="-3.1112560" lon="37.3520820">
    <ele>3930.3</ele>
    <time>2026-06-22T08:36:22Z</time>
   </trkpt>
   <trkpt lat="-3.1112600" lon="37.3520870">
    <ele>3930.3</ele>
    <time>2026-06-22T08:36:23Z</time>
   </trkpt>
   <trkpt lat="-3.1112610" lon="37.3520920">
    <ele>3930.2</ele>
    <time>2026-06-22T08:36:24Z</time>
   </trkpt>
   <trkpt lat="-3.1112630" lon="37.3521000">
    <ele>3930.2</ele>
    <time>2026-06-22T08:36:25Z</time>
   </trkpt>
   <trkpt lat="-3.1112620" lon="37.3521020">
    <ele>3930.2</ele>
    <time>2026-06-22T08:36:26Z</time>
   </trkpt>
   <trkpt lat="-3.1112620" lon="37.3521030">
    <ele>3930.2</ele>
    <time>2026-06-22T08:36:27Z</time>
   </trkpt>
   <trkpt lat="-3.1112630" lon="37.3521040">
    <ele>3930.2</ele>
    <time>2026-06-22T08:36:28Z</time>
   </trkpt>
   <trkpt lat="-3.1112670" lon="37.3521090">
    <ele>3930.2</ele>
    <time>2026-06-22T08:36:29Z</time>
   </trkpt>
   <trkpt lat="-3.1112680" lon="37.3521110">
    <ele>3930.2</ele>
    <time>2026-06-22T08:36:30Z</time>
   </trkpt>
   <trkpt lat="-3.1112690" lon="37.3521150">
    <ele>3930.2</ele>
    <time>2026-06-22T08:36:31Z</time>
   </trkpt>
   <trkpt lat="-3.1112730" lon="37.3521170">
    <ele>3930.2</ele>
    <time>2026-06-22T08:36:32Z</time>
   </trkpt>
   <trkpt lat="-3.1112730" lon="37.3521200">
    <ele>3930.2</ele>
    <time>2026-06-22T08:36:33Z</time>
   </trkpt>
   <trkpt lat="-3.1112760" lon="37.3521240">
    <ele>3930.1</ele>
    <time>2026-06-22T08:36:34Z</time>
   </trkpt>
   <trkpt lat="-3.1112790" lon="37.3521290">
    <ele>3930.1</ele>
    <time>2026-06-22T08:36:35Z</time>
   </trkpt>
   <trkpt lat="-3.1112810" lon="37.3521340">
    <ele>3930.1</ele>
    <time>2026-06-22T08:36:36Z</time>
   </trkpt>
   <trkpt lat="-3.1112790" lon="37.3521330">
    <ele>3930.1</ele>
    <time>2026-06-22T08:36:37Z</time>
   </trkpt>
   <trkpt lat="-3.1112810" lon="37.3521340">
    <ele>3930.1</ele>
    <time>2026-06-22T08:36:38Z</time>
   </trkpt>
   <trkpt lat="-3.1112850" lon="37.3521370">
    <ele>3930.1</ele>
    <time>2026-06-22T08:36:39Z</time>
   </trkpt>
   <trkpt lat="-3.1112860" lon="37.3521390">
    <ele>3930.1</ele>
    <time>2026-06-22T08:36:40Z</time>
   </trkpt>
   <trkpt lat="-3.1112910" lon="37.3521450">
    <ele>3930.1</ele>
    <time>2026-06-22T08:36:41Z</time>
   </trkpt>
   <trkpt lat="-3.1112970" lon="37.3521530">
    <ele>3930.0</ele>
    <time>2026-06-22T08:36:42Z</time>
   </trkpt>
   <trkpt lat="-3.1113020" lon="37.3521580">
    <ele>3930.0</ele>
    <time>2026-06-22T08:36:43Z</time>
   </trkpt>
   <trkpt lat="-3.1113060" lon="37.3521650">
    <ele>3930.0</ele>
    <time>2026-06-22T08:36:44Z</time>
   </trkpt>
   <trkpt lat="-3.1113070" lon="37.3521670">
    <ele>3930.0</ele>
    <time>2026-06-22T08:36:45Z</time>
   </trkpt>
   <trkpt lat="-3.1113110" lon="37.3521690">
    <ele>3930.0</ele>
    <time>2026-06-22T08:36:46Z</time>
   </trkpt>
   <trkpt lat="-3.1113120" lon="37.3521690">
    <ele>3930.0</ele>
    <time>2026-06-22T08:36:47Z</time>
   </trkpt>
   <trkpt lat="-3.1113130" lon="37.3521720">
    <ele>3930.0</ele>
    <time>2026-06-22T08:36:48Z</time>
   </trkpt>
   <trkpt lat="-3.1113190" lon="37.3521800">
    <ele>3930.0</ele>
    <time>2026-06-22T08:36:49Z</time>
   </trkpt>
   <trkpt lat="-3.1113170" lon="37.3521810">
    <ele>3930.0</ele>
    <time>2026-06-22T08:36:50Z</time>
   </trkpt>
   <trkpt lat="-3.1113190" lon="37.3521830">
    <ele>3930.0</ele>
    <time>2026-06-22T08:36:51Z</time>
   </trkpt>
   <trkpt lat="-3.1113190" lon="37.3521820">
    <ele>3930.0</ele>
    <time>2026-06-22T08:36:52Z</time>
   </trkpt>
   <trkpt lat="-3.1113210" lon="37.3521830">
    <ele>3930.0</ele>
    <time>2026-06-22T08:36:53Z</time>
   </trkpt>
   <trkpt lat="-3.1113210" lon="37.3521820">
    <ele>3930.0</ele>
    <time>2026-06-22T08:36:54Z</time>
   </trkpt>
   <trkpt lat="-3.1113220" lon="37.3521820">
    <ele>3930.0</ele>
    <time>2026-06-22T08:36:55Z</time>
   </trkpt>
   <trkpt lat="-3.1113290" lon="37.3521860">
    <ele>3930.0</ele>
    <time>2026-06-22T08:36:56Z</time>
   </trkpt>
   <trkpt lat="-3.1113330" lon="37.3521900">
    <ele>3930.0</ele>
    <time>2026-06-22T08:36:57Z</time>
   </trkpt>
   <trkpt lat="-3.1113320" lon="37.3521900">
    <ele>3930.0</ele>
    <time>2026-06-22T08:36:58Z</time>
   </trkpt>
   <trkpt lat="-3.1113340" lon="37.3521910">
    <ele>3930.0</ele>
    <time>2026-06-22T08:36:59Z</time>
   </trkpt>
   <trkpt lat="-3.1113350" lon="37.3521920">
    <ele>3930.0</ele>
    <time>2026-06-22T08:37:00Z</time>
   </trkpt>
   <trkpt lat="-3.1113350" lon="37.3521920">
    <ele>3930.0</ele>
    <time>2026-06-22T08:37:01Z</time>
   </trkpt>
   <trkpt lat="-3.1113350" lon="37.3521920">
    <ele>3930.0</ele>
    <time>2026-06-22T08:37:02Z</time>
   </trkpt>
   <trkpt lat="-3.1113340" lon="37.3521900">
    <ele>3930.0</ele>
    <time>2026-06-22T08:37:03Z</time>
   </trkpt>
   <trkpt lat="-3.1113340" lon="37.3521900">
    <ele>3930.0</ele>
    <time>2026-06-22T08:37:04Z</time>
   </trkpt>
   <trkpt lat="-3.1113340" lon="37.3521880">
    <ele>3930.0</ele>
    <time>2026-06-22T08:37:05Z</time>
   </trkpt>
   <trkpt lat="-3.1113340" lon="37.3521890">
    <ele>3930.0</ele>
    <time>2026-06-22T08:37:06Z</time>
   </trkpt>
   <trkpt lat="-3.1113340" lon="37.3521880">
    <ele>3930.0</ele>
    <time>2026-06-22T08:37:07Z</time>
   </trkpt>
   <trkpt lat="-3.1113340" lon="37.3521880">
    <ele>3930.0</ele>
    <time>2026-06-22T08:37:08Z</time>
   </trkpt>
   <trkpt lat="-3.1113360" lon="37.3521900">
    <ele>3930.0</ele>
    <time>2026-06-22T08:37:09Z</time>
   </trkpt>
   <trkpt lat="-3.1113350" lon="37.3521900">
    <ele>3930.0</ele>
    <time>2026-06-22T08:37:10Z</time>
   </trkpt>
   <trkpt lat="-3.1113360" lon="37.3521900">
    <ele>3930.0</ele>
    <time>2026-06-22T08:37:11Z</time>
   </trkpt>
   <trkpt lat="-3.1113360" lon="37.3521890">
    <ele>3930.0</ele>
    <time>2026-06-22T08:37:12Z</time>
   </trkpt>
   <trkpt lat="-3.1113350" lon="37.3521890">
    <ele>3930.0</ele>
    <time>2026-06-22T08:37:13Z</time>
   </trkpt>
   <trkpt lat="-3.1113350" lon="37.3521880">
    <ele>3930.0</ele>
    <time>2026-06-22T08:37:14Z</time>
   </trkpt>
   <trkpt lat="-3.1113350" lon="37.3521880">
    <ele>3930.0</ele>
    <time>2026-06-22T08:37:15Z</time>
   </trkpt>
   <trkpt lat="-3.1113360" lon="37.3521890">
    <ele>3930.0</ele>
    <time>2026-06-22T08:37:16Z</time>
   </trkpt>
   <trkpt lat="-3.1113360" lon="37.3521890">
    <ele>3930.0</ele>
    <time>2026-06-22T08:37:17Z</time>
   </trkpt>
   <trkpt lat="-3.1113360" lon="37.3521880">
    <ele>3930.0</ele>
    <time>2026-06-22T08:37:18Z</time>
   </trkpt>
   <trkpt lat="-3.1113360" lon="37.3521880">
    <ele>3930.0</ele>
    <time>2026-06-22T08:37:19Z</time>
   </trkpt>
   <trkpt lat="-3.1113380" lon="37.3521890">
    <ele>3930.0</ele>
    <time>2026-06-22T08:37:20Z</time>
   </trkpt>
   <trkpt lat="-3.1113380" lon="37.3521890">
    <ele>3930.0</ele>
    <time>2026-06-22T08:37:21Z</time>
   </trkpt>
   <trkpt lat="-3.1113380" lon="37.3521880">
    <ele>3930.0</ele>
    <time>2026-06-22T08:37:22Z</time>
   </trkpt>
   <trkpt lat="-3.1113380" lon="37.3521880">
    <ele>3930.0</ele>
    <time>2026-06-22T08:37:23Z</time>
   </trkpt>
   <trkpt lat="-3.1113370" lon="37.3521880">
    <ele>3930.0</ele>
    <time>2026-06-22T08:37:24Z</time>
   </trkpt>
   <trkpt lat="-3.1113380" lon="37.3521880">
    <ele>3930.0</ele>
    <time>2026-06-22T08:37:25Z</time>
   </trkpt>
   <trkpt lat="-3.1113370" lon="37.3521880">
    <ele>3930.0</ele>
    <time>2026-06-22T08:37:26Z</time>
   </trkpt>
   <trkpt lat="-3.1113380" lon="37.3521890">
    <ele>3930.0</ele>
    <time>2026-06-22T08:37:27Z</time>
   </trkpt>
   <trkpt lat="-3.1113380" lon="37.3521890">
    <ele>3930.0</ele>
    <time>2026-06-22T08:37:28Z</time>
   </trkpt>
   <trkpt lat="-3.1113360" lon="37.3521890">
    <ele>3930.0</ele>
    <time>2026-06-22T08:37:29Z</time>
   </trkpt>
   <trkpt lat="-3.1113370" lon="37.3521890">
    <ele>3930.0</ele>
    <time>2026-06-22T08:37:30Z</time>
   </trkpt>
   <trkpt lat="-3.1113370" lon="37.3521890">
    <ele>3930.0</ele>
    <time>2026-06-22T08:37:31Z</time>
   </trkpt>
   <trkpt lat="-3.1113380" lon="37.3521900">
    <ele>3930.0</ele>
    <time>2026-06-22T08:37:32Z</time>
   </trkpt>
   <trkpt lat="-3.1113370" lon="37.3521880">
    <ele>3930.0</ele>
    <time>2026-06-22T08:37:33Z</time>
   </trkpt>
   <trkpt lat="-3.1113360" lon="37.3521870">
    <ele>3930.0</ele>
    <time>2026-06-22T08:37:34Z</time>
   </trkpt>
   <trkpt lat="-3.1113360" lon="37.3521870">
    <ele>3930.0</ele>
    <time>2026-06-22T08:37:35Z</time>
   </trkpt>
   <trkpt lat="-3.1113370" lon="37.3521860">
    <ele>3930.0</ele>
    <time>2026-06-22T08:37:36Z</time>
   </trkpt>
   <trkpt lat="-3.1113370" lon="37.3521860">
    <ele>3930.0</ele>
    <time>2026-06-22T08:37:37Z</time>
   </trkpt>
   <trkpt lat="-3.1113370" lon="37.3521860">
    <ele>3930.0</ele>
    <time>2026-06-22T08:37:38Z</time>
   </trkpt>
   <trkpt lat="-3.1113370" lon="37.3521860">
    <ele>3930.0</ele>
    <time>2026-06-22T08:37:39Z</time>
   </trkpt>
   <trkpt lat="-3.1113380" lon="37.3521840">
    <ele>3930.0</ele>
    <time>2026-06-22T08:37:40Z</time>
   </trkpt>
   <trkpt lat="-3.1113370" lon="37.3521850">
    <ele>3930.0</ele>
    <time>2026-06-22T08:37:41Z</time>
   </trkpt>
   <trkpt lat="-3.1113380" lon="37.3521850">
    <ele>3930.0</ele>
    <time>2026-06-22T08:37:42Z</time>
   </trkpt>
   <trkpt lat="-3.1113370" lon="37.3521830">
    <ele>3930.0</ele>
    <time>2026-06-22T08:37:43Z</time>
   </trkpt>
   <trkpt lat="-3.1113390" lon="37.3521830">
    <ele>3930.0</ele>
    <time>2026-06-22T08:37:44Z</time>
   </trkpt>
   <trkpt lat="-3.1113380" lon="37.3521830">
    <ele>3930.0</ele>
    <time>2026-06-22T08:37:45Z</time>
   </trkpt>
   <trkpt lat="-3.1113380" lon="37.3521840">
    <ele>3930.0</ele>
    <time>2026-06-22T08:37:46Z</time>
   </trkpt>
   <trkpt lat="-3.1113400" lon="37.3521840">
    <ele>3930.0</ele>
    <time>2026-06-22T08:37:47Z</time>
   </trkpt>
   <trkpt lat="-3.1113410" lon="37.3521850">
    <ele>3930.0</ele>
    <time>2026-06-22T08:37:48Z</time>
   </trkpt>
   <trkpt lat="-3.1113420" lon="37.3521880">
    <ele>3930.0</ele>
    <time>2026-06-22T08:37:49Z</time>
   </trkpt>
   <trkpt lat="-3.1113420" lon="37.3521910">
    <ele>3930.0</ele>
    <time>2026-06-22T08:37:50Z</time>
   </trkpt>
   <trkpt lat="-3.1113420" lon="37.3521910">
    <ele>3930.0</ele>
    <time>2026-06-22T08:37:51Z</time>
   </trkpt>
   <trkpt lat="-3.1113420" lon="37.3521920">
    <ele>3930.0</ele>
    <time>2026-06-22T08:37:52Z</time>
   </trkpt>
   <trkpt lat="-3.1113410" lon="37.3521910">
    <ele>3930.0</ele>
    <time>2026-06-22T08:37:53Z</time>
   </trkpt>
   <trkpt lat="-3.1113390" lon="37.3521900">
    <ele>3930.0</ele>
    <time>2026-06-22T08:37:54Z</time>
   </trkpt>
   <trkpt lat="-3.1113400" lon="37.3521890">
    <ele>3930.0</ele>
    <time>2026-06-22T08:37:55Z</time>
   </trkpt>
   <trkpt lat="-3.1113400" lon="37.3521890">
    <ele>3930.0</ele>
    <time>2026-06-22T08:37:56Z</time>
   </trkpt>
   <trkpt lat="-3.1113410" lon="37.3521900">
    <ele>3930.0</ele>
    <time>2026-06-22T08:37:57Z</time>
   </trkpt>
   <trkpt lat="-3.1113400" lon="37.3521890">
    <ele>3930.0</ele>
    <time>2026-06-22T08:37:58Z</time>
   </trkpt>
   <trkpt lat="-3.1113400" lon="37.3521880">
    <ele>3930.0</ele>
    <time>2026-06-22T08:37:59Z</time>
   </trkpt>
   <trkpt lat="-3.1113410" lon="37.3521870">
    <ele>3930.0</ele>
    <time>2026-06-22T08:38:00Z</time>
   </trkpt>
   <trkpt lat="-3.1113410" lon="37.3521880">
    <ele>3930.0</ele>
    <time>2026-06-22T08:38:01Z</time>
   </trkpt>
   <trkpt lat="-3.1113390" lon="37.3521880">
    <ele>3930.0</ele>
    <time>2026-06-22T08:38:02Z</time>
   </trkpt>
   <trkpt lat="-3.1113380" lon="37.3521890">
    <ele>3930.0</ele>
    <time>2026-06-22T08:38:03Z</time>
   </trkpt>
   <trkpt lat="-3.1113390" lon="37.3521890">
    <ele>3930.0</ele>
    <time>2026-06-22T08:38:04Z</time>
   </trkpt>
   <trkpt lat="-3.1113380" lon="37.3521890">
    <ele>3930.0</ele>
    <time>2026-06-22T08:38:05Z</time>
   </trkpt>
   <trkpt lat="-3.1113390" lon="37.3521890">
    <ele>3930.0</ele>
    <time>2026-06-22T08:38:06Z</time>
   </trkpt>
   <trkpt lat="-3.1113390" lon="37.3521890">
    <ele>3930.0</ele>
    <time>2026-06-22T08:38:07Z</time>
   </trkpt>
   <trkpt lat="-3.1113390" lon="37.3521880">
    <ele>3930.0</ele>
    <time>2026-06-22T08:38:08Z</time>
   </trkpt>
   <trkpt lat="-3.1113390" lon="37.3521900">
    <ele>3930.0</ele>
    <time>2026-06-22T08:38:09Z</time>
   </trkpt>
   <trkpt lat="-3.1113390" lon="37.3521880">
    <ele>3930.0</ele>
    <time>2026-06-22T08:38:10Z</time>
   </trkpt>
   <trkpt lat="-3.1113390" lon="37.3521890">
    <ele>3930.0</ele>
    <time>2026-06-22T08:38:11Z</time>
   </trkpt>
   <trkpt lat="-3.1113380" lon="37.3521870">
    <ele>3930.0</ele>
    <time>2026-06-22T08:38:12Z</time>
   </trkpt>
   <trkpt lat="-3.1113410" lon="37.3521880">
    <ele>3930.0</ele>
    <time>2026-06-22T08:38:13Z</time>
   </trkpt>
   <trkpt lat="-3.1113390" lon="37.3521880">
    <ele>3930.0</ele>
    <time>2026-06-22T08:38:14Z</time>
   </trkpt>
   <trkpt lat="-3.1113440" lon="37.3521920">
    <ele>3930.0</ele>
    <time>2026-06-22T08:38:15Z</time>
   </trkpt>
   <trkpt lat="-3.1113420" lon="37.3521920">
    <ele>3930.0</ele>
    <time>2026-06-22T08:38:16Z</time>
   </trkpt>
   <trkpt lat="-3.1113370" lon="37.3521900">
    <ele>3930.0</ele>
    <time>2026-06-22T08:38:17Z</time>
   </trkpt>
   <trkpt lat="-3.1113370" lon="37.3521900">
    <ele>3930.0</ele>
    <time>2026-06-22T08:38:18Z</time>
   </trkpt>
   <trkpt lat="-3.1113370" lon="37.3521910">
    <ele>3930.0</ele>
    <time>2026-06-22T08:38:19Z</time>
   </trkpt>
   <trkpt lat="-3.1113360" lon="37.3521920">
    <ele>3930.0</ele>
    <time>2026-06-22T08:38:20Z</time>
   </trkpt>
   <trkpt lat="-3.1113370" lon="37.3521930">
    <ele>3930.0</ele>
    <time>2026-06-22T08:38:21Z</time>
   </trkpt>
   <trkpt lat="-3.1113360" lon="37.3521930">
    <ele>3930.0</ele>
    <time>2026-06-22T08:38:22Z</time>
   </trkpt>
   <trkpt lat="-3.1113370" lon="37.3521940">
    <ele>3930.0</ele>
    <time>2026-06-22T08:38:23Z</time>
   </trkpt>
   <trkpt lat="-3.1113350" lon="37.3521940">
    <ele>3930.0</ele>
    <time>2026-06-22T08:38:24Z</time>
   </trkpt>
   <trkpt lat="-3.1113320" lon="37.3521940">
    <ele>3930.0</ele>
    <time>2026-06-22T08:38:25Z</time>
   </trkpt>
   <trkpt lat="-3.1113310" lon="37.3521940">
    <ele>3930.0</ele>
    <time>2026-06-22T08:38:26Z</time>
   </trkpt>
   <trkpt lat="-3.1113320" lon="37.3521940">
    <ele>3930.0</ele>
    <time>2026-06-22T08:38:27Z</time>
   </trkpt>
   <trkpt lat="-3.1113320" lon="37.3521940">
    <ele>3930.0</ele>
    <time>2026-06-22T08:38:28Z</time>
   </trkpt>
   <trkpt lat="-3.1113320" lon="37.3521940">
    <ele>3930.0</ele>
    <time>2026-06-22T08:38:29Z</time>
   </trkpt>
   <trkpt lat="-3.1113330" lon="37.3521960">
    <ele>3930.0</ele>
    <time>2026-06-22T08:38:30Z</time>
   </trkpt>
   <trkpt lat="-3.1113300" lon="37.3521950">
    <ele>3930.0</ele>
    <time>2026-06-22T08:38:31Z</time>
   </trkpt>
   <trkpt lat="-3.1113310" lon="37.3521950">
    <ele>3930.0</ele>
    <time>2026-06-22T08:38:32Z</time>
   </trkpt>
   <trkpt lat="-3.1113320" lon="37.3521940">
    <ele>3930.0</ele>
    <time>2026-06-22T08:38:33Z</time>
   </trkpt>
   <trkpt lat="-3.1113320" lon="37.3521940">
    <ele>3930.0</ele>
    <time>2026-06-22T08:38:34Z</time>
   </trkpt>
   <trkpt lat="-3.1113330" lon="37.3521940">
    <ele>3930.0</ele>
    <time>2026-06-22T08:38:35Z</time>
   </trkpt>
   <trkpt lat="-3.1113330" lon="37.3521950">
    <ele>3930.0</ele>
    <time>2026-06-22T08:38:36Z</time>
   </trkpt>
   <trkpt lat="-3.1113340" lon="37.3521960">
    <ele>3930.1</ele>
    <time>2026-06-22T08:38:37Z</time>
   </trkpt>
   <trkpt lat="-3.1113350" lon="37.3521960">
    <ele>3930.1</ele>
    <time>2026-06-22T08:38:38Z</time>
   </trkpt>
   <trkpt lat="-3.1113350" lon="37.3521950">
    <ele>3930.1</ele>
    <time>2026-06-22T08:38:39Z</time>
   </trkpt>
   <trkpt lat="-3.1113350" lon="37.3521960">
    <ele>3930.1</ele>
    <time>2026-06-22T08:38:40Z</time>
   </trkpt>
   <trkpt lat="-3.1113340" lon="37.3521960">
    <ele>3930.1</ele>
    <time>2026-06-22T08:38:41Z</time>
   </trkpt>
   <trkpt lat="-3.1113360" lon="37.3521960">
    <ele>3930.1</ele>
    <time>2026-06-22T08:38:42Z</time>
   </trkpt>
   <trkpt lat="-3.1113360" lon="37.3521970">
    <ele>3930.1</ele>
    <time>2026-06-22T08:38:43Z</time>
   </trkpt>
   <trkpt lat="-3.1113380" lon="37.3521990">
    <ele>3930.1</ele>
    <time>2026-06-22T08:38:44Z</time>
   </trkpt>
   <trkpt lat="-3.1113380" lon="37.3521970">
    <ele>3930.1</ele>
    <time>2026-06-22T08:38:45Z</time>
   </trkpt>
   <trkpt lat="-3.1113370" lon="37.3521980">
    <ele>3930.1</ele>
    <time>2026-06-22T08:38:46Z</time>
   </trkpt>
   <trkpt lat="-3.1113370" lon="37.3521970">
    <ele>3930.1</ele>
    <time>2026-06-22T08:38:47Z</time>
   </trkpt>
   <trkpt lat="-3.1113370" lon="37.3521980">
    <ele>3930.1</ele>
    <time>2026-06-22T08:38:48Z</time>
   </trkpt>
   <trkpt lat="-3.1113370" lon="37.3521980">
    <ele>3930.1</ele>
    <time>2026-06-22T08:38:49Z</time>
   </trkpt>
   <trkpt lat="-3.1113370" lon="37.3521980">
    <ele>3930.1</ele>
    <time>2026-06-22T08:38:50Z</time>
   </trkpt>
   <trkpt lat="-3.1113380" lon="37.3521990">
    <ele>3930.1</ele>
    <time>2026-06-22T08:38:51Z</time>
   </trkpt>
   <trkpt lat="-3.1113390" lon="37.3522000">
    <ele>3930.1</ele>
    <time>2026-06-22T08:38:52Z</time>
   </trkpt>
   <trkpt lat="-3.1113380" lon="37.3521990">
    <ele>3930.1</ele>
    <time>2026-06-22T08:38:53Z</time>
   </trkpt>
   <trkpt lat="-3.1113380" lon="37.3522010">
    <ele>3930.1</ele>
    <time>2026-06-22T08:38:54Z</time>
   </trkpt>
   <trkpt lat="-3.1113400" lon="37.3522010">
    <ele>3930.1</ele>
    <time>2026-06-22T08:38:55Z</time>
   </trkpt>
   <trkpt lat="-3.1113390" lon="37.3522010">
    <ele>3930.1</ele>
    <time>2026-06-22T08:38:56Z</time>
   </trkpt>
   <trkpt lat="-3.1113380" lon="37.3521990">
    <ele>3930.1</ele>
    <time>2026-06-22T08:38:57Z</time>
   </trkpt>
   <trkpt lat="-3.1113380" lon="37.3521990">
    <ele>3930.1</ele>
    <time>2026-06-22T08:38:58Z</time>
   </trkpt>
   <trkpt lat="-3.1113360" lon="37.3521970">
    <ele>3930.1</ele>
    <time>2026-06-22T08:38:59Z</time>
   </trkpt>
   <trkpt lat="-3.1113360" lon="37.3521960">
    <ele>3930.1</ele>
    <time>2026-06-22T08:39:00Z</time>
   </trkpt>
   <trkpt lat="-3.1113370" lon="37.3521970">
    <ele>3930.1</ele>
    <time>2026-06-22T08:39:01Z</time>
   </trkpt>
   <trkpt lat="-3.1113380" lon="37.3521970">
    <ele>3930.1</ele>
    <time>2026-06-22T08:39:02Z</time>
   </trkpt>
   <trkpt lat="-3.1113430" lon="37.3521990">
    <ele>3930.1</ele>
    <time>2026-06-22T08:39:03Z</time>
   </trkpt>
   <trkpt lat="-3.1113420" lon="37.3522000">
    <ele>3930.1</ele>
    <time>2026-06-22T08:39:04Z</time>
   </trkpt>
   <trkpt lat="-3.1113430" lon="37.3521990">
    <ele>3930.1</ele>
    <time>2026-06-22T08:39:05Z</time>
   </trkpt>
   <trkpt lat="-3.1113430" lon="37.3522000">
    <ele>3930.2</ele>
    <time>2026-06-22T08:39:06Z</time>
   </trkpt>
   <trkpt lat="-3.1113420" lon="37.3522010">
    <ele>3930.2</ele>
    <time>2026-06-22T08:39:07Z</time>
   </trkpt>
   <trkpt lat="-3.1113440" lon="37.3522020">
    <ele>3930.2</ele>
    <time>2026-06-22T08:39:08Z</time>
   </trkpt>
   <trkpt lat="-3.1113430" lon="37.3522000">
    <ele>3930.2</ele>
    <time>2026-06-22T08:39:09Z</time>
   </trkpt>
   <trkpt lat="-3.1113430" lon="37.3522010">
    <ele>3930.2</ele>
    <time>2026-06-22T08:39:10Z</time>
   </trkpt>
   <trkpt lat="-3.1113410" lon="37.3522010">
    <ele>3930.2</ele>
    <time>2026-06-22T08:39:11Z</time>
   </trkpt>
   <trkpt lat="-3.1113420" lon="37.3521990">
    <ele>3930.2</ele>
    <time>2026-06-22T08:39:12Z</time>
   </trkpt>
   <trkpt lat="-3.1113400" lon="37.3521980">
    <ele>3930.2</ele>
    <time>2026-06-22T08:39:13Z</time>
   </trkpt>
   <trkpt lat="-3.1113390" lon="37.3522000">
    <ele>3930.2</ele>
    <time>2026-06-22T08:39:14Z</time>
   </trkpt>
   <trkpt lat="-3.1113390" lon="37.3522000">
    <ele>3930.2</ele>
    <time>2026-06-22T08:39:15Z</time>
   </trkpt>
   <trkpt lat="-3.1113390" lon="37.3522000">
    <ele>3930.2</ele>
    <time>2026-06-22T08:39:16Z</time>
   </trkpt>
   <trkpt lat="-3.1113390" lon="37.3521970">
    <ele>3930.2</ele>
    <time>2026-06-22T08:39:17Z</time>
   </trkpt>
   <trkpt lat="-3.1113380" lon="37.3521960">
    <ele>3930.2</ele>
    <time>2026-06-22T08:39:18Z</time>
   </trkpt>
   <trkpt lat="-3.1113380" lon="37.3521960">
    <ele>3930.2</ele>
    <time>2026-06-22T08:39:19Z</time>
   </trkpt>
   <trkpt lat="-3.1113380" lon="37.3521940">
    <ele>3930.2</ele>
    <time>2026-06-22T08:39:20Z</time>
   </trkpt>
   <trkpt lat="-3.1113380" lon="37.3521950">
    <ele>3930.2</ele>
    <time>2026-06-22T08:39:21Z</time>
   </trkpt>
   <trkpt lat="-3.1113390" lon="37.3521940">
    <ele>3930.2</ele>
    <time>2026-06-22T08:39:22Z</time>
   </trkpt>
   <trkpt lat="-3.1113380" lon="37.3521930">
    <ele>3930.2</ele>
    <time>2026-06-22T08:39:23Z</time>
   </trkpt>
   <trkpt lat="-3.1113380" lon="37.3521920">
    <ele>3930.2</ele>
    <time>2026-06-22T08:39:24Z</time>
   </trkpt>
   <trkpt lat="-3.1113380" lon="37.3521920">
    <ele>3930.2</ele>
    <time>2026-06-22T08:39:25Z</time>
   </trkpt>
   <trkpt lat="-3.1113380" lon="37.3521920">
    <ele>3930.2</ele>
    <time>2026-06-22T08:39:26Z</time>
   </trkpt>
   <trkpt lat="-3.1113380" lon="37.3521920">
    <ele>3930.2</ele>
    <time>2026-06-22T08:39:27Z</time>
   </trkpt>
   <trkpt lat="-3.1113370" lon="37.3521910">
    <ele>3930.2</ele>
    <time>2026-06-22T08:39:28Z</time>
   </trkpt>
   <trkpt lat="-3.1113370" lon="37.3521910">
    <ele>3930.2</ele>
    <time>2026-06-22T08:39:29Z</time>
   </trkpt>
   <trkpt lat="-3.1113370" lon="37.3521920">
    <ele>3930.2</ele>
    <time>2026-06-22T08:39:30Z</time>
   </trkpt>
   <trkpt lat="-3.1113360" lon="37.3521900">
    <ele>3930.2</ele>
    <time>2026-06-22T08:39:31Z</time>
   </trkpt>
   <trkpt lat="-3.1113360" lon="37.3521880">
    <ele>3930.2</ele>
    <time>2026-06-22T08:39:32Z</time>
   </trkpt>
   <trkpt lat="-3.1113350" lon="37.3521870">
    <ele>3930.2</ele>
    <time>2026-06-22T08:39:33Z</time>
   </trkpt>
   <trkpt lat="-3.1113360" lon="37.3521870">
    <ele>3930.3</ele>
    <time>2026-06-22T08:39:34Z</time>
   </trkpt>
   <trkpt lat="-3.1113360" lon="37.3521860">
    <ele>3930.3</ele>
    <time>2026-06-22T08:39:35Z</time>
   </trkpt>
   <trkpt lat="-3.1113350" lon="37.3521860">
    <ele>3930.3</ele>
    <time>2026-06-22T08:39:36Z</time>
   </trkpt>
   <trkpt lat="-3.1113360" lon="37.3521850">
    <ele>3930.3</ele>
    <time>2026-06-22T08:39:37Z</time>
   </trkpt>
   <trkpt lat="-3.1113350" lon="37.3521850">
    <ele>3930.3</ele>
    <time>2026-06-22T08:39:38Z</time>
   </trkpt>
   <trkpt lat="-3.1113360" lon="37.3521830">
    <ele>3930.3</ele>
    <time>2026-06-22T08:39:39Z</time>
   </trkpt>
   <trkpt lat="-3.1113360" lon="37.3521830">
    <ele>3930.3</ele>
    <time>2026-06-22T08:39:40Z</time>
   </trkpt>
   <trkpt lat="-3.1113360" lon="37.3521820">
    <ele>3930.3</ele>
    <time>2026-06-22T08:39:41Z</time>
   </trkpt>
   <trkpt lat="-3.1113350" lon="37.3521820">
    <ele>3930.3</ele>
    <time>2026-06-22T08:39:42Z</time>
   </trkpt>
   <trkpt lat="-3.1113350" lon="37.3521830">
    <ele>3930.3</ele>
    <time>2026-06-22T08:39:43Z</time>
   </trkpt>
   <trkpt lat="-3.1113350" lon="37.3521820">
    <ele>3930.3</ele>
    <time>2026-06-22T08:39:44Z</time>
   </trkpt>
   <trkpt lat="-3.1113340" lon="37.3521820">
    <ele>3930.3</ele>
    <time>2026-06-22T08:39:45Z</time>
   </trkpt>
   <trkpt lat="-3.1113350" lon="37.3521820">
    <ele>3930.3</ele>
    <time>2026-06-22T08:39:46Z</time>
   </trkpt>
   <trkpt lat="-3.1113350" lon="37.3521820">
    <ele>3930.3</ele>
    <time>2026-06-22T08:39:47Z</time>
   </trkpt>
   <trkpt lat="-3.1113350" lon="37.3521810">
    <ele>3930.3</ele>
    <time>2026-06-22T08:39:48Z</time>
   </trkpt>
   <trkpt lat="-3.1113350" lon="37.3521810">
    <ele>3930.3</ele>
    <time>2026-06-22T08:39:49Z</time>
   </trkpt>
   <trkpt lat="-3.1113340" lon="37.3521810">
    <ele>3930.3</ele>
    <time>2026-06-22T08:39:50Z</time>
   </trkpt>
   <trkpt lat="-3.1113330" lon="37.3521810">
    <ele>3930.3</ele>
    <time>2026-06-22T08:39:51Z</time>
   </trkpt>
   <trkpt lat="-3.1113330" lon="37.3521810">
    <ele>3930.3</ele>
    <time>2026-06-22T08:39:52Z</time>
   </trkpt>
   <trkpt lat="-3.1113320" lon="37.3521790">
    <ele>3930.3</ele>
    <time>2026-06-22T08:39:53Z</time>
   </trkpt>
   <trkpt lat="-3.1113340" lon="37.3521740">
    <ele>3930.4</ele>
    <time>2026-06-22T08:39:54Z</time>
   </trkpt>
   <trkpt lat="-3.1113330" lon="37.3521680">
    <ele>3930.4</ele>
    <time>2026-06-22T08:39:55Z</time>
   </trkpt>
   <trkpt lat="-3.1113310" lon="37.3521650">
    <ele>3930.4</ele>
    <time>2026-06-22T08:39:56Z</time>
   </trkpt>
   <trkpt lat="-3.1113220" lon="37.3521660">
    <ele>3930.4</ele>
    <time>2026-06-22T08:39:57Z</time>
   </trkpt>
   <trkpt lat="-3.1113200" lon="37.3521640">
    <ele>3930.4</ele>
    <time>2026-06-22T08:39:58Z</time>
   </trkpt>
   <trkpt lat="-3.1113190" lon="37.3521640">
    <ele>3930.4</ele>
    <time>2026-06-22T08:39:59Z</time>
   </trkpt>
   <trkpt lat="-3.1113190" lon="37.3521640">
    <ele>3930.4</ele>
    <time>2026-06-22T08:40:00Z</time>
   </trkpt>
   <trkpt lat="-3.1113190" lon="37.3521640">
    <ele>3930.4</ele>
    <time>2026-06-22T08:40:01Z</time>
   </trkpt>
   <trkpt lat="-3.1113190" lon="37.3521650">
    <ele>3930.5</ele>
    <time>2026-06-22T08:40:02Z</time>
   </trkpt>
   <trkpt lat="-3.1113180" lon="37.3521640">
    <ele>3930.5</ele>
    <time>2026-06-22T08:40:03Z</time>
   </trkpt>
   <trkpt lat="-3.1113180" lon="37.3521640">
    <ele>3930.5</ele>
    <time>2026-06-22T08:40:04Z</time>
   </trkpt>
   <trkpt lat="-3.1113170" lon="37.3521610">
    <ele>3930.5</ele>
    <time>2026-06-22T08:40:05Z</time>
   </trkpt>
   <trkpt lat="-3.1113180" lon="37.3521620">
    <ele>3930.5</ele>
    <time>2026-06-22T08:40:06Z</time>
   </trkpt>
   <trkpt lat="-3.1113170" lon="37.3521620">
    <ele>3930.5</ele>
    <time>2026-06-22T08:40:07Z</time>
   </trkpt>
   <trkpt lat="-3.1113170" lon="37.3521620">
    <ele>3930.5</ele>
    <time>2026-06-22T08:40:08Z</time>
   </trkpt>
   <trkpt lat="-3.1113180" lon="37.3521630">
    <ele>3930.5</ele>
    <time>2026-06-22T08:40:09Z</time>
   </trkpt>
   <trkpt lat="-3.1113190" lon="37.3521640">
    <ele>3930.5</ele>
    <time>2026-06-22T08:40:10Z</time>
   </trkpt>
   <trkpt lat="-3.1113180" lon="37.3521630">
    <ele>3930.5</ele>
    <time>2026-06-22T08:40:11Z</time>
   </trkpt>
   <trkpt lat="-3.1113170" lon="37.3521620">
    <ele>3930.5</ele>
    <time>2026-06-22T08:40:12Z</time>
   </trkpt>
   <trkpt lat="-3.1113180" lon="37.3521630">
    <ele>3930.5</ele>
    <time>2026-06-22T08:40:13Z</time>
   </trkpt>
   <trkpt lat="-3.1113190" lon="37.3521630">
    <ele>3930.5</ele>
    <time>2026-06-22T08:40:14Z</time>
   </trkpt>
   <trkpt lat="-3.1113180" lon="37.3521630">
    <ele>3930.5</ele>
    <time>2026-06-22T08:40:15Z</time>
   </trkpt>
   <trkpt lat="-3.1113190" lon="37.3521620">
    <ele>3930.5</ele>
    <time>2026-06-22T08:40:16Z</time>
   </trkpt>
   <trkpt lat="-3.1113210" lon="37.3521630">
    <ele>3930.5</ele>
    <time>2026-06-22T08:40:17Z</time>
   </trkpt>
   <trkpt lat="-3.1113320" lon="37.3521620">
    <ele>3930.6</ele>
    <time>2026-06-22T08:40:18Z</time>
   </trkpt>
   <trkpt lat="-3.1113360" lon="37.3521670">
    <ele>3930.6</ele>
    <time>2026-06-22T08:40:19Z</time>
   </trkpt>
   <trkpt lat="-3.1113350" lon="37.3521720">
    <ele>3930.7</ele>
    <time>2026-06-22T08:40:20Z</time>
   </trkpt>
   <trkpt lat="-3.1113330" lon="37.3521760">
    <ele>3930.7</ele>
    <time>2026-06-22T08:40:21Z</time>
   </trkpt>
   <trkpt lat="-3.1113290" lon="37.3521730">
    <ele>3930.7</ele>
    <time>2026-06-22T08:40:22Z</time>
   </trkpt>
   <trkpt lat="-3.1113280" lon="37.3521770">
    <ele>3930.7</ele>
    <time>2026-06-22T08:40:23Z</time>
   </trkpt>
   <trkpt lat="-3.1113290" lon="37.3521750">
    <ele>3930.8</ele>
    <time>2026-06-22T08:40:24Z</time>
   </trkpt>
   <trkpt lat="-3.1113290" lon="37.3521750">
    <ele>3930.8</ele>
    <time>2026-06-22T08:40:25Z</time>
   </trkpt>
   <trkpt lat="-3.1113290" lon="37.3521740">
    <ele>3930.8</ele>
    <time>2026-06-22T08:40:26Z</time>
   </trkpt>
   <trkpt lat="-3.1113290" lon="37.3521750">
    <ele>3930.8</ele>
    <time>2026-06-22T08:40:27Z</time>
   </trkpt>
   <trkpt lat="-3.1113300" lon="37.3521750">
    <ele>3930.8</ele>
    <time>2026-06-22T08:40:28Z</time>
   </trkpt>
   <trkpt lat="-3.1113300" lon="37.3521750">
    <ele>3930.8</ele>
    <time>2026-06-22T08:40:29Z</time>
   </trkpt>
   <trkpt lat="-3.1113300" lon="37.3521750">
    <ele>3930.8</ele>
    <time>2026-06-22T08:40:30Z</time>
   </trkpt>
   <trkpt lat="-3.1113290" lon="37.3521760">
    <ele>3930.8</ele>
    <time>2026-06-22T08:40:31Z</time>
   </trkpt>
   <trkpt lat="-3.1113300" lon="37.3521750">
    <ele>3930.8</ele>
    <time>2026-06-22T08:40:32Z</time>
   </trkpt>
   <trkpt lat="-3.1113300" lon="37.3521750">
    <ele>3930.8</ele>
    <time>2026-06-22T08:40:33Z</time>
   </trkpt>
   <trkpt lat="-3.1113310" lon="37.3521760">
    <ele>3930.8</ele>
    <time>2026-06-22T08:40:34Z</time>
   </trkpt>
   <trkpt lat="-3.1113320" lon="37.3521760">
    <ele>3930.8</ele>
    <time>2026-06-22T08:40:35Z</time>
   </trkpt>
   <trkpt lat="-3.1113330" lon="37.3521770">
    <ele>3930.8</ele>
    <time>2026-06-22T08:40:36Z</time>
   </trkpt>
   <trkpt lat="-3.1113330" lon="37.3521750">
    <ele>3930.8</ele>
    <time>2026-06-22T08:40:37Z</time>
   </trkpt>
   <trkpt lat="-3.1113340" lon="37.3521750">
    <ele>3930.8</ele>
    <time>2026-06-22T08:40:38Z</time>
   </trkpt>
   <trkpt lat="-3.1113340" lon="37.3521750">
    <ele>3930.8</ele>
    <time>2026-06-22T08:40:39Z</time>
   </trkpt>
   <trkpt lat="-3.1113330" lon="37.3521770">
    <ele>3930.9</ele>
    <time>2026-06-22T08:40:40Z</time>
   </trkpt>
   <trkpt lat="-3.1113330" lon="37.3521760">
    <ele>3930.9</ele>
    <time>2026-06-22T08:40:41Z</time>
   </trkpt>
   <trkpt lat="-3.1113340" lon="37.3521750">
    <ele>3930.9</ele>
    <time>2026-06-22T08:40:42Z</time>
   </trkpt>
   <trkpt lat="-3.1113340" lon="37.3521760">
    <ele>3930.9</ele>
    <time>2026-06-22T08:40:43Z</time>
   </trkpt>
   <trkpt lat="-3.1113340" lon="37.3521760">
    <ele>3930.9</ele>
    <time>2026-06-22T08:40:44Z</time>
   </trkpt>
   <trkpt lat="-3.1113350" lon="37.3521750">
    <ele>3930.9</ele>
    <time>2026-06-22T08:40:45Z</time>
   </trkpt>
   <trkpt lat="-3.1113350" lon="37.3521750">
    <ele>3930.9</ele>
    <time>2026-06-22T08:40:46Z</time>
   </trkpt>
   <trkpt lat="-3.1113370" lon="37.3521770">
    <ele>3930.9</ele>
    <time>2026-06-22T08:40:47Z</time>
   </trkpt>
   <trkpt lat="-3.1113340" lon="37.3521760">
    <ele>3930.9</ele>
    <time>2026-06-22T08:40:48Z</time>
   </trkpt>
   <trkpt lat="-3.1113340" lon="37.3521760">
    <ele>3930.9</ele>
    <time>2026-06-22T08:40:49Z</time>
   </trkpt>
   <trkpt lat="-3.1113350" lon="37.3521750">
    <ele>3930.9</ele>
    <time>2026-06-22T08:40:50Z</time>
   </trkpt>
   <trkpt lat="-3.1113350" lon="37.3521750">
    <ele>3930.9</ele>
    <time>2026-06-22T08:40:51Z</time>
   </trkpt>
   <trkpt lat="-3.1113330" lon="37.3521750">
    <ele>3931.0</ele>
    <time>2026-06-22T08:40:52Z</time>
   </trkpt>
   <trkpt lat="-3.1113330" lon="37.3521750">
    <ele>3931.0</ele>
    <time>2026-06-22T08:40:53Z</time>
   </trkpt>
   <trkpt lat="-3.1113330" lon="37.3521750">
    <ele>3931.0</ele>
    <time>2026-06-22T08:40:54Z</time>
   </trkpt>
   <trkpt lat="-3.1113330" lon="37.3521750">
    <ele>3931.0</ele>
    <time>2026-06-22T08:40:55Z</time>
   </trkpt>
   <trkpt lat="-3.1113350" lon="37.3521760">
    <ele>3931.0</ele>
    <time>2026-06-22T08:40:56Z</time>
   </trkpt>
   <trkpt lat="-3.1113360" lon="37.3521770">
    <ele>3931.0</ele>
    <time>2026-06-22T08:40:57Z</time>
   </trkpt>
   <trkpt lat="-3.1113360" lon="37.3521760">
    <ele>3931.0</ele>
    <time>2026-06-22T08:40:58Z</time>
   </trkpt>
   <trkpt lat="-3.1113360" lon="37.3521760">
    <ele>3931.0</ele>
    <time>2026-06-22T08:40:59Z</time>
   </trkpt>
   <trkpt lat="-3.1113360" lon="37.3521760">
    <ele>3931.0</ele>
    <time>2026-06-22T08:41:00Z</time>
   </trkpt>
   <trkpt lat="-3.1113360" lon="37.3521760">
    <ele>3931.0</ele>
    <time>2026-06-22T08:41:01Z</time>
   </trkpt>
   <trkpt lat="-3.1113360" lon="37.3521750">
    <ele>3931.0</ele>
    <time>2026-06-22T08:41:02Z</time>
   </trkpt>
   <trkpt lat="-3.1113370" lon="37.3521750">
    <ele>3931.0</ele>
    <time>2026-06-22T08:41:03Z</time>
   </trkpt>
   <trkpt lat="-3.1113370" lon="37.3521750">
    <ele>3931.0</ele>
    <time>2026-06-22T08:41:04Z</time>
   </trkpt>
   <trkpt lat="-3.1113370" lon="37.3521740">
    <ele>3931.0</ele>
    <time>2026-06-22T08:41:05Z</time>
   </trkpt>
   <trkpt lat="-3.1113360" lon="37.3521730">
    <ele>3931.0</ele>
    <time>2026-06-22T08:41:06Z</time>
   </trkpt>
   <trkpt lat="-3.1113360" lon="37.3521730">
    <ele>3931.0</ele>
    <time>2026-06-22T08:41:07Z</time>
   </trkpt>
   <trkpt lat="-3.1113360" lon="37.3521730">
    <ele>3931.0</ele>
    <time>2026-06-22T08:41:08Z</time>
   </trkpt>
   <trkpt lat="-3.1113340" lon="37.3521740">
    <ele>3931.0</ele>
    <time>2026-06-22T08:41:09Z</time>
   </trkpt>
   <trkpt lat="-3.1113340" lon="37.3521740">
    <ele>3931.0</ele>
    <time>2026-06-22T08:41:10Z</time>
   </trkpt>
   <trkpt lat="-3.1113330" lon="37.3521750">
    <ele>3931.0</ele>
    <time>2026-06-22T08:41:11Z</time>
   </trkpt>
   <trkpt lat="-3.1113340" lon="37.3521740">
    <ele>3931.0</ele>
    <time>2026-06-22T08:41:12Z</time>
   </trkpt>
   <trkpt lat="-3.1113350" lon="37.3521740">
    <ele>3931.1</ele>
    <time>2026-06-22T08:41:13Z</time>
   </trkpt>
   <trkpt lat="-3.1113340" lon="37.3521740">
    <ele>3931.1</ele>
    <time>2026-06-22T08:41:14Z</time>
   </trkpt>
   <trkpt lat="-3.1113340" lon="37.3521750">
    <ele>3931.1</ele>
    <time>2026-06-22T08:41:15Z</time>
   </trkpt>
   <trkpt lat="-3.1113330" lon="37.3521740">
    <ele>3931.1</ele>
    <time>2026-06-22T08:41:16Z</time>
   </trkpt>
   <trkpt lat="-3.1113330" lon="37.3521750">
    <ele>3931.1</ele>
    <time>2026-06-22T08:41:17Z</time>
   </trkpt>
   <trkpt lat="-3.1113330" lon="37.3521750">
    <ele>3931.1</ele>
    <time>2026-06-22T08:41:18Z</time>
   </trkpt>
   <trkpt lat="-3.1113330" lon="37.3521750">
    <ele>3931.1</ele>
    <time>2026-06-22T08:41:19Z</time>
   </trkpt>
   <trkpt lat="-3.1113330" lon="37.3521760">
    <ele>3931.1</ele>
    <time>2026-06-22T08:41:20Z</time>
   </trkpt>
   <trkpt lat="-3.1113330" lon="37.3521780">
    <ele>3931.1</ele>
    <time>2026-06-22T08:41:21Z</time>
   </trkpt>
   <trkpt lat="-3.1113340" lon="37.3521770">
    <ele>3931.1</ele>
    <time>2026-06-22T08:41:22Z</time>
   </trkpt>
   <trkpt lat="-3.1113340" lon="37.3521770">
    <ele>3931.1</ele>
    <time>2026-06-22T08:41:23Z</time>
   </trkpt>
   <trkpt lat="-3.1113340" lon="37.3521780">
    <ele>3931.1</ele>
    <time>2026-06-22T08:41:24Z</time>
   </trkpt>
   <trkpt lat="-3.1113350" lon="37.3521790">
    <ele>3931.1</ele>
    <time>2026-06-22T08:41:25Z</time>
   </trkpt>
   <trkpt lat="-3.1113340" lon="37.3521790">
    <ele>3931.1</ele>
    <time>2026-06-22T08:41:26Z</time>
   </trkpt>
   <trkpt lat="-3.1113340" lon="37.3521780">
    <ele>3931.1</ele>
    <time>2026-06-22T08:41:27Z</time>
   </trkpt>
   <trkpt lat="-3.1113340" lon="37.3521770">
    <ele>3931.2</ele>
    <time>2026-06-22T08:41:28Z</time>
   </trkpt>
   <trkpt lat="-3.1113340" lon="37.3521770">
    <ele>3931.2</ele>
    <time>2026-06-22T08:41:29Z</time>
   </trkpt>
   <trkpt lat="-3.1113350" lon="37.3521770">
    <ele>3931.2</ele>
    <time>2026-06-22T08:41:30Z</time>
   </trkpt>
   <trkpt lat="-3.1113360" lon="37.3521770">
    <ele>3931.2</ele>
    <time>2026-06-22T08:41:31Z</time>
   </trkpt>
   <trkpt lat="-3.1113360" lon="37.3521770">
    <ele>3931.2</ele>
    <time>2026-06-22T08:41:32Z</time>
   </trkpt>
   <trkpt lat="-3.1113360" lon="37.3521770">
    <ele>3931.2</ele>
    <time>2026-06-22T08:41:33Z</time>
   </trkpt>
   <trkpt lat="-3.1113360" lon="37.3521770">
    <ele>3931.2</ele>
    <time>2026-06-22T08:41:34Z</time>
   </trkpt>
   <trkpt lat="-3.1113370" lon="37.3521760">
    <ele>3931.2</ele>
    <time>2026-06-22T08:41:35Z</time>
   </trkpt>
   <trkpt lat="-3.1113370" lon="37.3521760">
    <ele>3931.2</ele>
    <time>2026-06-22T08:41:36Z</time>
   </trkpt>
   <trkpt lat="-3.1113370" lon="37.3521760">
    <ele>3931.2</ele>
    <time>2026-06-22T08:41:37Z</time>
   </trkpt>
   <trkpt lat="-3.1113390" lon="37.3521780">
    <ele>3931.2</ele>
    <time>2026-06-22T08:41:38Z</time>
   </trkpt>
   <trkpt lat="-3.1113390" lon="37.3521780">
    <ele>3931.2</ele>
    <time>2026-06-22T08:41:39Z</time>
   </trkpt>
   <trkpt lat="-3.1113370" lon="37.3521770">
    <ele>3931.2</ele>
    <time>2026-06-22T08:41:40Z</time>
   </trkpt>
   <trkpt lat="-3.1113380" lon="37.3521770">
    <ele>3931.2</ele>
    <time>2026-06-22T08:41:41Z</time>
   </trkpt>
   <trkpt lat="-3.1113390" lon="37.3521800">
    <ele>3931.3</ele>
    <time>2026-06-22T08:41:42Z</time>
   </trkpt>
   <trkpt lat="-3.1113380" lon="37.3521800">
    <ele>3931.3</ele>
    <time>2026-06-22T08:41:43Z</time>
   </trkpt>
   <trkpt lat="-3.1113370" lon="37.3521810">
    <ele>3931.3</ele>
    <time>2026-06-22T08:41:44Z</time>
   </trkpt>
   <trkpt lat="-3.1113370" lon="37.3521810">
    <ele>3931.3</ele>
    <time>2026-06-22T08:41:45Z</time>
   </trkpt>
   <trkpt lat="-3.1113360" lon="37.3521800">
    <ele>3931.3</ele>
    <time>2026-06-22T08:41:46Z</time>
   </trkpt>
   <trkpt lat="-3.1113330" lon="37.3521820">
    <ele>3931.3</ele>
    <time>2026-06-22T08:41:47Z</time>
   </trkpt>
   <trkpt lat="-3.1113360" lon="37.3521810">
    <ele>3931.3</ele>
    <time>2026-06-22T08:41:48Z</time>
   </trkpt>
   <trkpt lat="-3.1113360" lon="37.3521800">
    <ele>3931.4</ele>
    <time>2026-06-22T08:41:49Z</time>
   </trkpt>
   <trkpt lat="-3.1113390" lon="37.3521800">
    <ele>3931.4</ele>
    <time>2026-06-22T08:41:50Z</time>
   </trkpt>
   <trkpt lat="-3.1113380" lon="37.3521800">
    <ele>3931.4</ele>
    <time>2026-06-22T08:41:51Z</time>
   </trkpt>
   <trkpt lat="-3.1113370" lon="37.3521790">
    <ele>3931.4</ele>
    <time>2026-06-22T08:41:52Z</time>
   </trkpt>
   <trkpt lat="-3.1113390" lon="37.3521800">
    <ele>3931.4</ele>
    <time>2026-06-22T08:41:53Z</time>
   </trkpt>
   <trkpt lat="-3.1113390" lon="37.3521790">
    <ele>3931.4</ele>
    <time>2026-06-22T08:41:54Z</time>
   </trkpt>
   <trkpt lat="-3.1113400" lon="37.3521780">
    <ele>3931.4</ele>
    <time>2026-06-22T08:41:55Z</time>
   </trkpt>
   <trkpt lat="-3.1113400" lon="37.3521770">
    <ele>3931.5</ele>
    <time>2026-06-22T08:41:56Z</time>
   </trkpt>
   <trkpt lat="-3.1113430" lon="37.3521780">
    <ele>3931.5</ele>
    <time>2026-06-22T08:41:57Z</time>
   </trkpt>
   <trkpt lat="-3.1113410" lon="37.3521800">
    <ele>3931.5</ele>
    <time>2026-06-22T08:41:58Z</time>
   </trkpt>
   <trkpt lat="-3.1113400" lon="37.3521800">
    <ele>3931.5</ele>
    <time>2026-06-22T08:41:59Z</time>
   </trkpt>
   <trkpt lat="-3.1113390" lon="37.3521790">
    <ele>3931.5</ele>
    <time>2026-06-22T08:42:00Z</time>
   </trkpt>
   <trkpt lat="-3.1113370" lon="37.3521780">
    <ele>3931.5</ele>
    <time>2026-06-22T08:42:01Z</time>
   </trkpt>
   <trkpt lat="-3.1113360" lon="37.3521790">
    <ele>3931.6</ele>
    <time>2026-06-22T08:42:02Z</time>
   </trkpt>
   <trkpt lat="-3.1113360" lon="37.3521780">
    <ele>3931.6</ele>
    <time>2026-06-22T08:42:03Z</time>
   </trkpt>
   <trkpt lat="-3.1113380" lon="37.3521790">
    <ele>3931.6</ele>
    <time>2026-06-22T08:42:04Z</time>
   </trkpt>
   <trkpt lat="-3.1113380" lon="37.3521790">
    <ele>3931.6</ele>
    <time>2026-06-22T08:42:05Z</time>
   </trkpt>
   <trkpt lat="-3.1113370" lon="37.3521770">
    <ele>3931.6</ele>
    <time>2026-06-22T08:42:06Z</time>
   </trkpt>
   <trkpt lat="-3.1113370" lon="37.3521770">
    <ele>3931.6</ele>
    <time>2026-06-22T08:42:07Z</time>
   </trkpt>
   <trkpt lat="-3.1113400" lon="37.3521770">
    <ele>3931.6</ele>
    <time>2026-06-22T08:42:08Z</time>
   </trkpt>
   <trkpt lat="-3.1113400" lon="37.3521770">
    <ele>3931.6</ele>
    <time>2026-06-22T08:42:09Z</time>
   </trkpt>
   <trkpt lat="-3.1113400" lon="37.3521760">
    <ele>3931.6</ele>
    <time>2026-06-22T08:42:10Z</time>
   </trkpt>
   <trkpt lat="-3.1113400" lon="37.3521750">
    <ele>3931.6</ele>
    <time>2026-06-22T08:42:11Z</time>
   </trkpt>
   <trkpt lat="-3.1113400" lon="37.3521760">
    <ele>3931.7</ele>
    <time>2026-06-22T08:42:12Z</time>
   </trkpt>
   <trkpt lat="-3.1113410" lon="37.3521750">
    <ele>3931.7</ele>
    <time>2026-06-22T08:42:13Z</time>
   </trkpt>
   <trkpt lat="-3.1113400" lon="37.3521760">
    <ele>3931.7</ele>
    <time>2026-06-22T08:42:14Z</time>
   </trkpt>
   <trkpt lat="-3.1113400" lon="37.3521770">
    <ele>3931.7</ele>
    <time>2026-06-22T08:42:15Z</time>
   </trkpt>
   <trkpt lat="-3.1113410" lon="37.3521750">
    <ele>3931.7</ele>
    <time>2026-06-22T08:42:16Z</time>
   </trkpt>
   <trkpt lat="-3.1113400" lon="37.3521770">
    <ele>3931.7</ele>
    <time>2026-06-22T08:42:17Z</time>
   </trkpt>
   <trkpt lat="-3.1113400" lon="37.3521750">
    <ele>3931.7</ele>
    <time>2026-06-22T08:42:18Z</time>
   </trkpt>
   <trkpt lat="-3.1113400" lon="37.3521760">
    <ele>3931.7</ele>
    <time>2026-06-22T08:42:19Z</time>
   </trkpt>
   <trkpt lat="-3.1113400" lon="37.3521760">
    <ele>3931.7</ele>
    <time>2026-06-22T08:42:20Z</time>
   </trkpt>
   <trkpt lat="-3.1113400" lon="37.3521760">
    <ele>3931.7</ele>
    <time>2026-06-22T08:42:21Z</time>
   </trkpt>
   <trkpt lat="-3.1113390" lon="37.3521770">
    <ele>3931.8</ele>
    <time>2026-06-22T08:42:22Z</time>
   </trkpt>
   <trkpt lat="-3.1113380" lon="37.3521770">
    <ele>3931.8</ele>
    <time>2026-06-22T08:42:23Z</time>
   </trkpt>
   <trkpt lat="-3.1113400" lon="37.3521780">
    <ele>3931.8</ele>
    <time>2026-06-22T08:42:24Z</time>
   </trkpt>
   <trkpt lat="-3.1113390" lon="37.3521780">
    <ele>3931.8</ele>
    <time>2026-06-22T08:42:25Z</time>
   </trkpt>
   <trkpt lat="-3.1113390" lon="37.3521760">
    <ele>3931.8</ele>
    <time>2026-06-22T08:42:26Z</time>
   </trkpt>
   <trkpt lat="-3.1113390" lon="37.3521750">
    <ele>3931.8</ele>
    <time>2026-06-22T08:42:27Z</time>
   </trkpt>
   <trkpt lat="-3.1113400" lon="37.3521760">
    <ele>3931.8</ele>
    <time>2026-06-22T08:42:28Z</time>
   </trkpt>
   <trkpt lat="-3.1113390" lon="37.3521760">
    <ele>3931.8</ele>
    <time>2026-06-22T08:42:29Z</time>
   </trkpt>
   <trkpt lat="-3.1113390" lon="37.3521740">
    <ele>3931.9</ele>
    <time>2026-06-22T08:42:30Z</time>
   </trkpt>
   <trkpt lat="-3.1113390" lon="37.3521740">
    <ele>3931.9</ele>
    <time>2026-06-22T08:42:31Z</time>
   </trkpt>
   <trkpt lat="-3.1113380" lon="37.3521730">
    <ele>3931.9</ele>
    <time>2026-06-22T08:42:32Z</time>
   </trkpt>
   <trkpt lat="-3.1113390" lon="37.3521730">
    <ele>3931.9</ele>
    <time>2026-06-22T08:42:33Z</time>
   </trkpt>
   <trkpt lat="-3.1113380" lon="37.3521730">
    <ele>3931.9</ele>
    <time>2026-06-22T08:42:34Z</time>
   </trkpt>
   <trkpt lat="-3.1113380" lon="37.3521730">
    <ele>3931.9</ele>
    <time>2026-06-22T08:42:35Z</time>
   </trkpt>
   <trkpt lat="-3.1113400" lon="37.3521730">
    <ele>3931.9</ele>
    <time>2026-06-22T08:42:36Z</time>
   </trkpt>
   <trkpt lat="-3.1113430" lon="37.3521730">
    <ele>3931.9</ele>
    <time>2026-06-22T08:42:37Z</time>
   </trkpt>
   <trkpt lat="-3.1113460" lon="37.3521710">
    <ele>3932.0</ele>
    <time>2026-06-22T08:42:38Z</time>
   </trkpt>
   <trkpt lat="-3.1113490" lon="37.3521680">
    <ele>3932.0</ele>
    <time>2026-06-22T08:42:39Z</time>
   </trkpt>
   <trkpt lat="-3.1113540" lon="37.3521690">
    <ele>3932.1</ele>
    <time>2026-06-22T08:42:40Z</time>
   </trkpt>
   <trkpt lat="-3.1113640" lon="37.3521680">
    <ele>3932.2</ele>
    <time>2026-06-22T08:42:41Z</time>
   </trkpt>
   <trkpt lat="-3.1113660" lon="37.3521660">
    <ele>3932.2</ele>
    <time>2026-06-22T08:42:42Z</time>
   </trkpt>
   <trkpt lat="-3.1113660" lon="37.3521670">
    <ele>3932.2</ele>
    <time>2026-06-22T08:42:43Z</time>
   </trkpt>
   <trkpt lat="-3.1113670" lon="37.3521660">
    <ele>3932.2</ele>
    <time>2026-06-22T08:42:44Z</time>
   </trkpt>
   <trkpt lat="-3.1113670" lon="37.3521660">
    <ele>3932.2</ele>
    <time>2026-06-22T08:42:45Z</time>
   </trkpt>
   <trkpt lat="-3.1113690" lon="37.3521690">
    <ele>3932.3</ele>
    <time>2026-06-22T08:42:46Z</time>
   </trkpt>
   <trkpt lat="-3.1113700" lon="37.3521720">
    <ele>3932.3</ele>
    <time>2026-06-22T08:42:47Z</time>
   </trkpt>
   <trkpt lat="-3.1113690" lon="37.3521730">
    <ele>3932.3</ele>
    <time>2026-06-22T08:42:48Z</time>
   </trkpt>
   <trkpt lat="-3.1113680" lon="37.3521730">
    <ele>3932.3</ele>
    <time>2026-06-22T08:42:49Z</time>
   </trkpt>
   <trkpt lat="-3.1113680" lon="37.3521720">
    <ele>3932.3</ele>
    <time>2026-06-22T08:42:50Z</time>
   </trkpt>
   <trkpt lat="-3.1113700" lon="37.3521740">
    <ele>3932.4</ele>
    <time>2026-06-22T08:42:51Z</time>
   </trkpt>
   <trkpt lat="-3.1113720" lon="37.3521790">
    <ele>3932.4</ele>
    <time>2026-06-22T08:42:52Z</time>
   </trkpt>
   <trkpt lat="-3.1113730" lon="37.3521770">
    <ele>3932.5</ele>
    <time>2026-06-22T08:42:53Z</time>
   </trkpt>
   <trkpt lat="-3.1113740" lon="37.3521810">
    <ele>3932.5</ele>
    <time>2026-06-22T08:42:54Z</time>
   </trkpt>
   <trkpt lat="-3.1113730" lon="37.3521910">
    <ele>3932.6</ele>
    <time>2026-06-22T08:42:55Z</time>
   </trkpt>
   <trkpt lat="-3.1113710" lon="37.3522000">
    <ele>3932.7</ele>
    <time>2026-06-22T08:42:56Z</time>
   </trkpt>
   <trkpt lat="-3.1113730" lon="37.3522080">
    <ele>3932.8</ele>
    <time>2026-06-22T08:42:57Z</time>
   </trkpt>
   <trkpt lat="-3.1113750" lon="37.3522160">
    <ele>3932.9</ele>
    <time>2026-06-22T08:42:58Z</time>
   </trkpt>
   <trkpt lat="-3.1113750" lon="37.3522230">
    <ele>3933.0</ele>
    <time>2026-06-22T08:42:59Z</time>
   </trkpt>
   <trkpt lat="-3.1113740" lon="37.3522250">
    <ele>3933.0</ele>
    <time>2026-06-22T08:43:00Z</time>
   </trkpt>
   <trkpt lat="-3.1113750" lon="37.3522270">
    <ele>3933.0</ele>
    <time>2026-06-22T08:43:01Z</time>
   </trkpt>
   <trkpt lat="-3.1113750" lon="37.3522320">
    <ele>3933.1</ele>
    <time>2026-06-22T08:43:02Z</time>
   </trkpt>
   <trkpt lat="-3.1113780" lon="37.3522370">
    <ele>3933.2</ele>
    <time>2026-06-22T08:43:03Z</time>
   </trkpt>
   <trkpt lat="-3.1113780" lon="37.3522370">
    <ele>3933.2</ele>
    <time>2026-06-22T08:43:04Z</time>
   </trkpt>
   <trkpt lat="-3.1113790" lon="37.3522400">
    <ele>3933.2</ele>
    <time>2026-06-22T08:43:05Z</time>
   </trkpt>
   <trkpt lat="-3.1113790" lon="37.3522440">
    <ele>3933.3</ele>
    <time>2026-06-22T08:43:06Z</time>
   </trkpt>
   <trkpt lat="-3.1113800" lon="37.3522520">
    <ele>3933.4</ele>
    <time>2026-06-22T08:43:07Z</time>
   </trkpt>
   <trkpt lat="-3.1113840" lon="37.3522540">
    <ele>3933.4</ele>
    <time>2026-06-22T08:43:08Z</time>
   </trkpt>
   <trkpt lat="-3.1113860" lon="37.3522580">
    <ele>3933.5</ele>
    <time>2026-06-22T08:43:09Z</time>
   </trkpt>
   <trkpt lat="-3.1113900" lon="37.3522640">
    <ele>3933.6</ele>
    <time>2026-06-22T08:43:10Z</time>
   </trkpt>
   <trkpt lat="-3.1113890" lon="37.3522680">
    <ele>3933.6</ele>
    <time>2026-06-22T08:43:11Z</time>
   </trkpt>
   <trkpt lat="-3.1113900" lon="37.3522740">
    <ele>3933.7</ele>
    <time>2026-06-22T08:43:12Z</time>
   </trkpt>
   <trkpt lat="-3.1113900" lon="37.3522810">
    <ele>3933.8</ele>
    <time>2026-06-22T08:43:13Z</time>
   </trkpt>
   <trkpt lat="-3.1113900" lon="37.3522860">
    <ele>3933.8</ele>
    <time>2026-06-22T08:43:14Z</time>
   </trkpt>
   <trkpt lat="-3.1113890" lon="37.3522900">
    <ele>3933.9</ele>
    <time>2026-06-22T08:43:15Z</time>
   </trkpt>
   <trkpt lat="-3.1113900" lon="37.3522940">
    <ele>3933.9</ele>
    <time>2026-06-22T08:43:16Z</time>
   </trkpt>
   <trkpt lat="-3.1113910" lon="37.3523000">
    <ele>3934.0</ele>
    <time>2026-06-22T08:43:17Z</time>
   </trkpt>
   <trkpt lat="-3.1113910" lon="37.3523010">
    <ele>3934.0</ele>
    <time>2026-06-22T08:43:18Z</time>
   </trkpt>
   <trkpt lat="-3.1113920" lon="37.3523050">
    <ele>3934.1</ele>
    <time>2026-06-22T08:43:19Z</time>
   </trkpt>
   <trkpt lat="-3.1113930" lon="37.3523080">
    <ele>3934.1</ele>
    <time>2026-06-22T08:43:20Z</time>
   </trkpt>
   <trkpt lat="-3.1113940" lon="37.3523110">
    <ele>3934.2</ele>
    <time>2026-06-22T08:43:21Z</time>
   </trkpt>
   <trkpt lat="-3.1113940" lon="37.3523140">
    <ele>3934.2</ele>
    <time>2026-06-22T08:43:22Z</time>
   </trkpt>
   <trkpt lat="-3.1113960" lon="37.3523150">
    <ele>3934.2</ele>
    <time>2026-06-22T08:43:23Z</time>
   </trkpt>
   <trkpt lat="-3.1113960" lon="37.3523190">
    <ele>3934.3</ele>
    <time>2026-06-22T08:43:24Z</time>
   </trkpt>
   <trkpt lat="-3.1113970" lon="37.3523220">
    <ele>3934.3</ele>
    <time>2026-06-22T08:43:25Z</time>
   </trkpt>
   <trkpt lat="-3.1113970" lon="37.3523250">
    <ele>3934.4</ele>
    <time>2026-06-22T08:43:26Z</time>
   </trkpt>
   <trkpt lat="-3.1113990" lon="37.3523280">
    <ele>3934.4</ele>
    <time>2026-06-22T08:43:27Z</time>
   </trkpt>
   <trkpt lat="-3.1113980" lon="37.3523310">
    <ele>3934.5</ele>
    <time>2026-06-22T08:43:28Z</time>
   </trkpt>
   <trkpt lat="-3.1113990" lon="37.3523340">
    <ele>3934.5</ele>
    <time>2026-06-22T08:43:29Z</time>
   </trkpt>
   <trkpt lat="-3.1113990" lon="37.3523370">
    <ele>3934.5</ele>
    <time>2026-06-22T08:43:30Z</time>
   </trkpt>
   <trkpt lat="-3.1113990" lon="37.3523390">
    <ele>3934.6</ele>
    <time>2026-06-22T08:43:31Z</time>
   </trkpt>
   <trkpt lat="-3.1114000" lon="37.3523430">
    <ele>3934.6</ele>
    <time>2026-06-22T08:43:32Z</time>
   </trkpt>
   <trkpt lat="-3.1114000" lon="37.3523450">
    <ele>3934.6</ele>
    <time>2026-06-22T08:43:33Z</time>
   </trkpt>
   <trkpt lat="-3.1113990" lon="37.3523480">
    <ele>3934.7</ele>
    <time>2026-06-22T08:43:34Z</time>
   </trkpt>
   <trkpt lat="-3.1114010" lon="37.3523500">
    <ele>3934.7</ele>
    <time>2026-06-22T08:43:35Z</time>
   </trkpt>
   <trkpt lat="-3.1113980" lon="37.3523530">
    <ele>3934.8</ele>
    <time>2026-06-22T08:43:36Z</time>
   </trkpt>
   <trkpt lat="-3.1114010" lon="37.3523540">
    <ele>3934.8</ele>
    <time>2026-06-22T08:43:37Z</time>
   </trkpt>
   <trkpt lat="-3.1114010" lon="37.3523600">
    <ele>3934.9</ele>
    <time>2026-06-22T08:43:38Z</time>
   </trkpt>
   <trkpt lat="-3.1114010" lon="37.3523610">
    <ele>3934.9</ele>
    <time>2026-06-22T08:43:39Z</time>
   </trkpt>
   <trkpt lat="-3.1114000" lon="37.3523660">
    <ele>3935.0</ele>
    <time>2026-06-22T08:43:40Z</time>
   </trkpt>
   <trkpt lat="-3.1114000" lon="37.3523680">
    <ele>3935.0</ele>
    <time>2026-06-22T08:43:41Z</time>
   </trkpt>
   <trkpt lat="-3.1113990" lon="37.3523720">
    <ele>3935.1</ele>
    <time>2026-06-22T08:43:42Z</time>
   </trkpt>
   <trkpt lat="-3.1113990" lon="37.3523730">
    <ele>3935.1</ele>
    <time>2026-06-22T08:43:43Z</time>
   </trkpt>
   <trkpt lat="-3.1113990" lon="37.3523760">
    <ele>3935.1</ele>
    <time>2026-06-22T08:43:44Z</time>
   </trkpt>
   <trkpt lat="-3.1114000" lon="37.3523790">
    <ele>3935.2</ele>
    <time>2026-06-22T08:43:45Z</time>
   </trkpt>
   <trkpt lat="-3.1114000" lon="37.3523830">
    <ele>3935.2</ele>
    <time>2026-06-22T08:43:46Z</time>
   </trkpt>
   <trkpt lat="-3.1113990" lon="37.3523840">
    <ele>3935.3</ele>
    <time>2026-06-22T08:43:47Z</time>
   </trkpt>
   <trkpt lat="-3.1114000" lon="37.3523890">
    <ele>3935.3</ele>
    <time>2026-06-22T08:43:48Z</time>
   </trkpt>
   <trkpt lat="-3.1113990" lon="37.3523900">
    <ele>3935.4</ele>
    <time>2026-06-22T08:43:49Z</time>
   </trkpt>
   <trkpt lat="-3.1114000" lon="37.3523940">
    <ele>3935.4</ele>
    <time>2026-06-22T08:43:50Z</time>
   </trkpt>
   <trkpt lat="-3.1114010" lon="37.3523960">
    <ele>3935.5</ele>
    <time>2026-06-22T08:43:51Z</time>
   </trkpt>
   <trkpt lat="-3.1114010" lon="37.3524010">
    <ele>3935.5</ele>
    <time>2026-06-22T08:43:52Z</time>
   </trkpt>
   <trkpt lat="-3.1113950" lon="37.3524020">
    <ele>3935.6</ele>
    <time>2026-06-22T08:43:53Z</time>
   </trkpt>
   <trkpt lat="-3.1113930" lon="37.3524070">
    <ele>3935.7</ele>
    <time>2026-06-22T08:43:54Z</time>
   </trkpt>
   <trkpt lat="-3.1113920" lon="37.3524090">
    <ele>3935.7</ele>
    <time>2026-06-22T08:43:55Z</time>
   </trkpt>
   <trkpt lat="-3.1113930" lon="37.3524140">
    <ele>3935.8</ele>
    <time>2026-06-22T08:43:56Z</time>
   </trkpt>
   <trkpt lat="-3.1113940" lon="37.3524190">
    <ele>3935.9</ele>
    <time>2026-06-22T08:43:57Z</time>
   </trkpt>
   <trkpt lat="-3.1114000" lon="37.3524200">
    <ele>3936.0</ele>
    <time>2026-06-22T08:43:58Z</time>
   </trkpt>
   <trkpt lat="-3.1114040" lon="37.3524220">
    <ele>3936.0</ele>
    <time>2026-06-22T08:43:59Z</time>
   </trkpt>
   <trkpt lat="-3.1114080" lon="37.3524240">
    <ele>3936.1</ele>
    <time>2026-06-22T08:44:00Z</time>
   </trkpt>
   <trkpt lat="-3.1114120" lon="37.3524250">
    <ele>3936.2</ele>
    <time>2026-06-22T08:44:01Z</time>
   </trkpt>
   <trkpt lat="-3.1114150" lon="37.3524270">
    <ele>3936.2</ele>
    <time>2026-06-22T08:44:02Z</time>
   </trkpt>
   <trkpt lat="-3.1114190" lon="37.3524340">
    <ele>3936.3</ele>
    <time>2026-06-22T08:44:03Z</time>
   </trkpt>
   <trkpt lat="-3.1114190" lon="37.3524370">
    <ele>3936.4</ele>
    <time>2026-06-22T08:44:04Z</time>
   </trkpt>
   <trkpt lat="-3.1114200" lon="37.3524400">
    <ele>3936.4</ele>
    <time>2026-06-22T08:44:05Z</time>
   </trkpt>
   <trkpt lat="-3.1114220" lon="37.3524410">
    <ele>3936.5</ele>
    <time>2026-06-22T08:44:06Z</time>
   </trkpt>
   <trkpt lat="-3.1114200" lon="37.3524490">
    <ele>3936.6</ele>
    <time>2026-06-22T08:44:07Z</time>
   </trkpt>
   <trkpt lat="-3.1114170" lon="37.3524530">
    <ele>3936.7</ele>
    <time>2026-06-22T08:44:08Z</time>
   </trkpt>
   <trkpt lat="-3.1114160" lon="37.3524540">
    <ele>3936.7</ele>
    <time>2026-06-22T08:44:09Z</time>
   </trkpt>
   <trkpt lat="-3.1114140" lon="37.3524560">
    <ele>3936.7</ele>
    <time>2026-06-22T08:44:10Z</time>
   </trkpt>
   <trkpt lat="-3.1114110" lon="37.3524580">
    <ele>3936.8</ele>
    <time>2026-06-22T08:44:11Z</time>
   </trkpt>
   <trkpt lat="-3.1114120" lon="37.3524620">
    <ele>3936.9</ele>
    <time>2026-06-22T08:44:12Z</time>
   </trkpt>
   <trkpt lat="-3.1114150" lon="37.3524640">
    <ele>3936.9</ele>
    <time>2026-06-22T08:44:13Z</time>
   </trkpt>
   <trkpt lat="-3.1114160" lon="37.3524670">
    <ele>3937.0</ele>
    <time>2026-06-22T08:44:14Z</time>
   </trkpt>
   <trkpt lat="-3.1114200" lon="37.3524680">
    <ele>3937.0</ele>
    <time>2026-06-22T08:44:15Z</time>
   </trkpt>
   <trkpt lat="-3.1114220" lon="37.3524670">
    <ele>3937.1</ele>
    <time>2026-06-22T08:44:16Z</time>
   </trkpt>
   <trkpt lat="-3.1114270" lon="37.3524740">
    <ele>3937.2</ele>
    <time>2026-06-22T08:44:17Z</time>
   </trkpt>
   <trkpt lat="-3.1114320" lon="37.3524720">
    <ele>3937.3</ele>
    <time>2026-06-22T08:44:18Z</time>
   </trkpt>
   <trkpt lat="-3.1114360" lon="37.3524720">
    <ele>3937.4</ele>
    <time>2026-06-22T08:44:19Z</time>
   </trkpt>
   <trkpt lat="-3.1114370" lon="37.3524770">
    <ele>3937.4</ele>
    <time>2026-06-22T08:44:20Z</time>
   </trkpt>
   <trkpt lat="-3.1114400" lon="37.3524780">
    <ele>3937.5</ele>
    <time>2026-06-22T08:44:21Z</time>
   </trkpt>
   <trkpt lat="-3.1114420" lon="37.3524840">
    <ele>3937.6</ele>
    <time>2026-06-22T08:44:22Z</time>
   </trkpt>
   <trkpt lat="-3.1114400" lon="37.3524860">
    <ele>3937.7</ele>
    <time>2026-06-22T08:44:23Z</time>
   </trkpt>
   <trkpt lat="-3.1114380" lon="37.3524910">
    <ele>3937.7</ele>
    <time>2026-06-22T08:44:24Z</time>
   </trkpt>
   <trkpt lat="-3.1114370" lon="37.3524960">
    <ele>3937.8</ele>
    <time>2026-06-22T08:44:25Z</time>
   </trkpt>
   <trkpt lat="-3.1114350" lon="37.3524970">
    <ele>3937.9</ele>
    <time>2026-06-22T08:44:26Z</time>
   </trkpt>
   <trkpt lat="-3.1114340" lon="37.3525020">
    <ele>3938.0</ele>
    <time>2026-06-22T08:44:27Z</time>
   </trkpt>
   <trkpt lat="-3.1114340" lon="37.3525040">
    <ele>3938.0</ele>
    <time>2026-06-22T08:44:28Z</time>
   </trkpt>
   <trkpt lat="-3.1114440" lon="37.3525040">
    <ele>3938.2</ele>
    <time>2026-06-22T08:44:29Z</time>
   </trkpt>
   <trkpt lat="-3.1114370" lon="37.3525090">
    <ele>3938.3</ele>
    <time>2026-06-22T08:44:30Z</time>
   </trkpt>
   <trkpt lat="-3.1114350" lon="37.3525100">
    <ele>3938.4</ele>
    <time>2026-06-22T08:44:31Z</time>
   </trkpt>
   <trkpt lat="-3.1114330" lon="37.3525130">
    <ele>3938.4</ele>
    <time>2026-06-22T08:44:32Z</time>
   </trkpt>
   <trkpt lat="-3.1114330" lon="37.3525190">
    <ele>3938.5</ele>
    <time>2026-06-22T08:44:33Z</time>
   </trkpt>
   <trkpt lat="-3.1114310" lon="37.3525230">
    <ele>3938.6</ele>
    <time>2026-06-22T08:44:34Z</time>
   </trkpt>
   <trkpt lat="-3.1114310" lon="37.3525230">
    <ele>3938.6</ele>
    <time>2026-06-22T08:44:35Z</time>
   </trkpt>
   <trkpt lat="-3.1114300" lon="37.3525290">
    <ele>3938.7</ele>
    <time>2026-06-22T08:44:36Z</time>
   </trkpt>
   <trkpt lat="-3.1114320" lon="37.3525310">
    <ele>3938.7</ele>
    <time>2026-06-22T08:44:37Z</time>
   </trkpt>
   <trkpt lat="-3.1114340" lon="37.3525320">
    <ele>3938.8</ele>
    <time>2026-06-22T08:44:38Z</time>
   </trkpt>
   <trkpt lat="-3.1114360" lon="37.3525340">
    <ele>3938.8</ele>
    <time>2026-06-22T08:44:39Z</time>
   </trkpt>
   <trkpt lat="-3.1114410" lon="37.3525360">
    <ele>3938.9</ele>
    <time>2026-06-22T08:44:40Z</time>
   </trkpt>
   <trkpt lat="-3.1114440" lon="37.3525360">
    <ele>3939.0</ele>
    <time>2026-06-22T08:44:41Z</time>
   </trkpt>
   <trkpt lat="-3.1114460" lon="37.3525370">
    <ele>3939.0</ele>
    <time>2026-06-22T08:44:42Z</time>
   </trkpt>
   <trkpt lat="-3.1114510" lon="37.3525340">
    <ele>3939.1</ele>
    <time>2026-06-22T08:44:43Z</time>
   </trkpt>
   <trkpt lat="-3.1114550" lon="37.3525360">
    <ele>3939.2</ele>
    <time>2026-06-22T08:44:44Z</time>
   </trkpt>
   <trkpt lat="-3.1114600" lon="37.3525320">
    <ele>3939.4</ele>
    <time>2026-06-22T08:44:45Z</time>
   </trkpt>
   <trkpt lat="-3.1114630" lon="37.3525330">
    <ele>3939.4</ele>
    <time>2026-06-22T08:44:46Z</time>
   </trkpt>
   <trkpt lat="-3.1114660" lon="37.3525300">
    <ele>3939.5</ele>
    <time>2026-06-22T08:44:47Z</time>
   </trkpt>
   <trkpt lat="-3.1114690" lon="37.3525280">
    <ele>3939.6</ele>
    <time>2026-06-22T08:44:48Z</time>
   </trkpt>
   <trkpt lat="-3.1114700" lon="37.3525270">
    <ele>3939.6</ele>
    <time>2026-06-22T08:44:49Z</time>
   </trkpt>
   <trkpt lat="-3.1114730" lon="37.3525270">
    <ele>3939.6</ele>
    <time>2026-06-22T08:44:50Z</time>
   </trkpt>
   <trkpt lat="-3.1114770" lon="37.3525270">
    <ele>3939.7</ele>
    <time>2026-06-22T08:44:51Z</time>
   </trkpt>
   <trkpt lat="-3.1114780" lon="37.3525290">
    <ele>3939.8</ele>
    <time>2026-06-22T08:44:52Z</time>
   </trkpt>
   <trkpt lat="-3.1114820" lon="37.3525290">
    <ele>3939.8</ele>
    <time>2026-06-22T08:44:53Z</time>
   </trkpt>
   <trkpt lat="-3.1114840" lon="37.3525320">
    <ele>3939.9</ele>
    <time>2026-06-22T08:44:54Z</time>
   </trkpt>
   <trkpt lat="-3.1114880" lon="37.3525360">
    <ele>3940.0</ele>
    <time>2026-06-22T08:44:55Z</time>
   </trkpt>
   <trkpt lat="-3.1114880" lon="37.3525390">
    <ele>3940.1</ele>
    <time>2026-06-22T08:44:56Z</time>
   </trkpt>
   <trkpt lat="-3.1114910" lon="37.3525420">
    <ele>3940.1</ele>
    <time>2026-06-22T08:44:57Z</time>
   </trkpt>
   <trkpt lat="-3.1114890" lon="37.3525450">
    <ele>3940.2</ele>
    <time>2026-06-22T08:44:58Z</time>
   </trkpt>
   <trkpt lat="-3.1114870" lon="37.3525500">
    <ele>3940.3</ele>
    <time>2026-06-22T08:44:59Z</time>
   </trkpt>
   <trkpt lat="-3.1114870" lon="37.3525530">
    <ele>3940.4</ele>
    <time>2026-06-22T08:45:00Z</time>
   </trkpt>
   <trkpt lat="-3.1114880" lon="37.3525580">
    <ele>3940.5</ele>
    <time>2026-06-22T08:45:01Z</time>
   </trkpt>
   <trkpt lat="-3.1114870" lon="37.3525640">
    <ele>3940.6</ele>
    <time>2026-06-22T08:45:02Z</time>
   </trkpt>
   <trkpt lat="-3.1114880" lon="37.3525650">
    <ele>3940.6</ele>
    <time>2026-06-22T08:45:03Z</time>
   </trkpt>
   <trkpt lat="-3.1114880" lon="37.3525680">
    <ele>3940.7</ele>
    <time>2026-06-22T08:45:04Z</time>
   </trkpt>
   <trkpt lat="-3.1114860" lon="37.3525840">
    <ele>3941.0</ele>
    <time>2026-06-22T08:45:05Z</time>
   </trkpt>
   <trkpt lat="-3.1114860" lon="37.3525820">
    <ele>3941.0</ele>
    <time>2026-06-22T08:45:06Z</time>
   </trkpt>
   <trkpt lat="-3.1114860" lon="37.3525750">
    <ele>3941.2</ele>
    <time>2026-06-22T08:45:07Z</time>
   </trkpt>
   <trkpt lat="-3.1114870" lon="37.3525760">
    <ele>3941.2</ele>
    <time>2026-06-22T08:45:08Z</time>
   </trkpt>
   <trkpt lat="-3.1114860" lon="37.3525790">
    <ele>3941.3</ele>
    <time>2026-06-22T08:45:09Z</time>
   </trkpt>
   <trkpt lat="-3.1114850" lon="37.3525860">
    <ele>3941.4</ele>
    <time>2026-06-22T08:45:10Z</time>
   </trkpt>
   <trkpt lat="-3.1114830" lon="37.3525890">
    <ele>3941.5</ele>
    <time>2026-06-22T08:45:11Z</time>
   </trkpt>
   <trkpt lat="-3.1114790" lon="37.3525920">
    <ele>3941.6</ele>
    <time>2026-06-22T08:45:12Z</time>
   </trkpt>
   <trkpt lat="-3.1114780" lon="37.3525970">
    <ele>3941.7</ele>
    <time>2026-06-22T08:45:13Z</time>
   </trkpt>
   <trkpt lat="-3.1114790" lon="37.3525960">
    <ele>3941.7</ele>
    <time>2026-06-22T08:45:14Z</time>
   </trkpt>
   <trkpt lat="-3.1114790" lon="37.3526040">
    <ele>3941.9</ele>
    <time>2026-06-22T08:45:15Z</time>
   </trkpt>
   <trkpt lat="-3.1114820" lon="37.3526090">
    <ele>3942.0</ele>
    <time>2026-06-22T08:45:16Z</time>
   </trkpt>
   <trkpt lat="-3.1114870" lon="37.3526100">
    <ele>3942.1</ele>
    <time>2026-06-22T08:45:17Z</time>
   </trkpt>
   <trkpt lat="-3.1114910" lon="37.3526110">
    <ele>3942.2</ele>
    <time>2026-06-22T08:45:18Z</time>
   </trkpt>
   <trkpt lat="-3.1114950" lon="37.3526120">
    <ele>3942.3</ele>
    <time>2026-06-22T08:45:19Z</time>
   </trkpt>
   <trkpt lat="-3.1114960" lon="37.3526130">
    <ele>3942.3</ele>
    <time>2026-06-22T08:45:20Z</time>
   </trkpt>
   <trkpt lat="-3.1114980" lon="37.3526150">
    <ele>3942.3</ele>
    <time>2026-06-22T08:45:21Z</time>
   </trkpt>
   <trkpt lat="-3.1114960" lon="37.3526170">
    <ele>3942.4</ele>
    <time>2026-06-22T08:45:22Z</time>
   </trkpt>
   <trkpt lat="-3.1114940" lon="37.3526200">
    <ele>3942.5</ele>
    <time>2026-06-22T08:45:23Z</time>
   </trkpt>
   <trkpt lat="-3.1114910" lon="37.3526200">
    <ele>3942.5</ele>
    <time>2026-06-22T08:45:24Z</time>
   </trkpt>
   <trkpt lat="-3.1114890" lon="37.3526220">
    <ele>3942.6</ele>
    <time>2026-06-22T08:45:25Z</time>
   </trkpt>
   <trkpt lat="-3.1114840" lon="37.3526250">
    <ele>3942.7</ele>
    <time>2026-06-22T08:45:26Z</time>
   </trkpt>
   <trkpt lat="-3.1114840" lon="37.3526290">
    <ele>3942.8</ele>
    <time>2026-06-22T08:45:27Z</time>
   </trkpt>
   <trkpt lat="-3.1114840" lon="37.3526320">
    <ele>3942.9</ele>
    <time>2026-06-22T08:45:28Z</time>
   </trkpt>
   <trkpt lat="-3.1114890" lon="37.3526360">
    <ele>3943.0</ele>
    <time>2026-06-22T08:45:29Z</time>
   </trkpt>
   <trkpt lat="-3.1114870" lon="37.3526360">
    <ele>3943.0</ele>
    <time>2026-06-22T08:45:30Z</time>
   </trkpt>
   <trkpt lat="-3.1114900" lon="37.3526400">
    <ele>3943.1</ele>
    <time>2026-06-22T08:45:31Z</time>
   </trkpt>
   <trkpt lat="-3.1114930" lon="37.3526420">
    <ele>3943.2</ele>
    <time>2026-06-22T08:45:32Z</time>
   </trkpt>
   <trkpt lat="-3.1114970" lon="37.3526450">
    <ele>3943.3</ele>
    <time>2026-06-22T08:45:33Z</time>
   </trkpt>
   <trkpt lat="-3.1114970" lon="37.3526470">
    <ele>3943.3</ele>
    <time>2026-06-22T08:45:34Z</time>
   </trkpt>
   <trkpt lat="-3.1114920" lon="37.3526480">
    <ele>3943.4</ele>
    <time>2026-06-22T08:45:35Z</time>
   </trkpt>
   <trkpt lat="-3.1114910" lon="37.3526510">
    <ele>3943.5</ele>
    <time>2026-06-22T08:45:36Z</time>
   </trkpt>
   <trkpt lat="-3.1114860" lon="37.3526520">
    <ele>3943.6</ele>
    <time>2026-06-22T08:45:37Z</time>
   </trkpt>
   <trkpt lat="-3.1114850" lon="37.3526550">
    <ele>3943.7</ele>
    <time>2026-06-22T08:45:38Z</time>
   </trkpt>
   <trkpt lat="-3.1114830" lon="37.3526610">
    <ele>3943.8</ele>
    <time>2026-06-22T08:45:39Z</time>
   </trkpt>
   <trkpt lat="-3.1114850" lon="37.3526650">
    <ele>3943.9</ele>
    <time>2026-06-22T08:45:40Z</time>
   </trkpt>
   <trkpt lat="-3.1114880" lon="37.3526670">
    <ele>3944.0</ele>
    <time>2026-06-22T08:45:41Z</time>
   </trkpt>
   <trkpt lat="-3.1114890" lon="37.3526620">
    <ele>3944.1</ele>
    <time>2026-06-22T08:45:42Z</time>
   </trkpt>
   <trkpt lat="-3.1114950" lon="37.3526640">
    <ele>3944.2</ele>
    <time>2026-06-22T08:45:43Z</time>
   </trkpt>
   <trkpt lat="-3.1115070" lon="37.3526770">
    <ele>3944.6</ele>
    <time>2026-06-22T08:45:44Z</time>
   </trkpt>
   <trkpt lat="-3.1115050" lon="37.3526730">
    <ele>3944.7</ele>
    <time>2026-06-22T08:45:45Z</time>
   </trkpt>
   <trkpt lat="-3.1115040" lon="37.3526760">
    <ele>3944.7</ele>
    <time>2026-06-22T08:45:46Z</time>
   </trkpt>
   <trkpt lat="-3.1115040" lon="37.3526800">
    <ele>3944.8</ele>
    <time>2026-06-22T08:45:47Z</time>
   </trkpt>
   <trkpt lat="-3.1115010" lon="37.3526820">
    <ele>3944.9</ele>
    <time>2026-06-22T08:45:48Z</time>
   </trkpt>
   <trkpt lat="-3.1115010" lon="37.3526860">
    <ele>3945.0</ele>
    <time>2026-06-22T08:45:49Z</time>
   </trkpt>
   <trkpt lat="-3.1114980" lon="37.3526880">
    <ele>3945.1</ele>
    <time>2026-06-22T08:45:50Z</time>
   </trkpt>
   <trkpt lat="-3.1114980" lon="37.3526910">
    <ele>3945.1</ele>
    <time>2026-06-22T08:45:51Z</time>
   </trkpt>
   <trkpt lat="-3.1114980" lon="37.3526960">
    <ele>3945.2</ele>
    <time>2026-06-22T08:45:52Z</time>
   </trkpt>
   <trkpt lat="-3.1115010" lon="37.3526970">
    <ele>3945.3</ele>
    <time>2026-06-22T08:45:53Z</time>
   </trkpt>
   <trkpt lat="-3.1115040" lon="37.3526980">
    <ele>3945.4</ele>
    <time>2026-06-22T08:45:54Z</time>
   </trkpt>
   <trkpt lat="-3.1115070" lon="37.3526950">
    <ele>3945.5</ele>
    <time>2026-06-22T08:45:55Z</time>
   </trkpt>
   <trkpt lat="-3.1115110" lon="37.3526950">
    <ele>3945.5</ele>
    <time>2026-06-22T08:45:56Z</time>
   </trkpt>
   <trkpt lat="-3.1115150" lon="37.3526950">
    <ele>3945.6</ele>
    <time>2026-06-22T08:45:57Z</time>
   </trkpt>
   <trkpt lat="-3.1115190" lon="37.3526970">
    <ele>3945.7</ele>
    <time>2026-06-22T08:45:58Z</time>
   </trkpt>
   <trkpt lat="-3.1115190" lon="37.3527010">
    <ele>3945.8</ele>
    <time>2026-06-22T08:45:59Z</time>
   </trkpt>
   <trkpt lat="-3.1115160" lon="37.3527010">
    <ele>3945.9</ele>
    <time>2026-06-22T08:46:00Z</time>
   </trkpt>
   <trkpt lat="-3.1115140" lon="37.3527050">
    <ele>3946.0</ele>
    <time>2026-06-22T08:46:01Z</time>
   </trkpt>
   <trkpt lat="-3.1115110" lon="37.3527040">
    <ele>3946.0</ele>
    <time>2026-06-22T08:46:02Z</time>
   </trkpt>
   <trkpt lat="-3.1115090" lon="37.3527090">
    <ele>3946.2</ele>
    <time>2026-06-22T08:46:03Z</time>
   </trkpt>
   <trkpt lat="-3.1115090" lon="37.3527110">
    <ele>3946.2</ele>
    <time>2026-06-22T08:46:04Z</time>
   </trkpt>
   <trkpt lat="-3.1115120" lon="37.3527150">
    <ele>3946.3</ele>
    <time>2026-06-22T08:46:05Z</time>
   </trkpt>
   <trkpt lat="-3.1115150" lon="37.3527170">
    <ele>3946.4</ele>
    <time>2026-06-22T08:46:06Z</time>
   </trkpt>
   <trkpt lat="-3.1115180" lon="37.3527180">
    <ele>3946.4</ele>
    <time>2026-06-22T08:46:07Z</time>
   </trkpt>
   <trkpt lat="-3.1115200" lon="37.3527170">
    <ele>3946.5</ele>
    <time>2026-06-22T08:46:08Z</time>
   </trkpt>
   <trkpt lat="-3.1115250" lon="37.3527160">
    <ele>3946.6</ele>
    <time>2026-06-22T08:46:09Z</time>
   </trkpt>
   <trkpt lat="-3.1115290" lon="37.3527160">
    <ele>3946.7</ele>
    <time>2026-06-22T08:46:10Z</time>
   </trkpt>
   <trkpt lat="-3.1115320" lon="37.3527200">
    <ele>3946.8</ele>
    <time>2026-06-22T08:46:11Z</time>
   </trkpt>
   <trkpt lat="-3.1115320" lon="37.3527250">
    <ele>3946.9</ele>
    <time>2026-06-22T08:46:12Z</time>
   </trkpt>
   <trkpt lat="-3.1115310" lon="37.3527250">
    <ele>3946.9</ele>
    <time>2026-06-22T08:46:13Z</time>
   </trkpt>
   <trkpt lat="-3.1115290" lon="37.3527230">
    <ele>3947.0</ele>
    <time>2026-06-22T08:46:14Z</time>
   </trkpt>
   <trkpt lat="-3.1115310" lon="37.3527270">
    <ele>3947.1</ele>
    <time>2026-06-22T08:46:15Z</time>
   </trkpt>
   <trkpt lat="-3.1115260" lon="37.3527290">
    <ele>3947.2</ele>
    <time>2026-06-22T08:46:16Z</time>
   </trkpt>
   <trkpt lat="-3.1115270" lon="37.3527330">
    <ele>3947.3</ele>
    <time>2026-06-22T08:46:17Z</time>
   </trkpt>
   <trkpt lat="-3.1115260" lon="37.3527360">
    <ele>3947.3</ele>
    <time>2026-06-22T08:46:18Z</time>
   </trkpt>
   <trkpt lat="-3.1115250" lon="37.3527380">
    <ele>3947.4</ele>
    <time>2026-06-22T08:46:19Z</time>
   </trkpt>
   <trkpt lat="-3.1115240" lon="37.3527460">
    <ele>3947.6</ele>
    <time>2026-06-22T08:46:20Z</time>
   </trkpt>
   <trkpt lat="-3.1115210" lon="37.3527470">
    <ele>3947.6</ele>
    <time>2026-06-22T08:46:21Z</time>
   </trkpt>
   <trkpt lat="-3.1115200" lon="37.3527510">
    <ele>3947.7</ele>
    <time>2026-06-22T08:46:22Z</time>
   </trkpt>
   <trkpt lat="-3.1115190" lon="37.3527550">
    <ele>3947.8</ele>
    <time>2026-06-22T08:46:23Z</time>
   </trkpt>
   <trkpt lat="-3.1115190" lon="37.3527590">
    <ele>3947.9</ele>
    <time>2026-06-22T08:46:24Z</time>
   </trkpt>
   <trkpt lat="-3.1115300" lon="37.3527670">
    <ele>3948.2</ele>
    <time>2026-06-22T08:46:25Z</time>
   </trkpt>
   <trkpt lat="-3.1115200" lon="37.3527650">
    <ele>3948.4</ele>
    <time>2026-06-22T08:46:26Z</time>
   </trkpt>
   <trkpt lat="-3.1115210" lon="37.3527700">
    <ele>3948.5</ele>
    <time>2026-06-22T08:46:27Z</time>
   </trkpt>
   <trkpt lat="-3.1115240" lon="37.3527760">
    <ele>3948.6</ele>
    <time>2026-06-22T08:46:28Z</time>
   </trkpt>
   <trkpt lat="-3.1115250" lon="37.3527820">
    <ele>3948.8</ele>
    <time>2026-06-22T08:46:29Z</time>
   </trkpt>
   <trkpt lat="-3.1115230" lon="37.3527830">
    <ele>3948.8</ele>
    <time>2026-06-22T08:46:30Z</time>
   </trkpt>
   <trkpt lat="-3.1115230" lon="37.3527870">
    <ele>3948.9</ele>
    <time>2026-06-22T08:46:31Z</time>
   </trkpt>
   <trkpt lat="-3.1115230" lon="37.3527910">
    <ele>3949.0</ele>
    <time>2026-06-22T08:46:32Z</time>
   </trkpt>
   <trkpt lat="-3.1115240" lon="37.3527920">
    <ele>3949.0</ele>
    <time>2026-06-22T08:46:33Z</time>
   </trkpt>
   <trkpt lat="-3.1115210" lon="37.3527980">
    <ele>3949.2</ele>
    <time>2026-06-22T08:46:34Z</time>
   </trkpt>
   <trkpt lat="-3.1115210" lon="37.3527990">
    <ele>3949.2</ele>
    <time>2026-06-22T08:46:35Z</time>
   </trkpt>
   <trkpt lat="-3.1115210" lon="37.3528030">
    <ele>3949.3</ele>
    <time>2026-06-22T08:46:36Z</time>
   </trkpt>
   <trkpt lat="-3.1115220" lon="37.3528080">
    <ele>3949.4</ele>
    <time>2026-06-22T08:46:37Z</time>
   </trkpt>
   <trkpt lat="-3.1115230" lon="37.3528110">
    <ele>3949.4</ele>
    <time>2026-06-22T08:46:38Z</time>
   </trkpt>
   <trkpt lat="-3.1115260" lon="37.3528140">
    <ele>3949.5</ele>
    <time>2026-06-22T08:46:39Z</time>
   </trkpt>
   <trkpt lat="-3.1115260" lon="37.3528150">
    <ele>3949.6</ele>
    <time>2026-06-22T08:46:40Z</time>
   </trkpt>
   <trkpt lat="-3.1115310" lon="37.3528180">
    <ele>3949.7</ele>
    <time>2026-06-22T08:46:41Z</time>
   </trkpt>
   <trkpt lat="-3.1115320" lon="37.3528220">
    <ele>3949.8</ele>
    <time>2026-06-22T08:46:42Z</time>
   </trkpt>
   <trkpt lat="-3.1115310" lon="37.3528250">
    <ele>3949.8</ele>
    <time>2026-06-22T08:46:43Z</time>
   </trkpt>
   <trkpt lat="-3.1115300" lon="37.3528280">
    <ele>3949.9</ele>
    <time>2026-06-22T08:46:44Z</time>
   </trkpt>
   <trkpt lat="-3.1115300" lon="37.3528330">
    <ele>3950.0</ele>
    <time>2026-06-22T08:46:45Z</time>
   </trkpt>
   <trkpt lat="-3.1115340" lon="37.3528390">
    <ele>3950.2</ele>
    <time>2026-06-22T08:46:46Z</time>
   </trkpt>
   <trkpt lat="-3.1115350" lon="37.3528390">
    <ele>3950.2</ele>
    <time>2026-06-22T08:46:47Z</time>
   </trkpt>
   <trkpt lat="-3.1115390" lon="37.3528390">
    <ele>3950.3</ele>
    <time>2026-06-22T08:46:48Z</time>
   </trkpt>
   <trkpt lat="-3.1115440" lon="37.3528390">
    <ele>3950.4</ele>
    <time>2026-06-22T08:46:49Z</time>
   </trkpt>
   <trkpt lat="-3.1115470" lon="37.3528370">
    <ele>3950.4</ele>
    <time>2026-06-22T08:46:50Z</time>
   </trkpt>
   <trkpt lat="-3.1115520" lon="37.3528390">
    <ele>3950.6</ele>
    <time>2026-06-22T08:46:51Z</time>
   </trkpt>
   <trkpt lat="-3.1115540" lon="37.3528400">
    <ele>3950.6</ele>
    <time>2026-06-22T08:46:52Z</time>
   </trkpt>
   <trkpt lat="-3.1115540" lon="37.3528440">
    <ele>3950.7</ele>
    <time>2026-06-22T08:46:53Z</time>
   </trkpt>
   <trkpt lat="-3.1115540" lon="37.3528480">
    <ele>3950.8</ele>
    <time>2026-06-22T08:46:54Z</time>
   </trkpt>
   <trkpt lat="-3.1115540" lon="37.3528520">
    <ele>3950.9</ele>
    <time>2026-06-22T08:46:55Z</time>
   </trkpt>
   <trkpt lat="-3.1115550" lon="37.3528560">
    <ele>3950.9</ele>
    <time>2026-06-22T08:46:56Z</time>
   </trkpt>
   <trkpt lat="-3.1115540" lon="37.3528550">
    <ele>3951.0</ele>
    <time>2026-06-22T08:46:57Z</time>
   </trkpt>
   <trkpt lat="-3.1115530" lon="37.3528550">
    <ele>3951.0</ele>
    <time>2026-06-22T08:46:58Z</time>
   </trkpt>
   <trkpt lat="-3.1115530" lon="37.3528540">
    <ele>3951.0</ele>
    <time>2026-06-22T08:46:59Z</time>
   </trkpt>
   <trkpt lat="-3.1115530" lon="37.3528570">
    <ele>3951.1</ele>
    <time>2026-06-22T08:47:00Z</time>
   </trkpt>
   <trkpt lat="-3.1115490" lon="37.3528580">
    <ele>3951.2</ele>
    <time>2026-06-22T08:47:01Z</time>
   </trkpt>
   <trkpt lat="-3.1115500" lon="37.3528590">
    <ele>3951.2</ele>
    <time>2026-06-22T08:47:02Z</time>
   </trkpt>
   <trkpt lat="-3.1115490" lon="37.3528640">
    <ele>3951.3</ele>
    <time>2026-06-22T08:47:03Z</time>
   </trkpt>
   <trkpt lat="-3.1115490" lon="37.3528740">
    <ele>3951.5</ele>
    <time>2026-06-22T08:47:04Z</time>
   </trkpt>
   <trkpt lat="-3.1115500" lon="37.3528800">
    <ele>3951.7</ele>
    <time>2026-06-22T08:47:05Z</time>
   </trkpt>
   <trkpt lat="-3.1115480" lon="37.3528830">
    <ele>3951.7</ele>
    <time>2026-06-22T08:47:06Z</time>
   </trkpt>
   <trkpt lat="-3.1115490" lon="37.3528860">
    <ele>3951.8</ele>
    <time>2026-06-22T08:47:07Z</time>
   </trkpt>
   <trkpt lat="-3.1115510" lon="37.3528910">
    <ele>3951.9</ele>
    <time>2026-06-22T08:47:08Z</time>
   </trkpt>
   <trkpt lat="-3.1115510" lon="37.3528920">
    <ele>3951.9</ele>
    <time>2026-06-22T08:47:09Z</time>
   </trkpt>
   <trkpt lat="-3.1115550" lon="37.3528970">
    <ele>3952.1</ele>
    <time>2026-06-22T08:47:10Z</time>
   </trkpt>
   <trkpt lat="-3.1115550" lon="37.3529000">
    <ele>3952.1</ele>
    <time>2026-06-22T08:47:11Z</time>
   </trkpt>
   <trkpt lat="-3.1115560" lon="37.3529000">
    <ele>3952.2</ele>
    <time>2026-06-22T08:47:12Z</time>
   </trkpt>
   <trkpt lat="-3.1115530" lon="37.3529030">
    <ele>3952.2</ele>
    <time>2026-06-22T08:47:13Z</time>
   </trkpt>
   <trkpt lat="-3.1115480" lon="37.3529030">
    <ele>3952.3</ele>
    <time>2026-06-22T08:47:14Z</time>
   </trkpt>
   <trkpt lat="-3.1115470" lon="37.3529100">
    <ele>3952.5</ele>
    <time>2026-06-22T08:47:15Z</time>
   </trkpt>
   <trkpt lat="-3.1115410" lon="37.3529120">
    <ele>3952.6</ele>
    <time>2026-06-22T08:47:16Z</time>
   </trkpt>
   <trkpt lat="-3.1115360" lon="37.3529150">
    <ele>3952.7</ele>
    <time>2026-06-22T08:47:17Z</time>
   </trkpt>
   <trkpt lat="-3.1115340" lon="37.3529160">
    <ele>3952.8</ele>
    <time>2026-06-22T08:47:18Z</time>
   </trkpt>
   <trkpt lat="-3.1115340" lon="37.3529210">
    <ele>3952.9</ele>
    <time>2026-06-22T08:47:19Z</time>
   </trkpt>
   <trkpt lat="-3.1115380" lon="37.3529260">
    <ele>3953.0</ele>
    <time>2026-06-22T08:47:20Z</time>
   </trkpt>
   <trkpt lat="-3.1115400" lon="37.3529280">
    <ele>3953.1</ele>
    <time>2026-06-22T08:47:21Z</time>
   </trkpt>
   <trkpt lat="-3.1115430" lon="37.3529310">
    <ele>3953.2</ele>
    <time>2026-06-22T08:47:23Z</time>
   </trkpt>
   <trkpt lat="-3.1115490" lon="37.3529330">
    <ele>3953.3</ele>
    <time>2026-06-22T08:47:24Z</time>
   </trkpt>
   <trkpt lat="-3.1115450" lon="37.3529290">
    <ele>3953.4</ele>
    <time>2026-06-22T08:47:25Z</time>
   </trkpt>
   <trkpt lat="-3.1115520" lon="37.3529370">
    <ele>3953.6</ele>
    <time>2026-06-22T08:47:26Z</time>
   </trkpt>
   <trkpt lat="-3.1115540" lon="37.3529390">
    <ele>3953.7</ele>
    <time>2026-06-22T08:47:27Z</time>
   </trkpt>
   <trkpt lat="-3.1115540" lon="37.3529430">
    <ele>3953.7</ele>
    <time>2026-06-22T08:47:28Z</time>
   </trkpt>
   <trkpt lat="-3.1115550" lon="37.3529460">
    <ele>3953.8</ele>
    <time>2026-06-22T08:47:29Z</time>
   </trkpt>
   <trkpt lat="-3.1115520" lon="37.3529470">
    <ele>3953.9</ele>
    <time>2026-06-22T08:47:30Z</time>
   </trkpt>
   <trkpt lat="-3.1115490" lon="37.3529480">
    <ele>3953.9</ele>
    <time>2026-06-22T08:47:31Z</time>
   </trkpt>
   <trkpt lat="-3.1115480" lon="37.3529490">
    <ele>3954.0</ele>
    <time>2026-06-22T08:47:32Z</time>
   </trkpt>
   <trkpt lat="-3.1115470" lon="37.3529490">
    <ele>3954.0</ele>
    <time>2026-06-22T08:47:33Z</time>
   </trkpt>
   <trkpt lat="-3.1115440" lon="37.3529520">
    <ele>3954.1</ele>
    <time>2026-06-22T08:47:34Z</time>
   </trkpt>
   <trkpt lat="-3.1115390" lon="37.3529520">
    <ele>3954.2</ele>
    <time>2026-06-22T08:47:35Z</time>
   </trkpt>
   <trkpt lat="-3.1115390" lon="37.3529580">
    <ele>3954.3</ele>
    <time>2026-06-22T08:47:36Z</time>
   </trkpt>
   <trkpt lat="-3.1115390" lon="37.3529600">
    <ele>3954.3</ele>
    <time>2026-06-22T08:47:37Z</time>
   </trkpt>
   <trkpt lat="-3.1115380" lon="37.3529650">
    <ele>3954.4</ele>
    <time>2026-06-22T08:47:38Z</time>
   </trkpt>
   <trkpt lat="-3.1115400" lon="37.3529690">
    <ele>3954.5</ele>
    <time>2026-06-22T08:47:39Z</time>
   </trkpt>
   <trkpt lat="-3.1115430" lon="37.3529750">
    <ele>3954.6</ele>
    <time>2026-06-22T08:47:40Z</time>
   </trkpt>
   <trkpt lat="-3.1115450" lon="37.3529750">
    <ele>3954.7</ele>
    <time>2026-06-22T08:47:41Z</time>
   </trkpt>
   <trkpt lat="-3.1115470" lon="37.3529760">
    <ele>3954.7</ele>
    <time>2026-06-22T08:47:42Z</time>
   </trkpt>
   <trkpt lat="-3.1115510" lon="37.3529800">
    <ele>3954.8</ele>
    <time>2026-06-22T08:47:43Z</time>
   </trkpt>
   <trkpt lat="-3.1115530" lon="37.3529840">
    <ele>3954.9</ele>
    <time>2026-06-22T08:47:44Z</time>
   </trkpt>
   <trkpt lat="-3.1115530" lon="37.3529860">
    <ele>3955.0</ele>
    <time>2026-06-22T08:47:45Z</time>
   </trkpt>
   <trkpt lat="-3.1115520" lon="37.3529930">
    <ele>3955.1</ele>
    <time>2026-06-22T08:47:46Z</time>
   </trkpt>
   <trkpt lat="-3.1115480" lon="37.3529920">
    <ele>3955.2</ele>
    <time>2026-06-22T08:47:47Z</time>
   </trkpt>
   <trkpt lat="-3.1115450" lon="37.3529930">
    <ele>3955.3</ele>
    <time>2026-06-22T08:47:48Z</time>
   </trkpt>
   <trkpt lat="-3.1115420" lon="37.3529970">
    <ele>3955.4</ele>
    <time>2026-06-22T08:47:49Z</time>
   </trkpt>
   <trkpt lat="-3.1115400" lon="37.3529980">
    <ele>3955.4</ele>
    <time>2026-06-22T08:47:50Z</time>
   </trkpt>
   <trkpt lat="-3.1115380" lon="37.3530000">
    <ele>3955.5</ele>
    <time>2026-06-22T08:47:51Z</time>
   </trkpt>
   <trkpt lat="-3.1115360" lon="37.3530020">
    <ele>3955.5</ele>
    <time>2026-06-22T08:47:52Z</time>
   </trkpt>
   <trkpt lat="-3.1115320" lon="37.3530050">
    <ele>3955.6</ele>
    <time>2026-06-22T08:47:53Z</time>
   </trkpt>
   <trkpt lat="-3.1115310" lon="37.3530080">
    <ele>3955.7</ele>
    <time>2026-06-22T08:47:54Z</time>
   </trkpt>
   <trkpt lat="-3.1115290" lon="37.3530150">
    <ele>3955.8</ele>
    <time>2026-06-22T08:47:55Z</time>
   </trkpt>
   <trkpt lat="-3.1115300" lon="37.3530130">
    <ele>3955.9</ele>
    <time>2026-06-22T08:47:56Z</time>
   </trkpt>
   <trkpt lat="-3.1115310" lon="37.3530180">
    <ele>3956.0</ele>
    <time>2026-06-22T08:47:57Z</time>
   </trkpt>
   <trkpt lat="-3.1115340" lon="37.3530200">
    <ele>3956.0</ele>
    <time>2026-06-22T08:47:58Z</time>
   </trkpt>
   <trkpt lat="-3.1115360" lon="37.3530190">
    <ele>3956.1</ele>
    <time>2026-06-22T08:47:59Z</time>
   </trkpt>
   <trkpt lat="-3.1115400" lon="37.3530190">
    <ele>3956.2</ele>
    <time>2026-06-22T08:48:00Z</time>
   </trkpt>
   <trkpt lat="-3.1115430" lon="37.3530170">
    <ele>3956.3</ele>
    <time>2026-06-22T08:48:01Z</time>
   </trkpt>
   <trkpt lat="-3.1115450" lon="37.3530140">
    <ele>3956.4</ele>
    <time>2026-06-22T08:48:02Z</time>
   </trkpt>
   <trkpt lat="-3.1115470" lon="37.3530120">
    <ele>3956.5</ele>
    <time>2026-06-22T08:48:03Z</time>
   </trkpt>
   <trkpt lat="-3.1115490" lon="37.3530100">
    <ele>3956.5</ele>
    <time>2026-06-22T08:48:04Z</time>
   </trkpt>
   <trkpt lat="-3.1115520" lon="37.3530140">
    <ele>3956.7</ele>
    <time>2026-06-22T08:48:05Z</time>
   </trkpt>
   <trkpt lat="-3.1115640" lon="37.3530240">
    <ele>3957.1</ele>
    <time>2026-06-22T08:48:06Z</time>
   </trkpt>
   <trkpt lat="-3.1115670" lon="37.3530240">
    <ele>3957.2</ele>
    <time>2026-06-22T08:48:07Z</time>
   </trkpt>
   <trkpt lat="-3.1115650" lon="37.3530240">
    <ele>3957.2</ele>
    <time>2026-06-22T08:48:08Z</time>
   </trkpt>
   <trkpt lat="-3.1115660" lon="37.3530280">
    <ele>3957.3</ele>
    <time>2026-06-22T08:48:09Z</time>
   </trkpt>
   <trkpt lat="-3.1115640" lon="37.3530280">
    <ele>3957.4</ele>
    <time>2026-06-22T08:48:10Z</time>
   </trkpt>
   <trkpt lat="-3.1115640" lon="37.3530330">
    <ele>3957.5</ele>
    <time>2026-06-22T08:48:11Z</time>
   </trkpt>
   <trkpt lat="-3.1115640" lon="37.3530350">
    <ele>3957.6</ele>
    <time>2026-06-22T08:48:12Z</time>
   </trkpt>
   <trkpt lat="-3.1115590" lon="37.3530360">
    <ele>3957.7</ele>
    <time>2026-06-22T08:48:13Z</time>
   </trkpt>
   <trkpt lat="-3.1115610" lon="37.3530400">
    <ele>3957.8</ele>
    <time>2026-06-22T08:48:14Z</time>
   </trkpt>
   <trkpt lat="-3.1115650" lon="37.3530470">
    <ele>3958.0</ele>
    <time>2026-06-22T08:48:15Z</time>
   </trkpt>
   <trkpt lat="-3.1115670" lon="37.3530470">
    <ele>3958.1</ele>
    <time>2026-06-22T08:48:16Z</time>
   </trkpt>
   <trkpt lat="-3.1115690" lon="37.3530440">
    <ele>3958.2</ele>
    <time>2026-06-22T08:48:17Z</time>
   </trkpt>
   <trkpt lat="-3.1115690" lon="37.3530420">
    <ele>3958.2</ele>
    <time>2026-06-22T08:48:18Z</time>
   </trkpt>
   <trkpt lat="-3.1115740" lon="37.3530410">
    <ele>3958.4</ele>
    <time>2026-06-22T08:48:19Z</time>
   </trkpt>
   <trkpt lat="-3.1115760" lon="37.3530360">
    <ele>3958.5</ele>
    <time>2026-06-22T08:48:20Z</time>
   </trkpt>
   <trkpt lat="-3.1115770" lon="37.3530340">
    <ele>3958.6</ele>
    <time>2026-06-22T08:48:21Z</time>
   </trkpt>
   <trkpt lat="-3.1115810" lon="37.3530320">
    <ele>3958.7</ele>
    <time>2026-06-22T08:48:22Z</time>
   </trkpt>
   <trkpt lat="-3.1115850" lon="37.3530300">
    <ele>3958.8</ele>
    <time>2026-06-22T08:48:23Z</time>
   </trkpt>
   <trkpt lat="-3.1115850" lon="37.3530260">
    <ele>3958.9</ele>
    <time>2026-06-22T08:48:24Z</time>
   </trkpt>
   <trkpt lat="-3.1115900" lon="37.3530280">
    <ele>3959.1</ele>
    <time>2026-06-22T08:48:25Z</time>
   </trkpt>
   <trkpt lat="-3.1115950" lon="37.3530300">
    <ele>3959.2</ele>
    <time>2026-06-22T08:48:26Z</time>
   </trkpt>
   <trkpt lat="-3.1115970" lon="37.3530300">
    <ele>3959.3</ele>
    <time>2026-06-22T08:48:27Z</time>
   </trkpt>
   <trkpt lat="-3.1116020" lon="37.3530340">
    <ele>3959.4</ele>
    <time>2026-06-22T08:48:28Z</time>
   </trkpt>
   <trkpt lat="-3.1115910" lon="37.3530250">
    <ele>3959.8</ele>
    <time>2026-06-22T08:48:29Z</time>
   </trkpt>
   <trkpt lat="-3.1116000" lon="37.3530320">
    <ele>3960.1</ele>
    <time>2026-06-22T08:48:30Z</time>
   </trkpt>
   <trkpt lat="-3.1115980" lon="37.3530350">
    <ele>3960.2</ele>
    <time>2026-06-22T08:48:31Z</time>
   </trkpt>
   <trkpt lat="-3.1115990" lon="37.3530360">
    <ele>3960.2</ele>
    <time>2026-06-22T08:48:32Z</time>
   </trkpt>
   <trkpt lat="-3.1116010" lon="37.3530370">
    <ele>3960.3</ele>
    <time>2026-06-22T08:48:33Z</time>
   </trkpt>
   <trkpt lat="-3.1116010" lon="37.3530390">
    <ele>3960.4</ele>
    <time>2026-06-22T08:48:34Z</time>
   </trkpt>
   <trkpt lat="-3.1116030" lon="37.3530410">
    <ele>3960.4</ele>
    <time>2026-06-22T08:48:35Z</time>
   </trkpt>
   <trkpt lat="-3.1116050" lon="37.3530400">
    <ele>3960.5</ele>
    <time>2026-06-22T08:48:36Z</time>
   </trkpt>
   <trkpt lat="-3.1116100" lon="37.3530430">
    <ele>3960.6</ele>
    <time>2026-06-22T08:48:37Z</time>
   </trkpt>
   <trkpt lat="-3.1116110" lon="37.3530440">
    <ele>3960.7</ele>
    <time>2026-06-22T08:48:38Z</time>
   </trkpt>
   <trkpt lat="-3.1116160" lon="37.3530420">
    <ele>3960.8</ele>
    <time>2026-06-22T08:48:39Z</time>
   </trkpt>
   <trkpt lat="-3.1116200" lon="37.3530400">
    <ele>3961.0</ele>
    <time>2026-06-22T08:48:40Z</time>
   </trkpt>
   <trkpt lat="-3.1116260" lon="37.3530380">
    <ele>3961.1</ele>
    <time>2026-06-22T08:48:41Z</time>
   </trkpt>
   <trkpt lat="-3.1116310" lon="37.3530340">
    <ele>3961.3</ele>
    <time>2026-06-22T08:48:42Z</time>
   </trkpt>
   <trkpt lat="-3.1116350" lon="37.3530340">
    <ele>3961.4</ele>
    <time>2026-06-22T08:48:43Z</time>
   </trkpt>
   <trkpt lat="-3.1116410" lon="37.3530330">
    <ele>3961.6</ele>
    <time>2026-06-22T08:48:44Z</time>
   </trkpt>
   <trkpt lat="-3.1116450" lon="37.3530330">
    <ele>3961.7</ele>
    <time>2026-06-22T08:48:45Z</time>
   </trkpt>
   <trkpt lat="-3.1116490" lon="37.3530300">
    <ele>3961.8</ele>
    <time>2026-06-22T08:48:46Z</time>
   </trkpt>
   <trkpt lat="-3.1116540" lon="37.3530320">
    <ele>3962.0</ele>
    <time>2026-06-22T08:48:47Z</time>
   </trkpt>
   <trkpt lat="-3.1116570" lon="37.3530290">
    <ele>3962.1</ele>
    <time>2026-06-22T08:48:48Z</time>
   </trkpt>
   <trkpt lat="-3.1116610" lon="37.3530330">
    <ele>3962.3</ele>
    <time>2026-06-22T08:48:49Z</time>
   </trkpt>
   <trkpt lat="-3.1116620" lon="37.3530390">
    <ele>3962.4</ele>
    <time>2026-06-22T08:48:50Z</time>
   </trkpt>
   <trkpt lat="-3.1116620" lon="37.3530420">
    <ele>3962.5</ele>
    <time>2026-06-22T08:48:51Z</time>
   </trkpt>
   <trkpt lat="-3.1116590" lon="37.3530490">
    <ele>3962.7</ele>
    <time>2026-06-22T08:48:52Z</time>
   </trkpt>
   <trkpt lat="-3.1116560" lon="37.3530510">
    <ele>3962.8</ele>
    <time>2026-06-22T08:48:53Z</time>
   </trkpt>
   <trkpt lat="-3.1116590" lon="37.3530570">
    <ele>3963.0</ele>
    <time>2026-06-22T08:48:54Z</time>
   </trkpt>
   <trkpt lat="-3.1116610" lon="37.3530600">
    <ele>3963.1</ele>
    <time>2026-06-22T08:48:55Z</time>
   </trkpt>
   <trkpt lat="-3.1116600" lon="37.3530620">
    <ele>3963.2</ele>
    <time>2026-06-22T08:48:56Z</time>
   </trkpt>
   <trkpt lat="-3.1116590" lon="37.3530650">
    <ele>3963.3</ele>
    <time>2026-06-22T08:48:57Z</time>
   </trkpt>
   <trkpt lat="-3.1116580" lon="37.3530700">
    <ele>3963.4</ele>
    <time>2026-06-22T08:48:58Z</time>
   </trkpt>
   <trkpt lat="-3.1116600" lon="37.3530740">
    <ele>3963.6</ele>
    <time>2026-06-22T08:48:59Z</time>
   </trkpt>
   <trkpt lat="-3.1116630" lon="37.3530740">
    <ele>3963.6</ele>
    <time>2026-06-22T08:49:00Z</time>
   </trkpt>
   <trkpt lat="-3.1116650" lon="37.3530750">
    <ele>3963.7</ele>
    <time>2026-06-22T08:49:01Z</time>
   </trkpt>
   <trkpt lat="-3.1116690" lon="37.3530750">
    <ele>3963.8</ele>
    <time>2026-06-22T08:49:02Z</time>
   </trkpt>
   <trkpt lat="-3.1116720" lon="37.3530740">
    <ele>3963.9</ele>
    <time>2026-06-22T08:49:03Z</time>
   </trkpt>
   <trkpt lat="-3.1116750" lon="37.3530720">
    <ele>3964.0</ele>
    <time>2026-06-22T08:49:04Z</time>
   </trkpt>
   <trkpt lat="-3.1116780" lon="37.3530730">
    <ele>3964.1</ele>
    <time>2026-06-22T08:49:05Z</time>
   </trkpt>
   <trkpt lat="-3.1116820" lon="37.3530720">
    <ele>3964.2</ele>
    <time>2026-06-22T08:49:06Z</time>
   </trkpt>
   <trkpt lat="-3.1116840" lon="37.3530720">
    <ele>3964.3</ele>
    <time>2026-06-22T08:49:07Z</time>
   </trkpt>
   <trkpt lat="-3.1116850" lon="37.3530700">
    <ele>3964.4</ele>
    <time>2026-06-22T08:49:08Z</time>
   </trkpt>
   <trkpt lat="-3.1116890" lon="37.3530690">
    <ele>3964.5</ele>
    <time>2026-06-22T08:49:09Z</time>
   </trkpt>
   <trkpt lat="-3.1116920" lon="37.3530680">
    <ele>3964.6</ele>
    <time>2026-06-22T08:49:10Z</time>
   </trkpt>
   <trkpt lat="-3.1116920" lon="37.3530680">
    <ele>3964.6</ele>
    <time>2026-06-22T08:49:11Z</time>
   </trkpt>
   <trkpt lat="-3.1116950" lon="37.3530630">
    <ele>3964.8</ele>
    <time>2026-06-22T08:49:12Z</time>
   </trkpt>
   <trkpt lat="-3.1116970" lon="37.3530620">
    <ele>3964.8</ele>
    <time>2026-06-22T08:49:13Z</time>
   </trkpt>
   <trkpt lat="-3.1117000" lon="37.3530610">
    <ele>3964.9</ele>
    <time>2026-06-22T08:49:14Z</time>
   </trkpt>
   <trkpt lat="-3.1117040" lon="37.3530580">
    <ele>3965.1</ele>
    <time>2026-06-22T08:49:15Z</time>
   </trkpt>
   <trkpt lat="-3.1117080" lon="37.3530600">
    <ele>3965.2</ele>
    <time>2026-06-22T08:49:16Z</time>
   </trkpt>
   <trkpt lat="-3.1117100" lon="37.3530600">
    <ele>3965.3</ele>
    <time>2026-06-22T08:49:17Z</time>
   </trkpt>
   <trkpt lat="-3.1117110" lon="37.3530630">
    <ele>3965.4</ele>
    <time>2026-06-22T08:49:18Z</time>
   </trkpt>
   <trkpt lat="-3.1117130" lon="37.3530640">
    <ele>3965.4</ele>
    <time>2026-06-22T08:49:19Z</time>
   </trkpt>
   <trkpt lat="-3.1117120" lon="37.3530680">
    <ele>3965.6</ele>
    <time>2026-06-22T08:49:20Z</time>
   </trkpt>
   <trkpt lat="-3.1117140" lon="37.3530710">
    <ele>3965.7</ele>
    <time>2026-06-22T08:49:21Z</time>
   </trkpt>
   <trkpt lat="-3.1117140" lon="37.3530720">
    <ele>3965.7</ele>
    <time>2026-06-22T08:49:22Z</time>
   </trkpt>
   <trkpt lat="-3.1117140" lon="37.3530750">
    <ele>3965.8</ele>
    <time>2026-06-22T08:49:23Z</time>
   </trkpt>
   <trkpt lat="-3.1117150" lon="37.3530770">
    <ele>3965.9</ele>
    <time>2026-06-22T08:49:24Z</time>
   </trkpt>
   <trkpt lat="-3.1117150" lon="37.3530790">
    <ele>3965.9</ele>
    <time>2026-06-22T08:49:25Z</time>
   </trkpt>
   <trkpt lat="-3.1117150" lon="37.3530820">
    <ele>3966.0</ele>
    <time>2026-06-22T08:49:26Z</time>
   </trkpt>
   <trkpt lat="-3.1117120" lon="37.3530840">
    <ele>3966.1</ele>
    <time>2026-06-22T08:49:27Z</time>
   </trkpt>
   <trkpt lat="-3.1117120" lon="37.3530880">
    <ele>3966.2</ele>
    <time>2026-06-22T08:49:29Z</time>
   </trkpt>
   <trkpt lat="-3.1117100" lon="37.3530910">
    <ele>3966.3</ele>
    <time>2026-06-22T08:49:30Z</time>
   </trkpt>
   <trkpt lat="-3.1117100" lon="37.3530960">
    <ele>3966.5</ele>
    <time>2026-06-22T08:49:31Z</time>
   </trkpt>
   <trkpt lat="-3.1117120" lon="37.3530990">
    <ele>3966.6</ele>
    <time>2026-06-22T08:49:32Z</time>
   </trkpt>
   <trkpt lat="-3.1117120" lon="37.3531010">
    <ele>3966.7</ele>
    <time>2026-06-22T08:49:33Z</time>
   </trkpt>
   <trkpt lat="-3.1117150" lon="37.3531080">
    <ele>3966.9</ele>
    <time>2026-06-22T08:49:34Z</time>
   </trkpt>
   <trkpt lat="-3.1117180" lon="37.3531080">
    <ele>3967.0</ele>
    <time>2026-06-22T08:49:35Z</time>
   </trkpt>
   <trkpt lat="-3.1117170" lon="37.3531070">
    <ele>3967.0</ele>
    <time>2026-06-22T08:49:36Z</time>
   </trkpt>
   <trkpt lat="-3.1117160" lon="37.3531120">
    <ele>3967.2</ele>
    <time>2026-06-22T08:49:37Z</time>
   </trkpt>
   <trkpt lat="-3.1117160" lon="37.3531140">
    <ele>3967.2</ele>
    <time>2026-06-22T08:49:38Z</time>
   </trkpt>
   <trkpt lat="-3.1117170" lon="37.3531180">
    <ele>3967.3</ele>
    <time>2026-06-22T08:49:39Z</time>
   </trkpt>
   <trkpt lat="-3.1117130" lon="37.3531180">
    <ele>3967.5</ele>
    <time>2026-06-22T08:49:40Z</time>
   </trkpt>
   <trkpt lat="-3.1117120" lon="37.3531200">
    <ele>3967.5</ele>
    <time>2026-06-22T08:49:41Z</time>
   </trkpt>
   <trkpt lat="-3.1117110" lon="37.3531230">
    <ele>3967.6</ele>
    <time>2026-06-22T08:49:42Z</time>
   </trkpt>
   <trkpt lat="-3.1117110" lon="37.3531260">
    <ele>3967.7</ele>
    <time>2026-06-22T08:49:43Z</time>
   </trkpt>
   <trkpt lat="-3.1117100" lon="37.3531270">
    <ele>3967.8</ele>
    <time>2026-06-22T08:49:44Z</time>
   </trkpt>
   <trkpt lat="-3.1117090" lon="37.3531280">
    <ele>3967.8</ele>
    <time>2026-06-22T08:49:45Z</time>
   </trkpt>
   <trkpt lat="-3.1117090" lon="37.3531310">
    <ele>3967.9</ele>
    <time>2026-06-22T08:49:46Z</time>
   </trkpt>
   <trkpt lat="-3.1117080" lon="37.3531330">
    <ele>3968.0</ele>
    <time>2026-06-22T08:49:47Z</time>
   </trkpt>
   <trkpt lat="-3.1117070" lon="37.3531340">
    <ele>3968.0</ele>
    <time>2026-06-22T08:49:48Z</time>
   </trkpt>
   <trkpt lat="-3.1117050" lon="37.3531350">
    <ele>3968.1</ele>
    <time>2026-06-22T08:49:49Z</time>
   </trkpt>
   <trkpt lat="-3.1117050" lon="37.3531380">
    <ele>3968.2</ele>
    <time>2026-06-22T08:49:50Z</time>
   </trkpt>
   <trkpt lat="-3.1117060" lon="37.3531420">
    <ele>3968.3</ele>
    <time>2026-06-22T08:49:51Z</time>
   </trkpt>
   <trkpt lat="-3.1117080" lon="37.3531450">
    <ele>3968.4</ele>
    <time>2026-06-22T08:49:52Z</time>
   </trkpt>
   <trkpt lat="-3.1117100" lon="37.3531460">
    <ele>3968.5</ele>
    <time>2026-06-22T08:49:53Z</time>
   </trkpt>
   <trkpt lat="-3.1117110" lon="37.3531450">
    <ele>3968.5</ele>
    <time>2026-06-22T08:49:54Z</time>
   </trkpt>
   <trkpt lat="-3.1117140" lon="37.3531450">
    <ele>3968.6</ele>
    <time>2026-06-22T08:49:55Z</time>
   </trkpt>
   <trkpt lat="-3.1117160" lon="37.3531440">
    <ele>3968.7</ele>
    <time>2026-06-22T08:49:56Z</time>
   </trkpt>
   <trkpt lat="-3.1117190" lon="37.3531450">
    <ele>3968.7</ele>
    <time>2026-06-22T08:49:57Z</time>
   </trkpt>
   <trkpt lat="-3.1117210" lon="37.3531420">
    <ele>3968.9</ele>
    <time>2026-06-22T08:49:58Z</time>
   </trkpt>
   <trkpt lat="-3.1117240" lon="37.3531430">
    <ele>3969.0</ele>
    <time>2026-06-22T08:49:59Z</time>
   </trkpt>
   <trkpt lat="-3.1117280" lon="37.3531500">
    <ele>3969.2</ele>
    <time>2026-06-22T08:50:00Z</time>
   </trkpt>
   <trkpt lat="-3.1117230" lon="37.3531490">
    <ele>3969.4</ele>
    <time>2026-06-22T08:50:01Z</time>
   </trkpt>
   <trkpt lat="-3.1117210" lon="37.3531520">
    <ele>3969.5</ele>
    <time>2026-06-22T08:50:02Z</time>
   </trkpt>
   <trkpt lat="-3.1117240" lon="37.3531550">
    <ele>3969.6</ele>
    <time>2026-06-22T08:50:03Z</time>
   </trkpt>
   <trkpt lat="-3.1117230" lon="37.3531560">
    <ele>3969.6</ele>
    <time>2026-06-22T08:50:04Z</time>
   </trkpt>
   <trkpt lat="-3.1117230" lon="37.3531580">
    <ele>3969.7</ele>
    <time>2026-06-22T08:50:05Z</time>
   </trkpt>
   <trkpt lat="-3.1117220" lon="37.3531610">
    <ele>3969.8</ele>
    <time>2026-06-22T08:50:06Z</time>
   </trkpt>
   <trkpt lat="-3.1117220" lon="37.3531610">
    <ele>3969.8</ele>
    <time>2026-06-22T08:50:07Z</time>
   </trkpt>
   <trkpt lat="-3.1117230" lon="37.3531690">
    <ele>3970.0</ele>
    <time>2026-06-22T08:50:08Z</time>
   </trkpt>
   <trkpt lat="-3.1117250" lon="37.3531700">
    <ele>3970.1</ele>
    <time>2026-06-22T08:50:09Z</time>
   </trkpt>
   <trkpt lat="-3.1117270" lon="37.3531680">
    <ele>3970.2</ele>
    <time>2026-06-22T08:50:10Z</time>
   </trkpt>
   <trkpt lat="-3.1117330" lon="37.3531670">
    <ele>3970.4</ele>
    <time>2026-06-22T08:50:11Z</time>
   </trkpt>
   <trkpt lat="-3.1117380" lon="37.3531630">
    <ele>3970.6</ele>
    <time>2026-06-22T08:50:12Z</time>
   </trkpt>
   <trkpt lat="-3.1117430" lon="37.3531620">
    <ele>3970.7</ele>
    <time>2026-06-22T08:50:13Z</time>
   </trkpt>
   <trkpt lat="-3.1117450" lon="37.3531610">
    <ele>3970.8</ele>
    <time>2026-06-22T08:50:14Z</time>
   </trkpt>
   <trkpt lat="-3.1117480" lon="37.3531600">
    <ele>3970.9</ele>
    <time>2026-06-22T08:50:15Z</time>
   </trkpt>
   <trkpt lat="-3.1117470" lon="37.3531570">
    <ele>3971.0</ele>
    <time>2026-06-22T08:50:16Z</time>
   </trkpt>
   <trkpt lat="-3.1117520" lon="37.3531550">
    <ele>3971.2</ele>
    <time>2026-06-22T08:50:17Z</time>
   </trkpt>
   <trkpt lat="-3.1117550" lon="37.3531540">
    <ele>3971.3</ele>
    <time>2026-06-22T08:50:18Z</time>
   </trkpt>
   <trkpt lat="-3.1117570" lon="37.3531520">
    <ele>3971.4</ele>
    <time>2026-06-22T08:50:19Z</time>
   </trkpt>
   <trkpt lat="-3.1117600" lon="37.3531530">
    <ele>3971.5</ele>
    <time>2026-06-22T08:50:20Z</time>
   </trkpt>
   <trkpt lat="-3.1117640" lon="37.3531550">
    <ele>3971.6</ele>
    <time>2026-06-22T08:50:21Z</time>
   </trkpt>
   <trkpt lat="-3.1117650" lon="37.3531560">
    <ele>3971.6</ele>
    <time>2026-06-22T08:50:22Z</time>
   </trkpt>
   <trkpt lat="-3.1117670" lon="37.3531580">
    <ele>3971.7</ele>
    <time>2026-06-22T08:50:23Z</time>
   </trkpt>
   <trkpt lat="-3.1117680" lon="37.3531620">
    <ele>3971.8</ele>
    <time>2026-06-22T08:50:24Z</time>
   </trkpt>
   <trkpt lat="-3.1117680" lon="37.3531650">
    <ele>3971.9</ele>
    <time>2026-06-22T08:50:25Z</time>
   </trkpt>
   <trkpt lat="-3.1117670" lon="37.3531700">
    <ele>3972.1</ele>
    <time>2026-06-22T08:50:26Z</time>
   </trkpt>
   <trkpt lat="-3.1117690" lon="37.3531690">
    <ele>3972.2</ele>
    <time>2026-06-22T08:50:27Z</time>
   </trkpt>
   <trkpt lat="-3.1117680" lon="37.3531720">
    <ele>3972.3</ele>
    <time>2026-06-22T08:50:28Z</time>
   </trkpt>
   <trkpt lat="-3.1117690" lon="37.3531730">
    <ele>3972.3</ele>
    <time>2026-06-22T08:50:29Z</time>
   </trkpt>
   <trkpt lat="-3.1117660" lon="37.3531740">
    <ele>3972.4</ele>
    <time>2026-06-22T08:50:30Z</time>
   </trkpt>
   <trkpt lat="-3.1117650" lon="37.3531750">
    <ele>3972.4</ele>
    <time>2026-06-22T08:50:31Z</time>
   </trkpt>
   <trkpt lat="-3.1117650" lon="37.3531790">
    <ele>3972.6</ele>
    <time>2026-06-22T08:50:32Z</time>
   </trkpt>
   <trkpt lat="-3.1117650" lon="37.3531820">
    <ele>3972.7</ele>
    <time>2026-06-22T08:50:33Z</time>
   </trkpt>
   <trkpt lat="-3.1117610" lon="37.3531840">
    <ele>3972.8</ele>
    <time>2026-06-22T08:50:34Z</time>
   </trkpt>
   <trkpt lat="-3.1117640" lon="37.3531860">
    <ele>3972.9</ele>
    <time>2026-06-22T08:50:35Z</time>
   </trkpt>
   <trkpt lat="-3.1117610" lon="37.3531880">
    <ele>3973.0</ele>
    <time>2026-06-22T08:50:36Z</time>
   </trkpt>
   <trkpt lat="-3.1117600" lon="37.3531900">
    <ele>3973.1</ele>
    <time>2026-06-22T08:50:37Z</time>
   </trkpt>
   <trkpt lat="-3.1117570" lon="37.3531940">
    <ele>3973.2</ele>
    <time>2026-06-22T08:50:38Z</time>
   </trkpt>
   <trkpt lat="-3.1117570" lon="37.3531970">
    <ele>3973.3</ele>
    <time>2026-06-22T08:50:39Z</time>
   </trkpt>
   <trkpt lat="-3.1117590" lon="37.3532000">
    <ele>3973.4</ele>
    <time>2026-06-22T08:50:40Z</time>
   </trkpt>
   <trkpt lat="-3.1117580" lon="37.3532050">
    <ele>3973.6</ele>
    <time>2026-06-22T08:50:41Z</time>
   </trkpt>
   <trkpt lat="-3.1117570" lon="37.3532090">
    <ele>3973.7</ele>
    <time>2026-06-22T08:50:42Z</time>
   </trkpt>
   <trkpt lat="-3.1117570" lon="37.3532130">
    <ele>3973.9</ele>
    <time>2026-06-22T08:50:43Z</time>
   </trkpt>
   <trkpt lat="-3.1117560" lon="37.3532170">
    <ele>3974.0</ele>
    <time>2026-06-22T08:50:44Z</time>
   </trkpt>
   <trkpt lat="-3.1117540" lon="37.3532200">
    <ele>3974.1</ele>
    <time>2026-06-22T08:50:45Z</time>
   </trkpt>
   <trkpt lat="-3.1117510" lon="37.3532280">
    <ele>3974.4</ele>
    <time>2026-06-22T08:50:46Z</time>
   </trkpt>
   <trkpt lat="-3.1117500" lon="37.3532310">
    <ele>3974.5</ele>
    <time>2026-06-22T08:50:47Z</time>
   </trkpt>
   <trkpt lat="-3.1117490" lon="37.3532330">
    <ele>3974.5</ele>
    <time>2026-06-22T08:50:48Z</time>
   </trkpt>
   <trkpt lat="-3.1117510" lon="37.3532360">
    <ele>3974.6</ele>
    <time>2026-06-22T08:50:49Z</time>
   </trkpt>
   <trkpt lat="-3.1117510" lon="37.3532390">
    <ele>3974.7</ele>
    <time>2026-06-22T08:50:50Z</time>
   </trkpt>
   <trkpt lat="-3.1117520" lon="37.3532400">
    <ele>3974.8</ele>
    <time>2026-06-22T08:50:51Z</time>
   </trkpt>
   <trkpt lat="-3.1117570" lon="37.3532420">
    <ele>3974.9</ele>
    <time>2026-06-22T08:50:52Z</time>
   </trkpt>
   <trkpt lat="-3.1117570" lon="37.3532420">
    <ele>3974.9</ele>
    <time>2026-06-22T08:50:53Z</time>
   </trkpt>
   <trkpt lat="-3.1117620" lon="37.3532440">
    <ele>3975.1</ele>
    <time>2026-06-22T08:50:54Z</time>
   </trkpt>
   <trkpt lat="-3.1117650" lon="37.3532420">
    <ele>3975.2</ele>
    <time>2026-06-22T08:50:55Z</time>
   </trkpt>
   <trkpt lat="-3.1117680" lon="37.3532430">
    <ele>3975.3</ele>
    <time>2026-06-22T08:50:56Z</time>
   </trkpt>
   <trkpt lat="-3.1117760" lon="37.3532410">
    <ele>3975.6</ele>
    <time>2026-06-22T08:50:57Z</time>
   </trkpt>
   <trkpt lat="-3.1117750" lon="37.3532400">
    <ele>3975.6</ele>
    <time>2026-06-22T08:50:58Z</time>
   </trkpt>
   <trkpt lat="-3.1117790" lon="37.3532390">
    <ele>3975.7</ele>
    <time>2026-06-22T08:50:59Z</time>
   </trkpt>
   <trkpt lat="-3.1117820" lon="37.3532360">
    <ele>3975.9</ele>
    <time>2026-06-22T08:51:00Z</time>
   </trkpt>
   <trkpt lat="-3.1117830" lon="37.3532340">
    <ele>3975.9</ele>
    <time>2026-06-22T08:51:01Z</time>
   </trkpt>
   <trkpt lat="-3.1117840" lon="37.3532290">
    <ele>3976.1</ele>
    <time>2026-06-22T08:51:02Z</time>
   </trkpt>
   <trkpt lat="-3.1117850" lon="37.3532290">
    <ele>3976.1</ele>
    <time>2026-06-22T08:51:03Z</time>
   </trkpt>
   <trkpt lat="-3.1117890" lon="37.3532280">
    <ele>3976.2</ele>
    <time>2026-06-22T08:51:04Z</time>
   </trkpt>
   <trkpt lat="-3.1117930" lon="37.3532260">
    <ele>3976.4</ele>
    <time>2026-06-22T08:51:05Z</time>
   </trkpt>
   <trkpt lat="-3.1117960" lon="37.3532260">
    <ele>3976.5</ele>
    <time>2026-06-22T08:51:06Z</time>
   </trkpt>
   <trkpt lat="-3.1118000" lon="37.3532260">
    <ele>3976.6</ele>
    <time>2026-06-22T08:51:07Z</time>
   </trkpt>
   <trkpt lat="-3.1118030" lon="37.3532270">
    <ele>3976.7</ele>
    <time>2026-06-22T08:51:08Z</time>
   </trkpt>
   <trkpt lat="-3.1118030" lon="37.3532270">
    <ele>3976.7</ele>
    <time>2026-06-22T08:51:09Z</time>
   </trkpt>
   <trkpt lat="-3.1118050" lon="37.3532300">
    <ele>3976.8</ele>
    <time>2026-06-22T08:51:10Z</time>
   </trkpt>
   <trkpt lat="-3.1118030" lon="37.3532340">
    <ele>3976.9</ele>
    <time>2026-06-22T08:51:11Z</time>
   </trkpt>
   <trkpt lat="-3.1118050" lon="37.3532350">
    <ele>3977.0</ele>
    <time>2026-06-22T08:51:12Z</time>
   </trkpt>
   <trkpt lat="-3.1118070" lon="37.3532370">
    <ele>3977.1</ele>
    <time>2026-06-22T08:51:13Z</time>
   </trkpt>
   <trkpt lat="-3.1118070" lon="37.3532380">
    <ele>3977.1</ele>
    <time>2026-06-22T08:51:14Z</time>
   </trkpt>
   <trkpt lat="-3.1118060" lon="37.3532410">
    <ele>3977.2</ele>
    <time>2026-06-22T08:51:15Z</time>
   </trkpt>
   <trkpt lat="-3.1118060" lon="37.3532420">
    <ele>3977.3</ele>
    <time>2026-06-22T08:51:16Z</time>
   </trkpt>
   <trkpt lat="-3.1118060" lon="37.3532460">
    <ele>3977.4</ele>
    <time>2026-06-22T08:51:17Z</time>
   </trkpt>
   <trkpt lat="-3.1118060" lon="37.3532470">
    <ele>3977.4</ele>
    <time>2026-06-22T08:51:18Z</time>
   </trkpt>
   <trkpt lat="-3.1118060" lon="37.3532490">
    <ele>3977.5</ele>
    <time>2026-06-22T08:51:19Z</time>
   </trkpt>
   <trkpt lat="-3.1118070" lon="37.3532490">
    <ele>3977.5</ele>
    <time>2026-06-22T08:51:20Z</time>
   </trkpt>
   <trkpt lat="-3.1118060" lon="37.3532490">
    <ele>3977.5</ele>
    <time>2026-06-22T08:51:21Z</time>
   </trkpt>
   <trkpt lat="-3.1118070" lon="37.3532520">
    <ele>3977.6</ele>
    <time>2026-06-22T08:51:22Z</time>
   </trkpt>
   <trkpt lat="-3.1118090" lon="37.3532520">
    <ele>3977.7</ele>
    <time>2026-06-22T08:51:23Z</time>
   </trkpt>
   <trkpt lat="-3.1118110" lon="37.3532540">
    <ele>3977.8</ele>
    <time>2026-06-22T08:51:24Z</time>
   </trkpt>
   <trkpt lat="-3.1118120" lon="37.3532550">
    <ele>3977.8</ele>
    <time>2026-06-22T08:51:25Z</time>
   </trkpt>
   <trkpt lat="-3.1118130" lon="37.3532570">
    <ele>3977.9</ele>
    <time>2026-06-22T08:51:26Z</time>
   </trkpt>
   <trkpt lat="-3.1118100" lon="37.3532560">
    <ele>3978.0</ele>
    <time>2026-06-22T08:51:27Z</time>
   </trkpt>
   <trkpt lat="-3.1118090" lon="37.3532600">
    <ele>3978.1</ele>
    <time>2026-06-22T08:51:28Z</time>
   </trkpt>
   <trkpt lat="-3.1118100" lon="37.3532640">
    <ele>3978.2</ele>
    <time>2026-06-22T08:51:29Z</time>
   </trkpt>
   <trkpt lat="-3.1118080" lon="37.3532690">
    <ele>3978.4</ele>
    <time>2026-06-22T08:51:30Z</time>
   </trkpt>
   <trkpt lat="-3.1118090" lon="37.3532710">
    <ele>3978.5</ele>
    <time>2026-06-22T08:51:31Z</time>
   </trkpt>
   <trkpt lat="-3.1118060" lon="37.3532730">
    <ele>3978.6</ele>
    <time>2026-06-22T08:51:32Z</time>
   </trkpt>
   <trkpt lat="-3.1118040" lon="37.3532750">
    <ele>3978.7</ele>
    <time>2026-06-22T08:51:33Z</time>
   </trkpt>
   <trkpt lat="-3.1118030" lon="37.3532770">
    <ele>3978.7</ele>
    <time>2026-06-22T08:51:35Z</time>
   </trkpt>
   <trkpt lat="-3.1117970" lon="37.3532760">
    <ele>3978.9</ele>
    <time>2026-06-22T08:51:36Z</time>
   </trkpt>
   <trkpt lat="-3.1117980" lon="37.3532800">
    <ele>3979.1</ele>
    <time>2026-06-22T08:51:37Z</time>
   </trkpt>
   <trkpt lat="-3.1117980" lon="37.3532820">
    <ele>3979.1</ele>
    <time>2026-06-22T08:51:38Z</time>
   </trkpt>
   <trkpt lat="-3.1117970" lon="37.3532860">
    <ele>3979.2</ele>
    <time>2026-06-22T08:51:39Z</time>
   </trkpt>
   <trkpt lat="-3.1117980" lon="37.3532900">
    <ele>3979.4</ele>
    <time>2026-06-22T08:51:40Z</time>
   </trkpt>
   <trkpt lat="-3.1117960" lon="37.3532920">
    <ele>3979.5</ele>
    <time>2026-06-22T08:51:41Z</time>
   </trkpt>
   <trkpt lat="-3.1117940" lon="37.3532970">
    <ele>3979.6</ele>
    <time>2026-06-22T08:51:42Z</time>
   </trkpt>
   <trkpt lat="-3.1117970" lon="37.3532990">
    <ele>3979.7</ele>
    <time>2026-06-22T08:51:43Z</time>
   </trkpt>
   <trkpt lat="-3.1117990" lon="37.3533030">
    <ele>3979.9</ele>
    <time>2026-06-22T08:51:44Z</time>
   </trkpt>
   <trkpt lat="-3.1117990" lon="37.3533050">
    <ele>3979.9</ele>
    <time>2026-06-22T08:51:45Z</time>
   </trkpt>
   <trkpt lat="-3.1118030" lon="37.3533020">
    <ele>3980.1</ele>
    <time>2026-06-22T08:51:46Z</time>
   </trkpt>
   <trkpt lat="-3.1118070" lon="37.3533030">
    <ele>3980.2</ele>
    <time>2026-06-22T08:51:47Z</time>
   </trkpt>
   <trkpt lat="-3.1118090" lon="37.3532990">
    <ele>3980.4</ele>
    <time>2026-06-22T08:51:48Z</time>
   </trkpt>
   <trkpt lat="-3.1118160" lon="37.3532970">
    <ele>3980.6</ele>
    <time>2026-06-22T08:51:49Z</time>
   </trkpt>
   <trkpt lat="-3.1118170" lon="37.3532980">
    <ele>3980.6</ele>
    <time>2026-06-22T08:51:50Z</time>
   </trkpt>
   <trkpt lat="-3.1118190" lon="37.3533000">
    <ele>3980.7</ele>
    <time>2026-06-22T08:51:51Z</time>
   </trkpt>
   <trkpt lat="-3.1118200" lon="37.3533010">
    <ele>3980.8</ele>
    <time>2026-06-22T08:51:52Z</time>
   </trkpt>
   <trkpt lat="-3.1118220" lon="37.3533010">
    <ele>3980.8</ele>
    <time>2026-06-22T08:51:53Z</time>
   </trkpt>
   <trkpt lat="-3.1118240" lon="37.3533050">
    <ele>3981.0</ele>
    <time>2026-06-22T08:51:54Z</time>
   </trkpt>
   <trkpt lat="-3.1118250" lon="37.3533030">
    <ele>3981.0</ele>
    <time>2026-06-22T08:51:55Z</time>
   </trkpt>
   <trkpt lat="-3.1118270" lon="37.3533020">
    <ele>3981.1</ele>
    <time>2026-06-22T08:51:56Z</time>
   </trkpt>
   <trkpt lat="-3.1118300" lon="37.3533030">
    <ele>3981.2</ele>
    <time>2026-06-22T08:51:57Z</time>
   </trkpt>
   <trkpt lat="-3.1118300" lon="37.3532970">
    <ele>3981.4</ele>
    <time>2026-06-22T08:51:58Z</time>
   </trkpt>
   <trkpt lat="-3.1118290" lon="37.3532960">
    <ele>3981.5</ele>
    <time>2026-06-22T08:51:59Z</time>
   </trkpt>
   <trkpt lat="-3.1118310" lon="37.3532970">
    <ele>3981.5</ele>
    <time>2026-06-22T08:52:00Z</time>
   </trkpt>
   <trkpt lat="-3.1118340" lon="37.3532920">
    <ele>3981.7</ele>
    <time>2026-06-22T08:52:01Z</time>
   </trkpt>
   <trkpt lat="-3.1118360" lon="37.3532890">
    <ele>3981.8</ele>
    <time>2026-06-22T08:52:02Z</time>
   </trkpt>
   <trkpt lat="-3.1118320" lon="37.3532940">
    <ele>3982.0</ele>
    <time>2026-06-22T08:52:03Z</time>
   </trkpt>
   <trkpt lat="-3.1118360" lon="37.3532930">
    <ele>3982.2</ele>
    <time>2026-06-22T08:52:04Z</time>
   </trkpt>
   <trkpt lat="-3.1118380" lon="37.3532950">
    <ele>3982.3</ele>
    <time>2026-06-22T08:52:05Z</time>
   </trkpt>
   <trkpt lat="-3.1118380" lon="37.3532950">
    <ele>3982.3</ele>
    <time>2026-06-22T08:52:06Z</time>
   </trkpt>
   <trkpt lat="-3.1118390" lon="37.3532960">
    <ele>3982.3</ele>
    <time>2026-06-22T08:52:07Z</time>
   </trkpt>
   <trkpt lat="-3.1118380" lon="37.3532990">
    <ele>3982.4</ele>
    <time>2026-06-22T08:52:08Z</time>
   </trkpt>
   <trkpt lat="-3.1118410" lon="37.3533020">
    <ele>3982.5</ele>
    <time>2026-06-22T08:52:09Z</time>
   </trkpt>
   <trkpt lat="-3.1118440" lon="37.3533030">
    <ele>3982.6</ele>
    <time>2026-06-22T08:52:10Z</time>
   </trkpt>
   <trkpt lat="-3.1118450" lon="37.3533030">
    <ele>3982.7</ele>
    <time>2026-06-22T08:52:11Z</time>
   </trkpt>
   <trkpt lat="-3.1118490" lon="37.3533030">
    <ele>3982.8</ele>
    <time>2026-06-22T08:52:12Z</time>
   </trkpt>
   <trkpt lat="-3.1118520" lon="37.3533060">
    <ele>3982.9</ele>
    <time>2026-06-22T08:52:13Z</time>
   </trkpt>
   <trkpt lat="-3.1118530" lon="37.3533050">
    <ele>3983.0</ele>
    <time>2026-06-22T08:52:14Z</time>
   </trkpt>
   <trkpt lat="-3.1118540" lon="37.3533040">
    <ele>3983.0</ele>
    <time>2026-06-22T08:52:15Z</time>
   </trkpt>
   <trkpt lat="-3.1118570" lon="37.3533090">
    <ele>3983.2</ele>
    <time>2026-06-22T08:52:16Z</time>
   </trkpt>
   <trkpt lat="-3.1118590" lon="37.3533100">
    <ele>3983.3</ele>
    <time>2026-06-22T08:52:17Z</time>
   </trkpt>
   <trkpt lat="-3.1118620" lon="37.3533120">
    <ele>3983.4</ele>
    <time>2026-06-22T08:52:18Z</time>
   </trkpt>
   <trkpt lat="-3.1118610" lon="37.3533120">
    <ele>3983.4</ele>
    <time>2026-06-22T08:52:19Z</time>
   </trkpt>
   <trkpt lat="-3.1118630" lon="37.3533130">
    <ele>3983.5</ele>
    <time>2026-06-22T08:52:20Z</time>
   </trkpt>
   <trkpt lat="-3.1118660" lon="37.3533140">
    <ele>3983.6</ele>
    <time>2026-06-22T08:52:21Z</time>
   </trkpt>
   <trkpt lat="-3.1118680" lon="37.3533170">
    <ele>3983.7</ele>
    <time>2026-06-22T08:52:22Z</time>
   </trkpt>
   <trkpt lat="-3.1118680" lon="37.3533190">
    <ele>3983.8</ele>
    <time>2026-06-22T08:52:23Z</time>
   </trkpt>
   <trkpt lat="-3.1118660" lon="37.3533230">
    <ele>3983.9</ele>
    <time>2026-06-22T08:52:24Z</time>
   </trkpt>
   <trkpt lat="-3.1118660" lon="37.3533280">
    <ele>3984.1</ele>
    <time>2026-06-22T08:52:25Z</time>
   </trkpt>
   <trkpt lat="-3.1118630" lon="37.3533320">
    <ele>3984.2</ele>
    <time>2026-06-22T08:52:26Z</time>
   </trkpt>
   <trkpt lat="-3.1118640" lon="37.3533370">
    <ele>3984.4</ele>
    <time>2026-06-22T08:52:27Z</time>
   </trkpt>
   <trkpt lat="-3.1118620" lon="37.3533430">
    <ele>3984.6</ele>
    <time>2026-06-22T08:52:28Z</time>
   </trkpt>
   <trkpt lat="-3.1118590" lon="37.3533440">
    <ele>3984.7</ele>
    <time>2026-06-22T08:52:29Z</time>
   </trkpt>
   <trkpt lat="-3.1118590" lon="37.3533480">
    <ele>3984.8</ele>
    <time>2026-06-22T08:52:30Z</time>
   </trkpt>
   <trkpt lat="-3.1118620" lon="37.3533520">
    <ele>3985.0</ele>
    <time>2026-06-22T08:52:31Z</time>
   </trkpt>
   <trkpt lat="-3.1118610" lon="37.3533550">
    <ele>3985.1</ele>
    <time>2026-06-22T08:52:32Z</time>
   </trkpt>
   <trkpt lat="-3.1118640" lon="37.3533600">
    <ele>3985.3</ele>
    <time>2026-06-22T08:52:33Z</time>
   </trkpt>
   <trkpt lat="-3.1118620" lon="37.3533610">
    <ele>3985.4</ele>
    <time>2026-06-22T08:52:34Z</time>
   </trkpt>
   <trkpt lat="-3.1118590" lon="37.3533600">
    <ele>3985.5</ele>
    <time>2026-06-22T08:52:35Z</time>
   </trkpt>
   <trkpt lat="-3.1118570" lon="37.3533630">
    <ele>3985.6</ele>
    <time>2026-06-22T08:52:36Z</time>
   </trkpt>
   <trkpt lat="-3.1118570" lon="37.3533670">
    <ele>3985.7</ele>
    <time>2026-06-22T08:52:37Z</time>
   </trkpt>
   <trkpt lat="-3.1118580" lon="37.3533700">
    <ele>3985.8</ele>
    <time>2026-06-22T08:52:38Z</time>
   </trkpt>
   <trkpt lat="-3.1118580" lon="37.3533720">
    <ele>3985.9</ele>
    <time>2026-06-22T08:52:39Z</time>
   </trkpt>
   <trkpt lat="-3.1118600" lon="37.3533730">
    <ele>3985.9</ele>
    <time>2026-06-22T08:52:40Z</time>
   </trkpt>
   <trkpt lat="-3.1118610" lon="37.3533750">
    <ele>3986.0</ele>
    <time>2026-06-22T08:52:41Z</time>
   </trkpt>
   <trkpt lat="-3.1118620" lon="37.3533780">
    <ele>3986.1</ele>
    <time>2026-06-22T08:52:42Z</time>
   </trkpt>
   <trkpt lat="-3.1118630" lon="37.3533800">
    <ele>3986.2</ele>
    <time>2026-06-22T08:52:43Z</time>
   </trkpt>
   <trkpt lat="-3.1118610" lon="37.3533880">
    <ele>3986.4</ele>
    <time>2026-06-22T08:52:44Z</time>
   </trkpt>
   <trkpt lat="-3.1118600" lon="37.3533870">
    <ele>3986.5</ele>
    <time>2026-06-22T08:52:45Z</time>
   </trkpt>
   <trkpt lat="-3.1118580" lon="37.3533890">
    <ele>3986.6</ele>
    <time>2026-06-22T08:52:46Z</time>
   </trkpt>
   <trkpt lat="-3.1118570" lon="37.3533890">
    <ele>3986.6</ele>
    <time>2026-06-22T08:52:47Z</time>
   </trkpt>
   <trkpt lat="-3.1118550" lon="37.3533940">
    <ele>3986.8</ele>
    <time>2026-06-22T08:52:48Z</time>
   </trkpt>
   <trkpt lat="-3.1118540" lon="37.3533960">
    <ele>3986.9</ele>
    <time>2026-06-22T08:52:49Z</time>
   </trkpt>
   <trkpt lat="-3.1118530" lon="37.3533980">
    <ele>3986.9</ele>
    <time>2026-06-22T08:52:50Z</time>
   </trkpt>
   <trkpt lat="-3.1118540" lon="37.3534020">
    <ele>3987.1</ele>
    <time>2026-06-22T08:52:51Z</time>
   </trkpt>
   <trkpt lat="-3.1118560" lon="37.3534060">
    <ele>3987.2</ele>
    <time>2026-06-22T08:52:52Z</time>
   </trkpt>
   <trkpt lat="-3.1118570" lon="37.3534070">
    <ele>3987.2</ele>
    <time>2026-06-22T08:52:53Z</time>
   </trkpt>
   <trkpt lat="-3.1118580" lon="37.3534090">
    <ele>3987.3</ele>
    <time>2026-06-22T08:52:54Z</time>
   </trkpt>
   <trkpt lat="-3.1118590" lon="37.3534090">
    <ele>3987.3</ele>
    <time>2026-06-22T08:52:55Z</time>
   </trkpt>
   <trkpt lat="-3.1118600" lon="37.3534090">
    <ele>3987.4</ele>
    <time>2026-06-22T08:52:56Z</time>
   </trkpt>
   <trkpt lat="-3.1118600" lon="37.3534090">
    <ele>3987.4</ele>
    <time>2026-06-22T08:52:57Z</time>
   </trkpt>
   <trkpt lat="-3.1118610" lon="37.3534090">
    <ele>3987.4</ele>
    <time>2026-06-22T08:52:58Z</time>
   </trkpt>
   <trkpt lat="-3.1118620" lon="37.3534080">
    <ele>3987.5</ele>
    <time>2026-06-22T08:52:59Z</time>
   </trkpt>
   <trkpt lat="-3.1118630" lon="37.3534070">
    <ele>3987.5</ele>
    <time>2026-06-22T08:53:00Z</time>
   </trkpt>
   <trkpt lat="-3.1118660" lon="37.3534060">
    <ele>3987.6</ele>
    <time>2026-06-22T08:53:01Z</time>
   </trkpt>
   <trkpt lat="-3.1118680" lon="37.3534060">
    <ele>3987.7</ele>
    <time>2026-06-22T08:53:02Z</time>
   </trkpt>
   <trkpt lat="-3.1118680" lon="37.3534040">
    <ele>3987.7</ele>
    <time>2026-06-22T08:53:03Z</time>
   </trkpt>
   <trkpt lat="-3.1118700" lon="37.3534060">
    <ele>3987.8</ele>
    <time>2026-06-22T08:53:04Z</time>
   </trkpt>
   <trkpt lat="-3.1118710" lon="37.3534060">
    <ele>3987.9</ele>
    <time>2026-06-22T08:53:05Z</time>
   </trkpt>
   <trkpt lat="-3.1118730" lon="37.3534080">
    <ele>3987.9</ele>
    <time>2026-06-22T08:53:06Z</time>
   </trkpt>
   <trkpt lat="-3.1118750" lon="37.3534080">
    <ele>3988.0</ele>
    <time>2026-06-22T08:53:07Z</time>
   </trkpt>
   <trkpt lat="-3.1118780" lon="37.3534120">
    <ele>3988.2</ele>
    <time>2026-06-22T08:53:08Z</time>
   </trkpt>
   <trkpt lat="-3.1118800" lon="37.3534120">
    <ele>3988.2</ele>
    <time>2026-06-22T08:53:09Z</time>
   </trkpt>
   <trkpt lat="-3.1118770" lon="37.3534130">
    <ele>3988.3</ele>
    <time>2026-06-22T08:53:10Z</time>
   </trkpt>
   <trkpt lat="-3.1118820" lon="37.3534160">
    <ele>3988.5</ele>
    <time>2026-06-22T08:53:11Z</time>
   </trkpt>
   <trkpt lat="-3.1118800" lon="37.3534180">
    <ele>3988.6</ele>
    <time>2026-06-22T08:53:12Z</time>
   </trkpt>
   <trkpt lat="-3.1118780" lon="37.3534190">
    <ele>3988.7</ele>
    <time>2026-06-22T08:53:13Z</time>
   </trkpt>
   <trkpt lat="-3.1118770" lon="37.3534210">
    <ele>3988.8</ele>
    <time>2026-06-22T08:53:14Z</time>
   </trkpt>
   <trkpt lat="-3.1118800" lon="37.3534230">
    <ele>3988.9</ele>
    <time>2026-06-22T08:53:15Z</time>
   </trkpt>
   <trkpt lat="-3.1118790" lon="37.3534240">
    <ele>3988.9</ele>
    <time>2026-06-22T08:53:16Z</time>
   </trkpt>
   <trkpt lat="-3.1118810" lon="37.3534250">
    <ele>3989.0</ele>
    <time>2026-06-22T08:53:17Z</time>
   </trkpt>
   <trkpt lat="-3.1118810" lon="37.3534260">
    <ele>3989.0</ele>
    <time>2026-06-22T08:53:18Z</time>
   </trkpt>
   <trkpt lat="-3.1118810" lon="37.3534280">
    <ele>3989.1</ele>
    <time>2026-06-22T08:53:19Z</time>
   </trkpt>
   <trkpt lat="-3.1118790" lon="37.3534290">
    <ele>3989.2</ele>
    <time>2026-06-22T08:53:20Z</time>
   </trkpt>
   <trkpt lat="-3.1118820" lon="37.3534340">
    <ele>3989.3</ele>
    <time>2026-06-22T08:53:21Z</time>
   </trkpt>
   <trkpt lat="-3.1118790" lon="37.3534370">
    <ele>3989.5</ele>
    <time>2026-06-22T08:53:22Z</time>
   </trkpt>
   <trkpt lat="-3.1118760" lon="37.3534400">
    <ele>3989.6</ele>
    <time>2026-06-22T08:53:23Z</time>
   </trkpt>
   <trkpt lat="-3.1118760" lon="37.3534440">
    <ele>3989.7</ele>
    <time>2026-06-22T08:53:24Z</time>
   </trkpt>
   <trkpt lat="-3.1118750" lon="37.3534460">
    <ele>3989.8</ele>
    <time>2026-06-22T08:53:25Z</time>
   </trkpt>
   <trkpt lat="-3.1118730" lon="37.3534500">
    <ele>3990.0</ele>
    <time>2026-06-22T08:53:26Z</time>
   </trkpt>
   <trkpt lat="-3.1118720" lon="37.3534530">
    <ele>3990.1</ele>
    <time>2026-06-22T08:53:27Z</time>
   </trkpt>
   <trkpt lat="-3.1118750" lon="37.3534550">
    <ele>3990.2</ele>
    <time>2026-06-22T08:53:28Z</time>
   </trkpt>
   <trkpt lat="-3.1118780" lon="37.3534580">
    <ele>3990.3</ele>
    <time>2026-06-22T08:53:29Z</time>
   </trkpt>
   <trkpt lat="-3.1118840" lon="37.3534580">
    <ele>3990.5</ele>
    <time>2026-06-22T08:53:30Z</time>
   </trkpt>
   <trkpt lat="-3.1118830" lon="37.3534560">
    <ele>3990.6</ele>
    <time>2026-06-22T08:53:31Z</time>
   </trkpt>
   <trkpt lat="-3.1118860" lon="37.3534540">
    <ele>3990.7</ele>
    <time>2026-06-22T08:53:32Z</time>
   </trkpt>
   <trkpt lat="-3.1118900" lon="37.3534530">
    <ele>3990.8</ele>
    <time>2026-06-22T08:53:33Z</time>
   </trkpt>
   <trkpt lat="-3.1118920" lon="37.3534490">
    <ele>3991.0</ele>
    <time>2026-06-22T08:53:34Z</time>
   </trkpt>
   <trkpt lat="-3.1118950" lon="37.3534500">
    <ele>3991.1</ele>
    <time>2026-06-22T08:53:35Z</time>
   </trkpt>
   <trkpt lat="-3.1118990" lon="37.3534490">
    <ele>3991.2</ele>
    <time>2026-06-22T08:53:36Z</time>
   </trkpt>
   <trkpt lat="-3.1119070" lon="37.3534500">
    <ele>3991.4</ele>
    <time>2026-06-22T08:53:37Z</time>
   </trkpt>
   <trkpt lat="-3.1119090" lon="37.3534500">
    <ele>3991.5</ele>
    <time>2026-06-22T08:53:38Z</time>
   </trkpt>
   <trkpt lat="-3.1119110" lon="37.3534520">
    <ele>3991.6</ele>
    <time>2026-06-22T08:53:40Z</time>
   </trkpt>
   <trkpt lat="-3.1119100" lon="37.3534550">
    <ele>3991.7</ele>
    <time>2026-06-22T08:53:41Z</time>
   </trkpt>
   <trkpt lat="-3.1119130" lon="37.3534610">
    <ele>3991.9</ele>
    <time>2026-06-22T08:53:42Z</time>
   </trkpt>
   <trkpt lat="-3.1119170" lon="37.3534600">
    <ele>3992.0</ele>
    <time>2026-06-22T08:53:43Z</time>
   </trkpt>
   <trkpt lat="-3.1119200" lon="37.3534610">
    <ele>3992.1</ele>
    <time>2026-06-22T08:53:44Z</time>
   </trkpt>
   <trkpt lat="-3.1119230" lon="37.3534550">
    <ele>3992.4</ele>
    <time>2026-06-22T08:53:45Z</time>
   </trkpt>
   <trkpt lat="-3.1119250" lon="37.3534550">
    <ele>3992.4</ele>
    <time>2026-06-22T08:53:46Z</time>
   </trkpt>
   <trkpt lat="-3.1119270" lon="37.3534520">
    <ele>3992.5</ele>
    <time>2026-06-22T08:53:47Z</time>
   </trkpt>
   <trkpt lat="-3.1119300" lon="37.3534480">
    <ele>3992.7</ele>
    <time>2026-06-22T08:53:48Z</time>
   </trkpt>
   <trkpt lat="-3.1119350" lon="37.3534480">
    <ele>3992.9</ele>
    <time>2026-06-22T08:53:49Z</time>
   </trkpt>
   <trkpt lat="-3.1119370" lon="37.3534490">
    <ele>3992.9</ele>
    <time>2026-06-22T08:53:50Z</time>
   </trkpt>
   <trkpt lat="-3.1119390" lon="37.3534500">
    <ele>3993.0</ele>
    <time>2026-06-22T08:53:51Z</time>
   </trkpt>
   <trkpt lat="-3.1119390" lon="37.3534500">
    <ele>3993.0</ele>
    <time>2026-06-22T08:53:52Z</time>
   </trkpt>
   <trkpt lat="-3.1119390" lon="37.3534480">
    <ele>3993.1</ele>
    <time>2026-06-22T08:53:53Z</time>
   </trkpt>
   <trkpt lat="-3.1119400" lon="37.3534490">
    <ele>3993.1</ele>
    <time>2026-06-22T08:53:54Z</time>
   </trkpt>
   <trkpt lat="-3.1119430" lon="37.3534480">
    <ele>3993.2</ele>
    <time>2026-06-22T08:53:55Z</time>
   </trkpt>
   <trkpt lat="-3.1119440" lon="37.3534460">
    <ele>3993.3</ele>
    <time>2026-06-22T08:53:56Z</time>
   </trkpt>
   <trkpt lat="-3.1119470" lon="37.3534470">
    <ele>3993.4</ele>
    <time>2026-06-22T08:53:57Z</time>
   </trkpt>
   <trkpt lat="-3.1119490" lon="37.3534450">
    <ele>3993.5</ele>
    <time>2026-06-22T08:53:58Z</time>
   </trkpt>
   <trkpt lat="-3.1119500" lon="37.3534470">
    <ele>3993.6</ele>
    <time>2026-06-22T08:53:59Z</time>
   </trkpt>
   <trkpt lat="-3.1119530" lon="37.3534490">
    <ele>3993.7</ele>
    <time>2026-06-22T08:54:00Z</time>
   </trkpt>
   <trkpt lat="-3.1119530" lon="37.3534480">
    <ele>3993.7</ele>
    <time>2026-06-22T08:54:01Z</time>
   </trkpt>
   <trkpt lat="-3.1119580" lon="37.3534520">
    <ele>3993.9</ele>
    <time>2026-06-22T08:54:02Z</time>
   </trkpt>
   <trkpt lat="-3.1119580" lon="37.3534490">
    <ele>3994.0</ele>
    <time>2026-06-22T08:54:03Z</time>
   </trkpt>
   <trkpt lat="-3.1119620" lon="37.3534490">
    <ele>3994.1</ele>
    <time>2026-06-22T08:54:04Z</time>
   </trkpt>
   <trkpt lat="-3.1119650" lon="37.3534490">
    <ele>3994.2</ele>
    <time>2026-06-22T08:54:05Z</time>
   </trkpt>
   <trkpt lat="-3.1119660" lon="37.3534500">
    <ele>3994.3</ele>
    <time>2026-06-22T08:54:06Z</time>
   </trkpt>
   <trkpt lat="-3.1119680" lon="37.3534490">
    <ele>3994.3</ele>
    <time>2026-06-22T08:54:07Z</time>
   </trkpt>
   <trkpt lat="-3.1119710" lon="37.3534500">
    <ele>3994.4</ele>
    <time>2026-06-22T08:54:08Z</time>
   </trkpt>
   <trkpt lat="-3.1119720" lon="37.3534520">
    <ele>3994.5</ele>
    <time>2026-06-22T08:54:09Z</time>
   </trkpt>
   <trkpt lat="-3.1119770" lon="37.3534520">
    <ele>3994.7</ele>
    <time>2026-06-22T08:54:10Z</time>
   </trkpt>
   <trkpt lat="-3.1119780" lon="37.3534520">
    <ele>3994.7</ele>
    <time>2026-06-22T08:54:11Z</time>
   </trkpt>
   <trkpt lat="-3.1119790" lon="37.3534480">
    <ele>3994.8</ele>
    <time>2026-06-22T08:54:12Z</time>
   </trkpt>
   <trkpt lat="-3.1119810" lon="37.3534440">
    <ele>3995.0</ele>
    <time>2026-06-22T08:54:13Z</time>
   </trkpt>
   <trkpt lat="-3.1119830" lon="37.3534400">
    <ele>3995.1</ele>
    <time>2026-06-22T08:54:14Z</time>
   </trkpt>
   <trkpt lat="-3.1119850" lon="37.3534370">
    <ele>3995.2</ele>
    <time>2026-06-22T08:54:15Z</time>
   </trkpt>
   <trkpt lat="-3.1119880" lon="37.3534350">
    <ele>3995.4</ele>
    <time>2026-06-22T08:54:16Z</time>
   </trkpt>
   <trkpt lat="-3.1119900" lon="37.3534310">
    <ele>3995.5</ele>
    <time>2026-06-22T08:54:17Z</time>
   </trkpt>
   <trkpt lat="-3.1119940" lon="37.3534300">
    <ele>3995.6</ele>
    <time>2026-06-22T08:54:18Z</time>
   </trkpt>
   <trkpt lat="-3.1119990" lon="37.3534280">
    <ele>3995.8</ele>
    <time>2026-06-22T08:54:19Z</time>
   </trkpt>
   <trkpt lat="-3.1120020" lon="37.3534300">
    <ele>3995.9</ele>
    <time>2026-06-22T08:54:20Z</time>
   </trkpt>
   <trkpt lat="-3.1120050" lon="37.3534330">
    <ele>3996.1</ele>
    <time>2026-06-22T08:54:21Z</time>
   </trkpt>
   <trkpt lat="-3.1120080" lon="37.3534350">
    <ele>3996.2</ele>
    <time>2026-06-22T08:54:22Z</time>
   </trkpt>
   <trkpt lat="-3.1120110" lon="37.3534390">
    <ele>3996.3</ele>
    <time>2026-06-22T08:54:23Z</time>
   </trkpt>
   <trkpt lat="-3.1120140" lon="37.3534380">
    <ele>3996.4</ele>
    <time>2026-06-22T08:54:24Z</time>
   </trkpt>
   <trkpt lat="-3.1120160" lon="37.3534390">
    <ele>3996.5</ele>
    <time>2026-06-22T08:54:25Z</time>
   </trkpt>
   <trkpt lat="-3.1120190" lon="37.3534400">
    <ele>3996.6</ele>
    <time>2026-06-22T08:54:26Z</time>
   </trkpt>
   <trkpt lat="-3.1120210" lon="37.3534400">
    <ele>3996.7</ele>
    <time>2026-06-22T08:54:27Z</time>
   </trkpt>
   <trkpt lat="-3.1120260" lon="37.3534420">
    <ele>3996.8</ele>
    <time>2026-06-22T08:54:28Z</time>
   </trkpt>
   <trkpt lat="-3.1120290" lon="37.3534420">
    <ele>3996.9</ele>
    <time>2026-06-22T08:54:29Z</time>
   </trkpt>
   <trkpt lat="-3.1120310" lon="37.3534450">
    <ele>3997.0</ele>
    <time>2026-06-22T08:54:30Z</time>
   </trkpt>
   <trkpt lat="-3.1120320" lon="37.3534450">
    <ele>3997.1</ele>
    <time>2026-06-22T08:54:31Z</time>
   </trkpt>
   <trkpt lat="-3.1120340" lon="37.3534460">
    <ele>3997.2</ele>
    <time>2026-06-22T08:54:32Z</time>
   </trkpt>
   <trkpt lat="-3.1120330" lon="37.3534490">
    <ele>3997.3</ele>
    <time>2026-06-22T08:54:33Z</time>
   </trkpt>
   <trkpt lat="-3.1120350" lon="37.3534470">
    <ele>3997.3</ele>
    <time>2026-06-22T08:54:34Z</time>
   </trkpt>
   <trkpt lat="-3.1120340" lon="37.3534450">
    <ele>3997.4</ele>
    <time>2026-06-22T08:54:35Z</time>
   </trkpt>
   <trkpt lat="-3.1120360" lon="37.3534470">
    <ele>3997.5</ele>
    <time>2026-06-22T08:54:36Z</time>
   </trkpt>
   <trkpt lat="-3.1120390" lon="37.3534480">
    <ele>3997.6</ele>
    <time>2026-06-22T08:54:37Z</time>
   </trkpt>
   <trkpt lat="-3.1120390" lon="37.3534480">
    <ele>3997.6</ele>
    <time>2026-06-22T08:54:38Z</time>
   </trkpt>
   <trkpt lat="-3.1120390" lon="37.3534480">
    <ele>3997.6</ele>
    <time>2026-06-22T08:54:39Z</time>
   </trkpt>
   <trkpt lat="-3.1120410" lon="37.3534500">
    <ele>3997.7</ele>
    <time>2026-06-22T08:54:40Z</time>
   </trkpt>
   <trkpt lat="-3.1120400" lon="37.3534510">
    <ele>3997.7</ele>
    <time>2026-06-22T08:54:41Z</time>
   </trkpt>
   <trkpt lat="-3.1120390" lon="37.3534540">
    <ele>3997.8</ele>
    <time>2026-06-22T08:54:42Z</time>
   </trkpt>
   <trkpt lat="-3.1120370" lon="37.3534550">
    <ele>3997.9</ele>
    <time>2026-06-22T08:54:43Z</time>
   </trkpt>
   <trkpt lat="-3.1120320" lon="37.3534560">
    <ele>3998.1</ele>
    <time>2026-06-22T08:54:44Z</time>
   </trkpt>
   <trkpt lat="-3.1120300" lon="37.3534570">
    <ele>3998.1</ele>
    <time>2026-06-22T08:54:45Z</time>
   </trkpt>
   <trkpt lat="-3.1120330" lon="37.3534610">
    <ele>3998.3</ele>
    <time>2026-06-22T08:54:46Z</time>
   </trkpt>
   <trkpt lat="-3.1120300" lon="37.3534630">
    <ele>3998.4</ele>
    <time>2026-06-22T08:54:47Z</time>
   </trkpt>
   <trkpt lat="-3.1120260" lon="37.3534660">
    <ele>3998.6</ele>
    <time>2026-06-22T08:54:48Z</time>
   </trkpt>
   <trkpt lat="-3.1120250" lon="37.3534670">
    <ele>3998.6</ele>
    <time>2026-06-22T08:54:49Z</time>
   </trkpt>
   <trkpt lat="-3.1120250" lon="37.3534700">
    <ele>3998.7</ele>
    <time>2026-06-22T08:54:50Z</time>
   </trkpt>
   <trkpt lat="-3.1120230" lon="37.3534740">
    <ele>3998.9</ele>
    <time>2026-06-22T08:54:51Z</time>
   </trkpt>
   <trkpt lat="-3.1120240" lon="37.3534770">
    <ele>3999.0</ele>
    <time>2026-06-22T08:54:52Z</time>
   </trkpt>
   <trkpt lat="-3.1120220" lon="37.3534790">
    <ele>3999.0</ele>
    <time>2026-06-22T08:54:53Z</time>
   </trkpt>
   <trkpt lat="-3.1120190" lon="37.3534800">
    <ele>3999.1</ele>
    <time>2026-06-22T08:54:54Z</time>
   </trkpt>
   <trkpt lat="-3.1120220" lon="37.3534850">
    <ele>3999.3</ele>
    <time>2026-06-22T08:54:55Z</time>
   </trkpt>
   <trkpt lat="-3.1120250" lon="37.3534860">
    <ele>3999.4</ele>
    <time>2026-06-22T08:54:56Z</time>
   </trkpt>
   <trkpt lat="-3.1120280" lon="37.3534890">
    <ele>3999.5</ele>
    <time>2026-06-22T08:54:57Z</time>
   </trkpt>
   <trkpt lat="-3.1120300" lon="37.3534910">
    <ele>3999.6</ele>
    <time>2026-06-22T08:54:58Z</time>
   </trkpt>
   <trkpt lat="-3.1120340" lon="37.3534940">
    <ele>3999.8</ele>
    <time>2026-06-22T08:54:59Z</time>
   </trkpt>
   <trkpt lat="-3.1120370" lon="37.3534960">
    <ele>3999.9</ele>
    <time>2026-06-22T08:55:00Z</time>
   </trkpt>
   <trkpt lat="-3.1120380" lon="37.3534970">
    <ele>3999.9</ele>
    <time>2026-06-22T08:55:01Z</time>
   </trkpt>
   <trkpt lat="-3.1120390" lon="37.3534950">
    <ele>4000.0</ele>
    <time>2026-06-22T08:55:02Z</time>
   </trkpt>
   <trkpt lat="-3.1120420" lon="37.3534950">
    <ele>4000.1</ele>
    <time>2026-06-22T08:55:03Z</time>
   </trkpt>
   <trkpt lat="-3.1120450" lon="37.3534960">
    <ele>4000.2</ele>
    <time>2026-06-22T08:55:04Z</time>
   </trkpt>
   <trkpt lat="-3.1120490" lon="37.3534970">
    <ele>4000.3</ele>
    <time>2026-06-22T08:55:05Z</time>
   </trkpt>
   <trkpt lat="-3.1120520" lon="37.3535000">
    <ele>4000.5</ele>
    <time>2026-06-22T08:55:06Z</time>
   </trkpt>
   <trkpt lat="-3.1120520" lon="37.3535020">
    <ele>4000.5</ele>
    <time>2026-06-22T08:55:07Z</time>
   </trkpt>
   <trkpt lat="-3.1120530" lon="37.3535020">
    <ele>4000.6</ele>
    <time>2026-06-22T08:55:08Z</time>
   </trkpt>
   <trkpt lat="-3.1120520" lon="37.3535050">
    <ele>4000.7</ele>
    <time>2026-06-22T08:55:09Z</time>
   </trkpt>
   <trkpt lat="-3.1120530" lon="37.3535080">
    <ele>4000.8</ele>
    <time>2026-06-22T08:55:10Z</time>
   </trkpt>
   <trkpt lat="-3.1120500" lon="37.3535100">
    <ele>4000.9</ele>
    <time>2026-06-22T08:55:11Z</time>
   </trkpt>
   <trkpt lat="-3.1120510" lon="37.3535120">
    <ele>4000.9</ele>
    <time>2026-06-22T08:55:12Z</time>
   </trkpt>
   <trkpt lat="-3.1120500" lon="37.3535140">
    <ele>4001.0</ele>
    <time>2026-06-22T08:55:13Z</time>
   </trkpt>
   <trkpt lat="-3.1120450" lon="37.3535170">
    <ele>4001.2</ele>
    <time>2026-06-22T08:55:14Z</time>
   </trkpt>
   <trkpt lat="-3.1120450" lon="37.3535190">
    <ele>4001.3</ele>
    <time>2026-06-22T08:55:15Z</time>
   </trkpt>
   <trkpt lat="-3.1120410" lon="37.3535220">
    <ele>4001.4</ele>
    <time>2026-06-22T08:55:16Z</time>
   </trkpt>
   <trkpt lat="-3.1120380" lon="37.3535230">
    <ele>4001.5</ele>
    <time>2026-06-22T08:55:17Z</time>
   </trkpt>
   <trkpt lat="-3.1120360" lon="37.3535220">
    <ele>4001.6</ele>
    <time>2026-06-22T08:55:18Z</time>
   </trkpt>
   <trkpt lat="-3.1120310" lon="37.3535250">
    <ele>4001.8</ele>
    <time>2026-06-22T08:55:19Z</time>
   </trkpt>
   <trkpt lat="-3.1120320" lon="37.3535280">
    <ele>4001.9</ele>
    <time>2026-06-22T08:55:20Z</time>
   </trkpt>
   <trkpt lat="-3.1120330" lon="37.3535300">
    <ele>4001.9</ele>
    <time>2026-06-22T08:55:21Z</time>
   </trkpt>
   <trkpt lat="-3.1120340" lon="37.3535340">
    <ele>4002.1</ele>
    <time>2026-06-22T08:55:22Z</time>
   </trkpt>
   <trkpt lat="-3.1120330" lon="37.3535340">
    <ele>4002.1</ele>
    <time>2026-06-22T08:55:23Z</time>
   </trkpt>
   <trkpt lat="-3.1120340" lon="37.3535340">
    <ele>4002.1</ele>
    <time>2026-06-22T08:55:24Z</time>
   </trkpt>
   <trkpt lat="-3.1120350" lon="37.3535350">
    <ele>4002.2</ele>
    <time>2026-06-22T08:55:25Z</time>
   </trkpt>
   <trkpt lat="-3.1120390" lon="37.3535380">
    <ele>4002.3</ele>
    <time>2026-06-22T08:55:26Z</time>
   </trkpt>
   <trkpt lat="-3.1120450" lon="37.3535380">
    <ele>4002.5</ele>
    <time>2026-06-22T08:55:27Z</time>
   </trkpt>
   <trkpt lat="-3.1120510" lon="37.3535390">
    <ele>4002.7</ele>
    <time>2026-06-22T08:55:28Z</time>
   </trkpt>
   <trkpt lat="-3.1120540" lon="37.3535380">
    <ele>4002.8</ele>
    <time>2026-06-22T08:55:29Z</time>
   </trkpt>
   <trkpt lat="-3.1120580" lon="37.3535330">
    <ele>4003.0</ele>
    <time>2026-06-22T08:55:30Z</time>
   </trkpt>
   <trkpt lat="-3.1120630" lon="37.3535310">
    <ele>4003.2</ele>
    <time>2026-06-22T08:55:31Z</time>
   </trkpt>
   <trkpt lat="-3.1120660" lon="37.3535280">
    <ele>4003.3</ele>
    <time>2026-06-22T08:55:32Z</time>
   </trkpt>
   <trkpt lat="-3.1120700" lon="37.3535240">
    <ele>4003.5</ele>
    <time>2026-06-22T08:55:33Z</time>
   </trkpt>
   <trkpt lat="-3.1120750" lon="37.3535240">
    <ele>4003.6</ele>
    <time>2026-06-22T08:55:34Z</time>
   </trkpt>
   <trkpt lat="-3.1120800" lon="37.3535220">
    <ele>4003.8</ele>
    <time>2026-06-22T08:55:35Z</time>
   </trkpt>
   <trkpt lat="-3.1120840" lon="37.3535220">
    <ele>4003.9</ele>
    <time>2026-06-22T08:55:36Z</time>
   </trkpt>
   <trkpt lat="-3.1120910" lon="37.3535240">
    <ele>4004.1</ele>
    <time>2026-06-22T08:55:37Z</time>
   </trkpt>
   <trkpt lat="-3.1120920" lon="37.3535260">
    <ele>4004.2</ele>
    <time>2026-06-22T08:55:38Z</time>
   </trkpt>
   <trkpt lat="-3.1120930" lon="37.3535320">
    <ele>4004.4</ele>
    <time>2026-06-22T08:55:39Z</time>
   </trkpt>
   <trkpt lat="-3.1120880" lon="37.3535360">
    <ele>4004.6</ele>
    <time>2026-06-22T08:55:40Z</time>
   </trkpt>
   <trkpt lat="-3.1120930" lon="37.3535370">
    <ele>4004.8</ele>
    <time>2026-06-22T08:55:41Z</time>
   </trkpt>
   <trkpt lat="-3.1120910" lon="37.3535410">
    <ele>4004.9</ele>
    <time>2026-06-22T08:55:42Z</time>
   </trkpt>
   <trkpt lat="-3.1120920" lon="37.3535450">
    <ele>4005.0</ele>
    <time>2026-06-22T08:55:43Z</time>
   </trkpt>
   <trkpt lat="-3.1120920" lon="37.3535500">
    <ele>4005.2</ele>
    <time>2026-06-22T08:55:44Z</time>
   </trkpt>
   <trkpt lat="-3.1120920" lon="37.3535490">
    <ele>4005.2</ele>
    <time>2026-06-22T08:55:46Z</time>
   </trkpt>
   <trkpt lat="-3.1120890" lon="37.3535520">
    <ele>4005.3</ele>
    <time>2026-06-22T08:55:47Z</time>
   </trkpt>
   <trkpt lat="-3.1120880" lon="37.3535540">
    <ele>4005.4</ele>
    <time>2026-06-22T08:55:48Z</time>
   </trkpt>
   <trkpt lat="-3.1120880" lon="37.3535530">
    <ele>4005.4</ele>
    <time>2026-06-22T08:55:49Z</time>
   </trkpt>
   <trkpt lat="-3.1120860" lon="37.3535540">
    <ele>4005.5</ele>
    <time>2026-06-22T08:55:50Z</time>
   </trkpt>
   <trkpt lat="-3.1120870" lon="37.3535550">
    <ele>4005.6</ele>
    <time>2026-06-22T08:55:51Z</time>
   </trkpt>
   <trkpt lat="-3.1120870" lon="37.3535550">
    <ele>4005.6</ele>
    <time>2026-06-22T08:55:52Z</time>
   </trkpt>
   <trkpt lat="-3.1120870" lon="37.3535550">
    <ele>4005.6</ele>
    <time>2026-06-22T08:55:53Z</time>
   </trkpt>
   <trkpt lat="-3.1120870" lon="37.3535550">
    <ele>4005.6</ele>
    <time>2026-06-22T08:55:54Z</time>
   </trkpt>
   <trkpt lat="-3.1120820" lon="37.3535590">
    <ele>4005.8</ele>
    <time>2026-06-22T08:55:55Z</time>
   </trkpt>
   <trkpt lat="-3.1120840" lon="37.3535590">
    <ele>4005.8</ele>
    <time>2026-06-22T08:55:56Z</time>
   </trkpt>
   <trkpt lat="-3.1120830" lon="37.3535600">
    <ele>4005.9</ele>
    <time>2026-06-22T08:55:57Z</time>
   </trkpt>
   <trkpt lat="-3.1120820" lon="37.3535620">
    <ele>4005.9</ele>
    <time>2026-06-22T08:55:58Z</time>
   </trkpt>
   <trkpt lat="-3.1120790" lon="37.3535640">
    <ele>4006.0</ele>
    <time>2026-06-22T08:55:59Z</time>
   </trkpt>
   <trkpt lat="-3.1120800" lon="37.3535640">
    <ele>4006.1</ele>
    <time>2026-06-22T08:56:00Z</time>
   </trkpt>
   <trkpt lat="-3.1120820" lon="37.3535710">
    <ele>4006.3</ele>
    <time>2026-06-22T08:56:01Z</time>
   </trkpt>
   <trkpt lat="-3.1120840" lon="37.3535770">
    <ele>4006.5</ele>
    <time>2026-06-22T08:56:02Z</time>
   </trkpt>
   <trkpt lat="-3.1120810" lon="37.3535730">
    <ele>4006.7</ele>
    <time>2026-06-22T08:56:03Z</time>
   </trkpt>
   <trkpt lat="-3.1120770" lon="37.3535750">
    <ele>4006.8</ele>
    <time>2026-06-22T08:56:04Z</time>
   </trkpt>
   <trkpt lat="-3.1120740" lon="37.3535790">
    <ele>4007.0</ele>
    <time>2026-06-22T08:56:05Z</time>
   </trkpt>
   <trkpt lat="-3.1120760" lon="37.3535790">
    <ele>4007.0</ele>
    <time>2026-06-22T08:56:06Z</time>
   </trkpt>
   <trkpt lat="-3.1120760" lon="37.3535840">
    <ele>4007.1</ele>
    <time>2026-06-22T08:56:07Z</time>
   </trkpt>
   <trkpt lat="-3.1120770" lon="37.3535830">
    <ele>4007.2</ele>
    <time>2026-06-22T08:56:08Z</time>
   </trkpt>
   <trkpt lat="-3.1120770" lon="37.3535820">
    <ele>4007.2</ele>
    <time>2026-06-22T08:56:09Z</time>
   </trkpt>
   <trkpt lat="-3.1120790" lon="37.3535860">
    <ele>4007.3</ele>
    <time>2026-06-22T08:56:10Z</time>
   </trkpt>
   <trkpt lat="-3.1120810" lon="37.3535860">
    <ele>4007.3</ele>
    <time>2026-06-22T08:56:11Z</time>
   </trkpt>
   <trkpt lat="-3.1120820" lon="37.3535870">
    <ele>4007.4</ele>
    <time>2026-06-22T08:56:12Z</time>
   </trkpt>
   <trkpt lat="-3.1120830" lon="37.3535850">
    <ele>4007.4</ele>
    <time>2026-06-22T08:56:13Z</time>
   </trkpt>
   <trkpt lat="-3.1120950" lon="37.3535910">
    <ele>4007.7</ele>
    <time>2026-06-22T08:56:14Z</time>
   </trkpt>
   <trkpt lat="-3.1120950" lon="37.3535920">
    <ele>4007.8</ele>
    <time>2026-06-22T08:56:15Z</time>
   </trkpt>
   <trkpt lat="-3.1120960" lon="37.3535910">
    <ele>4007.8</ele>
    <time>2026-06-22T08:56:16Z</time>
   </trkpt>
   <trkpt lat="-3.1120960" lon="37.3535890">
    <ele>4007.8</ele>
    <time>2026-06-22T08:56:17Z</time>
   </trkpt>
   <trkpt lat="-3.1120990" lon="37.3535890">
    <ele>4007.9</ele>
    <time>2026-06-22T08:56:18Z</time>
   </trkpt>
   <trkpt lat="-3.1121000" lon="37.3535890">
    <ele>4007.9</ele>
    <time>2026-06-22T08:56:19Z</time>
   </trkpt>
   <trkpt lat="-3.1120990" lon="37.3535870">
    <ele>4008.0</ele>
    <time>2026-06-22T08:56:20Z</time>
   </trkpt>
   <trkpt lat="-3.1121010" lon="37.3535850">
    <ele>4008.0</ele>
    <time>2026-06-22T08:56:21Z</time>
   </trkpt>
   <trkpt lat="-3.1121060" lon="37.3535860">
    <ele>4008.2</ele>
    <time>2026-06-22T08:56:22Z</time>
   </trkpt>
   <trkpt lat="-3.1121170" lon="37.3535910">
    <ele>4008.4</ele>
    <time>2026-06-22T08:56:23Z</time>
   </trkpt>
   <trkpt lat="-3.1121130" lon="37.3535850">
    <ele>4008.6</ele>
    <time>2026-06-22T08:56:24Z</time>
   </trkpt>
   <trkpt lat="-3.1121120" lon="37.3535860">
    <ele>4008.6</ele>
    <time>2026-06-22T08:56:25Z</time>
   </trkpt>
   <trkpt lat="-3.1121110" lon="37.3535850">
    <ele>4008.7</ele>
    <time>2026-06-22T08:56:26Z</time>
   </trkpt>
   <trkpt lat="-3.1121110" lon="37.3535850">
    <ele>4008.7</ele>
    <time>2026-06-22T08:56:27Z</time>
   </trkpt>
   <trkpt lat="-3.1121110" lon="37.3535860">
    <ele>4008.7</ele>
    <time>2026-06-22T08:56:28Z</time>
   </trkpt>
   <trkpt lat="-3.1121130" lon="37.3535880">
    <ele>4008.7</ele>
    <time>2026-06-22T08:56:29Z</time>
   </trkpt>
   <trkpt lat="-3.1121140" lon="37.3535890">
    <ele>4008.8</ele>
    <time>2026-06-22T08:56:30Z</time>
   </trkpt>
   <trkpt lat="-3.1121160" lon="37.3535930">
    <ele>4008.9</ele>
    <time>2026-06-22T08:56:31Z</time>
   </trkpt>
   <trkpt lat="-3.1121170" lon="37.3535930">
    <ele>4008.9</ele>
    <time>2026-06-22T08:56:32Z</time>
   </trkpt>
   <trkpt lat="-3.1121140" lon="37.3535960">
    <ele>4009.0</ele>
    <time>2026-06-22T08:56:33Z</time>
   </trkpt>
   <trkpt lat="-3.1121150" lon="37.3535970">
    <ele>4009.0</ele>
    <time>2026-06-22T08:56:34Z</time>
   </trkpt>
   <trkpt lat="-3.1121190" lon="37.3535990">
    <ele>4009.1</ele>
    <time>2026-06-22T08:56:35Z</time>
   </trkpt>
   <trkpt lat="-3.1121150" lon="37.3536000">
    <ele>4009.2</ele>
    <time>2026-06-22T08:56:36Z</time>
   </trkpt>
   <trkpt lat="-3.1121140" lon="37.3536010">
    <ele>4009.2</ele>
    <time>2026-06-22T08:56:37Z</time>
   </trkpt>
   <trkpt lat="-3.1121150" lon="37.3536020">
    <ele>4009.3</ele>
    <time>2026-06-22T08:56:38Z</time>
   </trkpt>
   <trkpt lat="-3.1121130" lon="37.3536030">
    <ele>4009.3</ele>
    <time>2026-06-22T08:56:39Z</time>
   </trkpt>
   <trkpt lat="-3.1121180" lon="37.3536090">
    <ele>4009.5</ele>
    <time>2026-06-22T08:56:40Z</time>
   </trkpt>
   <trkpt lat="-3.1121160" lon="37.3536080">
    <ele>4009.6</ele>
    <time>2026-06-22T08:56:41Z</time>
   </trkpt>
   <trkpt lat="-3.1121160" lon="37.3536070">
    <ele>4009.6</ele>
    <time>2026-06-22T08:56:42Z</time>
   </trkpt>
   <trkpt lat="-3.1121140" lon="37.3536090">
    <ele>4009.6</ele>
    <time>2026-06-22T08:56:43Z</time>
   </trkpt>
   <trkpt lat="-3.1121110" lon="37.3536100">
    <ele>4009.7</ele>
    <time>2026-06-22T08:56:44Z</time>
   </trkpt>
   <trkpt lat="-3.1121130" lon="37.3536100">
    <ele>4009.8</ele>
    <time>2026-06-22T08:56:45Z</time>
   </trkpt>
   <trkpt lat="-3.1121110" lon="37.3536110">
    <ele>4009.8</ele>
    <time>2026-06-22T08:56:46Z</time>
   </trkpt>
   <trkpt lat="-3.1121130" lon="37.3536120">
    <ele>4009.9</ele>
    <time>2026-06-22T08:56:47Z</time>
   </trkpt>
   <trkpt lat="-3.1121090" lon="37.3536150">
    <ele>4010.0</ele>
    <time>2026-06-22T08:56:48Z</time>
   </trkpt>
   <trkpt lat="-3.1121080" lon="37.3536170">
    <ele>4010.0</ele>
    <time>2026-06-22T08:56:49Z</time>
   </trkpt>
   <trkpt lat="-3.1121080" lon="37.3536170">
    <ele>4010.0</ele>
    <time>2026-06-22T08:56:50Z</time>
   </trkpt>
   <trkpt lat="-3.1121110" lon="37.3536160">
    <ele>4010.1</ele>
    <time>2026-06-22T08:56:51Z</time>
   </trkpt>
   <trkpt lat="-3.1121100" lon="37.3536190">
    <ele>4010.2</ele>
    <time>2026-06-22T08:56:52Z</time>
   </trkpt>
   <trkpt lat="-3.1121110" lon="37.3536250">
    <ele>4010.3</ele>
    <time>2026-06-22T08:56:53Z</time>
   </trkpt>
   <trkpt lat="-3.1121130" lon="37.3536260">
    <ele>4010.4</ele>
    <time>2026-06-22T08:56:54Z</time>
   </trkpt>
   <trkpt lat="-3.1121110" lon="37.3536250">
    <ele>4010.4</ele>
    <time>2026-06-22T08:56:55Z</time>
   </trkpt>
   <trkpt lat="-3.1121150" lon="37.3536270">
    <ele>4010.5</ele>
    <time>2026-06-22T08:56:56Z</time>
   </trkpt>
   <trkpt lat="-3.1121140" lon="37.3536260">
    <ele>4010.5</ele>
    <time>2026-06-22T08:56:57Z</time>
   </trkpt>
   <trkpt lat="-3.1121130" lon="37.3536250">
    <ele>4010.6</ele>
    <time>2026-06-22T08:56:58Z</time>
   </trkpt>
   <trkpt lat="-3.1121130" lon="37.3536250">
    <ele>4010.6</ele>
    <time>2026-06-22T08:56:59Z</time>
   </trkpt>
   <trkpt lat="-3.1121130" lon="37.3536250">
    <ele>4010.6</ele>
    <time>2026-06-22T08:57:00Z</time>
   </trkpt>
   <trkpt lat="-3.1121080" lon="37.3536260">
    <ele>4010.7</ele>
    <time>2026-06-22T08:57:01Z</time>
   </trkpt>
   <trkpt lat="-3.1121060" lon="37.3536260">
    <ele>4010.7</ele>
    <time>2026-06-22T08:57:02Z</time>
   </trkpt>
   <trkpt lat="-3.1121020" lon="37.3536300">
    <ele>4010.9</ele>
    <time>2026-06-22T08:57:03Z</time>
   </trkpt>
   <trkpt lat="-3.1121050" lon="37.3536310">
    <ele>4010.9</ele>
    <time>2026-06-22T08:57:04Z</time>
   </trkpt>
   <trkpt lat="-3.1120990" lon="37.3536300">
    <ele>4011.1</ele>
    <time>2026-06-22T08:57:05Z</time>
   </trkpt>
   <trkpt lat="-3.1120970" lon="37.3536330">
    <ele>4011.1</ele>
    <time>2026-06-22T08:57:06Z</time>
   </trkpt>
   <trkpt lat="-3.1120990" lon="37.3536340">
    <ele>4011.2</ele>
    <time>2026-06-22T08:57:07Z</time>
   </trkpt>
   <trkpt lat="-3.1120990" lon="37.3536350">
    <ele>4011.2</ele>
    <time>2026-06-22T08:57:08Z</time>
   </trkpt>
   <trkpt lat="-3.1121000" lon="37.3536350">
    <ele>4011.2</ele>
    <time>2026-06-22T08:57:09Z</time>
   </trkpt>
   <trkpt lat="-3.1121050" lon="37.3536390">
    <ele>4011.4</ele>
    <time>2026-06-22T08:57:10Z</time>
   </trkpt>
   <trkpt lat="-3.1121050" lon="37.3536380">
    <ele>4011.4</ele>
    <time>2026-06-22T08:57:11Z</time>
   </trkpt>
   <trkpt lat="-3.1121070" lon="37.3536420">
    <ele>4011.5</ele>
    <time>2026-06-22T08:57:12Z</time>
   </trkpt>
   <trkpt lat="-3.1121100" lon="37.3536430">
    <ele>4011.6</ele>
    <time>2026-06-22T08:57:13Z</time>
   </trkpt>
   <trkpt lat="-3.1121110" lon="37.3536420">
    <ele>4011.6</ele>
    <time>2026-06-22T08:57:14Z</time>
   </trkpt>
   <trkpt lat="-3.1121090" lon="37.3536430">
    <ele>4011.7</ele>
    <time>2026-06-22T08:57:15Z</time>
   </trkpt>
   <trkpt lat="-3.1121120" lon="37.3536450">
    <ele>4011.7</ele>
    <time>2026-06-22T08:57:16Z</time>
   </trkpt>
   <trkpt lat="-3.1121150" lon="37.3536490">
    <ele>4011.9</ele>
    <time>2026-06-22T08:57:17Z</time>
   </trkpt>
   <trkpt lat="-3.1121170" lon="37.3536490">
    <ele>4011.9</ele>
    <time>2026-06-22T08:57:18Z</time>
   </trkpt>
   <trkpt lat="-3.1121200" lon="37.3536500">
    <ele>4012.0</ele>
    <time>2026-06-22T08:57:19Z</time>
   </trkpt>
   <trkpt lat="-3.1121240" lon="37.3536510">
    <ele>4012.1</ele>
    <time>2026-06-22T08:57:20Z</time>
   </trkpt>
   <trkpt lat="-3.1121280" lon="37.3536560">
    <ele>4012.2</ele>
    <time>2026-06-22T08:57:21Z</time>
   </trkpt>
   <trkpt lat="-3.1121300" lon="37.3536600">
    <ele>4012.3</ele>
    <time>2026-06-22T08:57:22Z</time>
   </trkpt>
   <trkpt lat="-3.1121260" lon="37.3536600">
    <ele>4012.4</ele>
    <time>2026-06-22T08:57:23Z</time>
   </trkpt>
   <trkpt lat="-3.1121240" lon="37.3536620">
    <ele>4012.5</ele>
    <time>2026-06-22T08:57:24Z</time>
   </trkpt>
   <trkpt lat="-3.1121200" lon="37.3536630">
    <ele>4012.6</ele>
    <time>2026-06-22T08:57:25Z</time>
   </trkpt>
   <trkpt lat="-3.1121190" lon="37.3536650">
    <ele>4012.6</ele>
    <time>2026-06-22T08:57:26Z</time>
   </trkpt>
   <trkpt lat="-3.1121170" lon="37.3536690">
    <ele>4012.7</ele>
    <time>2026-06-22T08:57:27Z</time>
   </trkpt>
   <trkpt lat="-3.1121160" lon="37.3536710">
    <ele>4012.8</ele>
    <time>2026-06-22T08:57:28Z</time>
   </trkpt>
   <trkpt lat="-3.1121130" lon="37.3536720">
    <ele>4012.8</ele>
    <time>2026-06-22T08:57:29Z</time>
   </trkpt>
   <trkpt lat="-3.1121140" lon="37.3536730">
    <ele>4012.9</ele>
    <time>2026-06-22T08:57:30Z</time>
   </trkpt>
   <trkpt lat="-3.1121130" lon="37.3536740">
    <ele>4012.9</ele>
    <time>2026-06-22T08:57:31Z</time>
   </trkpt>
   <trkpt lat="-3.1121120" lon="37.3536740">
    <ele>4012.9</ele>
    <time>2026-06-22T08:57:32Z</time>
   </trkpt>
   <trkpt lat="-3.1121110" lon="37.3536730">
    <ele>4012.9</ele>
    <time>2026-06-22T08:57:33Z</time>
   </trkpt>
   <trkpt lat="-3.1121150" lon="37.3536780">
    <ele>4013.1</ele>
    <time>2026-06-22T08:57:34Z</time>
   </trkpt>
   <trkpt lat="-3.1121160" lon="37.3536800">
    <ele>4013.1</ele>
    <time>2026-06-22T08:57:35Z</time>
   </trkpt>
   <trkpt lat="-3.1121170" lon="37.3536820">
    <ele>4013.2</ele>
    <time>2026-06-22T08:57:36Z</time>
   </trkpt>
   <trkpt lat="-3.1121130" lon="37.3536840">
    <ele>4013.3</ele>
    <time>2026-06-22T08:57:37Z</time>
   </trkpt>
   <trkpt lat="-3.1121160" lon="37.3536890">
    <ele>4013.4</ele>
    <time>2026-06-22T08:57:38Z</time>
   </trkpt>
   <trkpt lat="-3.1121140" lon="37.3536870">
    <ele>4013.4</ele>
    <time>2026-06-22T08:57:39Z</time>
   </trkpt>
   <trkpt lat="-3.1121120" lon="37.3536860">
    <ele>4013.5</ele>
    <time>2026-06-22T08:57:40Z</time>
   </trkpt>
   <trkpt lat="-3.1121140" lon="37.3536880">
    <ele>4013.6</ele>
    <time>2026-06-22T08:57:41Z</time>
   </trkpt>
   <trkpt lat="-3.1121100" lon="37.3536880">
    <ele>4013.6</ele>
    <time>2026-06-22T08:57:42Z</time>
   </trkpt>
   <trkpt lat="-3.1121100" lon="37.3536910">
    <ele>4013.7</ele>
    <time>2026-06-22T08:57:43Z</time>
   </trkpt>
   <trkpt lat="-3.1121130" lon="37.3536960">
    <ele>4013.8</ele>
    <time>2026-06-22T08:57:44Z</time>
   </trkpt>
   <trkpt lat="-3.1121160" lon="37.3536960">
    <ele>4013.9</ele>
    <time>2026-06-22T08:57:45Z</time>
   </trkpt>
   <trkpt lat="-3.1121190" lon="37.3536980">
    <ele>4014.0</ele>
    <time>2026-06-22T08:57:46Z</time>
   </trkpt>
   <trkpt lat="-3.1121170" lon="37.3536980">
    <ele>4014.0</ele>
    <time>2026-06-22T08:57:47Z</time>
   </trkpt>
   <trkpt lat="-3.1121170" lon="37.3537010">
    <ele>4014.1</ele>
    <time>2026-06-22T08:57:48Z</time>
   </trkpt>
   <trkpt lat="-3.1121160" lon="37.3537050">
    <ele>4014.1</ele>
    <time>2026-06-22T08:57:49Z</time>
   </trkpt>
   <trkpt lat="-3.1121170" lon="37.3537060">
    <ele>4014.2</ele>
    <time>2026-06-22T08:57:51Z</time>
   </trkpt>
   <trkpt lat="-3.1121130" lon="37.3537070">
    <ele>4014.3</ele>
    <time>2026-06-22T08:57:52Z</time>
   </trkpt>
   <trkpt lat="-3.1121130" lon="37.3537070">
    <ele>4014.3</ele>
    <time>2026-06-22T08:57:53Z</time>
   </trkpt>
   <trkpt lat="-3.1121140" lon="37.3537110">
    <ele>4014.3</ele>
    <time>2026-06-22T08:57:54Z</time>
   </trkpt>
   <trkpt lat="-3.1121110" lon="37.3537120">
    <ele>4014.4</ele>
    <time>2026-06-22T08:57:55Z</time>
   </trkpt>
   <trkpt lat="-3.1121120" lon="37.3537150">
    <ele>4014.5</ele>
    <time>2026-06-22T08:57:56Z</time>
   </trkpt>
   <trkpt lat="-3.1121120" lon="37.3537150">
    <ele>4014.5</ele>
    <time>2026-06-22T08:57:57Z</time>
   </trkpt>
   <trkpt lat="-3.1121120" lon="37.3537160">
    <ele>4014.5</ele>
    <time>2026-06-22T08:57:58Z</time>
   </trkpt>
   <trkpt lat="-3.1121150" lon="37.3537170">
    <ele>4014.5</ele>
    <time>2026-06-22T08:57:59Z</time>
   </trkpt>
   <trkpt lat="-3.1121180" lon="37.3537170">
    <ele>4014.6</ele>
    <time>2026-06-22T08:58:00Z</time>
   </trkpt>
   <trkpt lat="-3.1121190" lon="37.3537200">
    <ele>4014.6</ele>
    <time>2026-06-22T08:58:01Z</time>
   </trkpt>
   <trkpt lat="-3.1121230" lon="37.3537190">
    <ele>4014.7</ele>
    <time>2026-06-22T08:58:02Z</time>
   </trkpt>
   <trkpt lat="-3.1121310" lon="37.3537230">
    <ele>4014.9</ele>
    <time>2026-06-22T08:58:03Z</time>
   </trkpt>
   <trkpt lat="-3.1121330" lon="37.3537210">
    <ele>4014.9</ele>
    <time>2026-06-22T08:58:04Z</time>
   </trkpt>
   <trkpt lat="-3.1121380" lon="37.3537220">
    <ele>4015.0</ele>
    <time>2026-06-22T08:58:05Z</time>
   </trkpt>
   <trkpt lat="-3.1121460" lon="37.3537250">
    <ele>4015.2</ele>
    <time>2026-06-22T08:58:06Z</time>
   </trkpt>
   <trkpt lat="-3.1121450" lon="37.3537250">
    <ele>4015.2</ele>
    <time>2026-06-22T08:58:07Z</time>
   </trkpt>
   <trkpt lat="-3.1121450" lon="37.3537270">
    <ele>4015.3</ele>
    <time>2026-06-22T08:58:08Z</time>
   </trkpt>
   <trkpt lat="-3.1121440" lon="37.3537310">
    <ele>4015.3</ele>
    <time>2026-06-22T08:58:09Z</time>
   </trkpt>
   <trkpt lat="-3.1121440" lon="37.3537340">
    <ele>4015.4</ele>
    <time>2026-06-22T08:58:10Z</time>
   </trkpt>
   <trkpt lat="-3.1121420" lon="37.3537360">
    <ele>4015.4</ele>
    <time>2026-06-22T08:58:11Z</time>
   </trkpt>
   <trkpt lat="-3.1121390" lon="37.3537360">
    <ele>4015.5</ele>
    <time>2026-06-22T08:58:12Z</time>
   </trkpt>
   <trkpt lat="-3.1121370" lon="37.3537370">
    <ele>4015.5</ele>
    <time>2026-06-22T08:58:13Z</time>
   </trkpt>
   <trkpt lat="-3.1121350" lon="37.3537400">
    <ele>4015.6</ele>
    <time>2026-06-22T08:58:14Z</time>
   </trkpt>
   <trkpt lat="-3.1121330" lon="37.3537380">
    <ele>4015.6</ele>
    <time>2026-06-22T08:58:15Z</time>
   </trkpt>
   <trkpt lat="-3.1121340" lon="37.3537410">
    <ele>4015.7</ele>
    <time>2026-06-22T08:58:16Z</time>
   </trkpt>
   <trkpt lat="-3.1121330" lon="37.3537440">
    <ele>4015.8</ele>
    <time>2026-06-22T08:58:17Z</time>
   </trkpt>
   <trkpt lat="-3.1121290" lon="37.3537450">
    <ele>4015.8</ele>
    <time>2026-06-22T08:58:18Z</time>
   </trkpt>
   <trkpt lat="-3.1121300" lon="37.3537470">
    <ele>4015.9</ele>
    <time>2026-06-22T08:58:19Z</time>
   </trkpt>
   <trkpt lat="-3.1121300" lon="37.3537510">
    <ele>4015.9</ele>
    <time>2026-06-22T08:58:20Z</time>
   </trkpt>
   <trkpt lat="-3.1121280" lon="37.3537520">
    <ele>4016.0</ele>
    <time>2026-06-22T08:58:21Z</time>
   </trkpt>
   <trkpt lat="-3.1121270" lon="37.3537530">
    <ele>4016.0</ele>
    <time>2026-06-22T08:58:22Z</time>
   </trkpt>
   <trkpt lat="-3.1121340" lon="37.3537540">
    <ele>4016.1</ele>
    <time>2026-06-22T08:58:23Z</time>
   </trkpt>
   <trkpt lat="-3.1121310" lon="37.3537510">
    <ele>4016.2</ele>
    <time>2026-06-22T08:58:24Z</time>
   </trkpt>
   <trkpt lat="-3.1121380" lon="37.3537520">
    <ele>4016.3</ele>
    <time>2026-06-22T08:58:25Z</time>
   </trkpt>
   <trkpt lat="-3.1121430" lon="37.3537510">
    <ele>4016.4</ele>
    <time>2026-06-22T08:58:26Z</time>
   </trkpt>
   <trkpt lat="-3.1121460" lon="37.3537480">
    <ele>4016.5</ele>
    <time>2026-06-22T08:58:27Z</time>
   </trkpt>
   <trkpt lat="-3.1121480" lon="37.3537470">
    <ele>4016.5</ele>
    <time>2026-06-22T08:58:28Z</time>
   </trkpt>
   <trkpt lat="-3.1121540" lon="37.3537350">
    <ele>4016.7</ele>
    <time>2026-06-22T08:58:29Z</time>
   </trkpt>
   <trkpt lat="-3.1121510" lon="37.3537420">
    <ele>4016.9</ele>
    <time>2026-06-22T08:58:30Z</time>
   </trkpt>
   <trkpt lat="-3.1121560" lon="37.3537460">
    <ele>4017.0</ele>
    <time>2026-06-22T08:58:31Z</time>
   </trkpt>
   <trkpt lat="-3.1121580" lon="37.3537460">
    <ele>4017.0</ele>
    <time>2026-06-22T08:58:32Z</time>
   </trkpt>
   <trkpt lat="-3.1121620" lon="37.3537500">
    <ele>4017.1</ele>
    <time>2026-06-22T08:58:33Z</time>
   </trkpt>
   <trkpt lat="-3.1121640" lon="37.3537510">
    <ele>4017.1</ele>
    <time>2026-06-22T08:58:34Z</time>
   </trkpt>
   <trkpt lat="-3.1121650" lon="37.3537490">
    <ele>4017.1</ele>
    <time>2026-06-22T08:58:35Z</time>
   </trkpt>
   <trkpt lat="-3.1121660" lon="37.3537490">
    <ele>4017.2</ele>
    <time>2026-06-22T08:58:36Z</time>
   </trkpt>
   <trkpt lat="-3.1121670" lon="37.3537480">
    <ele>4017.2</ele>
    <time>2026-06-22T08:58:37Z</time>
   </trkpt>
   <trkpt lat="-3.1121680" lon="37.3537460">
    <ele>4017.2</ele>
    <time>2026-06-22T08:58:38Z</time>
   </trkpt>
   <trkpt lat="-3.1121700" lon="37.3537480">
    <ele>4017.2</ele>
    <time>2026-06-22T08:58:39Z</time>
   </trkpt>
   <trkpt lat="-3.1121710" lon="37.3537480">
    <ele>4017.3</ele>
    <time>2026-06-22T08:58:40Z</time>
   </trkpt>
   <trkpt lat="-3.1121710" lon="37.3537490">
    <ele>4017.3</ele>
    <time>2026-06-22T08:58:41Z</time>
   </trkpt>
   <trkpt lat="-3.1121750" lon="37.3537510">
    <ele>4017.3</ele>
    <time>2026-06-22T08:58:42Z</time>
   </trkpt>
   <trkpt lat="-3.1121730" lon="37.3537550">
    <ele>4017.4</ele>
    <time>2026-06-22T08:58:43Z</time>
   </trkpt>
   <trkpt lat="-3.1121760" lon="37.3537590">
    <ele>4017.5</ele>
    <time>2026-06-22T08:58:44Z</time>
   </trkpt>
   <trkpt lat="-3.1121740" lon="37.3537610">
    <ele>4017.5</ele>
    <time>2026-06-22T08:58:45Z</time>
   </trkpt>
   <trkpt lat="-3.1121750" lon="37.3537610">
    <ele>4017.6</ele>
    <time>2026-06-22T08:58:46Z</time>
   </trkpt>
   <trkpt lat="-3.1121740" lon="37.3537630">
    <ele>4017.6</ele>
    <time>2026-06-22T08:58:47Z</time>
   </trkpt>
   <trkpt lat="-3.1121720" lon="37.3537630">
    <ele>4017.6</ele>
    <time>2026-06-22T08:58:48Z</time>
   </trkpt>
   <trkpt lat="-3.1121700" lon="37.3537680">
    <ele>4017.7</ele>
    <time>2026-06-22T08:58:49Z</time>
   </trkpt>
   <trkpt lat="-3.1121650" lon="37.3537700">
    <ele>4017.8</ele>
    <time>2026-06-22T08:58:50Z</time>
   </trkpt>
   <trkpt lat="-3.1121630" lon="37.3537710">
    <ele>4017.8</ele>
    <time>2026-06-22T08:58:51Z</time>
   </trkpt>
   <trkpt lat="-3.1121580" lon="37.3537710">
    <ele>4017.9</ele>
    <time>2026-06-22T08:58:52Z</time>
   </trkpt>
   <trkpt lat="-3.1121570" lon="37.3537720">
    <ele>4017.9</ele>
    <time>2026-06-22T08:58:53Z</time>
   </trkpt>
   <trkpt lat="-3.1121530" lon="37.3537710">
    <ele>4017.9</ele>
    <time>2026-06-22T08:58:54Z</time>
   </trkpt>
   <trkpt lat="-3.1121510" lon="37.3537720">
    <ele>4018.0</ele>
    <time>2026-06-22T08:58:55Z</time>
   </trkpt>
   <trkpt lat="-3.1121450" lon="37.3537710">
    <ele>4018.0</ele>
    <time>2026-06-22T08:58:56Z</time>
   </trkpt>
   <trkpt lat="-3.1121440" lon="37.3537720">
    <ele>4018.1</ele>
    <time>2026-06-22T08:58:57Z</time>
   </trkpt>
   <trkpt lat="-3.1121430" lon="37.3537710">
    <ele>4018.1</ele>
    <time>2026-06-22T08:58:58Z</time>
   </trkpt>
   <trkpt lat="-3.1121430" lon="37.3537720">
    <ele>4018.1</ele>
    <time>2026-06-22T08:58:59Z</time>
   </trkpt>
   <trkpt lat="-3.1121440" lon="37.3537730">
    <ele>4018.1</ele>
    <time>2026-06-22T08:59:00Z</time>
   </trkpt>
   <trkpt lat="-3.1121440" lon="37.3537750">
    <ele>4018.1</ele>
    <time>2026-06-22T08:59:01Z</time>
   </trkpt>
   <trkpt lat="-3.1121400" lon="37.3537800">
    <ele>4018.2</ele>
    <time>2026-06-22T08:59:02Z</time>
   </trkpt>
   <trkpt lat="-3.1121350" lon="37.3537840">
    <ele>4018.3</ele>
    <time>2026-06-22T08:59:03Z</time>
   </trkpt>
   <trkpt lat="-3.1121300" lon="37.3537860">
    <ele>4018.4</ele>
    <time>2026-06-22T08:59:04Z</time>
   </trkpt>
   <trkpt lat="-3.1121230" lon="37.3537870">
    <ele>4018.5</ele>
    <time>2026-06-22T08:59:05Z</time>
   </trkpt>
   <trkpt lat="-3.1121220" lon="37.3537890">
    <ele>4018.5</ele>
    <time>2026-06-22T08:59:06Z</time>
   </trkpt>
   <trkpt lat="-3.1121210" lon="37.3537920">
    <ele>4018.5</ele>
    <time>2026-06-22T08:59:07Z</time>
   </trkpt>
   <trkpt lat="-3.1121200" lon="37.3537920">
    <ele>4018.5</ele>
    <time>2026-06-22T08:59:08Z</time>
   </trkpt>
   <trkpt lat="-3.1121230" lon="37.3537940">
    <ele>4018.6</ele>
    <time>2026-06-22T08:59:09Z</time>
   </trkpt>
   <trkpt lat="-3.1121230" lon="37.3537970">
    <ele>4018.6</ele>
    <time>2026-06-22T08:59:10Z</time>
   </trkpt>
   <trkpt lat="-3.1121250" lon="37.3538000">
    <ele>4018.7</ele>
    <time>2026-06-22T08:59:11Z</time>
   </trkpt>
   <trkpt lat="-3.1121280" lon="37.3538010">
    <ele>4018.7</ele>
    <time>2026-06-22T08:59:12Z</time>
   </trkpt>
   <trkpt lat="-3.1121290" lon="37.3538010">
    <ele>4018.7</ele>
    <time>2026-06-22T08:59:13Z</time>
   </trkpt>
   <trkpt lat="-3.1121290" lon="37.3538010">
    <ele>4018.7</ele>
    <time>2026-06-22T08:59:14Z</time>
   </trkpt>
   <trkpt lat="-3.1121290" lon="37.3538040">
    <ele>4018.7</ele>
    <time>2026-06-22T08:59:15Z</time>
   </trkpt>
   <trkpt lat="-3.1121310" lon="37.3538060">
    <ele>4018.8</ele>
    <time>2026-06-22T08:59:16Z</time>
   </trkpt>
   <trkpt lat="-3.1121330" lon="37.3538080">
    <ele>4018.8</ele>
    <time>2026-06-22T08:59:17Z</time>
   </trkpt>
   <trkpt lat="-3.1121360" lon="37.3538070">
    <ele>4018.8</ele>
    <time>2026-06-22T08:59:18Z</time>
   </trkpt>
   <trkpt lat="-3.1121390" lon="37.3538100">
    <ele>4018.9</ele>
    <time>2026-06-22T08:59:19Z</time>
   </trkpt>
   <trkpt lat="-3.1121420" lon="37.3538110">
    <ele>4018.9</ele>
    <time>2026-06-22T08:59:20Z</time>
   </trkpt>
   <trkpt lat="-3.1121480" lon="37.3538140">
    <ele>4019.0</ele>
    <time>2026-06-22T08:59:21Z</time>
   </trkpt>
   <trkpt lat="-3.1121510" lon="37.3538160">
    <ele>4019.0</ele>
    <time>2026-06-22T08:59:22Z</time>
   </trkpt>
   <trkpt lat="-3.1121530" lon="37.3538170">
    <ele>4019.1</ele>
    <time>2026-06-22T08:59:23Z</time>
   </trkpt>
   <trkpt lat="-3.1121570" lon="37.3538220">
    <ele>4019.1</ele>
    <time>2026-06-22T08:59:24Z</time>
   </trkpt>
   <trkpt lat="-3.1121580" lon="37.3538270">
    <ele>4019.2</ele>
    <time>2026-06-22T08:59:25Z</time>
   </trkpt>
   <trkpt lat="-3.1121620" lon="37.3538300">
    <ele>4019.2</ele>
    <time>2026-06-22T08:59:26Z</time>
   </trkpt>
   <trkpt lat="-3.1121660" lon="37.3538320">
    <ele>4019.3</ele>
    <time>2026-06-22T08:59:27Z</time>
   </trkpt>
   <trkpt lat="-3.1121700" lon="37.3538320">
    <ele>4019.3</ele>
    <time>2026-06-22T08:59:28Z</time>
   </trkpt>
   <trkpt lat="-3.1121730" lon="37.3538300">
    <ele>4019.4</ele>
    <time>2026-06-22T08:59:29Z</time>
   </trkpt>
   <trkpt lat="-3.1121760" lon="37.3538280">
    <ele>4019.4</ele>
    <time>2026-06-22T08:59:30Z</time>
   </trkpt>
   <trkpt lat="-3.1121790" lon="37.3538280">
    <ele>4019.4</ele>
    <time>2026-06-22T08:59:31Z</time>
   </trkpt>
   <trkpt lat="-3.1121810" lon="37.3538270">
    <ele>4019.4</ele>
    <time>2026-06-22T08:59:32Z</time>
   </trkpt>
   <trkpt lat="-3.1121880" lon="37.3538270">
    <ele>4019.5</ele>
    <time>2026-06-22T08:59:33Z</time>
   </trkpt>
   <trkpt lat="-3.1121910" lon="37.3538270">
    <ele>4019.5</ele>
    <time>2026-06-22T08:59:34Z</time>
   </trkpt>
   <trkpt lat="-3.1121960" lon="37.3538270">
    <ele>4019.6</ele>
    <time>2026-06-22T08:59:35Z</time>
   </trkpt>
   <trkpt lat="-3.1122000" lon="37.3538260">
    <ele>4019.6</ele>
    <time>2026-06-22T08:59:36Z</time>
   </trkpt>
   <trkpt lat="-3.1122030" lon="37.3538270">
    <ele>4019.6</ele>
    <time>2026-06-22T08:59:37Z</time>
   </trkpt>
   <trkpt lat="-3.1122080" lon="37.3538270">
    <ele>4019.7</ele>
    <time>2026-06-22T08:59:38Z</time>
   </trkpt>
   <trkpt lat="-3.1122120" lon="37.3538270">
    <ele>4019.7</ele>
    <time>2026-06-22T08:59:39Z</time>
   </trkpt>
   <trkpt lat="-3.1122130" lon="37.3538310">
    <ele>4019.8</ele>
    <time>2026-06-22T08:59:40Z</time>
   </trkpt>
   <trkpt lat="-3.1122110" lon="37.3538370">
    <ele>4019.8</ele>
    <time>2026-06-22T08:59:41Z</time>
   </trkpt>
   <trkpt lat="-3.1122080" lon="37.3538410">
    <ele>4019.8</ele>
    <time>2026-06-22T08:59:42Z</time>
   </trkpt>
   <trkpt lat="-3.1122050" lon="37.3538430">
    <ele>4019.9</ele>
    <time>2026-06-22T08:59:43Z</time>
   </trkpt>
   <trkpt lat="-3.1122050" lon="37.3538510">
    <ele>4019.9</ele>
    <time>2026-06-22T08:59:44Z</time>
   </trkpt>
   <trkpt lat="-3.1122080" lon="37.3538510">
    <ele>4019.9</ele>
    <time>2026-06-22T08:59:45Z</time>
   </trkpt>
   <trkpt lat="-3.1122120" lon="37.3538520">
    <ele>4020.0</ele>
    <time>2026-06-22T08:59:46Z</time>
   </trkpt>
   <trkpt lat="-3.1122150" lon="37.3538530">
    <ele>4020.0</ele>
    <time>2026-06-22T08:59:47Z</time>
   </trkpt>
   <trkpt lat="-3.1122160" lon="37.3538500">
    <ele>4020.0</ele>
    <time>2026-06-22T08:59:48Z</time>
   </trkpt>
   <trkpt lat="-3.1122170" lon="37.3538500">
    <ele>4020.0</ele>
    <time>2026-06-22T08:59:49Z</time>
   </trkpt>
   <trkpt lat="-3.1122190" lon="37.3538510">
    <ele>4020.0</ele>
    <time>2026-06-22T08:59:50Z</time>
   </trkpt>
   <trkpt lat="-3.1122230" lon="37.3538530">
    <ele>4020.1</ele>
    <time>2026-06-22T08:59:51Z</time>
   </trkpt>
   <trkpt lat="-3.1122250" lon="37.3538550">
    <ele>4020.1</ele>
    <time>2026-06-22T08:59:52Z</time>
   </trkpt>
   <trkpt lat="-3.1122240" lon="37.3538560">
    <ele>4020.1</ele>
    <time>2026-06-22T08:59:53Z</time>
   </trkpt>
   <trkpt lat="-3.1122220" lon="37.3538590">
    <ele>4020.1</ele>
    <time>2026-06-22T08:59:54Z</time>
   </trkpt>
   <trkpt lat="-3.1122240" lon="37.3538600">
    <ele>4020.1</ele>
    <time>2026-06-22T08:59:55Z</time>
   </trkpt>
   <trkpt lat="-3.1122230" lon="37.3538650">
    <ele>4020.2</ele>
    <time>2026-06-22T08:59:57Z</time>
   </trkpt>
   <trkpt lat="-3.1122230" lon="37.3538640">
    <ele>4020.2</ele>
    <time>2026-06-22T08:59:58Z</time>
   </trkpt>
   <trkpt lat="-3.1122220" lon="37.3538650">
    <ele>4020.2</ele>
    <time>2026-06-22T08:59:59Z</time>
   </trkpt>
   <trkpt lat="-3.1122230" lon="37.3538670">
    <ele>4020.2</ele>
    <time>2026-06-22T09:00:00Z</time>
   </trkpt>
   <trkpt lat="-3.1122240" lon="37.3538700">
    <ele>4020.2</ele>
    <time>2026-06-22T09:00:01Z</time>
   </trkpt>
   <trkpt lat="-3.1122260" lon="37.3538730">
    <ele>4020.2</ele>
    <time>2026-06-22T09:00:02Z</time>
   </trkpt>
   <trkpt lat="-3.1122270" lon="37.3538760">
    <ele>4020.2</ele>
    <time>2026-06-22T09:00:03Z</time>
   </trkpt>
   <trkpt lat="-3.1122250" lon="37.3538790">
    <ele>4020.3</ele>
    <time>2026-06-22T09:00:04Z</time>
   </trkpt>
   <trkpt lat="-3.1122260" lon="37.3538830">
    <ele>4020.3</ele>
    <time>2026-06-22T09:00:05Z</time>
   </trkpt>
   <trkpt lat="-3.1122270" lon="37.3538840">
    <ele>4020.3</ele>
    <time>2026-06-22T09:00:06Z</time>
   </trkpt>
   <trkpt lat="-3.1122280" lon="37.3538850">
    <ele>4020.3</ele>
    <time>2026-06-22T09:00:07Z</time>
   </trkpt>
   <trkpt lat="-3.1122270" lon="37.3538830">
    <ele>4020.3</ele>
    <time>2026-06-22T09:00:08Z</time>
   </trkpt>
   <trkpt lat="-3.1122280" lon="37.3538850">
    <ele>4020.3</ele>
    <time>2026-06-22T09:00:09Z</time>
   </trkpt>
   <trkpt lat="-3.1122300" lon="37.3538880">
    <ele>4020.3</ele>
    <time>2026-06-22T09:00:10Z</time>
   </trkpt>
   <trkpt lat="-3.1122320" lon="37.3538920">
    <ele>4020.4</ele>
    <time>2026-06-22T09:00:11Z</time>
   </trkpt>
   <trkpt lat="-3.1122350" lon="37.3538940">
    <ele>4020.4</ele>
    <time>2026-06-22T09:00:12Z</time>
   </trkpt>
   <trkpt lat="-3.1122390" lon="37.3538960">
    <ele>4020.4</ele>
    <time>2026-06-22T09:00:13Z</time>
   </trkpt>
   <trkpt lat="-3.1122430" lon="37.3538960">
    <ele>4020.4</ele>
    <time>2026-06-22T09:00:14Z</time>
   </trkpt>
   <trkpt lat="-3.1122470" lon="37.3538960">
    <ele>4020.4</ele>
    <time>2026-06-22T09:00:15Z</time>
   </trkpt>
   <trkpt lat="-3.1122520" lon="37.3538940">
    <ele>4020.5</ele>
    <time>2026-06-22T09:00:16Z</time>
   </trkpt>
   <trkpt lat="-3.1122570" lon="37.3538930">
    <ele>4020.5</ele>
    <time>2026-06-22T09:00:17Z</time>
   </trkpt>
   <trkpt lat="-3.1122610" lon="37.3538890">
    <ele>4020.5</ele>
    <time>2026-06-22T09:00:18Z</time>
   </trkpt>
   <trkpt lat="-3.1122640" lon="37.3538880">
    <ele>4020.5</ele>
    <time>2026-06-22T09:00:19Z</time>
   </trkpt>
   <trkpt lat="-3.1122690" lon="37.3538880">
    <ele>4020.5</ele>
    <time>2026-06-22T09:00:20Z</time>
   </trkpt>
   <trkpt lat="-3.1122700" lon="37.3538870">
    <ele>4020.5</ele>
    <time>2026-06-22T09:00:21Z</time>
   </trkpt>
   <trkpt lat="-3.1122720" lon="37.3538860">
    <ele>4020.6</ele>
    <time>2026-06-22T09:00:22Z</time>
   </trkpt>
   <trkpt lat="-3.1122740" lon="37.3538860">
    <ele>4020.6</ele>
    <time>2026-06-22T09:00:23Z</time>
   </trkpt>
   <trkpt lat="-3.1122750" lon="37.3538880">
    <ele>4020.6</ele>
    <time>2026-06-22T09:00:24Z</time>
   </trkpt>
   <trkpt lat="-3.1122770" lon="37.3538910">
    <ele>4020.6</ele>
    <time>2026-06-22T09:00:25Z</time>
   </trkpt>
   <trkpt lat="-3.1122790" lon="37.3538910">
    <ele>4020.6</ele>
    <time>2026-06-22T09:00:26Z</time>
   </trkpt>
   <trkpt lat="-3.1122840" lon="37.3538930">
    <ele>4020.6</ele>
    <time>2026-06-22T09:00:27Z</time>
   </trkpt>
   <trkpt lat="-3.1122950" lon="37.3538930">
    <ele>4020.7</ele>
    <time>2026-06-22T09:00:28Z</time>
   </trkpt>
   <trkpt lat="-3.1123000" lon="37.3538930">
    <ele>4020.7</ele>
    <time>2026-06-22T09:00:29Z</time>
   </trkpt>
   <trkpt lat="-3.1123040" lon="37.3538980">
    <ele>4020.7</ele>
    <time>2026-06-22T09:00:30Z</time>
   </trkpt>
   <trkpt lat="-3.1123030" lon="37.3538980">
    <ele>4020.7</ele>
    <time>2026-06-22T09:00:31Z</time>
   </trkpt>
   <trkpt lat="-3.1123050" lon="37.3539000">
    <ele>4020.7</ele>
    <time>2026-06-22T09:00:32Z</time>
   </trkpt>
   <trkpt lat="-3.1123070" lon="37.3539040">
    <ele>4020.7</ele>
    <time>2026-06-22T09:00:33Z</time>
   </trkpt>
   <trkpt lat="-3.1123090" lon="37.3539090">
    <ele>4020.8</ele>
    <time>2026-06-22T09:00:34Z</time>
   </trkpt>
   <trkpt lat="-3.1123120" lon="37.3539130">
    <ele>4020.8</ele>
    <time>2026-06-22T09:00:35Z</time>
   </trkpt>
   <trkpt lat="-3.1123120" lon="37.3539190">
    <ele>4020.8</ele>
    <time>2026-06-22T09:00:36Z</time>
   </trkpt>
   <trkpt lat="-3.1123150" lon="37.3539210">
    <ele>4020.8</ele>
    <time>2026-06-22T09:00:37Z</time>
   </trkpt>
   <trkpt lat="-3.1123180" lon="37.3539250">
    <ele>4020.8</ele>
    <time>2026-06-22T09:00:38Z</time>
   </trkpt>
   <trkpt lat="-3.1123210" lon="37.3539270">
    <ele>4020.8</ele>
    <time>2026-06-22T09:00:39Z</time>
   </trkpt>
   <trkpt lat="-3.1123260" lon="37.3539290">
    <ele>4020.9</ele>
    <time>2026-06-22T09:00:40Z</time>
   </trkpt>
   <trkpt lat="-3.1123290" lon="37.3539290">
    <ele>4020.9</ele>
    <time>2026-06-22T09:00:41Z</time>
   </trkpt>
   <trkpt lat="-3.1123350" lon="37.3539290">
    <ele>4020.9</ele>
    <time>2026-06-22T09:00:42Z</time>
   </trkpt>
   <trkpt lat="-3.1123400" lon="37.3539290">
    <ele>4020.9</ele>
    <time>2026-06-22T09:00:43Z</time>
   </trkpt>
   <trkpt lat="-3.1123450" lon="37.3539300">
    <ele>4020.9</ele>
    <time>2026-06-22T09:00:44Z</time>
   </trkpt>
   <trkpt lat="-3.1123490" lon="37.3539300">
    <ele>4020.9</ele>
    <time>2026-06-22T09:00:45Z</time>
   </trkpt>
   <trkpt lat="-3.1123510" lon="37.3539320">
    <ele>4020.9</ele>
    <time>2026-06-22T09:00:46Z</time>
   </trkpt>
   <trkpt lat="-3.1123500" lon="37.3539350">
    <ele>4020.9</ele>
    <time>2026-06-22T09:00:47Z</time>
   </trkpt>
   <trkpt lat="-3.1123520" lon="37.3539390">
    <ele>4021.0</ele>
    <time>2026-06-22T09:00:48Z</time>
   </trkpt>
   <trkpt lat="-3.1123530" lon="37.3539440">
    <ele>4021.0</ele>
    <time>2026-06-22T09:00:49Z</time>
   </trkpt>
   <trkpt lat="-3.1123540" lon="37.3539460">
    <ele>4021.0</ele>
    <time>2026-06-22T09:00:50Z</time>
   </trkpt>
   <trkpt lat="-3.1123520" lon="37.3539510">
    <ele>4021.0</ele>
    <time>2026-06-22T09:00:51Z</time>
   </trkpt>
   <trkpt lat="-3.1123510" lon="37.3539530">
    <ele>4021.1</ele>
    <time>2026-06-22T09:00:52Z</time>
   </trkpt>
   <trkpt lat="-3.1123510" lon="37.3539570">
    <ele>4021.1</ele>
    <time>2026-06-22T09:00:53Z</time>
   </trkpt>
   <trkpt lat="-3.1123460" lon="37.3539590">
    <ele>4021.1</ele>
    <time>2026-06-22T09:00:54Z</time>
   </trkpt>
   <trkpt lat="-3.1123420" lon="37.3539580">
    <ele>4021.2</ele>
    <time>2026-06-22T09:00:55Z</time>
   </trkpt>
   <trkpt lat="-3.1123400" lon="37.3539610">
    <ele>4021.2</ele>
    <time>2026-06-22T09:00:56Z</time>
   </trkpt>
   <trkpt lat="-3.1123360" lon="37.3539610">
    <ele>4021.2</ele>
    <time>2026-06-22T09:00:57Z</time>
   </trkpt>
   <trkpt lat="-3.1123340" lon="37.3539650">
    <ele>4021.3</ele>
    <time>2026-06-22T09:00:58Z</time>
   </trkpt>
   <trkpt lat="-3.1123320" lon="37.3539700">
    <ele>4021.3</ele>
    <time>2026-06-22T09:00:59Z</time>
   </trkpt>
   <trkpt lat="-3.1123330" lon="37.3539740">
    <ele>4021.3</ele>
    <time>2026-06-22T09:01:00Z</time>
   </trkpt>
   <trkpt lat="-3.1123310" lon="37.3539780">
    <ele>4021.4</ele>
    <time>2026-06-22T09:01:01Z</time>
   </trkpt>
   <trkpt lat="-3.1123310" lon="37.3539800">
    <ele>4021.4</ele>
    <time>2026-06-22T09:01:02Z</time>
   </trkpt>
   <trkpt lat="-3.1123290" lon="37.3539830">
    <ele>4021.4</ele>
    <time>2026-06-22T09:01:03Z</time>
   </trkpt>
   <trkpt lat="-3.1123290" lon="37.3539850">
    <ele>4021.4</ele>
    <time>2026-06-22T09:01:04Z</time>
   </trkpt>
   <trkpt lat="-3.1123280" lon="37.3539890">
    <ele>4021.5</ele>
    <time>2026-06-22T09:01:05Z</time>
   </trkpt>
   <trkpt lat="-3.1123270" lon="37.3539920">
    <ele>4021.5</ele>
    <time>2026-06-22T09:01:06Z</time>
   </trkpt>
   <trkpt lat="-3.1123280" lon="37.3539960">
    <ele>4021.5</ele>
    <time>2026-06-22T09:01:07Z</time>
   </trkpt>
   <trkpt lat="-3.1123250" lon="37.3539980">
    <ele>4021.5</ele>
    <time>2026-06-22T09:01:08Z</time>
   </trkpt>
   <trkpt lat="-3.1123220" lon="37.3540000">
    <ele>4021.6</ele>
    <time>2026-06-22T09:01:09Z</time>
   </trkpt>
   <trkpt lat="-3.1123170" lon="37.3540020">
    <ele>4021.6</ele>
    <time>2026-06-22T09:01:10Z</time>
   </trkpt>
   <trkpt lat="-3.1123160" lon="37.3540040">
    <ele>4021.6</ele>
    <time>2026-06-22T09:01:11Z</time>
   </trkpt>
   <trkpt lat="-3.1123150" lon="37.3540040">
    <ele>4021.6</ele>
    <time>2026-06-22T09:01:12Z</time>
   </trkpt>
   <trkpt lat="-3.1123150" lon="37.3540040">
    <ele>4021.6</ele>
    <time>2026-06-22T09:01:13Z</time>
   </trkpt>
   <trkpt lat="-3.1123140" lon="37.3540040">
    <ele>4021.6</ele>
    <time>2026-06-22T09:01:14Z</time>
   </trkpt>
   <trkpt lat="-3.1123100" lon="37.3540070">
    <ele>4021.7</ele>
    <time>2026-06-22T09:01:15Z</time>
   </trkpt>
   <trkpt lat="-3.1123080" lon="37.3540110">
    <ele>4021.7</ele>
    <time>2026-06-22T09:01:16Z</time>
   </trkpt>
   <trkpt lat="-3.1123050" lon="37.3540150">
    <ele>4021.8</ele>
    <time>2026-06-22T09:01:17Z</time>
   </trkpt>
   <trkpt lat="-3.1123040" lon="37.3540150">
    <ele>4021.8</ele>
    <time>2026-06-22T09:01:18Z</time>
   </trkpt>
   <trkpt lat="-3.1123030" lon="37.3540160">
    <ele>4021.8</ele>
    <time>2026-06-22T09:01:19Z</time>
   </trkpt>
   <trkpt lat="-3.1123030" lon="37.3540150">
    <ele>4021.8</ele>
    <time>2026-06-22T09:01:20Z</time>
   </trkpt>
   <trkpt lat="-3.1123040" lon="37.3540140">
    <ele>4021.8</ele>
    <time>2026-06-22T09:01:21Z</time>
   </trkpt>
   <trkpt lat="-3.1123040" lon="37.3540140">
    <ele>4021.8</ele>
    <time>2026-06-22T09:01:22Z</time>
   </trkpt>
   <trkpt lat="-3.1123040" lon="37.3540140">
    <ele>4021.8</ele>
    <time>2026-06-22T09:01:23Z</time>
   </trkpt>
   <trkpt lat="-3.1123050" lon="37.3540110">
    <ele>4021.8</ele>
    <time>2026-06-22T09:01:24Z</time>
   </trkpt>
   <trkpt lat="-3.1123060" lon="37.3540120">
    <ele>4021.8</ele>
    <time>2026-06-22T09:01:25Z</time>
   </trkpt>
   <trkpt lat="-3.1123060" lon="37.3540110">
    <ele>4021.8</ele>
    <time>2026-06-22T09:01:26Z</time>
   </trkpt>
   <trkpt lat="-3.1123060" lon="37.3540110">
    <ele>4021.8</ele>
    <time>2026-06-22T09:01:27Z</time>
   </trkpt>
   <trkpt lat="-3.1123070" lon="37.3540100">
    <ele>4021.8</ele>
    <time>2026-06-22T09:01:28Z</time>
   </trkpt>
   <trkpt lat="-3.1123090" lon="37.3540080">
    <ele>4021.9</ele>
    <time>2026-06-22T09:01:29Z</time>
   </trkpt>
   <trkpt lat="-3.1123110" lon="37.3540070">
    <ele>4021.9</ele>
    <time>2026-06-22T09:01:30Z</time>
   </trkpt>
   <trkpt lat="-3.1123170" lon="37.3540130">
    <ele>4021.9</ele>
    <time>2026-06-22T09:01:31Z</time>
   </trkpt>
   <trkpt lat="-3.1123140" lon="37.3540080">
    <ele>4022.0</ele>
    <time>2026-06-22T09:01:32Z</time>
   </trkpt>
   <trkpt lat="-3.1123120" lon="37.3540110">
    <ele>4022.0</ele>
    <time>2026-06-22T09:01:33Z</time>
   </trkpt>
   <trkpt lat="-3.1123100" lon="37.3540110">
    <ele>4022.0</ele>
    <time>2026-06-22T09:01:34Z</time>
   </trkpt>
   <trkpt lat="-3.1123090" lon="37.3540130">
    <ele>4022.1</ele>
    <time>2026-06-22T09:01:35Z</time>
   </trkpt>
   <trkpt lat="-3.1123100" lon="37.3540130">
    <ele>4022.1</ele>
    <time>2026-06-22T09:01:36Z</time>
   </trkpt>
   <trkpt lat="-3.1123090" lon="37.3540130">
    <ele>4022.1</ele>
    <time>2026-06-22T09:01:37Z</time>
   </trkpt>
   <trkpt lat="-3.1123080" lon="37.3540130">
    <ele>4022.1</ele>
    <time>2026-06-22T09:01:38Z</time>
   </trkpt>
   <trkpt lat="-3.1123080" lon="37.3540130">
    <ele>4022.1</ele>
    <time>2026-06-22T09:01:39Z</time>
   </trkpt>
   <trkpt lat="-3.1123090" lon="37.3540090">
    <ele>4022.1</ele>
    <time>2026-06-22T09:01:40Z</time>
   </trkpt>
   <trkpt lat="-3.1123090" lon="37.3540100">
    <ele>4022.1</ele>
    <time>2026-06-22T09:01:41Z</time>
   </trkpt>
   <trkpt lat="-3.1123100" lon="37.3540090">
    <ele>4022.1</ele>
    <time>2026-06-22T09:01:42Z</time>
   </trkpt>
   <trkpt lat="-3.1123100" lon="37.3540090">
    <ele>4022.1</ele>
    <time>2026-06-22T09:01:43Z</time>
   </trkpt>
   <trkpt lat="-3.1123090" lon="37.3540090">
    <ele>4022.1</ele>
    <time>2026-06-22T09:01:44Z</time>
   </trkpt>
   <trkpt lat="-3.1123080" lon="37.3540100">
    <ele>4022.1</ele>
    <time>2026-06-22T09:01:45Z</time>
   </trkpt>
   <trkpt lat="-3.1123080" lon="37.3540100">
    <ele>4022.1</ele>
    <time>2026-06-22T09:01:46Z</time>
   </trkpt>
   <trkpt lat="-3.1123070" lon="37.3540100">
    <ele>4022.2</ele>
    <time>2026-06-22T09:01:47Z</time>
   </trkpt>
   <trkpt lat="-3.1123070" lon="37.3540100">
    <ele>4022.2</ele>
    <time>2026-06-22T09:01:48Z</time>
   </trkpt>
   <trkpt lat="-3.1123100" lon="37.3540100">
    <ele>4022.2</ele>
    <time>2026-06-22T09:01:49Z</time>
   </trkpt>
   <trkpt lat="-3.1123110" lon="37.3540170">
    <ele>4022.2</ele>
    <time>2026-06-22T09:01:50Z</time>
   </trkpt>
   <trkpt lat="-3.1122960" lon="37.3540230">
    <ele>4022.4</ele>
    <time>2026-06-22T09:01:51Z</time>
   </trkpt>
   <trkpt lat="-3.1122890" lon="37.3540290">
    <ele>4022.4</ele>
    <time>2026-06-22T09:01:52Z</time>
   </trkpt>
   <trkpt lat="-3.1122950" lon="37.3540290">
    <ele>4022.5</ele>
    <time>2026-06-22T09:01:53Z</time>
   </trkpt>
   <trkpt lat="-3.1122980" lon="37.3540290">
    <ele>4022.5</ele>
    <time>2026-06-22T09:01:54Z</time>
   </trkpt>
   <trkpt lat="-3.1122990" lon="37.3540290">
    <ele>4022.5</ele>
    <time>2026-06-22T09:01:55Z</time>
   </trkpt>
   <trkpt lat="-3.1122980" lon="37.3540280">
    <ele>4022.5</ele>
    <time>2026-06-22T09:01:56Z</time>
   </trkpt>
   <trkpt lat="-3.1122970" lon="37.3540300">
    <ele>4022.5</ele>
    <time>2026-06-22T09:01:57Z</time>
   </trkpt>
   <trkpt lat="-3.1122970" lon="37.3540290">
    <ele>4022.5</ele>
    <time>2026-06-22T09:01:58Z</time>
   </trkpt>
   <trkpt lat="-3.1122980" lon="37.3540290">
    <ele>4022.5</ele>
    <time>2026-06-22T09:01:59Z</time>
   </trkpt>
   <trkpt lat="-3.1122980" lon="37.3540280">
    <ele>4022.6</ele>
    <time>2026-06-22T09:02:00Z</time>
   </trkpt>
   <trkpt lat="-3.1122970" lon="37.3540290">
    <ele>4022.6</ele>
    <time>2026-06-22T09:02:01Z</time>
   </trkpt>
   <trkpt lat="-3.1122970" lon="37.3540280">
    <ele>4022.6</ele>
    <time>2026-06-22T09:02:02Z</time>
   </trkpt>
   <trkpt lat="-3.1122970" lon="37.3540300">
    <ele>4022.6</ele>
    <time>2026-06-22T09:02:03Z</time>
   </trkpt>
   <trkpt lat="-3.1122980" lon="37.3540310">
    <ele>4022.6</ele>
    <time>2026-06-22T09:02:04Z</time>
   </trkpt>
   <trkpt lat="-3.1122950" lon="37.3540320">
    <ele>4022.6</ele>
    <time>2026-06-22T09:02:05Z</time>
   </trkpt>
   <trkpt lat="-3.1122960" lon="37.3540330">
    <ele>4022.6</ele>
    <time>2026-06-22T09:02:06Z</time>
   </trkpt>
   <trkpt lat="-3.1122970" lon="37.3540330">
    <ele>4022.6</ele>
    <time>2026-06-22T09:02:07Z</time>
   </trkpt>
   <trkpt lat="-3.1122980" lon="37.3540320">
    <ele>4022.7</ele>
    <time>2026-06-22T09:02:08Z</time>
   </trkpt>
   <trkpt lat="-3.1123000" lon="37.3540310">
    <ele>4022.7</ele>
    <time>2026-06-22T09:02:09Z</time>
   </trkpt>
   <trkpt lat="-3.1123020" lon="37.3540290">
    <ele>4022.7</ele>
    <time>2026-06-22T09:02:10Z</time>
   </trkpt>
   <trkpt lat="-3.1123020" lon="37.3540290">
    <ele>4022.7</ele>
    <time>2026-06-22T09:02:11Z</time>
   </trkpt>
   <trkpt lat="-3.1123050" lon="37.3540260">
    <ele>4022.7</ele>
    <time>2026-06-22T09:02:12Z</time>
   </trkpt>
   <trkpt lat="-3.1123060" lon="37.3540260">
    <ele>4022.7</ele>
    <time>2026-06-22T09:02:13Z</time>
   </trkpt>
   <trkpt lat="-3.1123060" lon="37.3540260">
    <ele>4022.7</ele>
    <time>2026-06-22T09:02:14Z</time>
   </trkpt>
   <trkpt lat="-3.1123050" lon="37.3540290">
    <ele>4022.8</ele>
    <time>2026-06-22T09:02:15Z</time>
   </trkpt>
   <trkpt lat="-3.1123040" lon="37.3540320">
    <ele>4022.8</ele>
    <time>2026-06-22T09:02:16Z</time>
   </trkpt>
   <trkpt lat="-3.1123050" lon="37.3540350">
    <ele>4022.8</ele>
    <time>2026-06-22T09:02:17Z</time>
   </trkpt>
   <trkpt lat="-3.1123070" lon="37.3540380">
    <ele>4022.8</ele>
    <time>2026-06-22T09:02:18Z</time>
   </trkpt>
   <trkpt lat="-3.1123090" lon="37.3540460">
    <ele>4022.9</ele>
    <time>2026-06-22T09:02:19Z</time>
   </trkpt>
   <trkpt lat="-3.1123090" lon="37.3540520">
    <ele>4022.9</ele>
    <time>2026-06-22T09:02:20Z</time>
   </trkpt>
   <trkpt lat="-3.1123090" lon="37.3540550">
    <ele>4023.0</ele>
    <time>2026-06-22T09:02:21Z</time>
   </trkpt>
   <trkpt lat="-3.1123080" lon="37.3540520">
    <ele>4023.0</ele>
    <time>2026-06-22T09:02:22Z</time>
   </trkpt>
   <trkpt lat="-3.1123090" lon="37.3540530">
    <ele>4023.0</ele>
    <time>2026-06-22T09:02:23Z</time>
   </trkpt>
   <trkpt lat="-3.1123080" lon="37.3540490">
    <ele>4023.0</ele>
    <time>2026-06-22T09:02:24Z</time>
   </trkpt>
   <trkpt lat="-3.1123090" lon="37.3540520">
    <ele>4023.1</ele>
    <time>2026-06-22T09:02:25Z</time>
   </trkpt>
   <trkpt lat="-3.1123110" lon="37.3540540">
    <ele>4023.1</ele>
    <time>2026-06-22T09:02:26Z</time>
   </trkpt>
   <trkpt lat="-3.1123120" lon="37.3540610">
    <ele>4023.1</ele>
    <time>2026-06-22T09:02:27Z</time>
   </trkpt>
   <trkpt lat="-3.1123100" lon="37.3540710">
    <ele>4023.2</ele>
    <time>2026-06-22T09:02:28Z</time>
   </trkpt>
   <trkpt lat="-3.1123090" lon="37.3540710">
    <ele>4023.2</ele>
    <time>2026-06-22T09:02:29Z</time>
   </trkpt>
   <trkpt lat="-3.1123080" lon="37.3540750">
    <ele>4023.3</ele>
    <time>2026-06-22T09:02:30Z</time>
   </trkpt>
   <trkpt lat="-3.1123060" lon="37.3540780">
    <ele>4023.3</ele>
    <time>2026-06-22T09:02:31Z</time>
   </trkpt>
   <trkpt lat="-3.1123010" lon="37.3540810">
    <ele>4023.3</ele>
    <time>2026-06-22T09:02:32Z</time>
   </trkpt>
   <trkpt lat="-3.1122970" lon="37.3540790">
    <ele>4023.4</ele>
    <time>2026-06-22T09:02:33Z</time>
   </trkpt>
   <trkpt lat="-3.1122920" lon="37.3540790">
    <ele>4023.4</ele>
    <time>2026-06-22T09:02:34Z</time>
   </trkpt>
   <trkpt lat="-3.1122870" lon="37.3540810">
    <ele>4023.4</ele>
    <time>2026-06-22T09:02:35Z</time>
   </trkpt>
   <trkpt lat="-3.1122910" lon="37.3540820">
    <ele>4023.5</ele>
    <time>2026-06-22T09:02:36Z</time>
   </trkpt>
   <trkpt lat="-3.1122920" lon="37.3540830">
    <ele>4023.5</ele>
    <time>2026-06-22T09:02:37Z</time>
   </trkpt>
   <trkpt lat="-3.1122930" lon="37.3540840">
    <ele>4023.5</ele>
    <time>2026-06-22T09:02:38Z</time>
   </trkpt>
   <trkpt lat="-3.1122950" lon="37.3540830">
    <ele>4023.5</ele>
    <time>2026-06-22T09:02:39Z</time>
   </trkpt>
   <trkpt lat="-3.1122910" lon="37.3540830">
    <ele>4023.5</ele>
    <time>2026-06-22T09:02:40Z</time>
   </trkpt>
   <trkpt lat="-3.1122910" lon="37.3540850">
    <ele>4023.6</ele>
    <time>2026-06-22T09:02:41Z</time>
   </trkpt>
   <trkpt lat="-3.1122920" lon="37.3540850">
    <ele>4023.6</ele>
    <time>2026-06-22T09:02:42Z</time>
   </trkpt>
   <trkpt lat="-3.1122930" lon="37.3540850">
    <ele>4023.6</ele>
    <time>2026-06-22T09:02:43Z</time>
   </trkpt>
   <trkpt lat="-3.1122930" lon="37.3540850">
    <ele>4023.6</ele>
    <time>2026-06-22T09:02:44Z</time>
   </trkpt>
   <trkpt lat="-3.1122940" lon="37.3540860">
    <ele>4023.6</ele>
    <time>2026-06-22T09:02:45Z</time>
   </trkpt>
   <trkpt lat="-3.1122910" lon="37.3540890">
    <ele>4023.6</ele>
    <time>2026-06-22T09:02:46Z</time>
   </trkpt>
   <trkpt lat="-3.1122940" lon="37.3540970">
    <ele>4023.7</ele>
    <time>2026-06-22T09:02:47Z</time>
   </trkpt>
   <trkpt lat="-3.1122960" lon="37.3540960">
    <ele>4023.7</ele>
    <time>2026-06-22T09:02:48Z</time>
   </trkpt>
   <trkpt lat="-3.1122880" lon="37.3541060">
    <ele>4023.8</ele>
    <time>2026-06-22T09:02:49Z</time>
   </trkpt>
   <trkpt lat="-3.1122850" lon="37.3541030">
    <ele>4023.8</ele>
    <time>2026-06-22T09:02:50Z</time>
   </trkpt>
   <trkpt lat="-3.1122780" lon="37.3541040">
    <ele>4023.9</ele>
    <time>2026-06-22T09:02:51Z</time>
   </trkpt>
   <trkpt lat="-3.1122770" lon="37.3541060">
    <ele>4023.9</ele>
    <time>2026-06-22T09:02:52Z</time>
   </trkpt>
   <trkpt lat="-3.1122800" lon="37.3541060">
    <ele>4023.9</ele>
    <time>2026-06-22T09:02:53Z</time>
   </trkpt>
   <trkpt lat="-3.1122780" lon="37.3541070">
    <ele>4024.0</ele>
    <time>2026-06-22T09:02:54Z</time>
   </trkpt>
   <trkpt lat="-3.1122750" lon="37.3541060">
    <ele>4024.0</ele>
    <time>2026-06-22T09:02:55Z</time>
   </trkpt>
   <trkpt lat="-3.1122790" lon="37.3541030">
    <ele>4024.0</ele>
    <time>2026-06-22T09:02:56Z</time>
   </trkpt>
   <trkpt lat="-3.1122790" lon="37.3541090">
    <ele>4024.1</ele>
    <time>2026-06-22T09:02:57Z</time>
   </trkpt>
   <trkpt lat="-3.1122770" lon="37.3541130">
    <ele>4024.1</ele>
    <time>2026-06-22T09:02:58Z</time>
   </trkpt>
   <trkpt lat="-3.1122780" lon="37.3541240">
    <ele>4024.2</ele>
    <time>2026-06-22T09:02:59Z</time>
   </trkpt>
   <trkpt lat="-3.1122740" lon="37.3541310">
    <ele>4024.3</ele>
    <time>2026-06-22T09:03:00Z</time>
   </trkpt>
   <trkpt lat="-3.1122760" lon="37.3541300">
    <ele>4024.3</ele>
    <time>2026-06-22T09:03:01Z</time>
   </trkpt>
   <trkpt lat="-3.1122770" lon="37.3541280">
    <ele>4024.3</ele>
    <time>2026-06-22T09:03:02Z</time>
   </trkpt>
   <trkpt lat="-3.1122760" lon="37.3541300">
    <ele>4024.3</ele>
    <time>2026-06-22T09:03:03Z</time>
   </trkpt>
   <trkpt lat="-3.1122740" lon="37.3541300">
    <ele>4024.3</ele>
    <time>2026-06-22T09:03:04Z</time>
   </trkpt>
   <trkpt lat="-3.1122710" lon="37.3541300">
    <ele>4024.3</ele>
    <time>2026-06-22T09:03:05Z</time>
   </trkpt>
   <trkpt lat="-3.1122670" lon="37.3541330">
    <ele>4024.4</ele>
    <time>2026-06-22T09:03:06Z</time>
   </trkpt>
   <trkpt lat="-3.1122670" lon="37.3541310">
    <ele>4024.4</ele>
    <time>2026-06-22T09:03:07Z</time>
   </trkpt>
   <trkpt lat="-3.1122670" lon="37.3541300">
    <ele>4024.4</ele>
    <time>2026-06-22T09:03:08Z</time>
   </trkpt>
   <trkpt lat="-3.1122660" lon="37.3541300">
    <ele>4024.4</ele>
    <time>2026-06-22T09:03:09Z</time>
   </trkpt>
   <trkpt lat="-3.1122660" lon="37.3541310">
    <ele>4024.4</ele>
    <time>2026-06-22T09:03:10Z</time>
   </trkpt>
   <trkpt lat="-3.1122640" lon="37.3541320">
    <ele>4024.4</ele>
    <time>2026-06-22T09:03:11Z</time>
   </trkpt>
   <trkpt lat="-3.1122640" lon="37.3541330">
    <ele>4024.5</ele>
    <time>2026-06-22T09:03:12Z</time>
   </trkpt>
   <trkpt lat="-3.1122650" lon="37.3541330">
    <ele>4024.5</ele>
    <time>2026-06-22T09:03:13Z</time>
   </trkpt>
   <trkpt lat="-3.1122630" lon="37.3541330">
    <ele>4024.5</ele>
    <time>2026-06-22T09:03:14Z</time>
   </trkpt>
   <trkpt lat="-3.1122610" lon="37.3541330">
    <ele>4024.5</ele>
    <time>2026-06-22T09:03:15Z</time>
   </trkpt>
   <trkpt lat="-3.1122600" lon="37.3541330">
    <ele>4024.5</ele>
    <time>2026-06-22T09:03:16Z</time>
   </trkpt>
   <trkpt lat="-3.1122570" lon="37.3541400">
    <ele>4024.6</ele>
    <time>2026-06-22T09:03:17Z</time>
   </trkpt>
   <trkpt lat="-3.1122550" lon="37.3541510">
    <ele>4024.6</ele>
    <time>2026-06-22T09:03:18Z</time>
   </trkpt>
   <trkpt lat="-3.1122550" lon="37.3541570">
    <ele>4024.7</ele>
    <time>2026-06-22T09:03:19Z</time>
   </trkpt>
   <trkpt lat="-3.1122500" lon="37.3541630">
    <ele>4024.8</ele>
    <time>2026-06-22T09:03:20Z</time>
   </trkpt>
   <trkpt lat="-3.1122490" lon="37.3541690">
    <ele>4024.8</ele>
    <time>2026-06-22T09:03:21Z</time>
   </trkpt>
   <trkpt lat="-3.1122480" lon="37.3541760">
    <ele>4024.9</ele>
    <time>2026-06-22T09:03:22Z</time>
   </trkpt>
   <trkpt lat="-3.1122480" lon="37.3541820">
    <ele>4024.9</ele>
    <time>2026-06-22T09:03:23Z</time>
   </trkpt>
   <trkpt lat="-3.1122480" lon="37.3541870">
    <ele>4024.9</ele>
    <time>2026-06-22T09:03:24Z</time>
   </trkpt>
   <trkpt lat="-3.1122450" lon="37.3541950">
    <ele>4025.0</ele>
    <time>2026-06-22T09:03:25Z</time>
   </trkpt>
   <trkpt lat="-3.1122410" lon="37.3542010">
    <ele>4025.1</ele>
    <time>2026-06-22T09:03:26Z</time>
   </trkpt>
   <trkpt lat="-3.1122370" lon="37.3542060">
    <ele>4025.1</ele>
    <time>2026-06-22T09:03:27Z</time>
   </trkpt>
   <trkpt lat="-3.1122350" lon="37.3542100">
    <ele>4025.2</ele>
    <time>2026-06-22T09:03:28Z</time>
   </trkpt>
   <trkpt lat="-3.1122370" lon="37.3542050">
    <ele>4025.2</ele>
    <time>2026-06-22T09:03:29Z</time>
   </trkpt>
   <trkpt lat="-3.1122370" lon="37.3542050">
    <ele>4025.2</ele>
    <time>2026-06-22T09:03:30Z</time>
   </trkpt>
   <trkpt lat="-3.1122380" lon="37.3542050">
    <ele>4025.2</ele>
    <time>2026-06-22T09:03:31Z</time>
   </trkpt>
   <trkpt lat="-3.1122370" lon="37.3542040">
    <ele>4025.2</ele>
    <time>2026-06-22T09:03:32Z</time>
   </trkpt>
   <trkpt lat="-3.1122380" lon="37.3542040">
    <ele>4025.2</ele>
    <time>2026-06-22T09:03:33Z</time>
   </trkpt>
   <trkpt lat="-3.1122370" lon="37.3542040">
    <ele>4025.2</ele>
    <time>2026-06-22T09:03:34Z</time>
   </trkpt>
   <trkpt lat="-3.1122370" lon="37.3542050">
    <ele>4025.2</ele>
    <time>2026-06-22T09:03:35Z</time>
   </trkpt>
   <trkpt lat="-3.1122350" lon="37.3542070">
    <ele>4025.3</ele>
    <time>2026-06-22T09:03:36Z</time>
   </trkpt>
   <trkpt lat="-3.1122330" lon="37.3542090">
    <ele>4025.3</ele>
    <time>2026-06-22T09:03:37Z</time>
   </trkpt>
   <trkpt lat="-3.1122330" lon="37.3542150">
    <ele>4025.3</ele>
    <time>2026-06-22T09:03:38Z</time>
   </trkpt>
   <trkpt lat="-3.1122320" lon="37.3542130">
    <ele>4025.4</ele>
    <time>2026-06-22T09:03:39Z</time>
   </trkpt>
   <trkpt lat="-3.1122320" lon="37.3542230">
    <ele>4025.4</ele>
    <time>2026-06-22T09:03:40Z</time>
   </trkpt>
   <trkpt lat="-3.1122290" lon="37.3542320">
    <ele>4025.5</ele>
    <time>2026-06-22T09:03:41Z</time>
   </trkpt>
   <trkpt lat="-3.1122250" lon="37.3542390">
    <ele>4025.6</ele>
    <time>2026-06-22T09:03:42Z</time>
   </trkpt>
   <trkpt lat="-3.1122220" lon="37.3542410">
    <ele>4025.6</ele>
    <time>2026-06-22T09:03:43Z</time>
   </trkpt>
   <trkpt lat="-3.1122180" lon="37.3542470">
    <ele>4025.7</ele>
    <time>2026-06-22T09:03:44Z</time>
   </trkpt>
   <trkpt lat="-3.1122180" lon="37.3542490">
    <ele>4025.7</ele>
    <time>2026-06-22T09:03:45Z</time>
   </trkpt>
   <trkpt lat="-3.1122190" lon="37.3542460">
    <ele>4025.7</ele>
    <time>2026-06-22T09:03:46Z</time>
   </trkpt>
   <trkpt lat="-3.1122190" lon="37.3542450">
    <ele>4025.7</ele>
    <time>2026-06-22T09:03:47Z</time>
   </trkpt>
   <trkpt lat="-3.1122190" lon="37.3542450">
    <ele>4025.7</ele>
    <time>2026-06-22T09:03:48Z</time>
   </trkpt>
   <trkpt lat="-3.1122200" lon="37.3542470">
    <ele>4025.7</ele>
    <time>2026-06-22T09:03:49Z</time>
   </trkpt>
   <trkpt lat="-3.1122220" lon="37.3542510">
    <ele>4025.8</ele>
    <time>2026-06-22T09:03:50Z</time>
   </trkpt>
   <trkpt lat="-3.1122170" lon="37.3542610">
    <ele>4025.8</ele>
    <time>2026-06-22T09:03:51Z</time>
   </trkpt>
   <trkpt lat="-3.1122160" lon="37.3542680">
    <ele>4025.9</ele>
    <time>2026-06-22T09:03:52Z</time>
   </trkpt>
   <trkpt lat="-3.1122140" lon="37.3542740">
    <ele>4025.9</ele>
    <time>2026-06-22T09:03:53Z</time>
   </trkpt>
   <trkpt lat="-3.1122110" lon="37.3542850">
    <ele>4026.0</ele>
    <time>2026-06-22T09:03:54Z</time>
   </trkpt>
   <trkpt lat="-3.1122090" lon="37.3542920">
    <ele>4026.1</ele>
    <time>2026-06-22T09:03:55Z</time>
   </trkpt>
   <trkpt lat="-3.1122050" lon="37.3542980">
    <ele>4026.2</ele>
    <time>2026-06-22T09:03:56Z</time>
   </trkpt>
   <trkpt lat="-3.1122010" lon="37.3543060">
    <ele>4026.2</ele>
    <time>2026-06-22T09:03:57Z</time>
   </trkpt>
   <trkpt lat="-3.1121970" lon="37.3543110">
    <ele>4026.3</ele>
    <time>2026-06-22T09:03:58Z</time>
   </trkpt>
   <trkpt lat="-3.1121910" lon="37.3543170">
    <ele>4026.3</ele>
    <time>2026-06-22T09:03:59Z</time>
   </trkpt>
   <trkpt lat="-3.1121840" lon="37.3543230">
    <ele>4026.4</ele>
    <time>2026-06-22T09:04:00Z</time>
   </trkpt>
   <trkpt lat="-3.1121820" lon="37.3543250">
    <ele>4026.4</ele>
    <time>2026-06-22T09:04:01Z</time>
   </trkpt>
   <trkpt lat="-3.1121840" lon="37.3543260">
    <ele>4026.5</ele>
    <time>2026-06-22T09:04:02Z</time>
   </trkpt>
   <trkpt lat="-3.1121840" lon="37.3543300">
    <ele>4026.5</ele>
    <time>2026-06-22T09:04:03Z</time>
   </trkpt>
   <trkpt lat="-3.1121800" lon="37.3543390">
    <ele>4026.6</ele>
    <time>2026-06-22T09:04:04Z</time>
   </trkpt>
   <trkpt lat="-3.1121780" lon="37.3543490">
    <ele>4026.6</ele>
    <time>2026-06-22T09:04:05Z</time>
   </trkpt>
   <trkpt lat="-3.1121790" lon="37.3543560">
    <ele>4026.7</ele>
    <time>2026-06-22T09:04:06Z</time>
   </trkpt>
   <trkpt lat="-3.1121790" lon="37.3543640">
    <ele>4026.8</ele>
    <time>2026-06-22T09:04:07Z</time>
   </trkpt>
   <trkpt lat="-3.1121790" lon="37.3543720">
    <ele>4026.8</ele>
    <time>2026-06-22T09:04:08Z</time>
   </trkpt>
   <trkpt lat="-3.1121800" lon="37.3543770">
    <ele>4026.9</ele>
    <time>2026-06-22T09:04:09Z</time>
   </trkpt>
   <trkpt lat="-3.1121780" lon="37.3543880">
    <ele>4027.0</ele>
    <time>2026-06-22T09:04:10Z</time>
   </trkpt>
   <trkpt lat="-3.1121800" lon="37.3543910">
    <ele>4027.0</ele>
    <time>2026-06-22T09:04:11Z</time>
   </trkpt>
   <trkpt lat="-3.1121800" lon="37.3543910">
    <ele>4027.0</ele>
    <time>2026-06-22T09:04:12Z</time>
   </trkpt>
   <trkpt lat="-3.1121790" lon="37.3543920">
    <ele>4027.0</ele>
    <time>2026-06-22T09:04:13Z</time>
   </trkpt>
   <trkpt lat="-3.1121800" lon="37.3543980">
    <ele>4027.0</ele>
    <time>2026-06-22T09:04:14Z</time>
   </trkpt>
   <trkpt lat="-3.1121780" lon="37.3544050">
    <ele>4027.1</ele>
    <time>2026-06-22T09:04:15Z</time>
   </trkpt>
   <trkpt lat="-3.1121780" lon="37.3544110">
    <ele>4027.1</ele>
    <time>2026-06-22T09:04:16Z</time>
   </trkpt>
   <trkpt lat="-3.1121780" lon="37.3544110">
    <ele>4027.1</ele>
    <time>2026-06-22T09:04:17Z</time>
   </trkpt>
   <trkpt lat="-3.1121750" lon="37.3544170">
    <ele>4027.2</ele>
    <time>2026-06-22T09:04:18Z</time>
   </trkpt>
   <trkpt lat="-3.1121740" lon="37.3544230">
    <ele>4027.2</ele>
    <time>2026-06-22T09:04:19Z</time>
   </trkpt>
   <trkpt lat="-3.1121740" lon="37.3544270">
    <ele>4027.3</ele>
    <time>2026-06-22T09:04:20Z</time>
   </trkpt>
   <trkpt lat="-3.1121730" lon="37.3544370">
    <ele>4027.4</ele>
    <time>2026-06-22T09:04:21Z</time>
   </trkpt>
   <trkpt lat="-3.1121740" lon="37.3544440">
    <ele>4027.4</ele>
    <time>2026-06-22T09:04:22Z</time>
   </trkpt>
   <trkpt lat="-3.1121740" lon="37.3544520">
    <ele>4027.5</ele>
    <time>2026-06-22T09:04:23Z</time>
   </trkpt>
   <trkpt lat="-3.1121720" lon="37.3544510">
    <ele>4027.5</ele>
    <time>2026-06-22T09:04:24Z</time>
   </trkpt>
   <trkpt lat="-3.1121730" lon="37.3544610">
    <ele>4027.6</ele>
    <time>2026-06-22T09:04:25Z</time>
   </trkpt>
   <trkpt lat="-3.1121760" lon="37.3544640">
    <ele>4027.6</ele>
    <time>2026-06-22T09:04:26Z</time>
   </trkpt>
   <trkpt lat="-3.1121760" lon="37.3544670">
    <ele>4027.6</ele>
    <time>2026-06-22T09:04:27Z</time>
   </trkpt>
   <trkpt lat="-3.1121750" lon="37.3544670">
    <ele>4027.6</ele>
    <time>2026-06-22T09:04:28Z</time>
   </trkpt>
   <trkpt lat="-3.1121710" lon="37.3544600">
    <ele>4027.7</ele>
    <time>2026-06-22T09:04:29Z</time>
   </trkpt>
   <trkpt lat="-3.1121710" lon="37.3544590">
    <ele>4027.7</ele>
    <time>2026-06-22T09:04:30Z</time>
   </trkpt>
   <trkpt lat="-3.1121710" lon="37.3544650">
    <ele>4027.7</ele>
    <time>2026-06-22T09:04:31Z</time>
   </trkpt>
   <trkpt lat="-3.1121720" lon="37.3544640">
    <ele>4027.8</ele>
    <time>2026-06-22T09:04:32Z</time>
   </trkpt>
   <trkpt lat="-3.1121730" lon="37.3544650">
    <ele>4027.8</ele>
    <time>2026-06-22T09:04:33Z</time>
   </trkpt>
   <trkpt lat="-3.1121730" lon="37.3544650">
    <ele>4027.8</ele>
    <time>2026-06-22T09:04:34Z</time>
   </trkpt>
   <trkpt lat="-3.1121740" lon="37.3544670">
    <ele>4027.8</ele>
    <time>2026-06-22T09:04:35Z</time>
   </trkpt>
   <trkpt lat="-3.1121740" lon="37.3544680">
    <ele>4027.8</ele>
    <time>2026-06-22T09:04:36Z</time>
   </trkpt>
   <trkpt lat="-3.1121740" lon="37.3544680">
    <ele>4027.8</ele>
    <time>2026-06-22T09:04:37Z</time>
   </trkpt>
   <trkpt lat="-3.1121730" lon="37.3544690">
    <ele>4027.8</ele>
    <time>2026-06-22T09:04:38Z</time>
   </trkpt>
   <trkpt lat="-3.1121710" lon="37.3544690">
    <ele>4027.8</ele>
    <time>2026-06-22T09:04:39Z</time>
   </trkpt>
   <trkpt lat="-3.1121730" lon="37.3544680">
    <ele>4027.8</ele>
    <time>2026-06-22T09:04:40Z</time>
   </trkpt>
   <trkpt lat="-3.1121750" lon="37.3544680">
    <ele>4027.8</ele>
    <time>2026-06-22T09:04:41Z</time>
   </trkpt>
   <trkpt lat="-3.1121760" lon="37.3544650">
    <ele>4027.9</ele>
    <time>2026-06-22T09:04:42Z</time>
   </trkpt>
   <trkpt lat="-3.1121730" lon="37.3544710">
    <ele>4027.9</ele>
    <time>2026-06-22T09:04:43Z</time>
   </trkpt>
   <trkpt lat="-3.1121700" lon="37.3544770">
    <ele>4028.0</ele>
    <time>2026-06-22T09:04:44Z</time>
   </trkpt>
   <trkpt lat="-3.1121730" lon="37.3544800">
    <ele>4028.0</ele>
    <time>2026-06-22T09:04:45Z</time>
   </trkpt>
   <trkpt lat="-3.1121840" lon="37.3544770">
    <ele>4028.1</ele>
    <time>2026-06-22T09:04:46Z</time>
   </trkpt>
   <trkpt lat="-3.1121810" lon="37.3544900">
    <ele>4028.2</ele>
    <time>2026-06-22T09:04:47Z</time>
   </trkpt>
   <trkpt lat="-3.1121800" lon="37.3544990">
    <ele>4028.3</ele>
    <time>2026-06-22T09:04:48Z</time>
   </trkpt>
   <trkpt lat="-3.1121810" lon="37.3545040">
    <ele>4028.3</ele>
    <time>2026-06-22T09:04:49Z</time>
   </trkpt>
   <trkpt lat="-3.1121820" lon="37.3544950">
    <ele>4028.4</ele>
    <time>2026-06-22T09:04:50Z</time>
   </trkpt>
   <trkpt lat="-3.1121850" lon="37.3544980">
    <ele>4028.4</ele>
    <time>2026-06-22T09:04:51Z</time>
   </trkpt>
   <trkpt lat="-3.1121930" lon="37.3544990">
    <ele>4028.5</ele>
    <time>2026-06-22T09:04:52Z</time>
   </trkpt>
   <trkpt lat="-3.1121970" lon="37.3544960">
    <ele>4028.5</ele>
    <time>2026-06-22T09:04:53Z</time>
   </trkpt>
   <trkpt lat="-3.1121940" lon="37.3544940">
    <ele>4028.5</ele>
    <time>2026-06-22T09:04:54Z</time>
   </trkpt>
   <trkpt lat="-3.1121980" lon="37.3544930">
    <ele>4028.6</ele>
    <time>2026-06-22T09:04:55Z</time>
   </trkpt>
   <trkpt lat="-3.1121960" lon="37.3544950">
    <ele>4028.6</ele>
    <time>2026-06-22T09:04:56Z</time>
   </trkpt>
   <trkpt lat="-3.1121960" lon="37.3544970">
    <ele>4028.6</ele>
    <time>2026-06-22T09:04:57Z</time>
   </trkpt>
   <trkpt lat="-3.1121940" lon="37.3544940">
    <ele>4028.6</ele>
    <time>2026-06-22T09:04:58Z</time>
   </trkpt>
   <trkpt lat="-3.1121900" lon="37.3544950">
    <ele>4028.7</ele>
    <time>2026-06-22T09:04:59Z</time>
   </trkpt>
   <trkpt lat="-3.1121870" lon="37.3544980">
    <ele>4028.7</ele>
    <time>2026-06-22T09:05:00Z</time>
   </trkpt>
   <trkpt lat="-3.1121880" lon="37.3544940">
    <ele>4028.7</ele>
    <time>2026-06-22T09:05:01Z</time>
   </trkpt>
   <trkpt lat="-3.1121890" lon="37.3544960">
    <ele>4028.7</ele>
    <time>2026-06-22T09:05:02Z</time>
   </trkpt>
   <trkpt lat="-3.1121860" lon="37.3544960">
    <ele>4028.8</ele>
    <time>2026-06-22T09:05:03Z</time>
   </trkpt>
   <trkpt lat="-3.1121940" lon="37.3544990">
    <ele>4028.8</ele>
    <time>2026-06-22T09:05:04Z</time>
   </trkpt>
   <trkpt lat="-3.1121910" lon="37.3544980">
    <ele>4028.9</ele>
    <time>2026-06-22T09:05:05Z</time>
   </trkpt>
   <trkpt lat="-3.1121920" lon="37.3544970">
    <ele>4028.9</ele>
    <time>2026-06-22T09:05:06Z</time>
   </trkpt>
   <trkpt lat="-3.1121940" lon="37.3544960">
    <ele>4028.9</ele>
    <time>2026-06-22T09:05:07Z</time>
   </trkpt>
   <trkpt lat="-3.1121950" lon="37.3544970">
    <ele>4028.9</ele>
    <time>2026-06-22T09:05:08Z</time>
   </trkpt>
   <trkpt lat="-3.1121960" lon="37.3544970">
    <ele>4028.9</ele>
    <time>2026-06-22T09:05:09Z</time>
   </trkpt>
   <trkpt lat="-3.1121960" lon="37.3544960">
    <ele>4028.9</ele>
    <time>2026-06-22T09:05:10Z</time>
   </trkpt>
   <trkpt lat="-3.1121960" lon="37.3544960">
    <ele>4028.9</ele>
    <time>2026-06-22T09:05:11Z</time>
   </trkpt>
   <trkpt lat="-3.1121970" lon="37.3544960">
    <ele>4028.9</ele>
    <time>2026-06-22T09:05:12Z</time>
   </trkpt>
   <trkpt lat="-3.1121990" lon="37.3544980">
    <ele>4028.9</ele>
    <time>2026-06-22T09:05:13Z</time>
   </trkpt>
   <trkpt lat="-3.1121980" lon="37.3544970">
    <ele>4029.0</ele>
    <time>2026-06-22T09:05:14Z</time>
   </trkpt>
   <trkpt lat="-3.1121990" lon="37.3544970">
    <ele>4029.0</ele>
    <time>2026-06-22T09:05:15Z</time>
   </trkpt>
   <trkpt lat="-3.1122000" lon="37.3544970">
    <ele>4029.0</ele>
    <time>2026-06-22T09:05:16Z</time>
   </trkpt>
   <trkpt lat="-3.1121990" lon="37.3544980">
    <ele>4029.0</ele>
    <time>2026-06-22T09:05:17Z</time>
   </trkpt>
   <trkpt lat="-3.1121960" lon="37.3544960">
    <ele>4029.0</ele>
    <time>2026-06-22T09:05:18Z</time>
   </trkpt>
   <trkpt lat="-3.1121950" lon="37.3544950">
    <ele>4029.0</ele>
    <time>2026-06-22T09:05:19Z</time>
   </trkpt>
   <trkpt lat="-3.1121950" lon="37.3544950">
    <ele>4029.0</ele>
    <time>2026-06-22T09:05:20Z</time>
   </trkpt>
   <trkpt lat="-3.1122000" lon="37.3544940">
    <ele>4029.1</ele>
    <time>2026-06-22T09:05:21Z</time>
   </trkpt>
   <trkpt lat="-3.1122010" lon="37.3544940">
    <ele>4029.1</ele>
    <time>2026-06-22T09:05:22Z</time>
   </trkpt>
   <trkpt lat="-3.1122000" lon="37.3544950">
    <ele>4029.1</ele>
    <time>2026-06-22T09:05:23Z</time>
   </trkpt>
   <trkpt lat="-3.1122020" lon="37.3544940">
    <ele>4029.1</ele>
    <time>2026-06-22T09:05:24Z</time>
   </trkpt>
   <trkpt lat="-3.1121990" lon="37.3544950">
    <ele>4029.1</ele>
    <time>2026-06-22T09:05:25Z</time>
   </trkpt>
   <trkpt lat="-3.1122010" lon="37.3544940">
    <ele>4029.1</ele>
    <time>2026-06-22T09:05:26Z</time>
   </trkpt>
   <trkpt lat="-3.1122010" lon="37.3544940">
    <ele>4029.1</ele>
    <time>2026-06-22T09:05:27Z</time>
   </trkpt>
   <trkpt lat="-3.1122010" lon="37.3544940">
    <ele>4029.1</ele>
    <time>2026-06-22T09:05:28Z</time>
   </trkpt>
   <trkpt lat="-3.1122010" lon="37.3544940">
    <ele>4029.1</ele>
    <time>2026-06-22T09:05:29Z</time>
   </trkpt>
   <trkpt lat="-3.1122000" lon="37.3544950">
    <ele>4029.1</ele>
    <time>2026-06-22T09:05:30Z</time>
   </trkpt>
   <trkpt lat="-3.1122000" lon="37.3544950">
    <ele>4029.1</ele>
    <time>2026-06-22T09:05:31Z</time>
   </trkpt>
   <trkpt lat="-3.1121990" lon="37.3544940">
    <ele>4029.2</ele>
    <time>2026-06-22T09:05:32Z</time>
   </trkpt>
   <trkpt lat="-3.1122000" lon="37.3544940">
    <ele>4029.2</ele>
    <time>2026-06-22T09:05:33Z</time>
   </trkpt>
   <trkpt lat="-3.1122000" lon="37.3544950">
    <ele>4029.2</ele>
    <time>2026-06-22T09:05:34Z</time>
   </trkpt>
   <trkpt lat="-3.1122010" lon="37.3544960">
    <ele>4029.2</ele>
    <time>2026-06-22T09:05:35Z</time>
   </trkpt>
   <trkpt lat="-3.1122020" lon="37.3544950">
    <ele>4029.2</ele>
    <time>2026-06-22T09:05:36Z</time>
   </trkpt>
   <trkpt lat="-3.1122020" lon="37.3544950">
    <ele>4029.2</ele>
    <time>2026-06-22T09:05:37Z</time>
   </trkpt>
   <trkpt lat="-3.1122020" lon="37.3544950">
    <ele>4029.2</ele>
    <time>2026-06-22T09:05:38Z</time>
   </trkpt>
   <trkpt lat="-3.1122020" lon="37.3544950">
    <ele>4029.2</ele>
    <time>2026-06-22T09:05:39Z</time>
   </trkpt>
   <trkpt lat="-3.1122020" lon="37.3544960">
    <ele>4029.2</ele>
    <time>2026-06-22T09:05:40Z</time>
   </trkpt>
   <trkpt lat="-3.1122020" lon="37.3544960">
    <ele>4029.2</ele>
    <time>2026-06-22T09:05:41Z</time>
   </trkpt>
   <trkpt lat="-3.1122030" lon="37.3544960">
    <ele>4029.2</ele>
    <time>2026-06-22T09:05:42Z</time>
   </trkpt>
   <trkpt lat="-3.1122020" lon="37.3544960">
    <ele>4029.2</ele>
    <time>2026-06-22T09:05:43Z</time>
   </trkpt>
   <trkpt lat="-3.1122020" lon="37.3544960">
    <ele>4029.2</ele>
    <time>2026-06-22T09:05:44Z</time>
   </trkpt>
   <trkpt lat="-3.1122000" lon="37.3544970">
    <ele>4029.2</ele>
    <time>2026-06-22T09:05:45Z</time>
   </trkpt>
   <trkpt lat="-3.1122000" lon="37.3544970">
    <ele>4029.2</ele>
    <time>2026-06-22T09:05:46Z</time>
   </trkpt>
   <trkpt lat="-3.1122010" lon="37.3544970">
    <ele>4029.2</ele>
    <time>2026-06-22T09:05:47Z</time>
   </trkpt>
   <trkpt lat="-3.1122010" lon="37.3544970">
    <ele>4029.2</ele>
    <time>2026-06-22T09:05:48Z</time>
   </trkpt>
   <trkpt lat="-3.1122000" lon="37.3544970">
    <ele>4029.3</ele>
    <time>2026-06-22T09:05:49Z</time>
   </trkpt>
   <trkpt lat="-3.1122010" lon="37.3544980">
    <ele>4029.3</ele>
    <time>2026-06-22T09:05:50Z</time>
   </trkpt>
   <trkpt lat="-3.1122010" lon="37.3544980">
    <ele>4029.3</ele>
    <time>2026-06-22T09:05:51Z</time>
   </trkpt>
   <trkpt lat="-3.1122020" lon="37.3544970">
    <ele>4029.3</ele>
    <time>2026-06-22T09:05:52Z</time>
   </trkpt>
   <trkpt lat="-3.1122020" lon="37.3544970">
    <ele>4029.3</ele>
    <time>2026-06-22T09:05:53Z</time>
   </trkpt>
   <trkpt lat="-3.1122000" lon="37.3544970">
    <ele>4029.3</ele>
    <time>2026-06-22T09:05:54Z</time>
   </trkpt>
   <trkpt lat="-3.1121980" lon="37.3544970">
    <ele>4029.3</ele>
    <time>2026-06-22T09:05:55Z</time>
   </trkpt>
   <trkpt lat="-3.1122030" lon="37.3544980">
    <ele>4029.3</ele>
    <time>2026-06-22T09:05:56Z</time>
   </trkpt>
   <trkpt lat="-3.1122020" lon="37.3544970">
    <ele>4029.4</ele>
    <time>2026-06-22T09:05:57Z</time>
   </trkpt>
   <trkpt lat="-3.1122020" lon="37.3544970">
    <ele>4029.4</ele>
    <time>2026-06-22T09:05:58Z</time>
   </trkpt>
   <trkpt lat="-3.1122030" lon="37.3544960">
    <ele>4029.4</ele>
    <time>2026-06-22T09:05:59Z</time>
   </trkpt>
   <trkpt lat="-3.1122030" lon="37.3544960">
    <ele>4029.4</ele>
    <time>2026-06-22T09:06:00Z</time>
   </trkpt>
   <trkpt lat="-3.1122030" lon="37.3544960">
    <ele>4029.4</ele>
    <time>2026-06-22T09:06:01Z</time>
   </trkpt>
   <trkpt lat="-3.1122040" lon="37.3544960">
    <ele>4029.4</ele>
    <time>2026-06-22T09:06:02Z</time>
   </trkpt>
   <trkpt lat="-3.1122050" lon="37.3544970">
    <ele>4029.4</ele>
    <time>2026-06-22T09:06:03Z</time>
   </trkpt>
   <trkpt lat="-3.1122050" lon="37.3544960">
    <ele>4029.4</ele>
    <time>2026-06-22T09:06:04Z</time>
   </trkpt>
   <trkpt lat="-3.1122050" lon="37.3544980">
    <ele>4029.4</ele>
    <time>2026-06-22T09:06:05Z</time>
   </trkpt>
   <trkpt lat="-3.1122040" lon="37.3544970">
    <ele>4029.4</ele>
    <time>2026-06-22T09:06:06Z</time>
   </trkpt>
   <trkpt lat="-3.1122050" lon="37.3544970">
    <ele>4029.4</ele>
    <time>2026-06-22T09:06:07Z</time>
   </trkpt>
   <trkpt lat="-3.1122050" lon="37.3544970">
    <ele>4029.4</ele>
    <time>2026-06-22T09:06:08Z</time>
   </trkpt>
   <trkpt lat="-3.1122040" lon="37.3544970">
    <ele>4029.4</ele>
    <time>2026-06-22T09:06:09Z</time>
   </trkpt>
   <trkpt lat="-3.1122040" lon="37.3544960">
    <ele>4029.4</ele>
    <time>2026-06-22T09:06:10Z</time>
   </trkpt>
   <trkpt lat="-3.1122030" lon="37.3544950">
    <ele>4029.5</ele>
    <time>2026-06-22T09:06:11Z</time>
   </trkpt>
   <trkpt lat="-3.1122030" lon="37.3544950">
    <ele>4029.5</ele>
    <time>2026-06-22T09:06:12Z</time>
   </trkpt>
   <trkpt lat="-3.1122020" lon="37.3544960">
    <ele>4029.5</ele>
    <time>2026-06-22T09:06:13Z</time>
   </trkpt>
   <trkpt lat="-3.1122020" lon="37.3544960">
    <ele>4029.5</ele>
    <time>2026-06-22T09:06:14Z</time>
   </trkpt>
   <trkpt lat="-3.1122010" lon="37.3544960">
    <ele>4029.5</ele>
    <time>2026-06-22T09:06:15Z</time>
   </trkpt>
   <trkpt lat="-3.1122010" lon="37.3544950">
    <ele>4029.5</ele>
    <time>2026-06-22T09:06:16Z</time>
   </trkpt>
   <trkpt lat="-3.1122000" lon="37.3544950">
    <ele>4029.5</ele>
    <time>2026-06-22T09:06:17Z</time>
   </trkpt>
   <trkpt lat="-3.1122000" lon="37.3544950">
    <ele>4029.5</ele>
    <time>2026-06-22T09:06:18Z</time>
   </trkpt>
   <trkpt lat="-3.1122000" lon="37.3544950">
    <ele>4029.5</ele>
    <time>2026-06-22T09:06:19Z</time>
   </trkpt>
   <trkpt lat="-3.1122000" lon="37.3544950">
    <ele>4029.5</ele>
    <time>2026-06-22T09:06:20Z</time>
   </trkpt>
   <trkpt lat="-3.1122010" lon="37.3544940">
    <ele>4029.5</ele>
    <time>2026-06-22T09:06:21Z</time>
   </trkpt>
   <trkpt lat="-3.1122040" lon="37.3544940">
    <ele>4029.5</ele>
    <time>2026-06-22T09:06:22Z</time>
   </trkpt>
   <trkpt lat="-3.1122020" lon="37.3544980">
    <ele>4029.6</ele>
    <time>2026-06-22T09:06:23Z</time>
   </trkpt>
   <trkpt lat="-3.1122010" lon="37.3544990">
    <ele>4029.6</ele>
    <time>2026-06-22T09:06:24Z</time>
   </trkpt>
   <trkpt lat="-3.1122010" lon="37.3544950">
    <ele>4029.6</ele>
    <time>2026-06-22T09:06:25Z</time>
   </trkpt>
   <trkpt lat="-3.1122010" lon="37.3544960">
    <ele>4029.6</ele>
    <time>2026-06-22T09:06:26Z</time>
   </trkpt>
   <trkpt lat="-3.1122010" lon="37.3544940">
    <ele>4029.6</ele>
    <time>2026-06-22T09:06:27Z</time>
   </trkpt>
   <trkpt lat="-3.1122010" lon="37.3544940">
    <ele>4029.6</ele>
    <time>2026-06-22T09:06:28Z</time>
   </trkpt>
   <trkpt lat="-3.1122020" lon="37.3544930">
    <ele>4029.6</ele>
    <time>2026-06-22T09:06:29Z</time>
   </trkpt>
   <trkpt lat="-3.1122030" lon="37.3544930">
    <ele>4029.6</ele>
    <time>2026-06-22T09:06:30Z</time>
   </trkpt>
   <trkpt lat="-3.1122030" lon="37.3544930">
    <ele>4029.6</ele>
    <time>2026-06-22T09:06:31Z</time>
   </trkpt>
   <trkpt lat="-3.1122020" lon="37.3544930">
    <ele>4029.6</ele>
    <time>2026-06-22T09:06:32Z</time>
   </trkpt>
   <trkpt lat="-3.1122030" lon="37.3544940">
    <ele>4029.7</ele>
    <time>2026-06-22T09:06:33Z</time>
   </trkpt>
   <trkpt lat="-3.1122020" lon="37.3544930">
    <ele>4029.7</ele>
    <time>2026-06-22T09:06:34Z</time>
   </trkpt>
   <trkpt lat="-3.1122020" lon="37.3544920">
    <ele>4029.7</ele>
    <time>2026-06-22T09:06:35Z</time>
   </trkpt>
   <trkpt lat="-3.1122040" lon="37.3544920">
    <ele>4029.7</ele>
    <time>2026-06-22T09:06:36Z</time>
   </trkpt>
   <trkpt lat="-3.1122040" lon="37.3544920">
    <ele>4029.7</ele>
    <time>2026-06-22T09:06:37Z</time>
   </trkpt>
   <trkpt lat="-3.1122050" lon="37.3544910">
    <ele>4029.7</ele>
    <time>2026-06-22T09:06:38Z</time>
   </trkpt>
   <trkpt lat="-3.1122040" lon="37.3544920">
    <ele>4029.7</ele>
    <time>2026-06-22T09:06:39Z</time>
   </trkpt>
   <trkpt lat="-3.1122050" lon="37.3544910">
    <ele>4029.7</ele>
    <time>2026-06-22T09:06:40Z</time>
   </trkpt>
   <trkpt lat="-3.1122080" lon="37.3544900">
    <ele>4029.7</ele>
    <time>2026-06-22T09:06:41Z</time>
   </trkpt>
   <trkpt lat="-3.1122040" lon="37.3544900">
    <ele>4029.8</ele>
    <time>2026-06-22T09:06:42Z</time>
   </trkpt>
   <trkpt lat="-3.1122050" lon="37.3544920">
    <ele>4029.8</ele>
    <time>2026-06-22T09:06:43Z</time>
   </trkpt>
   <trkpt lat="-3.1122040" lon="37.3544920">
    <ele>4029.8</ele>
    <time>2026-06-22T09:06:44Z</time>
   </trkpt>
   <trkpt lat="-3.1122030" lon="37.3544930">
    <ele>4029.8</ele>
    <time>2026-06-22T09:06:45Z</time>
   </trkpt>
   <trkpt lat="-3.1122020" lon="37.3544930">
    <ele>4029.8</ele>
    <time>2026-06-22T09:06:46Z</time>
   </trkpt>
   <trkpt lat="-3.1122020" lon="37.3544930">
    <ele>4029.8</ele>
    <time>2026-06-22T09:06:47Z</time>
   </trkpt>
   <trkpt lat="-3.1122010" lon="37.3544930">
    <ele>4029.8</ele>
    <time>2026-06-22T09:06:48Z</time>
   </trkpt>
   <trkpt lat="-3.1122030" lon="37.3544950">
    <ele>4029.9</ele>
    <time>2026-06-22T09:06:49Z</time>
   </trkpt>
   <trkpt lat="-3.1122020" lon="37.3544950">
    <ele>4029.9</ele>
    <time>2026-06-22T09:06:50Z</time>
   </trkpt>
   <trkpt lat="-3.1122020" lon="37.3544960">
    <ele>4029.9</ele>
    <time>2026-06-22T09:06:51Z</time>
   </trkpt>
   <trkpt lat="-3.1122020" lon="37.3544960">
    <ele>4029.9</ele>
    <time>2026-06-22T09:06:52Z</time>
   </trkpt>
   <trkpt lat="-3.1122010" lon="37.3544960">
    <ele>4029.9</ele>
    <time>2026-06-22T09:06:53Z</time>
   </trkpt>
   <trkpt lat="-3.1122030" lon="37.3544950">
    <ele>4029.9</ele>
    <time>2026-06-22T09:06:54Z</time>
   </trkpt>
   <trkpt lat="-3.1122030" lon="37.3544940">
    <ele>4029.9</ele>
    <time>2026-06-22T09:06:55Z</time>
   </trkpt>
   <trkpt lat="-3.1122030" lon="37.3544930">
    <ele>4029.9</ele>
    <time>2026-06-22T09:06:56Z</time>
   </trkpt>
   <trkpt lat="-3.1122030" lon="37.3544940">
    <ele>4029.9</ele>
    <time>2026-06-22T09:06:57Z</time>
   </trkpt>
   <trkpt lat="-3.1122030" lon="37.3544940">
    <ele>4029.9</ele>
    <time>2026-06-22T09:06:58Z</time>
   </trkpt>
   <trkpt lat="-3.1122040" lon="37.3544930">
    <ele>4029.9</ele>
    <time>2026-06-22T09:06:59Z</time>
   </trkpt>
   <trkpt lat="-3.1122030" lon="37.3544930">
    <ele>4029.9</ele>
    <time>2026-06-22T09:07:00Z</time>
   </trkpt>
   <trkpt lat="-3.1122060" lon="37.3544930">
    <ele>4030.0</ele>
    <time>2026-06-22T09:07:01Z</time>
   </trkpt>
   <trkpt lat="-3.1122060" lon="37.3544930">
    <ele>4030.0</ele>
    <time>2026-06-22T09:07:02Z</time>
   </trkpt>
   <trkpt lat="-3.1122070" lon="37.3544950">
    <ele>4030.0</ele>
    <time>2026-06-22T09:07:03Z</time>
   </trkpt>
   <trkpt lat="-3.1122080" lon="37.3544940">
    <ele>4030.0</ele>
    <time>2026-06-22T09:07:04Z</time>
   </trkpt>
   <trkpt lat="-3.1122150" lon="37.3544920">
    <ele>4030.0</ele>
    <time>2026-06-22T09:07:05Z</time>
   </trkpt>
   <trkpt lat="-3.1122190" lon="37.3544790">
    <ele>4030.1</ele>
    <time>2026-06-22T09:07:06Z</time>
   </trkpt>
   <trkpt lat="-3.1122240" lon="37.3544720">
    <ele>4030.2</ele>
    <time>2026-06-22T09:07:07Z</time>
   </trkpt>
   <trkpt lat="-3.1122230" lon="37.3544720">
    <ele>4030.2</ele>
    <time>2026-06-22T09:07:08Z</time>
   </trkpt>
   <trkpt lat="-3.1122340" lon="37.3544750">
    <ele>4030.3</ele>
    <time>2026-06-22T09:07:09Z</time>
   </trkpt>
   <trkpt lat="-3.1122300" lon="37.3544770">
    <ele>4030.3</ele>
    <time>2026-06-22T09:07:10Z</time>
   </trkpt>
   <trkpt lat="-3.1122300" lon="37.3544720">
    <ele>4030.4</ele>
    <time>2026-06-22T09:07:11Z</time>
   </trkpt>
   <trkpt lat="-3.1122300" lon="37.3544720">
    <ele>4030.4</ele>
    <time>2026-06-22T09:07:12Z</time>
   </trkpt>
   <trkpt lat="-3.1122340" lon="37.3544710">
    <ele>4030.4</ele>
    <time>2026-06-22T09:07:13Z</time>
   </trkpt>
   <trkpt lat="-3.1122340" lon="37.3544680">
    <ele>4030.4</ele>
    <time>2026-06-22T09:07:14Z</time>
   </trkpt>
   <trkpt lat="-3.1122350" lon="37.3544690">
    <ele>4030.4</ele>
    <time>2026-06-22T09:07:15Z</time>
   </trkpt>
   <trkpt lat="-3.1122350" lon="37.3544700">
    <ele>4030.5</ele>
    <time>2026-06-22T09:07:16Z</time>
   </trkpt>
   <trkpt lat="-3.1122340" lon="37.3544710">
    <ele>4030.5</ele>
    <time>2026-06-22T09:07:17Z</time>
   </trkpt>
   <trkpt lat="-3.1122350" lon="37.3544720">
    <ele>4030.5</ele>
    <time>2026-06-22T09:07:18Z</time>
   </trkpt>
   <trkpt lat="-3.1122350" lon="37.3544720">
    <ele>4030.5</ele>
    <time>2026-06-22T09:07:19Z</time>
   </trkpt>
   <trkpt lat="-3.1122350" lon="37.3544720">
    <ele>4030.5</ele>
    <time>2026-06-22T09:07:20Z</time>
   </trkpt>
   <trkpt lat="-3.1122370" lon="37.3544740">
    <ele>4030.5</ele>
    <time>2026-06-22T09:07:21Z</time>
   </trkpt>
   <trkpt lat="-3.1122370" lon="37.3544750">
    <ele>4030.5</ele>
    <time>2026-06-22T09:07:22Z</time>
   </trkpt>
   <trkpt lat="-3.1122370" lon="37.3544740">
    <ele>4030.5</ele>
    <time>2026-06-22T09:07:23Z</time>
   </trkpt>
   <trkpt lat="-3.1122370" lon="37.3544740">
    <ele>4030.5</ele>
    <time>2026-06-22T09:07:24Z</time>
   </trkpt>
   <trkpt lat="-3.1122370" lon="37.3544740">
    <ele>4030.5</ele>
    <time>2026-06-22T09:07:25Z</time>
   </trkpt>
   <trkpt lat="-3.1122360" lon="37.3544730">
    <ele>4030.5</ele>
    <time>2026-06-22T09:07:26Z</time>
   </trkpt>
   <trkpt lat="-3.1122360" lon="37.3544730">
    <ele>4030.5</ele>
    <time>2026-06-22T09:07:27Z</time>
   </trkpt>
   <trkpt lat="-3.1122360" lon="37.3544730">
    <ele>4030.5</ele>
    <time>2026-06-22T09:07:28Z</time>
   </trkpt>
   <trkpt lat="-3.1122360" lon="37.3544730">
    <ele>4030.5</ele>
    <time>2026-06-22T09:07:29Z</time>
   </trkpt>
   <trkpt lat="-3.1122360" lon="37.3544730">
    <ele>4030.5</ele>
    <time>2026-06-22T09:07:30Z</time>
   </trkpt>
   <trkpt lat="-3.1122350" lon="37.3544720">
    <ele>4030.5</ele>
    <time>2026-06-22T09:07:31Z</time>
   </trkpt>
   <trkpt lat="-3.1122340" lon="37.3544730">
    <ele>4030.5</ele>
    <time>2026-06-22T09:07:32Z</time>
   </trkpt>
   <trkpt lat="-3.1122350" lon="37.3544730">
    <ele>4030.6</ele>
    <time>2026-06-22T09:07:33Z</time>
   </trkpt>
   <trkpt lat="-3.1122340" lon="37.3544730">
    <ele>4030.6</ele>
    <time>2026-06-22T09:07:34Z</time>
   </trkpt>
   <trkpt lat="-3.1122340" lon="37.3544730">
    <ele>4030.6</ele>
    <time>2026-06-22T09:07:35Z</time>
   </trkpt>
   <trkpt lat="-3.1122340" lon="37.3544730">
    <ele>4030.6</ele>
    <time>2026-06-22T09:07:36Z</time>
   </trkpt>
   <trkpt lat="-3.1122340" lon="37.3544730">
    <ele>4030.6</ele>
    <time>2026-06-22T09:07:37Z</time>
   </trkpt>
   <trkpt lat="-3.1122340" lon="37.3544730">
    <ele>4030.6</ele>
    <time>2026-06-22T09:07:38Z</time>
   </trkpt>
   <trkpt lat="-3.1122340" lon="37.3544740">
    <ele>4030.6</ele>
    <time>2026-06-22T09:07:39Z</time>
   </trkpt>
   <trkpt lat="-3.1122230" lon="37.3544710">
    <ele>4030.7</ele>
    <time>2026-06-22T09:07:40Z</time>
   </trkpt>
   <trkpt lat="-3.1122230" lon="37.3544710">
    <ele>4030.7</ele>
    <time>2026-06-22T09:07:41Z</time>
   </trkpt>
   <trkpt lat="-3.1122230" lon="37.3544710">
    <ele>4030.7</ele>
    <time>2026-06-22T09:07:42Z</time>
   </trkpt>
   <trkpt lat="-3.1122230" lon="37.3544710">
    <ele>4030.7</ele>
    <time>2026-06-22T09:07:43Z</time>
   </trkpt>
   <trkpt lat="-3.1122230" lon="37.3544710">
    <ele>4030.7</ele>
    <time>2026-06-22T09:07:44Z</time>
   </trkpt>
   <trkpt lat="-3.1122300" lon="37.3544730">
    <ele>4030.7</ele>
    <time>2026-06-22T09:07:45Z</time>
   </trkpt>
   <trkpt lat="-3.1122300" lon="37.3544740">
    <ele>4030.7</ele>
    <time>2026-06-22T09:07:46Z</time>
   </trkpt>
   <trkpt lat="-3.1122300" lon="37.3544740">
    <ele>4030.7</ele>
    <time>2026-06-22T09:07:47Z</time>
   </trkpt>
   <trkpt lat="-3.1122300" lon="37.3544740">
    <ele>4030.7</ele>
    <time>2026-06-22T09:07:48Z</time>
   </trkpt>
   <trkpt lat="-3.1122300" lon="37.3544740">
    <ele>4030.7</ele>
    <time>2026-06-22T09:07:49Z</time>
   </trkpt>
   <trkpt lat="-3.1122300" lon="37.3544740">
    <ele>4030.7</ele>
    <time>2026-06-22T09:07:50Z</time>
   </trkpt>
   <trkpt lat="-3.1122300" lon="37.3544740">
    <ele>4030.7</ele>
    <time>2026-06-22T09:07:51Z</time>
   </trkpt>
   <trkpt lat="-3.1122320" lon="37.3544740">
    <ele>4030.7</ele>
    <time>2026-06-22T09:07:52Z</time>
   </trkpt>
   <trkpt lat="-3.1122320" lon="37.3544740">
    <ele>4030.7</ele>
    <time>2026-06-22T09:07:53Z</time>
   </trkpt>
   <trkpt lat="-3.1122300" lon="37.3544740">
    <ele>4030.8</ele>
    <time>2026-06-22T09:07:54Z</time>
   </trkpt>
   <trkpt lat="-3.1122300" lon="37.3544740">
    <ele>4030.8</ele>
    <time>2026-06-22T09:07:55Z</time>
   </trkpt>
   <trkpt lat="-3.1122300" lon="37.3544740">
    <ele>4030.8</ele>
    <time>2026-06-22T09:07:56Z</time>
   </trkpt>
   <trkpt lat="-3.1122310" lon="37.3544740">
    <ele>4030.8</ele>
    <time>2026-06-22T09:07:57Z</time>
   </trkpt>
   <trkpt lat="-3.1122320" lon="37.3544740">
    <ele>4030.8</ele>
    <time>2026-06-22T09:07:58Z</time>
   </trkpt>
   <trkpt lat="-3.1122320" lon="37.3544740">
    <ele>4030.8</ele>
    <time>2026-06-22T09:07:59Z</time>
   </trkpt>
   <trkpt lat="-3.1122330" lon="37.3544740">
    <ele>4030.8</ele>
    <time>2026-06-22T09:08:00Z</time>
   </trkpt>
   <trkpt lat="-3.1122330" lon="37.3544740">
    <ele>4030.8</ele>
    <time>2026-06-22T09:08:01Z</time>
   </trkpt>
   <trkpt lat="-3.1122320" lon="37.3544750">
    <ele>4030.8</ele>
    <time>2026-06-22T09:08:02Z</time>
   </trkpt>
   <trkpt lat="-3.1122320" lon="37.3544750">
    <ele>4030.8</ele>
    <time>2026-06-22T09:08:03Z</time>
   </trkpt>
   <trkpt lat="-3.1122310" lon="37.3544750">
    <ele>4030.8</ele>
    <time>2026-06-22T09:08:04Z</time>
   </trkpt>
   <trkpt lat="-3.1122310" lon="37.3544780">
    <ele>4030.8</ele>
    <time>2026-06-22T09:08:05Z</time>
   </trkpt>
   <trkpt lat="-3.1122300" lon="37.3544740">
    <ele>4030.9</ele>
    <time>2026-06-22T09:08:06Z</time>
   </trkpt>
   <trkpt lat="-3.1122310" lon="37.3544760">
    <ele>4030.9</ele>
    <time>2026-06-22T09:08:07Z</time>
   </trkpt>
   <trkpt lat="-3.1122310" lon="37.3544760">
    <ele>4030.9</ele>
    <time>2026-06-22T09:08:08Z</time>
   </trkpt>
   <trkpt lat="-3.1122320" lon="37.3544750">
    <ele>4030.9</ele>
    <time>2026-06-22T09:08:09Z</time>
   </trkpt>
   <trkpt lat="-3.1122340" lon="37.3544750">
    <ele>4030.9</ele>
    <time>2026-06-22T09:08:10Z</time>
   </trkpt>
   <trkpt lat="-3.1122350" lon="37.3544740">
    <ele>4030.9</ele>
    <time>2026-06-22T09:08:11Z</time>
   </trkpt>
   <trkpt lat="-3.1122360" lon="37.3544750">
    <ele>4030.9</ele>
    <time>2026-06-22T09:08:12Z</time>
   </trkpt>
   <trkpt lat="-3.1122360" lon="37.3544750">
    <ele>4030.9</ele>
    <time>2026-06-22T09:08:13Z</time>
   </trkpt>
   <trkpt lat="-3.1122360" lon="37.3544750">
    <ele>4030.9</ele>
    <time>2026-06-22T09:08:14Z</time>
   </trkpt>
   <trkpt lat="-3.1122370" lon="37.3544750">
    <ele>4030.9</ele>
    <time>2026-06-22T09:08:15Z</time>
   </trkpt>
   <trkpt lat="-3.1122370" lon="37.3544750">
    <ele>4030.9</ele>
    <time>2026-06-22T09:08:16Z</time>
   </trkpt>
   <trkpt lat="-3.1122370" lon="37.3544750">
    <ele>4030.9</ele>
    <time>2026-06-22T09:08:17Z</time>
   </trkpt>
   <trkpt lat="-3.1122370" lon="37.3544750">
    <ele>4030.9</ele>
    <time>2026-06-22T09:08:18Z</time>
   </trkpt>
   <trkpt lat="-3.1122370" lon="37.3544730">
    <ele>4030.9</ele>
    <time>2026-06-22T09:08:19Z</time>
   </trkpt>
   <trkpt lat="-3.1122360" lon="37.3544730">
    <ele>4030.9</ele>
    <time>2026-06-22T09:08:20Z</time>
   </trkpt>
   <trkpt lat="-3.1122360" lon="37.3544740">
    <ele>4031.0</ele>
    <time>2026-06-22T09:08:21Z</time>
   </trkpt>
   <trkpt lat="-3.1122360" lon="37.3544740">
    <ele>4031.0</ele>
    <time>2026-06-22T09:08:22Z</time>
   </trkpt>
   <trkpt lat="-3.1122360" lon="37.3544740">
    <ele>4031.0</ele>
    <time>2026-06-22T09:08:23Z</time>
   </trkpt>
   <trkpt lat="-3.1122370" lon="37.3544750">
    <ele>4031.0</ele>
    <time>2026-06-22T09:08:24Z</time>
   </trkpt>
   <trkpt lat="-3.1122370" lon="37.3544750">
    <ele>4031.0</ele>
    <time>2026-06-22T09:08:25Z</time>
   </trkpt>
   <trkpt lat="-3.1122370" lon="37.3544750">
    <ele>4031.0</ele>
    <time>2026-06-22T09:08:26Z</time>
   </trkpt>
   <trkpt lat="-3.1122370" lon="37.3544750">
    <ele>4031.0</ele>
    <time>2026-06-22T09:08:27Z</time>
   </trkpt>
   <trkpt lat="-3.1122370" lon="37.3544750">
    <ele>4031.0</ele>
    <time>2026-06-22T09:08:28Z</time>
   </trkpt>
   <trkpt lat="-3.1122360" lon="37.3544740">
    <ele>4031.0</ele>
    <time>2026-06-22T09:08:29Z</time>
   </trkpt>
   <trkpt lat="-3.1122350" lon="37.3544740">
    <ele>4031.0</ele>
    <time>2026-06-22T09:08:30Z</time>
   </trkpt>
   <trkpt lat="-3.1122350" lon="37.3544750">
    <ele>4031.0</ele>
    <time>2026-06-22T09:08:31Z</time>
   </trkpt>
   <trkpt lat="-3.1122350" lon="37.3544750">
    <ele>4031.0</ele>
    <time>2026-06-22T09:08:32Z</time>
   </trkpt>
   <trkpt lat="-3.1122350" lon="37.3544750">
    <ele>4031.0</ele>
    <time>2026-06-22T09:08:33Z</time>
   </trkpt>
   <trkpt lat="-3.1122350" lon="37.3544750">
    <ele>4031.0</ele>
    <time>2026-06-22T09:08:34Z</time>
   </trkpt>
   <trkpt lat="-3.1122350" lon="37.3544750">
    <ele>4031.0</ele>
    <time>2026-06-22T09:08:35Z</time>
   </trkpt>
   <trkpt lat="-3.1122350" lon="37.3544750">
    <ele>4031.0</ele>
    <time>2026-06-22T09:08:36Z</time>
   </trkpt>
   <trkpt lat="-3.1122340" lon="37.3544750">
    <ele>4031.0</ele>
    <time>2026-06-22T09:08:37Z</time>
   </trkpt>
   <trkpt lat="-3.1122330" lon="37.3544750">
    <ele>4031.0</ele>
    <time>2026-06-22T09:08:38Z</time>
   </trkpt>
   <trkpt lat="-3.1122330" lon="37.3544750">
    <ele>4031.0</ele>
    <time>2026-06-22T09:08:39Z</time>
   </trkpt>
   <trkpt lat="-3.1122330" lon="37.3544740">
    <ele>4031.0</ele>
    <time>2026-06-22T09:08:40Z</time>
   </trkpt>
   <trkpt lat="-3.1122330" lon="37.3544740">
    <ele>4031.0</ele>
    <time>2026-06-22T09:08:41Z</time>
   </trkpt>
   <trkpt lat="-3.1122330" lon="37.3544720">
    <ele>4031.0</ele>
    <time>2026-06-22T09:08:42Z</time>
   </trkpt>
   <trkpt lat="-3.1122340" lon="37.3544740">
    <ele>4031.0</ele>
    <time>2026-06-22T09:08:43Z</time>
   </trkpt>
   <trkpt lat="-3.1122330" lon="37.3544730">
    <ele>4031.1</ele>
    <time>2026-06-22T09:08:44Z</time>
   </trkpt>
   <trkpt lat="-3.1122320" lon="37.3544760">
    <ele>4031.1</ele>
    <time>2026-06-22T09:08:45Z</time>
   </trkpt>
   <trkpt lat="-3.1122290" lon="37.3544750">
    <ele>4031.1</ele>
    <time>2026-06-22T09:08:46Z</time>
   </trkpt>
   <trkpt lat="-3.1122260" lon="37.3544670">
    <ele>4031.2</ele>
    <time>2026-06-22T09:08:47Z</time>
   </trkpt>
   <trkpt lat="-3.1122300" lon="37.3544680">
    <ele>4031.2</ele>
    <time>2026-06-22T09:08:48Z</time>
   </trkpt>
   <trkpt lat="-3.1122290" lon="37.3544650">
    <ele>4031.2</ele>
    <time>2026-06-22T09:08:49Z</time>
   </trkpt>
   <trkpt lat="-3.1122300" lon="37.3544640">
    <ele>4031.2</ele>
    <time>2026-06-22T09:08:50Z</time>
   </trkpt>
   <trkpt lat="-3.1122300" lon="37.3544650">
    <ele>4031.2</ele>
    <time>2026-06-22T09:08:51Z</time>
   </trkpt>
   <trkpt lat="-3.1122300" lon="37.3544650">
    <ele>4031.2</ele>
    <time>2026-06-22T09:08:52Z</time>
   </trkpt>
   <trkpt lat="-3.1122290" lon="37.3544650">
    <ele>4031.3</ele>
    <time>2026-06-22T09:08:53Z</time>
   </trkpt>
   <trkpt lat="-3.1122280" lon="37.3544650">
    <ele>4031.3</ele>
    <time>2026-06-22T09:08:54Z</time>
   </trkpt>
   <trkpt lat="-3.1122270" lon="37.3544640">
    <ele>4031.3</ele>
    <time>2026-06-22T09:08:55Z</time>
   </trkpt>
   <trkpt lat="-3.1122270" lon="37.3544640">
    <ele>4031.3</ele>
    <time>2026-06-22T09:08:56Z</time>
   </trkpt>
   <trkpt lat="-3.1122260" lon="37.3544630">
    <ele>4031.3</ele>
    <time>2026-06-22T09:08:57Z</time>
   </trkpt>
   <trkpt lat="-3.1122260" lon="37.3544630">
    <ele>4031.3</ele>
    <time>2026-06-22T09:08:58Z</time>
   </trkpt>
   <trkpt lat="-3.1122260" lon="37.3544630">
    <ele>4031.3</ele>
    <time>2026-06-22T09:08:59Z</time>
   </trkpt>
   <trkpt lat="-3.1122260" lon="37.3544630">
    <ele>4031.3</ele>
    <time>2026-06-22T09:09:00Z</time>
   </trkpt>
   <trkpt lat="-3.1122250" lon="37.3544620">
    <ele>4031.3</ele>
    <time>2026-06-22T09:09:01Z</time>
   </trkpt>
   <trkpt lat="-3.1122250" lon="37.3544620">
    <ele>4031.3</ele>
    <time>2026-06-22T09:09:02Z</time>
   </trkpt>
   <trkpt lat="-3.1122250" lon="37.3544620">
    <ele>4031.3</ele>
    <time>2026-06-22T09:09:03Z</time>
   </trkpt>
   <trkpt lat="-3.1122250" lon="37.3544620">
    <ele>4031.3</ele>
    <time>2026-06-22T09:09:04Z</time>
   </trkpt>
   <trkpt lat="-3.1122260" lon="37.3544630">
    <ele>4031.3</ele>
    <time>2026-06-22T09:09:05Z</time>
   </trkpt>
   <trkpt lat="-3.1122260" lon="37.3544630">
    <ele>4031.3</ele>
    <time>2026-06-22T09:09:06Z</time>
   </trkpt>
   <trkpt lat="-3.1122260" lon="37.3544630">
    <ele>4031.3</ele>
    <time>2026-06-22T09:09:07Z</time>
   </trkpt>
   <trkpt lat="-3.1122250" lon="37.3544630">
    <ele>4031.3</ele>
    <time>2026-06-22T09:09:08Z</time>
   </trkpt>
   <trkpt lat="-3.1122250" lon="37.3544630">
    <ele>4031.3</ele>
    <time>2026-06-22T09:09:09Z</time>
   </trkpt>
   <trkpt lat="-3.1122250" lon="37.3544640">
    <ele>4031.3</ele>
    <time>2026-06-22T09:09:10Z</time>
   </trkpt>
   <trkpt lat="-3.1122240" lon="37.3544650">
    <ele>4031.3</ele>
    <time>2026-06-22T09:09:11Z</time>
   </trkpt>
   <trkpt lat="-3.1122230" lon="37.3544660">
    <ele>4031.3</ele>
    <time>2026-06-22T09:09:12Z</time>
   </trkpt>
   <trkpt lat="-3.1122230" lon="37.3544650">
    <ele>4031.4</ele>
    <time>2026-06-22T09:09:13Z</time>
   </trkpt>
   <trkpt lat="-3.1122230" lon="37.3544650">
    <ele>4031.4</ele>
    <time>2026-06-22T09:09:14Z</time>
   </trkpt>
   <trkpt lat="-3.1122220" lon="37.3544640">
    <ele>4031.4</ele>
    <time>2026-06-22T09:09:15Z</time>
   </trkpt>
   <trkpt lat="-3.1122220" lon="37.3544640">
    <ele>4031.4</ele>
    <time>2026-06-22T09:09:16Z</time>
   </trkpt>
   <trkpt lat="-3.1122220" lon="37.3544640">
    <ele>4031.4</ele>
    <time>2026-06-22T09:09:17Z</time>
   </trkpt>
   <trkpt lat="-3.1122220" lon="37.3544640">
    <ele>4031.4</ele>
    <time>2026-06-22T09:09:18Z</time>
   </trkpt>
   <trkpt lat="-3.1122220" lon="37.3544640">
    <ele>4031.4</ele>
    <time>2026-06-22T09:09:19Z</time>
   </trkpt>
   <trkpt lat="-3.1122210" lon="37.3544630">
    <ele>4031.4</ele>
    <time>2026-06-22T09:09:20Z</time>
   </trkpt>
   <trkpt lat="-3.1122210" lon="37.3544630">
    <ele>4031.4</ele>
    <time>2026-06-22T09:09:21Z</time>
   </trkpt>
   <trkpt lat="-3.1122190" lon="37.3544630">
    <ele>4031.4</ele>
    <time>2026-06-22T09:09:22Z</time>
   </trkpt>
   <trkpt lat="-3.1122190" lon="37.3544640">
    <ele>4031.4</ele>
    <time>2026-06-22T09:09:23Z</time>
   </trkpt>
   <trkpt lat="-3.1122190" lon="37.3544650">
    <ele>4031.4</ele>
    <time>2026-06-22T09:09:24Z</time>
   </trkpt>
   <trkpt lat="-3.1122180" lon="37.3544650">
    <ele>4031.4</ele>
    <time>2026-06-22T09:09:25Z</time>
   </trkpt>
   <trkpt lat="-3.1122190" lon="37.3544650">
    <ele>4031.4</ele>
    <time>2026-06-22T09:09:26Z</time>
   </trkpt>
   <trkpt lat="-3.1122200" lon="37.3544650">
    <ele>4031.4</ele>
    <time>2026-06-22T09:09:27Z</time>
   </trkpt>
   <trkpt lat="-3.1122200" lon="37.3544650">
    <ele>4031.4</ele>
    <time>2026-06-22T09:09:28Z</time>
   </trkpt>
   <trkpt lat="-3.1122200" lon="37.3544650">
    <ele>4031.4</ele>
    <time>2026-06-22T09:09:29Z</time>
   </trkpt>
   <trkpt lat="-3.1122190" lon="37.3544640">
    <ele>4031.4</ele>
    <time>2026-06-22T09:09:30Z</time>
   </trkpt>
   <trkpt lat="-3.1122200" lon="37.3544650">
    <ele>4031.4</ele>
    <time>2026-06-22T09:09:31Z</time>
   </trkpt>
   <trkpt lat="-3.1122190" lon="37.3544630">
    <ele>4031.5</ele>
    <time>2026-06-22T09:09:32Z</time>
   </trkpt>
   <trkpt lat="-3.1122190" lon="37.3544620">
    <ele>4031.5</ele>
    <time>2026-06-22T09:09:33Z</time>
   </trkpt>
   <trkpt lat="-3.1122180" lon="37.3544630">
    <ele>4031.5</ele>
    <time>2026-06-22T09:09:34Z</time>
   </trkpt>
   <trkpt lat="-3.1122180" lon="37.3544630">
    <ele>4031.5</ele>
    <time>2026-06-22T09:09:35Z</time>
   </trkpt>
   <trkpt lat="-3.1122180" lon="37.3544630">
    <ele>4031.5</ele>
    <time>2026-06-22T09:09:36Z</time>
   </trkpt>
   <trkpt lat="-3.1122190" lon="37.3544620">
    <ele>4031.5</ele>
    <time>2026-06-22T09:09:37Z</time>
   </trkpt>
   <trkpt lat="-3.1122190" lon="37.3544620">
    <ele>4031.5</ele>
    <time>2026-06-22T09:09:38Z</time>
   </trkpt>
   <trkpt lat="-3.1122170" lon="37.3544610">
    <ele>4031.5</ele>
    <time>2026-06-22T09:09:39Z</time>
   </trkpt>
   <trkpt lat="-3.1122190" lon="37.3544630">
    <ele>4031.5</ele>
    <time>2026-06-22T09:09:40Z</time>
   </trkpt>
   <trkpt lat="-3.1122180" lon="37.3544630">
    <ele>4031.5</ele>
    <time>2026-06-22T09:09:41Z</time>
   </trkpt>
   <trkpt lat="-3.1122170" lon="37.3544620">
    <ele>4031.6</ele>
    <time>2026-06-22T09:09:42Z</time>
   </trkpt>
   <trkpt lat="-3.1122160" lon="37.3544600">
    <ele>4031.6</ele>
    <time>2026-06-22T09:09:43Z</time>
   </trkpt>
   <trkpt lat="-3.1122170" lon="37.3544620">
    <ele>4031.6</ele>
    <time>2026-06-22T09:09:44Z</time>
   </trkpt>
   <trkpt lat="-3.1122170" lon="37.3544620">
    <ele>4031.6</ele>
    <time>2026-06-22T09:09:45Z</time>
   </trkpt>
   <trkpt lat="-3.1122170" lon="37.3544620">
    <ele>4031.6</ele>
    <time>2026-06-22T09:09:46Z</time>
   </trkpt>
   <trkpt lat="-3.1122170" lon="37.3544620">
    <ele>4031.6</ele>
    <time>2026-06-22T09:09:47Z</time>
   </trkpt>
   <trkpt lat="-3.1122180" lon="37.3544610">
    <ele>4031.6</ele>
    <time>2026-06-22T09:09:48Z</time>
   </trkpt>
   <trkpt lat="-3.1122150" lon="37.3544580">
    <ele>4031.6</ele>
    <time>2026-06-22T09:09:49Z</time>
   </trkpt>
   <trkpt lat="-3.1122110" lon="37.3544570">
    <ele>4031.7</ele>
    <time>2026-06-22T09:09:50Z</time>
   </trkpt>
   <trkpt lat="-3.1122060" lon="37.3544580">
    <ele>4031.7</ele>
    <time>2026-06-22T09:09:51Z</time>
   </trkpt>
   <trkpt lat="-3.1122040" lon="37.3544570">
    <ele>4031.7</ele>
    <time>2026-06-22T09:09:52Z</time>
   </trkpt>
   <trkpt lat="-3.1122050" lon="37.3544600">
    <ele>4031.7</ele>
    <time>2026-06-22T09:09:53Z</time>
   </trkpt>
   <trkpt lat="-3.1122060" lon="37.3544600">
    <ele>4031.8</ele>
    <time>2026-06-22T09:09:54Z</time>
   </trkpt>
   <trkpt lat="-3.1122070" lon="37.3544610">
    <ele>4031.8</ele>
    <time>2026-06-22T09:09:55Z</time>
   </trkpt>
   <trkpt lat="-3.1122080" lon="37.3544620">
    <ele>4031.8</ele>
    <time>2026-06-22T09:09:56Z</time>
   </trkpt>
   <trkpt lat="-3.1122080" lon="37.3544620">
    <ele>4031.8</ele>
    <time>2026-06-22T09:09:57Z</time>
   </trkpt>
   <trkpt lat="-3.1122080" lon="37.3544620">
    <ele>4031.8</ele>
    <time>2026-06-22T09:09:58Z</time>
   </trkpt>
   <trkpt lat="-3.1122080" lon="37.3544630">
    <ele>4031.8</ele>
    <time>2026-06-22T09:09:59Z</time>
   </trkpt>
   <trkpt lat="-3.1121960" lon="37.3544610">
    <ele>4031.9</ele>
    <time>2026-06-22T09:10:00Z</time>
   </trkpt>
   <trkpt lat="-3.1122040" lon="37.3544640">
    <ele>4031.9</ele>
    <time>2026-06-22T09:10:01Z</time>
   </trkpt>
   <trkpt lat="-3.1122010" lon="37.3544640">
    <ele>4032.0</ele>
    <time>2026-06-22T09:10:02Z</time>
   </trkpt>
   <trkpt lat="-3.1122030" lon="37.3544630">
    <ele>4032.0</ele>
    <time>2026-06-22T09:10:03Z</time>
   </trkpt>
   <trkpt lat="-3.1122030" lon="37.3544650">
    <ele>4032.0</ele>
    <time>2026-06-22T09:10:04Z</time>
   </trkpt>
   <trkpt lat="-3.1122030" lon="37.3544660">
    <ele>4032.0</ele>
    <time>2026-06-22T09:10:05Z</time>
   </trkpt>
   <trkpt lat="-3.1122020" lon="37.3544650">
    <ele>4032.0</ele>
    <time>2026-06-22T09:10:06Z</time>
   </trkpt>
   <trkpt lat="-3.1122030" lon="37.3544660">
    <ele>4032.0</ele>
    <time>2026-06-22T09:10:07Z</time>
   </trkpt>
   <trkpt lat="-3.1121990" lon="37.3544640">
    <ele>4032.1</ele>
    <time>2026-06-22T09:10:08Z</time>
   </trkpt>
   <trkpt lat="-3.1121930" lon="37.3544550">
    <ele>4032.1</ele>
    <time>2026-06-22T09:10:09Z</time>
   </trkpt>
   <trkpt lat="-3.1121980" lon="37.3544630">
    <ele>4032.2</ele>
    <time>2026-06-22T09:10:10Z</time>
   </trkpt>
   <trkpt lat="-3.1121970" lon="37.3544620">
    <ele>4032.2</ele>
    <time>2026-06-22T09:10:11Z</time>
   </trkpt>
   <trkpt lat="-3.1121990" lon="37.3544620">
    <ele>4032.2</ele>
    <time>2026-06-22T09:10:12Z</time>
   </trkpt>
   <trkpt lat="-3.1121980" lon="37.3544620">
    <ele>4032.3</ele>
    <time>2026-06-22T09:10:13Z</time>
   </trkpt>
   <trkpt lat="-3.1121990" lon="37.3544650">
    <ele>4032.3</ele>
    <time>2026-06-22T09:10:14Z</time>
   </trkpt>
   <trkpt lat="-3.1122000" lon="37.3544640">
    <ele>4032.3</ele>
    <time>2026-06-22T09:10:15Z</time>
   </trkpt>
   <trkpt lat="-3.1121990" lon="37.3544640">
    <ele>4032.3</ele>
    <time>2026-06-22T09:10:16Z</time>
   </trkpt>
   <trkpt lat="-3.1122070" lon="37.3544620">
    <ele>4032.4</ele>
    <time>2026-06-22T09:10:17Z</time>
   </trkpt>
   <trkpt lat="-3.1122080" lon="37.3544630">
    <ele>4032.4</ele>
    <time>2026-06-22T09:10:18Z</time>
   </trkpt>
   <trkpt lat="-3.1122080" lon="37.3544630">
    <ele>4032.4</ele>
    <time>2026-06-22T09:10:19Z</time>
   </trkpt>
   <trkpt lat="-3.1122020" lon="37.3544660">
    <ele>4032.4</ele>
    <time>2026-06-22T09:10:20Z</time>
   </trkpt>
   <trkpt lat="-3.1122020" lon="37.3544660">
    <ele>4032.4</ele>
    <time>2026-06-22T09:10:21Z</time>
   </trkpt>
   <trkpt lat="-3.1122020" lon="37.3544660">
    <ele>4032.4</ele>
    <time>2026-06-22T09:10:22Z</time>
   </trkpt>
   <trkpt lat="-3.1122040" lon="37.3544680">
    <ele>4032.4</ele>
    <time>2026-06-22T09:10:23Z</time>
   </trkpt>
   <trkpt lat="-3.1122060" lon="37.3544670">
    <ele>4032.5</ele>
    <time>2026-06-22T09:10:24Z</time>
   </trkpt>
   <trkpt lat="-3.1122050" lon="37.3544660">
    <ele>4032.5</ele>
    <time>2026-06-22T09:10:26Z</time>
   </trkpt>
   <trkpt lat="-3.1122060" lon="37.3544660">
    <ele>4032.5</ele>
    <time>2026-06-22T09:10:27Z</time>
   </trkpt>
   <trkpt lat="-3.1122060" lon="37.3544650">
    <ele>4032.5</ele>
    <time>2026-06-22T09:10:28Z</time>
   </trkpt>
   <trkpt lat="-3.1122060" lon="37.3544650">
    <ele>4032.5</ele>
    <time>2026-06-22T09:10:29Z</time>
   </trkpt>
   <trkpt lat="-3.1122060" lon="37.3544650">
    <ele>4032.5</ele>
    <time>2026-06-22T09:10:30Z</time>
   </trkpt>
   <trkpt lat="-3.1122060" lon="37.3544650">
    <ele>4032.5</ele>
    <time>2026-06-22T09:10:31Z</time>
   </trkpt>
   <trkpt lat="-3.1122040" lon="37.3544650">
    <ele>4032.5</ele>
    <time>2026-06-22T09:10:32Z</time>
   </trkpt>
   <trkpt lat="-3.1122050" lon="37.3544650">
    <ele>4032.5</ele>
    <time>2026-06-22T09:10:33Z</time>
   </trkpt>
   <trkpt lat="-3.1122040" lon="37.3544640">
    <ele>4032.5</ele>
    <time>2026-06-22T09:10:34Z</time>
   </trkpt>
   <trkpt lat="-3.1122040" lon="37.3544640">
    <ele>4032.5</ele>
    <time>2026-06-22T09:10:35Z</time>
   </trkpt>
   <trkpt lat="-3.1122040" lon="37.3544650">
    <ele>4032.5</ele>
    <time>2026-06-22T09:10:36Z</time>
   </trkpt>
   <trkpt lat="-3.1122040" lon="37.3544640">
    <ele>4032.5</ele>
    <time>2026-06-22T09:10:37Z</time>
   </trkpt>
   <trkpt lat="-3.1122040" lon="37.3544640">
    <ele>4032.5</ele>
    <time>2026-06-22T09:10:38Z</time>
   </trkpt>
   <trkpt lat="-3.1122040" lon="37.3544640">
    <ele>4032.5</ele>
    <time>2026-06-22T09:10:39Z</time>
   </trkpt>
   <trkpt lat="-3.1122040" lon="37.3544640">
    <ele>4032.5</ele>
    <time>2026-06-22T09:10:40Z</time>
   </trkpt>
   <trkpt lat="-3.1122040" lon="37.3544640">
    <ele>4032.5</ele>
    <time>2026-06-22T09:10:41Z</time>
   </trkpt>
   <trkpt lat="-3.1122040" lon="37.3544640">
    <ele>4032.5</ele>
    <time>2026-06-22T09:10:42Z</time>
   </trkpt>
   <trkpt lat="-3.1122040" lon="37.3544640">
    <ele>4032.5</ele>
    <time>2026-06-22T09:10:43Z</time>
   </trkpt>
   <trkpt lat="-3.1122020" lon="37.3544640">
    <ele>4032.6</ele>
    <time>2026-06-22T09:10:44Z</time>
   </trkpt>
   <trkpt lat="-3.1122020" lon="37.3544640">
    <ele>4032.6</ele>
    <time>2026-06-22T09:10:45Z</time>
   </trkpt>
   <trkpt lat="-3.1122020" lon="37.3544640">
    <ele>4032.6</ele>
    <time>2026-06-22T09:10:46Z</time>
   </trkpt>
   <trkpt lat="-3.1122020" lon="37.3544640">
    <ele>4032.6</ele>
    <time>2026-06-22T09:10:47Z</time>
   </trkpt>
   <trkpt lat="-3.1122020" lon="37.3544640">
    <ele>4032.6</ele>
    <time>2026-06-22T09:10:48Z</time>
   </trkpt>
   <trkpt lat="-3.1122020" lon="37.3544640">
    <ele>4032.6</ele>
    <time>2026-06-22T09:10:49Z</time>
   </trkpt>
   <trkpt lat="-3.1122020" lon="37.3544640">
    <ele>4032.6</ele>
    <time>2026-06-22T09:10:50Z</time>
   </trkpt>
   <trkpt lat="-3.1122020" lon="37.3544650">
    <ele>4032.6</ele>
    <time>2026-06-22T09:10:51Z</time>
   </trkpt>
   <trkpt lat="-3.1122020" lon="37.3544650">
    <ele>4032.6</ele>
    <time>2026-06-22T09:10:52Z</time>
   </trkpt>
   <trkpt lat="-3.1122020" lon="37.3544650">
    <ele>4032.6</ele>
    <time>2026-06-22T09:10:53Z</time>
   </trkpt>
   <trkpt lat="-3.1122020" lon="37.3544650">
    <ele>4032.6</ele>
    <time>2026-06-22T09:10:54Z</time>
   </trkpt>
   <trkpt lat="-3.1122020" lon="37.3544650">
    <ele>4032.6</ele>
    <time>2026-06-22T09:10:55Z</time>
   </trkpt>
   <trkpt lat="-3.1122030" lon="37.3544650">
    <ele>4032.6</ele>
    <time>2026-06-22T09:10:56Z</time>
   </trkpt>
   <trkpt lat="-3.1122030" lon="37.3544650">
    <ele>4032.6</ele>
    <time>2026-06-22T09:10:57Z</time>
   </trkpt>
   <trkpt lat="-3.1122030" lon="37.3544650">
    <ele>4032.6</ele>
    <time>2026-06-22T09:10:58Z</time>
   </trkpt>
   <trkpt lat="-3.1122030" lon="37.3544650">
    <ele>4032.6</ele>
    <time>2026-06-22T09:10:59Z</time>
   </trkpt>
   <trkpt lat="-3.1122030" lon="37.3544650">
    <ele>4032.6</ele>
    <time>2026-06-22T09:11:00Z</time>
   </trkpt>
   <trkpt lat="-3.1122030" lon="37.3544650">
    <ele>4032.6</ele>
    <time>2026-06-22T09:11:01Z</time>
   </trkpt>
   <trkpt lat="-3.1122030" lon="37.3544650">
    <ele>4032.6</ele>
    <time>2026-06-22T09:11:02Z</time>
   </trkpt>
   <trkpt lat="-3.1122030" lon="37.3544650">
    <ele>4032.6</ele>
    <time>2026-06-22T09:11:03Z</time>
   </trkpt>
   <trkpt lat="-3.1122030" lon="37.3544650">
    <ele>4032.6</ele>
    <time>2026-06-22T09:11:04Z</time>
   </trkpt>
   <trkpt lat="-3.1122030" lon="37.3544650">
    <ele>4032.6</ele>
    <time>2026-06-22T09:11:05Z</time>
   </trkpt>
   <trkpt lat="-3.1122030" lon="37.3544650">
    <ele>4032.6</ele>
    <time>2026-06-22T09:11:06Z</time>
   </trkpt>
   <trkpt lat="-3.1122030" lon="37.3544650">
    <ele>4032.6</ele>
    <time>2026-06-22T09:11:07Z</time>
   </trkpt>
   <trkpt lat="-3.1122030" lon="37.3544650">
    <ele>4032.6</ele>
    <time>2026-06-22T09:11:08Z</time>
   </trkpt>
   <trkpt lat="-3.1122030" lon="37.3544650">
    <ele>4032.6</ele>
    <time>2026-06-22T09:11:09Z</time>
   </trkpt>
   <trkpt lat="-3.1122030" lon="37.3544650">
    <ele>4032.6</ele>
    <time>2026-06-22T09:11:10Z</time>
   </trkpt>
   <trkpt lat="-3.1122030" lon="37.3544650">
    <ele>4032.6</ele>
    <time>2026-06-22T09:11:11Z</time>
   </trkpt>
   <trkpt lat="-3.1122040" lon="37.3544650">
    <ele>4032.6</ele>
    <time>2026-06-22T09:11:12Z</time>
   </trkpt>
   <trkpt lat="-3.1122040" lon="37.3544650">
    <ele>4032.6</ele>
    <time>2026-06-22T09:11:13Z</time>
   </trkpt>
   <trkpt lat="-3.1122040" lon="37.3544650">
    <ele>4032.6</ele>
    <time>2026-06-22T09:11:14Z</time>
   </trkpt>
   <trkpt lat="-3.1122020" lon="37.3544660">
    <ele>4032.6</ele>
    <time>2026-06-22T09:11:15Z</time>
   </trkpt>
   <trkpt lat="-3.1122050" lon="37.3544660">
    <ele>4032.6</ele>
    <time>2026-06-22T09:11:16Z</time>
   </trkpt>
   <trkpt lat="-3.1122040" lon="37.3544690">
    <ele>4032.6</ele>
    <time>2026-06-22T09:11:17Z</time>
   </trkpt>
   <trkpt lat="-3.1122070" lon="37.3544750">
    <ele>4032.7</ele>
    <time>2026-06-22T09:11:18Z</time>
   </trkpt>
   <trkpt lat="-3.1122080" lon="37.3544770">
    <ele>4032.7</ele>
    <time>2026-06-22T09:11:19Z</time>
   </trkpt>
   <trkpt lat="-3.1122060" lon="37.3544760">
    <ele>4032.7</ele>
    <time>2026-06-22T09:11:20Z</time>
   </trkpt>
   <trkpt lat="-3.1122090" lon="37.3544730">
    <ele>4032.8</ele>
    <time>2026-06-22T09:11:21Z</time>
   </trkpt>
   <trkpt lat="-3.1122100" lon="37.3544700">
    <ele>4032.8</ele>
    <time>2026-06-22T09:11:22Z</time>
   </trkpt>
   <trkpt lat="-3.1122070" lon="37.3544650">
    <ele>4032.8</ele>
    <time>2026-06-22T09:11:23Z</time>
   </trkpt>
   <trkpt lat="-3.1122060" lon="37.3544650">
    <ele>4032.8</ele>
    <time>2026-06-22T09:11:24Z</time>
   </trkpt>
   <trkpt lat="-3.1122040" lon="37.3544650">
    <ele>4032.8</ele>
    <time>2026-06-22T09:11:25Z</time>
   </trkpt>
   <trkpt lat="-3.1122050" lon="37.3544660">
    <ele>4032.9</ele>
    <time>2026-06-22T09:11:26Z</time>
   </trkpt>
   <trkpt lat="-3.1122060" lon="37.3544680">
    <ele>4032.9</ele>
    <time>2026-06-22T09:11:27Z</time>
   </trkpt>
   <trkpt lat="-3.1122080" lon="37.3544840">
    <ele>4033.0</ele>
    <time>2026-06-22T09:11:28Z</time>
   </trkpt>
   <trkpt lat="-3.1122060" lon="37.3544890">
    <ele>4033.0</ele>
    <time>2026-06-22T09:11:29Z</time>
   </trkpt>
   <trkpt lat="-3.1122030" lon="37.3544960">
    <ele>4033.1</ele>
    <time>2026-06-22T09:11:30Z</time>
   </trkpt>
   <trkpt lat="-3.1122040" lon="37.3544970">
    <ele>4033.1</ele>
    <time>2026-06-22T09:11:31Z</time>
   </trkpt>
   <trkpt lat="-3.1122050" lon="37.3545000">
    <ele>4033.1</ele>
    <time>2026-06-22T09:11:32Z</time>
   </trkpt>
   <trkpt lat="-3.1122010" lon="37.3545060">
    <ele>4033.2</ele>
    <time>2026-06-22T09:11:33Z</time>
   </trkpt>
   <trkpt lat="-3.1121970" lon="37.3545090">
    <ele>4033.2</ele>
    <time>2026-06-22T09:11:34Z</time>
   </trkpt>
   <trkpt lat="-3.1122000" lon="37.3545060">
    <ele>4033.3</ele>
    <time>2026-06-22T09:11:35Z</time>
   </trkpt>
   <trkpt lat="-3.1121950" lon="37.3545180">
    <ele>4033.4</ele>
    <time>2026-06-22T09:11:36Z</time>
   </trkpt>
   <trkpt lat="-3.1121890" lon="37.3545220">
    <ele>4033.4</ele>
    <time>2026-06-22T09:11:37Z</time>
   </trkpt>
   <trkpt lat="-3.1121820" lon="37.3545250">
    <ele>4033.5</ele>
    <time>2026-06-22T09:11:38Z</time>
   </trkpt>
   <trkpt lat="-3.1121750" lon="37.3545260">
    <ele>4033.5</ele>
    <time>2026-06-22T09:11:39Z</time>
   </trkpt>
   <trkpt lat="-3.1121660" lon="37.3545250">
    <ele>4033.6</ele>
    <time>2026-06-22T09:11:40Z</time>
   </trkpt>
   <trkpt lat="-3.1121560" lon="37.3545240">
    <ele>4033.7</ele>
    <time>2026-06-22T09:11:41Z</time>
   </trkpt>
   <trkpt lat="-3.1121470" lon="37.3545250">
    <ele>4033.8</ele>
    <time>2026-06-22T09:11:42Z</time>
   </trkpt>
   <trkpt lat="-3.1121400" lon="37.3545250">
    <ele>4033.8</ele>
    <time>2026-06-22T09:11:43Z</time>
   </trkpt>
   <trkpt lat="-3.1121300" lon="37.3545310">
    <ele>4033.9</ele>
    <time>2026-06-22T09:11:44Z</time>
   </trkpt>
   <trkpt lat="-3.1121250" lon="37.3545370">
    <ele>4034.0</ele>
    <time>2026-06-22T09:11:45Z</time>
   </trkpt>
   <trkpt lat="-3.1121120" lon="37.3545400">
    <ele>4034.1</ele>
    <time>2026-06-22T09:11:46Z</time>
   </trkpt>
   <trkpt lat="-3.1121050" lon="37.3545380">
    <ele>4034.1</ele>
    <time>2026-06-22T09:11:47Z</time>
   </trkpt>
   <trkpt lat="-3.1120980" lon="37.3545410">
    <ele>4034.2</ele>
    <time>2026-06-22T09:11:48Z</time>
   </trkpt>
   <trkpt lat="-3.1120870" lon="37.3545420">
    <ele>4034.3</ele>
    <time>2026-06-22T09:11:49Z</time>
   </trkpt>
   <trkpt lat="-3.1120810" lon="37.3545480">
    <ele>4034.3</ele>
    <time>2026-06-22T09:11:50Z</time>
   </trkpt>
   <trkpt lat="-3.1120770" lon="37.3545530">
    <ele>4034.4</ele>
    <time>2026-06-22T09:11:51Z</time>
   </trkpt>
   <trkpt lat="-3.1120770" lon="37.3545570">
    <ele>4034.4</ele>
    <time>2026-06-22T09:11:52Z</time>
   </trkpt>
   <trkpt lat="-3.1120750" lon="37.3545640">
    <ele>4034.5</ele>
    <time>2026-06-22T09:11:53Z</time>
   </trkpt>
   <trkpt lat="-3.1120750" lon="37.3545690">
    <ele>4034.5</ele>
    <time>2026-06-22T09:11:54Z</time>
   </trkpt>
   <trkpt lat="-3.1120720" lon="37.3545750">
    <ele>4034.6</ele>
    <time>2026-06-22T09:11:55Z</time>
   </trkpt>
   <trkpt lat="-3.1120730" lon="37.3545780">
    <ele>4034.6</ele>
    <time>2026-06-22T09:11:56Z</time>
   </trkpt>
   <trkpt lat="-3.1120760" lon="37.3545800">
    <ele>4034.6</ele>
    <time>2026-06-22T09:11:57Z</time>
   </trkpt>
   <trkpt lat="-3.1120780" lon="37.3545800">
    <ele>4034.6</ele>
    <time>2026-06-22T09:11:58Z</time>
   </trkpt>
   <trkpt lat="-3.1120770" lon="37.3545820">
    <ele>4034.6</ele>
    <time>2026-06-22T09:11:59Z</time>
   </trkpt>
   <trkpt lat="-3.1120770" lon="37.3545810">
    <ele>4034.7</ele>
    <time>2026-06-22T09:12:00Z</time>
   </trkpt>
   <trkpt lat="-3.1120790" lon="37.3545810">
    <ele>4034.7</ele>
    <time>2026-06-22T09:12:01Z</time>
   </trkpt>
   <trkpt lat="-3.1120780" lon="37.3545840">
    <ele>4034.7</ele>
    <time>2026-06-22T09:12:02Z</time>
   </trkpt>
   <trkpt lat="-3.1120780" lon="37.3545810">
    <ele>4034.7</ele>
    <time>2026-06-22T09:12:03Z</time>
   </trkpt>
   <trkpt lat="-3.1120790" lon="37.3545830">
    <ele>4034.7</ele>
    <time>2026-06-22T09:12:04Z</time>
   </trkpt>
   <trkpt lat="-3.1120800" lon="37.3545820">
    <ele>4034.7</ele>
    <time>2026-06-22T09:12:05Z</time>
   </trkpt>
   <trkpt lat="-3.1120800" lon="37.3545820">
    <ele>4034.7</ele>
    <time>2026-06-22T09:12:06Z</time>
   </trkpt>
   <trkpt lat="-3.1120810" lon="37.3545820">
    <ele>4034.8</ele>
    <time>2026-06-22T09:12:07Z</time>
   </trkpt>
   <trkpt lat="-3.1120810" lon="37.3545820">
    <ele>4034.8</ele>
    <time>2026-06-22T09:12:08Z</time>
   </trkpt>
   <trkpt lat="-3.1120810" lon="37.3545830">
    <ele>4034.8</ele>
    <time>2026-06-22T09:12:09Z</time>
   </trkpt>
   <trkpt lat="-3.1120810" lon="37.3545830">
    <ele>4034.8</ele>
    <time>2026-06-22T09:12:10Z</time>
   </trkpt>
   <trkpt lat="-3.1120810" lon="37.3545830">
    <ele>4034.8</ele>
    <time>2026-06-22T09:12:11Z</time>
   </trkpt>
   <trkpt lat="-3.1120790" lon="37.3545860">
    <ele>4034.8</ele>
    <time>2026-06-22T09:12:12Z</time>
   </trkpt>
   <trkpt lat="-3.1120790" lon="37.3545850">
    <ele>4034.8</ele>
    <time>2026-06-22T09:12:13Z</time>
   </trkpt>
   <trkpt lat="-3.1120790" lon="37.3545850">
    <ele>4034.8</ele>
    <time>2026-06-22T09:12:14Z</time>
   </trkpt>
   <trkpt lat="-3.1120790" lon="37.3545840">
    <ele>4034.8</ele>
    <time>2026-06-22T09:12:15Z</time>
   </trkpt>
   <trkpt lat="-3.1120790" lon="37.3545840">
    <ele>4034.8</ele>
    <time>2026-06-22T09:12:16Z</time>
   </trkpt>
   <trkpt lat="-3.1120780" lon="37.3545860">
    <ele>4034.8</ele>
    <time>2026-06-22T09:12:17Z</time>
   </trkpt>
   <trkpt lat="-3.1120780" lon="37.3545860">
    <ele>4034.8</ele>
    <time>2026-06-22T09:12:18Z</time>
   </trkpt>
   <trkpt lat="-3.1120820" lon="37.3545910">
    <ele>4034.9</ele>
    <time>2026-06-22T09:12:19Z</time>
   </trkpt>
   <trkpt lat="-3.1120830" lon="37.3545890">
    <ele>4034.9</ele>
    <time>2026-06-22T09:12:20Z</time>
   </trkpt>
   <trkpt lat="-3.1120800" lon="37.3545870">
    <ele>4034.9</ele>
    <time>2026-06-22T09:12:21Z</time>
   </trkpt>
   <trkpt lat="-3.1120800" lon="37.3545870">
    <ele>4034.9</ele>
    <time>2026-06-22T09:12:22Z</time>
   </trkpt>
   <trkpt lat="-3.1120800" lon="37.3545870">
    <ele>4034.9</ele>
    <time>2026-06-22T09:12:23Z</time>
   </trkpt>
   <trkpt lat="-3.1120790" lon="37.3545870">
    <ele>4034.9</ele>
    <time>2026-06-22T09:12:24Z</time>
   </trkpt>
   <trkpt lat="-3.1120790" lon="37.3545870">
    <ele>4034.9</ele>
    <time>2026-06-22T09:12:25Z</time>
   </trkpt>
   <trkpt lat="-3.1120790" lon="37.3545870">
    <ele>4034.9</ele>
    <time>2026-06-22T09:12:26Z</time>
   </trkpt>
   <trkpt lat="-3.1120790" lon="37.3545870">
    <ele>4034.9</ele>
    <time>2026-06-22T09:12:27Z</time>
   </trkpt>
   <trkpt lat="-3.1120800" lon="37.3545870">
    <ele>4034.9</ele>
    <time>2026-06-22T09:12:28Z</time>
   </trkpt>
   <trkpt lat="-3.1120800" lon="37.3545870">
    <ele>4034.9</ele>
    <time>2026-06-22T09:12:29Z</time>
   </trkpt>
   <trkpt lat="-3.1120800" lon="37.3545870">
    <ele>4034.9</ele>
    <time>2026-06-22T09:12:30Z</time>
   </trkpt>
   <trkpt lat="-3.1120800" lon="37.3545870">
    <ele>4034.9</ele>
    <time>2026-06-22T09:12:32Z</time>
   </trkpt>
   <trkpt lat="-3.1120800" lon="37.3545870">
    <ele>4034.9</ele>
    <time>2026-06-22T09:12:33Z</time>
   </trkpt>
   <trkpt lat="-3.1120800" lon="37.3545870">
    <ele>4034.9</ele>
    <time>2026-06-22T09:12:34Z</time>
   </trkpt>
   <trkpt lat="-3.1120800" lon="37.3545870">
    <ele>4034.9</ele>
    <time>2026-06-22T09:12:35Z</time>
   </trkpt>
   <trkpt lat="-3.1120800" lon="37.3545870">
    <ele>4034.9</ele>
    <time>2026-06-22T09:12:36Z</time>
   </trkpt>
   <trkpt lat="-3.1120800" lon="37.3545870">
    <ele>4034.9</ele>
    <time>2026-06-22T09:12:37Z</time>
   </trkpt>
   <trkpt lat="-3.1120800" lon="37.3545870">
    <ele>4034.9</ele>
    <time>2026-06-22T09:12:38Z</time>
   </trkpt>
   <trkpt lat="-3.1120800" lon="37.3545870">
    <ele>4034.9</ele>
    <time>2026-06-22T09:12:39Z</time>
   </trkpt>
   <trkpt lat="-3.1120800" lon="37.3545880">
    <ele>4034.9</ele>
    <time>2026-06-22T09:12:40Z</time>
   </trkpt>
   <trkpt lat="-3.1120800" lon="37.3545890">
    <ele>4035.0</ele>
    <time>2026-06-22T09:12:41Z</time>
   </trkpt>
   <trkpt lat="-3.1120800" lon="37.3545880">
    <ele>4035.0</ele>
    <time>2026-06-22T09:12:42Z</time>
   </trkpt>
   <trkpt lat="-3.1120800" lon="37.3545880">
    <ele>4035.0</ele>
    <time>2026-06-22T09:12:43Z</time>
   </trkpt>
   <trkpt lat="-3.1120800" lon="37.3545880">
    <ele>4035.0</ele>
    <time>2026-06-22T09:12:44Z</time>
   </trkpt>
   <trkpt lat="-3.1120800" lon="37.3545880">
    <ele>4035.0</ele>
    <time>2026-06-22T09:12:45Z</time>
   </trkpt>
   <trkpt lat="-3.1120800" lon="37.3545880">
    <ele>4035.0</ele>
    <time>2026-06-22T09:12:46Z</time>
   </trkpt>
   <trkpt lat="-3.1120800" lon="37.3545880">
    <ele>4035.0</ele>
    <time>2026-06-22T09:12:47Z</time>
   </trkpt>
   <trkpt lat="-3.1120800" lon="37.3545890">
    <ele>4035.0</ele>
    <time>2026-06-22T09:12:48Z</time>
   </trkpt>
   <trkpt lat="-3.1120790" lon="37.3545880">
    <ele>4035.0</ele>
    <time>2026-06-22T09:12:49Z</time>
   </trkpt>
   <trkpt lat="-3.1120800" lon="37.3545890">
    <ele>4035.0</ele>
    <time>2026-06-22T09:12:50Z</time>
   </trkpt>
   <trkpt lat="-3.1120800" lon="37.3545880">
    <ele>4035.0</ele>
    <time>2026-06-22T09:12:51Z</time>
   </trkpt>
   <trkpt lat="-3.1120800" lon="37.3545890">
    <ele>4035.0</ele>
    <time>2026-06-22T09:12:52Z</time>
   </trkpt>
   <trkpt lat="-3.1120810" lon="37.3545890">
    <ele>4035.0</ele>
    <time>2026-06-22T09:12:53Z</time>
   </trkpt>
   <trkpt lat="-3.1120800" lon="37.3545890">
    <ele>4035.0</ele>
    <time>2026-06-22T09:12:54Z</time>
   </trkpt>
   <trkpt lat="-3.1120800" lon="37.3545880">
    <ele>4035.0</ele>
    <time>2026-06-22T09:12:55Z</time>
   </trkpt>
   <trkpt lat="-3.1120810" lon="37.3545880">
    <ele>4035.0</ele>
    <time>2026-06-22T09:12:56Z</time>
   </trkpt>
   <trkpt lat="-3.1120820" lon="37.3545890">
    <ele>4035.0</ele>
    <time>2026-06-22T09:12:57Z</time>
   </trkpt>
   <trkpt lat="-3.1120830" lon="37.3545880">
    <ele>4035.1</ele>
    <time>2026-06-22T09:12:58Z</time>
   </trkpt>
   <trkpt lat="-3.1120830" lon="37.3545880">
    <ele>4035.1</ele>
    <time>2026-06-22T09:12:59Z</time>
   </trkpt>
   <trkpt lat="-3.1120830" lon="37.3545890">
    <ele>4035.1</ele>
    <time>2026-06-22T09:13:00Z</time>
   </trkpt>
   <trkpt lat="-3.1120830" lon="37.3545890">
    <ele>4035.1</ele>
    <time>2026-06-22T09:13:01Z</time>
   </trkpt>
   <trkpt lat="-3.1120830" lon="37.3545890">
    <ele>4035.1</ele>
    <time>2026-06-22T09:13:02Z</time>
   </trkpt>
   <trkpt lat="-3.1120830" lon="37.3545890">
    <ele>4035.1</ele>
    <time>2026-06-22T09:13:03Z</time>
   </trkpt>
   <trkpt lat="-3.1120820" lon="37.3545890">
    <ele>4035.1</ele>
    <time>2026-06-22T09:13:04Z</time>
   </trkpt>
   <trkpt lat="-3.1120820" lon="37.3545890">
    <ele>4035.1</ele>
    <time>2026-06-22T09:13:05Z</time>
   </trkpt>
   <trkpt lat="-3.1120830" lon="37.3545890">
    <ele>4035.1</ele>
    <time>2026-06-22T09:13:06Z</time>
   </trkpt>
   <trkpt lat="-3.1120830" lon="37.3545890">
    <ele>4035.1</ele>
    <time>2026-06-22T09:13:07Z</time>
   </trkpt>
   <trkpt lat="-3.1120810" lon="37.3545880">
    <ele>4035.1</ele>
    <time>2026-06-22T09:13:08Z</time>
   </trkpt>
   <trkpt lat="-3.1120810" lon="37.3545870">
    <ele>4035.1</ele>
    <time>2026-06-22T09:13:09Z</time>
   </trkpt>
   <trkpt lat="-3.1120810" lon="37.3545870">
    <ele>4035.1</ele>
    <time>2026-06-22T09:13:10Z</time>
   </trkpt>
   <trkpt lat="-3.1120810" lon="37.3545880">
    <ele>4035.1</ele>
    <time>2026-06-22T09:13:11Z</time>
   </trkpt>
   <trkpt lat="-3.1120810" lon="37.3545880">
    <ele>4035.1</ele>
    <time>2026-06-22T09:13:12Z</time>
   </trkpt>
   <trkpt lat="-3.1120820" lon="37.3545880">
    <ele>4035.1</ele>
    <time>2026-06-22T09:13:13Z</time>
   </trkpt>
   <trkpt lat="-3.1120820" lon="37.3545880">
    <ele>4035.1</ele>
    <time>2026-06-22T09:13:14Z</time>
   </trkpt>
   <trkpt lat="-3.1120820" lon="37.3545880">
    <ele>4035.1</ele>
    <time>2026-06-22T09:13:15Z</time>
   </trkpt>
   <trkpt lat="-3.1120840" lon="37.3545900">
    <ele>4035.1</ele>
    <time>2026-06-22T09:13:16Z</time>
   </trkpt>
   <trkpt lat="-3.1120840" lon="37.3545900">
    <ele>4035.1</ele>
    <time>2026-06-22T09:13:17Z</time>
   </trkpt>
   <trkpt lat="-3.1120840" lon="37.3545890">
    <ele>4035.2</ele>
    <time>2026-06-22T09:13:18Z</time>
   </trkpt>
   <trkpt lat="-3.1120850" lon="37.3545910">
    <ele>4035.2</ele>
    <time>2026-06-22T09:13:19Z</time>
   </trkpt>
   <trkpt lat="-3.1120840" lon="37.3545910">
    <ele>4035.2</ele>
    <time>2026-06-22T09:13:20Z</time>
   </trkpt>
   <trkpt lat="-3.1120840" lon="37.3545920">
    <ele>4035.2</ele>
    <time>2026-06-22T09:13:21Z</time>
   </trkpt>
   <trkpt lat="-3.1120850" lon="37.3545910">
    <ele>4035.2</ele>
    <time>2026-06-22T09:13:22Z</time>
   </trkpt>
   <trkpt lat="-3.1120850" lon="37.3545910">
    <ele>4035.2</ele>
    <time>2026-06-22T09:13:23Z</time>
   </trkpt>
   <trkpt lat="-3.1120840" lon="37.3545900">
    <ele>4035.2</ele>
    <time>2026-06-22T09:13:24Z</time>
   </trkpt>
   <trkpt lat="-3.1120850" lon="37.3545900">
    <ele>4035.2</ele>
    <time>2026-06-22T09:13:25Z</time>
   </trkpt>
   <trkpt lat="-3.1120850" lon="37.3545900">
    <ele>4035.2</ele>
    <time>2026-06-22T09:13:26Z</time>
   </trkpt>
   <trkpt lat="-3.1120840" lon="37.3545890">
    <ele>4035.2</ele>
    <time>2026-06-22T09:13:27Z</time>
   </trkpt>
   <trkpt lat="-3.1120840" lon="37.3545900">
    <ele>4035.2</ele>
    <time>2026-06-22T09:13:28Z</time>
   </trkpt>
   <trkpt lat="-3.1120840" lon="37.3545900">
    <ele>4035.2</ele>
    <time>2026-06-22T09:13:29Z</time>
   </trkpt>
   <trkpt lat="-3.1120840" lon="37.3545890">
    <ele>4035.2</ele>
    <time>2026-06-22T09:13:30Z</time>
   </trkpt>
   <trkpt lat="-3.1120850" lon="37.3545890">
    <ele>4035.3</ele>
    <time>2026-06-22T09:13:31Z</time>
   </trkpt>
   <trkpt lat="-3.1120850" lon="37.3545890">
    <ele>4035.3</ele>
    <time>2026-06-22T09:13:32Z</time>
   </trkpt>
   <trkpt lat="-3.1120850" lon="37.3545890">
    <ele>4035.3</ele>
    <time>2026-06-22T09:13:33Z</time>
   </trkpt>
   <trkpt lat="-3.1120850" lon="37.3545890">
    <ele>4035.3</ele>
    <time>2026-06-22T09:13:34Z</time>
   </trkpt>
   <trkpt lat="-3.1120850" lon="37.3545890">
    <ele>4035.3</ele>
    <time>2026-06-22T09:13:35Z</time>
   </trkpt>
   <trkpt lat="-3.1120850" lon="37.3545890">
    <ele>4035.3</ele>
    <time>2026-06-22T09:13:36Z</time>
   </trkpt>
   <trkpt lat="-3.1120850" lon="37.3545890">
    <ele>4035.3</ele>
    <time>2026-06-22T09:13:37Z</time>
   </trkpt>
   <trkpt lat="-3.1120850" lon="37.3545890">
    <ele>4035.3</ele>
    <time>2026-06-22T09:13:38Z</time>
   </trkpt>
   <trkpt lat="-3.1120880" lon="37.3545910">
    <ele>4035.3</ele>
    <time>2026-06-22T09:13:39Z</time>
   </trkpt>
   <trkpt lat="-3.1120880" lon="37.3545920">
    <ele>4035.3</ele>
    <time>2026-06-22T09:13:40Z</time>
   </trkpt>
   <trkpt lat="-3.1120880" lon="37.3545920">
    <ele>4035.3</ele>
    <time>2026-06-22T09:13:41Z</time>
   </trkpt>
   <trkpt lat="-3.1120880" lon="37.3545920">
    <ele>4035.3</ele>
    <time>2026-06-22T09:13:42Z</time>
   </trkpt>
   <trkpt lat="-3.1120880" lon="37.3545920">
    <ele>4035.3</ele>
    <time>2026-06-22T09:13:43Z</time>
   </trkpt>
   <trkpt lat="-3.1120880" lon="37.3545920">
    <ele>4035.3</ele>
    <time>2026-06-22T09:13:44Z</time>
   </trkpt>
   <trkpt lat="-3.1120910" lon="37.3545920">
    <ele>4035.3</ele>
    <time>2026-06-22T09:13:45Z</time>
   </trkpt>
   <trkpt lat="-3.1120910" lon="37.3545910">
    <ele>4035.3</ele>
    <time>2026-06-22T09:13:46Z</time>
   </trkpt>
   <trkpt lat="-3.1120910" lon="37.3545910">
    <ele>4035.3</ele>
    <time>2026-06-22T09:13:47Z</time>
   </trkpt>
   <trkpt lat="-3.1120900" lon="37.3545910">
    <ele>4035.3</ele>
    <time>2026-06-22T09:13:48Z</time>
   </trkpt>
   <trkpt lat="-3.1120900" lon="37.3545910">
    <ele>4035.3</ele>
    <time>2026-06-22T09:13:49Z</time>
   </trkpt>
   <trkpt lat="-3.1120890" lon="37.3545890">
    <ele>4035.3</ele>
    <time>2026-06-22T09:13:50Z</time>
   </trkpt>
   <trkpt lat="-3.1120890" lon="37.3545890">
    <ele>4035.3</ele>
    <time>2026-06-22T09:13:51Z</time>
   </trkpt>
   <trkpt lat="-3.1120880" lon="37.3545870">
    <ele>4035.4</ele>
    <time>2026-06-22T09:13:52Z</time>
   </trkpt>
   <trkpt lat="-3.1120880" lon="37.3545870">
    <ele>4035.4</ele>
    <time>2026-06-22T09:13:53Z</time>
   </trkpt>
   <trkpt lat="-3.1120880" lon="37.3545870">
    <ele>4035.4</ele>
    <time>2026-06-22T09:13:54Z</time>
   </trkpt>
   <trkpt lat="-3.1120880" lon="37.3545870">
    <ele>4035.4</ele>
    <time>2026-06-22T09:13:55Z</time>
   </trkpt>
   <trkpt lat="-3.1120880" lon="37.3545870">
    <ele>4035.4</ele>
    <time>2026-06-22T09:13:56Z</time>
   </trkpt>
   <trkpt lat="-3.1120880" lon="37.3545870">
    <ele>4035.4</ele>
    <time>2026-06-22T09:13:57Z</time>
   </trkpt>
   <trkpt lat="-3.1120880" lon="37.3545870">
    <ele>4035.4</ele>
    <time>2026-06-22T09:13:58Z</time>
   </trkpt>
   <trkpt lat="-3.1120880" lon="37.3545870">
    <ele>4035.4</ele>
    <time>2026-06-22T09:13:59Z</time>
   </trkpt>
   <trkpt lat="-3.1120870" lon="37.3545870">
    <ele>4035.4</ele>
    <time>2026-06-22T09:14:00Z</time>
   </trkpt>
   <trkpt lat="-3.1120870" lon="37.3545870">
    <ele>4035.4</ele>
    <time>2026-06-22T09:14:01Z</time>
   </trkpt>
   <trkpt lat="-3.1120870" lon="37.3545870">
    <ele>4035.4</ele>
    <time>2026-06-22T09:14:02Z</time>
   </trkpt>
   <trkpt lat="-3.1120860" lon="37.3545880">
    <ele>4035.4</ele>
    <time>2026-06-22T09:14:03Z</time>
   </trkpt>
   <trkpt lat="-3.1120870" lon="37.3545880">
    <ele>4035.4</ele>
    <time>2026-06-22T09:14:04Z</time>
   </trkpt>
   <trkpt lat="-3.1120870" lon="37.3545880">
    <ele>4035.4</ele>
    <time>2026-06-22T09:14:05Z</time>
   </trkpt>
   <trkpt lat="-3.1120870" lon="37.3545880">
    <ele>4035.4</ele>
    <time>2026-06-22T09:14:06Z</time>
   </trkpt>
   <trkpt lat="-3.1120870" lon="37.3545880">
    <ele>4035.4</ele>
    <time>2026-06-22T09:14:07Z</time>
   </trkpt>
   <trkpt lat="-3.1120870" lon="37.3545880">
    <ele>4035.4</ele>
    <time>2026-06-22T09:14:08Z</time>
   </trkpt>
   <trkpt lat="-3.1120880" lon="37.3545870">
    <ele>4035.4</ele>
    <time>2026-06-22T09:14:09Z</time>
   </trkpt>
   <trkpt lat="-3.1120880" lon="37.3545870">
    <ele>4035.4</ele>
    <time>2026-06-22T09:14:10Z</time>
   </trkpt>
   <trkpt lat="-3.1120880" lon="37.3545870">
    <ele>4035.4</ele>
    <time>2026-06-22T09:14:11Z</time>
   </trkpt>
   <trkpt lat="-3.1120880" lon="37.3545870">
    <ele>4035.4</ele>
    <time>2026-06-22T09:14:12Z</time>
   </trkpt>
   <trkpt lat="-3.1120880" lon="37.3545870">
    <ele>4035.4</ele>
    <time>2026-06-22T09:14:13Z</time>
   </trkpt>
   <trkpt lat="-3.1120880" lon="37.3545870">
    <ele>4035.4</ele>
    <time>2026-06-22T09:14:14Z</time>
   </trkpt>
   <trkpt lat="-3.1120880" lon="37.3545870">
    <ele>4035.4</ele>
    <time>2026-06-22T09:14:15Z</time>
   </trkpt>
   <trkpt lat="-3.1120880" lon="37.3545870">
    <ele>4035.4</ele>
    <time>2026-06-22T09:14:16Z</time>
   </trkpt>
   <trkpt lat="-3.1120880" lon="37.3545870">
    <ele>4035.4</ele>
    <time>2026-06-22T09:14:17Z</time>
   </trkpt>
   <trkpt lat="-3.1120880" lon="37.3545870">
    <ele>4035.4</ele>
    <time>2026-06-22T09:14:18Z</time>
   </trkpt>
   <trkpt lat="-3.1120880" lon="37.3545870">
    <ele>4035.4</ele>
    <time>2026-06-22T09:14:19Z</time>
   </trkpt>
   <trkpt lat="-3.1120880" lon="37.3545870">
    <ele>4035.4</ele>
    <time>2026-06-22T09:14:20Z</time>
   </trkpt>
   <trkpt lat="-3.1120880" lon="37.3545870">
    <ele>4035.4</ele>
    <time>2026-06-22T09:14:21Z</time>
   </trkpt>
   <trkpt lat="-3.1120880" lon="37.3545870">
    <ele>4035.4</ele>
    <time>2026-06-22T09:14:22Z</time>
   </trkpt>
   <trkpt lat="-3.1120880" lon="37.3545870">
    <ele>4035.4</ele>
    <time>2026-06-22T09:14:23Z</time>
   </trkpt>
   <trkpt lat="-3.1120880" lon="37.3545870">
    <ele>4035.4</ele>
    <time>2026-06-22T09:14:24Z</time>
   </trkpt>
   <trkpt lat="-3.1120850" lon="37.3545870">
    <ele>4035.4</ele>
    <time>2026-06-22T09:14:25Z</time>
   </trkpt>
   <trkpt lat="-3.1120850" lon="37.3545870">
    <ele>4035.4</ele>
    <time>2026-06-22T09:14:26Z</time>
   </trkpt>
   <trkpt lat="-3.1120850" lon="37.3545870">
    <ele>4035.4</ele>
    <time>2026-06-22T09:14:27Z</time>
   </trkpt>
   <trkpt lat="-3.1120840" lon="37.3545890">
    <ele>4035.4</ele>
    <time>2026-06-22T09:14:28Z</time>
   </trkpt>
   <trkpt lat="-3.1120830" lon="37.3545890">
    <ele>4035.5</ele>
    <time>2026-06-22T09:14:29Z</time>
   </trkpt>
   <trkpt lat="-3.1120830" lon="37.3545890">
    <ele>4035.5</ele>
    <time>2026-06-22T09:14:30Z</time>
   </trkpt>
   <trkpt lat="-3.1120830" lon="37.3545890">
    <ele>4035.5</ele>
    <time>2026-06-22T09:14:31Z</time>
   </trkpt>
   <trkpt lat="-3.1120830" lon="37.3545890">
    <ele>4035.5</ele>
    <time>2026-06-22T09:14:32Z</time>
   </trkpt>
   <trkpt lat="-3.1120830" lon="37.3545880">
    <ele>4035.5</ele>
    <time>2026-06-22T09:14:33Z</time>
   </trkpt>
   <trkpt lat="-3.1120840" lon="37.3545850">
    <ele>4035.5</ele>
    <time>2026-06-22T09:14:34Z</time>
   </trkpt>
   <trkpt lat="-3.1120830" lon="37.3545860">
    <ele>4035.5</ele>
    <time>2026-06-22T09:14:35Z</time>
   </trkpt>
   <trkpt lat="-3.1120830" lon="37.3545860">
    <ele>4035.5</ele>
    <time>2026-06-22T09:14:36Z</time>
   </trkpt>
   <trkpt lat="-3.1120830" lon="37.3545860">
    <ele>4035.5</ele>
    <time>2026-06-22T09:14:37Z</time>
   </trkpt>
   <trkpt lat="-3.1120840" lon="37.3545860">
    <ele>4035.5</ele>
    <time>2026-06-22T09:14:38Z</time>
   </trkpt>
   <trkpt lat="-3.1120840" lon="37.3545860">
    <ele>4035.5</ele>
    <time>2026-06-22T09:14:39Z</time>
   </trkpt>
   <trkpt lat="-3.1120840" lon="37.3545850">
    <ele>4035.5</ele>
    <time>2026-06-22T09:14:40Z</time>
   </trkpt>
   <trkpt lat="-3.1120840" lon="37.3545850">
    <ele>4035.5</ele>
    <time>2026-06-22T09:14:41Z</time>
   </trkpt>
   <trkpt lat="-3.1120840" lon="37.3545850">
    <ele>4035.5</ele>
    <time>2026-06-22T09:14:42Z</time>
   </trkpt>
   <trkpt lat="-3.1120840" lon="37.3545850">
    <ele>4035.5</ele>
    <time>2026-06-22T09:14:43Z</time>
   </trkpt>
   <trkpt lat="-3.1120840" lon="37.3545850">
    <ele>4035.5</ele>
    <time>2026-06-22T09:14:44Z</time>
   </trkpt>
   <trkpt lat="-3.1120850" lon="37.3545850">
    <ele>4035.5</ele>
    <time>2026-06-22T09:14:45Z</time>
   </trkpt>
   <trkpt lat="-3.1120850" lon="37.3545850">
    <ele>4035.5</ele>
    <time>2026-06-22T09:14:46Z</time>
   </trkpt>
   <trkpt lat="-3.1120850" lon="37.3545850">
    <ele>4035.5</ele>
    <time>2026-06-22T09:14:47Z</time>
   </trkpt>
   <trkpt lat="-3.1120850" lon="37.3545850">
    <ele>4035.5</ele>
    <time>2026-06-22T09:14:48Z</time>
   </trkpt>
   <trkpt lat="-3.1120860" lon="37.3545860">
    <ele>4035.5</ele>
    <time>2026-06-22T09:14:49Z</time>
   </trkpt>
   <trkpt lat="-3.1120860" lon="37.3545860">
    <ele>4035.5</ele>
    <time>2026-06-22T09:14:50Z</time>
   </trkpt>
   <trkpt lat="-3.1120860" lon="37.3545860">
    <ele>4035.5</ele>
    <time>2026-06-22T09:14:51Z</time>
   </trkpt>
   <trkpt lat="-3.1120860" lon="37.3545860">
    <ele>4035.5</ele>
    <time>2026-06-22T09:14:52Z</time>
   </trkpt>
   <trkpt lat="-3.1120860" lon="37.3545860">
    <ele>4035.5</ele>
    <time>2026-06-22T09:14:53Z</time>
   </trkpt>
   <trkpt lat="-3.1120860" lon="37.3545860">
    <ele>4035.5</ele>
    <time>2026-06-22T09:14:54Z</time>
   </trkpt>
   <trkpt lat="-3.1120860" lon="37.3545860">
    <ele>4035.5</ele>
    <time>2026-06-22T09:14:55Z</time>
   </trkpt>
   <trkpt lat="-3.1120860" lon="37.3545860">
    <ele>4035.5</ele>
    <time>2026-06-22T09:14:56Z</time>
   </trkpt>
   <trkpt lat="-3.1120860" lon="37.3545870">
    <ele>4035.5</ele>
    <time>2026-06-22T09:14:57Z</time>
   </trkpt>
   <trkpt lat="-3.1120860" lon="37.3545870">
    <ele>4035.5</ele>
    <time>2026-06-22T09:14:58Z</time>
   </trkpt>
   <trkpt lat="-3.1120860" lon="37.3545870">
    <ele>4035.5</ele>
    <time>2026-06-22T09:14:59Z</time>
   </trkpt>
   <trkpt lat="-3.1120860" lon="37.3545860">
    <ele>4035.5</ele>
    <time>2026-06-22T09:15:00Z</time>
   </trkpt>
   <trkpt lat="-3.1120860" lon="37.3545870">
    <ele>4035.6</ele>
    <time>2026-06-22T09:15:01Z</time>
   </trkpt>
   <trkpt lat="-3.1120860" lon="37.3545870">
    <ele>4035.6</ele>
    <time>2026-06-22T09:15:02Z</time>
   </trkpt>
   <trkpt lat="-3.1120860" lon="37.3545870">
    <ele>4035.6</ele>
    <time>2026-06-22T09:15:03Z</time>
   </trkpt>
   <trkpt lat="-3.1120860" lon="37.3545870">
    <ele>4035.6</ele>
    <time>2026-06-22T09:15:04Z</time>
   </trkpt>
   <trkpt lat="-3.1120860" lon="37.3545870">
    <ele>4035.6</ele>
    <time>2026-06-22T09:15:05Z</time>
   </trkpt>
   <trkpt lat="-3.1120860" lon="37.3545870">
    <ele>4035.6</ele>
    <time>2026-06-22T09:15:06Z</time>
   </trkpt>
   <trkpt lat="-3.1120860" lon="37.3545870">
    <ele>4035.6</ele>
    <time>2026-06-22T09:15:07Z</time>
   </trkpt>
   <trkpt lat="-3.1120860" lon="37.3545870">
    <ele>4035.6</ele>
    <time>2026-06-22T09:15:08Z</time>
   </trkpt>
   <trkpt lat="-3.1120860" lon="37.3545870">
    <ele>4035.6</ele>
    <time>2026-06-22T09:15:09Z</time>
   </trkpt>
   <trkpt lat="-3.1120860" lon="37.3545870">
    <ele>4035.6</ele>
    <time>2026-06-22T09:15:10Z</time>
   </trkpt>
   <trkpt lat="-3.1120860" lon="37.3545870">
    <ele>4035.6</ele>
    <time>2026-06-22T09:15:11Z</time>
   </trkpt>
   <trkpt lat="-3.1120840" lon="37.3545900">
    <ele>4035.6</ele>
    <time>2026-06-22T09:15:12Z</time>
   </trkpt>
   <trkpt lat="-3.1120850" lon="37.3545910">
    <ele>4035.6</ele>
    <time>2026-06-22T09:15:13Z</time>
   </trkpt>
   <trkpt lat="-3.1120850" lon="37.3545900">
    <ele>4035.6</ele>
    <time>2026-06-22T09:15:14Z</time>
   </trkpt>
   <trkpt lat="-3.1120860" lon="37.3545910">
    <ele>4035.6</ele>
    <time>2026-06-22T09:15:15Z</time>
   </trkpt>
   <trkpt lat="-3.1120850" lon="37.3545910">
    <ele>4035.6</ele>
    <time>2026-06-22T09:15:16Z</time>
   </trkpt>
   <trkpt lat="-3.1120850" lon="37.3545910">
    <ele>4035.6</ele>
    <time>2026-06-22T09:15:17Z</time>
   </trkpt>
   <trkpt lat="-3.1120850" lon="37.3545900">
    <ele>4035.6</ele>
    <time>2026-06-22T09:15:18Z</time>
   </trkpt>
   <trkpt lat="-3.1120850" lon="37.3545900">
    <ele>4035.6</ele>
    <time>2026-06-22T09:15:19Z</time>
   </trkpt>
   <trkpt lat="-3.1120850" lon="37.3545900">
    <ele>4035.6</ele>
    <time>2026-06-22T09:15:20Z</time>
   </trkpt>
   <trkpt lat="-3.1120850" lon="37.3545900">
    <ele>4035.6</ele>
    <time>2026-06-22T09:15:21Z</time>
   </trkpt>
   <trkpt lat="-3.1120850" lon="37.3545900">
    <ele>4035.6</ele>
    <time>2026-06-22T09:15:22Z</time>
   </trkpt>
   <trkpt lat="-3.1120850" lon="37.3545890">
    <ele>4035.6</ele>
    <time>2026-06-22T09:15:23Z</time>
   </trkpt>
   <trkpt lat="-3.1120850" lon="37.3545890">
    <ele>4035.6</ele>
    <time>2026-06-22T09:15:24Z</time>
   </trkpt>
   <trkpt lat="-3.1120850" lon="37.3545890">
    <ele>4035.6</ele>
    <time>2026-06-22T09:15:25Z</time>
   </trkpt>
   <trkpt lat="-3.1120850" lon="37.3545890">
    <ele>4035.6</ele>
    <time>2026-06-22T09:15:26Z</time>
   </trkpt>
   <trkpt lat="-3.1120850" lon="37.3545890">
    <ele>4035.6</ele>
    <time>2026-06-22T09:15:27Z</time>
   </trkpt>
   <trkpt lat="-3.1120850" lon="37.3545890">
    <ele>4035.6</ele>
    <time>2026-06-22T09:15:28Z</time>
   </trkpt>
   <trkpt lat="-3.1120850" lon="37.3545890">
    <ele>4035.6</ele>
    <time>2026-06-22T09:15:29Z</time>
   </trkpt>
   <trkpt lat="-3.1120850" lon="37.3545890">
    <ele>4035.6</ele>
    <time>2026-06-22T09:15:30Z</time>
   </trkpt>
   <trkpt lat="-3.1120850" lon="37.3545890">
    <ele>4035.6</ele>
    <time>2026-06-22T09:15:31Z</time>
   </trkpt>
   <trkpt lat="-3.1120850" lon="37.3545900">
    <ele>4035.6</ele>
    <time>2026-06-22T09:15:32Z</time>
   </trkpt>
   <trkpt lat="-3.1120850" lon="37.3545900">
    <ele>4035.6</ele>
    <time>2026-06-22T09:15:33Z</time>
   </trkpt>
   <trkpt lat="-3.1120850" lon="37.3545900">
    <ele>4035.6</ele>
    <time>2026-06-22T09:15:34Z</time>
   </trkpt>
   <trkpt lat="-3.1120850" lon="37.3545900">
    <ele>4035.6</ele>
    <time>2026-06-22T09:15:35Z</time>
   </trkpt>
   <trkpt lat="-3.1120850" lon="37.3545900">
    <ele>4035.6</ele>
    <time>2026-06-22T09:15:36Z</time>
   </trkpt>
   <trkpt lat="-3.1120840" lon="37.3545910">
    <ele>4035.7</ele>
    <time>2026-06-22T09:15:37Z</time>
   </trkpt>
   <trkpt lat="-3.1120840" lon="37.3545910">
    <ele>4035.7</ele>
    <time>2026-06-22T09:15:38Z</time>
   </trkpt>
   <trkpt lat="-3.1120840" lon="37.3545910">
    <ele>4035.7</ele>
    <time>2026-06-22T09:15:39Z</time>
   </trkpt>
   <trkpt lat="-3.1120840" lon="37.3545910">
    <ele>4035.7</ele>
    <time>2026-06-22T09:15:40Z</time>
   </trkpt>
   <trkpt lat="-3.1120850" lon="37.3545910">
    <ele>4035.7</ele>
    <time>2026-06-22T09:15:41Z</time>
   </trkpt>
   <trkpt lat="-3.1120850" lon="37.3545910">
    <ele>4035.7</ele>
    <time>2026-06-22T09:15:42Z</time>
   </trkpt>
   <trkpt lat="-3.1120850" lon="37.3545910">
    <ele>4035.7</ele>
    <time>2026-06-22T09:15:43Z</time>
   </trkpt>
   <trkpt lat="-3.1120850" lon="37.3545910">
    <ele>4035.7</ele>
    <time>2026-06-22T09:15:44Z</time>
   </trkpt>
   <trkpt lat="-3.1120850" lon="37.3545910">
    <ele>4035.7</ele>
    <time>2026-06-22T09:15:45Z</time>
   </trkpt>
   <trkpt lat="-3.1120850" lon="37.3545910">
    <ele>4035.7</ele>
    <time>2026-06-22T09:15:46Z</time>
   </trkpt>
   <trkpt lat="-3.1120850" lon="37.3545910">
    <ele>4035.7</ele>
    <time>2026-06-22T09:15:47Z</time>
   </trkpt>
   <trkpt lat="-3.1120850" lon="37.3545910">
    <ele>4035.7</ele>
    <time>2026-06-22T09:15:48Z</time>
   </trkpt>
   <trkpt lat="-3.1120850" lon="37.3545910">
    <ele>4035.7</ele>
    <time>2026-06-22T09:15:49Z</time>
   </trkpt>
   <trkpt lat="-3.1120850" lon="37.3545910">
    <ele>4035.7</ele>
    <time>2026-06-22T09:15:50Z</time>
   </trkpt>
   <trkpt lat="-3.1120850" lon="37.3545910">
    <ele>4035.7</ele>
    <time>2026-06-22T09:15:51Z</time>
   </trkpt>
   <trkpt lat="-3.1120840" lon="37.3545890">
    <ele>4035.7</ele>
    <time>2026-06-22T09:15:52Z</time>
   </trkpt>
   <trkpt lat="-3.1120840" lon="37.3545890">
    <ele>4035.7</ele>
    <time>2026-06-22T09:15:53Z</time>
   </trkpt>
   <trkpt lat="-3.1120840" lon="37.3545870">
    <ele>4035.7</ele>
    <time>2026-06-22T09:15:54Z</time>
   </trkpt>
   <trkpt lat="-3.1120840" lon="37.3545870">
    <ele>4035.7</ele>
    <time>2026-06-22T09:15:55Z</time>
   </trkpt>
   <trkpt lat="-3.1120840" lon="37.3545870">
    <ele>4035.7</ele>
    <time>2026-06-22T09:15:56Z</time>
   </trkpt>
   <trkpt lat="-3.1120840" lon="37.3545880">
    <ele>4035.7</ele>
    <time>2026-06-22T09:15:57Z</time>
   </trkpt>
   <trkpt lat="-3.1120840" lon="37.3545880">
    <ele>4035.7</ele>
    <time>2026-06-22T09:15:58Z</time>
   </trkpt>
   <trkpt lat="-3.1120850" lon="37.3545880">
    <ele>4035.7</ele>
    <time>2026-06-22T09:15:59Z</time>
   </trkpt>
   <trkpt lat="-3.1120840" lon="37.3545880">
    <ele>4035.7</ele>
    <time>2026-06-22T09:16:00Z</time>
   </trkpt>
   <trkpt lat="-3.1120840" lon="37.3545880">
    <ele>4035.7</ele>
    <time>2026-06-22T09:16:01Z</time>
   </trkpt>
   <trkpt lat="-3.1120840" lon="37.3545880">
    <ele>4035.7</ele>
    <time>2026-06-22T09:16:02Z</time>
   </trkpt>
   <trkpt lat="-3.1120840" lon="37.3545880">
    <ele>4035.7</ele>
    <time>2026-06-22T09:16:03Z</time>
   </trkpt>
   <trkpt lat="-3.1120840" lon="37.3545880">
    <ele>4035.7</ele>
    <time>2026-06-22T09:16:04Z</time>
   </trkpt>
   <trkpt lat="-3.1120840" lon="37.3545880">
    <ele>4035.7</ele>
    <time>2026-06-22T09:16:05Z</time>
   </trkpt>
   <trkpt lat="-3.1120840" lon="37.3545880">
    <ele>4035.7</ele>
    <time>2026-06-22T09:16:06Z</time>
   </trkpt>
   <trkpt lat="-3.1120840" lon="37.3545880">
    <ele>4035.7</ele>
    <time>2026-06-22T09:16:07Z</time>
   </trkpt>
   <trkpt lat="-3.1120840" lon="37.3545880">
    <ele>4035.7</ele>
    <time>2026-06-22T09:16:08Z</time>
   </trkpt>
   <trkpt lat="-3.1120840" lon="37.3545870">
    <ele>4035.7</ele>
    <time>2026-06-22T09:16:09Z</time>
   </trkpt>
   <trkpt lat="-3.1120840" lon="37.3545870">
    <ele>4035.7</ele>
    <time>2026-06-22T09:16:10Z</time>
   </trkpt>
   <trkpt lat="-3.1120840" lon="37.3545870">
    <ele>4035.7</ele>
    <time>2026-06-22T09:16:11Z</time>
   </trkpt>
   <trkpt lat="-3.1120840" lon="37.3545870">
    <ele>4035.7</ele>
    <time>2026-06-22T09:16:12Z</time>
   </trkpt>
   <trkpt lat="-3.1120840" lon="37.3545870">
    <ele>4035.7</ele>
    <time>2026-06-22T09:16:13Z</time>
   </trkpt>
   <trkpt lat="-3.1120840" lon="37.3545870">
    <ele>4035.7</ele>
    <time>2026-06-22T09:16:14Z</time>
   </trkpt>
   <trkpt lat="-3.1120840" lon="37.3545870">
    <ele>4035.7</ele>
    <time>2026-06-22T09:16:15Z</time>
   </trkpt>
   <trkpt lat="-3.1120840" lon="37.3545870">
    <ele>4035.7</ele>
    <time>2026-06-22T09:16:16Z</time>
   </trkpt>
   <trkpt lat="-3.1120840" lon="37.3545870">
    <ele>4035.7</ele>
    <time>2026-06-22T09:16:17Z</time>
   </trkpt>
   <trkpt lat="-3.1120820" lon="37.3545860">
    <ele>4035.8</ele>
    <time>2026-06-22T09:16:18Z</time>
   </trkpt>
   <trkpt lat="-3.1120820" lon="37.3545860">
    <ele>4035.8</ele>
    <time>2026-06-22T09:16:19Z</time>
   </trkpt>
   <trkpt lat="-3.1120820" lon="37.3545880">
    <ele>4035.8</ele>
    <time>2026-06-22T09:16:20Z</time>
   </trkpt>
   <trkpt lat="-3.1120820" lon="37.3545880">
    <ele>4035.8</ele>
    <time>2026-06-22T09:16:21Z</time>
   </trkpt>
   <trkpt lat="-3.1120820" lon="37.3545880">
    <ele>4035.8</ele>
    <time>2026-06-22T09:16:22Z</time>
   </trkpt>
   <trkpt lat="-3.1120820" lon="37.3545880">
    <ele>4035.8</ele>
    <time>2026-06-22T09:16:23Z</time>
   </trkpt>
   <trkpt lat="-3.1120820" lon="37.3545880">
    <ele>4035.8</ele>
    <time>2026-06-22T09:16:24Z</time>
   </trkpt>
   <trkpt lat="-3.1120820" lon="37.3545880">
    <ele>4035.8</ele>
    <time>2026-06-22T09:16:25Z</time>
   </trkpt>
   <trkpt lat="-3.1120820" lon="37.3545880">
    <ele>4035.8</ele>
    <time>2026-06-22T09:16:26Z</time>
   </trkpt>
   <trkpt lat="-3.1120820" lon="37.3545880">
    <ele>4035.8</ele>
    <time>2026-06-22T09:16:27Z</time>
   </trkpt>
   <trkpt lat="-3.1120820" lon="37.3545880">
    <ele>4035.8</ele>
    <time>2026-06-22T09:16:28Z</time>
   </trkpt>
   <trkpt lat="-3.1120830" lon="37.3545930">
    <ele>4035.8</ele>
    <time>2026-06-22T09:16:29Z</time>
   </trkpt>
   <trkpt lat="-3.1120820" lon="37.3545930">
    <ele>4035.8</ele>
    <time>2026-06-22T09:16:30Z</time>
   </trkpt>
   <trkpt lat="-3.1120820" lon="37.3545930">
    <ele>4035.8</ele>
    <time>2026-06-22T09:16:31Z</time>
   </trkpt>
   <trkpt lat="-3.1120820" lon="37.3545930">
    <ele>4035.8</ele>
    <time>2026-06-22T09:16:32Z</time>
   </trkpt>
   <trkpt lat="-3.1120820" lon="37.3545930">
    <ele>4035.8</ele>
    <time>2026-06-22T09:16:33Z</time>
   </trkpt>
   <trkpt lat="-3.1120820" lon="37.3545930">
    <ele>4035.8</ele>
    <time>2026-06-22T09:16:34Z</time>
   </trkpt>
   <trkpt lat="-3.1120820" lon="37.3545930">
    <ele>4035.8</ele>
    <time>2026-06-22T09:16:35Z</time>
   </trkpt>
   <trkpt lat="-3.1120820" lon="37.3545930">
    <ele>4035.8</ele>
    <time>2026-06-22T09:16:36Z</time>
   </trkpt>
   <trkpt lat="-3.1120820" lon="37.3545930">
    <ele>4035.8</ele>
    <time>2026-06-22T09:16:37Z</time>
   </trkpt>
   <trkpt lat="-3.1120820" lon="37.3545940">
    <ele>4035.8</ele>
    <time>2026-06-22T09:16:38Z</time>
   </trkpt>
   <trkpt lat="-3.1120820" lon="37.3545940">
    <ele>4035.8</ele>
    <time>2026-06-22T09:16:39Z</time>
   </trkpt>
   <trkpt lat="-3.1120820" lon="37.3545940">
    <ele>4035.8</ele>
    <time>2026-06-22T09:16:40Z</time>
   </trkpt>
   <trkpt lat="-3.1120820" lon="37.3545940">
    <ele>4035.8</ele>
    <time>2026-06-22T09:16:41Z</time>
   </trkpt>
   <trkpt lat="-3.1120820" lon="37.3545940">
    <ele>4035.8</ele>
    <time>2026-06-22T09:16:42Z</time>
   </trkpt>
   <trkpt lat="-3.1120820" lon="37.3545940">
    <ele>4035.8</ele>
    <time>2026-06-22T09:16:43Z</time>
   </trkpt>
   <trkpt lat="-3.1120820" lon="37.3545940">
    <ele>4035.8</ele>
    <time>2026-06-22T09:16:44Z</time>
   </trkpt>
   <trkpt lat="-3.1120820" lon="37.3545940">
    <ele>4035.8</ele>
    <time>2026-06-22T09:16:45Z</time>
   </trkpt>
   <trkpt lat="-3.1120820" lon="37.3545920">
    <ele>4035.8</ele>
    <time>2026-06-22T09:16:46Z</time>
   </trkpt>
   <trkpt lat="-3.1120820" lon="37.3545920">
    <ele>4035.8</ele>
    <time>2026-06-22T09:16:47Z</time>
   </trkpt>
   <trkpt lat="-3.1120820" lon="37.3545920">
    <ele>4035.8</ele>
    <time>2026-06-22T09:16:48Z</time>
   </trkpt>
   <trkpt lat="-3.1120820" lon="37.3545920">
    <ele>4035.8</ele>
    <time>2026-06-22T09:16:49Z</time>
   </trkpt>
   <trkpt lat="-3.1120820" lon="37.3545920">
    <ele>4035.8</ele>
    <time>2026-06-22T09:16:50Z</time>
   </trkpt>
   <trkpt lat="-3.1120820" lon="37.3545920">
    <ele>4035.8</ele>
    <time>2026-06-22T09:16:51Z</time>
   </trkpt>
   <trkpt lat="-3.1120820" lon="37.3545920">
    <ele>4035.8</ele>
    <time>2026-06-22T09:16:52Z</time>
   </trkpt>
   <trkpt lat="-3.1120820" lon="37.3545920">
    <ele>4035.8</ele>
    <time>2026-06-22T09:16:53Z</time>
   </trkpt>
   <trkpt lat="-3.1120820" lon="37.3545930">
    <ele>4035.8</ele>
    <time>2026-06-22T09:16:54Z</time>
   </trkpt>
   <trkpt lat="-3.1120820" lon="37.3545930">
    <ele>4035.8</ele>
    <time>2026-06-22T09:16:55Z</time>
   </trkpt>
   <trkpt lat="-3.1120820" lon="37.3545930">
    <ele>4035.8</ele>
    <time>2026-06-22T09:16:56Z</time>
   </trkpt>
   <trkpt lat="-3.1120820" lon="37.3545930">
    <ele>4035.8</ele>
    <time>2026-06-22T09:16:57Z</time>
   </trkpt>
   <trkpt lat="-3.1120820" lon="37.3545930">
    <ele>4035.8</ele>
    <time>2026-06-22T09:16:58Z</time>
   </trkpt>
   <trkpt lat="-3.1120820" lon="37.3545930">
    <ele>4035.8</ele>
    <time>2026-06-22T09:16:59Z</time>
   </trkpt>
   <trkpt lat="-3.1120820" lon="37.3545930">
    <ele>4035.8</ele>
    <time>2026-06-22T09:17:00Z</time>
   </trkpt>
   <trkpt lat="-3.1120820" lon="37.3545930">
    <ele>4035.8</ele>
    <time>2026-06-22T09:17:01Z</time>
   </trkpt>
   <trkpt lat="-3.1120820" lon="37.3545930">
    <ele>4035.8</ele>
    <time>2026-06-22T09:17:02Z</time>
   </trkpt>
   <trkpt lat="-3.1120820" lon="37.3545930">
    <ele>4035.8</ele>
    <time>2026-06-22T09:17:03Z</time>
   </trkpt>
   <trkpt lat="-3.1120820" lon="37.3545930">
    <ele>4035.8</ele>
    <time>2026-06-22T09:17:04Z</time>
   </trkpt>
   <trkpt lat="-3.1120820" lon="37.3545930">
    <ele>4035.8</ele>
    <time>2026-06-22T09:17:05Z</time>
   </trkpt>
   <trkpt lat="-3.1120820" lon="37.3545930">
    <ele>4035.8</ele>
    <time>2026-06-22T09:17:06Z</time>
   </trkpt>
   <trkpt lat="-3.1120820" lon="37.3545930">
    <ele>4035.8</ele>
    <time>2026-06-22T09:17:07Z</time>
   </trkpt>
   <trkpt lat="-3.1120810" lon="37.3545910">
    <ele>4035.9</ele>
    <time>2026-06-22T09:17:08Z</time>
   </trkpt>
   <trkpt lat="-3.1120810" lon="37.3545910">
    <ele>4035.9</ele>
    <time>2026-06-22T09:17:09Z</time>
   </trkpt>
   <trkpt lat="-3.1120810" lon="37.3545910">
    <ele>4035.9</ele>
    <time>2026-06-22T09:17:10Z</time>
   </trkpt>
   <trkpt lat="-3.1120810" lon="37.3545910">
    <ele>4035.9</ele>
    <time>2026-06-22T09:17:11Z</time>
   </trkpt>
   <trkpt lat="-3.1120810" lon="37.3545910">
    <ele>4035.9</ele>
    <time>2026-06-22T09:17:12Z</time>
   </trkpt>
   <trkpt lat="-3.1120810" lon="37.3545900">
    <ele>4035.9</ele>
    <time>2026-06-22T09:17:13Z</time>
   </trkpt>
   <trkpt lat="-3.1120810" lon="37.3545900">
    <ele>4035.9</ele>
    <time>2026-06-22T09:17:14Z</time>
   </trkpt>
   <trkpt lat="-3.1120810" lon="37.3545900">
    <ele>4035.9</ele>
    <time>2026-06-22T09:17:15Z</time>
   </trkpt>
   <trkpt lat="-3.1120810" lon="37.3545900">
    <ele>4035.9</ele>
    <time>2026-06-22T09:17:16Z</time>
   </trkpt>
   <trkpt lat="-3.1120810" lon="37.3545900">
    <ele>4035.9</ele>
    <time>2026-06-22T09:17:17Z</time>
   </trkpt>
   <trkpt lat="-3.1120810" lon="37.3545900">
    <ele>4035.9</ele>
    <time>2026-06-22T09:17:18Z</time>
   </trkpt>
   <trkpt lat="-3.1120810" lon="37.3545900">
    <ele>4035.9</ele>
    <time>2026-06-22T09:17:19Z</time>
   </trkpt>
   <trkpt lat="-3.1120810" lon="37.3545900">
    <ele>4035.9</ele>
    <time>2026-06-22T09:17:20Z</time>
   </trkpt>
   <trkpt lat="-3.1120820" lon="37.3545900">
    <ele>4035.9</ele>
    <time>2026-06-22T09:17:21Z</time>
   </trkpt>
   <trkpt lat="-3.1120820" lon="37.3545900">
    <ele>4035.9</ele>
    <time>2026-06-22T09:17:22Z</time>
   </trkpt>
   <trkpt lat="-3.1120820" lon="37.3545900">
    <ele>4035.9</ele>
    <time>2026-06-22T09:17:23Z</time>
   </trkpt>
   <trkpt lat="-3.1120820" lon="37.3545900">
    <ele>4035.9</ele>
    <time>2026-06-22T09:17:24Z</time>
   </trkpt>
   <trkpt lat="-3.1120820" lon="37.3545900">
    <ele>4035.9</ele>
    <time>2026-06-22T09:17:25Z</time>
   </trkpt>
   <trkpt lat="-3.1120820" lon="37.3545900">
    <ele>4035.9</ele>
    <time>2026-06-22T09:17:26Z</time>
   </trkpt>
   <trkpt lat="-3.1120820" lon="37.3545900">
    <ele>4035.9</ele>
    <time>2026-06-22T09:17:27Z</time>
   </trkpt>
   <trkpt lat="-3.1120820" lon="37.3545900">
    <ele>4035.9</ele>
    <time>2026-06-22T09:17:28Z</time>
   </trkpt>
   <trkpt lat="-3.1120820" lon="37.3545900">
    <ele>4035.9</ele>
    <time>2026-06-22T09:17:29Z</time>
   </trkpt>
   <trkpt lat="-3.1120820" lon="37.3545900">
    <ele>4035.9</ele>
    <time>2026-06-22T09:17:30Z</time>
   </trkpt>
   <trkpt lat="-3.1120820" lon="37.3545900">
    <ele>4035.9</ele>
    <time>2026-06-22T09:17:31Z</time>
   </trkpt>
   <trkpt lat="-3.1120820" lon="37.3545900">
    <ele>4035.9</ele>
    <time>2026-06-22T09:17:32Z</time>
   </trkpt>
   <trkpt lat="-3.1120820" lon="37.3545900">
    <ele>4035.9</ele>
    <time>2026-06-22T09:17:33Z</time>
   </trkpt>
   <trkpt lat="-3.1120810" lon="37.3545880">
    <ele>4035.9</ele>
    <time>2026-06-22T09:17:34Z</time>
   </trkpt>
   <trkpt lat="-3.1120810" lon="37.3545880">
    <ele>4035.9</ele>
    <time>2026-06-22T09:17:35Z</time>
   </trkpt>
   <trkpt lat="-3.1120810" lon="37.3545880">
    <ele>4035.9</ele>
    <time>2026-06-22T09:17:36Z</time>
   </trkpt>
   <trkpt lat="-3.1120810" lon="37.3545880">
    <ele>4035.9</ele>
    <time>2026-06-22T09:17:37Z</time>
   </trkpt>
   <trkpt lat="-3.1120810" lon="37.3545880">
    <ele>4035.9</ele>
    <time>2026-06-22T09:17:38Z</time>
   </trkpt>
   <trkpt lat="-3.1120810" lon="37.3545880">
    <ele>4035.9</ele>
    <time>2026-06-22T09:17:39Z</time>
   </trkpt>
   <trkpt lat="-3.1120800" lon="37.3545880">
    <ele>4035.9</ele>
    <time>2026-06-22T09:17:40Z</time>
   </trkpt>
   <trkpt lat="-3.1120800" lon="37.3545880">
    <ele>4035.9</ele>
    <time>2026-06-22T09:17:41Z</time>
   </trkpt>
   <trkpt lat="-3.1120810" lon="37.3545910">
    <ele>4035.9</ele>
    <time>2026-06-22T09:17:42Z</time>
   </trkpt>
   <trkpt lat="-3.1120810" lon="37.3545910">
    <ele>4035.9</ele>
    <time>2026-06-22T09:17:43Z</time>
   </trkpt>
   <trkpt lat="-3.1120810" lon="37.3545910">
    <ele>4035.9</ele>
    <time>2026-06-22T09:17:44Z</time>
   </trkpt>
   <trkpt lat="-3.1120810" lon="37.3545910">
    <ele>4035.9</ele>
    <time>2026-06-22T09:17:45Z</time>
   </trkpt>
   <trkpt lat="-3.1120810" lon="37.3545910">
    <ele>4035.9</ele>
    <time>2026-06-22T09:17:46Z</time>
   </trkpt>
   <trkpt lat="-3.1120810" lon="37.3545910">
    <ele>4035.9</ele>
    <time>2026-06-22T09:17:47Z</time>
   </trkpt>
   <trkpt lat="-3.1120810" lon="37.3545910">
    <ele>4035.9</ele>
    <time>2026-06-22T09:17:48Z</time>
   </trkpt>
   <trkpt lat="-3.1120810" lon="37.3545910">
    <ele>4035.9</ele>
    <time>2026-06-22T09:17:49Z</time>
   </trkpt>
   <trkpt lat="-3.1120800" lon="37.3545920">
    <ele>4035.9</ele>
    <time>2026-06-22T09:17:50Z</time>
   </trkpt>
   <trkpt lat="-3.1120800" lon="37.3545920">
    <ele>4035.9</ele>
    <time>2026-06-22T09:17:51Z</time>
   </trkpt>
   <trkpt lat="-3.1120800" lon="37.3545920">
    <ele>4035.9</ele>
    <time>2026-06-22T09:17:52Z</time>
   </trkpt>
   <trkpt lat="-3.1120800" lon="37.3545920">
    <ele>4035.9</ele>
    <time>2026-06-22T09:17:53Z</time>
   </trkpt>
   <trkpt lat="-3.1120800" lon="37.3545920">
    <ele>4035.9</ele>
    <time>2026-06-22T09:17:54Z</time>
   </trkpt>
   <trkpt lat="-3.1120800" lon="37.3545920">
    <ele>4035.9</ele>
    <time>2026-06-22T09:17:55Z</time>
   </trkpt>
   <trkpt lat="-3.1120800" lon="37.3545920">
    <ele>4035.9</ele>
    <time>2026-06-22T09:17:56Z</time>
   </trkpt>
   <trkpt lat="-3.1120770" lon="37.3545900">
    <ele>4036.0</ele>
    <time>2026-06-22T09:17:57Z</time>
   </trkpt>
   <trkpt lat="-3.1120760" lon="37.3545900">
    <ele>4036.0</ele>
    <time>2026-06-22T09:17:58Z</time>
   </trkpt>
   <trkpt lat="-3.1120760" lon="37.3545900">
    <ele>4036.0</ele>
    <time>2026-06-22T09:17:59Z</time>
   </trkpt>
   <trkpt lat="-3.1120760" lon="37.3545900">
    <ele>4036.0</ele>
    <time>2026-06-22T09:18:00Z</time>
   </trkpt>
   <trkpt lat="-3.1120760" lon="37.3545900">
    <ele>4036.0</ele>
    <time>2026-06-22T09:18:01Z</time>
   </trkpt>
   <trkpt lat="-3.1120760" lon="37.3545900">
    <ele>4036.0</ele>
    <time>2026-06-22T09:18:02Z</time>
   </trkpt>
   <trkpt lat="-3.1120770" lon="37.3545900">
    <ele>4036.0</ele>
    <time>2026-06-22T09:18:03Z</time>
   </trkpt>
   <trkpt lat="-3.1120770" lon="37.3545900">
    <ele>4036.0</ele>
    <time>2026-06-22T09:18:04Z</time>
   </trkpt>
   <trkpt lat="-3.1120770" lon="37.3545900">
    <ele>4036.0</ele>
    <time>2026-06-22T09:18:05Z</time>
   </trkpt>
   <trkpt lat="-3.1120780" lon="37.3545910">
    <ele>4036.0</ele>
    <time>2026-06-22T09:18:06Z</time>
   </trkpt>
   <trkpt lat="-3.1120780" lon="37.3545910">
    <ele>4036.0</ele>
    <time>2026-06-22T09:18:07Z</time>
   </trkpt>
   <trkpt lat="-3.1120780" lon="37.3545910">
    <ele>4036.0</ele>
    <time>2026-06-22T09:18:08Z</time>
   </trkpt>
   <trkpt lat="-3.1120770" lon="37.3545910">
    <ele>4036.0</ele>
    <time>2026-06-22T09:18:09Z</time>
   </trkpt>
   <trkpt lat="-3.1120770" lon="37.3545910">
    <ele>4036.0</ele>
    <time>2026-06-22T09:18:10Z</time>
   </trkpt>
   <trkpt lat="-3.1120770" lon="37.3545910">
    <ele>4036.0</ele>
    <time>2026-06-22T09:18:11Z</time>
   </trkpt>
   <trkpt lat="-3.1120770" lon="37.3545920">
    <ele>4036.0</ele>
    <time>2026-06-22T09:18:12Z</time>
   </trkpt>
   <trkpt lat="-3.1120770" lon="37.3545920">
    <ele>4036.0</ele>
    <time>2026-06-22T09:18:13Z</time>
   </trkpt>
   <trkpt lat="-3.1120770" lon="37.3545910">
    <ele>4036.0</ele>
    <time>2026-06-22T09:18:14Z</time>
   </trkpt>
   <trkpt lat="-3.1120770" lon="37.3545920">
    <ele>4036.0</ele>
    <time>2026-06-22T09:18:15Z</time>
   </trkpt>
   <trkpt lat="-3.1120770" lon="37.3545920">
    <ele>4036.0</ele>
    <time>2026-06-22T09:18:16Z</time>
   </trkpt>
   <trkpt lat="-3.1120770" lon="37.3545920">
    <ele>4036.0</ele>
    <time>2026-06-22T09:18:17Z</time>
   </trkpt>
   <trkpt lat="-3.1120770" lon="37.3545920">
    <ele>4036.0</ele>
    <time>2026-06-22T09:18:18Z</time>
   </trkpt>
   <trkpt lat="-3.1120770" lon="37.3545920">
    <ele>4036.0</ele>
    <time>2026-06-22T09:18:19Z</time>
   </trkpt>
   <trkpt lat="-3.1120770" lon="37.3545920">
    <ele>4036.0</ele>
    <time>2026-06-22T09:18:20Z</time>
   </trkpt>
   <trkpt lat="-3.1120770" lon="37.3545920">
    <ele>4036.0</ele>
    <time>2026-06-22T09:18:21Z</time>
   </trkpt>
   <trkpt lat="-3.1120770" lon="37.3545920">
    <ele>4036.0</ele>
    <time>2026-06-22T09:18:22Z</time>
   </trkpt>
   <trkpt lat="-3.1120770" lon="37.3545920">
    <ele>4036.0</ele>
    <time>2026-06-22T09:18:23Z</time>
   </trkpt>
   <trkpt lat="-3.1120770" lon="37.3545920">
    <ele>4036.0</ele>
    <time>2026-06-22T09:18:24Z</time>
   </trkpt>
   <trkpt lat="-3.1120770" lon="37.3545920">
    <ele>4036.0</ele>
    <time>2026-06-22T09:18:25Z</time>
   </trkpt>
   <trkpt lat="-3.1120770" lon="37.3545920">
    <ele>4036.0</ele>
    <time>2026-06-22T09:18:26Z</time>
   </trkpt>
   <trkpt lat="-3.1120730" lon="37.3545920">
    <ele>4036.1</ele>
    <time>2026-06-22T09:18:27Z</time>
   </trkpt>
   <trkpt lat="-3.1120730" lon="37.3545910">
    <ele>4036.1</ele>
    <time>2026-06-22T09:18:28Z</time>
   </trkpt>
   <trkpt lat="-3.1120730" lon="37.3545910">
    <ele>4036.1</ele>
    <time>2026-06-22T09:18:29Z</time>
   </trkpt>
   <trkpt lat="-3.1120730" lon="37.3545910">
    <ele>4036.1</ele>
    <time>2026-06-22T09:18:30Z</time>
   </trkpt>
   <trkpt lat="-3.1120730" lon="37.3545910">
    <ele>4036.1</ele>
    <time>2026-06-22T09:18:31Z</time>
   </trkpt>
   <trkpt lat="-3.1120730" lon="37.3545910">
    <ele>4036.1</ele>
    <time>2026-06-22T09:18:32Z</time>
   </trkpt>
   <trkpt lat="-3.1120730" lon="37.3545910">
    <ele>4036.1</ele>
    <time>2026-06-22T09:18:33Z</time>
   </trkpt>
   <trkpt lat="-3.1120730" lon="37.3545910">
    <ele>4036.1</ele>
    <time>2026-06-22T09:18:34Z</time>
   </trkpt>
   <trkpt lat="-3.1120730" lon="37.3545910">
    <ele>4036.1</ele>
    <time>2026-06-22T09:18:35Z</time>
   </trkpt>
   <trkpt lat="-3.1120730" lon="37.3545910">
    <ele>4036.1</ele>
    <time>2026-06-22T09:18:36Z</time>
   </trkpt>
   <trkpt lat="-3.1120730" lon="37.3545910">
    <ele>4036.1</ele>
    <time>2026-06-22T09:18:37Z</time>
   </trkpt>
   <trkpt lat="-3.1120730" lon="37.3545910">
    <ele>4036.1</ele>
    <time>2026-06-22T09:18:38Z</time>
   </trkpt>
   <trkpt lat="-3.1120700" lon="37.3545920">
    <ele>4036.1</ele>
    <time>2026-06-22T09:18:39Z</time>
   </trkpt>
   <trkpt lat="-3.1120700" lon="37.3545920">
    <ele>4036.1</ele>
    <time>2026-06-22T09:18:40Z</time>
   </trkpt>
   <trkpt lat="-3.1120700" lon="37.3545920">
    <ele>4036.1</ele>
    <time>2026-06-22T09:18:41Z</time>
   </trkpt>
   <trkpt lat="-3.1120700" lon="37.3545920">
    <ele>4036.1</ele>
    <time>2026-06-22T09:18:42Z</time>
   </trkpt>
   <trkpt lat="-3.1120690" lon="37.3545920">
    <ele>4036.1</ele>
    <time>2026-06-22T09:18:43Z</time>
   </trkpt>
   <trkpt lat="-3.1120690" lon="37.3545920">
    <ele>4036.1</ele>
    <time>2026-06-22T09:18:44Z</time>
   </trkpt>
   <trkpt lat="-3.1120690" lon="37.3545940">
    <ele>4036.1</ele>
    <time>2026-06-22T09:18:45Z</time>
   </trkpt>
   <trkpt lat="-3.1120690" lon="37.3545930">
    <ele>4036.1</ele>
    <time>2026-06-22T09:18:46Z</time>
   </trkpt>
   <trkpt lat="-3.1120690" lon="37.3545930">
    <ele>4036.1</ele>
    <time>2026-06-22T09:18:47Z</time>
   </trkpt>
   <trkpt lat="-3.1120690" lon="37.3545930">
    <ele>4036.1</ele>
    <time>2026-06-22T09:18:48Z</time>
   </trkpt>
   <trkpt lat="-3.1120690" lon="37.3545930">
    <ele>4036.1</ele>
    <time>2026-06-22T09:18:49Z</time>
   </trkpt>
   <trkpt lat="-3.1120690" lon="37.3545930">
    <ele>4036.1</ele>
    <time>2026-06-22T09:18:50Z</time>
   </trkpt>
   <trkpt lat="-3.1120690" lon="37.3545920">
    <ele>4036.1</ele>
    <time>2026-06-22T09:18:51Z</time>
   </trkpt>
   <trkpt lat="-3.1120690" lon="37.3545920">
    <ele>4036.1</ele>
    <time>2026-06-22T09:18:52Z</time>
   </trkpt>
   <trkpt lat="-3.1120690" lon="37.3545920">
    <ele>4036.1</ele>
    <time>2026-06-22T09:18:53Z</time>
   </trkpt>
   <trkpt lat="-3.1120690" lon="37.3545920">
    <ele>4036.1</ele>
    <time>2026-06-22T09:18:54Z</time>
   </trkpt>
   <trkpt lat="-3.1120690" lon="37.3545920">
    <ele>4036.1</ele>
    <time>2026-06-22T09:18:55Z</time>
   </trkpt>
   <trkpt lat="-3.1120690" lon="37.3545920">
    <ele>4036.1</ele>
    <time>2026-06-22T09:18:56Z</time>
   </trkpt>
   <trkpt lat="-3.1120680" lon="37.3545920">
    <ele>4036.1</ele>
    <time>2026-06-22T09:18:57Z</time>
   </trkpt>
   <trkpt lat="-3.1120680" lon="37.3545920">
    <ele>4036.1</ele>
    <time>2026-06-22T09:18:58Z</time>
   </trkpt>
   <trkpt lat="-3.1120690" lon="37.3545910">
    <ele>4036.2</ele>
    <time>2026-06-22T09:18:59Z</time>
   </trkpt>
   <trkpt lat="-3.1120690" lon="37.3545910">
    <ele>4036.2</ele>
    <time>2026-06-22T09:19:00Z</time>
   </trkpt>
   <trkpt lat="-3.1120690" lon="37.3545910">
    <ele>4036.2</ele>
    <time>2026-06-22T09:19:01Z</time>
   </trkpt>
   <trkpt lat="-3.1120690" lon="37.3545910">
    <ele>4036.2</ele>
    <time>2026-06-22T09:19:02Z</time>
   </trkpt>
   <trkpt lat="-3.1120690" lon="37.3545910">
    <ele>4036.2</ele>
    <time>2026-06-22T09:19:03Z</time>
   </trkpt>
   <trkpt lat="-3.1120690" lon="37.3545910">
    <ele>4036.2</ele>
    <time>2026-06-22T09:19:04Z</time>
   </trkpt>
   <trkpt lat="-3.1120690" lon="37.3545910">
    <ele>4036.2</ele>
    <time>2026-06-22T09:19:05Z</time>
   </trkpt>
   <trkpt lat="-3.1120690" lon="37.3545910">
    <ele>4036.2</ele>
    <time>2026-06-22T09:19:06Z</time>
   </trkpt>
   <trkpt lat="-3.1120690" lon="37.3545910">
    <ele>4036.2</ele>
    <time>2026-06-22T09:19:07Z</time>
   </trkpt>
   <trkpt lat="-3.1120690" lon="37.3545910">
    <ele>4036.2</ele>
    <time>2026-06-22T09:19:08Z</time>
   </trkpt>
   <trkpt lat="-3.1120720" lon="37.3545930">
    <ele>4036.2</ele>
    <time>2026-06-22T09:19:09Z</time>
   </trkpt>
   <trkpt lat="-3.1120720" lon="37.3545930">
    <ele>4036.2</ele>
    <time>2026-06-22T09:19:10Z</time>
   </trkpt>
   <trkpt lat="-3.1120730" lon="37.3545920">
    <ele>4036.2</ele>
    <time>2026-06-22T09:19:11Z</time>
   </trkpt>
   <trkpt lat="-3.1120730" lon="37.3545920">
    <ele>4036.2</ele>
    <time>2026-06-22T09:19:12Z</time>
   </trkpt>
   <trkpt lat="-3.1120730" lon="37.3545910">
    <ele>4036.2</ele>
    <time>2026-06-22T09:19:13Z</time>
   </trkpt>
   <trkpt lat="-3.1120730" lon="37.3545910">
    <ele>4036.2</ele>
    <time>2026-06-22T09:19:14Z</time>
   </trkpt>
   <trkpt lat="-3.1120730" lon="37.3545910">
    <ele>4036.2</ele>
    <time>2026-06-22T09:19:15Z</time>
   </trkpt>
   <trkpt lat="-3.1120730" lon="37.3545910">
    <ele>4036.2</ele>
    <time>2026-06-22T09:19:16Z</time>
   </trkpt>
   <trkpt lat="-3.1120730" lon="37.3545910">
    <ele>4036.2</ele>
    <time>2026-06-22T09:19:17Z</time>
   </trkpt>
   <trkpt lat="-3.1120730" lon="37.3545910">
    <ele>4036.2</ele>
    <time>2026-06-22T09:19:18Z</time>
   </trkpt>
   <trkpt lat="-3.1120730" lon="37.3545910">
    <ele>4036.2</ele>
    <time>2026-06-22T09:19:19Z</time>
   </trkpt>
   <trkpt lat="-3.1120730" lon="37.3545910">
    <ele>4036.2</ele>
    <time>2026-06-22T09:19:20Z</time>
   </trkpt>
   <trkpt lat="-3.1120730" lon="37.3545910">
    <ele>4036.2</ele>
    <time>2026-06-22T09:19:21Z</time>
   </trkpt>
   <trkpt lat="-3.1120730" lon="37.3545910">
    <ele>4036.2</ele>
    <time>2026-06-22T09:19:22Z</time>
   </trkpt>
   <trkpt lat="-3.1120730" lon="37.3545910">
    <ele>4036.2</ele>
    <time>2026-06-22T09:19:23Z</time>
   </trkpt>
   <trkpt lat="-3.1120730" lon="37.3545910">
    <ele>4036.2</ele>
    <time>2026-06-22T09:19:24Z</time>
   </trkpt>
   <trkpt lat="-3.1120730" lon="37.3545910">
    <ele>4036.2</ele>
    <time>2026-06-22T09:19:25Z</time>
   </trkpt>
   <trkpt lat="-3.1120730" lon="37.3545910">
    <ele>4036.2</ele>
    <time>2026-06-22T09:19:26Z</time>
   </trkpt>
   <trkpt lat="-3.1120730" lon="37.3545910">
    <ele>4036.2</ele>
    <time>2026-06-22T09:19:27Z</time>
   </trkpt>
   <trkpt lat="-3.1120740" lon="37.3545890">
    <ele>4036.2</ele>
    <time>2026-06-22T09:19:28Z</time>
   </trkpt>
   <trkpt lat="-3.1120740" lon="37.3545890">
    <ele>4036.2</ele>
    <time>2026-06-22T09:19:29Z</time>
   </trkpt>
   <trkpt lat="-3.1120740" lon="37.3545890">
    <ele>4036.2</ele>
    <time>2026-06-22T09:19:30Z</time>
   </trkpt>
   <trkpt lat="-3.1120740" lon="37.3545890">
    <ele>4036.2</ele>
    <time>2026-06-22T09:19:31Z</time>
   </trkpt>
   <trkpt lat="-3.1120750" lon="37.3545880">
    <ele>4036.2</ele>
    <time>2026-06-22T09:19:32Z</time>
   </trkpt>
   <trkpt lat="-3.1120740" lon="37.3545890">
    <ele>4036.2</ele>
    <time>2026-06-22T09:19:33Z</time>
   </trkpt>
   <trkpt lat="-3.1120740" lon="37.3545890">
    <ele>4036.2</ele>
    <time>2026-06-22T09:19:34Z</time>
   </trkpt>
   <trkpt lat="-3.1120740" lon="37.3545890">
    <ele>4036.2</ele>
    <time>2026-06-22T09:19:35Z</time>
   </trkpt>
   <trkpt lat="-3.1120730" lon="37.3545880">
    <ele>4036.3</ele>
    <time>2026-06-22T09:19:36Z</time>
   </trkpt>
   <trkpt lat="-3.1120730" lon="37.3545880">
    <ele>4036.3</ele>
    <time>2026-06-22T09:19:37Z</time>
   </trkpt>
   <trkpt lat="-3.1120730" lon="37.3545880">
    <ele>4036.3</ele>
    <time>2026-06-22T09:19:38Z</time>
   </trkpt>
   <trkpt lat="-3.1120730" lon="37.3545870">
    <ele>4036.3</ele>
    <time>2026-06-22T09:19:39Z</time>
   </trkpt>
   <trkpt lat="-3.1120730" lon="37.3545870">
    <ele>4036.3</ele>
    <time>2026-06-22T09:19:40Z</time>
   </trkpt>
   <trkpt lat="-3.1120730" lon="37.3545870">
    <ele>4036.3</ele>
    <time>2026-06-22T09:19:41Z</time>
   </trkpt>
   <trkpt lat="-3.1120720" lon="37.3545860">
    <ele>4036.3</ele>
    <time>2026-06-22T09:19:42Z</time>
   </trkpt>
   <trkpt lat="-3.1120720" lon="37.3545860">
    <ele>4036.3</ele>
    <time>2026-06-22T09:19:43Z</time>
   </trkpt>
   <trkpt lat="-3.1120710" lon="37.3545860">
    <ele>4036.3</ele>
    <time>2026-06-22T09:19:44Z</time>
   </trkpt>
   <trkpt lat="-3.1120710" lon="37.3545860">
    <ele>4036.3</ele>
    <time>2026-06-22T09:19:45Z</time>
   </trkpt>
   <trkpt lat="-3.1120710" lon="37.3545860">
    <ele>4036.3</ele>
    <time>2026-06-22T09:19:46Z</time>
   </trkpt>
   <trkpt lat="-3.1120710" lon="37.3545860">
    <ele>4036.3</ele>
    <time>2026-06-22T09:19:47Z</time>
   </trkpt>
   <trkpt lat="-3.1120710" lon="37.3545860">
    <ele>4036.3</ele>
    <time>2026-06-22T09:19:48Z</time>
   </trkpt>
   <trkpt lat="-3.1120710" lon="37.3545860">
    <ele>4036.3</ele>
    <time>2026-06-22T09:19:49Z</time>
   </trkpt>
   <trkpt lat="-3.1120710" lon="37.3545860">
    <ele>4036.3</ele>
    <time>2026-06-22T09:19:50Z</time>
   </trkpt>
   <trkpt lat="-3.1120710" lon="37.3545870">
    <ele>4036.3</ele>
    <time>2026-06-22T09:19:51Z</time>
   </trkpt>
   <trkpt lat="-3.1120710" lon="37.3545860">
    <ele>4036.3</ele>
    <time>2026-06-22T09:19:52Z</time>
   </trkpt>
   <trkpt lat="-3.1120710" lon="37.3545860">
    <ele>4036.3</ele>
    <time>2026-06-22T09:19:53Z</time>
   </trkpt>
   <trkpt lat="-3.1120710" lon="37.3545870">
    <ele>4036.3</ele>
    <time>2026-06-22T09:19:54Z</time>
   </trkpt>
   <trkpt lat="-3.1120710" lon="37.3545870">
    <ele>4036.3</ele>
    <time>2026-06-22T09:19:55Z</time>
   </trkpt>
   <trkpt lat="-3.1120710" lon="37.3545870">
    <ele>4036.3</ele>
    <time>2026-06-22T09:19:56Z</time>
   </trkpt>
   <trkpt lat="-3.1120710" lon="37.3545870">
    <ele>4036.3</ele>
    <time>2026-06-22T09:19:57Z</time>
   </trkpt>
   <trkpt lat="-3.1120710" lon="37.3545870">
    <ele>4036.3</ele>
    <time>2026-06-22T09:19:58Z</time>
   </trkpt>
   <trkpt lat="-3.1120710" lon="37.3545870">
    <ele>4036.3</ele>
    <time>2026-06-22T09:19:59Z</time>
   </trkpt>
   <trkpt lat="-3.1120720" lon="37.3545860">
    <ele>4036.3</ele>
    <time>2026-06-22T09:20:00Z</time>
   </trkpt>
   <trkpt lat="-3.1120720" lon="37.3545860">
    <ele>4036.3</ele>
    <time>2026-06-22T09:20:01Z</time>
   </trkpt>
   <trkpt lat="-3.1120720" lon="37.3545860">
    <ele>4036.3</ele>
    <time>2026-06-22T09:20:02Z</time>
   </trkpt>
   <trkpt lat="-3.1120720" lon="37.3545860">
    <ele>4036.3</ele>
    <time>2026-06-22T09:20:03Z</time>
   </trkpt>
   <trkpt lat="-3.1120720" lon="37.3545860">
    <ele>4036.3</ele>
    <time>2026-06-22T09:20:04Z</time>
   </trkpt>
   <trkpt lat="-3.1120720" lon="37.3545860">
    <ele>4036.3</ele>
    <time>2026-06-22T09:20:05Z</time>
   </trkpt>
   <trkpt lat="-3.1120720" lon="37.3545860">
    <ele>4036.3</ele>
    <time>2026-06-22T09:20:06Z</time>
   </trkpt>
   <trkpt lat="-3.1120720" lon="37.3545860">
    <ele>4036.3</ele>
    <time>2026-06-22T09:20:07Z</time>
   </trkpt>
   <trkpt lat="-3.1120720" lon="37.3545860">
    <ele>4036.3</ele>
    <time>2026-06-22T09:20:08Z</time>
   </trkpt>
   <trkpt lat="-3.1120720" lon="37.3545860">
    <ele>4036.3</ele>
    <time>2026-06-22T09:20:09Z</time>
   </trkpt>
   <trkpt lat="-3.1120720" lon="37.3545860">
    <ele>4036.3</ele>
    <time>2026-06-22T09:20:10Z</time>
   </trkpt>
   <trkpt lat="-3.1120720" lon="37.3545860">
    <ele>4036.3</ele>
    <time>2026-06-22T09:20:11Z</time>
   </trkpt>
   <trkpt lat="-3.1120720" lon="37.3545860">
    <ele>4036.3</ele>
    <time>2026-06-22T09:20:12Z</time>
   </trkpt>
   <trkpt lat="-3.1120720" lon="37.3545860">
    <ele>4036.3</ele>
    <time>2026-06-22T09:20:13Z</time>
   </trkpt>
   <trkpt lat="-3.1120720" lon="37.3545860">
    <ele>4036.3</ele>
    <time>2026-06-22T09:20:14Z</time>
   </trkpt>
   <trkpt lat="-3.1120720" lon="37.3545860">
    <ele>4036.3</ele>
    <time>2026-06-22T09:20:15Z</time>
   </trkpt>
   <trkpt lat="-3.1120710" lon="37.3545880">
    <ele>4036.3</ele>
    <time>2026-06-22T09:20:16Z</time>
   </trkpt>
   <trkpt lat="-3.1120710" lon="37.3545880">
    <ele>4036.3</ele>
    <time>2026-06-22T09:20:17Z</time>
   </trkpt>
   <trkpt lat="-3.1120710" lon="37.3545870">
    <ele>4036.3</ele>
    <time>2026-06-22T09:20:18Z</time>
   </trkpt>
   <trkpt lat="-3.1120700" lon="37.3545870">
    <ele>4036.3</ele>
    <time>2026-06-22T09:20:19Z</time>
   </trkpt>
   <trkpt lat="-3.1120710" lon="37.3545860">
    <ele>4036.4</ele>
    <time>2026-06-22T09:20:20Z</time>
   </trkpt>
   <trkpt lat="-3.1120710" lon="37.3545860">
    <ele>4036.4</ele>
    <time>2026-06-22T09:20:21Z</time>
   </trkpt>
   <trkpt lat="-3.1120730" lon="37.3545860">
    <ele>4036.4</ele>
    <time>2026-06-22T09:20:22Z</time>
   </trkpt>
   <trkpt lat="-3.1120730" lon="37.3545860">
    <ele>4036.4</ele>
    <time>2026-06-22T09:20:23Z</time>
   </trkpt>
   <trkpt lat="-3.1120730" lon="37.3545860">
    <ele>4036.4</ele>
    <time>2026-06-22T09:20:24Z</time>
   </trkpt>
   <trkpt lat="-3.1120730" lon="37.3545860">
    <ele>4036.4</ele>
    <time>2026-06-22T09:20:25Z</time>
   </trkpt>
   <trkpt lat="-3.1120730" lon="37.3545860">
    <ele>4036.4</ele>
    <time>2026-06-22T09:20:26Z</time>
   </trkpt>
   <trkpt lat="-3.1120740" lon="37.3545860">
    <ele>4036.4</ele>
    <time>2026-06-22T09:20:27Z</time>
   </trkpt>
   <trkpt lat="-3.1120730" lon="37.3545860">
    <ele>4036.4</ele>
    <time>2026-06-22T09:20:28Z</time>
   </trkpt>
   <trkpt lat="-3.1120730" lon="37.3545860">
    <ele>4036.4</ele>
    <time>2026-06-22T09:20:29Z</time>
   </trkpt>
   <trkpt lat="-3.1120730" lon="37.3545860">
    <ele>4036.4</ele>
    <time>2026-06-22T09:20:30Z</time>
   </trkpt>
   <trkpt lat="-3.1120730" lon="37.3545860">
    <ele>4036.4</ele>
    <time>2026-06-22T09:20:31Z</time>
   </trkpt>
   <trkpt lat="-3.1120730" lon="37.3545860">
    <ele>4036.4</ele>
    <time>2026-06-22T09:20:32Z</time>
   </trkpt>
   <trkpt lat="-3.1120730" lon="37.3545860">
    <ele>4036.4</ele>
    <time>2026-06-22T09:20:33Z</time>
   </trkpt>
   <trkpt lat="-3.1120740" lon="37.3545860">
    <ele>4036.4</ele>
    <time>2026-06-22T09:20:34Z</time>
   </trkpt>
   <trkpt lat="-3.1120740" lon="37.3545860">
    <ele>4036.4</ele>
    <time>2026-06-22T09:20:35Z</time>
   </trkpt>
   <trkpt lat="-3.1120740" lon="37.3545860">
    <ele>4036.4</ele>
    <time>2026-06-22T09:20:36Z</time>
   </trkpt>
   <trkpt lat="-3.1120740" lon="37.3545860">
    <ele>4036.4</ele>
    <time>2026-06-22T09:20:37Z</time>
   </trkpt>
   <trkpt lat="-3.1120750" lon="37.3545860">
    <ele>4036.4</ele>
    <time>2026-06-22T09:20:38Z</time>
   </trkpt>
   <trkpt lat="-3.1120750" lon="37.3545850">
    <ele>4036.4</ele>
    <time>2026-06-22T09:20:39Z</time>
   </trkpt>
   <trkpt lat="-3.1120750" lon="37.3545850">
    <ele>4036.4</ele>
    <time>2026-06-22T09:20:40Z</time>
   </trkpt>
   <trkpt lat="-3.1120750" lon="37.3545850">
    <ele>4036.4</ele>
    <time>2026-06-22T09:20:41Z</time>
   </trkpt>
   <trkpt lat="-3.1120750" lon="37.3545850">
    <ele>4036.4</ele>
    <time>2026-06-22T09:20:42Z</time>
   </trkpt>
   <trkpt lat="-3.1120750" lon="37.3545850">
    <ele>4036.4</ele>
    <time>2026-06-22T09:20:43Z</time>
   </trkpt>
   <trkpt lat="-3.1120750" lon="37.3545850">
    <ele>4036.4</ele>
    <time>2026-06-22T09:20:44Z</time>
   </trkpt>
   <trkpt lat="-3.1120760" lon="37.3545870">
    <ele>4036.4</ele>
    <time>2026-06-22T09:20:45Z</time>
   </trkpt>
   <trkpt lat="-3.1120760" lon="37.3545870">
    <ele>4036.4</ele>
    <time>2026-06-22T09:20:46Z</time>
   </trkpt>
   <trkpt lat="-3.1120760" lon="37.3545870">
    <ele>4036.4</ele>
    <time>2026-06-22T09:20:47Z</time>
   </trkpt>
   <trkpt lat="-3.1120760" lon="37.3545870">
    <ele>4036.4</ele>
    <time>2026-06-22T09:20:48Z</time>
   </trkpt>
   <trkpt lat="-3.1120760" lon="37.3545870">
    <ele>4036.4</ele>
    <time>2026-06-22T09:20:49Z</time>
   </trkpt>
   <trkpt lat="-3.1120760" lon="37.3545870">
    <ele>4036.4</ele>
    <time>2026-06-22T09:20:50Z</time>
   </trkpt>
   <trkpt lat="-3.1120770" lon="37.3545870">
    <ele>4036.4</ele>
    <time>2026-06-22T09:20:51Z</time>
   </trkpt>
   <trkpt lat="-3.1120760" lon="37.3545870">
    <ele>4036.4</ele>
    <time>2026-06-22T09:20:52Z</time>
   </trkpt>
   <trkpt lat="-3.1120760" lon="37.3545870">
    <ele>4036.4</ele>
    <time>2026-06-22T09:20:53Z</time>
   </trkpt>
   <trkpt lat="-3.1120770" lon="37.3545870">
    <ele>4036.5</ele>
    <time>2026-06-22T09:20:54Z</time>
   </trkpt>
   <trkpt lat="-3.1120760" lon="37.3545870">
    <ele>4036.5</ele>
    <time>2026-06-22T09:20:56Z</time>
   </trkpt>
   <trkpt lat="-3.1120760" lon="37.3545860">
    <ele>4036.5</ele>
    <time>2026-06-22T09:20:57Z</time>
   </trkpt>
   <trkpt lat="-3.1120760" lon="37.3545860">
    <ele>4036.5</ele>
    <time>2026-06-22T09:20:58Z</time>
   </trkpt>
   <trkpt lat="-3.1120760" lon="37.3545860">
    <ele>4036.5</ele>
    <time>2026-06-22T09:20:59Z</time>
   </trkpt>
   <trkpt lat="-3.1120760" lon="37.3545860">
    <ele>4036.5</ele>
    <time>2026-06-22T09:21:00Z</time>
   </trkpt>
   <trkpt lat="-3.1120770" lon="37.3545860">
    <ele>4036.5</ele>
    <time>2026-06-22T09:21:01Z</time>
   </trkpt>
   <trkpt lat="-3.1120770" lon="37.3545860">
    <ele>4036.5</ele>
    <time>2026-06-22T09:21:02Z</time>
   </trkpt>
   <trkpt lat="-3.1120770" lon="37.3545860">
    <ele>4036.5</ele>
    <time>2026-06-22T09:21:03Z</time>
   </trkpt>
   <trkpt lat="-3.1120770" lon="37.3545860">
    <ele>4036.5</ele>
    <time>2026-06-22T09:21:04Z</time>
   </trkpt>
   <trkpt lat="-3.1120770" lon="37.3545860">
    <ele>4036.5</ele>
    <time>2026-06-22T09:21:05Z</time>
   </trkpt>
   <trkpt lat="-3.1120760" lon="37.3545880">
    <ele>4036.5</ele>
    <time>2026-06-22T09:21:06Z</time>
   </trkpt>
   <trkpt lat="-3.1120760" lon="37.3545870">
    <ele>4036.5</ele>
    <time>2026-06-22T09:21:07Z</time>
   </trkpt>
   <trkpt lat="-3.1120750" lon="37.3545880">
    <ele>4036.5</ele>
    <time>2026-06-22T09:21:08Z</time>
   </trkpt>
   <trkpt lat="-3.1120750" lon="37.3545880">
    <ele>4036.5</ele>
    <time>2026-06-22T09:21:09Z</time>
   </trkpt>
   <trkpt lat="-3.1120740" lon="37.3545880">
    <ele>4036.5</ele>
    <time>2026-06-22T09:21:10Z</time>
   </trkpt>
   <trkpt lat="-3.1120740" lon="37.3545880">
    <ele>4036.5</ele>
    <time>2026-06-22T09:21:11Z</time>
   </trkpt>
   <trkpt lat="-3.1120740" lon="37.3545880">
    <ele>4036.5</ele>
    <time>2026-06-22T09:21:12Z</time>
   </trkpt>
   <trkpt lat="-3.1120720" lon="37.3545870">
    <ele>4036.5</ele>
    <time>2026-06-22T09:21:13Z</time>
   </trkpt>
   <trkpt lat="-3.1120720" lon="37.3545870">
    <ele>4036.5</ele>
    <time>2026-06-22T09:21:14Z</time>
   </trkpt>
   <trkpt lat="-3.1120710" lon="37.3545860">
    <ele>4036.6</ele>
    <time>2026-06-22T09:21:15Z</time>
   </trkpt>
   <trkpt lat="-3.1120710" lon="37.3545860">
    <ele>4036.6</ele>
    <time>2026-06-22T09:21:16Z</time>
   </trkpt>
   <trkpt lat="-3.1120710" lon="37.3545860">
    <ele>4036.6</ele>
    <time>2026-06-22T09:21:17Z</time>
   </trkpt>
   <trkpt lat="-3.1120710" lon="37.3545860">
    <ele>4036.6</ele>
    <time>2026-06-22T09:21:18Z</time>
   </trkpt>
   <trkpt lat="-3.1120690" lon="37.3545870">
    <ele>4036.6</ele>
    <time>2026-06-22T09:21:19Z</time>
   </trkpt>
   <trkpt lat="-3.1120690" lon="37.3545870">
    <ele>4036.6</ele>
    <time>2026-06-22T09:21:20Z</time>
   </trkpt>
   <trkpt lat="-3.1120690" lon="37.3545870">
    <ele>4036.6</ele>
    <time>2026-06-22T09:21:21Z</time>
   </trkpt>
   <trkpt lat="-3.1120690" lon="37.3545860">
    <ele>4036.6</ele>
    <time>2026-06-22T09:21:22Z</time>
   </trkpt>
   <trkpt lat="-3.1120690" lon="37.3545860">
    <ele>4036.6</ele>
    <time>2026-06-22T09:21:23Z</time>
   </trkpt>
   <trkpt lat="-3.1120690" lon="37.3545860">
    <ele>4036.6</ele>
    <time>2026-06-22T09:21:24Z</time>
   </trkpt>
   <trkpt lat="-3.1120690" lon="37.3545860">
    <ele>4036.6</ele>
    <time>2026-06-22T09:21:25Z</time>
   </trkpt>
   <trkpt lat="-3.1120690" lon="37.3545860">
    <ele>4036.6</ele>
    <time>2026-06-22T09:21:26Z</time>
   </trkpt>
   <trkpt lat="-3.1120690" lon="37.3545860">
    <ele>4036.6</ele>
    <time>2026-06-22T09:21:27Z</time>
   </trkpt>
   <trkpt lat="-3.1120690" lon="37.3545860">
    <ele>4036.6</ele>
    <time>2026-06-22T09:21:28Z</time>
   </trkpt>
   <trkpt lat="-3.1120690" lon="37.3545860">
    <ele>4036.6</ele>
    <time>2026-06-22T09:21:29Z</time>
   </trkpt>
   <trkpt lat="-3.1120690" lon="37.3545860">
    <ele>4036.6</ele>
    <time>2026-06-22T09:21:30Z</time>
   </trkpt>
   <trkpt lat="-3.1120690" lon="37.3545860">
    <ele>4036.6</ele>
    <time>2026-06-22T09:21:31Z</time>
   </trkpt>
   <trkpt lat="-3.1120690" lon="37.3545860">
    <ele>4036.6</ele>
    <time>2026-06-22T09:21:32Z</time>
   </trkpt>
   <trkpt lat="-3.1120720" lon="37.3545860">
    <ele>4036.6</ele>
    <time>2026-06-22T09:21:33Z</time>
   </trkpt>
   <trkpt lat="-3.1120720" lon="37.3545860">
    <ele>4036.6</ele>
    <time>2026-06-22T09:21:34Z</time>
   </trkpt>
   <trkpt lat="-3.1120720" lon="37.3545860">
    <ele>4036.6</ele>
    <time>2026-06-22T09:21:35Z</time>
   </trkpt>
   <trkpt lat="-3.1120720" lon="37.3545860">
    <ele>4036.6</ele>
    <time>2026-06-22T09:21:36Z</time>
   </trkpt>
   <trkpt lat="-3.1120720" lon="37.3545860">
    <ele>4036.6</ele>
    <time>2026-06-22T09:21:37Z</time>
   </trkpt>
   <trkpt lat="-3.1120720" lon="37.3545860">
    <ele>4036.6</ele>
    <time>2026-06-22T09:21:38Z</time>
   </trkpt>
   <trkpt lat="-3.1120720" lon="37.3545860">
    <ele>4036.6</ele>
    <time>2026-06-22T09:21:39Z</time>
   </trkpt>
   <trkpt lat="-3.1120740" lon="37.3545870">
    <ele>4036.6</ele>
    <time>2026-06-22T09:21:40Z</time>
   </trkpt>
   <trkpt lat="-3.1120740" lon="37.3545870">
    <ele>4036.6</ele>
    <time>2026-06-22T09:21:41Z</time>
   </trkpt>
   <trkpt lat="-3.1120740" lon="37.3545870">
    <ele>4036.6</ele>
    <time>2026-06-22T09:21:42Z</time>
   </trkpt>
   <trkpt lat="-3.1120740" lon="37.3545860">
    <ele>4036.6</ele>
    <time>2026-06-22T09:21:43Z</time>
   </trkpt>
   <trkpt lat="-3.1120740" lon="37.3545850">
    <ele>4036.6</ele>
    <time>2026-06-22T09:21:44Z</time>
   </trkpt>
   <trkpt lat="-3.1120740" lon="37.3545850">
    <ele>4036.6</ele>
    <time>2026-06-22T09:21:45Z</time>
   </trkpt>
   <trkpt lat="-3.1120740" lon="37.3545850">
    <ele>4036.6</ele>
    <time>2026-06-22T09:21:46Z</time>
   </trkpt>
   <trkpt lat="-3.1120740" lon="37.3545860">
    <ele>4036.6</ele>
    <time>2026-06-22T09:21:47Z</time>
   </trkpt>
   <trkpt lat="-3.1120740" lon="37.3545860">
    <ele>4036.6</ele>
    <time>2026-06-22T09:21:48Z</time>
   </trkpt>
   <trkpt lat="-3.1120750" lon="37.3545860">
    <ele>4036.7</ele>
    <time>2026-06-22T09:21:49Z</time>
   </trkpt>
   <trkpt lat="-3.1120750" lon="37.3545860">
    <ele>4036.7</ele>
    <time>2026-06-22T09:21:50Z</time>
   </trkpt>
   <trkpt lat="-3.1120760" lon="37.3545870">
    <ele>4036.7</ele>
    <time>2026-06-22T09:21:51Z</time>
   </trkpt>
   <trkpt lat="-3.1120760" lon="37.3545860">
    <ele>4036.7</ele>
    <time>2026-06-22T09:21:52Z</time>
   </trkpt>
   <trkpt lat="-3.1120760" lon="37.3545860">
    <ele>4036.7</ele>
    <time>2026-06-22T09:21:53Z</time>
   </trkpt>
   <trkpt lat="-3.1120760" lon="37.3545870">
    <ele>4036.7</ele>
    <time>2026-06-22T09:21:54Z</time>
   </trkpt>
   <trkpt lat="-3.1120760" lon="37.3545870">
    <ele>4036.7</ele>
    <time>2026-06-22T09:21:55Z</time>
   </trkpt>
   <trkpt lat="-3.1120760" lon="37.3545870">
    <ele>4036.7</ele>
    <time>2026-06-22T09:21:56Z</time>
   </trkpt>
   <trkpt lat="-3.1120780" lon="37.3545870">
    <ele>4036.7</ele>
    <time>2026-06-22T09:21:57Z</time>
   </trkpt>
   <trkpt lat="-3.1120780" lon="37.3545860">
    <ele>4036.7</ele>
    <time>2026-06-22T09:21:58Z</time>
   </trkpt>
   <trkpt lat="-3.1120780" lon="37.3545860">
    <ele>4036.7</ele>
    <time>2026-06-22T09:21:59Z</time>
   </trkpt>
   <trkpt lat="-3.1120770" lon="37.3545850">
    <ele>4036.7</ele>
    <time>2026-06-22T09:22:00Z</time>
   </trkpt>
   <trkpt lat="-3.1120770" lon="37.3545840">
    <ele>4036.7</ele>
    <time>2026-06-22T09:22:01Z</time>
   </trkpt>
   <trkpt lat="-3.1120770" lon="37.3545860">
    <ele>4036.7</ele>
    <time>2026-06-22T09:22:02Z</time>
   </trkpt>
   <trkpt lat="-3.1120780" lon="37.3545860">
    <ele>4036.7</ele>
    <time>2026-06-22T09:22:03Z</time>
   </trkpt>
   <trkpt lat="-3.1120780" lon="37.3545850">
    <ele>4036.8</ele>
    <time>2026-06-22T09:22:04Z</time>
   </trkpt>
   <trkpt lat="-3.1120780" lon="37.3545850">
    <ele>4036.8</ele>
    <time>2026-06-22T09:22:05Z</time>
   </trkpt>
   <trkpt lat="-3.1120780" lon="37.3545850">
    <ele>4036.8</ele>
    <time>2026-06-22T09:22:06Z</time>
   </trkpt>
   <trkpt lat="-3.1120780" lon="37.3545850">
    <ele>4036.8</ele>
    <time>2026-06-22T09:22:07Z</time>
   </trkpt>
   <trkpt lat="-3.1120770" lon="37.3545870">
    <ele>4036.8</ele>
    <time>2026-06-22T09:22:08Z</time>
   </trkpt>
   <trkpt lat="-3.1120760" lon="37.3545890">
    <ele>4036.8</ele>
    <time>2026-06-22T09:22:09Z</time>
   </trkpt>
   <trkpt lat="-3.1120760" lon="37.3545890">
    <ele>4036.8</ele>
    <time>2026-06-22T09:22:10Z</time>
   </trkpt>
   <trkpt lat="-3.1120750" lon="37.3545880">
    <ele>4036.8</ele>
    <time>2026-06-22T09:22:11Z</time>
   </trkpt>
   <trkpt lat="-3.1120750" lon="37.3545880">
    <ele>4036.8</ele>
    <time>2026-06-22T09:22:12Z</time>
   </trkpt>
   <trkpt lat="-3.1120750" lon="37.3545880">
    <ele>4036.8</ele>
    <time>2026-06-22T09:22:13Z</time>
   </trkpt>
   <trkpt lat="-3.1120750" lon="37.3545880">
    <ele>4036.8</ele>
    <time>2026-06-22T09:22:14Z</time>
   </trkpt>
   <trkpt lat="-3.1120760" lon="37.3545860">
    <ele>4036.8</ele>
    <time>2026-06-22T09:22:15Z</time>
   </trkpt>
   <trkpt lat="-3.1120760" lon="37.3545860">
    <ele>4036.8</ele>
    <time>2026-06-22T09:22:16Z</time>
   </trkpt>
   <trkpt lat="-3.1120760" lon="37.3545860">
    <ele>4036.8</ele>
    <time>2026-06-22T09:22:17Z</time>
   </trkpt>
   <trkpt lat="-3.1120760" lon="37.3545860">
    <ele>4036.8</ele>
    <time>2026-06-22T09:22:18Z</time>
   </trkpt>
   <trkpt lat="-3.1120760" lon="37.3545860">
    <ele>4036.8</ele>
    <time>2026-06-22T09:22:19Z</time>
   </trkpt>
   <trkpt lat="-3.1120760" lon="37.3545860">
    <ele>4036.8</ele>
    <time>2026-06-22T09:22:20Z</time>
   </trkpt>
   <trkpt lat="-3.1120760" lon="37.3545860">
    <ele>4036.8</ele>
    <time>2026-06-22T09:22:21Z</time>
   </trkpt>
   <trkpt lat="-3.1120760" lon="37.3545860">
    <ele>4036.8</ele>
    <time>2026-06-22T09:22:22Z</time>
   </trkpt>
   <trkpt lat="-3.1120760" lon="37.3545860">
    <ele>4036.8</ele>
    <time>2026-06-22T09:22:23Z</time>
   </trkpt>
   <trkpt lat="-3.1120760" lon="37.3545860">
    <ele>4036.8</ele>
    <time>2026-06-22T09:22:24Z</time>
   </trkpt>
   <trkpt lat="-3.1120760" lon="37.3545860">
    <ele>4036.8</ele>
    <time>2026-06-22T09:22:25Z</time>
   </trkpt>
   <trkpt lat="-3.1120760" lon="37.3545860">
    <ele>4036.8</ele>
    <time>2026-06-22T09:22:26Z</time>
   </trkpt>
   <trkpt lat="-3.1120760" lon="37.3545860">
    <ele>4036.8</ele>
    <time>2026-06-22T09:22:27Z</time>
   </trkpt>
   <trkpt lat="-3.1120760" lon="37.3545860">
    <ele>4036.8</ele>
    <time>2026-06-22T09:22:28Z</time>
   </trkpt>
   <trkpt lat="-3.1120730" lon="37.3545830">
    <ele>4036.9</ele>
    <time>2026-06-22T09:22:29Z</time>
   </trkpt>
   <trkpt lat="-3.1120730" lon="37.3545830">
    <ele>4036.9</ele>
    <time>2026-06-22T09:22:30Z</time>
   </trkpt>
   <trkpt lat="-3.1120730" lon="37.3545830">
    <ele>4036.9</ele>
    <time>2026-06-22T09:22:31Z</time>
   </trkpt>
   <trkpt lat="-3.1120740" lon="37.3545830">
    <ele>4036.9</ele>
    <time>2026-06-22T09:22:32Z</time>
   </trkpt>
   <trkpt lat="-3.1120740" lon="37.3545830">
    <ele>4036.9</ele>
    <time>2026-06-22T09:22:33Z</time>
   </trkpt>
   <trkpt lat="-3.1120730" lon="37.3545820">
    <ele>4036.9</ele>
    <time>2026-06-22T09:22:34Z</time>
   </trkpt>
   <trkpt lat="-3.1120740" lon="37.3545840">
    <ele>4036.9</ele>
    <time>2026-06-22T09:22:35Z</time>
   </trkpt>
   <trkpt lat="-3.1120740" lon="37.3545830">
    <ele>4036.9</ele>
    <time>2026-06-22T09:22:36Z</time>
   </trkpt>
   <trkpt lat="-3.1120740" lon="37.3545830">
    <ele>4036.9</ele>
    <time>2026-06-22T09:22:37Z</time>
   </trkpt>
   <trkpt lat="-3.1120740" lon="37.3545830">
    <ele>4036.9</ele>
    <time>2026-06-22T09:22:38Z</time>
   </trkpt>
   <trkpt lat="-3.1120740" lon="37.3545830">
    <ele>4036.9</ele>
    <time>2026-06-22T09:22:39Z</time>
   </trkpt>
   <trkpt lat="-3.1120720" lon="37.3545850">
    <ele>4036.9</ele>
    <time>2026-06-22T09:22:40Z</time>
   </trkpt>
   <trkpt lat="-3.1120710" lon="37.3545850">
    <ele>4036.9</ele>
    <time>2026-06-22T09:22:41Z</time>
   </trkpt>
   <trkpt lat="-3.1120710" lon="37.3545840">
    <ele>4036.9</ele>
    <time>2026-06-22T09:22:42Z</time>
   </trkpt>
   <trkpt lat="-3.1120710" lon="37.3545840">
    <ele>4036.9</ele>
    <time>2026-06-22T09:22:43Z</time>
   </trkpt>
   <trkpt lat="-3.1120720" lon="37.3545850">
    <ele>4036.9</ele>
    <time>2026-06-22T09:22:44Z</time>
   </trkpt>
   <trkpt lat="-3.1120710" lon="37.3545840">
    <ele>4037.0</ele>
    <time>2026-06-22T09:22:45Z</time>
   </trkpt>
   <trkpt lat="-3.1120700" lon="37.3545840">
    <ele>4037.0</ele>
    <time>2026-06-22T09:22:46Z</time>
   </trkpt>
   <trkpt lat="-3.1120700" lon="37.3545830">
    <ele>4037.0</ele>
    <time>2026-06-22T09:22:47Z</time>
   </trkpt>
   <trkpt lat="-3.1120710" lon="37.3545850">
    <ele>4037.0</ele>
    <time>2026-06-22T09:22:48Z</time>
   </trkpt>
   <trkpt lat="-3.1120720" lon="37.3545850">
    <ele>4037.0</ele>
    <time>2026-06-22T09:22:49Z</time>
   </trkpt>
   <trkpt lat="-3.1120720" lon="37.3545850">
    <ele>4037.0</ele>
    <time>2026-06-22T09:22:50Z</time>
   </trkpt>
   <trkpt lat="-3.1120720" lon="37.3545850">
    <ele>4037.0</ele>
    <time>2026-06-22T09:22:51Z</time>
   </trkpt>
   <trkpt lat="-3.1120720" lon="37.3545850">
    <ele>4037.0</ele>
    <time>2026-06-22T09:22:52Z</time>
   </trkpt>
   <trkpt lat="-3.1120720" lon="37.3545850">
    <ele>4037.0</ele>
    <time>2026-06-22T09:22:53Z</time>
   </trkpt>
   <trkpt lat="-3.1120720" lon="37.3545850">
    <ele>4037.0</ele>
    <time>2026-06-22T09:22:54Z</time>
   </trkpt>
   <trkpt lat="-3.1120720" lon="37.3545850">
    <ele>4037.0</ele>
    <time>2026-06-22T09:22:55Z</time>
   </trkpt>
   <trkpt lat="-3.1120720" lon="37.3545850">
    <ele>4037.0</ele>
    <time>2026-06-22T09:22:56Z</time>
   </trkpt>
   <trkpt lat="-3.1120730" lon="37.3545850">
    <ele>4037.0</ele>
    <time>2026-06-22T09:22:57Z</time>
   </trkpt>
   <trkpt lat="-3.1120740" lon="37.3545850">
    <ele>4037.0</ele>
    <time>2026-06-22T09:22:58Z</time>
   </trkpt>
   <trkpt lat="-3.1120740" lon="37.3545850">
    <ele>4037.0</ele>
    <time>2026-06-22T09:22:59Z</time>
   </trkpt>
   <trkpt lat="-3.1120740" lon="37.3545850">
    <ele>4037.0</ele>
    <time>2026-06-22T09:23:00Z</time>
   </trkpt>
   <trkpt lat="-3.1120740" lon="37.3545850">
    <ele>4037.0</ele>
    <time>2026-06-22T09:23:02Z</time>
   </trkpt>
   <trkpt lat="-3.1120740" lon="37.3545850">
    <ele>4037.0</ele>
    <time>2026-06-22T09:23:03Z</time>
   </trkpt>
   <trkpt lat="-3.1120740" lon="37.3545850">
    <ele>4037.0</ele>
    <time>2026-06-22T09:23:04Z</time>
   </trkpt>
   <trkpt lat="-3.1120740" lon="37.3545850">
    <ele>4037.0</ele>
    <time>2026-06-22T09:23:05Z</time>
   </trkpt>
   <trkpt lat="-3.1120740" lon="37.3545850">
    <ele>4037.0</ele>
    <time>2026-06-22T09:23:06Z</time>
   </trkpt>
   <trkpt lat="-3.1120710" lon="37.3545890">
    <ele>4037.1</ele>
    <time>2026-06-22T09:23:07Z</time>
   </trkpt>
   <trkpt lat="-3.1120710" lon="37.3545890">
    <ele>4037.1</ele>
    <time>2026-06-22T09:23:08Z</time>
   </trkpt>
   <trkpt lat="-3.1120720" lon="37.3545890">
    <ele>4037.1</ele>
    <time>2026-06-22T09:23:09Z</time>
   </trkpt>
   <trkpt lat="-3.1120720" lon="37.3545880">
    <ele>4037.1</ele>
    <time>2026-06-22T09:23:10Z</time>
   </trkpt>
   <trkpt lat="-3.1120720" lon="37.3545890">
    <ele>4037.1</ele>
    <time>2026-06-22T09:23:11Z</time>
   </trkpt>
   <trkpt lat="-3.1120720" lon="37.3545890">
    <ele>4037.1</ele>
    <time>2026-06-22T09:23:12Z</time>
   </trkpt>
   <trkpt lat="-3.1120720" lon="37.3545890">
    <ele>4037.1</ele>
    <time>2026-06-22T09:23:13Z</time>
   </trkpt>
   <trkpt lat="-3.1120730" lon="37.3545890">
    <ele>4037.1</ele>
    <time>2026-06-22T09:23:14Z</time>
   </trkpt>
   <trkpt lat="-3.1120730" lon="37.3545890">
    <ele>4037.1</ele>
    <time>2026-06-22T09:23:15Z</time>
   </trkpt>
   <trkpt lat="-3.1120730" lon="37.3545890">
    <ele>4037.1</ele>
    <time>2026-06-22T09:23:16Z</time>
   </trkpt>
   <trkpt lat="-3.1120730" lon="37.3545890">
    <ele>4037.1</ele>
    <time>2026-06-22T09:23:17Z</time>
   </trkpt>
   <trkpt lat="-3.1120730" lon="37.3545890">
    <ele>4037.1</ele>
    <time>2026-06-22T09:23:18Z</time>
   </trkpt>
   <trkpt lat="-3.1120740" lon="37.3545890">
    <ele>4037.1</ele>
    <time>2026-06-22T09:23:19Z</time>
   </trkpt>
   <trkpt lat="-3.1120740" lon="37.3545890">
    <ele>4037.1</ele>
    <time>2026-06-22T09:23:20Z</time>
   </trkpt>
   <trkpt lat="-3.1120750" lon="37.3545890">
    <ele>4037.1</ele>
    <time>2026-06-22T09:23:21Z</time>
   </trkpt>
   <trkpt lat="-3.1120750" lon="37.3545890">
    <ele>4037.1</ele>
    <time>2026-06-22T09:23:22Z</time>
   </trkpt>
   <trkpt lat="-3.1120750" lon="37.3545890">
    <ele>4037.1</ele>
    <time>2026-06-22T09:23:23Z</time>
   </trkpt>
   <trkpt lat="-3.1120760" lon="37.3545880">
    <ele>4037.1</ele>
    <time>2026-06-22T09:23:24Z</time>
   </trkpt>
   <trkpt lat="-3.1120760" lon="37.3545880">
    <ele>4037.1</ele>
    <time>2026-06-22T09:23:25Z</time>
   </trkpt>
   <trkpt lat="-3.1120760" lon="37.3545880">
    <ele>4037.1</ele>
    <time>2026-06-22T09:23:26Z</time>
   </trkpt>
   <trkpt lat="-3.1120750" lon="37.3545880">
    <ele>4037.1</ele>
    <time>2026-06-22T09:23:27Z</time>
   </trkpt>
   <trkpt lat="-3.1120740" lon="37.3545880">
    <ele>4037.1</ele>
    <time>2026-06-22T09:23:28Z</time>
   </trkpt>
   <trkpt lat="-3.1120740" lon="37.3545880">
    <ele>4037.1</ele>
    <time>2026-06-22T09:23:29Z</time>
   </trkpt>
   <trkpt lat="-3.1120740" lon="37.3545880">
    <ele>4037.1</ele>
    <time>2026-06-22T09:23:30Z</time>
   </trkpt>
   <trkpt lat="-3.1120740" lon="37.3545880">
    <ele>4037.1</ele>
    <time>2026-06-22T09:23:31Z</time>
   </trkpt>
   <trkpt lat="-3.1120740" lon="37.3545880">
    <ele>4037.1</ele>
    <time>2026-06-22T09:23:32Z</time>
   </trkpt>
   <trkpt lat="-3.1120740" lon="37.3545880">
    <ele>4037.1</ele>
    <time>2026-06-22T09:23:33Z</time>
   </trkpt>
   <trkpt lat="-3.1120740" lon="37.3545880">
    <ele>4037.1</ele>
    <time>2026-06-22T09:23:34Z</time>
   </trkpt>
   <trkpt lat="-3.1120740" lon="37.3545880">
    <ele>4037.1</ele>
    <time>2026-06-22T09:23:35Z</time>
   </trkpt>
   <trkpt lat="-3.1120740" lon="37.3545880">
    <ele>4037.1</ele>
    <time>2026-06-22T09:23:36Z</time>
   </trkpt>
   <trkpt lat="-3.1120710" lon="37.3545890">
    <ele>4037.2</ele>
    <time>2026-06-22T09:23:37Z</time>
   </trkpt>
   <trkpt lat="-3.1120710" lon="37.3545880">
    <ele>4037.2</ele>
    <time>2026-06-22T09:23:38Z</time>
   </trkpt>
   <trkpt lat="-3.1120720" lon="37.3545880">
    <ele>4037.2</ele>
    <time>2026-06-22T09:23:39Z</time>
   </trkpt>
   <trkpt lat="-3.1120720" lon="37.3545870">
    <ele>4037.2</ele>
    <time>2026-06-22T09:23:40Z</time>
   </trkpt>
   <trkpt lat="-3.1120720" lon="37.3545870">
    <ele>4037.2</ele>
    <time>2026-06-22T09:23:41Z</time>
   </trkpt>
   <trkpt lat="-3.1120720" lon="37.3545870">
    <ele>4037.2</ele>
    <time>2026-06-22T09:23:42Z</time>
   </trkpt>
   <trkpt lat="-3.1120720" lon="37.3545870">
    <ele>4037.2</ele>
    <time>2026-06-22T09:23:43Z</time>
   </trkpt>
   <trkpt lat="-3.1120720" lon="37.3545870">
    <ele>4037.2</ele>
    <time>2026-06-22T09:23:44Z</time>
   </trkpt>
   <trkpt lat="-3.1120720" lon="37.3545870">
    <ele>4037.2</ele>
    <time>2026-06-22T09:23:45Z</time>
   </trkpt>
   <trkpt lat="-3.1120720" lon="37.3545870">
    <ele>4037.2</ele>
    <time>2026-06-22T09:23:46Z</time>
   </trkpt>
   <trkpt lat="-3.1120720" lon="37.3545870">
    <ele>4037.2</ele>
    <time>2026-06-22T09:23:47Z</time>
   </trkpt>
   <trkpt lat="-3.1120720" lon="37.3545870">
    <ele>4037.2</ele>
    <time>2026-06-22T09:23:48Z</time>
   </trkpt>
   <trkpt lat="-3.1120720" lon="37.3545870">
    <ele>4037.2</ele>
    <time>2026-06-22T09:23:49Z</time>
   </trkpt>
   <trkpt lat="-3.1120720" lon="37.3545870">
    <ele>4037.2</ele>
    <time>2026-06-22T09:23:50Z</time>
   </trkpt>
   <trkpt lat="-3.1120720" lon="37.3545870">
    <ele>4037.2</ele>
    <time>2026-06-22T09:23:51Z</time>
   </trkpt>
   <trkpt lat="-3.1120700" lon="37.3545860">
    <ele>4037.2</ele>
    <time>2026-06-22T09:23:52Z</time>
   </trkpt>
   <trkpt lat="-3.1120700" lon="37.3545860">
    <ele>4037.2</ele>
    <time>2026-06-22T09:23:53Z</time>
   </trkpt>
   <trkpt lat="-3.1120700" lon="37.3545860">
    <ele>4037.2</ele>
    <time>2026-06-22T09:23:54Z</time>
   </trkpt>
   <trkpt lat="-3.1120700" lon="37.3545860">
    <ele>4037.2</ele>
    <time>2026-06-22T09:23:55Z</time>
   </trkpt>
   <trkpt lat="-3.1120720" lon="37.3545860">
    <ele>4037.2</ele>
    <time>2026-06-22T09:23:56Z</time>
   </trkpt>
   <trkpt lat="-3.1120720" lon="37.3545870">
    <ele>4037.2</ele>
    <time>2026-06-22T09:23:57Z</time>
   </trkpt>
   <trkpt lat="-3.1120720" lon="37.3545890">
    <ele>4037.2</ele>
    <time>2026-06-22T09:23:58Z</time>
   </trkpt>
   <trkpt lat="-3.1120720" lon="37.3545880">
    <ele>4037.2</ele>
    <time>2026-06-22T09:23:59Z</time>
   </trkpt>
   <trkpt lat="-3.1120720" lon="37.3545880">
    <ele>4037.2</ele>
    <time>2026-06-22T09:24:00Z</time>
   </trkpt>
   <trkpt lat="-3.1120720" lon="37.3545880">
    <ele>4037.2</ele>
    <time>2026-06-22T09:24:01Z</time>
   </trkpt>
   <trkpt lat="-3.1120720" lon="37.3545870">
    <ele>4037.3</ele>
    <time>2026-06-22T09:24:02Z</time>
   </trkpt>
   <trkpt lat="-3.1120670" lon="37.3545850">
    <ele>4037.3</ele>
    <time>2026-06-22T09:24:03Z</time>
   </trkpt>
   <trkpt lat="-3.1120670" lon="37.3545840">
    <ele>4037.3</ele>
    <time>2026-06-22T09:24:04Z</time>
   </trkpt>
   <trkpt lat="-3.1120700" lon="37.3545860">
    <ele>4037.3</ele>
    <time>2026-06-22T09:24:05Z</time>
   </trkpt>
   <trkpt lat="-3.1120710" lon="37.3545860">
    <ele>4037.3</ele>
    <time>2026-06-22T09:24:06Z</time>
   </trkpt>
   <trkpt lat="-3.1120710" lon="37.3545850">
    <ele>4037.3</ele>
    <time>2026-06-22T09:24:07Z</time>
   </trkpt>
   <trkpt lat="-3.1120700" lon="37.3545870">
    <ele>4037.4</ele>
    <time>2026-06-22T09:24:08Z</time>
   </trkpt>
   <trkpt lat="-3.1120690" lon="37.3545870">
    <ele>4037.4</ele>
    <time>2026-06-22T09:24:09Z</time>
   </trkpt>
   <trkpt lat="-3.1120690" lon="37.3545870">
    <ele>4037.4</ele>
    <time>2026-06-22T09:24:10Z</time>
   </trkpt>
   <trkpt lat="-3.1120690" lon="37.3545870">
    <ele>4037.4</ele>
    <time>2026-06-22T09:24:11Z</time>
   </trkpt>
   <trkpt lat="-3.1120690" lon="37.3545870">
    <ele>4037.4</ele>
    <time>2026-06-22T09:24:12Z</time>
   </trkpt>
   <trkpt lat="-3.1120690" lon="37.3545870">
    <ele>4037.4</ele>
    <time>2026-06-22T09:24:13Z</time>
   </trkpt>
   <trkpt lat="-3.1120700" lon="37.3545880">
    <ele>4037.4</ele>
    <time>2026-06-22T09:24:14Z</time>
   </trkpt>
   <trkpt lat="-3.1120700" lon="37.3545880">
    <ele>4037.4</ele>
    <time>2026-06-22T09:24:15Z</time>
   </trkpt>
   <trkpt lat="-3.1120700" lon="37.3545880">
    <ele>4037.4</ele>
    <time>2026-06-22T09:24:16Z</time>
   </trkpt>
   <trkpt lat="-3.1120700" lon="37.3545880">
    <ele>4037.4</ele>
    <time>2026-06-22T09:24:17Z</time>
   </trkpt>
   <trkpt lat="-3.1120700" lon="37.3545880">
    <ele>4037.4</ele>
    <time>2026-06-22T09:24:18Z</time>
   </trkpt>
   <trkpt lat="-3.1120700" lon="37.3545880">
    <ele>4037.4</ele>
    <time>2026-06-22T09:24:19Z</time>
   </trkpt>
   <trkpt lat="-3.1120700" lon="37.3545880">
    <ele>4037.4</ele>
    <time>2026-06-22T09:24:20Z</time>
   </trkpt>
   <trkpt lat="-3.1120700" lon="37.3545880">
    <ele>4037.4</ele>
    <time>2026-06-22T09:24:21Z</time>
   </trkpt>
   <trkpt lat="-3.1120710" lon="37.3545890">
    <ele>4037.4</ele>
    <time>2026-06-22T09:24:22Z</time>
   </trkpt>
   <trkpt lat="-3.1120700" lon="37.3545890">
    <ele>4037.4</ele>
    <time>2026-06-22T09:24:23Z</time>
   </trkpt>
   <trkpt lat="-3.1120710" lon="37.3545890">
    <ele>4037.4</ele>
    <time>2026-06-22T09:24:24Z</time>
   </trkpt>
   <trkpt lat="-3.1120710" lon="37.3545890">
    <ele>4037.4</ele>
    <time>2026-06-22T09:24:25Z</time>
   </trkpt>
   <trkpt lat="-3.1120720" lon="37.3545890">
    <ele>4037.4</ele>
    <time>2026-06-22T09:24:26Z</time>
   </trkpt>
   <trkpt lat="-3.1120730" lon="37.3545900">
    <ele>4037.4</ele>
    <time>2026-06-22T09:24:27Z</time>
   </trkpt>
   <trkpt lat="-3.1120730" lon="37.3545900">
    <ele>4037.4</ele>
    <time>2026-06-22T09:24:28Z</time>
   </trkpt>
   <trkpt lat="-3.1120730" lon="37.3545900">
    <ele>4037.4</ele>
    <time>2026-06-22T09:24:29Z</time>
   </trkpt>
   <trkpt lat="-3.1120730" lon="37.3545900">
    <ele>4037.4</ele>
    <time>2026-06-22T09:24:30Z</time>
   </trkpt>
   <trkpt lat="-3.1120750" lon="37.3545910">
    <ele>4037.4</ele>
    <time>2026-06-22T09:24:31Z</time>
   </trkpt>
   <trkpt lat="-3.1120750" lon="37.3545910">
    <ele>4037.4</ele>
    <time>2026-06-22T09:24:32Z</time>
   </trkpt>
   <trkpt lat="-3.1120750" lon="37.3545900">
    <ele>4037.5</ele>
    <time>2026-06-22T09:24:33Z</time>
   </trkpt>
   <trkpt lat="-3.1120760" lon="37.3545910">
    <ele>4037.5</ele>
    <time>2026-06-22T09:24:34Z</time>
   </trkpt>
   <trkpt lat="-3.1120760" lon="37.3545910">
    <ele>4037.5</ele>
    <time>2026-06-22T09:24:35Z</time>
   </trkpt>
   <trkpt lat="-3.1120760" lon="37.3545900">
    <ele>4037.5</ele>
    <time>2026-06-22T09:24:36Z</time>
   </trkpt>
   <trkpt lat="-3.1120760" lon="37.3545900">
    <ele>4037.5</ele>
    <time>2026-06-22T09:24:37Z</time>
   </trkpt>
   <trkpt lat="-3.1120760" lon="37.3545900">
    <ele>4037.5</ele>
    <time>2026-06-22T09:24:38Z</time>
   </trkpt>
   <trkpt lat="-3.1120760" lon="37.3545900">
    <ele>4037.5</ele>
    <time>2026-06-22T09:24:39Z</time>
   </trkpt>
   <trkpt lat="-3.1120760" lon="37.3545900">
    <ele>4037.5</ele>
    <time>2026-06-22T09:24:40Z</time>
   </trkpt>
   <trkpt lat="-3.1120760" lon="37.3545890">
    <ele>4037.5</ele>
    <time>2026-06-22T09:24:41Z</time>
   </trkpt>
   <trkpt lat="-3.1120760" lon="37.3545900">
    <ele>4037.5</ele>
    <time>2026-06-22T09:24:42Z</time>
   </trkpt>
   <trkpt lat="-3.1120760" lon="37.3545900">
    <ele>4037.5</ele>
    <time>2026-06-22T09:24:43Z</time>
   </trkpt>
   <trkpt lat="-3.1120760" lon="37.3545890">
    <ele>4037.5</ele>
    <time>2026-06-22T09:24:44Z</time>
   </trkpt>
   <trkpt lat="-3.1120760" lon="37.3545890">
    <ele>4037.5</ele>
    <time>2026-06-22T09:24:45Z</time>
   </trkpt>
   <trkpt lat="-3.1120760" lon="37.3545880">
    <ele>4037.5</ele>
    <time>2026-06-22T09:24:46Z</time>
   </trkpt>
   <trkpt lat="-3.1120760" lon="37.3545880">
    <ele>4037.5</ele>
    <time>2026-06-22T09:24:47Z</time>
   </trkpt>
   <trkpt lat="-3.1120760" lon="37.3545880">
    <ele>4037.5</ele>
    <time>2026-06-22T09:24:48Z</time>
   </trkpt>
   <trkpt lat="-3.1120770" lon="37.3545890">
    <ele>4037.5</ele>
    <time>2026-06-22T09:24:49Z</time>
   </trkpt>
   <trkpt lat="-3.1120770" lon="37.3545880">
    <ele>4037.5</ele>
    <time>2026-06-22T09:24:50Z</time>
   </trkpt>
   <trkpt lat="-3.1120760" lon="37.3545890">
    <ele>4037.5</ele>
    <time>2026-06-22T09:24:51Z</time>
   </trkpt>
   <trkpt lat="-3.1120760" lon="37.3545880">
    <ele>4037.5</ele>
    <time>2026-06-22T09:24:52Z</time>
   </trkpt>
   <trkpt lat="-3.1120760" lon="37.3545880">
    <ele>4037.5</ele>
    <time>2026-06-22T09:24:53Z</time>
   </trkpt>
   <trkpt lat="-3.1120760" lon="37.3545880">
    <ele>4037.5</ele>
    <time>2026-06-22T09:24:54Z</time>
   </trkpt>
   <trkpt lat="-3.1120740" lon="37.3545900">
    <ele>4037.6</ele>
    <time>2026-06-22T09:24:55Z</time>
   </trkpt>
   <trkpt lat="-3.1120740" lon="37.3545890">
    <ele>4037.6</ele>
    <time>2026-06-22T09:24:56Z</time>
   </trkpt>
   <trkpt lat="-3.1120730" lon="37.3545900">
    <ele>4037.6</ele>
    <time>2026-06-22T09:24:57Z</time>
   </trkpt>
   <trkpt lat="-3.1120730" lon="37.3545890">
    <ele>4037.6</ele>
    <time>2026-06-22T09:24:58Z</time>
   </trkpt>
   <trkpt lat="-3.1120720" lon="37.3545890">
    <ele>4037.6</ele>
    <time>2026-06-22T09:24:59Z</time>
   </trkpt>
   <trkpt lat="-3.1120720" lon="37.3545890">
    <ele>4037.6</ele>
    <time>2026-06-22T09:25:00Z</time>
   </trkpt>
   <trkpt lat="-3.1120720" lon="37.3545890">
    <ele>4037.6</ele>
    <time>2026-06-22T09:25:01Z</time>
   </trkpt>
   <trkpt lat="-3.1120720" lon="37.3545880">
    <ele>4037.6</ele>
    <time>2026-06-22T09:25:02Z</time>
   </trkpt>
   <trkpt lat="-3.1120710" lon="37.3545880">
    <ele>4037.6</ele>
    <time>2026-06-22T09:25:03Z</time>
   </trkpt>
   <trkpt lat="-3.1120710" lon="37.3545880">
    <ele>4037.6</ele>
    <time>2026-06-22T09:25:04Z</time>
   </trkpt>
   <trkpt lat="-3.1120720" lon="37.3545880">
    <ele>4037.6</ele>
    <time>2026-06-22T09:25:05Z</time>
   </trkpt>
   <trkpt lat="-3.1120730" lon="37.3545890">
    <ele>4037.6</ele>
    <time>2026-06-22T09:25:07Z</time>
   </trkpt>
   <trkpt lat="-3.1120720" lon="37.3545890">
    <ele>4037.6</ele>
    <time>2026-06-22T09:25:08Z</time>
   </trkpt>
   <trkpt lat="-3.1120700" lon="37.3545880">
    <ele>4037.7</ele>
    <time>2026-06-22T09:25:09Z</time>
   </trkpt>
   <trkpt lat="-3.1120720" lon="37.3545900">
    <ele>4037.7</ele>
    <time>2026-06-22T09:25:10Z</time>
   </trkpt>
   <trkpt lat="-3.1120730" lon="37.3545900">
    <ele>4037.7</ele>
    <time>2026-06-22T09:25:11Z</time>
   </trkpt>
   <trkpt lat="-3.1120730" lon="37.3545890">
    <ele>4037.7</ele>
    <time>2026-06-22T09:25:12Z</time>
   </trkpt>
   <trkpt lat="-3.1120740" lon="37.3545880">
    <ele>4037.7</ele>
    <time>2026-06-22T09:25:13Z</time>
   </trkpt>
   <trkpt lat="-3.1120750" lon="37.3545850">
    <ele>4037.7</ele>
    <time>2026-06-22T09:25:14Z</time>
   </trkpt>
   <trkpt lat="-3.1120750" lon="37.3545850">
    <ele>4037.7</ele>
    <time>2026-06-22T09:25:15Z</time>
   </trkpt>
   <trkpt lat="-3.1120750" lon="37.3545850">
    <ele>4037.7</ele>
    <time>2026-06-22T09:25:16Z</time>
   </trkpt>
   <trkpt lat="-3.1120750" lon="37.3545850">
    <ele>4037.7</ele>
    <time>2026-06-22T09:25:17Z</time>
   </trkpt>
   <trkpt lat="-3.1120670" lon="37.3545820">
    <ele>4037.8</ele>
    <time>2026-06-22T09:25:18Z</time>
   </trkpt>
   <trkpt lat="-3.1120660" lon="37.3545810">
    <ele>4037.8</ele>
    <time>2026-06-22T09:25:19Z</time>
   </trkpt>
   <trkpt lat="-3.1120660" lon="37.3545810">
    <ele>4037.8</ele>
    <time>2026-06-22T09:25:20Z</time>
   </trkpt>
   <trkpt lat="-3.1120640" lon="37.3545810">
    <ele>4037.8</ele>
    <time>2026-06-22T09:25:21Z</time>
   </trkpt>
   <trkpt lat="-3.1120650" lon="37.3545810">
    <ele>4037.8</ele>
    <time>2026-06-22T09:25:22Z</time>
   </trkpt>
   <trkpt lat="-3.1120650" lon="37.3545810">
    <ele>4037.8</ele>
    <time>2026-06-22T09:25:23Z</time>
   </trkpt>
   <trkpt lat="-3.1120680" lon="37.3545820">
    <ele>4037.9</ele>
    <time>2026-06-22T09:25:24Z</time>
   </trkpt>
   <trkpt lat="-3.1120690" lon="37.3545830">
    <ele>4037.9</ele>
    <time>2026-06-22T09:25:25Z</time>
   </trkpt>
   <trkpt lat="-3.1120690" lon="37.3545820">
    <ele>4037.9</ele>
    <time>2026-06-22T09:25:26Z</time>
   </trkpt>
   <trkpt lat="-3.1120710" lon="37.3545830">
    <ele>4037.9</ele>
    <time>2026-06-22T09:25:27Z</time>
   </trkpt>
   <trkpt lat="-3.1120710" lon="37.3545830">
    <ele>4037.9</ele>
    <time>2026-06-22T09:25:28Z</time>
   </trkpt>
   <trkpt lat="-3.1120710" lon="37.3545830">
    <ele>4037.9</ele>
    <time>2026-06-22T09:25:29Z</time>
   </trkpt>
   <trkpt lat="-3.1120710" lon="37.3545830">
    <ele>4037.9</ele>
    <time>2026-06-22T09:25:30Z</time>
   </trkpt>
   <trkpt lat="-3.1120710" lon="37.3545830">
    <ele>4037.9</ele>
    <time>2026-06-22T09:25:31Z</time>
   </trkpt>
   <trkpt lat="-3.1120710" lon="37.3545830">
    <ele>4037.9</ele>
    <time>2026-06-22T09:25:32Z</time>
   </trkpt>
   <trkpt lat="-3.1120710" lon="37.3545830">
    <ele>4037.9</ele>
    <time>2026-06-22T09:25:33Z</time>
   </trkpt>
   <trkpt lat="-3.1120710" lon="37.3545830">
    <ele>4037.9</ele>
    <time>2026-06-22T09:25:34Z</time>
   </trkpt>
   <trkpt lat="-3.1120710" lon="37.3545830">
    <ele>4037.9</ele>
    <time>2026-06-22T09:25:35Z</time>
   </trkpt>
   <trkpt lat="-3.1120710" lon="37.3545830">
    <ele>4037.9</ele>
    <time>2026-06-22T09:25:36Z</time>
   </trkpt>
   <trkpt lat="-3.1120710" lon="37.3545830">
    <ele>4037.9</ele>
    <time>2026-06-22T09:25:37Z</time>
   </trkpt>
   <trkpt lat="-3.1120710" lon="37.3545830">
    <ele>4037.9</ele>
    <time>2026-06-22T09:25:38Z</time>
   </trkpt>
   <trkpt lat="-3.1120710" lon="37.3545830">
    <ele>4037.9</ele>
    <time>2026-06-22T09:25:39Z</time>
   </trkpt>
   <trkpt lat="-3.1120710" lon="37.3545870">
    <ele>4037.9</ele>
    <time>2026-06-22T09:25:40Z</time>
   </trkpt>
   <trkpt lat="-3.1120710" lon="37.3545870">
    <ele>4037.9</ele>
    <time>2026-06-22T09:25:41Z</time>
   </trkpt>
   <trkpt lat="-3.1120710" lon="37.3545870">
    <ele>4037.9</ele>
    <time>2026-06-22T09:25:42Z</time>
   </trkpt>
   <trkpt lat="-3.1120710" lon="37.3545880">
    <ele>4037.9</ele>
    <time>2026-06-22T09:25:43Z</time>
   </trkpt>
   <trkpt lat="-3.1120700" lon="37.3545880">
    <ele>4037.9</ele>
    <time>2026-06-22T09:25:44Z</time>
   </trkpt>
   <trkpt lat="-3.1120710" lon="37.3545880">
    <ele>4038.0</ele>
    <time>2026-06-22T09:25:45Z</time>
   </trkpt>
   <trkpt lat="-3.1120710" lon="37.3545870">
    <ele>4038.0</ele>
    <time>2026-06-22T09:25:46Z</time>
   </trkpt>
   <trkpt lat="-3.1120710" lon="37.3545870">
    <ele>4038.0</ele>
    <time>2026-06-22T09:25:47Z</time>
   </trkpt>
   <trkpt lat="-3.1120710" lon="37.3545870">
    <ele>4038.0</ele>
    <time>2026-06-22T09:25:48Z</time>
   </trkpt>
   <trkpt lat="-3.1120730" lon="37.3545880">
    <ele>4038.0</ele>
    <time>2026-06-22T09:25:49Z</time>
   </trkpt>
   <trkpt lat="-3.1120730" lon="37.3545880">
    <ele>4038.0</ele>
    <time>2026-06-22T09:25:50Z</time>
   </trkpt>
   <trkpt lat="-3.1120720" lon="37.3545870">
    <ele>4038.0</ele>
    <time>2026-06-22T09:25:51Z</time>
   </trkpt>
   <trkpt lat="-3.1120720" lon="37.3545870">
    <ele>4038.0</ele>
    <time>2026-06-22T09:25:52Z</time>
   </trkpt>
   <trkpt lat="-3.1120720" lon="37.3545870">
    <ele>4038.0</ele>
    <time>2026-06-22T09:25:53Z</time>
   </trkpt>
   <trkpt lat="-3.1120730" lon="37.3545860">
    <ele>4038.0</ele>
    <time>2026-06-22T09:25:54Z</time>
   </trkpt>
   <trkpt lat="-3.1120730" lon="37.3545860">
    <ele>4038.0</ele>
    <time>2026-06-22T09:25:55Z</time>
   </trkpt>
   <trkpt lat="-3.1120730" lon="37.3545860">
    <ele>4038.0</ele>
    <time>2026-06-22T09:25:56Z</time>
   </trkpt>
   <trkpt lat="-3.1120730" lon="37.3545860">
    <ele>4038.0</ele>
    <time>2026-06-22T09:25:57Z</time>
   </trkpt>
   <trkpt lat="-3.1120730" lon="37.3545860">
    <ele>4038.0</ele>
    <time>2026-06-22T09:25:58Z</time>
   </trkpt>
   <trkpt lat="-3.1120720" lon="37.3545870">
    <ele>4038.0</ele>
    <time>2026-06-22T09:25:59Z</time>
   </trkpt>
   <trkpt lat="-3.1120720" lon="37.3545870">
    <ele>4038.0</ele>
    <time>2026-06-22T09:26:00Z</time>
   </trkpt>
   <trkpt lat="-3.1120720" lon="37.3545870">
    <ele>4038.0</ele>
    <time>2026-06-22T09:26:01Z</time>
   </trkpt>
   <trkpt lat="-3.1120720" lon="37.3545870">
    <ele>4038.0</ele>
    <time>2026-06-22T09:26:02Z</time>
   </trkpt>
   <trkpt lat="-3.1120720" lon="37.3545870">
    <ele>4038.0</ele>
    <time>2026-06-22T09:26:03Z</time>
   </trkpt>
   <trkpt lat="-3.1120730" lon="37.3545880">
    <ele>4038.0</ele>
    <time>2026-06-22T09:26:04Z</time>
   </trkpt>
   <trkpt lat="-3.1120730" lon="37.3545880">
    <ele>4038.0</ele>
    <time>2026-06-22T09:26:05Z</time>
   </trkpt>
   <trkpt lat="-3.1120730" lon="37.3545880">
    <ele>4038.0</ele>
    <time>2026-06-22T09:26:06Z</time>
   </trkpt>
   <trkpt lat="-3.1120730" lon="37.3545860">
    <ele>4038.0</ele>
    <time>2026-06-22T09:26:07Z</time>
   </trkpt>
   <trkpt lat="-3.1120730" lon="37.3545860">
    <ele>4038.0</ele>
    <time>2026-06-22T09:26:08Z</time>
   </trkpt>
   <trkpt lat="-3.1120740" lon="37.3545850">
    <ele>4038.1</ele>
    <time>2026-06-22T09:26:09Z</time>
   </trkpt>
   <trkpt lat="-3.1120740" lon="37.3545850">
    <ele>4038.1</ele>
    <time>2026-06-22T09:26:10Z</time>
   </trkpt>
   <trkpt lat="-3.1120740" lon="37.3545850">
    <ele>4038.1</ele>
    <time>2026-06-22T09:26:11Z</time>
   </trkpt>
   <trkpt lat="-3.1120740" lon="37.3545860">
    <ele>4038.1</ele>
    <time>2026-06-22T09:26:12Z</time>
   </trkpt>
   <trkpt lat="-3.1120740" lon="37.3545860">
    <ele>4038.1</ele>
    <time>2026-06-22T09:26:13Z</time>
   </trkpt>
   <trkpt lat="-3.1120740" lon="37.3545860">
    <ele>4038.1</ele>
    <time>2026-06-22T09:26:14Z</time>
   </trkpt>
   <trkpt lat="-3.1120740" lon="37.3545860">
    <ele>4038.1</ele>
    <time>2026-06-22T09:26:15Z</time>
   </trkpt>
   <trkpt lat="-3.1120740" lon="37.3545860">
    <ele>4038.1</ele>
    <time>2026-06-22T09:26:16Z</time>
   </trkpt>
   <trkpt lat="-3.1120740" lon="37.3545860">
    <ele>4038.1</ele>
    <time>2026-06-22T09:26:17Z</time>
   </trkpt>
   <trkpt lat="-3.1120740" lon="37.3545860">
    <ele>4038.1</ele>
    <time>2026-06-22T09:26:18Z</time>
   </trkpt>
   <trkpt lat="-3.1120740" lon="37.3545860">
    <ele>4038.1</ele>
    <time>2026-06-22T09:26:19Z</time>
   </trkpt>
   <trkpt lat="-3.1120740" lon="37.3545860">
    <ele>4038.1</ele>
    <time>2026-06-22T09:26:20Z</time>
   </trkpt>
   <trkpt lat="-3.1120740" lon="37.3545860">
    <ele>4038.1</ele>
    <time>2026-06-22T09:26:21Z</time>
   </trkpt>
   <trkpt lat="-3.1120740" lon="37.3545860">
    <ele>4038.1</ele>
    <time>2026-06-22T09:26:22Z</time>
   </trkpt>
   <trkpt lat="-3.1120740" lon="37.3545910">
    <ele>4038.1</ele>
    <time>2026-06-22T09:26:23Z</time>
   </trkpt>
   <trkpt lat="-3.1120740" lon="37.3545910">
    <ele>4038.1</ele>
    <time>2026-06-22T09:26:24Z</time>
   </trkpt>
   <trkpt lat="-3.1120730" lon="37.3545910">
    <ele>4038.1</ele>
    <time>2026-06-22T09:26:25Z</time>
   </trkpt>
   <trkpt lat="-3.1120730" lon="37.3545920">
    <ele>4038.1</ele>
    <time>2026-06-22T09:26:26Z</time>
   </trkpt>
   <trkpt lat="-3.1120730" lon="37.3545920">
    <ele>4038.1</ele>
    <time>2026-06-22T09:26:27Z</time>
   </trkpt>
   <trkpt lat="-3.1120730" lon="37.3545920">
    <ele>4038.1</ele>
    <time>2026-06-22T09:26:28Z</time>
   </trkpt>
   <trkpt lat="-3.1120730" lon="37.3545920">
    <ele>4038.1</ele>
    <time>2026-06-22T09:26:29Z</time>
   </trkpt>
   <trkpt lat="-3.1120730" lon="37.3545920">
    <ele>4038.1</ele>
    <time>2026-06-22T09:26:30Z</time>
   </trkpt>
   <trkpt lat="-3.1120730" lon="37.3545920">
    <ele>4038.1</ele>
    <time>2026-06-22T09:26:31Z</time>
   </trkpt>
   <trkpt lat="-3.1120730" lon="37.3545920">
    <ele>4038.1</ele>
    <time>2026-06-22T09:26:32Z</time>
   </trkpt>
   <trkpt lat="-3.1120730" lon="37.3545920">
    <ele>4038.1</ele>
    <time>2026-06-22T09:26:33Z</time>
   </trkpt>
   <trkpt lat="-3.1120730" lon="37.3545920">
    <ele>4038.1</ele>
    <time>2026-06-22T09:26:34Z</time>
   </trkpt>
   <trkpt lat="-3.1120730" lon="37.3545920">
    <ele>4038.1</ele>
    <time>2026-06-22T09:26:35Z</time>
   </trkpt>
   <trkpt lat="-3.1120730" lon="37.3545920">
    <ele>4038.1</ele>
    <time>2026-06-22T09:26:36Z</time>
   </trkpt>
   <trkpt lat="-3.1120730" lon="37.3545920">
    <ele>4038.1</ele>
    <time>2026-06-22T09:26:37Z</time>
   </trkpt>
   <trkpt lat="-3.1120730" lon="37.3545920">
    <ele>4038.1</ele>
    <time>2026-06-22T09:26:38Z</time>
   </trkpt>
   <trkpt lat="-3.1120710" lon="37.3545880">
    <ele>4038.2</ele>
    <time>2026-06-22T09:26:39Z</time>
   </trkpt>
   <trkpt lat="-3.1120710" lon="37.3545890">
    <ele>4038.2</ele>
    <time>2026-06-22T09:26:40Z</time>
   </trkpt>
   <trkpt lat="-3.1120710" lon="37.3545890">
    <ele>4038.2</ele>
    <time>2026-06-22T09:26:41Z</time>
   </trkpt>
   <trkpt lat="-3.1120710" lon="37.3545890">
    <ele>4038.2</ele>
    <time>2026-06-22T09:26:42Z</time>
   </trkpt>
   <trkpt lat="-3.1120710" lon="37.3545890">
    <ele>4038.2</ele>
    <time>2026-06-22T09:26:43Z</time>
   </trkpt>
   <trkpt lat="-3.1120710" lon="37.3545890">
    <ele>4038.2</ele>
    <time>2026-06-22T09:26:44Z</time>
   </trkpt>
   <trkpt lat="-3.1120710" lon="37.3545890">
    <ele>4038.2</ele>
    <time>2026-06-22T09:26:45Z</time>
   </trkpt>
   <trkpt lat="-3.1120710" lon="37.3545890">
    <ele>4038.2</ele>
    <time>2026-06-22T09:26:46Z</time>
   </trkpt>
   <trkpt lat="-3.1120710" lon="37.3545890">
    <ele>4038.2</ele>
    <time>2026-06-22T09:26:47Z</time>
   </trkpt>
   <trkpt lat="-3.1120710" lon="37.3545890">
    <ele>4038.2</ele>
    <time>2026-06-22T09:26:48Z</time>
   </trkpt>
   <trkpt lat="-3.1120710" lon="37.3545890">
    <ele>4038.2</ele>
    <time>2026-06-22T09:26:49Z</time>
   </trkpt>
   <trkpt lat="-3.1120710" lon="37.3545890">
    <ele>4038.2</ele>
    <time>2026-06-22T09:26:50Z</time>
   </trkpt>
   <trkpt lat="-3.1120750" lon="37.3545890">
    <ele>4038.2</ele>
    <time>2026-06-22T09:26:51Z</time>
   </trkpt>
   <trkpt lat="-3.1120740" lon="37.3545890">
    <ele>4038.2</ele>
    <time>2026-06-22T09:26:52Z</time>
   </trkpt>
   <trkpt lat="-3.1120750" lon="37.3545890">
    <ele>4038.2</ele>
    <time>2026-06-22T09:26:53Z</time>
   </trkpt>
   <trkpt lat="-3.1120740" lon="37.3545880">
    <ele>4038.2</ele>
    <time>2026-06-22T09:26:54Z</time>
   </trkpt>
   <trkpt lat="-3.1120720" lon="37.3545890">
    <ele>4038.2</ele>
    <time>2026-06-22T09:26:55Z</time>
   </trkpt>
   <trkpt lat="-3.1120720" lon="37.3545890">
    <ele>4038.2</ele>
    <time>2026-06-22T09:26:56Z</time>
   </trkpt>
   <trkpt lat="-3.1120720" lon="37.3545880">
    <ele>4038.2</ele>
    <time>2026-06-22T09:26:57Z</time>
   </trkpt>
   <trkpt lat="-3.1120740" lon="37.3545890">
    <ele>4038.3</ele>
    <time>2026-06-22T09:26:58Z</time>
   </trkpt>
   <trkpt lat="-3.1120770" lon="37.3545910">
    <ele>4038.3</ele>
    <time>2026-06-22T09:26:59Z</time>
   </trkpt>
   <trkpt lat="-3.1120800" lon="37.3545900">
    <ele>4038.3</ele>
    <time>2026-06-22T09:27:00Z</time>
   </trkpt>
   <trkpt lat="-3.1120810" lon="37.3545910">
    <ele>4038.3</ele>
    <time>2026-06-22T09:27:01Z</time>
   </trkpt>
   <trkpt lat="-3.1120810" lon="37.3545920">
    <ele>4038.3</ele>
    <time>2026-06-22T09:27:02Z</time>
   </trkpt>
   <trkpt lat="-3.1120820" lon="37.3545910">
    <ele>4038.3</ele>
    <time>2026-06-22T09:27:03Z</time>
   </trkpt>
   <trkpt lat="-3.1120810" lon="37.3545890">
    <ele>4038.4</ele>
    <time>2026-06-22T09:27:04Z</time>
   </trkpt>
   <trkpt lat="-3.1120820" lon="37.3545890">
    <ele>4038.4</ele>
    <time>2026-06-22T09:27:05Z</time>
   </trkpt>
   <trkpt lat="-3.1120830" lon="37.3545890">
    <ele>4038.4</ele>
    <time>2026-06-22T09:27:06Z</time>
   </trkpt>
   <trkpt lat="-3.1120830" lon="37.3545880">
    <ele>4038.4</ele>
    <time>2026-06-22T09:27:07Z</time>
   </trkpt>
   <trkpt lat="-3.1120820" lon="37.3545870">
    <ele>4038.4</ele>
    <time>2026-06-22T09:27:08Z</time>
   </trkpt>
   <trkpt lat="-3.1120820" lon="37.3545880">
    <ele>4038.4</ele>
    <time>2026-06-22T09:27:09Z</time>
   </trkpt>
   <trkpt lat="-3.1120840" lon="37.3545870">
    <ele>4038.4</ele>
    <time>2026-06-22T09:27:10Z</time>
   </trkpt>
   <trkpt lat="-3.1120840" lon="37.3545870">
    <ele>4038.4</ele>
    <time>2026-06-22T09:27:11Z</time>
   </trkpt>
   <trkpt lat="-3.1120840" lon="37.3545870">
    <ele>4038.4</ele>
    <time>2026-06-22T09:27:13Z</time>
   </trkpt>
   <trkpt lat="-3.1120840" lon="37.3545870">
    <ele>4038.4</ele>
    <time>2026-06-22T09:27:14Z</time>
   </trkpt>
   <trkpt lat="-3.1120840" lon="37.3545860">
    <ele>4038.4</ele>
    <time>2026-06-22T09:27:15Z</time>
   </trkpt>
   <trkpt lat="-3.1120840" lon="37.3545870">
    <ele>4038.4</ele>
    <time>2026-06-22T09:27:16Z</time>
   </trkpt>
   <trkpt lat="-3.1120840" lon="37.3545880">
    <ele>4038.4</ele>
    <time>2026-06-22T09:27:17Z</time>
   </trkpt>
   <trkpt lat="-3.1120840" lon="37.3545870">
    <ele>4038.5</ele>
    <time>2026-06-22T09:27:18Z</time>
   </trkpt>
   <trkpt lat="-3.1120840" lon="37.3545880">
    <ele>4038.5</ele>
    <time>2026-06-22T09:27:19Z</time>
   </trkpt>
   <trkpt lat="-3.1120840" lon="37.3545870">
    <ele>4038.5</ele>
    <time>2026-06-22T09:27:20Z</time>
   </trkpt>
   <trkpt lat="-3.1120840" lon="37.3545880">
    <ele>4038.5</ele>
    <time>2026-06-22T09:27:21Z</time>
   </trkpt>
   <trkpt lat="-3.1120840" lon="37.3545880">
    <ele>4038.5</ele>
    <time>2026-06-22T09:27:22Z</time>
   </trkpt>
   <trkpt lat="-3.1120840" lon="37.3545880">
    <ele>4038.5</ele>
    <time>2026-06-22T09:27:23Z</time>
   </trkpt>
   <trkpt lat="-3.1120840" lon="37.3545880">
    <ele>4038.5</ele>
    <time>2026-06-22T09:27:24Z</time>
   </trkpt>
   <trkpt lat="-3.1120890" lon="37.3545900">
    <ele>4038.5</ele>
    <time>2026-06-22T09:27:25Z</time>
   </trkpt>
   <trkpt lat="-3.1120880" lon="37.3545900">
    <ele>4038.5</ele>
    <time>2026-06-22T09:27:26Z</time>
   </trkpt>
   <trkpt lat="-3.1120880" lon="37.3545890">
    <ele>4038.5</ele>
    <time>2026-06-22T09:27:27Z</time>
   </trkpt>
   <trkpt lat="-3.1120880" lon="37.3545880">
    <ele>4038.5</ele>
    <time>2026-06-22T09:27:28Z</time>
   </trkpt>
   <trkpt lat="-3.1120890" lon="37.3545900">
    <ele>4038.6</ele>
    <time>2026-06-22T09:27:29Z</time>
   </trkpt>
   <trkpt lat="-3.1120940" lon="37.3545860">
    <ele>4038.6</ele>
    <time>2026-06-22T09:27:30Z</time>
   </trkpt>
   <trkpt lat="-3.1120960" lon="37.3545820">
    <ele>4038.7</ele>
    <time>2026-06-22T09:27:31Z</time>
   </trkpt>
   <trkpt lat="-3.1120970" lon="37.3545820">
    <ele>4038.7</ele>
    <time>2026-06-22T09:27:32Z</time>
   </trkpt>
   <trkpt lat="-3.1120940" lon="37.3545850">
    <ele>4038.7</ele>
    <time>2026-06-22T09:27:33Z</time>
   </trkpt>
   <trkpt lat="-3.1121070" lon="37.3545810">
    <ele>4038.8</ele>
    <time>2026-06-22T09:27:34Z</time>
   </trkpt>
   <trkpt lat="-3.1121020" lon="37.3545800">
    <ele>4038.8</ele>
    <time>2026-06-22T09:27:35Z</time>
   </trkpt>
   <trkpt lat="-3.1121050" lon="37.3545810">
    <ele>4038.9</ele>
    <time>2026-06-22T09:27:36Z</time>
   </trkpt>
   <trkpt lat="-3.1121030" lon="37.3545800">
    <ele>4038.9</ele>
    <time>2026-06-22T09:27:37Z</time>
   </trkpt>
   <trkpt lat="-3.1121040" lon="37.3545800">
    <ele>4038.9</ele>
    <time>2026-06-22T09:27:38Z</time>
   </trkpt>
   <trkpt lat="-3.1121030" lon="37.3545780">
    <ele>4038.9</ele>
    <time>2026-06-22T09:27:39Z</time>
   </trkpt>
   <trkpt lat="-3.1121030" lon="37.3545780">
    <ele>4038.9</ele>
    <time>2026-06-22T09:27:40Z</time>
   </trkpt>
   <trkpt lat="-3.1121020" lon="37.3545780">
    <ele>4038.9</ele>
    <time>2026-06-22T09:27:41Z</time>
   </trkpt>
   <trkpt lat="-3.1121060" lon="37.3545790">
    <ele>4038.9</ele>
    <time>2026-06-22T09:27:42Z</time>
   </trkpt>
   <trkpt lat="-3.1121040" lon="37.3545800">
    <ele>4039.0</ele>
    <time>2026-06-22T09:27:43Z</time>
   </trkpt>
   <trkpt lat="-3.1121040" lon="37.3545870">
    <ele>4039.0</ele>
    <time>2026-06-22T09:27:44Z</time>
   </trkpt>
   <trkpt lat="-3.1121020" lon="37.3545920">
    <ele>4039.1</ele>
    <time>2026-06-22T09:27:45Z</time>
   </trkpt>
   <trkpt lat="-3.1121020" lon="37.3545890">
    <ele>4039.1</ele>
    <time>2026-06-22T09:27:46Z</time>
   </trkpt>
   <trkpt lat="-3.1121030" lon="37.3545880">
    <ele>4039.1</ele>
    <time>2026-06-22T09:27:47Z</time>
   </trkpt>
   <trkpt lat="-3.1121020" lon="37.3545900">
    <ele>4039.1</ele>
    <time>2026-06-22T09:27:48Z</time>
   </trkpt>
   <trkpt lat="-3.1121020" lon="37.3545890">
    <ele>4039.1</ele>
    <time>2026-06-22T09:27:49Z</time>
   </trkpt>
   <trkpt lat="-3.1121040" lon="37.3545870">
    <ele>4039.1</ele>
    <time>2026-06-22T09:27:50Z</time>
   </trkpt>
   <trkpt lat="-3.1121030" lon="37.3545860">
    <ele>4039.2</ele>
    <time>2026-06-22T09:27:51Z</time>
   </trkpt>
   <trkpt lat="-3.1121030" lon="37.3545860">
    <ele>4039.2</ele>
    <time>2026-06-22T09:27:52Z</time>
   </trkpt>
   <trkpt lat="-3.1121040" lon="37.3545840">
    <ele>4039.2</ele>
    <time>2026-06-22T09:27:53Z</time>
   </trkpt>
   <trkpt lat="-3.1121040" lon="37.3545840">
    <ele>4039.2</ele>
    <time>2026-06-22T09:27:54Z</time>
   </trkpt>
   <trkpt lat="-3.1121030" lon="37.3545840">
    <ele>4039.2</ele>
    <time>2026-06-22T09:27:55Z</time>
   </trkpt>
   <trkpt lat="-3.1121030" lon="37.3545850">
    <ele>4039.2</ele>
    <time>2026-06-22T09:27:56Z</time>
   </trkpt>
   <trkpt lat="-3.1121030" lon="37.3545840">
    <ele>4039.2</ele>
    <time>2026-06-22T09:27:57Z</time>
   </trkpt>
   <trkpt lat="-3.1121020" lon="37.3545850">
    <ele>4039.2</ele>
    <time>2026-06-22T09:27:58Z</time>
   </trkpt>
   <trkpt lat="-3.1121010" lon="37.3545840">
    <ele>4039.2</ele>
    <time>2026-06-22T09:27:59Z</time>
   </trkpt>
   <trkpt lat="-3.1121020" lon="37.3545860">
    <ele>4039.2</ele>
    <time>2026-06-22T09:28:00Z</time>
   </trkpt>
   <trkpt lat="-3.1121040" lon="37.3545910">
    <ele>4039.3</ele>
    <time>2026-06-22T09:28:01Z</time>
   </trkpt>
   <trkpt lat="-3.1121040" lon="37.3545910">
    <ele>4039.3</ele>
    <time>2026-06-22T09:28:02Z</time>
   </trkpt>
   <trkpt lat="-3.1121040" lon="37.3545910">
    <ele>4039.3</ele>
    <time>2026-06-22T09:28:03Z</time>
   </trkpt>
   <trkpt lat="-3.1121070" lon="37.3545870">
    <ele>4039.3</ele>
    <time>2026-06-22T09:28:04Z</time>
   </trkpt>
   <trkpt lat="-3.1121080" lon="37.3545860">
    <ele>4039.3</ele>
    <time>2026-06-22T09:28:05Z</time>
   </trkpt>
   <trkpt lat="-3.1121070" lon="37.3545850">
    <ele>4039.4</ele>
    <time>2026-06-22T09:28:06Z</time>
   </trkpt>
   <trkpt lat="-3.1121070" lon="37.3545850">
    <ele>4039.4</ele>
    <time>2026-06-22T09:28:07Z</time>
   </trkpt>
   <trkpt lat="-3.1121070" lon="37.3545850">
    <ele>4039.4</ele>
    <time>2026-06-22T09:28:08Z</time>
   </trkpt>
   <trkpt lat="-3.1121090" lon="37.3545860">
    <ele>4039.4</ele>
    <time>2026-06-22T09:28:09Z</time>
   </trkpt>
   <trkpt lat="-3.1121090" lon="37.3545860">
    <ele>4039.4</ele>
    <time>2026-06-22T09:28:10Z</time>
   </trkpt>
   <trkpt lat="-3.1121090" lon="37.3545860">
    <ele>4039.4</ele>
    <time>2026-06-22T09:28:11Z</time>
   </trkpt>
   <trkpt lat="-3.1121090" lon="37.3545860">
    <ele>4039.4</ele>
    <time>2026-06-22T09:28:12Z</time>
   </trkpt>
   <trkpt lat="-3.1121090" lon="37.3545840">
    <ele>4039.4</ele>
    <time>2026-06-22T09:28:13Z</time>
   </trkpt>
   <trkpt lat="-3.1121090" lon="37.3545840">
    <ele>4039.4</ele>
    <time>2026-06-22T09:28:14Z</time>
   </trkpt>
   <trkpt lat="-3.1121090" lon="37.3545850">
    <ele>4039.4</ele>
    <time>2026-06-22T09:28:15Z</time>
   </trkpt>
   <trkpt lat="-3.1121110" lon="37.3545850">
    <ele>4039.4</ele>
    <time>2026-06-22T09:28:16Z</time>
   </trkpt>
   <trkpt lat="-3.1121110" lon="37.3545850">
    <ele>4039.4</ele>
    <time>2026-06-22T09:28:17Z</time>
   </trkpt>
   <trkpt lat="-3.1121110" lon="37.3545850">
    <ele>4039.4</ele>
    <time>2026-06-22T09:28:18Z</time>
   </trkpt>
   <trkpt lat="-3.1121100" lon="37.3545850">
    <ele>4039.4</ele>
    <time>2026-06-22T09:28:19Z</time>
   </trkpt>
   <trkpt lat="-3.1121090" lon="37.3545850">
    <ele>4039.4</ele>
    <time>2026-06-22T09:28:20Z</time>
   </trkpt>
   <trkpt lat="-3.1121090" lon="37.3545840">
    <ele>4039.4</ele>
    <time>2026-06-22T09:28:21Z</time>
   </trkpt>
   <trkpt lat="-3.1121100" lon="37.3545840">
    <ele>4039.4</ele>
    <time>2026-06-22T09:28:22Z</time>
   </trkpt>
   <trkpt lat="-3.1121100" lon="37.3545840">
    <ele>4039.4</ele>
    <time>2026-06-22T09:28:23Z</time>
   </trkpt>
   <trkpt lat="-3.1121100" lon="37.3545840">
    <ele>4039.4</ele>
    <time>2026-06-22T09:28:24Z</time>
   </trkpt>
   <trkpt lat="-3.1121090" lon="37.3545840">
    <ele>4039.4</ele>
    <time>2026-06-22T09:28:25Z</time>
   </trkpt>
   <trkpt lat="-3.1121070" lon="37.3545830">
    <ele>4039.5</ele>
    <time>2026-06-22T09:28:26Z</time>
   </trkpt>
   <trkpt lat="-3.1121070" lon="37.3545830">
    <ele>4039.5</ele>
    <time>2026-06-22T09:28:27Z</time>
   </trkpt>
   <trkpt lat="-3.1121060" lon="37.3545840">
    <ele>4039.5</ele>
    <time>2026-06-22T09:28:28Z</time>
   </trkpt>
   <trkpt lat="-3.1121070" lon="37.3545830">
    <ele>4039.5</ele>
    <time>2026-06-22T09:28:29Z</time>
   </trkpt>
   <trkpt lat="-3.1121080" lon="37.3545830">
    <ele>4039.5</ele>
    <time>2026-06-22T09:28:30Z</time>
   </trkpt>
   <trkpt lat="-3.1121080" lon="37.3545830">
    <ele>4039.5</ele>
    <time>2026-06-22T09:28:31Z</time>
   </trkpt>
   <trkpt lat="-3.1121080" lon="37.3545820">
    <ele>4039.5</ele>
    <time>2026-06-22T09:28:32Z</time>
   </trkpt>
   <trkpt lat="-3.1121070" lon="37.3545810">
    <ele>4039.5</ele>
    <time>2026-06-22T09:28:33Z</time>
   </trkpt>
   <trkpt lat="-3.1121030" lon="37.3545830">
    <ele>4039.6</ele>
    <time>2026-06-22T09:28:34Z</time>
   </trkpt>
   <trkpt lat="-3.1121020" lon="37.3545820">
    <ele>4039.6</ele>
    <time>2026-06-22T09:28:35Z</time>
   </trkpt>
   <trkpt lat="-3.1121020" lon="37.3545820">
    <ele>4039.6</ele>
    <time>2026-06-22T09:28:36Z</time>
   </trkpt>
   <trkpt lat="-3.1121020" lon="37.3545830">
    <ele>4039.6</ele>
    <time>2026-06-22T09:28:37Z</time>
   </trkpt>
   <trkpt lat="-3.1121030" lon="37.3545840">
    <ele>4039.6</ele>
    <time>2026-06-22T09:28:38Z</time>
   </trkpt>
   <trkpt lat="-3.1121020" lon="37.3545840">
    <ele>4039.6</ele>
    <time>2026-06-22T09:28:39Z</time>
   </trkpt>
   <trkpt lat="-3.1121030" lon="37.3545840">
    <ele>4039.6</ele>
    <time>2026-06-22T09:28:40Z</time>
   </trkpt>
   <trkpt lat="-3.1121020" lon="37.3545850">
    <ele>4039.6</ele>
    <time>2026-06-22T09:28:41Z</time>
   </trkpt>
   <trkpt lat="-3.1121020" lon="37.3545860">
    <ele>4039.6</ele>
    <time>2026-06-22T09:28:42Z</time>
   </trkpt>
   <trkpt lat="-3.1121030" lon="37.3545850">
    <ele>4039.6</ele>
    <time>2026-06-22T09:28:43Z</time>
   </trkpt>
   <trkpt lat="-3.1121030" lon="37.3545860">
    <ele>4039.6</ele>
    <time>2026-06-22T09:28:44Z</time>
   </trkpt>
   <trkpt lat="-3.1121030" lon="37.3545860">
    <ele>4039.6</ele>
    <time>2026-06-22T09:28:45Z</time>
   </trkpt>
   <trkpt lat="-3.1121020" lon="37.3545860">
    <ele>4039.7</ele>
    <time>2026-06-22T09:28:46Z</time>
   </trkpt>
   <trkpt lat="-3.1121030" lon="37.3545850">
    <ele>4039.7</ele>
    <time>2026-06-22T09:28:47Z</time>
   </trkpt>
   <trkpt lat="-3.1121030" lon="37.3545850">
    <ele>4039.7</ele>
    <time>2026-06-22T09:28:48Z</time>
   </trkpt>
   <trkpt lat="-3.1121020" lon="37.3545850">
    <ele>4039.7</ele>
    <time>2026-06-22T09:28:49Z</time>
   </trkpt>
   <trkpt lat="-3.1121020" lon="37.3545840">
    <ele>4039.7</ele>
    <time>2026-06-22T09:28:50Z</time>
   </trkpt>
   <trkpt lat="-3.1121020" lon="37.3545840">
    <ele>4039.7</ele>
    <time>2026-06-22T09:28:51Z</time>
   </trkpt>
   <trkpt lat="-3.1121020" lon="37.3545840">
    <ele>4039.7</ele>
    <time>2026-06-22T09:28:52Z</time>
   </trkpt>
   <trkpt lat="-3.1121020" lon="37.3545840">
    <ele>4039.7</ele>
    <time>2026-06-22T09:28:53Z</time>
   </trkpt>
   <trkpt lat="-3.1121030" lon="37.3545840">
    <ele>4039.7</ele>
    <time>2026-06-22T09:28:54Z</time>
   </trkpt>
   <trkpt lat="-3.1121030" lon="37.3545850">
    <ele>4039.7</ele>
    <time>2026-06-22T09:28:55Z</time>
   </trkpt>
   <trkpt lat="-3.1121010" lon="37.3545850">
    <ele>4039.7</ele>
    <time>2026-06-22T09:28:56Z</time>
   </trkpt>
   <trkpt lat="-3.1121010" lon="37.3545860">
    <ele>4039.7</ele>
    <time>2026-06-22T09:28:57Z</time>
   </trkpt>
   <trkpt lat="-3.1121010" lon="37.3545850">
    <ele>4039.7</ele>
    <time>2026-06-22T09:28:58Z</time>
   </trkpt>
   <trkpt lat="-3.1121000" lon="37.3545860">
    <ele>4039.7</ele>
    <time>2026-06-22T09:28:59Z</time>
   </trkpt>
   <trkpt lat="-3.1121000" lon="37.3545860">
    <ele>4039.7</ele>
    <time>2026-06-22T09:29:00Z</time>
   </trkpt>
   <trkpt lat="-3.1120990" lon="37.3545860">
    <ele>4039.7</ele>
    <time>2026-06-22T09:29:01Z</time>
   </trkpt>
   <trkpt lat="-3.1121000" lon="37.3545880">
    <ele>4039.8</ele>
    <time>2026-06-22T09:29:02Z</time>
   </trkpt>
   <trkpt lat="-3.1121000" lon="37.3545880">
    <ele>4039.8</ele>
    <time>2026-06-22T09:29:03Z</time>
   </trkpt>
   <trkpt lat="-3.1121010" lon="37.3545910">
    <ele>4039.8</ele>
    <time>2026-06-22T09:29:04Z</time>
   </trkpt>
   <trkpt lat="-3.1121000" lon="37.3545910">
    <ele>4039.8</ele>
    <time>2026-06-22T09:29:05Z</time>
   </trkpt>
   <trkpt lat="-3.1121000" lon="37.3545920">
    <ele>4039.8</ele>
    <time>2026-06-22T09:29:06Z</time>
   </trkpt>
   <trkpt lat="-3.1121000" lon="37.3545910">
    <ele>4039.8</ele>
    <time>2026-06-22T09:29:07Z</time>
   </trkpt>
   <trkpt lat="-3.1121000" lon="37.3545920">
    <ele>4039.8</ele>
    <time>2026-06-22T09:29:08Z</time>
   </trkpt>
   <trkpt lat="-3.1121010" lon="37.3545920">
    <ele>4039.8</ele>
    <time>2026-06-22T09:29:09Z</time>
   </trkpt>
   <trkpt lat="-3.1120990" lon="37.3545910">
    <ele>4039.8</ele>
    <time>2026-06-22T09:29:10Z</time>
   </trkpt>
   <trkpt lat="-3.1120990" lon="37.3545900">
    <ele>4039.9</ele>
    <time>2026-06-22T09:29:11Z</time>
   </trkpt>
   <trkpt lat="-3.1120980" lon="37.3545900">
    <ele>4039.9</ele>
    <time>2026-06-22T09:29:12Z</time>
   </trkpt>
   <trkpt lat="-3.1120960" lon="37.3545900">
    <ele>4039.9</ele>
    <time>2026-06-22T09:29:13Z</time>
   </trkpt>
   <trkpt lat="-3.1120960" lon="37.3545890">
    <ele>4039.9</ele>
    <time>2026-06-22T09:29:14Z</time>
   </trkpt>
   <trkpt lat="-3.1120990" lon="37.3545920">
    <ele>4039.9</ele>
    <time>2026-06-22T09:29:15Z</time>
   </trkpt>
   <trkpt lat="-3.1120990" lon="37.3545920">
    <ele>4039.9</ele>
    <time>2026-06-22T09:29:16Z</time>
   </trkpt>
   <trkpt lat="-3.1121000" lon="37.3545910">
    <ele>4039.9</ele>
    <time>2026-06-22T09:29:17Z</time>
   </trkpt>
   <trkpt lat="-3.1120990" lon="37.3545910">
    <ele>4039.9</ele>
    <time>2026-06-22T09:29:18Z</time>
   </trkpt>
   <trkpt lat="-3.1120990" lon="37.3545890">
    <ele>4040.0</ele>
    <time>2026-06-22T09:29:19Z</time>
   </trkpt>
   <trkpt lat="-3.1120990" lon="37.3545890">
    <ele>4040.0</ele>
    <time>2026-06-22T09:29:20Z</time>
   </trkpt>
   <trkpt lat="-3.1120990" lon="37.3545890">
    <ele>4040.0</ele>
    <time>2026-06-22T09:29:21Z</time>
   </trkpt>
   <trkpt lat="-3.1121000" lon="37.3545900">
    <ele>4040.0</ele>
    <time>2026-06-22T09:29:22Z</time>
   </trkpt>
   <trkpt lat="-3.1121010" lon="37.3545900">
    <ele>4040.0</ele>
    <time>2026-06-22T09:29:23Z</time>
   </trkpt>
   <trkpt lat="-3.1121010" lon="37.3545900">
    <ele>4040.0</ele>
    <time>2026-06-22T09:29:24Z</time>
   </trkpt>
   <trkpt lat="-3.1121010" lon="37.3545900">
    <ele>4040.0</ele>
    <time>2026-06-22T09:29:25Z</time>
   </trkpt>
   <trkpt lat="-3.1121010" lon="37.3545890">
    <ele>4040.0</ele>
    <time>2026-06-22T09:29:26Z</time>
   </trkpt>
   <trkpt lat="-3.1121010" lon="37.3545890">
    <ele>4040.0</ele>
    <time>2026-06-22T09:29:27Z</time>
   </trkpt>
   <trkpt lat="-3.1121010" lon="37.3545890">
    <ele>4040.0</ele>
    <time>2026-06-22T09:29:28Z</time>
   </trkpt>
   <trkpt lat="-3.1121000" lon="37.3545890">
    <ele>4040.0</ele>
    <time>2026-06-22T09:29:29Z</time>
   </trkpt>
   <trkpt lat="-3.1121010" lon="37.3545900">
    <ele>4040.0</ele>
    <time>2026-06-22T09:29:30Z</time>
   </trkpt>
   <trkpt lat="-3.1120990" lon="37.3545890">
    <ele>4040.0</ele>
    <time>2026-06-22T09:29:31Z</time>
   </trkpt>
   <trkpt lat="-3.1120980" lon="37.3545900">
    <ele>4040.0</ele>
    <time>2026-06-22T09:29:32Z</time>
   </trkpt>
   <trkpt lat="-3.1120960" lon="37.3545910">
    <ele>4040.1</ele>
    <time>2026-06-22T09:29:33Z</time>
   </trkpt>
   <trkpt lat="-3.1120940" lon="37.3545890">
    <ele>4040.1</ele>
    <time>2026-06-22T09:29:34Z</time>
   </trkpt>
   <trkpt lat="-3.1120920" lon="37.3545900">
    <ele>4040.1</ele>
    <time>2026-06-22T09:29:35Z</time>
   </trkpt>
   <trkpt lat="-3.1120930" lon="37.3545920">
    <ele>4040.1</ele>
    <time>2026-06-22T09:29:36Z</time>
   </trkpt>
   <trkpt lat="-3.1120930" lon="37.3545920">
    <ele>4040.1</ele>
    <time>2026-06-22T09:29:37Z</time>
   </trkpt>
   <trkpt lat="-3.1120890" lon="37.3545900">
    <ele>4040.2</ele>
    <time>2026-06-22T09:29:38Z</time>
   </trkpt>
   <trkpt lat="-3.1120890" lon="37.3545910">
    <ele>4040.2</ele>
    <time>2026-06-22T09:29:39Z</time>
   </trkpt>
   <trkpt lat="-3.1120880" lon="37.3545910">
    <ele>4040.2</ele>
    <time>2026-06-22T09:29:40Z</time>
   </trkpt>
   <trkpt lat="-3.1120870" lon="37.3545910">
    <ele>4040.2</ele>
    <time>2026-06-22T09:29:41Z</time>
   </trkpt>
   <trkpt lat="-3.1120860" lon="37.3545910">
    <ele>4040.2</ele>
    <time>2026-06-22T09:29:42Z</time>
   </trkpt>
   <trkpt lat="-3.1120870" lon="37.3545920">
    <ele>4040.2</ele>
    <time>2026-06-22T09:29:43Z</time>
   </trkpt>
   <trkpt lat="-3.1120860" lon="37.3545920">
    <ele>4040.2</ele>
    <time>2026-06-22T09:29:44Z</time>
   </trkpt>
   <trkpt lat="-3.1120850" lon="37.3545920">
    <ele>4040.2</ele>
    <time>2026-06-22T09:29:45Z</time>
   </trkpt>
   <trkpt lat="-3.1120850" lon="37.3545920">
    <ele>4040.2</ele>
    <time>2026-06-22T09:29:46Z</time>
   </trkpt>
   <trkpt lat="-3.1120850" lon="37.3545920">
    <ele>4040.2</ele>
    <time>2026-06-22T09:29:47Z</time>
   </trkpt>
   <trkpt lat="-3.1120830" lon="37.3545920">
    <ele>4040.2</ele>
    <time>2026-06-22T09:29:48Z</time>
   </trkpt>
   <trkpt lat="-3.1120840" lon="37.3545920">
    <ele>4040.2</ele>
    <time>2026-06-22T09:29:49Z</time>
   </trkpt>
   <trkpt lat="-3.1120830" lon="37.3545920">
    <ele>4040.2</ele>
    <time>2026-06-22T09:29:50Z</time>
   </trkpt>
   <trkpt lat="-3.1120820" lon="37.3545910">
    <ele>4040.3</ele>
    <time>2026-06-22T09:29:51Z</time>
   </trkpt>
   <trkpt lat="-3.1120820" lon="37.3545910">
    <ele>4040.3</ele>
    <time>2026-06-22T09:29:52Z</time>
   </trkpt>
   <trkpt lat="-3.1120840" lon="37.3545920">
    <ele>4040.3</ele>
    <time>2026-06-22T09:29:53Z</time>
   </trkpt>
   <trkpt lat="-3.1120840" lon="37.3545910">
    <ele>4040.3</ele>
    <time>2026-06-22T09:29:54Z</time>
   </trkpt>
   <trkpt lat="-3.1120850" lon="37.3545920">
    <ele>4040.3</ele>
    <time>2026-06-22T09:29:55Z</time>
   </trkpt>
   <trkpt lat="-3.1120860" lon="37.3545930">
    <ele>4040.3</ele>
    <time>2026-06-22T09:29:56Z</time>
   </trkpt>
   <trkpt lat="-3.1120870" lon="37.3545920">
    <ele>4040.3</ele>
    <time>2026-06-22T09:29:57Z</time>
   </trkpt>
   <trkpt lat="-3.1120860" lon="37.3545930">
    <ele>4040.3</ele>
    <time>2026-06-22T09:29:58Z</time>
   </trkpt>
   <trkpt lat="-3.1120920" lon="37.3545930">
    <ele>4040.4</ele>
    <time>2026-06-22T09:29:59Z</time>
   </trkpt>
   <trkpt lat="-3.1120920" lon="37.3545920">
    <ele>4040.4</ele>
    <time>2026-06-22T09:30:00Z</time>
   </trkpt>
   <trkpt lat="-3.1120920" lon="37.3545920">
    <ele>4040.4</ele>
    <time>2026-06-22T09:30:01Z</time>
   </trkpt>
   <trkpt lat="-3.1120890" lon="37.3545900">
    <ele>4040.4</ele>
    <time>2026-06-22T09:30:02Z</time>
   </trkpt>
   <trkpt lat="-3.1120900" lon="37.3545910">
    <ele>4040.4</ele>
    <time>2026-06-22T09:30:03Z</time>
   </trkpt>
   <trkpt lat="-3.1120900" lon="37.3545910">
    <ele>4040.4</ele>
    <time>2026-06-22T09:30:04Z</time>
   </trkpt>
   <trkpt lat="-3.1120890" lon="37.3545910">
    <ele>4040.4</ele>
    <time>2026-06-22T09:30:05Z</time>
   </trkpt>
   <trkpt lat="-3.1120880" lon="37.3545910">
    <ele>4040.4</ele>
    <time>2026-06-22T09:30:06Z</time>
   </trkpt>
   <trkpt lat="-3.1120870" lon="37.3545910">
    <ele>4040.5</ele>
    <time>2026-06-22T09:30:07Z</time>
   </trkpt>
   <trkpt lat="-3.1120870" lon="37.3545910">
    <ele>4040.5</ele>
    <time>2026-06-22T09:30:08Z</time>
   </trkpt>
   <trkpt lat="-3.1120870" lon="37.3545910">
    <ele>4040.5</ele>
    <time>2026-06-22T09:30:09Z</time>
   </trkpt>
   <trkpt lat="-3.1120880" lon="37.3545920">
    <ele>4040.5</ele>
    <time>2026-06-22T09:30:10Z</time>
   </trkpt>
   <trkpt lat="-3.1120870" lon="37.3545930">
    <ele>4040.5</ele>
    <time>2026-06-22T09:30:11Z</time>
   </trkpt>
   <trkpt lat="-3.1120880" lon="37.3545930">
    <ele>4040.5</ele>
    <time>2026-06-22T09:30:12Z</time>
   </trkpt>
   <trkpt lat="-3.1120880" lon="37.3545920">
    <ele>4040.5</ele>
    <time>2026-06-22T09:30:13Z</time>
   </trkpt>
   <trkpt lat="-3.1120870" lon="37.3545930">
    <ele>4040.5</ele>
    <time>2026-06-22T09:30:14Z</time>
   </trkpt>
   <trkpt lat="-3.1120870" lon="37.3545930">
    <ele>4040.5</ele>
    <time>2026-06-22T09:30:15Z</time>
   </trkpt>
   <trkpt lat="-3.1120870" lon="37.3545920">
    <ele>4040.5</ele>
    <time>2026-06-22T09:30:16Z</time>
   </trkpt>
   <trkpt lat="-3.1120880" lon="37.3545940">
    <ele>4040.5</ele>
    <time>2026-06-22T09:30:17Z</time>
   </trkpt>
   <trkpt lat="-3.1120870" lon="37.3545930">
    <ele>4040.5</ele>
    <time>2026-06-22T09:30:18Z</time>
   </trkpt>
   <trkpt lat="-3.1120860" lon="37.3545930">
    <ele>4040.5</ele>
    <time>2026-06-22T09:30:19Z</time>
   </trkpt>
   <trkpt lat="-3.1120860" lon="37.3545920">
    <ele>4040.6</ele>
    <time>2026-06-22T09:30:20Z</time>
   </trkpt>
   <trkpt lat="-3.1120850" lon="37.3545920">
    <ele>4040.6</ele>
    <time>2026-06-22T09:30:21Z</time>
   </trkpt>
   <trkpt lat="-3.1120850" lon="37.3545920">
    <ele>4040.6</ele>
    <time>2026-06-22T09:30:22Z</time>
   </trkpt>
   <trkpt lat="-3.1120850" lon="37.3545910">
    <ele>4040.6</ele>
    <time>2026-06-22T09:30:23Z</time>
   </trkpt>
   <trkpt lat="-3.1120850" lon="37.3545910">
    <ele>4040.6</ele>
    <time>2026-06-22T09:30:24Z</time>
   </trkpt>
   <trkpt lat="-3.1120850" lon="37.3545910">
    <ele>4040.6</ele>
    <time>2026-06-22T09:30:25Z</time>
   </trkpt>
   <trkpt lat="-3.1120870" lon="37.3545920">
    <ele>4040.6</ele>
    <time>2026-06-22T09:30:26Z</time>
   </trkpt>
   <trkpt lat="-3.1120880" lon="37.3545920">
    <ele>4040.6</ele>
    <time>2026-06-22T09:30:27Z</time>
   </trkpt>
   <trkpt lat="-3.1120880" lon="37.3545920">
    <ele>4040.6</ele>
    <time>2026-06-22T09:30:28Z</time>
   </trkpt>
   <trkpt lat="-3.1120880" lon="37.3545920">
    <ele>4040.6</ele>
    <time>2026-06-22T09:30:29Z</time>
   </trkpt>
   <trkpt lat="-3.1120890" lon="37.3545910">
    <ele>4040.6</ele>
    <time>2026-06-22T09:30:30Z</time>
   </trkpt>
   <trkpt lat="-3.1120890" lon="37.3545900">
    <ele>4040.6</ele>
    <time>2026-06-22T09:30:31Z</time>
   </trkpt>
   <trkpt lat="-3.1120890" lon="37.3545900">
    <ele>4040.6</ele>
    <time>2026-06-22T09:30:32Z</time>
   </trkpt>
   <trkpt lat="-3.1120890" lon="37.3545890">
    <ele>4040.6</ele>
    <time>2026-06-22T09:30:33Z</time>
   </trkpt>
   <trkpt lat="-3.1120890" lon="37.3545890">
    <ele>4040.6</ele>
    <time>2026-06-22T09:30:34Z</time>
   </trkpt>
   <trkpt lat="-3.1120900" lon="37.3545880">
    <ele>4040.6</ele>
    <time>2026-06-22T09:30:35Z</time>
   </trkpt>
   <trkpt lat="-3.1120900" lon="37.3545890">
    <ele>4040.6</ele>
    <time>2026-06-22T09:30:36Z</time>
   </trkpt>
   <trkpt lat="-3.1120900" lon="37.3545880">
    <ele>4040.7</ele>
    <time>2026-06-22T09:30:37Z</time>
   </trkpt>
   <trkpt lat="-3.1120900" lon="37.3545890">
    <ele>4040.7</ele>
    <time>2026-06-22T09:30:38Z</time>
   </trkpt>
   <trkpt lat="-3.1120890" lon="37.3545890">
    <ele>4040.7</ele>
    <time>2026-06-22T09:30:39Z</time>
   </trkpt>
   <trkpt lat="-3.1120880" lon="37.3545890">
    <ele>4040.7</ele>
    <time>2026-06-22T09:30:40Z</time>
   </trkpt>
   <trkpt lat="-3.1120880" lon="37.3545890">
    <ele>4040.7</ele>
    <time>2026-06-22T09:30:41Z</time>
   </trkpt>
   <trkpt lat="-3.1120880" lon="37.3545890">
    <ele>4040.7</ele>
    <time>2026-06-22T09:30:42Z</time>
   </trkpt>
   <trkpt lat="-3.1120880" lon="37.3545890">
    <ele>4040.7</ele>
    <time>2026-06-22T09:30:43Z</time>
   </trkpt>
   <trkpt lat="-3.1120890" lon="37.3545890">
    <ele>4040.7</ele>
    <time>2026-06-22T09:30:44Z</time>
   </trkpt>
   <trkpt lat="-3.1120890" lon="37.3545900">
    <ele>4040.7</ele>
    <time>2026-06-22T09:30:45Z</time>
   </trkpt>
   <trkpt lat="-3.1120890" lon="37.3545890">
    <ele>4040.7</ele>
    <time>2026-06-22T09:30:46Z</time>
   </trkpt>
   <trkpt lat="-3.1120890" lon="37.3545890">
    <ele>4040.7</ele>
    <time>2026-06-22T09:30:47Z</time>
   </trkpt>
   <trkpt lat="-3.1120900" lon="37.3545900">
    <ele>4040.7</ele>
    <time>2026-06-22T09:30:48Z</time>
   </trkpt>
   <trkpt lat="-3.1120900" lon="37.3545900">
    <ele>4040.7</ele>
    <time>2026-06-22T09:30:49Z</time>
   </trkpt>
   <trkpt lat="-3.1120900" lon="37.3545900">
    <ele>4040.7</ele>
    <time>2026-06-22T09:30:50Z</time>
   </trkpt>
   <trkpt lat="-3.1120910" lon="37.3545900">
    <ele>4040.7</ele>
    <time>2026-06-22T09:30:51Z</time>
   </trkpt>
   <trkpt lat="-3.1120910" lon="37.3545900">
    <ele>4040.7</ele>
    <time>2026-06-22T09:30:52Z</time>
   </trkpt>
   <trkpt lat="-3.1120910" lon="37.3545910">
    <ele>4040.7</ele>
    <time>2026-06-22T09:30:53Z</time>
   </trkpt>
   <trkpt lat="-3.1120910" lon="37.3545900">
    <ele>4040.7</ele>
    <time>2026-06-22T09:30:54Z</time>
   </trkpt>
   <trkpt lat="-3.1120910" lon="37.3545900">
    <ele>4040.7</ele>
    <time>2026-06-22T09:30:55Z</time>
   </trkpt>
   <trkpt lat="-3.1120910" lon="37.3545900">
    <ele>4040.7</ele>
    <time>2026-06-22T09:30:56Z</time>
   </trkpt>
   <trkpt lat="-3.1120920" lon="37.3545900">
    <ele>4040.7</ele>
    <time>2026-06-22T09:30:57Z</time>
   </trkpt>
   <trkpt lat="-3.1120920" lon="37.3545900">
    <ele>4040.7</ele>
    <time>2026-06-22T09:30:58Z</time>
   </trkpt>
   <trkpt lat="-3.1120950" lon="37.3545890">
    <ele>4040.8</ele>
    <time>2026-06-22T09:30:59Z</time>
   </trkpt>
   <trkpt lat="-3.1120960" lon="37.3545880">
    <ele>4040.8</ele>
    <time>2026-06-22T09:31:00Z</time>
   </trkpt>
   <trkpt lat="-3.1120930" lon="37.3545880">
    <ele>4040.8</ele>
    <time>2026-06-22T09:31:01Z</time>
   </trkpt>
   <trkpt lat="-3.1120930" lon="37.3545930">
    <ele>4040.9</ele>
    <time>2026-06-22T09:31:02Z</time>
   </trkpt>
   <trkpt lat="-3.1120930" lon="37.3545930">
    <ele>4040.9</ele>
    <time>2026-06-22T09:31:03Z</time>
   </trkpt>
   <trkpt lat="-3.1120930" lon="37.3545920">
    <ele>4040.9</ele>
    <time>2026-06-22T09:31:04Z</time>
   </trkpt>
   <trkpt lat="-3.1120930" lon="37.3545940">
    <ele>4040.9</ele>
    <time>2026-06-22T09:31:05Z</time>
   </trkpt>
   <trkpt lat="-3.1120930" lon="37.3545940">
    <ele>4040.9</ele>
    <time>2026-06-22T09:31:06Z</time>
   </trkpt>
   <trkpt lat="-3.1120930" lon="37.3545970">
    <ele>4040.9</ele>
    <time>2026-06-22T09:31:07Z</time>
   </trkpt>
   <trkpt lat="-3.1120940" lon="37.3546000">
    <ele>4040.9</ele>
    <time>2026-06-22T09:31:08Z</time>
   </trkpt>
   <trkpt lat="-3.1120940" lon="37.3546060">
    <ele>4041.0</ele>
    <time>2026-06-22T09:31:09Z</time>
   </trkpt>
   <trkpt lat="-3.1120900" lon="37.3546090">
    <ele>4041.0</ele>
    <time>2026-06-22T09:31:10Z</time>
   </trkpt>
   <trkpt lat="-3.1120920" lon="37.3546110">
    <ele>4041.0</ele>
    <time>2026-06-22T09:31:11Z</time>
   </trkpt>
   <trkpt lat="-3.1120910" lon="37.3546100">
    <ele>4041.0</ele>
    <time>2026-06-22T09:31:12Z</time>
   </trkpt>
   <trkpt lat="-3.1120920" lon="37.3546090">
    <ele>4041.1</ele>
    <time>2026-06-22T09:31:13Z</time>
   </trkpt>
   <trkpt lat="-3.1120920" lon="37.3546090">
    <ele>4041.1</ele>
    <time>2026-06-22T09:31:14Z</time>
   </trkpt>
   <trkpt lat="-3.1120920" lon="37.3546100">
    <ele>4041.1</ele>
    <time>2026-06-22T09:31:15Z</time>
   </trkpt>
   <trkpt lat="-3.1120920" lon="37.3546090">
    <ele>4041.1</ele>
    <time>2026-06-22T09:31:16Z</time>
   </trkpt>
   <trkpt lat="-3.1120920" lon="37.3546090">
    <ele>4041.1</ele>
    <time>2026-06-22T09:31:17Z</time>
   </trkpt>
   <trkpt lat="-3.1120920" lon="37.3546090">
    <ele>4041.1</ele>
    <time>2026-06-22T09:31:18Z</time>
   </trkpt>
   <trkpt lat="-3.1120920" lon="37.3546090">
    <ele>4041.1</ele>
    <time>2026-06-22T09:31:19Z</time>
   </trkpt>
   <trkpt lat="-3.1120920" lon="37.3546080">
    <ele>4041.1</ele>
    <time>2026-06-22T09:31:20Z</time>
   </trkpt>
   <trkpt lat="-3.1120920" lon="37.3546080">
    <ele>4041.1</ele>
    <time>2026-06-22T09:31:21Z</time>
   </trkpt>
   <trkpt lat="-3.1120920" lon="37.3546070">
    <ele>4041.1</ele>
    <time>2026-06-22T09:31:22Z</time>
   </trkpt>
   <trkpt lat="-3.1120920" lon="37.3546060">
    <ele>4041.1</ele>
    <time>2026-06-22T09:31:23Z</time>
   </trkpt>
   <trkpt lat="-3.1120920" lon="37.3546050">
    <ele>4041.1</ele>
    <time>2026-06-22T09:31:24Z</time>
   </trkpt>
   <trkpt lat="-3.1120920" lon="37.3546060">
    <ele>4041.1</ele>
    <time>2026-06-22T09:31:25Z</time>
   </trkpt>
   <trkpt lat="-3.1120920" lon="37.3546070">
    <ele>4041.1</ele>
    <time>2026-06-22T09:31:26Z</time>
   </trkpt>
   <trkpt lat="-3.1120910" lon="37.3546080">
    <ele>4041.1</ele>
    <time>2026-06-22T09:31:27Z</time>
   </trkpt>
   <trkpt lat="-3.1120910" lon="37.3546090">
    <ele>4041.1</ele>
    <time>2026-06-22T09:31:28Z</time>
   </trkpt>
   <trkpt lat="-3.1120920" lon="37.3546100">
    <ele>4041.2</ele>
    <time>2026-06-22T09:31:29Z</time>
   </trkpt>
   <trkpt lat="-3.1120920" lon="37.3546100">
    <ele>4041.2</ele>
    <time>2026-06-22T09:31:30Z</time>
   </trkpt>
   <trkpt lat="-3.1120910" lon="37.3546100">
    <ele>4041.2</ele>
    <time>2026-06-22T09:31:31Z</time>
   </trkpt>
   <trkpt lat="-3.1120880" lon="37.3546090">
    <ele>4041.2</ele>
    <time>2026-06-22T09:31:32Z</time>
   </trkpt>
   <trkpt lat="-3.1120870" lon="37.3546080">
    <ele>4041.2</ele>
    <time>2026-06-22T09:31:33Z</time>
   </trkpt>
   <trkpt lat="-3.1120920" lon="37.3546090">
    <ele>4041.2</ele>
    <time>2026-06-22T09:31:34Z</time>
   </trkpt>
   <trkpt lat="-3.1120910" lon="37.3546080">
    <ele>4041.3</ele>
    <time>2026-06-22T09:31:35Z</time>
   </trkpt>
   <trkpt lat="-3.1120920" lon="37.3546080">
    <ele>4041.3</ele>
    <time>2026-06-22T09:31:36Z</time>
   </trkpt>
   <trkpt lat="-3.1120930" lon="37.3546090">
    <ele>4041.3</ele>
    <time>2026-06-22T09:31:37Z</time>
   </trkpt>
   <trkpt lat="-3.1120940" lon="37.3546080">
    <ele>4041.3</ele>
    <time>2026-06-22T09:31:38Z</time>
   </trkpt>
   <trkpt lat="-3.1120940" lon="37.3546090">
    <ele>4041.3</ele>
    <time>2026-06-22T09:31:39Z</time>
   </trkpt>
   <trkpt lat="-3.1120950" lon="37.3546090">
    <ele>4041.3</ele>
    <time>2026-06-22T09:31:40Z</time>
   </trkpt>
   <trkpt lat="-3.1120940" lon="37.3546090">
    <ele>4041.3</ele>
    <time>2026-06-22T09:31:41Z</time>
   </trkpt>
   <trkpt lat="-3.1120950" lon="37.3546090">
    <ele>4041.3</ele>
    <time>2026-06-22T09:31:42Z</time>
   </trkpt>
   <trkpt lat="-3.1120960" lon="37.3546080">
    <ele>4041.3</ele>
    <time>2026-06-22T09:31:43Z</time>
   </trkpt>
   <trkpt lat="-3.1120960" lon="37.3546070">
    <ele>4041.3</ele>
    <time>2026-06-22T09:31:44Z</time>
   </trkpt>
   <trkpt lat="-3.1120960" lon="37.3546090">
    <ele>4041.4</ele>
    <time>2026-06-22T09:31:45Z</time>
   </trkpt>
   <trkpt lat="-3.1120960" lon="37.3546090">
    <ele>4041.4</ele>
    <time>2026-06-22T09:31:46Z</time>
   </trkpt>
   <trkpt lat="-3.1120960" lon="37.3546090">
    <ele>4041.4</ele>
    <time>2026-06-22T09:31:47Z</time>
   </trkpt>
   <trkpt lat="-3.1120960" lon="37.3546080">
    <ele>4041.4</ele>
    <time>2026-06-22T09:31:48Z</time>
   </trkpt>
   <trkpt lat="-3.1120960" lon="37.3546090">
    <ele>4041.4</ele>
    <time>2026-06-22T09:31:49Z</time>
   </trkpt>
   <trkpt lat="-3.1120960" lon="37.3546090">
    <ele>4041.4</ele>
    <time>2026-06-22T09:31:50Z</time>
   </trkpt>
   <trkpt lat="-3.1120980" lon="37.3546090">
    <ele>4041.4</ele>
    <time>2026-06-22T09:31:51Z</time>
   </trkpt>
   <trkpt lat="-3.1120980" lon="37.3546090">
    <ele>4041.4</ele>
    <time>2026-06-22T09:31:52Z</time>
   </trkpt>
   <trkpt lat="-3.1120980" lon="37.3546090">
    <ele>4041.4</ele>
    <time>2026-06-22T09:31:53Z</time>
   </trkpt>
   <trkpt lat="-3.1120980" lon="37.3546090">
    <ele>4041.4</ele>
    <time>2026-06-22T09:31:54Z</time>
   </trkpt>
   <trkpt lat="-3.1120980" lon="37.3546090">
    <ele>4041.4</ele>
    <time>2026-06-22T09:31:55Z</time>
   </trkpt>
   <trkpt lat="-3.1120990" lon="37.3546090">
    <ele>4041.4</ele>
    <time>2026-06-22T09:31:56Z</time>
   </trkpt>
   <trkpt lat="-3.1120990" lon="37.3546110">
    <ele>4041.4</ele>
    <time>2026-06-22T09:31:57Z</time>
   </trkpt>
   <trkpt lat="-3.1121000" lon="37.3546120">
    <ele>4041.4</ele>
    <time>2026-06-22T09:31:58Z</time>
   </trkpt>
   <trkpt lat="-3.1121000" lon="37.3546120">
    <ele>4041.4</ele>
    <time>2026-06-22T09:31:59Z</time>
   </trkpt>
   <trkpt lat="-3.1121020" lon="37.3546140">
    <ele>4041.4</ele>
    <time>2026-06-22T09:32:00Z</time>
   </trkpt>
   <trkpt lat="-3.1121020" lon="37.3546130">
    <ele>4041.5</ele>
    <time>2026-06-22T09:32:01Z</time>
   </trkpt>
   <trkpt lat="-3.1121030" lon="37.3546120">
    <ele>4041.5</ele>
    <time>2026-06-22T09:32:02Z</time>
   </trkpt>
   <trkpt lat="-3.1121020" lon="37.3546130">
    <ele>4041.5</ele>
    <time>2026-06-22T09:32:03Z</time>
   </trkpt>
   <trkpt lat="-3.1121030" lon="37.3546130">
    <ele>4041.5</ele>
    <time>2026-06-22T09:32:04Z</time>
   </trkpt>
   <trkpt lat="-3.1121030" lon="37.3546120">
    <ele>4041.5</ele>
    <time>2026-06-22T09:32:05Z</time>
   </trkpt>
   <trkpt lat="-3.1121030" lon="37.3546130">
    <ele>4041.5</ele>
    <time>2026-06-22T09:32:06Z</time>
   </trkpt>
   <trkpt lat="-3.1121020" lon="37.3546130">
    <ele>4041.5</ele>
    <time>2026-06-22T09:32:07Z</time>
   </trkpt>
   <trkpt lat="-3.1121020" lon="37.3546130">
    <ele>4041.5</ele>
    <time>2026-06-22T09:32:08Z</time>
   </trkpt>
   <trkpt lat="-3.1121040" lon="37.3546130">
    <ele>4041.5</ele>
    <time>2026-06-22T09:32:09Z</time>
   </trkpt>
   <trkpt lat="-3.1121030" lon="37.3546120">
    <ele>4041.5</ele>
    <time>2026-06-22T09:32:10Z</time>
   </trkpt>
   <trkpt lat="-3.1121030" lon="37.3546120">
    <ele>4041.5</ele>
    <time>2026-06-22T09:32:11Z</time>
   </trkpt>
   <trkpt lat="-3.1121040" lon="37.3546130">
    <ele>4041.6</ele>
    <time>2026-06-22T09:32:12Z</time>
   </trkpt>
   <trkpt lat="-3.1121060" lon="37.3546140">
    <ele>4041.6</ele>
    <time>2026-06-22T09:32:13Z</time>
   </trkpt>
   <trkpt lat="-3.1121060" lon="37.3546140">
    <ele>4041.6</ele>
    <time>2026-06-22T09:32:14Z</time>
   </trkpt>
   <trkpt lat="-3.1121040" lon="37.3546130">
    <ele>4041.6</ele>
    <time>2026-06-22T09:32:15Z</time>
   </trkpt>
   <trkpt lat="-3.1121030" lon="37.3546150">
    <ele>4041.6</ele>
    <time>2026-06-22T09:32:16Z</time>
   </trkpt>
   <trkpt lat="-3.1121030" lon="37.3546130">
    <ele>4041.6</ele>
    <time>2026-06-22T09:32:17Z</time>
   </trkpt>
   <trkpt lat="-3.1121020" lon="37.3546140">
    <ele>4041.6</ele>
    <time>2026-06-22T09:32:18Z</time>
   </trkpt>
   <trkpt lat="-3.1120990" lon="37.3546170">
    <ele>4041.7</ele>
    <time>2026-06-22T09:32:19Z</time>
   </trkpt>
   <trkpt lat="-3.1120990" lon="37.3546210">
    <ele>4041.7</ele>
    <time>2026-06-22T09:32:20Z</time>
   </trkpt>
   <trkpt lat="-3.1120980" lon="37.3546220">
    <ele>4041.7</ele>
    <time>2026-06-22T09:32:21Z</time>
   </trkpt>
   <trkpt lat="-3.1120960" lon="37.3546240">
    <ele>4041.7</ele>
    <time>2026-06-22T09:32:22Z</time>
   </trkpt>
   <trkpt lat="-3.1120960" lon="37.3546260">
    <ele>4041.8</ele>
    <time>2026-06-22T09:32:23Z</time>
   </trkpt>
   <trkpt lat="-3.1120960" lon="37.3546300">
    <ele>4041.8</ele>
    <time>2026-06-22T09:32:24Z</time>
   </trkpt>
   <trkpt lat="-3.1120940" lon="37.3546320">
    <ele>4041.8</ele>
    <time>2026-06-22T09:32:25Z</time>
   </trkpt>
   <trkpt lat="-3.1120940" lon="37.3546320">
    <ele>4041.8</ele>
    <time>2026-06-22T09:32:26Z</time>
   </trkpt>
   <trkpt lat="-3.1120940" lon="37.3546320">
    <ele>4041.8</ele>
    <time>2026-06-22T09:32:27Z</time>
   </trkpt>
   <trkpt lat="-3.1120940" lon="37.3546330">
    <ele>4041.8</ele>
    <time>2026-06-22T09:32:28Z</time>
   </trkpt>
   <trkpt lat="-3.1120940" lon="37.3546330">
    <ele>4041.8</ele>
    <time>2026-06-22T09:32:29Z</time>
   </trkpt>
   <trkpt lat="-3.1120960" lon="37.3546360">
    <ele>4041.8</ele>
    <time>2026-06-22T09:32:30Z</time>
   </trkpt>
   <trkpt lat="-3.1120990" lon="37.3546350">
    <ele>4041.9</ele>
    <time>2026-06-22T09:32:31Z</time>
   </trkpt>
   <trkpt lat="-3.1121000" lon="37.3546340">
    <ele>4041.9</ele>
    <time>2026-06-22T09:32:32Z</time>
   </trkpt>
   <trkpt lat="-3.1121030" lon="37.3546400">
    <ele>4041.9</ele>
    <time>2026-06-22T09:32:33Z</time>
   </trkpt>
   <trkpt lat="-3.1121060" lon="37.3546440">
    <ele>4042.0</ele>
    <time>2026-06-22T09:32:34Z</time>
   </trkpt>
   <trkpt lat="-3.1121100" lon="37.3546530">
    <ele>4042.1</ele>
    <time>2026-06-22T09:32:35Z</time>
   </trkpt>
   <trkpt lat="-3.1121120" lon="37.3546570">
    <ele>4042.1</ele>
    <time>2026-06-22T09:32:36Z</time>
   </trkpt>
   <trkpt lat="-3.1121120" lon="37.3546610">
    <ele>4042.1</ele>
    <time>2026-06-22T09:32:37Z</time>
   </trkpt>
   <trkpt lat="-3.1121140" lon="37.3546640">
    <ele>4042.2</ele>
    <time>2026-06-22T09:32:38Z</time>
   </trkpt>
   <trkpt lat="-3.1121110" lon="37.3546680">
    <ele>4042.2</ele>
    <time>2026-06-22T09:32:39Z</time>
   </trkpt>
   <trkpt lat="-3.1121070" lon="37.3546740">
    <ele>4042.3</ele>
    <time>2026-06-22T09:32:40Z</time>
   </trkpt>
   <trkpt lat="-3.1121020" lon="37.3546760">
    <ele>4042.3</ele>
    <time>2026-06-22T09:32:41Z</time>
   </trkpt>
   <trkpt lat="-3.1121000" lon="37.3546780">
    <ele>4042.3</ele>
    <time>2026-06-22T09:32:42Z</time>
   </trkpt>
   <trkpt lat="-3.1120970" lon="37.3546820">
    <ele>4042.4</ele>
    <time>2026-06-22T09:32:43Z</time>
   </trkpt>
   <trkpt lat="-3.1120960" lon="37.3546830">
    <ele>4042.4</ele>
    <time>2026-06-22T09:32:44Z</time>
   </trkpt>
   <trkpt lat="-3.1120920" lon="37.3546880">
    <ele>4042.4</ele>
    <time>2026-06-22T09:32:45Z</time>
   </trkpt>
   <trkpt lat="-3.1120900" lon="37.3546900">
    <ele>4042.4</ele>
    <time>2026-06-22T09:32:46Z</time>
   </trkpt>
   <trkpt lat="-3.1120910" lon="37.3546920">
    <ele>4042.5</ele>
    <time>2026-06-22T09:32:47Z</time>
   </trkpt>
   <trkpt lat="-3.1120880" lon="37.3546960">
    <ele>4042.5</ele>
    <time>2026-06-22T09:32:48Z</time>
   </trkpt>
   <trkpt lat="-3.1120880" lon="37.3546980">
    <ele>4042.5</ele>
    <time>2026-06-22T09:32:49Z</time>
   </trkpt>
   <trkpt lat="-3.1120850" lon="37.3547010">
    <ele>4042.6</ele>
    <time>2026-06-22T09:32:50Z</time>
   </trkpt>
   <trkpt lat="-3.1120840" lon="37.3547020">
    <ele>4042.6</ele>
    <time>2026-06-22T09:32:51Z</time>
   </trkpt>
   <trkpt lat="-3.1120820" lon="37.3547050">
    <ele>4042.6</ele>
    <time>2026-06-22T09:32:52Z</time>
   </trkpt>
   <trkpt lat="-3.1120810" lon="37.3547070">
    <ele>4042.6</ele>
    <time>2026-06-22T09:32:53Z</time>
   </trkpt>
   <trkpt lat="-3.1120790" lon="37.3547190">
    <ele>4042.7</ele>
    <time>2026-06-22T09:32:54Z</time>
   </trkpt>
   <trkpt lat="-3.1120790" lon="37.3547150">
    <ele>4042.7</ele>
    <time>2026-06-22T09:32:55Z</time>
   </trkpt>
   <trkpt lat="-3.1120790" lon="37.3547160">
    <ele>4042.8</ele>
    <time>2026-06-22T09:32:56Z</time>
   </trkpt>
   <trkpt lat="-3.1120770" lon="37.3547210">
    <ele>4042.8</ele>
    <time>2026-06-22T09:32:57Z</time>
   </trkpt>
   <trkpt lat="-3.1120730" lon="37.3547200">
    <ele>4042.8</ele>
    <time>2026-06-22T09:32:58Z</time>
   </trkpt>
   <trkpt lat="-3.1120690" lon="37.3547270">
    <ele>4042.9</ele>
    <time>2026-06-22T09:32:59Z</time>
   </trkpt>
   <trkpt lat="-3.1120660" lon="37.3547310">
    <ele>4043.0</ele>
    <time>2026-06-22T09:33:00Z</time>
   </trkpt>
   <trkpt lat="-3.1120620" lon="37.3547340">
    <ele>4043.1</ele>
    <time>2026-06-22T09:33:01Z</time>
   </trkpt>
   <trkpt lat="-3.1120580" lon="37.3547350">
    <ele>4043.1</ele>
    <time>2026-06-22T09:33:02Z</time>
   </trkpt>
   <trkpt lat="-3.1120540" lon="37.3547390">
    <ele>4043.2</ele>
    <time>2026-06-22T09:33:03Z</time>
   </trkpt>
   <trkpt lat="-3.1120500" lon="37.3547430">
    <ele>4043.3</ele>
    <time>2026-06-22T09:33:04Z</time>
   </trkpt>
   <trkpt lat="-3.1120470" lon="37.3547460">
    <ele>4043.4</ele>
    <time>2026-06-22T09:33:05Z</time>
   </trkpt>
   <trkpt lat="-3.1120440" lon="37.3547500">
    <ele>4043.4</ele>
    <time>2026-06-22T09:33:06Z</time>
   </trkpt>
   <trkpt lat="-3.1120450" lon="37.3547550">
    <ele>4043.5</ele>
    <time>2026-06-22T09:33:07Z</time>
   </trkpt>
   <trkpt lat="-3.1120480" lon="37.3547570">
    <ele>4043.6</ele>
    <time>2026-06-22T09:33:08Z</time>
   </trkpt>
   <trkpt lat="-3.1120510" lon="37.3547590">
    <ele>4043.6</ele>
    <time>2026-06-22T09:33:09Z</time>
   </trkpt>
   <trkpt lat="-3.1120530" lon="37.3547630">
    <ele>4043.7</ele>
    <time>2026-06-22T09:33:10Z</time>
   </trkpt>
   <trkpt lat="-3.1120540" lon="37.3547640">
    <ele>4043.7</ele>
    <time>2026-06-22T09:33:11Z</time>
   </trkpt>
   <trkpt lat="-3.1120520" lon="37.3547700">
    <ele>4043.8</ele>
    <time>2026-06-22T09:33:12Z</time>
   </trkpt>
   <trkpt lat="-3.1120530" lon="37.3547720">
    <ele>4043.8</ele>
    <time>2026-06-22T09:33:13Z</time>
   </trkpt>
   <trkpt lat="-3.1120510" lon="37.3547790">
    <ele>4043.9</ele>
    <time>2026-06-22T09:33:14Z</time>
   </trkpt>
   <trkpt lat="-3.1120510" lon="37.3547820">
    <ele>4044.0</ele>
    <time>2026-06-22T09:33:15Z</time>
   </trkpt>
   <trkpt lat="-3.1120510" lon="37.3547860">
    <ele>4044.0</ele>
    <time>2026-06-22T09:33:16Z</time>
   </trkpt>
   <trkpt lat="-3.1120530" lon="37.3547920">
    <ele>4044.1</ele>
    <time>2026-06-22T09:33:17Z</time>
   </trkpt>
   <trkpt lat="-3.1120520" lon="37.3547930">
    <ele>4044.1</ele>
    <time>2026-06-22T09:33:18Z</time>
   </trkpt>
   <trkpt lat="-3.1120530" lon="37.3547970">
    <ele>4044.2</ele>
    <time>2026-06-22T09:33:19Z</time>
   </trkpt>
   <trkpt lat="-3.1120520" lon="37.3548020">
    <ele>4044.3</ele>
    <time>2026-06-22T09:33:20Z</time>
   </trkpt>
   <trkpt lat="-3.1120560" lon="37.3548040">
    <ele>4044.3</ele>
    <time>2026-06-22T09:33:21Z</time>
   </trkpt>
   <trkpt lat="-3.1120580" lon="37.3548040">
    <ele>4044.3</ele>
    <time>2026-06-22T09:33:22Z</time>
   </trkpt>
   <trkpt lat="-3.1120600" lon="37.3548040">
    <ele>4044.4</ele>
    <time>2026-06-22T09:33:23Z</time>
   </trkpt>
   <trkpt lat="-3.1120600" lon="37.3548030">
    <ele>4044.4</ele>
    <time>2026-06-22T09:33:24Z</time>
   </trkpt>
   <trkpt lat="-3.1120590" lon="37.3548040">
    <ele>4044.4</ele>
    <time>2026-06-22T09:33:25Z</time>
   </trkpt>
   <trkpt lat="-3.1120580" lon="37.3548070">
    <ele>4044.5</ele>
    <time>2026-06-22T09:33:26Z</time>
   </trkpt>
   <trkpt lat="-3.1120580" lon="37.3548070">
    <ele>4044.5</ele>
    <time>2026-06-22T09:33:27Z</time>
   </trkpt>
   <trkpt lat="-3.1120570" lon="37.3548040">
    <ele>4044.5</ele>
    <time>2026-06-22T09:33:28Z</time>
   </trkpt>
   <trkpt lat="-3.1120540" lon="37.3548070">
    <ele>4044.6</ele>
    <time>2026-06-22T09:33:29Z</time>
   </trkpt>
   <trkpt lat="-3.1120550" lon="37.3548080">
    <ele>4044.6</ele>
    <time>2026-06-22T09:33:30Z</time>
   </trkpt>
   <trkpt lat="-3.1120530" lon="37.3548130">
    <ele>4044.7</ele>
    <time>2026-06-22T09:33:31Z</time>
   </trkpt>
   <trkpt lat="-3.1120510" lon="37.3548160">
    <ele>4044.7</ele>
    <time>2026-06-22T09:33:32Z</time>
   </trkpt>
   <trkpt lat="-3.1120490" lon="37.3548170">
    <ele>4044.7</ele>
    <time>2026-06-22T09:33:33Z</time>
   </trkpt>
   <trkpt lat="-3.1120490" lon="37.3548160">
    <ele>4044.7</ele>
    <time>2026-06-22T09:33:34Z</time>
   </trkpt>
   <trkpt lat="-3.1120480" lon="37.3548160">
    <ele>4044.8</ele>
    <time>2026-06-22T09:33:35Z</time>
   </trkpt>
   <trkpt lat="-3.1120490" lon="37.3548160">
    <ele>4044.8</ele>
    <time>2026-06-22T09:33:36Z</time>
   </trkpt>
   <trkpt lat="-3.1120490" lon="37.3548160">
    <ele>4044.8</ele>
    <time>2026-06-22T09:33:37Z</time>
   </trkpt>
   <trkpt lat="-3.1120490" lon="37.3548160">
    <ele>4044.8</ele>
    <time>2026-06-22T09:33:38Z</time>
   </trkpt>
   <trkpt lat="-3.1120490" lon="37.3548180">
    <ele>4044.8</ele>
    <time>2026-06-22T09:33:39Z</time>
   </trkpt>
   <trkpt lat="-3.1120490" lon="37.3548190">
    <ele>4044.8</ele>
    <time>2026-06-22T09:33:40Z</time>
   </trkpt>
   <trkpt lat="-3.1120500" lon="37.3548180">
    <ele>4044.8</ele>
    <time>2026-06-22T09:33:41Z</time>
   </trkpt>
   <trkpt lat="-3.1120500" lon="37.3548170">
    <ele>4044.9</ele>
    <time>2026-06-22T09:33:42Z</time>
   </trkpt>
   <trkpt lat="-3.1120500" lon="37.3548160">
    <ele>4044.9</ele>
    <time>2026-06-22T09:33:43Z</time>
   </trkpt>
   <trkpt lat="-3.1120520" lon="37.3548150">
    <ele>4044.9</ele>
    <time>2026-06-22T09:33:44Z</time>
   </trkpt>
   <trkpt lat="-3.1120520" lon="37.3548140">
    <ele>4044.9</ele>
    <time>2026-06-22T09:33:45Z</time>
   </trkpt>
   <trkpt lat="-3.1120540" lon="37.3548130">
    <ele>4044.9</ele>
    <time>2026-06-22T09:33:46Z</time>
   </trkpt>
   <trkpt lat="-3.1120550" lon="37.3548130">
    <ele>4045.0</ele>
    <time>2026-06-22T09:33:47Z</time>
   </trkpt>
   <trkpt lat="-3.1120570" lon="37.3548120">
    <ele>4045.0</ele>
    <time>2026-06-22T09:33:48Z</time>
   </trkpt>
   <trkpt lat="-3.1120570" lon="37.3548130">
    <ele>4045.0</ele>
    <time>2026-06-22T09:33:49Z</time>
   </trkpt>
   <trkpt lat="-3.1120580" lon="37.3548130">
    <ele>4045.0</ele>
    <time>2026-06-22T09:33:50Z</time>
   </trkpt>
   <trkpt lat="-3.1120590" lon="37.3548120">
    <ele>4045.0</ele>
    <time>2026-06-22T09:33:51Z</time>
   </trkpt>
   <trkpt lat="-3.1120590" lon="37.3548120">
    <ele>4045.0</ele>
    <time>2026-06-22T09:33:52Z</time>
   </trkpt>
   <trkpt lat="-3.1120600" lon="37.3548120">
    <ele>4045.0</ele>
    <time>2026-06-22T09:33:53Z</time>
   </trkpt>
   <trkpt lat="-3.1120600" lon="37.3548110">
    <ele>4045.1</ele>
    <time>2026-06-22T09:33:54Z</time>
   </trkpt>
   <trkpt lat="-3.1120590" lon="37.3548100">
    <ele>4045.1</ele>
    <time>2026-06-22T09:33:55Z</time>
   </trkpt>
   <trkpt lat="-3.1120580" lon="37.3548110">
    <ele>4045.1</ele>
    <time>2026-06-22T09:33:56Z</time>
   </trkpt>
   <trkpt lat="-3.1120590" lon="37.3548120">
    <ele>4045.1</ele>
    <time>2026-06-22T09:33:57Z</time>
   </trkpt>
   <trkpt lat="-3.1120610" lon="37.3548120">
    <ele>4045.2</ele>
    <time>2026-06-22T09:33:58Z</time>
   </trkpt>
   <trkpt lat="-3.1120600" lon="37.3548110">
    <ele>4045.2</ele>
    <time>2026-06-22T09:33:59Z</time>
   </trkpt>
   <trkpt lat="-3.1120610" lon="37.3548100">
    <ele>4045.2</ele>
    <time>2026-06-22T09:34:00Z</time>
   </trkpt>
   <trkpt lat="-3.1120620" lon="37.3548090">
    <ele>4045.2</ele>
    <time>2026-06-22T09:34:01Z</time>
   </trkpt>
   <trkpt lat="-3.1120620" lon="37.3548090">
    <ele>4045.2</ele>
    <time>2026-06-22T09:34:02Z</time>
   </trkpt>
   <trkpt lat="-3.1120640" lon="37.3548100">
    <ele>4045.2</ele>
    <time>2026-06-22T09:34:03Z</time>
   </trkpt>
   <trkpt lat="-3.1120630" lon="37.3548090">
    <ele>4045.3</ele>
    <time>2026-06-22T09:34:04Z</time>
   </trkpt>
   <trkpt lat="-3.1120650" lon="37.3548080">
    <ele>4045.3</ele>
    <time>2026-06-22T09:34:05Z</time>
   </trkpt>
   <trkpt lat="-3.1120640" lon="37.3548080">
    <ele>4045.3</ele>
    <time>2026-06-22T09:34:06Z</time>
   </trkpt>
   <trkpt lat="-3.1120640" lon="37.3548090">
    <ele>4045.3</ele>
    <time>2026-06-22T09:34:07Z</time>
   </trkpt>
   <trkpt lat="-3.1120650" lon="37.3548080">
    <ele>4045.3</ele>
    <time>2026-06-22T09:34:08Z</time>
   </trkpt>
   <trkpt lat="-3.1120650" lon="37.3548090">
    <ele>4045.4</ele>
    <time>2026-06-22T09:34:09Z</time>
   </trkpt>
   <trkpt lat="-3.1120650" lon="37.3548090">
    <ele>4045.4</ele>
    <time>2026-06-22T09:34:10Z</time>
   </trkpt>
   <trkpt lat="-3.1120650" lon="37.3548090">
    <ele>4045.4</ele>
    <time>2026-06-22T09:34:11Z</time>
   </trkpt>
   <trkpt lat="-3.1120670" lon="37.3548090">
    <ele>4045.4</ele>
    <time>2026-06-22T09:34:12Z</time>
   </trkpt>
   <trkpt lat="-3.1120670" lon="37.3548090">
    <ele>4045.4</ele>
    <time>2026-06-22T09:34:13Z</time>
   </trkpt>
   <trkpt lat="-3.1120670" lon="37.3548080">
    <ele>4045.4</ele>
    <time>2026-06-22T09:34:14Z</time>
   </trkpt>
   <trkpt lat="-3.1120670" lon="37.3548080">
    <ele>4045.4</ele>
    <time>2026-06-22T09:34:15Z</time>
   </trkpt>
   <trkpt lat="-3.1120690" lon="37.3548090">
    <ele>4045.4</ele>
    <time>2026-06-22T09:34:16Z</time>
   </trkpt>
   <trkpt lat="-3.1120690" lon="37.3548090">
    <ele>4045.4</ele>
    <time>2026-06-22T09:34:17Z</time>
   </trkpt>
   <trkpt lat="-3.1120700" lon="37.3548090">
    <ele>4045.4</ele>
    <time>2026-06-22T09:34:18Z</time>
   </trkpt>
   <trkpt lat="-3.1120700" lon="37.3548090">
    <ele>4045.4</ele>
    <time>2026-06-22T09:34:19Z</time>
   </trkpt>
   <trkpt lat="-3.1120690" lon="37.3548100">
    <ele>4045.5</ele>
    <time>2026-06-22T09:34:20Z</time>
   </trkpt>
   <trkpt lat="-3.1120680" lon="37.3548100">
    <ele>4045.5</ele>
    <time>2026-06-22T09:34:21Z</time>
   </trkpt>
   <trkpt lat="-3.1120680" lon="37.3548100">
    <ele>4045.5</ele>
    <time>2026-06-22T09:34:22Z</time>
   </trkpt>
   <trkpt lat="-3.1120680" lon="37.3548100">
    <ele>4045.5</ele>
    <time>2026-06-22T09:34:23Z</time>
   </trkpt>
   <trkpt lat="-3.1120680" lon="37.3548100">
    <ele>4045.5</ele>
    <time>2026-06-22T09:34:24Z</time>
   </trkpt>
   <trkpt lat="-3.1120680" lon="37.3548100">
    <ele>4045.5</ele>
    <time>2026-06-22T09:34:25Z</time>
   </trkpt>
   <trkpt lat="-3.1120680" lon="37.3548100">
    <ele>4045.5</ele>
    <time>2026-06-22T09:34:26Z</time>
   </trkpt>
   <trkpt lat="-3.1120680" lon="37.3548100">
    <ele>4045.5</ele>
    <time>2026-06-22T09:34:27Z</time>
   </trkpt>
   <trkpt lat="-3.1120720" lon="37.3548090">
    <ele>4045.5</ele>
    <time>2026-06-22T09:34:28Z</time>
   </trkpt>
   <trkpt lat="-3.1120710" lon="37.3548090">
    <ele>4045.5</ele>
    <time>2026-06-22T09:34:29Z</time>
   </trkpt>
   <trkpt lat="-3.1120690" lon="37.3548100">
    <ele>4045.6</ele>
    <time>2026-06-22T09:34:30Z</time>
   </trkpt>
   <trkpt lat="-3.1120680" lon="37.3548100">
    <ele>4045.6</ele>
    <time>2026-06-22T09:34:31Z</time>
   </trkpt>
   <trkpt lat="-3.1120650" lon="37.3548110">
    <ele>4045.6</ele>
    <time>2026-06-22T09:34:32Z</time>
   </trkpt>
   <trkpt lat="-3.1120650" lon="37.3548100">
    <ele>4045.7</ele>
    <time>2026-06-22T09:34:33Z</time>
   </trkpt>
   <trkpt lat="-3.1120640" lon="37.3548100">
    <ele>4045.7</ele>
    <time>2026-06-22T09:34:34Z</time>
   </trkpt>
   <trkpt lat="-3.1120640" lon="37.3548100">
    <ele>4045.7</ele>
    <time>2026-06-22T09:34:35Z</time>
   </trkpt>
   <trkpt lat="-3.1120620" lon="37.3548100">
    <ele>4045.7</ele>
    <time>2026-06-22T09:34:36Z</time>
   </trkpt>
   <trkpt lat="-3.1120620" lon="37.3548100">
    <ele>4045.7</ele>
    <time>2026-06-22T09:34:37Z</time>
   </trkpt>
   <trkpt lat="-3.1120620" lon="37.3548100">
    <ele>4045.7</ele>
    <time>2026-06-22T09:34:38Z</time>
   </trkpt>
   <trkpt lat="-3.1120590" lon="37.3548090">
    <ele>4045.7</ele>
    <time>2026-06-22T09:34:39Z</time>
   </trkpt>
   <trkpt lat="-3.1120580" lon="37.3548090">
    <ele>4045.8</ele>
    <time>2026-06-22T09:34:40Z</time>
   </trkpt>
   <trkpt lat="-3.1120570" lon="37.3548100">
    <ele>4045.8</ele>
    <time>2026-06-22T09:34:41Z</time>
   </trkpt>
   <trkpt lat="-3.1120570" lon="37.3548100">
    <ele>4045.8</ele>
    <time>2026-06-22T09:34:42Z</time>
   </trkpt>
   <trkpt lat="-3.1120560" lon="37.3548090">
    <ele>4045.8</ele>
    <time>2026-06-22T09:34:43Z</time>
   </trkpt>
   <trkpt lat="-3.1120570" lon="37.3548100">
    <ele>4045.8</ele>
    <time>2026-06-22T09:34:44Z</time>
   </trkpt>
   <trkpt lat="-3.1120560" lon="37.3548090">
    <ele>4045.8</ele>
    <time>2026-06-22T09:34:45Z</time>
   </trkpt>
   <trkpt lat="-3.1120560" lon="37.3548100">
    <ele>4045.8</ele>
    <time>2026-06-22T09:34:46Z</time>
   </trkpt>
   <trkpt lat="-3.1120550" lon="37.3548090">
    <ele>4045.9</ele>
    <time>2026-06-22T09:34:47Z</time>
   </trkpt>
   <trkpt lat="-3.1120550" lon="37.3548090">
    <ele>4045.9</ele>
    <time>2026-06-22T09:34:48Z</time>
   </trkpt>
   <trkpt lat="-3.1120560" lon="37.3548100">
    <ele>4045.9</ele>
    <time>2026-06-22T09:34:49Z</time>
   </trkpt>
   <trkpt lat="-3.1120550" lon="37.3548100">
    <ele>4045.9</ele>
    <time>2026-06-22T09:34:50Z</time>
   </trkpt>
   <trkpt lat="-3.1120550" lon="37.3548100">
    <ele>4045.9</ele>
    <time>2026-06-22T09:34:51Z</time>
   </trkpt>
   <trkpt lat="-3.1120550" lon="37.3548100">
    <ele>4045.9</ele>
    <time>2026-06-22T09:34:52Z</time>
   </trkpt>
   <trkpt lat="-3.1120550" lon="37.3548100">
    <ele>4045.9</ele>
    <time>2026-06-22T09:34:53Z</time>
   </trkpt>
   <trkpt lat="-3.1120550" lon="37.3548100">
    <ele>4045.9</ele>
    <time>2026-06-22T09:34:54Z</time>
   </trkpt>
   <trkpt lat="-3.1120550" lon="37.3548100">
    <ele>4045.9</ele>
    <time>2026-06-22T09:34:55Z</time>
   </trkpt>
   <trkpt lat="-3.1120550" lon="37.3548100">
    <ele>4045.9</ele>
    <time>2026-06-22T09:34:56Z</time>
   </trkpt>
   <trkpt lat="-3.1120540" lon="37.3548080">
    <ele>4045.9</ele>
    <time>2026-06-22T09:34:57Z</time>
   </trkpt>
   <trkpt lat="-3.1120540" lon="37.3548080">
    <ele>4045.9</ele>
    <time>2026-06-22T09:34:58Z</time>
   </trkpt>
   <trkpt lat="-3.1120540" lon="37.3548090">
    <ele>4045.9</ele>
    <time>2026-06-22T09:34:59Z</time>
   </trkpt>
   <trkpt lat="-3.1120540" lon="37.3548080">
    <ele>4046.0</ele>
    <time>2026-06-22T09:35:00Z</time>
   </trkpt>
   <trkpt lat="-3.1120540" lon="37.3548080">
    <ele>4046.0</ele>
    <time>2026-06-22T09:35:01Z</time>
   </trkpt>
   <trkpt lat="-3.1120550" lon="37.3548080">
    <ele>4046.0</ele>
    <time>2026-06-22T09:35:02Z</time>
   </trkpt>
   <trkpt lat="-3.1120560" lon="37.3548090">
    <ele>4046.0</ele>
    <time>2026-06-22T09:35:03Z</time>
   </trkpt>
   <trkpt lat="-3.1120560" lon="37.3548090">
    <ele>4046.0</ele>
    <time>2026-06-22T09:35:04Z</time>
   </trkpt>
   <trkpt lat="-3.1120570" lon="37.3548090">
    <ele>4046.0</ele>
    <time>2026-06-22T09:35:05Z</time>
   </trkpt>
   <trkpt lat="-3.1120580" lon="37.3548090">
    <ele>4046.0</ele>
    <time>2026-06-22T09:35:06Z</time>
   </trkpt>
   <trkpt lat="-3.1120580" lon="37.3548100">
    <ele>4046.0</ele>
    <time>2026-06-22T09:35:07Z</time>
   </trkpt>
   <trkpt lat="-3.1120590" lon="37.3548100">
    <ele>4046.1</ele>
    <time>2026-06-22T09:35:08Z</time>
   </trkpt>
   <trkpt lat="-3.1120590" lon="37.3548110">
    <ele>4046.1</ele>
    <time>2026-06-22T09:35:09Z</time>
   </trkpt>
   <trkpt lat="-3.1120590" lon="37.3548110">
    <ele>4046.1</ele>
    <time>2026-06-22T09:35:10Z</time>
   </trkpt>
   <trkpt lat="-3.1120590" lon="37.3548100">
    <ele>4046.1</ele>
    <time>2026-06-22T09:35:11Z</time>
   </trkpt>
   <trkpt lat="-3.1120590" lon="37.3548090">
    <ele>4046.1</ele>
    <time>2026-06-22T09:35:12Z</time>
   </trkpt>
   <trkpt lat="-3.1120590" lon="37.3548100">
    <ele>4046.1</ele>
    <time>2026-06-22T09:35:13Z</time>
   </trkpt>
   <trkpt lat="-3.1120590" lon="37.3548100">
    <ele>4046.1</ele>
    <time>2026-06-22T09:35:14Z</time>
   </trkpt>
   <trkpt lat="-3.1120580" lon="37.3548090">
    <ele>4046.1</ele>
    <time>2026-06-22T09:35:15Z</time>
   </trkpt>
   <trkpt lat="-3.1120590" lon="37.3548090">
    <ele>4046.1</ele>
    <time>2026-06-22T09:35:16Z</time>
   </trkpt>
   <trkpt lat="-3.1120590" lon="37.3548090">
    <ele>4046.1</ele>
    <time>2026-06-22T09:35:17Z</time>
   </trkpt>
   <trkpt lat="-3.1120580" lon="37.3548080">
    <ele>4046.2</ele>
    <time>2026-06-22T09:35:18Z</time>
   </trkpt>
   <trkpt lat="-3.1120580" lon="37.3548080">
    <ele>4046.2</ele>
    <time>2026-06-22T09:35:19Z</time>
   </trkpt>
   <trkpt lat="-3.1120580" lon="37.3548090">
    <ele>4046.2</ele>
    <time>2026-06-22T09:35:20Z</time>
   </trkpt>
   <trkpt lat="-3.1120580" lon="37.3548090">
    <ele>4046.2</ele>
    <time>2026-06-22T09:35:21Z</time>
   </trkpt>
   <trkpt lat="-3.1120580" lon="37.3548090">
    <ele>4046.2</ele>
    <time>2026-06-22T09:35:22Z</time>
   </trkpt>
   <trkpt lat="-3.1120590" lon="37.3548090">
    <ele>4046.2</ele>
    <time>2026-06-22T09:35:23Z</time>
   </trkpt>
   <trkpt lat="-3.1120590" lon="37.3548090">
    <ele>4046.2</ele>
    <time>2026-06-22T09:35:24Z</time>
   </trkpt>
   <trkpt lat="-3.1120590" lon="37.3548100">
    <ele>4046.2</ele>
    <time>2026-06-22T09:35:25Z</time>
   </trkpt>
   <trkpt lat="-3.1120600" lon="37.3548100">
    <ele>4046.2</ele>
    <time>2026-06-22T09:35:26Z</time>
   </trkpt>
   <trkpt lat="-3.1120600" lon="37.3548100">
    <ele>4046.2</ele>
    <time>2026-06-22T09:35:27Z</time>
   </trkpt>
   <trkpt lat="-3.1120600" lon="37.3548100">
    <ele>4046.2</ele>
    <time>2026-06-22T09:35:28Z</time>
   </trkpt>
   <trkpt lat="-3.1120610" lon="37.3548090">
    <ele>4046.2</ele>
    <time>2026-06-22T09:35:29Z</time>
   </trkpt>
   <trkpt lat="-3.1120610" lon="37.3548090">
    <ele>4046.2</ele>
    <time>2026-06-22T09:35:30Z</time>
   </trkpt>
   <trkpt lat="-3.1120600" lon="37.3548110">
    <ele>4046.3</ele>
    <time>2026-06-22T09:35:31Z</time>
   </trkpt>
   <trkpt lat="-3.1120600" lon="37.3548110">
    <ele>4046.3</ele>
    <time>2026-06-22T09:35:32Z</time>
   </trkpt>
   <trkpt lat="-3.1120600" lon="37.3548110">
    <ele>4046.3</ele>
    <time>2026-06-22T09:35:33Z</time>
   </trkpt>
   <trkpt lat="-3.1120600" lon="37.3548120">
    <ele>4046.3</ele>
    <time>2026-06-22T09:35:34Z</time>
   </trkpt>
   <trkpt lat="-3.1120590" lon="37.3548130">
    <ele>4046.3</ele>
    <time>2026-06-22T09:35:35Z</time>
   </trkpt>
   <trkpt lat="-3.1120590" lon="37.3548110">
    <ele>4046.3</ele>
    <time>2026-06-22T09:35:36Z</time>
   </trkpt>
   <trkpt lat="-3.1120590" lon="37.3548110">
    <ele>4046.3</ele>
    <time>2026-06-22T09:35:37Z</time>
   </trkpt>
   <trkpt lat="-3.1120590" lon="37.3548100">
    <ele>4046.3</ele>
    <time>2026-06-22T09:35:38Z</time>
   </trkpt>
   <trkpt lat="-3.1120590" lon="37.3548100">
    <ele>4046.3</ele>
    <time>2026-06-22T09:35:39Z</time>
   </trkpt>
   <trkpt lat="-3.1120600" lon="37.3548100">
    <ele>4046.4</ele>
    <time>2026-06-22T09:35:40Z</time>
   </trkpt>
   <trkpt lat="-3.1120590" lon="37.3548110">
    <ele>4046.4</ele>
    <time>2026-06-22T09:35:41Z</time>
   </trkpt>
   <trkpt lat="-3.1120580" lon="37.3548100">
    <ele>4046.4</ele>
    <time>2026-06-22T09:35:42Z</time>
   </trkpt>
   <trkpt lat="-3.1120580" lon="37.3548100">
    <ele>4046.4</ele>
    <time>2026-06-22T09:35:43Z</time>
   </trkpt>
   <trkpt lat="-3.1120580" lon="37.3548100">
    <ele>4046.4</ele>
    <time>2026-06-22T09:35:44Z</time>
   </trkpt>
   <trkpt lat="-3.1120580" lon="37.3548100">
    <ele>4046.4</ele>
    <time>2026-06-22T09:35:45Z</time>
   </trkpt>
   <trkpt lat="-3.1120450" lon="37.3548210">
    <ele>4046.6</ele>
    <time>2026-06-22T09:35:46Z</time>
   </trkpt>
   <trkpt lat="-3.1120480" lon="37.3548190">
    <ele>4046.7</ele>
    <time>2026-06-22T09:35:47Z</time>
   </trkpt>
   <trkpt lat="-3.1120480" lon="37.3548190">
    <ele>4046.7</ele>
    <time>2026-06-22T09:35:48Z</time>
   </trkpt>
   <trkpt lat="-3.1120500" lon="37.3548190">
    <ele>4046.7</ele>
    <time>2026-06-22T09:35:49Z</time>
   </trkpt>
   <trkpt lat="-3.1120510" lon="37.3548170">
    <ele>4046.7</ele>
    <time>2026-06-22T09:35:50Z</time>
   </trkpt>
   <trkpt lat="-3.1120520" lon="37.3548170">
    <ele>4046.8</ele>
    <time>2026-06-22T09:35:51Z</time>
   </trkpt>
   <trkpt lat="-3.1120510" lon="37.3548160">
    <ele>4046.8</ele>
    <time>2026-06-22T09:35:52Z</time>
   </trkpt>
   <trkpt lat="-3.1120530" lon="37.3548140">
    <ele>4046.8</ele>
    <time>2026-06-22T09:35:53Z</time>
   </trkpt>
   <trkpt lat="-3.1120520" lon="37.3548170">
    <ele>4046.9</ele>
    <time>2026-06-22T09:35:54Z</time>
   </trkpt>
   <trkpt lat="-3.1120430" lon="37.3548220">
    <ele>4047.0</ele>
    <time>2026-06-22T09:35:55Z</time>
   </trkpt>
   <trkpt lat="-3.1120570" lon="37.3548210">
    <ele>4047.2</ele>
    <time>2026-06-22T09:35:56Z</time>
   </trkpt>
   <trkpt lat="-3.1120560" lon="37.3548180">
    <ele>4047.3</ele>
    <time>2026-06-22T09:35:57Z</time>
   </trkpt>
   <trkpt lat="-3.1120560" lon="37.3548180">
    <ele>4047.3</ele>
    <time>2026-06-22T09:35:58Z</time>
   </trkpt>
   <trkpt lat="-3.1120560" lon="37.3548180">
    <ele>4047.3</ele>
    <time>2026-06-22T09:35:59Z</time>
   </trkpt>
   <trkpt lat="-3.1120570" lon="37.3548150">
    <ele>4047.3</ele>
    <time>2026-06-22T09:36:00Z</time>
   </trkpt>
   <trkpt lat="-3.1120570" lon="37.3548150">
    <ele>4047.3</ele>
    <time>2026-06-22T09:36:01Z</time>
   </trkpt>
   <trkpt lat="-3.1120580" lon="37.3548150">
    <ele>4047.3</ele>
    <time>2026-06-22T09:36:02Z</time>
   </trkpt>
   <trkpt lat="-3.1120570" lon="37.3548160">
    <ele>4047.3</ele>
    <time>2026-06-22T09:36:03Z</time>
   </trkpt>
   <trkpt lat="-3.1120580" lon="37.3548150">
    <ele>4047.4</ele>
    <time>2026-06-22T09:36:04Z</time>
   </trkpt>
   <trkpt lat="-3.1120590" lon="37.3548150">
    <ele>4047.4</ele>
    <time>2026-06-22T09:36:05Z</time>
   </trkpt>
   <trkpt lat="-3.1120590" lon="37.3548150">
    <ele>4047.4</ele>
    <time>2026-06-22T09:36:06Z</time>
   </trkpt>
   <trkpt lat="-3.1120590" lon="37.3548160">
    <ele>4047.4</ele>
    <time>2026-06-22T09:36:07Z</time>
   </trkpt>
   <trkpt lat="-3.1120590" lon="37.3548150">
    <ele>4047.4</ele>
    <time>2026-06-22T09:36:08Z</time>
   </trkpt>
   <trkpt lat="-3.1120590" lon="37.3548150">
    <ele>4047.4</ele>
    <time>2026-06-22T09:36:09Z</time>
   </trkpt>
   <trkpt lat="-3.1120590" lon="37.3548150">
    <ele>4047.4</ele>
    <time>2026-06-22T09:36:10Z</time>
   </trkpt>
   <trkpt lat="-3.1120590" lon="37.3548150">
    <ele>4047.4</ele>
    <time>2026-06-22T09:36:11Z</time>
   </trkpt>
   <trkpt lat="-3.1120590" lon="37.3548150">
    <ele>4047.4</ele>
    <time>2026-06-22T09:36:12Z</time>
   </trkpt>
   <trkpt lat="-3.1120590" lon="37.3548140">
    <ele>4047.4</ele>
    <time>2026-06-22T09:36:13Z</time>
   </trkpt>
   <trkpt lat="-3.1120590" lon="37.3548130">
    <ele>4047.4</ele>
    <time>2026-06-22T09:36:14Z</time>
   </trkpt>
   <trkpt lat="-3.1120590" lon="37.3548130">
    <ele>4047.4</ele>
    <time>2026-06-22T09:36:15Z</time>
   </trkpt>
   <trkpt lat="-3.1120590" lon="37.3548130">
    <ele>4047.4</ele>
    <time>2026-06-22T09:36:16Z</time>
   </trkpt>
   <trkpt lat="-3.1120580" lon="37.3548120">
    <ele>4047.4</ele>
    <time>2026-06-22T09:36:17Z</time>
   </trkpt>
   <trkpt lat="-3.1120580" lon="37.3548120">
    <ele>4047.4</ele>
    <time>2026-06-22T09:36:18Z</time>
   </trkpt>
   <trkpt lat="-3.1120580" lon="37.3548120">
    <ele>4047.4</ele>
    <time>2026-06-22T09:36:19Z</time>
   </trkpt>
   <trkpt lat="-3.1120580" lon="37.3548120">
    <ele>4047.4</ele>
    <time>2026-06-22T09:36:20Z</time>
   </trkpt>
   <trkpt lat="-3.1120580" lon="37.3548120">
    <ele>4047.4</ele>
    <time>2026-06-22T09:36:21Z</time>
   </trkpt>
   <trkpt lat="-3.1120580" lon="37.3548120">
    <ele>4047.4</ele>
    <time>2026-06-22T09:36:22Z</time>
   </trkpt>
   <trkpt lat="-3.1120570" lon="37.3548120">
    <ele>4047.5</ele>
    <time>2026-06-22T09:36:23Z</time>
   </trkpt>
   <trkpt lat="-3.1120570" lon="37.3548120">
    <ele>4047.5</ele>
    <time>2026-06-22T09:36:24Z</time>
   </trkpt>
   <trkpt lat="-3.1120570" lon="37.3548120">
    <ele>4047.5</ele>
    <time>2026-06-22T09:36:25Z</time>
   </trkpt>
   <trkpt lat="-3.1120570" lon="37.3548120">
    <ele>4047.5</ele>
    <time>2026-06-22T09:36:26Z</time>
   </trkpt>
   <trkpt lat="-3.1120570" lon="37.3548120">
    <ele>4047.5</ele>
    <time>2026-06-22T09:36:27Z</time>
   </trkpt>
   <trkpt lat="-3.1120560" lon="37.3548110">
    <ele>4047.5</ele>
    <time>2026-06-22T09:36:28Z</time>
   </trkpt>
   <trkpt lat="-3.1120560" lon="37.3548110">
    <ele>4047.5</ele>
    <time>2026-06-22T09:36:29Z</time>
   </trkpt>
   <trkpt lat="-3.1120560" lon="37.3548120">
    <ele>4047.5</ele>
    <time>2026-06-22T09:36:30Z</time>
   </trkpt>
   <trkpt lat="-3.1120560" lon="37.3548110">
    <ele>4047.5</ele>
    <time>2026-06-22T09:36:31Z</time>
   </trkpt>
   <trkpt lat="-3.1120560" lon="37.3548110">
    <ele>4047.5</ele>
    <time>2026-06-22T09:36:32Z</time>
   </trkpt>
   <trkpt lat="-3.1120560" lon="37.3548110">
    <ele>4047.5</ele>
    <time>2026-06-22T09:36:33Z</time>
   </trkpt>
   <trkpt lat="-3.1120560" lon="37.3548110">
    <ele>4047.5</ele>
    <time>2026-06-22T09:36:34Z</time>
   </trkpt>
   <trkpt lat="-3.1120530" lon="37.3548110">
    <ele>4047.5</ele>
    <time>2026-06-22T09:36:35Z</time>
   </trkpt>
   <trkpt lat="-3.1120530" lon="37.3548110">
    <ele>4047.5</ele>
    <time>2026-06-22T09:36:36Z</time>
   </trkpt>
   <trkpt lat="-3.1120520" lon="37.3548100">
    <ele>4047.6</ele>
    <time>2026-06-22T09:36:37Z</time>
   </trkpt>
   <trkpt lat="-3.1120510" lon="37.3548110">
    <ele>4047.6</ele>
    <time>2026-06-22T09:36:38Z</time>
   </trkpt>
   <trkpt lat="-3.1120510" lon="37.3548110">
    <ele>4047.6</ele>
    <time>2026-06-22T09:36:39Z</time>
   </trkpt>
   <trkpt lat="-3.1120510" lon="37.3548110">
    <ele>4047.6</ele>
    <time>2026-06-22T09:36:40Z</time>
   </trkpt>
   <trkpt lat="-3.1120510" lon="37.3548110">
    <ele>4047.6</ele>
    <time>2026-06-22T09:36:41Z</time>
   </trkpt>
   <trkpt lat="-3.1120510" lon="37.3548110">
    <ele>4047.6</ele>
    <time>2026-06-22T09:36:42Z</time>
   </trkpt>
   <trkpt lat="-3.1120510" lon="37.3548110">
    <ele>4047.6</ele>
    <time>2026-06-22T09:36:43Z</time>
   </trkpt>
   <trkpt lat="-3.1120510" lon="37.3548110">
    <ele>4047.6</ele>
    <time>2026-06-22T09:36:44Z</time>
   </trkpt>
   <trkpt lat="-3.1120440" lon="37.3548110">
    <ele>4047.7</ele>
    <time>2026-06-22T09:36:45Z</time>
   </trkpt>
   <trkpt lat="-3.1120440" lon="37.3548110">
    <ele>4047.7</ele>
    <time>2026-06-22T09:36:46Z</time>
   </trkpt>
   <trkpt lat="-3.1120440" lon="37.3548110">
    <ele>4047.7</ele>
    <time>2026-06-22T09:36:47Z</time>
   </trkpt>
   <trkpt lat="-3.1120440" lon="37.3548110">
    <ele>4047.7</ele>
    <time>2026-06-22T09:36:48Z</time>
   </trkpt>
   <trkpt lat="-3.1120440" lon="37.3548110">
    <ele>4047.7</ele>
    <time>2026-06-22T09:36:49Z</time>
   </trkpt>
   <trkpt lat="-3.1120440" lon="37.3548110">
    <ele>4047.7</ele>
    <time>2026-06-22T09:36:50Z</time>
   </trkpt>
   <trkpt lat="-3.1120440" lon="37.3548110">
    <ele>4047.7</ele>
    <time>2026-06-22T09:36:51Z</time>
   </trkpt>
   <trkpt lat="-3.1120440" lon="37.3548110">
    <ele>4047.7</ele>
    <time>2026-06-22T09:36:52Z</time>
   </trkpt>
   <trkpt lat="-3.1120440" lon="37.3548110">
    <ele>4047.7</ele>
    <time>2026-06-22T09:36:53Z</time>
   </trkpt>
   <trkpt lat="-3.1120440" lon="37.3548110">
    <ele>4047.7</ele>
    <time>2026-06-22T09:36:54Z</time>
   </trkpt>
   <trkpt lat="-3.1120440" lon="37.3548110">
    <ele>4047.7</ele>
    <time>2026-06-22T09:36:55Z</time>
   </trkpt>
   <trkpt lat="-3.1120440" lon="37.3548110">
    <ele>4047.7</ele>
    <time>2026-06-22T09:36:56Z</time>
   </trkpt>
   <trkpt lat="-3.1120440" lon="37.3548110">
    <ele>4047.7</ele>
    <time>2026-06-22T09:36:57Z</time>
   </trkpt>
   <trkpt lat="-3.1120440" lon="37.3548110">
    <ele>4047.7</ele>
    <time>2026-06-22T09:36:58Z</time>
   </trkpt>
   <trkpt lat="-3.1120540" lon="37.3548090">
    <ele>4047.8</ele>
    <time>2026-06-22T09:36:59Z</time>
   </trkpt>
   <trkpt lat="-3.1120540" lon="37.3548090">
    <ele>4047.8</ele>
    <time>2026-06-22T09:37:00Z</time>
   </trkpt>
   <trkpt lat="-3.1120540" lon="37.3548090">
    <ele>4047.8</ele>
    <time>2026-06-22T09:37:01Z</time>
   </trkpt>
   <trkpt lat="-3.1120510" lon="37.3548080">
    <ele>4047.9</ele>
    <time>2026-06-22T09:37:02Z</time>
   </trkpt>
   <trkpt lat="-3.1120510" lon="37.3548080">
    <ele>4047.9</ele>
    <time>2026-06-22T09:37:03Z</time>
   </trkpt>
   <trkpt lat="-3.1120520" lon="37.3548090">
    <ele>4047.9</ele>
    <time>2026-06-22T09:37:04Z</time>
   </trkpt>
   <trkpt lat="-3.1120500" lon="37.3548100">
    <ele>4047.9</ele>
    <time>2026-06-22T09:37:05Z</time>
   </trkpt>
   <trkpt lat="-3.1120490" lon="37.3548100">
    <ele>4047.9</ele>
    <time>2026-06-22T09:37:06Z</time>
   </trkpt>
   <trkpt lat="-3.1120500" lon="37.3548110">
    <ele>4048.0</ele>
    <time>2026-06-22T09:37:07Z</time>
   </trkpt>
   <trkpt lat="-3.1120500" lon="37.3548110">
    <ele>4048.0</ele>
    <time>2026-06-22T09:37:08Z</time>
   </trkpt>
   <trkpt lat="-3.1120500" lon="37.3548100">
    <ele>4048.0</ele>
    <time>2026-06-22T09:37:09Z</time>
   </trkpt>
   <trkpt lat="-3.1120500" lon="37.3548100">
    <ele>4048.0</ele>
    <time>2026-06-22T09:37:10Z</time>
   </trkpt>
   <trkpt lat="-3.1120490" lon="37.3548110">
    <ele>4048.0</ele>
    <time>2026-06-22T09:37:11Z</time>
   </trkpt>
   <trkpt lat="-3.1120480" lon="37.3548110">
    <ele>4048.0</ele>
    <time>2026-06-22T09:37:12Z</time>
   </trkpt>
   <trkpt lat="-3.1120470" lon="37.3548110">
    <ele>4048.0</ele>
    <time>2026-06-22T09:37:13Z</time>
   </trkpt>
   <trkpt lat="-3.1120470" lon="37.3548120">
    <ele>4048.0</ele>
    <time>2026-06-22T09:37:14Z</time>
   </trkpt>
   <trkpt lat="-3.1120470" lon="37.3548130">
    <ele>4048.0</ele>
    <time>2026-06-22T09:37:15Z</time>
   </trkpt>
   <trkpt lat="-3.1120470" lon="37.3548150">
    <ele>4048.1</ele>
    <time>2026-06-22T09:37:16Z</time>
   </trkpt>
   <trkpt lat="-3.1120470" lon="37.3548160">
    <ele>4048.1</ele>
    <time>2026-06-22T09:37:17Z</time>
   </trkpt>
   <trkpt lat="-3.1120470" lon="37.3548160">
    <ele>4048.1</ele>
    <time>2026-06-22T09:37:18Z</time>
   </trkpt>
   <trkpt lat="-3.1120470" lon="37.3548170">
    <ele>4048.1</ele>
    <time>2026-06-22T09:37:19Z</time>
   </trkpt>
   <trkpt lat="-3.1120470" lon="37.3548170">
    <ele>4048.1</ele>
    <time>2026-06-22T09:37:20Z</time>
   </trkpt>
   <trkpt lat="-3.1120480" lon="37.3548160">
    <ele>4048.1</ele>
    <time>2026-06-22T09:37:21Z</time>
   </trkpt>
   <trkpt lat="-3.1120490" lon="37.3548150">
    <ele>4048.1</ele>
    <time>2026-06-22T09:37:22Z</time>
   </trkpt>
   <trkpt lat="-3.1120490" lon="37.3548150">
    <ele>4048.1</ele>
    <time>2026-06-22T09:37:23Z</time>
   </trkpt>
   <trkpt lat="-3.1120490" lon="37.3548130">
    <ele>4048.2</ele>
    <time>2026-06-22T09:37:24Z</time>
   </trkpt>
   <trkpt lat="-3.1120480" lon="37.3548120">
    <ele>4048.2</ele>
    <time>2026-06-22T09:37:25Z</time>
   </trkpt>
   <trkpt lat="-3.1120480" lon="37.3548120">
    <ele>4048.2</ele>
    <time>2026-06-22T09:37:26Z</time>
   </trkpt>
   <trkpt lat="-3.1120480" lon="37.3548120">
    <ele>4048.2</ele>
    <time>2026-06-22T09:37:27Z</time>
   </trkpt>
   <trkpt lat="-3.1120480" lon="37.3548120">
    <ele>4048.2</ele>
    <time>2026-06-22T09:37:28Z</time>
   </trkpt>
   <trkpt lat="-3.1120480" lon="37.3548120">
    <ele>4048.2</ele>
    <time>2026-06-22T09:37:29Z</time>
   </trkpt>
   <trkpt lat="-3.1120480" lon="37.3548120">
    <ele>4048.2</ele>
    <time>2026-06-22T09:37:30Z</time>
   </trkpt>
   <trkpt lat="-3.1120460" lon="37.3548110">
    <ele>4048.2</ele>
    <time>2026-06-22T09:37:31Z</time>
   </trkpt>
   <trkpt lat="-3.1120440" lon="37.3548120">
    <ele>4048.3</ele>
    <time>2026-06-22T09:37:32Z</time>
   </trkpt>
   <trkpt lat="-3.1120470" lon="37.3548120">
    <ele>4048.3</ele>
    <time>2026-06-22T09:37:33Z</time>
   </trkpt>
   <trkpt lat="-3.1120460" lon="37.3548110">
    <ele>4048.3</ele>
    <time>2026-06-22T09:37:34Z</time>
   </trkpt>
   <trkpt lat="-3.1120460" lon="37.3548110">
    <ele>4048.3</ele>
    <time>2026-06-22T09:37:35Z</time>
   </trkpt>
   <trkpt lat="-3.1120460" lon="37.3548110">
    <ele>4048.3</ele>
    <time>2026-06-22T09:37:36Z</time>
   </trkpt>
   <trkpt lat="-3.1120470" lon="37.3548120">
    <ele>4048.3</ele>
    <time>2026-06-22T09:37:37Z</time>
   </trkpt>
   <trkpt lat="-3.1120470" lon="37.3548120">
    <ele>4048.3</ele>
    <time>2026-06-22T09:37:38Z</time>
   </trkpt>
   <trkpt lat="-3.1120490" lon="37.3548130">
    <ele>4048.4</ele>
    <time>2026-06-22T09:37:39Z</time>
   </trkpt>
   <trkpt lat="-3.1120490" lon="37.3548130">
    <ele>4048.4</ele>
    <time>2026-06-22T09:37:40Z</time>
   </trkpt>
   <trkpt lat="-3.1120490" lon="37.3548130">
    <ele>4048.4</ele>
    <time>2026-06-22T09:37:41Z</time>
   </trkpt>
   <trkpt lat="-3.1120490" lon="37.3548130">
    <ele>4048.4</ele>
    <time>2026-06-22T09:37:42Z</time>
   </trkpt>
   <trkpt lat="-3.1120510" lon="37.3548120">
    <ele>4048.4</ele>
    <time>2026-06-22T09:37:43Z</time>
   </trkpt>
   <trkpt lat="-3.1120500" lon="37.3548110">
    <ele>4048.4</ele>
    <time>2026-06-22T09:37:44Z</time>
   </trkpt>
   <trkpt lat="-3.1120500" lon="37.3548120">
    <ele>4048.4</ele>
    <time>2026-06-22T09:37:45Z</time>
   </trkpt>
   <trkpt lat="-3.1120500" lon="37.3548120">
    <ele>4048.4</ele>
    <time>2026-06-22T09:37:46Z</time>
   </trkpt>
   <trkpt lat="-3.1120500" lon="37.3548120">
    <ele>4048.4</ele>
    <time>2026-06-22T09:37:47Z</time>
   </trkpt>
   <trkpt lat="-3.1120500" lon="37.3548120">
    <ele>4048.4</ele>
    <time>2026-06-22T09:37:48Z</time>
   </trkpt>
   <trkpt lat="-3.1120510" lon="37.3548120">
    <ele>4048.4</ele>
    <time>2026-06-22T09:37:49Z</time>
   </trkpt>
   <trkpt lat="-3.1120510" lon="37.3548120">
    <ele>4048.4</ele>
    <time>2026-06-22T09:37:50Z</time>
   </trkpt>
   <trkpt lat="-3.1120520" lon="37.3548120">
    <ele>4048.5</ele>
    <time>2026-06-22T09:37:51Z</time>
   </trkpt>
   <trkpt lat="-3.1120520" lon="37.3548120">
    <ele>4048.5</ele>
    <time>2026-06-22T09:37:52Z</time>
   </trkpt>
   <trkpt lat="-3.1120520" lon="37.3548100">
    <ele>4048.5</ele>
    <time>2026-06-22T09:37:53Z</time>
   </trkpt>
   <trkpt lat="-3.1120530" lon="37.3548100">
    <ele>4048.5</ele>
    <time>2026-06-22T09:37:54Z</time>
   </trkpt>
   <trkpt lat="-3.1120530" lon="37.3548100">
    <ele>4048.5</ele>
    <time>2026-06-22T09:37:55Z</time>
   </trkpt>
   <trkpt lat="-3.1120530" lon="37.3548090">
    <ele>4048.5</ele>
    <time>2026-06-22T09:37:56Z</time>
   </trkpt>
   <trkpt lat="-3.1120530" lon="37.3548090">
    <ele>4048.5</ele>
    <time>2026-06-22T09:37:57Z</time>
   </trkpt>
   <trkpt lat="-3.1120540" lon="37.3548080">
    <ele>4048.5</ele>
    <time>2026-06-22T09:37:58Z</time>
   </trkpt>
   <trkpt lat="-3.1120530" lon="37.3548080">
    <ele>4048.5</ele>
    <time>2026-06-22T09:37:59Z</time>
   </trkpt>
   <trkpt lat="-3.1120530" lon="37.3548060">
    <ele>4048.6</ele>
    <time>2026-06-22T09:38:00Z</time>
   </trkpt>
   <trkpt lat="-3.1120530" lon="37.3548060">
    <ele>4048.6</ele>
    <time>2026-06-22T09:38:01Z</time>
   </trkpt>
   <trkpt lat="-3.1120530" lon="37.3548060">
    <ele>4048.6</ele>
    <time>2026-06-22T09:38:02Z</time>
   </trkpt>
   <trkpt lat="-3.1120530" lon="37.3548070">
    <ele>4048.6</ele>
    <time>2026-06-22T09:38:03Z</time>
   </trkpt>
   <trkpt lat="-3.1120530" lon="37.3548070">
    <ele>4048.6</ele>
    <time>2026-06-22T09:38:04Z</time>
   </trkpt>
   <trkpt lat="-3.1120530" lon="37.3548070">
    <ele>4048.6</ele>
    <time>2026-06-22T09:38:05Z</time>
   </trkpt>
   <trkpt lat="-3.1120530" lon="37.3548070">
    <ele>4048.6</ele>
    <time>2026-06-22T09:38:06Z</time>
   </trkpt>
   <trkpt lat="-3.1120530" lon="37.3548070">
    <ele>4048.6</ele>
    <time>2026-06-22T09:38:07Z</time>
   </trkpt>
   <trkpt lat="-3.1120530" lon="37.3548090">
    <ele>4048.6</ele>
    <time>2026-06-22T09:38:08Z</time>
   </trkpt>
   <trkpt lat="-3.1120530" lon="37.3548090">
    <ele>4048.6</ele>
    <time>2026-06-22T09:38:09Z</time>
   </trkpt>
   <trkpt lat="-3.1120530" lon="37.3548090">
    <ele>4048.6</ele>
    <time>2026-06-22T09:38:10Z</time>
   </trkpt>
   <trkpt lat="-3.1120530" lon="37.3548090">
    <ele>4048.6</ele>
    <time>2026-06-22T09:38:11Z</time>
   </trkpt>
   <trkpt lat="-3.1120530" lon="37.3548090">
    <ele>4048.6</ele>
    <time>2026-06-22T09:38:12Z</time>
   </trkpt>
   <trkpt lat="-3.1120530" lon="37.3548090">
    <ele>4048.6</ele>
    <time>2026-06-22T09:38:13Z</time>
   </trkpt>
   <trkpt lat="-3.1120530" lon="37.3548090">
    <ele>4048.6</ele>
    <time>2026-06-22T09:38:14Z</time>
   </trkpt>
   <trkpt lat="-3.1120530" lon="37.3548090">
    <ele>4048.6</ele>
    <time>2026-06-22T09:38:15Z</time>
   </trkpt>
   <trkpt lat="-3.1120530" lon="37.3548090">
    <ele>4048.6</ele>
    <time>2026-06-22T09:38:16Z</time>
   </trkpt>
   <trkpt lat="-3.1120530" lon="37.3548090">
    <ele>4048.6</ele>
    <time>2026-06-22T09:38:17Z</time>
   </trkpt>
   <trkpt lat="-3.1120540" lon="37.3548090">
    <ele>4048.6</ele>
    <time>2026-06-22T09:38:18Z</time>
   </trkpt>
   <trkpt lat="-3.1120540" lon="37.3548100">
    <ele>4048.6</ele>
    <time>2026-06-22T09:38:19Z</time>
   </trkpt>
   <trkpt lat="-3.1120540" lon="37.3548100">
    <ele>4048.6</ele>
    <time>2026-06-22T09:38:20Z</time>
   </trkpt>
   <trkpt lat="-3.1120540" lon="37.3548100">
    <ele>4048.6</ele>
    <time>2026-06-22T09:38:21Z</time>
   </trkpt>
   <trkpt lat="-3.1120550" lon="37.3548110">
    <ele>4048.7</ele>
    <time>2026-06-22T09:38:22Z</time>
   </trkpt>
   <trkpt lat="-3.1120550" lon="37.3548110">
    <ele>4048.7</ele>
    <time>2026-06-22T09:38:23Z</time>
   </trkpt>
   <trkpt lat="-3.1120550" lon="37.3548100">
    <ele>4048.7</ele>
    <time>2026-06-22T09:38:24Z</time>
   </trkpt>
   <trkpt lat="-3.1120550" lon="37.3548110">
    <ele>4048.7</ele>
    <time>2026-06-22T09:38:25Z</time>
   </trkpt>
   <trkpt lat="-3.1120550" lon="37.3548110">
    <ele>4048.7</ele>
    <time>2026-06-22T09:38:26Z</time>
   </trkpt>
   <trkpt lat="-3.1120550" lon="37.3548110">
    <ele>4048.7</ele>
    <time>2026-06-22T09:38:27Z</time>
   </trkpt>
   <trkpt lat="-3.1120560" lon="37.3548110">
    <ele>4048.7</ele>
    <time>2026-06-22T09:38:28Z</time>
   </trkpt>
   <trkpt lat="-3.1120560" lon="37.3548100">
    <ele>4048.7</ele>
    <time>2026-06-22T09:38:29Z</time>
   </trkpt>
   <trkpt lat="-3.1120550" lon="37.3548090">
    <ele>4048.7</ele>
    <time>2026-06-22T09:38:30Z</time>
   </trkpt>
   <trkpt lat="-3.1120550" lon="37.3548080">
    <ele>4048.8</ele>
    <time>2026-06-22T09:38:31Z</time>
   </trkpt>
   <trkpt lat="-3.1120550" lon="37.3548090">
    <ele>4048.8</ele>
    <time>2026-06-22T09:38:32Z</time>
   </trkpt>
   <trkpt lat="-3.1120550" lon="37.3548080">
    <ele>4048.8</ele>
    <time>2026-06-22T09:38:33Z</time>
   </trkpt>
   <trkpt lat="-3.1120550" lon="37.3548080">
    <ele>4048.8</ele>
    <time>2026-06-22T09:38:34Z</time>
   </trkpt>
   <trkpt lat="-3.1120580" lon="37.3548090">
    <ele>4048.8</ele>
    <time>2026-06-22T09:38:35Z</time>
   </trkpt>
   <trkpt lat="-3.1120550" lon="37.3548080">
    <ele>4048.9</ele>
    <time>2026-06-22T09:38:36Z</time>
   </trkpt>
   <trkpt lat="-3.1120530" lon="37.3548070">
    <ele>4048.9</ele>
    <time>2026-06-22T09:38:37Z</time>
   </trkpt>
   <trkpt lat="-3.1120530" lon="37.3548070">
    <ele>4048.9</ele>
    <time>2026-06-22T09:38:38Z</time>
   </trkpt>
   <trkpt lat="-3.1120540" lon="37.3548080">
    <ele>4048.9</ele>
    <time>2026-06-22T09:38:39Z</time>
   </trkpt>
   <trkpt lat="-3.1120540" lon="37.3548070">
    <ele>4048.9</ele>
    <time>2026-06-22T09:38:40Z</time>
   </trkpt>
   <trkpt lat="-3.1120480" lon="37.3548060">
    <ele>4049.0</ele>
    <time>2026-06-22T09:38:41Z</time>
   </trkpt>
   <trkpt lat="-3.1120420" lon="37.3548050">
    <ele>4049.1</ele>
    <time>2026-06-22T09:38:42Z</time>
   </trkpt>
   <trkpt lat="-3.1120340" lon="37.3548090">
    <ele>4049.2</ele>
    <time>2026-06-22T09:38:43Z</time>
   </trkpt>
   <trkpt lat="-3.1120290" lon="37.3548180">
    <ele>4049.4</ele>
    <time>2026-06-22T09:38:44Z</time>
   </trkpt>
   <trkpt lat="-3.1120260" lon="37.3548250">
    <ele>4049.5</ele>
    <time>2026-06-22T09:38:45Z</time>
   </trkpt>
   <trkpt lat="-3.1120240" lon="37.3548290">
    <ele>4049.6</ele>
    <time>2026-06-22T09:38:46Z</time>
   </trkpt>
   <trkpt lat="-3.1120240" lon="37.3548300">
    <ele>4049.6</ele>
    <time>2026-06-22T09:38:47Z</time>
   </trkpt>
   <trkpt lat="-3.1120230" lon="37.3548310">
    <ele>4049.6</ele>
    <time>2026-06-22T09:38:48Z</time>
   </trkpt>
   <trkpt lat="-3.1120200" lon="37.3548310">
    <ele>4049.6</ele>
    <time>2026-06-22T09:38:49Z</time>
   </trkpt>
   <trkpt lat="-3.1120200" lon="37.3548320">
    <ele>4049.6</ele>
    <time>2026-06-22T09:38:50Z</time>
   </trkpt>
   <trkpt lat="-3.1120190" lon="37.3548320">
    <ele>4049.7</ele>
    <time>2026-06-22T09:38:51Z</time>
   </trkpt>
   <trkpt lat="-3.1120180" lon="37.3548330">
    <ele>4049.7</ele>
    <time>2026-06-22T09:38:52Z</time>
   </trkpt>
   <trkpt lat="-3.1120180" lon="37.3548330">
    <ele>4049.7</ele>
    <time>2026-06-22T09:38:53Z</time>
   </trkpt>
   <trkpt lat="-3.1120180" lon="37.3548330">
    <ele>4049.7</ele>
    <time>2026-06-22T09:38:54Z</time>
   </trkpt>
   <trkpt lat="-3.1120170" lon="37.3548330">
    <ele>4049.7</ele>
    <time>2026-06-22T09:38:55Z</time>
   </trkpt>
   <trkpt lat="-3.1120160" lon="37.3548330">
    <ele>4049.7</ele>
    <time>2026-06-22T09:38:56Z</time>
   </trkpt>
   <trkpt lat="-3.1120160" lon="37.3548330">
    <ele>4049.7</ele>
    <time>2026-06-22T09:38:57Z</time>
   </trkpt>
   <trkpt lat="-3.1120160" lon="37.3548330">
    <ele>4049.7</ele>
    <time>2026-06-22T09:38:58Z</time>
   </trkpt>
   <trkpt lat="-3.1120150" lon="37.3548350">
    <ele>4049.7</ele>
    <time>2026-06-22T09:38:59Z</time>
   </trkpt>
   <trkpt lat="-3.1120160" lon="37.3548340">
    <ele>4049.8</ele>
    <time>2026-06-22T09:39:00Z</time>
   </trkpt>
   <trkpt lat="-3.1120160" lon="37.3548330">
    <ele>4049.8</ele>
    <time>2026-06-22T09:39:01Z</time>
   </trkpt>
   <trkpt lat="-3.1120150" lon="37.3548320">
    <ele>4049.8</ele>
    <time>2026-06-22T09:39:02Z</time>
   </trkpt>
   <trkpt lat="-3.1120150" lon="37.3548320">
    <ele>4049.8</ele>
    <time>2026-06-22T09:39:03Z</time>
   </trkpt>
   <trkpt lat="-3.1120150" lon="37.3548320">
    <ele>4049.8</ele>
    <time>2026-06-22T09:39:04Z</time>
   </trkpt>
   <trkpt lat="-3.1120150" lon="37.3548320">
    <ele>4049.8</ele>
    <time>2026-06-22T09:39:05Z</time>
   </trkpt>
   <trkpt lat="-3.1120150" lon="37.3548320">
    <ele>4049.8</ele>
    <time>2026-06-22T09:39:06Z</time>
   </trkpt>
   <trkpt lat="-3.1120150" lon="37.3548310">
    <ele>4049.8</ele>
    <time>2026-06-22T09:39:07Z</time>
   </trkpt>
   <trkpt lat="-3.1120150" lon="37.3548300">
    <ele>4049.8</ele>
    <time>2026-06-22T09:39:08Z</time>
   </trkpt>
   <trkpt lat="-3.1120160" lon="37.3548310">
    <ele>4049.8</ele>
    <time>2026-06-22T09:39:09Z</time>
   </trkpt>
   <trkpt lat="-3.1120150" lon="37.3548300">
    <ele>4049.9</ele>
    <time>2026-06-22T09:39:10Z</time>
   </trkpt>
   <trkpt lat="-3.1120170" lon="37.3548300">
    <ele>4049.9</ele>
    <time>2026-06-22T09:39:11Z</time>
   </trkpt>
   <trkpt lat="-3.1120160" lon="37.3548300">
    <ele>4049.9</ele>
    <time>2026-06-22T09:39:12Z</time>
   </trkpt>
   <trkpt lat="-3.1120180" lon="37.3548300">
    <ele>4049.9</ele>
    <time>2026-06-22T09:39:13Z</time>
   </trkpt>
   <trkpt lat="-3.1120170" lon="37.3548300">
    <ele>4049.9</ele>
    <time>2026-06-22T09:39:14Z</time>
   </trkpt>
   <trkpt lat="-3.1120170" lon="37.3548300">
    <ele>4049.9</ele>
    <time>2026-06-22T09:39:15Z</time>
   </trkpt>
   <trkpt lat="-3.1120170" lon="37.3548300">
    <ele>4049.9</ele>
    <time>2026-06-22T09:39:16Z</time>
   </trkpt>
   <trkpt lat="-3.1120170" lon="37.3548310">
    <ele>4050.0</ele>
    <time>2026-06-22T09:39:17Z</time>
   </trkpt>
   <trkpt lat="-3.1120170" lon="37.3548310">
    <ele>4050.0</ele>
    <time>2026-06-22T09:39:18Z</time>
   </trkpt>
   <trkpt lat="-3.1120170" lon="37.3548300">
    <ele>4050.0</ele>
    <time>2026-06-22T09:39:19Z</time>
   </trkpt>
   <trkpt lat="-3.1120180" lon="37.3548300">
    <ele>4050.0</ele>
    <time>2026-06-22T09:39:20Z</time>
   </trkpt>
   <trkpt lat="-3.1120180" lon="37.3548300">
    <ele>4050.0</ele>
    <time>2026-06-22T09:39:21Z</time>
   </trkpt>
   <trkpt lat="-3.1120170" lon="37.3548300">
    <ele>4050.0</ele>
    <time>2026-06-22T09:39:22Z</time>
   </trkpt>
   <trkpt lat="-3.1120160" lon="37.3548290">
    <ele>4050.0</ele>
    <time>2026-06-22T09:39:23Z</time>
   </trkpt>
   <trkpt lat="-3.1120170" lon="37.3548290">
    <ele>4050.0</ele>
    <time>2026-06-22T09:39:24Z</time>
   </trkpt>
   <trkpt lat="-3.1120170" lon="37.3548290">
    <ele>4050.0</ele>
    <time>2026-06-22T09:39:25Z</time>
   </trkpt>
   <trkpt lat="-3.1120180" lon="37.3548290">
    <ele>4050.0</ele>
    <time>2026-06-22T09:39:26Z</time>
   </trkpt>
   <trkpt lat="-3.1120190" lon="37.3548300">
    <ele>4050.1</ele>
    <time>2026-06-22T09:39:27Z</time>
   </trkpt>
   <trkpt lat="-3.1120190" lon="37.3548300">
    <ele>4050.1</ele>
    <time>2026-06-22T09:39:28Z</time>
   </trkpt>
   <trkpt lat="-3.1120190" lon="37.3548300">
    <ele>4050.1</ele>
    <time>2026-06-22T09:39:29Z</time>
   </trkpt>
   <trkpt lat="-3.1120190" lon="37.3548300">
    <ele>4050.1</ele>
    <time>2026-06-22T09:39:30Z</time>
   </trkpt>
   <trkpt lat="-3.1120190" lon="37.3548300">
    <ele>4050.1</ele>
    <time>2026-06-22T09:39:31Z</time>
   </trkpt>
   <trkpt lat="-3.1120200" lon="37.3548300">
    <ele>4050.1</ele>
    <time>2026-06-22T09:39:32Z</time>
   </trkpt>
   <trkpt lat="-3.1120190" lon="37.3548300">
    <ele>4050.1</ele>
    <time>2026-06-22T09:39:33Z</time>
   </trkpt>
   <trkpt lat="-3.1120200" lon="37.3548300">
    <ele>4050.1</ele>
    <time>2026-06-22T09:39:34Z</time>
   </trkpt>
   <trkpt lat="-3.1120190" lon="37.3548300">
    <ele>4050.1</ele>
    <time>2026-06-22T09:39:35Z</time>
   </trkpt>
   <trkpt lat="-3.1120190" lon="37.3548300">
    <ele>4050.1</ele>
    <time>2026-06-22T09:39:36Z</time>
   </trkpt>
   <trkpt lat="-3.1120200" lon="37.3548300">
    <ele>4050.1</ele>
    <time>2026-06-22T09:39:37Z</time>
   </trkpt>
   <trkpt lat="-3.1120200" lon="37.3548310">
    <ele>4050.1</ele>
    <time>2026-06-22T09:39:38Z</time>
   </trkpt>
   <trkpt lat="-3.1120190" lon="37.3548300">
    <ele>4050.2</ele>
    <time>2026-06-22T09:39:39Z</time>
   </trkpt>
   <trkpt lat="-3.1120190" lon="37.3548310">
    <ele>4050.2</ele>
    <time>2026-06-22T09:39:40Z</time>
   </trkpt>
   <trkpt lat="-3.1120190" lon="37.3548300">
    <ele>4050.2</ele>
    <time>2026-06-22T09:39:41Z</time>
   </trkpt>
   <trkpt lat="-3.1120190" lon="37.3548320">
    <ele>4050.2</ele>
    <time>2026-06-22T09:39:42Z</time>
   </trkpt>
   <trkpt lat="-3.1120190" lon="37.3548330">
    <ele>4050.2</ele>
    <time>2026-06-22T09:39:43Z</time>
   </trkpt>
   <trkpt lat="-3.1120190" lon="37.3548300">
    <ele>4050.3</ele>
    <time>2026-06-22T09:39:44Z</time>
   </trkpt>
   <trkpt lat="-3.1120190" lon="37.3548290">
    <ele>4050.3</ele>
    <time>2026-06-22T09:39:45Z</time>
   </trkpt>
   <trkpt lat="-3.1120180" lon="37.3548260">
    <ele>4050.3</ele>
    <time>2026-06-22T09:39:46Z</time>
   </trkpt>
   <trkpt lat="-3.1120160" lon="37.3548250">
    <ele>4050.4</ele>
    <time>2026-06-22T09:39:47Z</time>
   </trkpt>
   <trkpt lat="-3.1120170" lon="37.3548240">
    <ele>4050.4</ele>
    <time>2026-06-22T09:39:48Z</time>
   </trkpt>
   <trkpt lat="-3.1120160" lon="37.3548270">
    <ele>4050.4</ele>
    <time>2026-06-22T09:39:49Z</time>
   </trkpt>
   <trkpt lat="-3.1120130" lon="37.3548350">
    <ele>4050.6</ele>
    <time>2026-06-22T09:39:50Z</time>
   </trkpt>
   <trkpt lat="-3.1120120" lon="37.3548400">
    <ele>4050.6</ele>
    <time>2026-06-22T09:39:51Z</time>
   </trkpt>
   <trkpt lat="-3.1120120" lon="37.3548450">
    <ele>4050.7</ele>
    <time>2026-06-22T09:39:52Z</time>
   </trkpt>
   <trkpt lat="-3.1120110" lon="37.3548510">
    <ele>4050.8</ele>
    <time>2026-06-22T09:39:53Z</time>
   </trkpt>
   <trkpt lat="-3.1120130" lon="37.3548570">
    <ele>4050.9</ele>
    <time>2026-06-22T09:39:54Z</time>
   </trkpt>
   <trkpt lat="-3.1120120" lon="37.3548580">
    <ele>4050.9</ele>
    <time>2026-06-22T09:39:55Z</time>
   </trkpt>
   <trkpt lat="-3.1120120" lon="37.3548600">
    <ele>4050.9</ele>
    <time>2026-06-22T09:39:56Z</time>
   </trkpt>
   <trkpt lat="-3.1120140" lon="37.3548660">
    <ele>4051.0</ele>
    <time>2026-06-22T09:39:57Z</time>
   </trkpt>
   <trkpt lat="-3.1120120" lon="37.3548690">
    <ele>4051.1</ele>
    <time>2026-06-22T09:39:58Z</time>
   </trkpt>
   <trkpt lat="-3.1120090" lon="37.3548740">
    <ele>4051.2</ele>
    <time>2026-06-22T09:39:59Z</time>
   </trkpt>
   <trkpt lat="-3.1120080" lon="37.3548780">
    <ele>4051.2</ele>
    <time>2026-06-22T09:40:00Z</time>
   </trkpt>
   <trkpt lat="-3.1120060" lon="37.3548820">
    <ele>4051.3</ele>
    <time>2026-06-22T09:40:01Z</time>
   </trkpt>
   <trkpt lat="-3.1120030" lon="37.3548810">
    <ele>4051.3</ele>
    <time>2026-06-22T09:40:02Z</time>
   </trkpt>
   <trkpt lat="-3.1120080" lon="37.3548810">
    <ele>4051.4</ele>
    <time>2026-06-22T09:40:03Z</time>
   </trkpt>
   <trkpt lat="-3.1120110" lon="37.3548820">
    <ele>4051.5</ele>
    <time>2026-06-22T09:40:04Z</time>
   </trkpt>
   <trkpt lat="-3.1120140" lon="37.3548830">
    <ele>4051.5</ele>
    <time>2026-06-22T09:40:05Z</time>
   </trkpt>
   <trkpt lat="-3.1120130" lon="37.3548830">
    <ele>4051.5</ele>
    <time>2026-06-22T09:40:06Z</time>
   </trkpt>
   <trkpt lat="-3.1120140" lon="37.3548830">
    <ele>4051.5</ele>
    <time>2026-06-22T09:40:07Z</time>
   </trkpt>
   <trkpt lat="-3.1120140" lon="37.3548830">
    <ele>4051.5</ele>
    <time>2026-06-22T09:40:08Z</time>
   </trkpt>
   <trkpt lat="-3.1120140" lon="37.3548830">
    <ele>4051.5</ele>
    <time>2026-06-22T09:40:09Z</time>
   </trkpt>
   <trkpt lat="-3.1120150" lon="37.3548820">
    <ele>4051.6</ele>
    <time>2026-06-22T09:40:10Z</time>
   </trkpt>
   <trkpt lat="-3.1120150" lon="37.3548820">
    <ele>4051.6</ele>
    <time>2026-06-22T09:40:11Z</time>
   </trkpt>
   <trkpt lat="-3.1120150" lon="37.3548820">
    <ele>4051.6</ele>
    <time>2026-06-22T09:40:12Z</time>
   </trkpt>
   <trkpt lat="-3.1120140" lon="37.3548800">
    <ele>4051.6</ele>
    <time>2026-06-22T09:40:13Z</time>
   </trkpt>
   <trkpt lat="-3.1120120" lon="37.3548790">
    <ele>4051.6</ele>
    <time>2026-06-22T09:40:14Z</time>
   </trkpt>
   <trkpt lat="-3.1120090" lon="37.3548800">
    <ele>4051.7</ele>
    <time>2026-06-22T09:40:15Z</time>
   </trkpt>
   <trkpt lat="-3.1120090" lon="37.3548820">
    <ele>4051.7</ele>
    <time>2026-06-22T09:40:16Z</time>
   </trkpt>
   <trkpt lat="-3.1120090" lon="37.3548830">
    <ele>4051.7</ele>
    <time>2026-06-22T09:40:17Z</time>
   </trkpt>
   <trkpt lat="-3.1120050" lon="37.3548830">
    <ele>4051.8</ele>
    <time>2026-06-22T09:40:18Z</time>
   </trkpt>
   <trkpt lat="-3.1119990" lon="37.3548820">
    <ele>4051.9</ele>
    <time>2026-06-22T09:40:19Z</time>
   </trkpt>
   <trkpt lat="-3.1119930" lon="37.3548790">
    <ele>4052.0</ele>
    <time>2026-06-22T09:40:20Z</time>
   </trkpt>
   <trkpt lat="-3.1119870" lon="37.3548790">
    <ele>4052.0</ele>
    <time>2026-06-22T09:40:21Z</time>
   </trkpt>
   <trkpt lat="-3.1119810" lon="37.3548850">
    <ele>4052.2</ele>
    <time>2026-06-22T09:40:22Z</time>
   </trkpt>
   <trkpt lat="-3.1119760" lon="37.3548910">
    <ele>4052.3</ele>
    <time>2026-06-22T09:40:23Z</time>
   </trkpt>
   <trkpt lat="-3.1119720" lon="37.3548930">
    <ele>4052.4</ele>
    <time>2026-06-22T09:40:24Z</time>
   </trkpt>
   <trkpt lat="-3.1119680" lon="37.3548960">
    <ele>4052.4</ele>
    <time>2026-06-22T09:40:25Z</time>
   </trkpt>
   <trkpt lat="-3.1119640" lon="37.3548960">
    <ele>4052.5</ele>
    <time>2026-06-22T09:40:26Z</time>
   </trkpt>
   <trkpt lat="-3.1119580" lon="37.3548970">
    <ele>4052.6</ele>
    <time>2026-06-22T09:40:27Z</time>
   </trkpt>
   <trkpt lat="-3.1119520" lon="37.3548990">
    <ele>4052.7</ele>
    <time>2026-06-22T09:40:28Z</time>
   </trkpt>
   <trkpt lat="-3.1119450" lon="37.3549020">
    <ele>4052.8</ele>
    <time>2026-06-22T09:40:29Z</time>
   </trkpt>
   <trkpt lat="-3.1119390" lon="37.3549070">
    <ele>4052.9</ele>
    <time>2026-06-22T09:40:30Z</time>
   </trkpt>
   <trkpt lat="-3.1119340" lon="37.3549130">
    <ele>4053.0</ele>
    <time>2026-06-22T09:40:31Z</time>
   </trkpt>
   <trkpt lat="-3.1119290" lon="37.3549160">
    <ele>4053.1</ele>
    <time>2026-06-22T09:40:32Z</time>
   </trkpt>
   <trkpt lat="-3.1119250" lon="37.3549190">
    <ele>4053.2</ele>
    <time>2026-06-22T09:40:33Z</time>
   </trkpt>
   <trkpt lat="-3.1119190" lon="37.3549250">
    <ele>4053.3</ele>
    <time>2026-06-22T09:40:34Z</time>
   </trkpt>
   <trkpt lat="-3.1119170" lon="37.3549290">
    <ele>4053.4</ele>
    <time>2026-06-22T09:40:35Z</time>
   </trkpt>
   <trkpt lat="-3.1119090" lon="37.3549380">
    <ele>4053.5</ele>
    <time>2026-06-22T09:40:36Z</time>
   </trkpt>
   <trkpt lat="-3.1119040" lon="37.3549410">
    <ele>4053.6</ele>
    <time>2026-06-22T09:40:37Z</time>
   </trkpt>
   <trkpt lat="-3.1119030" lon="37.3549480">
    <ele>4053.7</ele>
    <time>2026-06-22T09:40:38Z</time>
   </trkpt>
   <trkpt lat="-3.1118970" lon="37.3549530">
    <ele>4053.9</ele>
    <time>2026-06-22T09:40:39Z</time>
   </trkpt>
   <trkpt lat="-3.1118980" lon="37.3549580">
    <ele>4053.9</ele>
    <time>2026-06-22T09:40:40Z</time>
   </trkpt>
   <trkpt lat="-3.1118990" lon="37.3549610">
    <ele>4054.0</ele>
    <time>2026-06-22T09:40:41Z</time>
   </trkpt>
   <trkpt lat="-3.1119040" lon="37.3549540">
    <ele>4054.1</ele>
    <time>2026-06-22T09:40:42Z</time>
   </trkpt>
   <trkpt lat="-3.1118990" lon="37.3549520">
    <ele>4054.2</ele>
    <time>2026-06-22T09:40:43Z</time>
   </trkpt>
   <trkpt lat="-3.1119000" lon="37.3549530">
    <ele>4054.2</ele>
    <time>2026-06-22T09:40:44Z</time>
   </trkpt>
   <trkpt lat="-3.1118990" lon="37.3549540">
    <ele>4054.2</ele>
    <time>2026-06-22T09:40:45Z</time>
   </trkpt>
   <trkpt lat="-3.1118990" lon="37.3549540">
    <ele>4054.2</ele>
    <time>2026-06-22T09:40:46Z</time>
   </trkpt>
   <trkpt lat="-3.1118980" lon="37.3549550">
    <ele>4054.2</ele>
    <time>2026-06-22T09:40:47Z</time>
   </trkpt>
   <trkpt lat="-3.1118980" lon="37.3549560">
    <ele>4054.3</ele>
    <time>2026-06-22T09:40:48Z</time>
   </trkpt>
   <trkpt lat="-3.1118980" lon="37.3549550">
    <ele>4054.3</ele>
    <time>2026-06-22T09:40:49Z</time>
   </trkpt>
   <trkpt lat="-3.1118980" lon="37.3549500">
    <ele>4054.4</ele>
    <time>2026-06-22T09:40:50Z</time>
   </trkpt>
   <trkpt lat="-3.1119010" lon="37.3549480">
    <ele>4054.4</ele>
    <time>2026-06-22T09:40:51Z</time>
   </trkpt>
   <trkpt lat="-3.1118960" lon="37.3549500">
    <ele>4054.5</ele>
    <time>2026-06-22T09:40:52Z</time>
   </trkpt>
   <trkpt lat="-3.1118960" lon="37.3549510">
    <ele>4054.5</ele>
    <time>2026-06-22T09:40:53Z</time>
   </trkpt>
   <trkpt lat="-3.1118970" lon="37.3549540">
    <ele>4054.5</ele>
    <time>2026-06-22T09:40:54Z</time>
   </trkpt>
   <trkpt lat="-3.1118960" lon="37.3549550">
    <ele>4054.6</ele>
    <time>2026-06-22T09:40:55Z</time>
   </trkpt>
   <trkpt lat="-3.1118960" lon="37.3549570">
    <ele>4054.6</ele>
    <time>2026-06-22T09:40:56Z</time>
   </trkpt>
   <trkpt lat="-3.1118930" lon="37.3549590">
    <ele>4054.7</ele>
    <time>2026-06-22T09:40:57Z</time>
   </trkpt>
   <trkpt lat="-3.1118880" lon="37.3549640">
    <ele>4054.8</ele>
    <time>2026-06-22T09:40:58Z</time>
   </trkpt>
   <trkpt lat="-3.1118850" lon="37.3549660">
    <ele>4054.8</ele>
    <time>2026-06-22T09:40:59Z</time>
   </trkpt>
   <trkpt lat="-3.1118850" lon="37.3549660">
    <ele>4054.8</ele>
    <time>2026-06-22T09:41:00Z</time>
   </trkpt>
   <trkpt lat="-3.1118830" lon="37.3549670">
    <ele>4054.8</ele>
    <time>2026-06-22T09:41:01Z</time>
   </trkpt>
   <trkpt lat="-3.1118850" lon="37.3549650">
    <ele>4054.9</ele>
    <time>2026-06-22T09:41:02Z</time>
   </trkpt>
   <trkpt lat="-3.1118840" lon="37.3549680">
    <ele>4054.9</ele>
    <time>2026-06-22T09:41:03Z</time>
   </trkpt>
   <trkpt lat="-3.1118840" lon="37.3549680">
    <ele>4054.9</ele>
    <time>2026-06-22T09:41:04Z</time>
   </trkpt>
   <trkpt lat="-3.1118820" lon="37.3549680">
    <ele>4055.0</ele>
    <time>2026-06-22T09:41:05Z</time>
   </trkpt>
   <trkpt lat="-3.1118830" lon="37.3549680">
    <ele>4055.0</ele>
    <time>2026-06-22T09:41:06Z</time>
   </trkpt>
   <trkpt lat="-3.1118820" lon="37.3549680">
    <ele>4055.0</ele>
    <time>2026-06-22T09:41:07Z</time>
   </trkpt>
   <trkpt lat="-3.1118810" lon="37.3549690">
    <ele>4055.0</ele>
    <time>2026-06-22T09:41:08Z</time>
   </trkpt>
   <trkpt lat="-3.1118850" lon="37.3549720">
    <ele>4055.1</ele>
    <time>2026-06-22T09:41:09Z</time>
   </trkpt>
   <trkpt lat="-3.1118850" lon="37.3549720">
    <ele>4055.1</ele>
    <time>2026-06-22T09:41:10Z</time>
   </trkpt>
   <trkpt lat="-3.1118840" lon="37.3549730">
    <ele>4055.1</ele>
    <time>2026-06-22T09:41:11Z</time>
   </trkpt>
   <trkpt lat="-3.1118850" lon="37.3549730">
    <ele>4055.1</ele>
    <time>2026-06-22T09:41:12Z</time>
   </trkpt>
   <trkpt lat="-3.1118860" lon="37.3549730">
    <ele>4055.1</ele>
    <time>2026-06-22T09:41:13Z</time>
   </trkpt>
   <trkpt lat="-3.1118860" lon="37.3549740">
    <ele>4055.2</ele>
    <time>2026-06-22T09:41:14Z</time>
   </trkpt>
   <trkpt lat="-3.1118860" lon="37.3549740">
    <ele>4055.2</ele>
    <time>2026-06-22T09:41:15Z</time>
   </trkpt>
   <trkpt lat="-3.1118870" lon="37.3549730">
    <ele>4055.2</ele>
    <time>2026-06-22T09:41:16Z</time>
   </trkpt>
   <trkpt lat="-3.1118870" lon="37.3549730">
    <ele>4055.2</ele>
    <time>2026-06-22T09:41:17Z</time>
   </trkpt>
   <trkpt lat="-3.1118870" lon="37.3549730">
    <ele>4055.2</ele>
    <time>2026-06-22T09:41:18Z</time>
   </trkpt>
   <trkpt lat="-3.1118870" lon="37.3549730">
    <ele>4055.2</ele>
    <time>2026-06-22T09:41:19Z</time>
   </trkpt>
   <trkpt lat="-3.1118870" lon="37.3549730">
    <ele>4055.2</ele>
    <time>2026-06-22T09:41:20Z</time>
   </trkpt>
   <trkpt lat="-3.1118880" lon="37.3549720">
    <ele>4055.2</ele>
    <time>2026-06-22T09:41:21Z</time>
   </trkpt>
   <trkpt lat="-3.1118880" lon="37.3549720">
    <ele>4055.2</ele>
    <time>2026-06-22T09:41:22Z</time>
   </trkpt>
   <trkpt lat="-3.1118880" lon="37.3549720">
    <ele>4055.2</ele>
    <time>2026-06-22T09:41:23Z</time>
   </trkpt>
   <trkpt lat="-3.1118880" lon="37.3549720">
    <ele>4055.2</ele>
    <time>2026-06-22T09:41:24Z</time>
   </trkpt>
   <trkpt lat="-3.1118880" lon="37.3549710">
    <ele>4055.2</ele>
    <time>2026-06-22T09:41:25Z</time>
   </trkpt>
   <trkpt lat="-3.1118890" lon="37.3549700">
    <ele>4055.2</ele>
    <time>2026-06-22T09:41:26Z</time>
   </trkpt>
   <trkpt lat="-3.1118890" lon="37.3549700">
    <ele>4055.2</ele>
    <time>2026-06-22T09:41:27Z</time>
   </trkpt>
   <trkpt lat="-3.1118890" lon="37.3549700">
    <ele>4055.2</ele>
    <time>2026-06-22T09:41:28Z</time>
   </trkpt>
   <trkpt lat="-3.1118890" lon="37.3549700">
    <ele>4055.2</ele>
    <time>2026-06-22T09:41:29Z</time>
   </trkpt>
   <trkpt lat="-3.1118890" lon="37.3549710">
    <ele>4055.2</ele>
    <time>2026-06-22T09:41:30Z</time>
   </trkpt>
   <trkpt lat="-3.1118900" lon="37.3549710">
    <ele>4055.3</ele>
    <time>2026-06-22T09:41:31Z</time>
   </trkpt>
   <trkpt lat="-3.1118900" lon="37.3549710">
    <ele>4055.3</ele>
    <time>2026-06-22T09:41:32Z</time>
   </trkpt>
   <trkpt lat="-3.1118900" lon="37.3549710">
    <ele>4055.3</ele>
    <time>2026-06-22T09:41:33Z</time>
   </trkpt>
   <trkpt lat="-3.1118910" lon="37.3549710">
    <ele>4055.3</ele>
    <time>2026-06-22T09:41:34Z</time>
   </trkpt>
   <trkpt lat="-3.1118900" lon="37.3549710">
    <ele>4055.3</ele>
    <time>2026-06-22T09:41:35Z</time>
   </trkpt>
   <trkpt lat="-3.1118910" lon="37.3549710">
    <ele>4055.3</ele>
    <time>2026-06-22T09:41:36Z</time>
   </trkpt>
   <trkpt lat="-3.1118900" lon="37.3549700">
    <ele>4055.3</ele>
    <time>2026-06-22T09:41:37Z</time>
   </trkpt>
   <trkpt lat="-3.1118860" lon="37.3549700">
    <ele>4055.4</ele>
    <time>2026-06-22T09:41:38Z</time>
   </trkpt>
   <trkpt lat="-3.1118830" lon="37.3549730">
    <ele>4055.5</ele>
    <time>2026-06-22T09:41:39Z</time>
   </trkpt>
   <trkpt lat="-3.1118790" lon="37.3549740">
    <ele>4055.5</ele>
    <time>2026-06-22T09:41:40Z</time>
   </trkpt>
   <trkpt lat="-3.1118790" lon="37.3549770">
    <ele>4055.6</ele>
    <time>2026-06-22T09:41:41Z</time>
   </trkpt>
   <trkpt lat="-3.1118790" lon="37.3549760">
    <ele>4055.6</ele>
    <time>2026-06-22T09:41:42Z</time>
   </trkpt>
   <trkpt lat="-3.1118760" lon="37.3549780">
    <ele>4055.6</ele>
    <time>2026-06-22T09:41:43Z</time>
   </trkpt>
   <trkpt lat="-3.1118760" lon="37.3549810">
    <ele>4055.7</ele>
    <time>2026-06-22T09:41:44Z</time>
   </trkpt>
   <trkpt lat="-3.1118730" lon="37.3549850">
    <ele>4055.7</ele>
    <time>2026-06-22T09:41:45Z</time>
   </trkpt>
   <trkpt lat="-3.1118710" lon="37.3549880">
    <ele>4055.8</ele>
    <time>2026-06-22T09:41:46Z</time>
   </trkpt>
   <trkpt lat="-3.1118700" lon="37.3549910">
    <ele>4055.8</ele>
    <time>2026-06-22T09:41:47Z</time>
   </trkpt>
   <trkpt lat="-3.1118700" lon="37.3549940">
    <ele>4055.9</ele>
    <time>2026-06-22T09:41:48Z</time>
   </trkpt>
   <trkpt lat="-3.1118660" lon="37.3549970">
    <ele>4056.0</ele>
    <time>2026-06-22T09:41:49Z</time>
   </trkpt>
   <trkpt lat="-3.1118650" lon="37.3550000">
    <ele>4056.0</ele>
    <time>2026-06-22T09:41:50Z</time>
   </trkpt>
   <trkpt lat="-3.1118630" lon="37.3550030">
    <ele>4056.1</ele>
    <time>2026-06-22T09:41:51Z</time>
   </trkpt>
   <trkpt lat="-3.1118610" lon="37.3550060">
    <ele>4056.1</ele>
    <time>2026-06-22T09:41:52Z</time>
   </trkpt>
   <trkpt lat="-3.1118570" lon="37.3550090">
    <ele>4056.2</ele>
    <time>2026-06-22T09:41:53Z</time>
   </trkpt>
   <trkpt lat="-3.1118550" lon="37.3550130">
    <ele>4056.3</ele>
    <time>2026-06-22T09:41:54Z</time>
   </trkpt>
   <trkpt lat="-3.1118520" lon="37.3550160">
    <ele>4056.3</ele>
    <time>2026-06-22T09:41:55Z</time>
   </trkpt>
   <trkpt lat="-3.1118490" lon="37.3550200">
    <ele>4056.4</ele>
    <time>2026-06-22T09:41:56Z</time>
   </trkpt>
   <trkpt lat="-3.1118450" lon="37.3550240">
    <ele>4056.5</ele>
    <time>2026-06-22T09:41:57Z</time>
   </trkpt>
   <trkpt lat="-3.1118430" lon="37.3550270">
    <ele>4056.5</ele>
    <time>2026-06-22T09:41:58Z</time>
   </trkpt>
   <trkpt lat="-3.1118410" lon="37.3550310">
    <ele>4056.6</ele>
    <time>2026-06-22T09:41:59Z</time>
   </trkpt>
   <trkpt lat="-3.1118380" lon="37.3550340">
    <ele>4056.7</ele>
    <time>2026-06-22T09:42:00Z</time>
   </trkpt>
   <trkpt lat="-3.1118360" lon="37.3550380">
    <ele>4056.7</ele>
    <time>2026-06-22T09:42:01Z</time>
   </trkpt>
   <trkpt lat="-3.1118330" lon="37.3550420">
    <ele>4056.8</ele>
    <time>2026-06-22T09:42:02Z</time>
   </trkpt>
   <trkpt lat="-3.1118320" lon="37.3550460">
    <ele>4056.9</ele>
    <time>2026-06-22T09:42:03Z</time>
   </trkpt>
   <trkpt lat="-3.1118300" lon="37.3550500">
    <ele>4056.9</ele>
    <time>2026-06-22T09:42:04Z</time>
   </trkpt>
   <trkpt lat="-3.1118310" lon="37.3550560">
    <ele>4057.0</ele>
    <time>2026-06-22T09:42:05Z</time>
   </trkpt>
   <trkpt lat="-3.1118300" lon="37.3550590">
    <ele>4057.1</ele>
    <time>2026-06-22T09:42:06Z</time>
   </trkpt>
   <trkpt lat="-3.1118270" lon="37.3550640">
    <ele>4057.2</ele>
    <time>2026-06-22T09:42:07Z</time>
   </trkpt>
   <trkpt lat="-3.1118270" lon="37.3550670">
    <ele>4057.2</ele>
    <time>2026-06-22T09:42:08Z</time>
   </trkpt>
   <trkpt lat="-3.1118240" lon="37.3550710">
    <ele>4057.3</ele>
    <time>2026-06-22T09:42:09Z</time>
   </trkpt>
   <trkpt lat="-3.1118230" lon="37.3550740">
    <ele>4057.3</ele>
    <time>2026-06-22T09:42:10Z</time>
   </trkpt>
   <trkpt lat="-3.1118200" lon="37.3550780">
    <ele>4057.4</ele>
    <time>2026-06-22T09:42:11Z</time>
   </trkpt>
   <trkpt lat="-3.1118190" lon="37.3550810">
    <ele>4057.4</ele>
    <time>2026-06-22T09:42:12Z</time>
   </trkpt>
   <trkpt lat="-3.1118170" lon="37.3550850">
    <ele>4057.5</ele>
    <time>2026-06-22T09:42:13Z</time>
   </trkpt>
   <trkpt lat="-3.1118160" lon="37.3550880">
    <ele>4057.6</ele>
    <time>2026-06-22T09:42:14Z</time>
   </trkpt>
   <trkpt lat="-3.1118160" lon="37.3550920">
    <ele>4057.6</ele>
    <time>2026-06-22T09:42:15Z</time>
   </trkpt>
   <trkpt lat="-3.1118150" lon="37.3550970">
    <ele>4057.7</ele>
    <time>2026-06-22T09:42:16Z</time>
   </trkpt>
   <trkpt lat="-3.1118150" lon="37.3551000">
    <ele>4057.7</ele>
    <time>2026-06-22T09:42:17Z</time>
   </trkpt>
   <trkpt lat="-3.1118140" lon="37.3551050">
    <ele>4057.8</ele>
    <time>2026-06-22T09:42:18Z</time>
   </trkpt>
   <trkpt lat="-3.1118130" lon="37.3551090">
    <ele>4057.9</ele>
    <time>2026-06-22T09:42:19Z</time>
   </trkpt>
   <trkpt lat="-3.1118110" lon="37.3551120">
    <ele>4057.9</ele>
    <time>2026-06-22T09:42:20Z</time>
   </trkpt>
   <trkpt lat="-3.1118090" lon="37.3551150">
    <ele>4058.0</ele>
    <time>2026-06-22T09:42:21Z</time>
   </trkpt>
   <trkpt lat="-3.1118070" lon="37.3551170">
    <ele>4058.0</ele>
    <time>2026-06-22T09:42:22Z</time>
   </trkpt>
   <trkpt lat="-3.1118030" lon="37.3551180">
    <ele>4058.1</ele>
    <time>2026-06-22T09:42:23Z</time>
   </trkpt>
   <trkpt lat="-3.1117990" lon="37.3551210">
    <ele>4058.2</ele>
    <time>2026-06-22T09:42:24Z</time>
   </trkpt>
   <trkpt lat="-3.1117950" lon="37.3551240">
    <ele>4058.2</ele>
    <time>2026-06-22T09:42:25Z</time>
   </trkpt>
   <trkpt lat="-3.1117900" lon="37.3551260">
    <ele>4058.3</ele>
    <time>2026-06-22T09:42:26Z</time>
   </trkpt>
   <trkpt lat="-3.1117840" lon="37.3551290">
    <ele>4058.4</ele>
    <time>2026-06-22T09:42:27Z</time>
   </trkpt>
   <trkpt lat="-3.1117800" lon="37.3551300">
    <ele>4058.5</ele>
    <time>2026-06-22T09:42:28Z</time>
   </trkpt>
   <trkpt lat="-3.1117770" lon="37.3551290">
    <ele>4058.5</ele>
    <time>2026-06-22T09:42:29Z</time>
   </trkpt>
   <trkpt lat="-3.1117750" lon="37.3551310">
    <ele>4058.6</ele>
    <time>2026-06-22T09:42:30Z</time>
   </trkpt>
   <trkpt lat="-3.1117710" lon="37.3551330">
    <ele>4058.6</ele>
    <time>2026-06-22T09:42:31Z</time>
   </trkpt>
   <trkpt lat="-3.1117680" lon="37.3551350">
    <ele>4058.7</ele>
    <time>2026-06-22T09:42:32Z</time>
   </trkpt>
   <trkpt lat="-3.1117650" lon="37.3551380">
    <ele>4058.7</ele>
    <time>2026-06-22T09:42:33Z</time>
   </trkpt>
   <trkpt lat="-3.1117620" lon="37.3551420">
    <ele>4058.8</ele>
    <time>2026-06-22T09:42:34Z</time>
   </trkpt>
   <trkpt lat="-3.1117610" lon="37.3551460">
    <ele>4058.9</ele>
    <time>2026-06-22T09:42:35Z</time>
   </trkpt>
   <trkpt lat="-3.1117600" lon="37.3551510">
    <ele>4059.0</ele>
    <time>2026-06-22T09:42:36Z</time>
   </trkpt>
   <trkpt lat="-3.1117600" lon="37.3551540">
    <ele>4059.0</ele>
    <time>2026-06-22T09:42:37Z</time>
   </trkpt>
   <trkpt lat="-3.1117590" lon="37.3551570">
    <ele>4059.1</ele>
    <time>2026-06-22T09:42:38Z</time>
   </trkpt>
   <trkpt lat="-3.1117580" lon="37.3551600">
    <ele>4059.1</ele>
    <time>2026-06-22T09:42:39Z</time>
   </trkpt>
   <trkpt lat="-3.1117560" lon="37.3551630">
    <ele>4059.2</ele>
    <time>2026-06-22T09:42:40Z</time>
   </trkpt>
   <trkpt lat="-3.1117540" lon="37.3551660">
    <ele>4059.2</ele>
    <time>2026-06-22T09:42:41Z</time>
   </trkpt>
   <trkpt lat="-3.1117520" lon="37.3551690">
    <ele>4059.3</ele>
    <time>2026-06-22T09:42:42Z</time>
   </trkpt>
   <trkpt lat="-3.1117520" lon="37.3551730">
    <ele>4059.3</ele>
    <time>2026-06-22T09:42:43Z</time>
   </trkpt>
   <trkpt lat="-3.1117520" lon="37.3551760">
    <ele>4059.4</ele>
    <time>2026-06-22T09:42:44Z</time>
   </trkpt>
   <trkpt lat="-3.1117550" lon="37.3551790">
    <ele>4059.4</ele>
    <time>2026-06-22T09:42:45Z</time>
   </trkpt>
   <trkpt lat="-3.1117560" lon="37.3551830">
    <ele>4059.5</ele>
    <time>2026-06-22T09:42:46Z</time>
   </trkpt>
   <trkpt lat="-3.1117560" lon="37.3551870">
    <ele>4059.5</ele>
    <time>2026-06-22T09:42:47Z</time>
   </trkpt>
   <trkpt lat="-3.1117570" lon="37.3551890">
    <ele>4059.6</ele>
    <time>2026-06-22T09:42:48Z</time>
   </trkpt>
   <trkpt lat="-3.1117570" lon="37.3551920">
    <ele>4059.6</ele>
    <time>2026-06-22T09:42:49Z</time>
   </trkpt>
   <trkpt lat="-3.1117590" lon="37.3551950">
    <ele>4059.7</ele>
    <time>2026-06-22T09:42:50Z</time>
   </trkpt>
   <trkpt lat="-3.1117600" lon="37.3551980">
    <ele>4059.7</ele>
    <time>2026-06-22T09:42:51Z</time>
   </trkpt>
   <trkpt lat="-3.1117630" lon="37.3552010">
    <ele>4059.8</ele>
    <time>2026-06-22T09:42:52Z</time>
   </trkpt>
   <trkpt lat="-3.1117650" lon="37.3552030">
    <ele>4059.8</ele>
    <time>2026-06-22T09:42:53Z</time>
   </trkpt>
   <trkpt lat="-3.1117700" lon="37.3552050">
    <ele>4059.9</ele>
    <time>2026-06-22T09:42:54Z</time>
   </trkpt>
   <trkpt lat="-3.1117720" lon="37.3552080">
    <ele>4060.0</ele>
    <time>2026-06-22T09:42:55Z</time>
   </trkpt>
   <trkpt lat="-3.1117770" lon="37.3552100">
    <ele>4060.0</ele>
    <time>2026-06-22T09:42:56Z</time>
   </trkpt>
   <trkpt lat="-3.1117810" lon="37.3552130">
    <ele>4060.1</ele>
    <time>2026-06-22T09:42:57Z</time>
   </trkpt>
   <trkpt lat="-3.1117830" lon="37.3552160">
    <ele>4060.2</ele>
    <time>2026-06-22T09:42:58Z</time>
   </trkpt>
   <trkpt lat="-3.1117840" lon="37.3552220">
    <ele>4060.3</ele>
    <time>2026-06-22T09:42:59Z</time>
   </trkpt>
   <trkpt lat="-3.1117830" lon="37.3552260">
    <ele>4060.3</ele>
    <time>2026-06-22T09:43:00Z</time>
   </trkpt>
   <trkpt lat="-3.1117810" lon="37.3552300">
    <ele>4060.4</ele>
    <time>2026-06-22T09:43:01Z</time>
   </trkpt>
   <trkpt lat="-3.1117750" lon="37.3552320">
    <ele>4060.5</ele>
    <time>2026-06-22T09:43:02Z</time>
   </trkpt>
   <trkpt lat="-3.1117730" lon="37.3552350">
    <ele>4060.5</ele>
    <time>2026-06-22T09:43:03Z</time>
   </trkpt>
   <trkpt lat="-3.1117680" lon="37.3552370">
    <ele>4060.6</ele>
    <time>2026-06-22T09:43:04Z</time>
   </trkpt>
   <trkpt lat="-3.1117640" lon="37.3552400">
    <ele>4060.7</ele>
    <time>2026-06-22T09:43:05Z</time>
   </trkpt>
   <trkpt lat="-3.1117600" lon="37.3552430">
    <ele>4060.8</ele>
    <time>2026-06-22T09:43:06Z</time>
   </trkpt>
   <trkpt lat="-3.1117580" lon="37.3552460">
    <ele>4060.8</ele>
    <time>2026-06-22T09:43:07Z</time>
   </trkpt>
   <trkpt lat="-3.1117560" lon="37.3552490">
    <ele>4060.9</ele>
    <time>2026-06-22T09:43:08Z</time>
   </trkpt>
   <trkpt lat="-3.1117550" lon="37.3552530">
    <ele>4060.9</ele>
    <time>2026-06-22T09:43:09Z</time>
   </trkpt>
   <trkpt lat="-3.1117530" lon="37.3552560">
    <ele>4061.0</ele>
    <time>2026-06-22T09:43:10Z</time>
   </trkpt>
   <trkpt lat="-3.1117510" lon="37.3552600">
    <ele>4061.1</ele>
    <time>2026-06-22T09:43:11Z</time>
   </trkpt>
   <trkpt lat="-3.1117480" lon="37.3552620">
    <ele>4061.1</ele>
    <time>2026-06-22T09:43:12Z</time>
   </trkpt>
   <trkpt lat="-3.1117450" lon="37.3552650">
    <ele>4061.2</ele>
    <time>2026-06-22T09:43:13Z</time>
   </trkpt>
   <trkpt lat="-3.1117410" lon="37.3552680">
    <ele>4061.2</ele>
    <time>2026-06-22T09:43:14Z</time>
   </trkpt>
   <trkpt lat="-3.1117380" lon="37.3552710">
    <ele>4061.3</ele>
    <time>2026-06-22T09:43:15Z</time>
   </trkpt>
   <trkpt lat="-3.1117350" lon="37.3552730">
    <ele>4061.4</ele>
    <time>2026-06-22T09:43:16Z</time>
   </trkpt>
   <trkpt lat="-3.1117320" lon="37.3552750">
    <ele>4061.4</ele>
    <time>2026-06-22T09:43:17Z</time>
   </trkpt>
   <trkpt lat="-3.1117280" lon="37.3552770">
    <ele>4061.5</ele>
    <time>2026-06-22T09:43:18Z</time>
   </trkpt>
   <trkpt lat="-3.1117240" lon="37.3552790">
    <ele>4061.5</ele>
    <time>2026-06-22T09:43:19Z</time>
   </trkpt>
   <trkpt lat="-3.1117180" lon="37.3552790">
    <ele>4061.6</ele>
    <time>2026-06-22T09:43:20Z</time>
   </trkpt>
   <trkpt lat="-3.1117140" lon="37.3552840">
    <ele>4061.7</ele>
    <time>2026-06-22T09:43:21Z</time>
   </trkpt>
   <trkpt lat="-3.1117150" lon="37.3552880">
    <ele>4061.8</ele>
    <time>2026-06-22T09:43:22Z</time>
   </trkpt>
   <trkpt lat="-3.1117160" lon="37.3552930">
    <ele>4061.9</ele>
    <time>2026-06-22T09:43:23Z</time>
   </trkpt>
   <trkpt lat="-3.1117230" lon="37.3552960">
    <ele>4062.0</ele>
    <time>2026-06-22T09:43:24Z</time>
   </trkpt>
   <trkpt lat="-3.1117270" lon="37.3552970">
    <ele>4062.0</ele>
    <time>2026-06-22T09:43:25Z</time>
   </trkpt>
   <trkpt lat="-3.1117270" lon="37.3553010">
    <ele>4062.1</ele>
    <time>2026-06-22T09:43:26Z</time>
   </trkpt>
   <trkpt lat="-3.1117290" lon="37.3553050">
    <ele>4062.2</ele>
    <time>2026-06-22T09:43:27Z</time>
   </trkpt>
   <trkpt lat="-3.1117300" lon="37.3553080">
    <ele>4062.2</ele>
    <time>2026-06-22T09:43:28Z</time>
   </trkpt>
   <trkpt lat="-3.1117330" lon="37.3553120">
    <ele>4062.3</ele>
    <time>2026-06-22T09:43:29Z</time>
   </trkpt>
   <trkpt lat="-3.1117350" lon="37.3553160">
    <ele>4062.4</ele>
    <time>2026-06-22T09:43:30Z</time>
   </trkpt>
   <trkpt lat="-3.1117370" lon="37.3553200">
    <ele>4062.4</ele>
    <time>2026-06-22T09:43:31Z</time>
   </trkpt>
   <trkpt lat="-3.1117360" lon="37.3553230">
    <ele>4062.5</ele>
    <time>2026-06-22T09:43:32Z</time>
   </trkpt>
   <trkpt lat="-3.1117390" lon="37.3553280">
    <ele>4062.6</ele>
    <time>2026-06-22T09:43:33Z</time>
   </trkpt>
   <trkpt lat="-3.1117400" lon="37.3553330">
    <ele>4062.7</ele>
    <time>2026-06-22T09:43:34Z</time>
   </trkpt>
   <trkpt lat="-3.1117420" lon="37.3553360">
    <ele>4062.7</ele>
    <time>2026-06-22T09:43:35Z</time>
   </trkpt>
   <trkpt lat="-3.1117410" lon="37.3553410">
    <ele>4062.8</ele>
    <time>2026-06-22T09:43:36Z</time>
   </trkpt>
   <trkpt lat="-3.1117390" lon="37.3553460">
    <ele>4062.9</ele>
    <time>2026-06-22T09:43:37Z</time>
   </trkpt>
   <trkpt lat="-3.1117380" lon="37.3553490">
    <ele>4062.9</ele>
    <time>2026-06-22T09:43:38Z</time>
   </trkpt>
   <trkpt lat="-3.1117350" lon="37.3553520">
    <ele>4063.0</ele>
    <time>2026-06-22T09:43:39Z</time>
   </trkpt>
   <trkpt lat="-3.1117360" lon="37.3553590">
    <ele>4063.1</ele>
    <time>2026-06-22T09:43:40Z</time>
   </trkpt>
   <trkpt lat="-3.1117330" lon="37.3553620">
    <ele>4063.2</ele>
    <time>2026-06-22T09:43:41Z</time>
   </trkpt>
   <trkpt lat="-3.1117300" lon="37.3553680">
    <ele>4063.3</ele>
    <time>2026-06-22T09:43:42Z</time>
   </trkpt>
   <trkpt lat="-3.1117290" lon="37.3553710">
    <ele>4063.4</ele>
    <time>2026-06-22T09:43:43Z</time>
   </trkpt>
   <trkpt lat="-3.1117280" lon="37.3553740">
    <ele>4063.4</ele>
    <time>2026-06-22T09:43:44Z</time>
   </trkpt>
   <trkpt lat="-3.1117250" lon="37.3553810">
    <ele>4063.5</ele>
    <time>2026-06-22T09:43:45Z</time>
   </trkpt>
   <trkpt lat="-3.1117250" lon="37.3553840">
    <ele>4063.6</ele>
    <time>2026-06-22T09:43:46Z</time>
   </trkpt>
   <trkpt lat="-3.1117250" lon="37.3553890">
    <ele>4063.7</ele>
    <time>2026-06-22T09:43:47Z</time>
   </trkpt>
   <trkpt lat="-3.1117260" lon="37.3553930">
    <ele>4063.7</ele>
    <time>2026-06-22T09:43:48Z</time>
   </trkpt>
   <trkpt lat="-3.1117290" lon="37.3554000">
    <ele>4063.8</ele>
    <time>2026-06-22T09:43:49Z</time>
   </trkpt>
   <trkpt lat="-3.1117300" lon="37.3554020">
    <ele>4063.9</ele>
    <time>2026-06-22T09:43:50Z</time>
   </trkpt>
   <trkpt lat="-3.1117280" lon="37.3554060">
    <ele>4064.0</ele>
    <time>2026-06-22T09:43:51Z</time>
   </trkpt>
   <trkpt lat="-3.1117260" lon="37.3554090">
    <ele>4064.0</ele>
    <time>2026-06-22T09:43:52Z</time>
   </trkpt>
   <trkpt lat="-3.1117240" lon="37.3554130">
    <ele>4064.1</ele>
    <time>2026-06-22T09:43:53Z</time>
   </trkpt>
   <trkpt lat="-3.1117220" lon="37.3554180">
    <ele>4064.2</ele>
    <time>2026-06-22T09:43:54Z</time>
   </trkpt>
   <trkpt lat="-3.1117210" lon="37.3554210">
    <ele>4064.2</ele>
    <time>2026-06-22T09:43:55Z</time>
   </trkpt>
   <trkpt lat="-3.1117200" lon="37.3554260">
    <ele>4064.3</ele>
    <time>2026-06-22T09:43:56Z</time>
   </trkpt>
   <trkpt lat="-3.1117200" lon="37.3554310">
    <ele>4064.4</ele>
    <time>2026-06-22T09:43:57Z</time>
   </trkpt>
   <trkpt lat="-3.1117190" lon="37.3554370">
    <ele>4064.5</ele>
    <time>2026-06-22T09:43:58Z</time>
   </trkpt>
   <trkpt lat="-3.1117170" lon="37.3554380">
    <ele>4064.5</ele>
    <time>2026-06-22T09:43:59Z</time>
   </trkpt>
   <trkpt lat="-3.1117190" lon="37.3554450">
    <ele>4064.6</ele>
    <time>2026-06-22T09:44:00Z</time>
   </trkpt>
   <trkpt lat="-3.1117200" lon="37.3554510">
    <ele>4064.7</ele>
    <time>2026-06-22T09:44:01Z</time>
   </trkpt>
   <trkpt lat="-3.1117190" lon="37.3554540">
    <ele>4064.8</ele>
    <time>2026-06-22T09:44:02Z</time>
   </trkpt>
   <trkpt lat="-3.1117200" lon="37.3554580">
    <ele>4064.9</ele>
    <time>2026-06-22T09:44:03Z</time>
   </trkpt>
   <trkpt lat="-3.1117200" lon="37.3554620">
    <ele>4064.9</ele>
    <time>2026-06-22T09:44:04Z</time>
   </trkpt>
   <trkpt lat="-3.1117200" lon="37.3554650">
    <ele>4065.0</ele>
    <time>2026-06-22T09:44:05Z</time>
   </trkpt>
   <trkpt lat="-3.1117180" lon="37.3554690">
    <ele>4065.1</ele>
    <time>2026-06-22T09:44:06Z</time>
   </trkpt>
   <trkpt lat="-3.1117170" lon="37.3554730">
    <ele>4065.1</ele>
    <time>2026-06-22T09:44:07Z</time>
   </trkpt>
   <trkpt lat="-3.1117170" lon="37.3554770">
    <ele>4065.2</ele>
    <time>2026-06-22T09:44:08Z</time>
   </trkpt>
   <trkpt lat="-3.1117170" lon="37.3554810">
    <ele>4065.3</ele>
    <time>2026-06-22T09:44:09Z</time>
   </trkpt>
   <trkpt lat="-3.1117180" lon="37.3554800">
    <ele>4065.3</ele>
    <time>2026-06-22T09:44:10Z</time>
   </trkpt>
   <trkpt lat="-3.1117180" lon="37.3554860">
    <ele>4065.4</ele>
    <time>2026-06-22T09:44:11Z</time>
   </trkpt>
   <trkpt lat="-3.1117150" lon="37.3554880">
    <ele>4065.5</ele>
    <time>2026-06-22T09:44:12Z</time>
   </trkpt>
   <trkpt lat="-3.1117140" lon="37.3554900">
    <ele>4065.5</ele>
    <time>2026-06-22T09:44:13Z</time>
   </trkpt>
   <trkpt lat="-3.1117120" lon="37.3554940">
    <ele>4065.6</ele>
    <time>2026-06-22T09:44:14Z</time>
   </trkpt>
   <trkpt lat="-3.1117090" lon="37.3554980">
    <ele>4065.7</ele>
    <time>2026-06-22T09:44:15Z</time>
   </trkpt>
   <trkpt lat="-3.1117070" lon="37.3555020">
    <ele>4065.7</ele>
    <time>2026-06-22T09:44:16Z</time>
   </trkpt>
   <trkpt lat="-3.1117060" lon="37.3555040">
    <ele>4065.8</ele>
    <time>2026-06-22T09:44:17Z</time>
   </trkpt>
   <trkpt lat="-3.1117030" lon="37.3555030">
    <ele>4065.8</ele>
    <time>2026-06-22T09:44:18Z</time>
   </trkpt>
   <trkpt lat="-3.1116990" lon="37.3555050">
    <ele>4065.9</ele>
    <time>2026-06-22T09:44:19Z</time>
   </trkpt>
   <trkpt lat="-3.1116960" lon="37.3555060">
    <ele>4066.0</ele>
    <time>2026-06-22T09:44:20Z</time>
   </trkpt>
   <trkpt lat="-3.1116930" lon="37.3555080">
    <ele>4066.0</ele>
    <time>2026-06-22T09:44:21Z</time>
   </trkpt>
   <trkpt lat="-3.1116890" lon="37.3555090">
    <ele>4066.1</ele>
    <time>2026-06-22T09:44:22Z</time>
   </trkpt>
   <trkpt lat="-3.1116860" lon="37.3555080">
    <ele>4066.2</ele>
    <time>2026-06-22T09:44:23Z</time>
   </trkpt>
   <trkpt lat="-3.1116820" lon="37.3555110">
    <ele>4066.2</ele>
    <time>2026-06-22T09:44:24Z</time>
   </trkpt>
   <trkpt lat="-3.1116800" lon="37.3555140">
    <ele>4066.3</ele>
    <time>2026-06-22T09:44:25Z</time>
   </trkpt>
   <trkpt lat="-3.1116780" lon="37.3555160">
    <ele>4066.4</ele>
    <time>2026-06-22T09:44:26Z</time>
   </trkpt>
   <trkpt lat="-3.1116760" lon="37.3555190">
    <ele>4066.4</ele>
    <time>2026-06-22T09:44:27Z</time>
   </trkpt>
   <trkpt lat="-3.1116750" lon="37.3555240">
    <ele>4066.5</ele>
    <time>2026-06-22T09:44:28Z</time>
   </trkpt>
   <trkpt lat="-3.1116760" lon="37.3555260">
    <ele>4066.6</ele>
    <time>2026-06-22T09:44:29Z</time>
   </trkpt>
   <trkpt lat="-3.1116760" lon="37.3555280">
    <ele>4066.6</ele>
    <time>2026-06-22T09:44:30Z</time>
   </trkpt>
   <trkpt lat="-3.1116730" lon="37.3555300">
    <ele>4066.6</ele>
    <time>2026-06-22T09:44:31Z</time>
   </trkpt>
   <trkpt lat="-3.1116710" lon="37.3555340">
    <ele>4066.7</ele>
    <time>2026-06-22T09:44:32Z</time>
   </trkpt>
   <trkpt lat="-3.1116690" lon="37.3555360">
    <ele>4066.8</ele>
    <time>2026-06-22T09:44:33Z</time>
   </trkpt>
   <trkpt lat="-3.1116660" lon="37.3555390">
    <ele>4066.8</ele>
    <time>2026-06-22T09:44:34Z</time>
   </trkpt>
   <trkpt lat="-3.1116640" lon="37.3555430">
    <ele>4066.9</ele>
    <time>2026-06-22T09:44:35Z</time>
   </trkpt>
   <trkpt lat="-3.1116630" lon="37.3555460">
    <ele>4067.0</ele>
    <time>2026-06-22T09:44:36Z</time>
   </trkpt>
   <trkpt lat="-3.1116620" lon="37.3555460">
    <ele>4067.0</ele>
    <time>2026-06-22T09:44:37Z</time>
   </trkpt>
   <trkpt lat="-3.1116590" lon="37.3555500">
    <ele>4067.1</ele>
    <time>2026-06-22T09:44:38Z</time>
   </trkpt>
   <trkpt lat="-3.1116560" lon="37.3555510">
    <ele>4067.1</ele>
    <time>2026-06-22T09:44:39Z</time>
   </trkpt>
   <trkpt lat="-3.1116520" lon="37.3555510">
    <ele>4067.2</ele>
    <time>2026-06-22T09:44:40Z</time>
   </trkpt>
   <trkpt lat="-3.1116490" lon="37.3555530">
    <ele>4067.3</ele>
    <time>2026-06-22T09:44:41Z</time>
   </trkpt>
   <trkpt lat="-3.1116460" lon="37.3555510">
    <ele>4067.3</ele>
    <time>2026-06-22T09:44:42Z</time>
   </trkpt>
   <trkpt lat="-3.1116430" lon="37.3555510">
    <ele>4067.4</ele>
    <time>2026-06-22T09:44:43Z</time>
   </trkpt>
   <trkpt lat="-3.1116400" lon="37.3555490">
    <ele>4067.4</ele>
    <time>2026-06-22T09:44:44Z</time>
   </trkpt>
   <trkpt lat="-3.1116360" lon="37.3555470">
    <ele>4067.5</ele>
    <time>2026-06-22T09:44:45Z</time>
   </trkpt>
   <trkpt lat="-3.1116320" lon="37.3555450">
    <ele>4067.6</ele>
    <time>2026-06-22T09:44:46Z</time>
   </trkpt>
   <trkpt lat="-3.1116270" lon="37.3555440">
    <ele>4067.7</ele>
    <time>2026-06-22T09:44:47Z</time>
   </trkpt>
   <trkpt lat="-3.1116250" lon="37.3555410">
    <ele>4067.8</ele>
    <time>2026-06-22T09:44:48Z</time>
   </trkpt>
   <trkpt lat="-3.1116240" lon="37.3555440">
    <ele>4067.8</ele>
    <time>2026-06-22T09:44:49Z</time>
   </trkpt>
   <trkpt lat="-3.1116200" lon="37.3555430">
    <ele>4067.9</ele>
    <time>2026-06-22T09:44:50Z</time>
   </trkpt>
   <trkpt lat="-3.1116160" lon="37.3555440">
    <ele>4068.0</ele>
    <time>2026-06-22T09:44:51Z</time>
   </trkpt>
   <trkpt lat="-3.1116120" lon="37.3555460">
    <ele>4068.0</ele>
    <time>2026-06-22T09:44:52Z</time>
   </trkpt>
   <trkpt lat="-3.1116080" lon="37.3555500">
    <ele>4068.1</ele>
    <time>2026-06-22T09:44:53Z</time>
   </trkpt>
   <trkpt lat="-3.1116050" lon="37.3555520">
    <ele>4068.2</ele>
    <time>2026-06-22T09:44:54Z</time>
   </trkpt>
   <trkpt lat="-3.1116040" lon="37.3555550">
    <ele>4068.2</ele>
    <time>2026-06-22T09:44:55Z</time>
   </trkpt>
   <trkpt lat="-3.1116020" lon="37.3555590">
    <ele>4068.3</ele>
    <time>2026-06-22T09:44:56Z</time>
   </trkpt>
   <trkpt lat="-3.1115990" lon="37.3555640">
    <ele>4068.4</ele>
    <time>2026-06-22T09:44:57Z</time>
   </trkpt>
   <trkpt lat="-3.1115980" lon="37.3555670">
    <ele>4068.5</ele>
    <time>2026-06-22T09:44:58Z</time>
   </trkpt>
   <trkpt lat="-3.1115970" lon="37.3555720">
    <ele>4068.6</ele>
    <time>2026-06-22T09:44:59Z</time>
   </trkpt>
   <trkpt lat="-3.1115980" lon="37.3555770">
    <ele>4068.7</ele>
    <time>2026-06-22T09:45:00Z</time>
   </trkpt>
   <trkpt lat="-3.1115980" lon="37.3555820">
    <ele>4068.7</ele>
    <time>2026-06-22T09:45:01Z</time>
   </trkpt>
   <trkpt lat="-3.1115990" lon="37.3555840">
    <ele>4068.8</ele>
    <time>2026-06-22T09:45:02Z</time>
   </trkpt>
   <trkpt lat="-3.1115990" lon="37.3555880">
    <ele>4068.9</ele>
    <time>2026-06-22T09:45:03Z</time>
   </trkpt>
   <trkpt lat="-3.1115990" lon="37.3555900">
    <ele>4068.9</ele>
    <time>2026-06-22T09:45:04Z</time>
   </trkpt>
   <trkpt lat="-3.1115990" lon="37.3555930">
    <ele>4068.9</ele>
    <time>2026-06-22T09:45:05Z</time>
   </trkpt>
   <trkpt lat="-3.1115990" lon="37.3555980">
    <ele>4069.0</ele>
    <time>2026-06-22T09:45:06Z</time>
   </trkpt>
   <trkpt lat="-3.1115990" lon="37.3556010">
    <ele>4069.1</ele>
    <time>2026-06-22T09:45:07Z</time>
   </trkpt>
   <trkpt lat="-3.1116010" lon="37.3556030">
    <ele>4069.1</ele>
    <time>2026-06-22T09:45:08Z</time>
   </trkpt>
   <trkpt lat="-3.1115990" lon="37.3556080">
    <ele>4069.2</ele>
    <time>2026-06-22T09:45:09Z</time>
   </trkpt>
   <trkpt lat="-3.1116000" lon="37.3556080">
    <ele>4069.2</ele>
    <time>2026-06-22T09:45:10Z</time>
   </trkpt>
   <trkpt lat="-3.1115990" lon="37.3556110">
    <ele>4069.3</ele>
    <time>2026-06-22T09:45:11Z</time>
   </trkpt>
   <trkpt lat="-3.1115930" lon="37.3556160">
    <ele>4069.4</ele>
    <time>2026-06-22T09:45:12Z</time>
   </trkpt>
   <trkpt lat="-3.1115930" lon="37.3556150">
    <ele>4069.4</ele>
    <time>2026-06-22T09:45:13Z</time>
   </trkpt>
   <trkpt lat="-3.1115880" lon="37.3556170">
    <ele>4069.5</ele>
    <time>2026-06-22T09:45:14Z</time>
   </trkpt>
   <trkpt lat="-3.1115850" lon="37.3556190">
    <ele>4069.6</ele>
    <time>2026-06-22T09:45:15Z</time>
   </trkpt>
   <trkpt lat="-3.1115820" lon="37.3556180">
    <ele>4069.7</ele>
    <time>2026-06-22T09:45:16Z</time>
   </trkpt>
   <trkpt lat="-3.1115770" lon="37.3556180">
    <ele>4069.7</ele>
    <time>2026-06-22T09:45:17Z</time>
   </trkpt>
   <trkpt lat="-3.1115720" lon="37.3556190">
    <ele>4069.8</ele>
    <time>2026-06-22T09:45:18Z</time>
   </trkpt>
   <trkpt lat="-3.1115700" lon="37.3556220">
    <ele>4069.9</ele>
    <time>2026-06-22T09:45:19Z</time>
   </trkpt>
   <trkpt lat="-3.1115650" lon="37.3556260">
    <ele>4070.0</ele>
    <time>2026-06-22T09:45:20Z</time>
   </trkpt>
   <trkpt lat="-3.1115670" lon="37.3556280">
    <ele>4070.1</ele>
    <time>2026-06-22T09:45:21Z</time>
   </trkpt>
   <trkpt lat="-3.1115680" lon="37.3556340">
    <ele>4070.2</ele>
    <time>2026-06-22T09:45:22Z</time>
   </trkpt>
   <trkpt lat="-3.1115710" lon="37.3556360">
    <ele>4070.2</ele>
    <time>2026-06-22T09:45:23Z</time>
   </trkpt>
   <trkpt lat="-3.1115720" lon="37.3556410">
    <ele>4070.3</ele>
    <time>2026-06-22T09:45:24Z</time>
   </trkpt>
   <trkpt lat="-3.1115750" lon="37.3556450">
    <ele>4070.4</ele>
    <time>2026-06-22T09:45:25Z</time>
   </trkpt>
   <trkpt lat="-3.1115760" lon="37.3556500">
    <ele>4070.5</ele>
    <time>2026-06-22T09:45:26Z</time>
   </trkpt>
   <trkpt lat="-3.1115790" lon="37.3556530">
    <ele>4070.6</ele>
    <time>2026-06-22T09:45:27Z</time>
   </trkpt>
   <trkpt lat="-3.1115800" lon="37.3556580">
    <ele>4070.6</ele>
    <time>2026-06-22T09:45:28Z</time>
   </trkpt>
   <trkpt lat="-3.1115800" lon="37.3556630">
    <ele>4070.7</ele>
    <time>2026-06-22T09:45:29Z</time>
   </trkpt>
   <trkpt lat="-3.1115790" lon="37.3556680">
    <ele>4070.8</ele>
    <time>2026-06-22T09:45:30Z</time>
   </trkpt>
   <trkpt lat="-3.1115800" lon="37.3556700">
    <ele>4070.9</ele>
    <time>2026-06-22T09:45:31Z</time>
   </trkpt>
   <trkpt lat="-3.1115810" lon="37.3556740">
    <ele>4070.9</ele>
    <time>2026-06-22T09:45:32Z</time>
   </trkpt>
   <trkpt lat="-3.1115800" lon="37.3556780">
    <ele>4071.0</ele>
    <time>2026-06-22T09:45:33Z</time>
   </trkpt>
   <trkpt lat="-3.1115800" lon="37.3556800">
    <ele>4071.0</ele>
    <time>2026-06-22T09:45:34Z</time>
   </trkpt>
   <trkpt lat="-3.1115770" lon="37.3556810">
    <ele>4071.1</ele>
    <time>2026-06-22T09:45:35Z</time>
   </trkpt>
   <trkpt lat="-3.1115740" lon="37.3556840">
    <ele>4071.2</ele>
    <time>2026-06-22T09:45:36Z</time>
   </trkpt>
   <trkpt lat="-3.1115720" lon="37.3556870">
    <ele>4071.2</ele>
    <time>2026-06-22T09:45:37Z</time>
   </trkpt>
   <trkpt lat="-3.1115680" lon="37.3556890">
    <ele>4071.3</ele>
    <time>2026-06-22T09:45:38Z</time>
   </trkpt>
   <trkpt lat="-3.1115660" lon="37.3556900">
    <ele>4071.3</ele>
    <time>2026-06-22T09:45:39Z</time>
   </trkpt>
   <trkpt lat="-3.1115640" lon="37.3556920">
    <ele>4071.4</ele>
    <time>2026-06-22T09:45:40Z</time>
   </trkpt>
   <trkpt lat="-3.1115580" lon="37.3556960">
    <ele>4071.5</ele>
    <time>2026-06-22T09:45:41Z</time>
   </trkpt>
   <trkpt lat="-3.1115580" lon="37.3556980">
    <ele>4071.6</ele>
    <time>2026-06-22T09:45:42Z</time>
   </trkpt>
   <trkpt lat="-3.1115540" lon="37.3557010">
    <ele>4071.6</ele>
    <time>2026-06-22T09:45:43Z</time>
   </trkpt>
   <trkpt lat="-3.1115510" lon="37.3557040">
    <ele>4071.7</ele>
    <time>2026-06-22T09:45:44Z</time>
   </trkpt>
   <trkpt lat="-3.1115490" lon="37.3557060">
    <ele>4071.8</ele>
    <time>2026-06-22T09:45:45Z</time>
   </trkpt>
   <trkpt lat="-3.1115470" lon="37.3557090">
    <ele>4071.8</ele>
    <time>2026-06-22T09:45:46Z</time>
   </trkpt>
   <trkpt lat="-3.1115470" lon="37.3557100">
    <ele>4071.8</ele>
    <time>2026-06-22T09:45:47Z</time>
   </trkpt>
   <trkpt lat="-3.1115440" lon="37.3557150">
    <ele>4071.9</ele>
    <time>2026-06-22T09:45:48Z</time>
   </trkpt>
   <trkpt lat="-3.1115420" lon="37.3557190">
    <ele>4072.0</ele>
    <time>2026-06-22T09:45:49Z</time>
   </trkpt>
   <trkpt lat="-3.1115390" lon="37.3557220">
    <ele>4072.1</ele>
    <time>2026-06-22T09:45:50Z</time>
   </trkpt>
   <trkpt lat="-3.1115370" lon="37.3557240">
    <ele>4072.1</ele>
    <time>2026-06-22T09:45:51Z</time>
   </trkpt>
   <trkpt lat="-3.1115340" lon="37.3557240">
    <ele>4072.2</ele>
    <time>2026-06-22T09:45:52Z</time>
   </trkpt>
   <trkpt lat="-3.1115260" lon="37.3557270">
    <ele>4072.3</ele>
    <time>2026-06-22T09:45:53Z</time>
   </trkpt>
   <trkpt lat="-3.1115240" lon="37.3557250">
    <ele>4072.4</ele>
    <time>2026-06-22T09:45:54Z</time>
   </trkpt>
   <trkpt lat="-3.1115170" lon="37.3557280">
    <ele>4072.5</ele>
    <time>2026-06-22T09:45:55Z</time>
   </trkpt>
   <trkpt lat="-3.1115160" lon="37.3557280">
    <ele>4072.5</ele>
    <time>2026-06-22T09:45:56Z</time>
   </trkpt>
   <trkpt lat="-3.1115150" lon="37.3557310">
    <ele>4072.6</ele>
    <time>2026-06-22T09:45:57Z</time>
   </trkpt>
   <trkpt lat="-3.1115120" lon="37.3557340">
    <ele>4072.7</ele>
    <time>2026-06-22T09:45:58Z</time>
   </trkpt>
   <trkpt lat="-3.1115100" lon="37.3557400">
    <ele>4072.8</ele>
    <time>2026-06-22T09:45:59Z</time>
   </trkpt>
   <trkpt lat="-3.1115090" lon="37.3557440">
    <ele>4072.9</ele>
    <time>2026-06-22T09:46:00Z</time>
   </trkpt>
   <trkpt lat="-3.1115090" lon="37.3557450">
    <ele>4072.9</ele>
    <time>2026-06-22T09:46:01Z</time>
   </trkpt>
   <trkpt lat="-3.1115040" lon="37.3557480">
    <ele>4073.0</ele>
    <time>2026-06-22T09:46:02Z</time>
   </trkpt>
   <trkpt lat="-3.1115010" lon="37.3557500">
    <ele>4073.0</ele>
    <time>2026-06-22T09:46:03Z</time>
   </trkpt>
   <trkpt lat="-3.1114960" lon="37.3557550">
    <ele>4073.2</ele>
    <time>2026-06-22T09:46:04Z</time>
   </trkpt>
   <trkpt lat="-3.1114950" lon="37.3557580">
    <ele>4073.2</ele>
    <time>2026-06-22T09:46:05Z</time>
   </trkpt>
   <trkpt lat="-3.1114960" lon="37.3557610">
    <ele>4073.3</ele>
    <time>2026-06-22T09:46:06Z</time>
   </trkpt>
   <trkpt lat="-3.1114940" lon="37.3557640">
    <ele>4073.3</ele>
    <time>2026-06-22T09:46:07Z</time>
   </trkpt>
   <trkpt lat="-3.1114950" lon="37.3557670">
    <ele>4073.4</ele>
    <time>2026-06-22T09:46:08Z</time>
   </trkpt>
   <trkpt lat="-3.1114960" lon="37.3557710">
    <ele>4073.5</ele>
    <time>2026-06-22T09:46:09Z</time>
   </trkpt>
   <trkpt lat="-3.1114970" lon="37.3557740">
    <ele>4073.5</ele>
    <time>2026-06-22T09:46:10Z</time>
   </trkpt>
   <trkpt lat="-3.1114930" lon="37.3557780">
    <ele>4073.6</ele>
    <time>2026-06-22T09:46:11Z</time>
   </trkpt>
   <trkpt lat="-3.1114900" lon="37.3557790">
    <ele>4073.7</ele>
    <time>2026-06-22T09:46:12Z</time>
   </trkpt>
   <trkpt lat="-3.1114820" lon="37.3557740">
    <ele>4073.8</ele>
    <time>2026-06-22T09:46:13Z</time>
   </trkpt>
   <trkpt lat="-3.1114820" lon="37.3557760">
    <ele>4073.9</ele>
    <time>2026-06-22T09:46:14Z</time>
   </trkpt>
   <trkpt lat="-3.1114800" lon="37.3557750">
    <ele>4073.9</ele>
    <time>2026-06-22T09:46:15Z</time>
   </trkpt>
   <trkpt lat="-3.1114770" lon="37.3557740">
    <ele>4074.0</ele>
    <time>2026-06-22T09:46:16Z</time>
   </trkpt>
   <trkpt lat="-3.1114720" lon="37.3557750">
    <ele>4074.0</ele>
    <time>2026-06-22T09:46:17Z</time>
   </trkpt>
   <trkpt lat="-3.1114710" lon="37.3557730">
    <ele>4074.1</ele>
    <time>2026-06-22T09:46:18Z</time>
   </trkpt>
   <trkpt lat="-3.1114680" lon="37.3557740">
    <ele>4074.1</ele>
    <time>2026-06-22T09:46:19Z</time>
   </trkpt>
   <trkpt lat="-3.1114630" lon="37.3557760">
    <ele>4074.2</ele>
    <time>2026-06-22T09:46:20Z</time>
   </trkpt>
   <trkpt lat="-3.1114600" lon="37.3557800">
    <ele>4074.3</ele>
    <time>2026-06-22T09:46:21Z</time>
   </trkpt>
   <trkpt lat="-3.1114590" lon="37.3557850">
    <ele>4074.4</ele>
    <time>2026-06-22T09:46:22Z</time>
   </trkpt>
   <trkpt lat="-3.1114610" lon="37.3557870">
    <ele>4074.5</ele>
    <time>2026-06-22T09:46:23Z</time>
   </trkpt>
   <trkpt lat="-3.1114580" lon="37.3557930">
    <ele>4074.6</ele>
    <time>2026-06-22T09:46:24Z</time>
   </trkpt>
   <trkpt lat="-3.1114590" lon="37.3557960">
    <ele>4074.6</ele>
    <time>2026-06-22T09:46:25Z</time>
   </trkpt>
   <trkpt lat="-3.1114540" lon="37.3557990">
    <ele>4074.7</ele>
    <time>2026-06-22T09:46:26Z</time>
   </trkpt>
   <trkpt lat="-3.1114520" lon="37.3558020">
    <ele>4074.8</ele>
    <time>2026-06-22T09:46:27Z</time>
   </trkpt>
   <trkpt lat="-3.1114470" lon="37.3558050">
    <ele>4074.9</ele>
    <time>2026-06-22T09:46:28Z</time>
   </trkpt>
   <trkpt lat="-3.1114460" lon="37.3558050">
    <ele>4074.9</ele>
    <time>2026-06-22T09:46:29Z</time>
   </trkpt>
   <trkpt lat="-3.1114420" lon="37.3558050">
    <ele>4075.0</ele>
    <time>2026-06-22T09:46:30Z</time>
   </trkpt>
   <trkpt lat="-3.1114380" lon="37.3558040">
    <ele>4075.0</ele>
    <time>2026-06-22T09:46:31Z</time>
   </trkpt>
   <trkpt lat="-3.1114350" lon="37.3558040">
    <ele>4075.1</ele>
    <time>2026-06-22T09:46:32Z</time>
   </trkpt>
   <trkpt lat="-3.1114320" lon="37.3558030">
    <ele>4075.2</ele>
    <time>2026-06-22T09:46:33Z</time>
   </trkpt>
   <trkpt lat="-3.1114290" lon="37.3558040">
    <ele>4075.2</ele>
    <time>2026-06-22T09:46:34Z</time>
   </trkpt>
   <trkpt lat="-3.1114260" lon="37.3558050">
    <ele>4075.3</ele>
    <time>2026-06-22T09:46:35Z</time>
   </trkpt>
   <trkpt lat="-3.1114220" lon="37.3558060">
    <ele>4075.4</ele>
    <time>2026-06-22T09:46:36Z</time>
   </trkpt>
   <trkpt lat="-3.1114200" lon="37.3558080">
    <ele>4075.5</ele>
    <time>2026-06-22T09:46:37Z</time>
   </trkpt>
   <trkpt lat="-3.1114170" lon="37.3558120">
    <ele>4075.6</ele>
    <time>2026-06-22T09:46:38Z</time>
   </trkpt>
   <trkpt lat="-3.1114130" lon="37.3558140">
    <ele>4075.7</ele>
    <time>2026-06-22T09:46:39Z</time>
   </trkpt>
   <trkpt lat="-3.1114130" lon="37.3558170">
    <ele>4075.7</ele>
    <time>2026-06-22T09:46:40Z</time>
   </trkpt>
   <trkpt lat="-3.1114080" lon="37.3558200">
    <ele>4075.9</ele>
    <time>2026-06-22T09:46:41Z</time>
   </trkpt>
   <trkpt lat="-3.1114080" lon="37.3558220">
    <ele>4075.9</ele>
    <time>2026-06-22T09:46:42Z</time>
   </trkpt>
   <trkpt lat="-3.1114020" lon="37.3558230">
    <ele>4076.0</ele>
    <time>2026-06-22T09:46:43Z</time>
   </trkpt>
   <trkpt lat="-3.1114000" lon="37.3558230">
    <ele>4076.1</ele>
    <time>2026-06-22T09:46:44Z</time>
   </trkpt>
   <trkpt lat="-3.1113940" lon="37.3558240">
    <ele>4076.2</ele>
    <time>2026-06-22T09:46:45Z</time>
   </trkpt>
   <trkpt lat="-3.1113900" lon="37.3558240">
    <ele>4076.3</ele>
    <time>2026-06-22T09:46:46Z</time>
   </trkpt>
   <trkpt lat="-3.1113870" lon="37.3558250">
    <ele>4076.4</ele>
    <time>2026-06-22T09:46:47Z</time>
   </trkpt>
   <trkpt lat="-3.1113840" lon="37.3558240">
    <ele>4076.4</ele>
    <time>2026-06-22T09:46:48Z</time>
   </trkpt>
   <trkpt lat="-3.1113910" lon="37.3558240">
    <ele>4076.6</ele>
    <time>2026-06-22T09:46:49Z</time>
   </trkpt>
   <trkpt lat="-3.1113730" lon="37.3558270">
    <ele>4077.0</ele>
    <time>2026-06-22T09:46:50Z</time>
   </trkpt>
   <trkpt lat="-3.1113770" lon="37.3558290">
    <ele>4077.1</ele>
    <time>2026-06-22T09:46:51Z</time>
   </trkpt>
   <trkpt lat="-3.1113740" lon="37.3558310">
    <ele>4077.2</ele>
    <time>2026-06-22T09:46:52Z</time>
   </trkpt>
   <trkpt lat="-3.1113720" lon="37.3558350">
    <ele>4077.3</ele>
    <time>2026-06-22T09:46:53Z</time>
   </trkpt>
   <trkpt lat="-3.1113720" lon="37.3558390">
    <ele>4077.3</ele>
    <time>2026-06-22T09:46:54Z</time>
   </trkpt>
   <trkpt lat="-3.1113730" lon="37.3558410">
    <ele>4077.4</ele>
    <time>2026-06-22T09:46:55Z</time>
   </trkpt>
   <trkpt lat="-3.1113740" lon="37.3558470">
    <ele>4077.5</ele>
    <time>2026-06-22T09:46:56Z</time>
   </trkpt>
   <trkpt lat="-3.1113770" lon="37.3558490">
    <ele>4077.6</ele>
    <time>2026-06-22T09:46:57Z</time>
   </trkpt>
   <trkpt lat="-3.1113780" lon="37.3558530">
    <ele>4077.7</ele>
    <time>2026-06-22T09:46:58Z</time>
   </trkpt>
   <trkpt lat="-3.1113780" lon="37.3558580">
    <ele>4077.8</ele>
    <time>2026-06-22T09:46:59Z</time>
   </trkpt>
   <trkpt lat="-3.1113770" lon="37.3558610">
    <ele>4077.9</ele>
    <time>2026-06-22T09:47:00Z</time>
   </trkpt>
   <trkpt lat="-3.1113750" lon="37.3558640">
    <ele>4078.0</ele>
    <time>2026-06-22T09:47:01Z</time>
   </trkpt>
   <trkpt lat="-3.1113810" lon="37.3558680">
    <ele>4078.1</ele>
    <time>2026-06-22T09:47:02Z</time>
   </trkpt>
   <trkpt lat="-3.1113740" lon="37.3558690">
    <ele>4078.3</ele>
    <time>2026-06-22T09:47:03Z</time>
   </trkpt>
   <trkpt lat="-3.1113710" lon="37.3558680">
    <ele>4078.4</ele>
    <time>2026-06-22T09:47:04Z</time>
   </trkpt>
   <trkpt lat="-3.1113660" lon="37.3558700">
    <ele>4078.5</ele>
    <time>2026-06-22T09:47:05Z</time>
   </trkpt>
   <trkpt lat="-3.1113620" lon="37.3558710">
    <ele>4078.6</ele>
    <time>2026-06-22T09:47:06Z</time>
   </trkpt>
   <trkpt lat="-3.1113590" lon="37.3558730">
    <ele>4078.7</ele>
    <time>2026-06-22T09:47:07Z</time>
   </trkpt>
   <trkpt lat="-3.1113560" lon="37.3558760">
    <ele>4078.7</ele>
    <time>2026-06-22T09:47:08Z</time>
   </trkpt>
   <trkpt lat="-3.1113550" lon="37.3558800">
    <ele>4078.8</ele>
    <time>2026-06-22T09:47:09Z</time>
   </trkpt>
   <trkpt lat="-3.1113540" lon="37.3558840">
    <ele>4078.9</ele>
    <time>2026-06-22T09:47:10Z</time>
   </trkpt>
   <trkpt lat="-3.1113530" lon="37.3558870">
    <ele>4079.0</ele>
    <time>2026-06-22T09:47:11Z</time>
   </trkpt>
   <trkpt lat="-3.1113510" lon="37.3558920">
    <ele>4079.1</ele>
    <time>2026-06-22T09:47:12Z</time>
   </trkpt>
   <trkpt lat="-3.1113490" lon="37.3558940">
    <ele>4079.2</ele>
    <time>2026-06-22T09:47:13Z</time>
   </trkpt>
   <trkpt lat="-3.1113500" lon="37.3558960">
    <ele>4079.3</ele>
    <time>2026-06-22T09:47:14Z</time>
   </trkpt>
   <trkpt lat="-3.1113460" lon="37.3558980">
    <ele>4079.4</ele>
    <time>2026-06-22T09:47:15Z</time>
   </trkpt>
   <trkpt lat="-3.1113440" lon="37.3559040">
    <ele>4079.5</ele>
    <time>2026-06-22T09:47:16Z</time>
   </trkpt>
   <trkpt lat="-3.1113420" lon="37.3559060">
    <ele>4079.6</ele>
    <time>2026-06-22T09:47:17Z</time>
   </trkpt>
   <trkpt lat="-3.1113420" lon="37.3559090">
    <ele>4079.6</ele>
    <time>2026-06-22T09:47:18Z</time>
   </trkpt>
   <trkpt lat="-3.1113380" lon="37.3559130">
    <ele>4079.8</ele>
    <time>2026-06-22T09:47:19Z</time>
   </trkpt>
   <trkpt lat="-3.1113370" lon="37.3559170">
    <ele>4079.9</ele>
    <time>2026-06-22T09:47:20Z</time>
   </trkpt>
   <trkpt lat="-3.1113380" lon="37.3559190">
    <ele>4079.9</ele>
    <time>2026-06-22T09:47:21Z</time>
   </trkpt>
   <trkpt lat="-3.1113360" lon="37.3559220">
    <ele>4080.0</ele>
    <time>2026-06-22T09:47:22Z</time>
   </trkpt>
   <trkpt lat="-3.1113350" lon="37.3559260">
    <ele>4080.1</ele>
    <time>2026-06-22T09:47:23Z</time>
   </trkpt>
   <trkpt lat="-3.1113350" lon="37.3559290">
    <ele>4080.2</ele>
    <time>2026-06-22T09:47:24Z</time>
   </trkpt>
   <trkpt lat="-3.1113350" lon="37.3559340">
    <ele>4080.3</ele>
    <time>2026-06-22T09:47:25Z</time>
   </trkpt>
   <trkpt lat="-3.1113340" lon="37.3559370">
    <ele>4080.4</ele>
    <time>2026-06-22T09:47:26Z</time>
   </trkpt>
   <trkpt lat="-3.1113340" lon="37.3559430">
    <ele>4080.5</ele>
    <time>2026-06-22T09:47:27Z</time>
   </trkpt>
   <trkpt lat="-3.1113360" lon="37.3559480">
    <ele>4080.6</ele>
    <time>2026-06-22T09:47:28Z</time>
   </trkpt>
   <trkpt lat="-3.1113340" lon="37.3559540">
    <ele>4080.8</ele>
    <time>2026-06-22T09:47:29Z</time>
   </trkpt>
   <trkpt lat="-3.1113340" lon="37.3559520">
    <ele>4080.8</ele>
    <time>2026-06-22T09:47:30Z</time>
   </trkpt>
   <trkpt lat="-3.1113300" lon="37.3559530">
    <ele>4080.9</ele>
    <time>2026-06-22T09:47:31Z</time>
   </trkpt>
   <trkpt lat="-3.1113270" lon="37.3559540">
    <ele>4081.0</ele>
    <time>2026-06-22T09:47:32Z</time>
   </trkpt>
   <trkpt lat="-3.1113240" lon="37.3559530">
    <ele>4081.1</ele>
    <time>2026-06-22T09:47:33Z</time>
   </trkpt>
   <trkpt lat="-3.1113230" lon="37.3559530">
    <ele>4081.1</ele>
    <time>2026-06-22T09:47:34Z</time>
   </trkpt>
   <trkpt lat="-3.1113190" lon="37.3559530">
    <ele>4081.2</ele>
    <time>2026-06-22T09:47:35Z</time>
   </trkpt>
   <trkpt lat="-3.1113160" lon="37.3559540">
    <ele>4081.3</ele>
    <time>2026-06-22T09:47:36Z</time>
   </trkpt>
   <trkpt lat="-3.1113130" lon="37.3559540">
    <ele>4081.3</ele>
    <time>2026-06-22T09:47:37Z</time>
   </trkpt>
   <trkpt lat="-3.1113090" lon="37.3559550">
    <ele>4081.4</ele>
    <time>2026-06-22T09:47:38Z</time>
   </trkpt>
   <trkpt lat="-3.1113060" lon="37.3559580">
    <ele>4081.5</ele>
    <time>2026-06-22T09:47:39Z</time>
   </trkpt>
   <trkpt lat="-3.1113010" lon="37.3559590">
    <ele>4081.7</ele>
    <time>2026-06-22T09:47:40Z</time>
   </trkpt>
   <trkpt lat="-3.1113010" lon="37.3559620">
    <ele>4081.7</ele>
    <time>2026-06-22T09:47:41Z</time>
   </trkpt>
   <trkpt lat="-3.1112970" lon="37.3559650">
    <ele>4081.8</ele>
    <time>2026-06-22T09:47:42Z</time>
   </trkpt>
   <trkpt lat="-3.1112950" lon="37.3559670">
    <ele>4081.9</ele>
    <time>2026-06-22T09:47:43Z</time>
   </trkpt>
   <trkpt lat="-3.1112940" lon="37.3559700">
    <ele>4082.0</ele>
    <time>2026-06-22T09:47:44Z</time>
   </trkpt>
   <trkpt lat="-3.1112910" lon="37.3559720">
    <ele>4082.1</ele>
    <time>2026-06-22T09:47:45Z</time>
   </trkpt>
   <trkpt lat="-3.1112880" lon="37.3559740">
    <ele>4082.1</ele>
    <time>2026-06-22T09:47:46Z</time>
   </trkpt>
   <trkpt lat="-3.1112850" lon="37.3559760">
    <ele>4082.2</ele>
    <time>2026-06-22T09:47:47Z</time>
   </trkpt>
   <trkpt lat="-3.1112820" lon="37.3559780">
    <ele>4082.3</ele>
    <time>2026-06-22T09:47:48Z</time>
   </trkpt>
   <trkpt lat="-3.1112790" lon="37.3559780">
    <ele>4082.4</ele>
    <time>2026-06-22T09:47:49Z</time>
   </trkpt>
   <trkpt lat="-3.1112760" lon="37.3559830">
    <ele>4082.5</ele>
    <time>2026-06-22T09:47:50Z</time>
   </trkpt>
   <trkpt lat="-3.1112740" lon="37.3559870">
    <ele>4082.6</ele>
    <time>2026-06-22T09:47:51Z</time>
   </trkpt>
   <trkpt lat="-3.1112740" lon="37.3559910">
    <ele>4082.7</ele>
    <time>2026-06-22T09:47:52Z</time>
   </trkpt>
   <trkpt lat="-3.1112710" lon="37.3559940">
    <ele>4082.8</ele>
    <time>2026-06-22T09:47:53Z</time>
   </trkpt>
   <trkpt lat="-3.1112710" lon="37.3559980">
    <ele>4082.9</ele>
    <time>2026-06-22T09:47:54Z</time>
   </trkpt>
   <trkpt lat="-3.1112670" lon="37.3560020">
    <ele>4083.0</ele>
    <time>2026-06-22T09:47:55Z</time>
   </trkpt>
   <trkpt lat="-3.1112670" lon="37.3560020">
    <ele>4083.0</ele>
    <time>2026-06-22T09:47:56Z</time>
   </trkpt>
   <trkpt lat="-3.1112640" lon="37.3560030">
    <ele>4083.1</ele>
    <time>2026-06-22T09:47:57Z</time>
   </trkpt>
   <trkpt lat="-3.1112590" lon="37.3560060">
    <ele>4083.3</ele>
    <time>2026-06-22T09:47:58Z</time>
   </trkpt>
   <trkpt lat="-3.1112580" lon="37.3560080">
    <ele>4083.3</ele>
    <time>2026-06-22T09:47:59Z</time>
   </trkpt>
   <trkpt lat="-3.1112560" lon="37.3560110">
    <ele>4083.4</ele>
    <time>2026-06-22T09:48:00Z</time>
   </trkpt>
   <trkpt lat="-3.1112550" lon="37.3560130">
    <ele>4083.4</ele>
    <time>2026-06-22T09:48:01Z</time>
   </trkpt>
   <trkpt lat="-3.1112530" lon="37.3560180">
    <ele>4083.6</ele>
    <time>2026-06-22T09:48:02Z</time>
   </trkpt>
   <trkpt lat="-3.1112530" lon="37.3560200">
    <ele>4083.6</ele>
    <time>2026-06-22T09:48:03Z</time>
   </trkpt>
   <trkpt lat="-3.1112520" lon="37.3560240">
    <ele>4083.7</ele>
    <time>2026-06-22T09:48:04Z</time>
   </trkpt>
   <trkpt lat="-3.1112510" lon="37.3560270">
    <ele>4083.8</ele>
    <time>2026-06-22T09:48:05Z</time>
   </trkpt>
   <trkpt lat="-3.1112500" lon="37.3560300">
    <ele>4083.9</ele>
    <time>2026-06-22T09:48:06Z</time>
   </trkpt>
   <trkpt lat="-3.1112480" lon="37.3560330">
    <ele>4083.9</ele>
    <time>2026-06-22T09:48:07Z</time>
   </trkpt>
   <trkpt lat="-3.1112450" lon="37.3560330">
    <ele>4084.0</ele>
    <time>2026-06-22T09:48:08Z</time>
   </trkpt>
   <trkpt lat="-3.1112420" lon="37.3560340">
    <ele>4084.1</ele>
    <time>2026-06-22T09:48:09Z</time>
   </trkpt>
   <trkpt lat="-3.1112400" lon="37.3560340">
    <ele>4084.1</ele>
    <time>2026-06-22T09:48:10Z</time>
   </trkpt>
   <trkpt lat="-3.1112390" lon="37.3560350">
    <ele>4084.2</ele>
    <time>2026-06-22T09:48:11Z</time>
   </trkpt>
   <trkpt lat="-3.1112350" lon="37.3560370">
    <ele>4084.3</ele>
    <time>2026-06-22T09:48:12Z</time>
   </trkpt>
   <trkpt lat="-3.1112300" lon="37.3560390">
    <ele>4084.4</ele>
    <time>2026-06-22T09:48:13Z</time>
   </trkpt>
   <trkpt lat="-3.1112270" lon="37.3560410">
    <ele>4084.5</ele>
    <time>2026-06-22T09:48:14Z</time>
   </trkpt>
   <trkpt lat="-3.1112290" lon="37.3560420">
    <ele>4084.5</ele>
    <time>2026-06-22T09:48:15Z</time>
   </trkpt>
   <trkpt lat="-3.1112250" lon="37.3560480">
    <ele>4084.7</ele>
    <time>2026-06-22T09:48:16Z</time>
   </trkpt>
   <trkpt lat="-3.1112290" lon="37.3560510">
    <ele>4084.8</ele>
    <time>2026-06-22T09:48:17Z</time>
   </trkpt>
   <trkpt lat="-3.1112290" lon="37.3560580">
    <ele>4084.9</ele>
    <time>2026-06-22T09:48:18Z</time>
   </trkpt>
   <trkpt lat="-3.1112270" lon="37.3560600">
    <ele>4085.0</ele>
    <time>2026-06-22T09:48:19Z</time>
   </trkpt>
   <trkpt lat="-3.1112260" lon="37.3560620">
    <ele>4085.1</ele>
    <time>2026-06-22T09:48:20Z</time>
   </trkpt>
   <trkpt lat="-3.1112240" lon="37.3560650">
    <ele>4085.1</ele>
    <time>2026-06-22T09:48:21Z</time>
   </trkpt>
   <trkpt lat="-3.1112250" lon="37.3560660">
    <ele>4085.2</ele>
    <time>2026-06-22T09:48:22Z</time>
   </trkpt>
   <trkpt lat="-3.1112240" lon="37.3560710">
    <ele>4085.3</ele>
    <time>2026-06-22T09:48:23Z</time>
   </trkpt>
   <trkpt lat="-3.1112230" lon="37.3560750">
    <ele>4085.4</ele>
    <time>2026-06-22T09:48:24Z</time>
   </trkpt>
   <trkpt lat="-3.1112220" lon="37.3560760">
    <ele>4085.4</ele>
    <time>2026-06-22T09:48:25Z</time>
   </trkpt>
   <trkpt lat="-3.1112210" lon="37.3560780">
    <ele>4085.5</ele>
    <time>2026-06-22T09:48:26Z</time>
   </trkpt>
   <trkpt lat="-3.1112200" lon="37.3560820">
    <ele>4085.6</ele>
    <time>2026-06-22T09:48:27Z</time>
   </trkpt>
   <trkpt lat="-3.1112210" lon="37.3560820">
    <ele>4085.6</ele>
    <time>2026-06-22T09:48:28Z</time>
   </trkpt>
   <trkpt lat="-3.1112190" lon="37.3560860">
    <ele>4085.7</ele>
    <time>2026-06-22T09:48:29Z</time>
   </trkpt>
   <trkpt lat="-3.1112200" lon="37.3560880">
    <ele>4085.7</ele>
    <time>2026-06-22T09:48:30Z</time>
   </trkpt>
   <trkpt lat="-3.1112190" lon="37.3560930">
    <ele>4085.8</ele>
    <time>2026-06-22T09:48:31Z</time>
   </trkpt>
   <trkpt lat="-3.1112180" lon="37.3560950">
    <ele>4085.9</ele>
    <time>2026-06-22T09:48:32Z</time>
   </trkpt>
   <trkpt lat="-3.1112160" lon="37.3560990">
    <ele>4086.0</ele>
    <time>2026-06-22T09:48:33Z</time>
   </trkpt>
   <trkpt lat="-3.1112150" lon="37.3561010">
    <ele>4086.0</ele>
    <time>2026-06-22T09:48:34Z</time>
   </trkpt>
   <trkpt lat="-3.1112130" lon="37.3561050">
    <ele>4086.1</ele>
    <time>2026-06-22T09:48:35Z</time>
   </trkpt>
   <trkpt lat="-3.1112120" lon="37.3561050">
    <ele>4086.2</ele>
    <time>2026-06-22T09:48:36Z</time>
   </trkpt>
   <trkpt lat="-3.1112090" lon="37.3561070">
    <ele>4086.2</ele>
    <time>2026-06-22T09:48:37Z</time>
   </trkpt>
   <trkpt lat="-3.1112070" lon="37.3561090">
    <ele>4086.3</ele>
    <time>2026-06-22T09:48:38Z</time>
   </trkpt>
   <trkpt lat="-3.1112040" lon="37.3561110">
    <ele>4086.4</ele>
    <time>2026-06-22T09:48:39Z</time>
   </trkpt>
   <trkpt lat="-3.1112020" lon="37.3561130">
    <ele>4086.5</ele>
    <time>2026-06-22T09:48:40Z</time>
   </trkpt>
   <trkpt lat="-3.1112000" lon="37.3561170">
    <ele>4086.6</ele>
    <time>2026-06-22T09:48:41Z</time>
   </trkpt>
   <trkpt lat="-3.1111960" lon="37.3561200">
    <ele>4086.7</ele>
    <time>2026-06-22T09:48:42Z</time>
   </trkpt>
   <trkpt lat="-3.1111940" lon="37.3561220">
    <ele>4086.7</ele>
    <time>2026-06-22T09:48:43Z</time>
   </trkpt>
   <trkpt lat="-3.1111900" lon="37.3561230">
    <ele>4086.8</ele>
    <time>2026-06-22T09:48:44Z</time>
   </trkpt>
   <trkpt lat="-3.1111890" lon="37.3561240">
    <ele>4086.8</ele>
    <time>2026-06-22T09:48:45Z</time>
   </trkpt>
   <trkpt lat="-3.1111870" lon="37.3561270">
    <ele>4086.9</ele>
    <time>2026-06-22T09:48:46Z</time>
   </trkpt>
   <trkpt lat="-3.1111850" lon="37.3561280">
    <ele>4087.0</ele>
    <time>2026-06-22T09:48:47Z</time>
   </trkpt>
   <trkpt lat="-3.1111810" lon="37.3561300">
    <ele>4087.1</ele>
    <time>2026-06-22T09:48:48Z</time>
   </trkpt>
   <trkpt lat="-3.1111780" lon="37.3561310">
    <ele>4087.1</ele>
    <time>2026-06-22T09:48:49Z</time>
   </trkpt>
   <trkpt lat="-3.1111740" lon="37.3561330">
    <ele>4087.2</ele>
    <time>2026-06-22T09:48:50Z</time>
   </trkpt>
   <trkpt lat="-3.1111720" lon="37.3561350">
    <ele>4087.3</ele>
    <time>2026-06-22T09:48:51Z</time>
   </trkpt>
   <trkpt lat="-3.1111650" lon="37.3561360">
    <ele>4087.5</ele>
    <time>2026-06-22T09:48:52Z</time>
   </trkpt>
   <trkpt lat="-3.1111630" lon="37.3561370">
    <ele>4087.5</ele>
    <time>2026-06-22T09:48:53Z</time>
   </trkpt>
   <trkpt lat="-3.1111580" lon="37.3561390">
    <ele>4087.6</ele>
    <time>2026-06-22T09:48:54Z</time>
   </trkpt>
   <trkpt lat="-3.1111550" lon="37.3561400">
    <ele>4087.7</ele>
    <time>2026-06-22T09:48:55Z</time>
   </trkpt>
   <trkpt lat="-3.1111530" lon="37.3561430">
    <ele>4087.8</ele>
    <time>2026-06-22T09:48:56Z</time>
   </trkpt>
   <trkpt lat="-3.1111510" lon="37.3561450">
    <ele>4087.8</ele>
    <time>2026-06-22T09:48:57Z</time>
   </trkpt>
   <trkpt lat="-3.1111490" lon="37.3561470">
    <ele>4087.9</ele>
    <time>2026-06-22T09:48:58Z</time>
   </trkpt>
   <trkpt lat="-3.1111470" lon="37.3561540">
    <ele>4088.0</ele>
    <time>2026-06-22T09:48:59Z</time>
   </trkpt>
   <trkpt lat="-3.1111440" lon="37.3561590">
    <ele>4088.2</ele>
    <time>2026-06-22T09:49:00Z</time>
   </trkpt>
   <trkpt lat="-3.1111450" lon="37.3561600">
    <ele>4088.2</ele>
    <time>2026-06-22T09:49:01Z</time>
   </trkpt>
   <trkpt lat="-3.1111440" lon="37.3561630">
    <ele>4088.3</ele>
    <time>2026-06-22T09:49:02Z</time>
   </trkpt>
   <trkpt lat="-3.1111460" lon="37.3561700">
    <ele>4088.4</ele>
    <time>2026-06-22T09:49:03Z</time>
   </trkpt>
   <trkpt lat="-3.1111490" lon="37.3561710">
    <ele>4088.5</ele>
    <time>2026-06-22T09:49:04Z</time>
   </trkpt>
   <trkpt lat="-3.1111480" lon="37.3561770">
    <ele>4088.6</ele>
    <time>2026-06-22T09:49:05Z</time>
   </trkpt>
   <trkpt lat="-3.1111470" lon="37.3561790">
    <ele>4088.7</ele>
    <time>2026-06-22T09:49:06Z</time>
   </trkpt>
   <trkpt lat="-3.1111460" lon="37.3561820">
    <ele>4088.7</ele>
    <time>2026-06-22T09:49:07Z</time>
   </trkpt>
   <trkpt lat="-3.1111450" lon="37.3561850">
    <ele>4088.8</ele>
    <time>2026-06-22T09:49:08Z</time>
   </trkpt>
   <trkpt lat="-3.1111440" lon="37.3561890">
    <ele>4088.9</ele>
    <time>2026-06-22T09:49:09Z</time>
   </trkpt>
   <trkpt lat="-3.1111440" lon="37.3561940">
    <ele>4089.0</ele>
    <time>2026-06-22T09:49:10Z</time>
   </trkpt>
   <trkpt lat="-3.1111440" lon="37.3561970">
    <ele>4089.1</ele>
    <time>2026-06-22T09:49:11Z</time>
   </trkpt>
   <trkpt lat="-3.1111420" lon="37.3562020">
    <ele>4089.2</ele>
    <time>2026-06-22T09:49:12Z</time>
   </trkpt>
   <trkpt lat="-3.1111400" lon="37.3562070">
    <ele>4089.3</ele>
    <time>2026-06-22T09:49:13Z</time>
   </trkpt>
   <trkpt lat="-3.1111400" lon="37.3562110">
    <ele>4089.4</ele>
    <time>2026-06-22T09:49:14Z</time>
   </trkpt>
   <trkpt lat="-3.1111380" lon="37.3562130">
    <ele>4089.5</ele>
    <time>2026-06-22T09:49:15Z</time>
   </trkpt>
   <trkpt lat="-3.1111340" lon="37.3562140">
    <ele>4089.5</ele>
    <time>2026-06-22T09:49:16Z</time>
   </trkpt>
   <trkpt lat="-3.1111330" lon="37.3562180">
    <ele>4089.6</ele>
    <time>2026-06-22T09:49:17Z</time>
   </trkpt>
   <trkpt lat="-3.1111310" lon="37.3562220">
    <ele>4089.7</ele>
    <time>2026-06-22T09:49:18Z</time>
   </trkpt>
   <trkpt lat="-3.1111330" lon="37.3562250">
    <ele>4089.8</ele>
    <time>2026-06-22T09:49:19Z</time>
   </trkpt>
   <trkpt lat="-3.1111340" lon="37.3562310">
    <ele>4089.9</ele>
    <time>2026-06-22T09:49:20Z</time>
   </trkpt>
   <trkpt lat="-3.1111330" lon="37.3562340">
    <ele>4090.0</ele>
    <time>2026-06-22T09:49:21Z</time>
   </trkpt>
   <trkpt lat="-3.1111310" lon="37.3562380">
    <ele>4090.1</ele>
    <time>2026-06-22T09:49:22Z</time>
   </trkpt>
   <trkpt lat="-3.1111290" lon="37.3562420">
    <ele>4090.2</ele>
    <time>2026-06-22T09:49:23Z</time>
   </trkpt>
   <trkpt lat="-3.1111260" lon="37.3562430">
    <ele>4090.3</ele>
    <time>2026-06-22T09:49:24Z</time>
   </trkpt>
   <trkpt lat="-3.1111230" lon="37.3562480">
    <ele>4090.4</ele>
    <time>2026-06-22T09:49:25Z</time>
   </trkpt>
   <trkpt lat="-3.1111210" lon="37.3562540">
    <ele>4090.5</ele>
    <time>2026-06-22T09:49:26Z</time>
   </trkpt>
   <trkpt lat="-3.1111180" lon="37.3562550">
    <ele>4090.6</ele>
    <time>2026-06-22T09:49:27Z</time>
   </trkpt>
   <trkpt lat="-3.1111150" lon="37.3562590">
    <ele>4090.7</ele>
    <time>2026-06-22T09:49:28Z</time>
   </trkpt>
   <trkpt lat="-3.1111130" lon="37.3562610">
    <ele>4090.8</ele>
    <time>2026-06-22T09:49:29Z</time>
   </trkpt>
   <trkpt lat="-3.1111110" lon="37.3562650">
    <ele>4090.9</ele>
    <time>2026-06-22T09:49:30Z</time>
   </trkpt>
   <trkpt lat="-3.1111080" lon="37.3562690">
    <ele>4091.0</ele>
    <time>2026-06-22T09:49:31Z</time>
   </trkpt>
   <trkpt lat="-3.1111080" lon="37.3562720">
    <ele>4091.0</ele>
    <time>2026-06-22T09:49:32Z</time>
   </trkpt>
   <trkpt lat="-3.1111080" lon="37.3562770">
    <ele>4091.2</ele>
    <time>2026-06-22T09:49:33Z</time>
   </trkpt>
   <trkpt lat="-3.1111100" lon="37.3562790">
    <ele>4091.2</ele>
    <time>2026-06-22T09:49:34Z</time>
   </trkpt>
   <trkpt lat="-3.1111090" lon="37.3562820">
    <ele>4091.3</ele>
    <time>2026-06-22T09:49:35Z</time>
   </trkpt>
   <trkpt lat="-3.1111070" lon="37.3562870">
    <ele>4091.4</ele>
    <time>2026-06-22T09:49:36Z</time>
   </trkpt>
   <trkpt lat="-3.1111040" lon="37.3562860">
    <ele>4091.5</ele>
    <time>2026-06-22T09:49:37Z</time>
   </trkpt>
   <trkpt lat="-3.1111020" lon="37.3562840">
    <ele>4091.5</ele>
    <time>2026-06-22T09:49:38Z</time>
   </trkpt>
   <trkpt lat="-3.1110990" lon="37.3562830">
    <ele>4091.6</ele>
    <time>2026-06-22T09:49:39Z</time>
   </trkpt>
   <trkpt lat="-3.1110940" lon="37.3562840">
    <ele>4091.7</ele>
    <time>2026-06-22T09:49:40Z</time>
   </trkpt>
   <trkpt lat="-3.1110880" lon="37.3562840">
    <ele>4091.8</ele>
    <time>2026-06-22T09:49:41Z</time>
   </trkpt>
   <trkpt lat="-3.1110850" lon="37.3562870">
    <ele>4091.9</ele>
    <time>2026-06-22T09:49:42Z</time>
   </trkpt>
   <trkpt lat="-3.1110790" lon="37.3562850">
    <ele>4092.1</ele>
    <time>2026-06-22T09:49:43Z</time>
   </trkpt>
   <trkpt lat="-3.1110740" lon="37.3562880">
    <ele>4092.2</ele>
    <time>2026-06-22T09:49:44Z</time>
   </trkpt>
   <trkpt lat="-3.1110710" lon="37.3562910">
    <ele>4092.3</ele>
    <time>2026-06-22T09:49:45Z</time>
   </trkpt>
   <trkpt lat="-3.1110680" lon="37.3562970">
    <ele>4092.4</ele>
    <time>2026-06-22T09:49:46Z</time>
   </trkpt>
   <trkpt lat="-3.1110670" lon="37.3563010">
    <ele>4092.5</ele>
    <time>2026-06-22T09:49:47Z</time>
   </trkpt>
   <trkpt lat="-3.1110670" lon="37.3563040">
    <ele>4092.6</ele>
    <time>2026-06-22T09:49:48Z</time>
   </trkpt>
   <trkpt lat="-3.1110660" lon="37.3563100">
    <ele>4092.7</ele>
    <time>2026-06-22T09:49:49Z</time>
   </trkpt>
   <trkpt lat="-3.1110680" lon="37.3563160">
    <ele>4092.9</ele>
    <time>2026-06-22T09:49:50Z</time>
   </trkpt>
   <trkpt lat="-3.1110680" lon="37.3563190">
    <ele>4092.9</ele>
    <time>2026-06-22T09:49:51Z</time>
   </trkpt>
   <trkpt lat="-3.1110690" lon="37.3563250">
    <ele>4093.1</ele>
    <time>2026-06-22T09:49:52Z</time>
   </trkpt>
   <trkpt lat="-3.1110690" lon="37.3563270">
    <ele>4093.1</ele>
    <time>2026-06-22T09:49:53Z</time>
   </trkpt>
   <trkpt lat="-3.1110680" lon="37.3563300">
    <ele>4093.2</ele>
    <time>2026-06-22T09:49:54Z</time>
   </trkpt>
   <trkpt lat="-3.1110660" lon="37.3563310">
    <ele>4093.2</ele>
    <time>2026-06-22T09:49:55Z</time>
   </trkpt>
   <trkpt lat="-3.1110630" lon="37.3563330">
    <ele>4093.3</ele>
    <time>2026-06-22T09:49:56Z</time>
   </trkpt>
   <trkpt lat="-3.1110610" lon="37.3563360">
    <ele>4093.4</ele>
    <time>2026-06-22T09:49:57Z</time>
   </trkpt>
   <trkpt lat="-3.1110590" lon="37.3563360">
    <ele>4093.4</ele>
    <time>2026-06-22T09:49:58Z</time>
   </trkpt>
   <trkpt lat="-3.1110530" lon="37.3563390">
    <ele>4093.6</ele>
    <time>2026-06-22T09:49:59Z</time>
   </trkpt>
   <trkpt lat="-3.1110520" lon="37.3563400">
    <ele>4093.6</ele>
    <time>2026-06-22T09:50:00Z</time>
   </trkpt>
   <trkpt lat="-3.1110480" lon="37.3563420">
    <ele>4093.7</ele>
    <time>2026-06-22T09:50:01Z</time>
   </trkpt>
   <trkpt lat="-3.1110450" lon="37.3563440">
    <ele>4093.8</ele>
    <time>2026-06-22T09:50:02Z</time>
   </trkpt>
   <trkpt lat="-3.1110410" lon="37.3563470">
    <ele>4093.9</ele>
    <time>2026-06-22T09:50:03Z</time>
   </trkpt>
   <trkpt lat="-3.1110390" lon="37.3563490">
    <ele>4094.0</ele>
    <time>2026-06-22T09:50:04Z</time>
   </trkpt>
   <trkpt lat="-3.1110350" lon="37.3563520">
    <ele>4094.1</ele>
    <time>2026-06-22T09:50:05Z</time>
   </trkpt>
   <trkpt lat="-3.1110350" lon="37.3563540">
    <ele>4094.1</ele>
    <time>2026-06-22T09:50:06Z</time>
   </trkpt>
   <trkpt lat="-3.1110370" lon="37.3563540">
    <ele>4094.2</ele>
    <time>2026-06-22T09:50:07Z</time>
   </trkpt>
   <trkpt lat="-3.1110340" lon="37.3563580">
    <ele>4094.3</ele>
    <time>2026-06-22T09:50:08Z</time>
   </trkpt>
   <trkpt lat="-3.1110310" lon="37.3563630">
    <ele>4094.4</ele>
    <time>2026-06-22T09:50:09Z</time>
   </trkpt>
   <trkpt lat="-3.1110300" lon="37.3563680">
    <ele>4094.5</ele>
    <time>2026-06-22T09:50:10Z</time>
   </trkpt>
   <trkpt lat="-3.1110300" lon="37.3563720">
    <ele>4094.6</ele>
    <time>2026-06-22T09:50:11Z</time>
   </trkpt>
   <trkpt lat="-3.1110270" lon="37.3563730">
    <ele>4094.7</ele>
    <time>2026-06-22T09:50:12Z</time>
   </trkpt>
   <trkpt lat="-3.1110230" lon="37.3563750">
    <ele>4094.8</ele>
    <time>2026-06-22T09:50:13Z</time>
   </trkpt>
   <trkpt lat="-3.1110280" lon="37.3563810">
    <ele>4095.0</ele>
    <time>2026-06-22T09:50:14Z</time>
   </trkpt>
   <trkpt lat="-3.1110190" lon="37.3563800">
    <ele>4095.2</ele>
    <time>2026-06-22T09:50:15Z</time>
   </trkpt>
   <trkpt lat="-3.1110160" lon="37.3563790">
    <ele>4095.2</ele>
    <time>2026-06-22T09:50:16Z</time>
   </trkpt>
   <trkpt lat="-3.1110110" lon="37.3563790">
    <ele>4095.3</ele>
    <time>2026-06-22T09:50:17Z</time>
   </trkpt>
   <trkpt lat="-3.1109990" lon="37.3563720">
    <ele>4095.6</ele>
    <time>2026-06-22T09:50:18Z</time>
   </trkpt>
   <trkpt lat="-3.1110000" lon="37.3563730">
    <ele>4095.7</ele>
    <time>2026-06-22T09:50:19Z</time>
   </trkpt>
   <trkpt lat="-3.1109970" lon="37.3563750">
    <ele>4095.8</ele>
    <time>2026-06-22T09:50:20Z</time>
   </trkpt>
   <trkpt lat="-3.1109930" lon="37.3563790">
    <ele>4095.9</ele>
    <time>2026-06-22T09:50:21Z</time>
   </trkpt>
   <trkpt lat="-3.1109890" lon="37.3563810">
    <ele>4096.0</ele>
    <time>2026-06-22T09:50:22Z</time>
   </trkpt>
   <trkpt lat="-3.1109830" lon="37.3563820">
    <ele>4096.1</ele>
    <time>2026-06-22T09:50:23Z</time>
   </trkpt>
   <trkpt lat="-3.1109790" lon="37.3563830">
    <ele>4096.2</ele>
    <time>2026-06-22T09:50:24Z</time>
   </trkpt>
   <trkpt lat="-3.1109760" lon="37.3563830">
    <ele>4096.3</ele>
    <time>2026-06-22T09:50:25Z</time>
   </trkpt>
   <trkpt lat="-3.1109720" lon="37.3563840">
    <ele>4096.4</ele>
    <time>2026-06-22T09:50:26Z</time>
   </trkpt>
   <trkpt lat="-3.1109690" lon="37.3563840">
    <ele>4096.4</ele>
    <time>2026-06-22T09:50:27Z</time>
   </trkpt>
   <trkpt lat="-3.1109630" lon="37.3563850">
    <ele>4096.6</ele>
    <time>2026-06-22T09:50:28Z</time>
   </trkpt>
   <trkpt lat="-3.1109570" lon="37.3563850">
    <ele>4096.7</ele>
    <time>2026-06-22T09:50:29Z</time>
   </trkpt>
   <trkpt lat="-3.1109530" lon="37.3563840">
    <ele>4096.8</ele>
    <time>2026-06-22T09:50:30Z</time>
   </trkpt>
   <trkpt lat="-3.1109490" lon="37.3563850">
    <ele>4096.9</ele>
    <time>2026-06-22T09:50:31Z</time>
   </trkpt>
   <trkpt lat="-3.1109430" lon="37.3563850">
    <ele>4097.0</ele>
    <time>2026-06-22T09:50:32Z</time>
   </trkpt>
   <trkpt lat="-3.1109380" lon="37.3563850">
    <ele>4097.1</ele>
    <time>2026-06-22T09:50:33Z</time>
   </trkpt>
   <trkpt lat="-3.1109320" lon="37.3563850">
    <ele>4097.2</ele>
    <time>2026-06-22T09:50:34Z</time>
   </trkpt>
   <trkpt lat="-3.1109280" lon="37.3563850">
    <ele>4097.3</ele>
    <time>2026-06-22T09:50:35Z</time>
   </trkpt>
   <trkpt lat="-3.1109230" lon="37.3563880">
    <ele>4097.5</ele>
    <time>2026-06-22T09:50:36Z</time>
   </trkpt>
   <trkpt lat="-3.1109200" lon="37.3563910">
    <ele>4097.5</ele>
    <time>2026-06-22T09:50:37Z</time>
   </trkpt>
   <trkpt lat="-3.1109180" lon="37.3563950">
    <ele>4097.6</ele>
    <time>2026-06-22T09:50:38Z</time>
   </trkpt>
   <trkpt lat="-3.1109180" lon="37.3563980">
    <ele>4097.7</ele>
    <time>2026-06-22T09:50:39Z</time>
   </trkpt>
   <trkpt lat="-3.1109180" lon="37.3564030">
    <ele>4097.8</ele>
    <time>2026-06-22T09:50:40Z</time>
   </trkpt>
   <trkpt lat="-3.1109170" lon="37.3564050">
    <ele>4097.9</ele>
    <time>2026-06-22T09:50:41Z</time>
   </trkpt>
   <trkpt lat="-3.1109180" lon="37.3564100">
    <ele>4098.0</ele>
    <time>2026-06-22T09:50:42Z</time>
   </trkpt>
   <trkpt lat="-3.1109110" lon="37.3564140">
    <ele>4098.1</ele>
    <time>2026-06-22T09:50:43Z</time>
   </trkpt>
   <trkpt lat="-3.1109100" lon="37.3564160">
    <ele>4098.2</ele>
    <time>2026-06-22T09:50:44Z</time>
   </trkpt>
   <trkpt lat="-3.1109040" lon="37.3564210">
    <ele>4098.4</ele>
    <time>2026-06-22T09:50:45Z</time>
   </trkpt>
   <trkpt lat="-3.1109050" lon="37.3564220">
    <ele>4098.4</ele>
    <time>2026-06-22T09:50:46Z</time>
   </trkpt>
   <trkpt lat="-3.1109020" lon="37.3564250">
    <ele>4098.5</ele>
    <time>2026-06-22T09:50:47Z</time>
   </trkpt>
   <trkpt lat="-3.1108970" lon="37.3564290">
    <ele>4098.6</ele>
    <time>2026-06-22T09:50:48Z</time>
   </trkpt>
   <trkpt lat="-3.1108930" lon="37.3564330">
    <ele>4098.7</ele>
    <time>2026-06-22T09:50:49Z</time>
   </trkpt>
   <trkpt lat="-3.1108940" lon="37.3564340">
    <ele>4098.8</ele>
    <time>2026-06-22T09:50:50Z</time>
   </trkpt>
   <trkpt lat="-3.1108860" lon="37.3564370">
    <ele>4099.0</ele>
    <time>2026-06-22T09:50:51Z</time>
   </trkpt>
   <trkpt lat="-3.1108820" lon="37.3564380">
    <ele>4099.1</ele>
    <time>2026-06-22T09:50:52Z</time>
   </trkpt>
   <trkpt lat="-3.1108790" lon="37.3564370">
    <ele>4099.1</ele>
    <time>2026-06-22T09:50:53Z</time>
   </trkpt>
   <trkpt lat="-3.1108740" lon="37.3564350">
    <ele>4099.2</ele>
    <time>2026-06-22T09:50:54Z</time>
   </trkpt>
   <trkpt lat="-3.1108740" lon="37.3564330">
    <ele>4099.3</ele>
    <time>2026-06-22T09:50:55Z</time>
   </trkpt>
   <trkpt lat="-3.1108710" lon="37.3564310">
    <ele>4099.4</ele>
    <time>2026-06-22T09:50:56Z</time>
   </trkpt>
   <trkpt lat="-3.1108670" lon="37.3564290">
    <ele>4099.5</ele>
    <time>2026-06-22T09:50:57Z</time>
   </trkpt>
   <trkpt lat="-3.1108620" lon="37.3564290">
    <ele>4099.6</ele>
    <time>2026-06-22T09:50:58Z</time>
   </trkpt>
   <trkpt lat="-3.1108580" lon="37.3564290">
    <ele>4099.6</ele>
    <time>2026-06-22T09:50:59Z</time>
   </trkpt>
   <trkpt lat="-3.1108560" lon="37.3564320">
    <ele>4099.7</ele>
    <time>2026-06-22T09:51:00Z</time>
   </trkpt>
   <trkpt lat="-3.1108560" lon="37.3564340">
    <ele>4099.8</ele>
    <time>2026-06-22T09:51:01Z</time>
   </trkpt>
   <trkpt lat="-3.1108570" lon="37.3564380">
    <ele>4099.9</ele>
    <time>2026-06-22T09:51:02Z</time>
   </trkpt>
   <trkpt lat="-3.1108570" lon="37.3564410">
    <ele>4099.9</ele>
    <time>2026-06-22T09:51:03Z</time>
   </trkpt>
   <trkpt lat="-3.1108550" lon="37.3564450">
    <ele>4100.0</ele>
    <time>2026-06-22T09:51:04Z</time>
   </trkpt>
   <trkpt lat="-3.1108510" lon="37.3564460">
    <ele>4100.1</ele>
    <time>2026-06-22T09:51:05Z</time>
   </trkpt>
   <trkpt lat="-3.1108460" lon="37.3564460">
    <ele>4100.2</ele>
    <time>2026-06-22T09:51:06Z</time>
   </trkpt>
   <trkpt lat="-3.1108440" lon="37.3564430">
    <ele>4100.3</ele>
    <time>2026-06-22T09:51:07Z</time>
   </trkpt>
   <trkpt lat="-3.1108420" lon="37.3564390">
    <ele>4100.4</ele>
    <time>2026-06-22T09:51:08Z</time>
   </trkpt>
   <trkpt lat="-3.1108380" lon="37.3564360">
    <ele>4100.5</ele>
    <time>2026-06-22T09:51:09Z</time>
   </trkpt>
   <trkpt lat="-3.1108340" lon="37.3564330">
    <ele>4100.6</ele>
    <time>2026-06-22T09:51:10Z</time>
   </trkpt>
   <trkpt lat="-3.1108310" lon="37.3564300">
    <ele>4100.7</ele>
    <time>2026-06-22T09:51:11Z</time>
   </trkpt>
   <trkpt lat="-3.1108260" lon="37.3564280">
    <ele>4100.8</ele>
    <time>2026-06-22T09:51:12Z</time>
   </trkpt>
   <trkpt lat="-3.1108220" lon="37.3564290">
    <ele>4100.9</ele>
    <time>2026-06-22T09:51:13Z</time>
   </trkpt>
   <trkpt lat="-3.1108190" lon="37.3564310">
    <ele>4101.0</ele>
    <time>2026-06-22T09:51:14Z</time>
   </trkpt>
   <trkpt lat="-3.1108180" lon="37.3564330">
    <ele>4101.0</ele>
    <time>2026-06-22T09:51:15Z</time>
   </trkpt>
   <trkpt lat="-3.1108160" lon="37.3564370">
    <ele>4101.1</ele>
    <time>2026-06-22T09:51:16Z</time>
   </trkpt>
   <trkpt lat="-3.1108130" lon="37.3564400">
    <ele>4101.2</ele>
    <time>2026-06-22T09:51:17Z</time>
   </trkpt>
   <trkpt lat="-3.1108110" lon="37.3564470">
    <ele>4101.4</ele>
    <time>2026-06-22T09:51:18Z</time>
   </trkpt>
   <trkpt lat="-3.1108110" lon="37.3564480">
    <ele>4101.4</ele>
    <time>2026-06-22T09:51:19Z</time>
   </trkpt>
   <trkpt lat="-3.1108080" lon="37.3564540">
    <ele>4101.5</ele>
    <time>2026-06-22T09:51:20Z</time>
   </trkpt>
   <trkpt lat="-3.1108090" lon="37.3564560">
    <ele>4101.6</ele>
    <time>2026-06-22T09:51:21Z</time>
   </trkpt>
   <trkpt lat="-3.1108100" lon="37.3564630">
    <ele>4101.7</ele>
    <time>2026-06-22T09:51:22Z</time>
   </trkpt>
   <trkpt lat="-3.1108110" lon="37.3564670">
    <ele>4101.8</ele>
    <time>2026-06-22T09:51:23Z</time>
   </trkpt>
   <trkpt lat="-3.1108120" lon="37.3564710">
    <ele>4101.9</ele>
    <time>2026-06-22T09:51:24Z</time>
   </trkpt>
   <trkpt lat="-3.1108130" lon="37.3564690">
    <ele>4102.0</ele>
    <time>2026-06-22T09:51:25Z</time>
   </trkpt>
   <trkpt lat="-3.1108120" lon="37.3564770">
    <ele>4102.1</ele>
    <time>2026-06-22T09:51:26Z</time>
   </trkpt>
   <trkpt lat="-3.1108100" lon="37.3564810">
    <ele>4102.2</ele>
    <time>2026-06-22T09:51:27Z</time>
   </trkpt>
   <trkpt lat="-3.1108080" lon="37.3564850">
    <ele>4102.3</ele>
    <time>2026-06-22T09:51:28Z</time>
   </trkpt>
   <trkpt lat="-3.1108080" lon="37.3564880">
    <ele>4102.4</ele>
    <time>2026-06-22T09:51:29Z</time>
   </trkpt>
   <trkpt lat="-3.1108070" lon="37.3564900">
    <ele>4102.5</ele>
    <time>2026-06-22T09:51:30Z</time>
   </trkpt>
   <trkpt lat="-3.1108070" lon="37.3564930">
    <ele>4102.5</ele>
    <time>2026-06-22T09:51:31Z</time>
   </trkpt>
   <trkpt lat="-3.1108040" lon="37.3564980">
    <ele>4102.6</ele>
    <time>2026-06-22T09:51:32Z</time>
   </trkpt>
   <trkpt lat="-3.1108020" lon="37.3565010">
    <ele>4102.7</ele>
    <time>2026-06-22T09:51:33Z</time>
   </trkpt>
   <trkpt lat="-3.1108000" lon="37.3565060">
    <ele>4102.8</ele>
    <time>2026-06-22T09:51:34Z</time>
   </trkpt>
   <trkpt lat="-3.1107980" lon="37.3565090">
    <ele>4102.9</ele>
    <time>2026-06-22T09:51:35Z</time>
   </trkpt>
   <trkpt lat="-3.1107950" lon="37.3565110">
    <ele>4103.0</ele>
    <time>2026-06-22T09:51:36Z</time>
   </trkpt>
   <trkpt lat="-3.1107920" lon="37.3565170">
    <ele>4103.1</ele>
    <time>2026-06-22T09:51:37Z</time>
   </trkpt>
   <trkpt lat="-3.1107890" lon="37.3565190">
    <ele>4103.2</ele>
    <time>2026-06-22T09:51:38Z</time>
   </trkpt>
   <trkpt lat="-3.1107850" lon="37.3565220">
    <ele>4103.3</ele>
    <time>2026-06-22T09:51:39Z</time>
   </trkpt>
   <trkpt lat="-3.1107810" lon="37.3565260">
    <ele>4103.4</ele>
    <time>2026-06-22T09:51:40Z</time>
   </trkpt>
   <trkpt lat="-3.1107780" lon="37.3565280">
    <ele>4103.5</ele>
    <time>2026-06-22T09:51:41Z</time>
   </trkpt>
   <trkpt lat="-3.1107770" lon="37.3565330">
    <ele>4103.6</ele>
    <time>2026-06-22T09:51:42Z</time>
   </trkpt>
   <trkpt lat="-3.1107770" lon="37.3565400">
    <ele>4103.8</ele>
    <time>2026-06-22T09:51:43Z</time>
   </trkpt>
   <trkpt lat="-3.1107800" lon="37.3565420">
    <ele>4103.9</ele>
    <time>2026-06-22T09:51:44Z</time>
   </trkpt>
   <trkpt lat="-3.1107790" lon="37.3565490">
    <ele>4104.0</ele>
    <time>2026-06-22T09:51:45Z</time>
   </trkpt>
   <trkpt lat="-3.1107810" lon="37.3565550">
    <ele>4104.1</ele>
    <time>2026-06-22T09:51:46Z</time>
   </trkpt>
   <trkpt lat="-3.1107800" lon="37.3565600">
    <ele>4104.3</ele>
    <time>2026-06-22T09:51:47Z</time>
   </trkpt>
   <trkpt lat="-3.1107800" lon="37.3565610">
    <ele>4104.3</ele>
    <time>2026-06-22T09:51:48Z</time>
   </trkpt>
   <trkpt lat="-3.1107780" lon="37.3565640">
    <ele>4104.4</ele>
    <time>2026-06-22T09:51:49Z</time>
   </trkpt>
   <trkpt lat="-3.1107740" lon="37.3565650">
    <ele>4104.5</ele>
    <time>2026-06-22T09:51:50Z</time>
   </trkpt>
   <trkpt lat="-3.1107710" lon="37.3565640">
    <ele>4104.5</ele>
    <time>2026-06-22T09:51:51Z</time>
   </trkpt>
   <trkpt lat="-3.1107680" lon="37.3565630">
    <ele>4104.6</ele>
    <time>2026-06-22T09:51:52Z</time>
   </trkpt>
   <trkpt lat="-3.1107640" lon="37.3565650">
    <ele>4104.7</ele>
    <time>2026-06-22T09:51:53Z</time>
   </trkpt>
   <trkpt lat="-3.1107600" lon="37.3565670">
    <ele>4104.8</ele>
    <time>2026-06-22T09:51:54Z</time>
   </trkpt>
   <trkpt lat="-3.1107590" lon="37.3565710">
    <ele>4104.9</ele>
    <time>2026-06-22T09:51:55Z</time>
   </trkpt>
   <trkpt lat="-3.1107560" lon="37.3565750">
    <ele>4105.0</ele>
    <time>2026-06-22T09:51:56Z</time>
   </trkpt>
   <trkpt lat="-3.1107530" lon="37.3565780">
    <ele>4105.1</ele>
    <time>2026-06-22T09:51:57Z</time>
   </trkpt>
   <trkpt lat="-3.1107500" lon="37.3565810">
    <ele>4105.2</ele>
    <time>2026-06-22T09:51:58Z</time>
   </trkpt>
   <trkpt lat="-3.1107470" lon="37.3565830">
    <ele>4105.3</ele>
    <time>2026-06-22T09:51:59Z</time>
   </trkpt>
   <trkpt lat="-3.1107430" lon="37.3565820">
    <ele>4105.4</ele>
    <time>2026-06-22T09:52:00Z</time>
   </trkpt>
   <trkpt lat="-3.1107390" lon="37.3565840">
    <ele>4105.5</ele>
    <time>2026-06-22T09:52:01Z</time>
   </trkpt>
   <trkpt lat="-3.1107350" lon="37.3565840">
    <ele>4105.6</ele>
    <time>2026-06-22T09:52:02Z</time>
   </trkpt>
   <trkpt lat="-3.1107310" lon="37.3565850">
    <ele>4105.7</ele>
    <time>2026-06-22T09:52:03Z</time>
   </trkpt>
   <trkpt lat="-3.1107270" lon="37.3565840">
    <ele>4105.8</ele>
    <time>2026-06-22T09:52:04Z</time>
   </trkpt>
   <trkpt lat="-3.1107240" lon="37.3565870">
    <ele>4105.9</ele>
    <time>2026-06-22T09:52:05Z</time>
   </trkpt>
   <trkpt lat="-3.1107050" lon="37.3565940">
    <ele>4106.3</ele>
    <time>2026-06-22T09:52:06Z</time>
   </trkpt>
   <trkpt lat="-3.1107090" lon="37.3565920">
    <ele>4106.4</ele>
    <time>2026-06-22T09:52:07Z</time>
   </trkpt>
   <trkpt lat="-3.1107080" lon="37.3565920">
    <ele>4106.4</ele>
    <time>2026-06-22T09:52:08Z</time>
   </trkpt>
   <trkpt lat="-3.1107030" lon="37.3565940">
    <ele>4106.6</ele>
    <time>2026-06-22T09:52:09Z</time>
   </trkpt>
   <trkpt lat="-3.1107000" lon="37.3565950">
    <ele>4106.6</ele>
    <time>2026-06-22T09:52:10Z</time>
   </trkpt>
   <trkpt lat="-3.1106970" lon="37.3565970">
    <ele>4106.7</ele>
    <time>2026-06-22T09:52:11Z</time>
   </trkpt>
   <trkpt lat="-3.1106940" lon="37.3566000">
    <ele>4106.8</ele>
    <time>2026-06-22T09:52:12Z</time>
   </trkpt>
   <trkpt lat="-3.1106890" lon="37.3566030">
    <ele>4107.0</ele>
    <time>2026-06-22T09:52:13Z</time>
   </trkpt>
   <trkpt lat="-3.1106860" lon="37.3566050">
    <ele>4107.0</ele>
    <time>2026-06-22T09:52:14Z</time>
   </trkpt>
   <trkpt lat="-3.1106800" lon="37.3566060">
    <ele>4107.2</ele>
    <time>2026-06-22T09:52:15Z</time>
   </trkpt>
   <trkpt lat="-3.1106770" lon="37.3566050">
    <ele>4107.2</ele>
    <time>2026-06-22T09:52:16Z</time>
   </trkpt>
   <trkpt lat="-3.1106710" lon="37.3566050">
    <ele>4107.4</ele>
    <time>2026-06-22T09:52:17Z</time>
   </trkpt>
   <trkpt lat="-3.1106670" lon="37.3566040">
    <ele>4107.5</ele>
    <time>2026-06-22T09:52:18Z</time>
   </trkpt>
   <trkpt lat="-3.1106620" lon="37.3566050">
    <ele>4107.6</ele>
    <time>2026-06-22T09:52:19Z</time>
   </trkpt>
   <trkpt lat="-3.1106570" lon="37.3566070">
    <ele>4107.7</ele>
    <time>2026-06-22T09:52:20Z</time>
   </trkpt>
   <trkpt lat="-3.1106540" lon="37.3566100">
    <ele>4107.8</ele>
    <time>2026-06-22T09:52:21Z</time>
   </trkpt>
   <trkpt lat="-3.1106560" lon="37.3566150">
    <ele>4107.9</ele>
    <time>2026-06-22T09:52:22Z</time>
   </trkpt>
   <trkpt lat="-3.1106520" lon="37.3566200">
    <ele>4108.1</ele>
    <time>2026-06-22T09:52:23Z</time>
   </trkpt>
   <trkpt lat="-3.1106520" lon="37.3566250">
    <ele>4108.2</ele>
    <time>2026-06-22T09:52:24Z</time>
   </trkpt>
   <trkpt lat="-3.1106510" lon="37.3566280">
    <ele>4108.3</ele>
    <time>2026-06-22T09:52:25Z</time>
   </trkpt>
   <trkpt lat="-3.1106510" lon="37.3566330">
    <ele>4108.4</ele>
    <time>2026-06-22T09:52:26Z</time>
   </trkpt>
   <trkpt lat="-3.1106530" lon="37.3566350">
    <ele>4108.5</ele>
    <time>2026-06-22T09:52:27Z</time>
   </trkpt>
   <trkpt lat="-3.1106520" lon="37.3566410">
    <ele>4108.6</ele>
    <time>2026-06-22T09:52:28Z</time>
   </trkpt>
   <trkpt lat="-3.1106530" lon="37.3566460">
    <ele>4108.7</ele>
    <time>2026-06-22T09:52:29Z</time>
   </trkpt>
   <trkpt lat="-3.1106540" lon="37.3566530">
    <ele>4108.9</ele>
    <time>2026-06-22T09:52:30Z</time>
   </trkpt>
   <trkpt lat="-3.1106550" lon="37.3566560">
    <ele>4109.0</ele>
    <time>2026-06-22T09:52:31Z</time>
   </trkpt>
   <trkpt lat="-3.1106560" lon="37.3566600">
    <ele>4109.1</ele>
    <time>2026-06-22T09:52:32Z</time>
   </trkpt>
   <trkpt lat="-3.1106560" lon="37.3566650">
    <ele>4109.2</ele>
    <time>2026-06-22T09:52:33Z</time>
   </trkpt>
   <trkpt lat="-3.1106550" lon="37.3566700">
    <ele>4109.3</ele>
    <time>2026-06-22T09:52:34Z</time>
   </trkpt>
   <trkpt lat="-3.1106550" lon="37.3566730">
    <ele>4109.4</ele>
    <time>2026-06-22T09:52:35Z</time>
   </trkpt>
   <trkpt lat="-3.1106540" lon="37.3566760">
    <ele>4109.5</ele>
    <time>2026-06-22T09:52:36Z</time>
   </trkpt>
   <trkpt lat="-3.1106520" lon="37.3566780">
    <ele>4109.5</ele>
    <time>2026-06-22T09:52:37Z</time>
   </trkpt>
   <trkpt lat="-3.1106490" lon="37.3566800">
    <ele>4109.6</ele>
    <time>2026-06-22T09:52:38Z</time>
   </trkpt>
   <trkpt lat="-3.1106480" lon="37.3566830">
    <ele>4109.7</ele>
    <time>2026-06-22T09:52:39Z</time>
   </trkpt>
   <trkpt lat="-3.1106440" lon="37.3566850">
    <ele>4109.8</ele>
    <time>2026-06-22T09:52:40Z</time>
   </trkpt>
   <trkpt lat="-3.1106430" lon="37.3566890">
    <ele>4109.9</ele>
    <time>2026-06-22T09:52:41Z</time>
   </trkpt>
   <trkpt lat="-3.1106410" lon="37.3566920">
    <ele>4110.0</ele>
    <time>2026-06-22T09:52:42Z</time>
   </trkpt>
   <trkpt lat="-3.1106410" lon="37.3566950">
    <ele>4110.1</ele>
    <time>2026-06-22T09:52:43Z</time>
   </trkpt>
   <trkpt lat="-3.1106400" lon="37.3566990">
    <ele>4110.2</ele>
    <time>2026-06-22T09:52:44Z</time>
   </trkpt>
   <trkpt lat="-3.1106410" lon="37.3567050">
    <ele>4110.3</ele>
    <time>2026-06-22T09:52:45Z</time>
   </trkpt>
   <trkpt lat="-3.1106400" lon="37.3567100">
    <ele>4110.4</ele>
    <time>2026-06-22T09:52:46Z</time>
   </trkpt>
   <trkpt lat="-3.1106420" lon="37.3567120">
    <ele>4110.5</ele>
    <time>2026-06-22T09:52:47Z</time>
   </trkpt>
   <trkpt lat="-3.1106450" lon="37.3567160">
    <ele>4110.6</ele>
    <time>2026-06-22T09:52:48Z</time>
   </trkpt>
   <trkpt lat="-3.1106470" lon="37.3567190">
    <ele>4110.7</ele>
    <time>2026-06-22T09:52:49Z</time>
   </trkpt>
   <trkpt lat="-3.1106490" lon="37.3567210">
    <ele>4110.8</ele>
    <time>2026-06-22T09:52:50Z</time>
   </trkpt>
   <trkpt lat="-3.1106500" lon="37.3567290">
    <ele>4111.0</ele>
    <time>2026-06-22T09:52:51Z</time>
   </trkpt>
   <trkpt lat="-3.1106510" lon="37.3567320">
    <ele>4111.1</ele>
    <time>2026-06-22T09:52:52Z</time>
   </trkpt>
   <trkpt lat="-3.1106500" lon="37.3567360">
    <ele>4111.2</ele>
    <time>2026-06-22T09:52:53Z</time>
   </trkpt>
   <trkpt lat="-3.1106490" lon="37.3567400">
    <ele>4111.3</ele>
    <time>2026-06-22T09:52:54Z</time>
   </trkpt>
   <trkpt lat="-3.1106460" lon="37.3567450">
    <ele>4111.4</ele>
    <time>2026-06-22T09:52:55Z</time>
   </trkpt>
   <trkpt lat="-3.1106420" lon="37.3567470">
    <ele>4111.5</ele>
    <time>2026-06-22T09:52:56Z</time>
   </trkpt>
   <trkpt lat="-3.1106410" lon="37.3567460">
    <ele>4111.6</ele>
    <time>2026-06-22T09:52:57Z</time>
   </trkpt>
   <trkpt lat="-3.1106350" lon="37.3567490">
    <ele>4111.7</ele>
    <time>2026-06-22T09:52:58Z</time>
   </trkpt>
   <trkpt lat="-3.1106290" lon="37.3567490">
    <ele>4111.9</ele>
    <time>2026-06-22T09:52:59Z</time>
   </trkpt>
   <trkpt lat="-3.1106270" lon="37.3567510">
    <ele>4111.9</ele>
    <time>2026-06-22T09:53:00Z</time>
   </trkpt>
   <trkpt lat="-3.1106220" lon="37.3567510">
    <ele>4112.1</ele>
    <time>2026-06-22T09:53:01Z</time>
   </trkpt>
   <trkpt lat="-3.1106170" lon="37.3567530">
    <ele>4112.2</ele>
    <time>2026-06-22T09:53:02Z</time>
   </trkpt>
   <trkpt lat="-3.1106130" lon="37.3567570">
    <ele>4112.3</ele>
    <time>2026-06-22T09:53:03Z</time>
   </trkpt>
   <trkpt lat="-3.1106140" lon="37.3567600">
    <ele>4112.4</ele>
    <time>2026-06-22T09:53:04Z</time>
   </trkpt>
   <trkpt lat="-3.1106110" lon="37.3567660">
    <ele>4112.6</ele>
    <time>2026-06-22T09:53:05Z</time>
   </trkpt>
   <trkpt lat="-3.1106130" lon="37.3567680">
    <ele>4112.7</ele>
    <time>2026-06-22T09:53:06Z</time>
   </trkpt>
   <trkpt lat="-3.1106160" lon="37.3567710">
    <ele>4112.8</ele>
    <time>2026-06-22T09:53:07Z</time>
   </trkpt>
   <trkpt lat="-3.1106190" lon="37.3567740">
    <ele>4112.9</ele>
    <time>2026-06-22T09:53:08Z</time>
   </trkpt>
   <trkpt lat="-3.1106210" lon="37.3567770">
    <ele>4113.0</ele>
    <time>2026-06-22T09:53:09Z</time>
   </trkpt>
   <trkpt lat="-3.1106200" lon="37.3567810">
    <ele>4113.1</ele>
    <time>2026-06-22T09:53:10Z</time>
   </trkpt>
   <trkpt lat="-3.1106220" lon="37.3567840">
    <ele>4113.2</ele>
    <time>2026-06-22T09:53:11Z</time>
   </trkpt>
   <trkpt lat="-3.1106190" lon="37.3567880">
    <ele>4113.3</ele>
    <time>2026-06-22T09:53:12Z</time>
   </trkpt>
   <trkpt lat="-3.1106120" lon="37.3567930">
    <ele>4113.5</ele>
    <time>2026-06-22T09:53:13Z</time>
   </trkpt>
   <trkpt lat="-3.1106090" lon="37.3568000">
    <ele>4113.7</ele>
    <time>2026-06-22T09:53:14Z</time>
   </trkpt>
   <trkpt lat="-3.1106040" lon="37.3568040">
    <ele>4113.9</ele>
    <time>2026-06-22T09:53:15Z</time>
   </trkpt>
   <trkpt lat="-3.1106030" lon="37.3568020">
    <ele>4113.9</ele>
    <time>2026-06-22T09:53:16Z</time>
   </trkpt>
   <trkpt lat="-3.1105980" lon="37.3568030">
    <ele>4114.0</ele>
    <time>2026-06-22T09:53:17Z</time>
   </trkpt>
   <trkpt lat="-3.1105960" lon="37.3568020">
    <ele>4114.1</ele>
    <time>2026-06-22T09:53:18Z</time>
   </trkpt>
   <trkpt lat="-3.1105900" lon="37.3568030">
    <ele>4114.3</ele>
    <time>2026-06-22T09:53:19Z</time>
   </trkpt>
   <trkpt lat="-3.1105710" lon="37.3568090">
    <ele>4114.8</ele>
    <time>2026-06-22T09:53:20Z</time>
   </trkpt>
   <trkpt lat="-3.1105800" lon="37.3568020">
    <ele>4115.1</ele>
    <time>2026-06-22T09:53:21Z</time>
   </trkpt>
   <trkpt lat="-3.1105770" lon="37.3568030">
    <ele>4115.1</ele>
    <time>2026-06-22T09:53:22Z</time>
   </trkpt>
   <trkpt lat="-3.1105730" lon="37.3568050">
    <ele>4115.3</ele>
    <time>2026-06-22T09:53:23Z</time>
   </trkpt>
   <trkpt lat="-3.1105710" lon="37.3568080">
    <ele>4115.3</ele>
    <time>2026-06-22T09:53:24Z</time>
   </trkpt>
   <trkpt lat="-3.1105670" lon="37.3568110">
    <ele>4115.5</ele>
    <time>2026-06-22T09:53:25Z</time>
   </trkpt>
   <trkpt lat="-3.1105700" lon="37.3568140">
    <ele>4115.6</ele>
    <time>2026-06-22T09:53:26Z</time>
   </trkpt>
   <trkpt lat="-3.1105680" lon="37.3568190">
    <ele>4115.7</ele>
    <time>2026-06-22T09:53:27Z</time>
   </trkpt>
   <trkpt lat="-3.1105660" lon="37.3568230">
    <ele>4115.8</ele>
    <time>2026-06-22T09:53:28Z</time>
   </trkpt>
   <trkpt lat="-3.1105640" lon="37.3568270">
    <ele>4116.0</ele>
    <time>2026-06-22T09:53:29Z</time>
   </trkpt>
   <trkpt lat="-3.1105640" lon="37.3568310">
    <ele>4116.1</ele>
    <time>2026-06-22T09:53:30Z</time>
   </trkpt>
   <trkpt lat="-3.1105650" lon="37.3568340">
    <ele>4116.2</ele>
    <time>2026-06-22T09:53:31Z</time>
   </trkpt>
   <trkpt lat="-3.1105620" lon="37.3568380">
    <ele>4116.3</ele>
    <time>2026-06-22T09:53:32Z</time>
   </trkpt>
   <trkpt lat="-3.1105630" lon="37.3568410">
    <ele>4116.4</ele>
    <time>2026-06-22T09:53:33Z</time>
   </trkpt>
   <trkpt lat="-3.1105620" lon="37.3568450">
    <ele>4116.5</ele>
    <time>2026-06-22T09:53:34Z</time>
   </trkpt>
   <trkpt lat="-3.1105590" lon="37.3568480">
    <ele>4116.6</ele>
    <time>2026-06-22T09:53:35Z</time>
   </trkpt>
   <trkpt lat="-3.1105560" lon="37.3568530">
    <ele>4116.7</ele>
    <time>2026-06-22T09:53:36Z</time>
   </trkpt>
   <trkpt lat="-3.1105560" lon="37.3568550">
    <ele>4116.8</ele>
    <time>2026-06-22T09:53:37Z</time>
   </trkpt>
   <trkpt lat="-3.1105510" lon="37.3568580">
    <ele>4117.0</ele>
    <time>2026-06-22T09:53:38Z</time>
   </trkpt>
   <trkpt lat="-3.1105460" lon="37.3568610">
    <ele>4117.1</ele>
    <time>2026-06-22T09:53:39Z</time>
   </trkpt>
   <trkpt lat="-3.1105460" lon="37.3568620">
    <ele>4117.1</ele>
    <time>2026-06-22T09:53:40Z</time>
   </trkpt>
   <trkpt lat="-3.1105440" lon="37.3568650">
    <ele>4117.2</ele>
    <time>2026-06-22T09:53:41Z</time>
   </trkpt>
   <trkpt lat="-3.1105400" lon="37.3568680">
    <ele>4117.4</ele>
    <time>2026-06-22T09:53:42Z</time>
   </trkpt>
   <trkpt lat="-3.1105420" lon="37.3568710">
    <ele>4117.5</ele>
    <time>2026-06-22T09:53:43Z</time>
   </trkpt>
   <trkpt lat="-3.1105400" lon="37.3568740">
    <ele>4117.6</ele>
    <time>2026-06-22T09:53:44Z</time>
   </trkpt>
   <trkpt lat="-3.1105390" lon="37.3568780">
    <ele>4117.7</ele>
    <time>2026-06-22T09:53:45Z</time>
   </trkpt>
   <trkpt lat="-3.1105390" lon="37.3568820">
    <ele>4117.8</ele>
    <time>2026-06-22T09:53:46Z</time>
   </trkpt>
   <trkpt lat="-3.1105380" lon="37.3568860">
    <ele>4117.9</ele>
    <time>2026-06-22T09:53:47Z</time>
   </trkpt>
   <trkpt lat="-3.1105370" lon="37.3568860">
    <ele>4117.9</ele>
    <time>2026-06-22T09:53:48Z</time>
   </trkpt>
   <trkpt lat="-3.1105360" lon="37.3568900">
    <ele>4118.0</ele>
    <time>2026-06-22T09:53:49Z</time>
   </trkpt>
   <trkpt lat="-3.1105330" lon="37.3568920">
    <ele>4118.1</ele>
    <time>2026-06-22T09:53:50Z</time>
   </trkpt>
   <trkpt lat="-3.1105320" lon="37.3568940">
    <ele>4118.2</ele>
    <time>2026-06-22T09:53:51Z</time>
   </trkpt>
   <trkpt lat="-3.1105270" lon="37.3568980">
    <ele>4118.3</ele>
    <time>2026-06-22T09:53:52Z</time>
   </trkpt>
   <trkpt lat="-3.1105250" lon="37.3568990">
    <ele>4118.4</ele>
    <time>2026-06-22T09:53:53Z</time>
   </trkpt>
   <trkpt lat="-3.1105210" lon="37.3569000">
    <ele>4118.5</ele>
    <time>2026-06-22T09:53:54Z</time>
   </trkpt>
   <trkpt lat="-3.1105190" lon="37.3569020">
    <ele>4118.6</ele>
    <time>2026-06-22T09:53:55Z</time>
   </trkpt>
   <trkpt lat="-3.1105160" lon="37.3569040">
    <ele>4118.7</ele>
    <time>2026-06-22T09:53:56Z</time>
   </trkpt>
   <trkpt lat="-3.1105120" lon="37.3569070">
    <ele>4118.8</ele>
    <time>2026-06-22T09:53:57Z</time>
   </trkpt>
   <trkpt lat="-3.1105100" lon="37.3569090">
    <ele>4118.9</ele>
    <time>2026-06-22T09:53:58Z</time>
   </trkpt>
   <trkpt lat="-3.1105060" lon="37.3569120">
    <ele>4119.0</ele>
    <time>2026-06-22T09:53:59Z</time>
   </trkpt>
   <trkpt lat="-3.1105050" lon="37.3569140">
    <ele>4119.1</ele>
    <time>2026-06-22T09:54:00Z</time>
   </trkpt>
   <trkpt lat="-3.1105020" lon="37.3569140">
    <ele>4119.2</ele>
    <time>2026-06-22T09:54:01Z</time>
   </trkpt>
   <trkpt lat="-3.1105020" lon="37.3569160">
    <ele>4119.2</ele>
    <time>2026-06-22T09:54:02Z</time>
   </trkpt>
   <trkpt lat="-3.1104980" lon="37.3569190">
    <ele>4119.3</ele>
    <time>2026-06-22T09:54:03Z</time>
   </trkpt>
   <trkpt lat="-3.1104960" lon="37.3569220">
    <ele>4119.4</ele>
    <time>2026-06-22T09:54:04Z</time>
   </trkpt>
   <trkpt lat="-3.1104960" lon="37.3569260">
    <ele>4119.5</ele>
    <time>2026-06-22T09:54:05Z</time>
   </trkpt>
   <trkpt lat="-3.1104950" lon="37.3569280">
    <ele>4119.6</ele>
    <time>2026-06-22T09:54:06Z</time>
   </trkpt>
   <trkpt lat="-3.1104910" lon="37.3569290">
    <ele>4119.7</ele>
    <time>2026-06-22T09:54:07Z</time>
   </trkpt>
   <trkpt lat="-3.1104860" lon="37.3569290">
    <ele>4119.8</ele>
    <time>2026-06-22T09:54:08Z</time>
   </trkpt>
   <trkpt lat="-3.1104840" lon="37.3569260">
    <ele>4119.9</ele>
    <time>2026-06-22T09:54:09Z</time>
   </trkpt>
   <trkpt lat="-3.1104810" lon="37.3569250">
    <ele>4120.0</ele>
    <time>2026-06-22T09:54:10Z</time>
   </trkpt>
   <trkpt lat="-3.1104770" lon="37.3569260">
    <ele>4120.1</ele>
    <time>2026-06-22T09:54:11Z</time>
   </trkpt>
   <trkpt lat="-3.1104730" lon="37.3569270">
    <ele>4120.2</ele>
    <time>2026-06-22T09:54:12Z</time>
   </trkpt>
   <trkpt lat="-3.1104710" lon="37.3569290">
    <ele>4120.3</ele>
    <time>2026-06-22T09:54:13Z</time>
   </trkpt>
   <trkpt lat="-3.1104690" lon="37.3569330">
    <ele>4120.4</ele>
    <time>2026-06-22T09:54:14Z</time>
   </trkpt>
   <trkpt lat="-3.1104670" lon="37.3569360">
    <ele>4120.5</ele>
    <time>2026-06-22T09:54:15Z</time>
   </trkpt>
   <trkpt lat="-3.1104670" lon="37.3569390">
    <ele>4120.6</ele>
    <time>2026-06-22T09:54:16Z</time>
   </trkpt>
   <trkpt lat="-3.1104660" lon="37.3569420">
    <ele>4120.7</ele>
    <time>2026-06-22T09:54:17Z</time>
   </trkpt>
   <trkpt lat="-3.1104630" lon="37.3569440">
    <ele>4120.8</ele>
    <time>2026-06-22T09:54:18Z</time>
   </trkpt>
   <trkpt lat="-3.1104610" lon="37.3569480">
    <ele>4120.9</ele>
    <time>2026-06-22T09:54:19Z</time>
   </trkpt>
   <trkpt lat="-3.1104580" lon="37.3569520">
    <ele>4121.0</ele>
    <time>2026-06-22T09:54:20Z</time>
   </trkpt>
   <trkpt lat="-3.1104570" lon="37.3569570">
    <ele>4121.2</ele>
    <time>2026-06-22T09:54:21Z</time>
   </trkpt>
   <trkpt lat="-3.1104560" lon="37.3569590">
    <ele>4121.2</ele>
    <time>2026-06-22T09:54:22Z</time>
   </trkpt>
   <trkpt lat="-3.1104530" lon="37.3569620">
    <ele>4121.3</ele>
    <time>2026-06-22T09:54:23Z</time>
   </trkpt>
   <trkpt lat="-3.1104500" lon="37.3569640">
    <ele>4121.4</ele>
    <time>2026-06-22T09:54:24Z</time>
   </trkpt>
   <trkpt lat="-3.1104460" lon="37.3569650">
    <ele>4121.5</ele>
    <time>2026-06-22T09:54:25Z</time>
   </trkpt>
   <trkpt lat="-3.1104440" lon="37.3569670">
    <ele>4121.6</ele>
    <time>2026-06-22T09:54:26Z</time>
   </trkpt>
   <trkpt lat="-3.1104410" lon="37.3569700">
    <ele>4121.7</ele>
    <time>2026-06-22T09:54:27Z</time>
   </trkpt>
   <trkpt lat="-3.1104420" lon="37.3569710">
    <ele>4121.8</ele>
    <time>2026-06-22T09:54:28Z</time>
   </trkpt>
   <trkpt lat="-3.1104380" lon="37.3569730">
    <ele>4121.9</ele>
    <time>2026-06-22T09:54:29Z</time>
   </trkpt>
   <trkpt lat="-3.1104380" lon="37.3569740">
    <ele>4121.9</ele>
    <time>2026-06-22T09:54:30Z</time>
   </trkpt>
   <trkpt lat="-3.1104350" lon="37.3569770">
    <ele>4122.0</ele>
    <time>2026-06-22T09:54:31Z</time>
   </trkpt>
   <trkpt lat="-3.1104350" lon="37.3569810">
    <ele>4122.1</ele>
    <time>2026-06-22T09:54:32Z</time>
   </trkpt>
   <trkpt lat="-3.1104330" lon="37.3569840">
    <ele>4122.2</ele>
    <time>2026-06-22T09:54:33Z</time>
   </trkpt>
   <trkpt lat="-3.1104330" lon="37.3569890">
    <ele>4122.4</ele>
    <time>2026-06-22T09:54:34Z</time>
   </trkpt>
   <trkpt lat="-3.1104340" lon="37.3569930">
    <ele>4122.5</ele>
    <time>2026-06-22T09:54:35Z</time>
   </trkpt>
   <trkpt lat="-3.1104350" lon="37.3569970">
    <ele>4122.6</ele>
    <time>2026-06-22T09:54:36Z</time>
   </trkpt>
   <trkpt lat="-3.1104330" lon="37.3570000">
    <ele>4122.7</ele>
    <time>2026-06-22T09:54:37Z</time>
   </trkpt>
   <trkpt lat="-3.1104340" lon="37.3570030">
    <ele>4122.8</ele>
    <time>2026-06-22T09:54:38Z</time>
   </trkpt>
   <trkpt lat="-3.1104320" lon="37.3570080">
    <ele>4122.9</ele>
    <time>2026-06-22T09:54:39Z</time>
   </trkpt>
   <trkpt lat="-3.1104320" lon="37.3570110">
    <ele>4123.0</ele>
    <time>2026-06-22T09:54:40Z</time>
   </trkpt>
   <trkpt lat="-3.1104300" lon="37.3570160">
    <ele>4123.1</ele>
    <time>2026-06-22T09:54:41Z</time>
   </trkpt>
   <trkpt lat="-3.1104290" lon="37.3570180">
    <ele>4123.2</ele>
    <time>2026-06-22T09:54:42Z</time>
   </trkpt>
   <trkpt lat="-3.1104260" lon="37.3570210">
    <ele>4123.3</ele>
    <time>2026-06-22T09:54:43Z</time>
   </trkpt>
   <trkpt lat="-3.1104250" lon="37.3570220">
    <ele>4123.3</ele>
    <time>2026-06-22T09:54:44Z</time>
   </trkpt>
   <trkpt lat="-3.1104240" lon="37.3570260">
    <ele>4123.4</ele>
    <time>2026-06-22T09:54:45Z</time>
   </trkpt>
   <trkpt lat="-3.1104200" lon="37.3570300">
    <ele>4123.6</ele>
    <time>2026-06-22T09:54:46Z</time>
   </trkpt>
   <trkpt lat="-3.1104200" lon="37.3570340">
    <ele>4123.7</ele>
    <time>2026-06-22T09:54:47Z</time>
   </trkpt>
   <trkpt lat="-3.1104170" lon="37.3570400">
    <ele>4123.8</ele>
    <time>2026-06-22T09:54:48Z</time>
   </trkpt>
   <trkpt lat="-3.1104190" lon="37.3570430">
    <ele>4123.9</ele>
    <time>2026-06-22T09:54:49Z</time>
   </trkpt>
   <trkpt lat="-3.1104190" lon="37.3570470">
    <ele>4124.0</ele>
    <time>2026-06-22T09:54:50Z</time>
   </trkpt>
   <trkpt lat="-3.1104200" lon="37.3570520">
    <ele>4124.2</ele>
    <time>2026-06-22T09:54:51Z</time>
   </trkpt>
   <trkpt lat="-3.1104210" lon="37.3570550">
    <ele>4124.2</ele>
    <time>2026-06-22T09:54:52Z</time>
   </trkpt>
   <trkpt lat="-3.1104210" lon="37.3570580">
    <ele>4124.3</ele>
    <time>2026-06-22T09:54:53Z</time>
   </trkpt>
   <trkpt lat="-3.1104220" lon="37.3570630">
    <ele>4124.5</ele>
    <time>2026-06-22T09:54:54Z</time>
   </trkpt>
   <trkpt lat="-3.1104210" lon="37.3570670">
    <ele>4124.6</ele>
    <time>2026-06-22T09:54:55Z</time>
   </trkpt>
   <trkpt lat="-3.1104190" lon="37.3570690">
    <ele>4124.6</ele>
    <time>2026-06-22T09:54:56Z</time>
   </trkpt>
   <trkpt lat="-3.1104190" lon="37.3570740">
    <ele>4124.8</ele>
    <time>2026-06-22T09:54:57Z</time>
   </trkpt>
   <trkpt lat="-3.1104180" lon="37.3570750">
    <ele>4124.8</ele>
    <time>2026-06-22T09:54:58Z</time>
   </trkpt>
   <trkpt lat="-3.1104160" lon="37.3570790">
    <ele>4124.9</ele>
    <time>2026-06-22T09:54:59Z</time>
   </trkpt>
   <trkpt lat="-3.1104120" lon="37.3570820">
    <ele>4125.0</ele>
    <time>2026-06-22T09:55:00Z</time>
   </trkpt>
   <trkpt lat="-3.1104120" lon="37.3570840">
    <ele>4125.1</ele>
    <time>2026-06-22T09:55:01Z</time>
   </trkpt>
   <trkpt lat="-3.1104050" lon="37.3570850">
    <ele>4125.3</ele>
    <time>2026-06-22T09:55:02Z</time>
   </trkpt>
   <trkpt lat="-3.1104020" lon="37.3570860">
    <ele>4125.3</ele>
    <time>2026-06-22T09:55:03Z</time>
   </trkpt>
   <trkpt lat="-3.1103970" lon="37.3570870">
    <ele>4125.5</ele>
    <time>2026-06-22T09:55:04Z</time>
   </trkpt>
   <trkpt lat="-3.1103940" lon="37.3570860">
    <ele>4125.6</ele>
    <time>2026-06-22T09:55:05Z</time>
   </trkpt>
   <trkpt lat="-3.1103870" lon="37.3570900">
    <ele>4125.8</ele>
    <time>2026-06-22T09:55:06Z</time>
   </trkpt>
   <trkpt lat="-3.1103820" lon="37.3570930">
    <ele>4125.9</ele>
    <time>2026-06-22T09:55:07Z</time>
   </trkpt>
   <trkpt lat="-3.1103810" lon="37.3570960">
    <ele>4126.0</ele>
    <time>2026-06-22T09:55:08Z</time>
   </trkpt>
   <trkpt lat="-3.1103800" lon="37.3570990">
    <ele>4126.1</ele>
    <time>2026-06-22T09:55:09Z</time>
   </trkpt>
   <trkpt lat="-3.1103790" lon="37.3571010">
    <ele>4126.1</ele>
    <time>2026-06-22T09:55:10Z</time>
   </trkpt>
   <trkpt lat="-3.1103730" lon="37.3571080">
    <ele>4126.4</ele>
    <time>2026-06-22T09:55:11Z</time>
   </trkpt>
   <trkpt lat="-3.1103720" lon="37.3571130">
    <ele>4126.5</ele>
    <time>2026-06-22T09:55:12Z</time>
   </trkpt>
   <trkpt lat="-3.1103710" lon="37.3571160">
    <ele>4126.6</ele>
    <time>2026-06-22T09:55:13Z</time>
   </trkpt>
   <trkpt lat="-3.1103690" lon="37.3571210">
    <ele>4126.7</ele>
    <time>2026-06-22T09:55:14Z</time>
   </trkpt>
   <trkpt lat="-3.1103670" lon="37.3571230">
    <ele>4126.8</ele>
    <time>2026-06-22T09:55:15Z</time>
   </trkpt>
   <trkpt lat="-3.1103650" lon="37.3571240">
    <ele>4126.8</ele>
    <time>2026-06-22T09:55:16Z</time>
   </trkpt>
   <trkpt lat="-3.1103620" lon="37.3571270">
    <ele>4126.9</ele>
    <time>2026-06-22T09:55:17Z</time>
   </trkpt>
   <trkpt lat="-3.1103570" lon="37.3571290">
    <ele>4127.1</ele>
    <time>2026-06-22T09:55:18Z</time>
   </trkpt>
   <trkpt lat="-3.1103560" lon="37.3571300">
    <ele>4127.1</ele>
    <time>2026-06-22T09:55:19Z</time>
   </trkpt>
   <trkpt lat="-3.1103520" lon="37.3571340">
    <ele>4127.3</ele>
    <time>2026-06-22T09:55:20Z</time>
   </trkpt>
   <trkpt lat="-3.1103490" lon="37.3571370">
    <ele>4127.4</ele>
    <time>2026-06-22T09:55:21Z</time>
   </trkpt>
   <trkpt lat="-3.1103460" lon="37.3571390">
    <ele>4127.5</ele>
    <time>2026-06-22T09:55:22Z</time>
   </trkpt>
   <trkpt lat="-3.1103440" lon="37.3571440">
    <ele>4127.6</ele>
    <time>2026-06-22T09:55:23Z</time>
   </trkpt>
   <trkpt lat="-3.1103420" lon="37.3571460">
    <ele>4127.7</ele>
    <time>2026-06-22T09:55:24Z</time>
   </trkpt>
   <trkpt lat="-3.1103410" lon="37.3571490">
    <ele>4127.7</ele>
    <time>2026-06-22T09:55:25Z</time>
   </trkpt>
   <trkpt lat="-3.1103380" lon="37.3571550">
    <ele>4127.9</ele>
    <time>2026-06-22T09:55:26Z</time>
   </trkpt>
   <trkpt lat="-3.1103350" lon="37.3571550">
    <ele>4128.0</ele>
    <time>2026-06-22T09:55:27Z</time>
   </trkpt>
   <trkpt lat="-3.1103340" lon="37.3571630">
    <ele>4128.2</ele>
    <time>2026-06-22T09:55:28Z</time>
   </trkpt>
   <trkpt lat="-3.1103310" lon="37.3571660">
    <ele>4128.3</ele>
    <time>2026-06-22T09:55:29Z</time>
   </trkpt>
   <trkpt lat="-3.1103300" lon="37.3571680">
    <ele>4128.4</ele>
    <time>2026-06-22T09:55:30Z</time>
   </trkpt>
   <trkpt lat="-3.1103280" lon="37.3571730">
    <ele>4128.5</ele>
    <time>2026-06-22T09:55:31Z</time>
   </trkpt>
   <trkpt lat="-3.1103270" lon="37.3571790">
    <ele>4128.6</ele>
    <time>2026-06-22T09:55:32Z</time>
   </trkpt>
   <trkpt lat="-3.1103280" lon="37.3571820">
    <ele>4128.7</ele>
    <time>2026-06-22T09:55:33Z</time>
   </trkpt>
   <trkpt lat="-3.1103270" lon="37.3571860">
    <ele>4128.8</ele>
    <time>2026-06-22T09:55:34Z</time>
   </trkpt>
   <trkpt lat="-3.1103260" lon="37.3571920">
    <ele>4129.0</ele>
    <time>2026-06-22T09:55:35Z</time>
   </trkpt>
   <trkpt lat="-3.1103240" lon="37.3571950">
    <ele>4129.1</ele>
    <time>2026-06-22T09:55:36Z</time>
   </trkpt>
   <trkpt lat="-3.1103230" lon="37.3571990">
    <ele>4129.2</ele>
    <time>2026-06-22T09:55:37Z</time>
   </trkpt>
   <trkpt lat="-3.1103200" lon="37.3572040">
    <ele>4129.3</ele>
    <time>2026-06-22T09:55:38Z</time>
   </trkpt>
   <trkpt lat="-3.1103190" lon="37.3572070">
    <ele>4129.4</ele>
    <time>2026-06-22T09:55:39Z</time>
   </trkpt>
   <trkpt lat="-3.1103170" lon="37.3572110">
    <ele>4129.5</ele>
    <time>2026-06-22T09:55:40Z</time>
   </trkpt>
   <trkpt lat="-3.1103150" lon="37.3572150">
    <ele>4129.6</ele>
    <time>2026-06-22T09:55:41Z</time>
   </trkpt>
   <trkpt lat="-3.1103150" lon="37.3572200">
    <ele>4129.8</ele>
    <time>2026-06-22T09:55:42Z</time>
   </trkpt>
   <trkpt lat="-3.1103160" lon="37.3572210">
    <ele>4129.8</ele>
    <time>2026-06-22T09:55:43Z</time>
   </trkpt>
   <trkpt lat="-3.1103160" lon="37.3572220">
    <ele>4129.8</ele>
    <time>2026-06-22T09:55:44Z</time>
   </trkpt>
   <trkpt lat="-3.1103160" lon="37.3572210">
    <ele>4129.8</ele>
    <time>2026-06-22T09:55:45Z</time>
   </trkpt>
   <trkpt lat="-3.1103160" lon="37.3572210">
    <ele>4129.8</ele>
    <time>2026-06-22T09:55:46Z</time>
   </trkpt>
   <trkpt lat="-3.1103160" lon="37.3572220">
    <ele>4129.9</ele>
    <time>2026-06-22T09:55:47Z</time>
   </trkpt>
   <trkpt lat="-3.1103160" lon="37.3572210">
    <ele>4129.9</ele>
    <time>2026-06-22T09:55:48Z</time>
   </trkpt>
   <trkpt lat="-3.1103140" lon="37.3572250">
    <ele>4130.0</ele>
    <time>2026-06-22T09:55:49Z</time>
   </trkpt>
   <trkpt lat="-3.1103150" lon="37.3572260">
    <ele>4130.0</ele>
    <time>2026-06-22T09:55:50Z</time>
   </trkpt>
   <trkpt lat="-3.1103160" lon="37.3572270">
    <ele>4130.1</ele>
    <time>2026-06-22T09:55:51Z</time>
   </trkpt>
   <trkpt lat="-3.1103170" lon="37.3572250">
    <ele>4130.1</ele>
    <time>2026-06-22T09:55:52Z</time>
   </trkpt>
   <trkpt lat="-3.1103170" lon="37.3572250">
    <ele>4130.1</ele>
    <time>2026-06-22T09:55:53Z</time>
   </trkpt>
   <trkpt lat="-3.1103170" lon="37.3572250">
    <ele>4130.1</ele>
    <time>2026-06-22T09:55:54Z</time>
   </trkpt>
   <trkpt lat="-3.1103170" lon="37.3572240">
    <ele>4130.2</ele>
    <time>2026-06-22T09:55:55Z</time>
   </trkpt>
   <trkpt lat="-3.1103190" lon="37.3572210">
    <ele>4130.3</ele>
    <time>2026-06-22T09:55:56Z</time>
   </trkpt>
   <trkpt lat="-3.1103190" lon="37.3572210">
    <ele>4130.3</ele>
    <time>2026-06-22T09:55:57Z</time>
   </trkpt>
   <trkpt lat="-3.1103180" lon="37.3572200">
    <ele>4130.3</ele>
    <time>2026-06-22T09:55:58Z</time>
   </trkpt>
   <trkpt lat="-3.1103180" lon="37.3572200">
    <ele>4130.3</ele>
    <time>2026-06-22T09:55:59Z</time>
   </trkpt>
   <trkpt lat="-3.1103180" lon="37.3572200">
    <ele>4130.3</ele>
    <time>2026-06-22T09:56:00Z</time>
   </trkpt>
   <trkpt lat="-3.1103180" lon="37.3572200">
    <ele>4130.3</ele>
    <time>2026-06-22T09:56:01Z</time>
   </trkpt>
   <trkpt lat="-3.1103180" lon="37.3572200">
    <ele>4130.3</ele>
    <time>2026-06-22T09:56:02Z</time>
   </trkpt>
   <trkpt lat="-3.1103180" lon="37.3572190">
    <ele>4130.3</ele>
    <time>2026-06-22T09:56:03Z</time>
   </trkpt>
   <trkpt lat="-3.1103200" lon="37.3572260">
    <ele>4130.5</ele>
    <time>2026-06-22T09:56:04Z</time>
   </trkpt>
   <trkpt lat="-3.1103210" lon="37.3572240">
    <ele>4130.6</ele>
    <time>2026-06-22T09:56:05Z</time>
   </trkpt>
   <trkpt lat="-3.1103190" lon="37.3572210">
    <ele>4130.7</ele>
    <time>2026-06-22T09:56:06Z</time>
   </trkpt>
   <trkpt lat="-3.1103190" lon="37.3572210">
    <ele>4130.7</ele>
    <time>2026-06-22T09:56:07Z</time>
   </trkpt>
   <trkpt lat="-3.1103190" lon="37.3572200">
    <ele>4130.7</ele>
    <time>2026-06-22T09:56:08Z</time>
   </trkpt>
   <trkpt lat="-3.1103190" lon="37.3572220">
    <ele>4130.7</ele>
    <time>2026-06-22T09:56:09Z</time>
   </trkpt>
   <trkpt lat="-3.1103200" lon="37.3572220">
    <ele>4130.8</ele>
    <time>2026-06-22T09:56:10Z</time>
   </trkpt>
   <trkpt lat="-3.1103200" lon="37.3572220">
    <ele>4130.8</ele>
    <time>2026-06-22T09:56:11Z</time>
   </trkpt>
   <trkpt lat="-3.1103200" lon="37.3572220">
    <ele>4130.8</ele>
    <time>2026-06-22T09:56:12Z</time>
   </trkpt>
   <trkpt lat="-3.1103200" lon="37.3572210">
    <ele>4130.8</ele>
    <time>2026-06-22T09:56:13Z</time>
   </trkpt>
   <trkpt lat="-3.1103210" lon="37.3572200">
    <ele>4130.8</ele>
    <time>2026-06-22T09:56:14Z</time>
   </trkpt>
   <trkpt lat="-3.1103200" lon="37.3572200">
    <ele>4130.8</ele>
    <time>2026-06-22T09:56:15Z</time>
   </trkpt>
   <trkpt lat="-3.1103190" lon="37.3572200">
    <ele>4130.9</ele>
    <time>2026-06-22T09:56:16Z</time>
   </trkpt>
   <trkpt lat="-3.1103180" lon="37.3572200">
    <ele>4130.9</ele>
    <time>2026-06-22T09:56:17Z</time>
   </trkpt>
   <trkpt lat="-3.1103180" lon="37.3572210">
    <ele>4130.9</ele>
    <time>2026-06-22T09:56:18Z</time>
   </trkpt>
   <trkpt lat="-3.1103170" lon="37.3572200">
    <ele>4131.0</ele>
    <time>2026-06-22T09:56:19Z</time>
   </trkpt>
   <trkpt lat="-3.1103170" lon="37.3572210">
    <ele>4131.0</ele>
    <time>2026-06-22T09:56:20Z</time>
   </trkpt>
   <trkpt lat="-3.1103170" lon="37.3572210">
    <ele>4131.0</ele>
    <time>2026-06-22T09:56:21Z</time>
   </trkpt>
   <trkpt lat="-3.1103170" lon="37.3572220">
    <ele>4131.0</ele>
    <time>2026-06-22T09:56:22Z</time>
   </trkpt>
   <trkpt lat="-3.1103170" lon="37.3572210">
    <ele>4131.0</ele>
    <time>2026-06-22T09:56:23Z</time>
   </trkpt>
   <trkpt lat="-3.1103170" lon="37.3572220">
    <ele>4131.1</ele>
    <time>2026-06-22T09:56:24Z</time>
   </trkpt>
   <trkpt lat="-3.1103170" lon="37.3572210">
    <ele>4131.1</ele>
    <time>2026-06-22T09:56:25Z</time>
   </trkpt>
   <trkpt lat="-3.1103160" lon="37.3572210">
    <ele>4131.1</ele>
    <time>2026-06-22T09:56:26Z</time>
   </trkpt>
   <trkpt lat="-3.1103150" lon="37.3572230">
    <ele>4131.2</ele>
    <time>2026-06-22T09:56:27Z</time>
   </trkpt>
   <trkpt lat="-3.1103140" lon="37.3572270">
    <ele>4131.3</ele>
    <time>2026-06-22T09:56:28Z</time>
   </trkpt>
   <trkpt lat="-3.1103120" lon="37.3572300">
    <ele>4131.4</ele>
    <time>2026-06-22T09:56:29Z</time>
   </trkpt>
   <trkpt lat="-3.1103090" lon="37.3572330">
    <ele>4131.5</ele>
    <time>2026-06-22T09:56:30Z</time>
   </trkpt>
   <trkpt lat="-3.1103060" lon="37.3572350">
    <ele>4131.6</ele>
    <time>2026-06-22T09:56:31Z</time>
   </trkpt>
   <trkpt lat="-3.1103040" lon="37.3572400">
    <ele>4131.7</ele>
    <time>2026-06-22T09:56:32Z</time>
   </trkpt>
   <trkpt lat="-3.1103040" lon="37.3572450">
    <ele>4131.8</ele>
    <time>2026-06-22T09:56:33Z</time>
   </trkpt>
   <trkpt lat="-3.1103040" lon="37.3572490">
    <ele>4131.9</ele>
    <time>2026-06-22T09:56:34Z</time>
   </trkpt>
   <trkpt lat="-3.1103020" lon="37.3572530">
    <ele>4132.0</ele>
    <time>2026-06-22T09:56:35Z</time>
   </trkpt>
   <trkpt lat="-3.1103020" lon="37.3572570">
    <ele>4132.1</ele>
    <time>2026-06-22T09:56:36Z</time>
   </trkpt>
   <trkpt lat="-3.1103000" lon="37.3572600">
    <ele>4132.2</ele>
    <time>2026-06-22T09:56:37Z</time>
   </trkpt>
   <trkpt lat="-3.1103000" lon="37.3572660">
    <ele>4132.4</ele>
    <time>2026-06-22T09:56:38Z</time>
   </trkpt>
   <trkpt lat="-3.1102980" lon="37.3572680">
    <ele>4132.5</ele>
    <time>2026-06-22T09:56:39Z</time>
   </trkpt>
   <trkpt lat="-3.1102960" lon="37.3572710">
    <ele>4132.5</ele>
    <time>2026-06-22T09:56:40Z</time>
   </trkpt>
   <trkpt lat="-3.1102930" lon="37.3572760">
    <ele>4132.7</ele>
    <time>2026-06-22T09:56:41Z</time>
   </trkpt>
   <trkpt lat="-3.1102930" lon="37.3572790">
    <ele>4132.8</ele>
    <time>2026-06-22T09:56:42Z</time>
   </trkpt>
   <trkpt lat="-3.1102900" lon="37.3572840">
    <ele>4132.9</ele>
    <time>2026-06-22T09:56:43Z</time>
   </trkpt>
   <trkpt lat="-3.1102890" lon="37.3572880">
    <ele>4133.0</ele>
    <time>2026-06-22T09:56:44Z</time>
   </trkpt>
   <trkpt lat="-3.1102860" lon="37.3572910">
    <ele>4133.1</ele>
    <time>2026-06-22T09:56:45Z</time>
   </trkpt>
   <trkpt lat="-3.1102820" lon="37.3572950">
    <ele>4133.3</ele>
    <time>2026-06-22T09:56:46Z</time>
   </trkpt>
   <trkpt lat="-3.1102800" lon="37.3572980">
    <ele>4133.4</ele>
    <time>2026-06-22T09:56:47Z</time>
   </trkpt>
   <trkpt lat="-3.1102770" lon="37.3573020">
    <ele>4133.5</ele>
    <time>2026-06-22T09:56:48Z</time>
   </trkpt>
   <trkpt lat="-3.1102760" lon="37.3573030">
    <ele>4133.5</ele>
    <time>2026-06-22T09:56:49Z</time>
   </trkpt>
   <trkpt lat="-3.1102730" lon="37.3573080">
    <ele>4133.7</ele>
    <time>2026-06-22T09:56:50Z</time>
   </trkpt>
   <trkpt lat="-3.1102680" lon="37.3573100">
    <ele>4133.8</ele>
    <time>2026-06-22T09:56:51Z</time>
   </trkpt>
   <trkpt lat="-3.1102650" lon="37.3573120">
    <ele>4133.9</ele>
    <time>2026-06-22T09:56:52Z</time>
   </trkpt>
   <trkpt lat="-3.1102610" lon="37.3573120">
    <ele>4134.0</ele>
    <time>2026-06-22T09:56:53Z</time>
   </trkpt>
   <trkpt lat="-3.1102570" lon="37.3573150">
    <ele>4134.1</ele>
    <time>2026-06-22T09:56:54Z</time>
   </trkpt>
   <trkpt lat="-3.1102530" lon="37.3573220">
    <ele>4134.3</ele>
    <time>2026-06-22T09:56:55Z</time>
   </trkpt>
   <trkpt lat="-3.1102510" lon="37.3573280">
    <ele>4134.5</ele>
    <time>2026-06-22T09:56:56Z</time>
   </trkpt>
   <trkpt lat="-3.1102500" lon="37.3573320">
    <ele>4134.6</ele>
    <time>2026-06-22T09:56:57Z</time>
   </trkpt>
   <trkpt lat="-3.1102490" lon="37.3573370">
    <ele>4134.7</ele>
    <time>2026-06-22T09:56:58Z</time>
   </trkpt>
   <trkpt lat="-3.1102510" lon="37.3573410">
    <ele>4134.8</ele>
    <time>2026-06-22T09:56:59Z</time>
   </trkpt>
   <trkpt lat="-3.1102520" lon="37.3573470">
    <ele>4135.0</ele>
    <time>2026-06-22T09:57:00Z</time>
   </trkpt>
   <trkpt lat="-3.1102520" lon="37.3573490">
    <ele>4135.0</ele>
    <time>2026-06-22T09:57:01Z</time>
   </trkpt>
   <trkpt lat="-3.1102510" lon="37.3573540">
    <ele>4135.2</ele>
    <time>2026-06-22T09:57:02Z</time>
   </trkpt>
   <trkpt lat="-3.1102490" lon="37.3573570">
    <ele>4135.2</ele>
    <time>2026-06-22T09:57:03Z</time>
   </trkpt>
   <trkpt lat="-3.1102470" lon="37.3573600">
    <ele>4135.3</ele>
    <time>2026-06-22T09:57:04Z</time>
   </trkpt>
   <trkpt lat="-3.1102460" lon="37.3573640">
    <ele>4135.4</ele>
    <time>2026-06-22T09:57:05Z</time>
   </trkpt>
   <trkpt lat="-3.1102430" lon="37.3573800">
    <ele>4135.8</ele>
    <time>2026-06-22T09:57:06Z</time>
   </trkpt>
   <trkpt lat="-3.1102390" lon="37.3573770">
    <ele>4136.0</ele>
    <time>2026-06-22T09:57:07Z</time>
   </trkpt>
   <trkpt lat="-3.1102380" lon="37.3573790">
    <ele>4136.0</ele>
    <time>2026-06-22T09:57:08Z</time>
   </trkpt>
   <trkpt lat="-3.1102360" lon="37.3573800">
    <ele>4136.1</ele>
    <time>2026-06-22T09:57:09Z</time>
   </trkpt>
   <trkpt lat="-3.1102330" lon="37.3573850">
    <ele>4136.2</ele>
    <time>2026-06-22T09:57:10Z</time>
   </trkpt>
   <trkpt lat="-3.1102310" lon="37.3573870">
    <ele>4136.3</ele>
    <time>2026-06-22T09:57:11Z</time>
   </trkpt>
   <trkpt lat="-3.1102290" lon="37.3573890">
    <ele>4136.4</ele>
    <time>2026-06-22T09:57:12Z</time>
   </trkpt>
   <trkpt lat="-3.1102260" lon="37.3573910">
    <ele>4136.5</ele>
    <time>2026-06-22T09:57:13Z</time>
   </trkpt>
   <trkpt lat="-3.1102280" lon="37.3574030">
    <ele>4136.8</ele>
    <time>2026-06-22T09:57:14Z</time>
   </trkpt>
   <trkpt lat="-3.1102240" lon="37.3574000">
    <ele>4136.9</ele>
    <time>2026-06-22T09:57:15Z</time>
   </trkpt>
   <trkpt lat="-3.1102270" lon="37.3573900">
    <ele>4137.1</ele>
    <time>2026-06-22T09:57:16Z</time>
   </trkpt>
   <trkpt lat="-3.1102220" lon="37.3574090">
    <ele>4137.6</ele>
    <time>2026-06-22T09:57:17Z</time>
   </trkpt>
   <trkpt lat="-3.1102250" lon="37.3574080">
    <ele>4137.7</ele>
    <time>2026-06-22T09:57:18Z</time>
   </trkpt>
   <trkpt lat="-3.1102230" lon="37.3574120">
    <ele>4137.8</ele>
    <time>2026-06-22T09:57:19Z</time>
   </trkpt>
   <trkpt lat="-3.1102230" lon="37.3574160">
    <ele>4137.9</ele>
    <time>2026-06-22T09:57:20Z</time>
   </trkpt>
   <trkpt lat="-3.1102200" lon="37.3574200">
    <ele>4138.0</ele>
    <time>2026-06-22T09:57:21Z</time>
   </trkpt>
   <trkpt lat="-3.1102180" lon="37.3574220">
    <ele>4138.1</ele>
    <time>2026-06-22T09:57:22Z</time>
   </trkpt>
   <trkpt lat="-3.1102190" lon="37.3574260">
    <ele>4138.2</ele>
    <time>2026-06-22T09:57:23Z</time>
   </trkpt>
   <trkpt lat="-3.1102170" lon="37.3574320">
    <ele>4138.3</ele>
    <time>2026-06-22T09:57:24Z</time>
   </trkpt>
   <trkpt lat="-3.1102180" lon="37.3574360">
    <ele>4138.4</ele>
    <time>2026-06-22T09:57:25Z</time>
   </trkpt>
   <trkpt lat="-3.1102190" lon="37.3574410">
    <ele>4138.6</ele>
    <time>2026-06-22T09:57:26Z</time>
   </trkpt>
   <trkpt lat="-3.1102190" lon="37.3574460">
    <ele>4138.7</ele>
    <time>2026-06-22T09:57:27Z</time>
   </trkpt>
   <trkpt lat="-3.1102160" lon="37.3574530">
    <ele>4138.9</ele>
    <time>2026-06-22T09:57:28Z</time>
   </trkpt>
   <trkpt lat="-3.1102140" lon="37.3574550">
    <ele>4138.9</ele>
    <time>2026-06-22T09:57:29Z</time>
   </trkpt>
   <trkpt lat="-3.1102100" lon="37.3574580">
    <ele>4139.0</ele>
    <time>2026-06-22T09:57:30Z</time>
   </trkpt>
   <trkpt lat="-3.1102060" lon="37.3574590">
    <ele>4139.1</ele>
    <time>2026-06-22T09:57:31Z</time>
   </trkpt>
   <trkpt lat="-3.1102020" lon="37.3574590">
    <ele>4139.2</ele>
    <time>2026-06-22T09:57:32Z</time>
   </trkpt>
   <trkpt lat="-3.1101970" lon="37.3574610">
    <ele>4139.4</ele>
    <time>2026-06-22T09:57:33Z</time>
   </trkpt>
   <trkpt lat="-3.1101930" lon="37.3574630">
    <ele>4139.5</ele>
    <time>2026-06-22T09:57:34Z</time>
   </trkpt>
   <trkpt lat="-3.1101900" lon="37.3574640">
    <ele>4139.6</ele>
    <time>2026-06-22T09:57:35Z</time>
   </trkpt>
   <trkpt lat="-3.1101850" lon="37.3574650">
    <ele>4139.7</ele>
    <time>2026-06-22T09:57:36Z</time>
   </trkpt>
   <trkpt lat="-3.1101820" lon="37.3574650">
    <ele>4139.8</ele>
    <time>2026-06-22T09:57:37Z</time>
   </trkpt>
   <trkpt lat="-3.1101690" lon="37.3574670">
    <ele>4140.1</ele>
    <time>2026-06-22T09:57:38Z</time>
   </trkpt>
   <trkpt lat="-3.1101700" lon="37.3574700">
    <ele>4140.1</ele>
    <time>2026-06-22T09:57:39Z</time>
   </trkpt>
   <trkpt lat="-3.1101650" lon="37.3574730">
    <ele>4140.3</ele>
    <time>2026-06-22T09:57:40Z</time>
   </trkpt>
   <trkpt lat="-3.1101630" lon="37.3574770">
    <ele>4140.4</ele>
    <time>2026-06-22T09:57:41Z</time>
   </trkpt>
   <trkpt lat="-3.1101640" lon="37.3574810">
    <ele>4140.5</ele>
    <time>2026-06-22T09:57:42Z</time>
   </trkpt>
   <trkpt lat="-3.1101620" lon="37.3574870">
    <ele>4140.7</ele>
    <time>2026-06-22T09:57:43Z</time>
   </trkpt>
   <trkpt lat="-3.1101640" lon="37.3574890">
    <ele>4140.7</ele>
    <time>2026-06-22T09:57:44Z</time>
   </trkpt>
   <trkpt lat="-3.1101630" lon="37.3574930">
    <ele>4140.8</ele>
    <time>2026-06-22T09:57:45Z</time>
   </trkpt>
   <trkpt lat="-3.1101630" lon="37.3574970">
    <ele>4140.9</ele>
    <time>2026-06-22T09:57:46Z</time>
   </trkpt>
   <trkpt lat="-3.1101610" lon="37.3575020">
    <ele>4141.0</ele>
    <time>2026-06-22T09:57:47Z</time>
   </trkpt>
   <trkpt lat="-3.1101600" lon="37.3575070">
    <ele>4141.2</ele>
    <time>2026-06-22T09:57:48Z</time>
   </trkpt>
   <trkpt lat="-3.1101580" lon="37.3575090">
    <ele>4141.2</ele>
    <time>2026-06-22T09:57:49Z</time>
   </trkpt>
   <trkpt lat="-3.1101580" lon="37.3575110">
    <ele>4141.3</ele>
    <time>2026-06-22T09:57:50Z</time>
   </trkpt>
   <trkpt lat="-3.1101530" lon="37.3575140">
    <ele>4141.4</ele>
    <time>2026-06-22T09:57:51Z</time>
   </trkpt>
   <trkpt lat="-3.1101510" lon="37.3575180">
    <ele>4141.5</ele>
    <time>2026-06-22T09:57:52Z</time>
   </trkpt>
   <trkpt lat="-3.1101490" lon="37.3575190">
    <ele>4141.6</ele>
    <time>2026-06-22T09:57:53Z</time>
   </trkpt>
   <trkpt lat="-3.1101440" lon="37.3575230">
    <ele>4141.7</ele>
    <time>2026-06-22T09:57:54Z</time>
   </trkpt>
   <trkpt lat="-3.1101440" lon="37.3575240">
    <ele>4141.8</ele>
    <time>2026-06-22T09:57:55Z</time>
   </trkpt>
   <trkpt lat="-3.1101340" lon="37.3575280">
    <ele>4142.0</ele>
    <time>2026-06-22T09:57:56Z</time>
   </trkpt>
   <trkpt lat="-3.1101340" lon="37.3575310">
    <ele>4142.1</ele>
    <time>2026-06-22T09:57:57Z</time>
   </trkpt>
   <trkpt lat="-3.1101390" lon="37.3575320">
    <ele>4142.2</ele>
    <time>2026-06-22T09:57:58Z</time>
   </trkpt>
   <trkpt lat="-3.1101300" lon="37.3575420">
    <ele>4142.6</ele>
    <time>2026-06-22T09:57:59Z</time>
   </trkpt>
   <trkpt lat="-3.1101330" lon="37.3575430">
    <ele>4142.6</ele>
    <time>2026-06-22T09:58:00Z</time>
   </trkpt>
   <trkpt lat="-3.1101310" lon="37.3575470">
    <ele>4142.7</ele>
    <time>2026-06-22T09:58:01Z</time>
   </trkpt>
   <trkpt lat="-3.1101300" lon="37.3575490">
    <ele>4142.8</ele>
    <time>2026-06-22T09:58:02Z</time>
   </trkpt>
   <trkpt lat="-3.1101300" lon="37.3575550">
    <ele>4142.9</ele>
    <time>2026-06-22T09:58:03Z</time>
   </trkpt>
   <trkpt lat="-3.1101300" lon="37.3575560">
    <ele>4143.0</ele>
    <time>2026-06-22T09:58:04Z</time>
   </trkpt>
   <trkpt lat="-3.1101280" lon="37.3575600">
    <ele>4143.1</ele>
    <time>2026-06-22T09:58:05Z</time>
   </trkpt>
   <trkpt lat="-3.1101270" lon="37.3575650">
    <ele>4143.2</ele>
    <time>2026-06-22T09:58:06Z</time>
   </trkpt>
   <trkpt lat="-3.1101250" lon="37.3575690">
    <ele>4143.3</ele>
    <time>2026-06-22T09:58:07Z</time>
   </trkpt>
   <trkpt lat="-3.1101250" lon="37.3575730">
    <ele>4143.4</ele>
    <time>2026-06-22T09:58:08Z</time>
   </trkpt>
   <trkpt lat="-3.1101230" lon="37.3575810">
    <ele>4143.6</ele>
    <time>2026-06-22T09:58:09Z</time>
   </trkpt>
   <trkpt lat="-3.1101220" lon="37.3575860">
    <ele>4143.7</ele>
    <time>2026-06-22T09:58:10Z</time>
   </trkpt>
   <trkpt lat="-3.1101250" lon="37.3575880">
    <ele>4143.8</ele>
    <time>2026-06-22T09:58:11Z</time>
   </trkpt>
   <trkpt lat="-3.1101260" lon="37.3575920">
    <ele>4143.9</ele>
    <time>2026-06-22T09:58:12Z</time>
   </trkpt>
   <trkpt lat="-3.1101280" lon="37.3575940">
    <ele>4144.0</ele>
    <time>2026-06-22T09:58:13Z</time>
   </trkpt>
   <trkpt lat="-3.1101300" lon="37.3576000">
    <ele>4144.1</ele>
    <time>2026-06-22T09:58:14Z</time>
   </trkpt>
   <trkpt lat="-3.1101320" lon="37.3576050">
    <ele>4144.3</ele>
    <time>2026-06-22T09:58:15Z</time>
   </trkpt>
   <trkpt lat="-3.1101350" lon="37.3576090">
    <ele>4144.4</ele>
    <time>2026-06-22T09:58:16Z</time>
   </trkpt>
   <trkpt lat="-3.1101360" lon="37.3576100">
    <ele>4144.4</ele>
    <time>2026-06-22T09:58:17Z</time>
   </trkpt>
   <trkpt lat="-3.1101380" lon="37.3576150">
    <ele>4144.5</ele>
    <time>2026-06-22T09:58:18Z</time>
   </trkpt>
   <trkpt lat="-3.1101390" lon="37.3576180">
    <ele>4144.6</ele>
    <time>2026-06-22T09:58:19Z</time>
   </trkpt>
   <trkpt lat="-3.1101390" lon="37.3576200">
    <ele>4144.7</ele>
    <time>2026-06-22T09:58:20Z</time>
   </trkpt>
   <trkpt lat="-3.1101360" lon="37.3576220">
    <ele>4144.8</ele>
    <time>2026-06-22T09:58:21Z</time>
   </trkpt>
   <trkpt lat="-3.1101350" lon="37.3576250">
    <ele>4144.8</ele>
    <time>2026-06-22T09:58:22Z</time>
   </trkpt>
   <trkpt lat="-3.1101350" lon="37.3576260">
    <ele>4144.9</ele>
    <time>2026-06-22T09:58:23Z</time>
   </trkpt>
   <trkpt lat="-3.1101320" lon="37.3576300">
    <ele>4145.0</ele>
    <time>2026-06-22T09:58:24Z</time>
   </trkpt>
   <trkpt lat="-3.1101290" lon="37.3576330">
    <ele>4145.1</ele>
    <time>2026-06-22T09:58:25Z</time>
   </trkpt>
   <trkpt lat="-3.1101250" lon="37.3576360">
    <ele>4145.2</ele>
    <time>2026-06-22T09:58:26Z</time>
   </trkpt>
   <trkpt lat="-3.1101230" lon="37.3576380">
    <ele>4145.3</ele>
    <time>2026-06-22T09:58:27Z</time>
   </trkpt>
   <trkpt lat="-3.1101180" lon="37.3576400">
    <ele>4145.4</ele>
    <time>2026-06-22T09:58:28Z</time>
   </trkpt>
   <trkpt lat="-3.1101150" lon="37.3576400">
    <ele>4145.5</ele>
    <time>2026-06-22T09:58:29Z</time>
   </trkpt>
   <trkpt lat="-3.1101120" lon="37.3576410">
    <ele>4145.6</ele>
    <time>2026-06-22T09:58:30Z</time>
   </trkpt>
   <trkpt lat="-3.1101080" lon="37.3576410">
    <ele>4145.6</ele>
    <time>2026-06-22T09:58:31Z</time>
   </trkpt>
   <trkpt lat="-3.1101050" lon="37.3576420">
    <ele>4145.7</ele>
    <time>2026-06-22T09:58:32Z</time>
   </trkpt>
   <trkpt lat="-3.1101020" lon="37.3576460">
    <ele>4145.8</ele>
    <time>2026-06-22T09:58:33Z</time>
   </trkpt>
   <trkpt lat="-3.1101000" lon="37.3576490">
    <ele>4145.9</ele>
    <time>2026-06-22T09:58:34Z</time>
   </trkpt>
   <trkpt lat="-3.1100980" lon="37.3576540">
    <ele>4146.1</ele>
    <time>2026-06-22T09:58:35Z</time>
   </trkpt>
   <trkpt lat="-3.1100980" lon="37.3576590">
    <ele>4146.2</ele>
    <time>2026-06-22T09:58:36Z</time>
   </trkpt>
   <trkpt lat="-3.1101000" lon="37.3576620">
    <ele>4146.3</ele>
    <time>2026-06-22T09:58:37Z</time>
   </trkpt>
   <trkpt lat="-3.1100980" lon="37.3576670">
    <ele>4146.4</ele>
    <time>2026-06-22T09:58:38Z</time>
   </trkpt>
   <trkpt lat="-3.1101000" lon="37.3576690">
    <ele>4146.5</ele>
    <time>2026-06-22T09:58:39Z</time>
   </trkpt>
   <trkpt lat="-3.1101030" lon="37.3576740">
    <ele>4146.6</ele>
    <time>2026-06-22T09:58:40Z</time>
   </trkpt>
   <trkpt lat="-3.1101060" lon="37.3576790">
    <ele>4146.8</ele>
    <time>2026-06-22T09:58:41Z</time>
   </trkpt>
   <trkpt lat="-3.1101060" lon="37.3576830">
    <ele>4146.9</ele>
    <time>2026-06-22T09:58:43Z</time>
   </trkpt>
   <trkpt lat="-3.1101050" lon="37.3576880">
    <ele>4147.0</ele>
    <time>2026-06-22T09:58:44Z</time>
   </trkpt>
   <trkpt lat="-3.1101040" lon="37.3576880">
    <ele>4147.0</ele>
    <time>2026-06-22T09:58:45Z</time>
   </trkpt>
   <trkpt lat="-3.1101010" lon="37.3576930">
    <ele>4147.2</ele>
    <time>2026-06-22T09:58:46Z</time>
   </trkpt>
   <trkpt lat="-3.1100980" lon="37.3576950">
    <ele>4147.2</ele>
    <time>2026-06-22T09:58:47Z</time>
   </trkpt>
   <trkpt lat="-3.1100960" lon="37.3576980">
    <ele>4147.3</ele>
    <time>2026-06-22T09:58:48Z</time>
   </trkpt>
   <trkpt lat="-3.1100940" lon="37.3577030">
    <ele>4147.5</ele>
    <time>2026-06-22T09:58:49Z</time>
   </trkpt>
   <trkpt lat="-3.1100920" lon="37.3577050">
    <ele>4147.5</ele>
    <time>2026-06-22T09:58:50Z</time>
   </trkpt>
   <trkpt lat="-3.1100900" lon="37.3577110">
    <ele>4147.7</ele>
    <time>2026-06-22T09:58:51Z</time>
   </trkpt>
   <trkpt lat="-3.1100890" lon="37.3577100">
    <ele>4147.7</ele>
    <time>2026-06-22T09:58:52Z</time>
   </trkpt>
   <trkpt lat="-3.1100850" lon="37.3577110">
    <ele>4147.8</ele>
    <time>2026-06-22T09:58:53Z</time>
   </trkpt>
   <trkpt lat="-3.1100820" lon="37.3577170">
    <ele>4148.0</ele>
    <time>2026-06-22T09:58:54Z</time>
   </trkpt>
   <trkpt lat="-3.1100800" lon="37.3577190">
    <ele>4148.1</ele>
    <time>2026-06-22T09:58:55Z</time>
   </trkpt>
   <trkpt lat="-3.1100810" lon="37.3577240">
    <ele>4148.2</ele>
    <time>2026-06-22T09:58:56Z</time>
   </trkpt>
   <trkpt lat="-3.1100780" lon="37.3577250">
    <ele>4148.3</ele>
    <time>2026-06-22T09:58:57Z</time>
   </trkpt>
   <trkpt lat="-3.1100750" lon="37.3577270">
    <ele>4148.4</ele>
    <time>2026-06-22T09:58:58Z</time>
   </trkpt>
   <trkpt lat="-3.1100720" lon="37.3577280">
    <ele>4148.4</ele>
    <time>2026-06-22T09:58:59Z</time>
   </trkpt>
   <trkpt lat="-3.1100690" lon="37.3577320">
    <ele>4148.6</ele>
    <time>2026-06-22T09:59:00Z</time>
   </trkpt>
   <trkpt lat="-3.1100660" lon="37.3577330">
    <ele>4148.6</ele>
    <time>2026-06-22T09:59:01Z</time>
   </trkpt>
   <trkpt lat="-3.1100640" lon="37.3577360">
    <ele>4148.7</ele>
    <time>2026-06-22T09:59:02Z</time>
   </trkpt>
   <trkpt lat="-3.1100600" lon="37.3577380">
    <ele>4148.8</ele>
    <time>2026-06-22T09:59:03Z</time>
   </trkpt>
   <trkpt lat="-3.1100580" lon="37.3577370">
    <ele>4148.9</ele>
    <time>2026-06-22T09:59:04Z</time>
   </trkpt>
   <trkpt lat="-3.1100530" lon="37.3577380">
    <ele>4149.0</ele>
    <time>2026-06-22T09:59:05Z</time>
   </trkpt>
   <trkpt lat="-3.1100490" lon="37.3577380">
    <ele>4149.1</ele>
    <time>2026-06-22T09:59:06Z</time>
   </trkpt>
   <trkpt lat="-3.1100460" lon="37.3577350">
    <ele>4149.2</ele>
    <time>2026-06-22T09:59:07Z</time>
   </trkpt>
   <trkpt lat="-3.1100420" lon="37.3577340">
    <ele>4149.3</ele>
    <time>2026-06-22T09:59:08Z</time>
   </trkpt>
   <trkpt lat="-3.1100390" lon="37.3577310">
    <ele>4149.4</ele>
    <time>2026-06-22T09:59:09Z</time>
   </trkpt>
   <trkpt lat="-3.1100370" lon="37.3577290">
    <ele>4149.5</ele>
    <time>2026-06-22T09:59:10Z</time>
   </trkpt>
   <trkpt lat="-3.1100310" lon="37.3577290">
    <ele>4149.7</ele>
    <time>2026-06-22T09:59:11Z</time>
   </trkpt>
   <trkpt lat="-3.1100280" lon="37.3577300">
    <ele>4149.7</ele>
    <time>2026-06-22T09:59:12Z</time>
   </trkpt>
   <trkpt lat="-3.1100230" lon="37.3577340">
    <ele>4149.9</ele>
    <time>2026-06-22T09:59:13Z</time>
   </trkpt>
   <trkpt lat="-3.1100220" lon="37.3577360">
    <ele>4150.0</ele>
    <time>2026-06-22T09:59:14Z</time>
   </trkpt>
   <trkpt lat="-3.1100210" lon="37.3577410">
    <ele>4150.1</ele>
    <time>2026-06-22T09:59:15Z</time>
   </trkpt>
   <trkpt lat="-3.1100200" lon="37.3577450">
    <ele>4150.2</ele>
    <time>2026-06-22T09:59:16Z</time>
   </trkpt>
   <trkpt lat="-3.1100170" lon="37.3577490">
    <ele>4150.3</ele>
    <time>2026-06-22T09:59:17Z</time>
   </trkpt>
   <trkpt lat="-3.1100140" lon="37.3577540">
    <ele>4150.5</ele>
    <time>2026-06-22T09:59:18Z</time>
   </trkpt>
   <trkpt lat="-3.1100140" lon="37.3577570">
    <ele>4150.5</ele>
    <time>2026-06-22T09:59:19Z</time>
   </trkpt>
   <trkpt lat="-3.1100140" lon="37.3577620">
    <ele>4150.7</ele>
    <time>2026-06-22T09:59:20Z</time>
   </trkpt>
   <trkpt lat="-3.1100120" lon="37.3577650">
    <ele>4150.7</ele>
    <time>2026-06-22T09:59:21Z</time>
   </trkpt>
   <trkpt lat="-3.1100110" lon="37.3577660">
    <ele>4150.8</ele>
    <time>2026-06-22T09:59:22Z</time>
   </trkpt>
   <trkpt lat="-3.1100080" lon="37.3577680">
    <ele>4150.9</ele>
    <time>2026-06-22T09:59:23Z</time>
   </trkpt>
   <trkpt lat="-3.1100060" lon="37.3577670">
    <ele>4150.9</ele>
    <time>2026-06-22T09:59:24Z</time>
   </trkpt>
   <trkpt lat="-3.1100020" lon="37.3577680">
    <ele>4151.0</ele>
    <time>2026-06-22T09:59:25Z</time>
   </trkpt>
   <trkpt lat="-3.1099950" lon="37.3577690">
    <ele>4151.2</ele>
    <time>2026-06-22T09:59:26Z</time>
   </trkpt>
   <trkpt lat="-3.1099930" lon="37.3577720">
    <ele>4151.3</ele>
    <time>2026-06-22T09:59:27Z</time>
   </trkpt>
   <trkpt lat="-3.1099910" lon="37.3577780">
    <ele>4151.5</ele>
    <time>2026-06-22T09:59:28Z</time>
   </trkpt>
   <trkpt lat="-3.1099910" lon="37.3577830">
    <ele>4151.6</ele>
    <time>2026-06-22T09:59:29Z</time>
   </trkpt>
   <trkpt lat="-3.1099910" lon="37.3577880">
    <ele>4151.7</ele>
    <time>2026-06-22T09:59:30Z</time>
   </trkpt>
   <trkpt lat="-3.1099890" lon="37.3577920">
    <ele>4151.8</ele>
    <time>2026-06-22T09:59:31Z</time>
   </trkpt>
   <trkpt lat="-3.1099880" lon="37.3577950">
    <ele>4151.9</ele>
    <time>2026-06-22T09:59:32Z</time>
   </trkpt>
   <trkpt lat="-3.1099870" lon="37.3577970">
    <ele>4151.9</ele>
    <time>2026-06-22T09:59:33Z</time>
   </trkpt>
   <trkpt lat="-3.1099860" lon="37.3578030">
    <ele>4152.1</ele>
    <time>2026-06-22T09:59:34Z</time>
   </trkpt>
   <trkpt lat="-3.1099850" lon="37.3578030">
    <ele>4152.1</ele>
    <time>2026-06-22T09:59:35Z</time>
   </trkpt>
   <trkpt lat="-3.1099840" lon="37.3578070">
    <ele>4152.2</ele>
    <time>2026-06-22T09:59:36Z</time>
   </trkpt>
   <trkpt lat="-3.1099850" lon="37.3578090">
    <ele>4152.3</ele>
    <time>2026-06-22T09:59:37Z</time>
   </trkpt>
   <trkpt lat="-3.1099830" lon="37.3578140">
    <ele>4152.4</ele>
    <time>2026-06-22T09:59:38Z</time>
   </trkpt>
   <trkpt lat="-3.1099810" lon="37.3578180">
    <ele>4152.5</ele>
    <time>2026-06-22T09:59:39Z</time>
   </trkpt>
   <trkpt lat="-3.1099820" lon="37.3578210">
    <ele>4152.6</ele>
    <time>2026-06-22T09:59:40Z</time>
   </trkpt>
   <trkpt lat="-3.1099810" lon="37.3578280">
    <ele>4152.8</ele>
    <time>2026-06-22T09:59:41Z</time>
   </trkpt>
   <trkpt lat="-3.1099820" lon="37.3578330">
    <ele>4152.9</ele>
    <time>2026-06-22T09:59:42Z</time>
   </trkpt>
   <trkpt lat="-3.1099850" lon="37.3578350">
    <ele>4153.0</ele>
    <time>2026-06-22T09:59:43Z</time>
   </trkpt>
   <trkpt lat="-3.1099840" lon="37.3578420">
    <ele>4153.2</ele>
    <time>2026-06-22T09:59:44Z</time>
   </trkpt>
   <trkpt lat="-3.1099830" lon="37.3578450">
    <ele>4153.3</ele>
    <time>2026-06-22T09:59:45Z</time>
   </trkpt>
   <trkpt lat="-3.1099830" lon="37.3578490">
    <ele>4153.4</ele>
    <time>2026-06-22T09:59:46Z</time>
   </trkpt>
   <trkpt lat="-3.1099810" lon="37.3578520">
    <ele>4153.5</ele>
    <time>2026-06-22T09:59:47Z</time>
   </trkpt>
   <trkpt lat="-3.1099760" lon="37.3578560">
    <ele>4153.6</ele>
    <time>2026-06-22T09:59:48Z</time>
   </trkpt>
   <trkpt lat="-3.1099740" lon="37.3578600">
    <ele>4153.7</ele>
    <time>2026-06-22T09:59:49Z</time>
   </trkpt>
   <trkpt lat="-3.1099710" lon="37.3578650">
    <ele>4153.9</ele>
    <time>2026-06-22T09:59:50Z</time>
   </trkpt>
   <trkpt lat="-3.1099710" lon="37.3578670">
    <ele>4153.9</ele>
    <time>2026-06-22T09:59:51Z</time>
   </trkpt>
   <trkpt lat="-3.1099680" lon="37.3578730">
    <ele>4154.1</ele>
    <time>2026-06-22T09:59:52Z</time>
   </trkpt>
   <trkpt lat="-3.1099670" lon="37.3578780">
    <ele>4154.2</ele>
    <time>2026-06-22T09:59:53Z</time>
   </trkpt>
   <trkpt lat="-3.1099660" lon="37.3578800">
    <ele>4154.3</ele>
    <time>2026-06-22T09:59:54Z</time>
   </trkpt>
   <trkpt lat="-3.1099650" lon="37.3578850">
    <ele>4154.4</ele>
    <time>2026-06-22T09:59:55Z</time>
   </trkpt>
   <trkpt lat="-3.1099650" lon="37.3578890">
    <ele>4154.5</ele>
    <time>2026-06-22T09:59:56Z</time>
   </trkpt>
   <trkpt lat="-3.1099650" lon="37.3578950">
    <ele>4154.7</ele>
    <time>2026-06-22T09:59:57Z</time>
   </trkpt>
   <trkpt lat="-3.1099660" lon="37.3578980">
    <ele>4154.8</ele>
    <time>2026-06-22T09:59:58Z</time>
   </trkpt>
   <trkpt lat="-3.1099650" lon="37.3579020">
    <ele>4154.9</ele>
    <time>2026-06-22T09:59:59Z</time>
   </trkpt>
   <trkpt lat="-3.1099620" lon="37.3579050">
    <ele>4155.0</ele>
    <time>2026-06-22T10:00:00Z</time>
   </trkpt>
   <trkpt lat="-3.1099610" lon="37.3579040">
    <ele>4155.0</ele>
    <time>2026-06-22T10:00:01Z</time>
   </trkpt>
   <trkpt lat="-3.1099570" lon="37.3579050">
    <ele>4155.1</ele>
    <time>2026-06-22T10:00:02Z</time>
   </trkpt>
   <trkpt lat="-3.1099550" lon="37.3579090">
    <ele>4155.2</ele>
    <time>2026-06-22T10:00:03Z</time>
   </trkpt>
   <trkpt lat="-3.1099520" lon="37.3579100">
    <ele>4155.3</ele>
    <time>2026-06-22T10:00:04Z</time>
   </trkpt>
   <trkpt lat="-3.1099520" lon="37.3579120">
    <ele>4155.4</ele>
    <time>2026-06-22T10:00:05Z</time>
   </trkpt>
   <trkpt lat="-3.1099480" lon="37.3579150">
    <ele>4155.5</ele>
    <time>2026-06-22T10:00:06Z</time>
   </trkpt>
   <trkpt lat="-3.1099480" lon="37.3579190">
    <ele>4155.6</ele>
    <time>2026-06-22T10:00:07Z</time>
   </trkpt>
   <trkpt lat="-3.1099470" lon="37.3579190">
    <ele>4155.6</ele>
    <time>2026-06-22T10:00:08Z</time>
   </trkpt>
   <trkpt lat="-3.1099460" lon="37.3579190">
    <ele>4155.6</ele>
    <time>2026-06-22T10:00:09Z</time>
   </trkpt>
   <trkpt lat="-3.1099410" lon="37.3579210">
    <ele>4155.8</ele>
    <time>2026-06-22T10:00:10Z</time>
   </trkpt>
   <trkpt lat="-3.1099400" lon="37.3579240">
    <ele>4155.9</ele>
    <time>2026-06-22T10:00:11Z</time>
   </trkpt>
   <trkpt lat="-3.1099320" lon="37.3579250">
    <ele>4156.1</ele>
    <time>2026-06-22T10:00:12Z</time>
   </trkpt>
   <trkpt lat="-3.1099310" lon="37.3579250">
    <ele>4156.1</ele>
    <time>2026-06-22T10:00:13Z</time>
   </trkpt>
   <trkpt lat="-3.1099280" lon="37.3579260">
    <ele>4156.2</ele>
    <time>2026-06-22T10:00:14Z</time>
   </trkpt>
   <trkpt lat="-3.1099250" lon="37.3579270">
    <ele>4156.3</ele>
    <time>2026-06-22T10:00:15Z</time>
   </trkpt>
   <trkpt lat="-3.1099230" lon="37.3579290">
    <ele>4156.3</ele>
    <time>2026-06-22T10:00:16Z</time>
   </trkpt>
   <trkpt lat="-3.1099210" lon="37.3579310">
    <ele>4156.4</ele>
    <time>2026-06-22T10:00:17Z</time>
   </trkpt>
   <trkpt lat="-3.1099170" lon="37.3579340">
    <ele>4156.5</ele>
    <time>2026-06-22T10:00:18Z</time>
   </trkpt>
   <trkpt lat="-3.1099150" lon="37.3579350">
    <ele>4156.6</ele>
    <time>2026-06-22T10:00:19Z</time>
   </trkpt>
   <trkpt lat="-3.1099140" lon="37.3579370">
    <ele>4156.6</ele>
    <time>2026-06-22T10:00:20Z</time>
   </trkpt>
   <trkpt lat="-3.1099140" lon="37.3579390">
    <ele>4156.7</ele>
    <time>2026-06-22T10:00:21Z</time>
   </trkpt>
   <trkpt lat="-3.1099120" lon="37.3579410">
    <ele>4156.8</ele>
    <time>2026-06-22T10:00:22Z</time>
   </trkpt>
   <trkpt lat="-3.1099140" lon="37.3579420">
    <ele>4156.8</ele>
    <time>2026-06-22T10:00:23Z</time>
   </trkpt>
   <trkpt lat="-3.1099120" lon="37.3579440">
    <ele>4156.9</ele>
    <time>2026-06-22T10:00:24Z</time>
   </trkpt>
   <trkpt lat="-3.1099080" lon="37.3579460">
    <ele>4157.0</ele>
    <time>2026-06-22T10:00:25Z</time>
   </trkpt>
   <trkpt lat="-3.1099050" lon="37.3579470">
    <ele>4157.1</ele>
    <time>2026-06-22T10:00:26Z</time>
   </trkpt>
   <trkpt lat="-3.1099020" lon="37.3579480">
    <ele>4157.2</ele>
    <time>2026-06-22T10:00:27Z</time>
   </trkpt>
   <trkpt lat="-3.1099010" lon="37.3579470">
    <ele>4157.2</ele>
    <time>2026-06-22T10:00:28Z</time>
   </trkpt>
   <trkpt lat="-3.1098990" lon="37.3579480">
    <ele>4157.3</ele>
    <time>2026-06-22T10:00:29Z</time>
   </trkpt>
   <trkpt lat="-3.1098960" lon="37.3579480">
    <ele>4157.3</ele>
    <time>2026-06-22T10:00:30Z</time>
   </trkpt>
   <trkpt lat="-3.1098920" lon="37.3579530">
    <ele>4157.5</ele>
    <time>2026-06-22T10:00:31Z</time>
   </trkpt>
   <trkpt lat="-3.1098930" lon="37.3579530">
    <ele>4157.5</ele>
    <time>2026-06-22T10:00:32Z</time>
   </trkpt>
   <trkpt lat="-3.1098900" lon="37.3579570">
    <ele>4157.7</ele>
    <time>2026-06-22T10:00:33Z</time>
   </trkpt>
   <trkpt lat="-3.1098920" lon="37.3579600">
    <ele>4157.8</ele>
    <time>2026-06-22T10:00:34Z</time>
   </trkpt>
   <trkpt lat="-3.1098950" lon="37.3579630">
    <ele>4157.9</ele>
    <time>2026-06-22T10:00:35Z</time>
   </trkpt>
   <trkpt lat="-3.1098980" lon="37.3579660">
    <ele>4158.0</ele>
    <time>2026-06-22T10:00:36Z</time>
   </trkpt>
   <trkpt lat="-3.1099020" lon="37.3579670">
    <ele>4158.1</ele>
    <time>2026-06-22T10:00:37Z</time>
   </trkpt>
   <trkpt lat="-3.1099020" lon="37.3579720">
    <ele>4158.2</ele>
    <time>2026-06-22T10:00:38Z</time>
   </trkpt>
   <trkpt lat="-3.1099050" lon="37.3579720">
    <ele>4158.3</ele>
    <time>2026-06-22T10:00:39Z</time>
   </trkpt>
   <trkpt lat="-3.1099010" lon="37.3579800">
    <ele>4158.5</ele>
    <time>2026-06-22T10:00:40Z</time>
   </trkpt>
   <trkpt lat="-3.1099020" lon="37.3579830">
    <ele>4158.6</ele>
    <time>2026-06-22T10:00:41Z</time>
   </trkpt>
   <trkpt lat="-3.1099010" lon="37.3579860">
    <ele>4158.7</ele>
    <time>2026-06-22T10:00:42Z</time>
   </trkpt>
   <trkpt lat="-3.1099020" lon="37.3579890">
    <ele>4158.8</ele>
    <time>2026-06-22T10:00:43Z</time>
   </trkpt>
   <trkpt lat="-3.1099020" lon="37.3579910">
    <ele>4158.8</ele>
    <time>2026-06-22T10:00:44Z</time>
   </trkpt>
   <trkpt lat="-3.1099040" lon="37.3579950">
    <ele>4158.9</ele>
    <time>2026-06-22T10:00:45Z</time>
   </trkpt>
   <trkpt lat="-3.1099020" lon="37.3580020">
    <ele>4159.1</ele>
    <time>2026-06-22T10:00:46Z</time>
   </trkpt>
   <trkpt lat="-3.1099030" lon="37.3580080">
    <ele>4159.3</ele>
    <time>2026-06-22T10:00:47Z</time>
   </trkpt>
   <trkpt lat="-3.1099050" lon="37.3580120">
    <ele>4159.4</ele>
    <time>2026-06-22T10:00:49Z</time>
   </trkpt>
   <trkpt lat="-3.1099050" lon="37.3580160">
    <ele>4159.5</ele>
    <time>2026-06-22T10:00:50Z</time>
   </trkpt>
   <trkpt lat="-3.1099070" lon="37.3580220">
    <ele>4159.6</ele>
    <time>2026-06-22T10:00:51Z</time>
   </trkpt>
   <trkpt lat="-3.1099070" lon="37.3580250">
    <ele>4159.7</ele>
    <time>2026-06-22T10:00:52Z</time>
   </trkpt>
   <trkpt lat="-3.1099090" lon="37.3580280">
    <ele>4159.8</ele>
    <time>2026-06-22T10:00:53Z</time>
   </trkpt>
   <trkpt lat="-3.1099070" lon="37.3580330">
    <ele>4159.9</ele>
    <time>2026-06-22T10:00:54Z</time>
   </trkpt>
   <trkpt lat="-3.1099080" lon="37.3580360">
    <ele>4160.0</ele>
    <time>2026-06-22T10:00:55Z</time>
   </trkpt>
   <trkpt lat="-3.1099070" lon="37.3580420">
    <ele>4160.2</ele>
    <time>2026-06-22T10:00:56Z</time>
   </trkpt>
   <trkpt lat="-3.1099080" lon="37.3580450">
    <ele>4160.3</ele>
    <time>2026-06-22T10:00:57Z</time>
   </trkpt>
   <trkpt lat="-3.1099080" lon="37.3580490">
    <ele>4160.4</ele>
    <time>2026-06-22T10:00:58Z</time>
   </trkpt>
   <trkpt lat="-3.1099060" lon="37.3580550">
    <ele>4160.5</ele>
    <time>2026-06-22T10:00:59Z</time>
   </trkpt>
   <trkpt lat="-3.1099070" lon="37.3580570">
    <ele>4160.6</ele>
    <time>2026-06-22T10:01:00Z</time>
   </trkpt>
   <trkpt lat="-3.1099080" lon="37.3580610">
    <ele>4160.7</ele>
    <time>2026-06-22T10:01:01Z</time>
   </trkpt>
   <trkpt lat="-3.1099090" lon="37.3580640">
    <ele>4160.7</ele>
    <time>2026-06-22T10:01:02Z</time>
   </trkpt>
   <trkpt lat="-3.1099110" lon="37.3580670">
    <ele>4160.8</ele>
    <time>2026-06-22T10:01:03Z</time>
   </trkpt>
   <trkpt lat="-3.1099100" lon="37.3580710">
    <ele>4160.9</ele>
    <time>2026-06-22T10:01:04Z</time>
   </trkpt>
   <trkpt lat="-3.1099110" lon="37.3580740">
    <ele>4161.0</ele>
    <time>2026-06-22T10:01:05Z</time>
   </trkpt>
   <trkpt lat="-3.1099110" lon="37.3580780">
    <ele>4161.1</ele>
    <time>2026-06-22T10:01:06Z</time>
   </trkpt>
   <trkpt lat="-3.1099130" lon="37.3580800">
    <ele>4161.2</ele>
    <time>2026-06-22T10:01:07Z</time>
   </trkpt>
   <trkpt lat="-3.1099130" lon="37.3580830">
    <ele>4161.3</ele>
    <time>2026-06-22T10:01:08Z</time>
   </trkpt>
   <trkpt lat="-3.1099130" lon="37.3580850">
    <ele>4161.3</ele>
    <time>2026-06-22T10:01:09Z</time>
   </trkpt>
   <trkpt lat="-3.1099130" lon="37.3580890">
    <ele>4161.4</ele>
    <time>2026-06-22T10:01:10Z</time>
   </trkpt>
   <trkpt lat="-3.1099100" lon="37.3580940">
    <ele>4161.6</ele>
    <time>2026-06-22T10:01:11Z</time>
   </trkpt>
   <trkpt lat="-3.1099120" lon="37.3580940">
    <ele>4161.6</ele>
    <time>2026-06-22T10:01:12Z</time>
   </trkpt>
   <trkpt lat="-3.1099080" lon="37.3580970">
    <ele>4161.7</ele>
    <time>2026-06-22T10:01:13Z</time>
   </trkpt>
   <trkpt lat="-3.1099090" lon="37.3580980">
    <ele>4161.8</ele>
    <time>2026-06-22T10:01:14Z</time>
   </trkpt>
   <trkpt lat="-3.1099040" lon="37.3581010">
    <ele>4161.9</ele>
    <time>2026-06-22T10:01:15Z</time>
   </trkpt>
   <trkpt lat="-3.1098940" lon="37.3581020">
    <ele>4162.2</ele>
    <time>2026-06-22T10:01:16Z</time>
   </trkpt>
   <trkpt lat="-3.1098980" lon="37.3581040">
    <ele>4162.3</ele>
    <time>2026-06-22T10:01:17Z</time>
   </trkpt>
   <trkpt lat="-3.1098980" lon="37.3581020">
    <ele>4162.3</ele>
    <time>2026-06-22T10:01:18Z</time>
   </trkpt>
   <trkpt lat="-3.1099000" lon="37.3580980">
    <ele>4162.4</ele>
    <time>2026-06-22T10:01:19Z</time>
   </trkpt>
   <trkpt lat="-3.1098900" lon="37.3581020">
    <ele>4162.7</ele>
    <time>2026-06-22T10:01:20Z</time>
   </trkpt>
   <trkpt lat="-3.1098860" lon="37.3581030">
    <ele>4162.8</ele>
    <time>2026-06-22T10:01:21Z</time>
   </trkpt>
   <trkpt lat="-3.1098880" lon="37.3581040">
    <ele>4162.9</ele>
    <time>2026-06-22T10:01:22Z</time>
   </trkpt>
   <trkpt lat="-3.1098890" lon="37.3581060">
    <ele>4162.9</ele>
    <time>2026-06-22T10:01:23Z</time>
   </trkpt>
   <trkpt lat="-3.1098890" lon="37.3581070">
    <ele>4162.9</ele>
    <time>2026-06-22T10:01:24Z</time>
   </trkpt>
   <trkpt lat="-3.1098900" lon="37.3581090">
    <ele>4163.0</ele>
    <time>2026-06-22T10:01:25Z</time>
   </trkpt>
   <trkpt lat="-3.1098870" lon="37.3581160">
    <ele>4163.2</ele>
    <time>2026-06-22T10:01:26Z</time>
   </trkpt>
   <trkpt lat="-3.1098870" lon="37.3581190">
    <ele>4163.3</ele>
    <time>2026-06-22T10:01:27Z</time>
   </trkpt>
   <trkpt lat="-3.1098880" lon="37.3581210">
    <ele>4163.3</ele>
    <time>2026-06-22T10:01:28Z</time>
   </trkpt>
   <trkpt lat="-3.1098860" lon="37.3581240">
    <ele>4163.4</ele>
    <time>2026-06-22T10:01:29Z</time>
   </trkpt>
   <trkpt lat="-3.1098870" lon="37.3581290">
    <ele>4163.5</ele>
    <time>2026-06-22T10:01:30Z</time>
   </trkpt>
   <trkpt lat="-3.1098880" lon="37.3581300">
    <ele>4163.6</ele>
    <time>2026-06-22T10:01:31Z</time>
   </trkpt>
   <trkpt lat="-3.1098840" lon="37.3581410">
    <ele>4163.8</ele>
    <time>2026-06-22T10:01:32Z</time>
   </trkpt>
   <trkpt lat="-3.1098860" lon="37.3581460">
    <ele>4164.0</ele>
    <time>2026-06-22T10:01:33Z</time>
   </trkpt>
   <trkpt lat="-3.1098860" lon="37.3581500">
    <ele>4164.1</ele>
    <time>2026-06-22T10:01:34Z</time>
   </trkpt>
   <trkpt lat="-3.1098870" lon="37.3581540">
    <ele>4164.2</ele>
    <time>2026-06-22T10:01:35Z</time>
   </trkpt>
   <trkpt lat="-3.1098850" lon="37.3581590">
    <ele>4164.3</ele>
    <time>2026-06-22T10:01:36Z</time>
   </trkpt>
   <trkpt lat="-3.1098850" lon="37.3581570">
    <ele>4164.3</ele>
    <time>2026-06-22T10:01:37Z</time>
   </trkpt>
   <trkpt lat="-3.1098850" lon="37.3581660">
    <ele>4164.6</ele>
    <time>2026-06-22T10:01:38Z</time>
   </trkpt>
   <trkpt lat="-3.1098860" lon="37.3581690">
    <ele>4164.6</ele>
    <time>2026-06-22T10:01:39Z</time>
   </trkpt>
   <trkpt lat="-3.1098860" lon="37.3581690">
    <ele>4164.6</ele>
    <time>2026-06-22T10:01:40Z</time>
   </trkpt>
   <trkpt lat="-3.1098850" lon="37.3581730">
    <ele>4164.7</ele>
    <time>2026-06-22T10:01:41Z</time>
   </trkpt>
   <trkpt lat="-3.1098850" lon="37.3581770">
    <ele>4164.8</ele>
    <time>2026-06-22T10:01:42Z</time>
   </trkpt>
   <trkpt lat="-3.1098840" lon="37.3581790">
    <ele>4164.9</ele>
    <time>2026-06-22T10:01:43Z</time>
   </trkpt>
   <trkpt lat="-3.1098840" lon="37.3581820">
    <ele>4165.0</ele>
    <time>2026-06-22T10:01:44Z</time>
   </trkpt>
   <trkpt lat="-3.1098830" lon="37.3581870">
    <ele>4165.1</ele>
    <time>2026-06-22T10:01:45Z</time>
   </trkpt>
   <trkpt lat="-3.1098830" lon="37.3581860">
    <ele>4165.1</ele>
    <time>2026-06-22T10:01:46Z</time>
   </trkpt>
   <trkpt lat="-3.1098820" lon="37.3581900">
    <ele>4165.2</ele>
    <time>2026-06-22T10:01:47Z</time>
   </trkpt>
   <trkpt lat="-3.1098810" lon="37.3581910">
    <ele>4165.2</ele>
    <time>2026-06-22T10:01:48Z</time>
   </trkpt>
   <trkpt lat="-3.1098770" lon="37.3581910">
    <ele>4165.3</ele>
    <time>2026-06-22T10:01:49Z</time>
   </trkpt>
   <trkpt lat="-3.1098820" lon="37.3581860">
    <ele>4165.5</ele>
    <time>2026-06-22T10:01:50Z</time>
   </trkpt>
   <trkpt lat="-3.1098730" lon="37.3581970">
    <ele>4165.9</ele>
    <time>2026-06-22T10:01:51Z</time>
   </trkpt>
   <trkpt lat="-3.1098720" lon="37.3581970">
    <ele>4165.9</ele>
    <time>2026-06-22T10:01:52Z</time>
   </trkpt>
   <trkpt lat="-3.1098680" lon="37.3581980">
    <ele>4166.0</ele>
    <time>2026-06-22T10:01:53Z</time>
   </trkpt>
   <trkpt lat="-3.1098650" lon="37.3582020">
    <ele>4166.1</ele>
    <time>2026-06-22T10:01:54Z</time>
   </trkpt>
   <trkpt lat="-3.1098650" lon="37.3582010">
    <ele>4166.1</ele>
    <time>2026-06-22T10:01:55Z</time>
   </trkpt>
   <trkpt lat="-3.1098640" lon="37.3581990">
    <ele>4166.2</ele>
    <time>2026-06-22T10:01:56Z</time>
   </trkpt>
   <trkpt lat="-3.1098610" lon="37.3581960">
    <ele>4166.3</ele>
    <time>2026-06-22T10:01:57Z</time>
   </trkpt>
   <trkpt lat="-3.1098600" lon="37.3581950">
    <ele>4166.3</ele>
    <time>2026-06-22T10:01:58Z</time>
   </trkpt>
   <trkpt lat="-3.1098580" lon="37.3581930">
    <ele>4166.4</ele>
    <time>2026-06-22T10:01:59Z</time>
   </trkpt>
   <trkpt lat="-3.1098550" lon="37.3581920">
    <ele>4166.5</ele>
    <time>2026-06-22T10:02:00Z</time>
   </trkpt>
   <trkpt lat="-3.1098530" lon="37.3581920">
    <ele>4166.5</ele>
    <time>2026-06-22T10:02:01Z</time>
   </trkpt>
   <trkpt lat="-3.1098510" lon="37.3581920">
    <ele>4166.6</ele>
    <time>2026-06-22T10:02:02Z</time>
   </trkpt>
   <trkpt lat="-3.1098470" lon="37.3581910">
    <ele>4166.7</ele>
    <time>2026-06-22T10:02:03Z</time>
   </trkpt>
   <trkpt lat="-3.1098430" lon="37.3581900">
    <ele>4166.8</ele>
    <time>2026-06-22T10:02:04Z</time>
   </trkpt>
   <trkpt lat="-3.1098420" lon="37.3581890">
    <ele>4166.8</ele>
    <time>2026-06-22T10:02:05Z</time>
   </trkpt>
   <trkpt lat="-3.1098350" lon="37.3581900">
    <ele>4167.0</ele>
    <time>2026-06-22T10:02:06Z</time>
   </trkpt>
   <trkpt lat="-3.1098330" lon="37.3581910">
    <ele>4167.0</ele>
    <time>2026-06-22T10:02:07Z</time>
   </trkpt>
   <trkpt lat="-3.1098280" lon="37.3581920">
    <ele>4167.1</ele>
    <time>2026-06-22T10:02:08Z</time>
   </trkpt>
   <trkpt lat="-3.1098280" lon="37.3581940">
    <ele>4167.2</ele>
    <time>2026-06-22T10:02:09Z</time>
   </trkpt>
   <trkpt lat="-3.1098270" lon="37.3581980">
    <ele>4167.3</ele>
    <time>2026-06-22T10:02:10Z</time>
   </trkpt>
   <trkpt lat="-3.1098270" lon="37.3582020">
    <ele>4167.4</ele>
    <time>2026-06-22T10:02:11Z</time>
   </trkpt>
   <trkpt lat="-3.1098260" lon="37.3582080">
    <ele>4167.5</ele>
    <time>2026-06-22T10:02:12Z</time>
   </trkpt>
   <trkpt lat="-3.1098260" lon="37.3582100">
    <ele>4167.6</ele>
    <time>2026-06-22T10:02:13Z</time>
   </trkpt>
   <trkpt lat="-3.1098280" lon="37.3582140">
    <ele>4167.7</ele>
    <time>2026-06-22T10:02:14Z</time>
   </trkpt>
   <trkpt lat="-3.1098280" lon="37.3582180">
    <ele>4167.8</ele>
    <time>2026-06-22T10:02:15Z</time>
   </trkpt>
   <trkpt lat="-3.1098270" lon="37.3582210">
    <ele>4167.9</ele>
    <time>2026-06-22T10:02:16Z</time>
   </trkpt>
   <trkpt lat="-3.1098260" lon="37.3582230">
    <ele>4167.9</ele>
    <time>2026-06-22T10:02:17Z</time>
   </trkpt>
   <trkpt lat="-3.1098270" lon="37.3582250">
    <ele>4168.0</ele>
    <time>2026-06-22T10:02:18Z</time>
   </trkpt>
   <trkpt lat="-3.1098260" lon="37.3582280">
    <ele>4168.0</ele>
    <time>2026-06-22T10:02:19Z</time>
   </trkpt>
   <trkpt lat="-3.1098270" lon="37.3582310">
    <ele>4168.1</ele>
    <time>2026-06-22T10:02:20Z</time>
   </trkpt>
   <trkpt lat="-3.1098290" lon="37.3582340">
    <ele>4168.2</ele>
    <time>2026-06-22T10:02:21Z</time>
   </trkpt>
   <trkpt lat="-3.1098280" lon="37.3582380">
    <ele>4168.3</ele>
    <time>2026-06-22T10:02:22Z</time>
   </trkpt>
   <trkpt lat="-3.1098290" lon="37.3582410">
    <ele>4168.4</ele>
    <time>2026-06-22T10:02:23Z</time>
   </trkpt>
   <trkpt lat="-3.1098270" lon="37.3582440">
    <ele>4168.5</ele>
    <time>2026-06-22T10:02:24Z</time>
   </trkpt>
   <trkpt lat="-3.1098270" lon="37.3582450">
    <ele>4168.5</ele>
    <time>2026-06-22T10:02:25Z</time>
   </trkpt>
   <trkpt lat="-3.1098250" lon="37.3582490">
    <ele>4168.6</ele>
    <time>2026-06-22T10:02:26Z</time>
   </trkpt>
   <trkpt lat="-3.1098280" lon="37.3582500">
    <ele>4168.7</ele>
    <time>2026-06-22T10:02:27Z</time>
   </trkpt>
   <trkpt lat="-3.1098300" lon="37.3582530">
    <ele>4168.7</ele>
    <time>2026-06-22T10:02:28Z</time>
   </trkpt>
   <trkpt lat="-3.1098280" lon="37.3582570">
    <ele>4168.8</ele>
    <time>2026-06-22T10:02:29Z</time>
   </trkpt>
   <trkpt lat="-3.1098290" lon="37.3582600">
    <ele>4168.9</ele>
    <time>2026-06-22T10:02:30Z</time>
   </trkpt>
   <trkpt lat="-3.1098290" lon="37.3582630">
    <ele>4169.0</ele>
    <time>2026-06-22T10:02:31Z</time>
   </trkpt>
   <trkpt lat="-3.1098290" lon="37.3582680">
    <ele>4169.1</ele>
    <time>2026-06-22T10:02:32Z</time>
   </trkpt>
   <trkpt lat="-3.1098310" lon="37.3582700">
    <ele>4169.2</ele>
    <time>2026-06-22T10:02:33Z</time>
   </trkpt>
   <trkpt lat="-3.1098290" lon="37.3582750">
    <ele>4169.3</ele>
    <time>2026-06-22T10:02:34Z</time>
   </trkpt>
   <trkpt lat="-3.1098290" lon="37.3582740">
    <ele>4169.3</ele>
    <time>2026-06-22T10:02:35Z</time>
   </trkpt>
   <trkpt lat="-3.1098270" lon="37.3582780">
    <ele>4169.4</ele>
    <time>2026-06-22T10:02:36Z</time>
   </trkpt>
   <trkpt lat="-3.1098270" lon="37.3582810">
    <ele>4169.5</ele>
    <time>2026-06-22T10:02:37Z</time>
   </trkpt>
   <trkpt lat="-3.1098250" lon="37.3582850">
    <ele>4169.6</ele>
    <time>2026-06-22T10:02:38Z</time>
   </trkpt>
   <trkpt lat="-3.1098250" lon="37.3582880">
    <ele>4169.7</ele>
    <time>2026-06-22T10:02:39Z</time>
   </trkpt>
   <trkpt lat="-3.1098210" lon="37.3582930">
    <ele>4169.8</ele>
    <time>2026-06-22T10:02:40Z</time>
   </trkpt>
   <trkpt lat="-3.1098200" lon="37.3582950">
    <ele>4169.9</ele>
    <time>2026-06-22T10:02:41Z</time>
   </trkpt>
   <trkpt lat="-3.1098220" lon="37.3582950">
    <ele>4169.9</ele>
    <time>2026-06-22T10:02:42Z</time>
   </trkpt>
   <trkpt lat="-3.1098180" lon="37.3582970">
    <ele>4170.0</ele>
    <time>2026-06-22T10:02:43Z</time>
   </trkpt>
   <trkpt lat="-3.1098180" lon="37.3583000">
    <ele>4170.1</ele>
    <time>2026-06-22T10:02:44Z</time>
   </trkpt>
   <trkpt lat="-3.1098190" lon="37.3583010">
    <ele>4170.1</ele>
    <time>2026-06-22T10:02:45Z</time>
   </trkpt>
   <trkpt lat="-3.1098170" lon="37.3583050">
    <ele>4170.2</ele>
    <time>2026-06-22T10:02:46Z</time>
   </trkpt>
   <trkpt lat="-3.1098160" lon="37.3583100">
    <ele>4170.4</ele>
    <time>2026-06-22T10:02:47Z</time>
   </trkpt>
   <trkpt lat="-3.1098170" lon="37.3583110">
    <ele>4170.4</ele>
    <time>2026-06-22T10:02:48Z</time>
   </trkpt>
   <trkpt lat="-3.1098140" lon="37.3583160">
    <ele>4170.5</ele>
    <time>2026-06-22T10:02:49Z</time>
   </trkpt>
   <trkpt lat="-3.1098150" lon="37.3583170">
    <ele>4170.5</ele>
    <time>2026-06-22T10:02:50Z</time>
   </trkpt>
   <trkpt lat="-3.1098160" lon="37.3583190">
    <ele>4170.6</ele>
    <time>2026-06-22T10:02:51Z</time>
   </trkpt>
   <trkpt lat="-3.1098160" lon="37.3583220">
    <ele>4170.7</ele>
    <time>2026-06-22T10:02:52Z</time>
   </trkpt>
   <trkpt lat="-3.1098200" lon="37.3583230">
    <ele>4170.8</ele>
    <time>2026-06-22T10:02:54Z</time>
   </trkpt>
   <trkpt lat="-3.1098220" lon="37.3583220">
    <ele>4170.8</ele>
    <time>2026-06-22T10:02:55Z</time>
   </trkpt>
   <trkpt lat="-3.1098230" lon="37.3583230">
    <ele>4170.8</ele>
    <time>2026-06-22T10:02:56Z</time>
   </trkpt>
   <trkpt lat="-3.1098250" lon="37.3583300">
    <ele>4171.0</ele>
    <time>2026-06-22T10:02:57Z</time>
   </trkpt>
   <trkpt lat="-3.1098270" lon="37.3583300">
    <ele>4171.1</ele>
    <time>2026-06-22T10:02:58Z</time>
   </trkpt>
   <trkpt lat="-3.1098270" lon="37.3583320">
    <ele>4171.1</ele>
    <time>2026-06-22T10:02:59Z</time>
   </trkpt>
   <trkpt lat="-3.1098290" lon="37.3583340">
    <ele>4171.2</ele>
    <time>2026-06-22T10:03:00Z</time>
   </trkpt>
   <trkpt lat="-3.1098270" lon="37.3583420">
    <ele>4171.4</ele>
    <time>2026-06-22T10:03:01Z</time>
   </trkpt>
   <trkpt lat="-3.1098300" lon="37.3583420">
    <ele>4171.4</ele>
    <time>2026-06-22T10:03:02Z</time>
   </trkpt>
   <trkpt lat="-3.1098290" lon="37.3583430">
    <ele>4171.5</ele>
    <time>2026-06-22T10:03:03Z</time>
   </trkpt>
   <trkpt lat="-3.1098270" lon="37.3583480">
    <ele>4171.6</ele>
    <time>2026-06-22T10:03:04Z</time>
   </trkpt>
   <trkpt lat="-3.1098220" lon="37.3583520">
    <ele>4171.7</ele>
    <time>2026-06-22T10:03:05Z</time>
   </trkpt>
   <trkpt lat="-3.1098190" lon="37.3583530">
    <ele>4171.8</ele>
    <time>2026-06-22T10:03:06Z</time>
   </trkpt>
   <trkpt lat="-3.1098190" lon="37.3583520">
    <ele>4171.8</ele>
    <time>2026-06-22T10:03:07Z</time>
   </trkpt>
   <trkpt lat="-3.1098160" lon="37.3583520">
    <ele>4171.9</ele>
    <time>2026-06-22T10:03:08Z</time>
   </trkpt>
   <trkpt lat="-3.1098160" lon="37.3583540">
    <ele>4171.9</ele>
    <time>2026-06-22T10:03:09Z</time>
   </trkpt>
   <trkpt lat="-3.1098140" lon="37.3583550">
    <ele>4172.0</ele>
    <time>2026-06-22T10:03:10Z</time>
   </trkpt>
   <trkpt lat="-3.1098130" lon="37.3583510">
    <ele>4172.1</ele>
    <time>2026-06-22T10:03:11Z</time>
   </trkpt>
   <trkpt lat="-3.1098100" lon="37.3583520">
    <ele>4172.1</ele>
    <time>2026-06-22T10:03:12Z</time>
   </trkpt>
   <trkpt lat="-3.1098040" lon="37.3583510">
    <ele>4172.3</ele>
    <time>2026-06-22T10:03:13Z</time>
   </trkpt>
   <trkpt lat="-3.1098000" lon="37.3583540">
    <ele>4172.4</ele>
    <time>2026-06-22T10:03:14Z</time>
   </trkpt>
   <trkpt lat="-3.1098030" lon="37.3583530">
    <ele>4172.5</ele>
    <time>2026-06-22T10:03:15Z</time>
   </trkpt>
   <trkpt lat="-3.1097990" lon="37.3583570">
    <ele>4172.6</ele>
    <time>2026-06-22T10:03:16Z</time>
   </trkpt>
   <trkpt lat="-3.1097980" lon="37.3583580">
    <ele>4172.6</ele>
    <time>2026-06-22T10:03:17Z</time>
   </trkpt>
   <trkpt lat="-3.1097980" lon="37.3583620">
    <ele>4172.7</ele>
    <time>2026-06-22T10:03:18Z</time>
   </trkpt>
   <trkpt lat="-3.1097920" lon="37.3583640">
    <ele>4172.9</ele>
    <time>2026-06-22T10:03:19Z</time>
   </trkpt>
   <trkpt lat="-3.1097890" lon="37.3583650">
    <ele>4172.9</ele>
    <time>2026-06-22T10:03:20Z</time>
   </trkpt>
   <trkpt lat="-3.1097850" lon="37.3583630">
    <ele>4173.0</ele>
    <time>2026-06-22T10:03:21Z</time>
   </trkpt>
   <trkpt lat="-3.1097860" lon="37.3583620">
    <ele>4173.1</ele>
    <time>2026-06-22T10:03:22Z</time>
   </trkpt>
   <trkpt lat="-3.1097830" lon="37.3583590">
    <ele>4173.2</ele>
    <time>2026-06-22T10:03:23Z</time>
   </trkpt>
   <trkpt lat="-3.1097830" lon="37.3583570">
    <ele>4173.2</ele>
    <time>2026-06-22T10:03:24Z</time>
   </trkpt>
   <trkpt lat="-3.1097780" lon="37.3583560">
    <ele>4173.3</ele>
    <time>2026-06-22T10:03:25Z</time>
   </trkpt>
   <trkpt lat="-3.1097760" lon="37.3583540">
    <ele>4173.4</ele>
    <time>2026-06-22T10:03:26Z</time>
   </trkpt>
   <trkpt lat="-3.1097710" lon="37.3583550">
    <ele>4173.5</ele>
    <time>2026-06-22T10:03:27Z</time>
   </trkpt>
   <trkpt lat="-3.1097660" lon="37.3583560">
    <ele>4173.6</ele>
    <time>2026-06-22T10:03:28Z</time>
   </trkpt>
   <trkpt lat="-3.1097680" lon="37.3583580">
    <ele>4173.7</ele>
    <time>2026-06-22T10:03:29Z</time>
   </trkpt>
   <trkpt lat="-3.1097650" lon="37.3583590">
    <ele>4173.8</ele>
    <time>2026-06-22T10:03:30Z</time>
   </trkpt>
   <trkpt lat="-3.1097650" lon="37.3583590">
    <ele>4173.8</ele>
    <time>2026-06-22T10:03:31Z</time>
   </trkpt>
   <trkpt lat="-3.1097640" lon="37.3583600">
    <ele>4173.8</ele>
    <time>2026-06-22T10:03:32Z</time>
   </trkpt>
   <trkpt lat="-3.1097640" lon="37.3583620">
    <ele>4173.8</ele>
    <time>2026-06-22T10:03:33Z</time>
   </trkpt>
   <trkpt lat="-3.1097620" lon="37.3583660">
    <ele>4173.9</ele>
    <time>2026-06-22T10:03:34Z</time>
   </trkpt>
   <trkpt lat="-3.1097640" lon="37.3583680">
    <ele>4174.0</ele>
    <time>2026-06-22T10:03:35Z</time>
   </trkpt>
   <trkpt lat="-3.1097620" lon="37.3583720">
    <ele>4174.1</ele>
    <time>2026-06-22T10:03:36Z</time>
   </trkpt>
   <trkpt lat="-3.1097640" lon="37.3583750">
    <ele>4174.2</ele>
    <time>2026-06-22T10:03:37Z</time>
   </trkpt>
   <trkpt lat="-3.1097630" lon="37.3583810">
    <ele>4174.3</ele>
    <time>2026-06-22T10:03:38Z</time>
   </trkpt>
   <trkpt lat="-3.1097630" lon="37.3583830">
    <ele>4174.4</ele>
    <time>2026-06-22T10:03:39Z</time>
   </trkpt>
   <trkpt lat="-3.1097610" lon="37.3583850">
    <ele>4174.4</ele>
    <time>2026-06-22T10:03:40Z</time>
   </trkpt>
   <trkpt lat="-3.1097620" lon="37.3583870">
    <ele>4174.5</ele>
    <time>2026-06-22T10:03:41Z</time>
   </trkpt>
   <trkpt lat="-3.1097510" lon="37.3583930">
    <ele>4174.8</ele>
    <time>2026-06-22T10:03:42Z</time>
   </trkpt>
   <trkpt lat="-3.1097530" lon="37.3583950">
    <ele>4174.8</ele>
    <time>2026-06-22T10:03:43Z</time>
   </trkpt>
   <trkpt lat="-3.1097530" lon="37.3583930">
    <ele>4174.9</ele>
    <time>2026-06-22T10:03:44Z</time>
   </trkpt>
   <trkpt lat="-3.1097520" lon="37.3583930">
    <ele>4174.9</ele>
    <time>2026-06-22T10:03:45Z</time>
   </trkpt>
   <trkpt lat="-3.1097500" lon="37.3583930">
    <ele>4175.0</ele>
    <time>2026-06-22T10:03:46Z</time>
   </trkpt>
   <trkpt lat="-3.1097460" lon="37.3584010">
    <ele>4175.2</ele>
    <time>2026-06-22T10:03:47Z</time>
   </trkpt>
   <trkpt lat="-3.1097460" lon="37.3584030">
    <ele>4175.2</ele>
    <time>2026-06-22T10:03:48Z</time>
   </trkpt>
   <trkpt lat="-3.1097470" lon="37.3584040">
    <ele>4175.2</ele>
    <time>2026-06-22T10:03:49Z</time>
   </trkpt>
   <trkpt lat="-3.1097450" lon="37.3584080">
    <ele>4175.3</ele>
    <time>2026-06-22T10:03:50Z</time>
   </trkpt>
   <trkpt lat="-3.1097470" lon="37.3584090">
    <ele>4175.4</ele>
    <time>2026-06-22T10:03:51Z</time>
   </trkpt>
   <trkpt lat="-3.1097460" lon="37.3584150">
    <ele>4175.5</ele>
    <time>2026-06-22T10:03:52Z</time>
   </trkpt>
   <trkpt lat="-3.1097450" lon="37.3584150">
    <ele>4175.6</ele>
    <time>2026-06-22T10:03:53Z</time>
   </trkpt>
   <trkpt lat="-3.1097460" lon="37.3584190">
    <ele>4175.6</ele>
    <time>2026-06-22T10:03:54Z</time>
   </trkpt>
   <trkpt lat="-3.1097450" lon="37.3584200">
    <ele>4175.7</ele>
    <time>2026-06-22T10:03:55Z</time>
   </trkpt>
   <trkpt lat="-3.1097440" lon="37.3584220">
    <ele>4175.7</ele>
    <time>2026-06-22T10:03:56Z</time>
   </trkpt>
   <trkpt lat="-3.1097420" lon="37.3584240">
    <ele>4175.8</ele>
    <time>2026-06-22T10:03:57Z</time>
   </trkpt>
   <trkpt lat="-3.1097400" lon="37.3584260">
    <ele>4175.9</ele>
    <time>2026-06-22T10:03:58Z</time>
   </trkpt>
   <trkpt lat="-3.1097370" lon="37.3584270">
    <ele>4175.9</ele>
    <time>2026-06-22T10:03:59Z</time>
   </trkpt>
   <trkpt lat="-3.1097340" lon="37.3584300">
    <ele>4176.0</ele>
    <time>2026-06-22T10:04:00Z</time>
   </trkpt>
   <trkpt lat="-3.1097320" lon="37.3584320">
    <ele>4176.1</ele>
    <time>2026-06-22T10:04:01Z</time>
   </trkpt>
   <trkpt lat="-3.1097320" lon="37.3584350">
    <ele>4176.2</ele>
    <time>2026-06-22T10:04:02Z</time>
   </trkpt>
   <trkpt lat="-3.1097310" lon="37.3584380">
    <ele>4176.2</ele>
    <time>2026-06-22T10:04:03Z</time>
   </trkpt>
   <trkpt lat="-3.1097310" lon="37.3584430">
    <ele>4176.3</ele>
    <time>2026-06-22T10:04:04Z</time>
   </trkpt>
   <trkpt lat="-3.1097310" lon="37.3584450">
    <ele>4176.4</ele>
    <time>2026-06-22T10:04:05Z</time>
   </trkpt>
   <trkpt lat="-3.1097330" lon="37.3584470">
    <ele>4176.5</ele>
    <time>2026-06-22T10:04:06Z</time>
   </trkpt>
   <trkpt lat="-3.1097330" lon="37.3584530">
    <ele>4176.6</ele>
    <time>2026-06-22T10:04:07Z</time>
   </trkpt>
   <trkpt lat="-3.1097360" lon="37.3584530">
    <ele>4176.7</ele>
    <time>2026-06-22T10:04:08Z</time>
   </trkpt>
   <trkpt lat="-3.1097350" lon="37.3584570">
    <ele>4176.8</ele>
    <time>2026-06-22T10:04:09Z</time>
   </trkpt>
   <trkpt lat="-3.1097360" lon="37.3584590">
    <ele>4176.8</ele>
    <time>2026-06-22T10:04:10Z</time>
   </trkpt>
   <trkpt lat="-3.1097340" lon="37.3584640">
    <ele>4176.9</ele>
    <time>2026-06-22T10:04:11Z</time>
   </trkpt>
   <trkpt lat="-3.1097340" lon="37.3584670">
    <ele>4177.0</ele>
    <time>2026-06-22T10:04:12Z</time>
   </trkpt>
   <trkpt lat="-3.1097330" lon="37.3584710">
    <ele>4177.1</ele>
    <time>2026-06-22T10:04:13Z</time>
   </trkpt>
   <trkpt lat="-3.1097330" lon="37.3584710">
    <ele>4177.1</ele>
    <time>2026-06-22T10:04:14Z</time>
   </trkpt>
   <trkpt lat="-3.1097310" lon="37.3584750">
    <ele>4177.2</ele>
    <time>2026-06-22T10:04:15Z</time>
   </trkpt>
   <trkpt lat="-3.1097280" lon="37.3584750">
    <ele>4177.3</ele>
    <time>2026-06-22T10:04:16Z</time>
   </trkpt>
   <trkpt lat="-3.1097260" lon="37.3584750">
    <ele>4177.3</ele>
    <time>2026-06-22T10:04:17Z</time>
   </trkpt>
   <trkpt lat="-3.1097240" lon="37.3584760">
    <ele>4177.4</ele>
    <time>2026-06-22T10:04:18Z</time>
   </trkpt>
   <trkpt lat="-3.1097230" lon="37.3584750">
    <ele>4177.4</ele>
    <time>2026-06-22T10:04:19Z</time>
   </trkpt>
   <trkpt lat="-3.1097180" lon="37.3584760">
    <ele>4177.5</ele>
    <time>2026-06-22T10:04:20Z</time>
   </trkpt>
   <trkpt lat="-3.1097190" lon="37.3584760">
    <ele>4177.5</ele>
    <time>2026-06-22T10:04:21Z</time>
   </trkpt>
   <trkpt lat="-3.1097120" lon="37.3584830">
    <ele>4177.8</ele>
    <time>2026-06-22T10:04:22Z</time>
   </trkpt>
   <trkpt lat="-3.1097130" lon="37.3584860">
    <ele>4177.8</ele>
    <time>2026-06-22T10:04:23Z</time>
   </trkpt>
   <trkpt lat="-3.1097120" lon="37.3584900">
    <ele>4177.9</ele>
    <time>2026-06-22T10:04:24Z</time>
   </trkpt>
   <trkpt lat="-3.1097140" lon="37.3584910">
    <ele>4178.0</ele>
    <time>2026-06-22T10:04:25Z</time>
   </trkpt>
   <trkpt lat="-3.1097150" lon="37.3584980">
    <ele>4178.1</ele>
    <time>2026-06-22T10:04:26Z</time>
   </trkpt>
   <trkpt lat="-3.1097170" lon="37.3584990">
    <ele>4178.2</ele>
    <time>2026-06-22T10:04:27Z</time>
   </trkpt>
   <trkpt lat="-3.1097160" lon="37.3585030">
    <ele>4178.3</ele>
    <time>2026-06-22T10:04:28Z</time>
   </trkpt>
   <trkpt lat="-3.1097150" lon="37.3585060">
    <ele>4178.4</ele>
    <time>2026-06-22T10:04:29Z</time>
   </trkpt>
   <trkpt lat="-3.1097140" lon="37.3585060">
    <ele>4178.4</ele>
    <time>2026-06-22T10:04:30Z</time>
   </trkpt>
   <trkpt lat="-3.1097120" lon="37.3585070">
    <ele>4178.4</ele>
    <time>2026-06-22T10:04:31Z</time>
   </trkpt>
   <trkpt lat="-3.1097090" lon="37.3585090">
    <ele>4178.5</ele>
    <time>2026-06-22T10:04:32Z</time>
   </trkpt>
   <trkpt lat="-3.1097080" lon="37.3585090">
    <ele>4178.5</ele>
    <time>2026-06-22T10:04:33Z</time>
   </trkpt>
   <trkpt lat="-3.1097060" lon="37.3585150">
    <ele>4178.7</ele>
    <time>2026-06-22T10:04:34Z</time>
   </trkpt>
   <trkpt lat="-3.1097050" lon="37.3585110">
    <ele>4178.8</ele>
    <time>2026-06-22T10:04:35Z</time>
   </trkpt>
   <trkpt lat="-3.1097030" lon="37.3585110">
    <ele>4178.8</ele>
    <time>2026-06-22T10:04:36Z</time>
   </trkpt>
   <trkpt lat="-3.1097030" lon="37.3585120">
    <ele>4178.9</ele>
    <time>2026-06-22T10:04:37Z</time>
   </trkpt>
   <trkpt lat="-3.1097000" lon="37.3585160">
    <ele>4179.0</ele>
    <time>2026-06-22T10:04:38Z</time>
   </trkpt>
   <trkpt lat="-3.1097000" lon="37.3585180">
    <ele>4179.0</ele>
    <time>2026-06-22T10:04:39Z</time>
   </trkpt>
   <trkpt lat="-3.1097000" lon="37.3585210">
    <ele>4179.1</ele>
    <time>2026-06-22T10:04:40Z</time>
   </trkpt>
   <trkpt lat="-3.1096990" lon="37.3585210">
    <ele>4179.1</ele>
    <time>2026-06-22T10:04:41Z</time>
   </trkpt>
   <trkpt lat="-3.1096950" lon="37.3585250">
    <ele>4179.2</ele>
    <time>2026-06-22T10:04:42Z</time>
   </trkpt>
   <trkpt lat="-3.1096940" lon="37.3585260">
    <ele>4179.3</ele>
    <time>2026-06-22T10:04:43Z</time>
   </trkpt>
   <trkpt lat="-3.1096920" lon="37.3585280">
    <ele>4179.3</ele>
    <time>2026-06-22T10:04:44Z</time>
   </trkpt>
   <trkpt lat="-3.1096910" lon="37.3585310">
    <ele>4179.4</ele>
    <time>2026-06-22T10:04:45Z</time>
   </trkpt>
   <trkpt lat="-3.1096890" lon="37.3585330">
    <ele>4179.5</ele>
    <time>2026-06-22T10:04:46Z</time>
   </trkpt>
   <trkpt lat="-3.1096870" lon="37.3585360">
    <ele>4179.6</ele>
    <time>2026-06-22T10:04:47Z</time>
   </trkpt>
   <trkpt lat="-3.1096860" lon="37.3585390">
    <ele>4179.6</ele>
    <time>2026-06-22T10:04:48Z</time>
   </trkpt>
   <trkpt lat="-3.1096850" lon="37.3585400">
    <ele>4179.7</ele>
    <time>2026-06-22T10:04:49Z</time>
   </trkpt>
   <trkpt lat="-3.1096850" lon="37.3585460">
    <ele>4179.8</ele>
    <time>2026-06-22T10:04:50Z</time>
   </trkpt>
   <trkpt lat="-3.1096850" lon="37.3585480">
    <ele>4179.9</ele>
    <time>2026-06-22T10:04:51Z</time>
   </trkpt>
   <trkpt lat="-3.1096850" lon="37.3585500">
    <ele>4179.9</ele>
    <time>2026-06-22T10:04:52Z</time>
   </trkpt>
   <trkpt lat="-3.1096830" lon="37.3585520">
    <ele>4180.0</ele>
    <time>2026-06-22T10:04:53Z</time>
   </trkpt>
   <trkpt lat="-3.1096830" lon="37.3585540">
    <ele>4180.0</ele>
    <time>2026-06-22T10:04:54Z</time>
   </trkpt>
   <trkpt lat="-3.1096800" lon="37.3585540">
    <ele>4180.1</ele>
    <time>2026-06-22T10:04:55Z</time>
   </trkpt>
   <trkpt lat="-3.1096780" lon="37.3585540">
    <ele>4180.1</ele>
    <time>2026-06-22T10:04:56Z</time>
   </trkpt>
   <trkpt lat="-3.1096740" lon="37.3585550">
    <ele>4180.2</ele>
    <time>2026-06-22T10:04:57Z</time>
   </trkpt>
   <trkpt lat="-3.1096720" lon="37.3585590">
    <ele>4180.4</ele>
    <time>2026-06-22T10:04:58Z</time>
   </trkpt>
   <trkpt lat="-3.1096710" lon="37.3585580">
    <ele>4180.4</ele>
    <time>2026-06-22T10:05:00Z</time>
   </trkpt>
   <trkpt lat="-3.1096710" lon="37.3585640">
    <ele>4180.5</ele>
    <time>2026-06-22T10:05:01Z</time>
   </trkpt>
   <trkpt lat="-3.1096710" lon="37.3585650">
    <ele>4180.5</ele>
    <time>2026-06-22T10:05:02Z</time>
   </trkpt>
   <trkpt lat="-3.1096710" lon="37.3585690">
    <ele>4180.6</ele>
    <time>2026-06-22T10:05:03Z</time>
   </trkpt>
   <trkpt lat="-3.1096730" lon="37.3585720">
    <ele>4180.7</ele>
    <time>2026-06-22T10:05:04Z</time>
   </trkpt>
   <trkpt lat="-3.1096710" lon="37.3585750">
    <ele>4180.8</ele>
    <time>2026-06-22T10:05:05Z</time>
   </trkpt>
   <trkpt lat="-3.1096690" lon="37.3585780">
    <ele>4180.9</ele>
    <time>2026-06-22T10:05:06Z</time>
   </trkpt>
   <trkpt lat="-3.1096680" lon="37.3585780">
    <ele>4180.9</ele>
    <time>2026-06-22T10:05:07Z</time>
   </trkpt>
   <trkpt lat="-3.1096660" lon="37.3585810">
    <ele>4181.0</ele>
    <time>2026-06-22T10:05:08Z</time>
   </trkpt>
   <trkpt lat="-3.1096640" lon="37.3585840">
    <ele>4181.1</ele>
    <time>2026-06-22T10:05:09Z</time>
   </trkpt>
   <trkpt lat="-3.1096610" lon="37.3585860">
    <ele>4181.2</ele>
    <time>2026-06-22T10:05:10Z</time>
   </trkpt>
   <trkpt lat="-3.1096610" lon="37.3585890">
    <ele>4181.2</ele>
    <time>2026-06-22T10:05:11Z</time>
   </trkpt>
   <trkpt lat="-3.1096600" lon="37.3585910">
    <ele>4181.3</ele>
    <time>2026-06-22T10:05:12Z</time>
   </trkpt>
   <trkpt lat="-3.1096590" lon="37.3585940">
    <ele>4181.4</ele>
    <time>2026-06-22T10:05:13Z</time>
   </trkpt>
   <trkpt lat="-3.1096580" lon="37.3585970">
    <ele>4181.4</ele>
    <time>2026-06-22T10:05:14Z</time>
   </trkpt>
   <trkpt lat="-3.1096590" lon="37.3585980">
    <ele>4181.5</ele>
    <time>2026-06-22T10:05:15Z</time>
   </trkpt>
   <trkpt lat="-3.1096600" lon="37.3585980">
    <ele>4181.5</ele>
    <time>2026-06-22T10:05:16Z</time>
   </trkpt>
   <trkpt lat="-3.1096600" lon="37.3586010">
    <ele>4181.6</ele>
    <time>2026-06-22T10:05:17Z</time>
   </trkpt>
   <trkpt lat="-3.1096600" lon="37.3586050">
    <ele>4181.7</ele>
    <time>2026-06-22T10:05:18Z</time>
   </trkpt>
   <trkpt lat="-3.1096590" lon="37.3586060">
    <ele>4181.7</ele>
    <time>2026-06-22T10:05:19Z</time>
   </trkpt>
   <trkpt lat="-3.1096600" lon="37.3586080">
    <ele>4181.8</ele>
    <time>2026-06-22T10:05:20Z</time>
   </trkpt>
   <trkpt lat="-3.1096600" lon="37.3586110">
    <ele>4181.8</ele>
    <time>2026-06-22T10:05:21Z</time>
   </trkpt>
   <trkpt lat="-3.1096580" lon="37.3586130">
    <ele>4181.9</ele>
    <time>2026-06-22T10:05:22Z</time>
   </trkpt>
   <trkpt lat="-3.1096580" lon="37.3586140">
    <ele>4181.9</ele>
    <time>2026-06-22T10:05:23Z</time>
   </trkpt>
   <trkpt lat="-3.1096550" lon="37.3586170">
    <ele>4182.0</ele>
    <time>2026-06-22T10:05:24Z</time>
   </trkpt>
   <trkpt lat="-3.1096520" lon="37.3586170">
    <ele>4182.1</ele>
    <time>2026-06-22T10:05:25Z</time>
   </trkpt>
   <trkpt lat="-3.1096500" lon="37.3586190">
    <ele>4182.2</ele>
    <time>2026-06-22T10:05:26Z</time>
   </trkpt>
   <trkpt lat="-3.1096480" lon="37.3586190">
    <ele>4182.2</ele>
    <time>2026-06-22T10:05:27Z</time>
   </trkpt>
   <trkpt lat="-3.1096460" lon="37.3586210">
    <ele>4182.3</ele>
    <time>2026-06-22T10:05:28Z</time>
   </trkpt>
   <trkpt lat="-3.1096450" lon="37.3586230">
    <ele>4182.3</ele>
    <time>2026-06-22T10:05:29Z</time>
   </trkpt>
   <trkpt lat="-3.1096440" lon="37.3586260">
    <ele>4182.4</ele>
    <time>2026-06-22T10:05:30Z</time>
   </trkpt>
   <trkpt lat="-3.1096440" lon="37.3586280">
    <ele>4182.4</ele>
    <time>2026-06-22T10:05:31Z</time>
   </trkpt>
   <trkpt lat="-3.1096410" lon="37.3586330">
    <ele>4182.6</ele>
    <time>2026-06-22T10:05:32Z</time>
   </trkpt>
   <trkpt lat="-3.1096410" lon="37.3586340">
    <ele>4182.6</ele>
    <time>2026-06-22T10:05:33Z</time>
   </trkpt>
   <trkpt lat="-3.1096380" lon="37.3586360">
    <ele>4182.7</ele>
    <time>2026-06-22T10:05:34Z</time>
   </trkpt>
   <trkpt lat="-3.1096390" lon="37.3586400">
    <ele>4182.8</ele>
    <time>2026-06-22T10:05:35Z</time>
   </trkpt>
   <trkpt lat="-3.1096380" lon="37.3586430">
    <ele>4182.9</ele>
    <time>2026-06-22T10:05:36Z</time>
   </trkpt>
   <trkpt lat="-3.1096390" lon="37.3586450">
    <ele>4182.9</ele>
    <time>2026-06-22T10:05:37Z</time>
   </trkpt>
   <trkpt lat="-3.1096380" lon="37.3586480">
    <ele>4183.0</ele>
    <time>2026-06-22T10:05:38Z</time>
   </trkpt>
   <trkpt lat="-3.1096390" lon="37.3586490">
    <ele>4183.0</ele>
    <time>2026-06-22T10:05:39Z</time>
   </trkpt>
   <trkpt lat="-3.1096370" lon="37.3586530">
    <ele>4183.1</ele>
    <time>2026-06-22T10:05:40Z</time>
   </trkpt>
   <trkpt lat="-3.1096360" lon="37.3586570">
    <ele>4183.2</ele>
    <time>2026-06-22T10:05:41Z</time>
   </trkpt>
   <trkpt lat="-3.1096340" lon="37.3586580">
    <ele>4183.3</ele>
    <time>2026-06-22T10:05:42Z</time>
   </trkpt>
   <trkpt lat="-3.1096310" lon="37.3586610">
    <ele>4183.4</ele>
    <time>2026-06-22T10:05:43Z</time>
   </trkpt>
   <trkpt lat="-3.1096280" lon="37.3586630">
    <ele>4183.5</ele>
    <time>2026-06-22T10:05:44Z</time>
   </trkpt>
   <trkpt lat="-3.1096260" lon="37.3586640">
    <ele>4183.5</ele>
    <time>2026-06-22T10:05:45Z</time>
   </trkpt>
   <trkpt lat="-3.1096230" lon="37.3586660">
    <ele>4183.6</ele>
    <time>2026-06-22T10:05:46Z</time>
   </trkpt>
   <trkpt lat="-3.1096220" lon="37.3586650">
    <ele>4183.7</ele>
    <time>2026-06-22T10:05:47Z</time>
   </trkpt>
   <trkpt lat="-3.1096140" lon="37.3586670">
    <ele>4183.9</ele>
    <time>2026-06-22T10:05:48Z</time>
   </trkpt>
   <trkpt lat="-3.1096110" lon="37.3586680">
    <ele>4183.9</ele>
    <time>2026-06-22T10:05:49Z</time>
   </trkpt>
   <trkpt lat="-3.1096090" lon="37.3586710">
    <ele>4184.0</ele>
    <time>2026-06-22T10:05:50Z</time>
   </trkpt>
   <trkpt lat="-3.1096070" lon="37.3586750">
    <ele>4184.1</ele>
    <time>2026-06-22T10:05:51Z</time>
   </trkpt>
   <trkpt lat="-3.1096070" lon="37.3586770">
    <ele>4184.2</ele>
    <time>2026-06-22T10:05:52Z</time>
   </trkpt>
   <trkpt lat="-3.1096070" lon="37.3586810">
    <ele>4184.3</ele>
    <time>2026-06-22T10:05:53Z</time>
   </trkpt>
   <trkpt lat="-3.1096080" lon="37.3586850">
    <ele>4184.4</ele>
    <time>2026-06-22T10:05:54Z</time>
   </trkpt>
   <trkpt lat="-3.1096080" lon="37.3586870">
    <ele>4184.4</ele>
    <time>2026-06-22T10:05:55Z</time>
   </trkpt>
   <trkpt lat="-3.1096090" lon="37.3586910">
    <ele>4184.5</ele>
    <time>2026-06-22T10:05:56Z</time>
   </trkpt>
   <trkpt lat="-3.1096100" lon="37.3586920">
    <ele>4184.6</ele>
    <time>2026-06-22T10:05:57Z</time>
   </trkpt>
   <trkpt lat="-3.1096100" lon="37.3586950">
    <ele>4184.6</ele>
    <time>2026-06-22T10:05:58Z</time>
   </trkpt>
   <trkpt lat="-3.1096120" lon="37.3586980">
    <ele>4184.7</ele>
    <time>2026-06-22T10:05:59Z</time>
   </trkpt>
   <trkpt lat="-3.1096140" lon="37.3587010">
    <ele>4184.8</ele>
    <time>2026-06-22T10:06:00Z</time>
   </trkpt>
   <trkpt lat="-3.1096140" lon="37.3587030">
    <ele>4184.9</ele>
    <time>2026-06-22T10:06:01Z</time>
   </trkpt>
   <trkpt lat="-3.1096140" lon="37.3587030">
    <ele>4184.9</ele>
    <time>2026-06-22T10:06:02Z</time>
   </trkpt>
   <trkpt lat="-3.1096110" lon="37.3587080">
    <ele>4185.0</ele>
    <time>2026-06-22T10:06:03Z</time>
   </trkpt>
   <trkpt lat="-3.1096110" lon="37.3587110">
    <ele>4185.1</ele>
    <time>2026-06-22T10:06:04Z</time>
   </trkpt>
   <trkpt lat="-3.1096090" lon="37.3587120">
    <ele>4185.1</ele>
    <time>2026-06-22T10:06:05Z</time>
   </trkpt>
   <trkpt lat="-3.1096070" lon="37.3587140">
    <ele>4185.2</ele>
    <time>2026-06-22T10:06:06Z</time>
   </trkpt>
   <trkpt lat="-3.1096030" lon="37.3587150">
    <ele>4185.3</ele>
    <time>2026-06-22T10:06:07Z</time>
   </trkpt>
   <trkpt lat="-3.1096030" lon="37.3587160">
    <ele>4185.3</ele>
    <time>2026-06-22T10:06:08Z</time>
   </trkpt>
   <trkpt lat="-3.1096020" lon="37.3587170">
    <ele>4185.3</ele>
    <time>2026-06-22T10:06:09Z</time>
   </trkpt>
   <trkpt lat="-3.1096010" lon="37.3587200">
    <ele>4185.4</ele>
    <time>2026-06-22T10:06:10Z</time>
   </trkpt>
   <trkpt lat="-3.1096000" lon="37.3587230">
    <ele>4185.5</ele>
    <time>2026-06-22T10:06:11Z</time>
   </trkpt>
   <trkpt lat="-3.1095980" lon="37.3587250">
    <ele>4185.6</ele>
    <time>2026-06-22T10:06:12Z</time>
   </trkpt>
   <trkpt lat="-3.1095980" lon="37.3587280">
    <ele>4185.6</ele>
    <time>2026-06-22T10:06:13Z</time>
   </trkpt>
   <trkpt lat="-3.1095980" lon="37.3587290">
    <ele>4185.7</ele>
    <time>2026-06-22T10:06:14Z</time>
   </trkpt>
   <trkpt lat="-3.1095970" lon="37.3587300">
    <ele>4185.7</ele>
    <time>2026-06-22T10:06:15Z</time>
   </trkpt>
   <trkpt lat="-3.1095960" lon="37.3587330">
    <ele>4185.8</ele>
    <time>2026-06-22T10:06:16Z</time>
   </trkpt>
   <trkpt lat="-3.1095970" lon="37.3587330">
    <ele>4185.8</ele>
    <time>2026-06-22T10:06:17Z</time>
   </trkpt>
   <trkpt lat="-3.1095950" lon="37.3587360">
    <ele>4185.9</ele>
    <time>2026-06-22T10:06:18Z</time>
   </trkpt>
   <trkpt lat="-3.1095940" lon="37.3587370">
    <ele>4185.9</ele>
    <time>2026-06-22T10:06:19Z</time>
   </trkpt>
   <trkpt lat="-3.1095920" lon="37.3587400">
    <ele>4186.0</ele>
    <time>2026-06-22T10:06:20Z</time>
   </trkpt>
   <trkpt lat="-3.1095910" lon="37.3587420">
    <ele>4186.1</ele>
    <time>2026-06-22T10:06:21Z</time>
   </trkpt>
   <trkpt lat="-3.1095900" lon="37.3587430">
    <ele>4186.1</ele>
    <time>2026-06-22T10:06:22Z</time>
   </trkpt>
   <trkpt lat="-3.1095880" lon="37.3587470">
    <ele>4186.2</ele>
    <time>2026-06-22T10:06:23Z</time>
   </trkpt>
   <trkpt lat="-3.1095880" lon="37.3587510">
    <ele>4186.3</ele>
    <time>2026-06-22T10:06:24Z</time>
   </trkpt>
   <trkpt lat="-3.1095860" lon="37.3587540">
    <ele>4186.4</ele>
    <time>2026-06-22T10:06:25Z</time>
   </trkpt>
   <trkpt lat="-3.1095850" lon="37.3587560">
    <ele>4186.4</ele>
    <time>2026-06-22T10:06:26Z</time>
   </trkpt>
   <trkpt lat="-3.1095820" lon="37.3587600">
    <ele>4186.6</ele>
    <time>2026-06-22T10:06:27Z</time>
   </trkpt>
   <trkpt lat="-3.1095800" lon="37.3587610">
    <ele>4186.6</ele>
    <time>2026-06-22T10:06:28Z</time>
   </trkpt>
   <trkpt lat="-3.1095780" lon="37.3587650">
    <ele>4186.7</ele>
    <time>2026-06-22T10:06:29Z</time>
   </trkpt>
   <trkpt lat="-3.1095760" lon="37.3587660">
    <ele>4186.8</ele>
    <time>2026-06-22T10:06:30Z</time>
   </trkpt>
   <trkpt lat="-3.1095750" lon="37.3587680">
    <ele>4186.8</ele>
    <time>2026-06-22T10:06:31Z</time>
   </trkpt>
   <trkpt lat="-3.1095730" lon="37.3587710">
    <ele>4186.9</ele>
    <time>2026-06-22T10:06:32Z</time>
   </trkpt>
   <trkpt lat="-3.1095720" lon="37.3587740">
    <ele>4187.0</ele>
    <time>2026-06-22T10:06:33Z</time>
   </trkpt>
   <trkpt lat="-3.1095700" lon="37.3587760">
    <ele>4187.1</ele>
    <time>2026-06-22T10:06:34Z</time>
   </trkpt>
   <trkpt lat="-3.1095690" lon="37.3587770">
    <ele>4187.1</ele>
    <time>2026-06-22T10:06:35Z</time>
   </trkpt>
   <trkpt lat="-3.1095640" lon="37.3587780">
    <ele>4187.2</ele>
    <time>2026-06-22T10:06:36Z</time>
   </trkpt>
   <trkpt lat="-3.1095610" lon="37.3587810">
    <ele>4187.3</ele>
    <time>2026-06-22T10:06:37Z</time>
   </trkpt>
   <trkpt lat="-3.1095610" lon="37.3587800">
    <ele>4187.3</ele>
    <time>2026-06-22T10:06:38Z</time>
   </trkpt>
   <trkpt lat="-3.1095600" lon="37.3587800">
    <ele>4187.4</ele>
    <time>2026-06-22T10:06:39Z</time>
   </trkpt>
   <trkpt lat="-3.1095600" lon="37.3587800">
    <ele>4187.4</ele>
    <time>2026-06-22T10:06:40Z</time>
   </trkpt>
   <trkpt lat="-3.1095570" lon="37.3587800">
    <ele>4187.4</ele>
    <time>2026-06-22T10:06:41Z</time>
   </trkpt>
   <trkpt lat="-3.1095540" lon="37.3587800">
    <ele>4187.5</ele>
    <time>2026-06-22T10:06:42Z</time>
   </trkpt>
   <trkpt lat="-3.1095490" lon="37.3587810">
    <ele>4187.6</ele>
    <time>2026-06-22T10:06:43Z</time>
   </trkpt>
   <trkpt lat="-3.1095470" lon="37.3587790">
    <ele>4187.7</ele>
    <time>2026-06-22T10:06:44Z</time>
   </trkpt>
   <trkpt lat="-3.1095450" lon="37.3587770">
    <ele>4187.8</ele>
    <time>2026-06-22T10:06:45Z</time>
   </trkpt>
   <trkpt lat="-3.1095430" lon="37.3587760">
    <ele>4187.8</ele>
    <time>2026-06-22T10:06:46Z</time>
   </trkpt>
   <trkpt lat="-3.1095390" lon="37.3587740">
    <ele>4187.9</ele>
    <time>2026-06-22T10:06:47Z</time>
   </trkpt>
   <trkpt lat="-3.1095350" lon="37.3587770">
    <ele>4188.1</ele>
    <time>2026-06-22T10:06:48Z</time>
   </trkpt>
   <trkpt lat="-3.1095320" lon="37.3587750">
    <ele>4188.1</ele>
    <time>2026-06-22T10:06:49Z</time>
   </trkpt>
   <trkpt lat="-3.1095300" lon="37.3587760">
    <ele>4188.2</ele>
    <time>2026-06-22T10:06:50Z</time>
   </trkpt>
   <trkpt lat="-3.1095260" lon="37.3587770">
    <ele>4188.3</ele>
    <time>2026-06-22T10:06:51Z</time>
   </trkpt>
   <trkpt lat="-3.1095220" lon="37.3587780">
    <ele>4188.4</ele>
    <time>2026-06-22T10:06:52Z</time>
   </trkpt>
   <trkpt lat="-3.1095210" lon="37.3587780">
    <ele>4188.4</ele>
    <time>2026-06-22T10:06:53Z</time>
   </trkpt>
   <trkpt lat="-3.1095190" lon="37.3587790">
    <ele>4188.5</ele>
    <time>2026-06-22T10:06:54Z</time>
   </trkpt>
   <trkpt lat="-3.1095160" lon="37.3587810">
    <ele>4188.6</ele>
    <time>2026-06-22T10:06:55Z</time>
   </trkpt>
   <trkpt lat="-3.1095140" lon="37.3587790">
    <ele>4188.6</ele>
    <time>2026-06-22T10:06:56Z</time>
   </trkpt>
   <trkpt lat="-3.1095120" lon="37.3587790">
    <ele>4188.7</ele>
    <time>2026-06-22T10:06:57Z</time>
   </trkpt>
   <trkpt lat="-3.1095110" lon="37.3587810">
    <ele>4188.7</ele>
    <time>2026-06-22T10:06:58Z</time>
   </trkpt>
   <trkpt lat="-3.1095080" lon="37.3587820">
    <ele>4188.8</ele>
    <time>2026-06-22T10:06:59Z</time>
   </trkpt>
   <trkpt lat="-3.1095060" lon="37.3587830">
    <ele>4188.9</ele>
    <time>2026-06-22T10:07:00Z</time>
   </trkpt>
   <trkpt lat="-3.1095020" lon="37.3587860">
    <ele>4189.0</ele>
    <time>2026-06-22T10:07:01Z</time>
   </trkpt>
   <trkpt lat="-3.1094990" lon="37.3587880">
    <ele>4189.1</ele>
    <time>2026-06-22T10:07:02Z</time>
   </trkpt>
   <trkpt lat="-3.1094980" lon="37.3587910">
    <ele>4189.1</ele>
    <time>2026-06-22T10:07:03Z</time>
   </trkpt>
   <trkpt lat="-3.1094970" lon="37.3587930">
    <ele>4189.2</ele>
    <time>2026-06-22T10:07:05Z</time>
   </trkpt>
   <trkpt lat="-3.1094960" lon="37.3587960">
    <ele>4189.3</ele>
    <time>2026-06-22T10:07:06Z</time>
   </trkpt>
   <trkpt lat="-3.1094970" lon="37.3587980">
    <ele>4189.3</ele>
    <time>2026-06-22T10:07:07Z</time>
   </trkpt>
   <trkpt lat="-3.1094960" lon="37.3588020">
    <ele>4189.4</ele>
    <time>2026-06-22T10:07:08Z</time>
   </trkpt>
   <trkpt lat="-3.1094960" lon="37.3588040">
    <ele>4189.5</ele>
    <time>2026-06-22T10:07:09Z</time>
   </trkpt>
   <trkpt lat="-3.1094960" lon="37.3588050">
    <ele>4189.5</ele>
    <time>2026-06-22T10:07:10Z</time>
   </trkpt>
   <trkpt lat="-3.1094930" lon="37.3588070">
    <ele>4189.6</ele>
    <time>2026-06-22T10:07:11Z</time>
   </trkpt>
   <trkpt lat="-3.1094920" lon="37.3588090">
    <ele>4189.6</ele>
    <time>2026-06-22T10:07:12Z</time>
   </trkpt>
   <trkpt lat="-3.1094900" lon="37.3588100">
    <ele>4189.7</ele>
    <time>2026-06-22T10:07:13Z</time>
   </trkpt>
   <trkpt lat="-3.1094900" lon="37.3588110">
    <ele>4189.7</ele>
    <time>2026-06-22T10:07:14Z</time>
   </trkpt>
   <trkpt lat="-3.1094890" lon="37.3588140">
    <ele>4189.8</ele>
    <time>2026-06-22T10:07:15Z</time>
   </trkpt>
   <trkpt lat="-3.1094880" lon="37.3588170">
    <ele>4189.9</ele>
    <time>2026-06-22T10:07:16Z</time>
   </trkpt>
   <trkpt lat="-3.1094880" lon="37.3588190">
    <ele>4189.9</ele>
    <time>2026-06-22T10:07:17Z</time>
   </trkpt>
   <trkpt lat="-3.1094870" lon="37.3588200">
    <ele>4190.0</ele>
    <time>2026-06-22T10:07:18Z</time>
   </trkpt>
   <trkpt lat="-3.1094890" lon="37.3588250">
    <ele>4190.1</ele>
    <time>2026-06-22T10:07:19Z</time>
   </trkpt>
   <trkpt lat="-3.1094880" lon="37.3588290">
    <ele>4190.2</ele>
    <time>2026-06-22T10:07:20Z</time>
   </trkpt>
   <trkpt lat="-3.1094910" lon="37.3588310">
    <ele>4190.3</ele>
    <time>2026-06-22T10:07:21Z</time>
   </trkpt>
   <trkpt lat="-3.1094910" lon="37.3588320">
    <ele>4190.3</ele>
    <time>2026-06-22T10:07:22Z</time>
   </trkpt>
   <trkpt lat="-3.1094910" lon="37.3588350">
    <ele>4190.4</ele>
    <time>2026-06-22T10:07:23Z</time>
   </trkpt>
   <trkpt lat="-3.1094930" lon="37.3588370">
    <ele>4190.4</ele>
    <time>2026-06-22T10:07:24Z</time>
   </trkpt>
   <trkpt lat="-3.1094950" lon="37.3588410">
    <ele>4190.5</ele>
    <time>2026-06-22T10:07:25Z</time>
   </trkpt>
   <trkpt lat="-3.1094980" lon="37.3588460">
    <ele>4190.7</ele>
    <time>2026-06-22T10:07:26Z</time>
   </trkpt>
   <trkpt lat="-3.1094980" lon="37.3588470">
    <ele>4190.7</ele>
    <time>2026-06-22T10:07:27Z</time>
   </trkpt>
   <trkpt lat="-3.1094990" lon="37.3588500">
    <ele>4190.8</ele>
    <time>2026-06-22T10:07:28Z</time>
   </trkpt>
   <trkpt lat="-3.1094990" lon="37.3588540">
    <ele>4190.9</ele>
    <time>2026-06-22T10:07:29Z</time>
   </trkpt>
   <trkpt lat="-3.1094970" lon="37.3588550">
    <ele>4190.9</ele>
    <time>2026-06-22T10:07:30Z</time>
   </trkpt>
   <trkpt lat="-3.1094970" lon="37.3588600">
    <ele>4191.1</ele>
    <time>2026-06-22T10:07:31Z</time>
   </trkpt>
   <trkpt lat="-3.1094960" lon="37.3588630">
    <ele>4191.1</ele>
    <time>2026-06-22T10:07:32Z</time>
   </trkpt>
   <trkpt lat="-3.1094970" lon="37.3588660">
    <ele>4191.2</ele>
    <time>2026-06-22T10:07:33Z</time>
   </trkpt>
   <trkpt lat="-3.1094960" lon="37.3588690">
    <ele>4191.3</ele>
    <time>2026-06-22T10:07:34Z</time>
   </trkpt>
   <trkpt lat="-3.1094960" lon="37.3588700">
    <ele>4191.3</ele>
    <time>2026-06-22T10:07:35Z</time>
   </trkpt>
   <trkpt lat="-3.1094940" lon="37.3588750">
    <ele>4191.4</ele>
    <time>2026-06-22T10:07:36Z</time>
   </trkpt>
   <trkpt lat="-3.1094930" lon="37.3588770">
    <ele>4191.5</ele>
    <time>2026-06-22T10:07:37Z</time>
   </trkpt>
   <trkpt lat="-3.1094920" lon="37.3588790">
    <ele>4191.5</ele>
    <time>2026-06-22T10:07:38Z</time>
   </trkpt>
   <trkpt lat="-3.1094910" lon="37.3588830">
    <ele>4191.6</ele>
    <time>2026-06-22T10:07:39Z</time>
   </trkpt>
   <trkpt lat="-3.1094890" lon="37.3588850">
    <ele>4191.7</ele>
    <time>2026-06-22T10:07:40Z</time>
   </trkpt>
   <trkpt lat="-3.1094880" lon="37.3588870">
    <ele>4191.8</ele>
    <time>2026-06-22T10:07:41Z</time>
   </trkpt>
   <trkpt lat="-3.1094830" lon="37.3588890">
    <ele>4191.9</ele>
    <time>2026-06-22T10:07:42Z</time>
   </trkpt>
   <trkpt lat="-3.1094810" lon="37.3588910">
    <ele>4192.0</ele>
    <time>2026-06-22T10:07:43Z</time>
   </trkpt>
   <trkpt lat="-3.1094810" lon="37.3588920">
    <ele>4192.0</ele>
    <time>2026-06-22T10:07:44Z</time>
   </trkpt>
   <trkpt lat="-3.1094790" lon="37.3588950">
    <ele>4192.1</ele>
    <time>2026-06-22T10:07:45Z</time>
   </trkpt>
   <trkpt lat="-3.1094750" lon="37.3588970">
    <ele>4192.2</ele>
    <time>2026-06-22T10:07:46Z</time>
   </trkpt>
   <trkpt lat="-3.1094740" lon="37.3589000">
    <ele>4192.3</ele>
    <time>2026-06-22T10:07:47Z</time>
   </trkpt>
   <trkpt lat="-3.1094750" lon="37.3589030">
    <ele>4192.3</ele>
    <time>2026-06-22T10:07:48Z</time>
   </trkpt>
   <trkpt lat="-3.1094740" lon="37.3589070">
    <ele>4192.4</ele>
    <time>2026-06-22T10:07:49Z</time>
   </trkpt>
   <trkpt lat="-3.1094730" lon="37.3589100">
    <ele>4192.5</ele>
    <time>2026-06-22T10:07:50Z</time>
   </trkpt>
   <trkpt lat="-3.1094720" lon="37.3589100">
    <ele>4192.5</ele>
    <time>2026-06-22T10:07:51Z</time>
   </trkpt>
   <trkpt lat="-3.1094710" lon="37.3589120">
    <ele>4192.6</ele>
    <time>2026-06-22T10:07:52Z</time>
   </trkpt>
   <trkpt lat="-3.1094660" lon="37.3589140">
    <ele>4192.7</ele>
    <time>2026-06-22T10:07:53Z</time>
   </trkpt>
   <trkpt lat="-3.1094620" lon="37.3589140">
    <ele>4192.8</ele>
    <time>2026-06-22T10:07:54Z</time>
   </trkpt>
   <trkpt lat="-3.1094590" lon="37.3589120">
    <ele>4192.9</ele>
    <time>2026-06-22T10:07:55Z</time>
   </trkpt>
   <trkpt lat="-3.1094580" lon="37.3589130">
    <ele>4192.9</ele>
    <time>2026-06-22T10:07:56Z</time>
   </trkpt>
   <trkpt lat="-3.1094560" lon="37.3589100">
    <ele>4193.0</ele>
    <time>2026-06-22T10:07:57Z</time>
   </trkpt>
   <trkpt lat="-3.1094540" lon="37.3589100">
    <ele>4193.1</ele>
    <time>2026-06-22T10:07:58Z</time>
   </trkpt>
   <trkpt lat="-3.1094500" lon="37.3589090">
    <ele>4193.2</ele>
    <time>2026-06-22T10:07:59Z</time>
   </trkpt>
   <trkpt lat="-3.1094460" lon="37.3589100">
    <ele>4193.3</ele>
    <time>2026-06-22T10:08:00Z</time>
   </trkpt>
   <trkpt lat="-3.1094430" lon="37.3589130">
    <ele>4193.4</ele>
    <time>2026-06-22T10:08:01Z</time>
   </trkpt>
   <trkpt lat="-3.1094400" lon="37.3589160">
    <ele>4193.5</ele>
    <time>2026-06-22T10:08:02Z</time>
   </trkpt>
   <trkpt lat="-3.1094380" lon="37.3589230">
    <ele>4193.7</ele>
    <time>2026-06-22T10:08:03Z</time>
   </trkpt>
   <trkpt lat="-3.1094410" lon="37.3589250">
    <ele>4193.7</ele>
    <time>2026-06-22T10:08:04Z</time>
   </trkpt>
   <trkpt lat="-3.1094420" lon="37.3589280">
    <ele>4193.8</ele>
    <time>2026-06-22T10:08:05Z</time>
   </trkpt>
   <trkpt lat="-3.1094430" lon="37.3589310">
    <ele>4193.9</ele>
    <time>2026-06-22T10:08:06Z</time>
   </trkpt>
   <trkpt lat="-3.1094420" lon="37.3589330">
    <ele>4193.9</ele>
    <time>2026-06-22T10:08:07Z</time>
   </trkpt>
   <trkpt lat="-3.1094450" lon="37.3589360">
    <ele>4194.1</ele>
    <time>2026-06-22T10:08:08Z</time>
   </trkpt>
   <trkpt lat="-3.1094480" lon="37.3589370">
    <ele>4194.1</ele>
    <time>2026-06-22T10:08:09Z</time>
   </trkpt>
   <trkpt lat="-3.1094490" lon="37.3589430">
    <ele>4194.3</ele>
    <time>2026-06-22T10:08:10Z</time>
   </trkpt>
   <trkpt lat="-3.1094520" lon="37.3589430">
    <ele>4194.3</ele>
    <time>2026-06-22T10:08:11Z</time>
   </trkpt>
   <trkpt lat="-3.1094510" lon="37.3589440">
    <ele>4194.4</ele>
    <time>2026-06-22T10:08:12Z</time>
   </trkpt>
   <trkpt lat="-3.1094510" lon="37.3589480">
    <ele>4194.5</ele>
    <time>2026-06-22T10:08:13Z</time>
   </trkpt>
   <trkpt lat="-3.1094500" lon="37.3589490">
    <ele>4194.5</ele>
    <time>2026-06-22T10:08:14Z</time>
   </trkpt>
   <trkpt lat="-3.1094500" lon="37.3589540">
    <ele>4194.6</ele>
    <time>2026-06-22T10:08:15Z</time>
   </trkpt>
   <trkpt lat="-3.1094520" lon="37.3589570">
    <ele>4194.7</ele>
    <time>2026-06-22T10:08:16Z</time>
   </trkpt>
   <trkpt lat="-3.1094490" lon="37.3589590">
    <ele>4194.8</ele>
    <time>2026-06-22T10:08:17Z</time>
   </trkpt>
   <trkpt lat="-3.1094500" lon="37.3589610">
    <ele>4194.9</ele>
    <time>2026-06-22T10:08:18Z</time>
   </trkpt>
   <trkpt lat="-3.1094500" lon="37.3589660">
    <ele>4195.0</ele>
    <time>2026-06-22T10:08:19Z</time>
   </trkpt>
   <trkpt lat="-3.1094490" lon="37.3589670">
    <ele>4195.0</ele>
    <time>2026-06-22T10:08:20Z</time>
   </trkpt>
   <trkpt lat="-3.1094490" lon="37.3589740">
    <ele>4195.2</ele>
    <time>2026-06-22T10:08:21Z</time>
   </trkpt>
   <trkpt lat="-3.1094470" lon="37.3589780">
    <ele>4195.3</ele>
    <time>2026-06-22T10:08:22Z</time>
   </trkpt>
   <trkpt lat="-3.1094470" lon="37.3589810">
    <ele>4195.4</ele>
    <time>2026-06-22T10:08:23Z</time>
   </trkpt>
   <trkpt lat="-3.1094470" lon="37.3589830">
    <ele>4195.4</ele>
    <time>2026-06-22T10:08:24Z</time>
   </trkpt>
   <trkpt lat="-3.1094460" lon="37.3589870">
    <ele>4195.5</ele>
    <time>2026-06-22T10:08:25Z</time>
   </trkpt>
   <trkpt lat="-3.1094480" lon="37.3589900">
    <ele>4195.6</ele>
    <time>2026-06-22T10:08:26Z</time>
   </trkpt>
   <trkpt lat="-3.1094460" lon="37.3589930">
    <ele>4195.7</ele>
    <time>2026-06-22T10:08:27Z</time>
   </trkpt>
   <trkpt lat="-3.1094450" lon="37.3589960">
    <ele>4195.8</ele>
    <time>2026-06-22T10:08:28Z</time>
   </trkpt>
   <trkpt lat="-3.1094460" lon="37.3589960">
    <ele>4195.8</ele>
    <time>2026-06-22T10:08:29Z</time>
   </trkpt>
   <trkpt lat="-3.1094440" lon="37.3589970">
    <ele>4195.8</ele>
    <time>2026-06-22T10:08:30Z</time>
   </trkpt>
   <trkpt lat="-3.1094440" lon="37.3590000">
    <ele>4195.9</ele>
    <time>2026-06-22T10:08:31Z</time>
   </trkpt>
   <trkpt lat="-3.1094430" lon="37.3590060">
    <ele>4196.1</ele>
    <time>2026-06-22T10:08:32Z</time>
   </trkpt>
   <trkpt lat="-3.1094420" lon="37.3590040">
    <ele>4196.1</ele>
    <time>2026-06-22T10:08:33Z</time>
   </trkpt>
   <trkpt lat="-3.1094400" lon="37.3590080">
    <ele>4196.2</ele>
    <time>2026-06-22T10:08:34Z</time>
   </trkpt>
   <trkpt lat="-3.1094390" lon="37.3590100">
    <ele>4196.3</ele>
    <time>2026-06-22T10:08:35Z</time>
   </trkpt>
   <trkpt lat="-3.1094370" lon="37.3590160">
    <ele>4196.4</ele>
    <time>2026-06-22T10:08:36Z</time>
   </trkpt>
   <trkpt lat="-3.1094370" lon="37.3590180">
    <ele>4196.5</ele>
    <time>2026-06-22T10:08:37Z</time>
   </trkpt>
   <trkpt lat="-3.1094360" lon="37.3590220">
    <ele>4196.6</ele>
    <time>2026-06-22T10:08:38Z</time>
   </trkpt>
   <trkpt lat="-3.1094350" lon="37.3590250">
    <ele>4196.7</ele>
    <time>2026-06-22T10:08:39Z</time>
   </trkpt>
   <trkpt lat="-3.1094330" lon="37.3590280">
    <ele>4196.7</ele>
    <time>2026-06-22T10:08:40Z</time>
   </trkpt>
   <trkpt lat="-3.1094320" lon="37.3590310">
    <ele>4196.8</ele>
    <time>2026-06-22T10:08:41Z</time>
   </trkpt>
   <trkpt lat="-3.1094290" lon="37.3590360">
    <ele>4197.0</ele>
    <time>2026-06-22T10:08:42Z</time>
   </trkpt>
   <trkpt lat="-3.1094270" lon="37.3590370">
    <ele>4197.0</ele>
    <time>2026-06-22T10:08:43Z</time>
   </trkpt>
   <trkpt lat="-3.1094250" lon="37.3590400">
    <ele>4197.1</ele>
    <time>2026-06-22T10:08:44Z</time>
   </trkpt>
   <trkpt lat="-3.1094250" lon="37.3590400">
    <ele>4197.1</ele>
    <time>2026-06-22T10:08:45Z</time>
   </trkpt>
   <trkpt lat="-3.1094230" lon="37.3590430">
    <ele>4197.2</ele>
    <time>2026-06-22T10:08:46Z</time>
   </trkpt>
   <trkpt lat="-3.1094200" lon="37.3590480">
    <ele>4197.3</ele>
    <time>2026-06-22T10:08:47Z</time>
   </trkpt>
   <trkpt lat="-3.1094170" lon="37.3590520">
    <ele>4197.4</ele>
    <time>2026-06-22T10:08:48Z</time>
   </trkpt>
   <trkpt lat="-3.1094160" lon="37.3590570">
    <ele>4197.6</ele>
    <time>2026-06-22T10:08:49Z</time>
   </trkpt>
   <trkpt lat="-3.1094160" lon="37.3590590">
    <ele>4197.6</ele>
    <time>2026-06-22T10:08:50Z</time>
   </trkpt>
   <trkpt lat="-3.1094170" lon="37.3590620">
    <ele>4197.7</ele>
    <time>2026-06-22T10:08:51Z</time>
   </trkpt>
   <trkpt lat="-3.1094190" lon="37.3590640">
    <ele>4197.8</ele>
    <time>2026-06-22T10:08:52Z</time>
   </trkpt>
   <trkpt lat="-3.1094210" lon="37.3590700">
    <ele>4197.9</ele>
    <time>2026-06-22T10:08:53Z</time>
   </trkpt>
   <trkpt lat="-3.1094170" lon="37.3590710">
    <ele>4198.0</ele>
    <time>2026-06-22T10:08:54Z</time>
   </trkpt>
   <trkpt lat="-3.1094170" lon="37.3590730">
    <ele>4198.1</ele>
    <time>2026-06-22T10:08:55Z</time>
   </trkpt>
   <trkpt lat="-3.1094140" lon="37.3590790">
    <ele>4198.2</ele>
    <time>2026-06-22T10:08:56Z</time>
   </trkpt>
   <trkpt lat="-3.1094140" lon="37.3590800">
    <ele>4198.2</ele>
    <time>2026-06-22T10:08:57Z</time>
   </trkpt>
   <trkpt lat="-3.1094130" lon="37.3590830">
    <ele>4198.3</ele>
    <time>2026-06-22T10:08:58Z</time>
   </trkpt>
   <trkpt lat="-3.1094110" lon="37.3590860">
    <ele>4198.4</ele>
    <time>2026-06-22T10:08:59Z</time>
   </trkpt>
   <trkpt lat="-3.1094100" lon="37.3590870">
    <ele>4198.4</ele>
    <time>2026-06-22T10:09:00Z</time>
   </trkpt>
   <trkpt lat="-3.1094070" lon="37.3590940">
    <ele>4198.6</ele>
    <time>2026-06-22T10:09:01Z</time>
   </trkpt>
   <trkpt lat="-3.1094080" lon="37.3590940">
    <ele>4198.7</ele>
    <time>2026-06-22T10:09:02Z</time>
   </trkpt>
   <trkpt lat="-3.1094070" lon="37.3590970">
    <ele>4198.7</ele>
    <time>2026-06-22T10:09:03Z</time>
   </trkpt>
   <trkpt lat="-3.1094070" lon="37.3590990">
    <ele>4198.8</ele>
    <time>2026-06-22T10:09:04Z</time>
   </trkpt>
   <trkpt lat="-3.1094080" lon="37.3591010">
    <ele>4198.8</ele>
    <time>2026-06-22T10:09:05Z</time>
   </trkpt>
   <trkpt lat="-3.1094070" lon="37.3591050">
    <ele>4198.9</ele>
    <time>2026-06-22T10:09:06Z</time>
   </trkpt>
   <trkpt lat="-3.1094060" lon="37.3591080">
    <ele>4199.0</ele>
    <time>2026-06-22T10:09:07Z</time>
   </trkpt>
   <trkpt lat="-3.1094050" lon="37.3591100">
    <ele>4199.1</ele>
    <time>2026-06-22T10:09:08Z</time>
   </trkpt>
   <trkpt lat="-3.1094050" lon="37.3591140">
    <ele>4199.2</ele>
    <time>2026-06-22T10:09:09Z</time>
   </trkpt>
   <trkpt lat="-3.1094070" lon="37.3591120">
    <ele>4199.2</ele>
    <time>2026-06-22T10:09:11Z</time>
   </trkpt>
   <trkpt lat="-3.1094050" lon="37.3591160">
    <ele>4199.3</ele>
    <time>2026-06-22T10:09:12Z</time>
   </trkpt>
   <trkpt lat="-3.1094020" lon="37.3591190">
    <ele>4199.4</ele>
    <time>2026-06-22T10:09:13Z</time>
   </trkpt>
   <trkpt lat="-3.1094010" lon="37.3591240">
    <ele>4199.6</ele>
    <time>2026-06-22T10:09:14Z</time>
   </trkpt>
   <trkpt lat="-3.1093990" lon="37.3591260">
    <ele>4199.6</ele>
    <time>2026-06-22T10:09:15Z</time>
   </trkpt>
   <trkpt lat="-3.1094000" lon="37.3591300">
    <ele>4199.7</ele>
    <time>2026-06-22T10:09:16Z</time>
   </trkpt>
   <trkpt lat="-3.1093980" lon="37.3591370">
    <ele>4199.9</ele>
    <time>2026-06-22T10:09:17Z</time>
   </trkpt>
   <trkpt lat="-3.1093970" lon="37.3591400">
    <ele>4200.0</ele>
    <time>2026-06-22T10:09:18Z</time>
   </trkpt>
   <trkpt lat="-3.1093960" lon="37.3591420">
    <ele>4200.0</ele>
    <time>2026-06-22T10:09:19Z</time>
   </trkpt>
   <trkpt lat="-3.1093960" lon="37.3591440">
    <ele>4200.1</ele>
    <time>2026-06-22T10:09:20Z</time>
   </trkpt>
   <trkpt lat="-3.1093950" lon="37.3591480">
    <ele>4200.2</ele>
    <time>2026-06-22T10:09:21Z</time>
   </trkpt>
   <trkpt lat="-3.1093950" lon="37.3591510">
    <ele>4200.3</ele>
    <time>2026-06-22T10:09:22Z</time>
   </trkpt>
   <trkpt lat="-3.1093940" lon="37.3591510">
    <ele>4200.3</ele>
    <time>2026-06-22T10:09:23Z</time>
   </trkpt>
   <trkpt lat="-3.1093930" lon="37.3591520">
    <ele>4200.3</ele>
    <time>2026-06-22T10:09:24Z</time>
   </trkpt>
   <trkpt lat="-3.1093890" lon="37.3591550">
    <ele>4200.4</ele>
    <time>2026-06-22T10:09:25Z</time>
   </trkpt>
   <trkpt lat="-3.1093860" lon="37.3591580">
    <ele>4200.6</ele>
    <time>2026-06-22T10:09:26Z</time>
   </trkpt>
   <trkpt lat="-3.1093830" lon="37.3591580">
    <ele>4200.6</ele>
    <time>2026-06-22T10:09:27Z</time>
   </trkpt>
   <trkpt lat="-3.1093810" lon="37.3591600">
    <ele>4200.7</ele>
    <time>2026-06-22T10:09:28Z</time>
   </trkpt>
   <trkpt lat="-3.1093790" lon="37.3591610">
    <ele>4200.8</ele>
    <time>2026-06-22T10:09:29Z</time>
   </trkpt>
   <trkpt lat="-3.1093770" lon="37.3591610">
    <ele>4200.8</ele>
    <time>2026-06-22T10:09:30Z</time>
   </trkpt>
   <trkpt lat="-3.1093770" lon="37.3591650">
    <ele>4200.9</ele>
    <time>2026-06-22T10:09:31Z</time>
   </trkpt>
   <trkpt lat="-3.1093750" lon="37.3591690">
    <ele>4201.0</ele>
    <time>2026-06-22T10:09:32Z</time>
   </trkpt>
   <trkpt lat="-3.1093760" lon="37.3591710">
    <ele>4201.1</ele>
    <time>2026-06-22T10:09:33Z</time>
   </trkpt>
   <trkpt lat="-3.1093740" lon="37.3591770">
    <ele>4201.2</ele>
    <time>2026-06-22T10:09:34Z</time>
   </trkpt>
   <trkpt lat="-3.1093750" lon="37.3591790">
    <ele>4201.3</ele>
    <time>2026-06-22T10:09:35Z</time>
   </trkpt>
   <trkpt lat="-3.1093740" lon="37.3591840">
    <ele>4201.4</ele>
    <time>2026-06-22T10:09:36Z</time>
   </trkpt>
   <trkpt lat="-3.1093720" lon="37.3591860">
    <ele>4201.5</ele>
    <time>2026-06-22T10:09:37Z</time>
   </trkpt>
   <trkpt lat="-3.1093700" lon="37.3591880">
    <ele>4201.5</ele>
    <time>2026-06-22T10:09:38Z</time>
   </trkpt>
   <trkpt lat="-3.1093660" lon="37.3591920">
    <ele>4201.7</ele>
    <time>2026-06-22T10:09:39Z</time>
   </trkpt>
   <trkpt lat="-3.1093640" lon="37.3591940">
    <ele>4201.7</ele>
    <time>2026-06-22T10:09:40Z</time>
   </trkpt>
   <trkpt lat="-3.1093610" lon="37.3591970">
    <ele>4201.9</ele>
    <time>2026-06-22T10:09:41Z</time>
   </trkpt>
   <trkpt lat="-3.1093600" lon="37.3591990">
    <ele>4201.9</ele>
    <time>2026-06-22T10:09:42Z</time>
   </trkpt>
   <trkpt lat="-3.1093590" lon="37.3592030">
    <ele>4202.0</ele>
    <time>2026-06-22T10:09:43Z</time>
   </trkpt>
   <trkpt lat="-3.1093550" lon="37.3592060">
    <ele>4202.1</ele>
    <time>2026-06-22T10:09:44Z</time>
   </trkpt>
   <trkpt lat="-3.1093480" lon="37.3592050">
    <ele>4202.3</ele>
    <time>2026-06-22T10:09:45Z</time>
   </trkpt>
   <trkpt lat="-3.1093460" lon="37.3592050">
    <ele>4202.4</ele>
    <time>2026-06-22T10:09:46Z</time>
   </trkpt>
   <trkpt lat="-3.1093420" lon="37.3592060">
    <ele>4202.5</ele>
    <time>2026-06-22T10:09:47Z</time>
   </trkpt>
   <trkpt lat="-3.1093420" lon="37.3592100">
    <ele>4202.6</ele>
    <time>2026-06-22T10:09:48Z</time>
   </trkpt>
   <trkpt lat="-3.1093420" lon="37.3592130">
    <ele>4202.6</ele>
    <time>2026-06-22T10:09:49Z</time>
   </trkpt>
   <trkpt lat="-3.1093410" lon="37.3592170">
    <ele>4202.7</ele>
    <time>2026-06-22T10:09:50Z</time>
   </trkpt>
   <trkpt lat="-3.1093390" lon="37.3592210">
    <ele>4202.9</ele>
    <time>2026-06-22T10:09:51Z</time>
   </trkpt>
   <trkpt lat="-3.1093380" lon="37.3592240">
    <ele>4202.9</ele>
    <time>2026-06-22T10:09:52Z</time>
   </trkpt>
   <trkpt lat="-3.1093370" lon="37.3592260">
    <ele>4203.0</ele>
    <time>2026-06-22T10:09:53Z</time>
   </trkpt>
   <trkpt lat="-3.1093340" lon="37.3592290">
    <ele>4203.1</ele>
    <time>2026-06-22T10:09:54Z</time>
   </trkpt>
   <trkpt lat="-3.1093340" lon="37.3592320">
    <ele>4203.2</ele>
    <time>2026-06-22T10:09:55Z</time>
   </trkpt>
   <trkpt lat="-3.1093300" lon="37.3592340">
    <ele>4203.3</ele>
    <time>2026-06-22T10:09:56Z</time>
   </trkpt>
   <trkpt lat="-3.1093290" lon="37.3592370">
    <ele>4203.4</ele>
    <time>2026-06-22T10:09:57Z</time>
   </trkpt>
   <trkpt lat="-3.1093290" lon="37.3592390">
    <ele>4203.4</ele>
    <time>2026-06-22T10:09:58Z</time>
   </trkpt>
   <trkpt lat="-3.1093260" lon="37.3592450">
    <ele>4203.6</ele>
    <time>2026-06-22T10:09:59Z</time>
   </trkpt>
   <trkpt lat="-3.1093230" lon="37.3592480">
    <ele>4203.7</ele>
    <time>2026-06-22T10:10:00Z</time>
   </trkpt>
   <trkpt lat="-3.1093240" lon="37.3592500">
    <ele>4203.8</ele>
    <time>2026-06-22T10:10:01Z</time>
   </trkpt>
   <trkpt lat="-3.1093210" lon="37.3592520">
    <ele>4203.8</ele>
    <time>2026-06-22T10:10:02Z</time>
   </trkpt>
   <trkpt lat="-3.1093190" lon="37.3592550">
    <ele>4203.9</ele>
    <time>2026-06-22T10:10:03Z</time>
   </trkpt>
   <trkpt lat="-3.1093200" lon="37.3592550">
    <ele>4204.0</ele>
    <time>2026-06-22T10:10:04Z</time>
   </trkpt>
   <trkpt lat="-3.1093160" lon="37.3592570">
    <ele>4204.1</ele>
    <time>2026-06-22T10:10:05Z</time>
   </trkpt>
   <trkpt lat="-3.1093140" lon="37.3592580">
    <ele>4204.1</ele>
    <time>2026-06-22T10:10:06Z</time>
   </trkpt>
   <trkpt lat="-3.1093100" lon="37.3592590">
    <ele>4204.2</ele>
    <time>2026-06-22T10:10:07Z</time>
   </trkpt>
   <trkpt lat="-3.1093090" lon="37.3592610">
    <ele>4204.3</ele>
    <time>2026-06-22T10:10:08Z</time>
   </trkpt>
   <trkpt lat="-3.1093060" lon="37.3592630">
    <ele>4204.4</ele>
    <time>2026-06-22T10:10:09Z</time>
   </trkpt>
   <trkpt lat="-3.1093060" lon="37.3592630">
    <ele>4204.4</ele>
    <time>2026-06-22T10:10:10Z</time>
   </trkpt>
   <trkpt lat="-3.1093050" lon="37.3592670">
    <ele>4204.5</ele>
    <time>2026-06-22T10:10:11Z</time>
   </trkpt>
   <trkpt lat="-3.1093050" lon="37.3592710">
    <ele>4204.6</ele>
    <time>2026-06-22T10:10:12Z</time>
   </trkpt>
   <trkpt lat="-3.1093050" lon="37.3592740">
    <ele>4204.7</ele>
    <time>2026-06-22T10:10:13Z</time>
   </trkpt>
   <trkpt lat="-3.1093050" lon="37.3592770">
    <ele>4204.7</ele>
    <time>2026-06-22T10:10:14Z</time>
   </trkpt>
   <trkpt lat="-3.1093020" lon="37.3592800">
    <ele>4204.8</ele>
    <time>2026-06-22T10:10:15Z</time>
   </trkpt>
   <trkpt lat="-3.1093050" lon="37.3592830">
    <ele>4205.0</ele>
    <time>2026-06-22T10:10:16Z</time>
   </trkpt>
   <trkpt lat="-3.1093040" lon="37.3592860">
    <ele>4205.0</ele>
    <time>2026-06-22T10:10:17Z</time>
   </trkpt>
   <trkpt lat="-3.1093010" lon="37.3592910">
    <ele>4205.2</ele>
    <time>2026-06-22T10:10:18Z</time>
   </trkpt>
   <trkpt lat="-3.1093030" lon="37.3592940">
    <ele>4205.3</ele>
    <time>2026-06-22T10:10:19Z</time>
   </trkpt>
   <trkpt lat="-3.1093040" lon="37.3592970">
    <ele>4205.4</ele>
    <time>2026-06-22T10:10:20Z</time>
   </trkpt>
   <trkpt lat="-3.1093050" lon="37.3593010">
    <ele>4205.5</ele>
    <time>2026-06-22T10:10:21Z</time>
   </trkpt>
   <trkpt lat="-3.1093030" lon="37.3593050">
    <ele>4205.6</ele>
    <time>2026-06-22T10:10:22Z</time>
   </trkpt>
   <trkpt lat="-3.1093060" lon="37.3593070">
    <ele>4205.7</ele>
    <time>2026-06-22T10:10:23Z</time>
   </trkpt>
   <trkpt lat="-3.1093050" lon="37.3593120">
    <ele>4205.8</ele>
    <time>2026-06-22T10:10:24Z</time>
   </trkpt>
   <trkpt lat="-3.1093050" lon="37.3593150">
    <ele>4205.9</ele>
    <time>2026-06-22T10:10:25Z</time>
   </trkpt>
   <trkpt lat="-3.1093040" lon="37.3593190">
    <ele>4206.0</ele>
    <time>2026-06-22T10:10:26Z</time>
   </trkpt>
   <trkpt lat="-3.1093030" lon="37.3593220">
    <ele>4206.1</ele>
    <time>2026-06-22T10:10:27Z</time>
   </trkpt>
   <trkpt lat="-3.1093030" lon="37.3593270">
    <ele>4206.2</ele>
    <time>2026-06-22T10:10:28Z</time>
   </trkpt>
   <trkpt lat="-3.1093020" lon="37.3593310">
    <ele>4206.3</ele>
    <time>2026-06-22T10:10:29Z</time>
   </trkpt>
   <trkpt lat="-3.1093020" lon="37.3593350">
    <ele>4206.4</ele>
    <time>2026-06-22T10:10:30Z</time>
   </trkpt>
   <trkpt lat="-3.1093020" lon="37.3593380">
    <ele>4206.5</ele>
    <time>2026-06-22T10:10:31Z</time>
   </trkpt>
   <trkpt lat="-3.1093030" lon="37.3593430">
    <ele>4206.6</ele>
    <time>2026-06-22T10:10:32Z</time>
   </trkpt>
   <trkpt lat="-3.1093040" lon="37.3593450">
    <ele>4206.6</ele>
    <time>2026-06-22T10:10:33Z</time>
   </trkpt>
   <trkpt lat="-3.1093050" lon="37.3593480">
    <ele>4206.7</ele>
    <time>2026-06-22T10:10:34Z</time>
   </trkpt>
   <trkpt lat="-3.1093010" lon="37.3593520">
    <ele>4206.9</ele>
    <time>2026-06-22T10:10:35Z</time>
   </trkpt>
   <trkpt lat="-3.1093000" lon="37.3593540">
    <ele>4206.9</ele>
    <time>2026-06-22T10:10:36Z</time>
   </trkpt>
   <trkpt lat="-3.1092960" lon="37.3593560">
    <ele>4207.0</ele>
    <time>2026-06-22T10:10:37Z</time>
   </trkpt>
   <trkpt lat="-3.1092940" lon="37.3593560">
    <ele>4207.1</ele>
    <time>2026-06-22T10:10:38Z</time>
   </trkpt>
   <trkpt lat="-3.1092910" lon="37.3593580">
    <ele>4207.2</ele>
    <time>2026-06-22T10:10:39Z</time>
   </trkpt>
   <trkpt lat="-3.1092880" lon="37.3593570">
    <ele>4207.3</ele>
    <time>2026-06-22T10:10:40Z</time>
   </trkpt>
   <trkpt lat="-3.1092850" lon="37.3593580">
    <ele>4207.3</ele>
    <time>2026-06-22T10:10:41Z</time>
   </trkpt>
   <trkpt lat="-3.1092820" lon="37.3593580">
    <ele>4207.4</ele>
    <time>2026-06-22T10:10:42Z</time>
   </trkpt>
   <trkpt lat="-3.1092780" lon="37.3593590">
    <ele>4207.5</ele>
    <time>2026-06-22T10:10:43Z</time>
   </trkpt>
   <trkpt lat="-3.1092780" lon="37.3593620">
    <ele>4207.6</ele>
    <time>2026-06-22T10:10:44Z</time>
   </trkpt>
   <trkpt lat="-3.1092790" lon="37.3593600">
    <ele>4207.7</ele>
    <time>2026-06-22T10:10:45Z</time>
   </trkpt>
   <trkpt lat="-3.1092780" lon="37.3593680">
    <ele>4207.9</ele>
    <time>2026-06-22T10:10:46Z</time>
   </trkpt>
   <trkpt lat="-3.1092770" lon="37.3593710">
    <ele>4207.9</ele>
    <time>2026-06-22T10:10:47Z</time>
   </trkpt>
   <trkpt lat="-3.1092780" lon="37.3593730">
    <ele>4208.0</ele>
    <time>2026-06-22T10:10:48Z</time>
   </trkpt>
   <trkpt lat="-3.1092760" lon="37.3593770">
    <ele>4208.1</ele>
    <time>2026-06-22T10:10:49Z</time>
   </trkpt>
   <trkpt lat="-3.1092770" lon="37.3593790">
    <ele>4208.2</ele>
    <time>2026-06-22T10:10:50Z</time>
   </trkpt>
   <trkpt lat="-3.1092770" lon="37.3593850">
    <ele>4208.3</ele>
    <time>2026-06-22T10:10:51Z</time>
   </trkpt>
   <trkpt lat="-3.1092760" lon="37.3593880">
    <ele>4208.4</ele>
    <time>2026-06-22T10:10:52Z</time>
   </trkpt>
   <trkpt lat="-3.1092770" lon="37.3593930">
    <ele>4208.5</ele>
    <time>2026-06-22T10:10:53Z</time>
   </trkpt>
   <trkpt lat="-3.1092770" lon="37.3593940">
    <ele>4208.5</ele>
    <time>2026-06-22T10:10:54Z</time>
   </trkpt>
   <trkpt lat="-3.1092790" lon="37.3593980">
    <ele>4208.7</ele>
    <time>2026-06-22T10:10:55Z</time>
   </trkpt>
   <trkpt lat="-3.1092790" lon="37.3594020">
    <ele>4208.8</ele>
    <time>2026-06-22T10:10:56Z</time>
   </trkpt>
   <trkpt lat="-3.1092790" lon="37.3594060">
    <ele>4208.8</ele>
    <time>2026-06-22T10:10:57Z</time>
   </trkpt>
   <trkpt lat="-3.1092790" lon="37.3594100">
    <ele>4208.9</ele>
    <time>2026-06-22T10:10:58Z</time>
   </trkpt>
   <trkpt lat="-3.1092780" lon="37.3594140">
    <ele>4209.0</ele>
    <time>2026-06-22T10:10:59Z</time>
   </trkpt>
   <trkpt lat="-3.1092760" lon="37.3594180">
    <ele>4209.2</ele>
    <time>2026-06-22T10:11:00Z</time>
   </trkpt>
   <trkpt lat="-3.1092740" lon="37.3594210">
    <ele>4209.2</ele>
    <time>2026-06-22T10:11:01Z</time>
   </trkpt>
   <trkpt lat="-3.1092710" lon="37.3594240">
    <ele>4209.4</ele>
    <time>2026-06-22T10:11:02Z</time>
   </trkpt>
   <trkpt lat="-3.1092660" lon="37.3594270">
    <ele>4209.5</ele>
    <time>2026-06-22T10:11:03Z</time>
   </trkpt>
   <trkpt lat="-3.1092660" lon="37.3594290">
    <ele>4209.5</ele>
    <time>2026-06-22T10:11:04Z</time>
   </trkpt>
   <trkpt lat="-3.1092640" lon="37.3594310">
    <ele>4209.6</ele>
    <time>2026-06-22T10:11:05Z</time>
   </trkpt>
   <trkpt lat="-3.1092610" lon="37.3594360">
    <ele>4209.8</ele>
    <time>2026-06-22T10:11:06Z</time>
   </trkpt>
   <trkpt lat="-3.1092610" lon="37.3594400">
    <ele>4209.9</ele>
    <time>2026-06-22T10:11:07Z</time>
   </trkpt>
   <trkpt lat="-3.1092600" lon="37.3594440">
    <ele>4210.0</ele>
    <time>2026-06-22T10:11:08Z</time>
   </trkpt>
   <trkpt lat="-3.1092580" lon="37.3594500">
    <ele>4210.1</ele>
    <time>2026-06-22T10:11:09Z</time>
   </trkpt>
   <trkpt lat="-3.1092580" lon="37.3594520">
    <ele>4210.2</ele>
    <time>2026-06-22T10:11:10Z</time>
   </trkpt>
   <trkpt lat="-3.1092570" lon="37.3594570">
    <ele>4210.3</ele>
    <time>2026-06-22T10:11:11Z</time>
   </trkpt>
   <trkpt lat="-3.1092560" lon="37.3594620">
    <ele>4210.4</ele>
    <time>2026-06-22T10:11:12Z</time>
   </trkpt>
   <trkpt lat="-3.1092550" lon="37.3594660">
    <ele>4210.5</ele>
    <time>2026-06-22T10:11:13Z</time>
   </trkpt>
   <trkpt lat="-3.1092550" lon="37.3594700">
    <ele>4210.6</ele>
    <time>2026-06-22T10:11:14Z</time>
   </trkpt>
   <trkpt lat="-3.1092570" lon="37.3594730">
    <ele>4210.7</ele>
    <time>2026-06-22T10:11:15Z</time>
   </trkpt>
   <trkpt lat="-3.1092590" lon="37.3594760">
    <ele>4210.8</ele>
    <time>2026-06-22T10:11:17Z</time>
   </trkpt>
   <trkpt lat="-3.1092590" lon="37.3594780">
    <ele>4210.8</ele>
    <time>2026-06-22T10:11:18Z</time>
   </trkpt>
   <trkpt lat="-3.1092600" lon="37.3594860">
    <ele>4211.0</ele>
    <time>2026-06-22T10:11:19Z</time>
   </trkpt>
   <trkpt lat="-3.1092600" lon="37.3594800">
    <ele>4211.2</ele>
    <time>2026-06-22T10:11:20Z</time>
   </trkpt>
   <trkpt lat="-3.1092620" lon="37.3594910">
    <ele>4211.5</ele>
    <time>2026-06-22T10:11:21Z</time>
   </trkpt>
   <trkpt lat="-3.1092600" lon="37.3594940">
    <ele>4211.5</ele>
    <time>2026-06-22T10:11:22Z</time>
   </trkpt>
   <trkpt lat="-3.1092580" lon="37.3594940">
    <ele>4211.6</ele>
    <time>2026-06-22T10:11:23Z</time>
   </trkpt>
   <trkpt lat="-3.1092550" lon="37.3594950">
    <ele>4211.7</ele>
    <time>2026-06-22T10:11:24Z</time>
   </trkpt>
   <trkpt lat="-3.1092530" lon="37.3594960">
    <ele>4211.7</ele>
    <time>2026-06-22T10:11:25Z</time>
   </trkpt>
   <trkpt lat="-3.1092500" lon="37.3594980">
    <ele>4211.8</ele>
    <time>2026-06-22T10:11:26Z</time>
   </trkpt>
   <trkpt lat="-3.1092480" lon="37.3594970">
    <ele>4211.9</ele>
    <time>2026-06-22T10:11:27Z</time>
   </trkpt>
   <trkpt lat="-3.1092460" lon="37.3595000">
    <ele>4212.0</ele>
    <time>2026-06-22T10:11:28Z</time>
   </trkpt>
   <trkpt lat="-3.1092440" lon="37.3595030">
    <ele>4212.0</ele>
    <time>2026-06-22T10:11:29Z</time>
   </trkpt>
   <trkpt lat="-3.1092420" lon="37.3595050">
    <ele>4212.1</ele>
    <time>2026-06-22T10:11:30Z</time>
   </trkpt>
   <trkpt lat="-3.1092410" lon="37.3595100">
    <ele>4212.2</ele>
    <time>2026-06-22T10:11:31Z</time>
   </trkpt>
   <trkpt lat="-3.1092390" lon="37.3595110">
    <ele>4212.3</ele>
    <time>2026-06-22T10:11:32Z</time>
   </trkpt>
   <trkpt lat="-3.1092370" lon="37.3595100">
    <ele>4212.4</ele>
    <time>2026-06-22T10:11:33Z</time>
   </trkpt>
   <trkpt lat="-3.1092350" lon="37.3595120">
    <ele>4212.4</ele>
    <time>2026-06-22T10:11:34Z</time>
   </trkpt>
   <trkpt lat="-3.1092310" lon="37.3595090">
    <ele>4212.5</ele>
    <time>2026-06-22T10:11:35Z</time>
   </trkpt>
   <trkpt lat="-3.1092290" lon="37.3595100">
    <ele>4212.6</ele>
    <time>2026-06-22T10:11:36Z</time>
   </trkpt>
   <trkpt lat="-3.1092240" lon="37.3595100">
    <ele>4212.7</ele>
    <time>2026-06-22T10:11:37Z</time>
   </trkpt>
   <trkpt lat="-3.1092220" lon="37.3595130">
    <ele>4212.8</ele>
    <time>2026-06-22T10:11:38Z</time>
   </trkpt>
   <trkpt lat="-3.1092200" lon="37.3595160">
    <ele>4212.9</ele>
    <time>2026-06-22T10:11:39Z</time>
   </trkpt>
   <trkpt lat="-3.1092180" lon="37.3595230">
    <ele>4213.1</ele>
    <time>2026-06-22T10:11:40Z</time>
   </trkpt>
   <trkpt lat="-3.1092200" lon="37.3595240">
    <ele>4213.1</ele>
    <time>2026-06-22T10:11:41Z</time>
   </trkpt>
   <trkpt lat="-3.1092220" lon="37.3595300">
    <ele>4213.3</ele>
    <time>2026-06-22T10:11:42Z</time>
   </trkpt>
   <trkpt lat="-3.1092240" lon="37.3595320">
    <ele>4213.4</ele>
    <time>2026-06-22T10:11:43Z</time>
   </trkpt>
   <trkpt lat="-3.1092260" lon="37.3595380">
    <ele>4213.5</ele>
    <time>2026-06-22T10:11:44Z</time>
   </trkpt>
   <trkpt lat="-3.1092270" lon="37.3595420">
    <ele>4213.6</ele>
    <time>2026-06-22T10:11:45Z</time>
   </trkpt>
   <trkpt lat="-3.1092270" lon="37.3595460">
    <ele>4213.7</ele>
    <time>2026-06-22T10:11:46Z</time>
   </trkpt>
   <trkpt lat="-3.1092250" lon="37.3595500">
    <ele>4213.8</ele>
    <time>2026-06-22T10:11:47Z</time>
   </trkpt>
   <trkpt lat="-3.1092250" lon="37.3595540">
    <ele>4213.9</ele>
    <time>2026-06-22T10:11:48Z</time>
   </trkpt>
   <trkpt lat="-3.1092230" lon="37.3595590">
    <ele>4214.1</ele>
    <time>2026-06-22T10:11:49Z</time>
   </trkpt>
   <trkpt lat="-3.1092210" lon="37.3595620">
    <ele>4214.1</ele>
    <time>2026-06-22T10:11:50Z</time>
   </trkpt>
   <trkpt lat="-3.1092210" lon="37.3595650">
    <ele>4214.2</ele>
    <time>2026-06-22T10:11:51Z</time>
   </trkpt>
   <trkpt lat="-3.1092210" lon="37.3595690">
    <ele>4214.3</ele>
    <time>2026-06-22T10:11:52Z</time>
   </trkpt>
   <trkpt lat="-3.1092220" lon="37.3595710">
    <ele>4214.4</ele>
    <time>2026-06-22T10:11:53Z</time>
   </trkpt>
   <trkpt lat="-3.1092220" lon="37.3595770">
    <ele>4214.5</ele>
    <time>2026-06-22T10:11:54Z</time>
   </trkpt>
   <trkpt lat="-3.1092220" lon="37.3595800">
    <ele>4214.6</ele>
    <time>2026-06-22T10:11:55Z</time>
   </trkpt>
   <trkpt lat="-3.1092210" lon="37.3595810">
    <ele>4214.6</ele>
    <time>2026-06-22T10:11:56Z</time>
   </trkpt>
   <trkpt lat="-3.1092180" lon="37.3595830">
    <ele>4214.7</ele>
    <time>2026-06-22T10:11:57Z</time>
   </trkpt>
   <trkpt lat="-3.1092160" lon="37.3595850">
    <ele>4214.8</ele>
    <time>2026-06-22T10:11:58Z</time>
   </trkpt>
   <trkpt lat="-3.1092130" lon="37.3595870">
    <ele>4214.9</ele>
    <time>2026-06-22T10:11:59Z</time>
   </trkpt>
   <trkpt lat="-3.1092120" lon="37.3595910">
    <ele>4215.0</ele>
    <time>2026-06-22T10:12:00Z</time>
   </trkpt>
   <trkpt lat="-3.1092100" lon="37.3595920">
    <ele>4215.1</ele>
    <time>2026-06-22T10:12:01Z</time>
   </trkpt>
   <trkpt lat="-3.1092090" lon="37.3595940">
    <ele>4215.1</ele>
    <time>2026-06-22T10:12:02Z</time>
   </trkpt>
   <trkpt lat="-3.1092070" lon="37.3595960">
    <ele>4215.2</ele>
    <time>2026-06-22T10:12:03Z</time>
   </trkpt>
   <trkpt lat="-3.1092020" lon="37.3595980">
    <ele>4215.3</ele>
    <time>2026-06-22T10:12:04Z</time>
   </trkpt>
   <trkpt lat="-3.1091980" lon="37.3596040">
    <ele>4215.5</ele>
    <time>2026-06-22T10:12:05Z</time>
   </trkpt>
   <trkpt lat="-3.1091960" lon="37.3596060">
    <ele>4215.6</ele>
    <time>2026-06-22T10:12:06Z</time>
   </trkpt>
   <trkpt lat="-3.1091940" lon="37.3596100">
    <ele>4215.7</ele>
    <time>2026-06-22T10:12:07Z</time>
   </trkpt>
   <trkpt lat="-3.1091920" lon="37.3596130">
    <ele>4215.8</ele>
    <time>2026-06-22T10:12:08Z</time>
   </trkpt>
   <trkpt lat="-3.1091910" lon="37.3596170">
    <ele>4215.9</ele>
    <time>2026-06-22T10:12:09Z</time>
   </trkpt>
   <trkpt lat="-3.1091880" lon="37.3596190">
    <ele>4216.0</ele>
    <time>2026-06-22T10:12:10Z</time>
   </trkpt>
   <trkpt lat="-3.1091870" lon="37.3596220">
    <ele>4216.1</ele>
    <time>2026-06-22T10:12:11Z</time>
   </trkpt>
   <trkpt lat="-3.1091870" lon="37.3596240">
    <ele>4216.1</ele>
    <time>2026-06-22T10:12:12Z</time>
   </trkpt>
   <trkpt lat="-3.1091870" lon="37.3596310">
    <ele>4216.3</ele>
    <time>2026-06-22T10:12:13Z</time>
   </trkpt>
   <trkpt lat="-3.1091860" lon="37.3596360">
    <ele>4216.4</ele>
    <time>2026-06-22T10:12:14Z</time>
   </trkpt>
   <trkpt lat="-3.1091880" lon="37.3596380">
    <ele>4216.5</ele>
    <time>2026-06-22T10:12:15Z</time>
   </trkpt>
   <trkpt lat="-3.1091860" lon="37.3596440">
    <ele>4216.7</ele>
    <time>2026-06-22T10:12:16Z</time>
   </trkpt>
   <trkpt lat="-3.1091870" lon="37.3596470">
    <ele>4216.7</ele>
    <time>2026-06-22T10:12:17Z</time>
   </trkpt>
   <trkpt lat="-3.1091870" lon="37.3596500">
    <ele>4216.8</ele>
    <time>2026-06-22T10:12:18Z</time>
   </trkpt>
   <trkpt lat="-3.1091810" lon="37.3596570">
    <ele>4217.1</ele>
    <time>2026-06-22T10:12:19Z</time>
   </trkpt>
   <trkpt lat="-3.1091830" lon="37.3596580">
    <ele>4217.1</ele>
    <time>2026-06-22T10:12:20Z</time>
   </trkpt>
   <trkpt lat="-3.1091830" lon="37.3596580">
    <ele>4217.1</ele>
    <time>2026-06-22T10:12:21Z</time>
   </trkpt>
   <trkpt lat="-3.1091810" lon="37.3596590">
    <ele>4217.2</ele>
    <time>2026-06-22T10:12:22Z</time>
   </trkpt>
   <trkpt lat="-3.1091800" lon="37.3596590">
    <ele>4217.2</ele>
    <time>2026-06-22T10:12:23Z</time>
   </trkpt>
   <trkpt lat="-3.1091780" lon="37.3596620">
    <ele>4217.3</ele>
    <time>2026-06-22T10:12:24Z</time>
   </trkpt>
   <trkpt lat="-3.1091760" lon="37.3596630">
    <ele>4217.3</ele>
    <time>2026-06-22T10:12:25Z</time>
   </trkpt>
   <trkpt lat="-3.1091750" lon="37.3596630">
    <ele>4217.4</ele>
    <time>2026-06-22T10:12:26Z</time>
   </trkpt>
   <trkpt lat="-3.1091710" lon="37.3596660">
    <ele>4217.5</ele>
    <time>2026-06-22T10:12:27Z</time>
   </trkpt>
   <trkpt lat="-3.1091700" lon="37.3596680">
    <ele>4217.6</ele>
    <time>2026-06-22T10:12:28Z</time>
   </trkpt>
   <trkpt lat="-3.1091670" lon="37.3596700">
    <ele>4217.6</ele>
    <time>2026-06-22T10:12:29Z</time>
   </trkpt>
   <trkpt lat="-3.1091660" lon="37.3596740">
    <ele>4217.8</ele>
    <time>2026-06-22T10:12:30Z</time>
   </trkpt>
   <trkpt lat="-3.1091630" lon="37.3596770">
    <ele>4217.9</ele>
    <time>2026-06-22T10:12:31Z</time>
   </trkpt>
   <trkpt lat="-3.1091620" lon="37.3596810">
    <ele>4218.0</ele>
    <time>2026-06-22T10:12:32Z</time>
   </trkpt>
   <trkpt lat="-3.1091600" lon="37.3596840">
    <ele>4218.1</ele>
    <time>2026-06-22T10:12:33Z</time>
   </trkpt>
   <trkpt lat="-3.1091580" lon="37.3596880">
    <ele>4218.2</ele>
    <time>2026-06-22T10:12:34Z</time>
   </trkpt>
   <trkpt lat="-3.1091570" lon="37.3596920">
    <ele>4218.3</ele>
    <time>2026-06-22T10:12:35Z</time>
   </trkpt>
   <trkpt lat="-3.1091560" lon="37.3596990">
    <ele>4218.5</ele>
    <time>2026-06-22T10:12:36Z</time>
   </trkpt>
   <trkpt lat="-3.1091560" lon="37.3597010">
    <ele>4218.5</ele>
    <time>2026-06-22T10:12:37Z</time>
   </trkpt>
   <trkpt lat="-3.1091540" lon="37.3597050">
    <ele>4218.6</ele>
    <time>2026-06-22T10:12:38Z</time>
   </trkpt>
   <trkpt lat="-3.1091520" lon="37.3597100">
    <ele>4218.8</ele>
    <time>2026-06-22T10:12:39Z</time>
   </trkpt>
   <trkpt lat="-3.1091500" lon="37.3597110">
    <ele>4218.8</ele>
    <time>2026-06-22T10:12:40Z</time>
   </trkpt>
   <trkpt lat="-3.1091490" lon="37.3597130">
    <ele>4218.9</ele>
    <time>2026-06-22T10:12:41Z</time>
   </trkpt>
   <trkpt lat="-3.1091480" lon="37.3597160">
    <ele>4219.0</ele>
    <time>2026-06-22T10:12:42Z</time>
   </trkpt>
   <trkpt lat="-3.1091470" lon="37.3597190">
    <ele>4219.0</ele>
    <time>2026-06-22T10:12:43Z</time>
   </trkpt>
   <trkpt lat="-3.1091440" lon="37.3597230">
    <ele>4219.2</ele>
    <time>2026-06-22T10:12:44Z</time>
   </trkpt>
   <trkpt lat="-3.1091410" lon="37.3597270">
    <ele>4219.3</ele>
    <time>2026-06-22T10:12:45Z</time>
   </trkpt>
   <trkpt lat="-3.1091450" lon="37.3597290">
    <ele>4219.4</ele>
    <time>2026-06-22T10:12:46Z</time>
   </trkpt>
   <trkpt lat="-3.1091460" lon="37.3597320">
    <ele>4219.5</ele>
    <time>2026-06-22T10:12:47Z</time>
   </trkpt>
   <trkpt lat="-3.1091450" lon="37.3597350">
    <ele>4219.6</ele>
    <time>2026-06-22T10:12:48Z</time>
   </trkpt>
   <trkpt lat="-3.1091470" lon="37.3597360">
    <ele>4219.6</ele>
    <time>2026-06-22T10:12:49Z</time>
   </trkpt>
   <trkpt lat="-3.1091440" lon="37.3597390">
    <ele>4219.7</ele>
    <time>2026-06-22T10:12:50Z</time>
   </trkpt>
   <trkpt lat="-3.1091420" lon="37.3597410">
    <ele>4219.8</ele>
    <time>2026-06-22T10:12:51Z</time>
   </trkpt>
   <trkpt lat="-3.1091390" lon="37.3597400">
    <ele>4219.9</ele>
    <time>2026-06-22T10:12:52Z</time>
   </trkpt>
   <trkpt lat="-3.1091370" lon="37.3597420">
    <ele>4220.0</ele>
    <time>2026-06-22T10:12:53Z</time>
   </trkpt>
   <trkpt lat="-3.1091340" lon="37.3597430">
    <ele>4220.0</ele>
    <time>2026-06-22T10:12:54Z</time>
   </trkpt>
   <trkpt lat="-3.1091310" lon="37.3597460">
    <ele>4220.1</ele>
    <time>2026-06-22T10:12:55Z</time>
   </trkpt>
   <trkpt lat="-3.1091280" lon="37.3597480">
    <ele>4220.2</ele>
    <time>2026-06-22T10:12:56Z</time>
   </trkpt>
   <trkpt lat="-3.1091270" lon="37.3597490">
    <ele>4220.3</ele>
    <time>2026-06-22T10:12:57Z</time>
   </trkpt>
   <trkpt lat="-3.1091240" lon="37.3597520">
    <ele>4220.4</ele>
    <time>2026-06-22T10:12:58Z</time>
   </trkpt>
   <trkpt lat="-3.1091210" lon="37.3597540">
    <ele>4220.5</ele>
    <time>2026-06-22T10:12:59Z</time>
   </trkpt>
   <trkpt lat="-3.1091230" lon="37.3597580">
    <ele>4220.6</ele>
    <time>2026-06-22T10:13:00Z</time>
   </trkpt>
   <trkpt lat="-3.1091190" lon="37.3597600">
    <ele>4220.7</ele>
    <time>2026-06-22T10:13:01Z</time>
   </trkpt>
   <trkpt lat="-3.1091200" lon="37.3597660">
    <ele>4220.9</ele>
    <time>2026-06-22T10:13:02Z</time>
   </trkpt>
   <trkpt lat="-3.1091200" lon="37.3597670">
    <ele>4220.9</ele>
    <time>2026-06-22T10:13:03Z</time>
   </trkpt>
   <trkpt lat="-3.1091200" lon="37.3597700">
    <ele>4221.0</ele>
    <time>2026-06-22T10:13:04Z</time>
   </trkpt>
   <trkpt lat="-3.1091200" lon="37.3597750">
    <ele>4221.1</ele>
    <time>2026-06-22T10:13:05Z</time>
   </trkpt>
   <trkpt lat="-3.1091190" lon="37.3597770">
    <ele>4221.1</ele>
    <time>2026-06-22T10:13:06Z</time>
   </trkpt>
   <trkpt lat="-3.1091160" lon="37.3597760">
    <ele>4221.2</ele>
    <time>2026-06-22T10:13:07Z</time>
   </trkpt>
   <trkpt lat="-3.1091140" lon="37.3597810">
    <ele>4221.4</ele>
    <time>2026-06-22T10:13:08Z</time>
   </trkpt>
   <trkpt lat="-3.1091130" lon="37.3597840">
    <ele>4221.4</ele>
    <time>2026-06-22T10:13:09Z</time>
   </trkpt>
   <trkpt lat="-3.1091100" lon="37.3597860">
    <ele>4221.5</ele>
    <time>2026-06-22T10:13:10Z</time>
   </trkpt>
   <trkpt lat="-3.1091090" lon="37.3597900">
    <ele>4221.6</ele>
    <time>2026-06-22T10:13:11Z</time>
   </trkpt>
   <trkpt lat="-3.1091080" lon="37.3597950">
    <ele>4221.8</ele>
    <time>2026-06-22T10:13:12Z</time>
   </trkpt>
   <trkpt lat="-3.1091080" lon="37.3597970">
    <ele>4221.8</ele>
    <time>2026-06-22T10:13:13Z</time>
   </trkpt>
   <trkpt lat="-3.1091080" lon="37.3598030">
    <ele>4222.0</ele>
    <time>2026-06-22T10:13:14Z</time>
   </trkpt>
   <trkpt lat="-3.1091050" lon="37.3598040">
    <ele>4222.0</ele>
    <time>2026-06-22T10:13:15Z</time>
   </trkpt>
   <trkpt lat="-3.1091030" lon="37.3598050">
    <ele>4222.1</ele>
    <time>2026-06-22T10:13:16Z</time>
   </trkpt>
   <trkpt lat="-3.1090990" lon="37.3598060">
    <ele>4222.2</ele>
    <time>2026-06-22T10:13:17Z</time>
   </trkpt>
   <trkpt lat="-3.1090940" lon="37.3598070">
    <ele>4222.3</ele>
    <time>2026-06-22T10:13:18Z</time>
   </trkpt>
   <trkpt lat="-3.1090910" lon="37.3598090">
    <ele>4222.4</ele>
    <time>2026-06-22T10:13:19Z</time>
   </trkpt>
   <trkpt lat="-3.1090900" lon="37.3598140">
    <ele>4222.6</ele>
    <time>2026-06-22T10:13:20Z</time>
   </trkpt>
   <trkpt lat="-3.1090900" lon="37.3598170">
    <ele>4222.6</ele>
    <time>2026-06-22T10:13:21Z</time>
   </trkpt>
   <trkpt lat="-3.1090900" lon="37.3598220">
    <ele>4222.8</ele>
    <time>2026-06-22T10:13:23Z</time>
   </trkpt>
   <trkpt lat="-3.1090910" lon="37.3598240">
    <ele>4222.8</ele>
    <time>2026-06-22T10:13:24Z</time>
   </trkpt>
   <trkpt lat="-3.1090900" lon="37.3598260">
    <ele>4222.9</ele>
    <time>2026-06-22T10:13:25Z</time>
   </trkpt>
   <trkpt lat="-3.1090880" lon="37.3598300">
    <ele>4223.0</ele>
    <time>2026-06-22T10:13:26Z</time>
   </trkpt>
   <trkpt lat="-3.1090860" lon="37.3598320">
    <ele>4223.1</ele>
    <time>2026-06-22T10:13:27Z</time>
   </trkpt>
   <trkpt lat="-3.1090840" lon="37.3598350">
    <ele>4223.2</ele>
    <time>2026-06-22T10:13:28Z</time>
   </trkpt>
   <trkpt lat="-3.1090790" lon="37.3598370">
    <ele>4223.3</ele>
    <time>2026-06-22T10:13:29Z</time>
   </trkpt>
   <trkpt lat="-3.1090790" lon="37.3598400">
    <ele>4223.4</ele>
    <time>2026-06-22T10:13:30Z</time>
   </trkpt>
   <trkpt lat="-3.1090760" lon="37.3598430">
    <ele>4223.5</ele>
    <time>2026-06-22T10:13:31Z</time>
   </trkpt>
   <trkpt lat="-3.1090750" lon="37.3598430">
    <ele>4223.5</ele>
    <time>2026-06-22T10:13:32Z</time>
   </trkpt>
   <trkpt lat="-3.1090720" lon="37.3598440">
    <ele>4223.6</ele>
    <time>2026-06-22T10:13:33Z</time>
   </trkpt>
   <trkpt lat="-3.1090700" lon="37.3598470">
    <ele>4223.7</ele>
    <time>2026-06-22T10:13:34Z</time>
   </trkpt>
   <trkpt lat="-3.1090670" lon="37.3598480">
    <ele>4223.8</ele>
    <time>2026-06-22T10:13:35Z</time>
   </trkpt>
   <trkpt lat="-3.1090660" lon="37.3598500">
    <ele>4223.8</ele>
    <time>2026-06-22T10:13:36Z</time>
   </trkpt>
   <trkpt lat="-3.1090640" lon="37.3598530">
    <ele>4223.9</ele>
    <time>2026-06-22T10:13:37Z</time>
   </trkpt>
   <trkpt lat="-3.1090630" lon="37.3598580">
    <ele>4224.1</ele>
    <time>2026-06-22T10:13:38Z</time>
   </trkpt>
   <trkpt lat="-3.1090630" lon="37.3598610">
    <ele>4224.1</ele>
    <time>2026-06-22T10:13:39Z</time>
   </trkpt>
   <trkpt lat="-3.1090650" lon="37.3598650">
    <ele>4224.3</ele>
    <time>2026-06-22T10:13:40Z</time>
   </trkpt>
   <trkpt lat="-3.1090660" lon="37.3598690">
    <ele>4224.4</ele>
    <time>2026-06-22T10:13:41Z</time>
   </trkpt>
   <trkpt lat="-3.1090660" lon="37.3598740">
    <ele>4224.5</ele>
    <time>2026-06-22T10:13:42Z</time>
   </trkpt>
   <trkpt lat="-3.1090670" lon="37.3598710">
    <ele>4224.6</ele>
    <time>2026-06-22T10:13:43Z</time>
   </trkpt>
   <trkpt lat="-3.1090670" lon="37.3598820">
    <ele>4224.9</ele>
    <time>2026-06-22T10:13:44Z</time>
   </trkpt>
   <trkpt lat="-3.1090670" lon="37.3598860">
    <ele>4225.0</ele>
    <time>2026-06-22T10:13:45Z</time>
   </trkpt>
   <trkpt lat="-3.1090650" lon="37.3598890">
    <ele>4225.1</ele>
    <time>2026-06-22T10:13:46Z</time>
   </trkpt>
   <trkpt lat="-3.1090630" lon="37.3598930">
    <ele>4225.2</ele>
    <time>2026-06-22T10:13:47Z</time>
   </trkpt>
   <trkpt lat="-3.1090610" lon="37.3598990">
    <ele>4225.4</ele>
    <time>2026-06-22T10:13:48Z</time>
   </trkpt>
   <trkpt lat="-3.1090600" lon="37.3599030">
    <ele>4225.5</ele>
    <time>2026-06-22T10:13:49Z</time>
   </trkpt>
   <trkpt lat="-3.1090590" lon="37.3599070">
    <ele>4225.6</ele>
    <time>2026-06-22T10:13:50Z</time>
   </trkpt>
   <trkpt lat="-3.1090590" lon="37.3599110">
    <ele>4225.7</ele>
    <time>2026-06-22T10:13:51Z</time>
   </trkpt>
   <trkpt lat="-3.1090550" lon="37.3599160">
    <ele>4225.8</ele>
    <time>2026-06-22T10:13:52Z</time>
   </trkpt>
   <trkpt lat="-3.1090530" lon="37.3599220">
    <ele>4226.0</ele>
    <time>2026-06-22T10:13:53Z</time>
   </trkpt>
   <trkpt lat="-3.1090520" lon="37.3599240">
    <ele>4226.1</ele>
    <time>2026-06-22T10:13:54Z</time>
   </trkpt>
   <trkpt lat="-3.1090510" lon="37.3599320">
    <ele>4226.3</ele>
    <time>2026-06-22T10:13:55Z</time>
   </trkpt>
   <trkpt lat="-3.1090490" lon="37.3599330">
    <ele>4226.3</ele>
    <time>2026-06-22T10:13:56Z</time>
   </trkpt>
   <trkpt lat="-3.1090460" lon="37.3599370">
    <ele>4226.5</ele>
    <time>2026-06-22T10:13:57Z</time>
   </trkpt>
   <trkpt lat="-3.1090410" lon="37.3599390">
    <ele>4226.6</ele>
    <time>2026-06-22T10:13:58Z</time>
   </trkpt>
   <trkpt lat="-3.1090390" lon="37.3599420">
    <ele>4226.7</ele>
    <time>2026-06-22T10:13:59Z</time>
   </trkpt>
   <trkpt lat="-3.1090350" lon="37.3599460">
    <ele>4226.9</ele>
    <time>2026-06-22T10:14:00Z</time>
   </trkpt>
   <trkpt lat="-3.1090340" lon="37.3599490">
    <ele>4226.9</ele>
    <time>2026-06-22T10:14:01Z</time>
   </trkpt>
   <trkpt lat="-3.1090320" lon="37.3599530">
    <ele>4227.1</ele>
    <time>2026-06-22T10:14:02Z</time>
   </trkpt>
   <trkpt lat="-3.1090310" lon="37.3599570">
    <ele>4227.2</ele>
    <time>2026-06-22T10:14:03Z</time>
   </trkpt>
   <trkpt lat="-3.1090280" lon="37.3599610">
    <ele>4227.3</ele>
    <time>2026-06-22T10:14:04Z</time>
   </trkpt>
   <trkpt lat="-3.1090250" lon="37.3599630">
    <ele>4227.4</ele>
    <time>2026-06-22T10:14:05Z</time>
   </trkpt>
   <trkpt lat="-3.1090210" lon="37.3599640">
    <ele>4227.5</ele>
    <time>2026-06-22T10:14:06Z</time>
   </trkpt>
   <trkpt lat="-3.1090200" lon="37.3599670">
    <ele>4227.6</ele>
    <time>2026-06-22T10:14:07Z</time>
   </trkpt>
   <trkpt lat="-3.1090170" lon="37.3599710">
    <ele>4227.7</ele>
    <time>2026-06-22T10:14:08Z</time>
   </trkpt>
   <trkpt lat="-3.1090150" lon="37.3599740">
    <ele>4227.8</ele>
    <time>2026-06-22T10:14:09Z</time>
   </trkpt>
   <trkpt lat="-3.1090150" lon="37.3599730">
    <ele>4227.8</ele>
    <time>2026-06-22T10:14:10Z</time>
   </trkpt>
   <trkpt lat="-3.1090120" lon="37.3599780">
    <ele>4228.0</ele>
    <time>2026-06-22T10:14:11Z</time>
   </trkpt>
   <trkpt lat="-3.1090100" lon="37.3599820">
    <ele>4228.1</ele>
    <time>2026-06-22T10:14:12Z</time>
   </trkpt>
   <trkpt lat="-3.1090100" lon="37.3599870">
    <ele>4228.3</ele>
    <time>2026-06-22T10:14:13Z</time>
   </trkpt>
   <trkpt lat="-3.1090090" lon="37.3599910">
    <ele>4228.4</ele>
    <time>2026-06-22T10:14:14Z</time>
   </trkpt>
   <trkpt lat="-3.1090080" lon="37.3599930">
    <ele>4228.4</ele>
    <time>2026-06-22T10:14:15Z</time>
   </trkpt>
   <trkpt lat="-3.1090080" lon="37.3599970">
    <ele>4228.6</ele>
    <time>2026-06-22T10:14:16Z</time>
   </trkpt>
   <trkpt lat="-3.1090060" lon="37.3600010">
    <ele>4228.7</ele>
    <time>2026-06-22T10:14:17Z</time>
   </trkpt>
   <trkpt lat="-3.1090060" lon="37.3600040">
    <ele>4228.8</ele>
    <time>2026-06-22T10:14:18Z</time>
   </trkpt>
   <trkpt lat="-3.1090060" lon="37.3600060">
    <ele>4228.8</ele>
    <time>2026-06-22T10:14:19Z</time>
   </trkpt>
   <trkpt lat="-3.1090030" lon="37.3600090">
    <ele>4228.9</ele>
    <time>2026-06-22T10:14:20Z</time>
   </trkpt>
   <trkpt lat="-3.1090010" lon="37.3600090">
    <ele>4229.0</ele>
    <time>2026-06-22T10:14:21Z</time>
   </trkpt>
   <trkpt lat="-3.1090000" lon="37.3600100">
    <ele>4229.0</ele>
    <time>2026-06-22T10:14:22Z</time>
   </trkpt>
   <trkpt lat="-3.1089970" lon="37.3600110">
    <ele>4229.1</ele>
    <time>2026-06-22T10:14:23Z</time>
   </trkpt>
   <trkpt lat="-3.1089920" lon="37.3600100">
    <ele>4229.3</ele>
    <time>2026-06-22T10:14:24Z</time>
   </trkpt>
   <trkpt lat="-3.1089910" lon="37.3600100">
    <ele>4229.3</ele>
    <time>2026-06-22T10:14:25Z</time>
   </trkpt>
   <trkpt lat="-3.1089880" lon="37.3600110">
    <ele>4229.4</ele>
    <time>2026-06-22T10:14:26Z</time>
   </trkpt>
   <trkpt lat="-3.1089850" lon="37.3600120">
    <ele>4229.5</ele>
    <time>2026-06-22T10:14:27Z</time>
   </trkpt>
   <trkpt lat="-3.1089850" lon="37.3600140">
    <ele>4229.5</ele>
    <time>2026-06-22T10:14:28Z</time>
   </trkpt>
   <trkpt lat="-3.1089830" lon="37.3600180">
    <ele>4229.6</ele>
    <time>2026-06-22T10:14:29Z</time>
   </trkpt>
   <trkpt lat="-3.1089810" lon="37.3600210">
    <ele>4229.7</ele>
    <time>2026-06-22T10:14:30Z</time>
   </trkpt>
   <trkpt lat="-3.1089780" lon="37.3600230">
    <ele>4229.8</ele>
    <time>2026-06-22T10:14:31Z</time>
   </trkpt>
   <trkpt lat="-3.1089770" lon="37.3600270">
    <ele>4230.0</ele>
    <time>2026-06-22T10:14:32Z</time>
   </trkpt>
   <trkpt lat="-3.1089760" lon="37.3600290">
    <ele>4230.0</ele>
    <time>2026-06-22T10:14:33Z</time>
   </trkpt>
   <trkpt lat="-3.1089730" lon="37.3600300">
    <ele>4230.1</ele>
    <time>2026-06-22T10:14:34Z</time>
   </trkpt>
   <trkpt lat="-3.1089680" lon="37.3600330">
    <ele>4230.3</ele>
    <time>2026-06-22T10:14:35Z</time>
   </trkpt>
   <trkpt lat="-3.1089650" lon="37.3600330">
    <ele>4230.4</ele>
    <time>2026-06-22T10:14:36Z</time>
   </trkpt>
   <trkpt lat="-3.1089640" lon="37.3600330">
    <ele>4230.4</ele>
    <time>2026-06-22T10:14:37Z</time>
   </trkpt>
   <trkpt lat="-3.1089600" lon="37.3600340">
    <ele>4230.5</ele>
    <time>2026-06-22T10:14:38Z</time>
   </trkpt>
   <trkpt lat="-3.1089570" lon="37.3600350">
    <ele>4230.6</ele>
    <time>2026-06-22T10:14:39Z</time>
   </trkpt>
   <trkpt lat="-3.1089520" lon="37.3600360">
    <ele>4230.7</ele>
    <time>2026-06-22T10:14:40Z</time>
   </trkpt>
   <trkpt lat="-3.1089510" lon="37.3600380">
    <ele>4230.8</ele>
    <time>2026-06-22T10:14:41Z</time>
   </trkpt>
   <trkpt lat="-3.1089460" lon="37.3600410">
    <ele>4231.0</ele>
    <time>2026-06-22T10:14:42Z</time>
   </trkpt>
   <trkpt lat="-3.1089480" lon="37.3600460">
    <ele>4231.1</ele>
    <time>2026-06-22T10:14:43Z</time>
   </trkpt>
   <trkpt lat="-3.1089430" lon="37.3600520">
    <ele>4231.3</ele>
    <time>2026-06-22T10:14:44Z</time>
   </trkpt>
   <trkpt lat="-3.1089460" lon="37.3600540">
    <ele>4231.4</ele>
    <time>2026-06-22T10:14:45Z</time>
   </trkpt>
   <trkpt lat="-3.1089450" lon="37.3600580">
    <ele>4231.5</ele>
    <time>2026-06-22T10:14:46Z</time>
   </trkpt>
   <trkpt lat="-3.1089430" lon="37.3600600">
    <ele>4231.6</ele>
    <time>2026-06-22T10:14:47Z</time>
   </trkpt>
   <trkpt lat="-3.1089430" lon="37.3600640">
    <ele>4231.7</ele>
    <time>2026-06-22T10:14:48Z</time>
   </trkpt>
   <trkpt lat="-3.1089430" lon="37.3600680">
    <ele>4231.8</ele>
    <time>2026-06-22T10:14:49Z</time>
   </trkpt>
   <trkpt lat="-3.1089430" lon="37.3600720">
    <ele>4232.0</ele>
    <time>2026-06-22T10:14:50Z</time>
   </trkpt>
   <trkpt lat="-3.1089430" lon="37.3600730">
    <ele>4232.0</ele>
    <time>2026-06-22T10:14:51Z</time>
   </trkpt>
   <trkpt lat="-3.1089420" lon="37.3600790">
    <ele>4232.2</ele>
    <time>2026-06-22T10:14:52Z</time>
   </trkpt>
   <trkpt lat="-3.1089420" lon="37.3600800">
    <ele>4232.2</ele>
    <time>2026-06-22T10:14:53Z</time>
   </trkpt>
   <trkpt lat="-3.1089400" lon="37.3600850">
    <ele>4232.3</ele>
    <time>2026-06-22T10:14:54Z</time>
   </trkpt>
   <trkpt lat="-3.1089410" lon="37.3600880">
    <ele>4232.4</ele>
    <time>2026-06-22T10:14:55Z</time>
   </trkpt>
   <trkpt lat="-3.1089400" lon="37.3600930">
    <ele>4232.6</ele>
    <time>2026-06-22T10:14:56Z</time>
   </trkpt>
   <trkpt lat="-3.1089390" lon="37.3600970">
    <ele>4232.7</ele>
    <time>2026-06-22T10:14:57Z</time>
   </trkpt>
   <trkpt lat="-3.1089380" lon="37.3600990">
    <ele>4232.7</ele>
    <time>2026-06-22T10:14:58Z</time>
   </trkpt>
   <trkpt lat="-3.1089340" lon="37.3601030">
    <ele>4232.9</ele>
    <time>2026-06-22T10:14:59Z</time>
   </trkpt>
   <trkpt lat="-3.1089320" lon="37.3601010">
    <ele>4233.0</ele>
    <time>2026-06-22T10:15:00Z</time>
   </trkpt>
   <trkpt lat="-3.1089300" lon="37.3601060">
    <ele>4233.1</ele>
    <time>2026-06-22T10:15:01Z</time>
   </trkpt>
   <trkpt lat="-3.1089290" lon="37.3601030">
    <ele>4233.2</ele>
    <time>2026-06-22T10:15:02Z</time>
   </trkpt>
   <trkpt lat="-3.1089240" lon="37.3601030">
    <ele>4233.4</ele>
    <time>2026-06-22T10:15:03Z</time>
   </trkpt>
   <trkpt lat="-3.1089240" lon="37.3601040">
    <ele>4233.4</ele>
    <time>2026-06-22T10:15:04Z</time>
   </trkpt>
   <trkpt lat="-3.1089190" lon="37.3601050">
    <ele>4233.5</ele>
    <time>2026-06-22T10:15:05Z</time>
   </trkpt>
   <trkpt lat="-3.1089160" lon="37.3601040">
    <ele>4233.6</ele>
    <time>2026-06-22T10:15:06Z</time>
   </trkpt>
   <trkpt lat="-3.1089140" lon="37.3601070">
    <ele>4233.7</ele>
    <time>2026-06-22T10:15:07Z</time>
   </trkpt>
   <trkpt lat="-3.1089100" lon="37.3601080">
    <ele>4233.9</ele>
    <time>2026-06-22T10:15:08Z</time>
   </trkpt>
   <trkpt lat="-3.1089070" lon="37.3601090">
    <ele>4233.9</ele>
    <time>2026-06-22T10:15:09Z</time>
   </trkpt>
   <trkpt lat="-3.1089060" lon="37.3601140">
    <ele>4234.1</ele>
    <time>2026-06-22T10:15:10Z</time>
   </trkpt>
   <trkpt lat="-3.1089060" lon="37.3601170">
    <ele>4234.2</ele>
    <time>2026-06-22T10:15:11Z</time>
   </trkpt>
   <trkpt lat="-3.1089080" lon="37.3601160">
    <ele>4234.2</ele>
    <time>2026-06-22T10:15:12Z</time>
   </trkpt>
   <trkpt lat="-3.1089050" lon="37.3601180">
    <ele>4234.3</ele>
    <time>2026-06-22T10:15:13Z</time>
   </trkpt>
   <trkpt lat="-3.1089040" lon="37.3601210">
    <ele>4234.4</ele>
    <time>2026-06-22T10:15:14Z</time>
   </trkpt>
   <trkpt lat="-3.1089000" lon="37.3601190">
    <ele>4234.6</ele>
    <time>2026-06-22T10:15:15Z</time>
   </trkpt>
   <trkpt lat="-3.1088990" lon="37.3601190">
    <ele>4234.6</ele>
    <time>2026-06-22T10:15:16Z</time>
   </trkpt>
   <trkpt lat="-3.1088950" lon="37.3601170">
    <ele>4234.7</ele>
    <time>2026-06-22T10:15:17Z</time>
   </trkpt>
   <trkpt lat="-3.1088910" lon="37.3601190">
    <ele>4234.9</ele>
    <time>2026-06-22T10:15:18Z</time>
   </trkpt>
   <trkpt lat="-3.1088890" lon="37.3601200">
    <ele>4234.9</ele>
    <time>2026-06-22T10:15:19Z</time>
   </trkpt>
   <trkpt lat="-3.1088860" lon="37.3601220">
    <ele>4235.0</ele>
    <time>2026-06-22T10:15:20Z</time>
   </trkpt>
   <trkpt lat="-3.1088850" lon="37.3601260">
    <ele>4235.1</ele>
    <time>2026-06-22T10:15:21Z</time>
   </trkpt>
   <trkpt lat="-3.1088820" lon="37.3601270">
    <ele>4235.2</ele>
    <time>2026-06-22T10:15:22Z</time>
   </trkpt>
   <trkpt lat="-3.1088790" lon="37.3601270">
    <ele>4235.3</ele>
    <time>2026-06-22T10:15:23Z</time>
   </trkpt>
   <trkpt lat="-3.1088770" lon="37.3601260">
    <ele>4235.4</ele>
    <time>2026-06-22T10:15:24Z</time>
   </trkpt>
   <trkpt lat="-3.1088730" lon="37.3601290">
    <ele>4235.5</ele>
    <time>2026-06-22T10:15:25Z</time>
   </trkpt>
   <trkpt lat="-3.1088690" lon="37.3601280">
    <ele>4235.6</ele>
    <time>2026-06-22T10:15:26Z</time>
   </trkpt>
   <trkpt lat="-3.1088660" lon="37.3601300">
    <ele>4235.7</ele>
    <time>2026-06-22T10:15:27Z</time>
   </trkpt>
   <trkpt lat="-3.1088630" lon="37.3601300">
    <ele>4235.8</ele>
    <time>2026-06-22T10:15:29Z</time>
   </trkpt>
   <trkpt lat="-3.1088580" lon="37.3601320">
    <ele>4236.0</ele>
    <time>2026-06-22T10:15:30Z</time>
   </trkpt>
   <trkpt lat="-3.1088540" lon="37.3601310">
    <ele>4236.1</ele>
    <time>2026-06-22T10:15:31Z</time>
   </trkpt>
   <trkpt lat="-3.1088490" lon="37.3601310">
    <ele>4236.2</ele>
    <time>2026-06-22T10:15:32Z</time>
   </trkpt>
   <trkpt lat="-3.1088480" lon="37.3601310">
    <ele>4236.3</ele>
    <time>2026-06-22T10:15:33Z</time>
   </trkpt>
   <trkpt lat="-3.1088440" lon="37.3601370">
    <ele>4236.5</ele>
    <time>2026-06-22T10:15:34Z</time>
   </trkpt>
   <trkpt lat="-3.1088420" lon="37.3601430">
    <ele>4236.7</ele>
    <time>2026-06-22T10:15:35Z</time>
   </trkpt>
   <trkpt lat="-3.1088410" lon="37.3601470">
    <ele>4236.8</ele>
    <time>2026-06-22T10:15:36Z</time>
   </trkpt>
   <trkpt lat="-3.1088400" lon="37.3601500">
    <ele>4236.9</ele>
    <time>2026-06-22T10:15:37Z</time>
   </trkpt>
   <trkpt lat="-3.1088400" lon="37.3601530">
    <ele>4237.0</ele>
    <time>2026-06-22T10:15:38Z</time>
   </trkpt>
   <trkpt lat="-3.1088380" lon="37.3601560">
    <ele>4237.1</ele>
    <time>2026-06-22T10:15:39Z</time>
   </trkpt>
   <trkpt lat="-3.1088370" lon="37.3601560">
    <ele>4237.1</ele>
    <time>2026-06-22T10:15:40Z</time>
   </trkpt>
   <trkpt lat="-3.1088340" lon="37.3601600">
    <ele>4237.2</ele>
    <time>2026-06-22T10:15:41Z</time>
   </trkpt>
   <trkpt lat="-3.1088320" lon="37.3601630">
    <ele>4237.3</ele>
    <time>2026-06-22T10:15:42Z</time>
   </trkpt>
   <trkpt lat="-3.1088300" lon="37.3601650">
    <ele>4237.4</ele>
    <time>2026-06-22T10:15:43Z</time>
   </trkpt>
   <trkpt lat="-3.1088290" lon="37.3601680">
    <ele>4237.5</ele>
    <time>2026-06-22T10:15:44Z</time>
   </trkpt>
   <trkpt lat="-3.1088280" lon="37.3601700">
    <ele>4237.6</ele>
    <time>2026-06-22T10:15:45Z</time>
   </trkpt>
   <trkpt lat="-3.1088260" lon="37.3601730">
    <ele>4237.7</ele>
    <time>2026-06-22T10:15:46Z</time>
   </trkpt>
   <trkpt lat="-3.1088250" lon="37.3601770">
    <ele>4237.8</ele>
    <time>2026-06-22T10:15:47Z</time>
   </trkpt>
   <trkpt lat="-3.1088230" lon="37.3601780">
    <ele>4237.9</ele>
    <time>2026-06-22T10:15:48Z</time>
   </trkpt>
   <trkpt lat="-3.1088220" lon="37.3601820">
    <ele>4238.0</ele>
    <time>2026-06-22T10:15:49Z</time>
   </trkpt>
   <trkpt lat="-3.1088190" lon="37.3601870">
    <ele>4238.1</ele>
    <time>2026-06-22T10:15:50Z</time>
   </trkpt>
   <trkpt lat="-3.1088190" lon="37.3601890">
    <ele>4238.2</ele>
    <time>2026-06-22T10:15:51Z</time>
   </trkpt>
   <trkpt lat="-3.1088170" lon="37.3601910">
    <ele>4238.3</ele>
    <time>2026-06-22T10:15:52Z</time>
   </trkpt>
   <trkpt lat="-3.1088150" lon="37.3601950">
    <ele>4238.4</ele>
    <time>2026-06-22T10:15:53Z</time>
   </trkpt>
   <trkpt lat="-3.1088160" lon="37.3601970">
    <ele>4238.5</ele>
    <time>2026-06-22T10:15:54Z</time>
   </trkpt>
   <trkpt lat="-3.1088140" lon="37.3601980">
    <ele>4238.5</ele>
    <time>2026-06-22T10:15:55Z</time>
   </trkpt>
   <trkpt lat="-3.1088120" lon="37.3601990">
    <ele>4238.6</ele>
    <time>2026-06-22T10:15:56Z</time>
   </trkpt>
   <trkpt lat="-3.1088090" lon="37.3601980">
    <ele>4238.7</ele>
    <time>2026-06-22T10:15:57Z</time>
   </trkpt>
   <trkpt lat="-3.1088070" lon="37.3602000">
    <ele>4238.8</ele>
    <time>2026-06-22T10:15:58Z</time>
   </trkpt>
   <trkpt lat="-3.1088020" lon="37.3602010">
    <ele>4238.9</ele>
    <time>2026-06-22T10:15:59Z</time>
   </trkpt>
   <trkpt lat="-3.1088000" lon="37.3602000">
    <ele>4239.0</ele>
    <time>2026-06-22T10:16:00Z</time>
   </trkpt>
   <trkpt lat="-3.1087980" lon="37.3602000">
    <ele>4239.0</ele>
    <time>2026-06-22T10:16:01Z</time>
   </trkpt>
   <trkpt lat="-3.1087920" lon="37.3602010">
    <ele>4239.2</ele>
    <time>2026-06-22T10:16:02Z</time>
   </trkpt>
   <trkpt lat="-3.1087910" lon="37.3602020">
    <ele>4239.3</ele>
    <time>2026-06-22T10:16:03Z</time>
   </trkpt>
   <trkpt lat="-3.1087900" lon="37.3602030">
    <ele>4239.3</ele>
    <time>2026-06-22T10:16:04Z</time>
   </trkpt>
   <trkpt lat="-3.1087880" lon="37.3602060">
    <ele>4239.4</ele>
    <time>2026-06-22T10:16:05Z</time>
   </trkpt>
   <trkpt lat="-3.1087880" lon="37.3602080">
    <ele>4239.5</ele>
    <time>2026-06-22T10:16:06Z</time>
   </trkpt>
   <trkpt lat="-3.1087860" lon="37.3602110">
    <ele>4239.6</ele>
    <time>2026-06-22T10:16:07Z</time>
   </trkpt>
   <trkpt lat="-3.1087840" lon="37.3602160">
    <ele>4239.7</ele>
    <time>2026-06-22T10:16:08Z</time>
   </trkpt>
   <trkpt lat="-3.1087820" lon="37.3602190">
    <ele>4239.8</ele>
    <time>2026-06-22T10:16:09Z</time>
   </trkpt>
   <trkpt lat="-3.1087810" lon="37.3602200">
    <ele>4239.9</ele>
    <time>2026-06-22T10:16:10Z</time>
   </trkpt>
   <trkpt lat="-3.1087790" lon="37.3602250">
    <ele>4240.0</ele>
    <time>2026-06-22T10:16:11Z</time>
   </trkpt>
   <trkpt lat="-3.1087770" lon="37.3602260">
    <ele>4240.1</ele>
    <time>2026-06-22T10:16:12Z</time>
   </trkpt>
   <trkpt lat="-3.1087750" lon="37.3602280">
    <ele>4240.2</ele>
    <time>2026-06-22T10:16:13Z</time>
   </trkpt>
   <trkpt lat="-3.1087740" lon="37.3602300">
    <ele>4240.2</ele>
    <time>2026-06-22T10:16:14Z</time>
   </trkpt>
   <trkpt lat="-3.1087740" lon="37.3602330">
    <ele>4240.3</ele>
    <time>2026-06-22T10:16:15Z</time>
   </trkpt>
   <trkpt lat="-3.1087720" lon="37.3602370">
    <ele>4240.4</ele>
    <time>2026-06-22T10:16:16Z</time>
   </trkpt>
   <trkpt lat="-3.1087700" lon="37.3602380">
    <ele>4240.5</ele>
    <time>2026-06-22T10:16:17Z</time>
   </trkpt>
   <trkpt lat="-3.1087690" lon="37.3602420">
    <ele>4240.6</ele>
    <time>2026-06-22T10:16:18Z</time>
   </trkpt>
   <trkpt lat="-3.1087660" lon="37.3602410">
    <ele>4240.7</ele>
    <time>2026-06-22T10:16:19Z</time>
   </trkpt>
   <trkpt lat="-3.1087660" lon="37.3602440">
    <ele>4240.8</ele>
    <time>2026-06-22T10:16:20Z</time>
   </trkpt>
   <trkpt lat="-3.1087630" lon="37.3602460">
    <ele>4240.9</ele>
    <time>2026-06-22T10:16:21Z</time>
   </trkpt>
   <trkpt lat="-3.1087620" lon="37.3602500">
    <ele>4241.0</ele>
    <time>2026-06-22T10:16:22Z</time>
   </trkpt>
   <trkpt lat="-3.1087610" lon="37.3602510">
    <ele>4241.1</ele>
    <time>2026-06-22T10:16:23Z</time>
   </trkpt>
   <trkpt lat="-3.1087600" lon="37.3602550">
    <ele>4241.2</ele>
    <time>2026-06-22T10:16:24Z</time>
   </trkpt>
   <trkpt lat="-3.1087570" lon="37.3602580">
    <ele>4241.3</ele>
    <time>2026-06-22T10:16:25Z</time>
   </trkpt>
   <trkpt lat="-3.1087550" lon="37.3602600">
    <ele>4241.4</ele>
    <time>2026-06-22T10:16:26Z</time>
   </trkpt>
   <trkpt lat="-3.1087540" lon="37.3602610">
    <ele>4241.4</ele>
    <time>2026-06-22T10:16:27Z</time>
   </trkpt>
   <trkpt lat="-3.1087510" lon="37.3602620">
    <ele>4241.5</ele>
    <time>2026-06-22T10:16:28Z</time>
   </trkpt>
   <trkpt lat="-3.1087480" lon="37.3602630">
    <ele>4241.6</ele>
    <time>2026-06-22T10:16:29Z</time>
   </trkpt>
   <trkpt lat="-3.1087450" lon="37.3602640">
    <ele>4241.7</ele>
    <time>2026-06-22T10:16:30Z</time>
   </trkpt>
   <trkpt lat="-3.1087420" lon="37.3602660">
    <ele>4241.8</ele>
    <time>2026-06-22T10:16:31Z</time>
   </trkpt>
   <trkpt lat="-3.1087380" lon="37.3602670">
    <ele>4241.9</ele>
    <time>2026-06-22T10:16:32Z</time>
   </trkpt>
   <trkpt lat="-3.1087350" lon="37.3602720">
    <ele>4242.1</ele>
    <time>2026-06-22T10:16:33Z</time>
   </trkpt>
   <trkpt lat="-3.1087310" lon="37.3602700">
    <ele>4242.2</ele>
    <time>2026-06-22T10:16:34Z</time>
   </trkpt>
   <trkpt lat="-3.1087300" lon="37.3602740">
    <ele>4242.3</ele>
    <time>2026-06-22T10:16:35Z</time>
   </trkpt>
   <trkpt lat="-3.1087280" lon="37.3602770">
    <ele>4242.4</ele>
    <time>2026-06-22T10:16:36Z</time>
   </trkpt>
   <trkpt lat="-3.1087260" lon="37.3602790">
    <ele>4242.5</ele>
    <time>2026-06-22T10:16:37Z</time>
   </trkpt>
   <trkpt lat="-3.1087240" lon="37.3602840">
    <ele>4242.7</ele>
    <time>2026-06-22T10:16:38Z</time>
   </trkpt>
   <trkpt lat="-3.1087210" lon="37.3602870">
    <ele>4242.8</ele>
    <time>2026-06-22T10:16:39Z</time>
   </trkpt>
   <trkpt lat="-3.1087200" lon="37.3602900">
    <ele>4242.9</ele>
    <time>2026-06-22T10:16:40Z</time>
   </trkpt>
   <trkpt lat="-3.1087200" lon="37.3602930">
    <ele>4242.9</ele>
    <time>2026-06-22T10:16:41Z</time>
   </trkpt>
   <trkpt lat="-3.1087180" lon="37.3602980">
    <ele>4243.1</ele>
    <time>2026-06-22T10:16:42Z</time>
   </trkpt>
   <trkpt lat="-3.1087170" lon="37.3603000">
    <ele>4243.2</ele>
    <time>2026-06-22T10:16:43Z</time>
   </trkpt>
   <trkpt lat="-3.1087150" lon="37.3603020">
    <ele>4243.2</ele>
    <time>2026-06-22T10:16:44Z</time>
   </trkpt>
   <trkpt lat="-3.1087130" lon="37.3603050">
    <ele>4243.3</ele>
    <time>2026-06-22T10:16:45Z</time>
   </trkpt>
   <trkpt lat="-3.1087110" lon="37.3603070">
    <ele>4243.4</ele>
    <time>2026-06-22T10:16:46Z</time>
   </trkpt>
   <trkpt lat="-3.1087080" lon="37.3603120">
    <ele>4243.6</ele>
    <time>2026-06-22T10:16:47Z</time>
   </trkpt>
   <trkpt lat="-3.1087060" lon="37.3603120">
    <ele>4243.6</ele>
    <time>2026-06-22T10:16:48Z</time>
   </trkpt>
   <trkpt lat="-3.1087050" lon="37.3603170">
    <ele>4243.8</ele>
    <time>2026-06-22T10:16:49Z</time>
   </trkpt>
   <trkpt lat="-3.1087020" lon="37.3603210">
    <ele>4243.9</ele>
    <time>2026-06-22T10:16:50Z</time>
   </trkpt>
   <trkpt lat="-3.1087010" lon="37.3603260">
    <ele>4244.1</ele>
    <time>2026-06-22T10:16:51Z</time>
   </trkpt>
   <trkpt lat="-3.1087000" lon="37.3603310">
    <ele>4244.2</ele>
    <time>2026-06-22T10:16:52Z</time>
   </trkpt>
   <trkpt lat="-3.1086990" lon="37.3603330">
    <ele>4244.3</ele>
    <time>2026-06-22T10:16:53Z</time>
   </trkpt>
   <trkpt lat="-3.1086980" lon="37.3603370">
    <ele>4244.4</ele>
    <time>2026-06-22T10:16:54Z</time>
   </trkpt>
   <trkpt lat="-3.1086960" lon="37.3603390">
    <ele>4244.5</ele>
    <time>2026-06-22T10:16:55Z</time>
   </trkpt>
   <trkpt lat="-3.1086930" lon="37.3603410">
    <ele>4244.6</ele>
    <time>2026-06-22T10:16:56Z</time>
   </trkpt>
   <trkpt lat="-3.1086900" lon="37.3603400">
    <ele>4244.7</ele>
    <time>2026-06-22T10:16:57Z</time>
   </trkpt>
   <trkpt lat="-3.1086880" lon="37.3603390">
    <ele>4244.7</ele>
    <time>2026-06-22T10:16:58Z</time>
   </trkpt>
   <trkpt lat="-3.1086870" lon="37.3603380">
    <ele>4244.7</ele>
    <time>2026-06-22T10:16:59Z</time>
   </trkpt>
   <trkpt lat="-3.1086840" lon="37.3603360">
    <ele>4244.8</ele>
    <time>2026-06-22T10:17:00Z</time>
   </trkpt>
   <trkpt lat="-3.1086810" lon="37.3603330">
    <ele>4245.0</ele>
    <time>2026-06-22T10:17:01Z</time>
   </trkpt>
   <trkpt lat="-3.1086780" lon="37.3603330">
    <ele>4245.0</ele>
    <time>2026-06-22T10:17:02Z</time>
   </trkpt>
   <trkpt lat="-3.1086750" lon="37.3603320">
    <ele>4245.1</ele>
    <time>2026-06-22T10:17:03Z</time>
   </trkpt>
   <trkpt lat="-3.1086730" lon="37.3603330">
    <ele>4245.2</ele>
    <time>2026-06-22T10:17:04Z</time>
   </trkpt>
   <trkpt lat="-3.1086720" lon="37.3603360">
    <ele>4245.3</ele>
    <time>2026-06-22T10:17:05Z</time>
   </trkpt>
   <trkpt lat="-3.1086670" lon="37.3603360">
    <ele>4245.4</ele>
    <time>2026-06-22T10:17:06Z</time>
   </trkpt>
   <trkpt lat="-3.1086590" lon="37.3603370">
    <ele>4245.6</ele>
    <time>2026-06-22T10:17:07Z</time>
   </trkpt>
   <trkpt lat="-3.1086570" lon="37.3603340">
    <ele>4245.7</ele>
    <time>2026-06-22T10:17:08Z</time>
   </trkpt>
   <trkpt lat="-3.1086560" lon="37.3603300">
    <ele>4245.8</ele>
    <time>2026-06-22T10:17:09Z</time>
   </trkpt>
   <trkpt lat="-3.1086520" lon="37.3603300">
    <ele>4245.9</ele>
    <time>2026-06-22T10:17:10Z</time>
   </trkpt>
   <trkpt lat="-3.1086480" lon="37.3603300">
    <ele>4246.0</ele>
    <time>2026-06-22T10:17:11Z</time>
   </trkpt>
   <trkpt lat="-3.1086440" lon="37.3603330">
    <ele>4246.2</ele>
    <time>2026-06-22T10:17:12Z</time>
   </trkpt>
   <trkpt lat="-3.1086400" lon="37.3603340">
    <ele>4246.3</ele>
    <time>2026-06-22T10:17:13Z</time>
   </trkpt>
   <trkpt lat="-3.1086390" lon="37.3603380">
    <ele>4246.4</ele>
    <time>2026-06-22T10:17:14Z</time>
   </trkpt>
   <trkpt lat="-3.1086380" lon="37.3603430">
    <ele>4246.5</ele>
    <time>2026-06-22T10:17:15Z</time>
   </trkpt>
   <trkpt lat="-3.1086370" lon="37.3603460">
    <ele>4246.6</ele>
    <time>2026-06-22T10:17:16Z</time>
   </trkpt>
   <trkpt lat="-3.1086380" lon="37.3603470">
    <ele>4246.6</ele>
    <time>2026-06-22T10:17:17Z</time>
   </trkpt>
   <trkpt lat="-3.1086370" lon="37.3603510">
    <ele>4246.7</ele>
    <time>2026-06-22T10:17:18Z</time>
   </trkpt>
   <trkpt lat="-3.1086360" lon="37.3603510">
    <ele>4246.8</ele>
    <time>2026-06-22T10:17:19Z</time>
   </trkpt>
   <trkpt lat="-3.1086330" lon="37.3603540">
    <ele>4246.9</ele>
    <time>2026-06-22T10:17:20Z</time>
   </trkpt>
   <trkpt lat="-3.1086280" lon="37.3603540">
    <ele>4247.0</ele>
    <time>2026-06-22T10:17:21Z</time>
   </trkpt>
   <trkpt lat="-3.1086260" lon="37.3603570">
    <ele>4247.1</ele>
    <time>2026-06-22T10:17:22Z</time>
   </trkpt>
   <trkpt lat="-3.1086220" lon="37.3603600">
    <ele>4247.2</ele>
    <time>2026-06-22T10:17:23Z</time>
   </trkpt>
   <trkpt lat="-3.1086200" lon="37.3603630">
    <ele>4247.3</ele>
    <time>2026-06-22T10:17:24Z</time>
   </trkpt>
   <trkpt lat="-3.1086170" lon="37.3603660">
    <ele>4247.4</ele>
    <time>2026-06-22T10:17:25Z</time>
   </trkpt>
   <trkpt lat="-3.1086130" lon="37.3603650">
    <ele>4247.5</ele>
    <time>2026-06-22T10:17:26Z</time>
   </trkpt>
   <trkpt lat="-3.1086110" lon="37.3603660">
    <ele>4247.6</ele>
    <time>2026-06-22T10:17:27Z</time>
   </trkpt>
   <trkpt lat="-3.1086070" lon="37.3603670">
    <ele>4247.7</ele>
    <time>2026-06-22T10:17:28Z</time>
   </trkpt>
   <trkpt lat="-3.1086050" lon="37.3603660">
    <ele>4247.8</ele>
    <time>2026-06-22T10:17:29Z</time>
   </trkpt>
   <trkpt lat="-3.1086020" lon="37.3603690">
    <ele>4247.9</ele>
    <time>2026-06-22T10:17:30Z</time>
   </trkpt>
   <trkpt lat="-3.1085980" lon="37.3603790">
    <ele>4248.2</ele>
    <time>2026-06-22T10:17:31Z</time>
   </trkpt>
   <trkpt lat="-3.1086000" lon="37.3603790">
    <ele>4248.2</ele>
    <time>2026-06-22T10:17:32Z</time>
   </trkpt>
   <trkpt lat="-3.1085990" lon="37.3603820">
    <ele>4248.3</ele>
    <time>2026-06-22T10:17:34Z</time>
   </trkpt>
   <trkpt lat="-3.1085970" lon="37.3603840">
    <ele>4248.4</ele>
    <time>2026-06-22T10:17:35Z</time>
   </trkpt>
   <trkpt lat="-3.1085950" lon="37.3603850">
    <ele>4248.4</ele>
    <time>2026-06-22T10:17:36Z</time>
   </trkpt>
   <trkpt lat="-3.1085930" lon="37.3603850">
    <ele>4248.5</ele>
    <time>2026-06-22T10:17:37Z</time>
   </trkpt>
   <trkpt lat="-3.1085880" lon="37.3603830">
    <ele>4248.6</ele>
    <time>2026-06-22T10:17:38Z</time>
   </trkpt>
   <trkpt lat="-3.1085870" lon="37.3603830">
    <ele>4248.6</ele>
    <time>2026-06-22T10:17:39Z</time>
   </trkpt>
   <trkpt lat="-3.1085840" lon="37.3603800">
    <ele>4248.7</ele>
    <time>2026-06-22T10:17:40Z</time>
   </trkpt>
   <trkpt lat="-3.1085820" lon="37.3603800">
    <ele>4248.8</ele>
    <time>2026-06-22T10:17:41Z</time>
   </trkpt>
   <trkpt lat="-3.1085780" lon="37.3603810">
    <ele>4248.9</ele>
    <time>2026-06-22T10:17:42Z</time>
   </trkpt>
   <trkpt lat="-3.1085730" lon="37.3603820">
    <ele>4249.0</ele>
    <time>2026-06-22T10:17:43Z</time>
   </trkpt>
   <trkpt lat="-3.1085690" lon="37.3603850">
    <ele>4249.2</ele>
    <time>2026-06-22T10:17:44Z</time>
   </trkpt>
   <trkpt lat="-3.1085680" lon="37.3603890">
    <ele>4249.3</ele>
    <time>2026-06-22T10:17:45Z</time>
   </trkpt>
   <trkpt lat="-3.1085670" lon="37.3603920">
    <ele>4249.3</ele>
    <time>2026-06-22T10:17:46Z</time>
   </trkpt>
   <trkpt lat="-3.1085640" lon="37.3603980">
    <ele>4249.5</ele>
    <time>2026-06-22T10:17:47Z</time>
   </trkpt>
   <trkpt lat="-3.1085660" lon="37.3603980">
    <ele>4249.6</ele>
    <time>2026-06-22T10:17:48Z</time>
   </trkpt>
   <trkpt lat="-3.1085670" lon="37.3604000">
    <ele>4249.6</ele>
    <time>2026-06-22T10:17:49Z</time>
   </trkpt>
   <trkpt lat="-3.1085690" lon="37.3604020">
    <ele>4249.7</ele>
    <time>2026-06-22T10:17:50Z</time>
   </trkpt>
   <trkpt lat="-3.1085690" lon="37.3604050">
    <ele>4249.8</ele>
    <time>2026-06-22T10:17:51Z</time>
   </trkpt>
   <trkpt lat="-3.1085700" lon="37.3604050">
    <ele>4249.8</ele>
    <time>2026-06-22T10:17:52Z</time>
   </trkpt>
   <trkpt lat="-3.1085700" lon="37.3604070">
    <ele>4249.9</ele>
    <time>2026-06-22T10:17:53Z</time>
   </trkpt>
   <trkpt lat="-3.1085700" lon="37.3604110">
    <ele>4250.0</ele>
    <time>2026-06-22T10:17:54Z</time>
   </trkpt>
   <trkpt lat="-3.1085700" lon="37.3604160">
    <ele>4250.1</ele>
    <time>2026-06-22T10:17:55Z</time>
   </trkpt>
   <trkpt lat="-3.1085700" lon="37.3604200">
    <ele>4250.2</ele>
    <time>2026-06-22T10:17:56Z</time>
   </trkpt>
   <trkpt lat="-3.1085710" lon="37.3604190">
    <ele>4250.2</ele>
    <time>2026-06-22T10:17:57Z</time>
   </trkpt>
   <trkpt lat="-3.1085680" lon="37.3604250">
    <ele>4250.4</ele>
    <time>2026-06-22T10:17:58Z</time>
   </trkpt>
   <trkpt lat="-3.1085650" lon="37.3604270">
    <ele>4250.5</ele>
    <time>2026-06-22T10:17:59Z</time>
   </trkpt>
   <trkpt lat="-3.1085630" lon="37.3604270">
    <ele>4250.5</ele>
    <time>2026-06-22T10:18:00Z</time>
   </trkpt>
   <trkpt lat="-3.1085600" lon="37.3604280">
    <ele>4250.6</ele>
    <time>2026-06-22T10:18:01Z</time>
   </trkpt>
   <trkpt lat="-3.1085560" lon="37.3604260">
    <ele>4250.7</ele>
    <time>2026-06-22T10:18:02Z</time>
   </trkpt>
   <trkpt lat="-3.1085530" lon="37.3604270">
    <ele>4250.8</ele>
    <time>2026-06-22T10:18:03Z</time>
   </trkpt>
   <trkpt lat="-3.1085490" lon="37.3604270">
    <ele>4250.9</ele>
    <time>2026-06-22T10:18:04Z</time>
   </trkpt>
   <trkpt lat="-3.1085450" lon="37.3604290">
    <ele>4251.0</ele>
    <time>2026-06-22T10:18:05Z</time>
   </trkpt>
   <trkpt lat="-3.1085420" lon="37.3604280">
    <ele>4251.1</ele>
    <time>2026-06-22T10:18:06Z</time>
   </trkpt>
   <trkpt lat="-3.1085400" lon="37.3604260">
    <ele>4251.2</ele>
    <time>2026-06-22T10:18:07Z</time>
   </trkpt>
   <trkpt lat="-3.1085370" lon="37.3604260">
    <ele>4251.3</ele>
    <time>2026-06-22T10:18:08Z</time>
   </trkpt>
   <trkpt lat="-3.1085350" lon="37.3604230">
    <ele>4251.4</ele>
    <time>2026-06-22T10:18:09Z</time>
   </trkpt>
   <trkpt lat="-3.1085320" lon="37.3604210">
    <ele>4251.4</ele>
    <time>2026-06-22T10:18:10Z</time>
   </trkpt>
   <trkpt lat="-3.1085280" lon="37.3604190">
    <ele>4251.6</ele>
    <time>2026-06-22T10:18:11Z</time>
   </trkpt>
   <trkpt lat="-3.1085240" lon="37.3604170">
    <ele>4251.7</ele>
    <time>2026-06-22T10:18:12Z</time>
   </trkpt>
   <trkpt lat="-3.1085200" lon="37.3604170">
    <ele>4251.8</ele>
    <time>2026-06-22T10:18:13Z</time>
   </trkpt>
   <trkpt lat="-3.1085150" lon="37.3604220">
    <ele>4252.0</ele>
    <time>2026-06-22T10:18:14Z</time>
   </trkpt>
   <trkpt lat="-3.1085110" lon="37.3604180">
    <ele>4252.1</ele>
    <time>2026-06-22T10:18:15Z</time>
   </trkpt>
   <trkpt lat="-3.1085080" lon="37.3604140">
    <ele>4252.2</ele>
    <time>2026-06-22T10:18:16Z</time>
   </trkpt>
   <trkpt lat="-3.1085070" lon="37.3604150">
    <ele>4252.3</ele>
    <time>2026-06-22T10:18:17Z</time>
   </trkpt>
   <trkpt lat="-3.1085060" lon="37.3604170">
    <ele>4252.3</ele>
    <time>2026-06-22T10:18:18Z</time>
   </trkpt>
   <trkpt lat="-3.1085060" lon="37.3604160">
    <ele>4252.4</ele>
    <time>2026-06-22T10:18:19Z</time>
   </trkpt>
   <trkpt lat="-3.1085040" lon="37.3604160">
    <ele>4252.4</ele>
    <time>2026-06-22T10:18:20Z</time>
   </trkpt>
   <trkpt lat="-3.1085030" lon="37.3604160">
    <ele>4252.4</ele>
    <time>2026-06-22T10:18:21Z</time>
   </trkpt>
   <trkpt lat="-3.1085030" lon="37.3604160">
    <ele>4252.4</ele>
    <time>2026-06-22T10:18:22Z</time>
   </trkpt>
   <trkpt lat="-3.1085030" lon="37.3604170">
    <ele>4252.5</ele>
    <time>2026-06-22T10:18:23Z</time>
   </trkpt>
   <trkpt lat="-3.1085040" lon="37.3604160">
    <ele>4252.5</ele>
    <time>2026-06-22T10:18:24Z</time>
   </trkpt>
   <trkpt lat="-3.1085030" lon="37.3604180">
    <ele>4252.5</ele>
    <time>2026-06-22T10:18:25Z</time>
   </trkpt>
   <trkpt lat="-3.1085040" lon="37.3604160">
    <ele>4252.6</ele>
    <time>2026-06-22T10:18:26Z</time>
   </trkpt>
   <trkpt lat="-3.1085040" lon="37.3604170">
    <ele>4252.6</ele>
    <time>2026-06-22T10:18:27Z</time>
   </trkpt>
   <trkpt lat="-3.1085040" lon="37.3604170">
    <ele>4252.6</ele>
    <time>2026-06-22T10:18:28Z</time>
   </trkpt>
   <trkpt lat="-3.1085040" lon="37.3604160">
    <ele>4252.7</ele>
    <time>2026-06-22T10:18:29Z</time>
   </trkpt>
   <trkpt lat="-3.1085050" lon="37.3604170">
    <ele>4252.7</ele>
    <time>2026-06-22T10:18:30Z</time>
   </trkpt>
   <trkpt lat="-3.1085040" lon="37.3604170">
    <ele>4252.7</ele>
    <time>2026-06-22T10:18:31Z</time>
   </trkpt>
   <trkpt lat="-3.1085040" lon="37.3604170">
    <ele>4252.7</ele>
    <time>2026-06-22T10:18:32Z</time>
   </trkpt>
   <trkpt lat="-3.1085040" lon="37.3604160">
    <ele>4252.7</ele>
    <time>2026-06-22T10:18:33Z</time>
   </trkpt>
   <trkpt lat="-3.1085040" lon="37.3604170">
    <ele>4252.8</ele>
    <time>2026-06-22T10:18:34Z</time>
   </trkpt>
   <trkpt lat="-3.1085040" lon="37.3604170">
    <ele>4252.8</ele>
    <time>2026-06-22T10:18:35Z</time>
   </trkpt>
   <trkpt lat="-3.1085040" lon="37.3604180">
    <ele>4252.8</ele>
    <time>2026-06-22T10:18:36Z</time>
   </trkpt>
   <trkpt lat="-3.1085030" lon="37.3604180">
    <ele>4252.8</ele>
    <time>2026-06-22T10:18:37Z</time>
   </trkpt>
   <trkpt lat="-3.1085040" lon="37.3604180">
    <ele>4252.8</ele>
    <time>2026-06-22T10:18:38Z</time>
   </trkpt>
   <trkpt lat="-3.1085040" lon="37.3604220">
    <ele>4253.0</ele>
    <time>2026-06-22T10:18:39Z</time>
   </trkpt>
   <trkpt lat="-3.1085050" lon="37.3604270">
    <ele>4253.1</ele>
    <time>2026-06-22T10:18:40Z</time>
   </trkpt>
   <trkpt lat="-3.1085050" lon="37.3604300">
    <ele>4253.2</ele>
    <time>2026-06-22T10:18:41Z</time>
   </trkpt>
   <trkpt lat="-3.1085060" lon="37.3604320">
    <ele>4253.2</ele>
    <time>2026-06-22T10:18:42Z</time>
   </trkpt>
   <trkpt lat="-3.1085090" lon="37.3604340">
    <ele>4253.3</ele>
    <time>2026-06-22T10:18:43Z</time>
   </trkpt>
   <trkpt lat="-3.1085100" lon="37.3604380">
    <ele>4253.4</ele>
    <time>2026-06-22T10:18:44Z</time>
   </trkpt>
   <trkpt lat="-3.1085100" lon="37.3604420">
    <ele>4253.5</ele>
    <time>2026-06-22T10:18:45Z</time>
   </trkpt>
   <trkpt lat="-3.1085090" lon="37.3604450">
    <ele>4253.6</ele>
    <time>2026-06-22T10:18:46Z</time>
   </trkpt>
   <trkpt lat="-3.1085050" lon="37.3604470">
    <ele>4253.7</ele>
    <time>2026-06-22T10:18:47Z</time>
   </trkpt>
   <trkpt lat="-3.1085020" lon="37.3604460">
    <ele>4253.8</ele>
    <time>2026-06-22T10:18:48Z</time>
   </trkpt>
   <trkpt lat="-3.1084980" lon="37.3604480">
    <ele>4253.9</ele>
    <time>2026-06-22T10:18:49Z</time>
   </trkpt>
   <trkpt lat="-3.1084920" lon="37.3604430">
    <ele>4254.1</ele>
    <time>2026-06-22T10:18:50Z</time>
   </trkpt>
   <trkpt lat="-3.1084900" lon="37.3604450">
    <ele>4254.2</ele>
    <time>2026-06-22T10:18:51Z</time>
   </trkpt>
   <trkpt lat="-3.1084860" lon="37.3604450">
    <ele>4254.3</ele>
    <time>2026-06-22T10:18:52Z</time>
   </trkpt>
   <trkpt lat="-3.1084840" lon="37.3604430">
    <ele>4254.4</ele>
    <time>2026-06-22T10:18:53Z</time>
   </trkpt>
   <trkpt lat="-3.1084800" lon="37.3604380">
    <ele>4254.5</ele>
    <time>2026-06-22T10:18:54Z</time>
   </trkpt>
   <trkpt lat="-3.1084780" lon="37.3604380">
    <ele>4254.6</ele>
    <time>2026-06-22T10:18:55Z</time>
   </trkpt>
   <trkpt lat="-3.1084740" lon="37.3604350">
    <ele>4254.7</ele>
    <time>2026-06-22T10:18:56Z</time>
   </trkpt>
   <trkpt lat="-3.1084710" lon="37.3604340">
    <ele>4254.8</ele>
    <time>2026-06-22T10:18:57Z</time>
   </trkpt>
   <trkpt lat="-3.1084670" lon="37.3604380">
    <ele>4254.9</ele>
    <time>2026-06-22T10:18:58Z</time>
   </trkpt>
   <trkpt lat="-3.1084620" lon="37.3604410">
    <ele>4255.1</ele>
    <time>2026-06-22T10:18:59Z</time>
   </trkpt>
   <trkpt lat="-3.1084610" lon="37.3604440">
    <ele>4255.2</ele>
    <time>2026-06-22T10:19:00Z</time>
   </trkpt>
   <trkpt lat="-3.1084590" lon="37.3604480">
    <ele>4255.3</ele>
    <time>2026-06-22T10:19:01Z</time>
   </trkpt>
   <trkpt lat="-3.1084560" lon="37.3604500">
    <ele>4255.4</ele>
    <time>2026-06-22T10:19:02Z</time>
   </trkpt>
   <trkpt lat="-3.1084550" lon="37.3604550">
    <ele>4255.5</ele>
    <time>2026-06-22T10:19:03Z</time>
   </trkpt>
   <trkpt lat="-3.1084550" lon="37.3604570">
    <ele>4255.5</ele>
    <time>2026-06-22T10:19:04Z</time>
   </trkpt>
   <trkpt lat="-3.1084510" lon="37.3604630">
    <ele>4255.7</ele>
    <time>2026-06-22T10:19:05Z</time>
   </trkpt>
   <trkpt lat="-3.1084510" lon="37.3604680">
    <ele>4255.8</ele>
    <time>2026-06-22T10:19:06Z</time>
   </trkpt>
   <trkpt lat="-3.1084490" lon="37.3604700">
    <ele>4255.9</ele>
    <time>2026-06-22T10:19:07Z</time>
   </trkpt>
   <trkpt lat="-3.1084470" lon="37.3604740">
    <ele>4256.0</ele>
    <time>2026-06-22T10:19:08Z</time>
   </trkpt>
   <trkpt lat="-3.1084450" lon="37.3604690">
    <ele>4256.1</ele>
    <time>2026-06-22T10:19:09Z</time>
   </trkpt>
   <trkpt lat="-3.1084400" lon="37.3604720">
    <ele>4256.3</ele>
    <time>2026-06-22T10:19:10Z</time>
   </trkpt>
   <trkpt lat="-3.1084370" lon="37.3604730">
    <ele>4256.4</ele>
    <time>2026-06-22T10:19:11Z</time>
   </trkpt>
   <trkpt lat="-3.1084360" lon="37.3604760">
    <ele>4256.4</ele>
    <time>2026-06-22T10:19:12Z</time>
   </trkpt>
   <trkpt lat="-3.1084370" lon="37.3604750">
    <ele>4256.5</ele>
    <time>2026-06-22T10:19:13Z</time>
   </trkpt>
   <trkpt lat="-3.1084340" lon="37.3604800">
    <ele>4256.6</ele>
    <time>2026-06-22T10:19:14Z</time>
   </trkpt>
   <trkpt lat="-3.1084320" lon="37.3604810">
    <ele>4256.7</ele>
    <time>2026-06-22T10:19:15Z</time>
   </trkpt>
   <trkpt lat="-3.1084300" lon="37.3604830">
    <ele>4256.7</ele>
    <time>2026-06-22T10:19:16Z</time>
   </trkpt>
   <trkpt lat="-3.1084270" lon="37.3604760">
    <ele>4256.9</ele>
    <time>2026-06-22T10:19:17Z</time>
   </trkpt>
   <trkpt lat="-3.1084260" lon="37.3604790">
    <ele>4257.0</ele>
    <time>2026-06-22T10:19:18Z</time>
   </trkpt>
   <trkpt lat="-3.1084230" lon="37.3604800">
    <ele>4257.1</ele>
    <time>2026-06-22T10:19:19Z</time>
   </trkpt>
   <trkpt lat="-3.1084160" lon="37.3604780">
    <ele>4257.2</ele>
    <time>2026-06-22T10:19:20Z</time>
   </trkpt>
   <trkpt lat="-3.1084120" lon="37.3604800">
    <ele>4257.3</ele>
    <time>2026-06-22T10:19:21Z</time>
   </trkpt>
   <trkpt lat="-3.1084090" lon="37.3604810">
    <ele>4257.4</ele>
    <time>2026-06-22T10:19:22Z</time>
   </trkpt>
   <trkpt lat="-3.1084040" lon="37.3604790">
    <ele>4257.6</ele>
    <time>2026-06-22T10:19:23Z</time>
   </trkpt>
   <trkpt lat="-3.1084010" lon="37.3604780">
    <ele>4257.6</ele>
    <time>2026-06-22T10:19:24Z</time>
   </trkpt>
   <trkpt lat="-3.1083980" lon="37.3604750">
    <ele>4257.7</ele>
    <time>2026-06-22T10:19:25Z</time>
   </trkpt>
   <trkpt lat="-3.1083960" lon="37.3604720">
    <ele>4257.8</ele>
    <time>2026-06-22T10:19:26Z</time>
   </trkpt>
   <trkpt lat="-3.1083930" lon="37.3604700">
    <ele>4257.9</ele>
    <time>2026-06-22T10:19:27Z</time>
   </trkpt>
   <trkpt lat="-3.1083890" lon="37.3604690">
    <ele>4258.0</ele>
    <time>2026-06-22T10:19:28Z</time>
   </trkpt>
   <trkpt lat="-3.1083850" lon="37.3604700">
    <ele>4258.1</ele>
    <time>2026-06-22T10:19:29Z</time>
   </trkpt>
   <trkpt lat="-3.1083820" lon="37.3604710">
    <ele>4258.2</ele>
    <time>2026-06-22T10:19:30Z</time>
   </trkpt>
   <trkpt lat="-3.1083770" lon="37.3604710">
    <ele>4258.3</ele>
    <time>2026-06-22T10:19:31Z</time>
   </trkpt>
   <trkpt lat="-3.1083750" lon="37.3604740">
    <ele>4258.4</ele>
    <time>2026-06-22T10:19:32Z</time>
   </trkpt>
   <trkpt lat="-3.1083720" lon="37.3604750">
    <ele>4258.5</ele>
    <time>2026-06-22T10:19:33Z</time>
   </trkpt>
   <trkpt lat="-3.1083720" lon="37.3604790">
    <ele>4258.5</ele>
    <time>2026-06-22T10:19:34Z</time>
   </trkpt>
   <trkpt lat="-3.1083700" lon="37.3604830">
    <ele>4258.6</ele>
    <time>2026-06-22T10:19:35Z</time>
   </trkpt>
   <trkpt lat="-3.1083700" lon="37.3604840">
    <ele>4258.7</ele>
    <time>2026-06-22T10:19:36Z</time>
   </trkpt>
   <trkpt lat="-3.1083680" lon="37.3604870">
    <ele>4258.8</ele>
    <time>2026-06-22T10:19:37Z</time>
   </trkpt>
   <trkpt lat="-3.1083670" lon="37.3604900">
    <ele>4258.8</ele>
    <time>2026-06-22T10:19:38Z</time>
   </trkpt>
   <trkpt lat="-3.1083670" lon="37.3604940">
    <ele>4258.9</ele>
    <time>2026-06-22T10:19:40Z</time>
   </trkpt>
   <trkpt lat="-3.1083650" lon="37.3604960">
    <ele>4259.0</ele>
    <time>2026-06-22T10:19:41Z</time>
   </trkpt>
   <trkpt lat="-3.1083640" lon="37.3605000">
    <ele>4259.1</ele>
    <time>2026-06-22T10:19:42Z</time>
   </trkpt>
   <trkpt lat="-3.1083620" lon="37.3605020">
    <ele>4259.1</ele>
    <time>2026-06-22T10:19:43Z</time>
   </trkpt>
   <trkpt lat="-3.1083620" lon="37.3605040">
    <ele>4259.2</ele>
    <time>2026-06-22T10:19:44Z</time>
   </trkpt>
   <trkpt lat="-3.1083640" lon="37.3605080">
    <ele>4259.3</ele>
    <time>2026-06-22T10:19:45Z</time>
   </trkpt>
   <trkpt lat="-3.1083630" lon="37.3605090">
    <ele>4259.3</ele>
    <time>2026-06-22T10:19:46Z</time>
   </trkpt>
   <trkpt lat="-3.1083650" lon="37.3605130">
    <ele>4259.4</ele>
    <time>2026-06-22T10:19:47Z</time>
   </trkpt>
   <trkpt lat="-3.1083660" lon="37.3605150">
    <ele>4259.5</ele>
    <time>2026-06-22T10:19:48Z</time>
   </trkpt>
   <trkpt lat="-3.1083660" lon="37.3605190">
    <ele>4259.6</ele>
    <time>2026-06-22T10:19:49Z</time>
   </trkpt>
   <trkpt lat="-3.1083680" lon="37.3605190">
    <ele>4259.6</ele>
    <time>2026-06-22T10:19:50Z</time>
   </trkpt>
   <trkpt lat="-3.1083710" lon="37.3605240">
    <ele>4259.7</ele>
    <time>2026-06-22T10:19:51Z</time>
   </trkpt>
   <trkpt lat="-3.1083720" lon="37.3605270">
    <ele>4259.8</ele>
    <time>2026-06-22T10:19:52Z</time>
   </trkpt>
   <trkpt lat="-3.1083730" lon="37.3605380">
    <ele>4260.1</ele>
    <time>2026-06-22T10:19:53Z</time>
   </trkpt>
   <trkpt lat="-3.1083710" lon="37.3605340">
    <ele>4260.2</ele>
    <time>2026-06-22T10:19:54Z</time>
   </trkpt>
   <trkpt lat="-3.1083690" lon="37.3605320">
    <ele>4260.2</ele>
    <time>2026-06-22T10:19:55Z</time>
   </trkpt>
   <trkpt lat="-3.1083580" lon="37.3605330">
    <ele>4260.5</ele>
    <time>2026-06-22T10:19:56Z</time>
   </trkpt>
   <trkpt lat="-3.1083610" lon="37.3605340">
    <ele>4260.6</ele>
    <time>2026-06-22T10:19:57Z</time>
   </trkpt>
   <trkpt lat="-3.1083620" lon="37.3605300">
    <ele>4260.6</ele>
    <time>2026-06-22T10:19:58Z</time>
   </trkpt>
   <trkpt lat="-3.1083560" lon="37.3605270">
    <ele>4260.8</ele>
    <time>2026-06-22T10:19:59Z</time>
   </trkpt>
   <trkpt lat="-3.1083530" lon="37.3605240">
    <ele>4260.9</ele>
    <time>2026-06-22T10:20:00Z</time>
   </trkpt>
   <trkpt lat="-3.1083480" lon="37.3605240">
    <ele>4261.0</ele>
    <time>2026-06-22T10:20:01Z</time>
   </trkpt>
   <trkpt lat="-3.1083430" lon="37.3605250">
    <ele>4261.1</ele>
    <time>2026-06-22T10:20:02Z</time>
   </trkpt>
   <trkpt lat="-3.1083410" lon="37.3605290">
    <ele>4261.2</ele>
    <time>2026-06-22T10:20:03Z</time>
   </trkpt>
   <trkpt lat="-3.1083420" lon="37.3605300">
    <ele>4261.3</ele>
    <time>2026-06-22T10:20:04Z</time>
   </trkpt>
   <trkpt lat="-3.1083360" lon="37.3605350">
    <ele>4261.4</ele>
    <time>2026-06-22T10:20:05Z</time>
   </trkpt>
   <trkpt lat="-3.1083360" lon="37.3605350">
    <ele>4261.4</ele>
    <time>2026-06-22T10:20:06Z</time>
   </trkpt>
   <trkpt lat="-3.1083320" lon="37.3605380">
    <ele>4261.5</ele>
    <time>2026-06-22T10:20:07Z</time>
   </trkpt>
   <trkpt lat="-3.1083290" lon="37.3605420">
    <ele>4261.7</ele>
    <time>2026-06-22T10:20:08Z</time>
   </trkpt>
   <trkpt lat="-3.1083250" lon="37.3605460">
    <ele>4261.8</ele>
    <time>2026-06-22T10:20:09Z</time>
   </trkpt>
   <trkpt lat="-3.1083240" lon="37.3605490">
    <ele>4261.9</ele>
    <time>2026-06-22T10:20:10Z</time>
   </trkpt>
   <trkpt lat="-3.1083240" lon="37.3605530">
    <ele>4261.9</ele>
    <time>2026-06-22T10:20:11Z</time>
   </trkpt>
   <trkpt lat="-3.1083260" lon="37.3605570">
    <ele>4262.0</ele>
    <time>2026-06-22T10:20:12Z</time>
   </trkpt>
   <trkpt lat="-3.1083280" lon="37.3605610">
    <ele>4262.1</ele>
    <time>2026-06-22T10:20:13Z</time>
   </trkpt>
   <trkpt lat="-3.1083300" lon="37.3605630">
    <ele>4262.2</ele>
    <time>2026-06-22T10:20:14Z</time>
   </trkpt>
   <trkpt lat="-3.1083330" lon="37.3605650">
    <ele>4262.3</ele>
    <time>2026-06-22T10:20:15Z</time>
   </trkpt>
   <trkpt lat="-3.1083340" lon="37.3605680">
    <ele>4262.4</ele>
    <time>2026-06-22T10:20:16Z</time>
   </trkpt>
   <trkpt lat="-3.1083360" lon="37.3605720">
    <ele>4262.5</ele>
    <time>2026-06-22T10:20:17Z</time>
   </trkpt>
   <trkpt lat="-3.1083330" lon="37.3605770">
    <ele>4262.6</ele>
    <time>2026-06-22T10:20:18Z</time>
   </trkpt>
   <trkpt lat="-3.1083260" lon="37.3605830">
    <ele>4262.8</ele>
    <time>2026-06-22T10:20:19Z</time>
   </trkpt>
   <trkpt lat="-3.1083240" lon="37.3605840">
    <ele>4262.8</ele>
    <time>2026-06-22T10:20:20Z</time>
   </trkpt>
   <trkpt lat="-3.1083200" lon="37.3605890">
    <ele>4263.0</ele>
    <time>2026-06-22T10:20:21Z</time>
   </trkpt>
   <trkpt lat="-3.1083210" lon="37.3605920">
    <ele>4263.1</ele>
    <time>2026-06-22T10:20:22Z</time>
   </trkpt>
   <trkpt lat="-3.1083230" lon="37.3605960">
    <ele>4263.2</ele>
    <time>2026-06-22T10:20:23Z</time>
   </trkpt>
   <trkpt lat="-3.1083210" lon="37.3606020">
    <ele>4263.3</ele>
    <time>2026-06-22T10:20:24Z</time>
   </trkpt>
   <trkpt lat="-3.1083190" lon="37.3606070">
    <ele>4263.4</ele>
    <time>2026-06-22T10:20:25Z</time>
   </trkpt>
   <trkpt lat="-3.1083170" lon="37.3606120">
    <ele>4263.5</ele>
    <time>2026-06-22T10:20:26Z</time>
   </trkpt>
   <trkpt lat="-3.1083140" lon="37.3606180">
    <ele>4263.7</ele>
    <time>2026-06-22T10:20:27Z</time>
   </trkpt>
   <trkpt lat="-3.1083130" lon="37.3606220">
    <ele>4263.8</ele>
    <time>2026-06-22T10:20:28Z</time>
   </trkpt>
   <trkpt lat="-3.1083100" lon="37.3606280">
    <ele>4263.9</ele>
    <time>2026-06-22T10:20:29Z</time>
   </trkpt>
   <trkpt lat="-3.1083100" lon="37.3606310">
    <ele>4264.0</ele>
    <time>2026-06-22T10:20:30Z</time>
   </trkpt>
   <trkpt lat="-3.1083090" lon="37.3606320">
    <ele>4264.0</ele>
    <time>2026-06-22T10:20:31Z</time>
   </trkpt>
   <trkpt lat="-3.1083090" lon="37.3606330">
    <ele>4264.0</ele>
    <time>2026-06-22T10:20:32Z</time>
   </trkpt>
   <trkpt lat="-3.1083060" lon="37.3606380">
    <ele>4264.2</ele>
    <time>2026-06-22T10:20:33Z</time>
   </trkpt>
   <trkpt lat="-3.1083040" lon="37.3606410">
    <ele>4264.2</ele>
    <time>2026-06-22T10:20:34Z</time>
   </trkpt>
   <trkpt lat="-3.1083030" lon="37.3606410">
    <ele>4264.3</ele>
    <time>2026-06-22T10:20:35Z</time>
   </trkpt>
   <trkpt lat="-3.1082990" lon="37.3606420">
    <ele>4264.4</ele>
    <time>2026-06-22T10:20:36Z</time>
   </trkpt>
   <trkpt lat="-3.1082940" lon="37.3606460">
    <ele>4264.5</ele>
    <time>2026-06-22T10:20:37Z</time>
   </trkpt>
   <trkpt lat="-3.1082900" lon="37.3606450">
    <ele>4264.6</ele>
    <time>2026-06-22T10:20:38Z</time>
   </trkpt>
   <trkpt lat="-3.1082870" lon="37.3606490">
    <ele>4264.7</ele>
    <time>2026-06-22T10:20:39Z</time>
   </trkpt>
   <trkpt lat="-3.1082820" lon="37.3606550">
    <ele>4264.9</ele>
    <time>2026-06-22T10:20:40Z</time>
   </trkpt>
   <trkpt lat="-3.1082830" lon="37.3606570">
    <ele>4264.9</ele>
    <time>2026-06-22T10:20:41Z</time>
   </trkpt>
   <trkpt lat="-3.1082820" lon="37.3606620">
    <ele>4265.0</ele>
    <time>2026-06-22T10:20:42Z</time>
   </trkpt>
   <trkpt lat="-3.1082800" lon="37.3606670">
    <ele>4265.2</ele>
    <time>2026-06-22T10:20:43Z</time>
   </trkpt>
   <trkpt lat="-3.1082810" lon="37.3606720">
    <ele>4265.3</ele>
    <time>2026-06-22T10:20:44Z</time>
   </trkpt>
   <trkpt lat="-3.1082820" lon="37.3606760">
    <ele>4265.4</ele>
    <time>2026-06-22T10:20:45Z</time>
   </trkpt>
   <trkpt lat="-3.1082810" lon="37.3606830">
    <ele>4265.5</ele>
    <time>2026-06-22T10:20:46Z</time>
   </trkpt>
   <trkpt lat="-3.1082850" lon="37.3606840">
    <ele>4265.6</ele>
    <time>2026-06-22T10:20:47Z</time>
   </trkpt>
   <trkpt lat="-3.1082830" lon="37.3606910">
    <ele>4265.8</ele>
    <time>2026-06-22T10:20:48Z</time>
   </trkpt>
   <trkpt lat="-3.1082840" lon="37.3606950">
    <ele>4265.8</ele>
    <time>2026-06-22T10:20:49Z</time>
   </trkpt>
   <trkpt lat="-3.1082830" lon="37.3606980">
    <ele>4265.9</ele>
    <time>2026-06-22T10:20:50Z</time>
   </trkpt>
   <trkpt lat="-3.1082820" lon="37.3607020">
    <ele>4266.0</ele>
    <time>2026-06-22T10:20:51Z</time>
   </trkpt>
   <trkpt lat="-3.1082790" lon="37.3607040">
    <ele>4266.1</ele>
    <time>2026-06-22T10:20:52Z</time>
   </trkpt>
   <trkpt lat="-3.1082750" lon="37.3607060">
    <ele>4266.2</ele>
    <time>2026-06-22T10:20:53Z</time>
   </trkpt>
   <trkpt lat="-3.1082730" lon="37.3607100">
    <ele>4266.3</ele>
    <time>2026-06-22T10:20:54Z</time>
   </trkpt>
   <trkpt lat="-3.1082710" lon="37.3607160">
    <ele>4266.4</ele>
    <time>2026-06-22T10:20:55Z</time>
   </trkpt>
   <trkpt lat="-3.1082700" lon="37.3607200">
    <ele>4266.5</ele>
    <time>2026-06-22T10:20:56Z</time>
   </trkpt>
   <trkpt lat="-3.1082690" lon="37.3607250">
    <ele>4266.6</ele>
    <time>2026-06-22T10:20:57Z</time>
   </trkpt>
   <trkpt lat="-3.1082710" lon="37.3607270">
    <ele>4266.7</ele>
    <time>2026-06-22T10:20:58Z</time>
   </trkpt>
   <trkpt lat="-3.1082680" lon="37.3607320">
    <ele>4266.8</ele>
    <time>2026-06-22T10:20:59Z</time>
   </trkpt>
   <trkpt lat="-3.1082670" lon="37.3607310">
    <ele>4266.8</ele>
    <time>2026-06-22T10:21:00Z</time>
   </trkpt>
   <trkpt lat="-3.1082620" lon="37.3607300">
    <ele>4267.0</ele>
    <time>2026-06-22T10:21:01Z</time>
   </trkpt>
   <trkpt lat="-3.1082580" lon="37.3607280">
    <ele>4267.1</ele>
    <time>2026-06-22T10:21:02Z</time>
   </trkpt>
   <trkpt lat="-3.1082590" lon="37.3607360">
    <ele>4267.2</ele>
    <time>2026-06-22T10:21:03Z</time>
   </trkpt>
   <trkpt lat="-3.1082480" lon="37.3607290">
    <ele>4267.5</ele>
    <time>2026-06-22T10:21:04Z</time>
   </trkpt>
   <trkpt lat="-3.1082460" lon="37.3607330">
    <ele>4267.6</ele>
    <time>2026-06-22T10:21:05Z</time>
   </trkpt>
   <trkpt lat="-3.1082420" lon="37.3607370">
    <ele>4267.7</ele>
    <time>2026-06-22T10:21:06Z</time>
   </trkpt>
   <trkpt lat="-3.1082420" lon="37.3607390">
    <ele>4267.8</ele>
    <time>2026-06-22T10:21:07Z</time>
   </trkpt>
   <trkpt lat="-3.1082380" lon="37.3607440">
    <ele>4267.9</ele>
    <time>2026-06-22T10:21:08Z</time>
   </trkpt>
   <trkpt lat="-3.1082350" lon="37.3607470">
    <ele>4268.0</ele>
    <time>2026-06-22T10:21:09Z</time>
   </trkpt>
   <trkpt lat="-3.1082340" lon="37.3607520">
    <ele>4268.1</ele>
    <time>2026-06-22T10:21:10Z</time>
   </trkpt>
   <trkpt lat="-3.1082340" lon="37.3607550">
    <ele>4268.2</ele>
    <time>2026-06-22T10:21:11Z</time>
   </trkpt>
   <trkpt lat="-3.1082320" lon="37.3607600">
    <ele>4268.3</ele>
    <time>2026-06-22T10:21:12Z</time>
   </trkpt>
   <trkpt lat="-3.1082320" lon="37.3607630">
    <ele>4268.4</ele>
    <time>2026-06-22T10:21:13Z</time>
   </trkpt>
   <trkpt lat="-3.1082290" lon="37.3607670">
    <ele>4268.5</ele>
    <time>2026-06-22T10:21:14Z</time>
   </trkpt>
   <trkpt lat="-3.1082280" lon="37.3607720">
    <ele>4268.6</ele>
    <time>2026-06-22T10:21:15Z</time>
   </trkpt>
   <trkpt lat="-3.1082290" lon="37.3607760">
    <ele>4268.7</ele>
    <time>2026-06-22T10:21:16Z</time>
   </trkpt>
   <trkpt lat="-3.1082280" lon="37.3607820">
    <ele>4268.8</ele>
    <time>2026-06-22T10:21:17Z</time>
   </trkpt>
   <trkpt lat="-3.1082300" lon="37.3607860">
    <ele>4268.9</ele>
    <time>2026-06-22T10:21:18Z</time>
   </trkpt>
   <trkpt lat="-3.1082290" lon="37.3607900">
    <ele>4269.0</ele>
    <time>2026-06-22T10:21:19Z</time>
   </trkpt>
   <trkpt lat="-3.1082280" lon="37.3607930">
    <ele>4269.1</ele>
    <time>2026-06-22T10:21:20Z</time>
   </trkpt>
   <trkpt lat="-3.1082230" lon="37.3607950">
    <ele>4269.2</ele>
    <time>2026-06-22T10:21:21Z</time>
   </trkpt>
   <trkpt lat="-3.1082190" lon="37.3607970">
    <ele>4269.3</ele>
    <time>2026-06-22T10:21:22Z</time>
   </trkpt>
   <trkpt lat="-3.1082130" lon="37.3607980">
    <ele>4269.4</ele>
    <time>2026-06-22T10:21:23Z</time>
   </trkpt>
   <trkpt lat="-3.1082120" lon="37.3608000">
    <ele>4269.5</ele>
    <time>2026-06-22T10:21:24Z</time>
   </trkpt>
   <trkpt lat="-3.1082070" lon="37.3608010">
    <ele>4269.6</ele>
    <time>2026-06-22T10:21:25Z</time>
   </trkpt>
   <trkpt lat="-3.1082040" lon="37.3608030">
    <ele>4269.7</ele>
    <time>2026-06-22T10:21:26Z</time>
   </trkpt>
   <trkpt lat="-3.1082020" lon="37.3608070">
    <ele>4269.8</ele>
    <time>2026-06-22T10:21:27Z</time>
   </trkpt>
   <trkpt lat="-3.1082010" lon="37.3608090">
    <ele>4269.8</ele>
    <time>2026-06-22T10:21:28Z</time>
   </trkpt>
   <trkpt lat="-3.1081990" lon="37.3608100">
    <ele>4269.9</ele>
    <time>2026-06-22T10:21:29Z</time>
   </trkpt>
   <trkpt lat="-3.1081970" lon="37.3608140">
    <ele>4270.0</ele>
    <time>2026-06-22T10:21:30Z</time>
   </trkpt>
   <trkpt lat="-3.1081970" lon="37.3608200">
    <ele>4270.1</ele>
    <time>2026-06-22T10:21:31Z</time>
   </trkpt>
   <trkpt lat="-3.1081990" lon="37.3608230">
    <ele>4270.2</ele>
    <time>2026-06-22T10:21:32Z</time>
   </trkpt>
   <trkpt lat="-3.1081980" lon="37.3608280">
    <ele>4270.3</ele>
    <time>2026-06-22T10:21:33Z</time>
   </trkpt>
   <trkpt lat="-3.1082000" lon="37.3608300">
    <ele>4270.4</ele>
    <time>2026-06-22T10:21:34Z</time>
   </trkpt>
   <trkpt lat="-3.1081960" lon="37.3608340">
    <ele>4270.5</ele>
    <time>2026-06-22T10:21:35Z</time>
   </trkpt>
   <trkpt lat="-3.1081970" lon="37.3608370">
    <ele>4270.6</ele>
    <time>2026-06-22T10:21:36Z</time>
   </trkpt>
   <trkpt lat="-3.1081940" lon="37.3608400">
    <ele>4270.7</ele>
    <time>2026-06-22T10:21:37Z</time>
   </trkpt>
   <trkpt lat="-3.1081930" lon="37.3608420">
    <ele>4270.7</ele>
    <time>2026-06-22T10:21:38Z</time>
   </trkpt>
   <trkpt lat="-3.1081900" lon="37.3608460">
    <ele>4270.8</ele>
    <time>2026-06-22T10:21:39Z</time>
   </trkpt>
   <trkpt lat="-3.1081880" lon="37.3608490">
    <ele>4270.9</ele>
    <time>2026-06-22T10:21:40Z</time>
   </trkpt>
   <trkpt lat="-3.1081850" lon="37.3608500">
    <ele>4271.0</ele>
    <time>2026-06-22T10:21:41Z</time>
   </trkpt>
   <trkpt lat="-3.1081820" lon="37.3608490">
    <ele>4271.1</ele>
    <time>2026-06-22T10:21:42Z</time>
   </trkpt>
   <trkpt lat="-3.1081780" lon="37.3608490">
    <ele>4271.2</ele>
    <time>2026-06-22T10:21:43Z</time>
   </trkpt>
   <trkpt lat="-3.1081740" lon="37.3608490">
    <ele>4271.3</ele>
    <time>2026-06-22T10:21:44Z</time>
   </trkpt>
   <trkpt lat="-3.1081710" lon="37.3608490">
    <ele>4271.3</ele>
    <time>2026-06-22T10:21:46Z</time>
   </trkpt>
   <trkpt lat="-3.1081660" lon="37.3608500">
    <ele>4271.4</ele>
    <time>2026-06-22T10:21:47Z</time>
   </trkpt>
   <trkpt lat="-3.1081620" lon="37.3608520">
    <ele>4271.5</ele>
    <time>2026-06-22T10:21:48Z</time>
   </trkpt>
   <trkpt lat="-3.1081580" lon="37.3608540">
    <ele>4271.6</ele>
    <time>2026-06-22T10:21:49Z</time>
   </trkpt>
   <trkpt lat="-3.1081570" lon="37.3608560">
    <ele>4271.7</ele>
    <time>2026-06-22T10:21:50Z</time>
   </trkpt>
   <trkpt lat="-3.1081540" lon="37.3608580">
    <ele>4271.8</ele>
    <time>2026-06-22T10:21:51Z</time>
   </trkpt>
   <trkpt lat="-3.1081580" lon="37.3608590">
    <ele>4271.9</ele>
    <time>2026-06-22T10:21:52Z</time>
   </trkpt>
   <trkpt lat="-3.1081530" lon="37.3608670">
    <ele>4272.1</ele>
    <time>2026-06-22T10:21:53Z</time>
   </trkpt>
   <trkpt lat="-3.1081590" lon="37.3608700">
    <ele>4272.2</ele>
    <time>2026-06-22T10:21:54Z</time>
   </trkpt>
   <trkpt lat="-3.1081600" lon="37.3608750">
    <ele>4272.4</ele>
    <time>2026-06-22T10:21:55Z</time>
   </trkpt>
   <trkpt lat="-3.1081610" lon="37.3608770">
    <ele>4272.4</ele>
    <time>2026-06-22T10:21:56Z</time>
   </trkpt>
   <trkpt lat="-3.1081590" lon="37.3608840">
    <ele>4272.6</ele>
    <time>2026-06-22T10:21:57Z</time>
   </trkpt>
   <trkpt lat="-3.1081590" lon="37.3608860">
    <ele>4272.6</ele>
    <time>2026-06-22T10:21:58Z</time>
   </trkpt>
   <trkpt lat="-3.1081580" lon="37.3608890">
    <ele>4272.7</ele>
    <time>2026-06-22T10:21:59Z</time>
   </trkpt>
   <trkpt lat="-3.1081570" lon="37.3608910">
    <ele>4272.7</ele>
    <time>2026-06-22T10:22:00Z</time>
   </trkpt>
   <trkpt lat="-3.1081540" lon="37.3608950">
    <ele>4272.9</ele>
    <time>2026-06-22T10:22:01Z</time>
   </trkpt>
   <trkpt lat="-3.1081500" lon="37.3608990">
    <ele>4273.0</ele>
    <time>2026-06-22T10:22:02Z</time>
   </trkpt>
   <trkpt lat="-3.1081480" lon="37.3609030">
    <ele>4273.1</ele>
    <time>2026-06-22T10:22:03Z</time>
   </trkpt>
   <trkpt lat="-3.1081490" lon="37.3609010">
    <ele>4273.1</ele>
    <time>2026-06-22T10:22:04Z</time>
   </trkpt>
   <trkpt lat="-3.1081480" lon="37.3609040">
    <ele>4273.2</ele>
    <time>2026-06-22T10:22:05Z</time>
   </trkpt>
   <trkpt lat="-3.1081450" lon="37.3609140">
    <ele>4273.5</ele>
    <time>2026-06-22T10:22:06Z</time>
   </trkpt>
   <trkpt lat="-3.1081430" lon="37.3609180">
    <ele>4273.6</ele>
    <time>2026-06-22T10:22:07Z</time>
   </trkpt>
   <trkpt lat="-3.1081400" lon="37.3609220">
    <ele>4273.7</ele>
    <time>2026-06-22T10:22:08Z</time>
   </trkpt>
   <trkpt lat="-3.1081370" lon="37.3609260">
    <ele>4273.8</ele>
    <time>2026-06-22T10:22:09Z</time>
   </trkpt>
   <trkpt lat="-3.1081360" lon="37.3609310">
    <ele>4273.9</ele>
    <time>2026-06-22T10:22:10Z</time>
   </trkpt>
   <trkpt lat="-3.1081350" lon="37.3609370">
    <ele>4274.1</ele>
    <time>2026-06-22T10:22:11Z</time>
   </trkpt>
   <trkpt lat="-3.1081360" lon="37.3609380">
    <ele>4274.1</ele>
    <time>2026-06-22T10:22:12Z</time>
   </trkpt>
   <trkpt lat="-3.1081320" lon="37.3609430">
    <ele>4274.2</ele>
    <time>2026-06-22T10:22:13Z</time>
   </trkpt>
   <trkpt lat="-3.1081330" lon="37.3609470">
    <ele>4274.3</ele>
    <time>2026-06-22T10:22:14Z</time>
   </trkpt>
   <trkpt lat="-3.1081320" lon="37.3609510">
    <ele>4274.3</ele>
    <time>2026-06-22T10:22:15Z</time>
   </trkpt>
   <trkpt lat="-3.1081310" lon="37.3609540">
    <ele>4274.4</ele>
    <time>2026-06-22T10:22:16Z</time>
   </trkpt>
   <trkpt lat="-3.1081300" lon="37.3609530">
    <ele>4274.4</ele>
    <time>2026-06-22T10:22:17Z</time>
   </trkpt>
   <trkpt lat="-3.1081270" lon="37.3609550">
    <ele>4274.5</ele>
    <time>2026-06-22T10:22:18Z</time>
   </trkpt>
   <trkpt lat="-3.1081230" lon="37.3609590">
    <ele>4274.5</ele>
    <time>2026-06-22T10:22:19Z</time>
   </trkpt>
   <trkpt lat="-3.1081220" lon="37.3609590">
    <ele>4274.6</ele>
    <time>2026-06-22T10:22:20Z</time>
   </trkpt>
   <trkpt lat="-3.1081190" lon="37.3609610">
    <ele>4274.6</ele>
    <time>2026-06-22T10:22:21Z</time>
   </trkpt>
   <trkpt lat="-3.1081150" lon="37.3609650">
    <ele>4274.7</ele>
    <time>2026-06-22T10:22:22Z</time>
   </trkpt>
   <trkpt lat="-3.1081170" lon="37.3609740">
    <ele>4274.8</ele>
    <time>2026-06-22T10:22:23Z</time>
   </trkpt>
   <trkpt lat="-3.1081180" lon="37.3609780">
    <ele>4274.9</ele>
    <time>2026-06-22T10:22:24Z</time>
   </trkpt>
   <trkpt lat="-3.1081200" lon="37.3609790">
    <ele>4274.9</ele>
    <time>2026-06-22T10:22:25Z</time>
   </trkpt>
   <trkpt lat="-3.1081230" lon="37.3609840">
    <ele>4275.0</ele>
    <time>2026-06-22T10:22:26Z</time>
   </trkpt>
   <trkpt lat="-3.1081260" lon="37.3609880">
    <ele>4275.1</ele>
    <time>2026-06-22T10:22:27Z</time>
   </trkpt>
   <trkpt lat="-3.1081250" lon="37.3609930">
    <ele>4275.2</ele>
    <time>2026-06-22T10:22:28Z</time>
   </trkpt>
   <trkpt lat="-3.1081260" lon="37.3610000">
    <ele>4275.3</ele>
    <time>2026-06-22T10:22:29Z</time>
   </trkpt>
   <trkpt lat="-3.1081270" lon="37.3610010">
    <ele>4275.3</ele>
    <time>2026-06-22T10:22:30Z</time>
   </trkpt>
   <trkpt lat="-3.1081280" lon="37.3610060">
    <ele>4275.4</ele>
    <time>2026-06-22T10:22:31Z</time>
   </trkpt>
   <trkpt lat="-3.1081290" lon="37.3610100">
    <ele>4275.4</ele>
    <time>2026-06-22T10:22:32Z</time>
   </trkpt>
   <trkpt lat="-3.1081300" lon="37.3610140">
    <ele>4275.5</ele>
    <time>2026-06-22T10:22:33Z</time>
   </trkpt>
   <trkpt lat="-3.1081300" lon="37.3610190">
    <ele>4275.5</ele>
    <time>2026-06-22T10:22:34Z</time>
   </trkpt>
   <trkpt lat="-3.1081310" lon="37.3610220">
    <ele>4275.6</ele>
    <time>2026-06-22T10:22:35Z</time>
   </trkpt>
   <trkpt lat="-3.1081280" lon="37.3610210">
    <ele>4275.6</ele>
    <time>2026-06-22T10:22:36Z</time>
   </trkpt>
   <trkpt lat="-3.1081260" lon="37.3610250">
    <ele>4275.7</ele>
    <time>2026-06-22T10:22:37Z</time>
   </trkpt>
   <trkpt lat="-3.1081240" lon="37.3610240">
    <ele>4275.7</ele>
    <time>2026-06-22T10:22:38Z</time>
   </trkpt>
   <trkpt lat="-3.1081200" lon="37.3610230">
    <ele>4275.8</ele>
    <time>2026-06-22T10:22:39Z</time>
   </trkpt>
   <trkpt lat="-3.1081160" lon="37.3610220">
    <ele>4275.9</ele>
    <time>2026-06-22T10:22:40Z</time>
   </trkpt>
   <trkpt lat="-3.1081120" lon="37.3610230">
    <ele>4275.9</ele>
    <time>2026-06-22T10:22:41Z</time>
   </trkpt>
   <trkpt lat="-3.1081080" lon="37.3610210">
    <ele>4276.0</ele>
    <time>2026-06-22T10:22:42Z</time>
   </trkpt>
   <trkpt lat="-3.1081040" lon="37.3610210">
    <ele>4276.0</ele>
    <time>2026-06-22T10:22:43Z</time>
   </trkpt>
   <trkpt lat="-3.1080960" lon="37.3610180">
    <ele>4276.2</ele>
    <time>2026-06-22T10:22:44Z</time>
   </trkpt>
   <trkpt lat="-3.1080940" lon="37.3610180">
    <ele>4276.2</ele>
    <time>2026-06-22T10:22:45Z</time>
   </trkpt>
   <trkpt lat="-3.1080910" lon="37.3610180">
    <ele>4276.2</ele>
    <time>2026-06-22T10:22:46Z</time>
   </trkpt>
   <trkpt lat="-3.1080860" lon="37.3610180">
    <ele>4276.3</ele>
    <time>2026-06-22T10:22:47Z</time>
   </trkpt>
   <trkpt lat="-3.1080810" lon="37.3610170">
    <ele>4276.4</ele>
    <time>2026-06-22T10:22:48Z</time>
   </trkpt>
   <trkpt lat="-3.1080780" lon="37.3610150">
    <ele>4276.4</ele>
    <time>2026-06-22T10:22:49Z</time>
   </trkpt>
   <trkpt lat="-3.1080760" lon="37.3610160">
    <ele>4276.5</ele>
    <time>2026-06-22T10:22:50Z</time>
   </trkpt>
   <trkpt lat="-3.1080720" lon="37.3610110">
    <ele>4276.6</ele>
    <time>2026-06-22T10:22:51Z</time>
   </trkpt>
   <trkpt lat="-3.1080680" lon="37.3610110">
    <ele>4276.6</ele>
    <time>2026-06-22T10:22:52Z</time>
   </trkpt>
   <trkpt lat="-3.1080650" lon="37.3610080">
    <ele>4276.7</ele>
    <time>2026-06-22T10:22:53Z</time>
   </trkpt>
   <trkpt lat="-3.1080610" lon="37.3610070">
    <ele>4276.7</ele>
    <time>2026-06-22T10:22:54Z</time>
   </trkpt>
   <trkpt lat="-3.1080590" lon="37.3610030">
    <ele>4276.8</ele>
    <time>2026-06-22T10:22:55Z</time>
   </trkpt>
   <trkpt lat="-3.1080550" lon="37.3610020">
    <ele>4276.9</ele>
    <time>2026-06-22T10:22:56Z</time>
   </trkpt>
   <trkpt lat="-3.1080510" lon="37.3610020">
    <ele>4276.9</ele>
    <time>2026-06-22T10:22:57Z</time>
   </trkpt>
   <trkpt lat="-3.1080470" lon="37.3610040">
    <ele>4277.0</ele>
    <time>2026-06-22T10:22:58Z</time>
   </trkpt>
   <trkpt lat="-3.1080430" lon="37.3610060">
    <ele>4277.0</ele>
    <time>2026-06-22T10:22:59Z</time>
   </trkpt>
   <trkpt lat="-3.1080410" lon="37.3610060">
    <ele>4277.1</ele>
    <time>2026-06-22T10:23:00Z</time>
   </trkpt>
   <trkpt lat="-3.1080380" lon="37.3610090">
    <ele>4277.1</ele>
    <time>2026-06-22T10:23:01Z</time>
   </trkpt>
   <trkpt lat="-3.1080340" lon="37.3610100">
    <ele>4277.2</ele>
    <time>2026-06-22T10:23:02Z</time>
   </trkpt>
   <trkpt lat="-3.1080310" lon="37.3610110">
    <ele>4277.2</ele>
    <time>2026-06-22T10:23:03Z</time>
   </trkpt>
   <trkpt lat="-3.1080280" lon="37.3610140">
    <ele>4277.3</ele>
    <time>2026-06-22T10:23:04Z</time>
   </trkpt>
   <trkpt lat="-3.1080250" lon="37.3610190">
    <ele>4277.3</ele>
    <time>2026-06-22T10:23:05Z</time>
   </trkpt>
   <trkpt lat="-3.1080230" lon="37.3610230">
    <ele>4277.4</ele>
    <time>2026-06-22T10:23:06Z</time>
   </trkpt>
   <trkpt lat="-3.1080220" lon="37.3610280">
    <ele>4277.5</ele>
    <time>2026-06-22T10:23:07Z</time>
   </trkpt>
   <trkpt lat="-3.1080180" lon="37.3610310">
    <ele>4277.5</ele>
    <time>2026-06-22T10:23:08Z</time>
   </trkpt>
   <trkpt lat="-3.1080170" lon="37.3610350">
    <ele>4277.6</ele>
    <time>2026-06-22T10:23:09Z</time>
   </trkpt>
   <trkpt lat="-3.1080160" lon="37.3610380">
    <ele>4277.6</ele>
    <time>2026-06-22T10:23:10Z</time>
   </trkpt>
   <trkpt lat="-3.1080160" lon="37.3610430">
    <ele>4277.7</ele>
    <time>2026-06-22T10:23:11Z</time>
   </trkpt>
   <trkpt lat="-3.1080160" lon="37.3610480">
    <ele>4277.8</ele>
    <time>2026-06-22T10:23:12Z</time>
   </trkpt>
   <trkpt lat="-3.1080150" lon="37.3610530">
    <ele>4277.8</ele>
    <time>2026-06-22T10:23:13Z</time>
   </trkpt>
   <trkpt lat="-3.1080170" lon="37.3610540">
    <ele>4277.9</ele>
    <time>2026-06-22T10:23:14Z</time>
   </trkpt>
   <trkpt lat="-3.1080180" lon="37.3610550">
    <ele>4277.9</ele>
    <time>2026-06-22T10:23:15Z</time>
   </trkpt>
   <trkpt lat="-3.1080180" lon="37.3610620">
    <ele>4278.0</ele>
    <time>2026-06-22T10:23:16Z</time>
   </trkpt>
   <trkpt lat="-3.1080210" lon="37.3610630">
    <ele>4278.0</ele>
    <time>2026-06-22T10:23:17Z</time>
   </trkpt>
   <trkpt lat="-3.1080230" lon="37.3610640">
    <ele>4278.0</ele>
    <time>2026-06-22T10:23:18Z</time>
   </trkpt>
   <trkpt lat="-3.1080230" lon="37.3610730">
    <ele>4278.2</ele>
    <time>2026-06-22T10:23:19Z</time>
   </trkpt>
   <trkpt lat="-3.1080240" lon="37.3610730">
    <ele>4278.2</ele>
    <time>2026-06-22T10:23:20Z</time>
   </trkpt>
   <trkpt lat="-3.1080230" lon="37.3610750">
    <ele>4278.2</ele>
    <time>2026-06-22T10:23:21Z</time>
   </trkpt>
   <trkpt lat="-3.1080200" lon="37.3610760">
    <ele>4278.2</ele>
    <time>2026-06-22T10:23:22Z</time>
   </trkpt>
   <trkpt lat="-3.1080190" lon="37.3610810">
    <ele>4278.3</ele>
    <time>2026-06-22T10:23:23Z</time>
   </trkpt>
   <trkpt lat="-3.1080180" lon="37.3610870">
    <ele>4278.4</ele>
    <time>2026-06-22T10:23:24Z</time>
   </trkpt>
   <trkpt lat="-3.1080180" lon="37.3610900">
    <ele>4278.4</ele>
    <time>2026-06-22T10:23:25Z</time>
   </trkpt>
   <trkpt lat="-3.1080170" lon="37.3610950">
    <ele>4278.5</ele>
    <time>2026-06-22T10:23:26Z</time>
   </trkpt>
   <trkpt lat="-3.1080140" lon="37.3611020">
    <ele>4278.6</ele>
    <time>2026-06-22T10:23:27Z</time>
   </trkpt>
   <trkpt lat="-3.1080120" lon="37.3611050">
    <ele>4278.6</ele>
    <time>2026-06-22T10:23:28Z</time>
   </trkpt>
   <trkpt lat="-3.1080090" lon="37.3611090">
    <ele>4278.7</ele>
    <time>2026-06-22T10:23:29Z</time>
   </trkpt>
   <trkpt lat="-3.1080040" lon="37.3611170">
    <ele>4278.8</ele>
    <time>2026-06-22T10:23:30Z</time>
   </trkpt>
   <trkpt lat="-3.1080070" lon="37.3611200">
    <ele>4278.9</ele>
    <time>2026-06-22T10:23:31Z</time>
   </trkpt>
   <trkpt lat="-3.1080070" lon="37.3611250">
    <ele>4279.0</ele>
    <time>2026-06-22T10:23:32Z</time>
   </trkpt>
   <trkpt lat="-3.1080090" lon="37.3611250">
    <ele>4279.0</ele>
    <time>2026-06-22T10:23:33Z</time>
   </trkpt>
   <trkpt lat="-3.1080100" lon="37.3611330">
    <ele>4279.1</ele>
    <time>2026-06-22T10:23:34Z</time>
   </trkpt>
   <trkpt lat="-3.1080080" lon="37.3611370">
    <ele>4279.1</ele>
    <time>2026-06-22T10:23:35Z</time>
   </trkpt>
   <trkpt lat="-3.1080040" lon="37.3611390">
    <ele>4279.2</ele>
    <time>2026-06-22T10:23:36Z</time>
   </trkpt>
   <trkpt lat="-3.1080010" lon="37.3611380">
    <ele>4279.2</ele>
    <time>2026-06-22T10:23:37Z</time>
   </trkpt>
   <trkpt lat="-3.1079960" lon="37.3611400">
    <ele>4279.3</ele>
    <time>2026-06-22T10:23:38Z</time>
   </trkpt>
   <trkpt lat="-3.1079940" lon="37.3611410">
    <ele>4279.3</ele>
    <time>2026-06-22T10:23:39Z</time>
   </trkpt>
   <trkpt lat="-3.1079920" lon="37.3611470">
    <ele>4279.4</ele>
    <time>2026-06-22T10:23:40Z</time>
   </trkpt>
   <trkpt lat="-3.1079890" lon="37.3611520">
    <ele>4279.5</ele>
    <time>2026-06-22T10:23:41Z</time>
   </trkpt>
   <trkpt lat="-3.1079860" lon="37.3611560">
    <ele>4279.5</ele>
    <time>2026-06-22T10:23:42Z</time>
   </trkpt>
   <trkpt lat="-3.1079860" lon="37.3611620">
    <ele>4279.6</ele>
    <time>2026-06-22T10:23:43Z</time>
   </trkpt>
   <trkpt lat="-3.1079870" lon="37.3611640">
    <ele>4279.6</ele>
    <time>2026-06-22T10:23:44Z</time>
   </trkpt>
   <trkpt lat="-3.1079900" lon="37.3611710">
    <ele>4279.7</ele>
    <time>2026-06-22T10:23:45Z</time>
   </trkpt>
   <trkpt lat="-3.1079820" lon="37.3611740">
    <ele>4279.8</ele>
    <time>2026-06-22T10:23:46Z</time>
   </trkpt>
   <trkpt lat="-3.1079790" lon="37.3611770">
    <ele>4279.9</ele>
    <time>2026-06-22T10:23:47Z</time>
   </trkpt>
   <trkpt lat="-3.1079800" lon="37.3611780">
    <ele>4279.9</ele>
    <time>2026-06-22T10:23:48Z</time>
   </trkpt>
   <trkpt lat="-3.1079750" lon="37.3611800">
    <ele>4279.9</ele>
    <time>2026-06-22T10:23:49Z</time>
   </trkpt>
   <trkpt lat="-3.1079720" lon="37.3611860">
    <ele>4280.0</ele>
    <time>2026-06-22T10:23:50Z</time>
   </trkpt>
   <trkpt lat="-3.1079720" lon="37.3611860">
    <ele>4280.0</ele>
    <time>2026-06-22T10:23:52Z</time>
   </trkpt>
   <trkpt lat="-3.1079680" lon="37.3611900">
    <ele>4280.1</ele>
    <time>2026-06-22T10:23:53Z</time>
   </trkpt>
   <trkpt lat="-3.1079670" lon="37.3611920">
    <ele>4280.1</ele>
    <time>2026-06-22T10:23:54Z</time>
   </trkpt>
   <trkpt lat="-3.1079620" lon="37.3611930">
    <ele>4280.2</ele>
    <time>2026-06-22T10:23:55Z</time>
   </trkpt>
   <trkpt lat="-3.1079560" lon="37.3611900">
    <ele>4280.3</ele>
    <time>2026-06-22T10:23:56Z</time>
   </trkpt>
   <trkpt lat="-3.1079520" lon="37.3611890">
    <ele>4280.3</ele>
    <time>2026-06-22T10:23:57Z</time>
   </trkpt>
   <trkpt lat="-3.1079480" lon="37.3611900">
    <ele>4280.4</ele>
    <time>2026-06-22T10:23:58Z</time>
   </trkpt>
   <trkpt lat="-3.1079430" lon="37.3611890">
    <ele>4280.4</ele>
    <time>2026-06-22T10:23:59Z</time>
   </trkpt>
   <trkpt lat="-3.1079410" lon="37.3611910">
    <ele>4280.5</ele>
    <time>2026-06-22T10:24:00Z</time>
   </trkpt>
   <trkpt lat="-3.1079350" lon="37.3611940">
    <ele>4280.5</ele>
    <time>2026-06-22T10:24:01Z</time>
   </trkpt>
   <trkpt lat="-3.1079320" lon="37.3611970">
    <ele>4280.6</ele>
    <time>2026-06-22T10:24:02Z</time>
   </trkpt>
   <trkpt lat="-3.1079320" lon="37.3611980">
    <ele>4280.6</ele>
    <time>2026-06-22T10:24:03Z</time>
   </trkpt>
   <trkpt lat="-3.1079310" lon="37.3612010">
    <ele>4280.6</ele>
    <time>2026-06-22T10:24:04Z</time>
   </trkpt>
   <trkpt lat="-3.1079280" lon="37.3612070">
    <ele>4280.7</ele>
    <time>2026-06-22T10:24:05Z</time>
   </trkpt>
   <trkpt lat="-3.1079300" lon="37.3612090">
    <ele>4280.7</ele>
    <time>2026-06-22T10:24:06Z</time>
   </trkpt>
   <trkpt lat="-3.1079280" lon="37.3612150">
    <ele>4280.8</ele>
    <time>2026-06-22T10:24:07Z</time>
   </trkpt>
   <trkpt lat="-3.1079290" lon="37.3612170">
    <ele>4280.8</ele>
    <time>2026-06-22T10:24:08Z</time>
   </trkpt>
   <trkpt lat="-3.1079270" lon="37.3612080">
    <ele>4280.9</ele>
    <time>2026-06-22T10:24:09Z</time>
   </trkpt>
   <trkpt lat="-3.1079290" lon="37.3612220">
    <ele>4281.1</ele>
    <time>2026-06-22T10:24:10Z</time>
   </trkpt>
   <trkpt lat="-3.1079280" lon="37.3612260">
    <ele>4281.1</ele>
    <time>2026-06-22T10:24:11Z</time>
   </trkpt>
   <trkpt lat="-3.1079290" lon="37.3612300">
    <ele>4281.2</ele>
    <time>2026-06-22T10:24:12Z</time>
   </trkpt>
   <trkpt lat="-3.1079300" lon="37.3612330">
    <ele>4281.2</ele>
    <time>2026-06-22T10:24:13Z</time>
   </trkpt>
   <trkpt lat="-3.1079300" lon="37.3612380">
    <ele>4281.3</ele>
    <time>2026-06-22T10:24:14Z</time>
   </trkpt>
   <trkpt lat="-3.1079300" lon="37.3612410">
    <ele>4281.3</ele>
    <time>2026-06-22T10:24:15Z</time>
   </trkpt>
   <trkpt lat="-3.1079290" lon="37.3612430">
    <ele>4281.3</ele>
    <time>2026-06-22T10:24:16Z</time>
   </trkpt>
   <trkpt lat="-3.1079280" lon="37.3612470">
    <ele>4281.4</ele>
    <time>2026-06-22T10:24:17Z</time>
   </trkpt>
   <trkpt lat="-3.1079270" lon="37.3612490">
    <ele>4281.4</ele>
    <time>2026-06-22T10:24:18Z</time>
   </trkpt>
   <trkpt lat="-3.1079270" lon="37.3612520">
    <ele>4281.4</ele>
    <time>2026-06-22T10:24:19Z</time>
   </trkpt>
   <trkpt lat="-3.1079260" lon="37.3612550">
    <ele>4281.5</ele>
    <time>2026-06-22T10:24:20Z</time>
   </trkpt>
   <trkpt lat="-3.1079250" lon="37.3612580">
    <ele>4281.5</ele>
    <time>2026-06-22T10:24:21Z</time>
   </trkpt>
   <trkpt lat="-3.1079240" lon="37.3612610">
    <ele>4281.5</ele>
    <time>2026-06-22T10:24:22Z</time>
   </trkpt>
   <trkpt lat="-3.1079230" lon="37.3612650">
    <ele>4281.6</ele>
    <time>2026-06-22T10:24:23Z</time>
   </trkpt>
   <trkpt lat="-3.1079170" lon="37.3612700">
    <ele>4281.7</ele>
    <time>2026-06-22T10:24:24Z</time>
   </trkpt>
   <trkpt lat="-3.1079200" lon="37.3612770">
    <ele>4281.7</ele>
    <time>2026-06-22T10:24:25Z</time>
   </trkpt>
   <trkpt lat="-3.1079180" lon="37.3612820">
    <ele>4281.8</ele>
    <time>2026-06-22T10:24:26Z</time>
   </trkpt>
   <trkpt lat="-3.1079120" lon="37.3612850">
    <ele>4281.9</ele>
    <time>2026-06-22T10:24:27Z</time>
   </trkpt>
   <trkpt lat="-3.1079030" lon="37.3612890">
    <ele>4282.0</ele>
    <time>2026-06-22T10:24:28Z</time>
   </trkpt>
   <trkpt lat="-3.1079000" lon="37.3612910">
    <ele>4282.0</ele>
    <time>2026-06-22T10:24:29Z</time>
   </trkpt>
   <trkpt lat="-3.1078990" lon="37.3612940">
    <ele>4282.0</ele>
    <time>2026-06-22T10:24:30Z</time>
   </trkpt>
   <trkpt lat="-3.1078950" lon="37.3613010">
    <ele>4282.1</ele>
    <time>2026-06-22T10:24:31Z</time>
   </trkpt>
   <trkpt lat="-3.1078910" lon="37.3613070">
    <ele>4282.2</ele>
    <time>2026-06-22T10:24:32Z</time>
   </trkpt>
   <trkpt lat="-3.1078880" lon="37.3613100">
    <ele>4282.3</ele>
    <time>2026-06-22T10:24:33Z</time>
   </trkpt>
   <trkpt lat="-3.1078830" lon="37.3613140">
    <ele>4282.3</ele>
    <time>2026-06-22T10:24:34Z</time>
   </trkpt>
   <trkpt lat="-3.1078810" lon="37.3613170">
    <ele>4282.4</ele>
    <time>2026-06-22T10:24:35Z</time>
   </trkpt>
   <trkpt lat="-3.1078790" lon="37.3613200">
    <ele>4282.4</ele>
    <time>2026-06-22T10:24:36Z</time>
   </trkpt>
   <trkpt lat="-3.1078800" lon="37.3613190">
    <ele>4282.4</ele>
    <time>2026-06-22T10:24:37Z</time>
   </trkpt>
   <trkpt lat="-3.1078770" lon="37.3613240">
    <ele>4282.5</ele>
    <time>2026-06-22T10:24:38Z</time>
   </trkpt>
   <trkpt lat="-3.1078720" lon="37.3613300">
    <ele>4282.5</ele>
    <time>2026-06-22T10:24:39Z</time>
   </trkpt>
   <trkpt lat="-3.1078670" lon="37.3613320">
    <ele>4282.6</ele>
    <time>2026-06-22T10:24:40Z</time>
   </trkpt>
   <trkpt lat="-3.1078650" lon="37.3613330">
    <ele>4282.6</ele>
    <time>2026-06-22T10:24:41Z</time>
   </trkpt>
   <trkpt lat="-3.1078610" lon="37.3613380">
    <ele>4282.7</ele>
    <time>2026-06-22T10:24:42Z</time>
   </trkpt>
   <trkpt lat="-3.1078610" lon="37.3613370">
    <ele>4282.7</ele>
    <time>2026-06-22T10:24:43Z</time>
   </trkpt>
   <trkpt lat="-3.1078580" lon="37.3613340">
    <ele>4282.7</ele>
    <time>2026-06-22T10:24:44Z</time>
   </trkpt>
   <trkpt lat="-3.1078550" lon="37.3613290">
    <ele>4282.8</ele>
    <time>2026-06-22T10:24:45Z</time>
   </trkpt>
   <trkpt lat="-3.1078530" lon="37.3613260">
    <ele>4282.8</ele>
    <time>2026-06-22T10:24:46Z</time>
   </trkpt>
   <trkpt lat="-3.1078510" lon="37.3613220">
    <ele>4282.9</ele>
    <time>2026-06-22T10:24:47Z</time>
   </trkpt>
   <trkpt lat="-3.1078460" lon="37.3613190">
    <ele>4282.9</ele>
    <time>2026-06-22T10:24:48Z</time>
   </trkpt>
   <trkpt lat="-3.1078400" lon="37.3613190">
    <ele>4283.0</ele>
    <time>2026-06-22T10:24:49Z</time>
   </trkpt>
   <trkpt lat="-3.1078350" lon="37.3613220">
    <ele>4283.0</ele>
    <time>2026-06-22T10:24:50Z</time>
   </trkpt>
   <trkpt lat="-3.1078330" lon="37.3613210">
    <ele>4283.1</ele>
    <time>2026-06-22T10:24:51Z</time>
   </trkpt>
   <trkpt lat="-3.1078330" lon="37.3613210">
    <ele>4283.1</ele>
    <time>2026-06-22T10:24:52Z</time>
   </trkpt>
   <trkpt lat="-3.1078340" lon="37.3613180">
    <ele>4283.1</ele>
    <time>2026-06-22T10:24:53Z</time>
   </trkpt>
   <trkpt lat="-3.1078350" lon="37.3613160">
    <ele>4283.1</ele>
    <time>2026-06-22T10:24:54Z</time>
   </trkpt>
   <trkpt lat="-3.1078360" lon="37.3613140">
    <ele>4283.1</ele>
    <time>2026-06-22T10:24:55Z</time>
   </trkpt>
   <trkpt lat="-3.1078340" lon="37.3613120">
    <ele>4283.1</ele>
    <time>2026-06-22T10:24:56Z</time>
   </trkpt>
   <trkpt lat="-3.1078280" lon="37.3613100">
    <ele>4283.2</ele>
    <time>2026-06-22T10:24:57Z</time>
   </trkpt>
   <trkpt lat="-3.1078190" lon="37.3613110">
    <ele>4283.3</ele>
    <time>2026-06-22T10:24:58Z</time>
   </trkpt>
   <trkpt lat="-3.1078120" lon="37.3613140">
    <ele>4283.4</ele>
    <time>2026-06-22T10:24:59Z</time>
   </trkpt>
   <trkpt lat="-3.1078110" lon="37.3613190">
    <ele>4283.4</ele>
    <time>2026-06-22T10:25:00Z</time>
   </trkpt>
   <trkpt lat="-3.1078130" lon="37.3613220">
    <ele>4283.4</ele>
    <time>2026-06-22T10:25:01Z</time>
   </trkpt>
   <trkpt lat="-3.1078120" lon="37.3613270">
    <ele>4283.5</ele>
    <time>2026-06-22T10:25:02Z</time>
   </trkpt>
   <trkpt lat="-3.1078080" lon="37.3613290">
    <ele>4283.5</ele>
    <time>2026-06-22T10:25:03Z</time>
   </trkpt>
   <trkpt lat="-3.1078020" lon="37.3613340">
    <ele>4283.6</ele>
    <time>2026-06-22T10:25:04Z</time>
   </trkpt>
   <trkpt lat="-3.1077970" lon="37.3613400">
    <ele>4283.7</ele>
    <time>2026-06-22T10:25:05Z</time>
   </trkpt>
   <trkpt lat="-3.1078000" lon="37.3613390">
    <ele>4283.7</ele>
    <time>2026-06-22T10:25:06Z</time>
   </trkpt>
   <trkpt lat="-3.1078030" lon="37.3613310">
    <ele>4283.8</ele>
    <time>2026-06-22T10:25:07Z</time>
   </trkpt>
   <trkpt lat="-3.1078000" lon="37.3613380">
    <ele>4283.8</ele>
    <time>2026-06-22T10:25:08Z</time>
   </trkpt>
   <trkpt lat="-3.1078010" lon="37.3613340">
    <ele>4283.9</ele>
    <time>2026-06-22T10:25:09Z</time>
   </trkpt>
   <trkpt lat="-3.1077990" lon="37.3613330">
    <ele>4283.9</ele>
    <time>2026-06-22T10:25:10Z</time>
   </trkpt>
   <trkpt lat="-3.1078010" lon="37.3613440">
    <ele>4284.0</ele>
    <time>2026-06-22T10:25:11Z</time>
   </trkpt>
   <trkpt lat="-3.1078000" lon="37.3613570">
    <ele>4284.1</ele>
    <time>2026-06-22T10:25:12Z</time>
   </trkpt>
   <trkpt lat="-3.1078000" lon="37.3613640">
    <ele>4284.1</ele>
    <time>2026-06-22T10:25:13Z</time>
   </trkpt>
   <trkpt lat="-3.1078080" lon="37.3613710">
    <ele>4284.2</ele>
    <time>2026-06-22T10:25:14Z</time>
   </trkpt>
   <trkpt lat="-3.1078100" lon="37.3613690">
    <ele>4284.2</ele>
    <time>2026-06-22T10:25:15Z</time>
   </trkpt>
   <trkpt lat="-3.1078240" lon="37.3613810">
    <ele>4284.4</ele>
    <time>2026-06-22T10:25:16Z</time>
   </trkpt>
   <trkpt lat="-3.1078350" lon="37.3613880">
    <ele>4284.5</ele>
    <time>2026-06-22T10:25:17Z</time>
   </trkpt>
   <trkpt lat="-3.1078420" lon="37.3613920">
    <ele>4284.5</ele>
    <time>2026-06-22T10:25:18Z</time>
   </trkpt>
   <trkpt lat="-3.1078450" lon="37.3613910">
    <ele>4284.5</ele>
    <time>2026-06-22T10:25:19Z</time>
   </trkpt>
   <trkpt lat="-3.1078440" lon="37.3613900">
    <ele>4284.5</ele>
    <time>2026-06-22T10:25:20Z</time>
   </trkpt>
   <trkpt lat="-3.1078480" lon="37.3613920">
    <ele>4284.6</ele>
    <time>2026-06-22T10:25:21Z</time>
   </trkpt>
   <trkpt lat="-3.1078520" lon="37.3613910">
    <ele>4284.6</ele>
    <time>2026-06-22T10:25:22Z</time>
   </trkpt>
   <trkpt lat="-3.1078550" lon="37.3613920">
    <ele>4284.6</ele>
    <time>2026-06-22T10:25:23Z</time>
   </trkpt>
   <trkpt lat="-3.1078590" lon="37.3613910">
    <ele>4284.7</ele>
    <time>2026-06-22T10:25:24Z</time>
   </trkpt>
   <trkpt lat="-3.1078640" lon="37.3613900">
    <ele>4284.7</ele>
    <time>2026-06-22T10:25:25Z</time>
   </trkpt>
   <trkpt lat="-3.1078660" lon="37.3613900">
    <ele>4284.7</ele>
    <time>2026-06-22T10:25:26Z</time>
   </trkpt>
   <trkpt lat="-3.1078670" lon="37.3613900">
    <ele>4284.7</ele>
    <time>2026-06-22T10:25:27Z</time>
   </trkpt>
   <trkpt lat="-3.1078680" lon="37.3613910">
    <ele>4284.7</ele>
    <time>2026-06-22T10:25:28Z</time>
   </trkpt>
   <trkpt lat="-3.1078680" lon="37.3613910">
    <ele>4284.7</ele>
    <time>2026-06-22T10:25:29Z</time>
   </trkpt>
   <trkpt lat="-3.1078680" lon="37.3613920">
    <ele>4284.7</ele>
    <time>2026-06-22T10:25:30Z</time>
   </trkpt>
   <trkpt lat="-3.1078690" lon="37.3613920">
    <ele>4284.7</ele>
    <time>2026-06-22T10:25:31Z</time>
   </trkpt>
   <trkpt lat="-3.1078690" lon="37.3613930">
    <ele>4284.7</ele>
    <time>2026-06-22T10:25:32Z</time>
   </trkpt>
   <trkpt lat="-3.1078700" lon="37.3613920">
    <ele>4284.8</ele>
    <time>2026-06-22T10:25:33Z</time>
   </trkpt>
   <trkpt lat="-3.1078690" lon="37.3613920">
    <ele>4284.8</ele>
    <time>2026-06-22T10:25:34Z</time>
   </trkpt>
   <trkpt lat="-3.1078690" lon="37.3613920">
    <ele>4284.8</ele>
    <time>2026-06-22T10:25:35Z</time>
   </trkpt>
   <trkpt lat="-3.1078690" lon="37.3613920">
    <ele>4284.8</ele>
    <time>2026-06-22T10:25:36Z</time>
   </trkpt>
   <trkpt lat="-3.1078640" lon="37.3613880">
    <ele>4284.8</ele>
    <time>2026-06-22T10:25:37Z</time>
   </trkpt>
   <trkpt lat="-3.1078630" lon="37.3613880">
    <ele>4284.8</ele>
    <time>2026-06-22T10:25:38Z</time>
   </trkpt>
   <trkpt lat="-3.1078630" lon="37.3613880">
    <ele>4284.8</ele>
    <time>2026-06-22T10:25:39Z</time>
   </trkpt>
   <trkpt lat="-3.1078630" lon="37.3613900">
    <ele>4284.8</ele>
    <time>2026-06-22T10:25:40Z</time>
   </trkpt>
   <trkpt lat="-3.1078630" lon="37.3613900">
    <ele>4284.8</ele>
    <time>2026-06-22T10:25:41Z</time>
   </trkpt>
   <trkpt lat="-3.1078610" lon="37.3613900">
    <ele>4284.8</ele>
    <time>2026-06-22T10:25:42Z</time>
   </trkpt>
   <trkpt lat="-3.1078600" lon="37.3613900">
    <ele>4284.8</ele>
    <time>2026-06-22T10:25:43Z</time>
   </trkpt>
   <trkpt lat="-3.1078590" lon="37.3613900">
    <ele>4284.8</ele>
    <time>2026-06-22T10:25:44Z</time>
   </trkpt>
   <trkpt lat="-3.1078590" lon="37.3613900">
    <ele>4284.8</ele>
    <time>2026-06-22T10:25:45Z</time>
   </trkpt>
   <trkpt lat="-3.1078600" lon="37.3613920">
    <ele>4284.9</ele>
    <time>2026-06-22T10:25:46Z</time>
   </trkpt>
   <trkpt lat="-3.1078600" lon="37.3613930">
    <ele>4284.9</ele>
    <time>2026-06-22T10:25:47Z</time>
   </trkpt>
   <trkpt lat="-3.1078560" lon="37.3614000">
    <ele>4284.9</ele>
    <time>2026-06-22T10:25:48Z</time>
   </trkpt>
   <trkpt lat="-3.1078580" lon="37.3613990">
    <ele>4284.9</ele>
    <time>2026-06-22T10:25:49Z</time>
   </trkpt>
   <trkpt lat="-3.1078430" lon="37.3614010">
    <ele>4285.0</ele>
    <time>2026-06-22T10:25:50Z</time>
   </trkpt>
   <trkpt lat="-3.1078440" lon="37.3614040">
    <ele>4285.1</ele>
    <time>2026-06-22T10:25:51Z</time>
   </trkpt>
   <trkpt lat="-3.1078340" lon="37.3614320">
    <ele>4285.2</ele>
    <time>2026-06-22T10:25:52Z</time>
   </trkpt>
   <trkpt lat="-3.1078270" lon="37.3614350">
    <ele>4285.3</ele>
    <time>2026-06-22T10:25:53Z</time>
   </trkpt>
   <trkpt lat="-3.1078230" lon="37.3614430">
    <ele>4285.3</ele>
    <time>2026-06-22T10:25:54Z</time>
   </trkpt>
   <trkpt lat="-3.1078130" lon="37.3614480">
    <ele>4285.4</ele>
    <time>2026-06-22T10:25:55Z</time>
   </trkpt>
   <trkpt lat="-3.1078040" lon="37.3614490">
    <ele>4285.5</ele>
    <time>2026-06-22T10:25:56Z</time>
   </trkpt>
   <trkpt lat="-3.1077920" lon="37.3614520">
    <ele>4285.5</ele>
    <time>2026-06-22T10:25:57Z</time>
   </trkpt>
   <trkpt lat="-3.1077820" lon="37.3614560">
    <ele>4285.6</ele>
    <time>2026-06-22T10:25:58Z</time>
   </trkpt>
   <trkpt lat="-3.1077730" lon="37.3614580">
    <ele>4285.7</ele>
    <time>2026-06-22T10:25:59Z</time>
   </trkpt>
   <trkpt lat="-3.1077660" lon="37.3614650">
    <ele>4285.7</ele>
    <time>2026-06-22T10:26:00Z</time>
   </trkpt>
   <trkpt lat="-3.1077590" lon="37.3614780">
    <ele>4285.8</ele>
    <time>2026-06-22T10:26:01Z</time>
   </trkpt>
   <trkpt lat="-3.1077550" lon="37.3614920">
    <ele>4285.9</ele>
    <time>2026-06-22T10:26:02Z</time>
   </trkpt>
   <trkpt lat="-3.1077500" lon="37.3615020">
    <ele>4286.0</ele>
    <time>2026-06-22T10:26:03Z</time>
   </trkpt>
   <trkpt lat="-3.1077430" lon="37.3615080">
    <ele>4286.0</ele>
    <time>2026-06-22T10:26:04Z</time>
   </trkpt>
   <trkpt lat="-3.1077360" lon="37.3615160">
    <ele>4286.1</ele>
    <time>2026-06-22T10:26:05Z</time>
   </trkpt>
   <trkpt lat="-3.1077260" lon="37.3615200">
    <ele>4286.1</ele>
    <time>2026-06-22T10:26:06Z</time>
   </trkpt>
   <trkpt lat="-3.1077200" lon="37.3615240">
    <ele>4286.2</ele>
    <time>2026-06-22T10:26:07Z</time>
   </trkpt>
   <trkpt lat="-3.1077120" lon="37.3615310">
    <ele>4286.2</ele>
    <time>2026-06-22T10:26:08Z</time>
   </trkpt>
   <trkpt lat="-3.1077110" lon="37.3615360">
    <ele>4286.3</ele>
    <time>2026-06-22T10:26:09Z</time>
   </trkpt>
   <trkpt lat="-3.1077080" lon="37.3615440">
    <ele>4286.3</ele>
    <time>2026-06-22T10:26:10Z</time>
   </trkpt>
   <trkpt lat="-3.1077040" lon="37.3615470">
    <ele>4286.4</ele>
    <time>2026-06-22T10:26:11Z</time>
   </trkpt>
   <trkpt lat="-3.1076930" lon="37.3615540">
    <ele>4286.4</ele>
    <time>2026-06-22T10:26:12Z</time>
   </trkpt>
   <trkpt lat="-3.1076880" lon="37.3615530">
    <ele>4286.5</ele>
    <time>2026-06-22T10:26:13Z</time>
   </trkpt>
   <trkpt lat="-3.1076800" lon="37.3615590">
    <ele>4286.5</ele>
    <time>2026-06-22T10:26:14Z</time>
   </trkpt>
   <trkpt lat="-3.1076720" lon="37.3615640">
    <ele>4286.6</ele>
    <time>2026-06-22T10:26:15Z</time>
   </trkpt>
   <trkpt lat="-3.1076690" lon="37.3615700">
    <ele>4286.6</ele>
    <time>2026-06-22T10:26:16Z</time>
   </trkpt>
   <trkpt lat="-3.1076640" lon="37.3615770">
    <ele>4286.7</ele>
    <time>2026-06-22T10:26:17Z</time>
   </trkpt>
   <trkpt lat="-3.1076650" lon="37.3615790">
    <ele>4286.7</ele>
    <time>2026-06-22T10:26:18Z</time>
   </trkpt>
   <trkpt lat="-3.1076650" lon="37.3615800">
    <ele>4286.7</ele>
    <time>2026-06-22T10:26:19Z</time>
   </trkpt>
   <trkpt lat="-3.1076650" lon="37.3615780">
    <ele>4286.7</ele>
    <time>2026-06-22T10:26:20Z</time>
   </trkpt>
   <trkpt lat="-3.1076650" lon="37.3615780">
    <ele>4286.7</ele>
    <time>2026-06-22T10:26:21Z</time>
   </trkpt>
   <trkpt lat="-3.1076650" lon="37.3615780">
    <ele>4286.7</ele>
    <time>2026-06-22T10:26:22Z</time>
   </trkpt>
   <trkpt lat="-3.1076650" lon="37.3615770">
    <ele>4286.7</ele>
    <time>2026-06-22T10:26:23Z</time>
   </trkpt>
   <trkpt lat="-3.1076660" lon="37.3615780">
    <ele>4286.7</ele>
    <time>2026-06-22T10:26:24Z</time>
   </trkpt>
   <trkpt lat="-3.1076660" lon="37.3615780">
    <ele>4286.7</ele>
    <time>2026-06-22T10:26:25Z</time>
   </trkpt>
   <trkpt lat="-3.1076670" lon="37.3615770">
    <ele>4286.8</ele>
    <time>2026-06-22T10:26:26Z</time>
   </trkpt>
   <trkpt lat="-3.1076670" lon="37.3615770">
    <ele>4286.8</ele>
    <time>2026-06-22T10:26:27Z</time>
   </trkpt>
   <trkpt lat="-3.1076670" lon="37.3615770">
    <ele>4286.8</ele>
    <time>2026-06-22T10:26:28Z</time>
   </trkpt>
   <trkpt lat="-3.1076680" lon="37.3615770">
    <ele>4286.8</ele>
    <time>2026-06-22T10:26:29Z</time>
   </trkpt>
   <trkpt lat="-3.1076680" lon="37.3615780">
    <ele>4286.8</ele>
    <time>2026-06-22T10:26:30Z</time>
   </trkpt>
   <trkpt lat="-3.1076670" lon="37.3615770">
    <ele>4286.8</ele>
    <time>2026-06-22T10:26:31Z</time>
   </trkpt>
   <trkpt lat="-3.1076670" lon="37.3615770">
    <ele>4286.8</ele>
    <time>2026-06-22T10:26:32Z</time>
   </trkpt>
   <trkpt lat="-3.1076670" lon="37.3615770">
    <ele>4286.8</ele>
    <time>2026-06-22T10:26:33Z</time>
   </trkpt>
   <trkpt lat="-3.1076670" lon="37.3615770">
    <ele>4286.8</ele>
    <time>2026-06-22T10:26:34Z</time>
   </trkpt>
   <trkpt lat="-3.1076690" lon="37.3615810">
    <ele>4286.8</ele>
    <time>2026-06-22T10:26:35Z</time>
   </trkpt>
   <trkpt lat="-3.1076720" lon="37.3615980">
    <ele>4286.9</ele>
    <time>2026-06-22T10:26:36Z</time>
   </trkpt>
   <trkpt lat="-3.1076800" lon="37.3616080">
    <ele>4287.0</ele>
    <time>2026-06-22T10:26:37Z</time>
   </trkpt>
   <trkpt lat="-3.1076780" lon="37.3616150">
    <ele>4287.0</ele>
    <time>2026-06-22T10:26:38Z</time>
   </trkpt>
   <trkpt lat="-3.1076760" lon="37.3616170">
    <ele>4287.1</ele>
    <time>2026-06-22T10:26:39Z</time>
   </trkpt>
   <trkpt lat="-3.1076790" lon="37.3616240">
    <ele>4287.1</ele>
    <time>2026-06-22T10:26:40Z</time>
   </trkpt>
   <trkpt lat="-3.1076780" lon="37.3616260">
    <ele>4287.1</ele>
    <time>2026-06-22T10:26:41Z</time>
   </trkpt>
   <trkpt lat="-3.1076780" lon="37.3616280">
    <ele>4287.1</ele>
    <time>2026-06-22T10:26:42Z</time>
   </trkpt>
   <trkpt lat="-3.1076830" lon="37.3616320">
    <ele>4287.2</ele>
    <time>2026-06-22T10:26:43Z</time>
   </trkpt>
   <trkpt lat="-3.1076900" lon="37.3616380">
    <ele>4287.2</ele>
    <time>2026-06-22T10:26:44Z</time>
   </trkpt>
   <trkpt lat="-3.1076990" lon="37.3616470">
    <ele>4287.3</ele>
    <time>2026-06-22T10:26:45Z</time>
   </trkpt>
   <trkpt lat="-3.1077040" lon="37.3616550">
    <ele>4287.4</ele>
    <time>2026-06-22T10:26:46Z</time>
   </trkpt>
   <trkpt lat="-3.1076960" lon="37.3616600">
    <ele>4287.4</ele>
    <time>2026-06-22T10:26:47Z</time>
   </trkpt>
   <trkpt lat="-3.1076910" lon="37.3616650">
    <ele>4287.5</ele>
    <time>2026-06-22T10:26:48Z</time>
   </trkpt>
   <trkpt lat="-3.1076840" lon="37.3616750">
    <ele>4287.6</ele>
    <time>2026-06-22T10:26:49Z</time>
   </trkpt>
   <trkpt lat="-3.1076810" lon="37.3616790">
    <ele>4287.6</ele>
    <time>2026-06-22T10:26:50Z</time>
   </trkpt>
   <trkpt lat="-3.1076850" lon="37.3616860">
    <ele>4287.7</ele>
    <time>2026-06-22T10:26:51Z</time>
   </trkpt>
   <trkpt lat="-3.1076850" lon="37.3617020">
    <ele>4287.8</ele>
    <time>2026-06-22T10:26:52Z</time>
   </trkpt>
   <trkpt lat="-3.1076790" lon="37.3617080">
    <ele>4287.8</ele>
    <time>2026-06-22T10:26:53Z</time>
   </trkpt>
   <trkpt lat="-3.1076720" lon="37.3617150">
    <ele>4287.9</ele>
    <time>2026-06-22T10:26:54Z</time>
   </trkpt>
   <trkpt lat="-3.1076720" lon="37.3617230">
    <ele>4287.9</ele>
    <time>2026-06-22T10:26:55Z</time>
   </trkpt>
   <trkpt lat="-3.1076700" lon="37.3617300">
    <ele>4288.0</ele>
    <time>2026-06-22T10:26:56Z</time>
   </trkpt>
   <trkpt lat="-3.1076660" lon="37.3617380">
    <ele>4288.0</ele>
    <time>2026-06-22T10:26:57Z</time>
   </trkpt>
   <trkpt lat="-3.1076640" lon="37.3617460">
    <ele>4288.1</ele>
    <time>2026-06-22T10:26:58Z</time>
   </trkpt>
   <trkpt lat="-3.1076580" lon="37.3617480">
    <ele>4288.1</ele>
    <time>2026-06-22T10:26:59Z</time>
   </trkpt>
   <trkpt lat="-3.1076580" lon="37.3617490">
    <ele>4288.1</ele>
    <time>2026-06-22T10:27:00Z</time>
   </trkpt>
   <trkpt lat="-3.1076530" lon="37.3617550">
    <ele>4288.2</ele>
    <time>2026-06-22T10:27:01Z</time>
   </trkpt>
   <trkpt lat="-3.1076480" lon="37.3617620">
    <ele>4288.2</ele>
    <time>2026-06-22T10:27:02Z</time>
   </trkpt>
   <trkpt lat="-3.1076430" lon="37.3617690">
    <ele>4288.3</ele>
    <time>2026-06-22T10:27:03Z</time>
   </trkpt>
   <trkpt lat="-3.1076390" lon="37.3617750">
    <ele>4288.3</ele>
    <time>2026-06-22T10:27:04Z</time>
   </trkpt>
   <trkpt lat="-3.1076320" lon="37.3617790">
    <ele>4288.4</ele>
    <time>2026-06-22T10:27:05Z</time>
   </trkpt>
   <trkpt lat="-3.1076360" lon="37.3617820">
    <ele>4288.4</ele>
    <time>2026-06-22T10:27:06Z</time>
   </trkpt>
   <trkpt lat="-3.1076400" lon="37.3617910">
    <ele>4288.5</ele>
    <time>2026-06-22T10:27:07Z</time>
   </trkpt>
   <trkpt lat="-3.1076270" lon="37.3617980">
    <ele>4288.6</ele>
    <time>2026-06-22T10:27:08Z</time>
   </trkpt>
   <trkpt lat="-3.1076200" lon="37.3618070">
    <ele>4288.7</ele>
    <time>2026-06-22T10:27:09Z</time>
   </trkpt>
   <trkpt lat="-3.1076160" lon="37.3618160">
    <ele>4288.7</ele>
    <time>2026-06-22T10:27:10Z</time>
   </trkpt>
   <trkpt lat="-3.1076160" lon="37.3618180">
    <ele>4288.8</ele>
    <time>2026-06-22T10:27:11Z</time>
   </trkpt>
   <trkpt lat="-3.1076170" lon="37.3618160">
    <ele>4288.8</ele>
    <time>2026-06-22T10:27:12Z</time>
   </trkpt>
   <trkpt lat="-3.1076190" lon="37.3618140">
    <ele>4288.8</ele>
    <time>2026-06-22T10:27:13Z</time>
   </trkpt>
   <trkpt lat="-3.1076170" lon="37.3618150">
    <ele>4288.8</ele>
    <time>2026-06-22T10:27:14Z</time>
   </trkpt>
   <trkpt lat="-3.1076180" lon="37.3618140">
    <ele>4288.8</ele>
    <time>2026-06-22T10:27:15Z</time>
   </trkpt>
   <trkpt lat="-3.1076200" lon="37.3618140">
    <ele>4288.8</ele>
    <time>2026-06-22T10:27:16Z</time>
   </trkpt>
   <trkpt lat="-3.1076200" lon="37.3618140">
    <ele>4288.8</ele>
    <time>2026-06-22T10:27:17Z</time>
   </trkpt>
   <trkpt lat="-3.1076200" lon="37.3618140">
    <ele>4288.8</ele>
    <time>2026-06-22T10:27:18Z</time>
   </trkpt>
   <trkpt lat="-3.1076210" lon="37.3618140">
    <ele>4288.8</ele>
    <time>2026-06-22T10:27:19Z</time>
   </trkpt>
   <trkpt lat="-3.1076210" lon="37.3618130">
    <ele>4288.8</ele>
    <time>2026-06-22T10:27:20Z</time>
   </trkpt>
   <trkpt lat="-3.1076210" lon="37.3618140">
    <ele>4288.9</ele>
    <time>2026-06-22T10:27:21Z</time>
   </trkpt>
   <trkpt lat="-3.1076210" lon="37.3618140">
    <ele>4288.9</ele>
    <time>2026-06-22T10:27:22Z</time>
   </trkpt>
   <trkpt lat="-3.1076220" lon="37.3618140">
    <ele>4288.9</ele>
    <time>2026-06-22T10:27:23Z</time>
   </trkpt>
   <trkpt lat="-3.1076230" lon="37.3618140">
    <ele>4288.9</ele>
    <time>2026-06-22T10:27:24Z</time>
   </trkpt>
   <trkpt lat="-3.1076230" lon="37.3618140">
    <ele>4288.9</ele>
    <time>2026-06-22T10:27:25Z</time>
   </trkpt>
   <trkpt lat="-3.1076230" lon="37.3618140">
    <ele>4288.9</ele>
    <time>2026-06-22T10:27:26Z</time>
   </trkpt>
   <trkpt lat="-3.1076230" lon="37.3618130">
    <ele>4288.9</ele>
    <time>2026-06-22T10:27:27Z</time>
   </trkpt>
   <trkpt lat="-3.1076240" lon="37.3618130">
    <ele>4288.9</ele>
    <time>2026-06-22T10:27:28Z</time>
   </trkpt>
   <trkpt lat="-3.1076250" lon="37.3618120">
    <ele>4288.9</ele>
    <time>2026-06-22T10:27:29Z</time>
   </trkpt>
   <trkpt lat="-3.1076260" lon="37.3618120">
    <ele>4288.9</ele>
    <time>2026-06-22T10:27:30Z</time>
   </trkpt>
   <trkpt lat="-3.1076250" lon="37.3618120">
    <ele>4288.9</ele>
    <time>2026-06-22T10:27:31Z</time>
   </trkpt>
   <trkpt lat="-3.1076260" lon="37.3618130">
    <ele>4288.9</ele>
    <time>2026-06-22T10:27:32Z</time>
   </trkpt>
   <trkpt lat="-3.1076270" lon="37.3618130">
    <ele>4288.9</ele>
    <time>2026-06-22T10:27:33Z</time>
   </trkpt>
   <trkpt lat="-3.1076280" lon="37.3618140">
    <ele>4288.9</ele>
    <time>2026-06-22T10:27:34Z</time>
   </trkpt>
   <trkpt lat="-3.1076290" lon="37.3618140">
    <ele>4288.9</ele>
    <time>2026-06-22T10:27:35Z</time>
   </trkpt>
   <trkpt lat="-3.1076290" lon="37.3618140">
    <ele>4288.9</ele>
    <time>2026-06-22T10:27:36Z</time>
   </trkpt>
   <trkpt lat="-3.1076300" lon="37.3618140">
    <ele>4289.0</ele>
    <time>2026-06-22T10:27:37Z</time>
   </trkpt>
   <trkpt lat="-3.1076300" lon="37.3618140">
    <ele>4289.0</ele>
    <time>2026-06-22T10:27:38Z</time>
   </trkpt>
   <trkpt lat="-3.1076310" lon="37.3618140">
    <ele>4289.0</ele>
    <time>2026-06-22T10:27:39Z</time>
   </trkpt>
   <trkpt lat="-3.1076320" lon="37.3618140">
    <ele>4289.0</ele>
    <time>2026-06-22T10:27:40Z</time>
   </trkpt>
   <trkpt lat="-3.1076320" lon="37.3618140">
    <ele>4289.0</ele>
    <time>2026-06-22T10:27:41Z</time>
   </trkpt>
   <trkpt lat="-3.1076320" lon="37.3618140">
    <ele>4289.0</ele>
    <time>2026-06-22T10:27:42Z</time>
   </trkpt>
   <trkpt lat="-3.1076330" lon="37.3618130">
    <ele>4289.0</ele>
    <time>2026-06-22T10:27:43Z</time>
   </trkpt>
   <trkpt lat="-3.1076330" lon="37.3618140">
    <ele>4289.0</ele>
    <time>2026-06-22T10:27:44Z</time>
   </trkpt>
   <trkpt lat="-3.1076330" lon="37.3618140">
    <ele>4289.0</ele>
    <time>2026-06-22T10:27:45Z</time>
   </trkpt>
   <trkpt lat="-3.1076340" lon="37.3618130">
    <ele>4289.0</ele>
    <time>2026-06-22T10:27:46Z</time>
   </trkpt>
   <trkpt lat="-3.1076360" lon="37.3618110">
    <ele>4289.0</ele>
    <time>2026-06-22T10:27:47Z</time>
   </trkpt>
   <trkpt lat="-3.1076380" lon="37.3618070">
    <ele>4289.1</ele>
    <time>2026-06-22T10:27:48Z</time>
   </trkpt>
   <trkpt lat="-3.1076390" lon="37.3618030">
    <ele>4289.1</ele>
    <time>2026-06-22T10:27:49Z</time>
   </trkpt>
   <trkpt lat="-3.1076350" lon="37.3618040">
    <ele>4289.1</ele>
    <time>2026-06-22T10:27:50Z</time>
   </trkpt>
   <trkpt lat="-3.1076390" lon="37.3618000">
    <ele>4289.2</ele>
    <time>2026-06-22T10:27:51Z</time>
   </trkpt>
   <trkpt lat="-3.1076380" lon="37.3618010">
    <ele>4289.2</ele>
    <time>2026-06-22T10:27:52Z</time>
   </trkpt>
   <trkpt lat="-3.1076410" lon="37.3618050">
    <ele>4289.2</ele>
    <time>2026-06-22T10:27:53Z</time>
   </trkpt>
   <trkpt lat="-3.1076420" lon="37.3618060">
    <ele>4289.2</ele>
    <time>2026-06-22T10:27:54Z</time>
   </trkpt>
   <trkpt lat="-3.1076420" lon="37.3618050">
    <ele>4289.2</ele>
    <time>2026-06-22T10:27:55Z</time>
   </trkpt>
   <trkpt lat="-3.1076410" lon="37.3618070">
    <ele>4289.2</ele>
    <time>2026-06-22T10:27:56Z</time>
   </trkpt>
   <trkpt lat="-3.1076410" lon="37.3618100">
    <ele>4289.3</ele>
    <time>2026-06-22T10:27:57Z</time>
   </trkpt>
   <trkpt lat="-3.1076450" lon="37.3618110">
    <ele>4289.3</ele>
    <time>2026-06-22T10:27:58Z</time>
   </trkpt>
   <trkpt lat="-3.1076450" lon="37.3618110">
    <ele>4289.3</ele>
    <time>2026-06-22T10:27:59Z</time>
   </trkpt>
   <trkpt lat="-3.1076440" lon="37.3618120">
    <ele>4289.3</ele>
    <time>2026-06-22T10:28:00Z</time>
   </trkpt>
   <trkpt lat="-3.1076430" lon="37.3618130">
    <ele>4289.3</ele>
    <time>2026-06-22T10:28:01Z</time>
   </trkpt>
   <trkpt lat="-3.1076440" lon="37.3618130">
    <ele>4289.3</ele>
    <time>2026-06-22T10:28:02Z</time>
   </trkpt>
   <trkpt lat="-3.1076440" lon="37.3618130">
    <ele>4289.3</ele>
    <time>2026-06-22T10:28:03Z</time>
   </trkpt>
   <trkpt lat="-3.1076450" lon="37.3618130">
    <ele>4289.3</ele>
    <time>2026-06-22T10:28:04Z</time>
   </trkpt>
   <trkpt lat="-3.1076460" lon="37.3618140">
    <ele>4289.3</ele>
    <time>2026-06-22T10:28:05Z</time>
   </trkpt>
   <trkpt lat="-3.1076450" lon="37.3618130">
    <ele>4289.4</ele>
    <time>2026-06-22T10:28:06Z</time>
   </trkpt>
   <trkpt lat="-3.1076450" lon="37.3618100">
    <ele>4289.4</ele>
    <time>2026-06-22T10:28:07Z</time>
   </trkpt>
   <trkpt lat="-3.1076500" lon="37.3618060">
    <ele>4289.4</ele>
    <time>2026-06-22T10:28:08Z</time>
   </trkpt>
   <trkpt lat="-3.1076540" lon="37.3618010">
    <ele>4289.5</ele>
    <time>2026-06-22T10:28:09Z</time>
   </trkpt>
   <trkpt lat="-3.1076520" lon="37.3617980">
    <ele>4289.5</ele>
    <time>2026-06-22T10:28:10Z</time>
   </trkpt>
   <trkpt lat="-3.1076530" lon="37.3617930">
    <ele>4289.6</ele>
    <time>2026-06-22T10:28:11Z</time>
   </trkpt>
   <trkpt lat="-3.1076520" lon="37.3617880">
    <ele>4289.6</ele>
    <time>2026-06-22T10:28:12Z</time>
   </trkpt>
   <trkpt lat="-3.1076520" lon="37.3617790">
    <ele>4289.7</ele>
    <time>2026-06-22T10:28:13Z</time>
   </trkpt>
   <trkpt lat="-3.1076580" lon="37.3617740">
    <ele>4289.7</ele>
    <time>2026-06-22T10:28:14Z</time>
   </trkpt>
   <trkpt lat="-3.1076670" lon="37.3617590">
    <ele>4289.9</ele>
    <time>2026-06-22T10:28:15Z</time>
   </trkpt>
   <trkpt lat="-3.1076660" lon="37.3617600">
    <ele>4289.9</ele>
    <time>2026-06-22T10:28:16Z</time>
   </trkpt>
   <trkpt lat="-3.1076720" lon="37.3617520">
    <ele>4290.0</ele>
    <time>2026-06-22T10:28:17Z</time>
   </trkpt>
   <trkpt lat="-3.1076760" lon="37.3617510">
    <ele>4290.0</ele>
    <time>2026-06-22T10:28:18Z</time>
   </trkpt>
   <trkpt lat="-3.1076770" lon="37.3617470">
    <ele>4290.1</ele>
    <time>2026-06-22T10:28:19Z</time>
   </trkpt>
   <trkpt lat="-3.1076740" lon="37.3617440">
    <ele>4290.1</ele>
    <time>2026-06-22T10:28:20Z</time>
   </trkpt>
   <trkpt lat="-3.1076710" lon="37.3617390">
    <ele>4290.2</ele>
    <time>2026-06-22T10:28:21Z</time>
   </trkpt>
   <trkpt lat="-3.1076750" lon="37.3617300">
    <ele>4290.3</ele>
    <time>2026-06-22T10:28:22Z</time>
   </trkpt>
   <trkpt lat="-3.1076770" lon="37.3617230">
    <ele>4290.3</ele>
    <time>2026-06-22T10:28:23Z</time>
   </trkpt>
   <trkpt lat="-3.1076800" lon="37.3617150">
    <ele>4290.4</ele>
    <time>2026-06-22T10:28:24Z</time>
   </trkpt>
   <trkpt lat="-3.1076830" lon="37.3617070">
    <ele>4290.5</ele>
    <time>2026-06-22T10:28:25Z</time>
   </trkpt>
   <trkpt lat="-3.1076880" lon="37.3616980">
    <ele>4290.6</ele>
    <time>2026-06-22T10:28:26Z</time>
   </trkpt>
   <trkpt lat="-3.1076890" lon="37.3616940">
    <ele>4290.6</ele>
    <time>2026-06-22T10:28:27Z</time>
   </trkpt>
   <trkpt lat="-3.1076890" lon="37.3616850">
    <ele>4290.7</ele>
    <time>2026-06-22T10:28:28Z</time>
   </trkpt>
   <trkpt lat="-3.1076900" lon="37.3616740">
    <ele>4290.8</ele>
    <time>2026-06-22T10:28:29Z</time>
   </trkpt>
   <trkpt lat="-3.1076930" lon="37.3616680">
    <ele>4290.9</ele>
    <time>2026-06-22T10:28:30Z</time>
   </trkpt>
   <trkpt lat="-3.1077010" lon="37.3616630">
    <ele>4291.0</ele>
    <time>2026-06-22T10:28:31Z</time>
   </trkpt>
   <trkpt lat="-3.1077050" lon="37.3616620">
    <ele>4291.0</ele>
    <time>2026-06-22T10:28:32Z</time>
   </trkpt>
   <trkpt lat="-3.1077050" lon="37.3616610">
    <ele>4291.0</ele>
    <time>2026-06-22T10:28:33Z</time>
   </trkpt>
   <trkpt lat="-3.1076920" lon="37.3616640">
    <ele>4291.1</ele>
    <time>2026-06-22T10:28:34Z</time>
   </trkpt>
   <trkpt lat="-3.1076990" lon="37.3616640">
    <ele>4291.2</ele>
    <time>2026-06-22T10:28:35Z</time>
   </trkpt>
   <trkpt lat="-3.1077010" lon="37.3616630">
    <ele>4291.2</ele>
    <time>2026-06-22T10:28:36Z</time>
   </trkpt>
   <trkpt lat="-3.1077000" lon="37.3616640">
    <ele>4291.2</ele>
    <time>2026-06-22T10:28:37Z</time>
   </trkpt>
   <trkpt lat="-3.1077010" lon="37.3616630">
    <ele>4291.2</ele>
    <time>2026-06-22T10:28:38Z</time>
   </trkpt>
   <trkpt lat="-3.1077020" lon="37.3616640">
    <ele>4291.3</ele>
    <time>2026-06-22T10:28:39Z</time>
   </trkpt>
   <trkpt lat="-3.1077020" lon="37.3616630">
    <ele>4291.3</ele>
    <time>2026-06-22T10:28:40Z</time>
   </trkpt>
   <trkpt lat="-3.1077030" lon="37.3616640">
    <ele>4291.3</ele>
    <time>2026-06-22T10:28:41Z</time>
   </trkpt>
   <trkpt lat="-3.1077060" lon="37.3616640">
    <ele>4291.3</ele>
    <time>2026-06-22T10:28:42Z</time>
   </trkpt>
   <trkpt lat="-3.1077040" lon="37.3616640">
    <ele>4291.3</ele>
    <time>2026-06-22T10:28:43Z</time>
   </trkpt>
   <trkpt lat="-3.1077050" lon="37.3616640">
    <ele>4291.3</ele>
    <time>2026-06-22T10:28:44Z</time>
   </trkpt>
   <trkpt lat="-3.1077060" lon="37.3616640">
    <ele>4291.3</ele>
    <time>2026-06-22T10:28:45Z</time>
   </trkpt>
   <trkpt lat="-3.1077070" lon="37.3616640">
    <ele>4291.4</ele>
    <time>2026-06-22T10:28:46Z</time>
   </trkpt>
   <trkpt lat="-3.1077020" lon="37.3616660">
    <ele>4291.4</ele>
    <time>2026-06-22T10:28:47Z</time>
   </trkpt>
   <trkpt lat="-3.1077050" lon="37.3616650">
    <ele>4291.4</ele>
    <time>2026-06-22T10:28:48Z</time>
   </trkpt>
   <trkpt lat="-3.1077060" lon="37.3616640">
    <ele>4291.5</ele>
    <time>2026-06-22T10:28:49Z</time>
   </trkpt>
   <trkpt lat="-3.1077030" lon="37.3616620">
    <ele>4291.5</ele>
    <time>2026-06-22T10:28:50Z</time>
   </trkpt>
   <trkpt lat="-3.1077040" lon="37.3616620">
    <ele>4291.5</ele>
    <time>2026-06-22T10:28:51Z</time>
   </trkpt>
   <trkpt lat="-3.1077040" lon="37.3616620">
    <ele>4291.5</ele>
    <time>2026-06-22T10:28:52Z</time>
   </trkpt>
   <trkpt lat="-3.1077040" lon="37.3616620">
    <ele>4291.5</ele>
    <time>2026-06-22T10:28:53Z</time>
   </trkpt>
   <trkpt lat="-3.1077040" lon="37.3616620">
    <ele>4291.5</ele>
    <time>2026-06-22T10:28:54Z</time>
   </trkpt>
   <trkpt lat="-3.1077040" lon="37.3616620">
    <ele>4291.5</ele>
    <time>2026-06-22T10:28:55Z</time>
   </trkpt>
   <trkpt lat="-3.1077040" lon="37.3616620">
    <ele>4291.5</ele>
    <time>2026-06-22T10:28:56Z</time>
   </trkpt>
   <trkpt lat="-3.1077040" lon="37.3616620">
    <ele>4291.5</ele>
    <time>2026-06-22T10:28:57Z</time>
   </trkpt>
   <trkpt lat="-3.1077080" lon="37.3616600">
    <ele>4291.5</ele>
    <time>2026-06-22T10:28:58Z</time>
   </trkpt>
   <trkpt lat="-3.1077080" lon="37.3616550">
    <ele>4291.6</ele>
    <time>2026-06-22T10:28:59Z</time>
   </trkpt>
   <trkpt lat="-3.1077070" lon="37.3616500">
    <ele>4291.6</ele>
    <time>2026-06-22T10:29:00Z</time>
   </trkpt>
   <trkpt lat="-3.1077060" lon="37.3616440">
    <ele>4291.7</ele>
    <time>2026-06-22T10:29:01Z</time>
   </trkpt>
   <trkpt lat="-3.1077070" lon="37.3616420">
    <ele>4291.7</ele>
    <time>2026-06-22T10:29:02Z</time>
   </trkpt>
   <trkpt lat="-3.1077080" lon="37.3616400">
    <ele>4291.7</ele>
    <time>2026-06-22T10:29:03Z</time>
   </trkpt>
   <trkpt lat="-3.1077080" lon="37.3616410">
    <ele>4291.7</ele>
    <time>2026-06-22T10:29:04Z</time>
   </trkpt>
   <trkpt lat="-3.1077080" lon="37.3616410">
    <ele>4291.7</ele>
    <time>2026-06-22T10:29:05Z</time>
   </trkpt>
   <trkpt lat="-3.1077080" lon="37.3616410">
    <ele>4291.7</ele>
    <time>2026-06-22T10:29:06Z</time>
   </trkpt>
   <trkpt lat="-3.1077080" lon="37.3616410">
    <ele>4291.7</ele>
    <time>2026-06-22T10:29:07Z</time>
   </trkpt>
   <trkpt lat="-3.1077080" lon="37.3616410">
    <ele>4291.7</ele>
    <time>2026-06-22T10:29:08Z</time>
   </trkpt>
   <trkpt lat="-3.1077080" lon="37.3616410">
    <ele>4291.7</ele>
    <time>2026-06-22T10:29:09Z</time>
   </trkpt>
   <trkpt lat="-3.1077080" lon="37.3616410">
    <ele>4291.7</ele>
    <time>2026-06-22T10:29:10Z</time>
   </trkpt>
   <trkpt lat="-3.1077080" lon="37.3616400">
    <ele>4291.8</ele>
    <time>2026-06-22T10:29:11Z</time>
   </trkpt>
   <trkpt lat="-3.1077080" lon="37.3616390">
    <ele>4291.8</ele>
    <time>2026-06-22T10:29:12Z</time>
   </trkpt>
   <trkpt lat="-3.1077080" lon="37.3616390">
    <ele>4291.8</ele>
    <time>2026-06-22T10:29:13Z</time>
   </trkpt>
   <trkpt lat="-3.1077090" lon="37.3616390">
    <ele>4291.8</ele>
    <time>2026-06-22T10:29:14Z</time>
   </trkpt>
   <trkpt lat="-3.1077080" lon="37.3616390">
    <ele>4291.8</ele>
    <time>2026-06-22T10:29:15Z</time>
   </trkpt>
   <trkpt lat="-3.1077080" lon="37.3616380">
    <ele>4291.8</ele>
    <time>2026-06-22T10:29:16Z</time>
   </trkpt>
   <trkpt lat="-3.1077090" lon="37.3616380">
    <ele>4291.8</ele>
    <time>2026-06-22T10:29:17Z</time>
   </trkpt>
   <trkpt lat="-3.1077090" lon="37.3616380">
    <ele>4291.8</ele>
    <time>2026-06-22T10:29:18Z</time>
   </trkpt>
   <trkpt lat="-3.1077090" lon="37.3616380">
    <ele>4291.8</ele>
    <time>2026-06-22T10:29:19Z</time>
   </trkpt>
   <trkpt lat="-3.1077080" lon="37.3616390">
    <ele>4291.8</ele>
    <time>2026-06-22T10:29:20Z</time>
   </trkpt>
   <trkpt lat="-3.1077080" lon="37.3616380">
    <ele>4291.8</ele>
    <time>2026-06-22T10:29:21Z</time>
   </trkpt>
   <trkpt lat="-3.1077080" lon="37.3616380">
    <ele>4291.8</ele>
    <time>2026-06-22T10:29:22Z</time>
   </trkpt>
   <trkpt lat="-3.1077080" lon="37.3616380">
    <ele>4291.8</ele>
    <time>2026-06-22T10:29:23Z</time>
   </trkpt>
   <trkpt lat="-3.1077080" lon="37.3616380">
    <ele>4291.8</ele>
    <time>2026-06-22T10:29:24Z</time>
   </trkpt>
   <trkpt lat="-3.1077090" lon="37.3616390">
    <ele>4291.8</ele>
    <time>2026-06-22T10:29:25Z</time>
   </trkpt>
   <trkpt lat="-3.1077110" lon="37.3616410">
    <ele>4291.9</ele>
    <time>2026-06-22T10:29:26Z</time>
   </trkpt>
   <trkpt lat="-3.1077100" lon="37.3616390">
    <ele>4291.9</ele>
    <time>2026-06-22T10:29:27Z</time>
   </trkpt>
   <trkpt lat="-3.1077080" lon="37.3616380">
    <ele>4291.9</ele>
    <time>2026-06-22T10:29:28Z</time>
   </trkpt>
   <trkpt lat="-3.1077090" lon="37.3616380">
    <ele>4291.9</ele>
    <time>2026-06-22T10:29:29Z</time>
   </trkpt>
   <trkpt lat="-3.1077100" lon="37.3616380">
    <ele>4291.9</ele>
    <time>2026-06-22T10:29:30Z</time>
   </trkpt>
   <trkpt lat="-3.1077100" lon="37.3616390">
    <ele>4291.9</ele>
    <time>2026-06-22T10:29:31Z</time>
   </trkpt>
   <trkpt lat="-3.1077090" lon="37.3616390">
    <ele>4291.9</ele>
    <time>2026-06-22T10:29:32Z</time>
   </trkpt>
   <trkpt lat="-3.1077090" lon="37.3616400">
    <ele>4292.0</ele>
    <time>2026-06-22T10:29:33Z</time>
   </trkpt>
   <trkpt lat="-3.1077080" lon="37.3616410">
    <ele>4292.0</ele>
    <time>2026-06-22T10:29:34Z</time>
   </trkpt>
   <trkpt lat="-3.1077090" lon="37.3616400">
    <ele>4292.0</ele>
    <time>2026-06-22T10:29:35Z</time>
   </trkpt>
   <trkpt lat="-3.1077100" lon="37.3616380">
    <ele>4292.0</ele>
    <time>2026-06-22T10:29:36Z</time>
   </trkpt>
   <trkpt lat="-3.1077080" lon="37.3616380">
    <ele>4292.0</ele>
    <time>2026-06-22T10:29:37Z</time>
   </trkpt>
   <trkpt lat="-3.1077090" lon="37.3616390">
    <ele>4292.0</ele>
    <time>2026-06-22T10:29:38Z</time>
   </trkpt>
   <trkpt lat="-3.1077100" lon="37.3616380">
    <ele>4292.1</ele>
    <time>2026-06-22T10:29:39Z</time>
   </trkpt>
   <trkpt lat="-3.1077100" lon="37.3616380">
    <ele>4292.1</ele>
    <time>2026-06-22T10:29:40Z</time>
   </trkpt>
   <trkpt lat="-3.1077110" lon="37.3616380">
    <ele>4292.1</ele>
    <time>2026-06-22T10:29:41Z</time>
   </trkpt>
   <trkpt lat="-3.1077130" lon="37.3616380">
    <ele>4292.1</ele>
    <time>2026-06-22T10:29:42Z</time>
   </trkpt>
   <trkpt lat="-3.1077110" lon="37.3616380">
    <ele>4292.1</ele>
    <time>2026-06-22T10:29:43Z</time>
   </trkpt>
   <trkpt lat="-3.1077110" lon="37.3616390">
    <ele>4292.1</ele>
    <time>2026-06-22T10:29:44Z</time>
   </trkpt>
   <trkpt lat="-3.1077100" lon="37.3616380">
    <ele>4292.1</ele>
    <time>2026-06-22T10:29:45Z</time>
   </trkpt>
   <trkpt lat="-3.1077070" lon="37.3616380">
    <ele>4292.2</ele>
    <time>2026-06-22T10:29:46Z</time>
   </trkpt>
   <trkpt lat="-3.1077070" lon="37.3616360">
    <ele>4292.2</ele>
    <time>2026-06-22T10:29:47Z</time>
   </trkpt>
   <trkpt lat="-3.1077070" lon="37.3616360">
    <ele>4292.2</ele>
    <time>2026-06-22T10:29:48Z</time>
   </trkpt>
   <trkpt lat="-3.1077070" lon="37.3616360">
    <ele>4292.2</ele>
    <time>2026-06-22T10:29:49Z</time>
   </trkpt>
   <trkpt lat="-3.1077070" lon="37.3616350">
    <ele>4292.2</ele>
    <time>2026-06-22T10:29:50Z</time>
   </trkpt>
   <trkpt lat="-3.1077070" lon="37.3616340">
    <ele>4292.2</ele>
    <time>2026-06-22T10:29:51Z</time>
   </trkpt>
   <trkpt lat="-3.1077050" lon="37.3616370">
    <ele>4292.2</ele>
    <time>2026-06-22T10:29:52Z</time>
   </trkpt>
   <trkpt lat="-3.1077100" lon="37.3616330">
    <ele>4292.3</ele>
    <time>2026-06-22T10:29:53Z</time>
   </trkpt>
   <trkpt lat="-3.1077090" lon="37.3616350">
    <ele>4292.3</ele>
    <time>2026-06-22T10:29:54Z</time>
   </trkpt>
   <trkpt lat="-3.1077090" lon="37.3616350">
    <ele>4292.3</ele>
    <time>2026-06-22T10:29:55Z</time>
   </trkpt>
   <trkpt lat="-3.1077080" lon="37.3616360">
    <ele>4292.3</ele>
    <time>2026-06-22T10:29:56Z</time>
   </trkpt>
   <trkpt lat="-3.1077080" lon="37.3616360">
    <ele>4292.3</ele>
    <time>2026-06-22T10:29:57Z</time>
   </trkpt>
   <trkpt lat="-3.1077070" lon="37.3616360">
    <ele>4292.3</ele>
    <time>2026-06-22T10:29:58Z</time>
   </trkpt>
   <trkpt lat="-3.1077070" lon="37.3616380">
    <ele>4292.3</ele>
    <time>2026-06-22T10:29:59Z</time>
   </trkpt>
   <trkpt lat="-3.1077090" lon="37.3616370">
    <ele>4292.4</ele>
    <time>2026-06-22T10:30:00Z</time>
   </trkpt>
   <trkpt lat="-3.1077090" lon="37.3616370">
    <ele>4292.4</ele>
    <time>2026-06-22T10:30:01Z</time>
   </trkpt>
   <trkpt lat="-3.1077120" lon="37.3616350">
    <ele>4292.4</ele>
    <time>2026-06-22T10:30:02Z</time>
   </trkpt>
   <trkpt lat="-3.1077100" lon="37.3616370">
    <ele>4292.4</ele>
    <time>2026-06-22T10:30:03Z</time>
   </trkpt>
   <trkpt lat="-3.1077090" lon="37.3616380">
    <ele>4292.4</ele>
    <time>2026-06-22T10:30:04Z</time>
   </trkpt>
   <trkpt lat="-3.1077100" lon="37.3616380">
    <ele>4292.5</ele>
    <time>2026-06-22T10:30:05Z</time>
   </trkpt>
   <trkpt lat="-3.1077100" lon="37.3616370">
    <ele>4292.5</ele>
    <time>2026-06-22T10:30:06Z</time>
   </trkpt>
   <trkpt lat="-3.1077100" lon="37.3616380">
    <ele>4292.5</ele>
    <time>2026-06-22T10:30:07Z</time>
   </trkpt>
   <trkpt lat="-3.1077090" lon="37.3616380">
    <ele>4292.5</ele>
    <time>2026-06-22T10:30:08Z</time>
   </trkpt>
   <trkpt lat="-3.1077100" lon="37.3616370">
    <ele>4292.5</ele>
    <time>2026-06-22T10:30:09Z</time>
   </trkpt>
   <trkpt lat="-3.1077100" lon="37.3616400">
    <ele>4292.5</ele>
    <time>2026-06-22T10:30:10Z</time>
   </trkpt>
   <trkpt lat="-3.1077120" lon="37.3616420">
    <ele>4292.6</ele>
    <time>2026-06-22T10:30:11Z</time>
   </trkpt>
   <trkpt lat="-3.1077100" lon="37.3616410">
    <ele>4292.6</ele>
    <time>2026-06-22T10:30:12Z</time>
   </trkpt>
   <trkpt lat="-3.1077090" lon="37.3616420">
    <ele>4292.6</ele>
    <time>2026-06-22T10:30:13Z</time>
   </trkpt>
   <trkpt lat="-3.1077090" lon="37.3616420">
    <ele>4292.6</ele>
    <time>2026-06-22T10:30:14Z</time>
   </trkpt>
   <trkpt lat="-3.1077090" lon="37.3616420">
    <ele>4292.6</ele>
    <time>2026-06-22T10:30:15Z</time>
   </trkpt>
   <trkpt lat="-3.1077080" lon="37.3616430">
    <ele>4292.6</ele>
    <time>2026-06-22T10:30:16Z</time>
   </trkpt>
   <trkpt lat="-3.1077080" lon="37.3616440">
    <ele>4292.6</ele>
    <time>2026-06-22T10:30:17Z</time>
   </trkpt>
   <trkpt lat="-3.1077080" lon="37.3616430">
    <ele>4292.6</ele>
    <time>2026-06-22T10:30:18Z</time>
   </trkpt>
   <trkpt lat="-3.1077070" lon="37.3616430">
    <ele>4292.6</ele>
    <time>2026-06-22T10:30:19Z</time>
   </trkpt>
   <trkpt lat="-3.1077080" lon="37.3616430">
    <ele>4292.6</ele>
    <time>2026-06-22T10:30:20Z</time>
   </trkpt>
   <trkpt lat="-3.1077070" lon="37.3616430">
    <ele>4292.6</ele>
    <time>2026-06-22T10:30:22Z</time>
   </trkpt>
   <trkpt lat="-3.1077070" lon="37.3616440">
    <ele>4292.7</ele>
    <time>2026-06-22T10:30:23Z</time>
   </trkpt>
   <trkpt lat="-3.1077070" lon="37.3616440">
    <ele>4292.7</ele>
    <time>2026-06-22T10:30:24Z</time>
   </trkpt>
   <trkpt lat="-3.1077080" lon="37.3616440">
    <ele>4292.7</ele>
    <time>2026-06-22T10:30:25Z</time>
   </trkpt>
   <trkpt lat="-3.1077080" lon="37.3616440">
    <ele>4292.7</ele>
    <time>2026-06-22T10:30:26Z</time>
   </trkpt>
   <trkpt lat="-3.1077080" lon="37.3616440">
    <ele>4292.7</ele>
    <time>2026-06-22T10:30:27Z</time>
   </trkpt>
   <trkpt lat="-3.1077080" lon="37.3616450">
    <ele>4292.7</ele>
    <time>2026-06-22T10:30:28Z</time>
   </trkpt>
   <trkpt lat="-3.1077080" lon="37.3616450">
    <ele>4292.7</ele>
    <time>2026-06-22T10:30:29Z</time>
   </trkpt>
   <trkpt lat="-3.1077090" lon="37.3616440">
    <ele>4292.7</ele>
    <time>2026-06-22T10:30:30Z</time>
   </trkpt>
   <trkpt lat="-3.1077090" lon="37.3616450">
    <ele>4292.7</ele>
    <time>2026-06-22T10:30:31Z</time>
   </trkpt>
   <trkpt lat="-3.1077080" lon="37.3616450">
    <ele>4292.7</ele>
    <time>2026-06-22T10:30:32Z</time>
   </trkpt>
   <trkpt lat="-3.1077080" lon="37.3616450">
    <ele>4292.7</ele>
    <time>2026-06-22T10:30:33Z</time>
   </trkpt>
   <trkpt lat="-3.1077070" lon="37.3616450">
    <ele>4292.7</ele>
    <time>2026-06-22T10:30:34Z</time>
   </trkpt>
   <trkpt lat="-3.1077070" lon="37.3616450">
    <ele>4292.7</ele>
    <time>2026-06-22T10:30:35Z</time>
   </trkpt>
   <trkpt lat="-3.1077060" lon="37.3616450">
    <ele>4292.7</ele>
    <time>2026-06-22T10:30:36Z</time>
   </trkpt>
   <trkpt lat="-3.1077060" lon="37.3616450">
    <ele>4292.7</ele>
    <time>2026-06-22T10:30:37Z</time>
   </trkpt>
   <trkpt lat="-3.1077060" lon="37.3616450">
    <ele>4292.7</ele>
    <time>2026-06-22T10:30:38Z</time>
   </trkpt>
   <trkpt lat="-3.1077060" lon="37.3616460">
    <ele>4292.7</ele>
    <time>2026-06-22T10:30:39Z</time>
   </trkpt>
   <trkpt lat="-3.1077070" lon="37.3616460">
    <ele>4292.7</ele>
    <time>2026-06-22T10:30:40Z</time>
   </trkpt>
   <trkpt lat="-3.1077050" lon="37.3616460">
    <ele>4292.8</ele>
    <time>2026-06-22T10:30:41Z</time>
   </trkpt>
   <trkpt lat="-3.1077070" lon="37.3616420">
    <ele>4292.8</ele>
    <time>2026-06-22T10:30:42Z</time>
   </trkpt>
   <trkpt lat="-3.1077060" lon="37.3616440">
    <ele>4292.8</ele>
    <time>2026-06-22T10:30:43Z</time>
   </trkpt>
   <trkpt lat="-3.1077060" lon="37.3616500">
    <ele>4292.9</ele>
    <time>2026-06-22T10:30:44Z</time>
   </trkpt>
   <trkpt lat="-3.1076990" lon="37.3616410">
    <ele>4293.0</ele>
    <time>2026-06-22T10:30:45Z</time>
   </trkpt>
   <trkpt lat="-3.1077090" lon="37.3616440">
    <ele>4293.1</ele>
    <time>2026-06-22T10:30:46Z</time>
   </trkpt>
   <trkpt lat="-3.1077090" lon="37.3616430">
    <ele>4293.1</ele>
    <time>2026-06-22T10:30:47Z</time>
   </trkpt>
   <trkpt lat="-3.1077070" lon="37.3616390">
    <ele>4293.1</ele>
    <time>2026-06-22T10:30:48Z</time>
   </trkpt>
   <trkpt lat="-3.1077090" lon="37.3616410">
    <ele>4293.2</ele>
    <time>2026-06-22T10:30:49Z</time>
   </trkpt>
   <trkpt lat="-3.1077120" lon="37.3616420">
    <ele>4293.2</ele>
    <time>2026-06-22T10:30:50Z</time>
   </trkpt>
   <trkpt lat="-3.1077120" lon="37.3616420">
    <ele>4293.2</ele>
    <time>2026-06-22T10:30:51Z</time>
   </trkpt>
   <trkpt lat="-3.1077110" lon="37.3616420">
    <ele>4293.2</ele>
    <time>2026-06-22T10:30:52Z</time>
   </trkpt>
   <trkpt lat="-3.1077110" lon="37.3616420">
    <ele>4293.2</ele>
    <time>2026-06-22T10:30:53Z</time>
   </trkpt>
   <trkpt lat="-3.1077100" lon="37.3616440">
    <ele>4293.2</ele>
    <time>2026-06-22T10:30:54Z</time>
   </trkpt>
   <trkpt lat="-3.1077090" lon="37.3616480">
    <ele>4293.3</ele>
    <time>2026-06-22T10:30:55Z</time>
   </trkpt>
   <trkpt lat="-3.1077100" lon="37.3616480">
    <ele>4293.3</ele>
    <time>2026-06-22T10:30:56Z</time>
   </trkpt>
   <trkpt lat="-3.1077090" lon="37.3616500">
    <ele>4293.3</ele>
    <time>2026-06-22T10:30:57Z</time>
   </trkpt>
   <trkpt lat="-3.1077090" lon="37.3616490">
    <ele>4293.3</ele>
    <time>2026-06-22T10:30:58Z</time>
   </trkpt>
   <trkpt lat="-3.1077090" lon="37.3616490">
    <ele>4293.3</ele>
    <time>2026-06-22T10:30:59Z</time>
   </trkpt>
   <trkpt lat="-3.1077120" lon="37.3616500">
    <ele>4293.3</ele>
    <time>2026-06-22T10:31:00Z</time>
   </trkpt>
   <trkpt lat="-3.1077110" lon="37.3616530">
    <ele>4293.4</ele>
    <time>2026-06-22T10:31:01Z</time>
   </trkpt>
   <trkpt lat="-3.1077090" lon="37.3616590">
    <ele>4293.4</ele>
    <time>2026-06-22T10:31:02Z</time>
   </trkpt>
   <trkpt lat="-3.1077040" lon="37.3616590">
    <ele>4293.5</ele>
    <time>2026-06-22T10:31:03Z</time>
   </trkpt>
   <trkpt lat="-3.1077060" lon="37.3616540">
    <ele>4293.5</ele>
    <time>2026-06-22T10:31:04Z</time>
   </trkpt>
   <trkpt lat="-3.1077080" lon="37.3616510">
    <ele>4293.6</ele>
    <time>2026-06-22T10:31:05Z</time>
   </trkpt>
   <trkpt lat="-3.1077070" lon="37.3616510">
    <ele>4293.6</ele>
    <time>2026-06-22T10:31:06Z</time>
   </trkpt>
   <trkpt lat="-3.1077080" lon="37.3616510">
    <ele>4293.6</ele>
    <time>2026-06-22T10:31:07Z</time>
   </trkpt>
   <trkpt lat="-3.1077090" lon="37.3616500">
    <ele>4293.6</ele>
    <time>2026-06-22T10:31:08Z</time>
   </trkpt>
   <trkpt lat="-3.1077090" lon="37.3616510">
    <ele>4293.6</ele>
    <time>2026-06-22T10:31:09Z</time>
   </trkpt>
   <trkpt lat="-3.1077080" lon="37.3616510">
    <ele>4293.6</ele>
    <time>2026-06-22T10:31:10Z</time>
   </trkpt>
   <trkpt lat="-3.1077070" lon="37.3616500">
    <ele>4293.6</ele>
    <time>2026-06-22T10:31:11Z</time>
   </trkpt>
   <trkpt lat="-3.1077070" lon="37.3616500">
    <ele>4293.6</ele>
    <time>2026-06-22T10:31:12Z</time>
   </trkpt>
   <trkpt lat="-3.1077070" lon="37.3616500">
    <ele>4293.6</ele>
    <time>2026-06-22T10:31:13Z</time>
   </trkpt>
   <trkpt lat="-3.1077070" lon="37.3616490">
    <ele>4293.6</ele>
    <time>2026-06-22T10:31:14Z</time>
   </trkpt>
   <trkpt lat="-3.1077060" lon="37.3616480">
    <ele>4293.7</ele>
    <time>2026-06-22T10:31:15Z</time>
   </trkpt>
   <trkpt lat="-3.1077060" lon="37.3616480">
    <ele>4293.7</ele>
    <time>2026-06-22T10:31:16Z</time>
   </trkpt>
   <trkpt lat="-3.1077040" lon="37.3616500">
    <ele>4293.7</ele>
    <time>2026-06-22T10:31:17Z</time>
   </trkpt>
   <trkpt lat="-3.1077040" lon="37.3616560">
    <ele>4293.7</ele>
    <time>2026-06-22T10:31:18Z</time>
   </trkpt>
   <trkpt lat="-3.1077040" lon="37.3616550">
    <ele>4293.8</ele>
    <time>2026-06-22T10:31:19Z</time>
   </trkpt>
   <trkpt lat="-3.1077040" lon="37.3616530">
    <ele>4293.8</ele>
    <time>2026-06-22T10:31:20Z</time>
   </trkpt>
   <trkpt lat="-3.1076990" lon="37.3616530">
    <ele>4293.8</ele>
    <time>2026-06-22T10:31:21Z</time>
   </trkpt>
   <trkpt lat="-3.1077010" lon="37.3616550">
    <ele>4293.8</ele>
    <time>2026-06-22T10:31:22Z</time>
   </trkpt>
   <trkpt lat="-3.1077010" lon="37.3616560">
    <ele>4293.9</ele>
    <time>2026-06-22T10:31:23Z</time>
   </trkpt>
   <trkpt lat="-3.1076990" lon="37.3616550">
    <ele>4293.9</ele>
    <time>2026-06-22T10:31:24Z</time>
   </trkpt>
   <trkpt lat="-3.1077000" lon="37.3616570">
    <ele>4293.9</ele>
    <time>2026-06-22T10:31:25Z</time>
   </trkpt>
   <trkpt lat="-3.1076990" lon="37.3616590">
    <ele>4293.9</ele>
    <time>2026-06-22T10:31:26Z</time>
   </trkpt>
   <trkpt lat="-3.1076990" lon="37.3616590">
    <ele>4293.9</ele>
    <time>2026-06-22T10:31:27Z</time>
   </trkpt>
   <trkpt lat="-3.1076990" lon="37.3616600">
    <ele>4293.9</ele>
    <time>2026-06-22T10:31:28Z</time>
   </trkpt>
   <trkpt lat="-3.1076990" lon="37.3616600">
    <ele>4293.9</ele>
    <time>2026-06-22T10:31:29Z</time>
   </trkpt>
   <trkpt lat="-3.1077000" lon="37.3616610">
    <ele>4293.9</ele>
    <time>2026-06-22T10:31:30Z</time>
   </trkpt>
   <trkpt lat="-3.1077010" lon="37.3616610">
    <ele>4294.0</ele>
    <time>2026-06-22T10:31:31Z</time>
   </trkpt>
   <trkpt lat="-3.1077000" lon="37.3616610">
    <ele>4294.0</ele>
    <time>2026-06-22T10:31:32Z</time>
   </trkpt>
   <trkpt lat="-3.1077000" lon="37.3616610">
    <ele>4294.0</ele>
    <time>2026-06-22T10:31:33Z</time>
   </trkpt>
   <trkpt lat="-3.1077000" lon="37.3616610">
    <ele>4294.0</ele>
    <time>2026-06-22T10:31:34Z</time>
   </trkpt>
   <trkpt lat="-3.1077000" lon="37.3616610">
    <ele>4294.0</ele>
    <time>2026-06-22T10:31:35Z</time>
   </trkpt>
   <trkpt lat="-3.1076990" lon="37.3616620">
    <ele>4294.0</ele>
    <time>2026-06-22T10:31:36Z</time>
   </trkpt>
   <trkpt lat="-3.1076990" lon="37.3616630">
    <ele>4294.0</ele>
    <time>2026-06-22T10:31:37Z</time>
   </trkpt>
   <trkpt lat="-3.1076990" lon="37.3616640">
    <ele>4294.0</ele>
    <time>2026-06-22T10:31:38Z</time>
   </trkpt>
   <trkpt lat="-3.1076990" lon="37.3616640">
    <ele>4294.0</ele>
    <time>2026-06-22T10:31:39Z</time>
   </trkpt>
   <trkpt lat="-3.1076980" lon="37.3616650">
    <ele>4294.0</ele>
    <time>2026-06-22T10:31:40Z</time>
   </trkpt>
   <trkpt lat="-3.1076990" lon="37.3616650">
    <ele>4294.0</ele>
    <time>2026-06-22T10:31:41Z</time>
   </trkpt>
   <trkpt lat="-3.1076990" lon="37.3616650">
    <ele>4294.0</ele>
    <time>2026-06-22T10:31:42Z</time>
   </trkpt>
   <trkpt lat="-3.1076990" lon="37.3616660">
    <ele>4294.0</ele>
    <time>2026-06-22T10:31:43Z</time>
   </trkpt>
   <trkpt lat="-3.1076990" lon="37.3616660">
    <ele>4294.0</ele>
    <time>2026-06-22T10:31:44Z</time>
   </trkpt>
   <trkpt lat="-3.1076960" lon="37.3616660">
    <ele>4294.1</ele>
    <time>2026-06-22T10:31:45Z</time>
   </trkpt>
   <trkpt lat="-3.1076970" lon="37.3616660">
    <ele>4294.1</ele>
    <time>2026-06-22T10:31:46Z</time>
   </trkpt>
   <trkpt lat="-3.1076970" lon="37.3616640">
    <ele>4294.1</ele>
    <time>2026-06-22T10:31:47Z</time>
   </trkpt>
   <trkpt lat="-3.1076970" lon="37.3616640">
    <ele>4294.1</ele>
    <time>2026-06-22T10:31:48Z</time>
   </trkpt>
   <trkpt lat="-3.1076970" lon="37.3616640">
    <ele>4294.1</ele>
    <time>2026-06-22T10:31:49Z</time>
   </trkpt>
   <trkpt lat="-3.1076970" lon="37.3616640">
    <ele>4294.1</ele>
    <time>2026-06-22T10:31:50Z</time>
   </trkpt>
   <trkpt lat="-3.1076970" lon="37.3616640">
    <ele>4294.1</ele>
    <time>2026-06-22T10:31:51Z</time>
   </trkpt>
   <trkpt lat="-3.1076970" lon="37.3616640">
    <ele>4294.1</ele>
    <time>2026-06-22T10:31:52Z</time>
   </trkpt>
   <trkpt lat="-3.1076970" lon="37.3616640">
    <ele>4294.1</ele>
    <time>2026-06-22T10:31:53Z</time>
   </trkpt>
   <trkpt lat="-3.1076970" lon="37.3616640">
    <ele>4294.1</ele>
    <time>2026-06-22T10:31:54Z</time>
   </trkpt>
   <trkpt lat="-3.1076970" lon="37.3616640">
    <ele>4294.1</ele>
    <time>2026-06-22T10:31:55Z</time>
   </trkpt>
   <trkpt lat="-3.1076980" lon="37.3616640">
    <ele>4294.1</ele>
    <time>2026-06-22T10:31:56Z</time>
   </trkpt>
   <trkpt lat="-3.1076980" lon="37.3616640">
    <ele>4294.1</ele>
    <time>2026-06-22T10:31:57Z</time>
   </trkpt>
   <trkpt lat="-3.1076980" lon="37.3616630">
    <ele>4294.1</ele>
    <time>2026-06-22T10:31:58Z</time>
   </trkpt>
   <trkpt lat="-3.1076990" lon="37.3616640">
    <ele>4294.1</ele>
    <time>2026-06-22T10:31:59Z</time>
   </trkpt>
   <trkpt lat="-3.1076990" lon="37.3616640">
    <ele>4294.1</ele>
    <time>2026-06-22T10:32:00Z</time>
   </trkpt>
   <trkpt lat="-3.1076970" lon="37.3616620">
    <ele>4294.1</ele>
    <time>2026-06-22T10:32:01Z</time>
   </trkpt>
   <trkpt lat="-3.1076980" lon="37.3616610">
    <ele>4294.2</ele>
    <time>2026-06-22T10:32:02Z</time>
   </trkpt>
   <trkpt lat="-3.1076970" lon="37.3616630">
    <ele>4294.2</ele>
    <time>2026-06-22T10:32:03Z</time>
   </trkpt>
   <trkpt lat="-3.1076980" lon="37.3616600">
    <ele>4294.2</ele>
    <time>2026-06-22T10:32:04Z</time>
   </trkpt>
   <trkpt lat="-3.1077030" lon="37.3616570">
    <ele>4294.3</ele>
    <time>2026-06-22T10:32:05Z</time>
   </trkpt>
   <trkpt lat="-3.1077080" lon="37.3616570">
    <ele>4294.3</ele>
    <time>2026-06-22T10:32:06Z</time>
   </trkpt>
   <trkpt lat="-3.1077070" lon="37.3616540">
    <ele>4294.3</ele>
    <time>2026-06-22T10:32:07Z</time>
   </trkpt>
   <trkpt lat="-3.1077090" lon="37.3616530">
    <ele>4294.4</ele>
    <time>2026-06-22T10:32:08Z</time>
   </trkpt>
   <trkpt lat="-3.1077100" lon="37.3616520">
    <ele>4294.4</ele>
    <time>2026-06-22T10:32:09Z</time>
   </trkpt>
   <trkpt lat="-3.1077110" lon="37.3616510">
    <ele>4294.4</ele>
    <time>2026-06-22T10:32:10Z</time>
   </trkpt>
   <trkpt lat="-3.1077110" lon="37.3616520">
    <ele>4294.4</ele>
    <time>2026-06-22T10:32:11Z</time>
   </trkpt>
   <trkpt lat="-3.1077120" lon="37.3616510">
    <ele>4294.4</ele>
    <time>2026-06-22T10:32:12Z</time>
   </trkpt>
   <trkpt lat="-3.1077110" lon="37.3616510">
    <ele>4294.4</ele>
    <time>2026-06-22T10:32:13Z</time>
   </trkpt>
   <trkpt lat="-3.1077110" lon="37.3616510">
    <ele>4294.4</ele>
    <time>2026-06-22T10:32:14Z</time>
   </trkpt>
   <trkpt lat="-3.1077110" lon="37.3616500">
    <ele>4294.4</ele>
    <time>2026-06-22T10:32:16Z</time>
   </trkpt>
   <trkpt lat="-3.1077110" lon="37.3616500">
    <ele>4294.4</ele>
    <time>2026-06-22T10:32:17Z</time>
   </trkpt>
   <trkpt lat="-3.1077110" lon="37.3616490">
    <ele>4294.4</ele>
    <time>2026-06-22T10:32:18Z</time>
   </trkpt>
   <trkpt lat="-3.1077110" lon="37.3616490">
    <ele>4294.4</ele>
    <time>2026-06-22T10:32:19Z</time>
   </trkpt>
   <trkpt lat="-3.1077110" lon="37.3616490">
    <ele>4294.4</ele>
    <time>2026-06-22T10:32:20Z</time>
   </trkpt>
   <trkpt lat="-3.1077110" lon="37.3616480">
    <ele>4294.5</ele>
    <time>2026-06-22T10:32:21Z</time>
   </trkpt>
   <trkpt lat="-3.1077090" lon="37.3616480">
    <ele>4294.5</ele>
    <time>2026-06-22T10:32:22Z</time>
   </trkpt>
   <trkpt lat="-3.1077050" lon="37.3616510">
    <ele>4294.5</ele>
    <time>2026-06-22T10:32:23Z</time>
   </trkpt>
   <trkpt lat="-3.1077000" lon="37.3616560">
    <ele>4294.6</ele>
    <time>2026-06-22T10:32:24Z</time>
   </trkpt>
   <trkpt lat="-3.1077020" lon="37.3616650">
    <ele>4294.7</ele>
    <time>2026-06-22T10:32:25Z</time>
   </trkpt>
   <trkpt lat="-3.1077050" lon="37.3616610">
    <ele>4294.7</ele>
    <time>2026-06-22T10:32:26Z</time>
   </trkpt>
   <trkpt lat="-3.1077050" lon="37.3616600">
    <ele>4294.7</ele>
    <time>2026-06-22T10:32:27Z</time>
   </trkpt>
   <trkpt lat="-3.1077050" lon="37.3616620">
    <ele>4294.7</ele>
    <time>2026-06-22T10:32:28Z</time>
   </trkpt>
   <trkpt lat="-3.1077050" lon="37.3616610">
    <ele>4294.8</ele>
    <time>2026-06-22T10:32:29Z</time>
   </trkpt>
   <trkpt lat="-3.1077030" lon="37.3616630">
    <ele>4294.8</ele>
    <time>2026-06-22T10:32:30Z</time>
   </trkpt>
   <trkpt lat="-3.1077040" lon="37.3616720">
    <ele>4294.9</ele>
    <time>2026-06-22T10:32:31Z</time>
   </trkpt>
   <trkpt lat="-3.1077040" lon="37.3616750">
    <ele>4294.9</ele>
    <time>2026-06-22T10:32:32Z</time>
   </trkpt>
   <trkpt lat="-3.1077060" lon="37.3616730">
    <ele>4294.9</ele>
    <time>2026-06-22T10:32:33Z</time>
   </trkpt>
   <trkpt lat="-3.1077070" lon="37.3616730">
    <ele>4294.9</ele>
    <time>2026-06-22T10:32:34Z</time>
   </trkpt>
   <trkpt lat="-3.1077070" lon="37.3616750">
    <ele>4295.0</ele>
    <time>2026-06-22T10:32:35Z</time>
   </trkpt>
   <trkpt lat="-3.1077070" lon="37.3616740">
    <ele>4295.0</ele>
    <time>2026-06-22T10:32:36Z</time>
   </trkpt>
   <trkpt lat="-3.1077080" lon="37.3616740">
    <ele>4295.0</ele>
    <time>2026-06-22T10:32:37Z</time>
   </trkpt>
   <trkpt lat="-3.1077090" lon="37.3616740">
    <ele>4295.0</ele>
    <time>2026-06-22T10:32:38Z</time>
   </trkpt>
   <trkpt lat="-3.1077100" lon="37.3616710">
    <ele>4295.0</ele>
    <time>2026-06-22T10:32:39Z</time>
   </trkpt>
   <trkpt lat="-3.1077110" lon="37.3616750">
    <ele>4295.1</ele>
    <time>2026-06-22T10:32:40Z</time>
   </trkpt>
   <trkpt lat="-3.1077100" lon="37.3616710">
    <ele>4295.1</ele>
    <time>2026-06-22T10:32:41Z</time>
   </trkpt>
   <trkpt lat="-3.1077100" lon="37.3616710">
    <ele>4295.1</ele>
    <time>2026-06-22T10:32:42Z</time>
   </trkpt>
   <trkpt lat="-3.1077100" lon="37.3616720">
    <ele>4295.1</ele>
    <time>2026-06-22T10:32:43Z</time>
   </trkpt>
   <trkpt lat="-3.1077100" lon="37.3616720">
    <ele>4295.1</ele>
    <time>2026-06-22T10:32:44Z</time>
   </trkpt>
   <trkpt lat="-3.1077110" lon="37.3616700">
    <ele>4295.1</ele>
    <time>2026-06-22T10:32:45Z</time>
   </trkpt>
   <trkpt lat="-3.1077080" lon="37.3616690">
    <ele>4295.2</ele>
    <time>2026-06-22T10:32:46Z</time>
   </trkpt>
   <trkpt lat="-3.1077070" lon="37.3616680">
    <ele>4295.2</ele>
    <time>2026-06-22T10:32:47Z</time>
   </trkpt>
   <trkpt lat="-3.1077050" lon="37.3616660">
    <ele>4295.2</ele>
    <time>2026-06-22T10:32:48Z</time>
   </trkpt>
   <trkpt lat="-3.1077070" lon="37.3616610">
    <ele>4295.2</ele>
    <time>2026-06-22T10:32:49Z</time>
   </trkpt>
   <trkpt lat="-3.1077090" lon="37.3616570">
    <ele>4295.3</ele>
    <time>2026-06-22T10:32:50Z</time>
   </trkpt>
   <trkpt lat="-3.1077090" lon="37.3616600">
    <ele>4295.3</ele>
    <time>2026-06-22T10:32:51Z</time>
   </trkpt>
   <trkpt lat="-3.1077120" lon="37.3616620">
    <ele>4295.3</ele>
    <time>2026-06-22T10:32:52Z</time>
   </trkpt>
   <trkpt lat="-3.1077130" lon="37.3616640">
    <ele>4295.4</ele>
    <time>2026-06-22T10:32:53Z</time>
   </trkpt>
   <trkpt lat="-3.1077140" lon="37.3616700">
    <ele>4295.4</ele>
    <time>2026-06-22T10:32:54Z</time>
   </trkpt>
   <trkpt lat="-3.1077150" lon="37.3616710">
    <ele>4295.4</ele>
    <time>2026-06-22T10:32:55Z</time>
   </trkpt>
   <trkpt lat="-3.1077140" lon="37.3616690">
    <ele>4295.4</ele>
    <time>2026-06-22T10:32:56Z</time>
   </trkpt>
   <trkpt lat="-3.1077140" lon="37.3616690">
    <ele>4295.4</ele>
    <time>2026-06-22T10:32:57Z</time>
   </trkpt>
   <trkpt lat="-3.1077140" lon="37.3616690">
    <ele>4295.4</ele>
    <time>2026-06-22T10:32:58Z</time>
   </trkpt>
   <trkpt lat="-3.1077150" lon="37.3616700">
    <ele>4295.5</ele>
    <time>2026-06-22T10:32:59Z</time>
   </trkpt>
   <trkpt lat="-3.1077150" lon="37.3616700">
    <ele>4295.5</ele>
    <time>2026-06-22T10:33:00Z</time>
   </trkpt>
   <trkpt lat="-3.1077140" lon="37.3616660">
    <ele>4295.5</ele>
    <time>2026-06-22T10:33:01Z</time>
   </trkpt>
   <trkpt lat="-3.1077140" lon="37.3616660">
    <ele>4295.5</ele>
    <time>2026-06-22T10:33:02Z</time>
   </trkpt>
   <trkpt lat="-3.1077100" lon="37.3616650">
    <ele>4295.5</ele>
    <time>2026-06-22T10:33:03Z</time>
   </trkpt>
   <trkpt lat="-3.1077090" lon="37.3616640">
    <ele>4295.5</ele>
    <time>2026-06-22T10:33:04Z</time>
   </trkpt>
   <trkpt lat="-3.1077100" lon="37.3616620">
    <ele>4295.6</ele>
    <time>2026-06-22T10:33:05Z</time>
   </trkpt>
   <trkpt lat="-3.1077080" lon="37.3616610">
    <ele>4295.6</ele>
    <time>2026-06-22T10:33:06Z</time>
   </trkpt>
   <trkpt lat="-3.1077090" lon="37.3616580">
    <ele>4295.6</ele>
    <time>2026-06-22T10:33:07Z</time>
   </trkpt>
   <trkpt lat="-3.1076980" lon="37.3616520">
    <ele>4295.7</ele>
    <time>2026-06-22T10:33:08Z</time>
   </trkpt>
   <trkpt lat="-3.1077050" lon="37.3616480">
    <ele>4295.8</ele>
    <time>2026-06-22T10:33:09Z</time>
   </trkpt>
   <trkpt lat="-3.1077060" lon="37.3616450">
    <ele>4295.8</ele>
    <time>2026-06-22T10:33:10Z</time>
   </trkpt>
   <trkpt lat="-3.1077060" lon="37.3616460">
    <ele>4295.8</ele>
    <time>2026-06-22T10:33:11Z</time>
   </trkpt>
   <trkpt lat="-3.1077060" lon="37.3616470">
    <ele>4295.8</ele>
    <time>2026-06-22T10:33:12Z</time>
   </trkpt>
   <trkpt lat="-3.1077070" lon="37.3616480">
    <ele>4295.9</ele>
    <time>2026-06-22T10:33:13Z</time>
   </trkpt>
   <trkpt lat="-3.1077080" lon="37.3616470">
    <ele>4295.9</ele>
    <time>2026-06-22T10:33:14Z</time>
   </trkpt>
   <trkpt lat="-3.1077050" lon="37.3616460">
    <ele>4295.9</ele>
    <time>2026-06-22T10:33:15Z</time>
   </trkpt>
   <trkpt lat="-3.1077030" lon="37.3616450">
    <ele>4295.9</ele>
    <time>2026-06-22T10:33:16Z</time>
   </trkpt>
   <trkpt lat="-3.1077060" lon="37.3616450">
    <ele>4295.9</ele>
    <time>2026-06-22T10:33:17Z</time>
   </trkpt>
   <trkpt lat="-3.1077090" lon="37.3616450">
    <ele>4296.0</ele>
    <time>2026-06-22T10:33:18Z</time>
   </trkpt>
   <trkpt lat="-3.1077110" lon="37.3616480">
    <ele>4296.0</ele>
    <time>2026-06-22T10:33:19Z</time>
   </trkpt>
   <trkpt lat="-3.1077100" lon="37.3616470">
    <ele>4296.0</ele>
    <time>2026-06-22T10:33:20Z</time>
   </trkpt>
   <trkpt lat="-3.1077110" lon="37.3616470">
    <ele>4296.0</ele>
    <time>2026-06-22T10:33:21Z</time>
   </trkpt>
   <trkpt lat="-3.1077110" lon="37.3616470">
    <ele>4296.0</ele>
    <time>2026-06-22T10:33:22Z</time>
   </trkpt>
   <trkpt lat="-3.1077100" lon="37.3616460">
    <ele>4296.0</ele>
    <time>2026-06-22T10:33:23Z</time>
   </trkpt>
   <trkpt lat="-3.1077120" lon="37.3616460">
    <ele>4296.1</ele>
    <time>2026-06-22T10:33:24Z</time>
   </trkpt>
   <trkpt lat="-3.1077130" lon="37.3616460">
    <ele>4296.1</ele>
    <time>2026-06-22T10:33:25Z</time>
   </trkpt>
   <trkpt lat="-3.1077130" lon="37.3616460">
    <ele>4296.1</ele>
    <time>2026-06-22T10:33:26Z</time>
   </trkpt>
   <trkpt lat="-3.1077130" lon="37.3616470">
    <ele>4296.1</ele>
    <time>2026-06-22T10:33:27Z</time>
   </trkpt>
   <trkpt lat="-3.1077120" lon="37.3616470">
    <ele>4296.1</ele>
    <time>2026-06-22T10:33:28Z</time>
   </trkpt>
   <trkpt lat="-3.1077130" lon="37.3616490">
    <ele>4296.1</ele>
    <time>2026-06-22T10:33:29Z</time>
   </trkpt>
   <trkpt lat="-3.1077140" lon="37.3616490">
    <ele>4296.1</ele>
    <time>2026-06-22T10:33:30Z</time>
   </trkpt>
   <trkpt lat="-3.1077130" lon="37.3616470">
    <ele>4296.1</ele>
    <time>2026-06-22T10:33:31Z</time>
   </trkpt>
   <trkpt lat="-3.1077150" lon="37.3616480">
    <ele>4296.1</ele>
    <time>2026-06-22T10:33:32Z</time>
   </trkpt>
   <trkpt lat="-3.1077140" lon="37.3616470">
    <ele>4296.2</ele>
    <time>2026-06-22T10:33:33Z</time>
   </trkpt>
   <trkpt lat="-3.1077150" lon="37.3616440">
    <ele>4296.2</ele>
    <time>2026-06-22T10:33:34Z</time>
   </trkpt>
   <trkpt lat="-3.1077150" lon="37.3616450">
    <ele>4296.2</ele>
    <time>2026-06-22T10:33:35Z</time>
   </trkpt>
   <trkpt lat="-3.1077150" lon="37.3616450">
    <ele>4296.2</ele>
    <time>2026-06-22T10:33:36Z</time>
   </trkpt>
   <trkpt lat="-3.1077130" lon="37.3616450">
    <ele>4296.2</ele>
    <time>2026-06-22T10:33:37Z</time>
   </trkpt>
   <trkpt lat="-3.1077150" lon="37.3616450">
    <ele>4296.2</ele>
    <time>2026-06-22T10:33:38Z</time>
   </trkpt>
   <trkpt lat="-3.1077130" lon="37.3616450">
    <ele>4296.2</ele>
    <time>2026-06-22T10:33:39Z</time>
   </trkpt>
   <trkpt lat="-3.1077140" lon="37.3616450">
    <ele>4296.3</ele>
    <time>2026-06-22T10:33:40Z</time>
   </trkpt>
   <trkpt lat="-3.1077090" lon="37.3616410">
    <ele>4296.3</ele>
    <time>2026-06-22T10:33:41Z</time>
   </trkpt>
   <trkpt lat="-3.1077130" lon="37.3616440">
    <ele>4296.4</ele>
    <time>2026-06-22T10:33:42Z</time>
   </trkpt>
   <trkpt lat="-3.1077130" lon="37.3616430">
    <ele>4296.4</ele>
    <time>2026-06-22T10:33:43Z</time>
   </trkpt>
   <trkpt lat="-3.1077140" lon="37.3616420">
    <ele>4296.4</ele>
    <time>2026-06-22T10:33:44Z</time>
   </trkpt>
   <trkpt lat="-3.1077140" lon="37.3616450">
    <ele>4296.4</ele>
    <time>2026-06-22T10:33:45Z</time>
   </trkpt>
   <trkpt lat="-3.1077150" lon="37.3616450">
    <ele>4296.4</ele>
    <time>2026-06-22T10:33:46Z</time>
   </trkpt>
   <trkpt lat="-3.1077150" lon="37.3616450">
    <ele>4296.4</ele>
    <time>2026-06-22T10:33:47Z</time>
   </trkpt>
   <trkpt lat="-3.1077150" lon="37.3616450">
    <ele>4296.4</ele>
    <time>2026-06-22T10:33:48Z</time>
   </trkpt>
   <trkpt lat="-3.1077140" lon="37.3616440">
    <ele>4296.4</ele>
    <time>2026-06-22T10:33:49Z</time>
   </trkpt>
   <trkpt lat="-3.1077140" lon="37.3616450">
    <ele>4296.4</ele>
    <time>2026-06-22T10:33:50Z</time>
   </trkpt>
   <trkpt lat="-3.1077140" lon="37.3616450">
    <ele>4296.4</ele>
    <time>2026-06-22T10:33:51Z</time>
   </trkpt>
   <trkpt lat="-3.1077140" lon="37.3616450">
    <ele>4296.4</ele>
    <time>2026-06-22T10:33:52Z</time>
   </trkpt>
   <trkpt lat="-3.1077150" lon="37.3616440">
    <ele>4296.4</ele>
    <time>2026-06-22T10:33:53Z</time>
   </trkpt>
   <trkpt lat="-3.1077150" lon="37.3616440">
    <ele>4296.4</ele>
    <time>2026-06-22T10:33:54Z</time>
   </trkpt>
   <trkpt lat="-3.1077150" lon="37.3616440">
    <ele>4296.4</ele>
    <time>2026-06-22T10:33:55Z</time>
   </trkpt>
   <trkpt lat="-3.1077160" lon="37.3616430">
    <ele>4296.5</ele>
    <time>2026-06-22T10:33:56Z</time>
   </trkpt>
   <trkpt lat="-3.1077170" lon="37.3616420">
    <ele>4296.5</ele>
    <time>2026-06-22T10:33:57Z</time>
   </trkpt>
   <trkpt lat="-3.1077160" lon="37.3616410">
    <ele>4296.5</ele>
    <time>2026-06-22T10:33:58Z</time>
   </trkpt>
   <trkpt lat="-3.1077150" lon="37.3616430">
    <ele>4296.5</ele>
    <time>2026-06-22T10:33:59Z</time>
   </trkpt>
   <trkpt lat="-3.1077160" lon="37.3616410">
    <ele>4296.5</ele>
    <time>2026-06-22T10:34:00Z</time>
   </trkpt>
   <trkpt lat="-3.1077160" lon="37.3616430">
    <ele>4296.5</ele>
    <time>2026-06-22T10:34:01Z</time>
   </trkpt>
   <trkpt lat="-3.1077170" lon="37.3616430">
    <ele>4296.6</ele>
    <time>2026-06-22T10:34:02Z</time>
   </trkpt>
   <trkpt lat="-3.1077150" lon="37.3616440">
    <ele>4296.6</ele>
    <time>2026-06-22T10:34:03Z</time>
   </trkpt>
   <trkpt lat="-3.1077160" lon="37.3616430">
    <ele>4296.6</ele>
    <time>2026-06-22T10:34:04Z</time>
   </trkpt>
   <trkpt lat="-3.1077160" lon="37.3616430">
    <ele>4296.6</ele>
    <time>2026-06-22T10:34:05Z</time>
   </trkpt>
   <trkpt lat="-3.1077160" lon="37.3616430">
    <ele>4296.6</ele>
    <time>2026-06-22T10:34:06Z</time>
   </trkpt>
   <trkpt lat="-3.1077160" lon="37.3616440">
    <ele>4296.6</ele>
    <time>2026-06-22T10:34:07Z</time>
   </trkpt>
   <trkpt lat="-3.1077160" lon="37.3616440">
    <ele>4296.6</ele>
    <time>2026-06-22T10:34:08Z</time>
   </trkpt>
   <trkpt lat="-3.1077170" lon="37.3616440">
    <ele>4296.6</ele>
    <time>2026-06-22T10:34:09Z</time>
   </trkpt>
   <trkpt lat="-3.1077170" lon="37.3616440">
    <ele>4296.6</ele>
    <time>2026-06-22T10:34:10Z</time>
   </trkpt>
   <trkpt lat="-3.1077170" lon="37.3616440">
    <ele>4296.6</ele>
    <time>2026-06-22T10:34:11Z</time>
   </trkpt>
   <trkpt lat="-3.1077180" lon="37.3616440">
    <ele>4296.6</ele>
    <time>2026-06-22T10:34:12Z</time>
   </trkpt>
   <trkpt lat="-3.1077180" lon="37.3616430">
    <ele>4296.6</ele>
    <time>2026-06-22T10:34:13Z</time>
   </trkpt>
   <trkpt lat="-3.1077170" lon="37.3616430">
    <ele>4296.6</ele>
    <time>2026-06-22T10:34:14Z</time>
   </trkpt>
   <trkpt lat="-3.1077150" lon="37.3616440">
    <ele>4296.6</ele>
    <time>2026-06-22T10:34:15Z</time>
   </trkpt>
   <trkpt lat="-3.1077140" lon="37.3616440">
    <ele>4296.7</ele>
    <time>2026-06-22T10:34:16Z</time>
   </trkpt>
   <trkpt lat="-3.1077140" lon="37.3616400">
    <ele>4296.7</ele>
    <time>2026-06-22T10:34:17Z</time>
   </trkpt>
   <trkpt lat="-3.1077140" lon="37.3616400">
    <ele>4296.7</ele>
    <time>2026-06-22T10:34:18Z</time>
   </trkpt>
   <trkpt lat="-3.1077110" lon="37.3616350">
    <ele>4296.7</ele>
    <time>2026-06-22T10:34:19Z</time>
   </trkpt>
   <trkpt lat="-3.1077090" lon="37.3616320">
    <ele>4296.8</ele>
    <time>2026-06-22T10:34:20Z</time>
   </trkpt>
   <trkpt lat="-3.1077090" lon="37.3616320">
    <ele>4296.8</ele>
    <time>2026-06-22T10:34:22Z</time>
   </trkpt>
   <trkpt lat="-3.1077090" lon="37.3616310">
    <ele>4296.8</ele>
    <time>2026-06-22T10:34:23Z</time>
   </trkpt>
   <trkpt lat="-3.1077070" lon="37.3616320">
    <ele>4296.8</ele>
    <time>2026-06-22T10:34:24Z</time>
   </trkpt>
   <trkpt lat="-3.1077100" lon="37.3616320">
    <ele>4296.8</ele>
    <time>2026-06-22T10:34:25Z</time>
   </trkpt>
   <trkpt lat="-3.1077110" lon="37.3616310">
    <ele>4296.8</ele>
    <time>2026-06-22T10:34:26Z</time>
   </trkpt>
   <trkpt lat="-3.1077100" lon="37.3616320">
    <ele>4296.9</ele>
    <time>2026-06-22T10:34:27Z</time>
   </trkpt>
   <trkpt lat="-3.1077120" lon="37.3616360">
    <ele>4296.9</ele>
    <time>2026-06-22T10:34:28Z</time>
   </trkpt>
   <trkpt lat="-3.1077120" lon="37.3616390">
    <ele>4296.9</ele>
    <time>2026-06-22T10:34:29Z</time>
   </trkpt>
   <trkpt lat="-3.1077110" lon="37.3616480">
    <ele>4297.0</ele>
    <time>2026-06-22T10:34:30Z</time>
   </trkpt>
   <trkpt lat="-3.1077090" lon="37.3616510">
    <ele>4297.0</ele>
    <time>2026-06-22T10:34:31Z</time>
   </trkpt>
   <trkpt lat="-3.1077090" lon="37.3616480">
    <ele>4297.1</ele>
    <time>2026-06-22T10:34:32Z</time>
   </trkpt>
   <trkpt lat="-3.1077060" lon="37.3616450">
    <ele>4297.1</ele>
    <time>2026-06-22T10:34:33Z</time>
   </trkpt>
   <trkpt lat="-3.1077090" lon="37.3616470">
    <ele>4297.1</ele>
    <time>2026-06-22T10:34:34Z</time>
   </trkpt>
   <trkpt lat="-3.1077090" lon="37.3616510">
    <ele>4297.2</ele>
    <time>2026-06-22T10:34:35Z</time>
   </trkpt>
   <trkpt lat="-3.1077120" lon="37.3616510">
    <ele>4297.2</ele>
    <time>2026-06-22T10:34:36Z</time>
   </trkpt>
   <trkpt lat="-3.1077120" lon="37.3616490">
    <ele>4297.2</ele>
    <time>2026-06-22T10:34:37Z</time>
   </trkpt>
   <trkpt lat="-3.1077140" lon="37.3616470">
    <ele>4297.2</ele>
    <time>2026-06-22T10:34:38Z</time>
   </trkpt>
   <trkpt lat="-3.1077100" lon="37.3616490">
    <ele>4297.3</ele>
    <time>2026-06-22T10:34:39Z</time>
   </trkpt>
   <trkpt lat="-3.1077100" lon="37.3616500">
    <ele>4297.3</ele>
    <time>2026-06-22T10:34:40Z</time>
   </trkpt>
   <trkpt lat="-3.1077100" lon="37.3616510">
    <ele>4297.3</ele>
    <time>2026-06-22T10:34:41Z</time>
   </trkpt>
   <trkpt lat="-3.1077110" lon="37.3616510">
    <ele>4297.3</ele>
    <time>2026-06-22T10:34:42Z</time>
   </trkpt>
   <trkpt lat="-3.1077110" lon="37.3616520">
    <ele>4297.3</ele>
    <time>2026-06-22T10:34:43Z</time>
   </trkpt>
   <trkpt lat="-3.1077120" lon="37.3616520">
    <ele>4297.3</ele>
    <time>2026-06-22T10:34:44Z</time>
   </trkpt>
   <trkpt lat="-3.1077120" lon="37.3616530">
    <ele>4297.3</ele>
    <time>2026-06-22T10:34:45Z</time>
   </trkpt>
   <trkpt lat="-3.1077120" lon="37.3616530">
    <ele>4297.3</ele>
    <time>2026-06-22T10:34:46Z</time>
   </trkpt>
   <trkpt lat="-3.1077120" lon="37.3616560">
    <ele>4297.4</ele>
    <time>2026-06-22T10:34:47Z</time>
   </trkpt>
   <trkpt lat="-3.1077120" lon="37.3616550">
    <ele>4297.4</ele>
    <time>2026-06-22T10:34:48Z</time>
   </trkpt>
   <trkpt lat="-3.1077130" lon="37.3616580">
    <ele>4297.4</ele>
    <time>2026-06-22T10:34:49Z</time>
   </trkpt>
   <trkpt lat="-3.1077130" lon="37.3616570">
    <ele>4297.4</ele>
    <time>2026-06-22T10:34:50Z</time>
   </trkpt>
   <trkpt lat="-3.1077140" lon="37.3616540">
    <ele>4297.4</ele>
    <time>2026-06-22T10:34:51Z</time>
   </trkpt>
   <trkpt lat="-3.1077130" lon="37.3616540">
    <ele>4297.4</ele>
    <time>2026-06-22T10:34:52Z</time>
   </trkpt>
   <trkpt lat="-3.1077130" lon="37.3616540">
    <ele>4297.4</ele>
    <time>2026-06-22T10:34:53Z</time>
   </trkpt>
   <trkpt lat="-3.1077140" lon="37.3616550">
    <ele>4297.5</ele>
    <time>2026-06-22T10:34:54Z</time>
   </trkpt>
   <trkpt lat="-3.1077130" lon="37.3616550">
    <ele>4297.5</ele>
    <time>2026-06-22T10:34:55Z</time>
   </trkpt>
   <trkpt lat="-3.1077130" lon="37.3616550">
    <ele>4297.5</ele>
    <time>2026-06-22T10:34:56Z</time>
   </trkpt>
   <trkpt lat="-3.1077130" lon="37.3616550">
    <ele>4297.5</ele>
    <time>2026-06-22T10:34:57Z</time>
   </trkpt>
   <trkpt lat="-3.1077130" lon="37.3616550">
    <ele>4297.5</ele>
    <time>2026-06-22T10:34:58Z</time>
   </trkpt>
   <trkpt lat="-3.1077150" lon="37.3616550">
    <ele>4297.5</ele>
    <time>2026-06-22T10:34:59Z</time>
   </trkpt>
   <trkpt lat="-3.1077150" lon="37.3616530">
    <ele>4297.5</ele>
    <time>2026-06-22T10:35:00Z</time>
   </trkpt>
   <trkpt lat="-3.1077100" lon="37.3616500">
    <ele>4297.5</ele>
    <time>2026-06-22T10:35:01Z</time>
   </trkpt>
   <trkpt lat="-3.1077120" lon="37.3616530">
    <ele>4297.6</ele>
    <time>2026-06-22T10:35:02Z</time>
   </trkpt>
   <trkpt lat="-3.1077100" lon="37.3616540">
    <ele>4297.6</ele>
    <time>2026-06-22T10:35:03Z</time>
   </trkpt>
   <trkpt lat="-3.1077110" lon="37.3616520">
    <ele>4297.6</ele>
    <time>2026-06-22T10:35:04Z</time>
   </trkpt>
   <trkpt lat="-3.1077130" lon="37.3616510">
    <ele>4297.6</ele>
    <time>2026-06-22T10:35:05Z</time>
   </trkpt>
   <trkpt lat="-3.1077150" lon="37.3616500">
    <ele>4297.7</ele>
    <time>2026-06-22T10:35:06Z</time>
   </trkpt>
   <trkpt lat="-3.1077160" lon="37.3616500">
    <ele>4297.7</ele>
    <time>2026-06-22T10:35:07Z</time>
   </trkpt>
   <trkpt lat="-3.1077150" lon="37.3616500">
    <ele>4297.7</ele>
    <time>2026-06-22T10:35:08Z</time>
   </trkpt>
   <trkpt lat="-3.1077160" lon="37.3616500">
    <ele>4297.7</ele>
    <time>2026-06-22T10:35:09Z</time>
   </trkpt>
   <trkpt lat="-3.1077160" lon="37.3616500">
    <ele>4297.7</ele>
    <time>2026-06-22T10:35:10Z</time>
   </trkpt>
   <trkpt lat="-3.1077160" lon="37.3616480">
    <ele>4297.7</ele>
    <time>2026-06-22T10:35:11Z</time>
   </trkpt>
   <trkpt lat="-3.1077160" lon="37.3616480">
    <ele>4297.7</ele>
    <time>2026-06-22T10:35:12Z</time>
   </trkpt>
   <trkpt lat="-3.1077160" lon="37.3616490">
    <ele>4297.7</ele>
    <time>2026-06-22T10:35:13Z</time>
   </trkpt>
   <trkpt lat="-3.1077170" lon="37.3616480">
    <ele>4297.7</ele>
    <time>2026-06-22T10:35:14Z</time>
   </trkpt>
   <trkpt lat="-3.1077170" lon="37.3616490">
    <ele>4297.7</ele>
    <time>2026-06-22T10:35:15Z</time>
   </trkpt>
   <trkpt lat="-3.1077180" lon="37.3616480">
    <ele>4297.7</ele>
    <time>2026-06-22T10:35:16Z</time>
   </trkpt>
   <trkpt lat="-3.1077180" lon="37.3616490">
    <ele>4297.8</ele>
    <time>2026-06-22T10:35:17Z</time>
   </trkpt>
   <trkpt lat="-3.1077190" lon="37.3616490">
    <ele>4297.8</ele>
    <time>2026-06-22T10:35:18Z</time>
   </trkpt>
   <trkpt lat="-3.1077200" lon="37.3616480">
    <ele>4297.8</ele>
    <time>2026-06-22T10:35:19Z</time>
   </trkpt>
   <trkpt lat="-3.1077220" lon="37.3616480">
    <ele>4297.8</ele>
    <time>2026-06-22T10:35:20Z</time>
   </trkpt>
   <trkpt lat="-3.1077210" lon="37.3616470">
    <ele>4297.8</ele>
    <time>2026-06-22T10:35:21Z</time>
   </trkpt>
   <trkpt lat="-3.1077220" lon="37.3616470">
    <ele>4297.8</ele>
    <time>2026-06-22T10:35:22Z</time>
   </trkpt>
   <trkpt lat="-3.1077220" lon="37.3616470">
    <ele>4297.8</ele>
    <time>2026-06-22T10:35:23Z</time>
   </trkpt>
   <trkpt lat="-3.1077230" lon="37.3616460">
    <ele>4297.8</ele>
    <time>2026-06-22T10:35:24Z</time>
   </trkpt>
   <trkpt lat="-3.1077230" lon="37.3616460">
    <ele>4297.8</ele>
    <time>2026-06-22T10:35:25Z</time>
   </trkpt>
   <trkpt lat="-3.1077230" lon="37.3616460">
    <ele>4297.8</ele>
    <time>2026-06-22T10:35:26Z</time>
   </trkpt>
   <trkpt lat="-3.1077220" lon="37.3616460">
    <ele>4297.8</ele>
    <time>2026-06-22T10:35:27Z</time>
   </trkpt>
   <trkpt lat="-3.1077200" lon="37.3616450">
    <ele>4297.9</ele>
    <time>2026-06-22T10:35:28Z</time>
   </trkpt>
   <trkpt lat="-3.1077190" lon="37.3616450">
    <ele>4297.9</ele>
    <time>2026-06-22T10:35:29Z</time>
   </trkpt>
   <trkpt lat="-3.1077190" lon="37.3616440">
    <ele>4297.9</ele>
    <time>2026-06-22T10:35:30Z</time>
   </trkpt>
   <trkpt lat="-3.1077200" lon="37.3616440">
    <ele>4297.9</ele>
    <time>2026-06-22T10:35:31Z</time>
   </trkpt>
   <trkpt lat="-3.1077200" lon="37.3616440">
    <ele>4297.9</ele>
    <time>2026-06-22T10:35:32Z</time>
   </trkpt>
   <trkpt lat="-3.1077200" lon="37.3616440">
    <ele>4297.9</ele>
    <time>2026-06-22T10:35:33Z</time>
   </trkpt>
   <trkpt lat="-3.1077190" lon="37.3616440">
    <ele>4297.9</ele>
    <time>2026-06-22T10:35:34Z</time>
   </trkpt>
   <trkpt lat="-3.1077190" lon="37.3616440">
    <ele>4297.9</ele>
    <time>2026-06-22T10:35:35Z</time>
   </trkpt>
   <trkpt lat="-3.1077190" lon="37.3616440">
    <ele>4297.9</ele>
    <time>2026-06-22T10:35:36Z</time>
   </trkpt>
   <trkpt lat="-3.1077190" lon="37.3616440">
    <ele>4297.9</ele>
    <time>2026-06-22T10:35:37Z</time>
   </trkpt>
   <trkpt lat="-3.1077180" lon="37.3616450">
    <ele>4297.9</ele>
    <time>2026-06-22T10:35:38Z</time>
   </trkpt>
   <trkpt lat="-3.1077180" lon="37.3616460">
    <ele>4297.9</ele>
    <time>2026-06-22T10:35:39Z</time>
   </trkpt>
   <trkpt lat="-3.1077180" lon="37.3616460">
    <ele>4297.9</ele>
    <time>2026-06-22T10:35:40Z</time>
   </trkpt>
   <trkpt lat="-3.1077180" lon="37.3616460">
    <ele>4297.9</ele>
    <time>2026-06-22T10:35:41Z</time>
   </trkpt>
   <trkpt lat="-3.1077180" lon="37.3616460">
    <ele>4297.9</ele>
    <time>2026-06-22T10:35:42Z</time>
   </trkpt>
   <trkpt lat="-3.1077180" lon="37.3616460">
    <ele>4297.9</ele>
    <time>2026-06-22T10:35:43Z</time>
   </trkpt>
   <trkpt lat="-3.1077180" lon="37.3616460">
    <ele>4297.9</ele>
    <time>2026-06-22T10:35:44Z</time>
   </trkpt>
   <trkpt lat="-3.1077180" lon="37.3616480">
    <ele>4297.9</ele>
    <time>2026-06-22T10:35:45Z</time>
   </trkpt>
   <trkpt lat="-3.1077150" lon="37.3616510">
    <ele>4298.0</ele>
    <time>2026-06-22T10:35:46Z</time>
   </trkpt>
   <trkpt lat="-3.1077100" lon="37.3616490">
    <ele>4298.0</ele>
    <time>2026-06-22T10:35:47Z</time>
   </trkpt>
   <trkpt lat="-3.1077080" lon="37.3616470">
    <ele>4298.0</ele>
    <time>2026-06-22T10:35:48Z</time>
   </trkpt>
   <trkpt lat="-3.1077070" lon="37.3616460">
    <ele>4298.1</ele>
    <time>2026-06-22T10:35:49Z</time>
   </trkpt>
   <trkpt lat="-3.1077050" lon="37.3616460">
    <ele>4298.1</ele>
    <time>2026-06-22T10:35:50Z</time>
   </trkpt>
   <trkpt lat="-3.1077010" lon="37.3616510">
    <ele>4298.1</ele>
    <time>2026-06-22T10:35:51Z</time>
   </trkpt>
   <trkpt lat="-3.1076970" lon="37.3616500">
    <ele>4298.2</ele>
    <time>2026-06-22T10:35:52Z</time>
   </trkpt>
   <trkpt lat="-3.1076960" lon="37.3616510">
    <ele>4298.2</ele>
    <time>2026-06-22T10:35:53Z</time>
   </trkpt>
   <trkpt lat="-3.1076940" lon="37.3616550">
    <ele>4298.2</ele>
    <time>2026-06-22T10:35:54Z</time>
   </trkpt>
   <trkpt lat="-3.1076940" lon="37.3616550">
    <ele>4298.2</ele>
    <time>2026-06-22T10:35:55Z</time>
   </trkpt>
   <trkpt lat="-3.1076940" lon="37.3616550">
    <ele>4298.2</ele>
    <time>2026-06-22T10:35:56Z</time>
   </trkpt>
   <trkpt lat="-3.1076940" lon="37.3616550">
    <ele>4298.2</ele>
    <time>2026-06-22T10:35:57Z</time>
   </trkpt>
   <trkpt lat="-3.1076940" lon="37.3616550">
    <ele>4298.2</ele>
    <time>2026-06-22T10:35:58Z</time>
   </trkpt>
   <trkpt lat="-3.1076940" lon="37.3616550">
    <ele>4298.2</ele>
    <time>2026-06-22T10:35:59Z</time>
   </trkpt>
   <trkpt lat="-3.1076940" lon="37.3616550">
    <ele>4298.2</ele>
    <time>2026-06-22T10:36:00Z</time>
   </trkpt>
   <trkpt lat="-3.1076940" lon="37.3616550">
    <ele>4298.2</ele>
    <time>2026-06-22T10:36:01Z</time>
   </trkpt>
   <trkpt lat="-3.1076840" lon="37.3616530">
    <ele>4298.3</ele>
    <time>2026-06-22T10:36:02Z</time>
   </trkpt>
   <trkpt lat="-3.1076860" lon="37.3616560">
    <ele>4298.3</ele>
    <time>2026-06-22T10:36:03Z</time>
   </trkpt>
   <trkpt lat="-3.1076900" lon="37.3616540">
    <ele>4298.4</ele>
    <time>2026-06-22T10:36:04Z</time>
   </trkpt>
   <trkpt lat="-3.1076930" lon="37.3616550">
    <ele>4298.4</ele>
    <time>2026-06-22T10:36:05Z</time>
   </trkpt>
   <trkpt lat="-3.1076970" lon="37.3616560">
    <ele>4298.4</ele>
    <time>2026-06-22T10:36:06Z</time>
   </trkpt>
   <trkpt lat="-3.1076960" lon="37.3616550">
    <ele>4298.5</ele>
    <time>2026-06-22T10:36:07Z</time>
   </trkpt>
   <trkpt lat="-3.1076950" lon="37.3616560">
    <ele>4298.5</ele>
    <time>2026-06-22T10:36:08Z</time>
   </trkpt>
   <trkpt lat="-3.1076950" lon="37.3616570">
    <ele>4298.5</ele>
    <time>2026-06-22T10:36:09Z</time>
   </trkpt>
   <trkpt lat="-3.1076950" lon="37.3616570">
    <ele>4298.5</ele>
    <time>2026-06-22T10:36:10Z</time>
   </trkpt>
   <trkpt lat="-3.1076950" lon="37.3616570">
    <ele>4298.5</ele>
    <time>2026-06-22T10:36:11Z</time>
   </trkpt>
   <trkpt lat="-3.1076960" lon="37.3616570">
    <ele>4298.5</ele>
    <time>2026-06-22T10:36:12Z</time>
   </trkpt>
   <trkpt lat="-3.1076950" lon="37.3616590">
    <ele>4298.5</ele>
    <time>2026-06-22T10:36:13Z</time>
   </trkpt>
   <trkpt lat="-3.1076950" lon="37.3616590">
    <ele>4298.5</ele>
    <time>2026-06-22T10:36:14Z</time>
   </trkpt>
   <trkpt lat="-3.1076960" lon="37.3616580">
    <ele>4298.5</ele>
    <time>2026-06-22T10:36:15Z</time>
   </trkpt>
   <trkpt lat="-3.1076960" lon="37.3616560">
    <ele>4298.5</ele>
    <time>2026-06-22T10:36:16Z</time>
   </trkpt>
   <trkpt lat="-3.1076970" lon="37.3616570">
    <ele>4298.6</ele>
    <time>2026-06-22T10:36:17Z</time>
   </trkpt>
   <trkpt lat="-3.1076960" lon="37.3616560">
    <ele>4298.6</ele>
    <time>2026-06-22T10:36:18Z</time>
   </trkpt>
   <trkpt lat="-3.1076950" lon="37.3616550">
    <ele>4298.6</ele>
    <time>2026-06-22T10:36:19Z</time>
   </trkpt>
   <trkpt lat="-3.1076950" lon="37.3616540">
    <ele>4298.6</ele>
    <time>2026-06-22T10:36:20Z</time>
   </trkpt>
   <trkpt lat="-3.1076960" lon="37.3616530">
    <ele>4298.6</ele>
    <time>2026-06-22T10:36:21Z</time>
   </trkpt>
   <trkpt lat="-3.1076950" lon="37.3616530">
    <ele>4298.6</ele>
    <time>2026-06-22T10:36:22Z</time>
   </trkpt>
   <trkpt lat="-3.1076950" lon="37.3616530">
    <ele>4298.6</ele>
    <time>2026-06-22T10:36:23Z</time>
   </trkpt>
   <trkpt lat="-3.1076960" lon="37.3616530">
    <ele>4298.6</ele>
    <time>2026-06-22T10:36:24Z</time>
   </trkpt>
   <trkpt lat="-3.1076980" lon="37.3616550">
    <ele>4298.6</ele>
    <time>2026-06-22T10:36:25Z</time>
   </trkpt>
   <trkpt lat="-3.1076990" lon="37.3616530">
    <ele>4298.7</ele>
    <time>2026-06-22T10:36:26Z</time>
   </trkpt>
   <trkpt lat="-3.1077000" lon="37.3616530">
    <ele>4298.7</ele>
    <time>2026-06-22T10:36:28Z</time>
   </trkpt>
   <trkpt lat="-3.1077000" lon="37.3616530">
    <ele>4298.7</ele>
    <time>2026-06-22T10:36:29Z</time>
   </trkpt>
   <trkpt lat="-3.1077000" lon="37.3616540">
    <ele>4298.7</ele>
    <time>2026-06-22T10:36:30Z</time>
   </trkpt>
   <trkpt lat="-3.1077000" lon="37.3616540">
    <ele>4298.7</ele>
    <time>2026-06-22T10:36:31Z</time>
   </trkpt>
   <trkpt lat="-3.1077000" lon="37.3616550">
    <ele>4298.7</ele>
    <time>2026-06-22T10:36:32Z</time>
   </trkpt>
   <trkpt lat="-3.1077020" lon="37.3616540">
    <ele>4298.7</ele>
    <time>2026-06-22T10:36:33Z</time>
   </trkpt>
   <trkpt lat="-3.1077010" lon="37.3616530">
    <ele>4298.7</ele>
    <time>2026-06-22T10:36:34Z</time>
   </trkpt>
   <trkpt lat="-3.1076990" lon="37.3616540">
    <ele>4298.7</ele>
    <time>2026-06-22T10:36:35Z</time>
   </trkpt>
   <trkpt lat="-3.1076950" lon="37.3616570">
    <ele>4298.8</ele>
    <time>2026-06-22T10:36:36Z</time>
   </trkpt>
   <trkpt lat="-3.1076930" lon="37.3616600">
    <ele>4298.8</ele>
    <time>2026-06-22T10:36:37Z</time>
   </trkpt>
   <trkpt lat="-3.1076920" lon="37.3616640">
    <ele>4298.9</ele>
    <time>2026-06-22T10:36:38Z</time>
   </trkpt>
   <trkpt lat="-3.1076860" lon="37.3616660">
    <ele>4298.9</ele>
    <time>2026-06-22T10:36:39Z</time>
   </trkpt>
   <trkpt lat="-3.1076860" lon="37.3616660">
    <ele>4298.9</ele>
    <time>2026-06-22T10:36:40Z</time>
   </trkpt>
   <trkpt lat="-3.1076840" lon="37.3616650">
    <ele>4298.9</ele>
    <time>2026-06-22T10:36:41Z</time>
   </trkpt>
   <trkpt lat="-3.1076840" lon="37.3616640">
    <ele>4298.9</ele>
    <time>2026-06-22T10:36:42Z</time>
   </trkpt>
   <trkpt lat="-3.1076840" lon="37.3616640">
    <ele>4298.9</ele>
    <time>2026-06-22T10:36:43Z</time>
   </trkpt>
   <trkpt lat="-3.1076840" lon="37.3616640">
    <ele>4298.9</ele>
    <time>2026-06-22T10:36:44Z</time>
   </trkpt>
   <trkpt lat="-3.1076830" lon="37.3616610">
    <ele>4299.0</ele>
    <time>2026-06-22T10:36:45Z</time>
   </trkpt>
   <trkpt lat="-3.1076820" lon="37.3616620">
    <ele>4299.0</ele>
    <time>2026-06-22T10:36:46Z</time>
   </trkpt>
   <trkpt lat="-3.1076830" lon="37.3616590">
    <ele>4299.0</ele>
    <time>2026-06-22T10:36:47Z</time>
   </trkpt>
   <trkpt lat="-3.1076840" lon="37.3616590">
    <ele>4299.0</ele>
    <time>2026-06-22T10:36:48Z</time>
   </trkpt>
   <trkpt lat="-3.1076830" lon="37.3616680">
    <ele>4299.1</ele>
    <time>2026-06-22T10:36:49Z</time>
   </trkpt>
   <trkpt lat="-3.1076830" lon="37.3616680">
    <ele>4299.1</ele>
    <time>2026-06-22T10:36:50Z</time>
   </trkpt>
   <trkpt lat="-3.1076830" lon="37.3616650">
    <ele>4299.1</ele>
    <time>2026-06-22T10:36:51Z</time>
   </trkpt>
   <trkpt lat="-3.1076840" lon="37.3616640">
    <ele>4299.1</ele>
    <time>2026-06-22T10:36:52Z</time>
   </trkpt>
   <trkpt lat="-3.1076850" lon="37.3616640">
    <ele>4299.1</ele>
    <time>2026-06-22T10:36:53Z</time>
   </trkpt>
   <trkpt lat="-3.1076850" lon="37.3616640">
    <ele>4299.1</ele>
    <time>2026-06-22T10:36:54Z</time>
   </trkpt>
   <trkpt lat="-3.1076860" lon="37.3616610">
    <ele>4299.2</ele>
    <time>2026-06-22T10:36:55Z</time>
   </trkpt>
   <trkpt lat="-3.1076860" lon="37.3616600">
    <ele>4299.2</ele>
    <time>2026-06-22T10:36:56Z</time>
   </trkpt>
   <trkpt lat="-3.1076860" lon="37.3616600">
    <ele>4299.2</ele>
    <time>2026-06-22T10:36:57Z</time>
   </trkpt>
   <trkpt lat="-3.1076840" lon="37.3616620">
    <ele>4299.2</ele>
    <time>2026-06-22T10:36:58Z</time>
   </trkpt>
   <trkpt lat="-3.1076850" lon="37.3616620">
    <ele>4299.2</ele>
    <time>2026-06-22T10:36:59Z</time>
   </trkpt>
   <trkpt lat="-3.1076850" lon="37.3616630">
    <ele>4299.2</ele>
    <time>2026-06-22T10:37:00Z</time>
   </trkpt>
   <trkpt lat="-3.1076860" lon="37.3616630">
    <ele>4299.2</ele>
    <time>2026-06-22T10:37:01Z</time>
   </trkpt>
   <trkpt lat="-3.1076870" lon="37.3616620">
    <ele>4299.3</ele>
    <time>2026-06-22T10:37:02Z</time>
   </trkpt>
   <trkpt lat="-3.1076880" lon="37.3616590">
    <ele>4299.3</ele>
    <time>2026-06-22T10:37:03Z</time>
   </trkpt>
   <trkpt lat="-3.1076860" lon="37.3616590">
    <ele>4299.3</ele>
    <time>2026-06-22T10:37:04Z</time>
   </trkpt>
   <trkpt lat="-3.1076870" lon="37.3616590">
    <ele>4299.3</ele>
    <time>2026-06-22T10:37:05Z</time>
   </trkpt>
   <trkpt lat="-3.1076870" lon="37.3616600">
    <ele>4299.3</ele>
    <time>2026-06-22T10:37:06Z</time>
   </trkpt>
   <trkpt lat="-3.1076870" lon="37.3616600">
    <ele>4299.3</ele>
    <time>2026-06-22T10:37:07Z</time>
   </trkpt>
   <trkpt lat="-3.1076870" lon="37.3616610">
    <ele>4299.3</ele>
    <time>2026-06-22T10:37:08Z</time>
   </trkpt>
   <trkpt lat="-3.1076880" lon="37.3616620">
    <ele>4299.3</ele>
    <time>2026-06-22T10:37:09Z</time>
   </trkpt>
   <trkpt lat="-3.1076890" lon="37.3616610">
    <ele>4299.4</ele>
    <time>2026-06-22T10:37:10Z</time>
   </trkpt>
   <trkpt lat="-3.1076870" lon="37.3616600">
    <ele>4299.4</ele>
    <time>2026-06-22T10:37:11Z</time>
   </trkpt>
   <trkpt lat="-3.1076860" lon="37.3616570">
    <ele>4299.4</ele>
    <time>2026-06-22T10:37:12Z</time>
   </trkpt>
   <trkpt lat="-3.1076870" lon="37.3616580">
    <ele>4299.4</ele>
    <time>2026-06-22T10:37:13Z</time>
   </trkpt>
   <trkpt lat="-3.1076870" lon="37.3616580">
    <ele>4299.4</ele>
    <time>2026-06-22T10:37:14Z</time>
   </trkpt>
   <trkpt lat="-3.1076870" lon="37.3616600">
    <ele>4299.4</ele>
    <time>2026-06-22T10:37:15Z</time>
   </trkpt>
   <trkpt lat="-3.1076850" lon="37.3616640">
    <ele>4299.5</ele>
    <time>2026-06-22T10:37:16Z</time>
   </trkpt>
   <trkpt lat="-3.1076860" lon="37.3616610">
    <ele>4299.5</ele>
    <time>2026-06-22T10:37:17Z</time>
   </trkpt>
   <trkpt lat="-3.1076870" lon="37.3616610">
    <ele>4299.5</ele>
    <time>2026-06-22T10:37:18Z</time>
   </trkpt>
   <trkpt lat="-3.1076870" lon="37.3616610">
    <ele>4299.5</ele>
    <time>2026-06-22T10:37:19Z</time>
   </trkpt>
   <trkpt lat="-3.1076880" lon="37.3616620">
    <ele>4299.5</ele>
    <time>2026-06-22T10:37:20Z</time>
   </trkpt>
   <trkpt lat="-3.1076890" lon="37.3616630">
    <ele>4299.5</ele>
    <time>2026-06-22T10:37:21Z</time>
   </trkpt>
   <trkpt lat="-3.1076920" lon="37.3616630">
    <ele>4299.6</ele>
    <time>2026-06-22T10:37:22Z</time>
   </trkpt>
   <trkpt lat="-3.1076820" lon="37.3616580">
    <ele>4299.7</ele>
    <time>2026-06-22T10:37:23Z</time>
   </trkpt>
   <trkpt lat="-3.1076860" lon="37.3616580">
    <ele>4299.7</ele>
    <time>2026-06-22T10:37:24Z</time>
   </trkpt>
   <trkpt lat="-3.1076860" lon="37.3616580">
    <ele>4299.7</ele>
    <time>2026-06-22T10:37:25Z</time>
   </trkpt>
   <trkpt lat="-3.1076860" lon="37.3616560">
    <ele>4299.7</ele>
    <time>2026-06-22T10:37:26Z</time>
   </trkpt>
   <trkpt lat="-3.1076890" lon="37.3616500">
    <ele>4299.8</ele>
    <time>2026-06-22T10:37:27Z</time>
   </trkpt>
   <trkpt lat="-3.1076880" lon="37.3616570">
    <ele>4299.9</ele>
    <time>2026-06-22T10:37:28Z</time>
   </trkpt>
   <trkpt lat="-3.1076870" lon="37.3616610">
    <ele>4299.9</ele>
    <time>2026-06-22T10:37:29Z</time>
   </trkpt>
   <trkpt lat="-3.1076880" lon="37.3616610">
    <ele>4299.9</ele>
    <time>2026-06-22T10:37:30Z</time>
   </trkpt>
   <trkpt lat="-3.1076880" lon="37.3616600">
    <ele>4299.9</ele>
    <time>2026-06-22T10:37:31Z</time>
   </trkpt>
   <trkpt lat="-3.1076880" lon="37.3616600">
    <ele>4299.9</ele>
    <time>2026-06-22T10:37:32Z</time>
   </trkpt>
   <trkpt lat="-3.1076890" lon="37.3616610">
    <ele>4299.9</ele>
    <time>2026-06-22T10:37:33Z</time>
   </trkpt>
   <trkpt lat="-3.1076880" lon="37.3616610">
    <ele>4299.9</ele>
    <time>2026-06-22T10:37:34Z</time>
   </trkpt>
   <trkpt lat="-3.1076870" lon="37.3616630">
    <ele>4300.0</ele>
    <time>2026-06-22T10:37:35Z</time>
   </trkpt>
   <trkpt lat="-3.1076870" lon="37.3616640">
    <ele>4300.0</ele>
    <time>2026-06-22T10:37:36Z</time>
   </trkpt>
   <trkpt lat="-3.1076890" lon="37.3616660">
    <ele>4300.0</ele>
    <time>2026-06-22T10:37:37Z</time>
   </trkpt>
   <trkpt lat="-3.1076900" lon="37.3616660">
    <ele>4300.0</ele>
    <time>2026-06-22T10:37:38Z</time>
   </trkpt>
   <trkpt lat="-3.1076920" lon="37.3616660">
    <ele>4300.0</ele>
    <time>2026-06-22T10:37:39Z</time>
   </trkpt>
   <trkpt lat="-3.1076920" lon="37.3616660">
    <ele>4300.0</ele>
    <time>2026-06-22T10:37:40Z</time>
   </trkpt>
   <trkpt lat="-3.1076910" lon="37.3616690">
    <ele>4300.0</ele>
    <time>2026-06-22T10:37:41Z</time>
   </trkpt>
   <trkpt lat="-3.1076920" lon="37.3616680">
    <ele>4300.1</ele>
    <time>2026-06-22T10:37:42Z</time>
   </trkpt>
   <trkpt lat="-3.1076910" lon="37.3616680">
    <ele>4300.1</ele>
    <time>2026-06-22T10:37:43Z</time>
   </trkpt>
   <trkpt lat="-3.1076920" lon="37.3616680">
    <ele>4300.1</ele>
    <time>2026-06-22T10:37:44Z</time>
   </trkpt>
   <trkpt lat="-3.1076920" lon="37.3616690">
    <ele>4300.1</ele>
    <time>2026-06-22T10:37:45Z</time>
   </trkpt>
   <trkpt lat="-3.1076920" lon="37.3616680">
    <ele>4300.1</ele>
    <time>2026-06-22T10:37:46Z</time>
   </trkpt>
   <trkpt lat="-3.1076920" lon="37.3616680">
    <ele>4300.1</ele>
    <time>2026-06-22T10:37:47Z</time>
   </trkpt>
   <trkpt lat="-3.1076920" lon="37.3616680">
    <ele>4300.1</ele>
    <time>2026-06-22T10:37:48Z</time>
   </trkpt>
   <trkpt lat="-3.1076920" lon="37.3616680">
    <ele>4300.1</ele>
    <time>2026-06-22T10:37:49Z</time>
   </trkpt>
   <trkpt lat="-3.1076930" lon="37.3616680">
    <ele>4300.1</ele>
    <time>2026-06-22T10:37:50Z</time>
   </trkpt>
   <trkpt lat="-3.1076940" lon="37.3616680">
    <ele>4300.1</ele>
    <time>2026-06-22T10:37:51Z</time>
   </trkpt>
   <trkpt lat="-3.1076940" lon="37.3616680">
    <ele>4300.1</ele>
    <time>2026-06-22T10:37:52Z</time>
   </trkpt>
   <trkpt lat="-3.1076940" lon="37.3616680">
    <ele>4300.1</ele>
    <time>2026-06-22T10:37:53Z</time>
   </trkpt>
   <trkpt lat="-3.1076950" lon="37.3616680">
    <ele>4300.1</ele>
    <time>2026-06-22T10:37:54Z</time>
   </trkpt>
   <trkpt lat="-3.1076940" lon="37.3616680">
    <ele>4300.1</ele>
    <time>2026-06-22T10:37:55Z</time>
   </trkpt>
   <trkpt lat="-3.1076940" lon="37.3616680">
    <ele>4300.1</ele>
    <time>2026-06-22T10:37:56Z</time>
   </trkpt>
   <trkpt lat="-3.1076940" lon="37.3616680">
    <ele>4300.1</ele>
    <time>2026-06-22T10:37:57Z</time>
   </trkpt>
   <trkpt lat="-3.1076940" lon="37.3616680">
    <ele>4300.1</ele>
    <time>2026-06-22T10:37:58Z</time>
   </trkpt>
   <trkpt lat="-3.1076940" lon="37.3616680">
    <ele>4300.1</ele>
    <time>2026-06-22T10:37:59Z</time>
   </trkpt>
   <trkpt lat="-3.1076940" lon="37.3616680">
    <ele>4300.1</ele>
    <time>2026-06-22T10:38:00Z</time>
   </trkpt>
   <trkpt lat="-3.1076940" lon="37.3616700">
    <ele>4300.1</ele>
    <time>2026-06-22T10:38:01Z</time>
   </trkpt>
   <trkpt lat="-3.1076930" lon="37.3616690">
    <ele>4300.2</ele>
    <time>2026-06-22T10:38:02Z</time>
   </trkpt>
   <trkpt lat="-3.1076940" lon="37.3616690">
    <ele>4300.2</ele>
    <time>2026-06-22T10:38:03Z</time>
   </trkpt>
   <trkpt lat="-3.1076940" lon="37.3616700">
    <ele>4300.2</ele>
    <time>2026-06-22T10:38:04Z</time>
   </trkpt>
   <trkpt lat="-3.1076970" lon="37.3616690">
    <ele>4300.2</ele>
    <time>2026-06-22T10:38:05Z</time>
   </trkpt>
   <trkpt lat="-3.1076970" lon="37.3616700">
    <ele>4300.2</ele>
    <time>2026-06-22T10:38:06Z</time>
   </trkpt>
   <trkpt lat="-3.1076960" lon="37.3616700">
    <ele>4300.2</ele>
    <time>2026-06-22T10:38:07Z</time>
   </trkpt>
   <trkpt lat="-3.1076960" lon="37.3616690">
    <ele>4300.2</ele>
    <time>2026-06-22T10:38:08Z</time>
   </trkpt>
   <trkpt lat="-3.1076950" lon="37.3616710">
    <ele>4300.3</ele>
    <time>2026-06-22T10:38:09Z</time>
   </trkpt>
   <trkpt lat="-3.1076960" lon="37.3616710">
    <ele>4300.3</ele>
    <time>2026-06-22T10:38:10Z</time>
   </trkpt>
   <trkpt lat="-3.1076960" lon="37.3616710">
    <ele>4300.3</ele>
    <time>2026-06-22T10:38:11Z</time>
   </trkpt>
   <trkpt lat="-3.1076960" lon="37.3616710">
    <ele>4300.3</ele>
    <time>2026-06-22T10:38:12Z</time>
   </trkpt>
   <trkpt lat="-3.1076970" lon="37.3616700">
    <ele>4300.3</ele>
    <time>2026-06-22T10:38:13Z</time>
   </trkpt>
   <trkpt lat="-3.1076960" lon="37.3616710">
    <ele>4300.3</ele>
    <time>2026-06-22T10:38:14Z</time>
   </trkpt>
   <trkpt lat="-3.1076950" lon="37.3616730">
    <ele>4300.3</ele>
    <time>2026-06-22T10:38:15Z</time>
   </trkpt>
   <trkpt lat="-3.1076940" lon="37.3616760">
    <ele>4300.3</ele>
    <time>2026-06-22T10:38:16Z</time>
   </trkpt>
   <trkpt lat="-3.1076960" lon="37.3616740">
    <ele>4300.4</ele>
    <time>2026-06-22T10:38:17Z</time>
   </trkpt>
   <trkpt lat="-3.1076950" lon="37.3616750">
    <ele>4300.4</ele>
    <time>2026-06-22T10:38:18Z</time>
   </trkpt>
   <trkpt lat="-3.1076950" lon="37.3616750">
    <ele>4300.4</ele>
    <time>2026-06-22T10:38:19Z</time>
   </trkpt>
   <trkpt lat="-3.1076950" lon="37.3616750">
    <ele>4300.4</ele>
    <time>2026-06-22T10:38:20Z</time>
   </trkpt>
   <trkpt lat="-3.1076940" lon="37.3616740">
    <ele>4300.4</ele>
    <time>2026-06-22T10:38:21Z</time>
   </trkpt>
   <trkpt lat="-3.1076940" lon="37.3616750">
    <ele>4300.4</ele>
    <time>2026-06-22T10:38:22Z</time>
   </trkpt>
   <trkpt lat="-3.1076950" lon="37.3616740">
    <ele>4300.4</ele>
    <time>2026-06-22T10:38:23Z</time>
   </trkpt>
   <trkpt lat="-3.1076930" lon="37.3616760">
    <ele>4300.4</ele>
    <time>2026-06-22T10:38:24Z</time>
   </trkpt>
   <trkpt lat="-3.1076930" lon="37.3616780">
    <ele>4300.5</ele>
    <time>2026-06-22T10:38:25Z</time>
   </trkpt>
   <trkpt lat="-3.1076930" lon="37.3616820">
    <ele>4300.5</ele>
    <time>2026-06-22T10:38:26Z</time>
   </trkpt>
   <trkpt lat="-3.1076900" lon="37.3616890">
    <ele>4300.6</ele>
    <time>2026-06-22T10:38:27Z</time>
   </trkpt>
   <trkpt lat="-3.1076930" lon="37.3616950">
    <ele>4300.6</ele>
    <time>2026-06-22T10:38:28Z</time>
   </trkpt>
   <trkpt lat="-3.1076920" lon="37.3616980">
    <ele>4300.7</ele>
    <time>2026-06-22T10:38:29Z</time>
   </trkpt>
   <trkpt lat="-3.1076910" lon="37.3617010">
    <ele>4300.7</ele>
    <time>2026-06-22T10:38:30Z</time>
   </trkpt>
   <trkpt lat="-3.1076890" lon="37.3617060">
    <ele>4300.8</ele>
    <time>2026-06-22T10:38:31Z</time>
   </trkpt>
   <trkpt lat="-3.1076880" lon="37.3617070">
    <ele>4300.8</ele>
    <time>2026-06-22T10:38:32Z</time>
   </trkpt>
   <trkpt lat="-3.1076860" lon="37.3617090">
    <ele>4300.8</ele>
    <time>2026-06-22T10:38:34Z</time>
   </trkpt>
   <trkpt lat="-3.1076850" lon="37.3617120">
    <ele>4300.8</ele>
    <time>2026-06-22T10:38:35Z</time>
   </trkpt>
   <trkpt lat="-3.1076840" lon="37.3617160">
    <ele>4300.9</ele>
    <time>2026-06-22T10:38:36Z</time>
   </trkpt>
   <trkpt lat="-3.1076830" lon="37.3617180">
    <ele>4300.9</ele>
    <time>2026-06-22T10:38:37Z</time>
   </trkpt>
   <trkpt lat="-3.1076840" lon="37.3617220">
    <ele>4300.9</ele>
    <time>2026-06-22T10:38:38Z</time>
   </trkpt>
   <trkpt lat="-3.1076790" lon="37.3617280">
    <ele>4301.0</ele>
    <time>2026-06-22T10:38:39Z</time>
   </trkpt>
   <trkpt lat="-3.1076780" lon="37.3617340">
    <ele>4301.1</ele>
    <time>2026-06-22T10:38:40Z</time>
   </trkpt>
   <trkpt lat="-3.1076750" lon="37.3617390">
    <ele>4301.1</ele>
    <time>2026-06-22T10:38:41Z</time>
   </trkpt>
   <trkpt lat="-3.1076730" lon="37.3617430">
    <ele>4301.2</ele>
    <time>2026-06-22T10:38:42Z</time>
   </trkpt>
   <trkpt lat="-3.1076720" lon="37.3617490">
    <ele>4301.2</ele>
    <time>2026-06-22T10:38:43Z</time>
   </trkpt>
   <trkpt lat="-3.1076710" lon="37.3617510">
    <ele>4301.3</ele>
    <time>2026-06-22T10:38:44Z</time>
   </trkpt>
   <trkpt lat="-3.1076710" lon="37.3617590">
    <ele>4301.3</ele>
    <time>2026-06-22T10:38:45Z</time>
   </trkpt>
   <trkpt lat="-3.1076740" lon="37.3617630">
    <ele>4301.4</ele>
    <time>2026-06-22T10:38:46Z</time>
   </trkpt>
   <trkpt lat="-3.1076730" lon="37.3617640">
    <ele>4301.4</ele>
    <time>2026-06-22T10:38:47Z</time>
   </trkpt>
   <trkpt lat="-3.1076700" lon="37.3617700">
    <ele>4301.5</ele>
    <time>2026-06-22T10:38:48Z</time>
   </trkpt>
   <trkpt lat="-3.1076660" lon="37.3617730">
    <ele>4301.5</ele>
    <time>2026-06-22T10:38:49Z</time>
   </trkpt>
   <trkpt lat="-3.1076640" lon="37.3617740">
    <ele>4301.5</ele>
    <time>2026-06-22T10:38:50Z</time>
   </trkpt>
   <trkpt lat="-3.1076600" lon="37.3617770">
    <ele>4301.6</ele>
    <time>2026-06-22T10:38:51Z</time>
   </trkpt>
   <trkpt lat="-3.1076570" lon="37.3617800">
    <ele>4301.6</ele>
    <time>2026-06-22T10:38:52Z</time>
   </trkpt>
   <trkpt lat="-3.1076530" lon="37.3617840">
    <ele>4301.7</ele>
    <time>2026-06-22T10:38:53Z</time>
   </trkpt>
   <trkpt lat="-3.1076490" lon="37.3617860">
    <ele>4301.7</ele>
    <time>2026-06-22T10:38:54Z</time>
   </trkpt>
   <trkpt lat="-3.1076460" lon="37.3617920">
    <ele>4301.8</ele>
    <time>2026-06-22T10:38:55Z</time>
   </trkpt>
   <trkpt lat="-3.1076440" lon="37.3617960">
    <ele>4301.8</ele>
    <time>2026-06-22T10:38:56Z</time>
   </trkpt>
   <trkpt lat="-3.1076450" lon="37.3618000">
    <ele>4301.9</ele>
    <time>2026-06-22T10:38:57Z</time>
   </trkpt>
   <trkpt lat="-3.1076450" lon="37.3618040">
    <ele>4301.9</ele>
    <time>2026-06-22T10:38:58Z</time>
   </trkpt>
   <trkpt lat="-3.1076460" lon="37.3618080">
    <ele>4302.0</ele>
    <time>2026-06-22T10:38:59Z</time>
   </trkpt>
   <trkpt lat="-3.1076420" lon="37.3618100">
    <ele>4302.0</ele>
    <time>2026-06-22T10:39:00Z</time>
   </trkpt>
   <trkpt lat="-3.1076400" lon="37.3618130">
    <ele>4302.1</ele>
    <time>2026-06-22T10:39:01Z</time>
   </trkpt>
   <trkpt lat="-3.1076380" lon="37.3618170">
    <ele>4302.1</ele>
    <time>2026-06-22T10:39:02Z</time>
   </trkpt>
   <trkpt lat="-3.1076350" lon="37.3618200">
    <ele>4302.1</ele>
    <time>2026-06-22T10:39:03Z</time>
   </trkpt>
   <trkpt lat="-3.1076320" lon="37.3618240">
    <ele>4302.2</ele>
    <time>2026-06-22T10:39:04Z</time>
   </trkpt>
   <trkpt lat="-3.1076310" lon="37.3618260">
    <ele>4302.2</ele>
    <time>2026-06-22T10:39:05Z</time>
   </trkpt>
   <trkpt lat="-3.1076290" lon="37.3618300">
    <ele>4302.3</ele>
    <time>2026-06-22T10:39:06Z</time>
   </trkpt>
   <trkpt lat="-3.1076280" lon="37.3618340">
    <ele>4302.3</ele>
    <time>2026-06-22T10:39:07Z</time>
   </trkpt>
   <trkpt lat="-3.1076270" lon="37.3618350">
    <ele>4302.3</ele>
    <time>2026-06-22T10:39:08Z</time>
   </trkpt>
   <trkpt lat="-3.1076250" lon="37.3618430">
    <ele>4302.4</ele>
    <time>2026-06-22T10:39:09Z</time>
   </trkpt>
   <trkpt lat="-3.1076240" lon="37.3618480">
    <ele>4302.4</ele>
    <time>2026-06-22T10:39:10Z</time>
   </trkpt>
   <trkpt lat="-3.1076240" lon="37.3618500">
    <ele>4302.5</ele>
    <time>2026-06-22T10:39:11Z</time>
   </trkpt>
   <trkpt lat="-3.1076230" lon="37.3618590">
    <ele>4302.6</ele>
    <time>2026-06-22T10:39:12Z</time>
   </trkpt>
   <trkpt lat="-3.1076240" lon="37.3618620">
    <ele>4302.6</ele>
    <time>2026-06-22T10:39:13Z</time>
   </trkpt>
   <trkpt lat="-3.1076250" lon="37.3618660">
    <ele>4302.6</ele>
    <time>2026-06-22T10:39:14Z</time>
   </trkpt>
   <trkpt lat="-3.1076280" lon="37.3618690">
    <ele>4302.7</ele>
    <time>2026-06-22T10:39:15Z</time>
   </trkpt>
   <trkpt lat="-3.1076310" lon="37.3618720">
    <ele>4302.7</ele>
    <time>2026-06-22T10:39:16Z</time>
   </trkpt>
   <trkpt lat="-3.1076340" lon="37.3618750">
    <ele>4302.8</ele>
    <time>2026-06-22T10:39:17Z</time>
   </trkpt>
   <trkpt lat="-3.1076360" lon="37.3618780">
    <ele>4302.8</ele>
    <time>2026-06-22T10:39:18Z</time>
   </trkpt>
   <trkpt lat="-3.1076380" lon="37.3618810">
    <ele>4302.8</ele>
    <time>2026-06-22T10:39:19Z</time>
   </trkpt>
   <trkpt lat="-3.1076390" lon="37.3618880">
    <ele>4302.9</ele>
    <time>2026-06-22T10:39:20Z</time>
   </trkpt>
   <trkpt lat="-3.1076400" lon="37.3618890">
    <ele>4302.9</ele>
    <time>2026-06-22T10:39:21Z</time>
   </trkpt>
   <trkpt lat="-3.1076380" lon="37.3618970">
    <ele>4303.0</ele>
    <time>2026-06-22T10:39:22Z</time>
   </trkpt>
   <trkpt lat="-3.1076370" lon="37.3619010">
    <ele>4303.0</ele>
    <time>2026-06-22T10:39:23Z</time>
   </trkpt>
   <trkpt lat="-3.1076340" lon="37.3619060">
    <ele>4303.1</ele>
    <time>2026-06-22T10:39:24Z</time>
   </trkpt>
   <trkpt lat="-3.1076330" lon="37.3619090">
    <ele>4303.1</ele>
    <time>2026-06-22T10:39:25Z</time>
   </trkpt>
   <trkpt lat="-3.1076320" lon="37.3619150">
    <ele>4303.2</ele>
    <time>2026-06-22T10:39:26Z</time>
   </trkpt>
   <trkpt lat="-3.1076320" lon="37.3619200">
    <ele>4303.2</ele>
    <time>2026-06-22T10:39:27Z</time>
   </trkpt>
   <trkpt lat="-3.1076310" lon="37.3619220">
    <ele>4303.3</ele>
    <time>2026-06-22T10:39:28Z</time>
   </trkpt>
   <trkpt lat="-3.1076290" lon="37.3619260">
    <ele>4303.3</ele>
    <time>2026-06-22T10:39:29Z</time>
   </trkpt>
   <trkpt lat="-3.1076250" lon="37.3619290">
    <ele>4303.4</ele>
    <time>2026-06-22T10:39:30Z</time>
   </trkpt>
   <trkpt lat="-3.1076250" lon="37.3619290">
    <ele>4303.4</ele>
    <time>2026-06-22T10:39:31Z</time>
   </trkpt>
   <trkpt lat="-3.1076210" lon="37.3619360">
    <ele>4303.4</ele>
    <time>2026-06-22T10:39:32Z</time>
   </trkpt>
   <trkpt lat="-3.1076210" lon="37.3619410">
    <ele>4303.5</ele>
    <time>2026-06-22T10:39:33Z</time>
   </trkpt>
   <trkpt lat="-3.1076240" lon="37.3619440">
    <ele>4303.5</ele>
    <time>2026-06-22T10:39:34Z</time>
   </trkpt>
   <trkpt lat="-3.1076270" lon="37.3619460">
    <ele>4303.6</ele>
    <time>2026-06-22T10:39:35Z</time>
   </trkpt>
   <trkpt lat="-3.1076300" lon="37.3619510">
    <ele>4303.6</ele>
    <time>2026-06-22T10:39:36Z</time>
   </trkpt>
   <trkpt lat="-3.1076300" lon="37.3619550">
    <ele>4303.7</ele>
    <time>2026-06-22T10:39:37Z</time>
   </trkpt>
   <trkpt lat="-3.1076300" lon="37.3619580">
    <ele>4303.7</ele>
    <time>2026-06-22T10:39:38Z</time>
   </trkpt>
   <trkpt lat="-3.1076300" lon="37.3619620">
    <ele>4303.7</ele>
    <time>2026-06-22T10:39:39Z</time>
   </trkpt>
   <trkpt lat="-3.1076330" lon="37.3619670">
    <ele>4303.8</ele>
    <time>2026-06-22T10:39:40Z</time>
   </trkpt>
   <trkpt lat="-3.1076340" lon="37.3619710">
    <ele>4303.8</ele>
    <time>2026-06-22T10:39:41Z</time>
   </trkpt>
   <trkpt lat="-3.1076350" lon="37.3619740">
    <ele>4303.9</ele>
    <time>2026-06-22T10:39:42Z</time>
   </trkpt>
   <trkpt lat="-3.1076340" lon="37.3619770">
    <ele>4303.9</ele>
    <time>2026-06-22T10:39:43Z</time>
   </trkpt>
   <trkpt lat="-3.1076350" lon="37.3619820">
    <ele>4304.0</ele>
    <time>2026-06-22T10:39:44Z</time>
   </trkpt>
   <trkpt lat="-3.1076370" lon="37.3619860">
    <ele>4304.0</ele>
    <time>2026-06-22T10:39:45Z</time>
   </trkpt>
   <trkpt lat="-3.1076390" lon="37.3619890">
    <ele>4304.0</ele>
    <time>2026-06-22T10:39:46Z</time>
   </trkpt>
   <trkpt lat="-3.1076410" lon="37.3619940">
    <ele>4304.1</ele>
    <time>2026-06-22T10:39:47Z</time>
   </trkpt>
   <trkpt lat="-3.1076410" lon="37.3619950">
    <ele>4304.1</ele>
    <time>2026-06-22T10:39:48Z</time>
   </trkpt>
   <trkpt lat="-3.1076390" lon="37.3620020">
    <ele>4304.2</ele>
    <time>2026-06-22T10:39:49Z</time>
   </trkpt>
   <trkpt lat="-3.1076370" lon="37.3620060">
    <ele>4304.2</ele>
    <time>2026-06-22T10:39:50Z</time>
   </trkpt>
   <trkpt lat="-3.1076350" lon="37.3620100">
    <ele>4304.3</ele>
    <time>2026-06-22T10:39:51Z</time>
   </trkpt>
   <trkpt lat="-3.1076330" lon="37.3620150">
    <ele>4304.3</ele>
    <time>2026-06-22T10:39:52Z</time>
   </trkpt>
   <trkpt lat="-3.1076270" lon="37.3620190">
    <ele>4304.4</ele>
    <time>2026-06-22T10:39:53Z</time>
   </trkpt>
   <trkpt lat="-3.1076240" lon="37.3620200">
    <ele>4304.4</ele>
    <time>2026-06-22T10:39:54Z</time>
   </trkpt>
   <trkpt lat="-3.1076180" lon="37.3620220">
    <ele>4304.5</ele>
    <time>2026-06-22T10:39:55Z</time>
   </trkpt>
   <trkpt lat="-3.1076120" lon="37.3620250">
    <ele>4304.6</ele>
    <time>2026-06-22T10:39:56Z</time>
   </trkpt>
   <trkpt lat="-3.1076130" lon="37.3620250">
    <ele>4304.6</ele>
    <time>2026-06-22T10:39:57Z</time>
   </trkpt>
   <trkpt lat="-3.1076120" lon="37.3620330">
    <ele>4304.6</ele>
    <time>2026-06-22T10:39:58Z</time>
   </trkpt>
   <trkpt lat="-3.1076120" lon="37.3620370">
    <ele>4304.7</ele>
    <time>2026-06-22T10:39:59Z</time>
   </trkpt>
   <trkpt lat="-3.1076130" lon="37.3620400">
    <ele>4304.7</ele>
    <time>2026-06-22T10:40:00Z</time>
   </trkpt>
   <trkpt lat="-3.1076140" lon="37.3620420">
    <ele>4304.7</ele>
    <time>2026-06-22T10:40:01Z</time>
   </trkpt>
   <trkpt lat="-3.1076180" lon="37.3620490">
    <ele>4304.8</ele>
    <time>2026-06-22T10:40:02Z</time>
   </trkpt>
   <trkpt lat="-3.1076210" lon="37.3620530">
    <ele>4304.9</ele>
    <time>2026-06-22T10:40:03Z</time>
   </trkpt>
   <trkpt lat="-3.1076230" lon="37.3620590">
    <ele>4304.9</ele>
    <time>2026-06-22T10:40:04Z</time>
   </trkpt>
   <trkpt lat="-3.1076250" lon="37.3620640">
    <ele>4305.0</ele>
    <time>2026-06-22T10:40:05Z</time>
   </trkpt>
   <trkpt lat="-3.1076240" lon="37.3620690">
    <ele>4305.0</ele>
    <time>2026-06-22T10:40:06Z</time>
   </trkpt>
   <trkpt lat="-3.1076230" lon="37.3620740">
    <ele>4305.1</ele>
    <time>2026-06-22T10:40:07Z</time>
   </trkpt>
   <trkpt lat="-3.1076240" lon="37.3620810">
    <ele>4305.2</ele>
    <time>2026-06-22T10:40:08Z</time>
   </trkpt>
   <trkpt lat="-3.1076270" lon="37.3620910">
    <ele>4305.3</ele>
    <time>2026-06-22T10:40:09Z</time>
   </trkpt>
   <trkpt lat="-3.1076310" lon="37.3621010">
    <ele>4305.4</ele>
    <time>2026-06-22T10:40:10Z</time>
   </trkpt>
   <trkpt lat="-3.1076310" lon="37.3621060">
    <ele>4305.4</ele>
    <time>2026-06-22T10:40:11Z</time>
   </trkpt>
   <trkpt lat="-3.1076310" lon="37.3621090">
    <ele>4305.5</ele>
    <time>2026-06-22T10:40:12Z</time>
   </trkpt>
   <trkpt lat="-3.1076290" lon="37.3621120">
    <ele>4305.5</ele>
    <time>2026-06-22T10:40:13Z</time>
   </trkpt>
   <trkpt lat="-3.1076270" lon="37.3621170">
    <ele>4305.6</ele>
    <time>2026-06-22T10:40:14Z</time>
   </trkpt>
   <trkpt lat="-3.1076270" lon="37.3621200">
    <ele>4305.6</ele>
    <time>2026-06-22T10:40:15Z</time>
   </trkpt>
   <trkpt lat="-3.1076240" lon="37.3621220">
    <ele>4305.6</ele>
    <time>2026-06-22T10:40:16Z</time>
   </trkpt>
   <trkpt lat="-3.1076180" lon="37.3621230">
    <ele>4305.7</ele>
    <time>2026-06-22T10:40:17Z</time>
   </trkpt>
   <trkpt lat="-3.1076150" lon="37.3621240">
    <ele>4305.7</ele>
    <time>2026-06-22T10:40:18Z</time>
   </trkpt>
   <trkpt lat="-3.1076100" lon="37.3621220">
    <ele>4305.8</ele>
    <time>2026-06-22T10:40:19Z</time>
   </trkpt>
   <trkpt lat="-3.1076080" lon="37.3621220">
    <ele>4305.8</ele>
    <time>2026-06-22T10:40:20Z</time>
   </trkpt>
   <trkpt lat="-3.1076030" lon="37.3621200">
    <ele>4305.9</ele>
    <time>2026-06-22T10:40:21Z</time>
   </trkpt>
   <trkpt lat="-3.1075990" lon="37.3621210">
    <ele>4305.9</ele>
    <time>2026-06-22T10:40:22Z</time>
   </trkpt>
   <trkpt lat="-3.1075940" lon="37.3621230">
    <ele>4306.0</ele>
    <time>2026-06-22T10:40:23Z</time>
   </trkpt>
   <trkpt lat="-3.1075900" lon="37.3621290">
    <ele>4306.1</ele>
    <time>2026-06-22T10:40:24Z</time>
   </trkpt>
   <trkpt lat="-3.1075880" lon="37.3621290">
    <ele>4306.1</ele>
    <time>2026-06-22T10:40:25Z</time>
   </trkpt>
   <trkpt lat="-3.1075860" lon="37.3621340">
    <ele>4306.1</ele>
    <time>2026-06-22T10:40:26Z</time>
   </trkpt>
   <trkpt lat="-3.1075830" lon="37.3621380">
    <ele>4306.2</ele>
    <time>2026-06-22T10:40:27Z</time>
   </trkpt>
   <trkpt lat="-3.1075800" lon="37.3621410">
    <ele>4306.2</ele>
    <time>2026-06-22T10:40:28Z</time>
   </trkpt>
   <trkpt lat="-3.1075760" lon="37.3621480">
    <ele>4306.3</ele>
    <time>2026-06-22T10:40:29Z</time>
   </trkpt>
   <trkpt lat="-3.1075770" lon="37.3621510">
    <ele>4306.4</ele>
    <time>2026-06-22T10:40:30Z</time>
   </trkpt>
   <trkpt lat="-3.1075790" lon="37.3621570">
    <ele>4306.4</ele>
    <time>2026-06-22T10:40:31Z</time>
   </trkpt>
   <trkpt lat="-3.1075820" lon="37.3621610">
    <ele>4306.5</ele>
    <time>2026-06-22T10:40:32Z</time>
   </trkpt>
   <trkpt lat="-3.1075830" lon="37.3621670">
    <ele>4306.5</ele>
    <time>2026-06-22T10:40:33Z</time>
   </trkpt>
   <trkpt lat="-3.1075830" lon="37.3621720">
    <ele>4306.6</ele>
    <time>2026-06-22T10:40:34Z</time>
   </trkpt>
   <trkpt lat="-3.1075830" lon="37.3621770">
    <ele>4306.6</ele>
    <time>2026-06-22T10:40:35Z</time>
   </trkpt>
   <trkpt lat="-3.1075840" lon="37.3621840">
    <ele>4306.7</ele>
    <time>2026-06-22T10:40:36Z</time>
   </trkpt>
   <trkpt lat="-3.1075840" lon="37.3621870">
    <ele>4306.8</ele>
    <time>2026-06-22T10:40:37Z</time>
   </trkpt>
   <trkpt lat="-3.1075840" lon="37.3621920">
    <ele>4306.8</ele>
    <time>2026-06-22T10:40:39Z</time>
   </trkpt>
   <trkpt lat="-3.1075830" lon="37.3621970">
    <ele>4306.9</ele>
    <time>2026-06-22T10:40:40Z</time>
   </trkpt>
   <trkpt lat="-3.1075820" lon="37.3622010">
    <ele>4306.9</ele>
    <time>2026-06-22T10:40:41Z</time>
   </trkpt>
   <trkpt lat="-3.1075800" lon="37.3622050">
    <ele>4307.0</ele>
    <time>2026-06-22T10:40:42Z</time>
   </trkpt>
   <trkpt lat="-3.1075770" lon="37.3622090">
    <ele>4307.0</ele>
    <time>2026-06-22T10:40:43Z</time>
   </trkpt>
   <trkpt lat="-3.1075750" lon="37.3622140">
    <ele>4307.1</ele>
    <time>2026-06-22T10:40:44Z</time>
   </trkpt>
   <trkpt lat="-3.1075720" lon="37.3622190">
    <ele>4307.1</ele>
    <time>2026-06-22T10:40:45Z</time>
   </trkpt>
   <trkpt lat="-3.1075720" lon="37.3622240">
    <ele>4307.2</ele>
    <time>2026-06-22T10:40:46Z</time>
   </trkpt>
   <trkpt lat="-3.1075720" lon="37.3622290">
    <ele>4307.3</ele>
    <time>2026-06-22T10:40:47Z</time>
   </trkpt>
   <trkpt lat="-3.1075740" lon="37.3622360">
    <ele>4307.3</ele>
    <time>2026-06-22T10:40:48Z</time>
   </trkpt>
   <trkpt lat="-3.1075750" lon="37.3622420">
    <ele>4307.4</ele>
    <time>2026-06-22T10:40:49Z</time>
   </trkpt>
   <trkpt lat="-3.1075740" lon="37.3622470">
    <ele>4307.5</ele>
    <time>2026-06-22T10:40:50Z</time>
   </trkpt>
   <trkpt lat="-3.1075730" lon="37.3622500">
    <ele>4307.5</ele>
    <time>2026-06-22T10:40:51Z</time>
   </trkpt>
   <trkpt lat="-3.1075710" lon="37.3622580">
    <ele>4307.6</ele>
    <time>2026-06-22T10:40:52Z</time>
   </trkpt>
   <trkpt lat="-3.1075720" lon="37.3622660">
    <ele>4307.7</ele>
    <time>2026-06-22T10:40:53Z</time>
   </trkpt>
   <trkpt lat="-3.1075730" lon="37.3622700">
    <ele>4307.7</ele>
    <time>2026-06-22T10:40:54Z</time>
   </trkpt>
   <trkpt lat="-3.1075760" lon="37.3622730">
    <ele>4307.8</ele>
    <time>2026-06-22T10:40:55Z</time>
   </trkpt>
   <trkpt lat="-3.1075770" lon="37.3622760">
    <ele>4307.8</ele>
    <time>2026-06-22T10:40:56Z</time>
   </trkpt>
   <trkpt lat="-3.1075810" lon="37.3622830">
    <ele>4307.9</ele>
    <time>2026-06-22T10:40:57Z</time>
   </trkpt>
   <trkpt lat="-3.1075830" lon="37.3622870">
    <ele>4308.0</ele>
    <time>2026-06-22T10:40:58Z</time>
   </trkpt>
   <trkpt lat="-3.1075830" lon="37.3622890">
    <ele>4308.0</ele>
    <time>2026-06-22T10:40:59Z</time>
   </trkpt>
   <trkpt lat="-3.1075820" lon="37.3622920">
    <ele>4308.0</ele>
    <time>2026-06-22T10:41:00Z</time>
   </trkpt>
   <trkpt lat="-3.1075830" lon="37.3622950">
    <ele>4308.1</ele>
    <time>2026-06-22T10:41:01Z</time>
   </trkpt>
   <trkpt lat="-3.1075810" lon="37.3622970">
    <ele>4308.1</ele>
    <time>2026-06-22T10:41:02Z</time>
   </trkpt>
   <trkpt lat="-3.1075800" lon="37.3623040">
    <ele>4308.2</ele>
    <time>2026-06-22T10:41:03Z</time>
   </trkpt>
   <trkpt lat="-3.1075780" lon="37.3622990">
    <ele>4308.2</ele>
    <time>2026-06-22T10:41:04Z</time>
   </trkpt>
   <trkpt lat="-3.1075720" lon="37.3623010">
    <ele>4308.3</ele>
    <time>2026-06-22T10:41:05Z</time>
   </trkpt>
   <trkpt lat="-3.1075680" lon="37.3623030">
    <ele>4308.4</ele>
    <time>2026-06-22T10:41:06Z</time>
   </trkpt>
   <trkpt lat="-3.1075650" lon="37.3623040">
    <ele>4308.4</ele>
    <time>2026-06-22T10:41:07Z</time>
   </trkpt>
   <trkpt lat="-3.1075630" lon="37.3623060">
    <ele>4308.4</ele>
    <time>2026-06-22T10:41:08Z</time>
   </trkpt>
   <trkpt lat="-3.1075640" lon="37.3623110">
    <ele>4308.5</ele>
    <time>2026-06-22T10:41:09Z</time>
   </trkpt>
   <trkpt lat="-3.1075640" lon="37.3623150">
    <ele>4308.6</ele>
    <time>2026-06-22T10:41:10Z</time>
   </trkpt>
   <trkpt lat="-3.1075630" lon="37.3623210">
    <ele>4308.6</ele>
    <time>2026-06-22T10:41:11Z</time>
   </trkpt>
   <trkpt lat="-3.1075610" lon="37.3623250">
    <ele>4308.7</ele>
    <time>2026-06-22T10:41:12Z</time>
   </trkpt>
   <trkpt lat="-3.1075590" lon="37.3623290">
    <ele>4308.7</ele>
    <time>2026-06-22T10:41:13Z</time>
   </trkpt>
   <trkpt lat="-3.1075580" lon="37.3623350">
    <ele>4308.8</ele>
    <time>2026-06-22T10:41:14Z</time>
   </trkpt>
   <trkpt lat="-3.1075570" lon="37.3623410">
    <ele>4308.9</ele>
    <time>2026-06-22T10:41:15Z</time>
   </trkpt>
   <trkpt lat="-3.1075560" lon="37.3623460">
    <ele>4308.9</ele>
    <time>2026-06-22T10:41:16Z</time>
   </trkpt>
   <trkpt lat="-3.1075590" lon="37.3623470">
    <ele>4309.0</ele>
    <time>2026-06-22T10:41:17Z</time>
   </trkpt>
   <trkpt lat="-3.1075650" lon="37.3623610">
    <ele>4309.2</ele>
    <time>2026-06-22T10:41:18Z</time>
   </trkpt>
   <trkpt lat="-3.1075680" lon="37.3623640">
    <ele>4309.2</ele>
    <time>2026-06-22T10:41:19Z</time>
   </trkpt>
   <trkpt lat="-3.1075690" lon="37.3623680">
    <ele>4309.3</ele>
    <time>2026-06-22T10:41:20Z</time>
   </trkpt>
   <trkpt lat="-3.1075700" lon="37.3623730">
    <ele>4309.3</ele>
    <time>2026-06-22T10:41:21Z</time>
   </trkpt>
   <trkpt lat="-3.1075700" lon="37.3623790">
    <ele>4309.4</ele>
    <time>2026-06-22T10:41:22Z</time>
   </trkpt>
   <trkpt lat="-3.1075700" lon="37.3623850">
    <ele>4309.5</ele>
    <time>2026-06-22T10:41:23Z</time>
   </trkpt>
   <trkpt lat="-3.1075690" lon="37.3623900">
    <ele>4309.5</ele>
    <time>2026-06-22T10:41:24Z</time>
   </trkpt>
   <trkpt lat="-3.1075670" lon="37.3623940">
    <ele>4309.6</ele>
    <time>2026-06-22T10:41:25Z</time>
   </trkpt>
   <trkpt lat="-3.1075640" lon="37.3623970">
    <ele>4309.6</ele>
    <time>2026-06-22T10:41:26Z</time>
   </trkpt>
   <trkpt lat="-3.1075610" lon="37.3624000">
    <ele>4309.7</ele>
    <time>2026-06-22T10:41:27Z</time>
   </trkpt>
   <trkpt lat="-3.1075570" lon="37.3624020">
    <ele>4309.8</ele>
    <time>2026-06-22T10:41:28Z</time>
   </trkpt>
   <trkpt lat="-3.1075530" lon="37.3624040">
    <ele>4309.8</ele>
    <time>2026-06-22T10:41:29Z</time>
   </trkpt>
   <trkpt lat="-3.1075490" lon="37.3624050">
    <ele>4309.9</ele>
    <time>2026-06-22T10:41:30Z</time>
   </trkpt>
   <trkpt lat="-3.1075450" lon="37.3624080">
    <ele>4309.9</ele>
    <time>2026-06-22T10:41:31Z</time>
   </trkpt>
   <trkpt lat="-3.1075420" lon="37.3624090">
    <ele>4310.0</ele>
    <time>2026-06-22T10:41:32Z</time>
   </trkpt>
   <trkpt lat="-3.1075390" lon="37.3624120">
    <ele>4310.0</ele>
    <time>2026-06-22T10:41:33Z</time>
   </trkpt>
   <trkpt lat="-3.1075370" lon="37.3624140">
    <ele>4310.1</ele>
    <time>2026-06-22T10:41:34Z</time>
   </trkpt>
   <trkpt lat="-3.1075350" lon="37.3624210">
    <ele>4310.1</ele>
    <time>2026-06-22T10:41:35Z</time>
   </trkpt>
   <trkpt lat="-3.1075360" lon="37.3624260">
    <ele>4310.2</ele>
    <time>2026-06-22T10:41:36Z</time>
   </trkpt>
   <trkpt lat="-3.1075390" lon="37.3624300">
    <ele>4310.3</ele>
    <time>2026-06-22T10:41:37Z</time>
   </trkpt>
   <trkpt lat="-3.1075390" lon="37.3624330">
    <ele>4310.3</ele>
    <time>2026-06-22T10:41:38Z</time>
   </trkpt>
   <trkpt lat="-3.1075370" lon="37.3624360">
    <ele>4310.4</ele>
    <time>2026-06-22T10:41:39Z</time>
   </trkpt>
   <trkpt lat="-3.1075350" lon="37.3624410">
    <ele>4310.4</ele>
    <time>2026-06-22T10:41:40Z</time>
   </trkpt>
   <trkpt lat="-3.1075330" lon="37.3624440">
    <ele>4310.5</ele>
    <time>2026-06-22T10:41:41Z</time>
   </trkpt>
   <trkpt lat="-3.1075340" lon="37.3624490">
    <ele>4310.5</ele>
    <time>2026-06-22T10:41:42Z</time>
   </trkpt>
   <trkpt lat="-3.1075330" lon="37.3624520">
    <ele>4310.6</ele>
    <time>2026-06-22T10:41:43Z</time>
   </trkpt>
   <trkpt lat="-3.1075340" lon="37.3624570">
    <ele>4310.6</ele>
    <time>2026-06-22T10:41:44Z</time>
   </trkpt>
   <trkpt lat="-3.1075300" lon="37.3624610">
    <ele>4310.7</ele>
    <time>2026-06-22T10:41:45Z</time>
   </trkpt>
   <trkpt lat="-3.1075310" lon="37.3624690">
    <ele>4310.8</ele>
    <time>2026-06-22T10:41:46Z</time>
   </trkpt>
   <trkpt lat="-3.1075310" lon="37.3624750">
    <ele>4310.9</ele>
    <time>2026-06-22T10:41:47Z</time>
   </trkpt>
   <trkpt lat="-3.1075310" lon="37.3624790">
    <ele>4310.9</ele>
    <time>2026-06-22T10:41:48Z</time>
   </trkpt>
   <trkpt lat="-3.1075320" lon="37.3624840">
    <ele>4311.0</ele>
    <time>2026-06-22T10:41:49Z</time>
   </trkpt>
   <trkpt lat="-3.1075320" lon="37.3624890">
    <ele>4311.1</ele>
    <time>2026-06-22T10:41:50Z</time>
   </trkpt>
   <trkpt lat="-3.1075340" lon="37.3624930">
    <ele>4311.1</ele>
    <time>2026-06-22T10:41:51Z</time>
   </trkpt>
   <trkpt lat="-3.1075380" lon="37.3624990">
    <ele>4311.2</ele>
    <time>2026-06-22T10:41:52Z</time>
   </trkpt>
   <trkpt lat="-3.1075400" lon="37.3625010">
    <ele>4311.3</ele>
    <time>2026-06-22T10:41:53Z</time>
   </trkpt>
   <trkpt lat="-3.1075430" lon="37.3625060">
    <ele>4311.3</ele>
    <time>2026-06-22T10:41:54Z</time>
   </trkpt>
   <trkpt lat="-3.1075450" lon="37.3625100">
    <ele>4311.4</ele>
    <time>2026-06-22T10:41:55Z</time>
   </trkpt>
   <trkpt lat="-3.1075450" lon="37.3625150">
    <ele>4311.5</ele>
    <time>2026-06-22T10:41:56Z</time>
   </trkpt>
   <trkpt lat="-3.1075440" lon="37.3625180">
    <ele>4311.5</ele>
    <time>2026-06-22T10:41:57Z</time>
   </trkpt>
   <trkpt lat="-3.1075420" lon="37.3625220">
    <ele>4311.6</ele>
    <time>2026-06-22T10:41:58Z</time>
   </trkpt>
   <trkpt lat="-3.1075380" lon="37.3625250">
    <ele>4311.6</ele>
    <time>2026-06-22T10:41:59Z</time>
   </trkpt>
   <trkpt lat="-3.1075360" lon="37.3625280">
    <ele>4311.7</ele>
    <time>2026-06-22T10:42:00Z</time>
   </trkpt>
   <trkpt lat="-3.1075340" lon="37.3625320">
    <ele>4311.7</ele>
    <time>2026-06-22T10:42:01Z</time>
   </trkpt>
   <trkpt lat="-3.1075310" lon="37.3625390">
    <ele>4311.8</ele>
    <time>2026-06-22T10:42:02Z</time>
   </trkpt>
   <trkpt lat="-3.1075310" lon="37.3625430">
    <ele>4311.9</ele>
    <time>2026-06-22T10:42:03Z</time>
   </trkpt>
   <trkpt lat="-3.1075300" lon="37.3625450">
    <ele>4311.9</ele>
    <time>2026-06-22T10:42:04Z</time>
   </trkpt>
   <trkpt lat="-3.1075260" lon="37.3625520">
    <ele>4312.0</ele>
    <time>2026-06-22T10:42:05Z</time>
   </trkpt>
   <trkpt lat="-3.1075250" lon="37.3625540">
    <ele>4312.1</ele>
    <time>2026-06-22T10:42:06Z</time>
   </trkpt>
   <trkpt lat="-3.1075210" lon="37.3625560">
    <ele>4312.1</ele>
    <time>2026-06-22T10:42:07Z</time>
   </trkpt>
   <trkpt lat="-3.1075180" lon="37.3625580">
    <ele>4312.2</ele>
    <time>2026-06-22T10:42:08Z</time>
   </trkpt>
   <trkpt lat="-3.1075140" lon="37.3625600">
    <ele>4312.2</ele>
    <time>2026-06-22T10:42:09Z</time>
   </trkpt>
   <trkpt lat="-3.1075090" lon="37.3625630">
    <ele>4312.3</ele>
    <time>2026-06-22T10:42:10Z</time>
   </trkpt>
   <trkpt lat="-3.1075060" lon="37.3625650">
    <ele>4312.4</ele>
    <time>2026-06-22T10:42:11Z</time>
   </trkpt>
   <trkpt lat="-3.1075050" lon="37.3625680">
    <ele>4312.4</ele>
    <time>2026-06-22T10:42:12Z</time>
   </trkpt>
   <trkpt lat="-3.1075030" lon="37.3625720">
    <ele>4312.5</ele>
    <time>2026-06-22T10:42:13Z</time>
   </trkpt>
   <trkpt lat="-3.1075020" lon="37.3625770">
    <ele>4312.5</ele>
    <time>2026-06-22T10:42:14Z</time>
   </trkpt>
   <trkpt lat="-3.1075030" lon="37.3625800">
    <ele>4312.6</ele>
    <time>2026-06-22T10:42:15Z</time>
   </trkpt>
   <trkpt lat="-3.1075010" lon="37.3625830">
    <ele>4312.6</ele>
    <time>2026-06-22T10:42:16Z</time>
   </trkpt>
   <trkpt lat="-3.1074990" lon="37.3625870">
    <ele>4312.7</ele>
    <time>2026-06-22T10:42:17Z</time>
   </trkpt>
   <trkpt lat="-3.1074980" lon="37.3625900">
    <ele>4312.7</ele>
    <time>2026-06-22T10:42:18Z</time>
   </trkpt>
   <trkpt lat="-3.1074930" lon="37.3625960">
    <ele>4312.8</ele>
    <time>2026-06-22T10:42:19Z</time>
   </trkpt>
   <trkpt lat="-3.1074950" lon="37.3626000">
    <ele>4312.9</ele>
    <time>2026-06-22T10:42:20Z</time>
   </trkpt>
   <trkpt lat="-3.1074950" lon="37.3626030">
    <ele>4312.9</ele>
    <time>2026-06-22T10:42:21Z</time>
   </trkpt>
   <trkpt lat="-3.1074960" lon="37.3626050">
    <ele>4313.0</ele>
    <time>2026-06-22T10:42:22Z</time>
   </trkpt>
   <trkpt lat="-3.1074980" lon="37.3626100">
    <ele>4313.0</ele>
    <time>2026-06-22T10:42:23Z</time>
   </trkpt>
   <trkpt lat="-3.1074990" lon="37.3626120">
    <ele>4313.1</ele>
    <time>2026-06-22T10:42:24Z</time>
   </trkpt>
   <trkpt lat="-3.1075010" lon="37.3626160">
    <ele>4313.1</ele>
    <time>2026-06-22T10:42:25Z</time>
   </trkpt>
   <trkpt lat="-3.1075030" lon="37.3626200">
    <ele>4313.2</ele>
    <time>2026-06-22T10:42:26Z</time>
   </trkpt>
   <trkpt lat="-3.1075030" lon="37.3626230">
    <ele>4313.2</ele>
    <time>2026-06-22T10:42:27Z</time>
   </trkpt>
   <trkpt lat="-3.1075040" lon="37.3626310">
    <ele>4313.3</ele>
    <time>2026-06-22T10:42:28Z</time>
   </trkpt>
   <trkpt lat="-3.1075050" lon="37.3626350">
    <ele>4313.4</ele>
    <time>2026-06-22T10:42:29Z</time>
   </trkpt>
   <trkpt lat="-3.1075070" lon="37.3626410">
    <ele>4313.5</ele>
    <time>2026-06-22T10:42:30Z</time>
   </trkpt>
   <trkpt lat="-3.1075080" lon="37.3626460">
    <ele>4313.5</ele>
    <time>2026-06-22T10:42:31Z</time>
   </trkpt>
   <trkpt lat="-3.1075120" lon="37.3626510">
    <ele>4313.6</ele>
    <time>2026-06-22T10:42:32Z</time>
   </trkpt>
   <trkpt lat="-3.1075140" lon="37.3626560">
    <ele>4313.7</ele>
    <time>2026-06-22T10:42:33Z</time>
   </trkpt>
   <trkpt lat="-3.1075150" lon="37.3626600">
    <ele>4313.8</ele>
    <time>2026-06-22T10:42:34Z</time>
   </trkpt>
   <trkpt lat="-3.1075160" lon="37.3626640">
    <ele>4313.8</ele>
    <time>2026-06-22T10:42:35Z</time>
   </trkpt>
   <trkpt lat="-3.1075130" lon="37.3626630">
    <ele>4313.9</ele>
    <time>2026-06-22T10:42:36Z</time>
   </trkpt>
   <trkpt lat="-3.1075100" lon="37.3626650">
    <ele>4313.9</ele>
    <time>2026-06-22T10:42:37Z</time>
   </trkpt>
   <trkpt lat="-3.1075080" lon="37.3626650">
    <ele>4313.9</ele>
    <time>2026-06-22T10:42:38Z</time>
   </trkpt>
   <trkpt lat="-3.1075040" lon="37.3626720">
    <ele>4314.0</ele>
    <time>2026-06-22T10:42:39Z</time>
   </trkpt>
   <trkpt lat="-3.1075020" lon="37.3626730">
    <ele>4314.1</ele>
    <time>2026-06-22T10:42:40Z</time>
   </trkpt>
   <trkpt lat="-3.1074990" lon="37.3626760">
    <ele>4314.1</ele>
    <time>2026-06-22T10:42:41Z</time>
   </trkpt>
   <trkpt lat="-3.1074970" lon="37.3626800">
    <ele>4314.2</ele>
    <time>2026-06-22T10:42:42Z</time>
   </trkpt>
   <trkpt lat="-3.1074940" lon="37.3626820">
    <ele>4314.2</ele>
    <time>2026-06-22T10:42:43Z</time>
   </trkpt>
   <trkpt lat="-3.1074930" lon="37.3626860">
    <ele>4314.3</ele>
    <time>2026-06-22T10:42:45Z</time>
   </trkpt>
   <trkpt lat="-3.1074910" lon="37.3626890">
    <ele>4314.3</ele>
    <time>2026-06-22T10:42:46Z</time>
   </trkpt>
   <trkpt lat="-3.1074880" lon="37.3626930">
    <ele>4314.4</ele>
    <time>2026-06-22T10:42:47Z</time>
   </trkpt>
   <trkpt lat="-3.1074840" lon="37.3626940">
    <ele>4314.5</ele>
    <time>2026-06-22T10:42:48Z</time>
   </trkpt>
   <trkpt lat="-3.1074800" lon="37.3626920">
    <ele>4314.5</ele>
    <time>2026-06-22T10:42:49Z</time>
   </trkpt>
   <trkpt lat="-3.1074780" lon="37.3626920">
    <ele>4314.5</ele>
    <time>2026-06-22T10:42:50Z</time>
   </trkpt>
   <trkpt lat="-3.1074770" lon="37.3626910">
    <ele>4314.6</ele>
    <time>2026-06-22T10:42:51Z</time>
   </trkpt>
   <trkpt lat="-3.1074760" lon="37.3626970">
    <ele>4314.7</ele>
    <time>2026-06-22T10:42:52Z</time>
   </trkpt>
   <trkpt lat="-3.1074760" lon="37.3627000">
    <ele>4314.7</ele>
    <time>2026-06-22T10:42:53Z</time>
   </trkpt>
   <trkpt lat="-3.1074760" lon="37.3627040">
    <ele>4314.7</ele>
    <time>2026-06-22T10:42:54Z</time>
   </trkpt>
   <trkpt lat="-3.1074740" lon="37.3627100">
    <ele>4314.8</ele>
    <time>2026-06-22T10:42:55Z</time>
   </trkpt>
   <trkpt lat="-3.1074710" lon="37.3627110">
    <ele>4314.9</ele>
    <time>2026-06-22T10:42:56Z</time>
   </trkpt>
   <trkpt lat="-3.1074730" lon="37.3627170">
    <ele>4315.0</ele>
    <time>2026-06-22T10:42:57Z</time>
   </trkpt>
   <trkpt lat="-3.1074730" lon="37.3627210">
    <ele>4315.0</ele>
    <time>2026-06-22T10:42:58Z</time>
   </trkpt>
   <trkpt lat="-3.1074740" lon="37.3627250">
    <ele>4315.1</ele>
    <time>2026-06-22T10:42:59Z</time>
   </trkpt>
   <trkpt lat="-3.1074790" lon="37.3627280">
    <ele>4315.1</ele>
    <time>2026-06-22T10:43:00Z</time>
   </trkpt>
   <trkpt lat="-3.1074830" lon="37.3627320">
    <ele>4315.2</ele>
    <time>2026-06-22T10:43:01Z</time>
   </trkpt>
   <trkpt lat="-3.1074880" lon="37.3627370">
    <ele>4315.3</ele>
    <time>2026-06-22T10:43:02Z</time>
   </trkpt>
   <trkpt lat="-3.1074900" lon="37.3627430">
    <ele>4315.4</ele>
    <time>2026-06-22T10:43:03Z</time>
   </trkpt>
   <trkpt lat="-3.1074890" lon="37.3627500">
    <ele>4315.5</ele>
    <time>2026-06-22T10:43:04Z</time>
   </trkpt>
   <trkpt lat="-3.1074880" lon="37.3627580">
    <ele>4315.6</ele>
    <time>2026-06-22T10:43:05Z</time>
   </trkpt>
   <trkpt lat="-3.1074880" lon="37.3627620">
    <ele>4315.6</ele>
    <time>2026-06-22T10:43:06Z</time>
   </trkpt>
   <trkpt lat="-3.1074860" lon="37.3627650">
    <ele>4315.7</ele>
    <time>2026-06-22T10:43:07Z</time>
   </trkpt>
   <trkpt lat="-3.1074810" lon="37.3627660">
    <ele>4315.7</ele>
    <time>2026-06-22T10:43:08Z</time>
   </trkpt>
   <trkpt lat="-3.1074760" lon="37.3627670">
    <ele>4315.8</ele>
    <time>2026-06-22T10:43:09Z</time>
   </trkpt>
   <trkpt lat="-3.1074710" lon="37.3627660">
    <ele>4315.9</ele>
    <time>2026-06-22T10:43:10Z</time>
   </trkpt>
   <trkpt lat="-3.1074670" lon="37.3627730">
    <ele>4316.0</ele>
    <time>2026-06-22T10:43:11Z</time>
   </trkpt>
   <trkpt lat="-3.1074620" lon="37.3627780">
    <ele>4316.0</ele>
    <time>2026-06-22T10:43:12Z</time>
   </trkpt>
   <trkpt lat="-3.1074630" lon="37.3627810">
    <ele>4316.1</ele>
    <time>2026-06-22T10:43:13Z</time>
   </trkpt>
   <trkpt lat="-3.1074620" lon="37.3627850">
    <ele>4316.1</ele>
    <time>2026-06-22T10:43:14Z</time>
   </trkpt>
   <trkpt lat="-3.1074630" lon="37.3627910">
    <ele>4316.2</ele>
    <time>2026-06-22T10:43:15Z</time>
   </trkpt>
   <trkpt lat="-3.1074640" lon="37.3627960">
    <ele>4316.3</ele>
    <time>2026-06-22T10:43:16Z</time>
   </trkpt>
   <trkpt lat="-3.1074640" lon="37.3628020">
    <ele>4316.3</ele>
    <time>2026-06-22T10:43:17Z</time>
   </trkpt>
   <trkpt lat="-3.1074610" lon="37.3628050">
    <ele>4316.4</ele>
    <time>2026-06-22T10:43:18Z</time>
   </trkpt>
   <trkpt lat="-3.1074570" lon="37.3628070">
    <ele>4316.4</ele>
    <time>2026-06-22T10:43:19Z</time>
   </trkpt>
   <trkpt lat="-3.1074530" lon="37.3628070">
    <ele>4316.5</ele>
    <time>2026-06-22T10:43:20Z</time>
   </trkpt>
   <trkpt lat="-3.1074450" lon="37.3628090">
    <ele>4316.6</ele>
    <time>2026-06-22T10:43:21Z</time>
   </trkpt>
   <trkpt lat="-3.1074410" lon="37.3628130">
    <ele>4316.7</ele>
    <time>2026-06-22T10:43:22Z</time>
   </trkpt>
   <trkpt lat="-3.1074380" lon="37.3628180">
    <ele>4316.7</ele>
    <time>2026-06-22T10:43:23Z</time>
   </trkpt>
   <trkpt lat="-3.1074350" lon="37.3628210">
    <ele>4316.8</ele>
    <time>2026-06-22T10:43:24Z</time>
   </trkpt>
   <trkpt lat="-3.1074330" lon="37.3628250">
    <ele>4316.8</ele>
    <time>2026-06-22T10:43:25Z</time>
   </trkpt>
   <trkpt lat="-3.1074300" lon="37.3628290">
    <ele>4316.9</ele>
    <time>2026-06-22T10:43:26Z</time>
   </trkpt>
   <trkpt lat="-3.1074270" lon="37.3628340">
    <ele>4317.0</ele>
    <time>2026-06-22T10:43:27Z</time>
   </trkpt>
   <trkpt lat="-3.1074280" lon="37.3628370">
    <ele>4317.0</ele>
    <time>2026-06-22T10:43:28Z</time>
   </trkpt>
   <trkpt lat="-3.1074280" lon="37.3628410">
    <ele>4317.1</ele>
    <time>2026-06-22T10:43:29Z</time>
   </trkpt>
   <trkpt lat="-3.1074270" lon="37.3628470">
    <ele>4317.1</ele>
    <time>2026-06-22T10:43:30Z</time>
   </trkpt>
   <trkpt lat="-3.1074260" lon="37.3628490">
    <ele>4317.2</ele>
    <time>2026-06-22T10:43:31Z</time>
   </trkpt>
   <trkpt lat="-3.1074230" lon="37.3628530">
    <ele>4317.2</ele>
    <time>2026-06-22T10:43:32Z</time>
   </trkpt>
   <trkpt lat="-3.1074220" lon="37.3628560">
    <ele>4317.3</ele>
    <time>2026-06-22T10:43:33Z</time>
   </trkpt>
   <trkpt lat="-3.1074190" lon="37.3628590">
    <ele>4317.3</ele>
    <time>2026-06-22T10:43:34Z</time>
   </trkpt>
   <trkpt lat="-3.1074170" lon="37.3628610">
    <ele>4317.3</ele>
    <time>2026-06-22T10:43:35Z</time>
   </trkpt>
   <trkpt lat="-3.1074150" lon="37.3628660">
    <ele>4317.4</ele>
    <time>2026-06-22T10:43:36Z</time>
   </trkpt>
   <trkpt lat="-3.1074160" lon="37.3628720">
    <ele>4317.5</ele>
    <time>2026-06-22T10:43:37Z</time>
   </trkpt>
   <trkpt lat="-3.1074160" lon="37.3628760">
    <ele>4317.5</ele>
    <time>2026-06-22T10:43:38Z</time>
   </trkpt>
   <trkpt lat="-3.1074170" lon="37.3628810">
    <ele>4317.6</ele>
    <time>2026-06-22T10:43:39Z</time>
   </trkpt>
   <trkpt lat="-3.1074150" lon="37.3628850">
    <ele>4317.6</ele>
    <time>2026-06-22T10:43:40Z</time>
   </trkpt>
   <trkpt lat="-3.1074120" lon="37.3628900">
    <ele>4317.7</ele>
    <time>2026-06-22T10:43:41Z</time>
   </trkpt>
   <trkpt lat="-3.1074100" lon="37.3628940">
    <ele>4317.8</ele>
    <time>2026-06-22T10:43:42Z</time>
   </trkpt>
   <trkpt lat="-3.1074080" lon="37.3628970">
    <ele>4317.8</ele>
    <time>2026-06-22T10:43:43Z</time>
   </trkpt>
   <trkpt lat="-3.1074070" lon="37.3629020">
    <ele>4317.9</ele>
    <time>2026-06-22T10:43:44Z</time>
   </trkpt>
   <trkpt lat="-3.1074040" lon="37.3629050">
    <ele>4317.9</ele>
    <time>2026-06-22T10:43:45Z</time>
   </trkpt>
   <trkpt lat="-3.1074020" lon="37.3629070">
    <ele>4318.0</ele>
    <time>2026-06-22T10:43:46Z</time>
   </trkpt>
   <trkpt lat="-3.1073980" lon="37.3629110">
    <ele>4318.0</ele>
    <time>2026-06-22T10:43:47Z</time>
   </trkpt>
   <trkpt lat="-3.1073930" lon="37.3629130">
    <ele>4318.1</ele>
    <time>2026-06-22T10:43:48Z</time>
   </trkpt>
   <trkpt lat="-3.1073910" lon="37.3629120">
    <ele>4318.1</ele>
    <time>2026-06-22T10:43:49Z</time>
   </trkpt>
   <trkpt lat="-3.1073880" lon="37.3629160">
    <ele>4318.2</ele>
    <time>2026-06-22T10:43:50Z</time>
   </trkpt>
   <trkpt lat="-3.1073870" lon="37.3629190">
    <ele>4318.2</ele>
    <time>2026-06-22T10:43:51Z</time>
   </trkpt>
   <trkpt lat="-3.1073830" lon="37.3629230">
    <ele>4318.3</ele>
    <time>2026-06-22T10:43:52Z</time>
   </trkpt>
   <trkpt lat="-3.1073790" lon="37.3629290">
    <ele>4318.4</ele>
    <time>2026-06-22T10:43:53Z</time>
   </trkpt>
   <trkpt lat="-3.1073770" lon="37.3629310">
    <ele>4318.4</ele>
    <time>2026-06-22T10:43:54Z</time>
   </trkpt>
   <trkpt lat="-3.1073740" lon="37.3629340">
    <ele>4318.5</ele>
    <time>2026-06-22T10:43:55Z</time>
   </trkpt>
   <trkpt lat="-3.1073700" lon="37.3629380">
    <ele>4318.5</ele>
    <time>2026-06-22T10:43:56Z</time>
   </trkpt>
   <trkpt lat="-3.1073680" lon="37.3629420">
    <ele>4318.6</ele>
    <time>2026-06-22T10:43:57Z</time>
   </trkpt>
   <trkpt lat="-3.1073650" lon="37.3629470">
    <ele>4318.6</ele>
    <time>2026-06-22T10:43:58Z</time>
   </trkpt>
   <trkpt lat="-3.1073640" lon="37.3629540">
    <ele>4318.7</ele>
    <time>2026-06-22T10:43:59Z</time>
   </trkpt>
   <trkpt lat="-3.1073630" lon="37.3629620">
    <ele>4318.8</ele>
    <time>2026-06-22T10:44:00Z</time>
   </trkpt>
   <trkpt lat="-3.1073650" lon="37.3629650">
    <ele>4318.8</ele>
    <time>2026-06-22T10:44:01Z</time>
   </trkpt>
   <trkpt lat="-3.1073640" lon="37.3629720">
    <ele>4318.9</ele>
    <time>2026-06-22T10:44:02Z</time>
   </trkpt>
   <trkpt lat="-3.1073630" lon="37.3629770">
    <ele>4319.0</ele>
    <time>2026-06-22T10:44:03Z</time>
   </trkpt>
   <trkpt lat="-3.1073610" lon="37.3629770">
    <ele>4319.0</ele>
    <time>2026-06-22T10:44:04Z</time>
   </trkpt>
   <trkpt lat="-3.1073590" lon="37.3629850">
    <ele>4319.1</ele>
    <time>2026-06-22T10:44:05Z</time>
   </trkpt>
   <trkpt lat="-3.1073590" lon="37.3629920">
    <ele>4319.2</ele>
    <time>2026-06-22T10:44:06Z</time>
   </trkpt>
   <trkpt lat="-3.1073570" lon="37.3629970">
    <ele>4319.2</ele>
    <time>2026-06-22T10:44:07Z</time>
   </trkpt>
   <trkpt lat="-3.1073550" lon="37.3630020">
    <ele>4319.3</ele>
    <time>2026-06-22T10:44:08Z</time>
   </trkpt>
   <trkpt lat="-3.1073520" lon="37.3630070">
    <ele>4319.4</ele>
    <time>2026-06-22T10:44:09Z</time>
   </trkpt>
   <trkpt lat="-3.1073490" lon="37.3630120">
    <ele>4319.4</ele>
    <time>2026-06-22T10:44:10Z</time>
   </trkpt>
   <trkpt lat="-3.1073460" lon="37.3630160">
    <ele>4319.5</ele>
    <time>2026-06-22T10:44:11Z</time>
   </trkpt>
   <trkpt lat="-3.1073450" lon="37.3630200">
    <ele>4319.5</ele>
    <time>2026-06-22T10:44:12Z</time>
   </trkpt>
   <trkpt lat="-3.1073450" lon="37.3630260">
    <ele>4319.6</ele>
    <time>2026-06-22T10:44:13Z</time>
   </trkpt>
   <trkpt lat="-3.1073450" lon="37.3630300">
    <ele>4319.6</ele>
    <time>2026-06-22T10:44:14Z</time>
   </trkpt>
   <trkpt lat="-3.1073430" lon="37.3630350">
    <ele>4319.7</ele>
    <time>2026-06-22T10:44:15Z</time>
   </trkpt>
   <trkpt lat="-3.1073430" lon="37.3630390">
    <ele>4319.8</ele>
    <time>2026-06-22T10:44:16Z</time>
   </trkpt>
   <trkpt lat="-3.1073410" lon="37.3630430">
    <ele>4319.8</ele>
    <time>2026-06-22T10:44:17Z</time>
   </trkpt>
   <trkpt lat="-3.1073400" lon="37.3630460">
    <ele>4319.8</ele>
    <time>2026-06-22T10:44:18Z</time>
   </trkpt>
   <trkpt lat="-3.1073360" lon="37.3630500">
    <ele>4319.9</ele>
    <time>2026-06-22T10:44:19Z</time>
   </trkpt>
   <trkpt lat="-3.1073330" lon="37.3630530">
    <ele>4319.9</ele>
    <time>2026-06-22T10:44:20Z</time>
   </trkpt>
   <trkpt lat="-3.1073300" lon="37.3630560">
    <ele>4320.0</ele>
    <time>2026-06-22T10:44:21Z</time>
   </trkpt>
   <trkpt lat="-3.1073280" lon="37.3630590">
    <ele>4320.0</ele>
    <time>2026-06-22T10:44:22Z</time>
   </trkpt>
   <trkpt lat="-3.1073240" lon="37.3630610">
    <ele>4320.1</ele>
    <time>2026-06-22T10:44:23Z</time>
   </trkpt>
   <trkpt lat="-3.1073220" lon="37.3630660">
    <ele>4320.1</ele>
    <time>2026-06-22T10:44:24Z</time>
   </trkpt>
   <trkpt lat="-3.1073190" lon="37.3630710">
    <ele>4320.2</ele>
    <time>2026-06-22T10:44:25Z</time>
   </trkpt>
   <trkpt lat="-3.1073180" lon="37.3630760">
    <ele>4320.3</ele>
    <time>2026-06-22T10:44:26Z</time>
   </trkpt>
   <trkpt lat="-3.1073170" lon="37.3630800">
    <ele>4320.3</ele>
    <time>2026-06-22T10:44:27Z</time>
   </trkpt>
   <trkpt lat="-3.1073170" lon="37.3630870">
    <ele>4320.4</ele>
    <time>2026-06-22T10:44:28Z</time>
   </trkpt>
   <trkpt lat="-3.1073150" lon="37.3630910">
    <ele>4320.4</ele>
    <time>2026-06-22T10:44:29Z</time>
   </trkpt>
   <trkpt lat="-3.1073120" lon="37.3630930">
    <ele>4320.5</ele>
    <time>2026-06-22T10:44:30Z</time>
   </trkpt>
   <trkpt lat="-3.1073080" lon="37.3630950">
    <ele>4320.5</ele>
    <time>2026-06-22T10:44:31Z</time>
   </trkpt>
   <trkpt lat="-3.1073040" lon="37.3631050">
    <ele>4320.6</ele>
    <time>2026-06-22T10:44:32Z</time>
   </trkpt>
   <trkpt lat="-3.1073040" lon="37.3631090">
    <ele>4320.7</ele>
    <time>2026-06-22T10:44:33Z</time>
   </trkpt>
   <trkpt lat="-3.1073040" lon="37.3631130">
    <ele>4320.7</ele>
    <time>2026-06-22T10:44:34Z</time>
   </trkpt>
   <trkpt lat="-3.1073030" lon="37.3631190">
    <ele>4320.8</ele>
    <time>2026-06-22T10:44:35Z</time>
   </trkpt>
   <trkpt lat="-3.1073010" lon="37.3631220">
    <ele>4320.8</ele>
    <time>2026-06-22T10:44:36Z</time>
   </trkpt>
   <trkpt lat="-3.1073020" lon="37.3631280">
    <ele>4320.9</ele>
    <time>2026-06-22T10:44:37Z</time>
   </trkpt>
   <trkpt lat="-3.1073030" lon="37.3631330">
    <ele>4320.9</ele>
    <time>2026-06-22T10:44:38Z</time>
   </trkpt>
   <trkpt lat="-3.1073030" lon="37.3631380">
    <ele>4321.0</ele>
    <time>2026-06-22T10:44:39Z</time>
   </trkpt>
   <trkpt lat="-3.1073010" lon="37.3631430">
    <ele>4321.1</ele>
    <time>2026-06-22T10:44:40Z</time>
   </trkpt>
   <trkpt lat="-3.1072990" lon="37.3631460">
    <ele>4321.1</ele>
    <time>2026-06-22T10:44:41Z</time>
   </trkpt>
   <trkpt lat="-3.1072970" lon="37.3631500">
    <ele>4321.1</ele>
    <time>2026-06-22T10:44:42Z</time>
   </trkpt>
   <trkpt lat="-3.1072940" lon="37.3631530">
    <ele>4321.2</ele>
    <time>2026-06-22T10:44:43Z</time>
   </trkpt>
   <trkpt lat="-3.1072930" lon="37.3631600">
    <ele>4321.3</ele>
    <time>2026-06-22T10:44:44Z</time>
   </trkpt>
   <trkpt lat="-3.1072910" lon="37.3631640">
    <ele>4321.3</ele>
    <time>2026-06-22T10:44:45Z</time>
   </trkpt>
   <trkpt lat="-3.1072890" lon="37.3631690">
    <ele>4321.4</ele>
    <time>2026-06-22T10:44:46Z</time>
   </trkpt>
   <trkpt lat="-3.1072860" lon="37.3631710">
    <ele>4321.4</ele>
    <time>2026-06-22T10:44:47Z</time>
   </trkpt>
   <trkpt lat="-3.1072830" lon="37.3631740">
    <ele>4321.5</ele>
    <time>2026-06-22T10:44:48Z</time>
   </trkpt>
   <trkpt lat="-3.1072780" lon="37.3631760">
    <ele>4321.5</ele>
    <time>2026-06-22T10:44:49Z</time>
   </trkpt>
   <trkpt lat="-3.1072760" lon="37.3631770">
    <ele>4321.5</ele>
    <time>2026-06-22T10:44:51Z</time>
   </trkpt>
   <trkpt lat="-3.1072730" lon="37.3631760">
    <ele>4321.6</ele>
    <time>2026-06-22T10:44:52Z</time>
   </trkpt>
   <trkpt lat="-3.1072700" lon="37.3631800">
    <ele>4321.6</ele>
    <time>2026-06-22T10:44:53Z</time>
   </trkpt>
   <trkpt lat="-3.1072670" lon="37.3631820">
    <ele>4321.7</ele>
    <time>2026-06-22T10:44:54Z</time>
   </trkpt>
   <trkpt lat="-3.1072650" lon="37.3631850">
    <ele>4321.7</ele>
    <time>2026-06-22T10:44:55Z</time>
   </trkpt>
   <trkpt lat="-3.1072620" lon="37.3631860">
    <ele>4321.7</ele>
    <time>2026-06-22T10:44:56Z</time>
   </trkpt>
   <trkpt lat="-3.1072610" lon="37.3631880">
    <ele>4321.8</ele>
    <time>2026-06-22T10:44:57Z</time>
   </trkpt>
   <trkpt lat="-3.1072590" lon="37.3631910">
    <ele>4321.8</ele>
    <time>2026-06-22T10:44:58Z</time>
   </trkpt>
   <trkpt lat="-3.1072570" lon="37.3631940">
    <ele>4321.8</ele>
    <time>2026-06-22T10:44:59Z</time>
   </trkpt>
   <trkpt lat="-3.1072540" lon="37.3631960">
    <ele>4321.9</ele>
    <time>2026-06-22T10:45:00Z</time>
   </trkpt>
   <trkpt lat="-3.1072510" lon="37.3631940">
    <ele>4321.9</ele>
    <time>2026-06-22T10:45:01Z</time>
   </trkpt>
   <trkpt lat="-3.1072480" lon="37.3631950">
    <ele>4322.0</ele>
    <time>2026-06-22T10:45:02Z</time>
   </trkpt>
   <trkpt lat="-3.1072460" lon="37.3631960">
    <ele>4322.0</ele>
    <time>2026-06-22T10:45:03Z</time>
   </trkpt>
   <trkpt lat="-3.1072490" lon="37.3631960">
    <ele>4322.0</ele>
    <time>2026-06-22T10:45:04Z</time>
   </trkpt>
   <trkpt lat="-3.1072470" lon="37.3632050">
    <ele>4322.1</ele>
    <time>2026-06-22T10:45:05Z</time>
   </trkpt>
   <trkpt lat="-3.1072470" lon="37.3632080">
    <ele>4322.2</ele>
    <time>2026-06-22T10:45:06Z</time>
   </trkpt>
   <trkpt lat="-3.1072460" lon="37.3632100">
    <ele>4322.2</ele>
    <time>2026-06-22T10:45:07Z</time>
   </trkpt>
   <trkpt lat="-3.1072440" lon="37.3632130">
    <ele>4322.2</ele>
    <time>2026-06-22T10:45:08Z</time>
   </trkpt>
   <trkpt lat="-3.1072440" lon="37.3632150">
    <ele>4322.2</ele>
    <time>2026-06-22T10:45:09Z</time>
   </trkpt>
   <trkpt lat="-3.1072430" lon="37.3632210">
    <ele>4322.3</ele>
    <time>2026-06-22T10:45:10Z</time>
   </trkpt>
   <trkpt lat="-3.1072400" lon="37.3632250">
    <ele>4322.4</ele>
    <time>2026-06-22T10:45:11Z</time>
   </trkpt>
   <trkpt lat="-3.1072370" lon="37.3632290">
    <ele>4322.4</ele>
    <time>2026-06-22T10:45:12Z</time>
   </trkpt>
   <trkpt lat="-3.1072360" lon="37.3632290">
    <ele>4322.4</ele>
    <time>2026-06-22T10:45:13Z</time>
   </trkpt>
   <trkpt lat="-3.1072320" lon="37.3632320">
    <ele>4322.5</ele>
    <time>2026-06-22T10:45:14Z</time>
   </trkpt>
   <trkpt lat="-3.1072280" lon="37.3632320">
    <ele>4322.5</ele>
    <time>2026-06-22T10:45:15Z</time>
   </trkpt>
   <trkpt lat="-3.1072230" lon="37.3632320">
    <ele>4322.6</ele>
    <time>2026-06-22T10:45:16Z</time>
   </trkpt>
   <trkpt lat="-3.1072220" lon="37.3632310">
    <ele>4322.6</ele>
    <time>2026-06-22T10:45:17Z</time>
   </trkpt>
   <trkpt lat="-3.1072150" lon="37.3632340">
    <ele>4322.7</ele>
    <time>2026-06-22T10:45:18Z</time>
   </trkpt>
   <trkpt lat="-3.1072130" lon="37.3632330">
    <ele>4322.7</ele>
    <time>2026-06-22T10:45:19Z</time>
   </trkpt>
   <trkpt lat="-3.1072080" lon="37.3632360">
    <ele>4322.8</ele>
    <time>2026-06-22T10:45:20Z</time>
   </trkpt>
   <trkpt lat="-3.1072050" lon="37.3632420">
    <ele>4322.8</ele>
    <time>2026-06-22T10:45:21Z</time>
   </trkpt>
   <trkpt lat="-3.1072020" lon="37.3632470">
    <ele>4322.9</ele>
    <time>2026-06-22T10:45:22Z</time>
   </trkpt>
   <trkpt lat="-3.1072010" lon="37.3632510">
    <ele>4322.9</ele>
    <time>2026-06-22T10:45:23Z</time>
   </trkpt>
   <trkpt lat="-3.1072010" lon="37.3632560">
    <ele>4323.0</ele>
    <time>2026-06-22T10:45:24Z</time>
   </trkpt>
   <trkpt lat="-3.1072000" lon="37.3632610">
    <ele>4323.1</ele>
    <time>2026-06-22T10:45:25Z</time>
   </trkpt>
   <trkpt lat="-3.1072000" lon="37.3632630">
    <ele>4323.1</ele>
    <time>2026-06-22T10:45:26Z</time>
   </trkpt>
   <trkpt lat="-3.1072000" lon="37.3632700">
    <ele>4323.1</ele>
    <time>2026-06-22T10:45:27Z</time>
   </trkpt>
   <trkpt lat="-3.1072020" lon="37.3632740">
    <ele>4323.2</ele>
    <time>2026-06-22T10:45:28Z</time>
   </trkpt>
   <trkpt lat="-3.1072050" lon="37.3632800">
    <ele>4323.3</ele>
    <time>2026-06-22T10:45:29Z</time>
   </trkpt>
   <trkpt lat="-3.1072070" lon="37.3632860">
    <ele>4323.3</ele>
    <time>2026-06-22T10:45:30Z</time>
   </trkpt>
   <trkpt lat="-3.1072060" lon="37.3632920">
    <ele>4323.4</ele>
    <time>2026-06-22T10:45:31Z</time>
   </trkpt>
   <trkpt lat="-3.1072020" lon="37.3632960">
    <ele>4323.5</ele>
    <time>2026-06-22T10:45:32Z</time>
   </trkpt>
   <trkpt lat="-3.1071980" lon="37.3633000">
    <ele>4323.5</ele>
    <time>2026-06-22T10:45:33Z</time>
   </trkpt>
   <trkpt lat="-3.1071950" lon="37.3633030">
    <ele>4323.6</ele>
    <time>2026-06-22T10:45:34Z</time>
   </trkpt>
   <trkpt lat="-3.1071900" lon="37.3633080">
    <ele>4323.7</ele>
    <time>2026-06-22T10:45:35Z</time>
   </trkpt>
   <trkpt lat="-3.1071890" lon="37.3633100">
    <ele>4323.7</ele>
    <time>2026-06-22T10:45:36Z</time>
   </trkpt>
   <trkpt lat="-3.1071880" lon="37.3633150">
    <ele>4323.7</ele>
    <time>2026-06-22T10:45:37Z</time>
   </trkpt>
   <trkpt lat="-3.1071880" lon="37.3633190">
    <ele>4323.8</ele>
    <time>2026-06-22T10:45:38Z</time>
   </trkpt>
   <trkpt lat="-3.1071860" lon="37.3633260">
    <ele>4323.9</ele>
    <time>2026-06-22T10:45:39Z</time>
   </trkpt>
   <trkpt lat="-3.1071860" lon="37.3633310">
    <ele>4323.9</ele>
    <time>2026-06-22T10:45:40Z</time>
   </trkpt>
   <trkpt lat="-3.1071860" lon="37.3633330">
    <ele>4323.9</ele>
    <time>2026-06-22T10:45:41Z</time>
   </trkpt>
   <trkpt lat="-3.1071850" lon="37.3633380">
    <ele>4324.0</ele>
    <time>2026-06-22T10:45:42Z</time>
   </trkpt>
   <trkpt lat="-3.1071820" lon="37.3633420">
    <ele>4324.0</ele>
    <time>2026-06-22T10:45:43Z</time>
   </trkpt>
   <trkpt lat="-3.1071820" lon="37.3633460">
    <ele>4324.1</ele>
    <time>2026-06-22T10:45:44Z</time>
   </trkpt>
   <trkpt lat="-3.1071820" lon="37.3633510">
    <ele>4324.1</ele>
    <time>2026-06-22T10:45:45Z</time>
   </trkpt>
   <trkpt lat="-3.1071810" lon="37.3633540">
    <ele>4324.2</ele>
    <time>2026-06-22T10:45:46Z</time>
   </trkpt>
   <trkpt lat="-3.1071800" lon="37.3633580">
    <ele>4324.2</ele>
    <time>2026-06-22T10:45:47Z</time>
   </trkpt>
   <trkpt lat="-3.1071760" lon="37.3633610">
    <ele>4324.3</ele>
    <time>2026-06-22T10:45:48Z</time>
   </trkpt>
   <trkpt lat="-3.1071750" lon="37.3633630">
    <ele>4324.3</ele>
    <time>2026-06-22T10:45:49Z</time>
   </trkpt>
   <trkpt lat="-3.1071710" lon="37.3633650">
    <ele>4324.3</ele>
    <time>2026-06-22T10:45:50Z</time>
   </trkpt>
   <trkpt lat="-3.1071680" lon="37.3633670">
    <ele>4324.4</ele>
    <time>2026-06-22T10:45:51Z</time>
   </trkpt>
   <trkpt lat="-3.1071660" lon="37.3633710">
    <ele>4324.4</ele>
    <time>2026-06-22T10:45:52Z</time>
   </trkpt>
   <trkpt lat="-3.1071640" lon="37.3633750">
    <ele>4324.5</ele>
    <time>2026-06-22T10:45:53Z</time>
   </trkpt>
   <trkpt lat="-3.1071610" lon="37.3633770">
    <ele>4324.5</ele>
    <time>2026-06-22T10:45:54Z</time>
   </trkpt>
   <trkpt lat="-3.1071590" lon="37.3633800">
    <ele>4324.6</ele>
    <time>2026-06-22T10:45:55Z</time>
   </trkpt>
   <trkpt lat="-3.1071560" lon="37.3633850">
    <ele>4324.6</ele>
    <time>2026-06-22T10:45:56Z</time>
   </trkpt>
   <trkpt lat="-3.1071560" lon="37.3633920">
    <ele>4324.7</ele>
    <time>2026-06-22T10:45:57Z</time>
   </trkpt>
   <trkpt lat="-3.1071540" lon="37.3633960">
    <ele>4324.7</ele>
    <time>2026-06-22T10:45:58Z</time>
   </trkpt>
   <trkpt lat="-3.1071550" lon="37.3634000">
    <ele>4324.8</ele>
    <time>2026-06-22T10:45:59Z</time>
   </trkpt>
   <trkpt lat="-3.1071570" lon="37.3634070">
    <ele>4324.9</ele>
    <time>2026-06-22T10:46:00Z</time>
   </trkpt>
   <trkpt lat="-3.1071570" lon="37.3634130">
    <ele>4324.9</ele>
    <time>2026-06-22T10:46:01Z</time>
   </trkpt>
   <trkpt lat="-3.1071550" lon="37.3634160">
    <ele>4325.0</ele>
    <time>2026-06-22T10:46:02Z</time>
   </trkpt>
   <trkpt lat="-3.1071540" lon="37.3634220">
    <ele>4325.0</ele>
    <time>2026-06-22T10:46:03Z</time>
   </trkpt>
   <trkpt lat="-3.1071530" lon="37.3634260">
    <ele>4325.1</ele>
    <time>2026-06-22T10:46:04Z</time>
   </trkpt>
   <trkpt lat="-3.1071520" lon="37.3634320">
    <ele>4325.2</ele>
    <time>2026-06-22T10:46:05Z</time>
   </trkpt>
   <trkpt lat="-3.1071510" lon="37.3634360">
    <ele>4325.2</ele>
    <time>2026-06-22T10:46:06Z</time>
   </trkpt>
   <trkpt lat="-3.1071500" lon="37.3634420">
    <ele>4325.3</ele>
    <time>2026-06-22T10:46:07Z</time>
   </trkpt>
   <trkpt lat="-3.1071490" lon="37.3634460">
    <ele>4325.3</ele>
    <time>2026-06-22T10:46:08Z</time>
   </trkpt>
   <trkpt lat="-3.1071480" lon="37.3634510">
    <ele>4325.4</ele>
    <time>2026-06-22T10:46:09Z</time>
   </trkpt>
   <trkpt lat="-3.1071470" lon="37.3634530">
    <ele>4325.4</ele>
    <time>2026-06-22T10:46:10Z</time>
   </trkpt>
   <trkpt lat="-3.1071440" lon="37.3634610">
    <ele>4325.5</ele>
    <time>2026-06-22T10:46:11Z</time>
   </trkpt>
   <trkpt lat="-3.1071440" lon="37.3634660">
    <ele>4325.5</ele>
    <time>2026-06-22T10:46:12Z</time>
   </trkpt>
   <trkpt lat="-3.1071410" lon="37.3634710">
    <ele>4325.6</ele>
    <time>2026-06-22T10:46:13Z</time>
   </trkpt>
   <trkpt lat="-3.1071360" lon="37.3634740">
    <ele>4325.7</ele>
    <time>2026-06-22T10:46:14Z</time>
   </trkpt>
   <trkpt lat="-3.1071330" lon="37.3634770">
    <ele>4325.7</ele>
    <time>2026-06-22T10:46:15Z</time>
   </trkpt>
   <trkpt lat="-3.1071300" lon="37.3634800">
    <ele>4325.8</ele>
    <time>2026-06-22T10:46:16Z</time>
   </trkpt>
   <trkpt lat="-3.1071270" lon="37.3634830">
    <ele>4325.8</ele>
    <time>2026-06-22T10:46:17Z</time>
   </trkpt>
   <trkpt lat="-3.1071240" lon="37.3634870">
    <ele>4325.9</ele>
    <time>2026-06-22T10:46:18Z</time>
   </trkpt>
   <trkpt lat="-3.1071250" lon="37.3634900">
    <ele>4325.9</ele>
    <time>2026-06-22T10:46:19Z</time>
   </trkpt>
   <trkpt lat="-3.1071260" lon="37.3634980">
    <ele>4326.0</ele>
    <time>2026-06-22T10:46:20Z</time>
   </trkpt>
   <trkpt lat="-3.1071270" lon="37.3635050">
    <ele>4326.1</ele>
    <time>2026-06-22T10:46:21Z</time>
   </trkpt>
   <trkpt lat="-3.1071270" lon="37.3635100">
    <ele>4326.1</ele>
    <time>2026-06-22T10:46:22Z</time>
   </trkpt>
   <trkpt lat="-3.1071260" lon="37.3635150">
    <ele>4326.2</ele>
    <time>2026-06-22T10:46:23Z</time>
   </trkpt>
   <trkpt lat="-3.1071250" lon="37.3635210">
    <ele>4326.3</ele>
    <time>2026-06-22T10:46:24Z</time>
   </trkpt>
   <trkpt lat="-3.1071220" lon="37.3635260">
    <ele>4326.3</ele>
    <time>2026-06-22T10:46:25Z</time>
   </trkpt>
   <trkpt lat="-3.1071200" lon="37.3635290">
    <ele>4326.4</ele>
    <time>2026-06-22T10:46:26Z</time>
   </trkpt>
   <trkpt lat="-3.1071150" lon="37.3635340">
    <ele>4326.5</ele>
    <time>2026-06-22T10:46:27Z</time>
   </trkpt>
   <trkpt lat="-3.1071130" lon="37.3635400">
    <ele>4326.5</ele>
    <time>2026-06-22T10:46:28Z</time>
   </trkpt>
   <trkpt lat="-3.1071120" lon="37.3635450">
    <ele>4326.6</ele>
    <time>2026-06-22T10:46:29Z</time>
   </trkpt>
   <trkpt lat="-3.1071140" lon="37.3635490">
    <ele>4326.6</ele>
    <time>2026-06-22T10:46:30Z</time>
   </trkpt>
   <trkpt lat="-3.1071160" lon="37.3635540">
    <ele>4326.7</ele>
    <time>2026-06-22T10:46:31Z</time>
   </trkpt>
   <trkpt lat="-3.1071190" lon="37.3635610">
    <ele>4326.8</ele>
    <time>2026-06-22T10:46:32Z</time>
   </trkpt>
   <trkpt lat="-3.1071200" lon="37.3635650">
    <ele>4326.8</ele>
    <time>2026-06-22T10:46:33Z</time>
   </trkpt>
   <trkpt lat="-3.1071200" lon="37.3635700">
    <ele>4326.9</ele>
    <time>2026-06-22T10:46:34Z</time>
   </trkpt>
   <trkpt lat="-3.1071190" lon="37.3635730">
    <ele>4326.9</ele>
    <time>2026-06-22T10:46:35Z</time>
   </trkpt>
   <trkpt lat="-3.1071180" lon="37.3635790">
    <ele>4327.0</ele>
    <time>2026-06-22T10:46:36Z</time>
   </trkpt>
   <trkpt lat="-3.1071170" lon="37.3635820">
    <ele>4327.0</ele>
    <time>2026-06-22T10:46:37Z</time>
   </trkpt>
   <trkpt lat="-3.1071140" lon="37.3635840">
    <ele>4327.1</ele>
    <time>2026-06-22T10:46:38Z</time>
   </trkpt>
   <trkpt lat="-3.1071100" lon="37.3635870">
    <ele>4327.1</ele>
    <time>2026-06-22T10:46:39Z</time>
   </trkpt>
   <trkpt lat="-3.1071050" lon="37.3635930">
    <ele>4327.2</ele>
    <time>2026-06-22T10:46:40Z</time>
   </trkpt>
   <trkpt lat="-3.1071020" lon="37.3635930">
    <ele>4327.3</ele>
    <time>2026-06-22T10:46:41Z</time>
   </trkpt>
   <trkpt lat="-3.1070960" lon="37.3635960">
    <ele>4327.3</ele>
    <time>2026-06-22T10:46:42Z</time>
   </trkpt>
   <trkpt lat="-3.1070930" lon="37.3635990">
    <ele>4327.4</ele>
    <time>2026-06-22T10:46:43Z</time>
   </trkpt>
   <trkpt lat="-3.1070900" lon="37.3636040">
    <ele>4327.5</ele>
    <time>2026-06-22T10:46:44Z</time>
   </trkpt>
   <trkpt lat="-3.1070880" lon="37.3636100">
    <ele>4327.5</ele>
    <time>2026-06-22T10:46:45Z</time>
   </trkpt>
   <trkpt lat="-3.1070860" lon="37.3636150">
    <ele>4327.6</ele>
    <time>2026-06-22T10:46:46Z</time>
   </trkpt>
   <trkpt lat="-3.1070830" lon="37.3636200">
    <ele>4327.7</ele>
    <time>2026-06-22T10:46:47Z</time>
   </trkpt>
   <trkpt lat="-3.1070800" lon="37.3636260">
    <ele>4327.7</ele>
    <time>2026-06-22T10:46:48Z</time>
   </trkpt>
   <trkpt lat="-3.1070770" lon="37.3636300">
    <ele>4327.8</ele>
    <time>2026-06-22T10:46:49Z</time>
   </trkpt>
   <trkpt lat="-3.1070750" lon="37.3636330">
    <ele>4327.8</ele>
    <time>2026-06-22T10:46:50Z</time>
   </trkpt>
   <trkpt lat="-3.1070720" lon="37.3636380">
    <ele>4327.9</ele>
    <time>2026-06-22T10:46:51Z</time>
   </trkpt>
   <trkpt lat="-3.1070710" lon="37.3636430">
    <ele>4327.9</ele>
    <time>2026-06-22T10:46:52Z</time>
   </trkpt>
   <trkpt lat="-3.1070700" lon="37.3636460">
    <ele>4328.0</ele>
    <time>2026-06-22T10:46:53Z</time>
   </trkpt>
   <trkpt lat="-3.1070690" lon="37.3636510">
    <ele>4328.0</ele>
    <time>2026-06-22T10:46:54Z</time>
   </trkpt>
   <trkpt lat="-3.1070670" lon="37.3636540">
    <ele>4328.1</ele>
    <time>2026-06-22T10:46:56Z</time>
   </trkpt>
   <trkpt lat="-3.1070650" lon="37.3636600">
    <ele>4328.1</ele>
    <time>2026-06-22T10:46:57Z</time>
   </trkpt>
   <trkpt lat="-3.1070620" lon="37.3636640">
    <ele>4328.2</ele>
    <time>2026-06-22T10:46:58Z</time>
   </trkpt>
   <trkpt lat="-3.1070610" lon="37.3636680">
    <ele>4328.2</ele>
    <time>2026-06-22T10:46:59Z</time>
   </trkpt>
   <trkpt lat="-3.1070560" lon="37.3636720">
    <ele>4328.3</ele>
    <time>2026-06-22T10:47:00Z</time>
   </trkpt>
   <trkpt lat="-3.1070540" lon="37.3636730">
    <ele>4328.3</ele>
    <time>2026-06-22T10:47:01Z</time>
   </trkpt>
   <trkpt lat="-3.1070490" lon="37.3636770">
    <ele>4328.4</ele>
    <time>2026-06-22T10:47:02Z</time>
   </trkpt>
   <trkpt lat="-3.1070480" lon="37.3636800">
    <ele>4328.4</ele>
    <time>2026-06-22T10:47:03Z</time>
   </trkpt>
   <trkpt lat="-3.1070480" lon="37.3636840">
    <ele>4328.5</ele>
    <time>2026-06-22T10:47:04Z</time>
   </trkpt>
   <trkpt lat="-3.1070490" lon="37.3636890">
    <ele>4328.5</ele>
    <time>2026-06-22T10:47:05Z</time>
   </trkpt>
   <trkpt lat="-3.1070480" lon="37.3636940">
    <ele>4328.6</ele>
    <time>2026-06-22T10:47:06Z</time>
   </trkpt>
   <trkpt lat="-3.1070490" lon="37.3636980">
    <ele>4328.6</ele>
    <time>2026-06-22T10:47:07Z</time>
   </trkpt>
   <trkpt lat="-3.1070480" lon="37.3637030">
    <ele>4328.7</ele>
    <time>2026-06-22T10:47:08Z</time>
   </trkpt>
   <trkpt lat="-3.1070510" lon="37.3637080">
    <ele>4328.7</ele>
    <time>2026-06-22T10:47:09Z</time>
   </trkpt>
   <trkpt lat="-3.1070500" lon="37.3637120">
    <ele>4328.8</ele>
    <time>2026-06-22T10:47:10Z</time>
   </trkpt>
   <trkpt lat="-3.1070500" lon="37.3637150">
    <ele>4328.8</ele>
    <time>2026-06-22T10:47:11Z</time>
   </trkpt>
   <trkpt lat="-3.1070470" lon="37.3637210">
    <ele>4328.9</ele>
    <time>2026-06-22T10:47:12Z</time>
   </trkpt>
   <trkpt lat="-3.1070450" lon="37.3637240">
    <ele>4328.9</ele>
    <time>2026-06-22T10:47:13Z</time>
   </trkpt>
   <trkpt lat="-3.1070520" lon="37.3637240">
    <ele>4329.0</ele>
    <time>2026-06-22T10:47:14Z</time>
   </trkpt>
   <trkpt lat="-3.1070450" lon="37.3637360">
    <ele>4329.1</ele>
    <time>2026-06-22T10:47:15Z</time>
   </trkpt>
   <trkpt lat="-3.1070450" lon="37.3637370">
    <ele>4329.1</ele>
    <time>2026-06-22T10:47:16Z</time>
   </trkpt>
   <trkpt lat="-3.1070440" lon="37.3637440">
    <ele>4329.2</ele>
    <time>2026-06-22T10:47:17Z</time>
   </trkpt>
   <trkpt lat="-3.1070390" lon="37.3637520">
    <ele>4329.3</ele>
    <time>2026-06-22T10:47:18Z</time>
   </trkpt>
   <trkpt lat="-3.1070370" lon="37.3637540">
    <ele>4329.3</ele>
    <time>2026-06-22T10:47:19Z</time>
   </trkpt>
   <trkpt lat="-3.1070320" lon="37.3637590">
    <ele>4329.4</ele>
    <time>2026-06-22T10:47:20Z</time>
   </trkpt>
   <trkpt lat="-3.1070270" lon="37.3637600">
    <ele>4329.4</ele>
    <time>2026-06-22T10:47:21Z</time>
   </trkpt>
   <trkpt lat="-3.1070230" lon="37.3637630">
    <ele>4329.5</ele>
    <time>2026-06-22T10:47:22Z</time>
   </trkpt>
   <trkpt lat="-3.1070220" lon="37.3637660">
    <ele>4329.5</ele>
    <time>2026-06-22T10:47:23Z</time>
   </trkpt>
   <trkpt lat="-3.1070200" lon="37.3637710">
    <ele>4329.5</ele>
    <time>2026-06-22T10:47:24Z</time>
   </trkpt>
   <trkpt lat="-3.1070200" lon="37.3637750">
    <ele>4329.6</ele>
    <time>2026-06-22T10:47:25Z</time>
   </trkpt>
   <trkpt lat="-3.1070210" lon="37.3637780">
    <ele>4329.6</ele>
    <time>2026-06-22T10:47:26Z</time>
   </trkpt>
   <trkpt lat="-3.1070200" lon="37.3637840">
    <ele>4329.7</ele>
    <time>2026-06-22T10:47:27Z</time>
   </trkpt>
   <trkpt lat="-3.1070190" lon="37.3637880">
    <ele>4329.7</ele>
    <time>2026-06-22T10:47:28Z</time>
   </trkpt>
   <trkpt lat="-3.1070210" lon="37.3637920">
    <ele>4329.7</ele>
    <time>2026-06-22T10:47:29Z</time>
   </trkpt>
   <trkpt lat="-3.1070200" lon="37.3637980">
    <ele>4329.8</ele>
    <time>2026-06-22T10:47:30Z</time>
   </trkpt>
   <trkpt lat="-3.1070210" lon="37.3638020">
    <ele>4329.8</ele>
    <time>2026-06-22T10:47:31Z</time>
   </trkpt>
   <trkpt lat="-3.1070180" lon="37.3638080">
    <ele>4329.9</ele>
    <time>2026-06-22T10:47:32Z</time>
   </trkpt>
   <trkpt lat="-3.1070170" lon="37.3638110">
    <ele>4329.9</ele>
    <time>2026-06-22T10:47:33Z</time>
   </trkpt>
   <trkpt lat="-3.1070120" lon="37.3638170">
    <ele>4330.0</ele>
    <time>2026-06-22T10:47:34Z</time>
   </trkpt>
   <trkpt lat="-3.1070110" lon="37.3638210">
    <ele>4330.0</ele>
    <time>2026-06-22T10:47:35Z</time>
   </trkpt>
   <trkpt lat="-3.1070110" lon="37.3638250">
    <ele>4330.1</ele>
    <time>2026-06-22T10:47:36Z</time>
   </trkpt>
   <trkpt lat="-3.1070100" lon="37.3638310">
    <ele>4330.1</ele>
    <time>2026-06-22T10:47:37Z</time>
   </trkpt>
   <trkpt lat="-3.1070070" lon="37.3638370">
    <ele>4330.2</ele>
    <time>2026-06-22T10:47:38Z</time>
   </trkpt>
   <trkpt lat="-3.1070090" lon="37.3638420">
    <ele>4330.2</ele>
    <time>2026-06-22T10:47:39Z</time>
   </trkpt>
   <trkpt lat="-3.1070070" lon="37.3638470">
    <ele>4330.3</ele>
    <time>2026-06-22T10:47:40Z</time>
   </trkpt>
   <trkpt lat="-3.1070070" lon="37.3638530">
    <ele>4330.3</ele>
    <time>2026-06-22T10:47:41Z</time>
   </trkpt>
   <trkpt lat="-3.1070080" lon="37.3638570">
    <ele>4330.3</ele>
    <time>2026-06-22T10:47:42Z</time>
   </trkpt>
   <trkpt lat="-3.1070050" lon="37.3638610">
    <ele>4330.4</ele>
    <time>2026-06-22T10:47:43Z</time>
   </trkpt>
   <trkpt lat="-3.1070030" lon="37.3638650">
    <ele>4330.4</ele>
    <time>2026-06-22T10:47:44Z</time>
   </trkpt>
   <trkpt lat="-3.1070010" lon="37.3638700">
    <ele>4330.5</ele>
    <time>2026-06-22T10:47:45Z</time>
   </trkpt>
   <trkpt lat="-3.1070010" lon="37.3638730">
    <ele>4330.5</ele>
    <time>2026-06-22T10:47:46Z</time>
   </trkpt>
   <trkpt lat="-3.1069980" lon="37.3638780">
    <ele>4330.5</ele>
    <time>2026-06-22T10:47:47Z</time>
   </trkpt>
   <trkpt lat="-3.1069970" lon="37.3638830">
    <ele>4330.6</ele>
    <time>2026-06-22T10:47:48Z</time>
   </trkpt>
   <trkpt lat="-3.1069980" lon="37.3638860">
    <ele>4330.6</ele>
    <time>2026-06-22T10:47:49Z</time>
   </trkpt>
   <trkpt lat="-3.1069970" lon="37.3638930">
    <ele>4330.6</ele>
    <time>2026-06-22T10:47:50Z</time>
   </trkpt>
   <trkpt lat="-3.1069970" lon="37.3638970">
    <ele>4330.7</ele>
    <time>2026-06-22T10:47:51Z</time>
   </trkpt>
   <trkpt lat="-3.1069960" lon="37.3639010">
    <ele>4330.7</ele>
    <time>2026-06-22T10:47:52Z</time>
   </trkpt>
   <trkpt lat="-3.1069930" lon="37.3639050">
    <ele>4330.7</ele>
    <time>2026-06-22T10:47:53Z</time>
   </trkpt>
   <trkpt lat="-3.1069890" lon="37.3639070">
    <ele>4330.8</ele>
    <time>2026-06-22T10:47:54Z</time>
   </trkpt>
   <trkpt lat="-3.1069850" lon="37.3639090">
    <ele>4330.8</ele>
    <time>2026-06-22T10:47:55Z</time>
   </trkpt>
   <trkpt lat="-3.1069800" lon="37.3639080">
    <ele>4330.8</ele>
    <time>2026-06-22T10:47:56Z</time>
   </trkpt>
   <trkpt lat="-3.1069760" lon="37.3639060">
    <ele>4330.9</ele>
    <time>2026-06-22T10:47:57Z</time>
   </trkpt>
   <trkpt lat="-3.1069730" lon="37.3639040">
    <ele>4330.9</ele>
    <time>2026-06-22T10:47:58Z</time>
   </trkpt>
   <trkpt lat="-3.1069680" lon="37.3639020">
    <ele>4330.9</ele>
    <time>2026-06-22T10:47:59Z</time>
   </trkpt>
   <trkpt lat="-3.1069650" lon="37.3639020">
    <ele>4331.0</ele>
    <time>2026-06-22T10:48:00Z</time>
   </trkpt>
   <trkpt lat="-3.1069610" lon="37.3639020">
    <ele>4331.0</ele>
    <time>2026-06-22T10:48:01Z</time>
   </trkpt>
   <trkpt lat="-3.1069570" lon="37.3639030">
    <ele>4331.0</ele>
    <time>2026-06-22T10:48:02Z</time>
   </trkpt>
   <trkpt lat="-3.1069510" lon="37.3639040">
    <ele>4331.0</ele>
    <time>2026-06-22T10:48:03Z</time>
   </trkpt>
   <trkpt lat="-3.1069480" lon="37.3639070">
    <ele>4331.1</ele>
    <time>2026-06-22T10:48:04Z</time>
   </trkpt>
   <trkpt lat="-3.1069440" lon="37.3639090">
    <ele>4331.1</ele>
    <time>2026-06-22T10:48:05Z</time>
   </trkpt>
   <trkpt lat="-3.1069400" lon="37.3639120">
    <ele>4331.1</ele>
    <time>2026-06-22T10:48:06Z</time>
   </trkpt>
   <trkpt lat="-3.1069360" lon="37.3639170">
    <ele>4331.2</ele>
    <time>2026-06-22T10:48:07Z</time>
   </trkpt>
   <trkpt lat="-3.1069340" lon="37.3639210">
    <ele>4331.2</ele>
    <time>2026-06-22T10:48:08Z</time>
   </trkpt>
   <trkpt lat="-3.1069320" lon="37.3639250">
    <ele>4331.2</ele>
    <time>2026-06-22T10:48:09Z</time>
   </trkpt>
   <trkpt lat="-3.1069290" lon="37.3639300">
    <ele>4331.3</ele>
    <time>2026-06-22T10:48:10Z</time>
   </trkpt>
   <trkpt lat="-3.1069270" lon="37.3639340">
    <ele>4331.3</ele>
    <time>2026-06-22T10:48:11Z</time>
   </trkpt>
   <trkpt lat="-3.1069260" lon="37.3639390">
    <ele>4331.3</ele>
    <time>2026-06-22T10:48:12Z</time>
   </trkpt>
   <trkpt lat="-3.1069270" lon="37.3639450">
    <ele>4331.3</ele>
    <time>2026-06-22T10:48:13Z</time>
   </trkpt>
   <trkpt lat="-3.1069250" lon="37.3639500">
    <ele>4331.4</ele>
    <time>2026-06-22T10:48:14Z</time>
   </trkpt>
   <trkpt lat="-3.1069230" lon="37.3639560">
    <ele>4331.4</ele>
    <time>2026-06-22T10:48:15Z</time>
   </trkpt>
   <trkpt lat="-3.1069230" lon="37.3639600">
    <ele>4331.4</ele>
    <time>2026-06-22T10:48:16Z</time>
   </trkpt>
   <trkpt lat="-3.1069230" lon="37.3639660">
    <ele>4331.5</ele>
    <time>2026-06-22T10:48:17Z</time>
   </trkpt>
   <trkpt lat="-3.1069210" lon="37.3639730">
    <ele>4331.5</ele>
    <time>2026-06-22T10:48:18Z</time>
   </trkpt>
   <trkpt lat="-3.1069170" lon="37.3639780">
    <ele>4331.6</ele>
    <time>2026-06-22T10:48:19Z</time>
   </trkpt>
   <trkpt lat="-3.1069170" lon="37.3639810">
    <ele>4331.6</ele>
    <time>2026-06-22T10:48:20Z</time>
   </trkpt>
   <trkpt lat="-3.1069120" lon="37.3639880">
    <ele>4331.6</ele>
    <time>2026-06-22T10:48:21Z</time>
   </trkpt>
   <trkpt lat="-3.1069090" lon="37.3639930">
    <ele>4331.7</ele>
    <time>2026-06-22T10:48:22Z</time>
   </trkpt>
   <trkpt lat="-3.1069050" lon="37.3639970">
    <ele>4331.7</ele>
    <time>2026-06-22T10:48:23Z</time>
   </trkpt>
   <trkpt lat="-3.1069030" lon="37.3640020">
    <ele>4331.7</ele>
    <time>2026-06-22T10:48:24Z</time>
   </trkpt>
   <trkpt lat="-3.1069020" lon="37.3640060">
    <ele>4331.8</ele>
    <time>2026-06-22T10:48:25Z</time>
   </trkpt>
   <trkpt lat="-3.1069000" lon="37.3640130">
    <ele>4331.8</ele>
    <time>2026-06-22T10:48:26Z</time>
   </trkpt>
   <trkpt lat="-3.1068980" lon="37.3640170">
    <ele>4331.8</ele>
    <time>2026-06-22T10:48:27Z</time>
   </trkpt>
   <trkpt lat="-3.1068940" lon="37.3640200">
    <ele>4331.9</ele>
    <time>2026-06-22T10:48:28Z</time>
   </trkpt>
   <trkpt lat="-3.1068920" lon="37.3640230">
    <ele>4331.9</ele>
    <time>2026-06-22T10:48:29Z</time>
   </trkpt>
   <trkpt lat="-3.1068890" lon="37.3640240">
    <ele>4331.9</ele>
    <time>2026-06-22T10:48:30Z</time>
   </trkpt>
   <trkpt lat="-3.1068870" lon="37.3640260">
    <ele>4331.9</ele>
    <time>2026-06-22T10:48:31Z</time>
   </trkpt>
   <trkpt lat="-3.1068830" lon="37.3640290">
    <ele>4331.9</ele>
    <time>2026-06-22T10:48:32Z</time>
   </trkpt>
   <trkpt lat="-3.1068810" lon="37.3640340">
    <ele>4332.0</ele>
    <time>2026-06-22T10:48:33Z</time>
   </trkpt>
   <trkpt lat="-3.1068810" lon="37.3640370">
    <ele>4332.0</ele>
    <time>2026-06-22T10:48:34Z</time>
   </trkpt>
   <trkpt lat="-3.1068810" lon="37.3640440">
    <ele>4332.0</ele>
    <time>2026-06-22T10:48:35Z</time>
   </trkpt>
   <trkpt lat="-3.1068830" lon="37.3640490">
    <ele>4332.1</ele>
    <time>2026-06-22T10:48:36Z</time>
   </trkpt>
   <trkpt lat="-3.1068840" lon="37.3640560">
    <ele>4332.1</ele>
    <time>2026-06-22T10:48:37Z</time>
   </trkpt>
   <trkpt lat="-3.1068860" lon="37.3640590">
    <ele>4332.1</ele>
    <time>2026-06-22T10:48:38Z</time>
   </trkpt>
   <trkpt lat="-3.1068870" lon="37.3640620">
    <ele>4332.2</ele>
    <time>2026-06-22T10:48:39Z</time>
   </trkpt>
   <trkpt lat="-3.1068870" lon="37.3640680">
    <ele>4332.2</ele>
    <time>2026-06-22T10:48:40Z</time>
   </trkpt>
   <trkpt lat="-3.1068850" lon="37.3640720">
    <ele>4332.2</ele>
    <time>2026-06-22T10:48:41Z</time>
   </trkpt>
   <trkpt lat="-3.1068830" lon="37.3640770">
    <ele>4332.3</ele>
    <time>2026-06-22T10:48:42Z</time>
   </trkpt>
   <trkpt lat="-3.1068800" lon="37.3640810">
    <ele>4332.3</ele>
    <time>2026-06-22T10:48:43Z</time>
   </trkpt>
   <trkpt lat="-3.1068780" lon="37.3640840">
    <ele>4332.3</ele>
    <time>2026-06-22T10:48:44Z</time>
   </trkpt>
   <trkpt lat="-3.1068740" lon="37.3640890">
    <ele>4332.4</ele>
    <time>2026-06-22T10:48:45Z</time>
   </trkpt>
   <trkpt lat="-3.1068710" lon="37.3640920">
    <ele>4332.4</ele>
    <time>2026-06-22T10:48:46Z</time>
   </trkpt>
   <trkpt lat="-3.1068690" lon="37.3640950">
    <ele>4332.4</ele>
    <time>2026-06-22T10:48:47Z</time>
   </trkpt>
   <trkpt lat="-3.1068630" lon="37.3641010">
    <ele>4332.5</ele>
    <time>2026-06-22T10:48:48Z</time>
   </trkpt>
   <trkpt lat="-3.1068610" lon="37.3641060">
    <ele>4332.5</ele>
    <time>2026-06-22T10:48:49Z</time>
   </trkpt>
   <trkpt lat="-3.1068590" lon="37.3641110">
    <ele>4332.6</ele>
    <time>2026-06-22T10:48:50Z</time>
   </trkpt>
   <trkpt lat="-3.1068580" lon="37.3641160">
    <ele>4332.6</ele>
    <time>2026-06-22T10:48:51Z</time>
   </trkpt>
   <trkpt lat="-3.1068570" lon="37.3641210">
    <ele>4332.6</ele>
    <time>2026-06-22T10:48:52Z</time>
   </trkpt>
   <trkpt lat="-3.1068580" lon="37.3641270">
    <ele>4332.7</ele>
    <time>2026-06-22T10:48:53Z</time>
   </trkpt>
   <trkpt lat="-3.1068590" lon="37.3641330">
    <ele>4332.7</ele>
    <time>2026-06-22T10:48:54Z</time>
   </trkpt>
   <trkpt lat="-3.1068590" lon="37.3641390">
    <ele>4332.8</ele>
    <time>2026-06-22T10:48:55Z</time>
   </trkpt>
   <trkpt lat="-3.1068610" lon="37.3641440">
    <ele>4332.8</ele>
    <time>2026-06-22T10:48:56Z</time>
   </trkpt>
   <trkpt lat="-3.1068630" lon="37.3641510">
    <ele>4332.9</ele>
    <time>2026-06-22T10:48:57Z</time>
   </trkpt>
   <trkpt lat="-3.1068640" lon="37.3641560">
    <ele>4332.9</ele>
    <time>2026-06-22T10:48:58Z</time>
   </trkpt>
   <trkpt lat="-3.1068650" lon="37.3641610">
    <ele>4333.0</ele>
    <time>2026-06-22T10:48:59Z</time>
   </trkpt>
   <trkpt lat="-3.1068670" lon="37.3641680">
    <ele>4333.0</ele>
    <time>2026-06-22T10:49:00Z</time>
   </trkpt>
   <trkpt lat="-3.1068690" lon="37.3641750">
    <ele>4333.1</ele>
    <time>2026-06-22T10:49:01Z</time>
   </trkpt>
   <trkpt lat="-3.1068700" lon="37.3641820">
    <ele>4333.1</ele>
    <time>2026-06-22T10:49:02Z</time>
   </trkpt>
   <trkpt lat="-3.1068700" lon="37.3641900">
    <ele>4333.2</ele>
    <time>2026-06-22T10:49:03Z</time>
   </trkpt>
   <trkpt lat="-3.1068700" lon="37.3641960">
    <ele>4333.3</ele>
    <time>2026-06-22T10:49:04Z</time>
   </trkpt>
   <trkpt lat="-3.1068690" lon="37.3642030">
    <ele>4333.3</ele>
    <time>2026-06-22T10:49:05Z</time>
   </trkpt>
   <trkpt lat="-3.1068670" lon="37.3642080">
    <ele>4333.4</ele>
    <time>2026-06-22T10:49:06Z</time>
   </trkpt>
   <trkpt lat="-3.1068650" lon="37.3642110">
    <ele>4333.4</ele>
    <time>2026-06-22T10:49:07Z</time>
   </trkpt>
   <trkpt lat="-3.1068620" lon="37.3642160">
    <ele>4333.4</ele>
    <time>2026-06-22T10:49:08Z</time>
   </trkpt>
   <trkpt lat="-3.1068600" lon="37.3642200">
    <ele>4333.5</ele>
    <time>2026-06-22T10:49:09Z</time>
   </trkpt>
   <trkpt lat="-3.1068580" lon="37.3642260">
    <ele>4333.5</ele>
    <time>2026-06-22T10:49:10Z</time>
   </trkpt>
   <trkpt lat="-3.1068570" lon="37.3642320">
    <ele>4333.6</ele>
    <time>2026-06-22T10:49:11Z</time>
   </trkpt>
   <trkpt lat="-3.1068560" lon="37.3642350">
    <ele>4333.6</ele>
    <time>2026-06-22T10:49:12Z</time>
   </trkpt>
   <trkpt lat="-3.1068550" lon="37.3642420">
    <ele>4333.7</ele>
    <time>2026-06-22T10:49:13Z</time>
   </trkpt>
   <trkpt lat="-3.1068560" lon="37.3642490">
    <ele>4333.8</ele>
    <time>2026-06-22T10:49:14Z</time>
   </trkpt>
   <trkpt lat="-3.1068580" lon="37.3642560">
    <ele>4333.8</ele>
    <time>2026-06-22T10:49:15Z</time>
   </trkpt>
   <trkpt lat="-3.1068590" lon="37.3642620">
    <ele>4333.9</ele>
    <time>2026-06-22T10:49:16Z</time>
   </trkpt>
   <trkpt lat="-3.1068600" lon="37.3642690">
    <ele>4333.9</ele>
    <time>2026-06-22T10:49:17Z</time>
   </trkpt>
   <trkpt lat="-3.1068560" lon="37.3642740">
    <ele>4334.0</ele>
    <time>2026-06-22T10:49:18Z</time>
   </trkpt>
   <trkpt lat="-3.1068540" lon="37.3642820">
    <ele>4334.1</ele>
    <time>2026-06-22T10:49:19Z</time>
   </trkpt>
   <trkpt lat="-3.1068540" lon="37.3642870">
    <ele>4334.1</ele>
    <time>2026-06-22T10:49:20Z</time>
   </trkpt>
   <trkpt lat="-3.1068550" lon="37.3642940">
    <ele>4334.2</ele>
    <time>2026-06-22T10:49:21Z</time>
   </trkpt>
   <trkpt lat="-3.1068550" lon="37.3643010">
    <ele>4334.2</ele>
    <time>2026-06-22T10:49:22Z</time>
   </trkpt>
   <trkpt lat="-3.1068550" lon="37.3643050">
    <ele>4334.3</ele>
    <time>2026-06-22T10:49:23Z</time>
   </trkpt>
   <trkpt lat="-3.1068550" lon="37.3643100">
    <ele>4334.3</ele>
    <time>2026-06-22T10:49:24Z</time>
   </trkpt>
   <trkpt lat="-3.1068540" lon="37.3643140">
    <ele>4334.4</ele>
    <time>2026-06-22T10:49:25Z</time>
   </trkpt>
   <trkpt lat="-3.1068530" lon="37.3643190">
    <ele>4334.4</ele>
    <time>2026-06-22T10:49:26Z</time>
   </trkpt>
   <trkpt lat="-3.1068520" lon="37.3643240">
    <ele>4334.5</ele>
    <time>2026-06-22T10:49:27Z</time>
   </trkpt>
   <trkpt lat="-3.1068500" lon="37.3643270">
    <ele>4334.5</ele>
    <time>2026-06-22T10:49:28Z</time>
   </trkpt>
   <trkpt lat="-3.1068490" lon="37.3643330">
    <ele>4334.5</ele>
    <time>2026-06-22T10:49:29Z</time>
   </trkpt>
   <trkpt lat="-3.1068490" lon="37.3643370">
    <ele>4334.6</ele>
    <time>2026-06-22T10:49:30Z</time>
   </trkpt>
   <trkpt lat="-3.1068500" lon="37.3643410">
    <ele>4334.6</ele>
    <time>2026-06-22T10:49:31Z</time>
   </trkpt>
   <trkpt lat="-3.1068480" lon="37.3643460">
    <ele>4334.7</ele>
    <time>2026-06-22T10:49:32Z</time>
   </trkpt>
   <trkpt lat="-3.1068460" lon="37.3643510">
    <ele>4334.7</ele>
    <time>2026-06-22T10:49:33Z</time>
   </trkpt>
   <trkpt lat="-3.1068450" lon="37.3643560">
    <ele>4334.8</ele>
    <time>2026-06-22T10:49:34Z</time>
   </trkpt>
   <trkpt lat="-3.1068450" lon="37.3643620">
    <ele>4334.8</ele>
    <time>2026-06-22T10:49:35Z</time>
   </trkpt>
   <trkpt lat="-3.1068440" lon="37.3643670">
    <ele>4334.9</ele>
    <time>2026-06-22T10:49:36Z</time>
   </trkpt>
   <trkpt lat="-3.1068420" lon="37.3643730">
    <ele>4334.9</ele>
    <time>2026-06-22T10:49:37Z</time>
   </trkpt>
   <trkpt lat="-3.1068400" lon="37.3643780">
    <ele>4335.0</ele>
    <time>2026-06-22T10:49:38Z</time>
   </trkpt>
   <trkpt lat="-3.1068360" lon="37.3643820">
    <ele>4335.0</ele>
    <time>2026-06-22T10:49:39Z</time>
   </trkpt>
   <trkpt lat="-3.1068320" lon="37.3643860">
    <ele>4335.1</ele>
    <time>2026-06-22T10:49:40Z</time>
   </trkpt>
   <trkpt lat="-3.1068280" lon="37.3643900">
    <ele>4335.1</ele>
    <time>2026-06-22T10:49:41Z</time>
   </trkpt>
   <trkpt lat="-3.1068240" lon="37.3643930">
    <ele>4335.2</ele>
    <time>2026-06-22T10:49:42Z</time>
   </trkpt>
   <trkpt lat="-3.1068210" lon="37.3643990">
    <ele>4335.2</ele>
    <time>2026-06-22T10:49:43Z</time>
   </trkpt>
   <trkpt lat="-3.1068210" lon="37.3644020">
    <ele>4335.3</ele>
    <time>2026-06-22T10:49:44Z</time>
   </trkpt>
   <trkpt lat="-3.1068210" lon="37.3644080">
    <ele>4335.3</ele>
    <time>2026-06-22T10:49:45Z</time>
   </trkpt>
   <trkpt lat="-3.1068210" lon="37.3644130">
    <ele>4335.4</ele>
    <time>2026-06-22T10:49:46Z</time>
   </trkpt>
   <trkpt lat="-3.1068200" lon="37.3644180">
    <ele>4335.4</ele>
    <time>2026-06-22T10:49:47Z</time>
   </trkpt>
   <trkpt lat="-3.1068170" lon="37.3644240">
    <ele>4335.5</ele>
    <time>2026-06-22T10:49:48Z</time>
   </trkpt>
   <trkpt lat="-3.1068160" lon="37.3644270">
    <ele>4335.5</ele>
    <time>2026-06-22T10:49:49Z</time>
   </trkpt>
   <trkpt lat="-3.1068100" lon="37.3644310">
    <ele>4335.5</ele>
    <time>2026-06-22T10:49:50Z</time>
   </trkpt>
   <trkpt lat="-3.1068070" lon="37.3644320">
    <ele>4335.6</ele>
    <time>2026-06-22T10:49:51Z</time>
   </trkpt>
   <trkpt lat="-3.1068020" lon="37.3644390">
    <ele>4335.7</ele>
    <time>2026-06-22T10:49:52Z</time>
   </trkpt>
   <trkpt lat="-3.1068010" lon="37.3644430">
    <ele>4335.7</ele>
    <time>2026-06-22T10:49:53Z</time>
   </trkpt>
   <trkpt lat="-3.1068000" lon="37.3644490">
    <ele>4335.7</ele>
    <time>2026-06-22T10:49:54Z</time>
   </trkpt>
   <trkpt lat="-3.1067990" lon="37.3644540">
    <ele>4335.8</ele>
    <time>2026-06-22T10:49:55Z</time>
   </trkpt>
   <trkpt lat="-3.1067960" lon="37.3644590">
    <ele>4335.8</ele>
    <time>2026-06-22T10:49:56Z</time>
   </trkpt>
   <trkpt lat="-3.1067950" lon="37.3644620">
    <ele>4335.9</ele>
    <time>2026-06-22T10:49:57Z</time>
   </trkpt>
   <trkpt lat="-3.1067930" lon="37.3644680">
    <ele>4335.9</ele>
    <time>2026-06-22T10:49:58Z</time>
   </trkpt>
   <trkpt lat="-3.1067910" lon="37.3644710">
    <ele>4335.9</ele>
    <time>2026-06-22T10:49:59Z</time>
   </trkpt>
   <trkpt lat="-3.1067870" lon="37.3644750">
    <ele>4336.0</ele>
    <time>2026-06-22T10:50:00Z</time>
   </trkpt>
   <trkpt lat="-3.1067840" lon="37.3644770">
    <ele>4336.0</ele>
    <time>2026-06-22T10:50:01Z</time>
   </trkpt>
   <trkpt lat="-3.1067810" lon="37.3644790">
    <ele>4336.0</ele>
    <time>2026-06-22T10:50:02Z</time>
   </trkpt>
   <trkpt lat="-3.1067790" lon="37.3644820">
    <ele>4336.1</ele>
    <time>2026-06-22T10:50:03Z</time>
   </trkpt>
   <trkpt lat="-3.1067750" lon="37.3644880">
    <ele>4336.1</ele>
    <time>2026-06-22T10:50:04Z</time>
   </trkpt>
   <trkpt lat="-3.1067730" lon="37.3644900">
    <ele>4336.1</ele>
    <time>2026-06-22T10:50:05Z</time>
   </trkpt>
   <trkpt lat="-3.1067710" lon="37.3644940">
    <ele>4336.2</ele>
    <time>2026-06-22T10:50:06Z</time>
   </trkpt>
   <trkpt lat="-3.1067690" lon="37.3644980">
    <ele>4336.2</ele>
    <time>2026-06-22T10:50:07Z</time>
   </trkpt>
   <trkpt lat="-3.1067690" lon="37.3645020">
    <ele>4336.2</ele>
    <time>2026-06-22T10:50:08Z</time>
   </trkpt>
   <trkpt lat="-3.1067680" lon="37.3645090">
    <ele>4336.3</ele>
    <time>2026-06-22T10:50:09Z</time>
   </trkpt>
   <trkpt lat="-3.1067670" lon="37.3645130">
    <ele>4336.3</ele>
    <time>2026-06-22T10:50:10Z</time>
   </trkpt>
   <trkpt lat="-3.1067660" lon="37.3645160">
    <ele>4336.4</ele>
    <time>2026-06-22T10:50:11Z</time>
   </trkpt>
   <trkpt lat="-3.1067630" lon="37.3645200">
    <ele>4336.4</ele>
    <time>2026-06-22T10:50:12Z</time>
   </trkpt>
   <trkpt lat="-3.1067600" lon="37.3645230">
    <ele>4336.4</ele>
    <time>2026-06-22T10:50:13Z</time>
   </trkpt>
   <trkpt lat="-3.1067550" lon="37.3645280">
    <ele>4336.5</ele>
    <time>2026-06-22T10:50:14Z</time>
   </trkpt>
   <trkpt lat="-3.1067530" lon="37.3645310">
    <ele>4336.5</ele>
    <time>2026-06-22T10:50:15Z</time>
   </trkpt>
   <trkpt lat="-3.1067500" lon="37.3645370">
    <ele>4336.6</ele>
    <time>2026-06-22T10:50:16Z</time>
   </trkpt>
   <trkpt lat="-3.1067500" lon="37.3645410">
    <ele>4336.6</ele>
    <time>2026-06-22T10:50:17Z</time>
   </trkpt>
   <trkpt lat="-3.1067500" lon="37.3645470">
    <ele>4336.6</ele>
    <time>2026-06-22T10:50:18Z</time>
   </trkpt>
   <trkpt lat="-3.1067510" lon="37.3645510">
    <ele>4336.7</ele>
    <time>2026-06-22T10:50:19Z</time>
   </trkpt>
   <trkpt lat="-3.1067500" lon="37.3645580">
    <ele>4336.7</ele>
    <time>2026-06-22T10:50:20Z</time>
   </trkpt>
   <trkpt lat="-3.1067480" lon="37.3645650">
    <ele>4336.8</ele>
    <time>2026-06-22T10:50:21Z</time>
   </trkpt>
   <trkpt lat="-3.1067470" lon="37.3645700">
    <ele>4336.8</ele>
    <time>2026-06-22T10:50:22Z</time>
   </trkpt>
   <trkpt lat="-3.1067450" lon="37.3645760">
    <ele>4336.8</ele>
    <time>2026-06-22T10:50:23Z</time>
   </trkpt>
   <trkpt lat="-3.1067420" lon="37.3645810">
    <ele>4336.9</ele>
    <time>2026-06-22T10:50:24Z</time>
   </trkpt>
   <trkpt lat="-3.1067390" lon="37.3645880">
    <ele>4336.9</ele>
    <time>2026-06-22T10:50:25Z</time>
   </trkpt>
   <trkpt lat="-3.1067400" lon="37.3645900">
    <ele>4337.0</ele>
    <time>2026-06-22T10:50:26Z</time>
   </trkpt>
   <trkpt lat="-3.1067380" lon="37.3645960">
    <ele>4337.0</ele>
    <time>2026-06-22T10:50:27Z</time>
   </trkpt>
   <trkpt lat="-3.1067360" lon="37.3646040">
    <ele>4337.1</ele>
    <time>2026-06-22T10:50:28Z</time>
   </trkpt>
   <trkpt lat="-3.1067330" lon="37.3646060">
    <ele>4337.1</ele>
    <time>2026-06-22T10:50:29Z</time>
   </trkpt>
   <trkpt lat="-3.1067290" lon="37.3646120">
    <ele>4337.1</ele>
    <time>2026-06-22T10:50:30Z</time>
   </trkpt>
   <trkpt lat="-3.1067250" lon="37.3646150">
    <ele>4337.2</ele>
    <time>2026-06-22T10:50:31Z</time>
   </trkpt>
   <trkpt lat="-3.1067240" lon="37.3646160">
    <ele>4337.2</ele>
    <time>2026-06-22T10:50:32Z</time>
   </trkpt>
   <trkpt lat="-3.1067160" lon="37.3646220">
    <ele>4337.3</ele>
    <time>2026-06-22T10:50:33Z</time>
   </trkpt>
   <trkpt lat="-3.1067120" lon="37.3646250">
    <ele>4337.3</ele>
    <time>2026-06-22T10:50:34Z</time>
   </trkpt>
   <trkpt lat="-3.1067110" lon="37.3646300">
    <ele>4337.3</ele>
    <time>2026-06-22T10:50:35Z</time>
   </trkpt>
   <trkpt lat="-3.1067100" lon="37.3646360">
    <ele>4337.4</ele>
    <time>2026-06-22T10:50:36Z</time>
   </trkpt>
   <trkpt lat="-3.1067090" lon="37.3646440">
    <ele>4337.4</ele>
    <time>2026-06-22T10:50:37Z</time>
   </trkpt>
   <trkpt lat="-3.1067100" lon="37.3646490">
    <ele>4337.5</ele>
    <time>2026-06-22T10:50:38Z</time>
   </trkpt>
   <trkpt lat="-3.1067110" lon="37.3646560">
    <ele>4337.5</ele>
    <time>2026-06-22T10:50:39Z</time>
   </trkpt>
   <trkpt lat="-3.1067110" lon="37.3646610">
    <ele>4337.6</ele>
    <time>2026-06-22T10:50:40Z</time>
   </trkpt>
   <trkpt lat="-3.1067110" lon="37.3646670">
    <ele>4337.6</ele>
    <time>2026-06-22T10:50:41Z</time>
   </trkpt>
   <trkpt lat="-3.1067120" lon="37.3646710">
    <ele>4337.6</ele>
    <time>2026-06-22T10:50:42Z</time>
   </trkpt>
   <trkpt lat="-3.1067120" lon="37.3646780">
    <ele>4337.7</ele>
    <time>2026-06-22T10:50:43Z</time>
   </trkpt>
   <trkpt lat="-3.1067120" lon="37.3646820">
    <ele>4337.7</ele>
    <time>2026-06-22T10:50:44Z</time>
   </trkpt>
   <trkpt lat="-3.1067100" lon="37.3646880">
    <ele>4337.7</ele>
    <time>2026-06-22T10:50:45Z</time>
   </trkpt>
   <trkpt lat="-3.1067100" lon="37.3646900">
    <ele>4337.8</ele>
    <time>2026-06-22T10:50:46Z</time>
   </trkpt>
   <trkpt lat="-3.1067070" lon="37.3646980">
    <ele>4337.8</ele>
    <time>2026-06-22T10:50:47Z</time>
   </trkpt>
   <trkpt lat="-3.1067060" lon="37.3647010">
    <ele>4337.8</ele>
    <time>2026-06-22T10:50:48Z</time>
   </trkpt>
   <trkpt lat="-3.1067030" lon="37.3647050">
    <ele>4337.9</ele>
    <time>2026-06-22T10:50:49Z</time>
   </trkpt>
   <trkpt lat="-3.1067000" lon="37.3647060">
    <ele>4337.9</ele>
    <time>2026-06-22T10:50:50Z</time>
   </trkpt>
   <trkpt lat="-3.1067010" lon="37.3647110">
    <ele>4337.9</ele>
    <time>2026-06-22T10:50:51Z</time>
   </trkpt>
   <trkpt lat="-3.1066980" lon="37.3647190">
    <ele>4338.0</ele>
    <time>2026-06-22T10:50:52Z</time>
   </trkpt>
   <trkpt lat="-3.1066940" lon="37.3647220">
    <ele>4338.1</ele>
    <time>2026-06-22T10:50:53Z</time>
   </trkpt>
   <trkpt lat="-3.1066920" lon="37.3647270">
    <ele>4338.2</ele>
    <time>2026-06-22T10:50:54Z</time>
   </trkpt>
   <trkpt lat="-3.1066900" lon="37.3647350">
    <ele>4338.3</ele>
    <time>2026-06-22T10:50:55Z</time>
   </trkpt>
   <trkpt lat="-3.1066910" lon="37.3647370">
    <ele>4338.3</ele>
    <time>2026-06-22T10:50:56Z</time>
   </trkpt>
   <trkpt lat="-3.1066900" lon="37.3647440">
    <ele>4338.4</ele>
    <time>2026-06-22T10:50:57Z</time>
   </trkpt>
   <trkpt lat="-3.1066900" lon="37.3647500">
    <ele>4338.5</ele>
    <time>2026-06-22T10:50:58Z</time>
   </trkpt>
   <trkpt lat="-3.1066920" lon="37.3647550">
    <ele>4338.6</ele>
    <time>2026-06-22T10:50:59Z</time>
   </trkpt>
   <trkpt lat="-3.1066920" lon="37.3647600">
    <ele>4338.6</ele>
    <time>2026-06-22T10:51:00Z</time>
   </trkpt>
   <trkpt lat="-3.1066910" lon="37.3647640">
    <ele>4338.7</ele>
    <time>2026-06-22T10:51:01Z</time>
   </trkpt>
   <trkpt lat="-3.1066900" lon="37.3647700">
    <ele>4338.8</ele>
    <time>2026-06-22T10:51:02Z</time>
   </trkpt>
   <trkpt lat="-3.1066880" lon="37.3647750">
    <ele>4338.8</ele>
    <time>2026-06-22T10:51:03Z</time>
   </trkpt>
   <trkpt lat="-3.1066870" lon="37.3647790">
    <ele>4338.9</ele>
    <time>2026-06-22T10:51:04Z</time>
   </trkpt>
   <trkpt lat="-3.1066820" lon="37.3647850">
    <ele>4339.0</ele>
    <time>2026-06-22T10:51:05Z</time>
   </trkpt>
   <trkpt lat="-3.1066820" lon="37.3647900">
    <ele>4339.1</ele>
    <time>2026-06-22T10:51:06Z</time>
   </trkpt>
   <trkpt lat="-3.1066770" lon="37.3647960">
    <ele>4339.2</ele>
    <time>2026-06-22T10:51:07Z</time>
   </trkpt>
   <trkpt lat="-3.1066760" lon="37.3648010">
    <ele>4339.2</ele>
    <time>2026-06-22T10:51:08Z</time>
   </trkpt>
   <trkpt lat="-3.1066750" lon="37.3648060">
    <ele>4339.3</ele>
    <time>2026-06-22T10:51:09Z</time>
   </trkpt>
   <trkpt lat="-3.1066730" lon="37.3648110">
    <ele>4339.4</ele>
    <time>2026-06-22T10:51:10Z</time>
   </trkpt>
   <trkpt lat="-3.1066720" lon="37.3648160">
    <ele>4339.4</ele>
    <time>2026-06-22T10:51:11Z</time>
   </trkpt>
   <trkpt lat="-3.1066710" lon="37.3648210">
    <ele>4339.5</ele>
    <time>2026-06-22T10:51:12Z</time>
   </trkpt>
   <trkpt lat="-3.1066690" lon="37.3648240">
    <ele>4339.5</ele>
    <time>2026-06-22T10:51:13Z</time>
   </trkpt>
   <trkpt lat="-3.1066670" lon="37.3648270">
    <ele>4339.6</ele>
    <time>2026-06-22T10:51:14Z</time>
   </trkpt>
   <trkpt lat="-3.1066630" lon="37.3648320">
    <ele>4339.7</ele>
    <time>2026-06-22T10:51:15Z</time>
   </trkpt>
   <trkpt lat="-3.1066590" lon="37.3648380">
    <ele>4339.8</ele>
    <time>2026-06-22T10:51:16Z</time>
   </trkpt>
   <trkpt lat="-3.1066570" lon="37.3648440">
    <ele>4339.9</ele>
    <time>2026-06-22T10:51:17Z</time>
   </trkpt>
   <trkpt lat="-3.1066560" lon="37.3648500">
    <ele>4339.9</ele>
    <time>2026-06-22T10:51:18Z</time>
   </trkpt>
   <trkpt lat="-3.1066560" lon="37.3648560">
    <ele>4340.0</ele>
    <time>2026-06-22T10:51:19Z</time>
   </trkpt>
   <trkpt lat="-3.1066550" lon="37.3648630">
    <ele>4340.1</ele>
    <time>2026-06-22T10:51:20Z</time>
   </trkpt>
   <trkpt lat="-3.1066540" lon="37.3648660">
    <ele>4340.1</ele>
    <time>2026-06-22T10:51:21Z</time>
   </trkpt>
   <trkpt lat="-3.1066510" lon="37.3648710">
    <ele>4340.2</ele>
    <time>2026-06-22T10:51:22Z</time>
   </trkpt>
   <trkpt lat="-3.1066500" lon="37.3648750">
    <ele>4340.3</ele>
    <time>2026-06-22T10:51:23Z</time>
   </trkpt>
   <trkpt lat="-3.1066490" lon="37.3648780">
    <ele>4340.3</ele>
    <time>2026-06-22T10:51:24Z</time>
   </trkpt>
   <trkpt lat="-3.1066470" lon="37.3648840">
    <ele>4340.4</ele>
    <time>2026-06-22T10:51:25Z</time>
   </trkpt>
   <trkpt lat="-3.1066460" lon="37.3648880">
    <ele>4340.5</ele>
    <time>2026-06-22T10:51:26Z</time>
   </trkpt>
   <trkpt lat="-3.1066430" lon="37.3648920">
    <ele>4340.5</ele>
    <time>2026-06-22T10:51:27Z</time>
   </trkpt>
   <trkpt lat="-3.1066400" lon="37.3648930">
    <ele>4340.6</ele>
    <time>2026-06-22T10:51:28Z</time>
   </trkpt>
   <trkpt lat="-3.1066360" lon="37.3648970">
    <ele>4340.6</ele>
    <time>2026-06-22T10:51:29Z</time>
   </trkpt>
   <trkpt lat="-3.1066330" lon="37.3649010">
    <ele>4340.7</ele>
    <time>2026-06-22T10:51:30Z</time>
   </trkpt>
   <trkpt lat="-3.1066310" lon="37.3649070">
    <ele>4340.8</ele>
    <time>2026-06-22T10:51:31Z</time>
   </trkpt>
   <trkpt lat="-3.1066280" lon="37.3649130">
    <ele>4340.9</ele>
    <time>2026-06-22T10:51:32Z</time>
   </trkpt>
   <trkpt lat="-3.1066270" lon="37.3649190">
    <ele>4341.0</ele>
    <time>2026-06-22T10:51:33Z</time>
   </trkpt>
   <trkpt lat="-3.1066260" lon="37.3649250">
    <ele>4341.0</ele>
    <time>2026-06-22T10:51:34Z</time>
   </trkpt>
   <trkpt lat="-3.1066250" lon="37.3649300">
    <ele>4341.1</ele>
    <time>2026-06-22T10:51:35Z</time>
   </trkpt>
   <trkpt lat="-3.1066230" lon="37.3649350">
    <ele>4341.2</ele>
    <time>2026-06-22T10:51:36Z</time>
   </trkpt>
   <trkpt lat="-3.1066220" lon="37.3649410">
    <ele>4341.3</ele>
    <time>2026-06-22T10:51:37Z</time>
   </trkpt>
   <trkpt lat="-3.1066220" lon="37.3649480">
    <ele>4341.3</ele>
    <time>2026-06-22T10:51:38Z</time>
   </trkpt>
   <trkpt lat="-3.1066210" lon="37.3649550">
    <ele>4341.4</ele>
    <time>2026-06-22T10:51:39Z</time>
   </trkpt>
   <trkpt lat="-3.1066200" lon="37.3649600">
    <ele>4341.5</ele>
    <time>2026-06-22T10:51:40Z</time>
   </trkpt>
   <trkpt lat="-3.1066160" lon="37.3649650">
    <ele>4341.6</ele>
    <time>2026-06-22T10:51:41Z</time>
   </trkpt>
   <trkpt lat="-3.1066140" lon="37.3649700">
    <ele>4341.7</ele>
    <time>2026-06-22T10:51:42Z</time>
   </trkpt>
   <trkpt lat="-3.1066120" lon="37.3649740">
    <ele>4341.7</ele>
    <time>2026-06-22T10:51:43Z</time>
   </trkpt>
   <trkpt lat="-3.1066100" lon="37.3649780">
    <ele>4341.8</ele>
    <time>2026-06-22T10:51:44Z</time>
   </trkpt>
   <trkpt lat="-3.1066080" lon="37.3649830">
    <ele>4341.8</ele>
    <time>2026-06-22T10:51:45Z</time>
   </trkpt>
   <trkpt lat="-3.1066050" lon="37.3649840">
    <ele>4341.9</ele>
    <time>2026-06-22T10:51:46Z</time>
   </trkpt>
   <trkpt lat="-3.1066010" lon="37.3649860">
    <ele>4341.9</ele>
    <time>2026-06-22T10:51:47Z</time>
   </trkpt>
   <trkpt lat="-3.1065970" lon="37.3649890">
    <ele>4342.0</ele>
    <time>2026-06-22T10:51:48Z</time>
   </trkpt>
   <trkpt lat="-3.1065930" lon="37.3649920">
    <ele>4342.1</ele>
    <time>2026-06-22T10:51:49Z</time>
   </trkpt>
   <trkpt lat="-3.1065900" lon="37.3649970">
    <ele>4342.2</ele>
    <time>2026-06-22T10:51:50Z</time>
   </trkpt>
   <trkpt lat="-3.1065880" lon="37.3650040">
    <ele>4342.3</ele>
    <time>2026-06-22T10:51:51Z</time>
   </trkpt>
   <trkpt lat="-3.1065880" lon="37.3650080">
    <ele>4342.3</ele>
    <time>2026-06-22T10:51:52Z</time>
   </trkpt>
   <trkpt lat="-3.1065870" lon="37.3650140">
    <ele>4342.4</ele>
    <time>2026-06-22T10:51:53Z</time>
   </trkpt>
   <trkpt lat="-3.1065880" lon="37.3650190">
    <ele>4342.4</ele>
    <time>2026-06-22T10:51:54Z</time>
   </trkpt>
   <trkpt lat="-3.1065870" lon="37.3650240">
    <ele>4342.5</ele>
    <time>2026-06-22T10:51:55Z</time>
   </trkpt>
   <trkpt lat="-3.1065850" lon="37.3650290">
    <ele>4342.6</ele>
    <time>2026-06-22T10:51:56Z</time>
   </trkpt>
   <trkpt lat="-3.1065810" lon="37.3650340">
    <ele>4342.7</ele>
    <time>2026-06-22T10:51:57Z</time>
   </trkpt>
   <trkpt lat="-3.1065790" lon="37.3650370">
    <ele>4342.7</ele>
    <time>2026-06-22T10:51:58Z</time>
   </trkpt>
   <trkpt lat="-3.1065760" lon="37.3650420">
    <ele>4342.8</ele>
    <time>2026-06-22T10:51:59Z</time>
   </trkpt>
   <trkpt lat="-3.1065730" lon="37.3650460">
    <ele>4342.8</ele>
    <time>2026-06-22T10:52:00Z</time>
   </trkpt>
   <trkpt lat="-3.1065700" lon="37.3650510">
    <ele>4342.9</ele>
    <time>2026-06-22T10:52:01Z</time>
   </trkpt>
   <trkpt lat="-3.1065660" lon="37.3650550">
    <ele>4343.0</ele>
    <time>2026-06-22T10:52:02Z</time>
   </trkpt>
   <trkpt lat="-3.1065580" lon="37.3650660">
    <ele>4343.1</ele>
    <time>2026-06-22T10:52:03Z</time>
   </trkpt>
   <trkpt lat="-3.1065610" lon="37.3650660">
    <ele>4343.2</ele>
    <time>2026-06-22T10:52:04Z</time>
   </trkpt>
   <trkpt lat="-3.1065590" lon="37.3650720">
    <ele>4343.2</ele>
    <time>2026-06-22T10:52:05Z</time>
   </trkpt>
   <trkpt lat="-3.1065580" lon="37.3650780">
    <ele>4343.3</ele>
    <time>2026-06-22T10:52:06Z</time>
   </trkpt>
   <trkpt lat="-3.1065570" lon="37.3650830">
    <ele>4343.4</ele>
    <time>2026-06-22T10:52:07Z</time>
   </trkpt>
   <trkpt lat="-3.1065570" lon="37.3650880">
    <ele>4343.4</ele>
    <time>2026-06-22T10:52:08Z</time>
   </trkpt>
   <trkpt lat="-3.1065570" lon="37.3650970">
    <ele>4343.5</ele>
    <time>2026-06-22T10:52:09Z</time>
   </trkpt>
   <trkpt lat="-3.1065560" lon="37.3651020">
    <ele>4343.6</ele>
    <time>2026-06-22T10:52:10Z</time>
   </trkpt>
   <trkpt lat="-3.1065530" lon="37.3651060">
    <ele>4343.6</ele>
    <time>2026-06-22T10:52:11Z</time>
   </trkpt>
   <trkpt lat="-3.1065490" lon="37.3651120">
    <ele>4343.7</ele>
    <time>2026-06-22T10:52:12Z</time>
   </trkpt>
   <trkpt lat="-3.1065470" lon="37.3651170">
    <ele>4343.8</ele>
    <time>2026-06-22T10:52:13Z</time>
   </trkpt>
   <trkpt lat="-3.1065450" lon="37.3651210">
    <ele>4343.8</ele>
    <time>2026-06-22T10:52:14Z</time>
   </trkpt>
   <trkpt lat="-3.1065440" lon="37.3651260">
    <ele>4343.9</ele>
    <time>2026-06-22T10:52:15Z</time>
   </trkpt>
   <trkpt lat="-3.1065410" lon="37.3651330">
    <ele>4344.0</ele>
    <time>2026-06-22T10:52:16Z</time>
   </trkpt>
   <trkpt lat="-3.1065390" lon="37.3651380">
    <ele>4344.0</ele>
    <time>2026-06-22T10:52:17Z</time>
   </trkpt>
   <trkpt lat="-3.1065370" lon="37.3651420">
    <ele>4344.1</ele>
    <time>2026-06-22T10:52:18Z</time>
   </trkpt>
   <trkpt lat="-3.1065350" lon="37.3651490">
    <ele>4344.2</ele>
    <time>2026-06-22T10:52:19Z</time>
   </trkpt>
   <trkpt lat="-3.1065310" lon="37.3651560">
    <ele>4344.3</ele>
    <time>2026-06-22T10:52:20Z</time>
   </trkpt>
   <trkpt lat="-3.1065290" lon="37.3651580">
    <ele>4344.3</ele>
    <time>2026-06-22T10:52:21Z</time>
   </trkpt>
   <trkpt lat="-3.1065260" lon="37.3651640">
    <ele>4344.4</ele>
    <time>2026-06-22T10:52:22Z</time>
   </trkpt>
   <trkpt lat="-3.1065230" lon="37.3651670">
    <ele>4344.4</ele>
    <time>2026-06-22T10:52:23Z</time>
   </trkpt>
   <trkpt lat="-3.1065200" lon="37.3651730">
    <ele>4344.5</ele>
    <time>2026-06-22T10:52:24Z</time>
   </trkpt>
   <trkpt lat="-3.1065200" lon="37.3651790">
    <ele>4344.6</ele>
    <time>2026-06-22T10:52:25Z</time>
   </trkpt>
   <trkpt lat="-3.1065190" lon="37.3651870">
    <ele>4344.6</ele>
    <time>2026-06-22T10:52:26Z</time>
   </trkpt>
   <trkpt lat="-3.1065190" lon="37.3651910">
    <ele>4344.7</ele>
    <time>2026-06-22T10:52:27Z</time>
   </trkpt>
   <trkpt lat="-3.1065170" lon="37.3651970">
    <ele>4344.8</ele>
    <time>2026-06-22T10:52:28Z</time>
   </trkpt>
   <trkpt lat="-3.1065130" lon="37.3652040">
    <ele>4344.9</ele>
    <time>2026-06-22T10:52:29Z</time>
   </trkpt>
   <trkpt lat="-3.1065110" lon="37.3652070">
    <ele>4344.9</ele>
    <time>2026-06-22T10:52:30Z</time>
   </trkpt>
   <trkpt lat="-3.1065110" lon="37.3652130">
    <ele>4345.0</ele>
    <time>2026-06-22T10:52:31Z</time>
   </trkpt>
   <trkpt lat="-3.1065100" lon="37.3652190">
    <ele>4345.1</ele>
    <time>2026-06-22T10:52:32Z</time>
   </trkpt>
   <trkpt lat="-3.1065070" lon="37.3652230">
    <ele>4345.1</ele>
    <time>2026-06-22T10:52:33Z</time>
   </trkpt>
   <trkpt lat="-3.1065060" lon="37.3652270">
    <ele>4345.2</ele>
    <time>2026-06-22T10:52:34Z</time>
   </trkpt>
   <trkpt lat="-3.1065030" lon="37.3652300">
    <ele>4345.2</ele>
    <time>2026-06-22T10:52:35Z</time>
   </trkpt>
   <trkpt lat="-3.1064980" lon="37.3652340">
    <ele>4345.3</ele>
    <time>2026-06-22T10:52:36Z</time>
   </trkpt>
   <trkpt lat="-3.1064920" lon="37.3652370">
    <ele>4345.4</ele>
    <time>2026-06-22T10:52:37Z</time>
   </trkpt>
   <trkpt lat="-3.1064890" lon="37.3652390">
    <ele>4345.4</ele>
    <time>2026-06-22T10:52:38Z</time>
   </trkpt>
   <trkpt lat="-3.1064860" lon="37.3652430">
    <ele>4345.5</ele>
    <time>2026-06-22T10:52:39Z</time>
   </trkpt>
   <trkpt lat="-3.1064870" lon="37.3652450">
    <ele>4345.6</ele>
    <time>2026-06-22T10:52:40Z</time>
   </trkpt>
   <trkpt lat="-3.1064860" lon="37.3652500">
    <ele>4345.6</ele>
    <time>2026-06-22T10:52:41Z</time>
   </trkpt>
   <trkpt lat="-3.1064880" lon="37.3652540">
    <ele>4345.7</ele>
    <time>2026-06-22T10:52:42Z</time>
   </trkpt>
   <trkpt lat="-3.1064880" lon="37.3652570">
    <ele>4345.7</ele>
    <time>2026-06-22T10:52:43Z</time>
   </trkpt>
   <trkpt lat="-3.1064900" lon="37.3652610">
    <ele>4345.8</ele>
    <time>2026-06-22T10:52:44Z</time>
   </trkpt>
   <trkpt lat="-3.1064880" lon="37.3652660">
    <ele>4345.9</ele>
    <time>2026-06-22T10:52:45Z</time>
   </trkpt>
   <trkpt lat="-3.1064870" lon="37.3652710">
    <ele>4346.0</ele>
    <time>2026-06-22T10:52:46Z</time>
   </trkpt>
   <trkpt lat="-3.1064840" lon="37.3652740">
    <ele>4346.0</ele>
    <time>2026-06-22T10:52:47Z</time>
   </trkpt>
   <trkpt lat="-3.1064830" lon="37.3652770">
    <ele>4346.1</ele>
    <time>2026-06-22T10:52:48Z</time>
   </trkpt>
   <trkpt lat="-3.1064790" lon="37.3652800">
    <ele>4346.1</ele>
    <time>2026-06-22T10:52:49Z</time>
   </trkpt>
   <trkpt lat="-3.1064740" lon="37.3652840">
    <ele>4346.2</ele>
    <time>2026-06-22T10:52:50Z</time>
   </trkpt>
   <trkpt lat="-3.1064710" lon="37.3652870">
    <ele>4346.3</ele>
    <time>2026-06-22T10:52:51Z</time>
   </trkpt>
   <trkpt lat="-3.1064690" lon="37.3652890">
    <ele>4346.4</ele>
    <time>2026-06-22T10:52:52Z</time>
   </trkpt>
   <trkpt lat="-3.1064630" lon="37.3652900">
    <ele>4346.5</ele>
    <time>2026-06-22T10:52:53Z</time>
   </trkpt>
   <trkpt lat="-3.1064590" lon="37.3652920">
    <ele>4346.5</ele>
    <time>2026-06-22T10:52:54Z</time>
   </trkpt>
   <trkpt lat="-3.1064540" lon="37.3652930">
    <ele>4346.6</ele>
    <time>2026-06-22T10:52:55Z</time>
   </trkpt>
   <trkpt lat="-3.1064510" lon="37.3652930">
    <ele>4346.7</ele>
    <time>2026-06-22T10:52:56Z</time>
   </trkpt>
   <trkpt lat="-3.1064470" lon="37.3652960">
    <ele>4346.8</ele>
    <time>2026-06-22T10:52:57Z</time>
   </trkpt>
   <trkpt lat="-3.1064440" lon="37.3653010">
    <ele>4346.9</ele>
    <time>2026-06-22T10:52:58Z</time>
   </trkpt>
   <trkpt lat="-3.1064430" lon="37.3653060">
    <ele>4346.9</ele>
    <time>2026-06-22T10:52:59Z</time>
   </trkpt>
   <trkpt lat="-3.1064430" lon="37.3653090">
    <ele>4347.0</ele>
    <time>2026-06-22T10:53:00Z</time>
   </trkpt>
   <trkpt lat="-3.1064410" lon="37.3653140">
    <ele>4347.1</ele>
    <time>2026-06-22T10:53:01Z</time>
   </trkpt>
   <trkpt lat="-3.1064390" lon="37.3653180">
    <ele>4347.2</ele>
    <time>2026-06-22T10:53:02Z</time>
   </trkpt>
   <trkpt lat="-3.1064370" lon="37.3653200">
    <ele>4347.2</ele>
    <time>2026-06-22T10:53:03Z</time>
   </trkpt>
   <trkpt lat="-3.1064360" lon="37.3653250">
    <ele>4347.3</ele>
    <time>2026-06-22T10:53:04Z</time>
   </trkpt>
   <trkpt lat="-3.1064360" lon="37.3653270">
    <ele>4347.3</ele>
    <time>2026-06-22T10:53:05Z</time>
   </trkpt>
   <trkpt lat="-3.1064330" lon="37.3653310">
    <ele>4347.4</ele>
    <time>2026-06-22T10:53:06Z</time>
   </trkpt>
   <trkpt lat="-3.1064300" lon="37.3653320">
    <ele>4347.5</ele>
    <time>2026-06-22T10:53:07Z</time>
   </trkpt>
   <trkpt lat="-3.1064260" lon="37.3653330">
    <ele>4347.5</ele>
    <time>2026-06-22T10:53:08Z</time>
   </trkpt>
   <trkpt lat="-3.1064220" lon="37.3653310">
    <ele>4347.6</ele>
    <time>2026-06-22T10:53:09Z</time>
   </trkpt>
   <trkpt lat="-3.1064180" lon="37.3653300">
    <ele>4347.7</ele>
    <time>2026-06-22T10:53:10Z</time>
   </trkpt>
   <trkpt lat="-3.1064140" lon="37.3653310">
    <ele>4347.8</ele>
    <time>2026-06-22T10:53:11Z</time>
   </trkpt>
   <trkpt lat="-3.1064090" lon="37.3653330">
    <ele>4347.8</ele>
    <time>2026-06-22T10:53:12Z</time>
   </trkpt>
   <trkpt lat="-3.1064080" lon="37.3653370">
    <ele>4347.9</ele>
    <time>2026-06-22T10:53:13Z</time>
   </trkpt>
   <trkpt lat="-3.1064030" lon="37.3653430">
    <ele>4348.0</ele>
    <time>2026-06-22T10:53:14Z</time>
   </trkpt>
   <trkpt lat="-3.1064020" lon="37.3653460">
    <ele>4348.1</ele>
    <time>2026-06-22T10:53:15Z</time>
   </trkpt>
   <trkpt lat="-3.1064000" lon="37.3653520">
    <ele>4348.2</ele>
    <time>2026-06-22T10:53:16Z</time>
   </trkpt>
   <trkpt lat="-3.1063980" lon="37.3653550">
    <ele>4348.3</ele>
    <time>2026-06-22T10:53:17Z</time>
   </trkpt>
   <trkpt lat="-3.1063960" lon="37.3653590">
    <ele>4348.3</ele>
    <time>2026-06-22T10:53:18Z</time>
   </trkpt>
   <trkpt lat="-3.1063960" lon="37.3653640">
    <ele>4348.4</ele>
    <time>2026-06-22T10:53:19Z</time>
   </trkpt>
   <trkpt lat="-3.1063920" lon="37.3653680">
    <ele>4348.5</ele>
    <time>2026-06-22T10:53:20Z</time>
   </trkpt>
   <trkpt lat="-3.1063900" lon="37.3653720">
    <ele>4348.6</ele>
    <time>2026-06-22T10:53:21Z</time>
   </trkpt>
   <trkpt lat="-3.1063890" lon="37.3653770">
    <ele>4348.7</ele>
    <time>2026-06-22T10:53:22Z</time>
   </trkpt>
   <trkpt lat="-3.1063890" lon="37.3653840">
    <ele>4348.8</ele>
    <time>2026-06-22T10:53:23Z</time>
   </trkpt>
   <trkpt lat="-3.1063890" lon="37.3653880">
    <ele>4348.9</ele>
    <time>2026-06-22T10:53:24Z</time>
   </trkpt>
   <trkpt lat="-3.1063880" lon="37.3653920">
    <ele>4348.9</ele>
    <time>2026-06-22T10:53:25Z</time>
   </trkpt>
   <trkpt lat="-3.1063860" lon="37.3653970">
    <ele>4349.0</ele>
    <time>2026-06-22T10:53:26Z</time>
   </trkpt>
   <trkpt lat="-3.1063850" lon="37.3654020">
    <ele>4349.1</ele>
    <time>2026-06-22T10:53:27Z</time>
   </trkpt>
   <trkpt lat="-3.1063840" lon="37.3654070">
    <ele>4349.2</ele>
    <time>2026-06-22T10:53:28Z</time>
   </trkpt>
   <trkpt lat="-3.1063850" lon="37.3654130">
    <ele>4349.3</ele>
    <time>2026-06-22T10:53:29Z</time>
   </trkpt>
   <trkpt lat="-3.1063860" lon="37.3654180">
    <ele>4349.4</ele>
    <time>2026-06-22T10:53:30Z</time>
   </trkpt>
   <trkpt lat="-3.1063870" lon="37.3654230">
    <ele>4349.5</ele>
    <time>2026-06-22T10:53:31Z</time>
   </trkpt>
   <trkpt lat="-3.1063860" lon="37.3654300">
    <ele>4349.6</ele>
    <time>2026-06-22T10:53:32Z</time>
   </trkpt>
   <trkpt lat="-3.1063850" lon="37.3654340">
    <ele>4349.7</ele>
    <time>2026-06-22T10:53:33Z</time>
   </trkpt>
   <trkpt lat="-3.1063830" lon="37.3654390">
    <ele>4349.7</ele>
    <time>2026-06-22T10:53:34Z</time>
   </trkpt>
   <trkpt lat="-3.1063810" lon="37.3654420">
    <ele>4349.8</ele>
    <time>2026-06-22T10:53:35Z</time>
   </trkpt>
   <trkpt lat="-3.1063790" lon="37.3654460">
    <ele>4349.9</ele>
    <time>2026-06-22T10:53:36Z</time>
   </trkpt>
   <trkpt lat="-3.1063770" lon="37.3654510">
    <ele>4350.0</ele>
    <time>2026-06-22T10:53:37Z</time>
   </trkpt>
   <trkpt lat="-3.1063760" lon="37.3654550">
    <ele>4350.0</ele>
    <time>2026-06-22T10:53:38Z</time>
   </trkpt>
   <trkpt lat="-3.1063750" lon="37.3654600">
    <ele>4350.1</ele>
    <time>2026-06-22T10:53:39Z</time>
   </trkpt>
   <trkpt lat="-3.1063730" lon="37.3654660">
    <ele>4350.2</ele>
    <time>2026-06-22T10:53:40Z</time>
   </trkpt>
   <trkpt lat="-3.1063720" lon="37.3654700">
    <ele>4350.3</ele>
    <time>2026-06-22T10:53:41Z</time>
   </trkpt>
   <trkpt lat="-3.1063710" lon="37.3654750">
    <ele>4350.3</ele>
    <time>2026-06-22T10:53:42Z</time>
   </trkpt>
   <trkpt lat="-3.1063680" lon="37.3654790">
    <ele>4350.4</ele>
    <time>2026-06-22T10:53:43Z</time>
   </trkpt>
   <trkpt lat="-3.1063660" lon="37.3654830">
    <ele>4350.5</ele>
    <time>2026-06-22T10:53:44Z</time>
   </trkpt>
   <trkpt lat="-3.1063630" lon="37.3654870">
    <ele>4350.6</ele>
    <time>2026-06-22T10:53:45Z</time>
   </trkpt>
   <trkpt lat="-3.1063610" lon="37.3654920">
    <ele>4350.7</ele>
    <time>2026-06-22T10:53:46Z</time>
   </trkpt>
   <trkpt lat="-3.1063580" lon="37.3654980">
    <ele>4350.8</ele>
    <time>2026-06-22T10:53:47Z</time>
   </trkpt>
   <trkpt lat="-3.1063560" lon="37.3655020">
    <ele>4350.8</ele>
    <time>2026-06-22T10:53:48Z</time>
   </trkpt>
   <trkpt lat="-3.1063540" lon="37.3655050">
    <ele>4350.9</ele>
    <time>2026-06-22T10:53:49Z</time>
   </trkpt>
   <trkpt lat="-3.1063530" lon="37.3655090">
    <ele>4350.9</ele>
    <time>2026-06-22T10:53:50Z</time>
   </trkpt>
   <trkpt lat="-3.1063520" lon="37.3655130">
    <ele>4351.0</ele>
    <time>2026-06-22T10:53:51Z</time>
   </trkpt>
   <trkpt lat="-3.1063510" lon="37.3655170">
    <ele>4351.1</ele>
    <time>2026-06-22T10:53:52Z</time>
   </trkpt>
   <trkpt lat="-3.1063490" lon="37.3655220">
    <ele>4351.2</ele>
    <time>2026-06-22T10:53:53Z</time>
   </trkpt>
   <trkpt lat="-3.1063470" lon="37.3655270">
    <ele>4351.2</ele>
    <time>2026-06-22T10:53:54Z</time>
   </trkpt>
   <trkpt lat="-3.1063450" lon="37.3655330">
    <ele>4351.3</ele>
    <time>2026-06-22T10:53:55Z</time>
   </trkpt>
   <trkpt lat="-3.1063420" lon="37.3655390">
    <ele>4351.4</ele>
    <time>2026-06-22T10:53:56Z</time>
   </trkpt>
   <trkpt lat="-3.1063420" lon="37.3655430">
    <ele>4351.5</ele>
    <time>2026-06-22T10:53:57Z</time>
   </trkpt>
   <trkpt lat="-3.1063390" lon="37.3655500">
    <ele>4351.6</ele>
    <time>2026-06-22T10:53:58Z</time>
   </trkpt>
   <trkpt lat="-3.1063380" lon="37.3655560">
    <ele>4351.7</ele>
    <time>2026-06-22T10:53:59Z</time>
   </trkpt>
   <trkpt lat="-3.1063360" lon="37.3655620">
    <ele>4351.8</ele>
    <time>2026-06-22T10:54:00Z</time>
   </trkpt>
   <trkpt lat="-3.1063350" lon="37.3655670">
    <ele>4351.9</ele>
    <time>2026-06-22T10:54:01Z</time>
   </trkpt>
   <trkpt lat="-3.1063330" lon="37.3655710">
    <ele>4352.0</ele>
    <time>2026-06-22T10:54:02Z</time>
   </trkpt>
   <trkpt lat="-3.1063300" lon="37.3655760">
    <ele>4352.1</ele>
    <time>2026-06-22T10:54:03Z</time>
   </trkpt>
   <trkpt lat="-3.1063290" lon="37.3655790">
    <ele>4352.1</ele>
    <time>2026-06-22T10:54:04Z</time>
   </trkpt>
   <trkpt lat="-3.1063260" lon="37.3655820">
    <ele>4352.2</ele>
    <time>2026-06-22T10:54:05Z</time>
   </trkpt>
   <trkpt lat="-3.1063220" lon="37.3655860">
    <ele>4352.3</ele>
    <time>2026-06-22T10:54:06Z</time>
   </trkpt>
   <trkpt lat="-3.1063200" lon="37.3655880">
    <ele>4352.3</ele>
    <time>2026-06-22T10:54:07Z</time>
   </trkpt>
   <trkpt lat="-3.1063170" lon="37.3655930">
    <ele>4352.4</ele>
    <time>2026-06-22T10:54:08Z</time>
   </trkpt>
   <trkpt lat="-3.1063150" lon="37.3655970">
    <ele>4352.5</ele>
    <time>2026-06-22T10:54:09Z</time>
   </trkpt>
   <trkpt lat="-3.1063140" lon="37.3656010">
    <ele>4352.5</ele>
    <time>2026-06-22T10:54:10Z</time>
   </trkpt>
   <trkpt lat="-3.1063130" lon="37.3656080">
    <ele>4352.6</ele>
    <time>2026-06-22T10:54:11Z</time>
   </trkpt>
   <trkpt lat="-3.1063140" lon="37.3656140">
    <ele>4352.7</ele>
    <time>2026-06-22T10:54:12Z</time>
   </trkpt>
   <trkpt lat="-3.1063150" lon="37.3656180">
    <ele>4352.8</ele>
    <time>2026-06-22T10:54:13Z</time>
   </trkpt>
   <trkpt lat="-3.1063170" lon="37.3656210">
    <ele>4352.9</ele>
    <time>2026-06-22T10:54:14Z</time>
   </trkpt>
   <trkpt lat="-3.1063180" lon="37.3656260">
    <ele>4352.9</ele>
    <time>2026-06-22T10:54:15Z</time>
   </trkpt>
   <trkpt lat="-3.1063190" lon="37.3656320">
    <ele>4353.0</ele>
    <time>2026-06-22T10:54:16Z</time>
   </trkpt>
   <trkpt lat="-3.1063190" lon="37.3656360">
    <ele>4353.1</ele>
    <time>2026-06-22T10:54:17Z</time>
   </trkpt>
   <trkpt lat="-3.1063180" lon="37.3656400">
    <ele>4353.2</ele>
    <time>2026-06-22T10:54:18Z</time>
   </trkpt>
   <trkpt lat="-3.1063170" lon="37.3656460">
    <ele>4353.3</ele>
    <time>2026-06-22T10:54:19Z</time>
   </trkpt>
   <trkpt lat="-3.1063150" lon="37.3656500">
    <ele>4353.3</ele>
    <time>2026-06-22T10:54:20Z</time>
   </trkpt>
   <trkpt lat="-3.1063150" lon="37.3656550">
    <ele>4353.4</ele>
    <time>2026-06-22T10:54:21Z</time>
   </trkpt>
   <trkpt lat="-3.1063150" lon="37.3656590">
    <ele>4353.5</ele>
    <time>2026-06-22T10:54:22Z</time>
   </trkpt>
   <trkpt lat="-3.1063170" lon="37.3656640">
    <ele>4353.6</ele>
    <time>2026-06-22T10:54:23Z</time>
   </trkpt>
   <trkpt lat="-3.1063160" lon="37.3656690">
    <ele>4353.7</ele>
    <time>2026-06-22T10:54:24Z</time>
   </trkpt>
   <trkpt lat="-3.1063160" lon="37.3656710">
    <ele>4353.7</ele>
    <time>2026-06-22T10:54:25Z</time>
   </trkpt>
   <trkpt lat="-3.1063130" lon="37.3656750">
    <ele>4353.8</ele>
    <time>2026-06-22T10:54:26Z</time>
   </trkpt>
   <trkpt lat="-3.1063100" lon="37.3656790">
    <ele>4353.9</ele>
    <time>2026-06-22T10:54:27Z</time>
   </trkpt>
   <trkpt lat="-3.1063070" lon="37.3656780">
    <ele>4353.9</ele>
    <time>2026-06-22T10:54:28Z</time>
   </trkpt>
   <trkpt lat="-3.1063020" lon="37.3656820">
    <ele>4354.0</ele>
    <time>2026-06-22T10:54:29Z</time>
   </trkpt>
   <trkpt lat="-3.1063000" lon="37.3656840">
    <ele>4354.1</ele>
    <time>2026-06-22T10:54:30Z</time>
   </trkpt>
   <trkpt lat="-3.1062970" lon="37.3656880">
    <ele>4354.2</ele>
    <time>2026-06-22T10:54:31Z</time>
   </trkpt>
   <trkpt lat="-3.1062920" lon="37.3656900">
    <ele>4354.3</ele>
    <time>2026-06-22T10:54:32Z</time>
   </trkpt>
   <trkpt lat="-3.1062890" lon="37.3656920">
    <ele>4354.3</ele>
    <time>2026-06-22T10:54:33Z</time>
   </trkpt>
   <trkpt lat="-3.1062870" lon="37.3656940">
    <ele>4354.4</ele>
    <time>2026-06-22T10:54:34Z</time>
   </trkpt>
   <trkpt lat="-3.1062850" lon="37.3656980">
    <ele>4354.5</ele>
    <time>2026-06-22T10:54:35Z</time>
   </trkpt>
   <trkpt lat="-3.1062840" lon="37.3657000">
    <ele>4354.5</ele>
    <time>2026-06-22T10:54:36Z</time>
   </trkpt>
   <trkpt lat="-3.1062830" lon="37.3657040">
    <ele>4354.6</ele>
    <time>2026-06-22T10:54:37Z</time>
   </trkpt>
   <trkpt lat="-3.1062810" lon="37.3657070">
    <ele>4354.6</ele>
    <time>2026-06-22T10:54:38Z</time>
   </trkpt>
   <trkpt lat="-3.1062780" lon="37.3657090">
    <ele>4354.7</ele>
    <time>2026-06-22T10:54:39Z</time>
   </trkpt>
   <trkpt lat="-3.1062750" lon="37.3657110">
    <ele>4354.8</ele>
    <time>2026-06-22T10:54:40Z</time>
   </trkpt>
   <trkpt lat="-3.1062720" lon="37.3657120">
    <ele>4354.8</ele>
    <time>2026-06-22T10:54:41Z</time>
   </trkpt>
   <trkpt lat="-3.1062690" lon="37.3657130">
    <ele>4354.9</ele>
    <time>2026-06-22T10:54:42Z</time>
   </trkpt>
   <trkpt lat="-3.1062660" lon="37.3657130">
    <ele>4354.9</ele>
    <time>2026-06-22T10:54:43Z</time>
   </trkpt>
   <trkpt lat="-3.1062630" lon="37.3657140">
    <ele>4355.0</ele>
    <time>2026-06-22T10:54:44Z</time>
   </trkpt>
   <trkpt lat="-3.1062600" lon="37.3657130">
    <ele>4355.1</ele>
    <time>2026-06-22T10:54:45Z</time>
   </trkpt>
   <trkpt lat="-3.1062560" lon="37.3657150">
    <ele>4355.2</ele>
    <time>2026-06-22T10:54:46Z</time>
   </trkpt>
   <trkpt lat="-3.1062520" lon="37.3657150">
    <ele>4355.2</ele>
    <time>2026-06-22T10:54:47Z</time>
   </trkpt>
   <trkpt lat="-3.1062500" lon="37.3657170">
    <ele>4355.3</ele>
    <time>2026-06-22T10:54:48Z</time>
   </trkpt>
   <trkpt lat="-3.1062450" lon="37.3657190">
    <ele>4355.4</ele>
    <time>2026-06-22T10:54:49Z</time>
   </trkpt>
   <trkpt lat="-3.1062420" lon="37.3657180">
    <ele>4355.5</ele>
    <time>2026-06-22T10:54:50Z</time>
   </trkpt>
   <trkpt lat="-3.1062380" lon="37.3657160">
    <ele>4355.6</ele>
    <time>2026-06-22T10:54:51Z</time>
   </trkpt>
   <trkpt lat="-3.1062330" lon="37.3657150">
    <ele>4355.7</ele>
    <time>2026-06-22T10:54:52Z</time>
   </trkpt>
   <trkpt lat="-3.1062300" lon="37.3657160">
    <ele>4355.7</ele>
    <time>2026-06-22T10:54:53Z</time>
   </trkpt>
   <trkpt lat="-3.1062260" lon="37.3657170">
    <ele>4355.8</ele>
    <time>2026-06-22T10:54:54Z</time>
   </trkpt>
   <trkpt lat="-3.1062230" lon="37.3657190">
    <ele>4355.9</ele>
    <time>2026-06-22T10:54:55Z</time>
   </trkpt>
   <trkpt lat="-3.1062190" lon="37.3657180">
    <ele>4356.0</ele>
    <time>2026-06-22T10:54:56Z</time>
   </trkpt>
   <trkpt lat="-3.1062160" lon="37.3657190">
    <ele>4356.0</ele>
    <time>2026-06-22T10:54:57Z</time>
   </trkpt>
   <trkpt lat="-3.1062120" lon="37.3657180">
    <ele>4356.1</ele>
    <time>2026-06-22T10:54:58Z</time>
   </trkpt>
   <trkpt lat="-3.1062080" lon="37.3657200">
    <ele>4356.2</ele>
    <time>2026-06-22T10:54:59Z</time>
   </trkpt>
   <trkpt lat="-3.1062040" lon="37.3657210">
    <ele>4356.3</ele>
    <time>2026-06-22T10:55:00Z</time>
   </trkpt>
   <trkpt lat="-3.1061990" lon="37.3657210">
    <ele>4356.4</ele>
    <time>2026-06-22T10:55:01Z</time>
   </trkpt>
   <trkpt lat="-3.1061950" lon="37.3657210">
    <ele>4356.5</ele>
    <time>2026-06-22T10:55:02Z</time>
   </trkpt>
   <trkpt lat="-3.1061920" lon="37.3657230">
    <ele>4356.6</ele>
    <time>2026-06-22T10:55:03Z</time>
   </trkpt>
   <trkpt lat="-3.1061880" lon="37.3657260">
    <ele>4356.7</ele>
    <time>2026-06-22T10:55:04Z</time>
   </trkpt>
   <trkpt lat="-3.1061860" lon="37.3657300">
    <ele>4356.8</ele>
    <time>2026-06-22T10:55:05Z</time>
   </trkpt>
   <trkpt lat="-3.1061820" lon="37.3657300">
    <ele>4356.9</ele>
    <time>2026-06-22T10:55:06Z</time>
   </trkpt>
   <trkpt lat="-3.1061790" lon="37.3657330">
    <ele>4357.0</ele>
    <time>2026-06-22T10:55:07Z</time>
   </trkpt>
   <trkpt lat="-3.1061770" lon="37.3657370">
    <ele>4357.1</ele>
    <time>2026-06-22T10:55:08Z</time>
   </trkpt>
   <trkpt lat="-3.1061750" lon="37.3657390">
    <ele>4357.1</ele>
    <time>2026-06-22T10:55:09Z</time>
   </trkpt>
   <trkpt lat="-3.1061730" lon="37.3657440">
    <ele>4357.2</ele>
    <time>2026-06-22T10:55:10Z</time>
   </trkpt>
   <trkpt lat="-3.1061710" lon="37.3657470">
    <ele>4357.3</ele>
    <time>2026-06-22T10:55:11Z</time>
   </trkpt>
   <trkpt lat="-3.1061680" lon="37.3657520">
    <ele>4357.5</ele>
    <time>2026-06-22T10:55:12Z</time>
   </trkpt>
   <trkpt lat="-3.1061670" lon="37.3657550">
    <ele>4357.5</ele>
    <time>2026-06-22T10:55:13Z</time>
   </trkpt>
   <trkpt lat="-3.1061650" lon="37.3657590">
    <ele>4357.6</ele>
    <time>2026-06-22T10:55:14Z</time>
   </trkpt>
   <trkpt lat="-3.1061630" lon="37.3657640">
    <ele>4357.7</ele>
    <time>2026-06-22T10:55:15Z</time>
   </trkpt>
   <trkpt lat="-3.1061610" lon="37.3657680">
    <ele>4357.8</ele>
    <time>2026-06-22T10:55:16Z</time>
   </trkpt>
   <trkpt lat="-3.1061600" lon="37.3657710">
    <ele>4357.9</ele>
    <time>2026-06-22T10:55:17Z</time>
   </trkpt>
   <trkpt lat="-3.1061580" lon="37.3657760">
    <ele>4358.0</ele>
    <time>2026-06-22T10:55:18Z</time>
   </trkpt>
   <trkpt lat="-3.1061560" lon="37.3657780">
    <ele>4358.1</ele>
    <time>2026-06-22T10:55:19Z</time>
   </trkpt>
   <trkpt lat="-3.1061550" lon="37.3657820">
    <ele>4358.2</ele>
    <time>2026-06-22T10:55:20Z</time>
   </trkpt>
   <trkpt lat="-3.1061550" lon="37.3657860">
    <ele>4358.3</ele>
    <time>2026-06-22T10:55:21Z</time>
   </trkpt>
   <trkpt lat="-3.1061550" lon="37.3657900">
    <ele>4358.4</ele>
    <time>2026-06-22T10:55:22Z</time>
   </trkpt>
   <trkpt lat="-3.1061550" lon="37.3657970">
    <ele>4358.5</ele>
    <time>2026-06-22T10:55:23Z</time>
   </trkpt>
   <trkpt lat="-3.1061540" lon="37.3658000">
    <ele>4358.6</ele>
    <time>2026-06-22T10:55:24Z</time>
   </trkpt>
   <trkpt lat="-3.1061530" lon="37.3658050">
    <ele>4358.7</ele>
    <time>2026-06-22T10:55:25Z</time>
   </trkpt>
   <trkpt lat="-3.1061530" lon="37.3658070">
    <ele>4358.7</ele>
    <time>2026-06-22T10:55:26Z</time>
   </trkpt>
   <trkpt lat="-3.1061520" lon="37.3658120">
    <ele>4358.8</ele>
    <time>2026-06-22T10:55:27Z</time>
   </trkpt>
   <trkpt lat="-3.1061510" lon="37.3658150">
    <ele>4358.9</ele>
    <time>2026-06-22T10:55:28Z</time>
   </trkpt>
   <trkpt lat="-3.1061500" lon="37.3658200">
    <ele>4359.0</ele>
    <time>2026-06-22T10:55:29Z</time>
   </trkpt>
   <trkpt lat="-3.1061460" lon="37.3658240">
    <ele>4359.2</ele>
    <time>2026-06-22T10:55:30Z</time>
   </trkpt>
   <trkpt lat="-3.1061410" lon="37.3658270">
    <ele>4359.3</ele>
    <time>2026-06-22T10:55:31Z</time>
   </trkpt>
   <trkpt lat="-3.1061380" lon="37.3658290">
    <ele>4359.4</ele>
    <time>2026-06-22T10:55:32Z</time>
   </trkpt>
   <trkpt lat="-3.1061340" lon="37.3658340">
    <ele>4359.5</ele>
    <time>2026-06-22T10:55:33Z</time>
   </trkpt>
   <trkpt lat="-3.1061330" lon="37.3658370">
    <ele>4359.6</ele>
    <time>2026-06-22T10:55:34Z</time>
   </trkpt>
   <trkpt lat="-3.1061330" lon="37.3658400">
    <ele>4359.6</ele>
    <time>2026-06-22T10:55:35Z</time>
   </trkpt>
   <trkpt lat="-3.1061330" lon="37.3658440">
    <ele>4359.7</ele>
    <time>2026-06-22T10:55:36Z</time>
   </trkpt>
   <trkpt lat="-3.1061350" lon="37.3658510">
    <ele>4359.9</ele>
    <time>2026-06-22T10:55:37Z</time>
   </trkpt>
   <trkpt lat="-3.1061350" lon="37.3658550">
    <ele>4360.0</ele>
    <time>2026-06-22T10:55:38Z</time>
   </trkpt>
   <trkpt lat="-3.1061350" lon="37.3658570">
    <ele>4360.0</ele>
    <time>2026-06-22T10:55:39Z</time>
   </trkpt>
   <trkpt lat="-3.1061340" lon="37.3658610">
    <ele>4360.1</ele>
    <time>2026-06-22T10:55:40Z</time>
   </trkpt>
   <trkpt lat="-3.1061330" lon="37.3658620">
    <ele>4360.1</ele>
    <time>2026-06-22T10:55:41Z</time>
   </trkpt>
   <trkpt lat="-3.1061310" lon="37.3658660">
    <ele>4360.2</ele>
    <time>2026-06-22T10:55:42Z</time>
   </trkpt>
   <trkpt lat="-3.1061290" lon="37.3658670">
    <ele>4360.3</ele>
    <time>2026-06-22T10:55:43Z</time>
   </trkpt>
   <trkpt lat="-3.1061270" lon="37.3658720">
    <ele>4360.4</ele>
    <time>2026-06-22T10:55:44Z</time>
   </trkpt>
   <trkpt lat="-3.1061230" lon="37.3658730">
    <ele>4360.5</ele>
    <time>2026-06-22T10:55:45Z</time>
   </trkpt>
   <trkpt lat="-3.1061210" lon="37.3658750">
    <ele>4360.6</ele>
    <time>2026-06-22T10:55:46Z</time>
   </trkpt>
   <trkpt lat="-3.1061180" lon="37.3658770">
    <ele>4360.6</ele>
    <time>2026-06-22T10:55:47Z</time>
   </trkpt>
   <trkpt lat="-3.1061170" lon="37.3658820">
    <ele>4360.8</ele>
    <time>2026-06-22T10:55:48Z</time>
   </trkpt>
   <trkpt lat="-3.1061160" lon="37.3658850">
    <ele>4360.8</ele>
    <time>2026-06-22T10:55:49Z</time>
   </trkpt>
   <trkpt lat="-3.1061150" lon="37.3658880">
    <ele>4360.9</ele>
    <time>2026-06-22T10:55:50Z</time>
   </trkpt>
   <trkpt lat="-3.1061130" lon="37.3658920">
    <ele>4361.0</ele>
    <time>2026-06-22T10:55:51Z</time>
   </trkpt>
   <trkpt lat="-3.1061100" lon="37.3658950">
    <ele>4361.1</ele>
    <time>2026-06-22T10:55:52Z</time>
   </trkpt>
   <trkpt lat="-3.1061070" lon="37.3658960">
    <ele>4361.2</ele>
    <time>2026-06-22T10:55:53Z</time>
   </trkpt>
   <trkpt lat="-3.1061030" lon="37.3658970">
    <ele>4361.2</ele>
    <time>2026-06-22T10:55:54Z</time>
   </trkpt>
   <trkpt lat="-3.1060990" lon="37.3658980">
    <ele>4361.3</ele>
    <time>2026-06-22T10:55:55Z</time>
   </trkpt>
   <trkpt lat="-3.1060950" lon="37.3658980">
    <ele>4361.4</ele>
    <time>2026-06-22T10:55:56Z</time>
   </trkpt>
   <trkpt lat="-3.1060910" lon="37.3658990">
    <ele>4361.5</ele>
    <time>2026-06-22T10:55:57Z</time>
   </trkpt>
   <trkpt lat="-3.1060900" lon="37.3659030">
    <ele>4361.6</ele>
    <time>2026-06-22T10:55:58Z</time>
   </trkpt>
   <trkpt lat="-3.1060890" lon="37.3658990">
    <ele>4361.7</ele>
    <time>2026-06-22T10:55:59Z</time>
   </trkpt>
   <trkpt lat="-3.1060850" lon="37.3659080">
    <ele>4361.9</ele>
    <time>2026-06-22T10:56:00Z</time>
   </trkpt>
   <trkpt lat="-3.1060790" lon="37.3659150">
    <ele>4362.1</ele>
    <time>2026-06-22T10:56:01Z</time>
   </trkpt>
   <trkpt lat="-3.1060830" lon="37.3659150">
    <ele>4362.2</ele>
    <time>2026-06-22T10:56:02Z</time>
   </trkpt>
   <trkpt lat="-3.1060810" lon="37.3659200">
    <ele>4362.3</ele>
    <time>2026-06-22T10:56:03Z</time>
   </trkpt>
   <trkpt lat="-3.1060800" lon="37.3659240">
    <ele>4362.4</ele>
    <time>2026-06-22T10:56:04Z</time>
   </trkpt>
   <trkpt lat="-3.1060790" lon="37.3659270">
    <ele>4362.5</ele>
    <time>2026-06-22T10:56:05Z</time>
   </trkpt>
   <trkpt lat="-3.1060760" lon="37.3659330">
    <ele>4362.7</ele>
    <time>2026-06-22T10:56:06Z</time>
   </trkpt>
   <trkpt lat="-3.1060750" lon="37.3659340">
    <ele>4362.7</ele>
    <time>2026-06-22T10:56:07Z</time>
   </trkpt>
   <trkpt lat="-3.1060720" lon="37.3659390">
    <ele>4362.8</ele>
    <time>2026-06-22T10:56:08Z</time>
   </trkpt>
   <trkpt lat="-3.1060700" lon="37.3659400">
    <ele>4362.9</ele>
    <time>2026-06-22T10:56:09Z</time>
   </trkpt>
   <trkpt lat="-3.1060670" lon="37.3659430">
    <ele>4363.0</ele>
    <time>2026-06-22T10:56:10Z</time>
   </trkpt>
   <trkpt lat="-3.1060660" lon="37.3659460">
    <ele>4363.1</ele>
    <time>2026-06-22T10:56:11Z</time>
   </trkpt>
   <trkpt lat="-3.1060640" lon="37.3659500">
    <ele>4363.2</ele>
    <time>2026-06-22T10:56:12Z</time>
   </trkpt>
   <trkpt lat="-3.1060620" lon="37.3659540">
    <ele>4363.3</ele>
    <time>2026-06-22T10:56:13Z</time>
   </trkpt>
   <trkpt lat="-3.1060620" lon="37.3659580">
    <ele>4363.4</ele>
    <time>2026-06-22T10:56:14Z</time>
   </trkpt>
   <trkpt lat="-3.1060620" lon="37.3659610">
    <ele>4363.4</ele>
    <time>2026-06-22T10:56:15Z</time>
   </trkpt>
   <trkpt lat="-3.1060640" lon="37.3659650">
    <ele>4363.5</ele>
    <time>2026-06-22T10:56:16Z</time>
   </trkpt>
   <trkpt lat="-3.1060640" lon="37.3659700">
    <ele>4363.7</ele>
    <time>2026-06-22T10:56:17Z</time>
   </trkpt>
   <trkpt lat="-3.1060630" lon="37.3659740">
    <ele>4363.8</ele>
    <time>2026-06-22T10:56:18Z</time>
   </trkpt>
   <trkpt lat="-3.1060630" lon="37.3659770">
    <ele>4363.8</ele>
    <time>2026-06-22T10:56:19Z</time>
   </trkpt>
   <trkpt lat="-3.1060620" lon="37.3659800">
    <ele>4363.9</ele>
    <time>2026-06-22T10:56:20Z</time>
   </trkpt>
   <trkpt lat="-3.1060610" lon="37.3659840">
    <ele>4364.0</ele>
    <time>2026-06-22T10:56:21Z</time>
   </trkpt>
   <trkpt lat="-3.1060590" lon="37.3659890">
    <ele>4364.1</ele>
    <time>2026-06-22T10:56:22Z</time>
   </trkpt>
   <trkpt lat="-3.1060570" lon="37.3659910">
    <ele>4364.2</ele>
    <time>2026-06-22T10:56:23Z</time>
   </trkpt>
   <trkpt lat="-3.1060540" lon="37.3659940">
    <ele>4364.3</ele>
    <time>2026-06-22T10:56:24Z</time>
   </trkpt>
   <trkpt lat="-3.1060520" lon="37.3659970">
    <ele>4364.4</ele>
    <time>2026-06-22T10:56:25Z</time>
   </trkpt>
   <trkpt lat="-3.1060490" lon="37.3659990">
    <ele>4364.5</ele>
    <time>2026-06-22T10:56:26Z</time>
   </trkpt>
   <trkpt lat="-3.1060470" lon="37.3660020">
    <ele>4364.5</ele>
    <time>2026-06-22T10:56:27Z</time>
   </trkpt>
   <trkpt lat="-3.1060450" lon="37.3660040">
    <ele>4364.6</ele>
    <time>2026-06-22T10:56:28Z</time>
   </trkpt>
   <trkpt lat="-3.1060410" lon="37.3660050">
    <ele>4364.7</ele>
    <time>2026-06-22T10:56:29Z</time>
   </trkpt>
   <trkpt lat="-3.1060380" lon="37.3660040">
    <ele>4364.8</ele>
    <time>2026-06-22T10:56:30Z</time>
   </trkpt>
   <trkpt lat="-3.1060350" lon="37.3660060">
    <ele>4364.9</ele>
    <time>2026-06-22T10:56:31Z</time>
   </trkpt>
   <trkpt lat="-3.1060320" lon="37.3660070">
    <ele>4364.9</ele>
    <time>2026-06-22T10:56:32Z</time>
   </trkpt>
   <trkpt lat="-3.1060290" lon="37.3660090">
    <ele>4365.0</ele>
    <time>2026-06-22T10:56:33Z</time>
   </trkpt>
   <trkpt lat="-3.1060260" lon="37.3660120">
    <ele>4365.1</ele>
    <time>2026-06-22T10:56:34Z</time>
   </trkpt>
   <trkpt lat="-3.1060240" lon="37.3660140">
    <ele>4365.2</ele>
    <time>2026-06-22T10:56:35Z</time>
   </trkpt>
   <trkpt lat="-3.1060210" lon="37.3660180">
    <ele>4365.3</ele>
    <time>2026-06-22T10:56:36Z</time>
   </trkpt>
   <trkpt lat="-3.1060190" lon="37.3660210">
    <ele>4365.4</ele>
    <time>2026-06-22T10:56:37Z</time>
   </trkpt>
   <trkpt lat="-3.1060160" lon="37.3660240">
    <ele>4365.5</ele>
    <time>2026-06-22T10:56:38Z</time>
   </trkpt>
   <trkpt lat="-3.1060150" lon="37.3660270">
    <ele>4365.6</ele>
    <time>2026-06-22T10:56:39Z</time>
   </trkpt>
   <trkpt lat="-3.1060110" lon="37.3660300">
    <ele>4365.7</ele>
    <time>2026-06-22T10:56:40Z</time>
   </trkpt>
   <trkpt lat="-3.1060090" lon="37.3660320">
    <ele>4365.7</ele>
    <time>2026-06-22T10:56:41Z</time>
   </trkpt>
   <trkpt lat="-3.1060060" lon="37.3660350">
    <ele>4365.8</ele>
    <time>2026-06-22T10:56:42Z</time>
   </trkpt>
   <trkpt lat="-3.1060040" lon="37.3660380">
    <ele>4365.9</ele>
    <time>2026-06-22T10:56:43Z</time>
   </trkpt>
   <trkpt lat="-3.1060020" lon="37.3660400">
    <ele>4366.0</ele>
    <time>2026-06-22T10:56:44Z</time>
   </trkpt>
   <trkpt lat="-3.1059990" lon="37.3660440">
    <ele>4366.1</ele>
    <time>2026-06-22T10:56:45Z</time>
   </trkpt>
   <trkpt lat="-3.1059970" lon="37.3660440">
    <ele>4366.2</ele>
    <time>2026-06-22T10:56:46Z</time>
   </trkpt>
   <trkpt lat="-3.1059950" lon="37.3660460">
    <ele>4366.2</ele>
    <time>2026-06-22T10:56:47Z</time>
   </trkpt>
   <trkpt lat="-3.1059920" lon="37.3660490">
    <ele>4366.3</ele>
    <time>2026-06-22T10:56:48Z</time>
   </trkpt>
   <trkpt lat="-3.1059900" lon="37.3660510">
    <ele>4366.4</ele>
    <time>2026-06-22T10:56:49Z</time>
   </trkpt>
   <trkpt lat="-3.1059870" lon="37.3660530">
    <ele>4366.5</ele>
    <time>2026-06-22T10:56:50Z</time>
   </trkpt>
   <trkpt lat="-3.1059860" lon="37.3660560">
    <ele>4366.6</ele>
    <time>2026-06-22T10:56:51Z</time>
   </trkpt>
   <trkpt lat="-3.1059840" lon="37.3660590">
    <ele>4366.7</ele>
    <time>2026-06-22T10:56:52Z</time>
   </trkpt>
   <trkpt lat="-3.1059830" lon="37.3660650">
    <ele>4366.8</ele>
    <time>2026-06-22T10:56:53Z</time>
   </trkpt>
   <trkpt lat="-3.1059820" lon="37.3660680">
    <ele>4366.9</ele>
    <time>2026-06-22T10:56:54Z</time>
   </trkpt>
   <trkpt lat="-3.1059820" lon="37.3660710">
    <ele>4367.0</ele>
    <time>2026-06-22T10:56:55Z</time>
   </trkpt>
   <trkpt lat="-3.1059810" lon="37.3660740">
    <ele>4367.0</ele>
    <time>2026-06-22T10:56:56Z</time>
   </trkpt>
   <trkpt lat="-3.1059790" lon="37.3660770">
    <ele>4367.1</ele>
    <time>2026-06-22T10:56:57Z</time>
   </trkpt>
   <trkpt lat="-3.1059760" lon="37.3660800">
    <ele>4367.2</ele>
    <time>2026-06-22T10:56:58Z</time>
   </trkpt>
   <trkpt lat="-3.1059740" lon="37.3660830">
    <ele>4367.3</ele>
    <time>2026-06-22T10:56:59Z</time>
   </trkpt>
   <trkpt lat="-3.1059700" lon="37.3660880">
    <ele>4367.5</ele>
    <time>2026-06-22T10:57:00Z</time>
   </trkpt>
   <trkpt lat="-3.1059680" lon="37.3660890">
    <ele>4367.5</ele>
    <time>2026-06-22T10:57:01Z</time>
   </trkpt>
   <trkpt lat="-3.1059660" lon="37.3660900">
    <ele>4367.6</ele>
    <time>2026-06-22T10:57:02Z</time>
   </trkpt>
   <trkpt lat="-3.1059630" lon="37.3660940">
    <ele>4367.7</ele>
    <time>2026-06-22T10:57:03Z</time>
   </trkpt>
   <trkpt lat="-3.1059580" lon="37.3660980">
    <ele>4367.9</ele>
    <time>2026-06-22T10:57:04Z</time>
   </trkpt>
   <trkpt lat="-3.1059520" lon="37.3660990">
    <ele>4368.0</ele>
    <time>2026-06-22T10:57:05Z</time>
   </trkpt>
   <trkpt lat="-3.1059510" lon="37.3661010">
    <ele>4368.1</ele>
    <time>2026-06-22T10:57:06Z</time>
   </trkpt>
   <trkpt lat="-3.1059450" lon="37.3661010">
    <ele>4368.2</ele>
    <time>2026-06-22T10:57:07Z</time>
   </trkpt>
   <trkpt lat="-3.1059420" lon="37.3661020">
    <ele>4368.3</ele>
    <time>2026-06-22T10:57:08Z</time>
   </trkpt>
   <trkpt lat="-3.1059360" lon="37.3661030">
    <ele>4368.4</ele>
    <time>2026-06-22T10:57:09Z</time>
   </trkpt>
   <trkpt lat="-3.1059340" lon="37.3661030">
    <ele>4368.5</ele>
    <time>2026-06-22T10:57:10Z</time>
   </trkpt>
   <trkpt lat="-3.1059310" lon="37.3661070">
    <ele>4368.6</ele>
    <time>2026-06-22T10:57:11Z</time>
   </trkpt>
   <trkpt lat="-3.1059310" lon="37.3661110">
    <ele>4368.7</ele>
    <time>2026-06-22T10:57:12Z</time>
   </trkpt>
   <trkpt lat="-3.1059280" lon="37.3661160">
    <ele>4368.8</ele>
    <time>2026-06-22T10:57:13Z</time>
   </trkpt>
   <trkpt lat="-3.1059280" lon="37.3661190">
    <ele>4368.9</ele>
    <time>2026-06-22T10:57:14Z</time>
   </trkpt>
   <trkpt lat="-3.1059260" lon="37.3661240">
    <ele>4369.0</ele>
    <time>2026-06-22T10:57:15Z</time>
   </trkpt>
   <trkpt lat="-3.1059250" lon="37.3661240">
    <ele>4369.1</ele>
    <time>2026-06-22T10:57:16Z</time>
   </trkpt>
   <trkpt lat="-3.1059190" lon="37.3661270">
    <ele>4369.2</ele>
    <time>2026-06-22T10:57:17Z</time>
   </trkpt>
   <trkpt lat="-3.1059170" lon="37.3661260">
    <ele>4369.3</ele>
    <time>2026-06-22T10:57:18Z</time>
   </trkpt>
   <trkpt lat="-3.1059120" lon="37.3661270">
    <ele>4369.4</ele>
    <time>2026-06-22T10:57:19Z</time>
   </trkpt>
   <trkpt lat="-3.1059090" lon="37.3661280">
    <ele>4369.5</ele>
    <time>2026-06-22T10:57:20Z</time>
   </trkpt>
   <trkpt lat="-3.1059050" lon="37.3661280">
    <ele>4369.6</ele>
    <time>2026-06-22T10:57:21Z</time>
   </trkpt>
   <trkpt lat="-3.1059020" lon="37.3661280">
    <ele>4369.7</ele>
    <time>2026-06-22T10:57:22Z</time>
   </trkpt>
   <trkpt lat="-3.1058970" lon="37.3661290">
    <ele>4369.8</ele>
    <time>2026-06-22T10:57:23Z</time>
   </trkpt>
   <trkpt lat="-3.1058930" lon="37.3661310">
    <ele>4369.9</ele>
    <time>2026-06-22T10:57:24Z</time>
   </trkpt>
   <trkpt lat="-3.1058880" lon="37.3661340">
    <ele>4370.0</ele>
    <time>2026-06-22T10:57:25Z</time>
   </trkpt>
   <trkpt lat="-3.1058850" lon="37.3661350">
    <ele>4370.1</ele>
    <time>2026-06-22T10:57:26Z</time>
   </trkpt>
   <trkpt lat="-3.1058830" lon="37.3661370">
    <ele>4370.2</ele>
    <time>2026-06-22T10:57:27Z</time>
   </trkpt>
   <trkpt lat="-3.1058790" lon="37.3661420">
    <ele>4370.3</ele>
    <time>2026-06-22T10:57:28Z</time>
   </trkpt>
   <trkpt lat="-3.1058770" lon="37.3661460">
    <ele>4370.5</ele>
    <time>2026-06-22T10:57:29Z</time>
   </trkpt>
   <trkpt lat="-3.1058760" lon="37.3661470">
    <ele>4370.5</ele>
    <time>2026-06-22T10:57:30Z</time>
   </trkpt>
   <trkpt lat="-3.1058720" lon="37.3661510">
    <ele>4370.6</ele>
    <time>2026-06-22T10:57:31Z</time>
   </trkpt>
   <trkpt lat="-3.1058730" lon="37.3661540">
    <ele>4370.7</ele>
    <time>2026-06-22T10:57:32Z</time>
   </trkpt>
   <trkpt lat="-3.1058710" lon="37.3661570">
    <ele>4370.8</ele>
    <time>2026-06-22T10:57:33Z</time>
   </trkpt>
   <trkpt lat="-3.1058700" lon="37.3661600">
    <ele>4370.9</ele>
    <time>2026-06-22T10:57:34Z</time>
   </trkpt>
   <trkpt lat="-3.1058670" lon="37.3661630">
    <ele>4371.0</ele>
    <time>2026-06-22T10:57:35Z</time>
   </trkpt>
   <trkpt lat="-3.1058650" lon="37.3661650">
    <ele>4371.0</ele>
    <time>2026-06-22T10:57:36Z</time>
   </trkpt>
   <trkpt lat="-3.1058620" lon="37.3661680">
    <ele>4371.1</ele>
    <time>2026-06-22T10:57:37Z</time>
   </trkpt>
   <trkpt lat="-3.1058590" lon="37.3661670">
    <ele>4371.2</ele>
    <time>2026-06-22T10:57:38Z</time>
   </trkpt>
   <trkpt lat="-3.1058560" lon="37.3661670">
    <ele>4371.3</ele>
    <time>2026-06-22T10:57:39Z</time>
   </trkpt>
   <trkpt lat="-3.1058500" lon="37.3661710">
    <ele>4371.4</ele>
    <time>2026-06-22T10:57:40Z</time>
   </trkpt>
   <trkpt lat="-3.1058500" lon="37.3661710">
    <ele>4371.4</ele>
    <time>2026-06-22T10:57:41Z</time>
   </trkpt>
   <trkpt lat="-3.1058470" lon="37.3661700">
    <ele>4371.5</ele>
    <time>2026-06-22T10:57:42Z</time>
   </trkpt>
   <trkpt lat="-3.1058450" lon="37.3661710">
    <ele>4371.6</ele>
    <time>2026-06-22T10:57:43Z</time>
   </trkpt>
   <trkpt lat="-3.1058400" lon="37.3661720">
    <ele>4371.7</ele>
    <time>2026-06-22T10:57:44Z</time>
   </trkpt>
   <trkpt lat="-3.1058380" lon="37.3661730">
    <ele>4371.7</ele>
    <time>2026-06-22T10:57:45Z</time>
   </trkpt>
   <trkpt lat="-3.1058340" lon="37.3661730">
    <ele>4371.8</ele>
    <time>2026-06-22T10:57:46Z</time>
   </trkpt>
   <trkpt lat="-3.1058330" lon="37.3661740">
    <ele>4371.9</ele>
    <time>2026-06-22T10:57:47Z</time>
   </trkpt>
   <trkpt lat="-3.1058290" lon="37.3661760">
    <ele>4372.0</ele>
    <time>2026-06-22T10:57:48Z</time>
   </trkpt>
   <trkpt lat="-3.1058270" lon="37.3661780">
    <ele>4372.0</ele>
    <time>2026-06-22T10:57:49Z</time>
   </trkpt>
   <trkpt lat="-3.1058250" lon="37.3661790">
    <ele>4372.1</ele>
    <time>2026-06-22T10:57:50Z</time>
   </trkpt>
   <trkpt lat="-3.1058210" lon="37.3661830">
    <ele>4372.2</ele>
    <time>2026-06-22T10:57:51Z</time>
   </trkpt>
   <trkpt lat="-3.1058180" lon="37.3661840">
    <ele>4372.3</ele>
    <time>2026-06-22T10:57:52Z</time>
   </trkpt>
   <trkpt lat="-3.1058150" lon="37.3661870">
    <ele>4372.4</ele>
    <time>2026-06-22T10:57:53Z</time>
   </trkpt>
   <trkpt lat="-3.1058140" lon="37.3661880">
    <ele>4372.4</ele>
    <time>2026-06-22T10:57:54Z</time>
   </trkpt>
   <trkpt lat="-3.1058110" lon="37.3661900">
    <ele>4372.5</ele>
    <time>2026-06-22T10:57:55Z</time>
   </trkpt>
   <trkpt lat="-3.1058090" lon="37.3661920">
    <ele>4372.5</ele>
    <time>2026-06-22T10:57:56Z</time>
   </trkpt>
   <trkpt lat="-3.1058050" lon="37.3661940">
    <ele>4372.6</ele>
    <time>2026-06-22T10:57:57Z</time>
   </trkpt>
   <trkpt lat="-3.1058050" lon="37.3661940">
    <ele>4372.6</ele>
    <time>2026-06-22T10:57:58Z</time>
   </trkpt>
   <trkpt lat="-3.1058010" lon="37.3661960">
    <ele>4372.8</ele>
    <time>2026-06-22T10:57:59Z</time>
   </trkpt>
   <trkpt lat="-3.1058000" lon="37.3661990">
    <ele>4372.8</ele>
    <time>2026-06-22T10:58:00Z</time>
   </trkpt>
   <trkpt lat="-3.1057970" lon="37.3662010">
    <ele>4372.9</ele>
    <time>2026-06-22T10:58:01Z</time>
   </trkpt>
   <trkpt lat="-3.1057970" lon="37.3662030">
    <ele>4372.9</ele>
    <time>2026-06-22T10:58:02Z</time>
   </trkpt>
   <trkpt lat="-3.1057930" lon="37.3662070">
    <ele>4373.1</ele>
    <time>2026-06-22T10:58:03Z</time>
   </trkpt>
   <trkpt lat="-3.1057920" lon="37.3662100">
    <ele>4373.1</ele>
    <time>2026-06-22T10:58:04Z</time>
   </trkpt>
   <trkpt lat="-3.1057890" lon="37.3662140">
    <ele>4373.3</ele>
    <time>2026-06-22T10:58:05Z</time>
   </trkpt>
   <trkpt lat="-3.1057880" lon="37.3662160">
    <ele>4373.3</ele>
    <time>2026-06-22T10:58:06Z</time>
   </trkpt>
   <trkpt lat="-3.1057850" lon="37.3662180">
    <ele>4373.4</ele>
    <time>2026-06-22T10:58:07Z</time>
   </trkpt>
   <trkpt lat="-3.1057820" lon="37.3662210">
    <ele>4373.5</ele>
    <time>2026-06-22T10:58:08Z</time>
   </trkpt>
   <trkpt lat="-3.1057800" lon="37.3662230">
    <ele>4373.6</ele>
    <time>2026-06-22T10:58:09Z</time>
   </trkpt>
   <trkpt lat="-3.1057780" lon="37.3662250">
    <ele>4373.6</ele>
    <time>2026-06-22T10:58:10Z</time>
   </trkpt>
   <trkpt lat="-3.1057770" lon="37.3662250">
    <ele>4373.6</ele>
    <time>2026-06-22T10:58:11Z</time>
   </trkpt>
   <trkpt lat="-3.1057730" lon="37.3662280">
    <ele>4373.7</ele>
    <time>2026-06-22T10:58:12Z</time>
   </trkpt>
   <trkpt lat="-3.1057730" lon="37.3662330">
    <ele>4373.8</ele>
    <time>2026-06-22T10:58:13Z</time>
   </trkpt>
   <trkpt lat="-3.1057710" lon="37.3662370">
    <ele>4373.9</ele>
    <time>2026-06-22T10:58:14Z</time>
   </trkpt>
   <trkpt lat="-3.1057690" lon="37.3662400">
    <ele>4374.0</ele>
    <time>2026-06-22T10:58:15Z</time>
   </trkpt>
   <trkpt lat="-3.1057670" lon="37.3662420">
    <ele>4374.1</ele>
    <time>2026-06-22T10:58:16Z</time>
   </trkpt>
   <trkpt lat="-3.1057650" lon="37.3662460">
    <ele>4374.2</ele>
    <time>2026-06-22T10:58:17Z</time>
   </trkpt>
   <trkpt lat="-3.1057630" lon="37.3662490">
    <ele>4374.2</ele>
    <time>2026-06-22T10:58:18Z</time>
   </trkpt>
   <trkpt lat="-3.1057620" lon="37.3662530">
    <ele>4374.3</ele>
    <time>2026-06-22T10:58:19Z</time>
   </trkpt>
   <trkpt lat="-3.1057600" lon="37.3662570">
    <ele>4374.4</ele>
    <time>2026-06-22T10:58:20Z</time>
   </trkpt>
   <trkpt lat="-3.1057580" lon="37.3662610">
    <ele>4374.5</ele>
    <time>2026-06-22T10:58:21Z</time>
   </trkpt>
   <trkpt lat="-3.1057570" lon="37.3662620">
    <ele>4374.5</ele>
    <time>2026-06-22T10:58:22Z</time>
   </trkpt>
   <trkpt lat="-3.1057530" lon="37.3662680">
    <ele>4374.7</ele>
    <time>2026-06-22T10:58:23Z</time>
   </trkpt>
   <trkpt lat="-3.1057510" lon="37.3662690">
    <ele>4374.7</ele>
    <time>2026-06-22T10:58:24Z</time>
   </trkpt>
   <trkpt lat="-3.1057500" lon="37.3662730">
    <ele>4374.8</ele>
    <time>2026-06-22T10:58:25Z</time>
   </trkpt>
   <trkpt lat="-3.1057460" lon="37.3662750">
    <ele>4374.9</ele>
    <time>2026-06-22T10:58:26Z</time>
   </trkpt>
   <trkpt lat="-3.1057430" lon="37.3662790">
    <ele>4375.0</ele>
    <time>2026-06-22T10:58:27Z</time>
   </trkpt>
   <trkpt lat="-3.1057410" lon="37.3662830">
    <ele>4375.1</ele>
    <time>2026-06-22T10:58:28Z</time>
   </trkpt>
   <trkpt lat="-3.1057400" lon="37.3662870">
    <ele>4375.2</ele>
    <time>2026-06-22T10:58:29Z</time>
   </trkpt>
   <trkpt lat="-3.1057390" lon="37.3662920">
    <ele>4375.3</ele>
    <time>2026-06-22T10:58:30Z</time>
   </trkpt>
   <trkpt lat="-3.1057390" lon="37.3662990">
    <ele>4375.5</ele>
    <time>2026-06-22T10:58:31Z</time>
   </trkpt>
   <trkpt lat="-3.1057410" lon="37.3663010">
    <ele>4375.5</ele>
    <time>2026-06-22T10:58:32Z</time>
   </trkpt>
   <trkpt lat="-3.1057420" lon="37.3663070">
    <ele>4375.7</ele>
    <time>2026-06-22T10:58:33Z</time>
   </trkpt>
   <trkpt lat="-3.1057420" lon="37.3663110">
    <ele>4375.7</ele>
    <time>2026-06-22T10:58:34Z</time>
   </trkpt>
   <trkpt lat="-3.1057410" lon="37.3663140">
    <ele>4375.8</ele>
    <time>2026-06-22T10:58:35Z</time>
   </trkpt>
   <trkpt lat="-3.1057400" lon="37.3663170">
    <ele>4375.9</ele>
    <time>2026-06-22T10:58:36Z</time>
   </trkpt>
   <trkpt lat="-3.1057390" lon="37.3663220">
    <ele>4376.0</ele>
    <time>2026-06-22T10:58:37Z</time>
   </trkpt>
   <trkpt lat="-3.1057380" lon="37.3663240">
    <ele>4376.0</ele>
    <time>2026-06-22T10:58:38Z</time>
   </trkpt>
   <trkpt lat="-3.1057370" lon="37.3663270">
    <ele>4376.1</ele>
    <time>2026-06-22T10:58:39Z</time>
   </trkpt>
   <trkpt lat="-3.1057360" lon="37.3663300">
    <ele>4376.1</ele>
    <time>2026-06-22T10:58:40Z</time>
   </trkpt>
   <trkpt lat="-3.1057340" lon="37.3663350">
    <ele>4376.2</ele>
    <time>2026-06-22T10:58:41Z</time>
   </trkpt>
   <trkpt lat="-3.1057330" lon="37.3663380">
    <ele>4376.3</ele>
    <time>2026-06-22T10:58:42Z</time>
   </trkpt>
   <trkpt lat="-3.1057310" lon="37.3663410">
    <ele>4376.4</ele>
    <time>2026-06-22T10:58:43Z</time>
   </trkpt>
   <trkpt lat="-3.1057300" lon="37.3663440">
    <ele>4376.4</ele>
    <time>2026-06-22T10:58:44Z</time>
   </trkpt>
   <trkpt lat="-3.1057270" lon="37.3663490">
    <ele>4376.5</ele>
    <time>2026-06-22T10:58:45Z</time>
   </trkpt>
   <trkpt lat="-3.1057260" lon="37.3663510">
    <ele>4376.6</ele>
    <time>2026-06-22T10:58:46Z</time>
   </trkpt>
   <trkpt lat="-3.1057240" lon="37.3663540">
    <ele>4376.7</ele>
    <time>2026-06-22T10:58:47Z</time>
   </trkpt>
   <trkpt lat="-3.1057230" lon="37.3663580">
    <ele>4376.7</ele>
    <time>2026-06-22T10:58:48Z</time>
   </trkpt>
   <trkpt lat="-3.1057170" lon="37.3663670">
    <ele>4377.0</ele>
    <time>2026-06-22T10:58:49Z</time>
   </trkpt>
   <trkpt lat="-3.1057190" lon="37.3663670">
    <ele>4377.0</ele>
    <time>2026-06-22T10:58:50Z</time>
   </trkpt>
   <trkpt lat="-3.1057210" lon="37.3663710">
    <ele>4377.1</ele>
    <time>2026-06-22T10:58:51Z</time>
   </trkpt>
   <trkpt lat="-3.1057230" lon="37.3663740">
    <ele>4377.2</ele>
    <time>2026-06-22T10:58:52Z</time>
   </trkpt>
   <trkpt lat="-3.1057240" lon="37.3663770">
    <ele>4377.2</ele>
    <time>2026-06-22T10:58:53Z</time>
   </trkpt>
   <trkpt lat="-3.1057240" lon="37.3663810">
    <ele>4377.3</ele>
    <time>2026-06-22T10:58:54Z</time>
   </trkpt>
   <trkpt lat="-3.1057240" lon="37.3663850">
    <ele>4377.4</ele>
    <time>2026-06-22T10:58:55Z</time>
   </trkpt>
   <trkpt lat="-3.1057240" lon="37.3663900">
    <ele>4377.5</ele>
    <time>2026-06-22T10:58:56Z</time>
   </trkpt>
   <trkpt lat="-3.1057230" lon="37.3663920">
    <ele>4377.5</ele>
    <time>2026-06-22T10:58:57Z</time>
   </trkpt>
   <trkpt lat="-3.1057230" lon="37.3663960">
    <ele>4377.6</ele>
    <time>2026-06-22T10:58:58Z</time>
   </trkpt>
   <trkpt lat="-3.1057220" lon="37.3663990">
    <ele>4377.7</ele>
    <time>2026-06-22T10:58:59Z</time>
   </trkpt>
   <trkpt lat="-3.1057210" lon="37.3664030">
    <ele>4377.7</ele>
    <time>2026-06-22T10:59:00Z</time>
   </trkpt>
   <trkpt lat="-3.1057200" lon="37.3664060">
    <ele>4377.8</ele>
    <time>2026-06-22T10:59:01Z</time>
   </trkpt>
   <trkpt lat="-3.1057190" lon="37.3664090">
    <ele>4377.9</ele>
    <time>2026-06-22T10:59:02Z</time>
   </trkpt>
   <trkpt lat="-3.1057170" lon="37.3664130">
    <ele>4377.9</ele>
    <time>2026-06-22T10:59:03Z</time>
   </trkpt>
   <trkpt lat="-3.1057160" lon="37.3664160">
    <ele>4378.0</ele>
    <time>2026-06-22T10:59:04Z</time>
   </trkpt>
   <trkpt lat="-3.1057150" lon="37.3664190">
    <ele>4378.1</ele>
    <time>2026-06-22T10:59:05Z</time>
   </trkpt>
   <trkpt lat="-3.1057130" lon="37.3664210">
    <ele>4378.1</ele>
    <time>2026-06-22T10:59:06Z</time>
   </trkpt>
   <trkpt lat="-3.1057110" lon="37.3664240">
    <ele>4378.2</ele>
    <time>2026-06-22T10:59:07Z</time>
   </trkpt>
   <trkpt lat="-3.1057090" lon="37.3664270">
    <ele>4378.3</ele>
    <time>2026-06-22T10:59:08Z</time>
   </trkpt>
   <trkpt lat="-3.1057070" lon="37.3664320">
    <ele>4378.4</ele>
    <time>2026-06-22T10:59:09Z</time>
   </trkpt>
   <trkpt lat="-3.1057050" lon="37.3664360">
    <ele>4378.4</ele>
    <time>2026-06-22T10:59:10Z</time>
   </trkpt>
   <trkpt lat="-3.1057030" lon="37.3664410">
    <ele>4378.5</ele>
    <time>2026-06-22T10:59:11Z</time>
   </trkpt>
   <trkpt lat="-3.1057020" lon="37.3664450">
    <ele>4378.6</ele>
    <time>2026-06-22T10:59:12Z</time>
   </trkpt>
   <trkpt lat="-3.1056980" lon="37.3664490">
    <ele>4378.7</ele>
    <time>2026-06-22T10:59:13Z</time>
   </trkpt>
   <trkpt lat="-3.1056980" lon="37.3664530">
    <ele>4378.8</ele>
    <time>2026-06-22T10:59:14Z</time>
   </trkpt>
   <trkpt lat="-3.1056940" lon="37.3664560">
    <ele>4378.9</ele>
    <time>2026-06-22T10:59:15Z</time>
   </trkpt>
   <trkpt lat="-3.1056940" lon="37.3664600">
    <ele>4379.0</ele>
    <time>2026-06-22T10:59:16Z</time>
   </trkpt>
   <trkpt lat="-3.1056910" lon="37.3664620">
    <ele>4379.0</ele>
    <time>2026-06-22T10:59:17Z</time>
   </trkpt>
   <trkpt lat="-3.1056910" lon="37.3664670">
    <ele>4379.1</ele>
    <time>2026-06-22T10:59:18Z</time>
   </trkpt>
   <trkpt lat="-3.1056870" lon="37.3664700">
    <ele>4379.2</ele>
    <time>2026-06-22T10:59:19Z</time>
   </trkpt>
   <trkpt lat="-3.1056870" lon="37.3664740">
    <ele>4379.3</ele>
    <time>2026-06-22T10:59:20Z</time>
   </trkpt>
   <trkpt lat="-3.1056850" lon="37.3664780">
    <ele>4379.4</ele>
    <time>2026-06-22T10:59:21Z</time>
   </trkpt>
   <trkpt lat="-3.1056850" lon="37.3664810">
    <ele>4379.4</ele>
    <time>2026-06-22T10:59:22Z</time>
   </trkpt>
   <trkpt lat="-3.1056830" lon="37.3664840">
    <ele>4379.5</ele>
    <time>2026-06-22T10:59:23Z</time>
   </trkpt>
   <trkpt lat="-3.1056810" lon="37.3664880">
    <ele>4379.6</ele>
    <time>2026-06-22T10:59:24Z</time>
   </trkpt>
   <trkpt lat="-3.1056800" lon="37.3664920">
    <ele>4379.6</ele>
    <time>2026-06-22T10:59:25Z</time>
   </trkpt>
   <trkpt lat="-3.1056790" lon="37.3664970">
    <ele>4379.7</ele>
    <time>2026-06-22T10:59:26Z</time>
   </trkpt>
   <trkpt lat="-3.1056770" lon="37.3665010">
    <ele>4379.8</ele>
    <time>2026-06-22T10:59:27Z</time>
   </trkpt>
   <trkpt lat="-3.1056750" lon="37.3665050">
    <ele>4379.9</ele>
    <time>2026-06-22T10:59:28Z</time>
   </trkpt>
   <trkpt lat="-3.1056740" lon="37.3665080">
    <ele>4380.0</ele>
    <time>2026-06-22T10:59:29Z</time>
   </trkpt>
   <trkpt lat="-3.1056730" lon="37.3665110">
    <ele>4380.0</ele>
    <time>2026-06-22T10:59:30Z</time>
   </trkpt>
   <trkpt lat="-3.1056710" lon="37.3665150">
    <ele>4380.1</ele>
    <time>2026-06-22T10:59:31Z</time>
   </trkpt>
   <trkpt lat="-3.1056680" lon="37.3665180">
    <ele>4380.2</ele>
    <time>2026-06-22T10:59:32Z</time>
   </trkpt>
   <trkpt lat="-3.1056670" lon="37.3665220">
    <ele>4380.2</ele>
    <time>2026-06-22T10:59:33Z</time>
   </trkpt>
   <trkpt lat="-3.1056640" lon="37.3665250">
    <ele>4380.3</ele>
    <time>2026-06-22T10:59:34Z</time>
   </trkpt>
   <trkpt lat="-3.1056620" lon="37.3665290">
    <ele>4380.4</ele>
    <time>2026-06-22T10:59:35Z</time>
   </trkpt>
   <trkpt lat="-3.1056590" lon="37.3665320">
    <ele>4380.5</ele>
    <time>2026-06-22T10:59:36Z</time>
   </trkpt>
   <trkpt lat="-3.1056570" lon="37.3665350">
    <ele>4380.5</ele>
    <time>2026-06-22T10:59:37Z</time>
   </trkpt>
   <trkpt lat="-3.1056550" lon="37.3665380">
    <ele>4380.6</ele>
    <time>2026-06-22T10:59:38Z</time>
   </trkpt>
   <trkpt lat="-3.1056530" lon="37.3665420">
    <ele>4380.7</ele>
    <time>2026-06-22T10:59:39Z</time>
   </trkpt>
   <trkpt lat="-3.1056510" lon="37.3665450">
    <ele>4380.8</ele>
    <time>2026-06-22T10:59:40Z</time>
   </trkpt>
   <trkpt lat="-3.1056490" lon="37.3665480">
    <ele>4380.8</ele>
    <time>2026-06-22T10:59:41Z</time>
   </trkpt>
   <trkpt lat="-3.1056470" lon="37.3665510">
    <ele>4380.9</ele>
    <time>2026-06-22T10:59:42Z</time>
   </trkpt>
   <trkpt lat="-3.1056430" lon="37.3665550">
    <ele>4381.0</ele>
    <time>2026-06-22T10:59:43Z</time>
   </trkpt>
   <trkpt lat="-3.1056410" lon="37.3665570">
    <ele>4381.0</ele>
    <time>2026-06-22T10:59:44Z</time>
   </trkpt>
   <trkpt lat="-3.1056390" lon="37.3665600">
    <ele>4381.1</ele>
    <time>2026-06-22T10:59:45Z</time>
   </trkpt>
   <trkpt lat="-3.1056370" lon="37.3665630">
    <ele>4381.2</ele>
    <time>2026-06-22T10:59:46Z</time>
   </trkpt>
   <trkpt lat="-3.1056350" lon="37.3665670">
    <ele>4381.3</ele>
    <time>2026-06-22T10:59:47Z</time>
   </trkpt>
   <trkpt lat="-3.1056340" lon="37.3665710">
    <ele>4381.3</ele>
    <time>2026-06-22T10:59:48Z</time>
   </trkpt>
   <trkpt lat="-3.1056330" lon="37.3665750">
    <ele>4381.4</ele>
    <time>2026-06-22T10:59:49Z</time>
   </trkpt>
   <trkpt lat="-3.1056320" lon="37.3665790">
    <ele>4381.5</ele>
    <time>2026-06-22T10:59:50Z</time>
   </trkpt>
   <trkpt lat="-3.1056300" lon="37.3665830">
    <ele>4381.6</ele>
    <time>2026-06-22T10:59:51Z</time>
   </trkpt>
   <trkpt lat="-3.1056290" lon="37.3665850">
    <ele>4381.6</ele>
    <time>2026-06-22T10:59:52Z</time>
   </trkpt>
   <trkpt lat="-3.1056260" lon="37.3665890">
    <ele>4381.7</ele>
    <time>2026-06-22T10:59:53Z</time>
   </trkpt>
   <trkpt lat="-3.1056260" lon="37.3665930">
    <ele>4381.8</ele>
    <time>2026-06-22T10:59:54Z</time>
   </trkpt>
   <trkpt lat="-3.1056250" lon="37.3665970">
    <ele>4381.8</ele>
    <time>2026-06-22T10:59:55Z</time>
   </trkpt>
   <trkpt lat="-3.1056250" lon="37.3666010">
    <ele>4381.9</ele>
    <time>2026-06-22T10:59:56Z</time>
   </trkpt>
   <trkpt lat="-3.1056250" lon="37.3666040">
    <ele>4382.0</ele>
    <time>2026-06-22T10:59:57Z</time>
   </trkpt>
   <trkpt lat="-3.1056240" lon="37.3666080">
    <ele>4382.0</ele>
    <time>2026-06-22T10:59:58Z</time>
   </trkpt>
   <trkpt lat="-3.1056220" lon="37.3666110">
    <ele>4382.1</ele>
    <time>2026-06-22T10:59:59Z</time>
   </trkpt>
   <trkpt lat="-3.1056190" lon="37.3666160">
    <ele>4382.2</ele>
    <time>2026-06-22T11:00:00Z</time>
   </trkpt>
   <trkpt lat="-3.1056170" lon="37.3666190">
    <ele>4382.3</ele>
    <time>2026-06-22T11:00:01Z</time>
   </trkpt>
   <trkpt lat="-3.1056150" lon="37.3666220">
    <ele>4382.3</ele>
    <time>2026-06-22T11:00:02Z</time>
   </trkpt>
   <trkpt lat="-3.1056140" lon="37.3666260">
    <ele>4382.4</ele>
    <time>2026-06-22T11:00:03Z</time>
   </trkpt>
   <trkpt lat="-3.1056120" lon="37.3666290">
    <ele>4382.5</ele>
    <time>2026-06-22T11:00:04Z</time>
   </trkpt>
   <trkpt lat="-3.1056110" lon="37.3666320">
    <ele>4382.5</ele>
    <time>2026-06-22T11:00:05Z</time>
   </trkpt>
   <trkpt lat="-3.1056080" lon="37.3666370">
    <ele>4382.7</ele>
    <time>2026-06-22T11:00:06Z</time>
   </trkpt>
   <trkpt lat="-3.1056090" lon="37.3666380">
    <ele>4382.7</ele>
    <time>2026-06-22T11:00:07Z</time>
   </trkpt>
   <trkpt lat="-3.1056060" lon="37.3666410">
    <ele>4382.8</ele>
    <time>2026-06-22T11:00:08Z</time>
   </trkpt>
   <trkpt lat="-3.1056030" lon="37.3666450">
    <ele>4382.8</ele>
    <time>2026-06-22T11:00:09Z</time>
   </trkpt>
   <trkpt lat="-3.1056030" lon="37.3666480">
    <ele>4382.9</ele>
    <time>2026-06-22T11:00:10Z</time>
   </trkpt>
   <trkpt lat="-3.1056030" lon="37.3666520">
    <ele>4383.0</ele>
    <time>2026-06-22T11:00:11Z</time>
   </trkpt>
   <trkpt lat="-3.1056050" lon="37.3666560">
    <ele>4383.1</ele>
    <time>2026-06-22T11:00:12Z</time>
   </trkpt>
   <trkpt lat="-3.1056010" lon="37.3666610">
    <ele>4383.2</ele>
    <time>2026-06-22T11:00:13Z</time>
   </trkpt>
   <trkpt lat="-3.1056010" lon="37.3666640">
    <ele>4383.2</ele>
    <time>2026-06-22T11:00:14Z</time>
   </trkpt>
   <trkpt lat="-3.1055990" lon="37.3666680">
    <ele>4383.3</ele>
    <time>2026-06-22T11:00:15Z</time>
   </trkpt>
   <trkpt lat="-3.1056010" lon="37.3666700">
    <ele>4383.4</ele>
    <time>2026-06-22T11:00:16Z</time>
   </trkpt>
   <trkpt lat="-3.1056010" lon="37.3666760">
    <ele>4383.5</ele>
    <time>2026-06-22T11:00:17Z</time>
   </trkpt>
   <trkpt lat="-3.1056020" lon="37.3666800">
    <ele>4383.5</ele>
    <time>2026-06-22T11:00:18Z</time>
   </trkpt>
   <trkpt lat="-3.1056030" lon="37.3666850">
    <ele>4383.6</ele>
    <time>2026-06-22T11:00:19Z</time>
   </trkpt>
   <trkpt lat="-3.1056060" lon="37.3666870">
    <ele>4383.7</ele>
    <time>2026-06-22T11:00:20Z</time>
   </trkpt>
   <trkpt lat="-3.1056090" lon="37.3666910">
    <ele>4383.8</ele>
    <time>2026-06-22T11:00:21Z</time>
   </trkpt>
   <trkpt lat="-3.1056110" lon="37.3666940">
    <ele>4383.9</ele>
    <time>2026-06-22T11:00:22Z</time>
   </trkpt>
   <trkpt lat="-3.1056140" lon="37.3666980">
    <ele>4384.0</ele>
    <time>2026-06-22T11:00:23Z</time>
   </trkpt>
   <trkpt lat="-3.1056160" lon="37.3667000">
    <ele>4384.0</ele>
    <time>2026-06-22T11:00:24Z</time>
   </trkpt>
   <trkpt lat="-3.1056150" lon="37.3667050">
    <ele>4384.1</ele>
    <time>2026-06-22T11:00:25Z</time>
   </trkpt>
   <trkpt lat="-3.1056150" lon="37.3667080">
    <ele>4384.2</ele>
    <time>2026-06-22T11:00:26Z</time>
   </trkpt>
   <trkpt lat="-3.1056140" lon="37.3667110">
    <ele>4384.2</ele>
    <time>2026-06-22T11:00:27Z</time>
   </trkpt>
   <trkpt lat="-3.1056130" lon="37.3667130">
    <ele>4384.3</ele>
    <time>2026-06-22T11:00:28Z</time>
   </trkpt>
   <trkpt lat="-3.1056110" lon="37.3667160">
    <ele>4384.3</ele>
    <time>2026-06-22T11:00:29Z</time>
   </trkpt>
   <trkpt lat="-3.1056080" lon="37.3667200">
    <ele>4384.4</ele>
    <time>2026-06-22T11:00:30Z</time>
   </trkpt>
   <trkpt lat="-3.1056050" lon="37.3667230">
    <ele>4384.5</ele>
    <time>2026-06-22T11:00:31Z</time>
   </trkpt>
   <trkpt lat="-3.1056030" lon="37.3667260">
    <ele>4384.6</ele>
    <time>2026-06-22T11:00:32Z</time>
   </trkpt>
   <trkpt lat="-3.1056000" lon="37.3667290">
    <ele>4384.7</ele>
    <time>2026-06-22T11:00:33Z</time>
   </trkpt>
   <trkpt lat="-3.1055970" lon="37.3667340">
    <ele>4384.8</ele>
    <time>2026-06-22T11:00:34Z</time>
   </trkpt>
   <trkpt lat="-3.1055960" lon="37.3667350">
    <ele>4384.8</ele>
    <time>2026-06-22T11:00:35Z</time>
   </trkpt>
   <trkpt lat="-3.1055930" lon="37.3667380">
    <ele>4384.9</ele>
    <time>2026-06-22T11:00:36Z</time>
   </trkpt>
   <trkpt lat="-3.1055900" lon="37.3667420">
    <ele>4385.0</ele>
    <time>2026-06-22T11:00:37Z</time>
   </trkpt>
   <trkpt lat="-3.1055880" lon="37.3667430">
    <ele>4385.0</ele>
    <time>2026-06-22T11:00:38Z</time>
   </trkpt>
   <trkpt lat="-3.1055850" lon="37.3667460">
    <ele>4385.1</ele>
    <time>2026-06-22T11:00:39Z</time>
   </trkpt>
   <trkpt lat="-3.1055830" lon="37.3667480">
    <ele>4385.2</ele>
    <time>2026-06-22T11:00:40Z</time>
   </trkpt>
   <trkpt lat="-3.1055810" lon="37.3667540">
    <ele>4385.3</ele>
    <time>2026-06-22T11:00:41Z</time>
   </trkpt>
   <trkpt lat="-3.1055810" lon="37.3667560">
    <ele>4385.3</ele>
    <time>2026-06-22T11:00:42Z</time>
   </trkpt>
   <trkpt lat="-3.1055790" lon="37.3667600">
    <ele>4385.4</ele>
    <time>2026-06-22T11:00:43Z</time>
   </trkpt>
   <trkpt lat="-3.1055790" lon="37.3667630">
    <ele>4385.5</ele>
    <time>2026-06-22T11:00:44Z</time>
   </trkpt>
   <trkpt lat="-3.1055770" lon="37.3667660">
    <ele>4385.5</ele>
    <time>2026-06-22T11:00:45Z</time>
   </trkpt>
   <trkpt lat="-3.1055760" lon="37.3667700">
    <ele>4385.6</ele>
    <time>2026-06-22T11:00:46Z</time>
   </trkpt>
   <trkpt lat="-3.1055750" lon="37.3667730">
    <ele>4385.7</ele>
    <time>2026-06-22T11:00:47Z</time>
   </trkpt>
   <trkpt lat="-3.1055740" lon="37.3667760">
    <ele>4385.7</ele>
    <time>2026-06-22T11:00:48Z</time>
   </trkpt>
   <trkpt lat="-3.1055710" lon="37.3667790">
    <ele>4385.8</ele>
    <time>2026-06-22T11:00:49Z</time>
   </trkpt>
   <trkpt lat="-3.1055720" lon="37.3667830">
    <ele>4385.9</ele>
    <time>2026-06-22T11:00:50Z</time>
   </trkpt>
   <trkpt lat="-3.1055710" lon="37.3667850">
    <ele>4385.9</ele>
    <time>2026-06-22T11:00:51Z</time>
   </trkpt>
   <trkpt lat="-3.1055700" lon="37.3667890">
    <ele>4386.0</ele>
    <time>2026-06-22T11:00:52Z</time>
   </trkpt>
   <trkpt lat="-3.1055700" lon="37.3667920">
    <ele>4386.1</ele>
    <time>2026-06-22T11:00:53Z</time>
   </trkpt>
   <trkpt lat="-3.1055700" lon="37.3667960">
    <ele>4386.2</ele>
    <time>2026-06-22T11:00:54Z</time>
   </trkpt>
   <trkpt lat="-3.1055690" lon="37.3668000">
    <ele>4386.3</ele>
    <time>2026-06-22T11:00:55Z</time>
   </trkpt>
   <trkpt lat="-3.1055680" lon="37.3668030">
    <ele>4386.3</ele>
    <time>2026-06-22T11:00:56Z</time>
   </trkpt>
   <trkpt lat="-3.1055670" lon="37.3668070">
    <ele>4386.4</ele>
    <time>2026-06-22T11:00:57Z</time>
   </trkpt>
   <trkpt lat="-3.1055660" lon="37.3668100">
    <ele>4386.5</ele>
    <time>2026-06-22T11:00:58Z</time>
   </trkpt>
   <trkpt lat="-3.1055660" lon="37.3668120">
    <ele>4386.5</ele>
    <time>2026-06-22T11:00:59Z</time>
   </trkpt>
   <trkpt lat="-3.1055640" lon="37.3668150">
    <ele>4386.6</ele>
    <time>2026-06-22T11:01:00Z</time>
   </trkpt>
   <trkpt lat="-3.1055640" lon="37.3668190">
    <ele>4386.7</ele>
    <time>2026-06-22T11:01:01Z</time>
   </trkpt>
   <trkpt lat="-3.1055620" lon="37.3668210">
    <ele>4386.7</ele>
    <time>2026-06-22T11:01:02Z</time>
   </trkpt>
   <trkpt lat="-3.1055620" lon="37.3668240">
    <ele>4386.8</ele>
    <time>2026-06-22T11:01:03Z</time>
   </trkpt>
   <trkpt lat="-3.1055600" lon="37.3668260">
    <ele>4386.9</ele>
    <time>2026-06-22T11:01:04Z</time>
   </trkpt>
   <trkpt lat="-3.1055590" lon="37.3668310">
    <ele>4387.0</ele>
    <time>2026-06-22T11:01:05Z</time>
   </trkpt>
   <trkpt lat="-3.1055570" lon="37.3668320">
    <ele>4387.0</ele>
    <time>2026-06-22T11:01:06Z</time>
   </trkpt>
   <trkpt lat="-3.1055560" lon="37.3668350">
    <ele>4387.1</ele>
    <time>2026-06-22T11:01:07Z</time>
   </trkpt>
   <trkpt lat="-3.1055530" lon="37.3668360">
    <ele>4387.1</ele>
    <time>2026-06-22T11:01:08Z</time>
   </trkpt>
   <trkpt lat="-3.1055500" lon="37.3668400">
    <ele>4387.3</ele>
    <time>2026-06-22T11:01:09Z</time>
   </trkpt>
   <trkpt lat="-3.1055480" lon="37.3668420">
    <ele>4387.3</ele>
    <time>2026-06-22T11:01:10Z</time>
   </trkpt>
   <trkpt lat="-3.1055450" lon="37.3668450">
    <ele>4387.4</ele>
    <time>2026-06-22T11:01:11Z</time>
   </trkpt>
   <trkpt lat="-3.1055440" lon="37.3668470">
    <ele>4387.5</ele>
    <time>2026-06-22T11:01:12Z</time>
   </trkpt>
   <trkpt lat="-3.1055420" lon="37.3668480">
    <ele>4387.5</ele>
    <time>2026-06-22T11:01:13Z</time>
   </trkpt>
   <trkpt lat="-3.1055400" lon="37.3668500">
    <ele>4387.6</ele>
    <time>2026-06-22T11:01:14Z</time>
   </trkpt>
   <trkpt lat="-3.1055390" lon="37.3668520">
    <ele>4387.6</ele>
    <time>2026-06-22T11:01:15Z</time>
   </trkpt>
   <trkpt lat="-3.1055370" lon="37.3668530">
    <ele>4387.7</ele>
    <time>2026-06-22T11:01:16Z</time>
   </trkpt>
   <trkpt lat="-3.1055350" lon="37.3668570">
    <ele>4387.8</ele>
    <time>2026-06-22T11:01:17Z</time>
   </trkpt>
   <trkpt lat="-3.1055350" lon="37.3668600">
    <ele>4387.8</ele>
    <time>2026-06-22T11:01:18Z</time>
   </trkpt>
   <trkpt lat="-3.1055320" lon="37.3668630">
    <ele>4387.9</ele>
    <time>2026-06-22T11:01:19Z</time>
   </trkpt>
   <trkpt lat="-3.1055320" lon="37.3668660">
    <ele>4388.0</ele>
    <time>2026-06-22T11:01:20Z</time>
   </trkpt>
   <trkpt lat="-3.1055300" lon="37.3668690">
    <ele>4388.1</ele>
    <time>2026-06-22T11:01:21Z</time>
   </trkpt>
   <trkpt lat="-3.1055290" lon="37.3668710">
    <ele>4388.1</ele>
    <time>2026-06-22T11:01:22Z</time>
   </trkpt>
   <trkpt lat="-3.1055270" lon="37.3668720">
    <ele>4388.2</ele>
    <time>2026-06-22T11:01:23Z</time>
   </trkpt>
   <trkpt lat="-3.1055250" lon="37.3668750">
    <ele>4388.2</ele>
    <time>2026-06-22T11:01:24Z</time>
   </trkpt>
   <trkpt lat="-3.1055240" lon="37.3668770">
    <ele>4388.3</ele>
    <time>2026-06-22T11:01:25Z</time>
   </trkpt>
   <trkpt lat="-3.1055220" lon="37.3668810">
    <ele>4388.4</ele>
    <time>2026-06-22T11:01:26Z</time>
   </trkpt>
   <trkpt lat="-3.1055220" lon="37.3668840">
    <ele>4388.5</ele>
    <time>2026-06-22T11:01:27Z</time>
   </trkpt>
   <trkpt lat="-3.1055200" lon="37.3668870">
    <ele>4388.6</ele>
    <time>2026-06-22T11:01:28Z</time>
   </trkpt>
   <trkpt lat="-3.1055200" lon="37.3668900">
    <ele>4388.6</ele>
    <time>2026-06-22T11:01:29Z</time>
   </trkpt>
   <trkpt lat="-3.1055190" lon="37.3668940">
    <ele>4388.7</ele>
    <time>2026-06-22T11:01:30Z</time>
   </trkpt>
   <trkpt lat="-3.1055220" lon="37.3668990">
    <ele>4388.9</ele>
    <time>2026-06-22T11:01:31Z</time>
   </trkpt>
   <trkpt lat="-3.1055230" lon="37.3669020">
    <ele>4388.9</ele>
    <time>2026-06-22T11:01:32Z</time>
   </trkpt>
   <trkpt lat="-3.1055250" lon="37.3669030">
    <ele>4389.0</ele>
    <time>2026-06-22T11:01:33Z</time>
   </trkpt>
   <trkpt lat="-3.1055240" lon="37.3669080">
    <ele>4389.1</ele>
    <time>2026-06-22T11:01:34Z</time>
   </trkpt>
   <trkpt lat="-3.1055240" lon="37.3669110">
    <ele>4389.2</ele>
    <time>2026-06-22T11:01:35Z</time>
   </trkpt>
   <trkpt lat="-3.1055230" lon="37.3669130">
    <ele>4389.2</ele>
    <time>2026-06-22T11:01:36Z</time>
   </trkpt>
   <trkpt lat="-3.1055220" lon="37.3669170">
    <ele>4389.3</ele>
    <time>2026-06-22T11:01:37Z</time>
   </trkpt>
   <trkpt lat="-3.1055210" lon="37.3669210">
    <ele>4389.4</ele>
    <time>2026-06-22T11:01:38Z</time>
   </trkpt>
   <trkpt lat="-3.1055210" lon="37.3669240">
    <ele>4389.5</ele>
    <time>2026-06-22T11:01:39Z</time>
   </trkpt>
   <trkpt lat="-3.1055200" lon="37.3669290">
    <ele>4389.6</ele>
    <time>2026-06-22T11:01:40Z</time>
   </trkpt>
   <trkpt lat="-3.1055200" lon="37.3669320">
    <ele>4389.7</ele>
    <time>2026-06-22T11:01:41Z</time>
   </trkpt>
   <trkpt lat="-3.1055190" lon="37.3669360">
    <ele>4389.8</ele>
    <time>2026-06-22T11:01:42Z</time>
   </trkpt>
   <trkpt lat="-3.1055170" lon="37.3669380">
    <ele>4389.8</ele>
    <time>2026-06-22T11:01:43Z</time>
   </trkpt>
   <trkpt lat="-3.1055160" lon="37.3669410">
    <ele>4389.9</ele>
    <time>2026-06-22T11:01:44Z</time>
   </trkpt>
   <trkpt lat="-3.1055160" lon="37.3669440">
    <ele>4390.0</ele>
    <time>2026-06-22T11:01:45Z</time>
   </trkpt>
   <trkpt lat="-3.1055150" lon="37.3669470">
    <ele>4390.1</ele>
    <time>2026-06-22T11:01:46Z</time>
   </trkpt>
   <trkpt lat="-3.1055140" lon="37.3669510">
    <ele>4390.2</ele>
    <time>2026-06-22T11:01:47Z</time>
   </trkpt>
   <trkpt lat="-3.1055130" lon="37.3669540">
    <ele>4390.2</ele>
    <time>2026-06-22T11:01:48Z</time>
   </trkpt>
   <trkpt lat="-3.1055100" lon="37.3669560">
    <ele>4390.3</ele>
    <time>2026-06-22T11:01:49Z</time>
   </trkpt>
   <trkpt lat="-3.1055110" lon="37.3669590">
    <ele>4390.4</ele>
    <time>2026-06-22T11:01:50Z</time>
   </trkpt>
   <trkpt lat="-3.1055080" lon="37.3669620">
    <ele>4390.5</ele>
    <time>2026-06-22T11:01:51Z</time>
   </trkpt>
   <trkpt lat="-3.1055050" lon="37.3669660">
    <ele>4390.6</ele>
    <time>2026-06-22T11:01:52Z</time>
   </trkpt>
   <trkpt lat="-3.1055010" lon="37.3669690">
    <ele>4390.7</ele>
    <time>2026-06-22T11:01:53Z</time>
   </trkpt>
   <trkpt lat="-3.1055010" lon="37.3669710">
    <ele>4390.8</ele>
    <time>2026-06-22T11:01:54Z</time>
   </trkpt>
   <trkpt lat="-3.1054980" lon="37.3669750">
    <ele>4390.9</ele>
    <time>2026-06-22T11:01:55Z</time>
   </trkpt>
   <trkpt lat="-3.1054970" lon="37.3669780">
    <ele>4391.0</ele>
    <time>2026-06-22T11:01:56Z</time>
   </trkpt>
   <trkpt lat="-3.1054930" lon="37.3669810">
    <ele>4391.1</ele>
    <time>2026-06-22T11:01:57Z</time>
   </trkpt>
   <trkpt lat="-3.1054910" lon="37.3669840">
    <ele>4391.2</ele>
    <time>2026-06-22T11:01:58Z</time>
   </trkpt>
   <trkpt lat="-3.1054870" lon="37.3669870">
    <ele>4391.3</ele>
    <time>2026-06-22T11:01:59Z</time>
   </trkpt>
   <trkpt lat="-3.1054870" lon="37.3669890">
    <ele>4391.3</ele>
    <time>2026-06-22T11:02:00Z</time>
   </trkpt>
   <trkpt lat="-3.1054840" lon="37.3669930">
    <ele>4391.4</ele>
    <time>2026-06-22T11:02:01Z</time>
   </trkpt>
   <trkpt lat="-3.1054830" lon="37.3669950">
    <ele>4391.5</ele>
    <time>2026-06-22T11:02:02Z</time>
   </trkpt>
   <trkpt lat="-3.1054810" lon="37.3669990">
    <ele>4391.6</ele>
    <time>2026-06-22T11:02:03Z</time>
   </trkpt>
   <trkpt lat="-3.1054800" lon="37.3670000">
    <ele>4391.6</ele>
    <time>2026-06-22T11:02:04Z</time>
   </trkpt>
   <trkpt lat="-3.1054790" lon="37.3670050">
    <ele>4391.7</ele>
    <time>2026-06-22T11:02:05Z</time>
   </trkpt>
   <trkpt lat="-3.1054790" lon="37.3670080">
    <ele>4391.8</ele>
    <time>2026-06-22T11:02:06Z</time>
   </trkpt>
   <trkpt lat="-3.1054790" lon="37.3670140">
    <ele>4392.0</ele>
    <time>2026-06-22T11:02:07Z</time>
   </trkpt>
   <trkpt lat="-3.1054790" lon="37.3670180">
    <ele>4392.0</ele>
    <time>2026-06-22T11:02:08Z</time>
   </trkpt>
   <trkpt lat="-3.1054770" lon="37.3670220">
    <ele>4392.2</ele>
    <time>2026-06-22T11:02:09Z</time>
   </trkpt>
   <trkpt lat="-3.1054770" lon="37.3670260">
    <ele>4392.2</ele>
    <time>2026-06-22T11:02:10Z</time>
   </trkpt>
   <trkpt lat="-3.1054740" lon="37.3670290">
    <ele>4392.3</ele>
    <time>2026-06-22T11:02:11Z</time>
   </trkpt>
   <trkpt lat="-3.1054730" lon="37.3670330">
    <ele>4392.4</ele>
    <time>2026-06-22T11:02:12Z</time>
   </trkpt>
   <trkpt lat="-3.1054700" lon="37.3670360">
    <ele>4392.5</ele>
    <time>2026-06-22T11:02:13Z</time>
   </trkpt>
   <trkpt lat="-3.1054690" lon="37.3670390">
    <ele>4392.6</ele>
    <time>2026-06-22T11:02:14Z</time>
   </trkpt>
   <trkpt lat="-3.1054670" lon="37.3670420">
    <ele>4392.7</ele>
    <time>2026-06-22T11:02:15Z</time>
   </trkpt>
   <trkpt lat="-3.1054660" lon="37.3670460">
    <ele>4392.8</ele>
    <time>2026-06-22T11:02:16Z</time>
   </trkpt>
   <trkpt lat="-3.1054640" lon="37.3670490">
    <ele>4392.9</ele>
    <time>2026-06-22T11:02:17Z</time>
   </trkpt>
   <trkpt lat="-3.1054630" lon="37.3670550">
    <ele>4393.0</ele>
    <time>2026-06-22T11:02:18Z</time>
   </trkpt>
   <trkpt lat="-3.1054610" lon="37.3670570">
    <ele>4393.1</ele>
    <time>2026-06-22T11:02:19Z</time>
   </trkpt>
   <trkpt lat="-3.1054610" lon="37.3670610">
    <ele>4393.2</ele>
    <time>2026-06-22T11:02:20Z</time>
   </trkpt>
   <trkpt lat="-3.1054600" lon="37.3670650">
    <ele>4393.3</ele>
    <time>2026-06-22T11:02:21Z</time>
   </trkpt>
   <trkpt lat="-3.1054580" lon="37.3670700">
    <ele>4393.4</ele>
    <time>2026-06-22T11:02:22Z</time>
   </trkpt>
   <trkpt lat="-3.1054570" lon="37.3670730">
    <ele>4393.5</ele>
    <time>2026-06-22T11:02:23Z</time>
   </trkpt>
   <trkpt lat="-3.1054550" lon="37.3670770">
    <ele>4393.6</ele>
    <time>2026-06-22T11:02:24Z</time>
   </trkpt>
   <trkpt lat="-3.1054500" lon="37.3670810">
    <ele>4393.7</ele>
    <time>2026-06-22T11:02:25Z</time>
   </trkpt>
   <trkpt lat="-3.1054480" lon="37.3670820">
    <ele>4393.8</ele>
    <time>2026-06-22T11:02:26Z</time>
   </trkpt>
   <trkpt lat="-3.1054470" lon="37.3670850">
    <ele>4393.9</ele>
    <time>2026-06-22T11:02:27Z</time>
   </trkpt>
   <trkpt lat="-3.1054440" lon="37.3670890">
    <ele>4394.0</ele>
    <time>2026-06-22T11:02:28Z</time>
   </trkpt>
   <trkpt lat="-3.1054410" lon="37.3670920">
    <ele>4394.1</ele>
    <time>2026-06-22T11:02:29Z</time>
   </trkpt>
   <trkpt lat="-3.1054370" lon="37.3670950">
    <ele>4394.2</ele>
    <time>2026-06-22T11:02:30Z</time>
   </trkpt>
   <trkpt lat="-3.1054360" lon="37.3670960">
    <ele>4394.2</ele>
    <time>2026-06-22T11:02:31Z</time>
   </trkpt>
   <trkpt lat="-3.1054320" lon="37.3670990">
    <ele>4394.3</ele>
    <time>2026-06-22T11:02:32Z</time>
   </trkpt>
   <trkpt lat="-3.1054290" lon="37.3671050">
    <ele>4394.5</ele>
    <time>2026-06-22T11:02:33Z</time>
   </trkpt>
   <trkpt lat="-3.1054300" lon="37.3671070">
    <ele>4394.5</ele>
    <time>2026-06-22T11:02:34Z</time>
   </trkpt>
   <trkpt lat="-3.1054290" lon="37.3671130">
    <ele>4394.7</ele>
    <time>2026-06-22T11:02:35Z</time>
   </trkpt>
   <trkpt lat="-3.1054280" lon="37.3671170">
    <ele>4394.8</ele>
    <time>2026-06-22T11:02:36Z</time>
   </trkpt>
   <trkpt lat="-3.1054260" lon="37.3671210">
    <ele>4394.9</ele>
    <time>2026-06-22T11:02:37Z</time>
   </trkpt>
   <trkpt lat="-3.1054230" lon="37.3671250">
    <ele>4395.0</ele>
    <time>2026-06-22T11:02:38Z</time>
   </trkpt>
   <trkpt lat="-3.1054200" lon="37.3671300">
    <ele>4395.1</ele>
    <time>2026-06-22T11:02:39Z</time>
   </trkpt>
   <trkpt lat="-3.1054190" lon="37.3671340">
    <ele>4395.2</ele>
    <time>2026-06-22T11:02:40Z</time>
   </trkpt>
   <trkpt lat="-3.1054160" lon="37.3671380">
    <ele>4395.3</ele>
    <time>2026-06-22T11:02:41Z</time>
   </trkpt>
   <trkpt lat="-3.1054150" lon="37.3671430">
    <ele>4395.4</ele>
    <time>2026-06-22T11:02:42Z</time>
   </trkpt>
   <trkpt lat="-3.1054120" lon="37.3671480">
    <ele>4395.5</ele>
    <time>2026-06-22T11:02:43Z</time>
   </trkpt>
   <trkpt lat="-3.1054150" lon="37.3671460">
    <ele>4395.6</ele>
    <time>2026-06-22T11:02:44Z</time>
   </trkpt>
   <trkpt lat="-3.1054200" lon="37.3671490">
    <ele>4395.7</ele>
    <time>2026-06-22T11:02:45Z</time>
   </trkpt>
   <trkpt lat="-3.1054180" lon="37.3671560">
    <ele>4395.9</ele>
    <time>2026-06-22T11:02:46Z</time>
   </trkpt>
   <trkpt lat="-3.1054200" lon="37.3671600">
    <ele>4396.0</ele>
    <time>2026-06-22T11:02:47Z</time>
   </trkpt>
   <trkpt lat="-3.1054210" lon="37.3671640">
    <ele>4396.0</ele>
    <time>2026-06-22T11:02:48Z</time>
   </trkpt>
   <trkpt lat="-3.1054200" lon="37.3671700">
    <ele>4396.2</ele>
    <time>2026-06-22T11:02:49Z</time>
   </trkpt>
   <trkpt lat="-3.1054190" lon="37.3671740">
    <ele>4396.3</ele>
    <time>2026-06-22T11:02:50Z</time>
   </trkpt>
   <trkpt lat="-3.1054170" lon="37.3671800">
    <ele>4396.4</ele>
    <time>2026-06-22T11:02:51Z</time>
   </trkpt>
   <trkpt lat="-3.1054160" lon="37.3671830">
    <ele>4396.5</ele>
    <time>2026-06-22T11:02:52Z</time>
   </trkpt>
   <trkpt lat="-3.1054130" lon="37.3671810">
    <ele>4396.5</ele>
    <time>2026-06-22T11:02:53Z</time>
   </trkpt>
   <trkpt lat="-3.1054130" lon="37.3671940">
    <ele>4396.8</ele>
    <time>2026-06-22T11:02:54Z</time>
   </trkpt>
   <trkpt lat="-3.1054110" lon="37.3671970">
    <ele>4396.9</ele>
    <time>2026-06-22T11:02:55Z</time>
   </trkpt>
   <trkpt lat="-3.1054140" lon="37.3672000">
    <ele>4397.0</ele>
    <time>2026-06-22T11:02:56Z</time>
   </trkpt>
   <trkpt lat="-3.1054130" lon="37.3672040">
    <ele>4397.0</ele>
    <time>2026-06-22T11:02:57Z</time>
   </trkpt>
   <trkpt lat="-3.1054140" lon="37.3672090">
    <ele>4397.1</ele>
    <time>2026-06-22T11:02:58Z</time>
   </trkpt>
   <trkpt lat="-3.1054140" lon="37.3672150">
    <ele>4397.3</ele>
    <time>2026-06-22T11:02:59Z</time>
   </trkpt>
   <trkpt lat="-3.1054140" lon="37.3672170">
    <ele>4397.3</ele>
    <time>2026-06-22T11:03:00Z</time>
   </trkpt>
   <trkpt lat="-3.1054130" lon="37.3672220">
    <ele>4397.4</ele>
    <time>2026-06-22T11:03:01Z</time>
   </trkpt>
   <trkpt lat="-3.1054110" lon="37.3672260">
    <ele>4397.5</ele>
    <time>2026-06-22T11:03:02Z</time>
   </trkpt>
   <trkpt lat="-3.1054080" lon="37.3672300">
    <ele>4397.6</ele>
    <time>2026-06-22T11:03:03Z</time>
   </trkpt>
   <trkpt lat="-3.1054060" lon="37.3672350">
    <ele>4397.7</ele>
    <time>2026-06-22T11:03:04Z</time>
   </trkpt>
   <trkpt lat="-3.1054020" lon="37.3672380">
    <ele>4397.8</ele>
    <time>2026-06-22T11:03:05Z</time>
   </trkpt>
   <trkpt lat="-3.1053980" lon="37.3672420">
    <ele>4397.9</ele>
    <time>2026-06-22T11:03:06Z</time>
   </trkpt>
   <trkpt lat="-3.1053960" lon="37.3672450">
    <ele>4398.0</ele>
    <time>2026-06-22T11:03:07Z</time>
   </trkpt>
   <trkpt lat="-3.1053910" lon="37.3672480">
    <ele>4398.1</ele>
    <time>2026-06-22T11:03:08Z</time>
   </trkpt>
   <trkpt lat="-3.1053860" lon="37.3672480">
    <ele>4398.2</ele>
    <time>2026-06-22T11:03:09Z</time>
   </trkpt>
   <trkpt lat="-3.1053820" lon="37.3672460">
    <ele>4398.3</ele>
    <time>2026-06-22T11:03:10Z</time>
   </trkpt>
   <trkpt lat="-3.1053770" lon="37.3672450">
    <ele>4398.3</ele>
    <time>2026-06-22T11:03:11Z</time>
   </trkpt>
   <trkpt lat="-3.1053740" lon="37.3672470">
    <ele>4398.4</ele>
    <time>2026-06-22T11:03:12Z</time>
   </trkpt>
   <trkpt lat="-3.1053720" lon="37.3672510">
    <ele>4398.5</ele>
    <time>2026-06-22T11:03:13Z</time>
   </trkpt>
   <trkpt lat="-3.1053710" lon="37.3672560">
    <ele>4398.6</ele>
    <time>2026-06-22T11:03:14Z</time>
   </trkpt>
   <trkpt lat="-3.1053720" lon="37.3672610">
    <ele>4398.7</ele>
    <time>2026-06-22T11:03:15Z</time>
   </trkpt>
   <trkpt lat="-3.1053740" lon="37.3672660">
    <ele>4398.8</ele>
    <time>2026-06-22T11:03:16Z</time>
   </trkpt>
   <trkpt lat="-3.1053740" lon="37.3672720">
    <ele>4398.9</ele>
    <time>2026-06-22T11:03:17Z</time>
   </trkpt>
   <trkpt lat="-3.1053750" lon="37.3672760">
    <ele>4399.0</ele>
    <time>2026-06-22T11:03:18Z</time>
   </trkpt>
   <trkpt lat="-3.1053750" lon="37.3672810">
    <ele>4399.1</ele>
    <time>2026-06-22T11:03:19Z</time>
   </trkpt>
   <trkpt lat="-3.1053770" lon="37.3672860">
    <ele>4399.1</ele>
    <time>2026-06-22T11:03:20Z</time>
   </trkpt>
   <trkpt lat="-3.1053760" lon="37.3672900">
    <ele>4399.2</ele>
    <time>2026-06-22T11:03:21Z</time>
   </trkpt>
   <trkpt lat="-3.1053770" lon="37.3672950">
    <ele>4399.3</ele>
    <time>2026-06-22T11:03:22Z</time>
   </trkpt>
   <trkpt lat="-3.1053750" lon="37.3672990">
    <ele>4399.4</ele>
    <time>2026-06-22T11:03:23Z</time>
   </trkpt>
   <trkpt lat="-3.1053760" lon="37.3673040">
    <ele>4399.5</ele>
    <time>2026-06-22T11:03:24Z</time>
   </trkpt>
   <trkpt lat="-3.1053750" lon="37.3673090">
    <ele>4399.6</ele>
    <time>2026-06-22T11:03:25Z</time>
   </trkpt>
   <trkpt lat="-3.1053760" lon="37.3673140">
    <ele>4399.7</ele>
    <time>2026-06-22T11:03:26Z</time>
   </trkpt>
   <trkpt lat="-3.1053760" lon="37.3673190">
    <ele>4399.7</ele>
    <time>2026-06-22T11:03:27Z</time>
   </trkpt>
   <trkpt lat="-3.1053760" lon="37.3673240">
    <ele>4399.8</ele>
    <time>2026-06-22T11:03:28Z</time>
   </trkpt>
   <trkpt lat="-3.1053780" lon="37.3673280">
    <ele>4399.9</ele>
    <time>2026-06-22T11:03:29Z</time>
   </trkpt>
   <trkpt lat="-3.1053770" lon="37.3673350">
    <ele>4400.0</ele>
    <time>2026-06-22T11:03:30Z</time>
   </trkpt>
   <trkpt lat="-3.1053790" lon="37.3673410">
    <ele>4400.1</ele>
    <time>2026-06-22T11:03:31Z</time>
   </trkpt>
   <trkpt lat="-3.1053820" lon="37.3673460">
    <ele>4400.2</ele>
    <time>2026-06-22T11:03:32Z</time>
   </trkpt>
   <trkpt lat="-3.1053830" lon="37.3673500">
    <ele>4400.3</ele>
    <time>2026-06-22T11:03:33Z</time>
   </trkpt>
   <trkpt lat="-3.1053840" lon="37.3673590">
    <ele>4400.4</ele>
    <time>2026-06-22T11:03:34Z</time>
   </trkpt>
   <trkpt lat="-3.1053850" lon="37.3673610">
    <ele>4400.5</ele>
    <time>2026-06-22T11:03:35Z</time>
   </trkpt>
   <trkpt lat="-3.1053860" lon="37.3673650">
    <ele>4400.6</ele>
    <time>2026-06-22T11:03:36Z</time>
   </trkpt>
   <trkpt lat="-3.1053860" lon="37.3673700">
    <ele>4400.6</ele>
    <time>2026-06-22T11:03:37Z</time>
   </trkpt>
   <trkpt lat="-3.1053850" lon="37.3673740">
    <ele>4400.7</ele>
    <time>2026-06-22T11:03:38Z</time>
   </trkpt>
   <trkpt lat="-3.1053820" lon="37.3673800">
    <ele>4400.8</ele>
    <time>2026-06-22T11:03:39Z</time>
   </trkpt>
   <trkpt lat="-3.1053820" lon="37.3673840">
    <ele>4400.9</ele>
    <time>2026-06-22T11:03:40Z</time>
   </trkpt>
   <trkpt lat="-3.1053820" lon="37.3673890">
    <ele>4400.9</ele>
    <time>2026-06-22T11:03:41Z</time>
   </trkpt>
   <trkpt lat="-3.1053840" lon="37.3673940">
    <ele>4401.0</ele>
    <time>2026-06-22T11:03:42Z</time>
   </trkpt>
   <trkpt lat="-3.1053850" lon="37.3673980">
    <ele>4401.1</ele>
    <time>2026-06-22T11:03:43Z</time>
   </trkpt>
   <trkpt lat="-3.1053870" lon="37.3674030">
    <ele>4401.2</ele>
    <time>2026-06-22T11:03:44Z</time>
   </trkpt>
   <trkpt lat="-3.1053880" lon="37.3674070">
    <ele>4401.2</ele>
    <time>2026-06-22T11:03:45Z</time>
   </trkpt>
   <trkpt lat="-3.1053910" lon="37.3674110">
    <ele>4401.3</ele>
    <time>2026-06-22T11:03:46Z</time>
   </trkpt>
   <trkpt lat="-3.1053940" lon="37.3674180">
    <ele>4401.4</ele>
    <time>2026-06-22T11:03:47Z</time>
   </trkpt>
   <trkpt lat="-3.1053970" lon="37.3674220">
    <ele>4401.5</ele>
    <time>2026-06-22T11:03:48Z</time>
   </trkpt>
   <trkpt lat="-3.1053960" lon="37.3674270">
    <ele>4401.6</ele>
    <time>2026-06-22T11:03:49Z</time>
   </trkpt>
   <trkpt lat="-3.1053970" lon="37.3674320">
    <ele>4401.7</ele>
    <time>2026-06-22T11:03:50Z</time>
   </trkpt>
   <trkpt lat="-3.1053950" lon="37.3674370">
    <ele>4401.8</ele>
    <time>2026-06-22T11:03:51Z</time>
   </trkpt>
   <trkpt lat="-3.1053940" lon="37.3674410">
    <ele>4401.8</ele>
    <time>2026-06-22T11:03:52Z</time>
   </trkpt>
   <trkpt lat="-3.1053920" lon="37.3674470">
    <ele>4401.9</ele>
    <time>2026-06-22T11:03:53Z</time>
   </trkpt>
   <trkpt lat="-3.1053910" lon="37.3674500">
    <ele>4402.0</ele>
    <time>2026-06-22T11:03:54Z</time>
   </trkpt>
   <trkpt lat="-3.1053900" lon="37.3674550">
    <ele>4402.1</ele>
    <time>2026-06-22T11:03:55Z</time>
   </trkpt>
   <trkpt lat="-3.1053880" lon="37.3674570">
    <ele>4402.1</ele>
    <time>2026-06-22T11:03:56Z</time>
   </trkpt>
   <trkpt lat="-3.1053870" lon="37.3674600">
    <ele>4402.1</ele>
    <time>2026-06-22T11:03:57Z</time>
   </trkpt>
   <trkpt lat="-3.1053850" lon="37.3674620">
    <ele>4402.2</ele>
    <time>2026-06-22T11:03:58Z</time>
   </trkpt>
   <trkpt lat="-3.1053850" lon="37.3674650">
    <ele>4402.2</ele>
    <time>2026-06-22T11:03:59Z</time>
   </trkpt>
   <trkpt lat="-3.1053830" lon="37.3674660">
    <ele>4402.3</ele>
    <time>2026-06-22T11:04:00Z</time>
   </trkpt>
   <trkpt lat="-3.1053820" lon="37.3674690">
    <ele>4402.3</ele>
    <time>2026-06-22T11:04:01Z</time>
   </trkpt>
   <trkpt lat="-3.1053800" lon="37.3674710">
    <ele>4402.4</ele>
    <time>2026-06-22T11:04:02Z</time>
   </trkpt>
   <trkpt lat="-3.1053780" lon="37.3674750">
    <ele>4402.4</ele>
    <time>2026-06-22T11:04:03Z</time>
   </trkpt>
   <trkpt lat="-3.1053770" lon="37.3674770">
    <ele>4402.5</ele>
    <time>2026-06-22T11:04:04Z</time>
   </trkpt>
   <trkpt lat="-3.1053750" lon="37.3674850">
    <ele>4402.6</ele>
    <time>2026-06-22T11:04:05Z</time>
   </trkpt>
   <trkpt lat="-3.1053760" lon="37.3674870">
    <ele>4402.6</ele>
    <time>2026-06-22T11:04:06Z</time>
   </trkpt>
   <trkpt lat="-3.1053760" lon="37.3674900">
    <ele>4402.7</ele>
    <time>2026-06-22T11:04:07Z</time>
   </trkpt>
   <trkpt lat="-3.1053770" lon="37.3674930">
    <ele>4402.7</ele>
    <time>2026-06-22T11:04:08Z</time>
   </trkpt>
   <trkpt lat="-3.1053770" lon="37.3674970">
    <ele>4402.8</ele>
    <time>2026-06-22T11:04:09Z</time>
   </trkpt>
   <trkpt lat="-3.1053780" lon="37.3675010">
    <ele>4402.9</ele>
    <time>2026-06-22T11:04:10Z</time>
   </trkpt>
   <trkpt lat="-3.1053790" lon="37.3675060">
    <ele>4402.9</ele>
    <time>2026-06-22T11:04:11Z</time>
   </trkpt>
   <trkpt lat="-3.1053800" lon="37.3675090">
    <ele>4403.0</ele>
    <time>2026-06-22T11:04:12Z</time>
   </trkpt>
   <trkpt lat="-3.1053790" lon="37.3675120">
    <ele>4403.0</ele>
    <time>2026-06-22T11:04:13Z</time>
   </trkpt>
   <trkpt lat="-3.1053790" lon="37.3675180">
    <ele>4403.1</ele>
    <time>2026-06-22T11:04:14Z</time>
   </trkpt>
   <trkpt lat="-3.1053790" lon="37.3675210">
    <ele>4403.2</ele>
    <time>2026-06-22T11:04:15Z</time>
   </trkpt>
   <trkpt lat="-3.1053800" lon="37.3675230">
    <ele>4403.2</ele>
    <time>2026-06-22T11:04:16Z</time>
   </trkpt>
   <trkpt lat="-3.1053810" lon="37.3675260">
    <ele>4403.3</ele>
    <time>2026-06-22T11:04:17Z</time>
   </trkpt>
   <trkpt lat="-3.1053830" lon="37.3675300">
    <ele>4403.3</ele>
    <time>2026-06-22T11:04:18Z</time>
   </trkpt>
   <trkpt lat="-3.1053870" lon="37.3675300">
    <ele>4403.4</ele>
    <time>2026-06-22T11:04:19Z</time>
   </trkpt>
   <trkpt lat="-3.1053900" lon="37.3675410">
    <ele>4403.6</ele>
    <time>2026-06-22T11:04:20Z</time>
   </trkpt>
   <trkpt lat="-3.1053910" lon="37.3675420">
    <ele>4403.6</ele>
    <time>2026-06-22T11:04:21Z</time>
   </trkpt>
   <trkpt lat="-3.1053910" lon="37.3675430">
    <ele>4403.6</ele>
    <time>2026-06-22T11:04:22Z</time>
   </trkpt>
   <trkpt lat="-3.1053910" lon="37.3675420">
    <ele>4403.6</ele>
    <time>2026-06-22T11:04:23Z</time>
   </trkpt>
   <trkpt lat="-3.1053920" lon="37.3675450">
    <ele>4403.7</ele>
    <time>2026-06-22T11:04:24Z</time>
   </trkpt>
   <trkpt lat="-3.1053920" lon="37.3675500">
    <ele>4403.8</ele>
    <time>2026-06-22T11:04:25Z</time>
   </trkpt>
   <trkpt lat="-3.1053930" lon="37.3675530">
    <ele>4403.8</ele>
    <time>2026-06-22T11:04:26Z</time>
   </trkpt>
   <trkpt lat="-3.1053920" lon="37.3675590">
    <ele>4403.9</ele>
    <time>2026-06-22T11:04:27Z</time>
   </trkpt>
   <trkpt lat="-3.1053900" lon="37.3675610">
    <ele>4403.9</ele>
    <time>2026-06-22T11:04:28Z</time>
   </trkpt>
   <trkpt lat="-3.1053880" lon="37.3675650">
    <ele>4404.0</ele>
    <time>2026-06-22T11:04:29Z</time>
   </trkpt>
   <trkpt lat="-3.1053850" lon="37.3675700">
    <ele>4404.1</ele>
    <time>2026-06-22T11:04:30Z</time>
   </trkpt>
   <trkpt lat="-3.1053840" lon="37.3675730">
    <ele>4404.2</ele>
    <time>2026-06-22T11:04:31Z</time>
   </trkpt>
   <trkpt lat="-3.1053830" lon="37.3675760">
    <ele>4404.2</ele>
    <time>2026-06-22T11:04:32Z</time>
   </trkpt>
   <trkpt lat="-3.1053810" lon="37.3675810">
    <ele>4404.3</ele>
    <time>2026-06-22T11:04:33Z</time>
   </trkpt>
   <trkpt lat="-3.1053800" lon="37.3675850">
    <ele>4404.4</ele>
    <time>2026-06-22T11:04:34Z</time>
   </trkpt>
   <trkpt lat="-3.1053780" lon="37.3675860">
    <ele>4404.4</ele>
    <time>2026-06-22T11:04:35Z</time>
   </trkpt>
   <trkpt lat="-3.1053760" lon="37.3675900">
    <ele>4404.5</ele>
    <time>2026-06-22T11:04:36Z</time>
   </trkpt>
   <trkpt lat="-3.1053730" lon="37.3675930">
    <ele>4404.5</ele>
    <time>2026-06-22T11:04:37Z</time>
   </trkpt>
   <trkpt lat="-3.1053690" lon="37.3675970">
    <ele>4404.6</ele>
    <time>2026-06-22T11:04:38Z</time>
   </trkpt>
   <trkpt lat="-3.1053670" lon="37.3675990">
    <ele>4404.7</ele>
    <time>2026-06-22T11:04:39Z</time>
   </trkpt>
   <trkpt lat="-3.1053640" lon="37.3676010">
    <ele>4404.7</ele>
    <time>2026-06-22T11:04:40Z</time>
   </trkpt>
   <trkpt lat="-3.1053620" lon="37.3676020">
    <ele>4404.7</ele>
    <time>2026-06-22T11:04:41Z</time>
   </trkpt>
   <trkpt lat="-3.1053580" lon="37.3676050">
    <ele>4404.8</ele>
    <time>2026-06-22T11:04:42Z</time>
   </trkpt>
   <trkpt lat="-3.1053550" lon="37.3676070">
    <ele>4404.9</ele>
    <time>2026-06-22T11:04:43Z</time>
   </trkpt>
   <trkpt lat="-3.1053530" lon="37.3676090">
    <ele>4404.9</ele>
    <time>2026-06-22T11:04:44Z</time>
   </trkpt>
   <trkpt lat="-3.1053490" lon="37.3676120">
    <ele>4405.0</ele>
    <time>2026-06-22T11:04:45Z</time>
   </trkpt>
   <trkpt lat="-3.1053470" lon="37.3676150">
    <ele>4405.1</ele>
    <time>2026-06-22T11:04:46Z</time>
   </trkpt>
   <trkpt lat="-3.1053440" lon="37.3676190">
    <ele>4405.2</ele>
    <time>2026-06-22T11:04:47Z</time>
   </trkpt>
   <trkpt lat="-3.1053420" lon="37.3676210">
    <ele>4405.2</ele>
    <time>2026-06-22T11:04:48Z</time>
   </trkpt>
   <trkpt lat="-3.1053400" lon="37.3676240">
    <ele>4405.3</ele>
    <time>2026-06-22T11:04:49Z</time>
   </trkpt>
   <trkpt lat="-3.1053400" lon="37.3676270">
    <ele>4405.3</ele>
    <time>2026-06-22T11:04:50Z</time>
   </trkpt>
   <trkpt lat="-3.1053390" lon="37.3676320">
    <ele>4405.4</ele>
    <time>2026-06-22T11:04:51Z</time>
   </trkpt>
   <trkpt lat="-3.1053410" lon="37.3676360">
    <ele>4405.5</ele>
    <time>2026-06-22T11:04:52Z</time>
   </trkpt>
   <trkpt lat="-3.1053420" lon="37.3676410">
    <ele>4405.6</ele>
    <time>2026-06-22T11:04:53Z</time>
   </trkpt>
   <trkpt lat="-3.1053420" lon="37.3676450">
    <ele>4405.6</ele>
    <time>2026-06-22T11:04:54Z</time>
   </trkpt>
   <trkpt lat="-3.1053420" lon="37.3676490">
    <ele>4405.7</ele>
    <time>2026-06-22T11:04:55Z</time>
   </trkpt>
   <trkpt lat="-3.1053400" lon="37.3676540">
    <ele>4405.8</ele>
    <time>2026-06-22T11:04:56Z</time>
   </trkpt>
   <trkpt lat="-3.1053390" lon="37.3676560">
    <ele>4405.8</ele>
    <time>2026-06-22T11:04:57Z</time>
   </trkpt>
   <trkpt lat="-3.1053360" lon="37.3676620">
    <ele>4405.9</ele>
    <time>2026-06-22T11:04:58Z</time>
   </trkpt>
   <trkpt lat="-3.1053360" lon="37.3676650">
    <ele>4406.0</ele>
    <time>2026-06-22T11:04:59Z</time>
   </trkpt>
   <trkpt lat="-3.1053350" lon="37.3676700">
    <ele>4406.1</ele>
    <time>2026-06-22T11:05:00Z</time>
   </trkpt>
   <trkpt lat="-3.1053350" lon="37.3676740">
    <ele>4406.2</ele>
    <time>2026-06-22T11:05:01Z</time>
   </trkpt>
   <trkpt lat="-3.1053350" lon="37.3676790">
    <ele>4406.2</ele>
    <time>2026-06-22T11:05:02Z</time>
   </trkpt>
   <trkpt lat="-3.1053360" lon="37.3676850">
    <ele>4406.4</ele>
    <time>2026-06-22T11:05:03Z</time>
   </trkpt>
   <trkpt lat="-3.1053380" lon="37.3676880">
    <ele>4406.4</ele>
    <time>2026-06-22T11:05:04Z</time>
   </trkpt>
   <trkpt lat="-3.1053400" lon="37.3676930">
    <ele>4406.5</ele>
    <time>2026-06-22T11:05:05Z</time>
   </trkpt>
   <trkpt lat="-3.1053410" lon="37.3676970">
    <ele>4406.6</ele>
    <time>2026-06-22T11:05:06Z</time>
   </trkpt>
   <trkpt lat="-3.1053410" lon="37.3677010">
    <ele>4406.7</ele>
    <time>2026-06-22T11:05:07Z</time>
   </trkpt>
   <trkpt lat="-3.1053410" lon="37.3677050">
    <ele>4406.7</ele>
    <time>2026-06-22T11:05:08Z</time>
   </trkpt>
   <trkpt lat="-3.1053370" lon="37.3677070">
    <ele>4406.8</ele>
    <time>2026-06-22T11:05:09Z</time>
   </trkpt>
   <trkpt lat="-3.1053360" lon="37.3677110">
    <ele>4406.9</ele>
    <time>2026-06-22T11:05:10Z</time>
   </trkpt>
   <trkpt lat="-3.1053330" lon="37.3677140">
    <ele>4407.0</ele>
    <time>2026-06-22T11:05:11Z</time>
   </trkpt>
   <trkpt lat="-3.1053300" lon="37.3677180">
    <ele>4407.1</ele>
    <time>2026-06-22T11:05:12Z</time>
   </trkpt>
   <trkpt lat="-3.1053290" lon="37.3677200">
    <ele>4407.1</ele>
    <time>2026-06-22T11:05:13Z</time>
   </trkpt>
   <trkpt lat="-3.1053270" lon="37.3677250">
    <ele>4407.2</ele>
    <time>2026-06-22T11:05:14Z</time>
   </trkpt>
   <trkpt lat="-3.1053260" lon="37.3677290">
    <ele>4407.3</ele>
    <time>2026-06-22T11:05:15Z</time>
   </trkpt>
   <trkpt lat="-3.1053250" lon="37.3677340">
    <ele>4407.4</ele>
    <time>2026-06-22T11:05:16Z</time>
   </trkpt>
   <trkpt lat="-3.1053240" lon="37.3677380">
    <ele>4407.5</ele>
    <time>2026-06-22T11:05:17Z</time>
   </trkpt>
   <trkpt lat="-3.1053230" lon="37.3677420">
    <ele>4407.5</ele>
    <time>2026-06-22T11:05:18Z</time>
   </trkpt>
   <trkpt lat="-3.1053220" lon="37.3677460">
    <ele>4407.6</ele>
    <time>2026-06-22T11:05:19Z</time>
   </trkpt>
   <trkpt lat="-3.1053200" lon="37.3677500">
    <ele>4407.7</ele>
    <time>2026-06-22T11:05:20Z</time>
   </trkpt>
   <trkpt lat="-3.1053180" lon="37.3677520">
    <ele>4407.7</ele>
    <time>2026-06-22T11:05:21Z</time>
   </trkpt>
   <trkpt lat="-3.1053160" lon="37.3677550">
    <ele>4407.8</ele>
    <time>2026-06-22T11:05:22Z</time>
   </trkpt>
   <trkpt lat="-3.1053110" lon="37.3677580">
    <ele>4407.9</ele>
    <time>2026-06-22T11:05:23Z</time>
   </trkpt>
   <trkpt lat="-3.1053070" lon="37.3677600">
    <ele>4408.0</ele>
    <time>2026-06-22T11:05:24Z</time>
   </trkpt>
   <trkpt lat="-3.1053020" lon="37.3677610">
    <ele>4408.1</ele>
    <time>2026-06-22T11:05:25Z</time>
   </trkpt>
   <trkpt lat="-3.1052990" lon="37.3677620">
    <ele>4408.2</ele>
    <time>2026-06-22T11:05:26Z</time>
   </trkpt>
   <trkpt lat="-3.1052940" lon="37.3677630">
    <ele>4408.3</ele>
    <time>2026-06-22T11:05:27Z</time>
   </trkpt>
   <trkpt lat="-3.1052870" lon="37.3677660">
    <ele>4408.4</ele>
    <time>2026-06-22T11:05:28Z</time>
   </trkpt>
   <trkpt lat="-3.1052850" lon="37.3677650">
    <ele>4408.4</ele>
    <time>2026-06-22T11:05:29Z</time>
   </trkpt>
   <trkpt lat="-3.1052810" lon="37.3677670">
    <ele>4408.5</ele>
    <time>2026-06-22T11:05:30Z</time>
   </trkpt>
   <trkpt lat="-3.1052800" lon="37.3677700">
    <ele>4408.6</ele>
    <time>2026-06-22T11:05:31Z</time>
   </trkpt>
   <trkpt lat="-3.1052760" lon="37.3677730">
    <ele>4408.7</ele>
    <time>2026-06-22T11:05:32Z</time>
   </trkpt>
   <trkpt lat="-3.1052760" lon="37.3677760">
    <ele>4408.7</ele>
    <time>2026-06-22T11:05:33Z</time>
   </trkpt>
   <trkpt lat="-3.1052720" lon="37.3677800">
    <ele>4408.8</ele>
    <time>2026-06-22T11:05:34Z</time>
   </trkpt>
   <trkpt lat="-3.1052710" lon="37.3677840">
    <ele>4408.9</ele>
    <time>2026-06-22T11:05:35Z</time>
   </trkpt>
   <trkpt lat="-3.1052700" lon="37.3677870">
    <ele>4409.0</ele>
    <time>2026-06-22T11:05:36Z</time>
   </trkpt>
   <trkpt lat="-3.1052670" lon="37.3677920">
    <ele>4409.1</ele>
    <time>2026-06-22T11:05:37Z</time>
   </trkpt>
   <trkpt lat="-3.1052680" lon="37.3677950">
    <ele>4409.2</ele>
    <time>2026-06-22T11:05:38Z</time>
   </trkpt>
   <trkpt lat="-3.1052670" lon="37.3677980">
    <ele>4409.2</ele>
    <time>2026-06-22T11:05:39Z</time>
   </trkpt>
   <trkpt lat="-3.1052650" lon="37.3678020">
    <ele>4409.3</ele>
    <time>2026-06-22T11:05:40Z</time>
   </trkpt>
   <trkpt lat="-3.1052630" lon="37.3678060">
    <ele>4409.4</ele>
    <time>2026-06-22T11:05:41Z</time>
   </trkpt>
   <trkpt lat="-3.1052630" lon="37.3678090">
    <ele>4409.5</ele>
    <time>2026-06-22T11:05:42Z</time>
   </trkpt>
   <trkpt lat="-3.1052630" lon="37.3678120">
    <ele>4409.5</ele>
    <time>2026-06-22T11:05:43Z</time>
   </trkpt>
   <trkpt lat="-3.1052610" lon="37.3678130">
    <ele>4409.6</ele>
    <time>2026-06-22T11:05:44Z</time>
   </trkpt>
   <trkpt lat="-3.1052600" lon="37.3678170">
    <ele>4409.6</ele>
    <time>2026-06-22T11:05:45Z</time>
   </trkpt>
   <trkpt lat="-3.1052570" lon="37.3678190">
    <ele>4409.7</ele>
    <time>2026-06-22T11:05:46Z</time>
   </trkpt>
   <trkpt lat="-3.1052550" lon="37.3678230">
    <ele>4409.8</ele>
    <time>2026-06-22T11:05:47Z</time>
   </trkpt>
   <trkpt lat="-3.1052530" lon="37.3678270">
    <ele>4409.9</ele>
    <time>2026-06-22T11:05:48Z</time>
   </trkpt>
   <trkpt lat="-3.1052530" lon="37.3678310">
    <ele>4410.0</ele>
    <time>2026-06-22T11:05:49Z</time>
   </trkpt>
   <trkpt lat="-3.1052500" lon="37.3678340">
    <ele>4410.1</ele>
    <time>2026-06-22T11:05:50Z</time>
   </trkpt>
   <trkpt lat="-3.1052490" lon="37.3678390">
    <ele>4410.2</ele>
    <time>2026-06-22T11:05:51Z</time>
   </trkpt>
   <trkpt lat="-3.1052480" lon="37.3678430">
    <ele>4410.2</ele>
    <time>2026-06-22T11:05:52Z</time>
   </trkpt>
   <trkpt lat="-3.1052480" lon="37.3678460">
    <ele>4410.3</ele>
    <time>2026-06-22T11:05:53Z</time>
   </trkpt>
   <trkpt lat="-3.1052470" lon="37.3678510">
    <ele>4410.4</ele>
    <time>2026-06-22T11:05:54Z</time>
   </trkpt>
   <trkpt lat="-3.1052440" lon="37.3678560">
    <ele>4410.5</ele>
    <time>2026-06-22T11:05:55Z</time>
   </trkpt>
   <trkpt lat="-3.1052450" lon="37.3678600">
    <ele>4410.6</ele>
    <time>2026-06-22T11:05:56Z</time>
   </trkpt>
   <trkpt lat="-3.1052460" lon="37.3678650">
    <ele>4410.7</ele>
    <time>2026-06-22T11:05:57Z</time>
   </trkpt>
   <trkpt lat="-3.1052460" lon="37.3678710">
    <ele>4410.8</ele>
    <time>2026-06-22T11:05:58Z</time>
   </trkpt>
   <trkpt lat="-3.1052490" lon="37.3678740">
    <ele>4410.9</ele>
    <time>2026-06-22T11:05:59Z</time>
   </trkpt>
   <trkpt lat="-3.1052480" lon="37.3678800">
    <ele>4411.0</ele>
    <time>2026-06-22T11:06:00Z</time>
   </trkpt>
   <trkpt lat="-3.1052480" lon="37.3678830">
    <ele>4411.1</ele>
    <time>2026-06-22T11:06:01Z</time>
   </trkpt>
   <trkpt lat="-3.1052470" lon="37.3678890">
    <ele>4411.2</ele>
    <time>2026-06-22T11:06:02Z</time>
   </trkpt>
   <trkpt lat="-3.1052480" lon="37.3678920">
    <ele>4411.2</ele>
    <time>2026-06-22T11:06:03Z</time>
   </trkpt>
   <trkpt lat="-3.1052450" lon="37.3678990">
    <ele>4411.4</ele>
    <time>2026-06-22T11:06:04Z</time>
   </trkpt>
   <trkpt lat="-3.1052440" lon="37.3679020">
    <ele>4411.5</ele>
    <time>2026-06-22T11:06:05Z</time>
   </trkpt>
   <trkpt lat="-3.1052420" lon="37.3679060">
    <ele>4411.5</ele>
    <time>2026-06-22T11:06:06Z</time>
   </trkpt>
   <trkpt lat="-3.1052420" lon="37.3679120">
    <ele>4411.7</ele>
    <time>2026-06-22T11:06:07Z</time>
   </trkpt>
   <trkpt lat="-3.1052400" lon="37.3679160">
    <ele>4411.8</ele>
    <time>2026-06-22T11:06:08Z</time>
   </trkpt>
   <trkpt lat="-3.1052400" lon="37.3679210">
    <ele>4411.9</ele>
    <time>2026-06-22T11:06:09Z</time>
   </trkpt>
   <trkpt lat="-3.1052400" lon="37.3679250">
    <ele>4411.9</ele>
    <time>2026-06-22T11:06:10Z</time>
   </trkpt>
   <trkpt lat="-3.1052380" lon="37.3679300">
    <ele>4412.0</ele>
    <time>2026-06-22T11:06:11Z</time>
   </trkpt>
   <trkpt lat="-3.1052370" lon="37.3679320">
    <ele>4412.1</ele>
    <time>2026-06-22T11:06:12Z</time>
   </trkpt>
   <trkpt lat="-3.1052360" lon="37.3679360">
    <ele>4412.2</ele>
    <time>2026-06-22T11:06:13Z</time>
   </trkpt>
   <trkpt lat="-3.1052350" lon="37.3679410">
    <ele>4412.3</ele>
    <time>2026-06-22T11:06:14Z</time>
   </trkpt>
   <trkpt lat="-3.1052330" lon="37.3679460">
    <ele>4412.4</ele>
    <time>2026-06-22T11:06:15Z</time>
   </trkpt>
   <trkpt lat="-3.1052330" lon="37.3679500">
    <ele>4412.4</ele>
    <time>2026-06-22T11:06:16Z</time>
   </trkpt>
   <trkpt lat="-3.1052320" lon="37.3679540">
    <ele>4412.5</ele>
    <time>2026-06-22T11:06:17Z</time>
   </trkpt>
   <trkpt lat="-3.1052330" lon="37.3679600">
    <ele>4412.6</ele>
    <time>2026-06-22T11:06:18Z</time>
   </trkpt>
   <trkpt lat="-3.1052330" lon="37.3679640">
    <ele>4412.7</ele>
    <time>2026-06-22T11:06:19Z</time>
   </trkpt>
   <trkpt lat="-3.1052320" lon="37.3679700">
    <ele>4412.8</ele>
    <time>2026-06-22T11:06:20Z</time>
   </trkpt>
   <trkpt lat="-3.1052310" lon="37.3679740">
    <ele>4412.9</ele>
    <time>2026-06-22T11:06:21Z</time>
   </trkpt>
   <trkpt lat="-3.1052290" lon="37.3679770">
    <ele>4413.0</ele>
    <time>2026-06-22T11:06:22Z</time>
   </trkpt>
   <trkpt lat="-3.1052280" lon="37.3679820">
    <ele>4413.1</ele>
    <time>2026-06-22T11:06:23Z</time>
   </trkpt>
   <trkpt lat="-3.1052260" lon="37.3679860">
    <ele>4413.2</ele>
    <time>2026-06-22T11:06:24Z</time>
   </trkpt>
   <trkpt lat="-3.1052240" lon="37.3679890">
    <ele>4413.3</ele>
    <time>2026-06-22T11:06:25Z</time>
   </trkpt>
   <trkpt lat="-3.1052210" lon="37.3679940">
    <ele>4413.4</ele>
    <time>2026-06-22T11:06:26Z</time>
   </trkpt>
   <trkpt lat="-3.1052180" lon="37.3679970">
    <ele>4413.5</ele>
    <time>2026-06-22T11:06:27Z</time>
   </trkpt>
   <trkpt lat="-3.1052160" lon="37.3680000">
    <ele>4413.5</ele>
    <time>2026-06-22T11:06:28Z</time>
   </trkpt>
   <trkpt lat="-3.1052130" lon="37.3680050">
    <ele>4413.6</ele>
    <time>2026-06-22T11:06:29Z</time>
   </trkpt>
   <trkpt lat="-3.1052120" lon="37.3680080">
    <ele>4413.7</ele>
    <time>2026-06-22T11:06:30Z</time>
   </trkpt>
   <trkpt lat="-3.1052120" lon="37.3680140">
    <ele>4413.8</ele>
    <time>2026-06-22T11:06:31Z</time>
   </trkpt>
   <trkpt lat="-3.1052130" lon="37.3680220">
    <ele>4414.0</ele>
    <time>2026-06-22T11:06:32Z</time>
   </trkpt>
   <trkpt lat="-3.1052150" lon="37.3680270">
    <ele>4414.1</ele>
    <time>2026-06-22T11:06:33Z</time>
   </trkpt>
   <trkpt lat="-3.1052170" lon="37.3680330">
    <ele>4414.2</ele>
    <time>2026-06-22T11:06:34Z</time>
   </trkpt>
   <trkpt lat="-3.1052210" lon="37.3680420">
    <ele>4414.4</ele>
    <time>2026-06-22T11:06:35Z</time>
   </trkpt>
   <trkpt lat="-3.1052230" lon="37.3680470">
    <ele>4414.5</ele>
    <time>2026-06-22T11:06:36Z</time>
   </trkpt>
   <trkpt lat="-3.1052180" lon="37.3680500">
    <ele>4414.6</ele>
    <time>2026-06-22T11:06:37Z</time>
   </trkpt>
   <trkpt lat="-3.1052160" lon="37.3680540">
    <ele>4414.7</ele>
    <time>2026-06-22T11:06:38Z</time>
   </trkpt>
   <trkpt lat="-3.1052140" lon="37.3680590">
    <ele>4414.8</ele>
    <time>2026-06-22T11:06:39Z</time>
   </trkpt>
   <trkpt lat="-3.1052130" lon="37.3680650">
    <ele>4414.9</ele>
    <time>2026-06-22T11:06:40Z</time>
   </trkpt>
   <trkpt lat="-3.1052150" lon="37.3680690">
    <ele>4415.0</ele>
    <time>2026-06-22T11:06:41Z</time>
   </trkpt>
   <trkpt lat="-3.1052160" lon="37.3680740">
    <ele>4415.1</ele>
    <time>2026-06-22T11:06:42Z</time>
   </trkpt>
   <trkpt lat="-3.1052180" lon="37.3680790">
    <ele>4415.2</ele>
    <time>2026-06-22T11:06:43Z</time>
   </trkpt>
   <trkpt lat="-3.1052190" lon="37.3680850">
    <ele>4415.3</ele>
    <time>2026-06-22T11:06:44Z</time>
   </trkpt>
   <trkpt lat="-3.1052210" lon="37.3680880">
    <ele>4415.4</ele>
    <time>2026-06-22T11:06:45Z</time>
   </trkpt>
   <trkpt lat="-3.1052220" lon="37.3680930">
    <ele>4415.5</ele>
    <time>2026-06-22T11:06:46Z</time>
   </trkpt>
   <trkpt lat="-3.1052200" lon="37.3680950">
    <ele>4415.5</ele>
    <time>2026-06-22T11:06:47Z</time>
   </trkpt>
   <trkpt lat="-3.1052190" lon="37.3680990">
    <ele>4415.6</ele>
    <time>2026-06-22T11:06:48Z</time>
   </trkpt>
   <trkpt lat="-3.1052170" lon="37.3681040">
    <ele>4415.7</ele>
    <time>2026-06-22T11:06:49Z</time>
   </trkpt>
   <trkpt lat="-3.1052150" lon="37.3681090">
    <ele>4415.8</ele>
    <time>2026-06-22T11:06:50Z</time>
   </trkpt>
   <trkpt lat="-3.1052120" lon="37.3681130">
    <ele>4415.9</ele>
    <time>2026-06-22T11:06:51Z</time>
   </trkpt>
   <trkpt lat="-3.1052100" lon="37.3681180">
    <ele>4416.0</ele>
    <time>2026-06-22T11:06:52Z</time>
   </trkpt>
   <trkpt lat="-3.1052070" lon="37.3681210">
    <ele>4416.1</ele>
    <time>2026-06-22T11:06:53Z</time>
   </trkpt>
   <trkpt lat="-3.1052050" lon="37.3681250">
    <ele>4416.2</ele>
    <time>2026-06-22T11:06:54Z</time>
   </trkpt>
   <trkpt lat="-3.1052040" lon="37.3681280">
    <ele>4416.2</ele>
    <time>2026-06-22T11:06:55Z</time>
   </trkpt>
   <trkpt lat="-3.1052020" lon="37.3681320">
    <ele>4416.3</ele>
    <time>2026-06-22T11:06:56Z</time>
   </trkpt>
   <trkpt lat="-3.1052010" lon="37.3681350">
    <ele>4416.4</ele>
    <time>2026-06-22T11:06:57Z</time>
   </trkpt>
   <trkpt lat="-3.1051980" lon="37.3681410">
    <ele>4416.5</ele>
    <time>2026-06-22T11:06:58Z</time>
   </trkpt>
   <trkpt lat="-3.1051960" lon="37.3681450">
    <ele>4416.6</ele>
    <time>2026-06-22T11:06:59Z</time>
   </trkpt>
   <trkpt lat="-3.1051930" lon="37.3681480">
    <ele>4416.7</ele>
    <time>2026-06-22T11:07:00Z</time>
   </trkpt>
   <trkpt lat="-3.1051930" lon="37.3681520">
    <ele>4416.7</ele>
    <time>2026-06-22T11:07:01Z</time>
   </trkpt>
   <trkpt lat="-3.1051880" lon="37.3681560">
    <ele>4416.9</ele>
    <time>2026-06-22T11:07:02Z</time>
   </trkpt>
   <trkpt lat="-3.1051860" lon="37.3681610">
    <ele>4416.9</ele>
    <time>2026-06-22T11:07:03Z</time>
   </trkpt>
   <trkpt lat="-3.1051850" lon="37.3681670">
    <ele>4417.1</ele>
    <time>2026-06-22T11:07:04Z</time>
   </trkpt>
   <trkpt lat="-3.1051850" lon="37.3681710">
    <ele>4417.1</ele>
    <time>2026-06-22T11:07:05Z</time>
   </trkpt>
   <trkpt lat="-3.1051860" lon="37.3681760">
    <ele>4417.2</ele>
    <time>2026-06-22T11:07:06Z</time>
   </trkpt>
   <trkpt lat="-3.1051880" lon="37.3681790">
    <ele>4417.3</ele>
    <time>2026-06-22T11:07:07Z</time>
   </trkpt>
   <trkpt lat="-3.1051900" lon="37.3681840">
    <ele>4417.4</ele>
    <time>2026-06-22T11:07:08Z</time>
   </trkpt>
   <trkpt lat="-3.1051890" lon="37.3681910">
    <ele>4417.5</ele>
    <time>2026-06-22T11:07:09Z</time>
   </trkpt>
   <trkpt lat="-3.1051900" lon="37.3681920">
    <ele>4417.5</ele>
    <time>2026-06-22T11:07:10Z</time>
   </trkpt>
   <trkpt lat="-3.1051900" lon="37.3681970">
    <ele>4417.6</ele>
    <time>2026-06-22T11:07:11Z</time>
   </trkpt>
   <trkpt lat="-3.1051900" lon="37.3682020">
    <ele>4417.7</ele>
    <time>2026-06-22T11:07:12Z</time>
   </trkpt>
   <trkpt lat="-3.1051900" lon="37.3682060">
    <ele>4417.8</ele>
    <time>2026-06-22T11:07:13Z</time>
   </trkpt>
   <trkpt lat="-3.1051880" lon="37.3682110">
    <ele>4417.9</ele>
    <time>2026-06-22T11:07:14Z</time>
   </trkpt>
   <trkpt lat="-3.1051860" lon="37.3682130">
    <ele>4417.9</ele>
    <time>2026-06-22T11:07:15Z</time>
   </trkpt>
   <trkpt lat="-3.1051830" lon="37.3682180">
    <ele>4418.1</ele>
    <time>2026-06-22T11:07:16Z</time>
   </trkpt>
   <trkpt lat="-3.1051820" lon="37.3682200">
    <ele>4418.1</ele>
    <time>2026-06-22T11:07:17Z</time>
   </trkpt>
   <trkpt lat="-3.1051800" lon="37.3682240">
    <ele>4418.2</ele>
    <time>2026-06-22T11:07:18Z</time>
   </trkpt>
   <trkpt lat="-3.1051770" lon="37.3682300">
    <ele>4418.3</ele>
    <time>2026-06-22T11:07:19Z</time>
   </trkpt>
   <trkpt lat="-3.1051730" lon="37.3682350">
    <ele>4418.4</ele>
    <time>2026-06-22T11:07:20Z</time>
   </trkpt>
   <trkpt lat="-3.1051720" lon="37.3682400">
    <ele>4418.5</ele>
    <time>2026-06-22T11:07:21Z</time>
   </trkpt>
   <trkpt lat="-3.1051700" lon="37.3682430">
    <ele>4418.6</ele>
    <time>2026-06-22T11:07:22Z</time>
   </trkpt>
   <trkpt lat="-3.1051690" lon="37.3682500">
    <ele>4418.7</ele>
    <time>2026-06-22T11:07:23Z</time>
   </trkpt>
   <trkpt lat="-3.1051680" lon="37.3682560">
    <ele>4418.8</ele>
    <time>2026-06-22T11:07:24Z</time>
   </trkpt>
   <trkpt lat="-3.1051700" lon="37.3682580">
    <ele>4418.9</ele>
    <time>2026-06-22T11:07:25Z</time>
   </trkpt>
   <trkpt lat="-3.1051720" lon="37.3682620">
    <ele>4418.9</ele>
    <time>2026-06-22T11:07:26Z</time>
   </trkpt>
   <trkpt lat="-3.1051770" lon="37.3682670">
    <ele>4419.1</ele>
    <time>2026-06-22T11:07:27Z</time>
   </trkpt>
   <trkpt lat="-3.1051780" lon="37.3682700">
    <ele>4419.1</ele>
    <time>2026-06-22T11:07:28Z</time>
   </trkpt>
   <trkpt lat="-3.1051780" lon="37.3682750">
    <ele>4419.2</ele>
    <time>2026-06-22T11:07:29Z</time>
   </trkpt>
   <trkpt lat="-3.1051770" lon="37.3682790">
    <ele>4419.3</ele>
    <time>2026-06-22T11:07:30Z</time>
   </trkpt>
   <trkpt lat="-3.1051730" lon="37.3682810">
    <ele>4419.4</ele>
    <time>2026-06-22T11:07:31Z</time>
   </trkpt>
   <trkpt lat="-3.1051700" lon="37.3682850">
    <ele>4419.4</ele>
    <time>2026-06-22T11:07:32Z</time>
   </trkpt>
   <trkpt lat="-3.1051680" lon="37.3682900">
    <ele>4419.5</ele>
    <time>2026-06-22T11:07:33Z</time>
   </trkpt>
   <trkpt lat="-3.1051700" lon="37.3682980">
    <ele>4419.7</ele>
    <time>2026-06-22T11:07:34Z</time>
   </trkpt>
   <trkpt lat="-3.1051720" lon="37.3683020">
    <ele>4419.8</ele>
    <time>2026-06-22T11:07:35Z</time>
   </trkpt>
   <trkpt lat="-3.1051750" lon="37.3683090">
    <ele>4419.9</ele>
    <time>2026-06-22T11:07:36Z</time>
   </trkpt>
   <trkpt lat="-3.1051770" lon="37.3683140">
    <ele>4420.0</ele>
    <time>2026-06-22T11:07:37Z</time>
   </trkpt>
   <trkpt lat="-3.1051780" lon="37.3683200">
    <ele>4420.1</ele>
    <time>2026-06-22T11:07:38Z</time>
   </trkpt>
   <trkpt lat="-3.1051780" lon="37.3683230">
    <ele>4420.1</ele>
    <time>2026-06-22T11:07:39Z</time>
   </trkpt>
   <trkpt lat="-3.1051750" lon="37.3683280">
    <ele>4420.2</ele>
    <time>2026-06-22T11:07:40Z</time>
   </trkpt>
   <trkpt lat="-3.1051720" lon="37.3683330">
    <ele>4420.3</ele>
    <time>2026-06-22T11:07:41Z</time>
   </trkpt>
   <trkpt lat="-3.1051690" lon="37.3683390">
    <ele>4420.5</ele>
    <time>2026-06-22T11:07:42Z</time>
   </trkpt>
   <trkpt lat="-3.1051660" lon="37.3683430">
    <ele>4420.5</ele>
    <time>2026-06-22T11:07:43Z</time>
   </trkpt>
   <trkpt lat="-3.1051620" lon="37.3683460">
    <ele>4420.6</ele>
    <time>2026-06-22T11:07:44Z</time>
   </trkpt>
   <trkpt lat="-3.1051580" lon="37.3683490">
    <ele>4420.7</ele>
    <time>2026-06-22T11:07:45Z</time>
   </trkpt>
   <trkpt lat="-3.1051540" lon="37.3683540">
    <ele>4420.8</ele>
    <time>2026-06-22T11:07:46Z</time>
   </trkpt>
   <trkpt lat="-3.1051510" lon="37.3683580">
    <ele>4420.9</ele>
    <time>2026-06-22T11:07:47Z</time>
   </trkpt>
   <trkpt lat="-3.1051500" lon="37.3683610">
    <ele>4421.0</ele>
    <time>2026-06-22T11:07:48Z</time>
   </trkpt>
   <trkpt lat="-3.1051470" lon="37.3683660">
    <ele>4421.1</ele>
    <time>2026-06-22T11:07:49Z</time>
   </trkpt>
   <trkpt lat="-3.1051450" lon="37.3683680">
    <ele>4421.1</ele>
    <time>2026-06-22T11:07:50Z</time>
   </trkpt>
   <trkpt lat="-3.1051420" lon="37.3683720">
    <ele>4421.2</ele>
    <time>2026-06-22T11:07:51Z</time>
   </trkpt>
   <trkpt lat="-3.1051400" lon="37.3683790">
    <ele>4421.3</ele>
    <time>2026-06-22T11:07:52Z</time>
   </trkpt>
   <trkpt lat="-3.1051380" lon="37.3683850">
    <ele>4421.4</ele>
    <time>2026-06-22T11:07:53Z</time>
   </trkpt>
   <trkpt lat="-3.1051380" lon="37.3683920">
    <ele>4421.5</ele>
    <time>2026-06-22T11:07:54Z</time>
   </trkpt>
   <trkpt lat="-3.1051390" lon="37.3683970">
    <ele>4421.6</ele>
    <time>2026-06-22T11:07:55Z</time>
   </trkpt>
   <trkpt lat="-3.1051400" lon="37.3684040">
    <ele>4421.7</ele>
    <time>2026-06-22T11:07:56Z</time>
   </trkpt>
   <trkpt lat="-3.1051390" lon="37.3684090">
    <ele>4421.8</ele>
    <time>2026-06-22T11:07:57Z</time>
   </trkpt>
   <trkpt lat="-3.1051380" lon="37.3684140">
    <ele>4421.9</ele>
    <time>2026-06-22T11:07:58Z</time>
   </trkpt>
   <trkpt lat="-3.1051360" lon="37.3684190">
    <ele>4422.0</ele>
    <time>2026-06-22T11:07:59Z</time>
   </trkpt>
   <trkpt lat="-3.1051340" lon="37.3684230">
    <ele>4422.0</ele>
    <time>2026-06-22T11:08:00Z</time>
   </trkpt>
   <trkpt lat="-3.1051330" lon="37.3684280">
    <ele>4422.1</ele>
    <time>2026-06-22T11:08:01Z</time>
   </trkpt>
   <trkpt lat="-3.1051310" lon="37.3684320">
    <ele>4422.2</ele>
    <time>2026-06-22T11:08:02Z</time>
   </trkpt>
   <trkpt lat="-3.1051310" lon="37.3684350">
    <ele>4422.2</ele>
    <time>2026-06-22T11:08:03Z</time>
   </trkpt>
   <trkpt lat="-3.1051290" lon="37.3684410">
    <ele>4422.3</ele>
    <time>2026-06-22T11:08:04Z</time>
   </trkpt>
   <trkpt lat="-3.1051270" lon="37.3684460">
    <ele>4422.4</ele>
    <time>2026-06-22T11:08:05Z</time>
   </trkpt>
   <trkpt lat="-3.1051260" lon="37.3684500">
    <ele>4422.5</ele>
    <time>2026-06-22T11:08:06Z</time>
   </trkpt>
   <trkpt lat="-3.1051230" lon="37.3684560">
    <ele>4422.6</ele>
    <time>2026-06-22T11:08:07Z</time>
   </trkpt>
   <trkpt lat="-3.1051210" lon="37.3684620">
    <ele>4422.7</ele>
    <time>2026-06-22T11:08:08Z</time>
   </trkpt>
   <trkpt lat="-3.1051210" lon="37.3684670">
    <ele>4422.8</ele>
    <time>2026-06-22T11:08:09Z</time>
   </trkpt>
   <trkpt lat="-3.1051220" lon="37.3684710">
    <ele>4422.8</ele>
    <time>2026-06-22T11:08:10Z</time>
   </trkpt>
   <trkpt lat="-3.1051230" lon="37.3684800">
    <ele>4423.0</ele>
    <time>2026-06-22T11:08:11Z</time>
   </trkpt>
   <trkpt lat="-3.1051220" lon="37.3684830">
    <ele>4423.0</ele>
    <time>2026-06-22T11:08:12Z</time>
   </trkpt>
   <trkpt lat="-3.1051190" lon="37.3684830">
    <ele>4423.1</ele>
    <time>2026-06-22T11:08:13Z</time>
   </trkpt>
   <trkpt lat="-3.1051160" lon="37.3684840">
    <ele>4423.1</ele>
    <time>2026-06-22T11:08:14Z</time>
   </trkpt>
   <trkpt lat="-3.1051130" lon="37.3684880">
    <ele>4423.2</ele>
    <time>2026-06-22T11:08:15Z</time>
   </trkpt>
   <trkpt lat="-3.1051100" lon="37.3684930">
    <ele>4423.3</ele>
    <time>2026-06-22T11:08:16Z</time>
   </trkpt>
   <trkpt lat="-3.1051100" lon="37.3684920">
    <ele>4423.3</ele>
    <time>2026-06-22T11:08:17Z</time>
   </trkpt>
   <trkpt lat="-3.1051090" lon="37.3684910">
    <ele>4423.3</ele>
    <time>2026-06-22T11:08:18Z</time>
   </trkpt>
   <trkpt lat="-3.1051050" lon="37.3685020">
    <ele>4423.5</ele>
    <time>2026-06-22T11:08:19Z</time>
   </trkpt>
   <trkpt lat="-3.1051070" lon="37.3685060">
    <ele>4423.6</ele>
    <time>2026-06-22T11:08:20Z</time>
   </trkpt>
   <trkpt lat="-3.1051040" lon="37.3685140">
    <ele>4423.7</ele>
    <time>2026-06-22T11:08:21Z</time>
   </trkpt>
   <trkpt lat="-3.1051020" lon="37.3685170">
    <ele>4423.8</ele>
    <time>2026-06-22T11:08:22Z</time>
   </trkpt>
   <trkpt lat="-3.1050990" lon="37.3685190">
    <ele>4423.8</ele>
    <time>2026-06-22T11:08:23Z</time>
   </trkpt>
   <trkpt lat="-3.1050990" lon="37.3685160">
    <ele>4423.9</ele>
    <time>2026-06-22T11:08:24Z</time>
   </trkpt>
   <trkpt lat="-3.1050910" lon="37.3685260">
    <ele>4424.0</ele>
    <time>2026-06-22T11:08:25Z</time>
   </trkpt>
   <trkpt lat="-3.1050870" lon="37.3685260">
    <ele>4424.1</ele>
    <time>2026-06-22T11:08:26Z</time>
   </trkpt>
   <trkpt lat="-3.1050820" lon="37.3685290">
    <ele>4424.2</ele>
    <time>2026-06-22T11:08:27Z</time>
   </trkpt>
   <trkpt lat="-3.1050770" lon="37.3685300">
    <ele>4424.3</ele>
    <time>2026-06-22T11:08:28Z</time>
   </trkpt>
   <trkpt lat="-3.1050720" lon="37.3685320">
    <ele>4424.4</ele>
    <time>2026-06-22T11:08:29Z</time>
   </trkpt>
   <trkpt lat="-3.1050670" lon="37.3685340">
    <ele>4424.4</ele>
    <time>2026-06-22T11:08:30Z</time>
   </trkpt>
   <trkpt lat="-3.1050630" lon="37.3685370">
    <ele>4424.5</ele>
    <time>2026-06-22T11:08:31Z</time>
   </trkpt>
   <trkpt lat="-3.1050630" lon="37.3685390">
    <ele>4424.5</ele>
    <time>2026-06-22T11:08:32Z</time>
   </trkpt>
   <trkpt lat="-3.1050590" lon="37.3685440">
    <ele>4424.6</ele>
    <time>2026-06-22T11:08:33Z</time>
   </trkpt>
   <trkpt lat="-3.1050580" lon="37.3685490">
    <ele>4424.7</ele>
    <time>2026-06-22T11:08:34Z</time>
   </trkpt>
   <trkpt lat="-3.1050550" lon="37.3685540">
    <ele>4424.8</ele>
    <time>2026-06-22T11:08:35Z</time>
   </trkpt>
   <trkpt lat="-3.1050540" lon="37.3685600">
    <ele>4424.9</ele>
    <time>2026-06-22T11:08:36Z</time>
   </trkpt>
   <trkpt lat="-3.1050520" lon="37.3685630">
    <ele>4424.9</ele>
    <time>2026-06-22T11:08:37Z</time>
   </trkpt>
   <trkpt lat="-3.1050520" lon="37.3685690">
    <ele>4425.0</ele>
    <time>2026-06-22T11:08:38Z</time>
   </trkpt>
   <trkpt lat="-3.1050540" lon="37.3685740">
    <ele>4425.1</ele>
    <time>2026-06-22T11:08:39Z</time>
   </trkpt>
   <trkpt lat="-3.1050560" lon="37.3685790">
    <ele>4425.2</ele>
    <time>2026-06-22T11:08:40Z</time>
   </trkpt>
   <trkpt lat="-3.1050590" lon="37.3685850">
    <ele>4425.3</ele>
    <time>2026-06-22T11:08:41Z</time>
   </trkpt>
   <trkpt lat="-3.1050630" lon="37.3685920">
    <ele>4425.4</ele>
    <time>2026-06-22T11:08:42Z</time>
   </trkpt>
   <trkpt lat="-3.1050640" lon="37.3685960">
    <ele>4425.5</ele>
    <time>2026-06-22T11:08:43Z</time>
   </trkpt>
   <trkpt lat="-3.1050630" lon="37.3686020">
    <ele>4425.6</ele>
    <time>2026-06-22T11:08:44Z</time>
   </trkpt>
   <trkpt lat="-3.1050610" lon="37.3686060">
    <ele>4425.6</ele>
    <time>2026-06-22T11:08:45Z</time>
   </trkpt>
   <trkpt lat="-3.1050600" lon="37.3686070">
    <ele>4425.7</ele>
    <time>2026-06-22T11:08:46Z</time>
   </trkpt>
   <trkpt lat="-3.1050590" lon="37.3686150">
    <ele>4425.8</ele>
    <time>2026-06-22T11:08:47Z</time>
   </trkpt>
   <trkpt lat="-3.1050600" lon="37.3686200">
    <ele>4425.9</ele>
    <time>2026-06-22T11:08:48Z</time>
   </trkpt>
   <trkpt lat="-3.1050630" lon="37.3686240">
    <ele>4425.9</ele>
    <time>2026-06-22T11:08:49Z</time>
   </trkpt>
   <trkpt lat="-3.1050650" lon="37.3686310">
    <ele>4426.0</ele>
    <time>2026-06-22T11:08:50Z</time>
   </trkpt>
   <trkpt lat="-3.1050650" lon="37.3686350">
    <ele>4426.1</ele>
    <time>2026-06-22T11:08:51Z</time>
   </trkpt>
   <trkpt lat="-3.1050650" lon="37.3686420">
    <ele>4426.2</ele>
    <time>2026-06-22T11:08:52Z</time>
   </trkpt>
   <trkpt lat="-3.1050640" lon="37.3686450">
    <ele>4426.2</ele>
    <time>2026-06-22T11:08:53Z</time>
   </trkpt>
   <trkpt lat="-3.1050620" lon="37.3686520">
    <ele>4426.3</ele>
    <time>2026-06-22T11:08:54Z</time>
   </trkpt>
   <trkpt lat="-3.1050580" lon="37.3686560">
    <ele>4426.4</ele>
    <time>2026-06-22T11:08:55Z</time>
   </trkpt>
   <trkpt lat="-3.1050560" lon="37.3686590">
    <ele>4426.5</ele>
    <time>2026-06-22T11:08:56Z</time>
   </trkpt>
   <trkpt lat="-3.1050510" lon="37.3686630">
    <ele>4426.6</ele>
    <time>2026-06-22T11:08:57Z</time>
   </trkpt>
   <trkpt lat="-3.1050470" lon="37.3686680">
    <ele>4426.6</ele>
    <time>2026-06-22T11:08:58Z</time>
   </trkpt>
   <trkpt lat="-3.1050450" lon="37.3686680">
    <ele>4426.7</ele>
    <time>2026-06-22T11:08:59Z</time>
   </trkpt>
   <trkpt lat="-3.1050480" lon="37.3686680">
    <ele>4426.7</ele>
    <time>2026-06-22T11:09:00Z</time>
   </trkpt>
   <trkpt lat="-3.1050480" lon="37.3686680">
    <ele>4426.7</ele>
    <time>2026-06-22T11:09:01Z</time>
   </trkpt>
   <trkpt lat="-3.1050490" lon="37.3686670">
    <ele>4426.7</ele>
    <time>2026-06-22T11:09:02Z</time>
   </trkpt>
   <trkpt lat="-3.1050480" lon="37.3686670">
    <ele>4426.8</ele>
    <time>2026-06-22T11:09:03Z</time>
   </trkpt>
   <trkpt lat="-3.1050490" lon="37.3686670">
    <ele>4426.8</ele>
    <time>2026-06-22T11:09:04Z</time>
   </trkpt>
   <trkpt lat="-3.1050490" lon="37.3686660">
    <ele>4426.8</ele>
    <time>2026-06-22T11:09:05Z</time>
   </trkpt>
   <trkpt lat="-3.1050490" lon="37.3686660">
    <ele>4426.8</ele>
    <time>2026-06-22T11:09:06Z</time>
   </trkpt>
   <trkpt lat="-3.1050480" lon="37.3686650">
    <ele>4426.8</ele>
    <time>2026-06-22T11:09:07Z</time>
   </trkpt>
   <trkpt lat="-3.1050480" lon="37.3686650">
    <ele>4426.8</ele>
    <time>2026-06-22T11:09:08Z</time>
   </trkpt>
   <trkpt lat="-3.1050480" lon="37.3686650">
    <ele>4426.8</ele>
    <time>2026-06-22T11:09:09Z</time>
   </trkpt>
   <trkpt lat="-3.1050530" lon="37.3686740">
    <ele>4426.9</ele>
    <time>2026-06-22T11:09:10Z</time>
   </trkpt>
   <trkpt lat="-3.1050570" lon="37.3686750">
    <ele>4427.0</ele>
    <time>2026-06-22T11:09:11Z</time>
   </trkpt>
   <trkpt lat="-3.1050570" lon="37.3686750">
    <ele>4427.0</ele>
    <time>2026-06-22T11:09:12Z</time>
   </trkpt>
   <trkpt lat="-3.1050570" lon="37.3686750">
    <ele>4427.0</ele>
    <time>2026-06-22T11:09:13Z</time>
   </trkpt>
   <trkpt lat="-3.1050500" lon="37.3686670">
    <ele>4427.2</ele>
    <time>2026-06-22T11:09:14Z</time>
   </trkpt>
   <trkpt lat="-3.1050510" lon="37.3686670">
    <ele>4427.2</ele>
    <time>2026-06-22T11:09:15Z</time>
   </trkpt>
   <trkpt lat="-3.1050500" lon="37.3686680">
    <ele>4427.2</ele>
    <time>2026-06-22T11:09:16Z</time>
   </trkpt>
   <trkpt lat="-3.1050490" lon="37.3686670">
    <ele>4427.2</ele>
    <time>2026-06-22T11:09:17Z</time>
   </trkpt>
   <trkpt lat="-3.1050490" lon="37.3686670">
    <ele>4427.2</ele>
    <time>2026-06-22T11:09:18Z</time>
   </trkpt>
   <trkpt lat="-3.1050490" lon="37.3686680">
    <ele>4427.2</ele>
    <time>2026-06-22T11:09:19Z</time>
   </trkpt>
   <trkpt lat="-3.1050490" lon="37.3686680">
    <ele>4427.2</ele>
    <time>2026-06-22T11:09:20Z</time>
   </trkpt>
   <trkpt lat="-3.1050490" lon="37.3686680">
    <ele>4427.2</ele>
    <time>2026-06-22T11:09:21Z</time>
   </trkpt>
   <trkpt lat="-3.1050490" lon="37.3686680">
    <ele>4427.2</ele>
    <time>2026-06-22T11:09:22Z</time>
   </trkpt>
   <trkpt lat="-3.1050490" lon="37.3686680">
    <ele>4427.2</ele>
    <time>2026-06-22T11:09:23Z</time>
   </trkpt>
   <trkpt lat="-3.1050480" lon="37.3686670">
    <ele>4427.2</ele>
    <time>2026-06-22T11:09:24Z</time>
   </trkpt>
   <trkpt lat="-3.1050480" lon="37.3686670">
    <ele>4427.2</ele>
    <time>2026-06-22T11:09:25Z</time>
   </trkpt>
   <trkpt lat="-3.1050470" lon="37.3686670">
    <ele>4427.3</ele>
    <time>2026-06-22T11:09:26Z</time>
   </trkpt>
   <trkpt lat="-3.1050470" lon="37.3686670">
    <ele>4427.3</ele>
    <time>2026-06-22T11:09:27Z</time>
   </trkpt>
   <trkpt lat="-3.1050480" lon="37.3686670">
    <ele>4427.3</ele>
    <time>2026-06-22T11:09:28Z</time>
   </trkpt>
   <trkpt lat="-3.1050470" lon="37.3686670">
    <ele>4427.3</ele>
    <time>2026-06-22T11:09:29Z</time>
   </trkpt>
   <trkpt lat="-3.1050480" lon="37.3686670">
    <ele>4427.3</ele>
    <time>2026-06-22T11:09:30Z</time>
   </trkpt>
   <trkpt lat="-3.1050480" lon="37.3686670">
    <ele>4427.3</ele>
    <time>2026-06-22T11:09:31Z</time>
   </trkpt>
   <trkpt lat="-3.1050470" lon="37.3686670">
    <ele>4427.3</ele>
    <time>2026-06-22T11:09:32Z</time>
   </trkpt>
   <trkpt lat="-3.1050470" lon="37.3686670">
    <ele>4427.3</ele>
    <time>2026-06-22T11:09:33Z</time>
   </trkpt>
   <trkpt lat="-3.1050480" lon="37.3686680">
    <ele>4427.3</ele>
    <time>2026-06-22T11:09:34Z</time>
   </trkpt>
   <trkpt lat="-3.1050490" lon="37.3686670">
    <ele>4427.4</ele>
    <time>2026-06-22T11:09:35Z</time>
   </trkpt>
   <trkpt lat="-3.1050500" lon="37.3686680">
    <ele>4427.4</ele>
    <time>2026-06-22T11:09:36Z</time>
   </trkpt>
   <trkpt lat="-3.1050490" lon="37.3686670">
    <ele>4427.4</ele>
    <time>2026-06-22T11:09:37Z</time>
   </trkpt>
   <trkpt lat="-3.1050490" lon="37.3686680">
    <ele>4427.4</ele>
    <time>2026-06-22T11:09:38Z</time>
   </trkpt>
   <trkpt lat="-3.1050480" lon="37.3686680">
    <ele>4427.4</ele>
    <time>2026-06-22T11:09:39Z</time>
   </trkpt>
   <trkpt lat="-3.1050440" lon="37.3686690">
    <ele>4427.5</ele>
    <time>2026-06-22T11:09:40Z</time>
   </trkpt>
   <trkpt lat="-3.1050430" lon="37.3686740">
    <ele>4427.5</ele>
    <time>2026-06-22T11:09:41Z</time>
   </trkpt>
   <trkpt lat="-3.1050420" lon="37.3686780">
    <ele>4427.6</ele>
    <time>2026-06-22T11:09:42Z</time>
   </trkpt>
   <trkpt lat="-3.1050450" lon="37.3686760">
    <ele>4427.7</ele>
    <time>2026-06-22T11:09:43Z</time>
   </trkpt>
   <trkpt lat="-3.1050460" lon="37.3686740">
    <ele>4427.7</ele>
    <time>2026-06-22T11:09:44Z</time>
   </trkpt>
   <trkpt lat="-3.1050460" lon="37.3686730">
    <ele>4427.7</ele>
    <time>2026-06-22T11:09:45Z</time>
   </trkpt>
   <trkpt lat="-3.1050470" lon="37.3686740">
    <ele>4427.7</ele>
    <time>2026-06-22T11:09:46Z</time>
   </trkpt>
   <trkpt lat="-3.1050480" lon="37.3686750">
    <ele>4427.7</ele>
    <time>2026-06-22T11:09:47Z</time>
   </trkpt>
   <trkpt lat="-3.1050480" lon="37.3686740">
    <ele>4427.7</ele>
    <time>2026-06-22T11:09:48Z</time>
   </trkpt>
   <trkpt lat="-3.1050490" lon="37.3686770">
    <ele>4427.8</ele>
    <time>2026-06-22T11:09:49Z</time>
   </trkpt>
   <trkpt lat="-3.1050480" lon="37.3686780">
    <ele>4427.8</ele>
    <time>2026-06-22T11:09:50Z</time>
   </trkpt>
   <trkpt lat="-3.1050480" lon="37.3686790">
    <ele>4427.8</ele>
    <time>2026-06-22T11:09:51Z</time>
   </trkpt>
   <trkpt lat="-3.1050480" lon="37.3686790">
    <ele>4427.8</ele>
    <time>2026-06-22T11:09:52Z</time>
   </trkpt>
   <trkpt lat="-3.1050480" lon="37.3686790">
    <ele>4427.8</ele>
    <time>2026-06-22T11:09:53Z</time>
   </trkpt>
   <trkpt lat="-3.1050470" lon="37.3686780">
    <ele>4427.8</ele>
    <time>2026-06-22T11:09:54Z</time>
   </trkpt>
   <trkpt lat="-3.1050470" lon="37.3686780">
    <ele>4427.8</ele>
    <time>2026-06-22T11:09:55Z</time>
   </trkpt>
   <trkpt lat="-3.1050460" lon="37.3686780">
    <ele>4427.9</ele>
    <time>2026-06-22T11:09:56Z</time>
   </trkpt>
   <trkpt lat="-3.1050450" lon="37.3686780">
    <ele>4427.9</ele>
    <time>2026-06-22T11:09:57Z</time>
   </trkpt>
   <trkpt lat="-3.1050450" lon="37.3686790">
    <ele>4427.9</ele>
    <time>2026-06-22T11:09:58Z</time>
   </trkpt>
   <trkpt lat="-3.1050450" lon="37.3686780">
    <ele>4427.9</ele>
    <time>2026-06-22T11:09:59Z</time>
   </trkpt>
   <trkpt lat="-3.1050440" lon="37.3686790">
    <ele>4427.9</ele>
    <time>2026-06-22T11:10:00Z</time>
   </trkpt>
   <trkpt lat="-3.1050440" lon="37.3686790">
    <ele>4427.9</ele>
    <time>2026-06-22T11:10:01Z</time>
   </trkpt>
   <trkpt lat="-3.1050430" lon="37.3686790">
    <ele>4427.9</ele>
    <time>2026-06-22T11:10:02Z</time>
   </trkpt>
   <trkpt lat="-3.1050440" lon="37.3686790">
    <ele>4427.9</ele>
    <time>2026-06-22T11:10:03Z</time>
   </trkpt>
   <trkpt lat="-3.1050430" lon="37.3686800">
    <ele>4428.0</ele>
    <time>2026-06-22T11:10:04Z</time>
   </trkpt>
   <trkpt lat="-3.1050430" lon="37.3686810">
    <ele>4428.0</ele>
    <time>2026-06-22T11:10:05Z</time>
   </trkpt>
   <trkpt lat="-3.1050420" lon="37.3686810">
    <ele>4428.0</ele>
    <time>2026-06-22T11:10:06Z</time>
   </trkpt>
   <trkpt lat="-3.1050410" lon="37.3686810">
    <ele>4428.0</ele>
    <time>2026-06-22T11:10:07Z</time>
   </trkpt>
   <trkpt lat="-3.1050410" lon="37.3686810">
    <ele>4428.0</ele>
    <time>2026-06-22T11:10:08Z</time>
   </trkpt>
   <trkpt lat="-3.1050410" lon="37.3686810">
    <ele>4428.0</ele>
    <time>2026-06-22T11:10:09Z</time>
   </trkpt>
   <trkpt lat="-3.1050410" lon="37.3686820">
    <ele>4428.0</ele>
    <time>2026-06-22T11:10:10Z</time>
   </trkpt>
   <trkpt lat="-3.1050400" lon="37.3686820">
    <ele>4428.0</ele>
    <time>2026-06-22T11:10:11Z</time>
   </trkpt>
   <trkpt lat="-3.1050400" lon="37.3686820">
    <ele>4428.0</ele>
    <time>2026-06-22T11:10:12Z</time>
   </trkpt>
   <trkpt lat="-3.1050400" lon="37.3686810">
    <ele>4428.0</ele>
    <time>2026-06-22T11:10:13Z</time>
   </trkpt>
   <trkpt lat="-3.1050400" lon="37.3686810">
    <ele>4428.0</ele>
    <time>2026-06-22T11:10:14Z</time>
   </trkpt>
   <trkpt lat="-3.1050390" lon="37.3686820">
    <ele>4428.1</ele>
    <time>2026-06-22T11:10:15Z</time>
   </trkpt>
   <trkpt lat="-3.1050380" lon="37.3686830">
    <ele>4428.1</ele>
    <time>2026-06-22T11:10:16Z</time>
   </trkpt>
   <trkpt lat="-3.1050370" lon="37.3686820">
    <ele>4428.1</ele>
    <time>2026-06-22T11:10:17Z</time>
   </trkpt>
   <trkpt lat="-3.1050370" lon="37.3686820">
    <ele>4428.1</ele>
    <time>2026-06-22T11:10:18Z</time>
   </trkpt>
   <trkpt lat="-3.1050350" lon="37.3686830">
    <ele>4428.1</ele>
    <time>2026-06-22T11:10:19Z</time>
   </trkpt>
   <trkpt lat="-3.1050310" lon="37.3686830">
    <ele>4428.2</ele>
    <time>2026-06-22T11:10:20Z</time>
   </trkpt>
   <trkpt lat="-3.1050290" lon="37.3686850">
    <ele>4428.2</ele>
    <time>2026-06-22T11:10:21Z</time>
   </trkpt>
   <trkpt lat="-3.1050290" lon="37.3686860">
    <ele>4428.2</ele>
    <time>2026-06-22T11:10:22Z</time>
   </trkpt>
   <trkpt lat="-3.1050290" lon="37.3686860">
    <ele>4428.2</ele>
    <time>2026-06-22T11:10:23Z</time>
   </trkpt>
   <trkpt lat="-3.1050290" lon="37.3686860">
    <ele>4428.2</ele>
    <time>2026-06-22T11:10:24Z</time>
   </trkpt>
   <trkpt lat="-3.1050290" lon="37.3686850">
    <ele>4428.2</ele>
    <time>2026-06-22T11:10:25Z</time>
   </trkpt>
   <trkpt lat="-3.1050290" lon="37.3686850">
    <ele>4428.2</ele>
    <time>2026-06-22T11:10:26Z</time>
   </trkpt>
   <trkpt lat="-3.1050290" lon="37.3686850">
    <ele>4428.2</ele>
    <time>2026-06-22T11:10:27Z</time>
   </trkpt>
   <trkpt lat="-3.1050290" lon="37.3686850">
    <ele>4428.2</ele>
    <time>2026-06-22T11:10:28Z</time>
   </trkpt>
   <trkpt lat="-3.1050300" lon="37.3686850">
    <ele>4428.3</ele>
    <time>2026-06-22T11:10:29Z</time>
   </trkpt>
   <trkpt lat="-3.1050300" lon="37.3686850">
    <ele>4428.3</ele>
    <time>2026-06-22T11:10:30Z</time>
   </trkpt>
   <trkpt lat="-3.1050300" lon="37.3686850">
    <ele>4428.3</ele>
    <time>2026-06-22T11:10:31Z</time>
   </trkpt>
   <trkpt lat="-3.1050310" lon="37.3686850">
    <ele>4428.3</ele>
    <time>2026-06-22T11:10:32Z</time>
   </trkpt>
   <trkpt lat="-3.1050310" lon="37.3686850">
    <ele>4428.3</ele>
    <time>2026-06-22T11:10:33Z</time>
   </trkpt>
   <trkpt lat="-3.1050310" lon="37.3686840">
    <ele>4428.3</ele>
    <time>2026-06-22T11:10:34Z</time>
   </trkpt>
   <trkpt lat="-3.1050320" lon="37.3686840">
    <ele>4428.3</ele>
    <time>2026-06-22T11:10:35Z</time>
   </trkpt>
   <trkpt lat="-3.1050320" lon="37.3686840">
    <ele>4428.3</ele>
    <time>2026-06-22T11:10:36Z</time>
   </trkpt>
   <trkpt lat="-3.1050310" lon="37.3686850">
    <ele>4428.3</ele>
    <time>2026-06-22T11:10:37Z</time>
   </trkpt>
   <trkpt lat="-3.1050310" lon="37.3686860">
    <ele>4428.3</ele>
    <time>2026-06-22T11:10:38Z</time>
   </trkpt>
   <trkpt lat="-3.1050310" lon="37.3686850">
    <ele>4428.3</ele>
    <time>2026-06-22T11:10:39Z</time>
   </trkpt>
   <trkpt lat="-3.1050320" lon="37.3686830">
    <ele>4428.4</ele>
    <time>2026-06-22T11:10:40Z</time>
   </trkpt>
   <trkpt lat="-3.1050320" lon="37.3686830">
    <ele>4428.4</ele>
    <time>2026-06-22T11:10:41Z</time>
   </trkpt>
   <trkpt lat="-3.1050320" lon="37.3686830">
    <ele>4428.4</ele>
    <time>2026-06-22T11:10:42Z</time>
   </trkpt>
   <trkpt lat="-3.1050320" lon="37.3686830">
    <ele>4428.4</ele>
    <time>2026-06-22T11:10:43Z</time>
   </trkpt>
   <trkpt lat="-3.1050330" lon="37.3686830">
    <ele>4428.4</ele>
    <time>2026-06-22T11:10:44Z</time>
   </trkpt>
   <trkpt lat="-3.1050350" lon="37.3686830">
    <ele>4428.4</ele>
    <time>2026-06-22T11:10:45Z</time>
   </trkpt>
   <trkpt lat="-3.1050360" lon="37.3686830">
    <ele>4428.4</ele>
    <time>2026-06-22T11:10:46Z</time>
   </trkpt>
   <trkpt lat="-3.1050360" lon="37.3686830">
    <ele>4428.4</ele>
    <time>2026-06-22T11:10:47Z</time>
   </trkpt>
   <trkpt lat="-3.1050360" lon="37.3686830">
    <ele>4428.4</ele>
    <time>2026-06-22T11:10:48Z</time>
   </trkpt>
   <trkpt lat="-3.1050370" lon="37.3686830">
    <ele>4428.4</ele>
    <time>2026-06-22T11:10:49Z</time>
   </trkpt>
   <trkpt lat="-3.1050360" lon="37.3686820">
    <ele>4428.4</ele>
    <time>2026-06-22T11:10:50Z</time>
   </trkpt>
   <trkpt lat="-3.1050370" lon="37.3686830">
    <ele>4428.5</ele>
    <time>2026-06-22T11:10:51Z</time>
   </trkpt>
   <trkpt lat="-3.1050380" lon="37.3686830">
    <ele>4428.5</ele>
    <time>2026-06-22T11:10:52Z</time>
   </trkpt>
   <trkpt lat="-3.1050380" lon="37.3686830">
    <ele>4428.5</ele>
    <time>2026-06-22T11:10:53Z</time>
   </trkpt>
   <trkpt lat="-3.1050380" lon="37.3686820">
    <ele>4428.5</ele>
    <time>2026-06-22T11:10:54Z</time>
   </trkpt>
   <trkpt lat="-3.1050380" lon="37.3686830">
    <ele>4428.5</ele>
    <time>2026-06-22T11:10:55Z</time>
   </trkpt>
   <trkpt lat="-3.1050370" lon="37.3686830">
    <ele>4428.5</ele>
    <time>2026-06-22T11:10:56Z</time>
   </trkpt>
   <trkpt lat="-3.1050370" lon="37.3686850">
    <ele>4428.5</ele>
    <time>2026-06-22T11:10:57Z</time>
   </trkpt>
   <trkpt lat="-3.1050360" lon="37.3686840">
    <ele>4428.6</ele>
    <time>2026-06-22T11:10:58Z</time>
   </trkpt>
   <trkpt lat="-3.1050370" lon="37.3686840">
    <ele>4428.6</ele>
    <time>2026-06-22T11:10:59Z</time>
   </trkpt>
   <trkpt lat="-3.1050370" lon="37.3686830">
    <ele>4428.6</ele>
    <time>2026-06-22T11:11:00Z</time>
   </trkpt>
   <trkpt lat="-3.1050370" lon="37.3686830">
    <ele>4428.6</ele>
    <time>2026-06-22T11:11:01Z</time>
   </trkpt>
   <trkpt lat="-3.1050380" lon="37.3686830">
    <ele>4428.6</ele>
    <time>2026-06-22T11:11:02Z</time>
   </trkpt>
   <trkpt lat="-3.1050360" lon="37.3686820">
    <ele>4428.6</ele>
    <time>2026-06-22T11:11:03Z</time>
   </trkpt>
   <trkpt lat="-3.1050390" lon="37.3686830">
    <ele>4428.7</ele>
    <time>2026-06-22T11:11:04Z</time>
   </trkpt>
   <trkpt lat="-3.1050390" lon="37.3686830">
    <ele>4428.7</ele>
    <time>2026-06-22T11:11:05Z</time>
   </trkpt>
   <trkpt lat="-3.1050380" lon="37.3686830">
    <ele>4428.7</ele>
    <time>2026-06-22T11:11:06Z</time>
   </trkpt>
   <trkpt lat="-3.1050380" lon="37.3686840">
    <ele>4428.7</ele>
    <time>2026-06-22T11:11:07Z</time>
   </trkpt>
   <trkpt lat="-3.1050380" lon="37.3686830">
    <ele>4428.7</ele>
    <time>2026-06-22T11:11:08Z</time>
   </trkpt>
   <trkpt lat="-3.1050390" lon="37.3686810">
    <ele>4428.7</ele>
    <time>2026-06-22T11:11:09Z</time>
   </trkpt>
   <trkpt lat="-3.1050400" lon="37.3686820">
    <ele>4428.8</ele>
    <time>2026-06-22T11:11:10Z</time>
   </trkpt>
   <trkpt lat="-3.1050390" lon="37.3686820">
    <ele>4428.8</ele>
    <time>2026-06-22T11:11:11Z</time>
   </trkpt>
   <trkpt lat="-3.1050380" lon="37.3686820">
    <ele>4428.8</ele>
    <time>2026-06-22T11:11:12Z</time>
   </trkpt>
   <trkpt lat="-3.1050380" lon="37.3686820">
    <ele>4428.8</ele>
    <time>2026-06-22T11:11:13Z</time>
   </trkpt>
   <trkpt lat="-3.1050380" lon="37.3686810">
    <ele>4428.8</ele>
    <time>2026-06-22T11:11:14Z</time>
   </trkpt>
   <trkpt lat="-3.1050380" lon="37.3686810">
    <ele>4428.8</ele>
    <time>2026-06-22T11:11:15Z</time>
   </trkpt>
   <trkpt lat="-3.1050380" lon="37.3686800">
    <ele>4428.8</ele>
    <time>2026-06-22T11:11:16Z</time>
   </trkpt>
   <trkpt lat="-3.1050370" lon="37.3686800">
    <ele>4428.8</ele>
    <time>2026-06-22T11:11:17Z</time>
   </trkpt>
   <trkpt lat="-3.1050370" lon="37.3686800">
    <ele>4428.8</ele>
    <time>2026-06-22T11:11:18Z</time>
   </trkpt>
   <trkpt lat="-3.1050370" lon="37.3686800">
    <ele>4428.8</ele>
    <time>2026-06-22T11:11:19Z</time>
   </trkpt>
   <trkpt lat="-3.1050370" lon="37.3686800">
    <ele>4428.8</ele>
    <time>2026-06-22T11:11:20Z</time>
   </trkpt>
   <trkpt lat="-3.1050370" lon="37.3686810">
    <ele>4428.8</ele>
    <time>2026-06-22T11:11:21Z</time>
   </trkpt>
   <trkpt lat="-3.1050380" lon="37.3686810">
    <ele>4428.8</ele>
    <time>2026-06-22T11:11:22Z</time>
   </trkpt>
   <trkpt lat="-3.1050370" lon="37.3686810">
    <ele>4428.8</ele>
    <time>2026-06-22T11:11:23Z</time>
   </trkpt>
   <trkpt lat="-3.1050380" lon="37.3686820">
    <ele>4428.9</ele>
    <time>2026-06-22T11:11:24Z</time>
   </trkpt>
   <trkpt lat="-3.1050370" lon="37.3686810">
    <ele>4428.9</ele>
    <time>2026-06-22T11:11:25Z</time>
   </trkpt>
   <trkpt lat="-3.1050370" lon="37.3686810">
    <ele>4428.9</ele>
    <time>2026-06-22T11:11:26Z</time>
   </trkpt>
   <trkpt lat="-3.1050370" lon="37.3686810">
    <ele>4428.9</ele>
    <time>2026-06-22T11:11:27Z</time>
   </trkpt>
   <trkpt lat="-3.1050370" lon="37.3686810">
    <ele>4428.9</ele>
    <time>2026-06-22T11:11:28Z</time>
   </trkpt>
   <trkpt lat="-3.1050360" lon="37.3686810">
    <ele>4428.9</ele>
    <time>2026-06-22T11:11:29Z</time>
   </trkpt>
   <trkpt lat="-3.1050360" lon="37.3686810">
    <ele>4428.9</ele>
    <time>2026-06-22T11:11:30Z</time>
   </trkpt>
   <trkpt lat="-3.1050360" lon="37.3686820">
    <ele>4428.9</ele>
    <time>2026-06-22T11:11:31Z</time>
   </trkpt>
   <trkpt lat="-3.1050360" lon="37.3686810">
    <ele>4428.9</ele>
    <time>2026-06-22T11:11:32Z</time>
   </trkpt>
   <trkpt lat="-3.1050350" lon="37.3686820">
    <ele>4428.9</ele>
    <time>2026-06-22T11:11:33Z</time>
   </trkpt>
   <trkpt lat="-3.1050350" lon="37.3686820">
    <ele>4428.9</ele>
    <time>2026-06-22T11:11:34Z</time>
   </trkpt>
   <trkpt lat="-3.1050360" lon="37.3686820">
    <ele>4428.9</ele>
    <time>2026-06-22T11:11:35Z</time>
   </trkpt>
   <trkpt lat="-3.1050370" lon="37.3686820">
    <ele>4429.0</ele>
    <time>2026-06-22T11:11:36Z</time>
   </trkpt>
   <trkpt lat="-3.1050370" lon="37.3686820">
    <ele>4429.0</ele>
    <time>2026-06-22T11:11:37Z</time>
   </trkpt>
   <trkpt lat="-3.1050370" lon="37.3686820">
    <ele>4429.0</ele>
    <time>2026-06-22T11:11:38Z</time>
   </trkpt>
   <trkpt lat="-3.1050370" lon="37.3686830">
    <ele>4429.0</ele>
    <time>2026-06-22T11:11:39Z</time>
   </trkpt>
   <trkpt lat="-3.1050370" lon="37.3686830">
    <ele>4429.0</ele>
    <time>2026-06-22T11:11:40Z</time>
   </trkpt>
   <trkpt lat="-3.1050360" lon="37.3686830">
    <ele>4429.0</ele>
    <time>2026-06-22T11:11:41Z</time>
   </trkpt>
   <trkpt lat="-3.1050360" lon="37.3686830">
    <ele>4429.0</ele>
    <time>2026-06-22T11:11:42Z</time>
   </trkpt>
   <trkpt lat="-3.1050360" lon="37.3686830">
    <ele>4429.0</ele>
    <time>2026-06-22T11:11:43Z</time>
   </trkpt>
   <trkpt lat="-3.1050360" lon="37.3686820">
    <ele>4429.0</ele>
    <time>2026-06-22T11:11:44Z</time>
   </trkpt>
   <trkpt lat="-3.1050360" lon="37.3686820">
    <ele>4429.0</ele>
    <time>2026-06-22T11:11:45Z</time>
   </trkpt>
   <trkpt lat="-3.1050360" lon="37.3686830">
    <ele>4429.0</ele>
    <time>2026-06-22T11:11:46Z</time>
   </trkpt>
   <trkpt lat="-3.1050350" lon="37.3686820">
    <ele>4429.0</ele>
    <time>2026-06-22T11:11:47Z</time>
   </trkpt>
   <trkpt lat="-3.1050350" lon="37.3686840">
    <ele>4429.0</ele>
    <time>2026-06-22T11:11:48Z</time>
   </trkpt>
   <trkpt lat="-3.1050340" lon="37.3686820">
    <ele>4429.1</ele>
    <time>2026-06-22T11:11:49Z</time>
   </trkpt>
   <trkpt lat="-3.1050380" lon="37.3686780">
    <ele>4429.1</ele>
    <time>2026-06-22T11:11:50Z</time>
   </trkpt>
   <trkpt lat="-3.1050450" lon="37.3686710">
    <ele>4429.3</ele>
    <time>2026-06-22T11:11:51Z</time>
   </trkpt>
   <trkpt lat="-3.1050500" lon="37.3686630">
    <ele>4429.4</ele>
    <time>2026-06-22T11:11:52Z</time>
   </trkpt>
   <trkpt lat="-3.1050550" lon="37.3686570">
    <ele>4429.4</ele>
    <time>2026-06-22T11:11:53Z</time>
   </trkpt>
   <trkpt lat="-3.1050620" lon="37.3686580">
    <ele>4429.5</ele>
    <time>2026-06-22T11:11:54Z</time>
   </trkpt>
   <trkpt lat="-3.1050680" lon="37.3686580">
    <ele>4429.6</ele>
    <time>2026-06-22T11:11:55Z</time>
   </trkpt>
   <trkpt lat="-3.1050680" lon="37.3686560">
    <ele>4429.6</ele>
    <time>2026-06-22T11:11:56Z</time>
   </trkpt>
   <trkpt lat="-3.1050680" lon="37.3686560">
    <ele>4429.6</ele>
    <time>2026-06-22T11:11:57Z</time>
   </trkpt>
   <trkpt lat="-3.1050690" lon="37.3686560">
    <ele>4429.6</ele>
    <time>2026-06-22T11:11:58Z</time>
   </trkpt>
   <trkpt lat="-3.1050690" lon="37.3686550">
    <ele>4429.6</ele>
    <time>2026-06-22T11:11:59Z</time>
   </trkpt>
   <trkpt lat="-3.1050700" lon="37.3686550">
    <ele>4429.6</ele>
    <time>2026-06-22T11:12:00Z</time>
   </trkpt>
   <trkpt lat="-3.1050690" lon="37.3686560">
    <ele>4429.6</ele>
    <time>2026-06-22T11:12:01Z</time>
   </trkpt>
   <trkpt lat="-3.1050690" lon="37.3686560">
    <ele>4429.6</ele>
    <time>2026-06-22T11:12:02Z</time>
   </trkpt>
   <trkpt lat="-3.1050700" lon="37.3686550">
    <ele>4429.7</ele>
    <time>2026-06-22T11:12:03Z</time>
   </trkpt>
   <trkpt lat="-3.1050710" lon="37.3686570">
    <ele>4429.7</ele>
    <time>2026-06-22T11:12:04Z</time>
   </trkpt>
   <trkpt lat="-3.1050710" lon="37.3686560">
    <ele>4429.7</ele>
    <time>2026-06-22T11:12:05Z</time>
   </trkpt>
   <trkpt lat="-3.1050730" lon="37.3686550">
    <ele>4429.7</ele>
    <time>2026-06-22T11:12:06Z</time>
   </trkpt>
   <trkpt lat="-3.1050740" lon="37.3686530">
    <ele>4429.7</ele>
    <time>2026-06-22T11:12:07Z</time>
   </trkpt>
   <trkpt lat="-3.1050750" lon="37.3686520">
    <ele>4429.8</ele>
    <time>2026-06-22T11:12:08Z</time>
   </trkpt>
   <trkpt lat="-3.1050750" lon="37.3686520">
    <ele>4429.8</ele>
    <time>2026-06-22T11:12:09Z</time>
   </trkpt>
   <trkpt lat="-3.1050740" lon="37.3686500">
    <ele>4429.8</ele>
    <time>2026-06-22T11:12:10Z</time>
   </trkpt>
   <trkpt lat="-3.1050750" lon="37.3686500">
    <ele>4429.8</ele>
    <time>2026-06-22T11:12:11Z</time>
   </trkpt>
   <trkpt lat="-3.1050760" lon="37.3686500">
    <ele>4429.8</ele>
    <time>2026-06-22T11:12:12Z</time>
   </trkpt>
   <trkpt lat="-3.1050760" lon="37.3686490">
    <ele>4429.8</ele>
    <time>2026-06-22T11:12:13Z</time>
   </trkpt>
   <trkpt lat="-3.1050760" lon="37.3686490">
    <ele>4429.8</ele>
    <time>2026-06-22T11:12:14Z</time>
   </trkpt>
   <trkpt lat="-3.1050770" lon="37.3686490">
    <ele>4429.8</ele>
    <time>2026-06-22T11:12:15Z</time>
   </trkpt>
   <trkpt lat="-3.1050770" lon="37.3686490">
    <ele>4429.8</ele>
    <time>2026-06-22T11:12:16Z</time>
   </trkpt>
   <trkpt lat="-3.1050770" lon="37.3686490">
    <ele>4429.8</ele>
    <time>2026-06-22T11:12:17Z</time>
   </trkpt>
   <trkpt lat="-3.1050770" lon="37.3686490">
    <ele>4429.8</ele>
    <time>2026-06-22T11:12:18Z</time>
   </trkpt>
   <trkpt lat="-3.1050770" lon="37.3686490">
    <ele>4429.8</ele>
    <time>2026-06-22T11:12:19Z</time>
   </trkpt>
   <trkpt lat="-3.1050770" lon="37.3686490">
    <ele>4429.8</ele>
    <time>2026-06-22T11:12:20Z</time>
   </trkpt>
   <trkpt lat="-3.1050770" lon="37.3686490">
    <ele>4429.8</ele>
    <time>2026-06-22T11:12:21Z</time>
   </trkpt>
   <trkpt lat="-3.1050780" lon="37.3686470">
    <ele>4429.8</ele>
    <time>2026-06-22T11:12:22Z</time>
   </trkpt>
   <trkpt lat="-3.1050780" lon="37.3686470">
    <ele>4429.8</ele>
    <time>2026-06-22T11:12:23Z</time>
   </trkpt>
   <trkpt lat="-3.1050780" lon="37.3686470">
    <ele>4429.8</ele>
    <time>2026-06-22T11:12:24Z</time>
   </trkpt>
   <trkpt lat="-3.1050790" lon="37.3686470">
    <ele>4429.9</ele>
    <time>2026-06-22T11:12:25Z</time>
   </trkpt>
   <trkpt lat="-3.1050810" lon="37.3686490">
    <ele>4429.9</ele>
    <time>2026-06-22T11:12:26Z</time>
   </trkpt>
   <trkpt lat="-3.1050800" lon="37.3686480">
    <ele>4429.9</ele>
    <time>2026-06-22T11:12:27Z</time>
   </trkpt>
   <trkpt lat="-3.1050800" lon="37.3686480">
    <ele>4429.9</ele>
    <time>2026-06-22T11:12:28Z</time>
   </trkpt>
   <trkpt lat="-3.1050780" lon="37.3686480">
    <ele>4429.9</ele>
    <time>2026-06-22T11:12:29Z</time>
   </trkpt>
   <trkpt lat="-3.1050780" lon="37.3686470">
    <ele>4429.9</ele>
    <time>2026-06-22T11:12:30Z</time>
   </trkpt>
   <trkpt lat="-3.1050770" lon="37.3686480">
    <ele>4429.9</ele>
    <time>2026-06-22T11:12:31Z</time>
   </trkpt>
   <trkpt lat="-3.1050770" lon="37.3686490">
    <ele>4430.0</ele>
    <time>2026-06-22T11:12:32Z</time>
   </trkpt>
   <trkpt lat="-3.1050750" lon="37.3686530">
    <ele>4430.0</ele>
    <time>2026-06-22T11:12:33Z</time>
   </trkpt>
   <trkpt lat="-3.1050710" lon="37.3686530">
    <ele>4430.0</ele>
    <time>2026-06-22T11:12:34Z</time>
   </trkpt>
   <trkpt lat="-3.1050670" lon="37.3686530">
    <ele>4430.1</ele>
    <time>2026-06-22T11:12:35Z</time>
   </trkpt>
   <trkpt lat="-3.1050660" lon="37.3686560">
    <ele>4430.1</ele>
    <time>2026-06-22T11:12:36Z</time>
   </trkpt>
   <trkpt lat="-3.1050650" lon="37.3686550">
    <ele>4430.1</ele>
    <time>2026-06-22T11:12:37Z</time>
   </trkpt>
   <trkpt lat="-3.1050630" lon="37.3686530">
    <ele>4430.1</ele>
    <time>2026-06-22T11:12:38Z</time>
   </trkpt>
   <trkpt lat="-3.1050590" lon="37.3686580">
    <ele>4430.2</ele>
    <time>2026-06-22T11:12:39Z</time>
   </trkpt>
   <trkpt lat="-3.1050620" lon="37.3686540">
    <ele>4430.2</ele>
    <time>2026-06-22T11:12:40Z</time>
   </trkpt>
   <trkpt lat="-3.1050610" lon="37.3686520">
    <ele>4430.2</ele>
    <time>2026-06-22T11:12:41Z</time>
   </trkpt>
   <trkpt lat="-3.1050560" lon="37.3686520">
    <ele>4430.3</ele>
    <time>2026-06-22T11:12:42Z</time>
   </trkpt>
   <trkpt lat="-3.1050500" lon="37.3686540">
    <ele>4430.4</ele>
    <time>2026-06-22T11:12:43Z</time>
   </trkpt>
   <trkpt lat="-3.1050480" lon="37.3686550">
    <ele>4430.4</ele>
    <time>2026-06-22T11:12:44Z</time>
   </trkpt>
   <trkpt lat="-3.1050460" lon="37.3686640">
    <ele>4430.4</ele>
    <time>2026-06-22T11:12:45Z</time>
   </trkpt>
   <trkpt lat="-3.1050440" lon="37.3686680">
    <ele>4430.5</ele>
    <time>2026-06-22T11:12:46Z</time>
   </trkpt>
   <trkpt lat="-3.1050410" lon="37.3686710">
    <ele>4430.5</ele>
    <time>2026-06-22T11:12:47Z</time>
   </trkpt>
   <trkpt lat="-3.1050380" lon="37.3686770">
    <ele>4430.6</ele>
    <time>2026-06-22T11:12:48Z</time>
   </trkpt>
   <trkpt lat="-3.1050340" lon="37.3686790">
    <ele>4430.6</ele>
    <time>2026-06-22T11:12:49Z</time>
   </trkpt>
   <trkpt lat="-3.1050340" lon="37.3686780">
    <ele>4430.6</ele>
    <time>2026-06-22T11:12:50Z</time>
   </trkpt>
   <trkpt lat="-3.1050340" lon="37.3686770">
    <ele>4430.6</ele>
    <time>2026-06-22T11:12:51Z</time>
   </trkpt>
   <trkpt lat="-3.1050350" lon="37.3686770">
    <ele>4430.6</ele>
    <time>2026-06-22T11:12:52Z</time>
   </trkpt>
   <trkpt lat="-3.1050350" lon="37.3686770">
    <ele>4430.6</ele>
    <time>2026-06-22T11:12:53Z</time>
   </trkpt>
   <trkpt lat="-3.1050360" lon="37.3686760">
    <ele>4430.6</ele>
    <time>2026-06-22T11:12:54Z</time>
   </trkpt>
   <trkpt lat="-3.1050360" lon="37.3686750">
    <ele>4430.6</ele>
    <time>2026-06-22T11:12:55Z</time>
   </trkpt>
   <trkpt lat="-3.1050370" lon="37.3686750">
    <ele>4430.7</ele>
    <time>2026-06-22T11:12:56Z</time>
   </trkpt>
   <trkpt lat="-3.1050370" lon="37.3686750">
    <ele>4430.7</ele>
    <time>2026-06-22T11:12:57Z</time>
   </trkpt>
   <trkpt lat="-3.1050370" lon="37.3686750">
    <ele>4430.7</ele>
    <time>2026-06-22T11:12:58Z</time>
   </trkpt>
   <trkpt lat="-3.1050370" lon="37.3686750">
    <ele>4430.7</ele>
    <time>2026-06-22T11:12:59Z</time>
   </trkpt>
   <trkpt lat="-3.1050380" lon="37.3686750">
    <ele>4430.7</ele>
    <time>2026-06-22T11:13:00Z</time>
   </trkpt>
   <trkpt lat="-3.1050380" lon="37.3686750">
    <ele>4430.7</ele>
    <time>2026-06-22T11:13:01Z</time>
   </trkpt>
   <trkpt lat="-3.1050380" lon="37.3686760">
    <ele>4430.7</ele>
    <time>2026-06-22T11:13:02Z</time>
   </trkpt>
   <trkpt lat="-3.1050380" lon="37.3686760">
    <ele>4430.7</ele>
    <time>2026-06-22T11:13:03Z</time>
   </trkpt>
   <trkpt lat="-3.1050380" lon="37.3686770">
    <ele>4430.7</ele>
    <time>2026-06-22T11:13:04Z</time>
   </trkpt>
   <trkpt lat="-3.1050380" lon="37.3686760">
    <ele>4430.7</ele>
    <time>2026-06-22T11:13:05Z</time>
   </trkpt>
   <trkpt lat="-3.1050370" lon="37.3686770">
    <ele>4430.7</ele>
    <time>2026-06-22T11:13:06Z</time>
   </trkpt>
   <trkpt lat="-3.1050380" lon="37.3686770">
    <ele>4430.7</ele>
    <time>2026-06-22T11:13:07Z</time>
   </trkpt>
   <trkpt lat="-3.1050390" lon="37.3686780">
    <ele>4430.7</ele>
    <time>2026-06-22T11:13:08Z</time>
   </trkpt>
   <trkpt lat="-3.1050370" lon="37.3686770">
    <ele>4430.7</ele>
    <time>2026-06-22T11:13:09Z</time>
   </trkpt>
   <trkpt lat="-3.1050370" lon="37.3686780">
    <ele>4430.7</ele>
    <time>2026-06-22T11:13:10Z</time>
   </trkpt>
   <trkpt lat="-3.1050380" lon="37.3686770">
    <ele>4430.8</ele>
    <time>2026-06-22T11:13:11Z</time>
   </trkpt>
   <trkpt lat="-3.1050390" lon="37.3686770">
    <ele>4430.8</ele>
    <time>2026-06-22T11:13:12Z</time>
   </trkpt>
   <trkpt lat="-3.1050400" lon="37.3686750">
    <ele>4430.8</ele>
    <time>2026-06-22T11:13:13Z</time>
   </trkpt>
   <trkpt lat="-3.1050400" lon="37.3686760">
    <ele>4430.8</ele>
    <time>2026-06-22T11:13:14Z</time>
   </trkpt>
   <trkpt lat="-3.1050420" lon="37.3686770">
    <ele>4430.8</ele>
    <time>2026-06-22T11:13:15Z</time>
   </trkpt>
   <trkpt lat="-3.1050400" lon="37.3686780">
    <ele>4430.8</ele>
    <time>2026-06-22T11:13:16Z</time>
   </trkpt>
   <trkpt lat="-3.1050470" lon="37.3686780">
    <ele>4430.9</ele>
    <time>2026-06-22T11:13:17Z</time>
   </trkpt>
   <trkpt lat="-3.1050480" lon="37.3686760">
    <ele>4430.9</ele>
    <time>2026-06-22T11:13:18Z</time>
   </trkpt>
   <trkpt lat="-3.1050480" lon="37.3686770">
    <ele>4430.9</ele>
    <time>2026-06-22T11:13:19Z</time>
   </trkpt>
   <trkpt lat="-3.1050480" lon="37.3686760">
    <ele>4430.9</ele>
    <time>2026-06-22T11:13:20Z</time>
   </trkpt>
   <trkpt lat="-3.1050480" lon="37.3686760">
    <ele>4430.9</ele>
    <time>2026-06-22T11:13:21Z</time>
   </trkpt>
   <trkpt lat="-3.1050490" lon="37.3686770">
    <ele>4430.9</ele>
    <time>2026-06-22T11:13:22Z</time>
   </trkpt>
   <trkpt lat="-3.1050510" lon="37.3686780">
    <ele>4430.9</ele>
    <time>2026-06-22T11:13:23Z</time>
   </trkpt>
   <trkpt lat="-3.1050540" lon="37.3686780">
    <ele>4431.0</ele>
    <time>2026-06-22T11:13:24Z</time>
   </trkpt>
   <trkpt lat="-3.1050540" lon="37.3686780">
    <ele>4431.0</ele>
    <time>2026-06-22T11:13:25Z</time>
   </trkpt>
   <trkpt lat="-3.1050530" lon="37.3686780">
    <ele>4431.0</ele>
    <time>2026-06-22T11:13:26Z</time>
   </trkpt>
   <trkpt lat="-3.1050540" lon="37.3686780">
    <ele>4431.0</ele>
    <time>2026-06-22T11:13:27Z</time>
   </trkpt>
   <trkpt lat="-3.1050530" lon="37.3686790">
    <ele>4431.0</ele>
    <time>2026-06-22T11:13:28Z</time>
   </trkpt>
   <trkpt lat="-3.1050500" lon="37.3686790">
    <ele>4431.0</ele>
    <time>2026-06-22T11:13:29Z</time>
   </trkpt>
   <trkpt lat="-3.1050490" lon="37.3686790">
    <ele>4431.0</ele>
    <time>2026-06-22T11:13:30Z</time>
   </trkpt>
   <trkpt lat="-3.1050490" lon="37.3686800">
    <ele>4431.0</ele>
    <time>2026-06-22T11:13:31Z</time>
   </trkpt>
   <trkpt lat="-3.1050510" lon="37.3686800">
    <ele>4431.0</ele>
    <time>2026-06-22T11:13:32Z</time>
   </trkpt>
   <trkpt lat="-3.1050470" lon="37.3686790">
    <ele>4431.1</ele>
    <time>2026-06-22T11:13:33Z</time>
   </trkpt>
   <trkpt lat="-3.1050430" lon="37.3686790">
    <ele>4431.1</ele>
    <time>2026-06-22T11:13:34Z</time>
   </trkpt>
   <trkpt lat="-3.1050420" lon="37.3686780">
    <ele>4431.1</ele>
    <time>2026-06-22T11:13:35Z</time>
   </trkpt>
   <trkpt lat="-3.1050420" lon="37.3686800">
    <ele>4431.1</ele>
    <time>2026-06-22T11:13:36Z</time>
   </trkpt>
   <trkpt lat="-3.1050440" lon="37.3686790">
    <ele>4431.1</ele>
    <time>2026-06-22T11:13:37Z</time>
   </trkpt>
   <trkpt lat="-3.1050500" lon="37.3686770">
    <ele>4431.2</ele>
    <time>2026-06-22T11:13:38Z</time>
   </trkpt>
   <trkpt lat="-3.1050430" lon="37.3686760">
    <ele>4431.3</ele>
    <time>2026-06-22T11:13:39Z</time>
   </trkpt>
   <trkpt lat="-3.1050430" lon="37.3686770">
    <ele>4431.3</ele>
    <time>2026-06-22T11:13:40Z</time>
   </trkpt>
   <trkpt lat="-3.1050420" lon="37.3686780">
    <ele>4431.3</ele>
    <time>2026-06-22T11:13:41Z</time>
   </trkpt>
   <trkpt lat="-3.1050400" lon="37.3686790">
    <ele>4431.3</ele>
    <time>2026-06-22T11:13:42Z</time>
   </trkpt>
   <trkpt lat="-3.1050350" lon="37.3686790">
    <ele>4431.3</ele>
    <time>2026-06-22T11:13:43Z</time>
   </trkpt>
   <trkpt lat="-3.1050350" lon="37.3686790">
    <ele>4431.3</ele>
    <time>2026-06-22T11:13:44Z</time>
   </trkpt>
   <trkpt lat="-3.1050340" lon="37.3686810">
    <ele>4431.3</ele>
    <time>2026-06-22T11:13:45Z</time>
   </trkpt>
   <trkpt lat="-3.1050320" lon="37.3686840">
    <ele>4431.4</ele>
    <time>2026-06-22T11:13:46Z</time>
   </trkpt>
   <trkpt lat="-3.1050310" lon="37.3686840">
    <ele>4431.4</ele>
    <time>2026-06-22T11:13:47Z</time>
   </trkpt>
   <trkpt lat="-3.1050310" lon="37.3686810">
    <ele>4431.4</ele>
    <time>2026-06-22T11:13:48Z</time>
   </trkpt>
   <trkpt lat="-3.1050310" lon="37.3686820">
    <ele>4431.4</ele>
    <time>2026-06-22T11:13:49Z</time>
   </trkpt>
   <trkpt lat="-3.1050320" lon="37.3686830">
    <ele>4431.4</ele>
    <time>2026-06-22T11:13:50Z</time>
   </trkpt>
   <trkpt lat="-3.1050340" lon="37.3686840">
    <ele>4431.4</ele>
    <time>2026-06-22T11:13:51Z</time>
   </trkpt>
   <trkpt lat="-3.1050380" lon="37.3686820">
    <ele>4431.5</ele>
    <time>2026-06-22T11:13:52Z</time>
   </trkpt>
   <trkpt lat="-3.1050360" lon="37.3686800">
    <ele>4431.5</ele>
    <time>2026-06-22T11:13:53Z</time>
   </trkpt>
   <trkpt lat="-3.1050370" lon="37.3686800">
    <ele>4431.5</ele>
    <time>2026-06-22T11:13:54Z</time>
   </trkpt>
   <trkpt lat="-3.1050360" lon="37.3686800">
    <ele>4431.5</ele>
    <time>2026-06-22T11:13:55Z</time>
   </trkpt>
   <trkpt lat="-3.1050360" lon="37.3686790">
    <ele>4431.5</ele>
    <time>2026-06-22T11:13:56Z</time>
   </trkpt>
   <trkpt lat="-3.1050360" lon="37.3686790">
    <ele>4431.5</ele>
    <time>2026-06-22T11:13:57Z</time>
   </trkpt>
   <trkpt lat="-3.1050370" lon="37.3686790">
    <ele>4431.5</ele>
    <time>2026-06-22T11:13:58Z</time>
   </trkpt>
   <trkpt lat="-3.1050360" lon="37.3686790">
    <ele>4431.5</ele>
    <time>2026-06-22T11:13:59Z</time>
   </trkpt>
   <trkpt lat="-3.1050360" lon="37.3686780">
    <ele>4431.5</ele>
    <time>2026-06-22T11:14:00Z</time>
   </trkpt>
   <trkpt lat="-3.1050350" lon="37.3686790">
    <ele>4431.5</ele>
    <time>2026-06-22T11:14:01Z</time>
   </trkpt>
   <trkpt lat="-3.1050350" lon="37.3686790">
    <ele>4431.5</ele>
    <time>2026-06-22T11:14:02Z</time>
   </trkpt>
   <trkpt lat="-3.1050350" lon="37.3686800">
    <ele>4431.5</ele>
    <time>2026-06-22T11:14:03Z</time>
   </trkpt>
   <trkpt lat="-3.1050350" lon="37.3686790">
    <ele>4431.5</ele>
    <time>2026-06-22T11:14:04Z</time>
   </trkpt>
   <trkpt lat="-3.1050340" lon="37.3686800">
    <ele>4431.6</ele>
    <time>2026-06-22T11:14:05Z</time>
   </trkpt>
   <trkpt lat="-3.1050330" lon="37.3686790">
    <ele>4431.6</ele>
    <time>2026-06-22T11:14:06Z</time>
   </trkpt>
   <trkpt lat="-3.1050330" lon="37.3686790">
    <ele>4431.6</ele>
    <time>2026-06-22T11:14:07Z</time>
   </trkpt>
   <trkpt lat="-3.1050330" lon="37.3686810">
    <ele>4431.6</ele>
    <time>2026-06-22T11:14:08Z</time>
   </trkpt>
   <trkpt lat="-3.1050340" lon="37.3686810">
    <ele>4431.6</ele>
    <time>2026-06-22T11:14:09Z</time>
   </trkpt>
   <trkpt lat="-3.1050340" lon="37.3686800">
    <ele>4431.6</ele>
    <time>2026-06-22T11:14:10Z</time>
   </trkpt>
   <trkpt lat="-3.1050330" lon="37.3686810">
    <ele>4431.6</ele>
    <time>2026-06-22T11:14:11Z</time>
   </trkpt>
   <trkpt lat="-3.1050340" lon="37.3686800">
    <ele>4431.6</ele>
    <time>2026-06-22T11:14:12Z</time>
   </trkpt>
   <trkpt lat="-3.1050340" lon="37.3686810">
    <ele>4431.6</ele>
    <time>2026-06-22T11:14:13Z</time>
   </trkpt>
   <trkpt lat="-3.1050360" lon="37.3686800">
    <ele>4431.6</ele>
    <time>2026-06-22T11:14:14Z</time>
   </trkpt>
   <trkpt lat="-3.1050350" lon="37.3686800">
    <ele>4431.6</ele>
    <time>2026-06-22T11:14:15Z</time>
   </trkpt>
   <trkpt lat="-3.1050360" lon="37.3686800">
    <ele>4431.6</ele>
    <time>2026-06-22T11:14:16Z</time>
   </trkpt>
   <trkpt lat="-3.1050350" lon="37.3686800">
    <ele>4431.7</ele>
    <time>2026-06-22T11:14:17Z</time>
   </trkpt>
   <trkpt lat="-3.1050350" lon="37.3686810">
    <ele>4431.7</ele>
    <time>2026-06-22T11:14:18Z</time>
   </trkpt>
   <trkpt lat="-3.1050350" lon="37.3686810">
    <ele>4431.7</ele>
    <time>2026-06-22T11:14:19Z</time>
   </trkpt>
   <trkpt lat="-3.1050350" lon="37.3686810">
    <ele>4431.7</ele>
    <time>2026-06-22T11:14:20Z</time>
   </trkpt>
   <trkpt lat="-3.1050350" lon="37.3686810">
    <ele>4431.7</ele>
    <time>2026-06-22T11:14:21Z</time>
   </trkpt>
   <trkpt lat="-3.1050340" lon="37.3686810">
    <ele>4431.7</ele>
    <time>2026-06-22T11:14:22Z</time>
   </trkpt>
   <trkpt lat="-3.1050350" lon="37.3686810">
    <ele>4431.7</ele>
    <time>2026-06-22T11:14:23Z</time>
   </trkpt>
   <trkpt lat="-3.1050380" lon="37.3686790">
    <ele>4431.7</ele>
    <time>2026-06-22T11:14:24Z</time>
   </trkpt>
   <trkpt lat="-3.1050390" lon="37.3686790">
    <ele>4431.7</ele>
    <time>2026-06-22T11:14:25Z</time>
   </trkpt>
   <trkpt lat="-3.1050410" lon="37.3686800">
    <ele>4431.7</ele>
    <time>2026-06-22T11:14:26Z</time>
   </trkpt>
   <trkpt lat="-3.1050420" lon="37.3686800">
    <ele>4431.7</ele>
    <time>2026-06-22T11:14:27Z</time>
   </trkpt>
   <trkpt lat="-3.1050430" lon="37.3686820">
    <ele>4431.7</ele>
    <time>2026-06-22T11:14:28Z</time>
   </trkpt>
   <trkpt lat="-3.1050420" lon="37.3686820">
    <ele>4431.8</ele>
    <time>2026-06-22T11:14:29Z</time>
   </trkpt>
   <trkpt lat="-3.1050420" lon="37.3686820">
    <ele>4431.8</ele>
    <time>2026-06-22T11:14:30Z</time>
   </trkpt>
   <trkpt lat="-3.1050410" lon="37.3686820">
    <ele>4431.8</ele>
    <time>2026-06-22T11:14:31Z</time>
   </trkpt>
   <trkpt lat="-3.1050430" lon="37.3686800">
    <ele>4431.8</ele>
    <time>2026-06-22T11:14:32Z</time>
   </trkpt>
   <trkpt lat="-3.1050390" lon="37.3686800">
    <ele>4431.8</ele>
    <time>2026-06-22T11:14:33Z</time>
   </trkpt>
   <trkpt lat="-3.1050340" lon="37.3686800">
    <ele>4431.8</ele>
    <time>2026-06-22T11:14:34Z</time>
   </trkpt>
   <trkpt lat="-3.1050350" lon="37.3686840">
    <ele>4431.9</ele>
    <time>2026-06-22T11:14:35Z</time>
   </trkpt>
   <trkpt lat="-3.1050320" lon="37.3686840">
    <ele>4431.9</ele>
    <time>2026-06-22T11:14:36Z</time>
   </trkpt>
   <trkpt lat="-3.1050330" lon="37.3686850">
    <ele>4431.9</ele>
    <time>2026-06-22T11:14:37Z</time>
   </trkpt>
   <trkpt lat="-3.1050320" lon="37.3686840">
    <ele>4431.9</ele>
    <time>2026-06-22T11:14:38Z</time>
   </trkpt>
   <trkpt lat="-3.1050310" lon="37.3686840">
    <ele>4431.9</ele>
    <time>2026-06-22T11:14:39Z</time>
   </trkpt>
   <trkpt lat="-3.1050370" lon="37.3686770">
    <ele>4432.0</ele>
    <time>2026-06-22T11:14:40Z</time>
   </trkpt>
   <trkpt lat="-3.1050400" lon="37.3686720">
    <ele>4432.0</ele>
    <time>2026-06-22T11:14:41Z</time>
   </trkpt>
   <trkpt lat="-3.1050450" lon="37.3686590">
    <ele>4432.1</ele>
    <time>2026-06-22T11:14:42Z</time>
   </trkpt>
   <trkpt lat="-3.1050520" lon="37.3686520">
    <ele>4432.2</ele>
    <time>2026-06-22T11:14:43Z</time>
   </trkpt>
   <trkpt lat="-3.1050570" lon="37.3686450">
    <ele>4432.2</ele>
    <time>2026-06-22T11:14:44Z</time>
   </trkpt>
   <trkpt lat="-3.1050600" lon="37.3686370">
    <ele>4432.3</ele>
    <time>2026-06-22T11:14:45Z</time>
   </trkpt>
   <trkpt lat="-3.1050650" lon="37.3686300">
    <ele>4432.3</ele>
    <time>2026-06-22T11:14:46Z</time>
   </trkpt>
   <trkpt lat="-3.1050690" lon="37.3686230">
    <ele>4432.4</ele>
    <time>2026-06-22T11:14:47Z</time>
   </trkpt>
   <trkpt lat="-3.1050670" lon="37.3686220">
    <ele>4432.4</ele>
    <time>2026-06-22T11:14:48Z</time>
   </trkpt>
   <trkpt lat="-3.1050680" lon="37.3686240">
    <ele>4432.4</ele>
    <time>2026-06-22T11:14:49Z</time>
   </trkpt>
   <trkpt lat="-3.1050690" lon="37.3686250">
    <ele>4432.4</ele>
    <time>2026-06-22T11:14:50Z</time>
   </trkpt>
   <trkpt lat="-3.1050690" lon="37.3686270">
    <ele>4432.4</ele>
    <time>2026-06-22T11:14:51Z</time>
   </trkpt>
   <trkpt lat="-3.1050740" lon="37.3686270">
    <ele>4432.4</ele>
    <time>2026-06-22T11:14:52Z</time>
   </trkpt>
   <trkpt lat="-3.1050750" lon="37.3686310">
    <ele>4432.4</ele>
    <time>2026-06-22T11:14:53Z</time>
   </trkpt>
   <trkpt lat="-3.1050710" lon="37.3686320">
    <ele>4432.4</ele>
    <time>2026-06-22T11:14:54Z</time>
   </trkpt>
   <trkpt lat="-3.1050650" lon="37.3686360">
    <ele>4432.5</ele>
    <time>2026-06-22T11:14:55Z</time>
   </trkpt>
   <trkpt lat="-3.1050640" lon="37.3686410">
    <ele>4432.5</ele>
    <time>2026-06-22T11:14:56Z</time>
   </trkpt>
   <trkpt lat="-3.1050630" lon="37.3686410">
    <ele>4432.5</ele>
    <time>2026-06-22T11:14:57Z</time>
   </trkpt>
   <trkpt lat="-3.1050600" lon="37.3686420">
    <ele>4432.5</ele>
    <time>2026-06-22T11:14:58Z</time>
   </trkpt>
   <trkpt lat="-3.1050570" lon="37.3686430">
    <ele>4432.5</ele>
    <time>2026-06-22T11:14:59Z</time>
   </trkpt>
   <trkpt lat="-3.1050560" lon="37.3686440">
    <ele>4432.5</ele>
    <time>2026-06-22T11:15:00Z</time>
   </trkpt>
   <trkpt lat="-3.1050550" lon="37.3686440">
    <ele>4432.5</ele>
    <time>2026-06-22T11:15:01Z</time>
   </trkpt>
   <trkpt lat="-3.1050530" lon="37.3686450">
    <ele>4432.5</ele>
    <time>2026-06-22T11:15:02Z</time>
   </trkpt>
   <trkpt lat="-3.1050530" lon="37.3686460">
    <ele>4432.5</ele>
    <time>2026-06-22T11:15:03Z</time>
   </trkpt>
   <trkpt lat="-3.1050500" lon="37.3686470">
    <ele>4432.5</ele>
    <time>2026-06-22T11:15:04Z</time>
   </trkpt>
   <trkpt lat="-3.1050470" lon="37.3686510">
    <ele>4432.5</ele>
    <time>2026-06-22T11:15:05Z</time>
   </trkpt>
   <trkpt lat="-3.1050420" lon="37.3686550">
    <ele>4432.5</ele>
    <time>2026-06-22T11:15:06Z</time>
   </trkpt>
   <trkpt lat="-3.1050380" lon="37.3686590">
    <ele>4432.5</ele>
    <time>2026-06-22T11:15:07Z</time>
   </trkpt>
   <trkpt lat="-3.1050390" lon="37.3686600">
    <ele>4432.5</ele>
    <time>2026-06-22T11:15:08Z</time>
   </trkpt>
   <trkpt lat="-3.1050390" lon="37.3686600">
    <ele>4432.5</ele>
    <time>2026-06-22T11:15:09Z</time>
   </trkpt>
   <trkpt lat="-3.1050380" lon="37.3686600">
    <ele>4432.5</ele>
    <time>2026-06-22T11:15:10Z</time>
   </trkpt>
   <trkpt lat="-3.1050390" lon="37.3686590">
    <ele>4432.5</ele>
    <time>2026-06-22T11:15:11Z</time>
   </trkpt>
   <trkpt lat="-3.1050500" lon="37.3686520">
    <ele>4432.6</ele>
    <time>2026-06-22T11:15:12Z</time>
   </trkpt>
   <trkpt lat="-3.1050600" lon="37.3686500">
    <ele>4432.6</ele>
    <time>2026-06-22T11:15:13Z</time>
   </trkpt>
   <trkpt lat="-3.1050670" lon="37.3686470">
    <ele>4432.6</ele>
    <time>2026-06-22T11:15:14Z</time>
   </trkpt>
   <trkpt lat="-3.1050690" lon="37.3686470">
    <ele>4432.6</ele>
    <time>2026-06-22T11:15:15Z</time>
   </trkpt>
   <trkpt lat="-3.1050680" lon="37.3686490">
    <ele>4432.6</ele>
    <time>2026-06-22T11:15:16Z</time>
   </trkpt>
   <trkpt lat="-3.1050670" lon="37.3686490">
    <ele>4432.6</ele>
    <time>2026-06-22T11:15:17Z</time>
   </trkpt>
   <trkpt lat="-3.1050680" lon="37.3686490">
    <ele>4432.5</ele>
    <time>2026-06-22T11:15:18Z</time>
   </trkpt>
   <trkpt lat="-3.1050670" lon="37.3686510">
    <ele>4432.5</ele>
    <time>2026-06-22T11:15:19Z</time>
   </trkpt>
   <trkpt lat="-3.1050640" lon="37.3686520">
    <ele>4432.5</ele>
    <time>2026-06-22T11:15:20Z</time>
   </trkpt>
   <trkpt lat="-3.1050620" lon="37.3686520">
    <ele>4432.5</ele>
    <time>2026-06-22T11:15:21Z</time>
   </trkpt>
   <trkpt lat="-3.1050600" lon="37.3686520">
    <ele>4432.5</ele>
    <time>2026-06-22T11:15:22Z</time>
   </trkpt>
   <trkpt lat="-3.1050650" lon="37.3686510">
    <ele>4432.5</ele>
    <time>2026-06-22T11:15:23Z</time>
   </trkpt>
   <trkpt lat="-3.1050650" lon="37.3686520">
    <ele>4432.5</ele>
    <time>2026-06-22T11:15:24Z</time>
   </trkpt>
   <trkpt lat="-3.1050640" lon="37.3686530">
    <ele>4432.5</ele>
    <time>2026-06-22T11:15:25Z</time>
   </trkpt>
   <trkpt lat="-3.1050660" lon="37.3686530">
    <ele>4432.5</ele>
    <time>2026-06-22T11:15:26Z</time>
   </trkpt>
   <trkpt lat="-3.1050650" lon="37.3686540">
    <ele>4432.5</ele>
    <time>2026-06-22T11:15:27Z</time>
   </trkpt>
   <trkpt lat="-3.1050660" lon="37.3686530">
    <ele>4432.5</ele>
    <time>2026-06-22T11:15:28Z</time>
   </trkpt>
   <trkpt lat="-3.1050670" lon="37.3686510">
    <ele>4432.5</ele>
    <time>2026-06-22T11:15:29Z</time>
   </trkpt>
   <trkpt lat="-3.1050670" lon="37.3686510">
    <ele>4432.5</ele>
    <time>2026-06-22T11:15:30Z</time>
   </trkpt>
   <trkpt lat="-3.1050680" lon="37.3686510">
    <ele>4432.5</ele>
    <time>2026-06-22T11:15:31Z</time>
   </trkpt>
   <trkpt lat="-3.1050690" lon="37.3686510">
    <ele>4432.5</ele>
    <time>2026-06-22T11:15:32Z</time>
   </trkpt>
   <trkpt lat="-3.1050680" lon="37.3686500">
    <ele>4432.5</ele>
    <time>2026-06-22T11:15:33Z</time>
   </trkpt>
   <trkpt lat="-3.1050700" lon="37.3686480">
    <ele>4432.4</ele>
    <time>2026-06-22T11:15:34Z</time>
   </trkpt>
   <trkpt lat="-3.1050700" lon="37.3686490">
    <ele>4432.4</ele>
    <time>2026-06-22T11:15:35Z</time>
   </trkpt>
   <trkpt lat="-3.1050700" lon="37.3686480">
    <ele>4432.4</ele>
    <time>2026-06-22T11:15:36Z</time>
   </trkpt>
   <trkpt lat="-3.1050700" lon="37.3686480">
    <ele>4432.4</ele>
    <time>2026-06-22T11:15:37Z</time>
   </trkpt>
   <trkpt lat="-3.1050700" lon="37.3686480">
    <ele>4432.4</ele>
    <time>2026-06-22T11:15:38Z</time>
   </trkpt>
   <trkpt lat="-3.1050700" lon="37.3686480">
    <ele>4432.4</ele>
    <time>2026-06-22T11:15:39Z</time>
   </trkpt>
   <trkpt lat="-3.1050710" lon="37.3686460">
    <ele>4432.4</ele>
    <time>2026-06-22T11:15:40Z</time>
   </trkpt>
   <trkpt lat="-3.1050700" lon="37.3686460">
    <ele>4432.4</ele>
    <time>2026-06-22T11:15:41Z</time>
   </trkpt>
   <trkpt lat="-3.1050710" lon="37.3686460">
    <ele>4432.4</ele>
    <time>2026-06-22T11:15:42Z</time>
   </trkpt>
   <trkpt lat="-3.1050710" lon="37.3686460">
    <ele>4432.4</ele>
    <time>2026-06-22T11:15:43Z</time>
   </trkpt>
   <trkpt lat="-3.1050720" lon="37.3686450">
    <ele>4432.4</ele>
    <time>2026-06-22T11:15:44Z</time>
   </trkpt>
   <trkpt lat="-3.1050720" lon="37.3686450">
    <ele>4432.4</ele>
    <time>2026-06-22T11:15:45Z</time>
   </trkpt>
   <trkpt lat="-3.1050720" lon="37.3686450">
    <ele>4432.4</ele>
    <time>2026-06-22T11:15:46Z</time>
   </trkpt>
   <trkpt lat="-3.1050730" lon="37.3686440">
    <ele>4432.4</ele>
    <time>2026-06-22T11:15:47Z</time>
   </trkpt>
   <trkpt lat="-3.1050730" lon="37.3686440">
    <ele>4432.4</ele>
    <time>2026-06-22T11:15:48Z</time>
   </trkpt>
   <trkpt lat="-3.1050730" lon="37.3686440">
    <ele>4432.4</ele>
    <time>2026-06-22T11:15:49Z</time>
   </trkpt>
   <trkpt lat="-3.1050730" lon="37.3686440">
    <ele>4432.4</ele>
    <time>2026-06-22T11:15:50Z</time>
   </trkpt>
   <trkpt lat="-3.1050700" lon="37.3686440">
    <ele>4432.4</ele>
    <time>2026-06-22T11:15:51Z</time>
   </trkpt>
   <trkpt lat="-3.1050730" lon="37.3686450">
    <ele>4432.4</ele>
    <time>2026-06-22T11:15:52Z</time>
   </trkpt>
   <trkpt lat="-3.1050730" lon="37.3686420">
    <ele>4432.4</ele>
    <time>2026-06-22T11:15:53Z</time>
   </trkpt>
   <trkpt lat="-3.1050720" lon="37.3686410">
    <ele>4432.4</ele>
    <time>2026-06-22T11:15:54Z</time>
   </trkpt>
   <trkpt lat="-3.1050720" lon="37.3686420">
    <ele>4432.4</ele>
    <time>2026-06-22T11:15:55Z</time>
   </trkpt>
   <trkpt lat="-3.1050720" lon="37.3686430">
    <ele>4432.4</ele>
    <time>2026-06-22T11:15:56Z</time>
   </trkpt>
   <trkpt lat="-3.1050720" lon="37.3686420">
    <ele>4432.4</ele>
    <time>2026-06-22T11:15:57Z</time>
   </trkpt>
   <trkpt lat="-3.1050710" lon="37.3686430">
    <ele>4432.4</ele>
    <time>2026-06-22T11:15:58Z</time>
   </trkpt>
   <trkpt lat="-3.1050690" lon="37.3686440">
    <ele>4432.3</ele>
    <time>2026-06-22T11:15:59Z</time>
   </trkpt>
   <trkpt lat="-3.1050660" lon="37.3686430">
    <ele>4432.3</ele>
    <time>2026-06-22T11:16:00Z</time>
   </trkpt>
   <trkpt lat="-3.1050640" lon="37.3686430">
    <ele>4432.3</ele>
    <time>2026-06-22T11:16:01Z</time>
   </trkpt>
   <trkpt lat="-3.1050590" lon="37.3686460">
    <ele>4432.3</ele>
    <time>2026-06-22T11:16:02Z</time>
   </trkpt>
   <trkpt lat="-3.1050560" lon="37.3686500">
    <ele>4432.2</ele>
    <time>2026-06-22T11:16:03Z</time>
   </trkpt>
   <trkpt lat="-3.1050510" lon="37.3686550">
    <ele>4432.2</ele>
    <time>2026-06-22T11:16:04Z</time>
   </trkpt>
   <trkpt lat="-3.1050520" lon="37.3686660">
    <ele>4432.1</ele>
    <time>2026-06-22T11:16:05Z</time>
   </trkpt>
   <trkpt lat="-3.1050440" lon="37.3686670">
    <ele>4432.1</ele>
    <time>2026-06-22T11:16:06Z</time>
   </trkpt>
   <trkpt lat="-3.1050450" lon="37.3686680">
    <ele>4432.1</ele>
    <time>2026-06-22T11:16:07Z</time>
   </trkpt>
   <trkpt lat="-3.1050440" lon="37.3686680">
    <ele>4432.1</ele>
    <time>2026-06-22T11:16:08Z</time>
   </trkpt>
   <trkpt lat="-3.1050430" lon="37.3686690">
    <ele>4432.0</ele>
    <time>2026-06-22T11:16:09Z</time>
   </trkpt>
   <trkpt lat="-3.1050390" lon="37.3686700">
    <ele>4432.0</ele>
    <time>2026-06-22T11:16:10Z</time>
   </trkpt>
   <trkpt lat="-3.1050370" lon="37.3686750">
    <ele>4432.0</ele>
    <time>2026-06-22T11:16:11Z</time>
   </trkpt>
   <trkpt lat="-3.1050350" lon="37.3686740">
    <ele>4432.0</ele>
    <time>2026-06-22T11:16:12Z</time>
   </trkpt>
   <trkpt lat="-3.1050330" lon="37.3686780">
    <ele>4431.9</ele>
    <time>2026-06-22T11:16:13Z</time>
   </trkpt>
   <trkpt lat="-3.1050340" lon="37.3686750">
    <ele>4431.9</ele>
    <time>2026-06-22T11:16:14Z</time>
   </trkpt>
   <trkpt lat="-3.1050340" lon="37.3686760">
    <ele>4431.9</ele>
    <time>2026-06-22T11:16:15Z</time>
   </trkpt>
   <trkpt lat="-3.1050330" lon="37.3686770">
    <ele>4431.9</ele>
    <time>2026-06-22T11:16:16Z</time>
   </trkpt>
   <trkpt lat="-3.1050320" lon="37.3686790">
    <ele>4431.9</ele>
    <time>2026-06-22T11:16:17Z</time>
   </trkpt>
   <trkpt lat="-3.1050330" lon="37.3686790">
    <ele>4431.9</ele>
    <time>2026-06-22T11:16:18Z</time>
   </trkpt>
   <trkpt lat="-3.1050310" lon="37.3686790">
    <ele>4431.8</ele>
    <time>2026-06-22T11:16:19Z</time>
   </trkpt>
   <trkpt lat="-3.1050330" lon="37.3686770">
    <ele>4431.8</ele>
    <time>2026-06-22T11:16:20Z</time>
   </trkpt>
   <trkpt lat="-3.1050330" lon="37.3686760">
    <ele>4431.8</ele>
    <time>2026-06-22T11:16:21Z</time>
   </trkpt>
   <trkpt lat="-3.1050340" lon="37.3686760">
    <ele>4431.8</ele>
    <time>2026-06-22T11:16:22Z</time>
   </trkpt>
   <trkpt lat="-3.1050340" lon="37.3686770">
    <ele>4431.8</ele>
    <time>2026-06-22T11:16:23Z</time>
   </trkpt>
   <trkpt lat="-3.1050330" lon="37.3686790">
    <ele>4431.8</ele>
    <time>2026-06-22T11:16:24Z</time>
   </trkpt>
   <trkpt lat="-3.1050330" lon="37.3686770">
    <ele>4431.8</ele>
    <time>2026-06-22T11:16:25Z</time>
   </trkpt>
   <trkpt lat="-3.1050330" lon="37.3686770">
    <ele>4431.8</ele>
    <time>2026-06-22T11:16:26Z</time>
   </trkpt>
   <trkpt lat="-3.1050320" lon="37.3686780">
    <ele>4431.8</ele>
    <time>2026-06-22T11:16:27Z</time>
   </trkpt>
   <trkpt lat="-3.1050320" lon="37.3686780">
    <ele>4431.8</ele>
    <time>2026-06-22T11:16:28Z</time>
   </trkpt>
   <trkpt lat="-3.1050290" lon="37.3686770">
    <ele>4431.7</ele>
    <time>2026-06-22T11:16:29Z</time>
   </trkpt>
   <trkpt lat="-3.1050250" lon="37.3686770">
    <ele>4431.7</ele>
    <time>2026-06-22T11:16:30Z</time>
   </trkpt>
   <trkpt lat="-3.1050270" lon="37.3686760">
    <ele>4431.7</ele>
    <time>2026-06-22T11:16:31Z</time>
   </trkpt>
   <trkpt lat="-3.1050280" lon="37.3686760">
    <ele>4431.7</ele>
    <time>2026-06-22T11:16:32Z</time>
   </trkpt>
   <trkpt lat="-3.1050280" lon="37.3686750">
    <ele>4431.7</ele>
    <time>2026-06-22T11:16:33Z</time>
   </trkpt>
   <trkpt lat="-3.1050270" lon="37.3686760">
    <ele>4431.7</ele>
    <time>2026-06-22T11:16:34Z</time>
   </trkpt>
   <trkpt lat="-3.1050280" lon="37.3686760">
    <ele>4431.6</ele>
    <time>2026-06-22T11:16:35Z</time>
   </trkpt>
   <trkpt lat="-3.1050280" lon="37.3686780">
    <ele>4431.6</ele>
    <time>2026-06-22T11:16:36Z</time>
   </trkpt>
   <trkpt lat="-3.1050280" lon="37.3686770">
    <ele>4431.6</ele>
    <time>2026-06-22T11:16:37Z</time>
   </trkpt>
   <trkpt lat="-3.1050280" lon="37.3686780">
    <ele>4431.6</ele>
    <time>2026-06-22T11:16:38Z</time>
   </trkpt>
   <trkpt lat="-3.1050280" lon="37.3686770">
    <ele>4431.6</ele>
    <time>2026-06-22T11:16:39Z</time>
   </trkpt>
   <trkpt lat="-3.1050290" lon="37.3686780">
    <ele>4431.6</ele>
    <time>2026-06-22T11:16:40Z</time>
   </trkpt>
   <trkpt lat="-3.1050280" lon="37.3686780">
    <ele>4431.6</ele>
    <time>2026-06-22T11:16:41Z</time>
   </trkpt>
   <trkpt lat="-3.1050280" lon="37.3686790">
    <ele>4431.6</ele>
    <time>2026-06-22T11:16:42Z</time>
   </trkpt>
   <trkpt lat="-3.1050280" lon="37.3686790">
    <ele>4431.6</ele>
    <time>2026-06-22T11:16:43Z</time>
   </trkpt>
   <trkpt lat="-3.1050280" lon="37.3686790">
    <ele>4431.6</ele>
    <time>2026-06-22T11:16:44Z</time>
   </trkpt>
   <trkpt lat="-3.1050280" lon="37.3686800">
    <ele>4431.6</ele>
    <time>2026-06-22T11:16:45Z</time>
   </trkpt>
   <trkpt lat="-3.1050290" lon="37.3686790">
    <ele>4431.6</ele>
    <time>2026-06-22T11:16:46Z</time>
   </trkpt>
   <trkpt lat="-3.1050290" lon="37.3686800">
    <ele>4431.6</ele>
    <time>2026-06-22T11:16:47Z</time>
   </trkpt>
   <trkpt lat="-3.1050290" lon="37.3686800">
    <ele>4431.6</ele>
    <time>2026-06-22T11:16:48Z</time>
   </trkpt>
   <trkpt lat="-3.1050290" lon="37.3686800">
    <ele>4431.6</ele>
    <time>2026-06-22T11:16:49Z</time>
   </trkpt>
   <trkpt lat="-3.1050290" lon="37.3686810">
    <ele>4431.5</ele>
    <time>2026-06-22T11:16:50Z</time>
   </trkpt>
   <trkpt lat="-3.1050280" lon="37.3686800">
    <ele>4431.5</ele>
    <time>2026-06-22T11:16:51Z</time>
   </trkpt>
   <trkpt lat="-3.1050290" lon="37.3686810">
    <ele>4431.5</ele>
    <time>2026-06-22T11:16:52Z</time>
   </trkpt>
   <trkpt lat="-3.1050290" lon="37.3686810">
    <ele>4431.5</ele>
    <time>2026-06-22T11:16:53Z</time>
   </trkpt>
   <trkpt lat="-3.1050280" lon="37.3686800">
    <ele>4431.5</ele>
    <time>2026-06-22T11:16:54Z</time>
   </trkpt>
   <trkpt lat="-3.1050280" lon="37.3686800">
    <ele>4431.5</ele>
    <time>2026-06-22T11:16:55Z</time>
   </trkpt>
   <trkpt lat="-3.1050290" lon="37.3686810">
    <ele>4431.5</ele>
    <time>2026-06-22T11:16:56Z</time>
   </trkpt>
   <trkpt lat="-3.1050290" lon="37.3686810">
    <ele>4431.5</ele>
    <time>2026-06-22T11:16:57Z</time>
   </trkpt>
   <trkpt lat="-3.1050290" lon="37.3686810">
    <ele>4431.5</ele>
    <time>2026-06-22T11:16:58Z</time>
   </trkpt>
   <trkpt lat="-3.1050290" lon="37.3686800">
    <ele>4431.5</ele>
    <time>2026-06-22T11:16:59Z</time>
   </trkpt>
   <trkpt lat="-3.1050290" lon="37.3686800">
    <ele>4431.5</ele>
    <time>2026-06-22T11:17:00Z</time>
   </trkpt>
   <trkpt lat="-3.1050280" lon="37.3686820">
    <ele>4431.5</ele>
    <time>2026-06-22T11:17:01Z</time>
   </trkpt>
   <trkpt lat="-3.1050280" lon="37.3686800">
    <ele>4431.5</ele>
    <time>2026-06-22T11:17:02Z</time>
   </trkpt>
   <trkpt lat="-3.1050280" lon="37.3686820">
    <ele>4431.4</ele>
    <time>2026-06-22T11:17:03Z</time>
   </trkpt>
   <trkpt lat="-3.1050260" lon="37.3686810">
    <ele>4431.4</ele>
    <time>2026-06-22T11:17:04Z</time>
   </trkpt>
   <trkpt lat="-3.1050250" lon="37.3686830">
    <ele>4431.4</ele>
    <time>2026-06-22T11:17:05Z</time>
   </trkpt>
   <trkpt lat="-3.1050230" lon="37.3686840">
    <ele>4431.4</ele>
    <time>2026-06-22T11:17:06Z</time>
   </trkpt>
   <trkpt lat="-3.1050210" lon="37.3686830">
    <ele>4431.4</ele>
    <time>2026-06-22T11:17:07Z</time>
   </trkpt>
   <trkpt lat="-3.1050230" lon="37.3686810">
    <ele>4431.4</ele>
    <time>2026-06-22T11:17:08Z</time>
   </trkpt>
   <trkpt lat="-3.1050220" lon="37.3686810">
    <ele>4431.3</ele>
    <time>2026-06-22T11:17:09Z</time>
   </trkpt>
   <trkpt lat="-3.1050230" lon="37.3686800">
    <ele>4431.3</ele>
    <time>2026-06-22T11:17:10Z</time>
   </trkpt>
   <trkpt lat="-3.1050220" lon="37.3686800">
    <ele>4431.3</ele>
    <time>2026-06-22T11:17:11Z</time>
   </trkpt>
   <trkpt lat="-3.1050220" lon="37.3686800">
    <ele>4431.3</ele>
    <time>2026-06-22T11:17:12Z</time>
   </trkpt>
   <trkpt lat="-3.1050220" lon="37.3686790">
    <ele>4431.3</ele>
    <time>2026-06-22T11:17:13Z</time>
   </trkpt>
   <trkpt lat="-3.1050220" lon="37.3686800">
    <ele>4431.3</ele>
    <time>2026-06-22T11:17:14Z</time>
   </trkpt>
   <trkpt lat="-3.1050230" lon="37.3686790">
    <ele>4431.3</ele>
    <time>2026-06-22T11:17:15Z</time>
   </trkpt>
   <trkpt lat="-3.1050230" lon="37.3686790">
    <ele>4431.3</ele>
    <time>2026-06-22T11:17:16Z</time>
   </trkpt>
   <trkpt lat="-3.1050220" lon="37.3686790">
    <ele>4431.3</ele>
    <time>2026-06-22T11:17:17Z</time>
   </trkpt>
   <trkpt lat="-3.1050210" lon="37.3686790">
    <ele>4431.3</ele>
    <time>2026-06-22T11:17:18Z</time>
   </trkpt>
   <trkpt lat="-3.1050220" lon="37.3686800">
    <ele>4431.3</ele>
    <time>2026-06-22T11:17:19Z</time>
   </trkpt>
   <trkpt lat="-3.1050220" lon="37.3686800">
    <ele>4431.3</ele>
    <time>2026-06-22T11:17:20Z</time>
   </trkpt>
   <trkpt lat="-3.1050230" lon="37.3686800">
    <ele>4431.3</ele>
    <time>2026-06-22T11:17:21Z</time>
   </trkpt>
   <trkpt lat="-3.1050240" lon="37.3686800">
    <ele>4431.3</ele>
    <time>2026-06-22T11:17:22Z</time>
   </trkpt>
   <trkpt lat="-3.1050240" lon="37.3686810">
    <ele>4431.3</ele>
    <time>2026-06-22T11:17:23Z</time>
   </trkpt>
   <trkpt lat="-3.1050250" lon="37.3686810">
    <ele>4431.2</ele>
    <time>2026-06-22T11:17:24Z</time>
   </trkpt>
   <trkpt lat="-3.1050240" lon="37.3686810">
    <ele>4431.2</ele>
    <time>2026-06-22T11:17:25Z</time>
   </trkpt>
   <trkpt lat="-3.1050230" lon="37.3686820">
    <ele>4431.2</ele>
    <time>2026-06-22T11:17:26Z</time>
   </trkpt>
   <trkpt lat="-3.1050230" lon="37.3686820">
    <ele>4431.2</ele>
    <time>2026-06-22T11:17:27Z</time>
   </trkpt>
   <trkpt lat="-3.1050230" lon="37.3686810">
    <ele>4431.2</ele>
    <time>2026-06-22T11:17:28Z</time>
   </trkpt>
   <trkpt lat="-3.1050230" lon="37.3686800">
    <ele>4431.2</ele>
    <time>2026-06-22T11:17:29Z</time>
   </trkpt>
   <trkpt lat="-3.1050220" lon="37.3686810">
    <ele>4431.2</ele>
    <time>2026-06-22T11:17:30Z</time>
   </trkpt>
   <trkpt lat="-3.1050220" lon="37.3686810">
    <ele>4431.2</ele>
    <time>2026-06-22T11:17:31Z</time>
   </trkpt>
   <trkpt lat="-3.1050210" lon="37.3686820">
    <ele>4431.2</ele>
    <time>2026-06-22T11:17:32Z</time>
   </trkpt>
   <trkpt lat="-3.1050210" lon="37.3686800">
    <ele>4431.2</ele>
    <time>2026-06-22T11:17:33Z</time>
   </trkpt>
   <trkpt lat="-3.1050210" lon="37.3686790">
    <ele>4431.2</ele>
    <time>2026-06-22T11:17:34Z</time>
   </trkpt>
   <trkpt lat="-3.1050220" lon="37.3686790">
    <ele>4431.2</ele>
    <time>2026-06-22T11:17:35Z</time>
   </trkpt>
   <trkpt lat="-3.1050210" lon="37.3686780">
    <ele>4431.2</ele>
    <time>2026-06-22T11:17:36Z</time>
   </trkpt>
   <trkpt lat="-3.1050220" lon="37.3686780">
    <ele>4431.1</ele>
    <time>2026-06-22T11:17:37Z</time>
   </trkpt>
   <trkpt lat="-3.1050210" lon="37.3686790">
    <ele>4431.1</ele>
    <time>2026-06-22T11:17:38Z</time>
   </trkpt>
   <trkpt lat="-3.1050220" lon="37.3686790">
    <ele>4431.1</ele>
    <time>2026-06-22T11:17:39Z</time>
   </trkpt>
   <trkpt lat="-3.1050220" lon="37.3686780">
    <ele>4431.1</ele>
    <time>2026-06-22T11:17:40Z</time>
   </trkpt>
   <trkpt lat="-3.1050220" lon="37.3686790">
    <ele>4431.1</ele>
    <time>2026-06-22T11:17:41Z</time>
   </trkpt>
   <trkpt lat="-3.1050220" lon="37.3686810">
    <ele>4431.1</ele>
    <time>2026-06-22T11:17:42Z</time>
   </trkpt>
   <trkpt lat="-3.1050220" lon="37.3686800">
    <ele>4431.1</ele>
    <time>2026-06-22T11:17:43Z</time>
   </trkpt>
   <trkpt lat="-3.1050220" lon="37.3686790">
    <ele>4431.1</ele>
    <time>2026-06-22T11:17:44Z</time>
   </trkpt>
   <trkpt lat="-3.1050220" lon="37.3686790">
    <ele>4431.1</ele>
    <time>2026-06-22T11:17:45Z</time>
   </trkpt>
   <trkpt lat="-3.1050210" lon="37.3686790">
    <ele>4431.1</ele>
    <time>2026-06-22T11:17:46Z</time>
   </trkpt>
   <trkpt lat="-3.1050210" lon="37.3686780">
    <ele>4431.1</ele>
    <time>2026-06-22T11:17:47Z</time>
   </trkpt>
   <trkpt lat="-3.1050210" lon="37.3686780">
    <ele>4431.1</ele>
    <time>2026-06-22T11:17:48Z</time>
   </trkpt>
   <trkpt lat="-3.1050200" lon="37.3686830">
    <ele>4431.0</ele>
    <time>2026-06-22T11:17:49Z</time>
   </trkpt>
   <trkpt lat="-3.1050200" lon="37.3686850">
    <ele>4431.0</ele>
    <time>2026-06-22T11:17:50Z</time>
   </trkpt>
   <trkpt lat="-3.1050170" lon="37.3686880">
    <ele>4431.0</ele>
    <time>2026-06-22T11:17:51Z</time>
   </trkpt>
   <trkpt lat="-3.1050150" lon="37.3686930">
    <ele>4430.9</ele>
    <time>2026-06-22T11:17:52Z</time>
   </trkpt>
   <trkpt lat="-3.1050130" lon="37.3686970">
    <ele>4430.9</ele>
    <time>2026-06-22T11:17:53Z</time>
   </trkpt>
   <trkpt lat="-3.1050120" lon="37.3687000">
    <ele>4430.9</ele>
    <time>2026-06-22T11:17:54Z</time>
   </trkpt>
   <trkpt lat="-3.1050080" lon="37.3687030">
    <ele>4430.9</ele>
    <time>2026-06-22T11:17:55Z</time>
   </trkpt>
   <trkpt lat="-3.1050050" lon="37.3687070">
    <ele>4430.8</ele>
    <time>2026-06-22T11:17:56Z</time>
   </trkpt>
   <trkpt lat="-3.1049990" lon="37.3687100">
    <ele>4430.8</ele>
    <time>2026-06-22T11:17:57Z</time>
   </trkpt>
   <trkpt lat="-3.1049970" lon="37.3687110">
    <ele>4430.8</ele>
    <time>2026-06-22T11:17:58Z</time>
   </trkpt>
   <trkpt lat="-3.1049930" lon="37.3687130">
    <ele>4430.7</ele>
    <time>2026-06-22T11:17:59Z</time>
   </trkpt>
   <trkpt lat="-3.1049910" lon="37.3687150">
    <ele>4430.7</ele>
    <time>2026-06-22T11:18:00Z</time>
   </trkpt>
   <trkpt lat="-3.1049860" lon="37.3687170">
    <ele>4430.7</ele>
    <time>2026-06-22T11:18:01Z</time>
   </trkpt>
   <trkpt lat="-3.1049810" lon="37.3687170">
    <ele>4430.6</ele>
    <time>2026-06-22T11:18:02Z</time>
   </trkpt>
   <trkpt lat="-3.1049770" lon="37.3687170">
    <ele>4430.6</ele>
    <time>2026-06-22T11:18:03Z</time>
   </trkpt>
   <trkpt lat="-3.1049740" lon="37.3687160">
    <ele>4430.6</ele>
    <time>2026-06-22T11:18:04Z</time>
   </trkpt>
   <trkpt lat="-3.1049710" lon="37.3687140">
    <ele>4430.6</ele>
    <time>2026-06-22T11:18:05Z</time>
   </trkpt>
   <trkpt lat="-3.1049660" lon="37.3687140">
    <ele>4430.5</ele>
    <time>2026-06-22T11:18:06Z</time>
   </trkpt>
   <trkpt lat="-3.1049640" lon="37.3687160">
    <ele>4430.5</ele>
    <time>2026-06-22T11:18:07Z</time>
   </trkpt>
   <trkpt lat="-3.1049600" lon="37.3687190">
    <ele>4430.5</ele>
    <time>2026-06-22T11:18:08Z</time>
   </trkpt>
   <trkpt lat="-3.1049550" lon="37.3687230">
    <ele>4430.5</ele>
    <time>2026-06-22T11:18:09Z</time>
   </trkpt>
   <trkpt lat="-3.1049530" lon="37.3687270">
    <ele>4430.4</ele>
    <time>2026-06-22T11:18:10Z</time>
   </trkpt>
   <trkpt lat="-3.1049480" lon="37.3687290">
    <ele>4430.4</ele>
    <time>2026-06-22T11:18:11Z</time>
   </trkpt>
   <trkpt lat="-3.1049460" lon="37.3687320">
    <ele>4430.4</ele>
    <time>2026-06-22T11:18:12Z</time>
   </trkpt>
   <trkpt lat="-3.1049400" lon="37.3687330">
    <ele>4430.3</ele>
    <time>2026-06-22T11:18:13Z</time>
   </trkpt>
   <trkpt lat="-3.1049340" lon="37.3687360">
    <ele>4430.3</ele>
    <time>2026-06-22T11:18:14Z</time>
   </trkpt>
   <trkpt lat="-3.1049300" lon="37.3687380">
    <ele>4430.3</ele>
    <time>2026-06-22T11:18:15Z</time>
   </trkpt>
   <trkpt lat="-3.1049260" lon="37.3687420">
    <ele>4430.2</ele>
    <time>2026-06-22T11:18:16Z</time>
   </trkpt>
   <trkpt lat="-3.1049210" lon="37.3687460">
    <ele>4430.2</ele>
    <time>2026-06-22T11:18:17Z</time>
   </trkpt>
   <trkpt lat="-3.1049170" lon="37.3687520">
    <ele>4430.1</ele>
    <time>2026-06-22T11:18:18Z</time>
   </trkpt>
   <trkpt lat="-3.1049130" lon="37.3687560">
    <ele>4430.1</ele>
    <time>2026-06-22T11:18:19Z</time>
   </trkpt>
   <trkpt lat="-3.1049090" lon="37.3687590">
    <ele>4430.1</ele>
    <time>2026-06-22T11:18:20Z</time>
   </trkpt>
   <trkpt lat="-3.1049080" lon="37.3687600">
    <ele>4430.0</ele>
    <time>2026-06-22T11:18:21Z</time>
   </trkpt>
   <trkpt lat="-3.1049020" lon="37.3687660">
    <ele>4430.0</ele>
    <time>2026-06-22T11:18:22Z</time>
   </trkpt>
   <trkpt lat="-3.1048990" lon="37.3687700">
    <ele>4430.0</ele>
    <time>2026-06-22T11:18:23Z</time>
   </trkpt>
   <trkpt lat="-3.1048960" lon="37.3687710">
    <ele>4429.9</ele>
    <time>2026-06-22T11:18:24Z</time>
   </trkpt>
   <trkpt lat="-3.1048970" lon="37.3687740">
    <ele>4429.9</ele>
    <time>2026-06-22T11:18:25Z</time>
   </trkpt>
   <trkpt lat="-3.1048940" lon="37.3687770">
    <ele>4429.9</ele>
    <time>2026-06-22T11:18:26Z</time>
   </trkpt>
   <trkpt lat="-3.1048900" lon="37.3687810">
    <ele>4429.9</ele>
    <time>2026-06-22T11:18:27Z</time>
   </trkpt>
   <trkpt lat="-3.1048900" lon="37.3687830">
    <ele>4429.8</ele>
    <time>2026-06-22T11:18:28Z</time>
   </trkpt>
   <trkpt lat="-3.1048890" lon="37.3687860">
    <ele>4429.8</ele>
    <time>2026-06-22T11:18:29Z</time>
   </trkpt>
   <trkpt lat="-3.1048890" lon="37.3687890">
    <ele>4429.8</ele>
    <time>2026-06-22T11:18:30Z</time>
   </trkpt>
   <trkpt lat="-3.1048890" lon="37.3687900">
    <ele>4429.8</ele>
    <time>2026-06-22T11:18:31Z</time>
   </trkpt>
   <trkpt lat="-3.1048870" lon="37.3687900">
    <ele>4429.8</ele>
    <time>2026-06-22T11:18:32Z</time>
   </trkpt>
   <trkpt lat="-3.1048800" lon="37.3687910">
    <ele>4429.7</ele>
    <time>2026-06-22T11:18:33Z</time>
   </trkpt>
   <trkpt lat="-3.1048760" lon="37.3687930">
    <ele>4429.7</ele>
    <time>2026-06-22T11:18:34Z</time>
   </trkpt>
   <trkpt lat="-3.1048730" lon="37.3687930">
    <ele>4429.7</ele>
    <time>2026-06-22T11:18:35Z</time>
   </trkpt>
   <trkpt lat="-3.1048690" lon="37.3687960">
    <ele>4429.7</ele>
    <time>2026-06-22T11:18:36Z</time>
   </trkpt>
   <trkpt lat="-3.1048660" lon="37.3687960">
    <ele>4429.6</ele>
    <time>2026-06-22T11:18:37Z</time>
   </trkpt>
   <trkpt lat="-3.1048640" lon="37.3688000">
    <ele>4429.6</ele>
    <time>2026-06-22T11:18:38Z</time>
   </trkpt>
   <trkpt lat="-3.1048620" lon="37.3688020">
    <ele>4429.6</ele>
    <time>2026-06-22T11:18:39Z</time>
   </trkpt>
   <trkpt lat="-3.1048600" lon="37.3688020">
    <ele>4429.6</ele>
    <time>2026-06-22T11:18:40Z</time>
   </trkpt>
   <trkpt lat="-3.1048590" lon="37.3688030">
    <ele>4429.6</ele>
    <time>2026-06-22T11:18:41Z</time>
   </trkpt>
   <trkpt lat="-3.1048570" lon="37.3688030">
    <ele>4429.6</ele>
    <time>2026-06-22T11:18:42Z</time>
   </trkpt>
   <trkpt lat="-3.1048530" lon="37.3688050">
    <ele>4429.5</ele>
    <time>2026-06-22T11:18:43Z</time>
   </trkpt>
   <trkpt lat="-3.1048480" lon="37.3688100">
    <ele>4429.5</ele>
    <time>2026-06-22T11:18:44Z</time>
   </trkpt>
   <trkpt lat="-3.1048480" lon="37.3688100">
    <ele>4429.5</ele>
    <time>2026-06-22T11:18:45Z</time>
   </trkpt>
   <trkpt lat="-3.1048480" lon="37.3688100">
    <ele>4429.5</ele>
    <time>2026-06-22T11:18:46Z</time>
   </trkpt>
   <trkpt lat="-3.1048440" lon="37.3688150">
    <ele>4429.4</ele>
    <time>2026-06-22T11:18:47Z</time>
   </trkpt>
   <trkpt lat="-3.1048420" lon="37.3688140">
    <ele>4429.4</ele>
    <time>2026-06-22T11:18:48Z</time>
   </trkpt>
   <trkpt lat="-3.1048350" lon="37.3688190">
    <ele>4429.4</ele>
    <time>2026-06-22T11:18:49Z</time>
   </trkpt>
   <trkpt lat="-3.1048310" lon="37.3688200">
    <ele>4429.4</ele>
    <time>2026-06-22T11:18:50Z</time>
   </trkpt>
   <trkpt lat="-3.1048280" lon="37.3688220">
    <ele>4429.3</ele>
    <time>2026-06-22T11:18:51Z</time>
   </trkpt>
   <trkpt lat="-3.1048260" lon="37.3688250">
    <ele>4429.3</ele>
    <time>2026-06-22T11:18:52Z</time>
   </trkpt>
   <trkpt lat="-3.1048270" lon="37.3688260">
    <ele>4429.3</ele>
    <time>2026-06-22T11:18:53Z</time>
   </trkpt>
   <trkpt lat="-3.1048270" lon="37.3688270">
    <ele>4429.3</ele>
    <time>2026-06-22T11:18:54Z</time>
   </trkpt>
   <trkpt lat="-3.1048270" lon="37.3688270">
    <ele>4429.3</ele>
    <time>2026-06-22T11:18:55Z</time>
   </trkpt>
   <trkpt lat="-3.1048290" lon="37.3688280">
    <ele>4429.3</ele>
    <time>2026-06-22T11:18:56Z</time>
   </trkpt>
   <trkpt lat="-3.1048320" lon="37.3688280">
    <ele>4429.3</ele>
    <time>2026-06-22T11:18:57Z</time>
   </trkpt>
   <trkpt lat="-3.1048300" lon="37.3688260">
    <ele>4429.3</ele>
    <time>2026-06-22T11:18:58Z</time>
   </trkpt>
   <trkpt lat="-3.1048340" lon="37.3688250">
    <ele>4429.2</ele>
    <time>2026-06-22T11:18:59Z</time>
   </trkpt>
   <trkpt lat="-3.1048370" lon="37.3688250">
    <ele>4429.2</ele>
    <time>2026-06-22T11:19:00Z</time>
   </trkpt>
   <trkpt lat="-3.1048380" lon="37.3688300">
    <ele>4429.2</ele>
    <time>2026-06-22T11:19:01Z</time>
   </trkpt>
   <trkpt lat="-3.1048360" lon="37.3688320">
    <ele>4429.2</ele>
    <time>2026-06-22T11:19:02Z</time>
   </trkpt>
   <trkpt lat="-3.1048340" lon="37.3688330">
    <ele>4429.2</ele>
    <time>2026-06-22T11:19:03Z</time>
   </trkpt>
   <trkpt lat="-3.1048340" lon="37.3688380">
    <ele>4429.1</ele>
    <time>2026-06-22T11:19:04Z</time>
   </trkpt>
   <trkpt lat="-3.1048310" lon="37.3688410">
    <ele>4429.1</ele>
    <time>2026-06-22T11:19:05Z</time>
   </trkpt>
   <trkpt lat="-3.1048330" lon="37.3688440">
    <ele>4429.1</ele>
    <time>2026-06-22T11:19:06Z</time>
   </trkpt>
   <trkpt lat="-3.1048330" lon="37.3688480">
    <ele>4429.1</ele>
    <time>2026-06-22T11:19:07Z</time>
   </trkpt>
   <trkpt lat="-3.1048330" lon="37.3688510">
    <ele>4429.1</ele>
    <time>2026-06-22T11:19:08Z</time>
   </trkpt>
   <trkpt lat="-3.1048310" lon="37.3688540">
    <ele>4429.0</ele>
    <time>2026-06-22T11:19:09Z</time>
   </trkpt>
   <trkpt lat="-3.1048290" lon="37.3688600">
    <ele>4429.0</ele>
    <time>2026-06-22T11:19:10Z</time>
   </trkpt>
   <trkpt lat="-3.1048280" lon="37.3688620">
    <ele>4429.0</ele>
    <time>2026-06-22T11:19:11Z</time>
   </trkpt>
   <trkpt lat="-3.1048300" lon="37.3688640">
    <ele>4429.0</ele>
    <time>2026-06-22T11:19:12Z</time>
   </trkpt>
   <trkpt lat="-3.1048280" lon="37.3688690">
    <ele>4429.0</ele>
    <time>2026-06-22T11:19:13Z</time>
   </trkpt>
   <trkpt lat="-3.1048260" lon="37.3688750">
    <ele>4428.9</ele>
    <time>2026-06-22T11:19:14Z</time>
   </trkpt>
   <trkpt lat="-3.1048220" lon="37.3688750">
    <ele>4428.9</ele>
    <time>2026-06-22T11:19:15Z</time>
   </trkpt>
   <trkpt lat="-3.1048120" lon="37.3688800">
    <ele>4428.9</ele>
    <time>2026-06-22T11:19:16Z</time>
   </trkpt>
   <trkpt lat="-3.1048080" lon="37.3688830">
    <ele>4428.8</ele>
    <time>2026-06-22T11:19:17Z</time>
   </trkpt>
   <trkpt lat="-3.1048080" lon="37.3688870">
    <ele>4428.8</ele>
    <time>2026-06-22T11:19:18Z</time>
   </trkpt>
   <trkpt lat="-3.1048100" lon="37.3688920">
    <ele>4428.8</ele>
    <time>2026-06-22T11:19:19Z</time>
   </trkpt>
   <trkpt lat="-3.1048090" lon="37.3689000">
    <ele>4428.8</ele>
    <time>2026-06-22T11:19:20Z</time>
   </trkpt>
   <trkpt lat="-3.1048120" lon="37.3689020">
    <ele>4428.8</ele>
    <time>2026-06-22T11:19:21Z</time>
   </trkpt>
   <trkpt lat="-3.1048120" lon="37.3689000">
    <ele>4428.7</ele>
    <time>2026-06-22T11:19:22Z</time>
   </trkpt>
   <trkpt lat="-3.1048140" lon="37.3689000">
    <ele>4428.7</ele>
    <time>2026-06-22T11:19:23Z</time>
   </trkpt>
   <trkpt lat="-3.1048140" lon="37.3688990">
    <ele>4428.7</ele>
    <time>2026-06-22T11:19:24Z</time>
   </trkpt>
   <trkpt lat="-3.1048150" lon="37.3689010">
    <ele>4428.7</ele>
    <time>2026-06-22T11:19:25Z</time>
   </trkpt>
   <trkpt lat="-3.1048200" lon="37.3689020">
    <ele>4428.7</ele>
    <time>2026-06-22T11:19:26Z</time>
   </trkpt>
   <trkpt lat="-3.1048240" lon="37.3689060">
    <ele>4428.7</ele>
    <time>2026-06-22T11:19:27Z</time>
   </trkpt>
   <trkpt lat="-3.1048250" lon="37.3689060">
    <ele>4428.7</ele>
    <time>2026-06-22T11:19:28Z</time>
   </trkpt>
   <trkpt lat="-3.1048260" lon="37.3689120">
    <ele>4428.7</ele>
    <time>2026-06-22T11:19:29Z</time>
   </trkpt>
   <trkpt lat="-3.1048240" lon="37.3689120">
    <ele>4428.7</ele>
    <time>2026-06-22T11:19:30Z</time>
   </trkpt>
   <trkpt lat="-3.1048230" lon="37.3689140">
    <ele>4428.7</ele>
    <time>2026-06-22T11:19:31Z</time>
   </trkpt>
   <trkpt lat="-3.1048230" lon="37.3689130">
    <ele>4428.6</ele>
    <time>2026-06-22T11:19:32Z</time>
   </trkpt>
   <trkpt lat="-3.1048220" lon="37.3689130">
    <ele>4428.6</ele>
    <time>2026-06-22T11:19:33Z</time>
   </trkpt>
   <trkpt lat="-3.1048220" lon="37.3689130">
    <ele>4428.6</ele>
    <time>2026-06-22T11:19:34Z</time>
   </trkpt>
   <trkpt lat="-3.1048210" lon="37.3689140">
    <ele>4428.6</ele>
    <time>2026-06-22T11:19:35Z</time>
   </trkpt>
   <trkpt lat="-3.1048200" lon="37.3689140">
    <ele>4428.6</ele>
    <time>2026-06-22T11:19:36Z</time>
   </trkpt>
   <trkpt lat="-3.1048200" lon="37.3689140">
    <ele>4428.6</ele>
    <time>2026-06-22T11:19:37Z</time>
   </trkpt>
   <trkpt lat="-3.1048190" lon="37.3689150">
    <ele>4428.6</ele>
    <time>2026-06-22T11:19:38Z</time>
   </trkpt>
   <trkpt lat="-3.1048190" lon="37.3689150">
    <ele>4428.6</ele>
    <time>2026-06-22T11:19:39Z</time>
   </trkpt>
   <trkpt lat="-3.1048170" lon="37.3689160">
    <ele>4428.6</ele>
    <time>2026-06-22T11:19:40Z</time>
   </trkpt>
   <trkpt lat="-3.1048170" lon="37.3689150">
    <ele>4428.6</ele>
    <time>2026-06-22T11:19:41Z</time>
   </trkpt>
   <trkpt lat="-3.1048160" lon="37.3689150">
    <ele>4428.6</ele>
    <time>2026-06-22T11:19:42Z</time>
   </trkpt>
   <trkpt lat="-3.1048150" lon="37.3689140">
    <ele>4428.6</ele>
    <time>2026-06-22T11:19:43Z</time>
   </trkpt>
   <trkpt lat="-3.1048160" lon="37.3689170">
    <ele>4428.6</ele>
    <time>2026-06-22T11:19:44Z</time>
   </trkpt>
   <trkpt lat="-3.1048160" lon="37.3689190">
    <ele>4428.6</ele>
    <time>2026-06-22T11:19:45Z</time>
   </trkpt>
   <trkpt lat="-3.1048120" lon="37.3689210">
    <ele>4428.6</ele>
    <time>2026-06-22T11:19:46Z</time>
   </trkpt>
   <trkpt lat="-3.1048100" lon="37.3689240">
    <ele>4428.6</ele>
    <time>2026-06-22T11:19:47Z</time>
   </trkpt>
   <trkpt lat="-3.1048070" lon="37.3689280">
    <ele>4428.6</ele>
    <time>2026-06-22T11:19:48Z</time>
   </trkpt>
   <trkpt lat="-3.1048020" lon="37.3689260">
    <ele>4428.6</ele>
    <time>2026-06-22T11:19:49Z</time>
   </trkpt>
   <trkpt lat="-3.1048010" lon="37.3689390">
    <ele>4428.5</ele>
    <time>2026-06-22T11:19:50Z</time>
   </trkpt>
   <trkpt lat="-3.1047950" lon="37.3689400">
    <ele>4428.5</ele>
    <time>2026-06-22T11:19:51Z</time>
   </trkpt>
   <trkpt lat="-3.1047900" lon="37.3689430">
    <ele>4428.5</ele>
    <time>2026-06-22T11:19:52Z</time>
   </trkpt>
   <trkpt lat="-3.1047850" lon="37.3689450">
    <ele>4428.5</ele>
    <time>2026-06-22T11:19:53Z</time>
   </trkpt>
   <trkpt lat="-3.1047800" lon="37.3689500">
    <ele>4428.5</ele>
    <time>2026-06-22T11:19:54Z</time>
   </trkpt>
   <trkpt lat="-3.1047770" lon="37.3689550">
    <ele>4428.5</ele>
    <time>2026-06-22T11:19:55Z</time>
   </trkpt>
   <trkpt lat="-3.1047740" lon="37.3689600">
    <ele>4428.5</ele>
    <time>2026-06-22T11:19:56Z</time>
   </trkpt>
   <trkpt lat="-3.1047710" lon="37.3689670">
    <ele>4428.4</ele>
    <time>2026-06-22T11:19:57Z</time>
   </trkpt>
   <trkpt lat="-3.1047650" lon="37.3689730">
    <ele>4428.4</ele>
    <time>2026-06-22T11:19:58Z</time>
   </trkpt>
   <trkpt lat="-3.1047590" lon="37.3689790">
    <ele>4428.4</ele>
    <time>2026-06-22T11:19:59Z</time>
   </trkpt>
   <trkpt lat="-3.1047540" lon="37.3689840">
    <ele>4428.4</ele>
    <time>2026-06-22T11:20:00Z</time>
   </trkpt>
   <trkpt lat="-3.1047510" lon="37.3689890">
    <ele>4428.4</ele>
    <time>2026-06-22T11:20:01Z</time>
   </trkpt>
   <trkpt lat="-3.1047470" lon="37.3689940">
    <ele>4428.4</ele>
    <time>2026-06-22T11:20:02Z</time>
   </trkpt>
   <trkpt lat="-3.1047440" lon="37.3689980">
    <ele>4428.4</ele>
    <time>2026-06-22T11:20:03Z</time>
   </trkpt>
   <trkpt lat="-3.1047420" lon="37.3690060">
    <ele>4428.4</ele>
    <time>2026-06-22T11:20:04Z</time>
   </trkpt>
   <trkpt lat="-3.1047440" lon="37.3690120">
    <ele>4428.3</ele>
    <time>2026-06-22T11:20:05Z</time>
   </trkpt>
   <trkpt lat="-3.1047440" lon="37.3690200">
    <ele>4428.3</ele>
    <time>2026-06-22T11:20:06Z</time>
   </trkpt>
   <trkpt lat="-3.1047440" lon="37.3690270">
    <ele>4428.3</ele>
    <time>2026-06-22T11:20:07Z</time>
   </trkpt>
   <trkpt lat="-3.1047420" lon="37.3690340">
    <ele>4428.3</ele>
    <time>2026-06-22T11:20:08Z</time>
   </trkpt>
   <trkpt lat="-3.1047370" lon="37.3690370">
    <ele>4428.3</ele>
    <time>2026-06-22T11:20:09Z</time>
   </trkpt>
   <trkpt lat="-3.1047330" lon="37.3690390">
    <ele>4428.3</ele>
    <time>2026-06-22T11:20:10Z</time>
   </trkpt>
   <trkpt lat="-3.1047290" lon="37.3690430">
    <ele>4428.3</ele>
    <time>2026-06-22T11:20:11Z</time>
   </trkpt>
   <trkpt lat="-3.1047250" lon="37.3690480">
    <ele>4428.2</ele>
    <time>2026-06-22T11:20:12Z</time>
   </trkpt>
   <trkpt lat="-3.1047200" lon="37.3690520">
    <ele>4428.2</ele>
    <time>2026-06-22T11:20:13Z</time>
   </trkpt>
   <trkpt lat="-3.1047160" lon="37.3690590">
    <ele>4428.2</ele>
    <time>2026-06-22T11:20:14Z</time>
   </trkpt>
   <trkpt lat="-3.1047150" lon="37.3690650">
    <ele>4428.2</ele>
    <time>2026-06-22T11:20:15Z</time>
   </trkpt>
   <trkpt lat="-3.1047120" lon="37.3690710">
    <ele>4428.2</ele>
    <time>2026-06-22T11:20:16Z</time>
   </trkpt>
   <trkpt lat="-3.1047110" lon="37.3690770">
    <ele>4428.2</ele>
    <time>2026-06-22T11:20:17Z</time>
   </trkpt>
   <trkpt lat="-3.1047100" lon="37.3690830">
    <ele>4428.1</ele>
    <time>2026-06-22T11:20:18Z</time>
   </trkpt>
   <trkpt lat="-3.1047090" lon="37.3690900">
    <ele>4428.1</ele>
    <time>2026-06-22T11:20:19Z</time>
   </trkpt>
   <trkpt lat="-3.1047060" lon="37.3690950">
    <ele>4428.1</ele>
    <time>2026-06-22T11:20:20Z</time>
   </trkpt>
   <trkpt lat="-3.1047040" lon="37.3690990">
    <ele>4428.1</ele>
    <time>2026-06-22T11:20:21Z</time>
   </trkpt>
   <trkpt lat="-3.1047010" lon="37.3691020">
    <ele>4428.1</ele>
    <time>2026-06-22T11:20:22Z</time>
   </trkpt>
   <trkpt lat="-3.1046980" lon="37.3691070">
    <ele>4428.1</ele>
    <time>2026-06-22T11:20:23Z</time>
   </trkpt>
   <trkpt lat="-3.1046970" lon="37.3691100">
    <ele>4428.0</ele>
    <time>2026-06-22T11:20:24Z</time>
   </trkpt>
   <trkpt lat="-3.1046920" lon="37.3691150">
    <ele>4428.0</ele>
    <time>2026-06-22T11:20:25Z</time>
   </trkpt>
   <trkpt lat="-3.1046920" lon="37.3691190">
    <ele>4428.0</ele>
    <time>2026-06-22T11:20:26Z</time>
   </trkpt>
   <trkpt lat="-3.1046920" lon="37.3691260">
    <ele>4428.0</ele>
    <time>2026-06-22T11:20:27Z</time>
   </trkpt>
   <trkpt lat="-3.1046900" lon="37.3691310">
    <ele>4428.0</ele>
    <time>2026-06-22T11:20:28Z</time>
   </trkpt>
   <trkpt lat="-3.1046880" lon="37.3691380">
    <ele>4428.0</ele>
    <time>2026-06-22T11:20:29Z</time>
   </trkpt>
   <trkpt lat="-3.1046860" lon="37.3691450">
    <ele>4427.9</ele>
    <time>2026-06-22T11:20:30Z</time>
   </trkpt>
   <trkpt lat="-3.1046860" lon="37.3691540">
    <ele>4427.9</ele>
    <time>2026-06-22T11:20:31Z</time>
   </trkpt>
   <trkpt lat="-3.1046890" lon="37.3691580">
    <ele>4427.9</ele>
    <time>2026-06-22T11:20:32Z</time>
   </trkpt>
   <trkpt lat="-3.1046910" lon="37.3691640">
    <ele>4427.9</ele>
    <time>2026-06-22T11:20:33Z</time>
   </trkpt>
   <trkpt lat="-3.1046900" lon="37.3691680">
    <ele>4427.9</ele>
    <time>2026-06-22T11:20:34Z</time>
   </trkpt>
   <trkpt lat="-3.1046890" lon="37.3691700">
    <ele>4427.9</ele>
    <time>2026-06-22T11:20:35Z</time>
   </trkpt>
   <trkpt lat="-3.1046880" lon="37.3691750">
    <ele>4427.9</ele>
    <time>2026-06-22T11:20:36Z</time>
   </trkpt>
   <trkpt lat="-3.1046870" lon="37.3691740">
    <ele>4427.9</ele>
    <time>2026-06-22T11:20:37Z</time>
   </trkpt>
   <trkpt lat="-3.1046880" lon="37.3691800">
    <ele>4427.8</ele>
    <time>2026-06-22T11:20:38Z</time>
   </trkpt>
   <trkpt lat="-3.1046870" lon="37.3691900">
    <ele>4427.8</ele>
    <time>2026-06-22T11:20:39Z</time>
   </trkpt>
   <trkpt lat="-3.1046860" lon="37.3691970">
    <ele>4427.8</ele>
    <time>2026-06-22T11:20:40Z</time>
   </trkpt>
   <trkpt lat="-3.1046820" lon="37.3692070">
    <ele>4427.8</ele>
    <time>2026-06-22T11:20:41Z</time>
   </trkpt>
   <trkpt lat="-3.1046760" lon="37.3692160">
    <ele>4427.7</ele>
    <time>2026-06-22T11:20:42Z</time>
   </trkpt>
   <trkpt lat="-3.1046700" lon="37.3692240">
    <ele>4427.7</ele>
    <time>2026-06-22T11:20:43Z</time>
   </trkpt>
   <trkpt lat="-3.1046650" lon="37.3692300">
    <ele>4427.7</ele>
    <time>2026-06-22T11:20:44Z</time>
   </trkpt>
   <trkpt lat="-3.1046610" lon="37.3692360">
    <ele>4427.7</ele>
    <time>2026-06-22T11:20:45Z</time>
   </trkpt>
   <trkpt lat="-3.1046550" lon="37.3692420">
    <ele>4427.6</ele>
    <time>2026-06-22T11:20:46Z</time>
   </trkpt>
   <trkpt lat="-3.1046480" lon="37.3692490">
    <ele>4427.6</ele>
    <time>2026-06-22T11:20:47Z</time>
   </trkpt>
   <trkpt lat="-3.1046430" lon="37.3692520">
    <ele>4427.6</ele>
    <time>2026-06-22T11:20:48Z</time>
   </trkpt>
   <trkpt lat="-3.1046340" lon="37.3692600">
    <ele>4427.6</ele>
    <time>2026-06-22T11:20:49Z</time>
   </trkpt>
   <trkpt lat="-3.1046280" lon="37.3692670">
    <ele>4427.6</ele>
    <time>2026-06-22T11:20:50Z</time>
   </trkpt>
   <trkpt lat="-3.1046250" lon="37.3692750">
    <ele>4427.5</ele>
    <time>2026-06-22T11:20:51Z</time>
   </trkpt>
   <trkpt lat="-3.1046260" lon="37.3692800">
    <ele>4427.5</ele>
    <time>2026-06-22T11:20:52Z</time>
   </trkpt>
   <trkpt lat="-3.1046240" lon="37.3692880">
    <ele>4427.5</ele>
    <time>2026-06-22T11:20:53Z</time>
   </trkpt>
   <trkpt lat="-3.1046210" lon="37.3692970">
    <ele>4427.5</ele>
    <time>2026-06-22T11:20:54Z</time>
   </trkpt>
   <trkpt lat="-3.1046180" lon="37.3693000">
    <ele>4427.5</ele>
    <time>2026-06-22T11:20:55Z</time>
   </trkpt>
   <trkpt lat="-3.1046150" lon="37.3693060">
    <ele>4427.5</ele>
    <time>2026-06-22T11:20:56Z</time>
   </trkpt>
   <trkpt lat="-3.1046110" lon="37.3693120">
    <ele>4427.4</ele>
    <time>2026-06-22T11:20:57Z</time>
   </trkpt>
   <trkpt lat="-3.1046060" lon="37.3693170">
    <ele>4427.4</ele>
    <time>2026-06-22T11:20:58Z</time>
   </trkpt>
   <trkpt lat="-3.1046010" lon="37.3693260">
    <ele>4427.4</ele>
    <time>2026-06-22T11:20:59Z</time>
   </trkpt>
   <trkpt lat="-3.1045960" lon="37.3693350">
    <ele>4427.4</ele>
    <time>2026-06-22T11:21:00Z</time>
   </trkpt>
   <trkpt lat="-3.1045900" lon="37.3693430">
    <ele>4427.3</ele>
    <time>2026-06-22T11:21:01Z</time>
   </trkpt>
   <trkpt lat="-3.1045850" lon="37.3693480">
    <ele>4427.3</ele>
    <time>2026-06-22T11:21:02Z</time>
   </trkpt>
   <trkpt lat="-3.1045790" lon="37.3693510">
    <ele>4427.3</ele>
    <time>2026-06-22T11:21:03Z</time>
   </trkpt>
   <trkpt lat="-3.1045730" lon="37.3693590">
    <ele>4427.3</ele>
    <time>2026-06-22T11:21:04Z</time>
   </trkpt>
   <trkpt lat="-3.1045710" lon="37.3693670">
    <ele>4427.2</ele>
    <time>2026-06-22T11:21:05Z</time>
   </trkpt>
   <trkpt lat="-3.1045720" lon="37.3693740">
    <ele>4427.2</ele>
    <time>2026-06-22T11:21:06Z</time>
   </trkpt>
   <trkpt lat="-3.1045690" lon="37.3693800">
    <ele>4427.2</ele>
    <time>2026-06-22T11:21:07Z</time>
   </trkpt>
   <trkpt lat="-3.1045660" lon="37.3693870">
    <ele>4427.2</ele>
    <time>2026-06-22T11:21:08Z</time>
   </trkpt>
   <trkpt lat="-3.1045640" lon="37.3693920">
    <ele>4427.2</ele>
    <time>2026-06-22T11:21:09Z</time>
   </trkpt>
   <trkpt lat="-3.1045620" lon="37.3693950">
    <ele>4427.2</ele>
    <time>2026-06-22T11:21:10Z</time>
   </trkpt>
   <trkpt lat="-3.1045590" lon="37.3694030">
    <ele>4427.2</ele>
    <time>2026-06-22T11:21:11Z</time>
   </trkpt>
   <trkpt lat="-3.1045600" lon="37.3694080">
    <ele>4427.1</ele>
    <time>2026-06-22T11:21:12Z</time>
   </trkpt>
   <trkpt lat="-3.1045600" lon="37.3694170">
    <ele>4427.1</ele>
    <time>2026-06-22T11:21:13Z</time>
   </trkpt>
   <trkpt lat="-3.1045580" lon="37.3694240">
    <ele>4427.1</ele>
    <time>2026-06-22T11:21:14Z</time>
   </trkpt>
   <trkpt lat="-3.1045570" lon="37.3694270">
    <ele>4427.1</ele>
    <time>2026-06-22T11:21:15Z</time>
   </trkpt>
   <trkpt lat="-3.1045560" lon="37.3694330">
    <ele>4427.1</ele>
    <time>2026-06-22T11:21:16Z</time>
   </trkpt>
   <trkpt lat="-3.1045530" lon="37.3694370">
    <ele>4427.1</ele>
    <time>2026-06-22T11:21:17Z</time>
   </trkpt>
   <trkpt lat="-3.1045500" lon="37.3694430">
    <ele>4427.1</ele>
    <time>2026-06-22T11:21:18Z</time>
   </trkpt>
   <trkpt lat="-3.1045450" lon="37.3694490">
    <ele>4427.1</ele>
    <time>2026-06-22T11:21:19Z</time>
   </trkpt>
   <trkpt lat="-3.1045380" lon="37.3694550">
    <ele>4427.1</ele>
    <time>2026-06-22T11:21:20Z</time>
   </trkpt>
   <trkpt lat="-3.1045350" lon="37.3694570">
    <ele>4427.1</ele>
    <time>2026-06-22T11:21:21Z</time>
   </trkpt>
   <trkpt lat="-3.1045290" lon="37.3694600">
    <ele>4427.1</ele>
    <time>2026-06-22T11:21:22Z</time>
   </trkpt>
   <trkpt lat="-3.1045210" lon="37.3694640">
    <ele>4427.0</ele>
    <time>2026-06-22T11:21:23Z</time>
   </trkpt>
   <trkpt lat="-3.1045160" lon="37.3694680">
    <ele>4427.0</ele>
    <time>2026-06-22T11:21:24Z</time>
   </trkpt>
   <trkpt lat="-3.1045070" lon="37.3694720">
    <ele>4427.0</ele>
    <time>2026-06-22T11:21:25Z</time>
   </trkpt>
   <trkpt lat="-3.1045000" lon="37.3694750">
    <ele>4427.1</ele>
    <time>2026-06-22T11:21:26Z</time>
   </trkpt>
   <trkpt lat="-3.1044930" lon="37.3694790">
    <ele>4427.1</ele>
    <time>2026-06-22T11:21:27Z</time>
   </trkpt>
   <trkpt lat="-3.1044880" lon="37.3694820">
    <ele>4427.1</ele>
    <time>2026-06-22T11:21:28Z</time>
   </trkpt>
   <trkpt lat="-3.1044820" lon="37.3694840">
    <ele>4427.1</ele>
    <time>2026-06-22T11:21:29Z</time>
   </trkpt>
   <trkpt lat="-3.1044750" lon="37.3694860">
    <ele>4427.1</ele>
    <time>2026-06-22T11:21:30Z</time>
   </trkpt>
   <trkpt lat="-3.1044680" lon="37.3694900">
    <ele>4427.1</ele>
    <time>2026-06-22T11:21:31Z</time>
   </trkpt>
   <trkpt lat="-3.1044680" lon="37.3694960">
    <ele>4427.1</ele>
    <time>2026-06-22T11:21:32Z</time>
   </trkpt>
   <trkpt lat="-3.1044690" lon="37.3695020">
    <ele>4427.1</ele>
    <time>2026-06-22T11:21:33Z</time>
   </trkpt>
   <trkpt lat="-3.1044690" lon="37.3695080">
    <ele>4427.1</ele>
    <time>2026-06-22T11:21:34Z</time>
   </trkpt>
   <trkpt lat="-3.1044680" lon="37.3695140">
    <ele>4427.1</ele>
    <time>2026-06-22T11:21:35Z</time>
   </trkpt>
   <trkpt lat="-3.1044650" lon="37.3695190">
    <ele>4427.2</ele>
    <time>2026-06-22T11:21:36Z</time>
   </trkpt>
   <trkpt lat="-3.1044610" lon="37.3695220">
    <ele>4427.2</ele>
    <time>2026-06-22T11:21:37Z</time>
   </trkpt>
   <trkpt lat="-3.1044560" lon="37.3695260">
    <ele>4427.2</ele>
    <time>2026-06-22T11:21:38Z</time>
   </trkpt>
   <trkpt lat="-3.1044480" lon="37.3695310">
    <ele>4427.2</ele>
    <time>2026-06-22T11:21:39Z</time>
   </trkpt>
   <trkpt lat="-3.1044430" lon="37.3695330">
    <ele>4427.2</ele>
    <time>2026-06-22T11:21:40Z</time>
   </trkpt>
   <trkpt lat="-3.1044370" lon="37.3695350">
    <ele>4427.2</ele>
    <time>2026-06-22T11:21:41Z</time>
   </trkpt>
   <trkpt lat="-3.1044290" lon="37.3695410">
    <ele>4427.3</ele>
    <time>2026-06-22T11:21:42Z</time>
   </trkpt>
   <trkpt lat="-3.1044280" lon="37.3695460">
    <ele>4427.3</ele>
    <time>2026-06-22T11:21:43Z</time>
   </trkpt>
   <trkpt lat="-3.1044290" lon="37.3695530">
    <ele>4427.3</ele>
    <time>2026-06-22T11:21:44Z</time>
   </trkpt>
   <trkpt lat="-3.1044290" lon="37.3695640">
    <ele>4427.3</ele>
    <time>2026-06-22T11:21:45Z</time>
   </trkpt>
   <trkpt lat="-3.1044250" lon="37.3695680">
    <ele>4427.4</ele>
    <time>2026-06-22T11:21:46Z</time>
   </trkpt>
   <trkpt lat="-3.1044210" lon="37.3695740">
    <ele>4427.4</ele>
    <time>2026-06-22T11:21:47Z</time>
   </trkpt>
   <trkpt lat="-3.1044150" lon="37.3695800">
    <ele>4427.4</ele>
    <time>2026-06-22T11:21:48Z</time>
   </trkpt>
   <trkpt lat="-3.1044100" lon="37.3695880">
    <ele>4427.5</ele>
    <time>2026-06-22T11:21:49Z</time>
   </trkpt>
   <trkpt lat="-3.1044060" lon="37.3695900">
    <ele>4427.5</ele>
    <time>2026-06-22T11:21:50Z</time>
   </trkpt>
   <trkpt lat="-3.1044020" lon="37.3695950">
    <ele>4427.5</ele>
    <time>2026-06-22T11:21:51Z</time>
   </trkpt>
   <trkpt lat="-3.1043990" lon="37.3695990">
    <ele>4427.5</ele>
    <time>2026-06-22T11:21:52Z</time>
   </trkpt>
   <trkpt lat="-3.1043980" lon="37.3696040">
    <ele>4427.5</ele>
    <time>2026-06-22T11:21:53Z</time>
   </trkpt>
   <trkpt lat="-3.1043960" lon="37.3696100">
    <ele>4427.6</ele>
    <time>2026-06-22T11:21:54Z</time>
   </trkpt>
   <trkpt lat="-3.1043940" lon="37.3696170">
    <ele>4427.6</ele>
    <time>2026-06-22T11:21:55Z</time>
   </trkpt>
   <trkpt lat="-3.1043930" lon="37.3696230">
    <ele>4427.6</ele>
    <time>2026-06-22T11:21:56Z</time>
   </trkpt>
   <trkpt lat="-3.1043920" lon="37.3696270">
    <ele>4427.6</ele>
    <time>2026-06-22T11:21:57Z</time>
   </trkpt>
   <trkpt lat="-3.1043890" lon="37.3696360">
    <ele>4427.7</ele>
    <time>2026-06-22T11:21:58Z</time>
   </trkpt>
   <trkpt lat="-3.1043870" lon="37.3696420">
    <ele>4427.7</ele>
    <time>2026-06-22T11:21:59Z</time>
   </trkpt>
   <trkpt lat="-3.1043880" lon="37.3696490">
    <ele>4427.7</ele>
    <time>2026-06-22T11:22:00Z</time>
   </trkpt>
   <trkpt lat="-3.1043850" lon="37.3696520">
    <ele>4427.7</ele>
    <time>2026-06-22T11:22:01Z</time>
   </trkpt>
   <trkpt lat="-3.1043810" lon="37.3696580">
    <ele>4427.7</ele>
    <time>2026-06-22T11:22:02Z</time>
   </trkpt>
   <trkpt lat="-3.1043800" lon="37.3696630">
    <ele>4427.8</ele>
    <time>2026-06-22T11:22:03Z</time>
   </trkpt>
   <trkpt lat="-3.1043780" lon="37.3696700">
    <ele>4427.8</ele>
    <time>2026-06-22T11:22:04Z</time>
   </trkpt>
   <trkpt lat="-3.1043780" lon="37.3696770">
    <ele>4427.8</ele>
    <time>2026-06-22T11:22:05Z</time>
   </trkpt>
   <trkpt lat="-3.1043790" lon="37.3696830">
    <ele>4427.8</ele>
    <time>2026-06-22T11:22:06Z</time>
   </trkpt>
   <trkpt lat="-3.1043810" lon="37.3696890">
    <ele>4427.9</ele>
    <time>2026-06-22T11:22:07Z</time>
   </trkpt>
   <trkpt lat="-3.1043820" lon="37.3697010">
    <ele>4427.9</ele>
    <time>2026-06-22T11:22:08Z</time>
   </trkpt>
   <trkpt lat="-3.1043790" lon="37.3697060">
    <ele>4428.0</ele>
    <time>2026-06-22T11:22:09Z</time>
   </trkpt>
   <trkpt lat="-3.1043750" lon="37.3697120">
    <ele>4428.0</ele>
    <time>2026-06-22T11:22:10Z</time>
   </trkpt>
   <trkpt lat="-3.1043730" lon="37.3697180">
    <ele>4428.0</ele>
    <time>2026-06-22T11:22:11Z</time>
   </trkpt>
   <trkpt lat="-3.1043720" lon="37.3697240">
    <ele>4428.0</ele>
    <time>2026-06-22T11:22:12Z</time>
   </trkpt>
   <trkpt lat="-3.1043730" lon="37.3697320">
    <ele>4428.1</ele>
    <time>2026-06-22T11:22:13Z</time>
   </trkpt>
   <trkpt lat="-3.1043770" lon="37.3697350">
    <ele>4428.1</ele>
    <time>2026-06-22T11:22:14Z</time>
   </trkpt>
   <trkpt lat="-3.1043810" lon="37.3697410">
    <ele>4428.1</ele>
    <time>2026-06-22T11:22:15Z</time>
   </trkpt>
   <trkpt lat="-3.1043820" lon="37.3697470">
    <ele>4428.1</ele>
    <time>2026-06-22T11:22:16Z</time>
   </trkpt>
   <trkpt lat="-3.1043800" lon="37.3697530">
    <ele>4428.2</ele>
    <time>2026-06-22T11:22:17Z</time>
   </trkpt>
   <trkpt lat="-3.1043780" lon="37.3697620">
    <ele>4428.2</ele>
    <time>2026-06-22T11:22:18Z</time>
   </trkpt>
   <trkpt lat="-3.1043740" lon="37.3697690">
    <ele>4428.2</ele>
    <time>2026-06-22T11:22:19Z</time>
   </trkpt>
   <trkpt lat="-3.1043690" lon="37.3697730">
    <ele>4428.3</ele>
    <time>2026-06-22T11:22:20Z</time>
   </trkpt>
   <trkpt lat="-3.1043630" lon="37.3697800">
    <ele>4428.3</ele>
    <time>2026-06-22T11:22:21Z</time>
   </trkpt>
   <trkpt lat="-3.1043590" lon="37.3697840">
    <ele>4428.4</ele>
    <time>2026-06-22T11:22:22Z</time>
   </trkpt>
   <trkpt lat="-3.1043540" lon="37.3697880">
    <ele>4428.4</ele>
    <time>2026-06-22T11:22:23Z</time>
   </trkpt>
   <trkpt lat="-3.1043520" lon="37.3697920">
    <ele>4428.4</ele>
    <time>2026-06-22T11:22:24Z</time>
   </trkpt>
   <trkpt lat="-3.1043470" lon="37.3698030">
    <ele>4428.5</ele>
    <time>2026-06-22T11:22:25Z</time>
   </trkpt>
   <trkpt lat="-3.1043440" lon="37.3698100">
    <ele>4428.5</ele>
    <time>2026-06-22T11:22:26Z</time>
   </trkpt>
   <trkpt lat="-3.1043370" lon="37.3698170">
    <ele>4428.6</ele>
    <time>2026-06-22T11:22:27Z</time>
   </trkpt>
   <trkpt lat="-3.1043310" lon="37.3698210">
    <ele>4428.6</ele>
    <time>2026-06-22T11:22:28Z</time>
   </trkpt>
   <trkpt lat="-3.1043260" lon="37.3698240">
    <ele>4428.6</ele>
    <time>2026-06-22T11:22:29Z</time>
   </trkpt>
   <trkpt lat="-3.1043230" lon="37.3698310">
    <ele>4428.7</ele>
    <time>2026-06-22T11:22:30Z</time>
   </trkpt>
   <trkpt lat="-3.1043200" lon="37.3698370">
    <ele>4428.7</ele>
    <time>2026-06-22T11:22:31Z</time>
   </trkpt>
   <trkpt lat="-3.1043150" lon="37.3698430">
    <ele>4428.8</ele>
    <time>2026-06-22T11:22:32Z</time>
   </trkpt>
   <trkpt lat="-3.1043100" lon="37.3698470">
    <ele>4428.8</ele>
    <time>2026-06-22T11:22:33Z</time>
   </trkpt>
   <trkpt lat="-3.1043050" lon="37.3698510">
    <ele>4428.8</ele>
    <time>2026-06-22T11:22:34Z</time>
   </trkpt>
   <trkpt lat="-3.1043000" lon="37.3698540">
    <ele>4428.9</ele>
    <time>2026-06-22T11:22:35Z</time>
   </trkpt>
   <trkpt lat="-3.1042950" lon="37.3698550">
    <ele>4428.9</ele>
    <time>2026-06-22T11:22:36Z</time>
   </trkpt>
   <trkpt lat="-3.1042870" lon="37.3698590">
    <ele>4429.0</ele>
    <time>2026-06-22T11:22:37Z</time>
   </trkpt>
   <trkpt lat="-3.1042820" lon="37.3698600">
    <ele>4429.0</ele>
    <time>2026-06-22T11:22:38Z</time>
   </trkpt>
   <trkpt lat="-3.1042730" lon="37.3698620">
    <ele>4429.1</ele>
    <time>2026-06-22T11:22:39Z</time>
   </trkpt>
   <trkpt lat="-3.1042700" lon="37.3698640">
    <ele>4429.1</ele>
    <time>2026-06-22T11:22:40Z</time>
   </trkpt>
   <trkpt lat="-3.1042670" lon="37.3698680">
    <ele>4429.1</ele>
    <time>2026-06-22T11:22:41Z</time>
   </trkpt>
   <trkpt lat="-3.1042640" lon="37.3698760">
    <ele>4429.2</ele>
    <time>2026-06-22T11:22:42Z</time>
   </trkpt>
   <trkpt lat="-3.1042610" lon="37.3698840">
    <ele>4429.2</ele>
    <time>2026-06-22T11:22:43Z</time>
   </trkpt>
   <trkpt lat="-3.1042600" lon="37.3698900">
    <ele>4429.3</ele>
    <time>2026-06-22T11:22:44Z</time>
   </trkpt>
   <trkpt lat="-3.1042570" lon="37.3698960">
    <ele>4429.3</ele>
    <time>2026-06-22T11:22:45Z</time>
   </trkpt>
   <trkpt lat="-3.1042510" lon="37.3698980">
    <ele>4429.4</ele>
    <time>2026-06-22T11:22:46Z</time>
   </trkpt>
   <trkpt lat="-3.1042430" lon="37.3699020">
    <ele>4429.4</ele>
    <time>2026-06-22T11:22:47Z</time>
   </trkpt>
   <trkpt lat="-3.1042340" lon="37.3699050">
    <ele>4429.5</ele>
    <time>2026-06-22T11:22:48Z</time>
   </trkpt>
   <trkpt lat="-3.1042280" lon="37.3699070">
    <ele>4429.6</ele>
    <time>2026-06-22T11:22:49Z</time>
   </trkpt>
   <trkpt lat="-3.1042270" lon="37.3699090">
    <ele>4429.6</ele>
    <time>2026-06-22T11:22:50Z</time>
   </trkpt>
   <trkpt lat="-3.1042270" lon="37.3699150">
    <ele>4429.6</ele>
    <time>2026-06-22T11:22:51Z</time>
   </trkpt>
   <trkpt lat="-3.1042270" lon="37.3699220">
    <ele>4429.7</ele>
    <time>2026-06-22T11:22:52Z</time>
   </trkpt>
   <trkpt lat="-3.1042250" lon="37.3699290">
    <ele>4429.7</ele>
    <time>2026-06-22T11:22:53Z</time>
   </trkpt>
   <trkpt lat="-3.1042220" lon="37.3699380">
    <ele>4429.8</ele>
    <time>2026-06-22T11:22:54Z</time>
   </trkpt>
   <trkpt lat="-3.1042200" lon="37.3699440">
    <ele>4429.9</ele>
    <time>2026-06-22T11:22:55Z</time>
   </trkpt>
   <trkpt lat="-3.1042190" lon="37.3699480">
    <ele>4429.9</ele>
    <time>2026-06-22T11:22:56Z</time>
   </trkpt>
   <trkpt lat="-3.1042130" lon="37.3699530">
    <ele>4429.9</ele>
    <time>2026-06-22T11:22:57Z</time>
   </trkpt>
   <trkpt lat="-3.1042070" lon="37.3699560">
    <ele>4430.0</ele>
    <time>2026-06-22T11:22:58Z</time>
   </trkpt>
   <trkpt lat="-3.1041990" lon="37.3699590">
    <ele>4430.1</ele>
    <time>2026-06-22T11:22:59Z</time>
   </trkpt>
   <trkpt lat="-3.1041940" lon="37.3699610">
    <ele>4430.1</ele>
    <time>2026-06-22T11:23:00Z</time>
   </trkpt>
   <trkpt lat="-3.1041910" lon="37.3699650">
    <ele>4430.1</ele>
    <time>2026-06-22T11:23:01Z</time>
   </trkpt>
   <trkpt lat="-3.1041870" lon="37.3699680">
    <ele>4430.2</ele>
    <time>2026-06-22T11:23:02Z</time>
   </trkpt>
   <trkpt lat="-3.1041830" lon="37.3699730">
    <ele>4430.2</ele>
    <time>2026-06-22T11:23:03Z</time>
   </trkpt>
   <trkpt lat="-3.1041800" lon="37.3699770">
    <ele>4430.3</ele>
    <time>2026-06-22T11:23:04Z</time>
   </trkpt>
   <trkpt lat="-3.1041770" lon="37.3699810">
    <ele>4430.3</ele>
    <time>2026-06-22T11:23:06Z</time>
   </trkpt>
   <trkpt lat="-3.1041720" lon="37.3699860">
    <ele>4430.4</ele>
    <time>2026-06-22T11:23:07Z</time>
   </trkpt>
   <trkpt lat="-3.1041690" lon="37.3699900">
    <ele>4430.4</ele>
    <time>2026-06-22T11:23:08Z</time>
   </trkpt>
   <trkpt lat="-3.1041670" lon="37.3699960">
    <ele>4430.5</ele>
    <time>2026-06-22T11:23:09Z</time>
   </trkpt>
   <trkpt lat="-3.1041630" lon="37.3700040">
    <ele>4430.6</ele>
    <time>2026-06-22T11:23:10Z</time>
   </trkpt>
   <trkpt lat="-3.1041580" lon="37.3700100">
    <ele>4430.6</ele>
    <time>2026-06-22T11:23:11Z</time>
   </trkpt>
   <trkpt lat="-3.1041560" lon="37.3700140">
    <ele>4430.7</ele>
    <time>2026-06-22T11:23:12Z</time>
   </trkpt>
   <trkpt lat="-3.1041540" lon="37.3700140">
    <ele>4430.7</ele>
    <time>2026-06-22T11:23:13Z</time>
   </trkpt>
   <trkpt lat="-3.1041530" lon="37.3700150">
    <ele>4430.7</ele>
    <time>2026-06-22T11:23:14Z</time>
   </trkpt>
   <trkpt lat="-3.1041500" lon="37.3700150">
    <ele>4430.7</ele>
    <time>2026-06-22T11:23:15Z</time>
   </trkpt>
   <trkpt lat="-3.1041470" lon="37.3700150">
    <ele>4430.7</ele>
    <time>2026-06-22T11:23:16Z</time>
   </trkpt>
   <trkpt lat="-3.1041440" lon="37.3700120">
    <ele>4430.8</ele>
    <time>2026-06-22T11:23:17Z</time>
   </trkpt>
   <trkpt lat="-3.1041420" lon="37.3700110">
    <ele>4430.8</ele>
    <time>2026-06-22T11:23:18Z</time>
   </trkpt>
   <trkpt lat="-3.1041430" lon="37.3700110">
    <ele>4430.8</ele>
    <time>2026-06-22T11:23:19Z</time>
   </trkpt>
   <trkpt lat="-3.1041400" lon="37.3700130">
    <ele>4430.8</ele>
    <time>2026-06-22T11:23:20Z</time>
   </trkpt>
   <trkpt lat="-3.1041420" lon="37.3700130">
    <ele>4430.9</ele>
    <time>2026-06-22T11:23:21Z</time>
   </trkpt>
   <trkpt lat="-3.1041410" lon="37.3700160">
    <ele>4430.9</ele>
    <time>2026-06-22T11:23:22Z</time>
   </trkpt>
   <trkpt lat="-3.1041420" lon="37.3700160">
    <ele>4430.9</ele>
    <time>2026-06-22T11:23:23Z</time>
   </trkpt>
   <trkpt lat="-3.1041420" lon="37.3700160">
    <ele>4430.9</ele>
    <time>2026-06-22T11:23:24Z</time>
   </trkpt>
   <trkpt lat="-3.1041410" lon="37.3700170">
    <ele>4430.9</ele>
    <time>2026-06-22T11:23:25Z</time>
   </trkpt>
   <trkpt lat="-3.1041420" lon="37.3700160">
    <ele>4430.9</ele>
    <time>2026-06-22T11:23:26Z</time>
   </trkpt>
   <trkpt lat="-3.1041420" lon="37.3700170">
    <ele>4430.9</ele>
    <time>2026-06-22T11:23:27Z</time>
   </trkpt>
   <trkpt lat="-3.1041430" lon="37.3700160">
    <ele>4430.9</ele>
    <time>2026-06-22T11:23:28Z</time>
   </trkpt>
   <trkpt lat="-3.1041410" lon="37.3700200">
    <ele>4431.0</ele>
    <time>2026-06-22T11:23:29Z</time>
   </trkpt>
   <trkpt lat="-3.1041350" lon="37.3700250">
    <ele>4431.1</ele>
    <time>2026-06-22T11:23:30Z</time>
   </trkpt>
   <trkpt lat="-3.1041350" lon="37.3700290">
    <ele>4431.1</ele>
    <time>2026-06-22T11:23:31Z</time>
   </trkpt>
   <trkpt lat="-3.1041320" lon="37.3700360">
    <ele>4431.2</ele>
    <time>2026-06-22T11:23:32Z</time>
   </trkpt>
   <trkpt lat="-3.1041310" lon="37.3700440">
    <ele>4431.2</ele>
    <time>2026-06-22T11:23:33Z</time>
   </trkpt>
   <trkpt lat="-3.1041310" lon="37.3700520">
    <ele>4431.3</ele>
    <time>2026-06-22T11:23:34Z</time>
   </trkpt>
   <trkpt lat="-3.1041300" lon="37.3700560">
    <ele>4431.4</ele>
    <time>2026-06-22T11:23:35Z</time>
   </trkpt>
   <trkpt lat="-3.1041280" lon="37.3700610">
    <ele>4431.4</ele>
    <time>2026-06-22T11:23:36Z</time>
   </trkpt>
   <trkpt lat="-3.1041230" lon="37.3700660">
    <ele>4431.5</ele>
    <time>2026-06-22T11:23:37Z</time>
   </trkpt>
   <trkpt lat="-3.1041180" lon="37.3700710">
    <ele>4431.5</ele>
    <time>2026-06-22T11:23:38Z</time>
   </trkpt>
   <trkpt lat="-3.1041150" lon="37.3700770">
    <ele>4431.6</ele>
    <time>2026-06-22T11:23:39Z</time>
   </trkpt>
   <trkpt lat="-3.1041130" lon="37.3700830">
    <ele>4431.7</ele>
    <time>2026-06-22T11:23:40Z</time>
   </trkpt>
   <trkpt lat="-3.1041120" lon="37.3700910">
    <ele>4431.8</ele>
    <time>2026-06-22T11:23:41Z</time>
   </trkpt>
   <trkpt lat="-3.1041080" lon="37.3700990">
    <ele>4431.8</ele>
    <time>2026-06-22T11:23:42Z</time>
   </trkpt>
   <trkpt lat="-3.1041050" lon="37.3701030">
    <ele>4431.9</ele>
    <time>2026-06-22T11:23:43Z</time>
   </trkpt>
   <trkpt lat="-3.1041020" lon="37.3701100">
    <ele>4432.0</ele>
    <time>2026-06-22T11:23:44Z</time>
   </trkpt>
   <trkpt lat="-3.1040980" lon="37.3701140">
    <ele>4432.0</ele>
    <time>2026-06-22T11:23:45Z</time>
   </trkpt>
   <trkpt lat="-3.1040920" lon="37.3701200">
    <ele>4432.1</ele>
    <time>2026-06-22T11:23:46Z</time>
   </trkpt>
   <trkpt lat="-3.1040870" lon="37.3701260">
    <ele>4432.2</ele>
    <time>2026-06-22T11:23:47Z</time>
   </trkpt>
   <trkpt lat="-3.1040830" lon="37.3701300">
    <ele>4432.2</ele>
    <time>2026-06-22T11:23:48Z</time>
   </trkpt>
   <trkpt lat="-3.1040790" lon="37.3701360">
    <ele>4432.3</ele>
    <time>2026-06-22T11:23:49Z</time>
   </trkpt>
   <trkpt lat="-3.1040740" lon="37.3701430">
    <ele>4432.4</ele>
    <time>2026-06-22T11:23:50Z</time>
   </trkpt>
   <trkpt lat="-3.1040690" lon="37.3701480">
    <ele>4432.5</ele>
    <time>2026-06-22T11:23:51Z</time>
   </trkpt>
   <trkpt lat="-3.1040660" lon="37.3701530">
    <ele>4432.5</ele>
    <time>2026-06-22T11:23:52Z</time>
   </trkpt>
   <trkpt lat="-3.1040610" lon="37.3701590">
    <ele>4432.6</ele>
    <time>2026-06-22T11:23:53Z</time>
   </trkpt>
   <trkpt lat="-3.1040570" lon="37.3701650">
    <ele>4432.7</ele>
    <time>2026-06-22T11:23:54Z</time>
   </trkpt>
   <trkpt lat="-3.1040500" lon="37.3701680">
    <ele>4432.7</ele>
    <time>2026-06-22T11:23:55Z</time>
   </trkpt>
   <trkpt lat="-3.1040460" lon="37.3701720">
    <ele>4432.8</ele>
    <time>2026-06-22T11:23:56Z</time>
   </trkpt>
   <trkpt lat="-3.1040430" lon="37.3701770">
    <ele>4432.8</ele>
    <time>2026-06-22T11:23:57Z</time>
   </trkpt>
   <trkpt lat="-3.1040380" lon="37.3701840">
    <ele>4432.9</ele>
    <time>2026-06-22T11:23:58Z</time>
   </trkpt>
   <trkpt lat="-3.1040380" lon="37.3701900">
    <ele>4433.0</ele>
    <time>2026-06-22T11:23:59Z</time>
   </trkpt>
   <trkpt lat="-3.1040370" lon="37.3701990">
    <ele>4433.1</ele>
    <time>2026-06-22T11:24:00Z</time>
   </trkpt>
   <trkpt lat="-3.1040340" lon="37.3702050">
    <ele>4433.1</ele>
    <time>2026-06-22T11:24:01Z</time>
   </trkpt>
   <trkpt lat="-3.1040300" lon="37.3702070">
    <ele>4433.2</ele>
    <time>2026-06-22T11:24:02Z</time>
   </trkpt>
   <trkpt lat="-3.1040260" lon="37.3702100">
    <ele>4433.2</ele>
    <time>2026-06-22T11:24:03Z</time>
   </trkpt>
   <trkpt lat="-3.1040220" lon="37.3702110">
    <ele>4433.3</ele>
    <time>2026-06-22T11:24:04Z</time>
   </trkpt>
   <trkpt lat="-3.1040160" lon="37.3702160">
    <ele>4433.3</ele>
    <time>2026-06-22T11:24:05Z</time>
   </trkpt>
   <trkpt lat="-3.1040110" lon="37.3702210">
    <ele>4433.4</ele>
    <time>2026-06-22T11:24:06Z</time>
   </trkpt>
   <trkpt lat="-3.1040080" lon="37.3702250">
    <ele>4433.5</ele>
    <time>2026-06-22T11:24:07Z</time>
   </trkpt>
   <trkpt lat="-3.1040040" lon="37.3702290">
    <ele>4433.5</ele>
    <time>2026-06-22T11:24:08Z</time>
   </trkpt>
   <trkpt lat="-3.1039990" lon="37.3702340">
    <ele>4433.6</ele>
    <time>2026-06-22T11:24:09Z</time>
   </trkpt>
   <trkpt lat="-3.1039950" lon="37.3702370">
    <ele>4433.6</ele>
    <time>2026-06-22T11:24:10Z</time>
   </trkpt>
   <trkpt lat="-3.1039880" lon="37.3702430">
    <ele>4433.7</ele>
    <time>2026-06-22T11:24:11Z</time>
   </trkpt>
   <trkpt lat="-3.1039850" lon="37.3702470">
    <ele>4433.8</ele>
    <time>2026-06-22T11:24:12Z</time>
   </trkpt>
   <trkpt lat="-3.1039800" lon="37.3702540">
    <ele>4433.9</ele>
    <time>2026-06-22T11:24:13Z</time>
   </trkpt>
   <trkpt lat="-3.1039790" lon="37.3702600">
    <ele>4433.9</ele>
    <time>2026-06-22T11:24:14Z</time>
   </trkpt>
   <trkpt lat="-3.1039760" lon="37.3702640">
    <ele>4434.0</ele>
    <time>2026-06-22T11:24:15Z</time>
   </trkpt>
   <trkpt lat="-3.1039730" lon="37.3702720">
    <ele>4434.0</ele>
    <time>2026-06-22T11:24:16Z</time>
   </trkpt>
   <trkpt lat="-3.1039700" lon="37.3702780">
    <ele>4434.1</ele>
    <time>2026-06-22T11:24:17Z</time>
   </trkpt>
   <trkpt lat="-3.1039670" lon="37.3702840">
    <ele>4434.2</ele>
    <time>2026-06-22T11:24:18Z</time>
   </trkpt>
   <trkpt lat="-3.1039650" lon="37.3702900">
    <ele>4434.2</ele>
    <time>2026-06-22T11:24:19Z</time>
   </trkpt>
   <trkpt lat="-3.1039610" lon="37.3702940">
    <ele>4434.3</ele>
    <time>2026-06-22T11:24:20Z</time>
   </trkpt>
   <trkpt lat="-3.1039570" lon="37.3702990">
    <ele>4434.3</ele>
    <time>2026-06-22T11:24:21Z</time>
   </trkpt>
   <trkpt lat="-3.1039520" lon="37.3703040">
    <ele>4434.4</ele>
    <time>2026-06-22T11:24:22Z</time>
   </trkpt>
   <trkpt lat="-3.1039470" lon="37.3703080">
    <ele>4434.5</ele>
    <time>2026-06-22T11:24:23Z</time>
   </trkpt>
   <trkpt lat="-3.1039420" lon="37.3703150">
    <ele>4434.6</ele>
    <time>2026-06-22T11:24:24Z</time>
   </trkpt>
   <trkpt lat="-3.1039370" lon="37.3703160">
    <ele>4434.6</ele>
    <time>2026-06-22T11:24:25Z</time>
   </trkpt>
   <trkpt lat="-3.1039310" lon="37.3703210">
    <ele>4434.7</ele>
    <time>2026-06-22T11:24:26Z</time>
   </trkpt>
   <trkpt lat="-3.1039270" lon="37.3703230">
    <ele>4434.7</ele>
    <time>2026-06-22T11:24:27Z</time>
   </trkpt>
   <trkpt lat="-3.1039220" lon="37.3703250">
    <ele>4434.8</ele>
    <time>2026-06-22T11:24:28Z</time>
   </trkpt>
   <trkpt lat="-3.1039170" lon="37.3703280">
    <ele>4434.8</ele>
    <time>2026-06-22T11:24:29Z</time>
   </trkpt>
   <trkpt lat="-3.1039110" lon="37.3703310">
    <ele>4434.9</ele>
    <time>2026-06-22T11:24:30Z</time>
   </trkpt>
   <trkpt lat="-3.1039040" lon="37.3703340">
    <ele>4435.0</ele>
    <time>2026-06-22T11:24:31Z</time>
   </trkpt>
   <trkpt lat="-3.1039010" lon="37.3703380">
    <ele>4435.0</ele>
    <time>2026-06-22T11:24:32Z</time>
   </trkpt>
   <trkpt lat="-3.1038990" lon="37.3703400">
    <ele>4435.0</ele>
    <time>2026-06-22T11:24:33Z</time>
   </trkpt>
   <trkpt lat="-3.1038950" lon="37.3703470">
    <ele>4435.1</ele>
    <time>2026-06-22T11:24:34Z</time>
   </trkpt>
   <trkpt lat="-3.1038900" lon="37.3703510">
    <ele>4435.2</ele>
    <time>2026-06-22T11:24:35Z</time>
   </trkpt>
   <trkpt lat="-3.1038850" lon="37.3703530">
    <ele>4435.2</ele>
    <time>2026-06-22T11:24:36Z</time>
   </trkpt>
   <trkpt lat="-3.1038790" lon="37.3703570">
    <ele>4435.3</ele>
    <time>2026-06-22T11:24:37Z</time>
   </trkpt>
   <trkpt lat="-3.1038730" lon="37.3703620">
    <ele>4435.4</ele>
    <time>2026-06-22T11:24:38Z</time>
   </trkpt>
   <trkpt lat="-3.1038690" lon="37.3703650">
    <ele>4435.4</ele>
    <time>2026-06-22T11:24:39Z</time>
   </trkpt>
   <trkpt lat="-3.1038660" lon="37.3703700">
    <ele>4435.5</ele>
    <time>2026-06-22T11:24:40Z</time>
   </trkpt>
   <trkpt lat="-3.1038630" lon="37.3703760">
    <ele>4435.5</ele>
    <time>2026-06-22T11:24:41Z</time>
   </trkpt>
   <trkpt lat="-3.1038570" lon="37.3703830">
    <ele>4435.6</ele>
    <time>2026-06-22T11:24:43Z</time>
   </trkpt>
   <trkpt lat="-3.1038550" lon="37.3703870">
    <ele>4435.7</ele>
    <time>2026-06-22T11:24:44Z</time>
   </trkpt>
   <trkpt lat="-3.1038530" lon="37.3703910">
    <ele>4435.7</ele>
    <time>2026-06-22T11:24:45Z</time>
   </trkpt>
   <trkpt lat="-3.1038480" lon="37.3703960">
    <ele>4435.8</ele>
    <time>2026-06-22T11:24:46Z</time>
   </trkpt>
   <trkpt lat="-3.1038450" lon="37.3703990">
    <ele>4435.8</ele>
    <time>2026-06-22T11:24:47Z</time>
   </trkpt>
   <trkpt lat="-3.1038410" lon="37.3704020">
    <ele>4435.9</ele>
    <time>2026-06-22T11:24:48Z</time>
   </trkpt>
   <trkpt lat="-3.1038360" lon="37.3704060">
    <ele>4435.9</ele>
    <time>2026-06-22T11:24:49Z</time>
   </trkpt>
   <trkpt lat="-3.1038310" lon="37.3704100">
    <ele>4436.0</ele>
    <time>2026-06-22T11:24:50Z</time>
   </trkpt>
   <trkpt lat="-3.1038250" lon="37.3704150">
    <ele>4436.0</ele>
    <time>2026-06-22T11:24:51Z</time>
   </trkpt>
   <trkpt lat="-3.1038190" lon="37.3704190">
    <ele>4436.1</ele>
    <time>2026-06-22T11:24:52Z</time>
   </trkpt>
   <trkpt lat="-3.1038150" lon="37.3704210">
    <ele>4436.2</ele>
    <time>2026-06-22T11:24:53Z</time>
   </trkpt>
   <trkpt lat="-3.1038090" lon="37.3704240">
    <ele>4436.2</ele>
    <time>2026-06-22T11:24:54Z</time>
   </trkpt>
   <trkpt lat="-3.1038040" lon="37.3704270">
    <ele>4436.3</ele>
    <time>2026-06-22T11:24:55Z</time>
   </trkpt>
   <trkpt lat="-3.1037980" lon="37.3704310">
    <ele>4436.3</ele>
    <time>2026-06-22T11:24:56Z</time>
   </trkpt>
   <trkpt lat="-3.1037960" lon="37.3704350">
    <ele>4436.4</ele>
    <time>2026-06-22T11:24:57Z</time>
   </trkpt>
   <trkpt lat="-3.1037930" lon="37.3704390">
    <ele>4436.4</ele>
    <time>2026-06-22T11:24:58Z</time>
   </trkpt>
   <trkpt lat="-3.1037850" lon="37.3704450">
    <ele>4436.5</ele>
    <time>2026-06-22T11:24:59Z</time>
   </trkpt>
   <trkpt lat="-3.1037800" lon="37.3704510">
    <ele>4436.6</ele>
    <time>2026-06-22T11:25:00Z</time>
   </trkpt>
   <trkpt lat="-3.1037770" lon="37.3704560">
    <ele>4436.6</ele>
    <time>2026-06-22T11:25:01Z</time>
   </trkpt>
   <trkpt lat="-3.1037740" lon="37.3704600">
    <ele>4436.7</ele>
    <time>2026-06-22T11:25:02Z</time>
   </trkpt>
   <trkpt lat="-3.1037690" lon="37.3704620">
    <ele>4436.7</ele>
    <time>2026-06-22T11:25:03Z</time>
   </trkpt>
   <trkpt lat="-3.1037630" lon="37.3704670">
    <ele>4436.8</ele>
    <time>2026-06-22T11:25:04Z</time>
   </trkpt>
   <trkpt lat="-3.1037560" lon="37.3704710">
    <ele>4436.8</ele>
    <time>2026-06-22T11:25:05Z</time>
   </trkpt>
   <trkpt lat="-3.1037520" lon="37.3704740">
    <ele>4436.9</ele>
    <time>2026-06-22T11:25:06Z</time>
   </trkpt>
   <trkpt lat="-3.1037490" lon="37.3704780">
    <ele>4436.9</ele>
    <time>2026-06-22T11:25:07Z</time>
   </trkpt>
   <trkpt lat="-3.1037440" lon="37.3704830">
    <ele>4437.0</ele>
    <time>2026-06-22T11:25:08Z</time>
   </trkpt>
   <trkpt lat="-3.1037440" lon="37.3704840">
    <ele>4437.0</ele>
    <time>2026-06-22T11:25:09Z</time>
   </trkpt>
   <trkpt lat="-3.1037400" lon="37.3704910">
    <ele>4437.1</ele>
    <time>2026-06-22T11:25:10Z</time>
   </trkpt>
   <trkpt lat="-3.1037360" lon="37.3704970">
    <ele>4437.1</ele>
    <time>2026-06-22T11:25:11Z</time>
   </trkpt>
   <trkpt lat="-3.1037340" lon="37.3705020">
    <ele>4437.2</ele>
    <time>2026-06-22T11:25:12Z</time>
   </trkpt>
   <trkpt lat="-3.1037320" lon="37.3705060">
    <ele>4437.2</ele>
    <time>2026-06-22T11:25:13Z</time>
   </trkpt>
   <trkpt lat="-3.1037290" lon="37.3705110">
    <ele>4437.2</ele>
    <time>2026-06-22T11:25:14Z</time>
   </trkpt>
   <trkpt lat="-3.1037260" lon="37.3705140">
    <ele>4437.3</ele>
    <time>2026-06-22T11:25:15Z</time>
   </trkpt>
   <trkpt lat="-3.1037250" lon="37.3705170">
    <ele>4437.3</ele>
    <time>2026-06-22T11:25:16Z</time>
   </trkpt>
   <trkpt lat="-3.1037220" lon="37.3705210">
    <ele>4437.3</ele>
    <time>2026-06-22T11:25:17Z</time>
   </trkpt>
   <trkpt lat="-3.1037210" lon="37.3705290">
    <ele>4437.4</ele>
    <time>2026-06-22T11:25:18Z</time>
   </trkpt>
   <trkpt lat="-3.1037190" lon="37.3705340">
    <ele>4437.4</ele>
    <time>2026-06-22T11:25:19Z</time>
   </trkpt>
   <trkpt lat="-3.1037180" lon="37.3705390">
    <ele>4437.5</ele>
    <time>2026-06-22T11:25:20Z</time>
   </trkpt>
   <trkpt lat="-3.1037160" lon="37.3705430">
    <ele>4437.5</ele>
    <time>2026-06-22T11:25:21Z</time>
   </trkpt>
   <trkpt lat="-3.1037140" lon="37.3705460">
    <ele>4437.5</ele>
    <time>2026-06-22T11:25:22Z</time>
   </trkpt>
   <trkpt lat="-3.1037120" lon="37.3705490">
    <ele>4437.5</ele>
    <time>2026-06-22T11:25:23Z</time>
   </trkpt>
   <trkpt lat="-3.1037080" lon="37.3705530">
    <ele>4437.6</ele>
    <time>2026-06-22T11:25:24Z</time>
   </trkpt>
   <trkpt lat="-3.1037040" lon="37.3705560">
    <ele>4437.6</ele>
    <time>2026-06-22T11:25:25Z</time>
   </trkpt>
   <trkpt lat="-3.1037000" lon="37.3705580">
    <ele>4437.6</ele>
    <time>2026-06-22T11:25:26Z</time>
   </trkpt>
   <trkpt lat="-3.1036940" lon="37.3705620">
    <ele>4437.7</ele>
    <time>2026-06-22T11:25:27Z</time>
   </trkpt>
   <trkpt lat="-3.1036870" lon="37.3705690">
    <ele>4437.8</ele>
    <time>2026-06-22T11:25:28Z</time>
   </trkpt>
   <trkpt lat="-3.1036850" lon="37.3705750">
    <ele>4437.8</ele>
    <time>2026-06-22T11:25:29Z</time>
   </trkpt>
   <trkpt lat="-3.1036820" lon="37.3705830">
    <ele>4437.8</ele>
    <time>2026-06-22T11:25:30Z</time>
   </trkpt>
   <trkpt lat="-3.1036770" lon="37.3705980">
    <ele>4437.9</ele>
    <time>2026-06-22T11:25:31Z</time>
   </trkpt>
   <trkpt lat="-3.1036780" lon="37.3706020">
    <ele>4437.9</ele>
    <time>2026-06-22T11:25:32Z</time>
   </trkpt>
   <trkpt lat="-3.1036750" lon="37.3706090">
    <ele>4438.0</ele>
    <time>2026-06-22T11:25:33Z</time>
   </trkpt>
   <trkpt lat="-3.1036700" lon="37.3706140">
    <ele>4438.0</ele>
    <time>2026-06-22T11:25:34Z</time>
   </trkpt>
   <trkpt lat="-3.1036620" lon="37.3706190">
    <ele>4438.1</ele>
    <time>2026-06-22T11:25:35Z</time>
   </trkpt>
   <trkpt lat="-3.1036590" lon="37.3706240">
    <ele>4438.1</ele>
    <time>2026-06-22T11:25:36Z</time>
   </trkpt>
   <trkpt lat="-3.1036560" lon="37.3706320">
    <ele>4438.1</ele>
    <time>2026-06-22T11:25:37Z</time>
   </trkpt>
   <trkpt lat="-3.1036530" lon="37.3706370">
    <ele>4438.2</ele>
    <time>2026-06-22T11:25:38Z</time>
   </trkpt>
   <trkpt lat="-3.1036500" lon="37.3706440">
    <ele>4438.2</ele>
    <time>2026-06-22T11:25:39Z</time>
   </trkpt>
   <trkpt lat="-3.1036460" lon="37.3706500">
    <ele>4438.2</ele>
    <time>2026-06-22T11:25:40Z</time>
   </trkpt>
   <trkpt lat="-3.1036430" lon="37.3706540">
    <ele>4438.3</ele>
    <time>2026-06-22T11:25:41Z</time>
   </trkpt>
   <trkpt lat="-3.1036410" lon="37.3706600">
    <ele>4438.3</ele>
    <time>2026-06-22T11:25:42Z</time>
   </trkpt>
   <trkpt lat="-3.1036370" lon="37.3706680">
    <ele>4438.3</ele>
    <time>2026-06-22T11:25:43Z</time>
   </trkpt>
   <trkpt lat="-3.1036340" lon="37.3706740">
    <ele>4438.4</ele>
    <time>2026-06-22T11:25:44Z</time>
   </trkpt>
   <trkpt lat="-3.1036320" lon="37.3706820">
    <ele>4438.4</ele>
    <time>2026-06-22T11:25:45Z</time>
   </trkpt>
   <trkpt lat="-3.1036280" lon="37.3706840">
    <ele>4438.4</ele>
    <time>2026-06-22T11:25:46Z</time>
   </trkpt>
   <trkpt lat="-3.1036240" lon="37.3706890">
    <ele>4438.5</ele>
    <time>2026-06-22T11:25:47Z</time>
   </trkpt>
   <trkpt lat="-3.1036200" lon="37.3706950">
    <ele>4438.5</ele>
    <time>2026-06-22T11:25:48Z</time>
   </trkpt>
   <trkpt lat="-3.1036160" lon="37.3706990">
    <ele>4438.5</ele>
    <time>2026-06-22T11:25:49Z</time>
   </trkpt>
   <trkpt lat="-3.1036110" lon="37.3707040">
    <ele>4438.6</ele>
    <time>2026-06-22T11:25:50Z</time>
   </trkpt>
   <trkpt lat="-3.1036050" lon="37.3707100">
    <ele>4438.6</ele>
    <time>2026-06-22T11:25:51Z</time>
   </trkpt>
   <trkpt lat="-3.1036030" lon="37.3707150">
    <ele>4438.6</ele>
    <time>2026-06-22T11:25:52Z</time>
   </trkpt>
   <trkpt lat="-3.1036000" lon="37.3707220">
    <ele>4438.7</ele>
    <time>2026-06-22T11:25:53Z</time>
   </trkpt>
   <trkpt lat="-3.1035950" lon="37.3707290">
    <ele>4438.7</ele>
    <time>2026-06-22T11:25:54Z</time>
   </trkpt>
   <trkpt lat="-3.1035940" lon="37.3707320">
    <ele>4438.7</ele>
    <time>2026-06-22T11:25:55Z</time>
   </trkpt>
   <trkpt lat="-3.1035890" lon="37.3707400">
    <ele>4438.8</ele>
    <time>2026-06-22T11:25:56Z</time>
   </trkpt>
   <trkpt lat="-3.1035860" lon="37.3707440">
    <ele>4438.8</ele>
    <time>2026-06-22T11:25:57Z</time>
   </trkpt>
   <trkpt lat="-3.1035830" lon="37.3707510">
    <ele>4438.8</ele>
    <time>2026-06-22T11:25:58Z</time>
   </trkpt>
   <trkpt lat="-3.1035820" lon="37.3707570">
    <ele>4438.9</ele>
    <time>2026-06-22T11:25:59Z</time>
   </trkpt>
   <trkpt lat="-3.1035790" lon="37.3707620">
    <ele>4438.9</ele>
    <time>2026-06-22T11:26:00Z</time>
   </trkpt>
   <trkpt lat="-3.1035760" lon="37.3707680">
    <ele>4438.9</ele>
    <time>2026-06-22T11:26:01Z</time>
   </trkpt>
   <trkpt lat="-3.1035730" lon="37.3707730">
    <ele>4439.0</ele>
    <time>2026-06-22T11:26:02Z</time>
   </trkpt>
   <trkpt lat="-3.1035700" lon="37.3707810">
    <ele>4439.0</ele>
    <time>2026-06-22T11:26:03Z</time>
   </trkpt>
   <trkpt lat="-3.1035680" lon="37.3707900">
    <ele>4439.1</ele>
    <time>2026-06-22T11:26:04Z</time>
   </trkpt>
   <trkpt lat="-3.1035670" lon="37.3707940">
    <ele>4439.1</ele>
    <time>2026-06-22T11:26:05Z</time>
   </trkpt>
   <trkpt lat="-3.1035660" lon="37.3707990">
    <ele>4439.1</ele>
    <time>2026-06-22T11:26:06Z</time>
   </trkpt>
   <trkpt lat="-3.1035640" lon="37.3708020">
    <ele>4439.1</ele>
    <time>2026-06-22T11:26:07Z</time>
   </trkpt>
   <trkpt lat="-3.1035620" lon="37.3708090">
    <ele>4439.2</ele>
    <time>2026-06-22T11:26:08Z</time>
   </trkpt>
   <trkpt lat="-3.1035580" lon="37.3708140">
    <ele>4439.2</ele>
    <time>2026-06-22T11:26:09Z</time>
   </trkpt>
   <trkpt lat="-3.1035540" lon="37.3708200">
    <ele>4439.3</ele>
    <time>2026-06-22T11:26:10Z</time>
   </trkpt>
   <trkpt lat="-3.1035510" lon="37.3708270">
    <ele>4439.3</ele>
    <time>2026-06-22T11:26:11Z</time>
   </trkpt>
   <trkpt lat="-3.1035480" lon="37.3708330">
    <ele>4439.4</ele>
    <time>2026-06-22T11:26:12Z</time>
   </trkpt>
   <trkpt lat="-3.1035480" lon="37.3708300">
    <ele>4439.4</ele>
    <time>2026-06-22T11:26:13Z</time>
   </trkpt>
   <trkpt lat="-3.1035390" lon="37.3708450">
    <ele>4439.5</ele>
    <time>2026-06-22T11:26:14Z</time>
   </trkpt>
   <trkpt lat="-3.1035350" lon="37.3708430">
    <ele>4439.6</ele>
    <time>2026-06-22T11:26:15Z</time>
   </trkpt>
   <trkpt lat="-3.1035310" lon="37.3708480">
    <ele>4439.6</ele>
    <time>2026-06-22T11:26:16Z</time>
   </trkpt>
   <trkpt lat="-3.1035260" lon="37.3708520">
    <ele>4439.7</ele>
    <time>2026-06-22T11:26:17Z</time>
   </trkpt>
   <trkpt lat="-3.1035230" lon="37.3708560">
    <ele>4439.7</ele>
    <time>2026-06-22T11:26:18Z</time>
   </trkpt>
   <trkpt lat="-3.1035160" lon="37.3708640">
    <ele>4439.8</ele>
    <time>2026-06-22T11:26:19Z</time>
   </trkpt>
   <trkpt lat="-3.1035150" lon="37.3708660">
    <ele>4439.8</ele>
    <time>2026-06-22T11:26:20Z</time>
   </trkpt>
   <trkpt lat="-3.1035180" lon="37.3708650">
    <ele>4439.9</ele>
    <time>2026-06-22T11:26:21Z</time>
   </trkpt>
   <trkpt lat="-3.1035190" lon="37.3708660">
    <ele>4439.9</ele>
    <time>2026-06-22T11:26:22Z</time>
   </trkpt>
   <trkpt lat="-3.1035190" lon="37.3708650">
    <ele>4439.9</ele>
    <time>2026-06-22T11:26:23Z</time>
   </trkpt>
   <trkpt lat="-3.1035190" lon="37.3708650">
    <ele>4439.9</ele>
    <time>2026-06-22T11:26:24Z</time>
   </trkpt>
   <trkpt lat="-3.1035190" lon="37.3708650">
    <ele>4439.9</ele>
    <time>2026-06-22T11:26:25Z</time>
   </trkpt>
   <trkpt lat="-3.1035190" lon="37.3708660">
    <ele>4439.9</ele>
    <time>2026-06-22T11:26:26Z</time>
   </trkpt>
   <trkpt lat="-3.1035200" lon="37.3708670">
    <ele>4439.9</ele>
    <time>2026-06-22T11:26:27Z</time>
   </trkpt>
   <trkpt lat="-3.1035190" lon="37.3708670">
    <ele>4439.9</ele>
    <time>2026-06-22T11:26:28Z</time>
   </trkpt>
   <trkpt lat="-3.1035190" lon="37.3708670">
    <ele>4439.9</ele>
    <time>2026-06-22T11:26:29Z</time>
   </trkpt>
   <trkpt lat="-3.1035200" lon="37.3708680">
    <ele>4439.9</ele>
    <time>2026-06-22T11:26:30Z</time>
   </trkpt>
   <trkpt lat="-3.1035200" lon="37.3708680">
    <ele>4439.9</ele>
    <time>2026-06-22T11:26:31Z</time>
   </trkpt>
   <trkpt lat="-3.1035200" lon="37.3708680">
    <ele>4439.9</ele>
    <time>2026-06-22T11:26:32Z</time>
   </trkpt>
   <trkpt lat="-3.1035200" lon="37.3708690">
    <ele>4439.9</ele>
    <time>2026-06-22T11:26:33Z</time>
   </trkpt>
   <trkpt lat="-3.1035220" lon="37.3708740">
    <ele>4440.0</ele>
    <time>2026-06-22T11:26:34Z</time>
   </trkpt>
   <trkpt lat="-3.1035220" lon="37.3708770">
    <ele>4440.0</ele>
    <time>2026-06-22T11:26:35Z</time>
   </trkpt>
   <trkpt lat="-3.1035210" lon="37.3708830">
    <ele>4440.1</ele>
    <time>2026-06-22T11:26:36Z</time>
   </trkpt>
   <trkpt lat="-3.1035230" lon="37.3708870">
    <ele>4440.1</ele>
    <time>2026-06-22T11:26:37Z</time>
   </trkpt>
   <trkpt lat="-3.1035230" lon="37.3708920">
    <ele>4440.2</ele>
    <time>2026-06-22T11:26:38Z</time>
   </trkpt>
   <trkpt lat="-3.1035210" lon="37.3708970">
    <ele>4440.2</ele>
    <time>2026-06-22T11:26:39Z</time>
   </trkpt>
   <trkpt lat="-3.1035210" lon="37.3709010">
    <ele>4440.2</ele>
    <time>2026-06-22T11:26:40Z</time>
   </trkpt>
   <trkpt lat="-3.1035210" lon="37.3709060">
    <ele>4440.3</ele>
    <time>2026-06-22T11:26:41Z</time>
   </trkpt>
   <trkpt lat="-3.1035170" lon="37.3709110">
    <ele>4440.4</ele>
    <time>2026-06-22T11:26:42Z</time>
   </trkpt>
   <trkpt lat="-3.1035140" lon="37.3709150">
    <ele>4440.4</ele>
    <time>2026-06-22T11:26:43Z</time>
   </trkpt>
   <trkpt lat="-3.1035120" lon="37.3709200">
    <ele>4440.4</ele>
    <time>2026-06-22T11:26:44Z</time>
   </trkpt>
   <trkpt lat="-3.1035090" lon="37.3709260">
    <ele>4440.5</ele>
    <time>2026-06-22T11:26:45Z</time>
   </trkpt>
   <trkpt lat="-3.1035080" lon="37.3709310">
    <ele>4440.6</ele>
    <time>2026-06-22T11:26:46Z</time>
   </trkpt>
   <trkpt lat="-3.1035050" lon="37.3709390">
    <ele>4440.7</ele>
    <time>2026-06-22T11:26:47Z</time>
   </trkpt>
   <trkpt lat="-3.1035030" lon="37.3709470">
    <ele>4440.7</ele>
    <time>2026-06-22T11:26:49Z</time>
   </trkpt>
   <trkpt lat="-3.1034990" lon="37.3709520">
    <ele>4440.8</ele>
    <time>2026-06-22T11:26:50Z</time>
   </trkpt>
   <trkpt lat="-3.1034950" lon="37.3709600">
    <ele>4440.9</ele>
    <time>2026-06-22T11:26:51Z</time>
   </trkpt>
   <trkpt lat="-3.1034920" lon="37.3709660">
    <ele>4441.0</ele>
    <time>2026-06-22T11:26:52Z</time>
   </trkpt>
   <trkpt lat="-3.1034900" lon="37.3709720">
    <ele>4441.0</ele>
    <time>2026-06-22T11:26:53Z</time>
   </trkpt>
   <trkpt lat="-3.1034890" lon="37.3709750">
    <ele>4441.1</ele>
    <time>2026-06-22T11:26:54Z</time>
   </trkpt>
   <trkpt lat="-3.1034860" lon="37.3709810">
    <ele>4441.1</ele>
    <time>2026-06-22T11:26:55Z</time>
   </trkpt>
   <trkpt lat="-3.1034830" lon="37.3709870">
    <ele>4441.2</ele>
    <time>2026-06-22T11:26:56Z</time>
   </trkpt>
   <trkpt lat="-3.1034810" lon="37.3709900">
    <ele>4441.3</ele>
    <time>2026-06-22T11:26:57Z</time>
   </trkpt>
   <trkpt lat="-3.1034780" lon="37.3709960">
    <ele>4441.3</ele>
    <time>2026-06-22T11:26:58Z</time>
   </trkpt>
   <trkpt lat="-3.1034760" lon="37.3710010">
    <ele>4441.4</ele>
    <time>2026-06-22T11:26:59Z</time>
   </trkpt>
   <trkpt lat="-3.1034720" lon="37.3710070">
    <ele>4441.5</ele>
    <time>2026-06-22T11:27:00Z</time>
   </trkpt>
   <trkpt lat="-3.1034680" lon="37.3710140">
    <ele>4441.6</ele>
    <time>2026-06-22T11:27:01Z</time>
   </trkpt>
   <trkpt lat="-3.1034660" lon="37.3710170">
    <ele>4441.6</ele>
    <time>2026-06-22T11:27:02Z</time>
   </trkpt>
   <trkpt lat="-3.1034640" lon="37.3710240">
    <ele>4441.7</ele>
    <time>2026-06-22T11:27:03Z</time>
   </trkpt>
   <trkpt lat="-3.1034650" lon="37.3710310">
    <ele>4441.8</ele>
    <time>2026-06-22T11:27:04Z</time>
   </trkpt>
   <trkpt lat="-3.1034670" lon="37.3710370">
    <ele>4441.8</ele>
    <time>2026-06-22T11:27:05Z</time>
   </trkpt>
   <trkpt lat="-3.1034690" lon="37.3710440">
    <ele>4441.9</ele>
    <time>2026-06-22T11:27:06Z</time>
   </trkpt>
   <trkpt lat="-3.1034700" lon="37.3710490">
    <ele>4442.0</ele>
    <time>2026-06-22T11:27:07Z</time>
   </trkpt>
   <trkpt lat="-3.1034690" lon="37.3710540">
    <ele>4442.1</ele>
    <time>2026-06-22T11:27:08Z</time>
   </trkpt>
   <trkpt lat="-3.1034670" lon="37.3710560">
    <ele>4442.1</ele>
    <time>2026-06-22T11:27:09Z</time>
   </trkpt>
   <trkpt lat="-3.1034650" lon="37.3710640">
    <ele>4442.2</ele>
    <time>2026-06-22T11:27:10Z</time>
   </trkpt>
   <trkpt lat="-3.1034610" lon="37.3710680">
    <ele>4442.3</ele>
    <time>2026-06-22T11:27:11Z</time>
   </trkpt>
   <trkpt lat="-3.1034590" lon="37.3710730">
    <ele>4442.3</ele>
    <time>2026-06-22T11:27:12Z</time>
   </trkpt>
   <trkpt lat="-3.1034570" lon="37.3710770">
    <ele>4442.4</ele>
    <time>2026-06-22T11:27:13Z</time>
   </trkpt>
   <trkpt lat="-3.1034550" lon="37.3710830">
    <ele>4442.5</ele>
    <time>2026-06-22T11:27:14Z</time>
   </trkpt>
   <trkpt lat="-3.1034540" lon="37.3710900">
    <ele>4442.6</ele>
    <time>2026-06-22T11:27:15Z</time>
   </trkpt>
   <trkpt lat="-3.1034520" lon="37.3710960">
    <ele>4442.7</ele>
    <time>2026-06-22T11:27:16Z</time>
   </trkpt>
   <trkpt lat="-3.1034520" lon="37.3711020">
    <ele>4442.7</ele>
    <time>2026-06-22T11:27:17Z</time>
   </trkpt>
   <trkpt lat="-3.1034510" lon="37.3711060">
    <ele>4442.8</ele>
    <time>2026-06-22T11:27:18Z</time>
   </trkpt>
   <trkpt lat="-3.1034490" lon="37.3711120">
    <ele>4442.9</ele>
    <time>2026-06-22T11:27:19Z</time>
   </trkpt>
   <trkpt lat="-3.1034470" lon="37.3711160">
    <ele>4442.9</ele>
    <time>2026-06-22T11:27:20Z</time>
   </trkpt>
   <trkpt lat="-3.1034440" lon="37.3711220">
    <ele>4443.0</ele>
    <time>2026-06-22T11:27:21Z</time>
   </trkpt>
   <trkpt lat="-3.1034430" lon="37.3711270">
    <ele>4443.1</ele>
    <time>2026-06-22T11:27:22Z</time>
   </trkpt>
   <trkpt lat="-3.1034400" lon="37.3711340">
    <ele>4443.2</ele>
    <time>2026-06-22T11:27:23Z</time>
   </trkpt>
   <trkpt lat="-3.1034380" lon="37.3711400">
    <ele>4443.3</ele>
    <time>2026-06-22T11:27:24Z</time>
   </trkpt>
   <trkpt lat="-3.1034370" lon="37.3711440">
    <ele>4443.4</ele>
    <time>2026-06-22T11:27:25Z</time>
   </trkpt>
   <trkpt lat="-3.1034370" lon="37.3711510">
    <ele>4443.5</ele>
    <time>2026-06-22T11:27:26Z</time>
   </trkpt>
   <trkpt lat="-3.1034390" lon="37.3711570">
    <ele>4443.6</ele>
    <time>2026-06-22T11:27:27Z</time>
   </trkpt>
   <trkpt lat="-3.1034400" lon="37.3711660">
    <ele>4443.7</ele>
    <time>2026-06-22T11:27:28Z</time>
   </trkpt>
   <trkpt lat="-3.1034420" lon="37.3711720">
    <ele>4443.8</ele>
    <time>2026-06-22T11:27:29Z</time>
   </trkpt>
   <trkpt lat="-3.1034430" lon="37.3711770">
    <ele>4443.9</ele>
    <time>2026-06-22T11:27:30Z</time>
   </trkpt>
   <trkpt lat="-3.1034460" lon="37.3711900">
    <ele>4444.1</ele>
    <time>2026-06-22T11:27:31Z</time>
   </trkpt>
   <trkpt lat="-3.1034470" lon="37.3711970">
    <ele>4444.2</ele>
    <time>2026-06-22T11:27:32Z</time>
   </trkpt>
   <trkpt lat="-3.1034460" lon="37.3712030">
    <ele>4444.3</ele>
    <time>2026-06-22T11:27:33Z</time>
   </trkpt>
   <trkpt lat="-3.1034460" lon="37.3712100">
    <ele>4444.4</ele>
    <time>2026-06-22T11:27:34Z</time>
   </trkpt>
   <trkpt lat="-3.1034460" lon="37.3712160">
    <ele>4444.5</ele>
    <time>2026-06-22T11:27:35Z</time>
   </trkpt>
   <trkpt lat="-3.1034470" lon="37.3712230">
    <ele>4444.6</ele>
    <time>2026-06-22T11:27:36Z</time>
   </trkpt>
   <trkpt lat="-3.1034470" lon="37.3712290">
    <ele>4444.7</ele>
    <time>2026-06-22T11:27:37Z</time>
   </trkpt>
   <trkpt lat="-3.1034470" lon="37.3712330">
    <ele>4444.7</ele>
    <time>2026-06-22T11:27:38Z</time>
   </trkpt>
   <trkpt lat="-3.1034470" lon="37.3712400">
    <ele>4444.8</ele>
    <time>2026-06-22T11:27:39Z</time>
   </trkpt>
   <trkpt lat="-3.1034470" lon="37.3712450">
    <ele>4444.9</ele>
    <time>2026-06-22T11:27:40Z</time>
   </trkpt>
   <trkpt lat="-3.1034460" lon="37.3712500">
    <ele>4445.0</ele>
    <time>2026-06-22T11:27:41Z</time>
   </trkpt>
   <trkpt lat="-3.1034460" lon="37.3712550">
    <ele>4445.1</ele>
    <time>2026-06-22T11:27:42Z</time>
   </trkpt>
   <trkpt lat="-3.1034460" lon="37.3712600">
    <ele>4445.1</ele>
    <time>2026-06-22T11:27:43Z</time>
   </trkpt>
   <trkpt lat="-3.1034440" lon="37.3712660">
    <ele>4445.2</ele>
    <time>2026-06-22T11:27:44Z</time>
   </trkpt>
   <trkpt lat="-3.1034430" lon="37.3712700">
    <ele>4445.3</ele>
    <time>2026-06-22T11:27:45Z</time>
   </trkpt>
   <trkpt lat="-3.1034420" lon="37.3712750">
    <ele>4445.4</ele>
    <time>2026-06-22T11:27:46Z</time>
   </trkpt>
   <trkpt lat="-3.1034420" lon="37.3712810">
    <ele>4445.5</ele>
    <time>2026-06-22T11:27:47Z</time>
   </trkpt>
   <trkpt lat="-3.1034410" lon="37.3712850">
    <ele>4445.5</ele>
    <time>2026-06-22T11:27:48Z</time>
   </trkpt>
   <trkpt lat="-3.1034410" lon="37.3712910">
    <ele>4445.6</ele>
    <time>2026-06-22T11:27:49Z</time>
   </trkpt>
   <trkpt lat="-3.1034400" lon="37.3712970">
    <ele>4445.7</ele>
    <time>2026-06-22T11:27:50Z</time>
   </trkpt>
   <trkpt lat="-3.1034410" lon="37.3713020">
    <ele>4445.8</ele>
    <time>2026-06-22T11:27:51Z</time>
   </trkpt>
   <trkpt lat="-3.1034400" lon="37.3713060">
    <ele>4445.8</ele>
    <time>2026-06-22T11:27:52Z</time>
   </trkpt>
   <trkpt lat="-3.1034410" lon="37.3713090">
    <ele>4445.9</ele>
    <time>2026-06-22T11:27:53Z</time>
   </trkpt>
   <trkpt lat="-3.1034410" lon="37.3713160">
    <ele>4446.0</ele>
    <time>2026-06-22T11:27:54Z</time>
   </trkpt>
   <trkpt lat="-3.1034420" lon="37.3713210">
    <ele>4446.0</ele>
    <time>2026-06-22T11:27:55Z</time>
   </trkpt>
   <trkpt lat="-3.1034410" lon="37.3713240">
    <ele>4446.1</ele>
    <time>2026-06-22T11:27:56Z</time>
   </trkpt>
   <trkpt lat="-3.1034410" lon="37.3713310">
    <ele>4446.2</ele>
    <time>2026-06-22T11:27:57Z</time>
   </trkpt>
   <trkpt lat="-3.1034420" lon="37.3713370">
    <ele>4446.3</ele>
    <time>2026-06-22T11:27:58Z</time>
   </trkpt>
   <trkpt lat="-3.1034420" lon="37.3713390">
    <ele>4446.3</ele>
    <time>2026-06-22T11:27:59Z</time>
   </trkpt>
   <trkpt lat="-3.1034430" lon="37.3713460">
    <ele>4446.4</ele>
    <time>2026-06-22T11:28:00Z</time>
   </trkpt>
   <trkpt lat="-3.1034420" lon="37.3713500">
    <ele>4446.4</ele>
    <time>2026-06-22T11:28:01Z</time>
   </trkpt>
   <trkpt lat="-3.1034430" lon="37.3713540">
    <ele>4446.5</ele>
    <time>2026-06-22T11:28:02Z</time>
   </trkpt>
   <trkpt lat="-3.1034410" lon="37.3713560">
    <ele>4446.5</ele>
    <time>2026-06-22T11:28:03Z</time>
   </trkpt>
   <trkpt lat="-3.1034390" lon="37.3713650">
    <ele>4446.6</ele>
    <time>2026-06-22T11:28:04Z</time>
   </trkpt>
   <trkpt lat="-3.1034390" lon="37.3713700">
    <ele>4446.7</ele>
    <time>2026-06-22T11:28:05Z</time>
   </trkpt>
   <trkpt lat="-3.1034390" lon="37.3713760">
    <ele>4446.8</ele>
    <time>2026-06-22T11:28:06Z</time>
   </trkpt>
   <trkpt lat="-3.1034410" lon="37.3713770">
    <ele>4446.8</ele>
    <time>2026-06-22T11:28:07Z</time>
   </trkpt>
   <trkpt lat="-3.1034400" lon="37.3713850">
    <ele>4446.9</ele>
    <time>2026-06-22T11:28:08Z</time>
   </trkpt>
   <trkpt lat="-3.1034410" lon="37.3713890">
    <ele>4447.0</ele>
    <time>2026-06-22T11:28:09Z</time>
   </trkpt>
   <trkpt lat="-3.1034390" lon="37.3713940">
    <ele>4447.0</ele>
    <time>2026-06-22T11:28:10Z</time>
   </trkpt>
   <trkpt lat="-3.1034380" lon="37.3713980">
    <ele>4447.1</ele>
    <time>2026-06-22T11:28:11Z</time>
   </trkpt>
   <trkpt lat="-3.1034380" lon="37.3714040">
    <ele>4447.1</ele>
    <time>2026-06-22T11:28:12Z</time>
   </trkpt>
   <trkpt lat="-3.1034360" lon="37.3714090">
    <ele>4447.2</ele>
    <time>2026-06-22T11:28:13Z</time>
   </trkpt>
   <trkpt lat="-3.1034360" lon="37.3714120">
    <ele>4447.2</ele>
    <time>2026-06-22T11:28:14Z</time>
   </trkpt>
   <trkpt lat="-3.1034350" lon="37.3714200">
    <ele>4447.3</ele>
    <time>2026-06-22T11:28:15Z</time>
   </trkpt>
   <trkpt lat="-3.1034350" lon="37.3714220">
    <ele>4447.4</ele>
    <time>2026-06-22T11:28:16Z</time>
   </trkpt>
   <trkpt lat="-3.1034340" lon="37.3714290">
    <ele>4447.4</ele>
    <time>2026-06-22T11:28:17Z</time>
   </trkpt>
   <trkpt lat="-3.1034320" lon="37.3714360">
    <ele>4447.5</ele>
    <time>2026-06-22T11:28:18Z</time>
   </trkpt>
   <trkpt lat="-3.1034300" lon="37.3714440">
    <ele>4447.6</ele>
    <time>2026-06-22T11:28:19Z</time>
   </trkpt>
   <trkpt lat="-3.1034250" lon="37.3714490">
    <ele>4447.7</ele>
    <time>2026-06-22T11:28:20Z</time>
   </trkpt>
   <trkpt lat="-3.1034230" lon="37.3714510">
    <ele>4447.7</ele>
    <time>2026-06-22T11:28:21Z</time>
   </trkpt>
   <trkpt lat="-3.1034200" lon="37.3714560">
    <ele>4447.8</ele>
    <time>2026-06-22T11:28:22Z</time>
   </trkpt>
   <trkpt lat="-3.1034180" lon="37.3714620">
    <ele>4447.8</ele>
    <time>2026-06-22T11:28:23Z</time>
   </trkpt>
   <trkpt lat="-3.1034160" lon="37.3714680">
    <ele>4447.9</ele>
    <time>2026-06-22T11:28:24Z</time>
   </trkpt>
   <trkpt lat="-3.1034170" lon="37.3714720">
    <ele>4447.9</ele>
    <time>2026-06-22T11:28:25Z</time>
   </trkpt>
   <trkpt lat="-3.1034160" lon="37.3714790">
    <ele>4448.0</ele>
    <time>2026-06-22T11:28:26Z</time>
   </trkpt>
   <trkpt lat="-3.1034140" lon="37.3714840">
    <ele>4448.1</ele>
    <time>2026-06-22T11:28:27Z</time>
   </trkpt>
   <trkpt lat="-3.1034120" lon="37.3714920">
    <ele>4448.1</ele>
    <time>2026-06-22T11:28:28Z</time>
   </trkpt>
   <trkpt lat="-3.1034110" lon="37.3714980">
    <ele>4448.2</ele>
    <time>2026-06-22T11:28:29Z</time>
   </trkpt>
   <trkpt lat="-3.1034110" lon="37.3715040">
    <ele>4448.2</ele>
    <time>2026-06-22T11:28:30Z</time>
   </trkpt>
   <trkpt lat="-3.1034110" lon="37.3715100">
    <ele>4448.3</ele>
    <time>2026-06-22T11:28:31Z</time>
   </trkpt>
   <trkpt lat="-3.1034100" lon="37.3715140">
    <ele>4448.3</ele>
    <time>2026-06-22T11:28:32Z</time>
   </trkpt>
   <trkpt lat="-3.1034080" lon="37.3715180">
    <ele>4448.4</ele>
    <time>2026-06-22T11:28:33Z</time>
   </trkpt>
   <trkpt lat="-3.1034050" lon="37.3715240">
    <ele>4448.4</ele>
    <time>2026-06-22T11:28:34Z</time>
   </trkpt>
   <trkpt lat="-3.1034020" lon="37.3715350">
    <ele>4448.5</ele>
    <time>2026-06-22T11:28:35Z</time>
   </trkpt>
   <trkpt lat="-3.1034020" lon="37.3715360">
    <ele>4448.5</ele>
    <time>2026-06-22T11:28:36Z</time>
   </trkpt>
   <trkpt lat="-3.1034000" lon="37.3715430">
    <ele>4448.6</ele>
    <time>2026-06-22T11:28:37Z</time>
   </trkpt>
   <trkpt lat="-3.1033990" lon="37.3715480">
    <ele>4448.6</ele>
    <time>2026-06-22T11:28:38Z</time>
   </trkpt>
   <trkpt lat="-3.1033970" lon="37.3715550">
    <ele>4448.7</ele>
    <time>2026-06-22T11:28:39Z</time>
   </trkpt>
   <trkpt lat="-3.1033940" lon="37.3715600">
    <ele>4448.7</ele>
    <time>2026-06-22T11:28:40Z</time>
   </trkpt>
   <trkpt lat="-3.1033920" lon="37.3715660">
    <ele>4448.8</ele>
    <time>2026-06-22T11:28:41Z</time>
   </trkpt>
   <trkpt lat="-3.1033910" lon="37.3715720">
    <ele>4448.8</ele>
    <time>2026-06-22T11:28:42Z</time>
   </trkpt>
   <trkpt lat="-3.1033890" lon="37.3715810">
    <ele>4448.9</ele>
    <time>2026-06-22T11:28:43Z</time>
   </trkpt>
   <trkpt lat="-3.1033890" lon="37.3715850">
    <ele>4448.9</ele>
    <time>2026-06-22T11:28:44Z</time>
   </trkpt>
   <trkpt lat="-3.1033880" lon="37.3715900">
    <ele>4449.0</ele>
    <time>2026-06-22T11:28:45Z</time>
   </trkpt>
   <trkpt lat="-3.1033870" lon="37.3715950">
    <ele>4449.0</ele>
    <time>2026-06-22T11:28:46Z</time>
   </trkpt>
   <trkpt lat="-3.1033850" lon="37.3716010">
    <ele>4449.0</ele>
    <time>2026-06-22T11:28:47Z</time>
   </trkpt>
   <trkpt lat="-3.1033840" lon="37.3716060">
    <ele>4449.1</ele>
    <time>2026-06-22T11:28:48Z</time>
   </trkpt>
   <trkpt lat="-3.1033830" lon="37.3716100">
    <ele>4449.1</ele>
    <time>2026-06-22T11:28:49Z</time>
   </trkpt>
   <trkpt lat="-3.1033820" lon="37.3716200">
    <ele>4449.2</ele>
    <time>2026-06-22T11:28:50Z</time>
   </trkpt>
   <trkpt lat="-3.1033820" lon="37.3716260">
    <ele>4449.2</ele>
    <time>2026-06-22T11:28:51Z</time>
   </trkpt>
   <trkpt lat="-3.1033820" lon="37.3716300">
    <ele>4449.2</ele>
    <time>2026-06-22T11:28:52Z</time>
   </trkpt>
   <trkpt lat="-3.1033810" lon="37.3716380">
    <ele>4449.3</ele>
    <time>2026-06-22T11:28:53Z</time>
   </trkpt>
   <trkpt lat="-3.1033780" lon="37.3716430">
    <ele>4449.3</ele>
    <time>2026-06-22T11:28:55Z</time>
   </trkpt>
   <trkpt lat="-3.1033740" lon="37.3716480">
    <ele>4449.4</ele>
    <time>2026-06-22T11:28:56Z</time>
   </trkpt>
   <trkpt lat="-3.1033700" lon="37.3716540">
    <ele>4449.4</ele>
    <time>2026-06-22T11:28:57Z</time>
   </trkpt>
   <trkpt lat="-3.1033680" lon="37.3716590">
    <ele>4449.5</ele>
    <time>2026-06-22T11:28:58Z</time>
   </trkpt>
   <trkpt lat="-3.1033650" lon="37.3716650">
    <ele>4449.5</ele>
    <time>2026-06-22T11:28:59Z</time>
   </trkpt>
   <trkpt lat="-3.1033630" lon="37.3716720">
    <ele>4449.5</ele>
    <time>2026-06-22T11:29:00Z</time>
   </trkpt>
   <trkpt lat="-3.1033620" lon="37.3716760">
    <ele>4449.6</ele>
    <time>2026-06-22T11:29:01Z</time>
   </trkpt>
   <trkpt lat="-3.1033590" lon="37.3716830">
    <ele>4449.6</ele>
    <time>2026-06-22T11:29:02Z</time>
   </trkpt>
   <trkpt lat="-3.1033570" lon="37.3716880">
    <ele>4449.6</ele>
    <time>2026-06-22T11:29:03Z</time>
   </trkpt>
   <trkpt lat="-3.1033560" lon="37.3716960">
    <ele>4449.7</ele>
    <time>2026-06-22T11:29:04Z</time>
   </trkpt>
   <trkpt lat="-3.1033550" lon="37.3717060">
    <ele>4449.7</ele>
    <time>2026-06-22T11:29:05Z</time>
   </trkpt>
   <trkpt lat="-3.1033530" lon="37.3717090">
    <ele>4449.8</ele>
    <time>2026-06-22T11:29:06Z</time>
   </trkpt>
   <trkpt lat="-3.1033510" lon="37.3717130">
    <ele>4449.8</ele>
    <time>2026-06-22T11:29:07Z</time>
   </trkpt>
   <trkpt lat="-3.1033480" lon="37.3717180">
    <ele>4449.8</ele>
    <time>2026-06-22T11:29:08Z</time>
   </trkpt>
   <trkpt lat="-3.1033460" lon="37.3717250">
    <ele>4449.9</ele>
    <time>2026-06-22T11:29:09Z</time>
   </trkpt>
   <trkpt lat="-3.1033440" lon="37.3717290">
    <ele>4449.9</ele>
    <time>2026-06-22T11:29:10Z</time>
   </trkpt>
   <trkpt lat="-3.1033420" lon="37.3717340">
    <ele>4449.9</ele>
    <time>2026-06-22T11:29:11Z</time>
   </trkpt>
   <trkpt lat="-3.1033380" lon="37.3717410">
    <ele>4449.9</ele>
    <time>2026-06-22T11:29:12Z</time>
   </trkpt>
   <trkpt lat="-3.1033370" lon="37.3717440">
    <ele>4450.0</ele>
    <time>2026-06-22T11:29:13Z</time>
   </trkpt>
   <trkpt lat="-3.1033330" lon="37.3717510">
    <ele>4450.0</ele>
    <time>2026-06-22T11:29:14Z</time>
   </trkpt>
   <trkpt lat="-3.1033300" lon="37.3717570">
    <ele>4450.0</ele>
    <time>2026-06-22T11:29:15Z</time>
   </trkpt>
   <trkpt lat="-3.1033280" lon="37.3717600">
    <ele>4450.0</ele>
    <time>2026-06-22T11:29:16Z</time>
   </trkpt>
   <trkpt lat="-3.1033250" lon="37.3717660">
    <ele>4450.1</ele>
    <time>2026-06-22T11:29:17Z</time>
   </trkpt>
   <trkpt lat="-3.1033230" lon="37.3717700">
    <ele>4450.1</ele>
    <time>2026-06-22T11:29:18Z</time>
   </trkpt>
   <trkpt lat="-3.1033190" lon="37.3717750">
    <ele>4450.1</ele>
    <time>2026-06-22T11:29:19Z</time>
   </trkpt>
   <trkpt lat="-3.1033170" lon="37.3717820">
    <ele>4450.1</ele>
    <time>2026-06-22T11:29:20Z</time>
   </trkpt>
   <trkpt lat="-3.1033160" lon="37.3717870">
    <ele>4450.2</ele>
    <time>2026-06-22T11:29:21Z</time>
   </trkpt>
   <trkpt lat="-3.1033170" lon="37.3717940">
    <ele>4450.2</ele>
    <time>2026-06-22T11:29:22Z</time>
   </trkpt>
   <trkpt lat="-3.1033180" lon="37.3718000">
    <ele>4450.2</ele>
    <time>2026-06-22T11:29:23Z</time>
   </trkpt>
   <trkpt lat="-3.1033180" lon="37.3718070">
    <ele>4450.2</ele>
    <time>2026-06-22T11:29:24Z</time>
   </trkpt>
   <trkpt lat="-3.1033180" lon="37.3718140">
    <ele>4450.3</ele>
    <time>2026-06-22T11:29:25Z</time>
   </trkpt>
   <trkpt lat="-3.1033170" lon="37.3718200">
    <ele>4450.3</ele>
    <time>2026-06-22T11:29:26Z</time>
   </trkpt>
   <trkpt lat="-3.1033160" lon="37.3718250">
    <ele>4450.3</ele>
    <time>2026-06-22T11:29:27Z</time>
   </trkpt>
   <trkpt lat="-3.1033140" lon="37.3718300">
    <ele>4450.3</ele>
    <time>2026-06-22T11:29:28Z</time>
   </trkpt>
   <trkpt lat="-3.1033120" lon="37.3718340">
    <ele>4450.4</ele>
    <time>2026-06-22T11:29:29Z</time>
   </trkpt>
   <trkpt lat="-3.1033100" lon="37.3718400">
    <ele>4450.4</ele>
    <time>2026-06-22T11:29:30Z</time>
   </trkpt>
   <trkpt lat="-3.1033080" lon="37.3718470">
    <ele>4450.4</ele>
    <time>2026-06-22T11:29:31Z</time>
   </trkpt>
   <trkpt lat="-3.1033050" lon="37.3718530">
    <ele>4450.4</ele>
    <time>2026-06-22T11:29:32Z</time>
   </trkpt>
   <trkpt lat="-3.1033010" lon="37.3718600">
    <ele>4450.5</ele>
    <time>2026-06-22T11:29:33Z</time>
   </trkpt>
   <trkpt lat="-3.1032980" lon="37.3718660">
    <ele>4450.5</ele>
    <time>2026-06-22T11:29:34Z</time>
   </trkpt>
   <trkpt lat="-3.1032960" lon="37.3718710">
    <ele>4450.5</ele>
    <time>2026-06-22T11:29:35Z</time>
   </trkpt>
   <trkpt lat="-3.1032920" lon="37.3718860">
    <ele>4450.6</ele>
    <time>2026-06-22T11:29:36Z</time>
   </trkpt>
   <trkpt lat="-3.1032910" lon="37.3718930">
    <ele>4450.6</ele>
    <time>2026-06-22T11:29:37Z</time>
   </trkpt>
   <trkpt lat="-3.1032900" lon="37.3718970">
    <ele>4450.6</ele>
    <time>2026-06-22T11:29:38Z</time>
   </trkpt>
   <trkpt lat="-3.1032880" lon="37.3719040">
    <ele>4450.6</ele>
    <time>2026-06-22T11:29:39Z</time>
   </trkpt>
   <trkpt lat="-3.1032860" lon="37.3719080">
    <ele>4450.7</ele>
    <time>2026-06-22T11:29:40Z</time>
   </trkpt>
   <trkpt lat="-3.1032820" lon="37.3719140">
    <ele>4450.7</ele>
    <time>2026-06-22T11:29:41Z</time>
   </trkpt>
   <trkpt lat="-3.1032790" lon="37.3719210">
    <ele>4450.7</ele>
    <time>2026-06-22T11:29:42Z</time>
   </trkpt>
   <trkpt lat="-3.1032760" lon="37.3719280">
    <ele>4450.8</ele>
    <time>2026-06-22T11:29:43Z</time>
   </trkpt>
   <trkpt lat="-3.1032720" lon="37.3719370">
    <ele>4450.8</ele>
    <time>2026-06-22T11:29:44Z</time>
   </trkpt>
   <trkpt lat="-3.1032710" lon="37.3719400">
    <ele>4450.8</ele>
    <time>2026-06-22T11:29:45Z</time>
   </trkpt>
   <trkpt lat="-3.1032690" lon="37.3719460">
    <ele>4450.8</ele>
    <time>2026-06-22T11:29:46Z</time>
   </trkpt>
   <trkpt lat="-3.1032670" lon="37.3719510">
    <ele>4450.9</ele>
    <time>2026-06-22T11:29:47Z</time>
   </trkpt>
   <trkpt lat="-3.1032660" lon="37.3719560">
    <ele>4450.9</ele>
    <time>2026-06-22T11:29:48Z</time>
   </trkpt>
   <trkpt lat="-3.1032630" lon="37.3719650">
    <ele>4450.9</ele>
    <time>2026-06-22T11:29:49Z</time>
   </trkpt>
   <trkpt lat="-3.1032620" lon="37.3719680">
    <ele>4450.9</ele>
    <time>2026-06-22T11:29:50Z</time>
   </trkpt>
   <trkpt lat="-3.1032600" lon="37.3719730">
    <ele>4450.9</ele>
    <time>2026-06-22T11:29:51Z</time>
   </trkpt>
   <trkpt lat="-3.1032590" lon="37.3719780">
    <ele>4451.0</ele>
    <time>2026-06-22T11:29:52Z</time>
   </trkpt>
   <trkpt lat="-3.1032580" lon="37.3719820">
    <ele>4451.0</ele>
    <time>2026-06-22T11:29:53Z</time>
   </trkpt>
   <trkpt lat="-3.1032560" lon="37.3719890">
    <ele>4451.0</ele>
    <time>2026-06-22T11:29:54Z</time>
   </trkpt>
   <trkpt lat="-3.1032520" lon="37.3719940">
    <ele>4451.0</ele>
    <time>2026-06-22T11:29:55Z</time>
   </trkpt>
   <trkpt lat="-3.1032480" lon="37.3720020">
    <ele>4451.1</ele>
    <time>2026-06-22T11:29:56Z</time>
   </trkpt>
   <trkpt lat="-3.1032450" lon="37.3720080">
    <ele>4451.1</ele>
    <time>2026-06-22T11:29:57Z</time>
   </trkpt>
   <trkpt lat="-3.1032380" lon="37.3720150">
    <ele>4451.1</ele>
    <time>2026-06-22T11:29:58Z</time>
   </trkpt>
   <trkpt lat="-3.1032380" lon="37.3720180">
    <ele>4451.1</ele>
    <time>2026-06-22T11:29:59Z</time>
   </trkpt>
   <trkpt lat="-3.1032360" lon="37.3720190">
    <ele>4451.1</ele>
    <time>2026-06-22T11:30:00Z</time>
   </trkpt>
   <trkpt lat="-3.1032330" lon="37.3720230">
    <ele>4451.2</ele>
    <time>2026-06-22T11:30:01Z</time>
   </trkpt>
   <trkpt lat="-3.1032310" lon="37.3720260">
    <ele>4451.2</ele>
    <time>2026-06-22T11:30:02Z</time>
   </trkpt>
   <trkpt lat="-3.1032310" lon="37.3720300">
    <ele>4451.2</ele>
    <time>2026-06-22T11:30:03Z</time>
   </trkpt>
   <trkpt lat="-3.1032310" lon="37.3720360">
    <ele>4451.2</ele>
    <time>2026-06-22T11:30:04Z</time>
   </trkpt>
   <trkpt lat="-3.1032290" lon="37.3720410">
    <ele>4451.2</ele>
    <time>2026-06-22T11:30:05Z</time>
   </trkpt>
   <trkpt lat="-3.1032230" lon="37.3720500">
    <ele>4451.3</ele>
    <time>2026-06-22T11:30:06Z</time>
   </trkpt>
   <trkpt lat="-3.1032210" lon="37.3720530">
    <ele>4451.3</ele>
    <time>2026-06-22T11:30:07Z</time>
   </trkpt>
   <trkpt lat="-3.1032190" lon="37.3720610">
    <ele>4451.3</ele>
    <time>2026-06-22T11:30:08Z</time>
   </trkpt>
   <trkpt lat="-3.1032200" lon="37.3720620">
    <ele>4451.3</ele>
    <time>2026-06-22T11:30:09Z</time>
   </trkpt>
   <trkpt lat="-3.1032210" lon="37.3720630">
    <ele>4451.3</ele>
    <time>2026-06-22T11:30:10Z</time>
   </trkpt>
   <trkpt lat="-3.1032210" lon="37.3720700">
    <ele>4451.3</ele>
    <time>2026-06-22T11:30:11Z</time>
   </trkpt>
   <trkpt lat="-3.1032180" lon="37.3720820">
    <ele>4451.4</ele>
    <time>2026-06-22T11:30:12Z</time>
   </trkpt>
   <trkpt lat="-3.1032170" lon="37.3720880">
    <ele>4451.4</ele>
    <time>2026-06-22T11:30:13Z</time>
   </trkpt>
   <trkpt lat="-3.1032170" lon="37.3720890">
    <ele>4451.4</ele>
    <time>2026-06-22T11:30:14Z</time>
   </trkpt>
   <trkpt lat="-3.1032180" lon="37.3720960">
    <ele>4451.4</ele>
    <time>2026-06-22T11:30:15Z</time>
   </trkpt>
   <trkpt lat="-3.1032200" lon="37.3721050">
    <ele>4451.4</ele>
    <time>2026-06-22T11:30:16Z</time>
   </trkpt>
   <trkpt lat="-3.1032190" lon="37.3721120">
    <ele>4451.5</ele>
    <time>2026-06-22T11:30:17Z</time>
   </trkpt>
   <trkpt lat="-3.1032190" lon="37.3721170">
    <ele>4451.5</ele>
    <time>2026-06-22T11:30:18Z</time>
   </trkpt>
   <trkpt lat="-3.1032180" lon="37.3721220">
    <ele>4451.5</ele>
    <time>2026-06-22T11:30:19Z</time>
   </trkpt>
   <trkpt lat="-3.1032150" lon="37.3721290">
    <ele>4451.5</ele>
    <time>2026-06-22T11:30:20Z</time>
   </trkpt>
   <trkpt lat="-3.1032140" lon="37.3721340">
    <ele>4451.5</ele>
    <time>2026-06-22T11:30:21Z</time>
   </trkpt>
   <trkpt lat="-3.1032150" lon="37.3721430">
    <ele>4451.6</ele>
    <time>2026-06-22T11:30:22Z</time>
   </trkpt>
   <trkpt lat="-3.1032160" lon="37.3721490">
    <ele>4451.6</ele>
    <time>2026-06-22T11:30:23Z</time>
   </trkpt>
   <trkpt lat="-3.1032180" lon="37.3721560">
    <ele>4451.6</ele>
    <time>2026-06-22T11:30:24Z</time>
   </trkpt>
   <trkpt lat="-3.1032190" lon="37.3721610">
    <ele>4451.6</ele>
    <time>2026-06-22T11:30:25Z</time>
   </trkpt>
   <trkpt lat="-3.1032190" lon="37.3721670">
    <ele>4451.7</ele>
    <time>2026-06-22T11:30:26Z</time>
   </trkpt>
   <trkpt lat="-3.1032180" lon="37.3721800">
    <ele>4451.7</ele>
    <time>2026-06-22T11:30:27Z</time>
   </trkpt>
   <trkpt lat="-3.1032200" lon="37.3721830">
    <ele>4451.7</ele>
    <time>2026-06-22T11:30:28Z</time>
   </trkpt>
   <trkpt lat="-3.1032200" lon="37.3721840">
    <ele>4451.7</ele>
    <time>2026-06-22T11:30:29Z</time>
   </trkpt>
   <trkpt lat="-3.1032180" lon="37.3721840">
    <ele>4451.7</ele>
    <time>2026-06-22T11:30:30Z</time>
   </trkpt>
   <trkpt lat="-3.1032150" lon="37.3721960">
    <ele>4451.8</ele>
    <time>2026-06-22T11:30:31Z</time>
   </trkpt>
   <trkpt lat="-3.1032150" lon="37.3722050">
    <ele>4451.8</ele>
    <time>2026-06-22T11:30:32Z</time>
   </trkpt>
   <trkpt lat="-3.1032150" lon="37.3722130">
    <ele>4451.9</ele>
    <time>2026-06-22T11:30:33Z</time>
   </trkpt>
   <trkpt lat="-3.1032140" lon="37.3722190">
    <ele>4451.9</ele>
    <time>2026-06-22T11:30:34Z</time>
   </trkpt>
   <trkpt lat="-3.1032140" lon="37.3722270">
    <ele>4451.9</ele>
    <time>2026-06-22T11:30:35Z</time>
   </trkpt>
   <trkpt lat="-3.1032120" lon="37.3722360">
    <ele>4452.0</ele>
    <time>2026-06-22T11:30:36Z</time>
   </trkpt>
   <trkpt lat="-3.1032110" lon="37.3722410">
    <ele>4452.0</ele>
    <time>2026-06-22T11:30:37Z</time>
   </trkpt>
   <trkpt lat="-3.1032100" lon="37.3722500">
    <ele>4452.0</ele>
    <time>2026-06-22T11:30:38Z</time>
   </trkpt>
   <trkpt lat="-3.1032100" lon="37.3722570">
    <ele>4452.1</ele>
    <time>2026-06-22T11:30:39Z</time>
   </trkpt>
   <trkpt lat="-3.1032070" lon="37.3722660">
    <ele>4452.1</ele>
    <time>2026-06-22T11:30:40Z</time>
   </trkpt>
   <trkpt lat="-3.1032040" lon="37.3722730">
    <ele>4452.2</ele>
    <time>2026-06-22T11:30:41Z</time>
   </trkpt>
   <trkpt lat="-3.1032010" lon="37.3722780">
    <ele>4452.2</ele>
    <time>2026-06-22T11:30:42Z</time>
   </trkpt>
   <trkpt lat="-3.1031970" lon="37.3722840">
    <ele>4452.2</ele>
    <time>2026-06-22T11:30:43Z</time>
   </trkpt>
   <trkpt lat="-3.1031930" lon="37.3722930">
    <ele>4452.3</ele>
    <time>2026-06-22T11:30:44Z</time>
   </trkpt>
   <trkpt lat="-3.1031910" lon="37.3722960">
    <ele>4452.3</ele>
    <time>2026-06-22T11:30:45Z</time>
   </trkpt>
   <trkpt lat="-3.1031880" lon="37.3723040">
    <ele>4452.4</ele>
    <time>2026-06-22T11:30:46Z</time>
   </trkpt>
   <trkpt lat="-3.1031850" lon="37.3723100">
    <ele>4452.4</ele>
    <time>2026-06-22T11:30:47Z</time>
   </trkpt>
   <trkpt lat="-3.1031820" lon="37.3723170">
    <ele>4452.5</ele>
    <time>2026-06-22T11:30:48Z</time>
   </trkpt>
   <trkpt lat="-3.1031800" lon="37.3723200">
    <ele>4452.5</ele>
    <time>2026-06-22T11:30:49Z</time>
   </trkpt>
   <trkpt lat="-3.1031770" lon="37.3723230">
    <ele>4452.6</ele>
    <time>2026-06-22T11:30:50Z</time>
   </trkpt>
   <trkpt lat="-3.1031740" lon="37.3723300">
    <ele>4452.6</ele>
    <time>2026-06-22T11:30:51Z</time>
   </trkpt>
   <trkpt lat="-3.1031710" lon="37.3723360">
    <ele>4452.7</ele>
    <time>2026-06-22T11:30:52Z</time>
   </trkpt>
   <trkpt lat="-3.1031690" lon="37.3723410">
    <ele>4452.7</ele>
    <time>2026-06-22T11:30:53Z</time>
   </trkpt>
   <trkpt lat="-3.1031680" lon="37.3723470">
    <ele>4452.8</ele>
    <time>2026-06-22T11:30:54Z</time>
   </trkpt>
   <trkpt lat="-3.1031660" lon="37.3723540">
    <ele>4452.8</ele>
    <time>2026-06-22T11:30:55Z</time>
   </trkpt>
   <trkpt lat="-3.1031630" lon="37.3723620">
    <ele>4452.9</ele>
    <time>2026-06-22T11:30:56Z</time>
   </trkpt>
   <trkpt lat="-3.1031600" lon="37.3723670">
    <ele>4453.0</ele>
    <time>2026-06-22T11:30:57Z</time>
   </trkpt>
   <trkpt lat="-3.1031570" lon="37.3723730">
    <ele>4453.0</ele>
    <time>2026-06-22T11:30:58Z</time>
   </trkpt>
   <trkpt lat="-3.1031550" lon="37.3723810">
    <ele>4453.1</ele>
    <time>2026-06-22T11:30:59Z</time>
   </trkpt>
   <trkpt lat="-3.1031550" lon="37.3723870">
    <ele>4453.1</ele>
    <time>2026-06-22T11:31:01Z</time>
   </trkpt>
   <trkpt lat="-3.1031530" lon="37.3723930">
    <ele>4453.2</ele>
    <time>2026-06-22T11:31:02Z</time>
   </trkpt>
   <trkpt lat="-3.1031510" lon="37.3723990">
    <ele>4453.3</ele>
    <time>2026-06-22T11:31:03Z</time>
   </trkpt>
   <trkpt lat="-3.1031470" lon="37.3724030">
    <ele>4453.3</ele>
    <time>2026-06-22T11:31:04Z</time>
   </trkpt>
   <trkpt lat="-3.1031420" lon="37.3724070">
    <ele>4453.4</ele>
    <time>2026-06-22T11:31:05Z</time>
   </trkpt>
   <trkpt lat="-3.1031370" lon="37.3724090">
    <ele>4453.4</ele>
    <time>2026-06-22T11:31:06Z</time>
   </trkpt>
   <trkpt lat="-3.1031300" lon="37.3724140">
    <ele>4453.5</ele>
    <time>2026-06-22T11:31:07Z</time>
   </trkpt>
   <trkpt lat="-3.1031280" lon="37.3724190">
    <ele>4453.6</ele>
    <time>2026-06-22T11:31:08Z</time>
   </trkpt>
   <trkpt lat="-3.1031250" lon="37.3724240">
    <ele>4453.6</ele>
    <time>2026-06-22T11:31:09Z</time>
   </trkpt>
   <trkpt lat="-3.1031230" lon="37.3724290">
    <ele>4453.7</ele>
    <time>2026-06-22T11:31:10Z</time>
   </trkpt>
   <trkpt lat="-3.1031190" lon="37.3724370">
    <ele>4453.8</ele>
    <time>2026-06-22T11:31:11Z</time>
   </trkpt>
   <trkpt lat="-3.1031190" lon="37.3724410">
    <ele>4453.8</ele>
    <time>2026-06-22T11:31:12Z</time>
   </trkpt>
   <trkpt lat="-3.1031170" lon="37.3724480">
    <ele>4453.9</ele>
    <time>2026-06-22T11:31:13Z</time>
   </trkpt>
   <trkpt lat="-3.1031170" lon="37.3724540">
    <ele>4454.0</ele>
    <time>2026-06-22T11:31:14Z</time>
   </trkpt>
   <trkpt lat="-3.1031130" lon="37.3724620">
    <ele>4454.1</ele>
    <time>2026-06-22T11:31:15Z</time>
   </trkpt>
   <trkpt lat="-3.1031070" lon="37.3724660">
    <ele>4454.1</ele>
    <time>2026-06-22T11:31:16Z</time>
   </trkpt>
   <trkpt lat="-3.1031030" lon="37.3724700">
    <ele>4454.2</ele>
    <time>2026-06-22T11:31:17Z</time>
   </trkpt>
   <trkpt lat="-3.1031000" lon="37.3724730">
    <ele>4454.3</ele>
    <time>2026-06-22T11:31:18Z</time>
   </trkpt>
   <trkpt lat="-3.1030950" lon="37.3724790">
    <ele>4454.3</ele>
    <time>2026-06-22T11:31:19Z</time>
   </trkpt>
   <trkpt lat="-3.1030930" lon="37.3724850">
    <ele>4454.4</ele>
    <time>2026-06-22T11:31:20Z</time>
   </trkpt>
   <trkpt lat="-3.1030940" lon="37.3724900">
    <ele>4454.5</ele>
    <time>2026-06-22T11:31:21Z</time>
   </trkpt>
   <trkpt lat="-3.1030940" lon="37.3724980">
    <ele>4454.6</ele>
    <time>2026-06-22T11:31:22Z</time>
   </trkpt>
   <trkpt lat="-3.1030930" lon="37.3725080">
    <ele>4454.7</ele>
    <time>2026-06-22T11:31:23Z</time>
   </trkpt>
   <trkpt lat="-3.1030910" lon="37.3725100">
    <ele>4454.7</ele>
    <time>2026-06-22T11:31:24Z</time>
   </trkpt>
   <trkpt lat="-3.1030880" lon="37.3725140">
    <ele>4454.8</ele>
    <time>2026-06-22T11:31:25Z</time>
   </trkpt>
   <trkpt lat="-3.1030850" lon="37.3725200">
    <ele>4454.8</ele>
    <time>2026-06-22T11:31:26Z</time>
   </trkpt>
   <trkpt lat="-3.1030830" lon="37.3725250">
    <ele>4454.9</ele>
    <time>2026-06-22T11:31:27Z</time>
   </trkpt>
   <trkpt lat="-3.1030790" lon="37.3725310">
    <ele>4455.0</ele>
    <time>2026-06-22T11:31:28Z</time>
   </trkpt>
   <trkpt lat="-3.1030750" lon="37.3725370">
    <ele>4455.1</ele>
    <time>2026-06-22T11:31:29Z</time>
   </trkpt>
   <trkpt lat="-3.1030700" lon="37.3725410">
    <ele>4455.2</ele>
    <time>2026-06-22T11:31:30Z</time>
   </trkpt>
   <trkpt lat="-3.1030690" lon="37.3725450">
    <ele>4455.2</ele>
    <time>2026-06-22T11:31:31Z</time>
   </trkpt>
   <trkpt lat="-3.1030670" lon="37.3725540">
    <ele>4455.3</ele>
    <time>2026-06-22T11:31:32Z</time>
   </trkpt>
   <trkpt lat="-3.1030650" lon="37.3725630">
    <ele>4455.4</ele>
    <time>2026-06-22T11:31:33Z</time>
   </trkpt>
   <trkpt lat="-3.1030660" lon="37.3725680">
    <ele>4455.5</ele>
    <time>2026-06-22T11:31:34Z</time>
   </trkpt>
   <trkpt lat="-3.1030640" lon="37.3725700">
    <ele>4455.5</ele>
    <time>2026-06-22T11:31:35Z</time>
   </trkpt>
   <trkpt lat="-3.1030610" lon="37.3725770">
    <ele>4455.6</ele>
    <time>2026-06-22T11:31:36Z</time>
   </trkpt>
   <trkpt lat="-3.1030580" lon="37.3725830">
    <ele>4455.7</ele>
    <time>2026-06-22T11:31:37Z</time>
   </trkpt>
   <trkpt lat="-3.1030550" lon="37.3725880">
    <ele>4455.8</ele>
    <time>2026-06-22T11:31:38Z</time>
   </trkpt>
   <trkpt lat="-3.1030500" lon="37.3725930">
    <ele>4455.9</ele>
    <time>2026-06-22T11:31:39Z</time>
   </trkpt>
   <trkpt lat="-3.1030480" lon="37.3725960">
    <ele>4455.9</ele>
    <time>2026-06-22T11:31:40Z</time>
   </trkpt>
   <trkpt lat="-3.1030460" lon="37.3726010">
    <ele>4456.0</ele>
    <time>2026-06-22T11:31:41Z</time>
   </trkpt>
   <trkpt lat="-3.1030410" lon="37.3726080">
    <ele>4456.1</ele>
    <time>2026-06-22T11:31:42Z</time>
   </trkpt>
   <trkpt lat="-3.1030350" lon="37.3726180">
    <ele>4456.3</ele>
    <time>2026-06-22T11:31:43Z</time>
   </trkpt>
   <trkpt lat="-3.1030330" lon="37.3726220">
    <ele>4456.4</ele>
    <time>2026-06-22T11:31:44Z</time>
   </trkpt>
   <trkpt lat="-3.1030310" lon="37.3726280">
    <ele>4456.4</ele>
    <time>2026-06-22T11:31:45Z</time>
   </trkpt>
   <trkpt lat="-3.1030270" lon="37.3726340">
    <ele>4456.5</ele>
    <time>2026-06-22T11:31:46Z</time>
   </trkpt>
   <trkpt lat="-3.1030240" lon="37.3726380">
    <ele>4456.6</ele>
    <time>2026-06-22T11:31:47Z</time>
   </trkpt>
   <trkpt lat="-3.1030170" lon="37.3726400">
    <ele>4456.7</ele>
    <time>2026-06-22T11:31:48Z</time>
   </trkpt>
   <trkpt lat="-3.1030150" lon="37.3726430">
    <ele>4456.8</ele>
    <time>2026-06-22T11:31:49Z</time>
   </trkpt>
   <trkpt lat="-3.1030140" lon="37.3726490">
    <ele>4456.8</ele>
    <time>2026-06-22T11:31:50Z</time>
   </trkpt>
   <trkpt lat="-3.1030120" lon="37.3726560">
    <ele>4456.9</ele>
    <time>2026-06-22T11:31:51Z</time>
   </trkpt>
   <trkpt lat="-3.1030090" lon="37.3726610">
    <ele>4457.0</ele>
    <time>2026-06-22T11:31:52Z</time>
   </trkpt>
   <trkpt lat="-3.1030080" lon="37.3726650">
    <ele>4457.1</ele>
    <time>2026-06-22T11:31:53Z</time>
   </trkpt>
   <trkpt lat="-3.1030060" lon="37.3726730">
    <ele>4457.2</ele>
    <time>2026-06-22T11:31:54Z</time>
   </trkpt>
   <trkpt lat="-3.1030060" lon="37.3726780">
    <ele>4457.2</ele>
    <time>2026-06-22T11:31:55Z</time>
   </trkpt>
   <trkpt lat="-3.1030050" lon="37.3726840">
    <ele>4457.3</ele>
    <time>2026-06-22T11:31:56Z</time>
   </trkpt>
   <trkpt lat="-3.1030020" lon="37.3726890">
    <ele>4457.3</ele>
    <time>2026-06-22T11:31:57Z</time>
   </trkpt>
   <trkpt lat="-3.1030000" lon="37.3726990">
    <ele>4457.4</ele>
    <time>2026-06-22T11:31:58Z</time>
   </trkpt>
   <trkpt lat="-3.1030000" lon="37.3727030">
    <ele>4457.5</ele>
    <time>2026-06-22T11:31:59Z</time>
   </trkpt>
   <trkpt lat="-3.1029990" lon="37.3727120">
    <ele>4457.6</ele>
    <time>2026-06-22T11:32:00Z</time>
   </trkpt>
   <trkpt lat="-3.1029990" lon="37.3727190">
    <ele>4457.6</ele>
    <time>2026-06-22T11:32:01Z</time>
   </trkpt>
   <trkpt lat="-3.1029980" lon="37.3727290">
    <ele>4457.7</ele>
    <time>2026-06-22T11:32:02Z</time>
   </trkpt>
   <trkpt lat="-3.1029970" lon="37.3727350">
    <ele>4457.8</ele>
    <time>2026-06-22T11:32:03Z</time>
   </trkpt>
   <trkpt lat="-3.1029970" lon="37.3727420">
    <ele>4457.9</ele>
    <time>2026-06-22T11:32:04Z</time>
   </trkpt>
   <trkpt lat="-3.1029990" lon="37.3727510">
    <ele>4458.0</ele>
    <time>2026-06-22T11:32:05Z</time>
   </trkpt>
   <trkpt lat="-3.1030030" lon="37.3727600">
    <ele>4458.1</ele>
    <time>2026-06-22T11:32:06Z</time>
   </trkpt>
   <trkpt lat="-3.1030010" lon="37.3727640">
    <ele>4458.1</ele>
    <time>2026-06-22T11:32:07Z</time>
   </trkpt>
   <trkpt lat="-3.1029980" lon="37.3727680">
    <ele>4458.2</ele>
    <time>2026-06-22T11:32:08Z</time>
   </trkpt>
   <trkpt lat="-3.1029940" lon="37.3727740">
    <ele>4458.2</ele>
    <time>2026-06-22T11:32:09Z</time>
   </trkpt>
   <trkpt lat="-3.1029900" lon="37.3727820">
    <ele>4458.3</ele>
    <time>2026-06-22T11:32:10Z</time>
   </trkpt>
   <trkpt lat="-3.1029900" lon="37.3727860">
    <ele>4458.4</ele>
    <time>2026-06-22T11:32:11Z</time>
   </trkpt>
   <trkpt lat="-3.1029860" lon="37.3727920">
    <ele>4458.4</ele>
    <time>2026-06-22T11:32:12Z</time>
   </trkpt>
   <trkpt lat="-3.1029830" lon="37.3727970">
    <ele>4458.5</ele>
    <time>2026-06-22T11:32:13Z</time>
   </trkpt>
   <trkpt lat="-3.1029840" lon="37.3728030">
    <ele>4458.5</ele>
    <time>2026-06-22T11:32:14Z</time>
   </trkpt>
   <trkpt lat="-3.1029850" lon="37.3728080">
    <ele>4458.6</ele>
    <time>2026-06-22T11:32:15Z</time>
   </trkpt>
   <trkpt lat="-3.1029860" lon="37.3728160">
    <ele>4458.7</ele>
    <time>2026-06-22T11:32:16Z</time>
   </trkpt>
   <trkpt lat="-3.1029870" lon="37.3728210">
    <ele>4458.7</ele>
    <time>2026-06-22T11:32:17Z</time>
   </trkpt>
   <trkpt lat="-3.1029860" lon="37.3728300">
    <ele>4458.8</ele>
    <time>2026-06-22T11:32:18Z</time>
   </trkpt>
   <trkpt lat="-3.1029850" lon="37.3728350">
    <ele>4458.8</ele>
    <time>2026-06-22T11:32:19Z</time>
   </trkpt>
   <trkpt lat="-3.1029800" lon="37.3728380">
    <ele>4458.9</ele>
    <time>2026-06-22T11:32:20Z</time>
   </trkpt>
   <trkpt lat="-3.1029780" lon="37.3728440">
    <ele>4458.9</ele>
    <time>2026-06-22T11:32:21Z</time>
   </trkpt>
   <trkpt lat="-3.1029750" lon="37.3728520">
    <ele>4459.0</ele>
    <time>2026-06-22T11:32:22Z</time>
   </trkpt>
   <trkpt lat="-3.1029750" lon="37.3728580">
    <ele>4459.1</ele>
    <time>2026-06-22T11:32:23Z</time>
   </trkpt>
   <trkpt lat="-3.1029750" lon="37.3728650">
    <ele>4459.1</ele>
    <time>2026-06-22T11:32:24Z</time>
   </trkpt>
   <trkpt lat="-3.1029750" lon="37.3728710">
    <ele>4459.2</ele>
    <time>2026-06-22T11:32:25Z</time>
   </trkpt>
   <trkpt lat="-3.1029780" lon="37.3728780">
    <ele>4459.2</ele>
    <time>2026-06-22T11:32:26Z</time>
   </trkpt>
   <trkpt lat="-3.1029780" lon="37.3728860">
    <ele>4459.3</ele>
    <time>2026-06-22T11:32:27Z</time>
   </trkpt>
   <trkpt lat="-3.1029790" lon="37.3728910">
    <ele>4459.3</ele>
    <time>2026-06-22T11:32:28Z</time>
   </trkpt>
   <trkpt lat="-3.1029800" lon="37.3729000">
    <ele>4459.4</ele>
    <time>2026-06-22T11:32:29Z</time>
   </trkpt>
   <trkpt lat="-3.1029810" lon="37.3729050">
    <ele>4459.5</ele>
    <time>2026-06-22T11:32:30Z</time>
   </trkpt>
   <trkpt lat="-3.1029790" lon="37.3729090">
    <ele>4459.5</ele>
    <time>2026-06-22T11:32:31Z</time>
   </trkpt>
   <trkpt lat="-3.1029790" lon="37.3729150">
    <ele>4459.5</ele>
    <time>2026-06-22T11:32:32Z</time>
   </trkpt>
   <trkpt lat="-3.1029780" lon="37.3729210">
    <ele>4459.6</ele>
    <time>2026-06-22T11:32:33Z</time>
   </trkpt>
   <trkpt lat="-3.1029790" lon="37.3729290">
    <ele>4459.7</ele>
    <time>2026-06-22T11:32:34Z</time>
   </trkpt>
   <trkpt lat="-3.1029810" lon="37.3729360">
    <ele>4459.7</ele>
    <time>2026-06-22T11:32:35Z</time>
   </trkpt>
   <trkpt lat="-3.1029830" lon="37.3729410">
    <ele>4459.8</ele>
    <time>2026-06-22T11:32:36Z</time>
   </trkpt>
   <trkpt lat="-3.1029810" lon="37.3729470">
    <ele>4459.8</ele>
    <time>2026-06-22T11:32:37Z</time>
   </trkpt>
   <trkpt lat="-3.1029810" lon="37.3729540">
    <ele>4459.9</ele>
    <time>2026-06-22T11:32:38Z</time>
   </trkpt>
   <trkpt lat="-3.1029810" lon="37.3729620">
    <ele>4459.9</ele>
    <time>2026-06-22T11:32:39Z</time>
   </trkpt>
   <trkpt lat="-3.1029790" lon="37.3729660">
    <ele>4460.0</ele>
    <time>2026-06-22T11:32:40Z</time>
   </trkpt>
   <trkpt lat="-3.1029770" lon="37.3729730">
    <ele>4460.0</ele>
    <time>2026-06-22T11:32:41Z</time>
   </trkpt>
   <trkpt lat="-3.1029780" lon="37.3729790">
    <ele>4460.1</ele>
    <time>2026-06-22T11:32:42Z</time>
   </trkpt>
   <trkpt lat="-3.1029780" lon="37.3729860">
    <ele>4460.1</ele>
    <time>2026-06-22T11:32:43Z</time>
   </trkpt>
   <trkpt lat="-3.1029790" lon="37.3729910">
    <ele>4460.2</ele>
    <time>2026-06-22T11:32:44Z</time>
   </trkpt>
   <trkpt lat="-3.1029810" lon="37.3729950">
    <ele>4460.2</ele>
    <time>2026-06-22T11:32:45Z</time>
   </trkpt>
   <trkpt lat="-3.1029820" lon="37.3730020">
    <ele>4460.3</ele>
    <time>2026-06-22T11:32:46Z</time>
   </trkpt>
   <trkpt lat="-3.1029800" lon="37.3730100">
    <ele>4460.3</ele>
    <time>2026-06-22T11:32:47Z</time>
   </trkpt>
   <trkpt lat="-3.1029800" lon="37.3730160">
    <ele>4460.4</ele>
    <time>2026-06-22T11:32:48Z</time>
   </trkpt>
   <trkpt lat="-3.1029780" lon="37.3730230">
    <ele>4460.4</ele>
    <time>2026-06-22T11:32:49Z</time>
   </trkpt>
   <trkpt lat="-3.1029760" lon="37.3730310">
    <ele>4460.5</ele>
    <time>2026-06-22T11:32:50Z</time>
   </trkpt>
   <trkpt lat="-3.1029760" lon="37.3730370">
    <ele>4460.6</ele>
    <time>2026-06-22T11:32:51Z</time>
   </trkpt>
   <trkpt lat="-3.1029730" lon="37.3730450">
    <ele>4460.6</ele>
    <time>2026-06-22T11:32:52Z</time>
   </trkpt>
   <trkpt lat="-3.1029700" lon="37.3730480">
    <ele>4460.6</ele>
    <time>2026-06-22T11:32:53Z</time>
   </trkpt>
   <trkpt lat="-3.1029690" lon="37.3730520">
    <ele>4460.7</ele>
    <time>2026-06-22T11:32:54Z</time>
   </trkpt>
   <trkpt lat="-3.1029670" lon="37.3730600">
    <ele>4460.7</ele>
    <time>2026-06-22T11:32:55Z</time>
   </trkpt>
   <trkpt lat="-3.1029650" lon="37.3730680">
    <ele>4460.8</ele>
    <time>2026-06-22T11:32:56Z</time>
   </trkpt>
   <trkpt lat="-3.1029660" lon="37.3730690">
    <ele>4460.8</ele>
    <time>2026-06-22T11:32:57Z</time>
   </trkpt>
   <trkpt lat="-3.1029640" lon="37.3730730">
    <ele>4460.8</ele>
    <time>2026-06-22T11:32:58Z</time>
   </trkpt>
   <trkpt lat="-3.1029630" lon="37.3730730">
    <ele>4460.8</ele>
    <time>2026-06-22T11:32:59Z</time>
   </trkpt>
   <trkpt lat="-3.1029640" lon="37.3730740">
    <ele>4460.9</ele>
    <time>2026-06-22T11:33:00Z</time>
   </trkpt>
   <trkpt lat="-3.1029620" lon="37.3730730">
    <ele>4460.9</ele>
    <time>2026-06-22T11:33:01Z</time>
   </trkpt>
   <trkpt lat="-3.1029620" lon="37.3730700">
    <ele>4460.9</ele>
    <time>2026-06-22T11:33:02Z</time>
   </trkpt>
   <trkpt lat="-3.1029620" lon="37.3730750">
    <ele>4460.9</ele>
    <time>2026-06-22T11:33:03Z</time>
   </trkpt>
   <trkpt lat="-3.1029650" lon="37.3730770">
    <ele>4460.9</ele>
    <time>2026-06-22T11:33:04Z</time>
   </trkpt>
   <trkpt lat="-3.1029660" lon="37.3730780">
    <ele>4460.9</ele>
    <time>2026-06-22T11:33:05Z</time>
   </trkpt>
   <trkpt lat="-3.1029630" lon="37.3730830">
    <ele>4461.0</ele>
    <time>2026-06-22T11:33:07Z</time>
   </trkpt>
   <trkpt lat="-3.1029610" lon="37.3730920">
    <ele>4461.0</ele>
    <time>2026-06-22T11:33:08Z</time>
   </trkpt>
   <trkpt lat="-3.1029580" lon="37.3730950">
    <ele>4461.1</ele>
    <time>2026-06-22T11:33:09Z</time>
   </trkpt>
   <trkpt lat="-3.1029530" lon="37.3731030">
    <ele>4461.1</ele>
    <time>2026-06-22T11:33:10Z</time>
   </trkpt>
   <trkpt lat="-3.1029500" lon="37.3731080">
    <ele>4461.1</ele>
    <time>2026-06-22T11:33:11Z</time>
   </trkpt>
   <trkpt lat="-3.1029480" lon="37.3731090">
    <ele>4461.2</ele>
    <time>2026-06-22T11:33:12Z</time>
   </trkpt>
   <trkpt lat="-3.1029480" lon="37.3731160">
    <ele>4461.2</ele>
    <time>2026-06-22T11:33:13Z</time>
   </trkpt>
   <trkpt lat="-3.1029480" lon="37.3731220">
    <ele>4461.2</ele>
    <time>2026-06-22T11:33:14Z</time>
   </trkpt>
   <trkpt lat="-3.1029490" lon="37.3731290">
    <ele>4461.2</ele>
    <time>2026-06-22T11:33:15Z</time>
   </trkpt>
   <trkpt lat="-3.1029500" lon="37.3731380">
    <ele>4461.3</ele>
    <time>2026-06-22T11:33:16Z</time>
   </trkpt>
   <trkpt lat="-3.1029460" lon="37.3731470">
    <ele>4461.3</ele>
    <time>2026-06-22T11:33:17Z</time>
   </trkpt>
   <trkpt lat="-3.1029390" lon="37.3731540">
    <ele>4461.4</ele>
    <time>2026-06-22T11:33:18Z</time>
   </trkpt>
   <trkpt lat="-3.1029380" lon="37.3731600">
    <ele>4461.4</ele>
    <time>2026-06-22T11:33:19Z</time>
   </trkpt>
   <trkpt lat="-3.1029380" lon="37.3731680">
    <ele>4461.4</ele>
    <time>2026-06-22T11:33:20Z</time>
   </trkpt>
   <trkpt lat="-3.1029340" lon="37.3731760">
    <ele>4461.4</ele>
    <time>2026-06-22T11:33:21Z</time>
   </trkpt>
   <trkpt lat="-3.1029360" lon="37.3731760">
    <ele>4461.4</ele>
    <time>2026-06-22T11:33:22Z</time>
   </trkpt>
   <trkpt lat="-3.1029410" lon="37.3731820">
    <ele>4461.4</ele>
    <time>2026-06-22T11:33:23Z</time>
   </trkpt>
   <trkpt lat="-3.1029470" lon="37.3731870">
    <ele>4461.4</ele>
    <time>2026-06-22T11:33:24Z</time>
   </trkpt>
   <trkpt lat="-3.1029470" lon="37.3731970">
    <ele>4461.5</ele>
    <time>2026-06-22T11:33:25Z</time>
   </trkpt>
   <trkpt lat="-3.1029440" lon="37.3732100">
    <ele>4461.5</ele>
    <time>2026-06-22T11:33:26Z</time>
   </trkpt>
   <trkpt lat="-3.1029370" lon="37.3732120">
    <ele>4461.5</ele>
    <time>2026-06-22T11:33:27Z</time>
   </trkpt>
   <trkpt lat="-3.1029350" lon="37.3732120">
    <ele>4461.5</ele>
    <time>2026-06-22T11:33:28Z</time>
   </trkpt>
   <trkpt lat="-3.1029310" lon="37.3732180">
    <ele>4461.5</ele>
    <time>2026-06-22T11:33:29Z</time>
   </trkpt>
   <trkpt lat="-3.1029310" lon="37.3732260">
    <ele>4461.4</ele>
    <time>2026-06-22T11:33:30Z</time>
   </trkpt>
   <trkpt lat="-3.1029300" lon="37.3732320">
    <ele>4461.4</ele>
    <time>2026-06-22T11:33:31Z</time>
   </trkpt>
   <trkpt lat="-3.1029300" lon="37.3732370">
    <ele>4461.4</ele>
    <time>2026-06-22T11:33:32Z</time>
   </trkpt>
   <trkpt lat="-3.1029310" lon="37.3732450">
    <ele>4461.4</ele>
    <time>2026-06-22T11:33:33Z</time>
   </trkpt>
   <trkpt lat="-3.1029320" lon="37.3732520">
    <ele>4461.4</ele>
    <time>2026-06-22T11:33:34Z</time>
   </trkpt>
   <trkpt lat="-3.1029290" lon="37.3732570">
    <ele>4461.4</ele>
    <time>2026-06-22T11:33:35Z</time>
   </trkpt>
   <trkpt lat="-3.1029270" lon="37.3732610">
    <ele>4461.4</ele>
    <time>2026-06-22T11:33:36Z</time>
   </trkpt>
   <trkpt lat="-3.1029270" lon="37.3732670">
    <ele>4461.4</ele>
    <time>2026-06-22T11:33:37Z</time>
   </trkpt>
   <trkpt lat="-3.1029270" lon="37.3732710">
    <ele>4461.4</ele>
    <time>2026-06-22T11:33:38Z</time>
   </trkpt>
   <trkpt lat="-3.1029290" lon="37.3732790">
    <ele>4461.4</ele>
    <time>2026-06-22T11:33:39Z</time>
   </trkpt>
   <trkpt lat="-3.1029280" lon="37.3732880">
    <ele>4461.3</ele>
    <time>2026-06-22T11:33:40Z</time>
   </trkpt>
   <trkpt lat="-3.1029280" lon="37.3732940">
    <ele>4461.3</ele>
    <time>2026-06-22T11:33:41Z</time>
   </trkpt>
   <trkpt lat="-3.1029240" lon="37.3732980">
    <ele>4461.3</ele>
    <time>2026-06-22T11:33:42Z</time>
   </trkpt>
   <trkpt lat="-3.1029230" lon="37.3733060">
    <ele>4461.3</ele>
    <time>2026-06-22T11:33:43Z</time>
   </trkpt>
   <trkpt lat="-3.1029230" lon="37.3733130">
    <ele>4461.3</ele>
    <time>2026-06-22T11:33:44Z</time>
   </trkpt>
   <trkpt lat="-3.1029220" lon="37.3733230">
    <ele>4461.2</ele>
    <time>2026-06-22T11:33:45Z</time>
   </trkpt>
   <trkpt lat="-3.1029250" lon="37.3733300">
    <ele>4461.2</ele>
    <time>2026-06-22T11:33:46Z</time>
   </trkpt>
   <trkpt lat="-3.1029290" lon="37.3733350">
    <ele>4461.2</ele>
    <time>2026-06-22T11:33:47Z</time>
   </trkpt>
   <trkpt lat="-3.1029300" lon="37.3733400">
    <ele>4461.2</ele>
    <time>2026-06-22T11:33:48Z</time>
   </trkpt>
   <trkpt lat="-3.1029240" lon="37.3733450">
    <ele>4461.2</ele>
    <time>2026-06-22T11:33:49Z</time>
   </trkpt>
   <trkpt lat="-3.1029140" lon="37.3733500">
    <ele>4461.1</ele>
    <time>2026-06-22T11:33:50Z</time>
   </trkpt>
   <trkpt lat="-3.1029070" lon="37.3733560">
    <ele>4461.1</ele>
    <time>2026-06-22T11:33:51Z</time>
   </trkpt>
   <trkpt lat="-3.1029110" lon="37.3733620">
    <ele>4461.1</ele>
    <time>2026-06-22T11:33:52Z</time>
   </trkpt>
   <trkpt lat="-3.1029130" lon="37.3733700">
    <ele>4461.1</ele>
    <time>2026-06-22T11:33:53Z</time>
   </trkpt>
   <trkpt lat="-3.1029110" lon="37.3733750">
    <ele>4461.1</ele>
    <time>2026-06-22T11:33:54Z</time>
   </trkpt>
   <trkpt lat="-3.1029120" lon="37.3733850">
    <ele>4461.1</ele>
    <time>2026-06-22T11:33:55Z</time>
   </trkpt>
   <trkpt lat="-3.1029120" lon="37.3733960">
    <ele>4461.0</ele>
    <time>2026-06-22T11:33:56Z</time>
   </trkpt>
   <trkpt lat="-3.1029150" lon="37.3734050">
    <ele>4461.0</ele>
    <time>2026-06-22T11:33:57Z</time>
   </trkpt>
   <trkpt lat="-3.1029120" lon="37.3734110">
    <ele>4461.0</ele>
    <time>2026-06-22T11:33:58Z</time>
   </trkpt>
   <trkpt lat="-3.1029120" lon="37.3734170">
    <ele>4461.0</ele>
    <time>2026-06-22T11:33:59Z</time>
   </trkpt>
   <trkpt lat="-3.1029090" lon="37.3734230">
    <ele>4461.0</ele>
    <time>2026-06-22T11:34:00Z</time>
   </trkpt>
   <trkpt lat="-3.1029040" lon="37.3734300">
    <ele>4461.0</ele>
    <time>2026-06-22T11:34:01Z</time>
   </trkpt>
   <trkpt lat="-3.1029010" lon="37.3734360">
    <ele>4461.0</ele>
    <time>2026-06-22T11:34:02Z</time>
   </trkpt>
   <trkpt lat="-3.1028980" lon="37.3734440">
    <ele>4461.0</ele>
    <time>2026-06-22T11:34:03Z</time>
   </trkpt>
   <trkpt lat="-3.1028970" lon="37.3734490">
    <ele>4461.0</ele>
    <time>2026-06-22T11:34:04Z</time>
   </trkpt>
   <trkpt lat="-3.1028970" lon="37.3734610">
    <ele>4461.0</ele>
    <time>2026-06-22T11:34:05Z</time>
   </trkpt>
   <trkpt lat="-3.1028980" lon="37.3734680">
    <ele>4461.0</ele>
    <time>2026-06-22T11:34:06Z</time>
   </trkpt>
   <trkpt lat="-3.1028990" lon="37.3734760">
    <ele>4461.0</ele>
    <time>2026-06-22T11:34:07Z</time>
   </trkpt>
   <trkpt lat="-3.1028970" lon="37.3734830">
    <ele>4460.9</ele>
    <time>2026-06-22T11:34:08Z</time>
   </trkpt>
   <trkpt lat="-3.1028970" lon="37.3734910">
    <ele>4460.9</ele>
    <time>2026-06-22T11:34:09Z</time>
   </trkpt>
   <trkpt lat="-3.1028960" lon="37.3734990">
    <ele>4460.9</ele>
    <time>2026-06-22T11:34:10Z</time>
   </trkpt>
   <trkpt lat="-3.1028950" lon="37.3735030">
    <ele>4460.9</ele>
    <time>2026-06-22T11:34:11Z</time>
   </trkpt>
   <trkpt lat="-3.1028940" lon="37.3735100">
    <ele>4460.9</ele>
    <time>2026-06-22T11:34:12Z</time>
   </trkpt>
   <trkpt lat="-3.1028930" lon="37.3735200">
    <ele>4460.9</ele>
    <time>2026-06-22T11:34:13Z</time>
   </trkpt>
   <trkpt lat="-3.1028900" lon="37.3735280">
    <ele>4460.9</ele>
    <time>2026-06-22T11:34:14Z</time>
   </trkpt>
   <trkpt lat="-3.1028880" lon="37.3735370">
    <ele>4461.0</ele>
    <time>2026-06-22T11:34:15Z</time>
   </trkpt>
   <trkpt lat="-3.1028840" lon="37.3735430">
    <ele>4461.0</ele>
    <time>2026-06-22T11:34:16Z</time>
   </trkpt>
   <trkpt lat="-3.1028820" lon="37.3735510">
    <ele>4461.0</ele>
    <time>2026-06-22T11:34:17Z</time>
   </trkpt>
   <trkpt lat="-3.1028800" lon="37.3735580">
    <ele>4461.0</ele>
    <time>2026-06-22T11:34:18Z</time>
   </trkpt>
   <trkpt lat="-3.1028810" lon="37.3735650">
    <ele>4461.0</ele>
    <time>2026-06-22T11:34:19Z</time>
   </trkpt>
   <trkpt lat="-3.1028790" lon="37.3735720">
    <ele>4461.0</ele>
    <time>2026-06-22T11:34:20Z</time>
   </trkpt>
   <trkpt lat="-3.1028770" lon="37.3735770">
    <ele>4461.0</ele>
    <time>2026-06-22T11:34:21Z</time>
   </trkpt>
   <trkpt lat="-3.1028740" lon="37.3735840">
    <ele>4461.0</ele>
    <time>2026-06-22T11:34:22Z</time>
   </trkpt>
   <trkpt lat="-3.1028700" lon="37.3735930">
    <ele>4461.0</ele>
    <time>2026-06-22T11:34:23Z</time>
   </trkpt>
   <trkpt lat="-3.1028680" lon="37.3735980">
    <ele>4461.0</ele>
    <time>2026-06-22T11:34:24Z</time>
   </trkpt>
   <trkpt lat="-3.1028660" lon="37.3736060">
    <ele>4461.0</ele>
    <time>2026-06-22T11:34:25Z</time>
   </trkpt>
   <trkpt lat="-3.1028650" lon="37.3736130">
    <ele>4461.0</ele>
    <time>2026-06-22T11:34:26Z</time>
   </trkpt>
   <trkpt lat="-3.1028650" lon="37.3736170">
    <ele>4461.0</ele>
    <time>2026-06-22T11:34:27Z</time>
   </trkpt>
   <trkpt lat="-3.1028640" lon="37.3736270">
    <ele>4461.0</ele>
    <time>2026-06-22T11:34:28Z</time>
   </trkpt>
   <trkpt lat="-3.1028610" lon="37.3736340">
    <ele>4461.0</ele>
    <time>2026-06-22T11:34:29Z</time>
   </trkpt>
   <trkpt lat="-3.1028600" lon="37.3736440">
    <ele>4461.1</ele>
    <time>2026-06-22T11:34:30Z</time>
   </trkpt>
   <trkpt lat="-3.1028610" lon="37.3736500">
    <ele>4461.1</ele>
    <time>2026-06-22T11:34:31Z</time>
   </trkpt>
   <trkpt lat="-3.1028620" lon="37.3736570">
    <ele>4461.1</ele>
    <time>2026-06-22T11:34:32Z</time>
   </trkpt>
   <trkpt lat="-3.1028630" lon="37.3736630">
    <ele>4461.1</ele>
    <time>2026-06-22T11:34:33Z</time>
   </trkpt>
   <trkpt lat="-3.1028620" lon="37.3736710">
    <ele>4461.1</ele>
    <time>2026-06-22T11:34:34Z</time>
   </trkpt>
   <trkpt lat="-3.1028610" lon="37.3736800">
    <ele>4461.1</ele>
    <time>2026-06-22T11:34:35Z</time>
   </trkpt>
   <trkpt lat="-3.1028600" lon="37.3736880">
    <ele>4461.2</ele>
    <time>2026-06-22T11:34:36Z</time>
   </trkpt>
   <trkpt lat="-3.1028600" lon="37.3736930">
    <ele>4461.2</ele>
    <time>2026-06-22T11:34:37Z</time>
   </trkpt>
   <trkpt lat="-3.1028630" lon="37.3736960">
    <ele>4461.2</ele>
    <time>2026-06-22T11:34:38Z</time>
   </trkpt>
   <trkpt lat="-3.1028690" lon="37.3736990">
    <ele>4461.2</ele>
    <time>2026-06-22T11:34:39Z</time>
   </trkpt>
   <trkpt lat="-3.1028760" lon="37.3737030">
    <ele>4461.2</ele>
    <time>2026-06-22T11:34:40Z</time>
   </trkpt>
   <trkpt lat="-3.1028760" lon="37.3737050">
    <ele>4461.2</ele>
    <time>2026-06-22T11:34:41Z</time>
   </trkpt>
   <trkpt lat="-3.1028770" lon="37.3737100">
    <ele>4461.2</ele>
    <time>2026-06-22T11:34:42Z</time>
   </trkpt>
   <trkpt lat="-3.1028770" lon="37.3737160">
    <ele>4461.3</ele>
    <time>2026-06-22T11:34:43Z</time>
   </trkpt>
   <trkpt lat="-3.1028750" lon="37.3737210">
    <ele>4461.3</ele>
    <time>2026-06-22T11:34:44Z</time>
   </trkpt>
   <trkpt lat="-3.1028740" lon="37.3737270">
    <ele>4461.3</ele>
    <time>2026-06-22T11:34:45Z</time>
   </trkpt>
   <trkpt lat="-3.1028720" lon="37.3737300">
    <ele>4461.3</ele>
    <time>2026-06-22T11:34:46Z</time>
   </trkpt>
   <trkpt lat="-3.1028710" lon="37.3737340">
    <ele>4461.3</ele>
    <time>2026-06-22T11:34:47Z</time>
   </trkpt>
   <trkpt lat="-3.1028680" lon="37.3737390">
    <ele>4461.3</ele>
    <time>2026-06-22T11:34:48Z</time>
   </trkpt>
   <trkpt lat="-3.1028670" lon="37.3737430">
    <ele>4461.4</ele>
    <time>2026-06-22T11:34:49Z</time>
   </trkpt>
   <trkpt lat="-3.1028650" lon="37.3737460">
    <ele>4461.4</ele>
    <time>2026-06-22T11:34:50Z</time>
   </trkpt>
   <trkpt lat="-3.1028640" lon="37.3737500">
    <ele>4461.4</ele>
    <time>2026-06-22T11:34:51Z</time>
   </trkpt>
   <trkpt lat="-3.1028620" lon="37.3737540">
    <ele>4461.4</ele>
    <time>2026-06-22T11:34:52Z</time>
   </trkpt>
   <trkpt lat="-3.1028580" lon="37.3737600">
    <ele>4461.4</ele>
    <time>2026-06-22T11:34:53Z</time>
   </trkpt>
   <trkpt lat="-3.1028550" lon="37.3737650">
    <ele>4461.4</ele>
    <time>2026-06-22T11:34:54Z</time>
   </trkpt>
   <trkpt lat="-3.1028510" lon="37.3737710">
    <ele>4461.5</ele>
    <time>2026-06-22T11:34:55Z</time>
   </trkpt>
   <trkpt lat="-3.1028480" lon="37.3737760">
    <ele>4461.5</ele>
    <time>2026-06-22T11:34:56Z</time>
   </trkpt>
   <trkpt lat="-3.1028450" lon="37.3737830">
    <ele>4461.5</ele>
    <time>2026-06-22T11:34:57Z</time>
   </trkpt>
   <trkpt lat="-3.1028450" lon="37.3737860">
    <ele>4461.5</ele>
    <time>2026-06-22T11:34:58Z</time>
   </trkpt>
   <trkpt lat="-3.1028430" lon="37.3737960">
    <ele>4461.6</ele>
    <time>2026-06-22T11:34:59Z</time>
   </trkpt>
   <trkpt lat="-3.1028410" lon="37.3738020">
    <ele>4461.6</ele>
    <time>2026-06-22T11:35:00Z</time>
   </trkpt>
   <trkpt lat="-3.1028370" lon="37.3738060">
    <ele>4461.6</ele>
    <time>2026-06-22T11:35:01Z</time>
   </trkpt>
   <trkpt lat="-3.1028340" lon="37.3738090">
    <ele>4461.6</ele>
    <time>2026-06-22T11:35:02Z</time>
   </trkpt>
   <trkpt lat="-3.1028310" lon="37.3738140">
    <ele>4461.7</ele>
    <time>2026-06-22T11:35:03Z</time>
   </trkpt>
   <trkpt lat="-3.1028290" lon="37.3738200">
    <ele>4461.7</ele>
    <time>2026-06-22T11:35:04Z</time>
   </trkpt>
   <trkpt lat="-3.1028280" lon="37.3738260">
    <ele>4461.7</ele>
    <time>2026-06-22T11:35:05Z</time>
   </trkpt>
   <trkpt lat="-3.1028290" lon="37.3738290">
    <ele>4461.7</ele>
    <time>2026-06-22T11:35:06Z</time>
   </trkpt>
   <trkpt lat="-3.1028280" lon="37.3738350">
    <ele>4461.8</ele>
    <time>2026-06-22T11:35:07Z</time>
   </trkpt>
   <trkpt lat="-3.1028290" lon="37.3738410">
    <ele>4461.8</ele>
    <time>2026-06-22T11:35:08Z</time>
   </trkpt>
   <trkpt lat="-3.1028300" lon="37.3738470">
    <ele>4461.8</ele>
    <time>2026-06-22T11:35:09Z</time>
   </trkpt>
   <trkpt lat="-3.1028300" lon="37.3738540">
    <ele>4461.9</ele>
    <time>2026-06-22T11:35:10Z</time>
   </trkpt>
   <trkpt lat="-3.1028300" lon="37.3738590">
    <ele>4461.9</ele>
    <time>2026-06-22T11:35:11Z</time>
   </trkpt>
   <trkpt lat="-3.1028280" lon="37.3738670">
    <ele>4461.9</ele>
    <time>2026-06-22T11:35:13Z</time>
   </trkpt>
   <trkpt lat="-3.1028300" lon="37.3738730">
    <ele>4462.0</ele>
    <time>2026-06-22T11:35:14Z</time>
   </trkpt>
   <trkpt lat="-3.1028290" lon="37.3738800">
    <ele>4462.0</ele>
    <time>2026-06-22T11:35:15Z</time>
   </trkpt>
   <trkpt lat="-3.1028260" lon="37.3738850">
    <ele>4462.1</ele>
    <time>2026-06-22T11:35:16Z</time>
   </trkpt>
   <trkpt lat="-3.1028230" lon="37.3738900">
    <ele>4462.1</ele>
    <time>2026-06-22T11:35:17Z</time>
   </trkpt>
   <trkpt lat="-3.1028200" lon="37.3738970">
    <ele>4462.1</ele>
    <time>2026-06-22T11:35:18Z</time>
   </trkpt>
   <trkpt lat="-3.1028200" lon="37.3739010">
    <ele>4462.2</ele>
    <time>2026-06-22T11:35:19Z</time>
   </trkpt>
   <trkpt lat="-3.1028190" lon="37.3739100">
    <ele>4462.2</ele>
    <time>2026-06-22T11:35:20Z</time>
   </trkpt>
   <trkpt lat="-3.1028180" lon="37.3739140">
    <ele>4462.3</ele>
    <time>2026-06-22T11:35:21Z</time>
   </trkpt>
   <trkpt lat="-3.1028180" lon="37.3739210">
    <ele>4462.3</ele>
    <time>2026-06-22T11:35:22Z</time>
   </trkpt>
   <trkpt lat="-3.1028190" lon="37.3739260">
    <ele>4462.4</ele>
    <time>2026-06-22T11:35:23Z</time>
   </trkpt>
   <trkpt lat="-3.1028180" lon="37.3739310">
    <ele>4462.4</ele>
    <time>2026-06-22T11:35:24Z</time>
   </trkpt>
   <trkpt lat="-3.1028170" lon="37.3739360">
    <ele>4462.4</ele>
    <time>2026-06-22T11:35:25Z</time>
   </trkpt>
   <trkpt lat="-3.1028150" lon="37.3739440">
    <ele>4462.5</ele>
    <time>2026-06-22T11:35:26Z</time>
   </trkpt>
   <trkpt lat="-3.1028150" lon="37.3739490">
    <ele>4462.6</ele>
    <time>2026-06-22T11:35:27Z</time>
   </trkpt>
   <trkpt lat="-3.1028160" lon="37.3739550">
    <ele>4462.6</ele>
    <time>2026-06-22T11:35:28Z</time>
   </trkpt>
   <trkpt lat="-3.1028170" lon="37.3739610">
    <ele>4462.6</ele>
    <time>2026-06-22T11:35:29Z</time>
   </trkpt>
   <trkpt lat="-3.1028170" lon="37.3739670">
    <ele>4462.7</ele>
    <time>2026-06-22T11:35:30Z</time>
   </trkpt>
   <trkpt lat="-3.1028140" lon="37.3739720">
    <ele>4462.8</ele>
    <time>2026-06-22T11:35:31Z</time>
   </trkpt>
   <trkpt lat="-3.1028130" lon="37.3739780">
    <ele>4462.8</ele>
    <time>2026-06-22T11:35:32Z</time>
   </trkpt>
   <trkpt lat="-3.1028130" lon="37.3739840">
    <ele>4462.9</ele>
    <time>2026-06-22T11:35:33Z</time>
   </trkpt>
   <trkpt lat="-3.1028110" lon="37.3739880">
    <ele>4462.9</ele>
    <time>2026-06-22T11:35:34Z</time>
   </trkpt>
   <trkpt lat="-3.1028080" lon="37.3739920">
    <ele>4463.0</ele>
    <time>2026-06-22T11:35:35Z</time>
   </trkpt>
   <trkpt lat="-3.1028020" lon="37.3739980">
    <ele>4463.1</ele>
    <time>2026-06-22T11:35:36Z</time>
   </trkpt>
   <trkpt lat="-3.1028010" lon="37.3740000">
    <ele>4463.1</ele>
    <time>2026-06-22T11:35:37Z</time>
   </trkpt>
   <trkpt lat="-3.1028020" lon="37.3740030">
    <ele>4463.1</ele>
    <time>2026-06-22T11:35:38Z</time>
   </trkpt>
   <trkpt lat="-3.1027990" lon="37.3740090">
    <ele>4463.2</ele>
    <time>2026-06-22T11:35:39Z</time>
   </trkpt>
   <trkpt lat="-3.1028000" lon="37.3740100">
    <ele>4463.2</ele>
    <time>2026-06-22T11:35:40Z</time>
   </trkpt>
   <trkpt lat="-3.1027950" lon="37.3740170">
    <ele>4463.3</ele>
    <time>2026-06-22T11:35:41Z</time>
   </trkpt>
   <trkpt lat="-3.1027990" lon="37.3740220">
    <ele>4463.4</ele>
    <time>2026-06-22T11:35:42Z</time>
   </trkpt>
   <trkpt lat="-3.1028020" lon="37.3740290">
    <ele>4463.4</ele>
    <time>2026-06-22T11:35:43Z</time>
   </trkpt>
   <trkpt lat="-3.1028040" lon="37.3740350">
    <ele>4463.5</ele>
    <time>2026-06-22T11:35:44Z</time>
   </trkpt>
   <trkpt lat="-3.1028080" lon="37.3740430">
    <ele>4463.6</ele>
    <time>2026-06-22T11:35:45Z</time>
   </trkpt>
   <trkpt lat="-3.1028100" lon="37.3740510">
    <ele>4463.7</ele>
    <time>2026-06-22T11:35:46Z</time>
   </trkpt>
   <trkpt lat="-3.1028100" lon="37.3740570">
    <ele>4463.8</ele>
    <time>2026-06-22T11:35:47Z</time>
   </trkpt>
   <trkpt lat="-3.1028080" lon="37.3740610">
    <ele>4463.8</ele>
    <time>2026-06-22T11:35:48Z</time>
   </trkpt>
   <trkpt lat="-3.1028070" lon="37.3740750">
    <ele>4464.0</ele>
    <time>2026-06-22T11:35:49Z</time>
   </trkpt>
   <trkpt lat="-3.1028070" lon="37.3740780">
    <ele>4464.0</ele>
    <time>2026-06-22T11:35:50Z</time>
   </trkpt>
   <trkpt lat="-3.1028070" lon="37.3740830">
    <ele>4464.1</ele>
    <time>2026-06-22T11:35:51Z</time>
   </trkpt>
   <trkpt lat="-3.1028070" lon="37.3740890">
    <ele>4464.2</ele>
    <time>2026-06-22T11:35:52Z</time>
   </trkpt>
   <trkpt lat="-3.1028040" lon="37.3740930">
    <ele>4464.2</ele>
    <time>2026-06-22T11:35:53Z</time>
   </trkpt>
   <trkpt lat="-3.1028010" lon="37.3740940">
    <ele>4464.3</ele>
    <time>2026-06-22T11:35:54Z</time>
   </trkpt>
   <trkpt lat="-3.1027970" lon="37.3740990">
    <ele>4464.3</ele>
    <time>2026-06-22T11:35:55Z</time>
   </trkpt>
   <trkpt lat="-3.1027940" lon="37.3741030">
    <ele>4464.4</ele>
    <time>2026-06-22T11:35:56Z</time>
   </trkpt>
   <trkpt lat="-3.1027930" lon="37.3741070">
    <ele>4464.4</ele>
    <time>2026-06-22T11:35:57Z</time>
   </trkpt>
   <trkpt lat="-3.1027900" lon="37.3741120">
    <ele>4464.5</ele>
    <time>2026-06-22T11:35:58Z</time>
   </trkpt>
   <trkpt lat="-3.1027890" lon="37.3741150">
    <ele>4464.5</ele>
    <time>2026-06-22T11:35:59Z</time>
   </trkpt>
   <trkpt lat="-3.1027860" lon="37.3741220">
    <ele>4464.6</ele>
    <time>2026-06-22T11:36:00Z</time>
   </trkpt>
   <trkpt lat="-3.1027850" lon="37.3741240">
    <ele>4464.6</ele>
    <time>2026-06-22T11:36:01Z</time>
   </trkpt>
   <trkpt lat="-3.1027820" lon="37.3741310">
    <ele>4464.7</ele>
    <time>2026-06-22T11:36:02Z</time>
   </trkpt>
   <trkpt lat="-3.1027800" lon="37.3741370">
    <ele>4464.8</ele>
    <time>2026-06-22T11:36:03Z</time>
   </trkpt>
   <trkpt lat="-3.1027790" lon="37.3741430">
    <ele>4464.8</ele>
    <time>2026-06-22T11:36:04Z</time>
   </trkpt>
   <trkpt lat="-3.1027770" lon="37.3741490">
    <ele>4464.9</ele>
    <time>2026-06-22T11:36:05Z</time>
   </trkpt>
   <trkpt lat="-3.1027760" lon="37.3741520">
    <ele>4464.9</ele>
    <time>2026-06-22T11:36:06Z</time>
   </trkpt>
   <trkpt lat="-3.1027730" lon="37.3741580">
    <ele>4465.0</ele>
    <time>2026-06-22T11:36:07Z</time>
   </trkpt>
   <trkpt lat="-3.1027710" lon="37.3741630">
    <ele>4465.1</ele>
    <time>2026-06-22T11:36:08Z</time>
   </trkpt>
   <trkpt lat="-3.1027700" lon="37.3741680">
    <ele>4465.1</ele>
    <time>2026-06-22T11:36:09Z</time>
   </trkpt>
   <trkpt lat="-3.1027670" lon="37.3741760">
    <ele>4465.2</ele>
    <time>2026-06-22T11:36:10Z</time>
   </trkpt>
   <trkpt lat="-3.1027680" lon="37.3741840">
    <ele>4465.2</ele>
    <time>2026-06-22T11:36:11Z</time>
   </trkpt>
   <trkpt lat="-3.1027730" lon="37.3741890">
    <ele>4465.3</ele>
    <time>2026-06-22T11:36:12Z</time>
   </trkpt>
   <trkpt lat="-3.1027770" lon="37.3741950">
    <ele>4465.4</ele>
    <time>2026-06-22T11:36:13Z</time>
   </trkpt>
   <trkpt lat="-3.1027800" lon="37.3741990">
    <ele>4465.4</ele>
    <time>2026-06-22T11:36:14Z</time>
   </trkpt>
   <trkpt lat="-3.1027820" lon="37.3742040">
    <ele>4465.5</ele>
    <time>2026-06-22T11:36:15Z</time>
   </trkpt>
   <trkpt lat="-3.1027840" lon="37.3742080">
    <ele>4465.5</ele>
    <time>2026-06-22T11:36:16Z</time>
   </trkpt>
   <trkpt lat="-3.1027840" lon="37.3742120">
    <ele>4465.5</ele>
    <time>2026-06-22T11:36:17Z</time>
   </trkpt>
   <trkpt lat="-3.1027830" lon="37.3742110">
    <ele>4465.5</ele>
    <time>2026-06-22T11:36:18Z</time>
   </trkpt>
   <trkpt lat="-3.1027820" lon="37.3742100">
    <ele>4465.5</ele>
    <time>2026-06-22T11:36:19Z</time>
   </trkpt>
   <trkpt lat="-3.1027810" lon="37.3742140">
    <ele>4465.6</ele>
    <time>2026-06-22T11:36:20Z</time>
   </trkpt>
   <trkpt lat="-3.1027800" lon="37.3742150">
    <ele>4465.6</ele>
    <time>2026-06-22T11:36:21Z</time>
   </trkpt>
   <trkpt lat="-3.1027780" lon="37.3742170">
    <ele>4465.6</ele>
    <time>2026-06-22T11:36:22Z</time>
   </trkpt>
   <trkpt lat="-3.1027760" lon="37.3742190">
    <ele>4465.6</ele>
    <time>2026-06-22T11:36:23Z</time>
   </trkpt>
   <trkpt lat="-3.1027760" lon="37.3742210">
    <ele>4465.6</ele>
    <time>2026-06-22T11:36:24Z</time>
   </trkpt>
   <trkpt lat="-3.1027770" lon="37.3742280">
    <ele>4465.7</ele>
    <time>2026-06-22T11:36:25Z</time>
   </trkpt>
   <trkpt lat="-3.1027760" lon="37.3742320">
    <ele>4465.7</ele>
    <time>2026-06-22T11:36:26Z</time>
   </trkpt>
   <trkpt lat="-3.1027750" lon="37.3742380">
    <ele>4465.7</ele>
    <time>2026-06-22T11:36:27Z</time>
   </trkpt>
   <trkpt lat="-3.1027720" lon="37.3742420">
    <ele>4465.8</ele>
    <time>2026-06-22T11:36:28Z</time>
   </trkpt>
   <trkpt lat="-3.1027720" lon="37.3742460">
    <ele>4465.8</ele>
    <time>2026-06-22T11:36:29Z</time>
   </trkpt>
   <trkpt lat="-3.1027710" lon="37.3742510">
    <ele>4465.8</ele>
    <time>2026-06-22T11:36:30Z</time>
   </trkpt>
   <trkpt lat="-3.1027650" lon="37.3742580">
    <ele>4465.9</ele>
    <time>2026-06-22T11:36:31Z</time>
   </trkpt>
   <trkpt lat="-3.1027620" lon="37.3742660">
    <ele>4465.9</ele>
    <time>2026-06-22T11:36:32Z</time>
   </trkpt>
   <trkpt lat="-3.1027620" lon="37.3742730">
    <ele>4466.0</ele>
    <time>2026-06-22T11:36:33Z</time>
   </trkpt>
   <trkpt lat="-3.1027600" lon="37.3742820">
    <ele>4466.0</ele>
    <time>2026-06-22T11:36:34Z</time>
   </trkpt>
   <trkpt lat="-3.1027580" lon="37.3742870">
    <ele>4466.0</ele>
    <time>2026-06-22T11:36:35Z</time>
   </trkpt>
   <trkpt lat="-3.1027580" lon="37.3742940">
    <ele>4466.1</ele>
    <time>2026-06-22T11:36:36Z</time>
   </trkpt>
   <trkpt lat="-3.1027570" lon="37.3743020">
    <ele>4466.1</ele>
    <time>2026-06-22T11:36:37Z</time>
   </trkpt>
   <trkpt lat="-3.1027570" lon="37.3743100">
    <ele>4466.1</ele>
    <time>2026-06-22T11:36:38Z</time>
   </trkpt>
   <trkpt lat="-3.1027570" lon="37.3743170">
    <ele>4466.2</ele>
    <time>2026-06-22T11:36:39Z</time>
   </trkpt>
   <trkpt lat="-3.1027560" lon="37.3743280">
    <ele>4466.2</ele>
    <time>2026-06-22T11:36:40Z</time>
   </trkpt>
   <trkpt lat="-3.1027560" lon="37.3743350">
    <ele>4466.2</ele>
    <time>2026-06-22T11:36:41Z</time>
   </trkpt>
   <trkpt lat="-3.1027570" lon="37.3743430">
    <ele>4466.3</ele>
    <time>2026-06-22T11:36:42Z</time>
   </trkpt>
   <trkpt lat="-3.1027590" lon="37.3743510">
    <ele>4466.3</ele>
    <time>2026-06-22T11:36:43Z</time>
   </trkpt>
   <trkpt lat="-3.1027590" lon="37.3743580">
    <ele>4466.3</ele>
    <time>2026-06-22T11:36:44Z</time>
   </trkpt>
   <trkpt lat="-3.1027540" lon="37.3743610">
    <ele>4466.4</ele>
    <time>2026-06-22T11:36:45Z</time>
   </trkpt>
   <trkpt lat="-3.1027530" lon="37.3743660">
    <ele>4466.4</ele>
    <time>2026-06-22T11:36:46Z</time>
   </trkpt>
   <trkpt lat="-3.1027510" lon="37.3743750">
    <ele>4466.4</ele>
    <time>2026-06-22T11:36:47Z</time>
   </trkpt>
   <trkpt lat="-3.1027510" lon="37.3743820">
    <ele>4466.5</ele>
    <time>2026-06-22T11:36:48Z</time>
   </trkpt>
   <trkpt lat="-3.1027480" lon="37.3743900">
    <ele>4466.5</ele>
    <time>2026-06-22T11:36:49Z</time>
   </trkpt>
   <trkpt lat="-3.1027440" lon="37.3743950">
    <ele>4466.5</ele>
    <time>2026-06-22T11:36:50Z</time>
   </trkpt>
   <trkpt lat="-3.1027400" lon="37.3744020">
    <ele>4466.5</ele>
    <time>2026-06-22T11:36:51Z</time>
   </trkpt>
   <trkpt lat="-3.1027360" lon="37.3744080">
    <ele>4466.6</ele>
    <time>2026-06-22T11:36:52Z</time>
   </trkpt>
   <trkpt lat="-3.1027340" lon="37.3744140">
    <ele>4466.6</ele>
    <time>2026-06-22T11:36:53Z</time>
   </trkpt>
   <trkpt lat="-3.1027330" lon="37.3744210">
    <ele>4466.6</ele>
    <time>2026-06-22T11:36:54Z</time>
   </trkpt>
   <trkpt lat="-3.1027310" lon="37.3744310">
    <ele>4466.7</ele>
    <time>2026-06-22T11:36:55Z</time>
   </trkpt>
   <trkpt lat="-3.1027310" lon="37.3744370">
    <ele>4466.7</ele>
    <time>2026-06-22T11:36:56Z</time>
   </trkpt>
   <trkpt lat="-3.1027290" lon="37.3744440">
    <ele>4466.8</ele>
    <time>2026-06-22T11:36:57Z</time>
   </trkpt>
   <trkpt lat="-3.1027260" lon="37.3744500">
    <ele>4466.8</ele>
    <time>2026-06-22T11:36:58Z</time>
   </trkpt>
   <trkpt lat="-3.1027230" lon="37.3744550">
    <ele>4466.8</ele>
    <time>2026-06-22T11:36:59Z</time>
   </trkpt>
   <trkpt lat="-3.1027190" lon="37.3744600">
    <ele>4466.8</ele>
    <time>2026-06-22T11:37:00Z</time>
   </trkpt>
   <trkpt lat="-3.1027160" lon="37.3744670">
    <ele>4466.9</ele>
    <time>2026-06-22T11:37:01Z</time>
   </trkpt>
   <trkpt lat="-3.1027140" lon="37.3744730">
    <ele>4466.9</ele>
    <time>2026-06-22T11:37:02Z</time>
   </trkpt>
   <trkpt lat="-3.1027130" lon="37.3744800">
    <ele>4467.0</ele>
    <time>2026-06-22T11:37:03Z</time>
   </trkpt>
   <trkpt lat="-3.1027090" lon="37.3744870">
    <ele>4467.0</ele>
    <time>2026-06-22T11:37:04Z</time>
   </trkpt>
   <trkpt lat="-3.1027070" lon="37.3744930">
    <ele>4467.0</ele>
    <time>2026-06-22T11:37:05Z</time>
   </trkpt>
   <trkpt lat="-3.1027030" lon="37.3744990">
    <ele>4467.1</ele>
    <time>2026-06-22T11:37:06Z</time>
   </trkpt>
   <trkpt lat="-3.1027010" lon="37.3745030">
    <ele>4467.1</ele>
    <time>2026-06-22T11:37:07Z</time>
   </trkpt>
   <trkpt lat="-3.1026980" lon="37.3745060">
    <ele>4467.1</ele>
    <time>2026-06-22T11:37:08Z</time>
   </trkpt>
   <trkpt lat="-3.1026910" lon="37.3745130">
    <ele>4467.2</ele>
    <time>2026-06-22T11:37:09Z</time>
   </trkpt>
   <trkpt lat="-3.1026860" lon="37.3745190">
    <ele>4467.2</ele>
    <time>2026-06-22T11:37:10Z</time>
   </trkpt>
   <trkpt lat="-3.1026830" lon="37.3745220">
    <ele>4467.3</ele>
    <time>2026-06-22T11:37:11Z</time>
   </trkpt>
   <trkpt lat="-3.1026790" lon="37.3745290">
    <ele>4467.3</ele>
    <time>2026-06-22T11:37:12Z</time>
   </trkpt>
   <trkpt lat="-3.1026770" lon="37.3745330">
    <ele>4467.3</ele>
    <time>2026-06-22T11:37:13Z</time>
   </trkpt>
   <trkpt lat="-3.1026740" lon="37.3745400">
    <ele>4467.4</ele>
    <time>2026-06-22T11:37:14Z</time>
   </trkpt>
   <trkpt lat="-3.1026700" lon="37.3745470">
    <ele>4467.4</ele>
    <time>2026-06-22T11:37:15Z</time>
   </trkpt>
   <trkpt lat="-3.1026680" lon="37.3745510">
    <ele>4467.5</ele>
    <time>2026-06-22T11:37:16Z</time>
   </trkpt>
   <trkpt lat="-3.1026620" lon="37.3745590">
    <ele>4467.5</ele>
    <time>2026-06-22T11:37:17Z</time>
   </trkpt>
   <trkpt lat="-3.1026580" lon="37.3745640">
    <ele>4467.6</ele>
    <time>2026-06-22T11:37:19Z</time>
   </trkpt>
   <trkpt lat="-3.1026550" lon="37.3745700">
    <ele>4467.6</ele>
    <time>2026-06-22T11:37:20Z</time>
   </trkpt>
   <trkpt lat="-3.1026530" lon="37.3745770">
    <ele>4467.7</ele>
    <time>2026-06-22T11:37:21Z</time>
   </trkpt>
   <trkpt lat="-3.1026530" lon="37.3745850">
    <ele>4467.7</ele>
    <time>2026-06-22T11:37:22Z</time>
   </trkpt>
   <trkpt lat="-3.1026510" lon="37.3745930">
    <ele>4467.8</ele>
    <time>2026-06-22T11:37:23Z</time>
   </trkpt>
   <trkpt lat="-3.1026490" lon="37.3745990">
    <ele>4467.8</ele>
    <time>2026-06-22T11:37:24Z</time>
   </trkpt>
   <trkpt lat="-3.1026480" lon="37.3746070">
    <ele>4467.9</ele>
    <time>2026-06-22T11:37:25Z</time>
   </trkpt>
   <trkpt lat="-3.1026500" lon="37.3746120">
    <ele>4467.9</ele>
    <time>2026-06-22T11:37:26Z</time>
   </trkpt>
   <trkpt lat="-3.1026520" lon="37.3746190">
    <ele>4467.9</ele>
    <time>2026-06-22T11:37:27Z</time>
   </trkpt>
   <trkpt lat="-3.1026520" lon="37.3746270">
    <ele>4468.0</ele>
    <time>2026-06-22T11:37:28Z</time>
   </trkpt>
   <trkpt lat="-3.1026540" lon="37.3746370">
    <ele>4468.1</ele>
    <time>2026-06-22T11:37:29Z</time>
   </trkpt>
   <trkpt lat="-3.1026540" lon="37.3746400">
    <ele>4468.1</ele>
    <time>2026-06-22T11:37:30Z</time>
   </trkpt>
   <trkpt lat="-3.1026520" lon="37.3746480">
    <ele>4468.2</ele>
    <time>2026-06-22T11:37:31Z</time>
   </trkpt>
   <trkpt lat="-3.1026490" lon="37.3746540">
    <ele>4468.2</ele>
    <time>2026-06-22T11:37:32Z</time>
   </trkpt>
   <trkpt lat="-3.1026430" lon="37.3746600">
    <ele>4468.3</ele>
    <time>2026-06-22T11:37:33Z</time>
   </trkpt>
   <trkpt lat="-3.1026410" lon="37.3746630">
    <ele>4468.3</ele>
    <time>2026-06-22T11:37:34Z</time>
   </trkpt>
   <trkpt lat="-3.1026400" lon="37.3746690">
    <ele>4468.4</ele>
    <time>2026-06-22T11:37:35Z</time>
   </trkpt>
   <trkpt lat="-3.1026380" lon="37.3746770">
    <ele>4468.4</ele>
    <time>2026-06-22T11:37:36Z</time>
   </trkpt>
   <trkpt lat="-3.1026360" lon="37.3746870">
    <ele>4468.5</ele>
    <time>2026-06-22T11:37:37Z</time>
   </trkpt>
   <trkpt lat="-3.1026360" lon="37.3746920">
    <ele>4468.6</ele>
    <time>2026-06-22T11:37:38Z</time>
   </trkpt>
   <trkpt lat="-3.1026350" lon="37.3746980">
    <ele>4468.6</ele>
    <time>2026-06-22T11:37:39Z</time>
   </trkpt>
   <trkpt lat="-3.1026310" lon="37.3747050">
    <ele>4468.7</ele>
    <time>2026-06-22T11:37:40Z</time>
   </trkpt>
   <trkpt lat="-3.1026280" lon="37.3747090">
    <ele>4468.7</ele>
    <time>2026-06-22T11:37:41Z</time>
   </trkpt>
   <trkpt lat="-3.1026250" lon="37.3747140">
    <ele>4468.8</ele>
    <time>2026-06-22T11:37:42Z</time>
   </trkpt>
   <trkpt lat="-3.1026270" lon="37.3747180">
    <ele>4468.8</ele>
    <time>2026-06-22T11:37:43Z</time>
   </trkpt>
   <trkpt lat="-3.1026200" lon="37.3747240">
    <ele>4468.9</ele>
    <time>2026-06-22T11:37:44Z</time>
   </trkpt>
   <trkpt lat="-3.1026170" lon="37.3747280">
    <ele>4469.0</ele>
    <time>2026-06-22T11:37:45Z</time>
   </trkpt>
   <trkpt lat="-3.1026150" lon="37.3747320">
    <ele>4469.0</ele>
    <time>2026-06-22T11:37:46Z</time>
   </trkpt>
   <trkpt lat="-3.1026130" lon="37.3747390">
    <ele>4469.1</ele>
    <time>2026-06-22T11:37:47Z</time>
   </trkpt>
   <trkpt lat="-3.1026140" lon="37.3747450">
    <ele>4469.1</ele>
    <time>2026-06-22T11:37:48Z</time>
   </trkpt>
   <trkpt lat="-3.1026160" lon="37.3747500">
    <ele>4469.2</ele>
    <time>2026-06-22T11:37:49Z</time>
   </trkpt>
   <trkpt lat="-3.1026180" lon="37.3747570">
    <ele>4469.3</ele>
    <time>2026-06-22T11:37:50Z</time>
   </trkpt>
   <trkpt lat="-3.1026200" lon="37.3747630">
    <ele>4469.3</ele>
    <time>2026-06-22T11:37:51Z</time>
   </trkpt>
   <trkpt lat="-3.1026210" lon="37.3747660">
    <ele>4469.4</ele>
    <time>2026-06-22T11:37:52Z</time>
   </trkpt>
   <trkpt lat="-3.1026210" lon="37.3747790">
    <ele>4469.5</ele>
    <time>2026-06-22T11:37:53Z</time>
   </trkpt>
   <trkpt lat="-3.1026190" lon="37.3747850">
    <ele>4469.6</ele>
    <time>2026-06-22T11:37:54Z</time>
   </trkpt>
   <trkpt lat="-3.1026170" lon="37.3747890">
    <ele>4469.7</ele>
    <time>2026-06-22T11:37:55Z</time>
   </trkpt>
   <trkpt lat="-3.1026140" lon="37.3747950">
    <ele>4469.7</ele>
    <time>2026-06-22T11:37:56Z</time>
   </trkpt>
   <trkpt lat="-3.1026110" lon="37.3747960">
    <ele>4469.8</ele>
    <time>2026-06-22T11:37:57Z</time>
   </trkpt>
   <trkpt lat="-3.1026080" lon="37.3748000">
    <ele>4469.8</ele>
    <time>2026-06-22T11:37:58Z</time>
   </trkpt>
   <trkpt lat="-3.1026050" lon="37.3748060">
    <ele>4469.9</ele>
    <time>2026-06-22T11:37:59Z</time>
   </trkpt>
   <trkpt lat="-3.1026030" lon="37.3748100">
    <ele>4470.0</ele>
    <time>2026-06-22T11:38:00Z</time>
   </trkpt>
   <trkpt lat="-3.1026010" lon="37.3748140">
    <ele>4470.0</ele>
    <time>2026-06-22T11:38:01Z</time>
   </trkpt>
   <trkpt lat="-3.1025990" lon="37.3748200">
    <ele>4470.1</ele>
    <time>2026-06-22T11:38:02Z</time>
   </trkpt>
   <trkpt lat="-3.1025950" lon="37.3748250">
    <ele>4470.2</ele>
    <time>2026-06-22T11:38:03Z</time>
   </trkpt>
   <trkpt lat="-3.1025930" lon="37.3748280">
    <ele>4470.2</ele>
    <time>2026-06-22T11:38:04Z</time>
   </trkpt>
   <trkpt lat="-3.1025890" lon="37.3748300">
    <ele>4470.3</ele>
    <time>2026-06-22T11:38:05Z</time>
   </trkpt>
   <trkpt lat="-3.1025860" lon="37.3748340">
    <ele>4470.4</ele>
    <time>2026-06-22T11:38:06Z</time>
   </trkpt>
   <trkpt lat="-3.1025820" lon="37.3748370">
    <ele>4470.4</ele>
    <time>2026-06-22T11:38:07Z</time>
   </trkpt>
   <trkpt lat="-3.1025800" lon="37.3748420">
    <ele>4470.5</ele>
    <time>2026-06-22T11:38:08Z</time>
   </trkpt>
   <trkpt lat="-3.1025800" lon="37.3748450">
    <ele>4470.5</ele>
    <time>2026-06-22T11:38:09Z</time>
   </trkpt>
   <trkpt lat="-3.1025800" lon="37.3748520">
    <ele>4470.6</ele>
    <time>2026-06-22T11:38:10Z</time>
   </trkpt>
   <trkpt lat="-3.1025800" lon="37.3748550">
    <ele>4470.7</ele>
    <time>2026-06-22T11:38:11Z</time>
   </trkpt>
   <trkpt lat="-3.1025770" lon="37.3748610">
    <ele>4470.8</ele>
    <time>2026-06-22T11:38:12Z</time>
   </trkpt>
   <trkpt lat="-3.1025770" lon="37.3748660">
    <ele>4470.8</ele>
    <time>2026-06-22T11:38:13Z</time>
   </trkpt>
   <trkpt lat="-3.1025760" lon="37.3748710">
    <ele>4470.9</ele>
    <time>2026-06-22T11:38:14Z</time>
   </trkpt>
   <trkpt lat="-3.1025760" lon="37.3748740">
    <ele>4471.0</ele>
    <time>2026-06-22T11:38:15Z</time>
   </trkpt>
   <trkpt lat="-3.1025730" lon="37.3748790">
    <ele>4471.0</ele>
    <time>2026-06-22T11:38:16Z</time>
   </trkpt>
   <trkpt lat="-3.1025690" lon="37.3748820">
    <ele>4471.1</ele>
    <time>2026-06-22T11:38:17Z</time>
   </trkpt>
   <trkpt lat="-3.1025680" lon="37.3748840">
    <ele>4471.2</ele>
    <time>2026-06-22T11:38:18Z</time>
   </trkpt>
   <trkpt lat="-3.1025670" lon="37.3748860">
    <ele>4471.2</ele>
    <time>2026-06-22T11:38:19Z</time>
   </trkpt>
   <trkpt lat="-3.1025660" lon="37.3748870">
    <ele>4471.2</ele>
    <time>2026-06-22T11:38:20Z</time>
   </trkpt>
   <trkpt lat="-3.1025620" lon="37.3748900">
    <ele>4471.3</ele>
    <time>2026-06-22T11:38:21Z</time>
   </trkpt>
   <trkpt lat="-3.1025590" lon="37.3748910">
    <ele>4471.3</ele>
    <time>2026-06-22T11:38:22Z</time>
   </trkpt>
   <trkpt lat="-3.1025580" lon="37.3748940">
    <ele>4471.4</ele>
    <time>2026-06-22T11:38:23Z</time>
   </trkpt>
   <trkpt lat="-3.1025570" lon="37.3748960">
    <ele>4471.4</ele>
    <time>2026-06-22T11:38:24Z</time>
   </trkpt>
   <trkpt lat="-3.1025540" lon="37.3749000">
    <ele>4471.5</ele>
    <time>2026-06-22T11:38:25Z</time>
   </trkpt>
   <trkpt lat="-3.1025530" lon="37.3749030">
    <ele>4471.5</ele>
    <time>2026-06-22T11:38:26Z</time>
   </trkpt>
   <trkpt lat="-3.1025510" lon="37.3749060">
    <ele>4471.6</ele>
    <time>2026-06-22T11:38:27Z</time>
   </trkpt>
   <trkpt lat="-3.1025500" lon="37.3749090">
    <ele>4471.6</ele>
    <time>2026-06-22T11:38:28Z</time>
   </trkpt>
   <trkpt lat="-3.1025460" lon="37.3749130">
    <ele>4471.7</ele>
    <time>2026-06-22T11:38:29Z</time>
   </trkpt>
   <trkpt lat="-3.1025460" lon="37.3749140">
    <ele>4471.7</ele>
    <time>2026-06-22T11:38:30Z</time>
   </trkpt>
   <trkpt lat="-3.1025430" lon="37.3749190">
    <ele>4471.8</ele>
    <time>2026-06-22T11:38:31Z</time>
   </trkpt>
   <trkpt lat="-3.1025380" lon="37.3749230">
    <ele>4471.9</ele>
    <time>2026-06-22T11:38:32Z</time>
   </trkpt>
   <trkpt lat="-3.1025370" lon="37.3749280">
    <ele>4472.0</ele>
    <time>2026-06-22T11:38:33Z</time>
   </trkpt>
   <trkpt lat="-3.1025360" lon="37.3749310">
    <ele>4472.0</ele>
    <time>2026-06-22T11:38:34Z</time>
   </trkpt>
   <trkpt lat="-3.1025350" lon="37.3749340">
    <ele>4472.1</ele>
    <time>2026-06-22T11:38:35Z</time>
   </trkpt>
   <trkpt lat="-3.1025360" lon="37.3749380">
    <ele>4472.1</ele>
    <time>2026-06-22T11:38:36Z</time>
   </trkpt>
   <trkpt lat="-3.1025350" lon="37.3749430">
    <ele>4472.2</ele>
    <time>2026-06-22T11:38:37Z</time>
   </trkpt>
   <trkpt lat="-3.1025370" lon="37.3749490">
    <ele>4472.3</ele>
    <time>2026-06-22T11:38:38Z</time>
   </trkpt>
   <trkpt lat="-3.1025390" lon="37.3749520">
    <ele>4472.3</ele>
    <time>2026-06-22T11:38:39Z</time>
   </trkpt>
   <trkpt lat="-3.1025410" lon="37.3749560">
    <ele>4472.4</ele>
    <time>2026-06-22T11:38:40Z</time>
   </trkpt>
   <trkpt lat="-3.1025450" lon="37.3749600">
    <ele>4472.5</ele>
    <time>2026-06-22T11:38:41Z</time>
   </trkpt>
   <trkpt lat="-3.1025450" lon="37.3749640">
    <ele>4472.6</ele>
    <time>2026-06-22T11:38:42Z</time>
   </trkpt>
   <trkpt lat="-3.1025460" lon="37.3749650">
    <ele>4472.6</ele>
    <time>2026-06-22T11:38:43Z</time>
   </trkpt>
   <trkpt lat="-3.1025460" lon="37.3749710">
    <ele>4472.7</ele>
    <time>2026-06-22T11:38:44Z</time>
   </trkpt>
   <trkpt lat="-3.1025480" lon="37.3749750">
    <ele>4472.8</ele>
    <time>2026-06-22T11:38:45Z</time>
   </trkpt>
   <trkpt lat="-3.1025460" lon="37.3749830">
    <ele>4472.9</ele>
    <time>2026-06-22T11:38:46Z</time>
   </trkpt>
   <trkpt lat="-3.1025490" lon="37.3749860">
    <ele>4473.0</ele>
    <time>2026-06-22T11:38:47Z</time>
   </trkpt>
   <trkpt lat="-3.1025490" lon="37.3749900">
    <ele>4473.0</ele>
    <time>2026-06-22T11:38:48Z</time>
   </trkpt>
   <trkpt lat="-3.1025490" lon="37.3749960">
    <ele>4473.1</ele>
    <time>2026-06-22T11:38:49Z</time>
   </trkpt>
   <trkpt lat="-3.1025470" lon="37.3750000">
    <ele>4473.2</ele>
    <time>2026-06-22T11:38:50Z</time>
   </trkpt>
   <trkpt lat="-3.1025450" lon="37.3750050">
    <ele>4473.3</ele>
    <time>2026-06-22T11:38:51Z</time>
   </trkpt>
   <trkpt lat="-3.1025440" lon="37.3750060">
    <ele>4473.3</ele>
    <time>2026-06-22T11:38:52Z</time>
   </trkpt>
   <trkpt lat="-3.1025420" lon="37.3750090">
    <ele>4473.4</ele>
    <time>2026-06-22T11:38:53Z</time>
   </trkpt>
   <trkpt lat="-3.1025380" lon="37.3750130">
    <ele>4473.4</ele>
    <time>2026-06-22T11:38:54Z</time>
   </trkpt>
   <trkpt lat="-3.1025370" lon="37.3750140">
    <ele>4473.5</ele>
    <time>2026-06-22T11:38:55Z</time>
   </trkpt>
   <trkpt lat="-3.1025350" lon="37.3750180">
    <ele>4473.5</ele>
    <time>2026-06-22T11:38:56Z</time>
   </trkpt>
   <trkpt lat="-3.1025320" lon="37.3750230">
    <ele>4473.6</ele>
    <time>2026-06-22T11:38:57Z</time>
   </trkpt>
   <trkpt lat="-3.1025300" lon="37.3750280">
    <ele>4473.7</ele>
    <time>2026-06-22T11:38:58Z</time>
   </trkpt>
   <trkpt lat="-3.1025290" lon="37.3750320">
    <ele>4473.8</ele>
    <time>2026-06-22T11:38:59Z</time>
   </trkpt>
   <trkpt lat="-3.1025270" lon="37.3750350">
    <ele>4473.8</ele>
    <time>2026-06-22T11:39:00Z</time>
   </trkpt>
   <trkpt lat="-3.1025270" lon="37.3750370">
    <ele>4473.9</ele>
    <time>2026-06-22T11:39:01Z</time>
   </trkpt>
   <trkpt lat="-3.1025250" lon="37.3750430">
    <ele>4474.0</ele>
    <time>2026-06-22T11:39:02Z</time>
   </trkpt>
   <trkpt lat="-3.1025220" lon="37.3750490">
    <ele>4474.1</ele>
    <time>2026-06-22T11:39:03Z</time>
   </trkpt>
   <trkpt lat="-3.1025240" lon="37.3750530">
    <ele>4474.2</ele>
    <time>2026-06-22T11:39:04Z</time>
   </trkpt>
   <trkpt lat="-3.1025230" lon="37.3750570">
    <ele>4474.2</ele>
    <time>2026-06-22T11:39:05Z</time>
   </trkpt>
   <trkpt lat="-3.1025250" lon="37.3750600">
    <ele>4474.3</ele>
    <time>2026-06-22T11:39:06Z</time>
   </trkpt>
   <trkpt lat="-3.1025250" lon="37.3750640">
    <ele>4474.3</ele>
    <time>2026-06-22T11:39:07Z</time>
   </trkpt>
   <trkpt lat="-3.1025260" lon="37.3750680">
    <ele>4474.4</ele>
    <time>2026-06-22T11:39:08Z</time>
   </trkpt>
   <trkpt lat="-3.1025240" lon="37.3750740">
    <ele>4474.5</ele>
    <time>2026-06-22T11:39:09Z</time>
   </trkpt>
   <trkpt lat="-3.1025220" lon="37.3750760">
    <ele>4474.6</ele>
    <time>2026-06-22T11:39:10Z</time>
   </trkpt>
   <trkpt lat="-3.1025200" lon="37.3750790">
    <ele>4474.6</ele>
    <time>2026-06-22T11:39:11Z</time>
   </trkpt>
   <trkpt lat="-3.1025180" lon="37.3750810">
    <ele>4474.7</ele>
    <time>2026-06-22T11:39:12Z</time>
   </trkpt>
   <trkpt lat="-3.1025140" lon="37.3750840">
    <ele>4474.7</ele>
    <time>2026-06-22T11:39:13Z</time>
   </trkpt>
   <trkpt lat="-3.1025130" lon="37.3750880">
    <ele>4474.8</ele>
    <time>2026-06-22T11:39:14Z</time>
   </trkpt>
   <trkpt lat="-3.1025120" lon="37.3750900">
    <ele>4474.9</ele>
    <time>2026-06-22T11:39:15Z</time>
   </trkpt>
   <trkpt lat="-3.1025080" lon="37.3750940">
    <ele>4474.9</ele>
    <time>2026-06-22T11:39:16Z</time>
   </trkpt>
   <trkpt lat="-3.1025080" lon="37.3750980">
    <ele>4475.0</ele>
    <time>2026-06-22T11:39:17Z</time>
   </trkpt>
   <trkpt lat="-3.1025050" lon="37.3751030">
    <ele>4475.1</ele>
    <time>2026-06-22T11:39:18Z</time>
   </trkpt>
   <trkpt lat="-3.1025050" lon="37.3751050">
    <ele>4475.1</ele>
    <time>2026-06-22T11:39:19Z</time>
   </trkpt>
   <trkpt lat="-3.1024990" lon="37.3751110">
    <ele>4475.3</ele>
    <time>2026-06-22T11:39:20Z</time>
   </trkpt>
   <trkpt lat="-3.1025000" lon="37.3751140">
    <ele>4475.3</ele>
    <time>2026-06-22T11:39:21Z</time>
   </trkpt>
   <trkpt lat="-3.1024960" lon="37.3751180">
    <ele>4475.4</ele>
    <time>2026-06-22T11:39:22Z</time>
   </trkpt>
   <trkpt lat="-3.1024970" lon="37.3751220">
    <ele>4475.5</ele>
    <time>2026-06-22T11:39:23Z</time>
   </trkpt>
   <trkpt lat="-3.1024960" lon="37.3751300">
    <ele>4475.6</ele>
    <time>2026-06-22T11:39:25Z</time>
   </trkpt>
   <trkpt lat="-3.1024990" lon="37.3751330">
    <ele>4475.7</ele>
    <time>2026-06-22T11:39:26Z</time>
   </trkpt>
   <trkpt lat="-3.1025010" lon="37.3751380">
    <ele>4475.8</ele>
    <time>2026-06-22T11:39:27Z</time>
   </trkpt>
   <trkpt lat="-3.1025000" lon="37.3751460">
    <ele>4475.9</ele>
    <time>2026-06-22T11:39:28Z</time>
   </trkpt>
   <trkpt lat="-3.1025030" lon="37.3751500">
    <ele>4476.0</ele>
    <time>2026-06-22T11:39:29Z</time>
   </trkpt>
   <trkpt lat="-3.1025030" lon="37.3751550">
    <ele>4476.1</ele>
    <time>2026-06-22T11:39:30Z</time>
   </trkpt>
   <trkpt lat="-3.1025060" lon="37.3751590">
    <ele>4476.2</ele>
    <time>2026-06-22T11:39:31Z</time>
   </trkpt>
   <trkpt lat="-3.1025080" lon="37.3751630">
    <ele>4476.2</ele>
    <time>2026-06-22T11:39:32Z</time>
   </trkpt>
   <trkpt lat="-3.1025120" lon="37.3751670">
    <ele>4476.3</ele>
    <time>2026-06-22T11:39:33Z</time>
   </trkpt>
   <trkpt lat="-3.1025140" lon="37.3751710">
    <ele>4476.4</ele>
    <time>2026-06-22T11:39:34Z</time>
   </trkpt>
   <trkpt lat="-3.1025170" lon="37.3751760">
    <ele>4476.5</ele>
    <time>2026-06-22T11:39:35Z</time>
   </trkpt>
   <trkpt lat="-3.1025200" lon="37.3751790">
    <ele>4476.6</ele>
    <time>2026-06-22T11:39:36Z</time>
   </trkpt>
   <trkpt lat="-3.1025230" lon="37.3751820">
    <ele>4476.6</ele>
    <time>2026-06-22T11:39:37Z</time>
   </trkpt>
   <trkpt lat="-3.1025230" lon="37.3751890">
    <ele>4476.7</ele>
    <time>2026-06-22T11:39:38Z</time>
   </trkpt>
   <trkpt lat="-3.1025260" lon="37.3751930">
    <ele>4476.8</ele>
    <time>2026-06-22T11:39:39Z</time>
   </trkpt>
   <trkpt lat="-3.1025270" lon="37.3751980">
    <ele>4476.9</ele>
    <time>2026-06-22T11:39:40Z</time>
   </trkpt>
   <trkpt lat="-3.1025290" lon="37.3752040">
    <ele>4477.0</ele>
    <time>2026-06-22T11:39:41Z</time>
   </trkpt>
   <trkpt lat="-3.1025280" lon="37.3752080">
    <ele>4477.1</ele>
    <time>2026-06-22T11:39:42Z</time>
   </trkpt>
   <trkpt lat="-3.1025280" lon="37.3752120">
    <ele>4477.1</ele>
    <time>2026-06-22T11:39:43Z</time>
   </trkpt>
   <trkpt lat="-3.1025250" lon="37.3752170">
    <ele>4477.2</ele>
    <time>2026-06-22T11:39:44Z</time>
   </trkpt>
   <trkpt lat="-3.1025220" lon="37.3752200">
    <ele>4477.3</ele>
    <time>2026-06-22T11:39:45Z</time>
   </trkpt>
   <trkpt lat="-3.1025210" lon="37.3752220">
    <ele>4477.3</ele>
    <time>2026-06-22T11:39:46Z</time>
   </trkpt>
   <trkpt lat="-3.1025160" lon="37.3752260">
    <ele>4477.4</ele>
    <time>2026-06-22T11:39:47Z</time>
   </trkpt>
   <trkpt lat="-3.1025140" lon="37.3752260">
    <ele>4477.5</ele>
    <time>2026-06-22T11:39:48Z</time>
   </trkpt>
   <trkpt lat="-3.1025090" lon="37.3752300">
    <ele>4477.6</ele>
    <time>2026-06-22T11:39:49Z</time>
   </trkpt>
   <trkpt lat="-3.1025050" lon="37.3752320">
    <ele>4477.7</ele>
    <time>2026-06-22T11:39:50Z</time>
   </trkpt>
   <trkpt lat="-3.1025020" lon="37.3752330">
    <ele>4477.7</ele>
    <time>2026-06-22T11:39:51Z</time>
   </trkpt>
   <trkpt lat="-3.1024990" lon="37.3752350">
    <ele>4477.8</ele>
    <time>2026-06-22T11:39:52Z</time>
   </trkpt>
   <trkpt lat="-3.1024970" lon="37.3752340">
    <ele>4477.8</ele>
    <time>2026-06-22T11:39:53Z</time>
   </trkpt>
   <trkpt lat="-3.1024960" lon="37.3752320">
    <ele>4477.8</ele>
    <time>2026-06-22T11:39:54Z</time>
   </trkpt>
   <trkpt lat="-3.1024970" lon="37.3752330">
    <ele>4477.9</ele>
    <time>2026-06-22T11:39:55Z</time>
   </trkpt>
   <trkpt lat="-3.1024980" lon="37.3752330">
    <ele>4477.9</ele>
    <time>2026-06-22T11:39:56Z</time>
   </trkpt>
   <trkpt lat="-3.1024980" lon="37.3752310">
    <ele>4477.9</ele>
    <time>2026-06-22T11:39:57Z</time>
   </trkpt>
   <trkpt lat="-3.1024980" lon="37.3752310">
    <ele>4477.9</ele>
    <time>2026-06-22T11:39:58Z</time>
   </trkpt>
   <trkpt lat="-3.1024980" lon="37.3752300">
    <ele>4477.9</ele>
    <time>2026-06-22T11:39:59Z</time>
   </trkpt>
   <trkpt lat="-3.1024980" lon="37.3752310">
    <ele>4477.9</ele>
    <time>2026-06-22T11:40:00Z</time>
   </trkpt>
   <trkpt lat="-3.1024950" lon="37.3752330">
    <ele>4478.0</ele>
    <time>2026-06-22T11:40:01Z</time>
   </trkpt>
   <trkpt lat="-3.1024870" lon="37.3752360">
    <ele>4478.1</ele>
    <time>2026-06-22T11:40:02Z</time>
   </trkpt>
   <trkpt lat="-3.1024840" lon="37.3752400">
    <ele>4478.2</ele>
    <time>2026-06-22T11:40:03Z</time>
   </trkpt>
   <trkpt lat="-3.1024830" lon="37.3752410">
    <ele>4478.2</ele>
    <time>2026-06-22T11:40:04Z</time>
   </trkpt>
   <trkpt lat="-3.1024830" lon="37.3752480">
    <ele>4478.4</ele>
    <time>2026-06-22T11:40:05Z</time>
   </trkpt>
   <trkpt lat="-3.1024850" lon="37.3752520">
    <ele>4478.4</ele>
    <time>2026-06-22T11:40:06Z</time>
   </trkpt>
   <trkpt lat="-3.1024850" lon="37.3752600">
    <ele>4478.6</ele>
    <time>2026-06-22T11:40:07Z</time>
   </trkpt>
   <trkpt lat="-3.1024900" lon="37.3752660">
    <ele>4478.7</ele>
    <time>2026-06-22T11:40:08Z</time>
   </trkpt>
   <trkpt lat="-3.1024890" lon="37.3752700">
    <ele>4478.8</ele>
    <time>2026-06-22T11:40:09Z</time>
   </trkpt>
   <trkpt lat="-3.1024880" lon="37.3752750">
    <ele>4478.8</ele>
    <time>2026-06-22T11:40:10Z</time>
   </trkpt>
   <trkpt lat="-3.1024860" lon="37.3752790">
    <ele>4478.9</ele>
    <time>2026-06-22T11:40:11Z</time>
   </trkpt>
   <trkpt lat="-3.1024850" lon="37.3752830">
    <ele>4479.0</ele>
    <time>2026-06-22T11:40:12Z</time>
   </trkpt>
   <trkpt lat="-3.1024840" lon="37.3752900">
    <ele>4479.1</ele>
    <time>2026-06-22T11:40:13Z</time>
   </trkpt>
   <trkpt lat="-3.1024850" lon="37.3752950">
    <ele>4479.2</ele>
    <time>2026-06-22T11:40:14Z</time>
   </trkpt>
   <trkpt lat="-3.1024840" lon="37.3753030">
    <ele>4479.3</ele>
    <time>2026-06-22T11:40:15Z</time>
   </trkpt>
   <trkpt lat="-3.1024830" lon="37.3753070">
    <ele>4479.4</ele>
    <time>2026-06-22T11:40:16Z</time>
   </trkpt>
   <trkpt lat="-3.1024850" lon="37.3753120">
    <ele>4479.5</ele>
    <time>2026-06-22T11:40:17Z</time>
   </trkpt>
   <trkpt lat="-3.1024880" lon="37.3753180">
    <ele>4479.6</ele>
    <time>2026-06-22T11:40:18Z</time>
   </trkpt>
   <trkpt lat="-3.1024900" lon="37.3753240">
    <ele>4479.7</ele>
    <time>2026-06-22T11:40:19Z</time>
   </trkpt>
   <trkpt lat="-3.1024900" lon="37.3753280">
    <ele>4479.8</ele>
    <time>2026-06-22T11:40:20Z</time>
   </trkpt>
   <trkpt lat="-3.1024900" lon="37.3753350">
    <ele>4479.9</ele>
    <time>2026-06-22T11:40:21Z</time>
   </trkpt>
   <trkpt lat="-3.1024890" lon="37.3753410">
    <ele>4480.0</ele>
    <time>2026-06-22T11:40:22Z</time>
   </trkpt>
   <trkpt lat="-3.1024870" lon="37.3753450">
    <ele>4480.1</ele>
    <time>2026-06-22T11:40:23Z</time>
   </trkpt>
   <trkpt lat="-3.1024840" lon="37.3753500">
    <ele>4480.2</ele>
    <time>2026-06-22T11:40:24Z</time>
   </trkpt>
   <trkpt lat="-3.1024780" lon="37.3753510">
    <ele>4480.3</ele>
    <time>2026-06-22T11:40:25Z</time>
   </trkpt>
   <trkpt lat="-3.1024730" lon="37.3753530">
    <ele>4480.3</ele>
    <time>2026-06-22T11:40:26Z</time>
   </trkpt>
   <trkpt lat="-3.1024680" lon="37.3753540">
    <ele>4480.4</ele>
    <time>2026-06-22T11:40:27Z</time>
   </trkpt>
   <trkpt lat="-3.1024640" lon="37.3753560">
    <ele>4480.5</ele>
    <time>2026-06-22T11:40:28Z</time>
   </trkpt>
   <trkpt lat="-3.1024590" lon="37.3753580">
    <ele>4480.6</ele>
    <time>2026-06-22T11:40:29Z</time>
   </trkpt>
   <trkpt lat="-3.1024560" lon="37.3753600">
    <ele>4480.7</ele>
    <time>2026-06-22T11:40:30Z</time>
   </trkpt>
   <trkpt lat="-3.1024540" lon="37.3753640">
    <ele>4480.7</ele>
    <time>2026-06-22T11:40:31Z</time>
   </trkpt>
   <trkpt lat="-3.1024500" lon="37.3753650">
    <ele>4480.8</ele>
    <time>2026-06-22T11:40:32Z</time>
   </trkpt>
   <trkpt lat="-3.1024470" lon="37.3753680">
    <ele>4480.9</ele>
    <time>2026-06-22T11:40:33Z</time>
   </trkpt>
   <trkpt lat="-3.1024440" lon="37.3753710">
    <ele>4481.0</ele>
    <time>2026-06-22T11:40:34Z</time>
   </trkpt>
   <trkpt lat="-3.1024430" lon="37.3753760">
    <ele>4481.0</ele>
    <time>2026-06-22T11:40:35Z</time>
   </trkpt>
   <trkpt lat="-3.1024390" lon="37.3753790">
    <ele>4481.1</ele>
    <time>2026-06-22T11:40:36Z</time>
   </trkpt>
   <trkpt lat="-3.1024370" lon="37.3753830">
    <ele>4481.2</ele>
    <time>2026-06-22T11:40:37Z</time>
   </trkpt>
   <trkpt lat="-3.1024350" lon="37.3753860">
    <ele>4481.3</ele>
    <time>2026-06-22T11:40:38Z</time>
   </trkpt>
   <trkpt lat="-3.1024340" lon="37.3753910">
    <ele>4481.3</ele>
    <time>2026-06-22T11:40:39Z</time>
   </trkpt>
   <trkpt lat="-3.1024350" lon="37.3753960">
    <ele>4481.4</ele>
    <time>2026-06-22T11:40:40Z</time>
   </trkpt>
   <trkpt lat="-3.1024330" lon="37.3754010">
    <ele>4481.5</ele>
    <time>2026-06-22T11:40:41Z</time>
   </trkpt>
   <trkpt lat="-3.1024330" lon="37.3754060">
    <ele>4481.6</ele>
    <time>2026-06-22T11:40:42Z</time>
   </trkpt>
   <trkpt lat="-3.1024330" lon="37.3754100">
    <ele>4481.7</ele>
    <time>2026-06-22T11:40:43Z</time>
   </trkpt>
   <trkpt lat="-3.1024340" lon="37.3754150">
    <ele>4481.8</ele>
    <time>2026-06-22T11:40:44Z</time>
   </trkpt>
   <trkpt lat="-3.1024330" lon="37.3754200">
    <ele>4481.8</ele>
    <time>2026-06-22T11:40:45Z</time>
   </trkpt>
   <trkpt lat="-3.1024340" lon="37.3754260">
    <ele>4481.9</ele>
    <time>2026-06-22T11:40:46Z</time>
   </trkpt>
   <trkpt lat="-3.1024320" lon="37.3754310">
    <ele>4482.0</ele>
    <time>2026-06-22T11:40:47Z</time>
   </trkpt>
   <trkpt lat="-3.1024310" lon="37.3754360">
    <ele>4482.1</ele>
    <time>2026-06-22T11:40:48Z</time>
   </trkpt>
   <trkpt lat="-3.1024290" lon="37.3754370">
    <ele>4482.2</ele>
    <time>2026-06-22T11:40:49Z</time>
   </trkpt>
   <trkpt lat="-3.1024280" lon="37.3754410">
    <ele>4482.2</ele>
    <time>2026-06-22T11:40:50Z</time>
   </trkpt>
   <trkpt lat="-3.1024270" lon="37.3754440">
    <ele>4482.3</ele>
    <time>2026-06-22T11:40:51Z</time>
   </trkpt>
   <trkpt lat="-3.1024240" lon="37.3754460">
    <ele>4482.3</ele>
    <time>2026-06-22T11:40:52Z</time>
   </trkpt>
   <trkpt lat="-3.1024210" lon="37.3754490">
    <ele>4482.4</ele>
    <time>2026-06-22T11:40:53Z</time>
   </trkpt>
   <trkpt lat="-3.1024190" lon="37.3754530">
    <ele>4482.5</ele>
    <time>2026-06-22T11:40:54Z</time>
   </trkpt>
   <trkpt lat="-3.1024180" lon="37.3754580">
    <ele>4482.6</ele>
    <time>2026-06-22T11:40:55Z</time>
   </trkpt>
   <trkpt lat="-3.1024140" lon="37.3754610">
    <ele>4482.7</ele>
    <time>2026-06-22T11:40:56Z</time>
   </trkpt>
   <trkpt lat="-3.1024130" lon="37.3754630">
    <ele>4482.7</ele>
    <time>2026-06-22T11:40:57Z</time>
   </trkpt>
   <trkpt lat="-3.1024120" lon="37.3754700">
    <ele>4482.8</ele>
    <time>2026-06-22T11:40:58Z</time>
   </trkpt>
   <trkpt lat="-3.1024140" lon="37.3754720">
    <ele>4482.9</ele>
    <time>2026-06-22T11:40:59Z</time>
   </trkpt>
   <trkpt lat="-3.1024110" lon="37.3754780">
    <ele>4483.0</ele>
    <time>2026-06-22T11:41:00Z</time>
   </trkpt>
   <trkpt lat="-3.1024090" lon="37.3754860">
    <ele>4483.1</ele>
    <time>2026-06-22T11:41:01Z</time>
   </trkpt>
   <trkpt lat="-3.1024060" lon="37.3754890">
    <ele>4483.2</ele>
    <time>2026-06-22T11:41:02Z</time>
   </trkpt>
   <trkpt lat="-3.1024030" lon="37.3754910">
    <ele>4483.2</ele>
    <time>2026-06-22T11:41:03Z</time>
   </trkpt>
   <trkpt lat="-3.1023990" lon="37.3754970">
    <ele>4483.4</ele>
    <time>2026-06-22T11:41:04Z</time>
   </trkpt>
   <trkpt lat="-3.1023960" lon="37.3754980">
    <ele>4483.4</ele>
    <time>2026-06-22T11:41:05Z</time>
   </trkpt>
   <trkpt lat="-3.1023940" lon="37.3755030">
    <ele>4483.5</ele>
    <time>2026-06-22T11:41:06Z</time>
   </trkpt>
   <trkpt lat="-3.1023900" lon="37.3755070">
    <ele>4483.6</ele>
    <time>2026-06-22T11:41:07Z</time>
   </trkpt>
   <trkpt lat="-3.1023880" lon="37.3755100">
    <ele>4483.6</ele>
    <time>2026-06-22T11:41:08Z</time>
   </trkpt>
   <trkpt lat="-3.1023850" lon="37.3755130">
    <ele>4483.7</ele>
    <time>2026-06-22T11:41:09Z</time>
   </trkpt>
   <trkpt lat="-3.1023830" lon="37.3755170">
    <ele>4483.8</ele>
    <time>2026-06-22T11:41:10Z</time>
   </trkpt>
   <trkpt lat="-3.1023820" lon="37.3755190">
    <ele>4483.8</ele>
    <time>2026-06-22T11:41:11Z</time>
   </trkpt>
   <trkpt lat="-3.1023780" lon="37.3755240">
    <ele>4483.9</ele>
    <time>2026-06-22T11:41:12Z</time>
   </trkpt>
   <trkpt lat="-3.1023750" lon="37.3755260">
    <ele>4484.0</ele>
    <time>2026-06-22T11:41:13Z</time>
   </trkpt>
   <trkpt lat="-3.1023720" lon="37.3755270">
    <ele>4484.0</ele>
    <time>2026-06-22T11:41:14Z</time>
   </trkpt>
   <trkpt lat="-3.1023670" lon="37.3755300">
    <ele>4484.1</ele>
    <time>2026-06-22T11:41:15Z</time>
   </trkpt>
   <trkpt lat="-3.1023630" lon="37.3755280">
    <ele>4484.2</ele>
    <time>2026-06-22T11:41:16Z</time>
   </trkpt>
   <trkpt lat="-3.1023620" lon="37.3755300">
    <ele>4484.2</ele>
    <time>2026-06-22T11:41:17Z</time>
   </trkpt>
   <trkpt lat="-3.1023550" lon="37.3755300">
    <ele>4484.3</ele>
    <time>2026-06-22T11:41:18Z</time>
   </trkpt>
   <trkpt lat="-3.1023520" lon="37.3755330">
    <ele>4484.4</ele>
    <time>2026-06-22T11:41:19Z</time>
   </trkpt>
   <trkpt lat="-3.1023500" lon="37.3755310">
    <ele>4484.5</ele>
    <time>2026-06-22T11:41:20Z</time>
   </trkpt>
   <trkpt lat="-3.1023420" lon="37.3755310">
    <ele>4484.6</ele>
    <time>2026-06-22T11:41:21Z</time>
   </trkpt>
   <trkpt lat="-3.1023390" lon="37.3755300">
    <ele>4484.6</ele>
    <time>2026-06-22T11:41:22Z</time>
   </trkpt>
   <trkpt lat="-3.1023360" lon="37.3755300">
    <ele>4484.7</ele>
    <time>2026-06-22T11:41:23Z</time>
   </trkpt>
   <trkpt lat="-3.1023320" lon="37.3755300">
    <ele>4484.7</ele>
    <time>2026-06-22T11:41:24Z</time>
   </trkpt>
   <trkpt lat="-3.1023290" lon="37.3755330">
    <ele>4484.8</ele>
    <time>2026-06-22T11:41:25Z</time>
   </trkpt>
   <trkpt lat="-3.1023260" lon="37.3755360">
    <ele>4484.9</ele>
    <time>2026-06-22T11:41:26Z</time>
   </trkpt>
   <trkpt lat="-3.1023230" lon="37.3755350">
    <ele>4484.9</ele>
    <time>2026-06-22T11:41:27Z</time>
   </trkpt>
   <trkpt lat="-3.1023210" lon="37.3755370">
    <ele>4485.0</ele>
    <time>2026-06-22T11:41:28Z</time>
   </trkpt>
   <trkpt lat="-3.1023160" lon="37.3755400">
    <ele>4485.1</ele>
    <time>2026-06-22T11:41:29Z</time>
   </trkpt>
   <trkpt lat="-3.1023130" lon="37.3755420">
    <ele>4485.1</ele>
    <time>2026-06-22T11:41:31Z</time>
   </trkpt>
   <trkpt lat="-3.1023130" lon="37.3755440">
    <ele>4485.1</ele>
    <time>2026-06-22T11:41:32Z</time>
   </trkpt>
   <trkpt lat="-3.1023120" lon="37.3755480">
    <ele>4485.2</ele>
    <time>2026-06-22T11:41:33Z</time>
   </trkpt>
   <trkpt lat="-3.1023110" lon="37.3755530">
    <ele>4485.3</ele>
    <time>2026-06-22T11:41:34Z</time>
   </trkpt>
   <trkpt lat="-3.1023120" lon="37.3755580">
    <ele>4485.3</ele>
    <time>2026-06-22T11:41:35Z</time>
   </trkpt>
   <trkpt lat="-3.1023180" lon="37.3755620">
    <ele>4485.5</ele>
    <time>2026-06-22T11:41:36Z</time>
   </trkpt>
   <trkpt lat="-3.1023210" lon="37.3755650">
    <ele>4485.5</ele>
    <time>2026-06-22T11:41:37Z</time>
   </trkpt>
   <trkpt lat="-3.1023250" lon="37.3755650">
    <ele>4485.6</ele>
    <time>2026-06-22T11:41:38Z</time>
   </trkpt>
   <trkpt lat="-3.1023300" lon="37.3755690">
    <ele>4485.7</ele>
    <time>2026-06-22T11:41:39Z</time>
   </trkpt>
   <trkpt lat="-3.1023350" lon="37.3755710">
    <ele>4485.7</ele>
    <time>2026-06-22T11:41:40Z</time>
   </trkpt>
   <trkpt lat="-3.1023400" lon="37.3755730">
    <ele>4485.8</ele>
    <time>2026-06-22T11:41:41Z</time>
   </trkpt>
   <trkpt lat="-3.1023450" lon="37.3755740">
    <ele>4485.9</ele>
    <time>2026-06-22T11:41:42Z</time>
   </trkpt>
   <trkpt lat="-3.1023500" lon="37.3755760">
    <ele>4486.0</ele>
    <time>2026-06-22T11:41:43Z</time>
   </trkpt>
   <trkpt lat="-3.1023560" lon="37.3755770">
    <ele>4486.1</ele>
    <time>2026-06-22T11:41:44Z</time>
   </trkpt>
   <trkpt lat="-3.1023610" lon="37.3755800">
    <ele>4486.1</ele>
    <time>2026-06-22T11:41:45Z</time>
   </trkpt>
   <trkpt lat="-3.1023660" lon="37.3755820">
    <ele>4486.2</ele>
    <time>2026-06-22T11:41:46Z</time>
   </trkpt>
   <trkpt lat="-3.1023710" lon="37.3755840">
    <ele>4486.3</ele>
    <time>2026-06-22T11:41:47Z</time>
   </trkpt>
   <trkpt lat="-3.1023750" lon="37.3755870">
    <ele>4486.4</ele>
    <time>2026-06-22T11:41:48Z</time>
   </trkpt>
   <trkpt lat="-3.1023800" lon="37.3755910">
    <ele>4486.5</ele>
    <time>2026-06-22T11:41:49Z</time>
   </trkpt>
   <trkpt lat="-3.1023850" lon="37.3755940">
    <ele>4486.5</ele>
    <time>2026-06-22T11:41:50Z</time>
   </trkpt>
   <trkpt lat="-3.1023910" lon="37.3755960">
    <ele>4486.6</ele>
    <time>2026-06-22T11:41:51Z</time>
   </trkpt>
   <trkpt lat="-3.1023950" lon="37.3756000">
    <ele>4486.7</ele>
    <time>2026-06-22T11:41:52Z</time>
   </trkpt>
   <trkpt lat="-3.1024020" lon="37.3756080">
    <ele>4486.9</ele>
    <time>2026-06-22T11:41:53Z</time>
   </trkpt>
   <trkpt lat="-3.1024010" lon="37.3756090">
    <ele>4486.9</ele>
    <time>2026-06-22T11:41:54Z</time>
   </trkpt>
   <trkpt lat="-3.1024040" lon="37.3756200">
    <ele>4487.1</ele>
    <time>2026-06-22T11:41:55Z</time>
   </trkpt>
   <trkpt lat="-3.1024050" lon="37.3756220">
    <ele>4487.1</ele>
    <time>2026-06-22T11:41:56Z</time>
   </trkpt>
   <trkpt lat="-3.1024080" lon="37.3756220">
    <ele>4487.1</ele>
    <time>2026-06-22T11:41:57Z</time>
   </trkpt>
   <trkpt lat="-3.1024150" lon="37.3756260">
    <ele>4487.2</ele>
    <time>2026-06-22T11:41:58Z</time>
   </trkpt>
   <trkpt lat="-3.1024190" lon="37.3756250">
    <ele>4487.3</ele>
    <time>2026-06-22T11:41:59Z</time>
   </trkpt>
   <trkpt lat="-3.1024240" lon="37.3756280">
    <ele>4487.4</ele>
    <time>2026-06-22T11:42:00Z</time>
   </trkpt>
   <trkpt lat="-3.1024270" lon="37.3756300">
    <ele>4487.4</ele>
    <time>2026-06-22T11:42:01Z</time>
   </trkpt>
   <trkpt lat="-3.1024280" lon="37.3756310">
    <ele>4487.4</ele>
    <time>2026-06-22T11:42:02Z</time>
   </trkpt>
   <trkpt lat="-3.1024280" lon="37.3756320">
    <ele>4487.5</ele>
    <time>2026-06-22T11:42:03Z</time>
   </trkpt>
   <trkpt lat="-3.1024300" lon="37.3756370">
    <ele>4487.5</ele>
    <time>2026-06-22T11:42:04Z</time>
   </trkpt>
   <trkpt lat="-3.1024320" lon="37.3756430">
    <ele>4487.6</ele>
    <time>2026-06-22T11:42:05Z</time>
   </trkpt>
   <trkpt lat="-3.1024320" lon="37.3756460">
    <ele>4487.6</ele>
    <time>2026-06-22T11:42:06Z</time>
   </trkpt>
   <trkpt lat="-3.1024340" lon="37.3756510">
    <ele>4487.7</ele>
    <time>2026-06-22T11:42:07Z</time>
   </trkpt>
   <trkpt lat="-3.1024330" lon="37.3756540">
    <ele>4487.8</ele>
    <time>2026-06-22T11:42:08Z</time>
   </trkpt>
   <trkpt lat="-3.1024320" lon="37.3756570">
    <ele>4487.8</ele>
    <time>2026-06-22T11:42:09Z</time>
   </trkpt>
   <trkpt lat="-3.1024310" lon="37.3756620">
    <ele>4487.9</ele>
    <time>2026-06-22T11:42:10Z</time>
   </trkpt>
   <trkpt lat="-3.1024310" lon="37.3756650">
    <ele>4487.9</ele>
    <time>2026-06-22T11:42:11Z</time>
   </trkpt>
   <trkpt lat="-3.1024330" lon="37.3756680">
    <ele>4488.0</ele>
    <time>2026-06-22T11:42:12Z</time>
   </trkpt>
   <trkpt lat="-3.1024330" lon="37.3756710">
    <ele>4488.0</ele>
    <time>2026-06-22T11:42:13Z</time>
   </trkpt>
   <trkpt lat="-3.1024340" lon="37.3756750">
    <ele>4488.1</ele>
    <time>2026-06-22T11:42:14Z</time>
   </trkpt>
   <trkpt lat="-3.1024360" lon="37.3756800">
    <ele>4488.1</ele>
    <time>2026-06-22T11:42:15Z</time>
   </trkpt>
   <trkpt lat="-3.1024360" lon="37.3756850">
    <ele>4488.2</ele>
    <time>2026-06-22T11:42:16Z</time>
   </trkpt>
   <trkpt lat="-3.1024370" lon="37.3756860">
    <ele>4488.2</ele>
    <time>2026-06-22T11:42:17Z</time>
   </trkpt>
   <trkpt lat="-3.1024340" lon="37.3756890">
    <ele>4488.3</ele>
    <time>2026-06-22T11:42:18Z</time>
   </trkpt>
   <trkpt lat="-3.1024350" lon="37.3756920">
    <ele>4488.3</ele>
    <time>2026-06-22T11:42:19Z</time>
   </trkpt>
   <trkpt lat="-3.1024320" lon="37.3756960">
    <ele>4488.4</ele>
    <time>2026-06-22T11:42:20Z</time>
   </trkpt>
   <trkpt lat="-3.1024330" lon="37.3756980">
    <ele>4488.4</ele>
    <time>2026-06-22T11:42:21Z</time>
   </trkpt>
   <trkpt lat="-3.1024360" lon="37.3757020">
    <ele>4488.5</ele>
    <time>2026-06-22T11:42:22Z</time>
   </trkpt>
   <trkpt lat="-3.1024380" lon="37.3757050">
    <ele>4488.5</ele>
    <time>2026-06-22T11:42:23Z</time>
   </trkpt>
   <trkpt lat="-3.1024380" lon="37.3757060">
    <ele>4488.5</ele>
    <time>2026-06-22T11:42:24Z</time>
   </trkpt>
   <trkpt lat="-3.1024380" lon="37.3757090">
    <ele>4488.6</ele>
    <time>2026-06-22T11:42:25Z</time>
   </trkpt>
   <trkpt lat="-3.1024410" lon="37.3757130">
    <ele>4488.6</ele>
    <time>2026-06-22T11:42:26Z</time>
   </trkpt>
   <trkpt lat="-3.1024400" lon="37.3757120">
    <ele>4488.7</ele>
    <time>2026-06-22T11:42:27Z</time>
   </trkpt>
   <trkpt lat="-3.1024410" lon="37.3757160">
    <ele>4488.7</ele>
    <time>2026-06-22T11:42:28Z</time>
   </trkpt>
   <trkpt lat="-3.1024400" lon="37.3757210">
    <ele>4488.8</ele>
    <time>2026-06-22T11:42:29Z</time>
   </trkpt>
   <trkpt lat="-3.1024420" lon="37.3757230">
    <ele>4488.8</ele>
    <time>2026-06-22T11:42:30Z</time>
   </trkpt>
   <trkpt lat="-3.1024440" lon="37.3757280">
    <ele>4488.9</ele>
    <time>2026-06-22T11:42:31Z</time>
   </trkpt>
   <trkpt lat="-3.1024450" lon="37.3757320">
    <ele>4489.0</ele>
    <time>2026-06-22T11:42:32Z</time>
   </trkpt>
   <trkpt lat="-3.1024460" lon="37.3757350">
    <ele>4489.0</ele>
    <time>2026-06-22T11:42:33Z</time>
   </trkpt>
   <trkpt lat="-3.1024460" lon="37.3757370">
    <ele>4489.0</ele>
    <time>2026-06-22T11:42:34Z</time>
   </trkpt>
   <trkpt lat="-3.1024530" lon="37.3757440">
    <ele>4489.2</ele>
    <time>2026-06-22T11:42:35Z</time>
   </trkpt>
   <trkpt lat="-3.1024540" lon="37.3757450">
    <ele>4489.2</ele>
    <time>2026-06-22T11:42:36Z</time>
   </trkpt>
   <trkpt lat="-3.1024550" lon="37.3757480">
    <ele>4489.2</ele>
    <time>2026-06-22T11:42:37Z</time>
   </trkpt>
   <trkpt lat="-3.1024570" lon="37.3757530">
    <ele>4489.3</ele>
    <time>2026-06-22T11:42:38Z</time>
   </trkpt>
   <trkpt lat="-3.1024590" lon="37.3757550">
    <ele>4489.3</ele>
    <time>2026-06-22T11:42:39Z</time>
   </trkpt>
   <trkpt lat="-3.1024660" lon="37.3757610">
    <ele>4489.5</ele>
    <time>2026-06-22T11:42:40Z</time>
   </trkpt>
   <trkpt lat="-3.1024640" lon="37.3757620">
    <ele>4489.5</ele>
    <time>2026-06-22T11:42:41Z</time>
   </trkpt>
   <trkpt lat="-3.1024650" lon="37.3757650">
    <ele>4489.5</ele>
    <time>2026-06-22T11:42:42Z</time>
   </trkpt>
   <trkpt lat="-3.1024670" lon="37.3757710">
    <ele>4489.6</ele>
    <time>2026-06-22T11:42:43Z</time>
   </trkpt>
   <trkpt lat="-3.1024690" lon="37.3757720">
    <ele>4489.7</ele>
    <time>2026-06-22T11:42:44Z</time>
   </trkpt>
   <trkpt lat="-3.1024720" lon="37.3757760">
    <ele>4489.7</ele>
    <time>2026-06-22T11:42:45Z</time>
   </trkpt>
   <trkpt lat="-3.1024730" lon="37.3757790">
    <ele>4489.8</ele>
    <time>2026-06-22T11:42:46Z</time>
   </trkpt>
   <trkpt lat="-3.1024750" lon="37.3757850">
    <ele>4489.9</ele>
    <time>2026-06-22T11:42:47Z</time>
   </trkpt>
   <trkpt lat="-3.1024770" lon="37.3757860">
    <ele>4489.9</ele>
    <time>2026-06-22T11:42:48Z</time>
   </trkpt>
   <trkpt lat="-3.1024800" lon="37.3757910">
    <ele>4490.0</ele>
    <time>2026-06-22T11:42:49Z</time>
   </trkpt>
   <trkpt lat="-3.1024820" lon="37.3757930">
    <ele>4490.0</ele>
    <time>2026-06-22T11:42:50Z</time>
   </trkpt>
   <trkpt lat="-3.1024850" lon="37.3757960">
    <ele>4490.1</ele>
    <time>2026-06-22T11:42:51Z</time>
   </trkpt>
   <trkpt lat="-3.1024870" lon="37.3757980">
    <ele>4490.1</ele>
    <time>2026-06-22T11:42:52Z</time>
   </trkpt>
   <trkpt lat="-3.1024920" lon="37.3758040">
    <ele>4490.2</ele>
    <time>2026-06-22T11:42:53Z</time>
   </trkpt>
   <trkpt lat="-3.1024930" lon="37.3758060">
    <ele>4490.3</ele>
    <time>2026-06-22T11:42:54Z</time>
   </trkpt>
   <trkpt lat="-3.1024940" lon="37.3758120">
    <ele>4490.4</ele>
    <time>2026-06-22T11:42:55Z</time>
   </trkpt>
   <trkpt lat="-3.1024930" lon="37.3758150">
    <ele>4490.4</ele>
    <time>2026-06-22T11:42:56Z</time>
   </trkpt>
   <trkpt lat="-3.1024940" lon="37.3758170">
    <ele>4490.5</ele>
    <time>2026-06-22T11:42:57Z</time>
   </trkpt>
   <trkpt lat="-3.1024940" lon="37.3758210">
    <ele>4490.5</ele>
    <time>2026-06-22T11:42:58Z</time>
   </trkpt>
   <trkpt lat="-3.1024950" lon="37.3758230">
    <ele>4490.6</ele>
    <time>2026-06-22T11:42:59Z</time>
   </trkpt>
   <trkpt lat="-3.1024950" lon="37.3758250">
    <ele>4490.6</ele>
    <time>2026-06-22T11:43:00Z</time>
   </trkpt>
   <trkpt lat="-3.1024960" lon="37.3758290">
    <ele>4490.6</ele>
    <time>2026-06-22T11:43:01Z</time>
   </trkpt>
   <trkpt lat="-3.1024950" lon="37.3758320">
    <ele>4490.7</ele>
    <time>2026-06-22T11:43:02Z</time>
   </trkpt>
   <trkpt lat="-3.1024960" lon="37.3758370">
    <ele>4490.8</ele>
    <time>2026-06-22T11:43:03Z</time>
   </trkpt>
   <trkpt lat="-3.1024970" lon="37.3758390">
    <ele>4490.8</ele>
    <time>2026-06-22T11:43:04Z</time>
   </trkpt>
   <trkpt lat="-3.1024990" lon="37.3758410">
    <ele>4490.9</ele>
    <time>2026-06-22T11:43:05Z</time>
   </trkpt>
   <trkpt lat="-3.1024990" lon="37.3758440">
    <ele>4490.9</ele>
    <time>2026-06-22T11:43:06Z</time>
   </trkpt>
   <trkpt lat="-3.1024990" lon="37.3758460">
    <ele>4490.9</ele>
    <time>2026-06-22T11:43:07Z</time>
   </trkpt>
   <trkpt lat="-3.1025000" lon="37.3758520">
    <ele>4491.0</ele>
    <time>2026-06-22T11:43:08Z</time>
   </trkpt>
   <trkpt lat="-3.1024970" lon="37.3758530">
    <ele>4491.1</ele>
    <time>2026-06-22T11:43:09Z</time>
   </trkpt>
   <trkpt lat="-3.1024940" lon="37.3758530">
    <ele>4491.1</ele>
    <time>2026-06-22T11:43:10Z</time>
   </trkpt>
   <trkpt lat="-3.1024920" lon="37.3758560">
    <ele>4491.2</ele>
    <time>2026-06-22T11:43:11Z</time>
   </trkpt>
   <trkpt lat="-3.1024890" lon="37.3758560">
    <ele>4491.3</ele>
    <time>2026-06-22T11:43:12Z</time>
   </trkpt>
   <trkpt lat="-3.1024860" lon="37.3758570">
    <ele>4491.3</ele>
    <time>2026-06-22T11:43:13Z</time>
   </trkpt>
   <trkpt lat="-3.1024820" lon="37.3758570">
    <ele>4491.4</ele>
    <time>2026-06-22T11:43:14Z</time>
   </trkpt>
   <trkpt lat="-3.1024780" lon="37.3758560">
    <ele>4491.5</ele>
    <time>2026-06-22T11:43:15Z</time>
   </trkpt>
   <trkpt lat="-3.1024750" lon="37.3758600">
    <ele>4491.5</ele>
    <time>2026-06-22T11:43:16Z</time>
   </trkpt>
   <trkpt lat="-3.1024760" lon="37.3758620">
    <ele>4491.6</ele>
    <time>2026-06-22T11:43:17Z</time>
   </trkpt>
   <trkpt lat="-3.1024760" lon="37.3758650">
    <ele>4491.6</ele>
    <time>2026-06-22T11:43:18Z</time>
   </trkpt>
   <trkpt lat="-3.1024790" lon="37.3758680">
    <ele>4491.7</ele>
    <time>2026-06-22T11:43:19Z</time>
   </trkpt>
   <trkpt lat="-3.1024800" lon="37.3758720">
    <ele>4491.8</ele>
    <time>2026-06-22T11:43:20Z</time>
   </trkpt>
   <trkpt lat="-3.1024800" lon="37.3758770">
    <ele>4491.9</ele>
    <time>2026-06-22T11:43:21Z</time>
   </trkpt>
   <trkpt lat="-3.1024800" lon="37.3758790">
    <ele>4491.9</ele>
    <time>2026-06-22T11:43:22Z</time>
   </trkpt>
   <trkpt lat="-3.1024800" lon="37.3758750">
    <ele>4492.0</ele>
    <time>2026-06-22T11:43:23Z</time>
   </trkpt>
   <trkpt lat="-3.1024850" lon="37.3758830">
    <ele>4492.1</ele>
    <time>2026-06-22T11:43:24Z</time>
   </trkpt>
   <trkpt lat="-3.1024860" lon="37.3758840">
    <ele>4492.2</ele>
    <time>2026-06-22T11:43:25Z</time>
   </trkpt>
   <trkpt lat="-3.1024880" lon="37.3758860">
    <ele>4492.2</ele>
    <time>2026-06-22T11:43:26Z</time>
   </trkpt>
   <trkpt lat="-3.1024890" lon="37.3758890">
    <ele>4492.3</ele>
    <time>2026-06-22T11:43:27Z</time>
   </trkpt>
   <trkpt lat="-3.1024920" lon="37.3758920">
    <ele>4492.4</ele>
    <time>2026-06-22T11:43:28Z</time>
   </trkpt>
   <trkpt lat="-3.1024930" lon="37.3758940">
    <ele>4492.4</ele>
    <time>2026-06-22T11:43:29Z</time>
   </trkpt>
   <trkpt lat="-3.1024950" lon="37.3758970">
    <ele>4492.5</ele>
    <time>2026-06-22T11:43:30Z</time>
   </trkpt>
   <trkpt lat="-3.1024970" lon="37.3758970">
    <ele>4492.5</ele>
    <time>2026-06-22T11:43:31Z</time>
   </trkpt>
   <trkpt lat="-3.1025000" lon="37.3759000">
    <ele>4492.6</ele>
    <time>2026-06-22T11:43:32Z</time>
   </trkpt>
   <trkpt lat="-3.1024990" lon="37.3759040">
    <ele>4492.6</ele>
    <time>2026-06-22T11:43:33Z</time>
   </trkpt>
   <trkpt lat="-3.1024970" lon="37.3759060">
    <ele>4492.7</ele>
    <time>2026-06-22T11:43:34Z</time>
   </trkpt>
   <trkpt lat="-3.1024950" lon="37.3759070">
    <ele>4492.7</ele>
    <time>2026-06-22T11:43:35Z</time>
   </trkpt>
   <trkpt lat="-3.1024930" lon="37.3759110">
    <ele>4492.8</ele>
    <time>2026-06-22T11:43:37Z</time>
   </trkpt>
   <trkpt lat="-3.1024940" lon="37.3759150">
    <ele>4492.9</ele>
    <time>2026-06-22T11:43:38Z</time>
   </trkpt>
   <trkpt lat="-3.1024960" lon="37.3759200">
    <ele>4493.0</ele>
    <time>2026-06-22T11:43:39Z</time>
   </trkpt>
   <trkpt lat="-3.1024970" lon="37.3759220">
    <ele>4493.0</ele>
    <time>2026-06-22T11:43:40Z</time>
   </trkpt>
   <trkpt lat="-3.1024970" lon="37.3759260">
    <ele>4493.1</ele>
    <time>2026-06-22T11:43:41Z</time>
   </trkpt>
   <trkpt lat="-3.1024980" lon="37.3759300">
    <ele>4493.2</ele>
    <time>2026-06-22T11:43:42Z</time>
   </trkpt>
   <trkpt lat="-3.1024970" lon="37.3759320">
    <ele>4493.3</ele>
    <time>2026-06-22T11:43:43Z</time>
   </trkpt>
   <trkpt lat="-3.1024960" lon="37.3759340">
    <ele>4493.3</ele>
    <time>2026-06-22T11:43:44Z</time>
   </trkpt>
   <trkpt lat="-3.1024960" lon="37.3759370">
    <ele>4493.4</ele>
    <time>2026-06-22T11:43:45Z</time>
   </trkpt>
   <trkpt lat="-3.1024930" lon="37.3759390">
    <ele>4493.4</ele>
    <time>2026-06-22T11:43:46Z</time>
   </trkpt>
   <trkpt lat="-3.1024930" lon="37.3759410">
    <ele>4493.5</ele>
    <time>2026-06-22T11:43:47Z</time>
   </trkpt>
   <trkpt lat="-3.1024900" lon="37.3759430">
    <ele>4493.5</ele>
    <time>2026-06-22T11:43:48Z</time>
   </trkpt>
   <trkpt lat="-3.1024880" lon="37.3759480">
    <ele>4493.6</ele>
    <time>2026-06-22T11:43:49Z</time>
   </trkpt>
   <trkpt lat="-3.1024880" lon="37.3759510">
    <ele>4493.7</ele>
    <time>2026-06-22T11:43:50Z</time>
   </trkpt>
   <trkpt lat="-3.1024830" lon="37.3759530">
    <ele>4493.8</ele>
    <time>2026-06-22T11:43:51Z</time>
   </trkpt>
   <trkpt lat="-3.1024830" lon="37.3759570">
    <ele>4493.9</ele>
    <time>2026-06-22T11:43:52Z</time>
   </trkpt>
   <trkpt lat="-3.1024800" lon="37.3759600">
    <ele>4494.0</ele>
    <time>2026-06-22T11:43:53Z</time>
   </trkpt>
   <trkpt lat="-3.1024770" lon="37.3759600">
    <ele>4494.0</ele>
    <time>2026-06-22T11:43:54Z</time>
   </trkpt>
   <trkpt lat="-3.1024760" lon="37.3759670">
    <ele>4494.2</ele>
    <time>2026-06-22T11:43:55Z</time>
   </trkpt>
   <trkpt lat="-3.1024770" lon="37.3759690">
    <ele>4494.2</ele>
    <time>2026-06-22T11:43:56Z</time>
   </trkpt>
   <trkpt lat="-3.1024770" lon="37.3759730">
    <ele>4494.3</ele>
    <time>2026-06-22T11:43:57Z</time>
   </trkpt>
   <trkpt lat="-3.1024790" lon="37.3759750">
    <ele>4494.4</ele>
    <time>2026-06-22T11:43:58Z</time>
   </trkpt>
   <trkpt lat="-3.1024820" lon="37.3759790">
    <ele>4494.5</ele>
    <time>2026-06-22T11:43:59Z</time>
   </trkpt>
   <trkpt lat="-3.1024840" lon="37.3759800">
    <ele>4494.5</ele>
    <time>2026-06-22T11:44:00Z</time>
   </trkpt>
   <trkpt lat="-3.1024880" lon="37.3759830">
    <ele>4494.6</ele>
    <time>2026-06-22T11:44:01Z</time>
   </trkpt>
   <trkpt lat="-3.1024890" lon="37.3759840">
    <ele>4494.6</ele>
    <time>2026-06-22T11:44:02Z</time>
   </trkpt>
   <trkpt lat="-3.1024910" lon="37.3759850">
    <ele>4494.7</ele>
    <time>2026-06-22T11:44:03Z</time>
   </trkpt>
   <trkpt lat="-3.1024940" lon="37.3759890">
    <ele>4494.8</ele>
    <time>2026-06-22T11:44:04Z</time>
   </trkpt>
   <trkpt lat="-3.1024950" lon="37.3759900">
    <ele>4494.8</ele>
    <time>2026-06-22T11:44:05Z</time>
   </trkpt>
   <trkpt lat="-3.1024970" lon="37.3759920">
    <ele>4494.9</ele>
    <time>2026-06-22T11:44:06Z</time>
   </trkpt>
   <trkpt lat="-3.1024980" lon="37.3759950">
    <ele>4494.9</ele>
    <time>2026-06-22T11:44:07Z</time>
   </trkpt>
   <trkpt lat="-3.1024990" lon="37.3759990">
    <ele>4495.0</ele>
    <time>2026-06-22T11:44:08Z</time>
   </trkpt>
   <trkpt lat="-3.1024990" lon="37.3760010">
    <ele>4495.1</ele>
    <time>2026-06-22T11:44:09Z</time>
   </trkpt>
   <trkpt lat="-3.1025000" lon="37.3760050">
    <ele>4495.2</ele>
    <time>2026-06-22T11:44:10Z</time>
   </trkpt>
   <trkpt lat="-3.1025010" lon="37.3760070">
    <ele>4495.2</ele>
    <time>2026-06-22T11:44:11Z</time>
   </trkpt>
   <trkpt lat="-3.1025000" lon="37.3760080">
    <ele>4495.2</ele>
    <time>2026-06-22T11:44:12Z</time>
   </trkpt>
   <trkpt lat="-3.1025000" lon="37.3760110">
    <ele>4495.3</ele>
    <time>2026-06-22T11:44:13Z</time>
   </trkpt>
   <trkpt lat="-3.1024990" lon="37.3760130">
    <ele>4495.3</ele>
    <time>2026-06-22T11:44:14Z</time>
   </trkpt>
   <trkpt lat="-3.1024970" lon="37.3760150">
    <ele>4495.4</ele>
    <time>2026-06-22T11:44:15Z</time>
   </trkpt>
   <trkpt lat="-3.1024970" lon="37.3760200">
    <ele>4495.5</ele>
    <time>2026-06-22T11:44:16Z</time>
   </trkpt>
   <trkpt lat="-3.1024950" lon="37.3760220">
    <ele>4495.6</ele>
    <time>2026-06-22T11:44:17Z</time>
   </trkpt>
   <trkpt lat="-3.1024950" lon="37.3760270">
    <ele>4495.7</ele>
    <time>2026-06-22T11:44:18Z</time>
   </trkpt>
   <trkpt lat="-3.1024940" lon="37.3760290">
    <ele>4495.7</ele>
    <time>2026-06-22T11:44:19Z</time>
   </trkpt>
   <trkpt lat="-3.1024950" lon="37.3760330">
    <ele>4495.8</ele>
    <time>2026-06-22T11:44:20Z</time>
   </trkpt>
   <trkpt lat="-3.1024930" lon="37.3760370">
    <ele>4495.9</ele>
    <time>2026-06-22T11:44:21Z</time>
   </trkpt>
   <trkpt lat="-3.1024940" lon="37.3760380">
    <ele>4495.9</ele>
    <time>2026-06-22T11:44:22Z</time>
   </trkpt>
   <trkpt lat="-3.1024950" lon="37.3760430">
    <ele>4496.0</ele>
    <time>2026-06-22T11:44:23Z</time>
   </trkpt>
   <trkpt lat="-3.1024980" lon="37.3760440">
    <ele>4496.1</ele>
    <time>2026-06-22T11:44:24Z</time>
   </trkpt>
   <trkpt lat="-3.1024990" lon="37.3760450">
    <ele>4496.1</ele>
    <time>2026-06-22T11:44:25Z</time>
   </trkpt>
   <trkpt lat="-3.1025030" lon="37.3760480">
    <ele>4496.3</ele>
    <time>2026-06-22T11:44:26Z</time>
   </trkpt>
   <trkpt lat="-3.1025050" lon="37.3760500">
    <ele>4496.3</ele>
    <time>2026-06-22T11:44:27Z</time>
   </trkpt>
   <trkpt lat="-3.1025070" lon="37.3760510">
    <ele>4496.4</ele>
    <time>2026-06-22T11:44:28Z</time>
   </trkpt>
   <trkpt lat="-3.1025100" lon="37.3760540">
    <ele>4496.5</ele>
    <time>2026-06-22T11:44:29Z</time>
   </trkpt>
   <trkpt lat="-3.1025120" lon="37.3760570">
    <ele>4496.5</ele>
    <time>2026-06-22T11:44:30Z</time>
   </trkpt>
   <trkpt lat="-3.1025120" lon="37.3760590">
    <ele>4496.6</ele>
    <time>2026-06-22T11:44:31Z</time>
   </trkpt>
   <trkpt lat="-3.1025120" lon="37.3760630">
    <ele>4496.7</ele>
    <time>2026-06-22T11:44:32Z</time>
   </trkpt>
   <trkpt lat="-3.1025100" lon="37.3760630">
    <ele>4496.7</ele>
    <time>2026-06-22T11:44:33Z</time>
   </trkpt>
   <trkpt lat="-3.1025070" lon="37.3760670">
    <ele>4496.8</ele>
    <time>2026-06-22T11:44:34Z</time>
   </trkpt>
   <trkpt lat="-3.1025060" lon="37.3760680">
    <ele>4496.9</ele>
    <time>2026-06-22T11:44:35Z</time>
   </trkpt>
   <trkpt lat="-3.1025060" lon="37.3760710">
    <ele>4496.9</ele>
    <time>2026-06-22T11:44:36Z</time>
   </trkpt>
   <trkpt lat="-3.1025060" lon="37.3760740">
    <ele>4497.0</ele>
    <time>2026-06-22T11:44:37Z</time>
   </trkpt>
   <trkpt lat="-3.1025080" lon="37.3760770">
    <ele>4497.1</ele>
    <time>2026-06-22T11:44:38Z</time>
   </trkpt>
   <trkpt lat="-3.1025090" lon="37.3760790">
    <ele>4497.1</ele>
    <time>2026-06-22T11:44:39Z</time>
   </trkpt>
   <trkpt lat="-3.1025090" lon="37.3760810">
    <ele>4497.2</ele>
    <time>2026-06-22T11:44:40Z</time>
   </trkpt>
   <trkpt lat="-3.1025120" lon="37.3760850">
    <ele>4497.3</ele>
    <time>2026-06-22T11:44:41Z</time>
   </trkpt>
   <trkpt lat="-3.1025130" lon="37.3760870">
    <ele>4497.3</ele>
    <time>2026-06-22T11:44:42Z</time>
   </trkpt>
   <trkpt lat="-3.1025130" lon="37.3760880">
    <ele>4497.4</ele>
    <time>2026-06-22T11:44:43Z</time>
   </trkpt>
   <trkpt lat="-3.1025130" lon="37.3760910">
    <ele>4497.4</ele>
    <time>2026-06-22T11:44:44Z</time>
   </trkpt>
   <trkpt lat="-3.1025130" lon="37.3760940">
    <ele>4497.5</ele>
    <time>2026-06-22T11:44:45Z</time>
   </trkpt>
   <trkpt lat="-3.1025120" lon="37.3760950">
    <ele>4497.5</ele>
    <time>2026-06-22T11:44:46Z</time>
   </trkpt>
   <trkpt lat="-3.1025120" lon="37.3760990">
    <ele>4497.6</ele>
    <time>2026-06-22T11:44:47Z</time>
   </trkpt>
   <trkpt lat="-3.1025110" lon="37.3761010">
    <ele>4497.7</ele>
    <time>2026-06-22T11:44:48Z</time>
   </trkpt>
   <trkpt lat="-3.1025130" lon="37.3761050">
    <ele>4497.8</ele>
    <time>2026-06-22T11:44:49Z</time>
   </trkpt>
   <trkpt lat="-3.1025130" lon="37.3761090">
    <ele>4497.9</ele>
    <time>2026-06-22T11:44:50Z</time>
   </trkpt>
   <trkpt lat="-3.1025150" lon="37.3761100">
    <ele>4497.9</ele>
    <time>2026-06-22T11:44:51Z</time>
   </trkpt>
   <trkpt lat="-3.1025170" lon="37.3761130">
    <ele>4498.0</ele>
    <time>2026-06-22T11:44:52Z</time>
   </trkpt>
   <trkpt lat="-3.1025190" lon="37.3761170">
    <ele>4498.1</ele>
    <time>2026-06-22T11:44:53Z</time>
   </trkpt>
   <trkpt lat="-3.1025200" lon="37.3761180">
    <ele>4498.1</ele>
    <time>2026-06-22T11:44:54Z</time>
   </trkpt>
   <trkpt lat="-3.1025220" lon="37.3761210">
    <ele>4498.2</ele>
    <time>2026-06-22T11:44:55Z</time>
   </trkpt>
   <trkpt lat="-3.1025230" lon="37.3761250">
    <ele>4498.3</ele>
    <time>2026-06-22T11:44:56Z</time>
   </trkpt>
   <trkpt lat="-3.1025210" lon="37.3761270">
    <ele>4498.4</ele>
    <time>2026-06-22T11:44:57Z</time>
   </trkpt>
   <trkpt lat="-3.1025190" lon="37.3761290">
    <ele>4498.4</ele>
    <time>2026-06-22T11:44:58Z</time>
   </trkpt>
   <trkpt lat="-3.1025200" lon="37.3761300">
    <ele>4498.4</ele>
    <time>2026-06-22T11:44:59Z</time>
   </trkpt>
   <trkpt lat="-3.1025170" lon="37.3761330">
    <ele>4498.5</ele>
    <time>2026-06-22T11:45:00Z</time>
   </trkpt>
   <trkpt lat="-3.1025130" lon="37.3761370">
    <ele>4498.7</ele>
    <time>2026-06-22T11:45:01Z</time>
   </trkpt>
   <trkpt lat="-3.1025140" lon="37.3761370">
    <ele>4498.7</ele>
    <time>2026-06-22T11:45:02Z</time>
   </trkpt>
   <trkpt lat="-3.1025110" lon="37.3761450">
    <ele>4498.9</ele>
    <time>2026-06-22T11:45:03Z</time>
   </trkpt>
   <trkpt lat="-3.1025120" lon="37.3761490">
    <ele>4499.0</ele>
    <time>2026-06-22T11:45:04Z</time>
   </trkpt>
   <trkpt lat="-3.1025130" lon="37.3761510">
    <ele>4499.0</ele>
    <time>2026-06-22T11:45:05Z</time>
   </trkpt>
   <trkpt lat="-3.1025130" lon="37.3761570">
    <ele>4499.2</ele>
    <time>2026-06-22T11:45:06Z</time>
   </trkpt>
   <trkpt lat="-3.1025110" lon="37.3761570">
    <ele>4499.2</ele>
    <time>2026-06-22T11:45:07Z</time>
   </trkpt>
   <trkpt lat="-3.1025090" lon="37.3761610">
    <ele>4499.3</ele>
    <time>2026-06-22T11:45:08Z</time>
   </trkpt>
   <trkpt lat="-3.1025060" lon="37.3761640">
    <ele>4499.4</ele>
    <time>2026-06-22T11:45:09Z</time>
   </trkpt>
   <trkpt lat="-3.1025030" lon="37.3761660">
    <ele>4499.5</ele>
    <time>2026-06-22T11:45:10Z</time>
   </trkpt>
   <trkpt lat="-3.1024990" lon="37.3761700">
    <ele>4499.7</ele>
    <time>2026-06-22T11:45:11Z</time>
   </trkpt>
   <trkpt lat="-3.1024990" lon="37.3761690">
    <ele>4499.7</ele>
    <time>2026-06-22T11:45:12Z</time>
   </trkpt>
   <trkpt lat="-3.1024950" lon="37.3761720">
    <ele>4499.8</ele>
    <time>2026-06-22T11:45:13Z</time>
   </trkpt>
   <trkpt lat="-3.1024910" lon="37.3761720">
    <ele>4499.9</ele>
    <time>2026-06-22T11:45:14Z</time>
   </trkpt>
   <trkpt lat="-3.1024870" lon="37.3761740">
    <ele>4500.0</ele>
    <time>2026-06-22T11:45:15Z</time>
   </trkpt>
   <trkpt lat="-3.1024840" lon="37.3761750">
    <ele>4500.1</ele>
    <time>2026-06-22T11:45:16Z</time>
   </trkpt>
   <trkpt lat="-3.1024820" lon="37.3761780">
    <ele>4500.2</ele>
    <time>2026-06-22T11:45:17Z</time>
   </trkpt>
   <trkpt lat="-3.1024780" lon="37.3761780">
    <ele>4500.3</ele>
    <time>2026-06-22T11:45:18Z</time>
   </trkpt>
   <trkpt lat="-3.1024750" lon="37.3761810">
    <ele>4500.4</ele>
    <time>2026-06-22T11:45:19Z</time>
   </trkpt>
   <trkpt lat="-3.1024720" lon="37.3761840">
    <ele>4500.5</ele>
    <time>2026-06-22T11:45:20Z</time>
   </trkpt>
   <trkpt lat="-3.1024700" lon="37.3761830">
    <ele>4500.5</ele>
    <time>2026-06-22T11:45:21Z</time>
   </trkpt>
   <trkpt lat="-3.1024700" lon="37.3761890">
    <ele>4500.7</ele>
    <time>2026-06-22T11:45:22Z</time>
   </trkpt>
   <trkpt lat="-3.1024690" lon="37.3761910">
    <ele>4500.7</ele>
    <time>2026-06-22T11:45:23Z</time>
   </trkpt>
   <trkpt lat="-3.1024690" lon="37.3761970">
    <ele>4500.9</ele>
    <time>2026-06-22T11:45:24Z</time>
   </trkpt>
   <trkpt lat="-3.1024700" lon="37.3762010">
    <ele>4501.0</ele>
    <time>2026-06-22T11:45:25Z</time>
   </trkpt>
   <trkpt lat="-3.1024720" lon="37.3762040">
    <ele>4501.1</ele>
    <time>2026-06-22T11:45:26Z</time>
   </trkpt>
   <trkpt lat="-3.1024740" lon="37.3762080">
    <ele>4501.2</ele>
    <time>2026-06-22T11:45:27Z</time>
   </trkpt>
   <trkpt lat="-3.1024760" lon="37.3762100">
    <ele>4501.2</ele>
    <time>2026-06-22T11:45:28Z</time>
   </trkpt>
   <trkpt lat="-3.1024770" lon="37.3762130">
    <ele>4501.3</ele>
    <time>2026-06-22T11:45:29Z</time>
   </trkpt>
   <trkpt lat="-3.1024790" lon="37.3762140">
    <ele>4501.4</ele>
    <time>2026-06-22T11:45:30Z</time>
   </trkpt>
   <trkpt lat="-3.1024790" lon="37.3762160">
    <ele>4501.4</ele>
    <time>2026-06-22T11:45:31Z</time>
   </trkpt>
   <trkpt lat="-3.1024780" lon="37.3762210">
    <ele>4501.5</ele>
    <time>2026-06-22T11:45:32Z</time>
   </trkpt>
   <trkpt lat="-3.1024770" lon="37.3762210">
    <ele>4501.6</ele>
    <time>2026-06-22T11:45:33Z</time>
   </trkpt>
   <trkpt lat="-3.1024750" lon="37.3762240">
    <ele>4501.6</ele>
    <time>2026-06-22T11:45:34Z</time>
   </trkpt>
   <trkpt lat="-3.1024730" lon="37.3762260">
    <ele>4501.7</ele>
    <time>2026-06-22T11:45:35Z</time>
   </trkpt>
   <trkpt lat="-3.1024700" lon="37.3762290">
    <ele>4501.8</ele>
    <time>2026-06-22T11:45:36Z</time>
   </trkpt>
   <trkpt lat="-3.1024680" lon="37.3762320">
    <ele>4501.9</ele>
    <time>2026-06-22T11:45:37Z</time>
   </trkpt>
   <trkpt lat="-3.1024650" lon="37.3762320">
    <ele>4502.0</ele>
    <time>2026-06-22T11:45:38Z</time>
   </trkpt>
   <trkpt lat="-3.1024630" lon="37.3762360">
    <ele>4502.1</ele>
    <time>2026-06-22T11:45:39Z</time>
   </trkpt>
   <trkpt lat="-3.1024590" lon="37.3762380">
    <ele>4502.2</ele>
    <time>2026-06-22T11:45:40Z</time>
   </trkpt>
   <trkpt lat="-3.1024570" lon="37.3762390">
    <ele>4502.2</ele>
    <time>2026-06-22T11:45:41Z</time>
   </trkpt>
   <trkpt lat="-3.1024540" lon="37.3762390">
    <ele>4502.3</ele>
    <time>2026-06-22T11:45:43Z</time>
   </trkpt>
   <trkpt lat="-3.1024500" lon="37.3762420">
    <ele>4502.4</ele>
    <time>2026-06-22T11:45:44Z</time>
   </trkpt>
   <trkpt lat="-3.1024470" lon="37.3762420">
    <ele>4502.5</ele>
    <time>2026-06-22T11:45:45Z</time>
   </trkpt>
   <trkpt lat="-3.1024470" lon="37.3762440">
    <ele>4502.5</ele>
    <time>2026-06-22T11:45:46Z</time>
   </trkpt>
   <trkpt lat="-3.1024470" lon="37.3762450">
    <ele>4502.6</ele>
    <time>2026-06-22T11:45:47Z</time>
   </trkpt>
   <trkpt lat="-3.1024460" lon="37.3762460">
    <ele>4502.6</ele>
    <time>2026-06-22T11:45:48Z</time>
   </trkpt>
   <trkpt lat="-3.1024470" lon="37.3762510">
    <ele>4502.7</ele>
    <time>2026-06-22T11:45:49Z</time>
   </trkpt>
   <trkpt lat="-3.1024480" lon="37.3762530">
    <ele>4502.8</ele>
    <time>2026-06-22T11:45:50Z</time>
   </trkpt>
   <trkpt lat="-3.1024500" lon="37.3762540">
    <ele>4502.8</ele>
    <time>2026-06-22T11:45:51Z</time>
   </trkpt>
   <trkpt lat="-3.1024520" lon="37.3762570">
    <ele>4502.9</ele>
    <time>2026-06-22T11:45:52Z</time>
   </trkpt>
   <trkpt lat="-3.1024540" lon="37.3762580">
    <ele>4503.0</ele>
    <time>2026-06-22T11:45:53Z</time>
   </trkpt>
   <trkpt lat="-3.1024550" lon="37.3762610">
    <ele>4503.1</ele>
    <time>2026-06-22T11:45:54Z</time>
   </trkpt>
   <trkpt lat="-3.1024560" lon="37.3762640">
    <ele>4503.1</ele>
    <time>2026-06-22T11:45:55Z</time>
   </trkpt>
   <trkpt lat="-3.1024570" lon="37.3762680">
    <ele>4503.2</ele>
    <time>2026-06-22T11:45:56Z</time>
   </trkpt>
   <trkpt lat="-3.1024560" lon="37.3762700">
    <ele>4503.3</ele>
    <time>2026-06-22T11:45:57Z</time>
   </trkpt>
   <trkpt lat="-3.1024550" lon="37.3762740">
    <ele>4503.4</ele>
    <time>2026-06-22T11:45:58Z</time>
   </trkpt>
   <trkpt lat="-3.1024530" lon="37.3762760">
    <ele>4503.5</ele>
    <time>2026-06-22T11:45:59Z</time>
   </trkpt>
   <trkpt lat="-3.1024520" lon="37.3762780">
    <ele>4503.5</ele>
    <time>2026-06-22T11:46:00Z</time>
   </trkpt>
   <trkpt lat="-3.1024510" lon="37.3762820">
    <ele>4503.6</ele>
    <time>2026-06-22T11:46:01Z</time>
   </trkpt>
   <trkpt lat="-3.1024480" lon="37.3762840">
    <ele>4503.7</ele>
    <time>2026-06-22T11:46:02Z</time>
   </trkpt>
   <trkpt lat="-3.1024440" lon="37.3762880">
    <ele>4503.9</ele>
    <time>2026-06-22T11:46:03Z</time>
   </trkpt>
   <trkpt lat="-3.1024430" lon="37.3762900">
    <ele>4503.9</ele>
    <time>2026-06-22T11:46:04Z</time>
   </trkpt>
   <trkpt lat="-3.1024410" lon="37.3762910">
    <ele>4504.0</ele>
    <time>2026-06-22T11:46:05Z</time>
   </trkpt>
   <trkpt lat="-3.1024390" lon="37.3762930">
    <ele>4504.0</ele>
    <time>2026-06-22T11:46:06Z</time>
   </trkpt>
   <trkpt lat="-3.1024370" lon="37.3762940">
    <ele>4504.1</ele>
    <time>2026-06-22T11:46:07Z</time>
   </trkpt>
   <trkpt lat="-3.1024350" lon="37.3762960">
    <ele>4504.2</ele>
    <time>2026-06-22T11:46:08Z</time>
   </trkpt>
   <trkpt lat="-3.1024350" lon="37.3762980">
    <ele>4504.2</ele>
    <time>2026-06-22T11:46:09Z</time>
   </trkpt>
   <trkpt lat="-3.1024310" lon="37.3763010">
    <ele>4504.4</ele>
    <time>2026-06-22T11:46:10Z</time>
   </trkpt>
   <trkpt lat="-3.1024300" lon="37.3763030">
    <ele>4504.4</ele>
    <time>2026-06-22T11:46:11Z</time>
   </trkpt>
   <trkpt lat="-3.1024270" lon="37.3763060">
    <ele>4504.5</ele>
    <time>2026-06-22T11:46:12Z</time>
   </trkpt>
   <trkpt lat="-3.1024250" lon="37.3763130">
    <ele>4504.7</ele>
    <time>2026-06-22T11:46:13Z</time>
   </trkpt>
   <trkpt lat="-3.1024240" lon="37.3763150">
    <ele>4504.8</ele>
    <time>2026-06-22T11:46:14Z</time>
   </trkpt>
   <trkpt lat="-3.1024230" lon="37.3763180">
    <ele>4504.8</ele>
    <time>2026-06-22T11:46:15Z</time>
   </trkpt>
   <trkpt lat="-3.1024240" lon="37.3763230">
    <ele>4505.0</ele>
    <time>2026-06-22T11:46:16Z</time>
   </trkpt>
   <trkpt lat="-3.1024240" lon="37.3763280">
    <ele>4505.1</ele>
    <time>2026-06-22T11:46:17Z</time>
   </trkpt>
   <trkpt lat="-3.1024240" lon="37.3763300">
    <ele>4505.1</ele>
    <time>2026-06-22T11:46:18Z</time>
   </trkpt>
   <trkpt lat="-3.1024230" lon="37.3763340">
    <ele>4505.2</ele>
    <time>2026-06-22T11:46:19Z</time>
   </trkpt>
   <trkpt lat="-3.1024220" lon="37.3763360">
    <ele>4505.3</ele>
    <time>2026-06-22T11:46:20Z</time>
   </trkpt>
   <trkpt lat="-3.1024230" lon="37.3763390">
    <ele>4505.4</ele>
    <time>2026-06-22T11:46:21Z</time>
   </trkpt>
   <trkpt lat="-3.1024230" lon="37.3763440">
    <ele>4505.5</ele>
    <time>2026-06-22T11:46:22Z</time>
   </trkpt>
   <trkpt lat="-3.1024240" lon="37.3763460">
    <ele>4505.6</ele>
    <time>2026-06-22T11:46:23Z</time>
   </trkpt>
   <trkpt lat="-3.1024240" lon="37.3763490">
    <ele>4505.6</ele>
    <time>2026-06-22T11:46:24Z</time>
   </trkpt>
   <trkpt lat="-3.1024270" lon="37.3763500">
    <ele>4505.7</ele>
    <time>2026-06-22T11:46:25Z</time>
   </trkpt>
   <trkpt lat="-3.1024300" lon="37.3763550">
    <ele>4505.9</ele>
    <time>2026-06-22T11:46:26Z</time>
   </trkpt>
   <trkpt lat="-3.1024320" lon="37.3763540">
    <ele>4505.9</ele>
    <time>2026-06-22T11:46:27Z</time>
   </trkpt>
   <trkpt lat="-3.1024360" lon="37.3763600">
    <ele>4506.1</ele>
    <time>2026-06-22T11:46:28Z</time>
   </trkpt>
   <trkpt lat="-3.1024390" lon="37.3763600">
    <ele>4506.2</ele>
    <time>2026-06-22T11:46:29Z</time>
   </trkpt>
   <trkpt lat="-3.1024410" lon="37.3763630">
    <ele>4506.3</ele>
    <time>2026-06-22T11:46:30Z</time>
   </trkpt>
   <trkpt lat="-3.1024440" lon="37.3763630">
    <ele>4506.4</ele>
    <time>2026-06-22T11:46:31Z</time>
   </trkpt>
   <trkpt lat="-3.1024470" lon="37.3763680">
    <ele>4506.5</ele>
    <time>2026-06-22T11:46:32Z</time>
   </trkpt>
   <trkpt lat="-3.1024500" lon="37.3763710">
    <ele>4506.6</ele>
    <time>2026-06-22T11:46:33Z</time>
   </trkpt>
   <trkpt lat="-3.1024520" lon="37.3763740">
    <ele>4506.7</ele>
    <time>2026-06-22T11:46:34Z</time>
   </trkpt>
   <trkpt lat="-3.1024530" lon="37.3763750">
    <ele>4506.7</ele>
    <time>2026-06-22T11:46:35Z</time>
   </trkpt>
   <trkpt lat="-3.1024540" lon="37.3763790">
    <ele>4506.8</ele>
    <time>2026-06-22T11:46:36Z</time>
   </trkpt>
   <trkpt lat="-3.1024550" lon="37.3763820">
    <ele>4506.9</ele>
    <time>2026-06-22T11:46:37Z</time>
   </trkpt>
   <trkpt lat="-3.1024540" lon="37.3763870">
    <ele>4507.1</ele>
    <time>2026-06-22T11:46:38Z</time>
   </trkpt>
   <trkpt lat="-3.1024510" lon="37.3763920">
    <ele>4507.2</ele>
    <time>2026-06-22T11:46:39Z</time>
   </trkpt>
   <trkpt lat="-3.1024500" lon="37.3763910">
    <ele>4507.2</ele>
    <time>2026-06-22T11:46:40Z</time>
   </trkpt>
   <trkpt lat="-3.1024490" lon="37.3763910">
    <ele>4507.3</ele>
    <time>2026-06-22T11:46:41Z</time>
   </trkpt>
   <trkpt lat="-3.1024480" lon="37.3763910">
    <ele>4507.3</ele>
    <time>2026-06-22T11:46:42Z</time>
   </trkpt>
   <trkpt lat="-3.1024480" lon="37.3763910">
    <ele>4507.3</ele>
    <time>2026-06-22T11:46:43Z</time>
   </trkpt>
   <trkpt lat="-3.1024480" lon="37.3763930">
    <ele>4507.3</ele>
    <time>2026-06-22T11:46:44Z</time>
   </trkpt>
   <trkpt lat="-3.1024430" lon="37.3763950">
    <ele>4507.5</ele>
    <time>2026-06-22T11:46:45Z</time>
   </trkpt>
   <trkpt lat="-3.1024450" lon="37.3763990">
    <ele>4507.6</ele>
    <time>2026-06-22T11:46:46Z</time>
   </trkpt>
   <trkpt lat="-3.1024420" lon="37.3763970">
    <ele>4507.7</ele>
    <time>2026-06-22T11:46:47Z</time>
   </trkpt>
   <trkpt lat="-3.1024410" lon="37.3763960">
    <ele>4507.7</ele>
    <time>2026-06-22T11:46:48Z</time>
   </trkpt>
   <trkpt lat="-3.1024400" lon="37.3764000">
    <ele>4507.8</ele>
    <time>2026-06-22T11:46:49Z</time>
   </trkpt>
   <trkpt lat="-3.1024400" lon="37.3764010">
    <ele>4507.9</ele>
    <time>2026-06-22T11:46:50Z</time>
   </trkpt>
   <trkpt lat="-3.1024380" lon="37.3764060">
    <ele>4508.0</ele>
    <time>2026-06-22T11:46:51Z</time>
   </trkpt>
   <trkpt lat="-3.1024340" lon="37.3764070">
    <ele>4508.1</ele>
    <time>2026-06-22T11:46:52Z</time>
   </trkpt>
   <trkpt lat="-3.1024320" lon="37.3764080">
    <ele>4508.2</ele>
    <time>2026-06-22T11:46:53Z</time>
   </trkpt>
   <trkpt lat="-3.1024310" lon="37.3764080">
    <ele>4508.2</ele>
    <time>2026-06-22T11:46:54Z</time>
   </trkpt>
   <trkpt lat="-3.1024290" lon="37.3764090">
    <ele>4508.2</ele>
    <time>2026-06-22T11:46:55Z</time>
   </trkpt>
   <trkpt lat="-3.1024270" lon="37.3764110">
    <ele>4508.3</ele>
    <time>2026-06-22T11:46:56Z</time>
   </trkpt>
   <trkpt lat="-3.1024230" lon="37.3764130">
    <ele>4508.4</ele>
    <time>2026-06-22T11:46:57Z</time>
   </trkpt>
   <trkpt lat="-3.1024200" lon="37.3764150">
    <ele>4508.5</ele>
    <time>2026-06-22T11:46:58Z</time>
   </trkpt>
   <trkpt lat="-3.1024200" lon="37.3764160">
    <ele>4508.6</ele>
    <time>2026-06-22T11:46:59Z</time>
   </trkpt>
   <trkpt lat="-3.1024180" lon="37.3764210">
    <ele>4508.7</ele>
    <time>2026-06-22T11:47:00Z</time>
   </trkpt>
   <trkpt lat="-3.1024150" lon="37.3764210">
    <ele>4508.8</ele>
    <time>2026-06-22T11:47:01Z</time>
   </trkpt>
   <trkpt lat="-3.1024130" lon="37.3764230">
    <ele>4508.8</ele>
    <time>2026-06-22T11:47:02Z</time>
   </trkpt>
   <trkpt lat="-3.1024120" lon="37.3764270">
    <ele>4508.9</ele>
    <time>2026-06-22T11:47:03Z</time>
   </trkpt>
   <trkpt lat="-3.1024110" lon="37.3764320">
    <ele>4509.1</ele>
    <time>2026-06-22T11:47:04Z</time>
   </trkpt>
   <trkpt lat="-3.1024100" lon="37.3764370">
    <ele>4509.2</ele>
    <time>2026-06-22T11:47:05Z</time>
   </trkpt>
   <trkpt lat="-3.1024100" lon="37.3764420">
    <ele>4509.3</ele>
    <time>2026-06-22T11:47:06Z</time>
   </trkpt>
   <trkpt lat="-3.1024100" lon="37.3764480">
    <ele>4509.5</ele>
    <time>2026-06-22T11:47:07Z</time>
   </trkpt>
   <trkpt lat="-3.1024100" lon="37.3764530">
    <ele>4509.6</ele>
    <time>2026-06-22T11:47:08Z</time>
   </trkpt>
   <trkpt lat="-3.1024120" lon="37.3764550">
    <ele>4509.7</ele>
    <time>2026-06-22T11:47:09Z</time>
   </trkpt>
   <trkpt lat="-3.1024130" lon="37.3764610">
    <ele>4509.8</ele>
    <time>2026-06-22T11:47:10Z</time>
   </trkpt>
   <trkpt lat="-3.1024150" lon="37.3764650">
    <ele>4509.9</ele>
    <time>2026-06-22T11:47:11Z</time>
   </trkpt>
   <trkpt lat="-3.1024180" lon="37.3764660">
    <ele>4510.0</ele>
    <time>2026-06-22T11:47:12Z</time>
   </trkpt>
   <trkpt lat="-3.1024210" lon="37.3764700">
    <ele>4510.2</ele>
    <time>2026-06-22T11:47:13Z</time>
   </trkpt>
   <trkpt lat="-3.1024250" lon="37.3764740">
    <ele>4510.3</ele>
    <time>2026-06-22T11:47:14Z</time>
   </trkpt>
   <trkpt lat="-3.1024270" lon="37.3764780">
    <ele>4510.4</ele>
    <time>2026-06-22T11:47:15Z</time>
   </trkpt>
   <trkpt lat="-3.1024280" lon="37.3764820">
    <ele>4510.5</ele>
    <time>2026-06-22T11:47:16Z</time>
   </trkpt>
   <trkpt lat="-3.1024300" lon="37.3764870">
    <ele>4510.6</ele>
    <time>2026-06-22T11:47:17Z</time>
   </trkpt>
   <trkpt lat="-3.1024310" lon="37.3764910">
    <ele>4510.7</ele>
    <time>2026-06-22T11:47:18Z</time>
   </trkpt>
   <trkpt lat="-3.1024330" lon="37.3764940">
    <ele>4510.8</ele>
    <time>2026-06-22T11:47:19Z</time>
   </trkpt>
   <trkpt lat="-3.1024340" lon="37.3764970">
    <ele>4510.9</ele>
    <time>2026-06-22T11:47:20Z</time>
   </trkpt>
   <trkpt lat="-3.1024330" lon="37.3764990">
    <ele>4511.0</ele>
    <time>2026-06-22T11:47:21Z</time>
   </trkpt>
   <trkpt lat="-3.1024340" lon="37.3765050">
    <ele>4511.1</ele>
    <time>2026-06-22T11:47:22Z</time>
   </trkpt>
   <trkpt lat="-3.1024330" lon="37.3765100">
    <ele>4511.2</ele>
    <time>2026-06-22T11:47:23Z</time>
   </trkpt>
   <trkpt lat="-3.1024350" lon="37.3765130">
    <ele>4511.3</ele>
    <time>2026-06-22T11:47:24Z</time>
   </trkpt>
   <trkpt lat="-3.1024360" lon="37.3765150">
    <ele>4511.4</ele>
    <time>2026-06-22T11:47:25Z</time>
   </trkpt>
   <trkpt lat="-3.1024380" lon="37.3765180">
    <ele>4511.5</ele>
    <time>2026-06-22T11:47:26Z</time>
   </trkpt>
   <trkpt lat="-3.1024400" lon="37.3765210">
    <ele>4511.5</ele>
    <time>2026-06-22T11:47:27Z</time>
   </trkpt>
   <trkpt lat="-3.1024420" lon="37.3765250">
    <ele>4511.6</ele>
    <time>2026-06-22T11:47:28Z</time>
   </trkpt>
   <trkpt lat="-3.1024430" lon="37.3765310">
    <ele>4511.8</ele>
    <time>2026-06-22T11:47:29Z</time>
   </trkpt>
   <trkpt lat="-3.1024430" lon="37.3765310">
    <ele>4511.8</ele>
    <time>2026-06-22T11:47:30Z</time>
   </trkpt>
   <trkpt lat="-3.1024440" lon="37.3765340">
    <ele>4511.9</ele>
    <time>2026-06-22T11:47:31Z</time>
   </trkpt>
   <trkpt lat="-3.1024440" lon="37.3765380">
    <ele>4512.0</ele>
    <time>2026-06-22T11:47:32Z</time>
   </trkpt>
   <trkpt lat="-3.1024460" lon="37.3765410">
    <ele>4512.1</ele>
    <time>2026-06-22T11:47:33Z</time>
   </trkpt>
   <trkpt lat="-3.1024480" lon="37.3765420">
    <ele>4512.1</ele>
    <time>2026-06-22T11:47:34Z</time>
   </trkpt>
   <trkpt lat="-3.1024490" lon="37.3765470">
    <ele>4512.2</ele>
    <time>2026-06-22T11:47:35Z</time>
   </trkpt>
   <trkpt lat="-3.1024480" lon="37.3765500">
    <ele>4512.3</ele>
    <time>2026-06-22T11:47:36Z</time>
   </trkpt>
   <trkpt lat="-3.1024490" lon="37.3765510">
    <ele>4512.3</ele>
    <time>2026-06-22T11:47:37Z</time>
   </trkpt>
   <trkpt lat="-3.1024470" lon="37.3765550">
    <ele>4512.5</ele>
    <time>2026-06-22T11:47:38Z</time>
   </trkpt>
   <trkpt lat="-3.1024440" lon="37.3765560">
    <ele>4512.5</ele>
    <time>2026-06-22T11:47:39Z</time>
   </trkpt>
   <trkpt lat="-3.1024420" lon="37.3765590">
    <ele>4512.6</ele>
    <time>2026-06-22T11:47:40Z</time>
   </trkpt>
   <trkpt lat="-3.1024410" lon="37.3765590">
    <ele>4512.6</ele>
    <time>2026-06-22T11:47:41Z</time>
   </trkpt>
   <trkpt lat="-3.1024400" lon="37.3765580">
    <ele>4512.7</ele>
    <time>2026-06-22T11:47:42Z</time>
   </trkpt>
   <trkpt lat="-3.1024380" lon="37.3765610">
    <ele>4512.8</ele>
    <time>2026-06-22T11:47:43Z</time>
   </trkpt>
   <trkpt lat="-3.1024350" lon="37.3765610">
    <ele>4512.8</ele>
    <time>2026-06-22T11:47:44Z</time>
   </trkpt>
   <trkpt lat="-3.1024320" lon="37.3765630">
    <ele>4512.9</ele>
    <time>2026-06-22T11:47:45Z</time>
   </trkpt>
   <trkpt lat="-3.1024300" lon="37.3765630">
    <ele>4513.0</ele>
    <time>2026-06-22T11:47:46Z</time>
   </trkpt>
   <trkpt lat="-3.1024270" lon="37.3765660">
    <ele>4513.1</ele>
    <time>2026-06-22T11:47:47Z</time>
   </trkpt>
   <trkpt lat="-3.1024250" lon="37.3765660">
    <ele>4513.1</ele>
    <time>2026-06-22T11:47:49Z</time>
   </trkpt>
   <trkpt lat="-3.1024230" lon="37.3765700">
    <ele>4513.2</ele>
    <time>2026-06-22T11:47:50Z</time>
   </trkpt>
   <trkpt lat="-3.1024210" lon="37.3765730">
    <ele>4513.3</ele>
    <time>2026-06-22T11:47:51Z</time>
   </trkpt>
   <trkpt lat="-3.1024190" lon="37.3765740">
    <ele>4513.4</ele>
    <time>2026-06-22T11:47:52Z</time>
   </trkpt>
   <trkpt lat="-3.1024160" lon="37.3765770">
    <ele>4513.5</ele>
    <time>2026-06-22T11:47:53Z</time>
   </trkpt>
   <trkpt lat="-3.1024140" lon="37.3765820">
    <ele>4513.6</ele>
    <time>2026-06-22T11:47:54Z</time>
   </trkpt>
   <trkpt lat="-3.1024130" lon="37.3765820">
    <ele>4513.6</ele>
    <time>2026-06-22T11:47:55Z</time>
   </trkpt>
   <trkpt lat="-3.1024110" lon="37.3765860">
    <ele>4513.7</ele>
    <time>2026-06-22T11:47:56Z</time>
   </trkpt>
   <trkpt lat="-3.1024110" lon="37.3765890">
    <ele>4513.8</ele>
    <time>2026-06-22T11:47:57Z</time>
   </trkpt>
   <trkpt lat="-3.1024130" lon="37.3765920">
    <ele>4513.9</ele>
    <time>2026-06-22T11:47:58Z</time>
   </trkpt>
   <trkpt lat="-3.1024130" lon="37.3765960">
    <ele>4514.0</ele>
    <time>2026-06-22T11:47:59Z</time>
   </trkpt>
   <trkpt lat="-3.1024120" lon="37.3765970">
    <ele>4514.0</ele>
    <time>2026-06-22T11:48:00Z</time>
   </trkpt>
   <trkpt lat="-3.1024130" lon="37.3766000">
    <ele>4514.1</ele>
    <time>2026-06-22T11:48:01Z</time>
   </trkpt>
   <trkpt lat="-3.1024150" lon="37.3766040">
    <ele>4514.2</ele>
    <time>2026-06-22T11:48:02Z</time>
   </trkpt>
   <trkpt lat="-3.1024150" lon="37.3766040">
    <ele>4514.2</ele>
    <time>2026-06-22T11:48:03Z</time>
   </trkpt>
   <trkpt lat="-3.1024170" lon="37.3766080">
    <ele>4514.3</ele>
    <time>2026-06-22T11:48:04Z</time>
   </trkpt>
   <trkpt lat="-3.1024180" lon="37.3766100">
    <ele>4514.4</ele>
    <time>2026-06-22T11:48:05Z</time>
   </trkpt>
   <trkpt lat="-3.1024170" lon="37.3766140">
    <ele>4514.5</ele>
    <time>2026-06-22T11:48:06Z</time>
   </trkpt>
   <trkpt lat="-3.1024180" lon="37.3766180">
    <ele>4514.6</ele>
    <time>2026-06-22T11:48:07Z</time>
   </trkpt>
   <trkpt lat="-3.1024180" lon="37.3766210">
    <ele>4514.6</ele>
    <time>2026-06-22T11:48:08Z</time>
   </trkpt>
   <trkpt lat="-3.1024180" lon="37.3766230">
    <ele>4514.7</ele>
    <time>2026-06-22T11:48:09Z</time>
   </trkpt>
   <trkpt lat="-3.1024200" lon="37.3766270">
    <ele>4514.8</ele>
    <time>2026-06-22T11:48:10Z</time>
   </trkpt>
   <trkpt lat="-3.1024220" lon="37.3766300">
    <ele>4514.9</ele>
    <time>2026-06-22T11:48:11Z</time>
   </trkpt>
   <trkpt lat="-3.1024220" lon="37.3766340">
    <ele>4515.0</ele>
    <time>2026-06-22T11:48:12Z</time>
   </trkpt>
   <trkpt lat="-3.1024230" lon="37.3766370">
    <ele>4515.1</ele>
    <time>2026-06-22T11:48:13Z</time>
   </trkpt>
   <trkpt lat="-3.1024230" lon="37.3766400">
    <ele>4515.1</ele>
    <time>2026-06-22T11:48:14Z</time>
   </trkpt>
   <trkpt lat="-3.1024210" lon="37.3766420">
    <ele>4515.2</ele>
    <time>2026-06-22T11:48:15Z</time>
   </trkpt>
   <trkpt lat="-3.1024180" lon="37.3766430">
    <ele>4515.3</ele>
    <time>2026-06-22T11:48:16Z</time>
   </trkpt>
   <trkpt lat="-3.1024120" lon="37.3766500">
    <ele>4515.5</ele>
    <time>2026-06-22T11:48:17Z</time>
   </trkpt>
   <trkpt lat="-3.1024100" lon="37.3766520">
    <ele>4515.6</ele>
    <time>2026-06-22T11:48:18Z</time>
   </trkpt>
   <trkpt lat="-3.1024090" lon="37.3766550">
    <ele>4515.6</ele>
    <time>2026-06-22T11:48:19Z</time>
   </trkpt>
   <trkpt lat="-3.1024090" lon="37.3766570">
    <ele>4515.7</ele>
    <time>2026-06-22T11:48:20Z</time>
   </trkpt>
   <trkpt lat="-3.1024100" lon="37.3766590">
    <ele>4515.7</ele>
    <time>2026-06-22T11:48:21Z</time>
   </trkpt>
   <trkpt lat="-3.1024100" lon="37.3766610">
    <ele>4515.8</ele>
    <time>2026-06-22T11:48:22Z</time>
   </trkpt>
   <trkpt lat="-3.1024100" lon="37.3766640">
    <ele>4515.9</ele>
    <time>2026-06-22T11:48:23Z</time>
   </trkpt>
   <trkpt lat="-3.1024110" lon="37.3766670">
    <ele>4515.9</ele>
    <time>2026-06-22T11:48:24Z</time>
   </trkpt>
   <trkpt lat="-3.1024120" lon="37.3766700">
    <ele>4516.0</ele>
    <time>2026-06-22T11:48:25Z</time>
   </trkpt>
   <trkpt lat="-3.1024120" lon="37.3766740">
    <ele>4516.1</ele>
    <time>2026-06-22T11:48:26Z</time>
   </trkpt>
   <trkpt lat="-3.1024090" lon="37.3766780">
    <ele>4516.2</ele>
    <time>2026-06-22T11:48:27Z</time>
   </trkpt>
   <trkpt lat="-3.1024080" lon="37.3766810">
    <ele>4516.3</ele>
    <time>2026-06-22T11:48:28Z</time>
   </trkpt>
   <trkpt lat="-3.1024090" lon="37.3766800">
    <ele>4516.3</ele>
    <time>2026-06-22T11:48:29Z</time>
   </trkpt>
   <trkpt lat="-3.1024080" lon="37.3766820">
    <ele>4516.4</ele>
    <time>2026-06-22T11:48:30Z</time>
   </trkpt>
   <trkpt lat="-3.1024050" lon="37.3766830">
    <ele>4516.5</ele>
    <time>2026-06-22T11:48:31Z</time>
   </trkpt>
   <trkpt lat="-3.1024030" lon="37.3766850">
    <ele>4516.5</ele>
    <time>2026-06-22T11:48:32Z</time>
   </trkpt>
   <trkpt lat="-3.1024000" lon="37.3766870">
    <ele>4516.6</ele>
    <time>2026-06-22T11:48:33Z</time>
   </trkpt>
   <trkpt lat="-3.1024000" lon="37.3766900">
    <ele>4516.7</ele>
    <time>2026-06-22T11:48:34Z</time>
   </trkpt>
   <trkpt lat="-3.1023960" lon="37.3766920">
    <ele>4516.8</ele>
    <time>2026-06-22T11:48:35Z</time>
   </trkpt>
   <trkpt lat="-3.1023940" lon="37.3766940">
    <ele>4516.9</ele>
    <time>2026-06-22T11:48:36Z</time>
   </trkpt>
   <trkpt lat="-3.1023930" lon="37.3766960">
    <ele>4516.9</ele>
    <time>2026-06-22T11:48:37Z</time>
   </trkpt>
   <trkpt lat="-3.1023920" lon="37.3767000">
    <ele>4517.0</ele>
    <time>2026-06-22T11:48:38Z</time>
   </trkpt>
   <trkpt lat="-3.1023930" lon="37.3767060">
    <ele>4517.2</ele>
    <time>2026-06-22T11:48:39Z</time>
   </trkpt>
   <trkpt lat="-3.1023960" lon="37.3767120">
    <ele>4517.3</ele>
    <time>2026-06-22T11:48:40Z</time>
   </trkpt>
   <trkpt lat="-3.1023960" lon="37.3767140">
    <ele>4517.4</ele>
    <time>2026-06-22T11:48:41Z</time>
   </trkpt>
   <trkpt lat="-3.1023970" lon="37.3767150">
    <ele>4517.4</ele>
    <time>2026-06-22T11:48:42Z</time>
   </trkpt>
   <trkpt lat="-3.1024000" lon="37.3767220">
    <ele>4517.6</ele>
    <time>2026-06-22T11:48:43Z</time>
   </trkpt>
   <trkpt lat="-3.1024010" lon="37.3767230">
    <ele>4517.6</ele>
    <time>2026-06-22T11:48:44Z</time>
   </trkpt>
   <trkpt lat="-3.1024020" lon="37.3767280">
    <ele>4517.8</ele>
    <time>2026-06-22T11:48:45Z</time>
   </trkpt>
   <trkpt lat="-3.1024030" lon="37.3767310">
    <ele>4517.8</ele>
    <time>2026-06-22T11:48:46Z</time>
   </trkpt>
   <trkpt lat="-3.1024010" lon="37.3767330">
    <ele>4517.9</ele>
    <time>2026-06-22T11:48:47Z</time>
   </trkpt>
   <trkpt lat="-3.1024010" lon="37.3767380">
    <ele>4518.0</ele>
    <time>2026-06-22T11:48:48Z</time>
   </trkpt>
   <trkpt lat="-3.1024000" lon="37.3767420">
    <ele>4518.1</ele>
    <time>2026-06-22T11:48:49Z</time>
   </trkpt>
   <trkpt lat="-3.1024020" lon="37.3767450">
    <ele>4518.2</ele>
    <time>2026-06-22T11:48:50Z</time>
   </trkpt>
   <trkpt lat="-3.1024040" lon="37.3767480">
    <ele>4518.3</ele>
    <time>2026-06-22T11:48:51Z</time>
   </trkpt>
   <trkpt lat="-3.1024040" lon="37.3767520">
    <ele>4518.4</ele>
    <time>2026-06-22T11:48:52Z</time>
   </trkpt>
   <trkpt lat="-3.1024040" lon="37.3767550">
    <ele>4518.5</ele>
    <time>2026-06-22T11:48:53Z</time>
   </trkpt>
   <trkpt lat="-3.1024040" lon="37.3767550">
    <ele>4518.5</ele>
    <time>2026-06-22T11:48:54Z</time>
   </trkpt>
   <trkpt lat="-3.1024030" lon="37.3767570">
    <ele>4518.5</ele>
    <time>2026-06-22T11:48:55Z</time>
   </trkpt>
   <trkpt lat="-3.1024040" lon="37.3767570">
    <ele>4518.6</ele>
    <time>2026-06-22T11:48:56Z</time>
   </trkpt>
   <trkpt lat="-3.1024040" lon="37.3767630">
    <ele>4518.7</ele>
    <time>2026-06-22T11:48:57Z</time>
   </trkpt>
   <trkpt lat="-3.1024050" lon="37.3767660">
    <ele>4518.8</ele>
    <time>2026-06-22T11:48:58Z</time>
   </trkpt>
   <trkpt lat="-3.1024060" lon="37.3767670">
    <ele>4518.8</ele>
    <time>2026-06-22T11:48:59Z</time>
   </trkpt>
   <trkpt lat="-3.1024070" lon="37.3767710">
    <ele>4518.9</ele>
    <time>2026-06-22T11:49:00Z</time>
   </trkpt>
   <trkpt lat="-3.1024080" lon="37.3767770">
    <ele>4519.1</ele>
    <time>2026-06-22T11:49:01Z</time>
   </trkpt>
   <trkpt lat="-3.1024100" lon="37.3767780">
    <ele>4519.1</ele>
    <time>2026-06-22T11:49:02Z</time>
   </trkpt>
   <trkpt lat="-3.1024090" lon="37.3767810">
    <ele>4519.2</ele>
    <time>2026-06-22T11:49:03Z</time>
   </trkpt>
   <trkpt lat="-3.1024090" lon="37.3767850">
    <ele>4519.3</ele>
    <time>2026-06-22T11:49:04Z</time>
   </trkpt>
   <trkpt lat="-3.1024090" lon="37.3767880">
    <ele>4519.4</ele>
    <time>2026-06-22T11:49:05Z</time>
   </trkpt>
   <trkpt lat="-3.1024080" lon="37.3767920">
    <ele>4519.5</ele>
    <time>2026-06-22T11:49:06Z</time>
   </trkpt>
   <trkpt lat="-3.1024040" lon="37.3767980">
    <ele>4519.6</ele>
    <time>2026-06-22T11:49:07Z</time>
   </trkpt>
   <trkpt lat="-3.1024020" lon="37.3768000">
    <ele>4519.7</ele>
    <time>2026-06-22T11:49:08Z</time>
   </trkpt>
   <trkpt lat="-3.1024010" lon="37.3768020">
    <ele>4519.8</ele>
    <time>2026-06-22T11:49:09Z</time>
   </trkpt>
   <trkpt lat="-3.1024010" lon="37.3768070">
    <ele>4519.9</ele>
    <time>2026-06-22T11:49:10Z</time>
   </trkpt>
   <trkpt lat="-3.1024020" lon="37.3768120">
    <ele>4520.0</ele>
    <time>2026-06-22T11:49:11Z</time>
   </trkpt>
   <trkpt lat="-3.1024020" lon="37.3768150">
    <ele>4520.1</ele>
    <time>2026-06-22T11:49:12Z</time>
   </trkpt>
   <trkpt lat="-3.1024030" lon="37.3768170">
    <ele>4520.1</ele>
    <time>2026-06-22T11:49:13Z</time>
   </trkpt>
   <trkpt lat="-3.1024020" lon="37.3768190">
    <ele>4520.2</ele>
    <time>2026-06-22T11:49:14Z</time>
   </trkpt>
   <trkpt lat="-3.1024040" lon="37.3768250">
    <ele>4520.3</ele>
    <time>2026-06-22T11:49:15Z</time>
   </trkpt>
   <trkpt lat="-3.1024060" lon="37.3768260">
    <ele>4520.4</ele>
    <time>2026-06-22T11:49:16Z</time>
   </trkpt>
   <trkpt lat="-3.1024070" lon="37.3768310">
    <ele>4520.5</ele>
    <time>2026-06-22T11:49:17Z</time>
   </trkpt>
   <trkpt lat="-3.1024070" lon="37.3768320">
    <ele>4520.5</ele>
    <time>2026-06-22T11:49:18Z</time>
   </trkpt>
   <trkpt lat="-3.1024020" lon="37.3768420">
    <ele>4520.8</ele>
    <time>2026-06-22T11:49:19Z</time>
   </trkpt>
   <trkpt lat="-3.1024090" lon="37.3768420">
    <ele>4521.0</ele>
    <time>2026-06-22T11:49:20Z</time>
   </trkpt>
   <trkpt lat="-3.1024100" lon="37.3768460">
    <ele>4521.1</ele>
    <time>2026-06-22T11:49:21Z</time>
   </trkpt>
   <trkpt lat="-3.1024110" lon="37.3768470">
    <ele>4521.1</ele>
    <time>2026-06-22T11:49:22Z</time>
   </trkpt>
   <trkpt lat="-3.1024120" lon="37.3768490">
    <ele>4521.2</ele>
    <time>2026-06-22T11:49:23Z</time>
   </trkpt>
   <trkpt lat="-3.1024140" lon="37.3768520">
    <ele>4521.2</ele>
    <time>2026-06-22T11:49:24Z</time>
   </trkpt>
   <trkpt lat="-3.1024170" lon="37.3768550">
    <ele>4521.3</ele>
    <time>2026-06-22T11:49:25Z</time>
   </trkpt>
   <trkpt lat="-3.1024160" lon="37.3768580">
    <ele>4521.4</ele>
    <time>2026-06-22T11:49:26Z</time>
   </trkpt>
   <trkpt lat="-3.1024160" lon="37.3768600">
    <ele>4521.5</ele>
    <time>2026-06-22T11:49:27Z</time>
   </trkpt>
   <trkpt lat="-3.1024150" lon="37.3768620">
    <ele>4521.5</ele>
    <time>2026-06-22T11:49:28Z</time>
   </trkpt>
   <trkpt lat="-3.1024140" lon="37.3768660">
    <ele>4521.6</ele>
    <time>2026-06-22T11:49:29Z</time>
   </trkpt>
   <trkpt lat="-3.1024100" lon="37.3768660">
    <ele>4521.7</ele>
    <time>2026-06-22T11:49:30Z</time>
   </trkpt>
   <trkpt lat="-3.1024090" lon="37.3768650">
    <ele>4521.8</ele>
    <time>2026-06-22T11:49:31Z</time>
   </trkpt>
   <trkpt lat="-3.1024090" lon="37.3768710">
    <ele>4521.9</ele>
    <time>2026-06-22T11:49:32Z</time>
   </trkpt>
   <trkpt lat="-3.1024090" lon="37.3768760">
    <ele>4522.0</ele>
    <time>2026-06-22T11:49:33Z</time>
   </trkpt>
   <trkpt lat="-3.1024090" lon="37.3768780">
    <ele>4522.1</ele>
    <time>2026-06-22T11:49:34Z</time>
   </trkpt>
   <trkpt lat="-3.1024070" lon="37.3768800">
    <ele>4522.1</ele>
    <time>2026-06-22T11:49:35Z</time>
   </trkpt>
   <trkpt lat="-3.1024080" lon="37.3768840">
    <ele>4522.2</ele>
    <time>2026-06-22T11:49:36Z</time>
   </trkpt>
   <trkpt lat="-3.1024070" lon="37.3768860">
    <ele>4522.3</ele>
    <time>2026-06-22T11:49:37Z</time>
   </trkpt>
   <trkpt lat="-3.1024090" lon="37.3768910">
    <ele>4522.4</ele>
    <time>2026-06-22T11:49:38Z</time>
   </trkpt>
   <trkpt lat="-3.1024090" lon="37.3768960">
    <ele>4522.5</ele>
    <time>2026-06-22T11:49:39Z</time>
   </trkpt>
   <trkpt lat="-3.1024110" lon="37.3769000">
    <ele>4522.7</ele>
    <time>2026-06-22T11:49:40Z</time>
   </trkpt>
   <trkpt lat="-3.1024100" lon="37.3769010">
    <ele>4522.7</ele>
    <time>2026-06-22T11:49:41Z</time>
   </trkpt>
   <trkpt lat="-3.1024110" lon="37.3769050">
    <ele>4522.8</ele>
    <time>2026-06-22T11:49:42Z</time>
   </trkpt>
   <trkpt lat="-3.1024120" lon="37.3769080">
    <ele>4522.9</ele>
    <time>2026-06-22T11:49:43Z</time>
   </trkpt>
   <trkpt lat="-3.1024120" lon="37.3769140">
    <ele>4523.0</ele>
    <time>2026-06-22T11:49:44Z</time>
   </trkpt>
   <trkpt lat="-3.1024090" lon="37.3769140">
    <ele>4523.1</ele>
    <time>2026-06-22T11:49:45Z</time>
   </trkpt>
   <trkpt lat="-3.1024080" lon="37.3769160">
    <ele>4523.1</ele>
    <time>2026-06-22T11:49:46Z</time>
   </trkpt>
   <trkpt lat="-3.1024060" lon="37.3769170">
    <ele>4523.2</ele>
    <time>2026-06-22T11:49:47Z</time>
   </trkpt>
   <trkpt lat="-3.1024040" lon="37.3769180">
    <ele>4523.2</ele>
    <time>2026-06-22T11:49:48Z</time>
   </trkpt>
   <trkpt lat="-3.1024010" lon="37.3769180">
    <ele>4523.3</ele>
    <time>2026-06-22T11:49:49Z</time>
   </trkpt>
   <trkpt lat="-3.1024020" lon="37.3769180">
    <ele>4523.3</ele>
    <time>2026-06-22T11:49:50Z</time>
   </trkpt>
   <trkpt lat="-3.1023990" lon="37.3769190">
    <ele>4523.4</ele>
    <time>2026-06-22T11:49:51Z</time>
   </trkpt>
   <trkpt lat="-3.1023960" lon="37.3769180">
    <ele>4523.5</ele>
    <time>2026-06-22T11:49:52Z</time>
   </trkpt>
   <trkpt lat="-3.1023950" lon="37.3769170">
    <ele>4523.5</ele>
    <time>2026-06-22T11:49:53Z</time>
   </trkpt>
   <trkpt lat="-3.1023930" lon="37.3769180">
    <ele>4523.6</ele>
    <time>2026-06-22T11:49:55Z</time>
   </trkpt>
   <trkpt lat="-3.1023900" lon="37.3769160">
    <ele>4523.7</ele>
    <time>2026-06-22T11:49:56Z</time>
   </trkpt>
   <trkpt lat="-3.1023870" lon="37.3769150">
    <ele>4523.7</ele>
    <time>2026-06-22T11:49:57Z</time>
   </trkpt>
   <trkpt lat="-3.1023840" lon="37.3769130">
    <ele>4523.8</ele>
    <time>2026-06-22T11:49:58Z</time>
   </trkpt>
   <trkpt lat="-3.1023830" lon="37.3769120">
    <ele>4523.9</ele>
    <time>2026-06-22T11:49:59Z</time>
   </trkpt>
   <trkpt lat="-3.1023810" lon="37.3769100">
    <ele>4523.9</ele>
    <time>2026-06-22T11:50:00Z</time>
   </trkpt>
   <trkpt lat="-3.1023790" lon="37.3769100">
    <ele>4524.0</ele>
    <time>2026-06-22T11:50:01Z</time>
   </trkpt>
   <trkpt lat="-3.1023770" lon="37.3769100">
    <ele>4524.0</ele>
    <time>2026-06-22T11:50:02Z</time>
   </trkpt>
   <trkpt lat="-3.1023760" lon="37.3769140">
    <ele>4524.1</ele>
    <time>2026-06-22T11:50:03Z</time>
   </trkpt>
   <trkpt lat="-3.1023740" lon="37.3769160">
    <ele>4524.2</ele>
    <time>2026-06-22T11:50:04Z</time>
   </trkpt>
   <trkpt lat="-3.1023740" lon="37.3769220">
    <ele>4524.3</ele>
    <time>2026-06-22T11:50:05Z</time>
   </trkpt>
   <trkpt lat="-3.1023710" lon="37.3769240">
    <ele>4524.4</ele>
    <time>2026-06-22T11:50:06Z</time>
   </trkpt>
   <trkpt lat="-3.1023680" lon="37.3769260">
    <ele>4524.5</ele>
    <time>2026-06-22T11:50:07Z</time>
   </trkpt>
   <trkpt lat="-3.1023670" lon="37.3769280">
    <ele>4524.6</ele>
    <time>2026-06-22T11:50:08Z</time>
   </trkpt>
   <trkpt lat="-3.1023640" lon="37.3769320">
    <ele>4524.7</ele>
    <time>2026-06-22T11:50:09Z</time>
   </trkpt>
   <trkpt lat="-3.1023610" lon="37.3769330">
    <ele>4524.8</ele>
    <time>2026-06-22T11:50:10Z</time>
   </trkpt>
   <trkpt lat="-3.1023590" lon="37.3769350">
    <ele>4524.8</ele>
    <time>2026-06-22T11:50:11Z</time>
   </trkpt>
   <trkpt lat="-3.1023560" lon="37.3769380">
    <ele>4524.9</ele>
    <time>2026-06-22T11:50:12Z</time>
   </trkpt>
   <trkpt lat="-3.1023560" lon="37.3769410">
    <ele>4525.0</ele>
    <time>2026-06-22T11:50:13Z</time>
   </trkpt>
   <trkpt lat="-3.1023530" lon="37.3769440">
    <ele>4525.1</ele>
    <time>2026-06-22T11:50:14Z</time>
   </trkpt>
   <trkpt lat="-3.1023570" lon="37.3769470">
    <ele>4525.2</ele>
    <time>2026-06-22T11:50:15Z</time>
   </trkpt>
   <trkpt lat="-3.1023560" lon="37.3769530">
    <ele>4525.4</ele>
    <time>2026-06-22T11:50:16Z</time>
   </trkpt>
   <trkpt lat="-3.1023550" lon="37.3769540">
    <ele>4525.4</ele>
    <time>2026-06-22T11:50:17Z</time>
   </trkpt>
   <trkpt lat="-3.1023560" lon="37.3769580">
    <ele>4525.5</ele>
    <time>2026-06-22T11:50:18Z</time>
   </trkpt>
   <trkpt lat="-3.1023560" lon="37.3769590">
    <ele>4525.5</ele>
    <time>2026-06-22T11:50:19Z</time>
   </trkpt>
   <trkpt lat="-3.1023550" lon="37.3769630">
    <ele>4525.6</ele>
    <time>2026-06-22T11:50:20Z</time>
   </trkpt>
   <trkpt lat="-3.1023550" lon="37.3769660">
    <ele>4525.7</ele>
    <time>2026-06-22T11:50:21Z</time>
   </trkpt>
   <trkpt lat="-3.1023510" lon="37.3769750">
    <ele>4526.0</ele>
    <time>2026-06-22T11:50:22Z</time>
   </trkpt>
   <trkpt lat="-3.1023480" lon="37.3769740">
    <ele>4526.0</ele>
    <time>2026-06-22T11:50:23Z</time>
   </trkpt>
   <trkpt lat="-3.1023450" lon="37.3769750">
    <ele>4526.1</ele>
    <time>2026-06-22T11:50:24Z</time>
   </trkpt>
   <trkpt lat="-3.1023440" lon="37.3769740">
    <ele>4526.1</ele>
    <time>2026-06-22T11:50:25Z</time>
   </trkpt>
   <trkpt lat="-3.1023430" lon="37.3769750">
    <ele>4526.2</ele>
    <time>2026-06-22T11:50:26Z</time>
   </trkpt>
   <trkpt lat="-3.1023390" lon="37.3769740">
    <ele>4526.3</ele>
    <time>2026-06-22T11:50:27Z</time>
   </trkpt>
   <trkpt lat="-3.1023370" lon="37.3769730">
    <ele>4526.3</ele>
    <time>2026-06-22T11:50:28Z</time>
   </trkpt>
   <trkpt lat="-3.1023350" lon="37.3769740">
    <ele>4526.4</ele>
    <time>2026-06-22T11:50:29Z</time>
   </trkpt>
   <trkpt lat="-3.1023320" lon="37.3769740">
    <ele>4526.5</ele>
    <time>2026-06-22T11:50:30Z</time>
   </trkpt>
   <trkpt lat="-3.1023280" lon="37.3769750">
    <ele>4526.6</ele>
    <time>2026-06-22T11:50:31Z</time>
   </trkpt>
   <trkpt lat="-3.1023250" lon="37.3769760">
    <ele>4526.6</ele>
    <time>2026-06-22T11:50:32Z</time>
   </trkpt>
   <trkpt lat="-3.1023210" lon="37.3769780">
    <ele>4526.7</ele>
    <time>2026-06-22T11:50:33Z</time>
   </trkpt>
   <trkpt lat="-3.1023180" lon="37.3769780">
    <ele>4526.8</ele>
    <time>2026-06-22T11:50:34Z</time>
   </trkpt>
   <trkpt lat="-3.1023150" lon="37.3769800">
    <ele>4526.9</ele>
    <time>2026-06-22T11:50:35Z</time>
   </trkpt>
   <trkpt lat="-3.1023110" lon="37.3769810">
    <ele>4527.0</ele>
    <time>2026-06-22T11:50:36Z</time>
   </trkpt>
   <trkpt lat="-3.1023080" lon="37.3769820">
    <ele>4527.1</ele>
    <time>2026-06-22T11:50:37Z</time>
   </trkpt>
   <trkpt lat="-3.1023070" lon="37.3769850">
    <ele>4527.1</ele>
    <time>2026-06-22T11:50:38Z</time>
   </trkpt>
   <trkpt lat="-3.1023060" lon="37.3769860">
    <ele>4527.2</ele>
    <time>2026-06-22T11:50:39Z</time>
   </trkpt>
   <trkpt lat="-3.1023050" lon="37.3769930">
    <ele>4527.4</ele>
    <time>2026-06-22T11:50:40Z</time>
   </trkpt>
   <trkpt lat="-3.1023070" lon="37.3769960">
    <ele>4527.4</ele>
    <time>2026-06-22T11:50:41Z</time>
   </trkpt>
   <trkpt lat="-3.1023080" lon="37.3769990">
    <ele>4527.5</ele>
    <time>2026-06-22T11:50:42Z</time>
   </trkpt>
   <trkpt lat="-3.1023110" lon="37.3770030">
    <ele>4527.6</ele>
    <time>2026-06-22T11:50:43Z</time>
   </trkpt>
   <trkpt lat="-3.1023150" lon="37.3770040">
    <ele>4527.7</ele>
    <time>2026-06-22T11:50:44Z</time>
   </trkpt>
   <trkpt lat="-3.1023180" lon="37.3770070">
    <ele>4527.8</ele>
    <time>2026-06-22T11:50:45Z</time>
   </trkpt>
   <trkpt lat="-3.1023210" lon="37.3770090">
    <ele>4527.9</ele>
    <time>2026-06-22T11:50:46Z</time>
   </trkpt>
   <trkpt lat="-3.1023210" lon="37.3770120">
    <ele>4528.0</ele>
    <time>2026-06-22T11:50:47Z</time>
   </trkpt>
   <trkpt lat="-3.1023240" lon="37.3770140">
    <ele>4528.1</ele>
    <time>2026-06-22T11:50:48Z</time>
   </trkpt>
   <trkpt lat="-3.1023280" lon="37.3770200">
    <ele>4528.3</ele>
    <time>2026-06-22T11:50:49Z</time>
   </trkpt>
   <trkpt lat="-3.1023310" lon="37.3770220">
    <ele>4528.3</ele>
    <time>2026-06-22T11:50:50Z</time>
   </trkpt>
   <trkpt lat="-3.1023310" lon="37.3770250">
    <ele>4528.4</ele>
    <time>2026-06-22T11:50:51Z</time>
   </trkpt>
   <trkpt lat="-3.1023330" lon="37.3770290">
    <ele>4528.5</ele>
    <time>2026-06-22T11:50:52Z</time>
   </trkpt>
   <trkpt lat="-3.1023320" lon="37.3770320">
    <ele>4528.6</ele>
    <time>2026-06-22T11:50:53Z</time>
   </trkpt>
   <trkpt lat="-3.1023320" lon="37.3770350">
    <ele>4528.7</ele>
    <time>2026-06-22T11:50:54Z</time>
   </trkpt>
   <trkpt lat="-3.1023310" lon="37.3770390">
    <ele>4528.8</ele>
    <time>2026-06-22T11:50:55Z</time>
   </trkpt>
   <trkpt lat="-3.1023300" lon="37.3770430">
    <ele>4528.9</ele>
    <time>2026-06-22T11:50:56Z</time>
   </trkpt>
   <trkpt lat="-3.1023300" lon="37.3770460">
    <ele>4528.9</ele>
    <time>2026-06-22T11:50:57Z</time>
   </trkpt>
   <trkpt lat="-3.1023300" lon="37.3770510">
    <ele>4529.1</ele>
    <time>2026-06-22T11:50:58Z</time>
   </trkpt>
   <trkpt lat="-3.1023300" lon="37.3770550">
    <ele>4529.2</ele>
    <time>2026-06-22T11:50:59Z</time>
   </trkpt>
   <trkpt lat="-3.1023310" lon="37.3770570">
    <ele>4529.2</ele>
    <time>2026-06-22T11:51:00Z</time>
   </trkpt>
   <trkpt lat="-3.1023320" lon="37.3770590">
    <ele>4529.3</ele>
    <time>2026-06-22T11:51:01Z</time>
   </trkpt>
   <trkpt lat="-3.1023370" lon="37.3770610">
    <ele>4529.4</ele>
    <time>2026-06-22T11:51:02Z</time>
   </trkpt>
   <trkpt lat="-3.1023420" lon="37.3770650">
    <ele>4529.5</ele>
    <time>2026-06-22T11:51:03Z</time>
   </trkpt>
   <trkpt lat="-3.1023440" lon="37.3770660">
    <ele>4529.6</ele>
    <time>2026-06-22T11:51:04Z</time>
   </trkpt>
   <trkpt lat="-3.1023470" lon="37.3770680">
    <ele>4529.7</ele>
    <time>2026-06-22T11:51:05Z</time>
   </trkpt>
   <trkpt lat="-3.1023490" lon="37.3770710">
    <ele>4529.8</ele>
    <time>2026-06-22T11:51:06Z</time>
   </trkpt>
   <trkpt lat="-3.1023510" lon="37.3770750">
    <ele>4529.9</ele>
    <time>2026-06-22T11:51:07Z</time>
   </trkpt>
   <trkpt lat="-3.1023520" lon="37.3770780">
    <ele>4530.0</ele>
    <time>2026-06-22T11:51:08Z</time>
   </trkpt>
   <trkpt lat="-3.1023510" lon="37.3770820">
    <ele>4530.0</ele>
    <time>2026-06-22T11:51:09Z</time>
   </trkpt>
   <trkpt lat="-3.1023520" lon="37.3770850">
    <ele>4530.1</ele>
    <time>2026-06-22T11:51:10Z</time>
   </trkpt>
   <trkpt lat="-3.1023540" lon="37.3770880">
    <ele>4530.2</ele>
    <time>2026-06-22T11:51:11Z</time>
   </trkpt>
   <trkpt lat="-3.1023590" lon="37.3770920">
    <ele>4530.4</ele>
    <time>2026-06-22T11:51:12Z</time>
   </trkpt>
   <trkpt lat="-3.1023540" lon="37.3770940">
    <ele>4530.5</ele>
    <time>2026-06-22T11:51:13Z</time>
   </trkpt>
   <trkpt lat="-3.1023510" lon="37.3770990">
    <ele>4530.6</ele>
    <time>2026-06-22T11:51:14Z</time>
   </trkpt>
   <trkpt lat="-3.1023500" lon="37.3771020">
    <ele>4530.7</ele>
    <time>2026-06-22T11:51:15Z</time>
   </trkpt>
   <trkpt lat="-3.1023470" lon="37.3771030">
    <ele>4530.8</ele>
    <time>2026-06-22T11:51:16Z</time>
   </trkpt>
   <trkpt lat="-3.1023430" lon="37.3771020">
    <ele>4530.9</ele>
    <time>2026-06-22T11:51:17Z</time>
   </trkpt>
   <trkpt lat="-3.1023410" lon="37.3771020">
    <ele>4530.9</ele>
    <time>2026-06-22T11:51:18Z</time>
   </trkpt>
   <trkpt lat="-3.1023390" lon="37.3771030">
    <ele>4531.0</ele>
    <time>2026-06-22T11:51:19Z</time>
   </trkpt>
   <trkpt lat="-3.1023370" lon="37.3771000">
    <ele>4531.1</ele>
    <time>2026-06-22T11:51:20Z</time>
   </trkpt>
   <trkpt lat="-3.1023350" lon="37.3771000">
    <ele>4531.1</ele>
    <time>2026-06-22T11:51:21Z</time>
   </trkpt>
   <trkpt lat="-3.1023320" lon="37.3770980">
    <ele>4531.2</ele>
    <time>2026-06-22T11:51:22Z</time>
   </trkpt>
   <trkpt lat="-3.1023290" lon="37.3770970">
    <ele>4531.3</ele>
    <time>2026-06-22T11:51:23Z</time>
   </trkpt>
   <trkpt lat="-3.1023260" lon="37.3770950">
    <ele>4531.4</ele>
    <time>2026-06-22T11:51:24Z</time>
   </trkpt>
   <trkpt lat="-3.1023230" lon="37.3770960">
    <ele>4531.4</ele>
    <time>2026-06-22T11:51:25Z</time>
   </trkpt>
   <trkpt lat="-3.1023200" lon="37.3770970">
    <ele>4531.5</ele>
    <time>2026-06-22T11:51:26Z</time>
   </trkpt>
   <trkpt lat="-3.1023180" lon="37.3770980">
    <ele>4531.6</ele>
    <time>2026-06-22T11:51:27Z</time>
   </trkpt>
   <trkpt lat="-3.1023150" lon="37.3770990">
    <ele>4531.7</ele>
    <time>2026-06-22T11:51:28Z</time>
   </trkpt>
   <trkpt lat="-3.1023150" lon="37.3771010">
    <ele>4531.7</ele>
    <time>2026-06-22T11:51:29Z</time>
   </trkpt>
   <trkpt lat="-3.1023130" lon="37.3771040">
    <ele>4531.8</ele>
    <time>2026-06-22T11:51:30Z</time>
   </trkpt>
   <trkpt lat="-3.1023100" lon="37.3771040">
    <ele>4531.9</ele>
    <time>2026-06-22T11:51:31Z</time>
   </trkpt>
   <trkpt lat="-3.1023080" lon="37.3771040">
    <ele>4531.9</ele>
    <time>2026-06-22T11:51:32Z</time>
   </trkpt>
   <trkpt lat="-3.1023050" lon="37.3771040">
    <ele>4532.0</ele>
    <time>2026-06-22T11:51:33Z</time>
   </trkpt>
   <trkpt lat="-3.1023040" lon="37.3771060">
    <ele>4532.0</ele>
    <time>2026-06-22T11:51:34Z</time>
   </trkpt>
   <trkpt lat="-3.1023030" lon="37.3771090">
    <ele>4532.1</ele>
    <time>2026-06-22T11:51:35Z</time>
   </trkpt>
   <trkpt lat="-3.1023000" lon="37.3771090">
    <ele>4532.2</ele>
    <time>2026-06-22T11:51:36Z</time>
   </trkpt>
   <trkpt lat="-3.1022980" lon="37.3771100">
    <ele>4532.2</ele>
    <time>2026-06-22T11:51:37Z</time>
   </trkpt>
   <trkpt lat="-3.1022990" lon="37.3771140">
    <ele>4532.3</ele>
    <time>2026-06-22T11:51:38Z</time>
   </trkpt>
   <trkpt lat="-3.1022970" lon="37.3771130">
    <ele>4532.4</ele>
    <time>2026-06-22T11:51:39Z</time>
   </trkpt>
   <trkpt lat="-3.1022930" lon="37.3771200">
    <ele>4532.6</ele>
    <time>2026-06-22T11:51:40Z</time>
   </trkpt>
   <trkpt lat="-3.1022900" lon="37.3771210">
    <ele>4532.7</ele>
    <time>2026-06-22T11:51:41Z</time>
   </trkpt>
   <trkpt lat="-3.1022870" lon="37.3771190">
    <ele>4532.8</ele>
    <time>2026-06-22T11:51:42Z</time>
   </trkpt>
   <trkpt lat="-3.1022830" lon="37.3771190">
    <ele>4532.9</ele>
    <time>2026-06-22T11:51:43Z</time>
   </trkpt>
   <trkpt lat="-3.1022810" lon="37.3771190">
    <ele>4532.9</ele>
    <time>2026-06-22T11:51:44Z</time>
   </trkpt>
   <trkpt lat="-3.1022770" lon="37.3771150">
    <ele>4533.1</ele>
    <time>2026-06-22T11:51:45Z</time>
   </trkpt>
   <trkpt lat="-3.1022750" lon="37.3771140">
    <ele>4533.1</ele>
    <time>2026-06-22T11:51:46Z</time>
   </trkpt>
   <trkpt lat="-3.1022720" lon="37.3771150">
    <ele>4533.2</ele>
    <time>2026-06-22T11:51:47Z</time>
   </trkpt>
   <trkpt lat="-3.1022690" lon="37.3771120">
    <ele>4533.3</ele>
    <time>2026-06-22T11:51:48Z</time>
   </trkpt>
   <trkpt lat="-3.1022670" lon="37.3771100">
    <ele>4533.4</ele>
    <time>2026-06-22T11:51:49Z</time>
   </trkpt>
   <trkpt lat="-3.1022630" lon="37.3771110">
    <ele>4533.5</ele>
    <time>2026-06-22T11:51:50Z</time>
   </trkpt>
   <trkpt lat="-3.1022620" lon="37.3771100">
    <ele>4533.5</ele>
    <time>2026-06-22T11:51:51Z</time>
   </trkpt>
   <trkpt lat="-3.1022570" lon="37.3771120">
    <ele>4533.7</ele>
    <time>2026-06-22T11:51:52Z</time>
   </trkpt>
   <trkpt lat="-3.1022530" lon="37.3771140">
    <ele>4533.8</ele>
    <time>2026-06-22T11:51:53Z</time>
   </trkpt>
   <trkpt lat="-3.1022500" lon="37.3771160">
    <ele>4533.9</ele>
    <time>2026-06-22T11:51:54Z</time>
   </trkpt>
   <trkpt lat="-3.1022470" lon="37.3771200">
    <ele>4534.0</ele>
    <time>2026-06-22T11:51:55Z</time>
   </trkpt>
   <trkpt lat="-3.1022440" lon="37.3771250">
    <ele>4534.1</ele>
    <time>2026-06-22T11:51:56Z</time>
   </trkpt>
   <trkpt lat="-3.1022450" lon="37.3771280">
    <ele>4534.2</ele>
    <time>2026-06-22T11:51:57Z</time>
   </trkpt>
   <trkpt lat="-3.1022430" lon="37.3771320">
    <ele>4534.3</ele>
    <time>2026-06-22T11:51:58Z</time>
   </trkpt>
   <trkpt lat="-3.1022430" lon="37.3771350">
    <ele>4534.4</ele>
    <time>2026-06-22T11:51:59Z</time>
   </trkpt>
   <trkpt lat="-3.1022420" lon="37.3771380">
    <ele>4534.5</ele>
    <time>2026-06-22T11:52:01Z</time>
   </trkpt>
   <trkpt lat="-3.1022420" lon="37.3771390">
    <ele>4534.5</ele>
    <time>2026-06-22T11:52:02Z</time>
   </trkpt>
   <trkpt lat="-3.1022400" lon="37.3771420">
    <ele>4534.6</ele>
    <time>2026-06-22T11:52:03Z</time>
   </trkpt>
   <trkpt lat="-3.1022380" lon="37.3771430">
    <ele>4534.7</ele>
    <time>2026-06-22T11:52:04Z</time>
   </trkpt>
   <trkpt lat="-3.1022360" lon="37.3771440">
    <ele>4534.7</ele>
    <time>2026-06-22T11:52:05Z</time>
   </trkpt>
   <trkpt lat="-3.1022330" lon="37.3771470">
    <ele>4534.8</ele>
    <time>2026-06-22T11:52:06Z</time>
   </trkpt>
   <trkpt lat="-3.1022320" lon="37.3771490">
    <ele>4534.9</ele>
    <time>2026-06-22T11:52:07Z</time>
   </trkpt>
   <trkpt lat="-3.1022310" lon="37.3771530">
    <ele>4535.0</ele>
    <time>2026-06-22T11:52:08Z</time>
   </trkpt>
   <trkpt lat="-3.1022320" lon="37.3771550">
    <ele>4535.0</ele>
    <time>2026-06-22T11:52:09Z</time>
   </trkpt>
   <trkpt lat="-3.1022330" lon="37.3771580">
    <ele>4535.1</ele>
    <time>2026-06-22T11:52:10Z</time>
   </trkpt>
   <trkpt lat="-3.1022360" lon="37.3771590">
    <ele>4535.2</ele>
    <time>2026-06-22T11:52:11Z</time>
   </trkpt>
   <trkpt lat="-3.1022370" lon="37.3771590">
    <ele>4535.2</ele>
    <time>2026-06-22T11:52:12Z</time>
   </trkpt>
   <trkpt lat="-3.1022350" lon="37.3771640">
    <ele>4535.4</ele>
    <time>2026-06-22T11:52:13Z</time>
   </trkpt>
   <trkpt lat="-3.1022320" lon="37.3771650">
    <ele>4535.4</ele>
    <time>2026-06-22T11:52:14Z</time>
   </trkpt>
   <trkpt lat="-3.1022320" lon="37.3771650">
    <ele>4535.4</ele>
    <time>2026-06-22T11:52:15Z</time>
   </trkpt>
   <trkpt lat="-3.1022290" lon="37.3771660">
    <ele>4535.5</ele>
    <time>2026-06-22T11:52:16Z</time>
   </trkpt>
   <trkpt lat="-3.1022270" lon="37.3771670">
    <ele>4535.6</ele>
    <time>2026-06-22T11:52:17Z</time>
   </trkpt>
   <trkpt lat="-3.1022220" lon="37.3771700">
    <ele>4535.7</ele>
    <time>2026-06-22T11:52:18Z</time>
   </trkpt>
   <trkpt lat="-3.1022190" lon="37.3771700">
    <ele>4535.8</ele>
    <time>2026-06-22T11:52:19Z</time>
   </trkpt>
   <trkpt lat="-3.1022180" lon="37.3771730">
    <ele>4535.9</ele>
    <time>2026-06-22T11:52:20Z</time>
   </trkpt>
   <trkpt lat="-3.1022170" lon="37.3771750">
    <ele>4535.9</ele>
    <time>2026-06-22T11:52:21Z</time>
   </trkpt>
   <trkpt lat="-3.1022190" lon="37.3771790">
    <ele>4536.0</ele>
    <time>2026-06-22T11:52:22Z</time>
   </trkpt>
   <trkpt lat="-3.1022230" lon="37.3771810">
    <ele>4536.2</ele>
    <time>2026-06-22T11:52:23Z</time>
   </trkpt>
   <trkpt lat="-3.1022250" lon="37.3771840">
    <ele>4536.2</ele>
    <time>2026-06-22T11:52:24Z</time>
   </trkpt>
   <trkpt lat="-3.1022280" lon="37.3771840">
    <ele>4536.3</ele>
    <time>2026-06-22T11:52:25Z</time>
   </trkpt>
   <trkpt lat="-3.1022330" lon="37.3771890">
    <ele>4536.5</ele>
    <time>2026-06-22T11:52:26Z</time>
   </trkpt>
   <trkpt lat="-3.1022370" lon="37.3771920">
    <ele>4536.6</ele>
    <time>2026-06-22T11:52:27Z</time>
   </trkpt>
   <trkpt lat="-3.1022430" lon="37.3771930">
    <ele>4536.8</ele>
    <time>2026-06-22T11:52:28Z</time>
   </trkpt>
   <trkpt lat="-3.1022480" lon="37.3771930">
    <ele>4536.9</ele>
    <time>2026-06-22T11:52:29Z</time>
   </trkpt>
   <trkpt lat="-3.1022550" lon="37.3771930">
    <ele>4537.1</ele>
    <time>2026-06-22T11:52:30Z</time>
   </trkpt>
   <trkpt lat="-3.1022580" lon="37.3771950">
    <ele>4537.2</ele>
    <time>2026-06-22T11:52:31Z</time>
   </trkpt>
   <trkpt lat="-3.1022630" lon="37.3771950">
    <ele>4537.3</ele>
    <time>2026-06-22T11:52:32Z</time>
   </trkpt>
   <trkpt lat="-3.1022660" lon="37.3772000">
    <ele>4537.4</ele>
    <time>2026-06-22T11:52:33Z</time>
   </trkpt>
   <trkpt lat="-3.1022680" lon="37.3772000">
    <ele>4537.5</ele>
    <time>2026-06-22T11:52:34Z</time>
   </trkpt>
   <trkpt lat="-3.1022690" lon="37.3772040">
    <ele>4537.6</ele>
    <time>2026-06-22T11:52:35Z</time>
   </trkpt>
   <trkpt lat="-3.1022690" lon="37.3772080">
    <ele>4537.7</ele>
    <time>2026-06-22T11:52:36Z</time>
   </trkpt>
   <trkpt lat="-3.1022700" lon="37.3772080">
    <ele>4537.7</ele>
    <time>2026-06-22T11:52:37Z</time>
   </trkpt>
   <trkpt lat="-3.1022690" lon="37.3772160">
    <ele>4537.9</ele>
    <time>2026-06-22T11:52:38Z</time>
   </trkpt>
   <trkpt lat="-3.1022680" lon="37.3772200">
    <ele>4538.0</ele>
    <time>2026-06-22T11:52:39Z</time>
   </trkpt>
   <trkpt lat="-3.1022670" lon="37.3772240">
    <ele>4538.1</ele>
    <time>2026-06-22T11:52:40Z</time>
   </trkpt>
   <trkpt lat="-3.1022650" lon="37.3772260">
    <ele>4538.2</ele>
    <time>2026-06-22T11:52:41Z</time>
   </trkpt>
   <trkpt lat="-3.1022630" lon="37.3772290">
    <ele>4538.3</ele>
    <time>2026-06-22T11:52:42Z</time>
   </trkpt>
   <trkpt lat="-3.1022600" lon="37.3772340">
    <ele>4538.4</ele>
    <time>2026-06-22T11:52:43Z</time>
   </trkpt>
   <trkpt lat="-3.1022570" lon="37.3772360">
    <ele>4538.5</ele>
    <time>2026-06-22T11:52:44Z</time>
   </trkpt>
   <trkpt lat="-3.1022590" lon="37.3772330">
    <ele>4538.6</ele>
    <time>2026-06-22T11:52:45Z</time>
   </trkpt>
   <trkpt lat="-3.1022580" lon="37.3772400">
    <ele>4538.8</ele>
    <time>2026-06-22T11:52:46Z</time>
   </trkpt>
   <trkpt lat="-3.1022600" lon="37.3772380">
    <ele>4538.8</ele>
    <time>2026-06-22T11:52:47Z</time>
   </trkpt>
   <trkpt lat="-3.1022620" lon="37.3772400">
    <ele>4538.9</ele>
    <time>2026-06-22T11:52:48Z</time>
   </trkpt>
   <trkpt lat="-3.1022650" lon="37.3772440">
    <ele>4539.0</ele>
    <time>2026-06-22T11:52:49Z</time>
   </trkpt>
   <trkpt lat="-3.1022680" lon="37.3772460">
    <ele>4539.1</ele>
    <time>2026-06-22T11:52:50Z</time>
   </trkpt>
   <trkpt lat="-3.1022720" lon="37.3772480">
    <ele>4539.2</ele>
    <time>2026-06-22T11:52:51Z</time>
   </trkpt>
   <trkpt lat="-3.1022760" lon="37.3772510">
    <ele>4539.4</ele>
    <time>2026-06-22T11:52:52Z</time>
   </trkpt>
   <trkpt lat="-3.1022790" lon="37.3772530">
    <ele>4539.5</ele>
    <time>2026-06-22T11:52:53Z</time>
   </trkpt>
   <trkpt lat="-3.1022800" lon="37.3772560">
    <ele>4539.5</ele>
    <time>2026-06-22T11:52:54Z</time>
   </trkpt>
   <trkpt lat="-3.1022820" lon="37.3772580">
    <ele>4539.6</ele>
    <time>2026-06-22T11:52:55Z</time>
   </trkpt>
   <trkpt lat="-3.1022830" lon="37.3772610">
    <ele>4539.7</ele>
    <time>2026-06-22T11:52:56Z</time>
   </trkpt>
   <trkpt lat="-3.1022860" lon="37.3772630">
    <ele>4539.8</ele>
    <time>2026-06-22T11:52:57Z</time>
   </trkpt>
   <trkpt lat="-3.1022890" lon="37.3772640">
    <ele>4539.9</ele>
    <time>2026-06-22T11:52:58Z</time>
   </trkpt>
   <trkpt lat="-3.1022920" lon="37.3772650">
    <ele>4539.9</ele>
    <time>2026-06-22T11:52:59Z</time>
   </trkpt>
   <trkpt lat="-3.1022940" lon="37.3772660">
    <ele>4540.0</ele>
    <time>2026-06-22T11:53:00Z</time>
   </trkpt>
   <trkpt lat="-3.1022960" lon="37.3772680">
    <ele>4540.1</ele>
    <time>2026-06-22T11:53:01Z</time>
   </trkpt>
   <trkpt lat="-3.1022980" lon="37.3772660">
    <ele>4540.1</ele>
    <time>2026-06-22T11:53:02Z</time>
   </trkpt>
   <trkpt lat="-3.1023010" lon="37.3772700">
    <ele>4540.3</ele>
    <time>2026-06-22T11:53:03Z</time>
   </trkpt>
   <trkpt lat="-3.1023020" lon="37.3772680">
    <ele>4540.3</ele>
    <time>2026-06-22T11:53:04Z</time>
   </trkpt>
   <trkpt lat="-3.1023010" lon="37.3772700">
    <ele>4540.4</ele>
    <time>2026-06-22T11:53:05Z</time>
   </trkpt>
   <trkpt lat="-3.1022990" lon="37.3772700">
    <ele>4540.4</ele>
    <time>2026-06-22T11:53:06Z</time>
   </trkpt>
   <trkpt lat="-3.1022990" lon="37.3772710">
    <ele>4540.4</ele>
    <time>2026-06-22T11:53:07Z</time>
   </trkpt>
   <trkpt lat="-3.1022970" lon="37.3772730">
    <ele>4540.5</ele>
    <time>2026-06-22T11:53:08Z</time>
   </trkpt>
   <trkpt lat="-3.1022930" lon="37.3772790">
    <ele>4540.7</ele>
    <time>2026-06-22T11:53:09Z</time>
   </trkpt>
   <trkpt lat="-3.1022910" lon="37.3772810">
    <ele>4540.8</ele>
    <time>2026-06-22T11:53:10Z</time>
   </trkpt>
   <trkpt lat="-3.1022900" lon="37.3772790">
    <ele>4540.8</ele>
    <time>2026-06-22T11:53:11Z</time>
   </trkpt>
   <trkpt lat="-3.1022910" lon="37.3772820">
    <ele>4540.9</ele>
    <time>2026-06-22T11:53:12Z</time>
   </trkpt>
   <trkpt lat="-3.1022890" lon="37.3772860">
    <ele>4541.0</ele>
    <time>2026-06-22T11:53:13Z</time>
   </trkpt>
   <trkpt lat="-3.1022910" lon="37.3772890">
    <ele>4541.1</ele>
    <time>2026-06-22T11:53:14Z</time>
   </trkpt>
   <trkpt lat="-3.1022930" lon="37.3772880">
    <ele>4541.1</ele>
    <time>2026-06-22T11:53:15Z</time>
   </trkpt>
   <trkpt lat="-3.1022940" lon="37.3772880">
    <ele>4541.2</ele>
    <time>2026-06-22T11:53:16Z</time>
   </trkpt>
   <trkpt lat="-3.1022960" lon="37.3772910">
    <ele>4541.3</ele>
    <time>2026-06-22T11:53:17Z</time>
   </trkpt>
   <trkpt lat="-3.1022970" lon="37.3772920">
    <ele>4541.3</ele>
    <time>2026-06-22T11:53:18Z</time>
   </trkpt>
   <trkpt lat="-3.1022980" lon="37.3772940">
    <ele>4541.4</ele>
    <time>2026-06-22T11:53:19Z</time>
   </trkpt>
   <trkpt lat="-3.1023010" lon="37.3772960">
    <ele>4541.4</ele>
    <time>2026-06-22T11:53:20Z</time>
   </trkpt>
   <trkpt lat="-3.1023040" lon="37.3772980">
    <ele>4541.5</ele>
    <time>2026-06-22T11:53:21Z</time>
   </trkpt>
   <trkpt lat="-3.1023030" lon="37.3773020">
    <ele>4541.6</ele>
    <time>2026-06-22T11:53:22Z</time>
   </trkpt>
   <trkpt lat="-3.1023010" lon="37.3773000">
    <ele>4541.7</ele>
    <time>2026-06-22T11:53:23Z</time>
   </trkpt>
   <trkpt lat="-3.1023000" lon="37.3773040">
    <ele>4541.8</ele>
    <time>2026-06-22T11:53:24Z</time>
   </trkpt>
   <trkpt lat="-3.1023000" lon="37.3773040">
    <ele>4541.8</ele>
    <time>2026-06-22T11:53:25Z</time>
   </trkpt>
   <trkpt lat="-3.1022970" lon="37.3773030">
    <ele>4541.9</ele>
    <time>2026-06-22T11:53:26Z</time>
   </trkpt>
   <trkpt lat="-3.1022930" lon="37.3773030">
    <ele>4542.0</ele>
    <time>2026-06-22T11:53:27Z</time>
   </trkpt>
   <trkpt lat="-3.1022920" lon="37.3773030">
    <ele>4542.0</ele>
    <time>2026-06-22T11:53:28Z</time>
   </trkpt>
   <trkpt lat="-3.1022890" lon="37.3773060">
    <ele>4542.1</ele>
    <time>2026-06-22T11:53:29Z</time>
   </trkpt>
   <trkpt lat="-3.1022890" lon="37.3773060">
    <ele>4542.1</ele>
    <time>2026-06-22T11:53:30Z</time>
   </trkpt>
   <trkpt lat="-3.1022900" lon="37.3773040">
    <ele>4542.2</ele>
    <time>2026-06-22T11:53:31Z</time>
   </trkpt>
   <trkpt lat="-3.1022900" lon="37.3773080">
    <ele>4542.3</ele>
    <time>2026-06-22T11:53:32Z</time>
   </trkpt>
   <trkpt lat="-3.1022930" lon="37.3773070">
    <ele>4542.3</ele>
    <time>2026-06-22T11:53:33Z</time>
   </trkpt>
   <trkpt lat="-3.1022960" lon="37.3773100">
    <ele>4542.5</ele>
    <time>2026-06-22T11:53:34Z</time>
   </trkpt>
   <trkpt lat="-3.1022970" lon="37.3773090">
    <ele>4542.5</ele>
    <time>2026-06-22T11:53:35Z</time>
   </trkpt>
   <trkpt lat="-3.1022980" lon="37.3773100">
    <ele>4542.5</ele>
    <time>2026-06-22T11:53:36Z</time>
   </trkpt>
   <trkpt lat="-3.1023000" lon="37.3773110">
    <ele>4542.6</ele>
    <time>2026-06-22T11:53:37Z</time>
   </trkpt>
   <trkpt lat="-3.1023020" lon="37.3773110">
    <ele>4542.6</ele>
    <time>2026-06-22T11:53:38Z</time>
   </trkpt>
   <trkpt lat="-3.1023060" lon="37.3773120">
    <ele>4542.7</ele>
    <time>2026-06-22T11:53:39Z</time>
   </trkpt>
   <trkpt lat="-3.1023020" lon="37.3773130">
    <ele>4542.8</ele>
    <time>2026-06-22T11:53:40Z</time>
   </trkpt>
   <trkpt lat="-3.1023080" lon="37.3773130">
    <ele>4543.0</ele>
    <time>2026-06-22T11:53:41Z</time>
   </trkpt>
   <trkpt lat="-3.1023120" lon="37.3773130">
    <ele>4543.1</ele>
    <time>2026-06-22T11:53:42Z</time>
   </trkpt>
   <trkpt lat="-3.1023130" lon="37.3773130">
    <ele>4543.1</ele>
    <time>2026-06-22T11:53:43Z</time>
   </trkpt>
   <trkpt lat="-3.1023150" lon="37.3773150">
    <ele>4543.2</ele>
    <time>2026-06-22T11:53:44Z</time>
   </trkpt>
   <trkpt lat="-3.1023170" lon="37.3773150">
    <ele>4543.2</ele>
    <time>2026-06-22T11:53:45Z</time>
   </trkpt>
   <trkpt lat="-3.1023230" lon="37.3773150">
    <ele>4543.4</ele>
    <time>2026-06-22T11:53:46Z</time>
   </trkpt>
   <trkpt lat="-3.1023220" lon="37.3773150">
    <ele>4543.4</ele>
    <time>2026-06-22T11:53:47Z</time>
   </trkpt>
   <trkpt lat="-3.1023260" lon="37.3773150">
    <ele>4543.5</ele>
    <time>2026-06-22T11:53:48Z</time>
   </trkpt>
   <trkpt lat="-3.1023280" lon="37.3773160">
    <ele>4543.5</ele>
    <time>2026-06-22T11:53:49Z</time>
   </trkpt>
   <trkpt lat="-3.1023320" lon="37.3773180">
    <ele>4543.6</ele>
    <time>2026-06-22T11:53:50Z</time>
   </trkpt>
   <trkpt lat="-3.1023320" lon="37.3773190">
    <ele>4543.6</ele>
    <time>2026-06-22T11:53:51Z</time>
   </trkpt>
   <trkpt lat="-3.1023330" lon="37.3773210">
    <ele>4543.7</ele>
    <time>2026-06-22T11:53:52Z</time>
   </trkpt>
   <trkpt lat="-3.1023370" lon="37.3773200">
    <ele>4543.8</ele>
    <time>2026-06-22T11:53:53Z</time>
   </trkpt>
   <trkpt lat="-3.1023390" lon="37.3773200">
    <ele>4543.8</ele>
    <time>2026-06-22T11:53:54Z</time>
   </trkpt>
   <trkpt lat="-3.1023430" lon="37.3773200">
    <ele>4543.9</ele>
    <time>2026-06-22T11:53:55Z</time>
   </trkpt>
   <trkpt lat="-3.1023490" lon="37.3773220">
    <ele>4544.1</ele>
    <time>2026-06-22T11:53:56Z</time>
   </trkpt>
   <trkpt lat="-3.1023490" lon="37.3773270">
    <ele>4544.2</ele>
    <time>2026-06-22T11:53:57Z</time>
   </trkpt>
   <trkpt lat="-3.1023480" lon="37.3773260">
    <ele>4544.2</ele>
    <time>2026-06-22T11:53:58Z</time>
   </trkpt>
   <trkpt lat="-3.1023430" lon="37.3773250">
    <ele>4544.3</ele>
    <time>2026-06-22T11:53:59Z</time>
   </trkpt>
   <trkpt lat="-3.1023410" lon="37.3773280">
    <ele>4544.4</ele>
    <time>2026-06-22T11:54:00Z</time>
   </trkpt>
   <trkpt lat="-3.1023400" lon="37.3773260">
    <ele>4544.5</ele>
    <time>2026-06-22T11:54:01Z</time>
   </trkpt>
   <trkpt lat="-3.1023390" lon="37.3773260">
    <ele>4544.5</ele>
    <time>2026-06-22T11:54:02Z</time>
   </trkpt>
   <trkpt lat="-3.1023390" lon="37.3773260">
    <ele>4544.5</ele>
    <time>2026-06-22T11:54:03Z</time>
   </trkpt>
   <trkpt lat="-3.1023400" lon="37.3773280">
    <ele>4544.5</ele>
    <time>2026-06-22T11:54:04Z</time>
   </trkpt>
   <trkpt lat="-3.1023420" lon="37.3773290">
    <ele>4544.6</ele>
    <time>2026-06-22T11:54:06Z</time>
   </trkpt>
   <trkpt lat="-3.1023450" lon="37.3773320">
    <ele>4544.7</ele>
    <time>2026-06-22T11:54:07Z</time>
   </trkpt>
   <trkpt lat="-3.1023450" lon="37.3773330">
    <ele>4544.7</ele>
    <time>2026-06-22T11:54:08Z</time>
   </trkpt>
   <trkpt lat="-3.1023450" lon="37.3773320">
    <ele>4544.7</ele>
    <time>2026-06-22T11:54:09Z</time>
   </trkpt>
   <trkpt lat="-3.1023450" lon="37.3773340">
    <ele>4544.8</ele>
    <time>2026-06-22T11:54:10Z</time>
   </trkpt>
   <trkpt lat="-3.1023440" lon="37.3773340">
    <ele>4544.8</ele>
    <time>2026-06-22T11:54:11Z</time>
   </trkpt>
   <trkpt lat="-3.1023450" lon="37.3773350">
    <ele>4544.8</ele>
    <time>2026-06-22T11:54:12Z</time>
   </trkpt>
   <trkpt lat="-3.1023440" lon="37.3773350">
    <ele>4544.9</ele>
    <time>2026-06-22T11:54:13Z</time>
   </trkpt>
   <trkpt lat="-3.1023440" lon="37.3773360">
    <ele>4544.9</ele>
    <time>2026-06-22T11:54:14Z</time>
   </trkpt>
   <trkpt lat="-3.1023440" lon="37.3773360">
    <ele>4544.9</ele>
    <time>2026-06-22T11:54:15Z</time>
   </trkpt>
   <trkpt lat="-3.1023440" lon="37.3773350">
    <ele>4544.9</ele>
    <time>2026-06-22T11:54:16Z</time>
   </trkpt>
   <trkpt lat="-3.1023440" lon="37.3773360">
    <ele>4544.9</ele>
    <time>2026-06-22T11:54:17Z</time>
   </trkpt>
   <trkpt lat="-3.1023450" lon="37.3773360">
    <ele>4545.0</ele>
    <time>2026-06-22T11:54:18Z</time>
   </trkpt>
   <trkpt lat="-3.1023470" lon="37.3773380">
    <ele>4545.0</ele>
    <time>2026-06-22T11:54:19Z</time>
   </trkpt>
   <trkpt lat="-3.1023470" lon="37.3773390">
    <ele>4545.0</ele>
    <time>2026-06-22T11:54:20Z</time>
   </trkpt>
   <trkpt lat="-3.1023480" lon="37.3773410">
    <ele>4545.1</ele>
    <time>2026-06-22T11:54:21Z</time>
   </trkpt>
   <trkpt lat="-3.1023480" lon="37.3773440">
    <ele>4545.2</ele>
    <time>2026-06-22T11:54:22Z</time>
   </trkpt>
   <trkpt lat="-3.1023530" lon="37.3773440">
    <ele>4545.3</ele>
    <time>2026-06-22T11:54:23Z</time>
   </trkpt>
   <trkpt lat="-3.1023580" lon="37.3773460">
    <ele>4545.4</ele>
    <time>2026-06-22T11:54:24Z</time>
   </trkpt>
   <trkpt lat="-3.1023610" lon="37.3773450">
    <ele>4545.5</ele>
    <time>2026-06-22T11:54:25Z</time>
   </trkpt>
   <trkpt lat="-3.1023610" lon="37.3773420">
    <ele>4545.5</ele>
    <time>2026-06-22T11:54:26Z</time>
   </trkpt>
   <trkpt lat="-3.1023610" lon="37.3773380">
    <ele>4545.6</ele>
    <time>2026-06-22T11:54:27Z</time>
   </trkpt>
   <trkpt lat="-3.1023590" lon="37.3773380">
    <ele>4545.7</ele>
    <time>2026-06-22T11:54:28Z</time>
   </trkpt>
   <trkpt lat="-3.1023600" lon="37.3773390">
    <ele>4545.7</ele>
    <time>2026-06-22T11:54:29Z</time>
   </trkpt>
   <trkpt lat="-3.1023560" lon="37.3773420">
    <ele>4545.8</ele>
    <time>2026-06-22T11:54:30Z</time>
   </trkpt>
   <trkpt lat="-3.1023550" lon="37.3773390">
    <ele>4545.9</ele>
    <time>2026-06-22T11:54:31Z</time>
   </trkpt>
   <trkpt lat="-3.1023560" lon="37.3773400">
    <ele>4545.9</ele>
    <time>2026-06-22T11:54:32Z</time>
   </trkpt>
   <trkpt lat="-3.1023560" lon="37.3773390">
    <ele>4545.9</ele>
    <time>2026-06-22T11:54:33Z</time>
   </trkpt>
   <trkpt lat="-3.1023560" lon="37.3773400">
    <ele>4545.9</ele>
    <time>2026-06-22T11:54:34Z</time>
   </trkpt>
   <trkpt lat="-3.1023550" lon="37.3773390">
    <ele>4546.0</ele>
    <time>2026-06-22T11:54:35Z</time>
   </trkpt>
   <trkpt lat="-3.1023540" lon="37.3773390">
    <ele>4546.0</ele>
    <time>2026-06-22T11:54:36Z</time>
   </trkpt>
   <trkpt lat="-3.1023540" lon="37.3773390">
    <ele>4546.0</ele>
    <time>2026-06-22T11:54:37Z</time>
   </trkpt>
   <trkpt lat="-3.1023540" lon="37.3773370">
    <ele>4546.0</ele>
    <time>2026-06-22T11:54:38Z</time>
   </trkpt>
   <trkpt lat="-3.1023530" lon="37.3773370">
    <ele>4546.0</ele>
    <time>2026-06-22T11:54:39Z</time>
   </trkpt>
   <trkpt lat="-3.1023520" lon="37.3773380">
    <ele>4546.1</ele>
    <time>2026-06-22T11:54:40Z</time>
   </trkpt>
   <trkpt lat="-3.1023520" lon="37.3773380">
    <ele>4546.1</ele>
    <time>2026-06-22T11:54:41Z</time>
   </trkpt>
   <trkpt lat="-3.1023510" lon="37.3773390">
    <ele>4546.1</ele>
    <time>2026-06-22T11:54:42Z</time>
   </trkpt>
   <trkpt lat="-3.1023510" lon="37.3773390">
    <ele>4546.1</ele>
    <time>2026-06-22T11:54:43Z</time>
   </trkpt>
   <trkpt lat="-3.1023500" lon="37.3773390">
    <ele>4546.1</ele>
    <time>2026-06-22T11:54:44Z</time>
   </trkpt>
   <trkpt lat="-3.1023500" lon="37.3773390">
    <ele>4546.1</ele>
    <time>2026-06-22T11:54:45Z</time>
   </trkpt>
   <trkpt lat="-3.1023500" lon="37.3773390">
    <ele>4546.1</ele>
    <time>2026-06-22T11:54:46Z</time>
   </trkpt>
   <trkpt lat="-3.1023510" lon="37.3773390">
    <ele>4546.1</ele>
    <time>2026-06-22T11:54:47Z</time>
   </trkpt>
   <trkpt lat="-3.1023510" lon="37.3773390">
    <ele>4546.1</ele>
    <time>2026-06-22T11:54:48Z</time>
   </trkpt>
   <trkpt lat="-3.1023520" lon="37.3773380">
    <ele>4546.2</ele>
    <time>2026-06-22T11:54:49Z</time>
   </trkpt>
   <trkpt lat="-3.1023520" lon="37.3773380">
    <ele>4546.2</ele>
    <time>2026-06-22T11:54:50Z</time>
   </trkpt>
   <trkpt lat="-3.1023520" lon="37.3773380">
    <ele>4546.2</ele>
    <time>2026-06-22T11:54:51Z</time>
   </trkpt>
   <trkpt lat="-3.1023520" lon="37.3773370">
    <ele>4546.2</ele>
    <time>2026-06-22T11:54:52Z</time>
   </trkpt>
   <trkpt lat="-3.1023510" lon="37.3773370">
    <ele>4546.2</ele>
    <time>2026-06-22T11:54:53Z</time>
   </trkpt>
   <trkpt lat="-3.1023510" lon="37.3773360">
    <ele>4546.2</ele>
    <time>2026-06-22T11:54:54Z</time>
   </trkpt>
   <trkpt lat="-3.1023510" lon="37.3773370">
    <ele>4546.2</ele>
    <time>2026-06-22T11:54:55Z</time>
   </trkpt>
   <trkpt lat="-3.1023510" lon="37.3773360">
    <ele>4546.3</ele>
    <time>2026-06-22T11:54:56Z</time>
   </trkpt>
   <trkpt lat="-3.1023510" lon="37.3773360">
    <ele>4546.3</ele>
    <time>2026-06-22T11:54:57Z</time>
   </trkpt>
   <trkpt lat="-3.1023510" lon="37.3773360">
    <ele>4546.3</ele>
    <time>2026-06-22T11:54:58Z</time>
   </trkpt>
   <trkpt lat="-3.1023510" lon="37.3773370">
    <ele>4546.3</ele>
    <time>2026-06-22T11:54:59Z</time>
   </trkpt>
   <trkpt lat="-3.1023500" lon="37.3773370">
    <ele>4546.3</ele>
    <time>2026-06-22T11:55:00Z</time>
   </trkpt>
   <trkpt lat="-3.1023500" lon="37.3773360">
    <ele>4546.3</ele>
    <time>2026-06-22T11:55:01Z</time>
   </trkpt>
   <trkpt lat="-3.1023500" lon="37.3773360">
    <ele>4546.3</ele>
    <time>2026-06-22T11:55:02Z</time>
   </trkpt>
   <trkpt lat="-3.1023500" lon="37.3773360">
    <ele>4546.3</ele>
    <time>2026-06-22T11:55:03Z</time>
   </trkpt>
   <trkpt lat="-3.1023500" lon="37.3773360">
    <ele>4546.3</ele>
    <time>2026-06-22T11:55:04Z</time>
   </trkpt>
   <trkpt lat="-3.1023510" lon="37.3773340">
    <ele>4546.4</ele>
    <time>2026-06-22T11:55:05Z</time>
   </trkpt>
   <trkpt lat="-3.1023510" lon="37.3773350">
    <ele>4546.4</ele>
    <time>2026-06-22T11:55:06Z</time>
   </trkpt>
   <trkpt lat="-3.1023520" lon="37.3773350">
    <ele>4546.4</ele>
    <time>2026-06-22T11:55:07Z</time>
   </trkpt>
   <trkpt lat="-3.1023520" lon="37.3773360">
    <ele>4546.4</ele>
    <time>2026-06-22T11:55:08Z</time>
   </trkpt>
   <trkpt lat="-3.1023520" lon="37.3773360">
    <ele>4546.4</ele>
    <time>2026-06-22T11:55:09Z</time>
   </trkpt>
   <trkpt lat="-3.1023520" lon="37.3773350">
    <ele>4546.5</ele>
    <time>2026-06-22T11:55:10Z</time>
   </trkpt>
   <trkpt lat="-3.1023520" lon="37.3773350">
    <ele>4546.5</ele>
    <time>2026-06-22T11:55:11Z</time>
   </trkpt>
   <trkpt lat="-3.1023520" lon="37.3773340">
    <ele>4546.5</ele>
    <time>2026-06-22T11:55:12Z</time>
   </trkpt>
   <trkpt lat="-3.1023520" lon="37.3773340">
    <ele>4546.5</ele>
    <time>2026-06-22T11:55:13Z</time>
   </trkpt>
   <trkpt lat="-3.1023520" lon="37.3773340">
    <ele>4546.5</ele>
    <time>2026-06-22T11:55:14Z</time>
   </trkpt>
   <trkpt lat="-3.1023520" lon="37.3773340">
    <ele>4546.5</ele>
    <time>2026-06-22T11:55:15Z</time>
   </trkpt>
   <trkpt lat="-3.1023530" lon="37.3773340">
    <ele>4546.5</ele>
    <time>2026-06-22T11:55:16Z</time>
   </trkpt>
   <trkpt lat="-3.1023530" lon="37.3773340">
    <ele>4546.5</ele>
    <time>2026-06-22T11:55:17Z</time>
   </trkpt>
   <trkpt lat="-3.1023530" lon="37.3773340">
    <ele>4546.5</ele>
    <time>2026-06-22T11:55:18Z</time>
   </trkpt>
   <trkpt lat="-3.1023530" lon="37.3773340">
    <ele>4546.5</ele>
    <time>2026-06-22T11:55:19Z</time>
   </trkpt>
   <trkpt lat="-3.1023530" lon="37.3773340">
    <ele>4546.5</ele>
    <time>2026-06-22T11:55:20Z</time>
   </trkpt>
   <trkpt lat="-3.1023530" lon="37.3773340">
    <ele>4546.5</ele>
    <time>2026-06-22T11:55:21Z</time>
   </trkpt>
   <trkpt lat="-3.1023530" lon="37.3773340">
    <ele>4546.5</ele>
    <time>2026-06-22T11:55:22Z</time>
   </trkpt>
   <trkpt lat="-3.1023530" lon="37.3773340">
    <ele>4546.5</ele>
    <time>2026-06-22T11:55:23Z</time>
   </trkpt>
   <trkpt lat="-3.1023520" lon="37.3773340">
    <ele>4546.5</ele>
    <time>2026-06-22T11:55:24Z</time>
   </trkpt>
   <trkpt lat="-3.1023530" lon="37.3773330">
    <ele>4546.5</ele>
    <time>2026-06-22T11:55:25Z</time>
   </trkpt>
   <trkpt lat="-3.1023530" lon="37.3773320">
    <ele>4546.6</ele>
    <time>2026-06-22T11:55:26Z</time>
   </trkpt>
   <trkpt lat="-3.1023520" lon="37.3773330">
    <ele>4546.6</ele>
    <time>2026-06-22T11:55:27Z</time>
   </trkpt>
   <trkpt lat="-3.1023530" lon="37.3773320">
    <ele>4546.6</ele>
    <time>2026-06-22T11:55:28Z</time>
   </trkpt>
   <trkpt lat="-3.1023530" lon="37.3773330">
    <ele>4546.6</ele>
    <time>2026-06-22T11:55:29Z</time>
   </trkpt>
   <trkpt lat="-3.1023550" lon="37.3773320">
    <ele>4546.7</ele>
    <time>2026-06-22T11:55:30Z</time>
   </trkpt>
   <trkpt lat="-3.1023550" lon="37.3773320">
    <ele>4546.7</ele>
    <time>2026-06-22T11:55:31Z</time>
   </trkpt>
   <trkpt lat="-3.1023550" lon="37.3773330">
    <ele>4546.7</ele>
    <time>2026-06-22T11:55:32Z</time>
   </trkpt>
   <trkpt lat="-3.1023570" lon="37.3773330">
    <ele>4546.8</ele>
    <time>2026-06-22T11:55:33Z</time>
   </trkpt>
   <trkpt lat="-3.1023570" lon="37.3773330">
    <ele>4546.8</ele>
    <time>2026-06-22T11:55:34Z</time>
   </trkpt>
   <trkpt lat="-3.1023570" lon="37.3773330">
    <ele>4546.8</ele>
    <time>2026-06-22T11:55:35Z</time>
   </trkpt>
   <trkpt lat="-3.1023590" lon="37.3773380">
    <ele>4546.9</ele>
    <time>2026-06-22T11:55:36Z</time>
   </trkpt>
   <trkpt lat="-3.1023640" lon="37.3773380">
    <ele>4546.9</ele>
    <time>2026-06-22T11:55:37Z</time>
   </trkpt>
   <trkpt lat="-3.1023640" lon="37.3773410">
    <ele>4547.0</ele>
    <time>2026-06-22T11:55:38Z</time>
   </trkpt>
   <trkpt lat="-3.1023660" lon="37.3773390">
    <ele>4547.1</ele>
    <time>2026-06-22T11:55:39Z</time>
   </trkpt>
   <trkpt lat="-3.1023670" lon="37.3773410">
    <ele>4547.1</ele>
    <time>2026-06-22T11:55:40Z</time>
   </trkpt>
   <trkpt lat="-3.1023710" lon="37.3773410">
    <ele>4547.2</ele>
    <time>2026-06-22T11:55:41Z</time>
   </trkpt>
   <trkpt lat="-3.1023730" lon="37.3773430">
    <ele>4547.2</ele>
    <time>2026-06-22T11:55:42Z</time>
   </trkpt>
   <trkpt lat="-3.1023770" lon="37.3773430">
    <ele>4547.3</ele>
    <time>2026-06-22T11:55:43Z</time>
   </trkpt>
   <trkpt lat="-3.1023810" lon="37.3773430">
    <ele>4547.4</ele>
    <time>2026-06-22T11:55:44Z</time>
   </trkpt>
   <trkpt lat="-3.1023860" lon="37.3773420">
    <ele>4547.5</ele>
    <time>2026-06-22T11:55:45Z</time>
   </trkpt>
   <trkpt lat="-3.1023890" lon="37.3773440">
    <ele>4547.6</ele>
    <time>2026-06-22T11:55:46Z</time>
   </trkpt>
   <trkpt lat="-3.1023930" lon="37.3773440">
    <ele>4547.6</ele>
    <time>2026-06-22T11:55:47Z</time>
   </trkpt>
   <trkpt lat="-3.1023960" lon="37.3773450">
    <ele>4547.7</ele>
    <time>2026-06-22T11:55:48Z</time>
   </trkpt>
   <trkpt lat="-3.1023950" lon="37.3773480">
    <ele>4547.7</ele>
    <time>2026-06-22T11:55:49Z</time>
   </trkpt>
   <trkpt lat="-3.1024020" lon="37.3773500">
    <ele>4547.9</ele>
    <time>2026-06-22T11:55:50Z</time>
   </trkpt>
   <trkpt lat="-3.1024060" lon="37.3773490">
    <ele>4548.0</ele>
    <time>2026-06-22T11:55:51Z</time>
   </trkpt>
   <trkpt lat="-3.1024100" lon="37.3773520">
    <ele>4548.0</ele>
    <time>2026-06-22T11:55:52Z</time>
   </trkpt>
   <trkpt lat="-3.1024170" lon="37.3773550">
    <ele>4548.2</ele>
    <time>2026-06-22T11:55:53Z</time>
   </trkpt>
   <trkpt lat="-3.1024200" lon="37.3773570">
    <ele>4548.2</ele>
    <time>2026-06-22T11:55:54Z</time>
   </trkpt>
   <trkpt lat="-3.1024220" lon="37.3773580">
    <ele>4548.3</ele>
    <time>2026-06-22T11:55:55Z</time>
   </trkpt>
   <trkpt lat="-3.1024290" lon="37.3773630">
    <ele>4548.4</ele>
    <time>2026-06-22T11:55:56Z</time>
   </trkpt>
   <trkpt lat="-3.1024260" lon="37.3773600">
    <ele>4548.5</ele>
    <time>2026-06-22T11:55:57Z</time>
   </trkpt>
   <trkpt lat="-3.1024320" lon="37.3773650">
    <ele>4548.6</ele>
    <time>2026-06-22T11:55:58Z</time>
   </trkpt>
   <trkpt lat="-3.1024390" lon="37.3773650">
    <ele>4548.8</ele>
    <time>2026-06-22T11:55:59Z</time>
   </trkpt>
   <trkpt lat="-3.1024440" lon="37.3773670">
    <ele>4548.9</ele>
    <time>2026-06-22T11:56:00Z</time>
   </trkpt>
   <trkpt lat="-3.1024440" lon="37.3773700">
    <ele>4548.9</ele>
    <time>2026-06-22T11:56:01Z</time>
   </trkpt>
   <trkpt lat="-3.1024570" lon="37.3773720">
    <ele>4549.1</ele>
    <time>2026-06-22T11:56:02Z</time>
   </trkpt>
   <trkpt lat="-3.1024640" lon="37.3773730">
    <ele>4549.3</ele>
    <time>2026-06-22T11:56:03Z</time>
   </trkpt>
   <trkpt lat="-3.1024680" lon="37.3773750">
    <ele>4549.4</ele>
    <time>2026-06-22T11:56:04Z</time>
   </trkpt>
   <trkpt lat="-3.1024730" lon="37.3773780">
    <ele>4549.5</ele>
    <time>2026-06-22T11:56:05Z</time>
   </trkpt>
   <trkpt lat="-3.1024770" lon="37.3773790">
    <ele>4549.5</ele>
    <time>2026-06-22T11:56:06Z</time>
   </trkpt>
   <trkpt lat="-3.1024840" lon="37.3773810">
    <ele>4549.7</ele>
    <time>2026-06-22T11:56:07Z</time>
   </trkpt>
   <trkpt lat="-3.1024900" lon="37.3773830">
    <ele>4549.8</ele>
    <time>2026-06-22T11:56:08Z</time>
   </trkpt>
   <trkpt lat="-3.1024940" lon="37.3773850">
    <ele>4549.8</ele>
    <time>2026-06-22T11:56:09Z</time>
   </trkpt>
   <trkpt lat="-3.1025000" lon="37.3773870">
    <ele>4550.0</ele>
    <time>2026-06-22T11:56:10Z</time>
   </trkpt>
   <trkpt lat="-3.1025020" lon="37.3773890">
    <ele>4550.0</ele>
    <time>2026-06-22T11:56:12Z</time>
   </trkpt>
   <trkpt lat="-3.1025070" lon="37.3773910">
    <ele>4550.1</ele>
    <time>2026-06-22T11:56:13Z</time>
   </trkpt>
   <trkpt lat="-3.1025120" lon="37.3773960">
    <ele>4550.2</ele>
    <time>2026-06-22T11:56:14Z</time>
   </trkpt>
   <trkpt lat="-3.1025120" lon="37.3773990">
    <ele>4550.3</ele>
    <time>2026-06-22T11:56:15Z</time>
   </trkpt>
   <trkpt lat="-3.1025100" lon="37.3774010">
    <ele>4550.3</ele>
    <time>2026-06-22T11:56:16Z</time>
   </trkpt>
   <trkpt lat="-3.1025090" lon="37.3774040">
    <ele>4550.4</ele>
    <time>2026-06-22T11:56:17Z</time>
   </trkpt>
   <trkpt lat="-3.1025080" lon="37.3774090">
    <ele>4550.5</ele>
    <time>2026-06-22T11:56:18Z</time>
   </trkpt>
   <trkpt lat="-3.1025070" lon="37.3774220">
    <ele>4550.7</ele>
    <time>2026-06-22T11:56:19Z</time>
   </trkpt>
   <trkpt lat="-3.1025050" lon="37.3774210">
    <ele>4550.8</ele>
    <time>2026-06-22T11:56:20Z</time>
   </trkpt>
   <trkpt lat="-3.1025020" lon="37.3774260">
    <ele>4550.9</ele>
    <time>2026-06-22T11:56:21Z</time>
   </trkpt>
   <trkpt lat="-3.1025010" lon="37.3774270">
    <ele>4550.9</ele>
    <time>2026-06-22T11:56:22Z</time>
   </trkpt>
   <trkpt lat="-3.1024980" lon="37.3774300">
    <ele>4551.0</ele>
    <time>2026-06-22T11:56:23Z</time>
   </trkpt>
   <trkpt lat="-3.1024970" lon="37.3774280">
    <ele>4551.0</ele>
    <time>2026-06-22T11:56:24Z</time>
   </trkpt>
   <trkpt lat="-3.1024920" lon="37.3774270">
    <ele>4551.1</ele>
    <time>2026-06-22T11:56:25Z</time>
   </trkpt>
   <trkpt lat="-3.1024890" lon="37.3774280">
    <ele>4551.2</ele>
    <time>2026-06-22T11:56:26Z</time>
   </trkpt>
   <trkpt lat="-3.1024850" lon="37.3774290">
    <ele>4551.3</ele>
    <time>2026-06-22T11:56:27Z</time>
   </trkpt>
   <trkpt lat="-3.1024840" lon="37.3774280">
    <ele>4551.3</ele>
    <time>2026-06-22T11:56:28Z</time>
   </trkpt>
   <trkpt lat="-3.1024800" lon="37.3774290">
    <ele>4551.4</ele>
    <time>2026-06-22T11:56:29Z</time>
   </trkpt>
   <trkpt lat="-3.1024770" lon="37.3774290">
    <ele>4551.4</ele>
    <time>2026-06-22T11:56:30Z</time>
   </trkpt>
   <trkpt lat="-3.1024740" lon="37.3774290">
    <ele>4551.5</ele>
    <time>2026-06-22T11:56:31Z</time>
   </trkpt>
   <trkpt lat="-3.1024710" lon="37.3774310">
    <ele>4551.6</ele>
    <time>2026-06-22T11:56:32Z</time>
   </trkpt>
   <trkpt lat="-3.1024740" lon="37.3774340">
    <ele>4551.6</ele>
    <time>2026-06-22T11:56:33Z</time>
   </trkpt>
   <trkpt lat="-3.1024730" lon="37.3774330">
    <ele>4551.7</ele>
    <time>2026-06-22T11:56:34Z</time>
   </trkpt>
   <trkpt lat="-3.1024740" lon="37.3774360">
    <ele>4551.7</ele>
    <time>2026-06-22T11:56:35Z</time>
   </trkpt>
   <trkpt lat="-3.1024770" lon="37.3774400">
    <ele>4551.8</ele>
    <time>2026-06-22T11:56:36Z</time>
   </trkpt>
   <trkpt lat="-3.1024800" lon="37.3774410">
    <ele>4551.9</ele>
    <time>2026-06-22T11:56:37Z</time>
   </trkpt>
   <trkpt lat="-3.1024790" lon="37.3774430">
    <ele>4551.9</ele>
    <time>2026-06-22T11:56:38Z</time>
   </trkpt>
   <trkpt lat="-3.1024800" lon="37.3774450">
    <ele>4552.0</ele>
    <time>2026-06-22T11:56:39Z</time>
   </trkpt>
   <trkpt lat="-3.1024800" lon="37.3774460">
    <ele>4552.0</ele>
    <time>2026-06-22T11:56:40Z</time>
   </trkpt>
   <trkpt lat="-3.1024820" lon="37.3774460">
    <ele>4552.1</ele>
    <time>2026-06-22T11:56:41Z</time>
   </trkpt>
   <trkpt lat="-3.1024830" lon="37.3774540">
    <ele>4552.2</ele>
    <time>2026-06-22T11:56:42Z</time>
   </trkpt>
   <trkpt lat="-3.1024820" lon="37.3774550">
    <ele>4552.3</ele>
    <time>2026-06-22T11:56:43Z</time>
   </trkpt>
   <trkpt lat="-3.1024850" lon="37.3774570">
    <ele>4552.3</ele>
    <time>2026-06-22T11:56:44Z</time>
   </trkpt>
   <trkpt lat="-3.1024850" lon="37.3774590">
    <ele>4552.4</ele>
    <time>2026-06-22T11:56:45Z</time>
   </trkpt>
   <trkpt lat="-3.1024860" lon="37.3774630">
    <ele>4552.5</ele>
    <time>2026-06-22T11:56:46Z</time>
   </trkpt>
   <trkpt lat="-3.1024880" lon="37.3774650">
    <ele>4552.5</ele>
    <time>2026-06-22T11:56:47Z</time>
   </trkpt>
   <trkpt lat="-3.1024890" lon="37.3774680">
    <ele>4552.6</ele>
    <time>2026-06-22T11:56:48Z</time>
   </trkpt>
   <trkpt lat="-3.1024900" lon="37.3774670">
    <ele>4552.6</ele>
    <time>2026-06-22T11:56:49Z</time>
   </trkpt>
   <trkpt lat="-3.1024920" lon="37.3774720">
    <ele>4552.7</ele>
    <time>2026-06-22T11:56:50Z</time>
   </trkpt>
   <trkpt lat="-3.1024940" lon="37.3774730">
    <ele>4552.8</ele>
    <time>2026-06-22T11:56:51Z</time>
   </trkpt>
   <trkpt lat="-3.1024960" lon="37.3774730">
    <ele>4552.8</ele>
    <time>2026-06-22T11:56:52Z</time>
   </trkpt>
   <trkpt lat="-3.1024990" lon="37.3774760">
    <ele>4552.9</ele>
    <time>2026-06-22T11:56:53Z</time>
   </trkpt>
   <trkpt lat="-3.1025010" lon="37.3774770">
    <ele>4553.0</ele>
    <time>2026-06-22T11:56:54Z</time>
   </trkpt>
   <trkpt lat="-3.1025040" lon="37.3774800">
    <ele>4553.1</ele>
    <time>2026-06-22T11:56:55Z</time>
   </trkpt>
   <trkpt lat="-3.1025090" lon="37.3774830">
    <ele>4553.2</ele>
    <time>2026-06-22T11:56:56Z</time>
   </trkpt>
   <trkpt lat="-3.1025130" lon="37.3774840">
    <ele>4553.3</ele>
    <time>2026-06-22T11:56:57Z</time>
   </trkpt>
   <trkpt lat="-3.1025180" lon="37.3774850">
    <ele>4553.4</ele>
    <time>2026-06-22T11:56:58Z</time>
   </trkpt>
   <trkpt lat="-3.1025210" lon="37.3774850">
    <ele>4553.5</ele>
    <time>2026-06-22T11:56:59Z</time>
   </trkpt>
   <trkpt lat="-3.1025250" lon="37.3774870">
    <ele>4553.6</ele>
    <time>2026-06-22T11:57:00Z</time>
   </trkpt>
   <trkpt lat="-3.1025280" lon="37.3774880">
    <ele>4553.7</ele>
    <time>2026-06-22T11:57:01Z</time>
   </trkpt>
   <trkpt lat="-3.1025300" lon="37.3774920">
    <ele>4553.8</ele>
    <time>2026-06-22T11:57:02Z</time>
   </trkpt>
   <trkpt lat="-3.1025350" lon="37.3774970">
    <ele>4554.0</ele>
    <time>2026-06-22T11:57:03Z</time>
   </trkpt>
   <trkpt lat="-3.1025350" lon="37.3774950">
    <ele>4554.0</ele>
    <time>2026-06-22T11:57:04Z</time>
   </trkpt>
   <trkpt lat="-3.1025350" lon="37.3774990">
    <ele>4554.1</ele>
    <time>2026-06-22T11:57:05Z</time>
   </trkpt>
   <trkpt lat="-3.1025380" lon="37.3775010">
    <ele>4554.2</ele>
    <time>2026-06-22T11:57:06Z</time>
   </trkpt>
   <trkpt lat="-3.1025380" lon="37.3775060">
    <ele>4554.3</ele>
    <time>2026-06-22T11:57:07Z</time>
   </trkpt>
   <trkpt lat="-3.1025390" lon="37.3775090">
    <ele>4554.4</ele>
    <time>2026-06-22T11:57:08Z</time>
   </trkpt>
   <trkpt lat="-3.1025410" lon="37.3775120">
    <ele>4554.5</ele>
    <time>2026-06-22T11:57:09Z</time>
   </trkpt>
   <trkpt lat="-3.1025430" lon="37.3775160">
    <ele>4554.6</ele>
    <time>2026-06-22T11:57:10Z</time>
   </trkpt>
   <trkpt lat="-3.1025440" lon="37.3775180">
    <ele>4554.7</ele>
    <time>2026-06-22T11:57:11Z</time>
   </trkpt>
   <trkpt lat="-3.1025450" lon="37.3775200">
    <ele>4554.7</ele>
    <time>2026-06-22T11:57:12Z</time>
   </trkpt>
   <trkpt lat="-3.1025450" lon="37.3775220">
    <ele>4554.8</ele>
    <time>2026-06-22T11:57:13Z</time>
   </trkpt>
   <trkpt lat="-3.1025480" lon="37.3775270">
    <ele>4554.9</ele>
    <time>2026-06-22T11:57:14Z</time>
   </trkpt>
   <trkpt lat="-3.1025470" lon="37.3775280">
    <ele>4554.9</ele>
    <time>2026-06-22T11:57:15Z</time>
   </trkpt>
   <trkpt lat="-3.1025490" lon="37.3775300">
    <ele>4555.0</ele>
    <time>2026-06-22T11:57:16Z</time>
   </trkpt>
   <trkpt lat="-3.1025480" lon="37.3775330">
    <ele>4555.1</ele>
    <time>2026-06-22T11:57:17Z</time>
   </trkpt>
   <trkpt lat="-3.1025490" lon="37.3775360">
    <ele>4555.2</ele>
    <time>2026-06-22T11:57:18Z</time>
   </trkpt>
   <trkpt lat="-3.1025490" lon="37.3775390">
    <ele>4555.3</ele>
    <time>2026-06-22T11:57:19Z</time>
   </trkpt>
   <trkpt lat="-3.1025470" lon="37.3775390">
    <ele>4555.3</ele>
    <time>2026-06-22T11:57:20Z</time>
   </trkpt>
   <trkpt lat="-3.1025440" lon="37.3775450">
    <ele>4555.5</ele>
    <time>2026-06-22T11:57:21Z</time>
   </trkpt>
   <trkpt lat="-3.1025420" lon="37.3775450">
    <ele>4555.5</ele>
    <time>2026-06-22T11:57:22Z</time>
   </trkpt>
   <trkpt lat="-3.1025390" lon="37.3775450">
    <ele>4555.6</ele>
    <time>2026-06-22T11:57:23Z</time>
   </trkpt>
   <trkpt lat="-3.1025390" lon="37.3775460">
    <ele>4555.6</ele>
    <time>2026-06-22T11:57:24Z</time>
   </trkpt>
   <trkpt lat="-3.1025400" lon="37.3775480">
    <ele>4555.7</ele>
    <time>2026-06-22T11:57:25Z</time>
   </trkpt>
   <trkpt lat="-3.1025400" lon="37.3775520">
    <ele>4555.8</ele>
    <time>2026-06-22T11:57:26Z</time>
   </trkpt>
   <trkpt lat="-3.1025430" lon="37.3775520">
    <ele>4555.9</ele>
    <time>2026-06-22T11:57:27Z</time>
   </trkpt>
   <trkpt lat="-3.1025470" lon="37.3775560">
    <ele>4556.0</ele>
    <time>2026-06-22T11:57:28Z</time>
   </trkpt>
   <trkpt lat="-3.1025500" lon="37.3775550">
    <ele>4556.1</ele>
    <time>2026-06-22T11:57:29Z</time>
   </trkpt>
   <trkpt lat="-3.1025540" lon="37.3775560">
    <ele>4556.2</ele>
    <time>2026-06-22T11:57:30Z</time>
   </trkpt>
   <trkpt lat="-3.1025560" lon="37.3775580">
    <ele>4556.3</ele>
    <time>2026-06-22T11:57:31Z</time>
   </trkpt>
   <trkpt lat="-3.1025550" lon="37.3775580">
    <ele>4556.3</ele>
    <time>2026-06-22T11:57:32Z</time>
   </trkpt>
   <trkpt lat="-3.1025530" lon="37.3775600">
    <ele>4556.4</ele>
    <time>2026-06-22T11:57:33Z</time>
   </trkpt>
   <trkpt lat="-3.1025500" lon="37.3775610">
    <ele>4556.5</ele>
    <time>2026-06-22T11:57:34Z</time>
   </trkpt>
   <trkpt lat="-3.1025480" lon="37.3775610">
    <ele>4556.6</ele>
    <time>2026-06-22T11:57:35Z</time>
   </trkpt>
   <trkpt lat="-3.1025440" lon="37.3775620">
    <ele>4556.7</ele>
    <time>2026-06-22T11:57:36Z</time>
   </trkpt>
   <trkpt lat="-3.1025420" lon="37.3775630">
    <ele>4556.7</ele>
    <time>2026-06-22T11:57:37Z</time>
   </trkpt>
   <trkpt lat="-3.1025390" lon="37.3775650">
    <ele>4556.8</ele>
    <time>2026-06-22T11:57:38Z</time>
   </trkpt>
   <trkpt lat="-3.1025360" lon="37.3775670">
    <ele>4556.9</ele>
    <time>2026-06-22T11:57:39Z</time>
   </trkpt>
   <trkpt lat="-3.1025350" lon="37.3775690">
    <ele>4557.0</ele>
    <time>2026-06-22T11:57:40Z</time>
   </trkpt>
   <trkpt lat="-3.1025300" lon="37.3775710">
    <ele>4557.1</ele>
    <time>2026-06-22T11:57:41Z</time>
   </trkpt>
   <trkpt lat="-3.1025270" lon="37.3775720">
    <ele>4557.2</ele>
    <time>2026-06-22T11:57:42Z</time>
   </trkpt>
   <trkpt lat="-3.1025240" lon="37.3775700">
    <ele>4557.3</ele>
    <time>2026-06-22T11:57:43Z</time>
   </trkpt>
   <trkpt lat="-3.1025210" lon="37.3775740">
    <ele>4557.5</ele>
    <time>2026-06-22T11:57:44Z</time>
   </trkpt>
   <trkpt lat="-3.1025190" lon="37.3775760">
    <ele>4557.5</ele>
    <time>2026-06-22T11:57:45Z</time>
   </trkpt>
   <trkpt lat="-3.1025160" lon="37.3775780">
    <ele>4557.6</ele>
    <time>2026-06-22T11:57:46Z</time>
   </trkpt>
   <trkpt lat="-3.1025150" lon="37.3775820">
    <ele>4557.7</ele>
    <time>2026-06-22T11:57:47Z</time>
   </trkpt>
   <trkpt lat="-3.1025150" lon="37.3775840">
    <ele>4557.8</ele>
    <time>2026-06-22T11:57:48Z</time>
   </trkpt>
   <trkpt lat="-3.1025140" lon="37.3775890">
    <ele>4557.9</ele>
    <time>2026-06-22T11:57:49Z</time>
   </trkpt>
   <trkpt lat="-3.1025140" lon="37.3775880">
    <ele>4558.0</ele>
    <time>2026-06-22T11:57:50Z</time>
   </trkpt>
   <trkpt lat="-3.1025150" lon="37.3775920">
    <ele>4558.1</ele>
    <time>2026-06-22T11:57:51Z</time>
   </trkpt>
   <trkpt lat="-3.1025160" lon="37.3775940">
    <ele>4558.1</ele>
    <time>2026-06-22T11:57:52Z</time>
   </trkpt>
   <trkpt lat="-3.1025150" lon="37.3775950">
    <ele>4558.2</ele>
    <time>2026-06-22T11:57:53Z</time>
   </trkpt>
   <trkpt lat="-3.1025160" lon="37.3775980">
    <ele>4558.3</ele>
    <time>2026-06-22T11:57:54Z</time>
   </trkpt>
   <trkpt lat="-3.1025170" lon="37.3776000">
    <ele>4558.3</ele>
    <time>2026-06-22T11:57:55Z</time>
   </trkpt>
   <trkpt lat="-3.1025180" lon="37.3776030">
    <ele>4558.4</ele>
    <time>2026-06-22T11:57:56Z</time>
   </trkpt>
   <trkpt lat="-3.1025170" lon="37.3776050">
    <ele>4558.5</ele>
    <time>2026-06-22T11:57:57Z</time>
   </trkpt>
   <trkpt lat="-3.1025190" lon="37.3776060">
    <ele>4558.5</ele>
    <time>2026-06-22T11:57:58Z</time>
   </trkpt>
   <trkpt lat="-3.1025210" lon="37.3776090">
    <ele>4558.6</ele>
    <time>2026-06-22T11:57:59Z</time>
   </trkpt>
   <trkpt lat="-3.1025230" lon="37.3776100">
    <ele>4558.7</ele>
    <time>2026-06-22T11:58:00Z</time>
   </trkpt>
   <trkpt lat="-3.1025270" lon="37.3776110">
    <ele>4558.8</ele>
    <time>2026-06-22T11:58:01Z</time>
   </trkpt>
   <trkpt lat="-3.1025300" lon="37.3776140">
    <ele>4558.9</ele>
    <time>2026-06-22T11:58:02Z</time>
   </trkpt>
   <trkpt lat="-3.1025320" lon="37.3776150">
    <ele>4559.0</ele>
    <time>2026-06-22T11:58:03Z</time>
   </trkpt>
   <trkpt lat="-3.1025350" lon="37.3776180">
    <ele>4559.1</ele>
    <time>2026-06-22T11:58:04Z</time>
   </trkpt>
   <trkpt lat="-3.1025360" lon="37.3776210">
    <ele>4559.2</ele>
    <time>2026-06-22T11:58:05Z</time>
   </trkpt>
   <trkpt lat="-3.1025350" lon="37.3776230">
    <ele>4559.2</ele>
    <time>2026-06-22T11:58:06Z</time>
   </trkpt>
   <trkpt lat="-3.1025320" lon="37.3776280">
    <ele>4559.4</ele>
    <time>2026-06-22T11:58:07Z</time>
   </trkpt>
   <trkpt lat="-3.1025300" lon="37.3776290">
    <ele>4559.5</ele>
    <time>2026-06-22T11:58:08Z</time>
   </trkpt>
   <trkpt lat="-3.1025270" lon="37.3776300">
    <ele>4559.6</ele>
    <time>2026-06-22T11:58:09Z</time>
   </trkpt>
   <trkpt lat="-3.1025220" lon="37.3776330">
    <ele>4559.7</ele>
    <time>2026-06-22T11:58:10Z</time>
   </trkpt>
   <trkpt lat="-3.1025210" lon="37.3776360">
    <ele>4559.8</ele>
    <time>2026-06-22T11:58:11Z</time>
   </trkpt>
   <trkpt lat="-3.1025200" lon="37.3776370">
    <ele>4559.8</ele>
    <time>2026-06-22T11:58:12Z</time>
   </trkpt>
   <trkpt lat="-3.1025230" lon="37.3776440">
    <ele>4560.0</ele>
    <time>2026-06-22T11:58:13Z</time>
   </trkpt>
   <trkpt lat="-3.1025200" lon="37.3776460">
    <ele>4560.1</ele>
    <time>2026-06-22T11:58:14Z</time>
   </trkpt>
   <trkpt lat="-3.1025190" lon="37.3776530">
    <ele>4560.3</ele>
    <time>2026-06-22T11:58:15Z</time>
   </trkpt>
   <trkpt lat="-3.1025200" lon="37.3776540">
    <ele>4560.4</ele>
    <time>2026-06-22T11:58:17Z</time>
   </trkpt>
   <trkpt lat="-3.1025230" lon="37.3776560">
    <ele>4560.5</ele>
    <time>2026-06-22T11:58:18Z</time>
   </trkpt>
   <trkpt lat="-3.1025240" lon="37.3776590">
    <ele>4560.5</ele>
    <time>2026-06-22T11:58:19Z</time>
   </trkpt>
   <trkpt lat="-3.1025260" lon="37.3776640">
    <ele>4560.7</ele>
    <time>2026-06-22T11:58:20Z</time>
   </trkpt>
   <trkpt lat="-3.1025290" lon="37.3776660">
    <ele>4560.8</ele>
    <time>2026-06-22T11:58:21Z</time>
   </trkpt>
   <trkpt lat="-3.1025290" lon="37.3776710">
    <ele>4560.9</ele>
    <time>2026-06-22T11:58:22Z</time>
   </trkpt>
   <trkpt lat="-3.1025300" lon="37.3776720">
    <ele>4560.9</ele>
    <time>2026-06-22T11:58:23Z</time>
   </trkpt>
   <trkpt lat="-3.1025300" lon="37.3776770">
    <ele>4561.1</ele>
    <time>2026-06-22T11:58:24Z</time>
   </trkpt>
   <trkpt lat="-3.1025310" lon="37.3776810">
    <ele>4561.2</ele>
    <time>2026-06-22T11:58:25Z</time>
   </trkpt>
   <trkpt lat="-3.1025330" lon="37.3776790">
    <ele>4561.2</ele>
    <time>2026-06-22T11:58:26Z</time>
   </trkpt>
   <trkpt lat="-3.1025370" lon="37.3776840">
    <ele>4561.4</ele>
    <time>2026-06-22T11:58:27Z</time>
   </trkpt>
   <trkpt lat="-3.1025390" lon="37.3776830">
    <ele>4561.5</ele>
    <time>2026-06-22T11:58:28Z</time>
   </trkpt>
   <trkpt lat="-3.1025440" lon="37.3776840">
    <ele>4561.6</ele>
    <time>2026-06-22T11:58:29Z</time>
   </trkpt>
   <trkpt lat="-3.1025460" lon="37.3776880">
    <ele>4561.7</ele>
    <time>2026-06-22T11:58:30Z</time>
   </trkpt>
   <trkpt lat="-3.1025490" lon="37.3776880">
    <ele>4561.8</ele>
    <time>2026-06-22T11:58:31Z</time>
   </trkpt>
   <trkpt lat="-3.1025510" lon="37.3776890">
    <ele>4561.9</ele>
    <time>2026-06-22T11:58:32Z</time>
   </trkpt>
   <trkpt lat="-3.1025530" lon="37.3776910">
    <ele>4561.9</ele>
    <time>2026-06-22T11:58:33Z</time>
   </trkpt>
   <trkpt lat="-3.1025570" lon="37.3776930">
    <ele>4562.0</ele>
    <time>2026-06-22T11:58:34Z</time>
   </trkpt>
   <trkpt lat="-3.1025600" lon="37.3776950">
    <ele>4562.1</ele>
    <time>2026-06-22T11:58:35Z</time>
   </trkpt>
   <trkpt lat="-3.1025640" lon="37.3776960">
    <ele>4562.2</ele>
    <time>2026-06-22T11:58:36Z</time>
   </trkpt>
   <trkpt lat="-3.1025670" lon="37.3777010">
    <ele>4562.4</ele>
    <time>2026-06-22T11:58:37Z</time>
   </trkpt>
   <trkpt lat="-3.1025690" lon="37.3777050">
    <ele>4562.5</ele>
    <time>2026-06-22T11:58:38Z</time>
   </trkpt>
   <trkpt lat="-3.1025720" lon="37.3777050">
    <ele>4562.6</ele>
    <time>2026-06-22T11:58:39Z</time>
   </trkpt>
   <trkpt lat="-3.1025750" lon="37.3777070">
    <ele>4562.7</ele>
    <time>2026-06-22T11:58:40Z</time>
   </trkpt>
   <trkpt lat="-3.1025790" lon="37.3777080">
    <ele>4562.8</ele>
    <time>2026-06-22T11:58:41Z</time>
   </trkpt>
   <trkpt lat="-3.1025840" lon="37.3777090">
    <ele>4562.9</ele>
    <time>2026-06-22T11:58:42Z</time>
   </trkpt>
   <trkpt lat="-3.1025880" lon="37.3777100">
    <ele>4563.0</ele>
    <time>2026-06-22T11:58:43Z</time>
   </trkpt>
   <trkpt lat="-3.1025910" lon="37.3777110">
    <ele>4563.1</ele>
    <time>2026-06-22T11:58:44Z</time>
   </trkpt>
   <trkpt lat="-3.1025950" lon="37.3777090">
    <ele>4563.2</ele>
    <time>2026-06-22T11:58:45Z</time>
   </trkpt>
   <trkpt lat="-3.1025980" lon="37.3777110">
    <ele>4563.3</ele>
    <time>2026-06-22T11:58:46Z</time>
   </trkpt>
   <trkpt lat="-3.1026000" lon="37.3777140">
    <ele>4563.4</ele>
    <time>2026-06-22T11:58:47Z</time>
   </trkpt>
   <trkpt lat="-3.1026030" lon="37.3777190">
    <ele>4563.5</ele>
    <time>2026-06-22T11:58:48Z</time>
   </trkpt>
   <trkpt lat="-3.1026040" lon="37.3777210">
    <ele>4563.6</ele>
    <time>2026-06-22T11:58:49Z</time>
   </trkpt>
   <trkpt lat="-3.1026050" lon="37.3777220">
    <ele>4563.6</ele>
    <time>2026-06-22T11:58:50Z</time>
   </trkpt>
   <trkpt lat="-3.1026070" lon="37.3777250">
    <ele>4563.7</ele>
    <time>2026-06-22T11:58:51Z</time>
   </trkpt>
   <trkpt lat="-3.1026090" lon="37.3777280">
    <ele>4563.8</ele>
    <time>2026-06-22T11:58:52Z</time>
   </trkpt>
   <trkpt lat="-3.1026100" lon="37.3777300">
    <ele>4563.8</ele>
    <time>2026-06-22T11:58:53Z</time>
   </trkpt>
   <trkpt lat="-3.1026120" lon="37.3777360">
    <ele>4564.0</ele>
    <time>2026-06-22T11:58:54Z</time>
   </trkpt>
   <trkpt lat="-3.1026140" lon="37.3777360">
    <ele>4564.0</ele>
    <time>2026-06-22T11:58:55Z</time>
   </trkpt>
   <trkpt lat="-3.1026170" lon="37.3777400">
    <ele>4564.1</ele>
    <time>2026-06-22T11:58:56Z</time>
   </trkpt>
   <trkpt lat="-3.1026210" lon="37.3777410">
    <ele>4564.2</ele>
    <time>2026-06-22T11:58:57Z</time>
   </trkpt>
   <trkpt lat="-3.1026270" lon="37.3777440">
    <ele>4564.4</ele>
    <time>2026-06-22T11:58:58Z</time>
   </trkpt>
   <trkpt lat="-3.1026310" lon="37.3777470">
    <ele>4564.5</ele>
    <time>2026-06-22T11:58:59Z</time>
   </trkpt>
   <trkpt lat="-3.1026360" lon="37.3777490">
    <ele>4564.6</ele>
    <time>2026-06-22T11:59:00Z</time>
   </trkpt>
   <trkpt lat="-3.1026390" lon="37.3777500">
    <ele>4564.7</ele>
    <time>2026-06-22T11:59:01Z</time>
   </trkpt>
   <trkpt lat="-3.1026430" lon="37.3777550">
    <ele>4564.9</ele>
    <time>2026-06-22T11:59:02Z</time>
   </trkpt>
   <trkpt lat="-3.1026460" lon="37.3777560">
    <ele>4564.9</ele>
    <time>2026-06-22T11:59:03Z</time>
   </trkpt>
   <trkpt lat="-3.1026470" lon="37.3777600">
    <ele>4565.0</ele>
    <time>2026-06-22T11:59:04Z</time>
   </trkpt>
   <trkpt lat="-3.1026500" lon="37.3777650">
    <ele>4565.2</ele>
    <time>2026-06-22T11:59:05Z</time>
   </trkpt>
   <trkpt lat="-3.1026510" lon="37.3777660">
    <ele>4565.2</ele>
    <time>2026-06-22T11:59:06Z</time>
   </trkpt>
   <trkpt lat="-3.1026520" lon="37.3777700">
    <ele>4565.3</ele>
    <time>2026-06-22T11:59:07Z</time>
   </trkpt>
   <trkpt lat="-3.1026510" lon="37.3777710">
    <ele>4565.3</ele>
    <time>2026-06-22T11:59:08Z</time>
   </trkpt>
   <trkpt lat="-3.1026510" lon="37.3777720">
    <ele>4565.4</ele>
    <time>2026-06-22T11:59:09Z</time>
   </trkpt>
   <trkpt lat="-3.1026500" lon="37.3777750">
    <ele>4565.4</ele>
    <time>2026-06-22T11:59:10Z</time>
   </trkpt>
   <trkpt lat="-3.1026480" lon="37.3777800">
    <ele>4565.6</ele>
    <time>2026-06-22T11:59:11Z</time>
   </trkpt>
   <trkpt lat="-3.1026460" lon="37.3777820">
    <ele>4565.6</ele>
    <time>2026-06-22T11:59:12Z</time>
   </trkpt>
   <trkpt lat="-3.1026450" lon="37.3777840">
    <ele>4565.7</ele>
    <time>2026-06-22T11:59:13Z</time>
   </trkpt>
   <trkpt lat="-3.1026440" lon="37.3777890">
    <ele>4565.8</ele>
    <time>2026-06-22T11:59:14Z</time>
   </trkpt>
   <trkpt lat="-3.1026430" lon="37.3777900">
    <ele>4565.8</ele>
    <time>2026-06-22T11:59:15Z</time>
   </trkpt>
   <trkpt lat="-3.1026440" lon="37.3777950">
    <ele>4565.9</ele>
    <time>2026-06-22T11:59:16Z</time>
   </trkpt>
   <trkpt lat="-3.1026470" lon="37.3777980">
    <ele>4566.0</ele>
    <time>2026-06-22T11:59:17Z</time>
   </trkpt>
   <trkpt lat="-3.1026490" lon="37.3777990">
    <ele>4566.1</ele>
    <time>2026-06-22T11:59:18Z</time>
   </trkpt>
   <trkpt lat="-3.1026530" lon="37.3778030">
    <ele>4566.2</ele>
    <time>2026-06-22T11:59:19Z</time>
   </trkpt>
   <trkpt lat="-3.1026580" lon="37.3778050">
    <ele>4566.3</ele>
    <time>2026-06-22T11:59:20Z</time>
   </trkpt>
   <trkpt lat="-3.1026620" lon="37.3778030">
    <ele>4566.4</ele>
    <time>2026-06-22T11:59:21Z</time>
   </trkpt>
   <trkpt lat="-3.1026670" lon="37.3778040">
    <ele>4566.5</ele>
    <time>2026-06-22T11:59:22Z</time>
   </trkpt>
   <trkpt lat="-3.1026730" lon="37.3778040">
    <ele>4566.7</ele>
    <time>2026-06-22T11:59:23Z</time>
   </trkpt>
   <trkpt lat="-3.1026760" lon="37.3778050">
    <ele>4566.7</ele>
    <time>2026-06-22T11:59:24Z</time>
   </trkpt>
   <trkpt lat="-3.1026800" lon="37.3778080">
    <ele>4566.8</ele>
    <time>2026-06-22T11:59:25Z</time>
   </trkpt>
   <trkpt lat="-3.1026850" lon="37.3778090">
    <ele>4566.9</ele>
    <time>2026-06-22T11:59:26Z</time>
   </trkpt>
   <trkpt lat="-3.1026900" lon="37.3778100">
    <ele>4567.0</ele>
    <time>2026-06-22T11:59:27Z</time>
   </trkpt>
   <trkpt lat="-3.1026960" lon="37.3778150">
    <ele>4567.2</ele>
    <time>2026-06-22T11:59:28Z</time>
   </trkpt>
   <trkpt lat="-3.1027000" lon="37.3778160">
    <ele>4567.3</ele>
    <time>2026-06-22T11:59:29Z</time>
   </trkpt>
   <trkpt lat="-3.1027040" lon="37.3778210">
    <ele>4567.4</ele>
    <time>2026-06-22T11:59:30Z</time>
   </trkpt>
   <trkpt lat="-3.1027030" lon="37.3778170">
    <ele>4567.5</ele>
    <time>2026-06-22T11:59:31Z</time>
   </trkpt>
   <trkpt lat="-3.1027030" lon="37.3778140">
    <ele>4567.6</ele>
    <time>2026-06-22T11:59:32Z</time>
   </trkpt>
   <trkpt lat="-3.1027030" lon="37.3778120">
    <ele>4567.6</ele>
    <time>2026-06-22T11:59:33Z</time>
   </trkpt>
   <trkpt lat="-3.1027200" lon="37.3778130">
    <ele>4568.0</ele>
    <time>2026-06-22T11:59:34Z</time>
   </trkpt>
   <trkpt lat="-3.1027020" lon="37.3778010">
    <ele>4568.4</ele>
    <time>2026-06-22T11:59:35Z</time>
   </trkpt>
   <trkpt lat="-3.1026970" lon="37.3777890">
    <ele>4568.7</ele>
    <time>2026-06-22T11:59:36Z</time>
   </trkpt>
   <trkpt lat="-3.1026890" lon="37.3777920">
    <ele>4568.9</ele>
    <time>2026-06-22T11:59:37Z</time>
   </trkpt>
   <trkpt lat="-3.1026880" lon="37.3777880">
    <ele>4569.0</ele>
    <time>2026-06-22T11:59:38Z</time>
   </trkpt>
   <trkpt lat="-3.1026900" lon="37.3777890">
    <ele>4569.0</ele>
    <time>2026-06-22T11:59:39Z</time>
   </trkpt>
   <trkpt lat="-3.1026890" lon="37.3777880">
    <ele>4569.1</ele>
    <time>2026-06-22T11:59:40Z</time>
   </trkpt>
   <trkpt lat="-3.1026890" lon="37.3777880">
    <ele>4569.1</ele>
    <time>2026-06-22T11:59:41Z</time>
   </trkpt>
   <trkpt lat="-3.1026890" lon="37.3777890">
    <ele>4569.1</ele>
    <time>2026-06-22T11:59:42Z</time>
   </trkpt>
   <trkpt lat="-3.1026950" lon="37.3777910">
    <ele>4569.2</ele>
    <time>2026-06-22T11:59:43Z</time>
   </trkpt>
   <trkpt lat="-3.1026960" lon="37.3777920">
    <ele>4569.2</ele>
    <time>2026-06-22T11:59:44Z</time>
   </trkpt>
   <trkpt lat="-3.1026930" lon="37.3777940">
    <ele>4569.3</ele>
    <time>2026-06-22T11:59:45Z</time>
   </trkpt>
   <trkpt lat="-3.1026980" lon="37.3778010">
    <ele>4569.4</ele>
    <time>2026-06-22T11:59:46Z</time>
   </trkpt>
   <trkpt lat="-3.1027020" lon="37.3778080">
    <ele>4569.5</ele>
    <time>2026-06-22T11:59:47Z</time>
   </trkpt>
   <trkpt lat="-3.1027050" lon="37.3778140">
    <ele>4569.6</ele>
    <time>2026-06-22T11:59:48Z</time>
   </trkpt>
   <trkpt lat="-3.1026970" lon="37.3778100">
    <ele>4569.8</ele>
    <time>2026-06-22T11:59:49Z</time>
   </trkpt>
   <trkpt lat="-3.1026980" lon="37.3778130">
    <ele>4569.8</ele>
    <time>2026-06-22T11:59:50Z</time>
   </trkpt>
   <trkpt lat="-3.1026960" lon="37.3778130">
    <ele>4569.9</ele>
    <time>2026-06-22T11:59:51Z</time>
   </trkpt>
   <trkpt lat="-3.1026960" lon="37.3778120">
    <ele>4569.9</ele>
    <time>2026-06-22T11:59:52Z</time>
   </trkpt>
   <trkpt lat="-3.1026970" lon="37.3778120">
    <ele>4569.9</ele>
    <time>2026-06-22T11:59:53Z</time>
   </trkpt>
   <trkpt lat="-3.1026970" lon="37.3778120">
    <ele>4569.9</ele>
    <time>2026-06-22T11:59:54Z</time>
   </trkpt>
   <trkpt lat="-3.1026960" lon="37.3778090">
    <ele>4569.9</ele>
    <time>2026-06-22T11:59:55Z</time>
   </trkpt>
   <trkpt lat="-3.1026970" lon="37.3778090">
    <ele>4570.0</ele>
    <time>2026-06-22T11:59:56Z</time>
   </trkpt>
   <trkpt lat="-3.1026980" lon="37.3778090">
    <ele>4570.0</ele>
    <time>2026-06-22T11:59:57Z</time>
   </trkpt>
   <trkpt lat="-3.1026970" lon="37.3778100">
    <ele>4570.0</ele>
    <time>2026-06-22T11:59:58Z</time>
   </trkpt>
   <trkpt lat="-3.1026970" lon="37.3778090">
    <ele>4570.0</ele>
    <time>2026-06-22T11:59:59Z</time>
   </trkpt>
   <trkpt lat="-3.1026920" lon="37.3778030">
    <ele>4570.1</ele>
    <time>2026-06-22T12:00:00Z</time>
   </trkpt>
   <trkpt lat="-3.1026890" lon="37.3777980">
    <ele>4570.2</ele>
    <time>2026-06-22T12:00:01Z</time>
   </trkpt>
   <trkpt lat="-3.1026890" lon="37.3777990">
    <ele>4570.3</ele>
    <time>2026-06-22T12:00:02Z</time>
   </trkpt>
   <trkpt lat="-3.1026880" lon="37.3777990">
    <ele>4570.3</ele>
    <time>2026-06-22T12:00:03Z</time>
   </trkpt>
   <trkpt lat="-3.1026870" lon="37.3777990">
    <ele>4570.3</ele>
    <time>2026-06-22T12:00:04Z</time>
   </trkpt>
   <trkpt lat="-3.1026870" lon="37.3777990">
    <ele>4570.3</ele>
    <time>2026-06-22T12:00:05Z</time>
   </trkpt>
   <trkpt lat="-3.1026870" lon="37.3777980">
    <ele>4570.3</ele>
    <time>2026-06-22T12:00:06Z</time>
   </trkpt>
   <trkpt lat="-3.1026860" lon="37.3777990">
    <ele>4570.3</ele>
    <time>2026-06-22T12:00:07Z</time>
   </trkpt>
   <trkpt lat="-3.1026870" lon="37.3777990">
    <ele>4570.3</ele>
    <time>2026-06-22T12:00:08Z</time>
   </trkpt>
   <trkpt lat="-3.1026860" lon="37.3777990">
    <ele>4570.4</ele>
    <time>2026-06-22T12:00:09Z</time>
   </trkpt>
   <trkpt lat="-3.1026860" lon="37.3777990">
    <ele>4570.4</ele>
    <time>2026-06-22T12:00:10Z</time>
   </trkpt>
   <trkpt lat="-3.1026850" lon="37.3777980">
    <ele>4570.4</ele>
    <time>2026-06-22T12:00:11Z</time>
   </trkpt>
   <trkpt lat="-3.1026850" lon="37.3778010">
    <ele>4570.4</ele>
    <time>2026-06-22T12:00:12Z</time>
   </trkpt>
   <trkpt lat="-3.1026880" lon="37.3778060">
    <ele>4570.5</ele>
    <time>2026-06-22T12:00:13Z</time>
   </trkpt>
   <trkpt lat="-3.1026900" lon="37.3778100">
    <ele>4570.6</ele>
    <time>2026-06-22T12:00:14Z</time>
   </trkpt>
   <trkpt lat="-3.1026880" lon="37.3778040">
    <ele>4570.7</ele>
    <time>2026-06-22T12:00:15Z</time>
   </trkpt>
   <trkpt lat="-3.1026920" lon="37.3778040">
    <ele>4570.8</ele>
    <time>2026-06-22T12:00:16Z</time>
   </trkpt>
   <trkpt lat="-3.1026910" lon="37.3778030">
    <ele>4570.8</ele>
    <time>2026-06-22T12:00:17Z</time>
   </trkpt>
   <trkpt lat="-3.1026900" lon="37.3778070">
    <ele>4570.8</ele>
    <time>2026-06-22T12:00:18Z</time>
   </trkpt>
   <trkpt lat="-3.1026910" lon="37.3778050">
    <ele>4570.9</ele>
    <time>2026-06-22T12:00:19Z</time>
   </trkpt>
   <trkpt lat="-3.1026920" lon="37.3778060">
    <ele>4570.9</ele>
    <time>2026-06-22T12:00:20Z</time>
   </trkpt>
   <trkpt lat="-3.1026910" lon="37.3778060">
    <ele>4570.9</ele>
    <time>2026-06-22T12:00:21Z</time>
   </trkpt>
   <trkpt lat="-3.1026900" lon="37.3778060">
    <ele>4570.9</ele>
    <time>2026-06-22T12:00:23Z</time>
   </trkpt>
   <trkpt lat="-3.1026900" lon="37.3778060">
    <ele>4570.9</ele>
    <time>2026-06-22T12:00:24Z</time>
   </trkpt>
   <trkpt lat="-3.1026900" lon="37.3778060">
    <ele>4570.9</ele>
    <time>2026-06-22T12:00:25Z</time>
   </trkpt>
   <trkpt lat="-3.1026900" lon="37.3778050">
    <ele>4571.0</ele>
    <time>2026-06-22T12:00:26Z</time>
   </trkpt>
   <trkpt lat="-3.1026900" lon="37.3778050">
    <ele>4571.0</ele>
    <time>2026-06-22T12:00:27Z</time>
   </trkpt>
   <trkpt lat="-3.1026910" lon="37.3778060">
    <ele>4571.0</ele>
    <time>2026-06-22T12:00:28Z</time>
   </trkpt>
   <trkpt lat="-3.1026910" lon="37.3778080">
    <ele>4571.0</ele>
    <time>2026-06-22T12:00:29Z</time>
   </trkpt>
   <trkpt lat="-3.1026900" lon="37.3778080">
    <ele>4571.0</ele>
    <time>2026-06-22T12:00:30Z</time>
   </trkpt>
   <trkpt lat="-3.1026900" lon="37.3778080">
    <ele>4571.0</ele>
    <time>2026-06-22T12:00:31Z</time>
   </trkpt>
   <trkpt lat="-3.1026900" lon="37.3778070">
    <ele>4571.0</ele>
    <time>2026-06-22T12:00:32Z</time>
   </trkpt>
   <trkpt lat="-3.1026900" lon="37.3778080">
    <ele>4571.1</ele>
    <time>2026-06-22T12:00:33Z</time>
   </trkpt>
   <trkpt lat="-3.1026890" lon="37.3778080">
    <ele>4571.1</ele>
    <time>2026-06-22T12:00:34Z</time>
   </trkpt>
   <trkpt lat="-3.1026890" lon="37.3778080">
    <ele>4571.1</ele>
    <time>2026-06-22T12:00:35Z</time>
   </trkpt>
   <trkpt lat="-3.1026900" lon="37.3778060">
    <ele>4571.1</ele>
    <time>2026-06-22T12:00:36Z</time>
   </trkpt>
   <trkpt lat="-3.1026890" lon="37.3778070">
    <ele>4571.1</ele>
    <time>2026-06-22T12:00:37Z</time>
   </trkpt>
   <trkpt lat="-3.1026890" lon="37.3778070">
    <ele>4571.1</ele>
    <time>2026-06-22T12:00:38Z</time>
   </trkpt>
   <trkpt lat="-3.1026890" lon="37.3778070">
    <ele>4571.1</ele>
    <time>2026-06-22T12:00:39Z</time>
   </trkpt>
   <trkpt lat="-3.1026900" lon="37.3778070">
    <ele>4571.1</ele>
    <time>2026-06-22T12:00:40Z</time>
   </trkpt>
   <trkpt lat="-3.1026900" lon="37.3778060">
    <ele>4571.2</ele>
    <time>2026-06-22T12:00:41Z</time>
   </trkpt>
   <trkpt lat="-3.1026900" lon="37.3778060">
    <ele>4571.2</ele>
    <time>2026-06-22T12:00:42Z</time>
   </trkpt>
   <trkpt lat="-3.1026900" lon="37.3778060">
    <ele>4571.2</ele>
    <time>2026-06-22T12:00:43Z</time>
   </trkpt>
   <trkpt lat="-3.1026900" lon="37.3778060">
    <ele>4571.2</ele>
    <time>2026-06-22T12:00:44Z</time>
   </trkpt>
   <trkpt lat="-3.1026900" lon="37.3778060">
    <ele>4571.2</ele>
    <time>2026-06-22T12:00:45Z</time>
   </trkpt>
   <trkpt lat="-3.1026900" lon="37.3778060">
    <ele>4571.2</ele>
    <time>2026-06-22T12:00:46Z</time>
   </trkpt>
   <trkpt lat="-3.1026900" lon="37.3778050">
    <ele>4571.2</ele>
    <time>2026-06-22T12:00:47Z</time>
   </trkpt>
   <trkpt lat="-3.1026900" lon="37.3778050">
    <ele>4571.2</ele>
    <time>2026-06-22T12:00:48Z</time>
   </trkpt>
   <trkpt lat="-3.1026900" lon="37.3778050">
    <ele>4571.2</ele>
    <time>2026-06-22T12:00:49Z</time>
   </trkpt>
   <trkpt lat="-3.1026900" lon="37.3778050">
    <ele>4571.2</ele>
    <time>2026-06-22T12:00:50Z</time>
   </trkpt>
   <trkpt lat="-3.1026890" lon="37.3778050">
    <ele>4571.2</ele>
    <time>2026-06-22T12:00:51Z</time>
   </trkpt>
   <trkpt lat="-3.1026890" lon="37.3778050">
    <ele>4571.2</ele>
    <time>2026-06-22T12:00:52Z</time>
   </trkpt>
   <trkpt lat="-3.1026890" lon="37.3778050">
    <ele>4571.2</ele>
    <time>2026-06-22T12:00:53Z</time>
   </trkpt>
   <trkpt lat="-3.1026890" lon="37.3778050">
    <ele>4571.2</ele>
    <time>2026-06-22T12:00:54Z</time>
   </trkpt>
   <trkpt lat="-3.1026890" lon="37.3778050">
    <ele>4571.2</ele>
    <time>2026-06-22T12:00:55Z</time>
   </trkpt>
   <trkpt lat="-3.1026880" lon="37.3778060">
    <ele>4571.2</ele>
    <time>2026-06-22T12:00:56Z</time>
   </trkpt>
   <trkpt lat="-3.1026880" lon="37.3778060">
    <ele>4571.2</ele>
    <time>2026-06-22T12:00:57Z</time>
   </trkpt>
   <trkpt lat="-3.1026870" lon="37.3778070">
    <ele>4571.2</ele>
    <time>2026-06-22T12:00:58Z</time>
   </trkpt>
   <trkpt lat="-3.1026870" lon="37.3778080">
    <ele>4571.3</ele>
    <time>2026-06-22T12:00:59Z</time>
   </trkpt>
   <trkpt lat="-3.1026880" lon="37.3778070">
    <ele>4571.3</ele>
    <time>2026-06-22T12:01:00Z</time>
   </trkpt>
   <trkpt lat="-3.1026890" lon="37.3778100">
    <ele>4571.3</ele>
    <time>2026-06-22T12:01:01Z</time>
   </trkpt>
   <trkpt lat="-3.1026890" lon="37.3778140">
    <ele>4571.4</ele>
    <time>2026-06-22T12:01:02Z</time>
   </trkpt>
   <trkpt lat="-3.1026880" lon="37.3778130">
    <ele>4571.4</ele>
    <time>2026-06-22T12:01:03Z</time>
   </trkpt>
   <trkpt lat="-3.1026880" lon="37.3778130">
    <ele>4571.4</ele>
    <time>2026-06-22T12:01:04Z</time>
   </trkpt>
   <trkpt lat="-3.1026860" lon="37.3778080">
    <ele>4571.5</ele>
    <time>2026-06-22T12:01:05Z</time>
   </trkpt>
   <trkpt lat="-3.1026860" lon="37.3778070">
    <ele>4571.5</ele>
    <time>2026-06-22T12:01:06Z</time>
   </trkpt>
   <trkpt lat="-3.1026860" lon="37.3778070">
    <ele>4571.5</ele>
    <time>2026-06-22T12:01:07Z</time>
   </trkpt>
   <trkpt lat="-3.1026860" lon="37.3778090">
    <ele>4571.6</ele>
    <time>2026-06-22T12:01:08Z</time>
   </trkpt>
   <trkpt lat="-3.1026860" lon="37.3778120">
    <ele>4571.6</ele>
    <time>2026-06-22T12:01:09Z</time>
   </trkpt>
   <trkpt lat="-3.1026860" lon="37.3778100">
    <ele>4571.7</ele>
    <time>2026-06-22T12:01:10Z</time>
   </trkpt>
   <trkpt lat="-3.1026840" lon="37.3778080">
    <ele>4571.7</ele>
    <time>2026-06-22T12:01:11Z</time>
   </trkpt>
   <trkpt lat="-3.1026840" lon="37.3778090">
    <ele>4571.7</ele>
    <time>2026-06-22T12:01:12Z</time>
   </trkpt>
   <trkpt lat="-3.1026840" lon="37.3778080">
    <ele>4571.7</ele>
    <time>2026-06-22T12:01:13Z</time>
   </trkpt>
   <trkpt lat="-3.1026840" lon="37.3778100">
    <ele>4571.8</ele>
    <time>2026-06-22T12:01:14Z</time>
   </trkpt>
   <trkpt lat="-3.1026830" lon="37.3778100">
    <ele>4571.8</ele>
    <time>2026-06-22T12:01:15Z</time>
   </trkpt>
   <trkpt lat="-3.1026840" lon="37.3778110">
    <ele>4571.8</ele>
    <time>2026-06-22T12:01:16Z</time>
   </trkpt>
   <trkpt lat="-3.1026840" lon="37.3778120">
    <ele>4571.8</ele>
    <time>2026-06-22T12:01:17Z</time>
   </trkpt>
   <trkpt lat="-3.1026860" lon="37.3778120">
    <ele>4571.9</ele>
    <time>2026-06-22T12:01:18Z</time>
   </trkpt>
   <trkpt lat="-3.1026850" lon="37.3778150">
    <ele>4571.9</ele>
    <time>2026-06-22T12:01:19Z</time>
   </trkpt>
   <trkpt lat="-3.1026840" lon="37.3778140">
    <ele>4571.9</ele>
    <time>2026-06-22T12:01:20Z</time>
   </trkpt>
   <trkpt lat="-3.1026840" lon="37.3778150">
    <ele>4572.0</ele>
    <time>2026-06-22T12:01:21Z</time>
   </trkpt>
   <trkpt lat="-3.1026830" lon="37.3778160">
    <ele>4572.0</ele>
    <time>2026-06-22T12:01:22Z</time>
   </trkpt>
   <trkpt lat="-3.1026830" lon="37.3778160">
    <ele>4572.0</ele>
    <time>2026-06-22T12:01:23Z</time>
   </trkpt>
   <trkpt lat="-3.1026830" lon="37.3778160">
    <ele>4572.0</ele>
    <time>2026-06-22T12:01:24Z</time>
   </trkpt>
   <trkpt lat="-3.1026830" lon="37.3778160">
    <ele>4572.0</ele>
    <time>2026-06-22T12:01:25Z</time>
   </trkpt>
   <trkpt lat="-3.1026820" lon="37.3778170">
    <ele>4572.0</ele>
    <time>2026-06-22T12:01:26Z</time>
   </trkpt>
   <trkpt lat="-3.1026820" lon="37.3778170">
    <ele>4572.0</ele>
    <time>2026-06-22T12:01:27Z</time>
   </trkpt>
   <trkpt lat="-3.1026830" lon="37.3778180">
    <ele>4572.0</ele>
    <time>2026-06-22T12:01:28Z</time>
   </trkpt>
   <trkpt lat="-3.1026840" lon="37.3778180">
    <ele>4572.1</ele>
    <time>2026-06-22T12:01:29Z</time>
   </trkpt>
   <trkpt lat="-3.1026840" lon="37.3778180">
    <ele>4572.1</ele>
    <time>2026-06-22T12:01:30Z</time>
   </trkpt>
   <trkpt lat="-3.1026840" lon="37.3778180">
    <ele>4572.1</ele>
    <time>2026-06-22T12:01:31Z</time>
   </trkpt>
   <trkpt lat="-3.1026840" lon="37.3778180">
    <ele>4572.1</ele>
    <time>2026-06-22T12:01:32Z</time>
   </trkpt>
   <trkpt lat="-3.1026830" lon="37.3778180">
    <ele>4572.1</ele>
    <time>2026-06-22T12:01:33Z</time>
   </trkpt>
   <trkpt lat="-3.1026820" lon="37.3778200">
    <ele>4572.1</ele>
    <time>2026-06-22T12:01:34Z</time>
   </trkpt>
   <trkpt lat="-3.1026830" lon="37.3778220">
    <ele>4572.1</ele>
    <time>2026-06-22T12:01:35Z</time>
   </trkpt>
   <trkpt lat="-3.1026820" lon="37.3778230">
    <ele>4572.2</ele>
    <time>2026-06-22T12:01:36Z</time>
   </trkpt>
   <trkpt lat="-3.1026830" lon="37.3778240">
    <ele>4572.2</ele>
    <time>2026-06-22T12:01:37Z</time>
   </trkpt>
   <trkpt lat="-3.1026830" lon="37.3778230">
    <ele>4572.2</ele>
    <time>2026-06-22T12:01:38Z</time>
   </trkpt>
   <trkpt lat="-3.1026830" lon="37.3778240">
    <ele>4572.2</ele>
    <time>2026-06-22T12:01:39Z</time>
   </trkpt>
   <trkpt lat="-3.1026830" lon="37.3778240">
    <ele>4572.2</ele>
    <time>2026-06-22T12:01:40Z</time>
   </trkpt>
   <trkpt lat="-3.1026830" lon="37.3778260">
    <ele>4572.3</ele>
    <time>2026-06-22T12:01:41Z</time>
   </trkpt>
   <trkpt lat="-3.1026840" lon="37.3778260">
    <ele>4572.3</ele>
    <time>2026-06-22T12:01:42Z</time>
   </trkpt>
   <trkpt lat="-3.1026840" lon="37.3778260">
    <ele>4572.3</ele>
    <time>2026-06-22T12:01:43Z</time>
   </trkpt>
   <trkpt lat="-3.1026830" lon="37.3778260">
    <ele>4572.3</ele>
    <time>2026-06-22T12:01:44Z</time>
   </trkpt>
   <trkpt lat="-3.1026870" lon="37.3778240">
    <ele>4572.4</ele>
    <time>2026-06-22T12:01:45Z</time>
   </trkpt>
   <trkpt lat="-3.1026910" lon="37.3778250">
    <ele>4572.4</ele>
    <time>2026-06-22T12:01:46Z</time>
   </trkpt>
   <trkpt lat="-3.1026930" lon="37.3778270">
    <ele>4572.5</ele>
    <time>2026-06-22T12:01:47Z</time>
   </trkpt>
   <trkpt lat="-3.1026950" lon="37.3778320">
    <ele>4572.6</ele>
    <time>2026-06-22T12:01:48Z</time>
   </trkpt>
   <trkpt lat="-3.1026970" lon="37.3778350">
    <ele>4572.7</ele>
    <time>2026-06-22T12:01:49Z</time>
   </trkpt>
   <trkpt lat="-3.1026970" lon="37.3778380">
    <ele>4572.7</ele>
    <time>2026-06-22T12:01:50Z</time>
   </trkpt>
   <trkpt lat="-3.1026950" lon="37.3778400">
    <ele>4572.8</ele>
    <time>2026-06-22T12:01:51Z</time>
   </trkpt>
   <trkpt lat="-3.1026930" lon="37.3778410">
    <ele>4572.8</ele>
    <time>2026-06-22T12:01:52Z</time>
   </trkpt>
   <trkpt lat="-3.1026930" lon="37.3778430">
    <ele>4572.8</ele>
    <time>2026-06-22T12:01:53Z</time>
   </trkpt>
   <trkpt lat="-3.1026900" lon="37.3778460">
    <ele>4572.9</ele>
    <time>2026-06-22T12:01:54Z</time>
   </trkpt>
   <trkpt lat="-3.1026860" lon="37.3778490">
    <ele>4573.0</ele>
    <time>2026-06-22T12:01:55Z</time>
   </trkpt>
   <trkpt lat="-3.1026860" lon="37.3778530">
    <ele>4573.1</ele>
    <time>2026-06-22T12:01:56Z</time>
   </trkpt>
   <trkpt lat="-3.1026840" lon="37.3778590">
    <ele>4573.2</ele>
    <time>2026-06-22T12:01:57Z</time>
   </trkpt>
   <trkpt lat="-3.1026860" lon="37.3778630">
    <ele>4573.2</ele>
    <time>2026-06-22T12:01:58Z</time>
   </trkpt>
   <trkpt lat="-3.1026830" lon="37.3778660">
    <ele>4573.3</ele>
    <time>2026-06-22T12:01:59Z</time>
   </trkpt>
   <trkpt lat="-3.1026830" lon="37.3778690">
    <ele>4573.4</ele>
    <time>2026-06-22T12:02:00Z</time>
   </trkpt>
   <trkpt lat="-3.1026810" lon="37.3778730">
    <ele>4573.5</ele>
    <time>2026-06-22T12:02:01Z</time>
   </trkpt>
   <trkpt lat="-3.1026780" lon="37.3778750">
    <ele>4573.5</ele>
    <time>2026-06-22T12:02:02Z</time>
   </trkpt>
   <trkpt lat="-3.1026760" lon="37.3778780">
    <ele>4573.6</ele>
    <time>2026-06-22T12:02:03Z</time>
   </trkpt>
   <trkpt lat="-3.1026730" lon="37.3778800">
    <ele>4573.6</ele>
    <time>2026-06-22T12:02:04Z</time>
   </trkpt>
   <trkpt lat="-3.1026710" lon="37.3778830">
    <ele>4573.7</ele>
    <time>2026-06-22T12:02:05Z</time>
   </trkpt>
   <trkpt lat="-3.1026690" lon="37.3778840">
    <ele>4573.7</ele>
    <time>2026-06-22T12:02:06Z</time>
   </trkpt>
   <trkpt lat="-3.1026650" lon="37.3778860">
    <ele>4573.8</ele>
    <time>2026-06-22T12:02:07Z</time>
   </trkpt>
   <trkpt lat="-3.1026650" lon="37.3778870">
    <ele>4573.8</ele>
    <time>2026-06-22T12:02:08Z</time>
   </trkpt>
   <trkpt lat="-3.1026640" lon="37.3778900">
    <ele>4573.9</ele>
    <time>2026-06-22T12:02:09Z</time>
   </trkpt>
   <trkpt lat="-3.1026630" lon="37.3778940">
    <ele>4574.0</ele>
    <time>2026-06-22T12:02:10Z</time>
   </trkpt>
   <trkpt lat="-3.1026610" lon="37.3778980">
    <ele>4574.0</ele>
    <time>2026-06-22T12:02:11Z</time>
   </trkpt>
   <trkpt lat="-3.1026580" lon="37.3779010">
    <ele>4574.1</ele>
    <time>2026-06-22T12:02:12Z</time>
   </trkpt>
   <trkpt lat="-3.1026560" lon="37.3779030">
    <ele>4574.2</ele>
    <time>2026-06-22T12:02:13Z</time>
   </trkpt>
   <trkpt lat="-3.1026530" lon="37.3779050">
    <ele>4574.2</ele>
    <time>2026-06-22T12:02:14Z</time>
   </trkpt>
   <trkpt lat="-3.1026520" lon="37.3779080">
    <ele>4574.3</ele>
    <time>2026-06-22T12:02:15Z</time>
   </trkpt>
   <trkpt lat="-3.1026490" lon="37.3779090">
    <ele>4574.3</ele>
    <time>2026-06-22T12:02:16Z</time>
   </trkpt>
   <trkpt lat="-3.1026480" lon="37.3779120">
    <ele>4574.4</ele>
    <time>2026-06-22T12:02:17Z</time>
   </trkpt>
   <trkpt lat="-3.1026450" lon="37.3779150">
    <ele>4574.5</ele>
    <time>2026-06-22T12:02:18Z</time>
   </trkpt>
   <trkpt lat="-3.1026440" lon="37.3779180">
    <ele>4574.5</ele>
    <time>2026-06-22T12:02:19Z</time>
   </trkpt>
   <trkpt lat="-3.1026410" lon="37.3779200">
    <ele>4574.6</ele>
    <time>2026-06-22T12:02:20Z</time>
   </trkpt>
   <trkpt lat="-3.1026390" lon="37.3779220">
    <ele>4574.7</ele>
    <time>2026-06-22T12:02:21Z</time>
   </trkpt>
   <trkpt lat="-3.1026380" lon="37.3779250">
    <ele>4574.7</ele>
    <time>2026-06-22T12:02:22Z</time>
   </trkpt>
   <trkpt lat="-3.1026360" lon="37.3779270">
    <ele>4574.8</ele>
    <time>2026-06-22T12:02:23Z</time>
   </trkpt>
   <trkpt lat="-3.1026350" lon="37.3779300">
    <ele>4574.8</ele>
    <time>2026-06-22T12:02:24Z</time>
   </trkpt>
   <trkpt lat="-3.1026310" lon="37.3779320">
    <ele>4574.9</ele>
    <time>2026-06-22T12:02:25Z</time>
   </trkpt>
   <trkpt lat="-3.1026280" lon="37.3779350">
    <ele>4575.0</ele>
    <time>2026-06-22T12:02:26Z</time>
   </trkpt>
   <trkpt lat="-3.1026260" lon="37.3779360">
    <ele>4575.0</ele>
    <time>2026-06-22T12:02:27Z</time>
   </trkpt>
   <trkpt lat="-3.1026230" lon="37.3779390">
    <ele>4575.1</ele>
    <time>2026-06-22T12:02:28Z</time>
   </trkpt>
   <trkpt lat="-3.1026200" lon="37.3779410">
    <ele>4575.2</ele>
    <time>2026-06-22T12:02:29Z</time>
   </trkpt>
   <trkpt lat="-3.1026180" lon="37.3779420">
    <ele>4575.2</ele>
    <time>2026-06-22T12:02:30Z</time>
   </trkpt>
   <trkpt lat="-3.1026140" lon="37.3779450">
    <ele>4575.3</ele>
    <time>2026-06-22T12:02:31Z</time>
   </trkpt>
   <trkpt lat="-3.1026120" lon="37.3779460">
    <ele>4575.3</ele>
    <time>2026-06-22T12:02:32Z</time>
   </trkpt>
   <trkpt lat="-3.1026100" lon="37.3779480">
    <ele>4575.4</ele>
    <time>2026-06-22T12:02:33Z</time>
   </trkpt>
   <trkpt lat="-3.1026060" lon="37.3779490">
    <ele>4575.5</ele>
    <time>2026-06-22T12:02:34Z</time>
   </trkpt>
   <trkpt lat="-3.1026040" lon="37.3779510">
    <ele>4575.5</ele>
    <time>2026-06-22T12:02:35Z</time>
   </trkpt>
   <trkpt lat="-3.1025990" lon="37.3779520">
    <ele>4575.6</ele>
    <time>2026-06-22T12:02:36Z</time>
   </trkpt>
   <trkpt lat="-3.1025960" lon="37.3779550">
    <ele>4575.7</ele>
    <time>2026-06-22T12:02:37Z</time>
   </trkpt>
   <trkpt lat="-3.1025930" lon="37.3779580">
    <ele>4575.8</ele>
    <time>2026-06-22T12:02:38Z</time>
   </trkpt>
   <trkpt lat="-3.1025930" lon="37.3779600">
    <ele>4575.8</ele>
    <time>2026-06-22T12:02:39Z</time>
   </trkpt>
   <trkpt lat="-3.1025900" lon="37.3779620">
    <ele>4575.9</ele>
    <time>2026-06-22T12:02:40Z</time>
   </trkpt>
   <trkpt lat="-3.1025890" lon="37.3779640">
    <ele>4575.9</ele>
    <time>2026-06-22T12:02:41Z</time>
   </trkpt>
   <trkpt lat="-3.1025880" lon="37.3779660">
    <ele>4575.9</ele>
    <time>2026-06-22T12:02:42Z</time>
   </trkpt>
   <trkpt lat="-3.1025880" lon="37.3779700">
    <ele>4576.0</ele>
    <time>2026-06-22T12:02:43Z</time>
   </trkpt>
   <trkpt lat="-3.1025880" lon="37.3779700">
    <ele>4576.0</ele>
    <time>2026-06-22T12:02:44Z</time>
   </trkpt>
   <trkpt lat="-3.1025890" lon="37.3779720">
    <ele>4576.1</ele>
    <time>2026-06-22T12:02:45Z</time>
   </trkpt>
   <trkpt lat="-3.1025880" lon="37.3779710">
    <ele>4576.1</ele>
    <time>2026-06-22T12:02:46Z</time>
   </trkpt>
   <trkpt lat="-3.1025870" lon="37.3779730">
    <ele>4576.1</ele>
    <time>2026-06-22T12:02:47Z</time>
   </trkpt>
   <trkpt lat="-3.1025880" lon="37.3779750">
    <ele>4576.2</ele>
    <time>2026-06-22T12:02:48Z</time>
   </trkpt>
   <trkpt lat="-3.1025880" lon="37.3779760">
    <ele>4576.2</ele>
    <time>2026-06-22T12:02:49Z</time>
   </trkpt>
   <trkpt lat="-3.1025880" lon="37.3779760">
    <ele>4576.2</ele>
    <time>2026-06-22T12:02:50Z</time>
   </trkpt>
   <trkpt lat="-3.1025880" lon="37.3779760">
    <ele>4576.2</ele>
    <time>2026-06-22T12:02:51Z</time>
   </trkpt>
   <trkpt lat="-3.1025870" lon="37.3779760">
    <ele>4576.2</ele>
    <time>2026-06-22T12:02:52Z</time>
   </trkpt>
   <trkpt lat="-3.1025870" lon="37.3779770">
    <ele>4576.2</ele>
    <time>2026-06-22T12:02:53Z</time>
   </trkpt>
   <trkpt lat="-3.1025870" lon="37.3779810">
    <ele>4576.3</ele>
    <time>2026-06-22T12:02:54Z</time>
   </trkpt>
   <trkpt lat="-3.1025870" lon="37.3779840">
    <ele>4576.3</ele>
    <time>2026-06-22T12:02:55Z</time>
   </trkpt>
   <trkpt lat="-3.1025870" lon="37.3779900">
    <ele>4576.5</ele>
    <time>2026-06-22T12:02:56Z</time>
   </trkpt>
   <trkpt lat="-3.1025870" lon="37.3779920">
    <ele>4576.5</ele>
    <time>2026-06-22T12:02:57Z</time>
   </trkpt>
   <trkpt lat="-3.1025860" lon="37.3779930">
    <ele>4576.5</ele>
    <time>2026-06-22T12:02:58Z</time>
   </trkpt>
   <trkpt lat="-3.1025880" lon="37.3779950">
    <ele>4576.6</ele>
    <time>2026-06-22T12:02:59Z</time>
   </trkpt>
   <trkpt lat="-3.1025880" lon="37.3779930">
    <ele>4576.6</ele>
    <time>2026-06-22T12:03:00Z</time>
   </trkpt>
   <trkpt lat="-3.1025890" lon="37.3779940">
    <ele>4576.6</ele>
    <time>2026-06-22T12:03:01Z</time>
   </trkpt>
   <trkpt lat="-3.1025880" lon="37.3779940">
    <ele>4576.6</ele>
    <time>2026-06-22T12:03:02Z</time>
   </trkpt>
   <trkpt lat="-3.1025880" lon="37.3779930">
    <ele>4576.7</ele>
    <time>2026-06-22T12:03:03Z</time>
   </trkpt>
   <trkpt lat="-3.1025880" lon="37.3779940">
    <ele>4576.7</ele>
    <time>2026-06-22T12:03:04Z</time>
   </trkpt>
   <trkpt lat="-3.1025880" lon="37.3779940">
    <ele>4576.7</ele>
    <time>2026-06-22T12:03:05Z</time>
   </trkpt>
   <trkpt lat="-3.1025880" lon="37.3779940">
    <ele>4576.7</ele>
    <time>2026-06-22T12:03:06Z</time>
   </trkpt>
   <trkpt lat="-3.1025880" lon="37.3779940">
    <ele>4576.7</ele>
    <time>2026-06-22T12:03:07Z</time>
   </trkpt>
   <trkpt lat="-3.1025870" lon="37.3779950">
    <ele>4576.7</ele>
    <time>2026-06-22T12:03:08Z</time>
   </trkpt>
   <trkpt lat="-3.1025870" lon="37.3779980">
    <ele>4576.8</ele>
    <time>2026-06-22T12:03:09Z</time>
   </trkpt>
   <trkpt lat="-3.1025870" lon="37.3779990">
    <ele>4576.8</ele>
    <time>2026-06-22T12:03:10Z</time>
   </trkpt>
   <trkpt lat="-3.1025870" lon="37.3779990">
    <ele>4576.8</ele>
    <time>2026-06-22T12:03:11Z</time>
   </trkpt>
   <trkpt lat="-3.1025870" lon="37.3780000">
    <ele>4576.8</ele>
    <time>2026-06-22T12:03:12Z</time>
   </trkpt>
   <trkpt lat="-3.1025870" lon="37.3780000">
    <ele>4576.8</ele>
    <time>2026-06-22T12:03:13Z</time>
   </trkpt>
   <trkpt lat="-3.1025870" lon="37.3780000">
    <ele>4576.8</ele>
    <time>2026-06-22T12:03:14Z</time>
   </trkpt>
   <trkpt lat="-3.1025880" lon="37.3780000">
    <ele>4576.8</ele>
    <time>2026-06-22T12:03:15Z</time>
   </trkpt>
   <trkpt lat="-3.1025880" lon="37.3780010">
    <ele>4576.8</ele>
    <time>2026-06-22T12:03:16Z</time>
   </trkpt>
   <trkpt lat="-3.1025870" lon="37.3780010">
    <ele>4576.9</ele>
    <time>2026-06-22T12:03:17Z</time>
   </trkpt>
   <trkpt lat="-3.1025870" lon="37.3780010">
    <ele>4576.9</ele>
    <time>2026-06-22T12:03:18Z</time>
   </trkpt>
   <trkpt lat="-3.1025880" lon="37.3780010">
    <ele>4576.9</ele>
    <time>2026-06-22T12:03:19Z</time>
   </trkpt>
   <trkpt lat="-3.1025870" lon="37.3780000">
    <ele>4576.9</ele>
    <time>2026-06-22T12:03:20Z</time>
   </trkpt>
   <trkpt lat="-3.1025870" lon="37.3780000">
    <ele>4576.9</ele>
    <time>2026-06-22T12:03:21Z</time>
   </trkpt>
   <trkpt lat="-3.1025870" lon="37.3780000">
    <ele>4576.9</ele>
    <time>2026-06-22T12:03:22Z</time>
   </trkpt>
   <trkpt lat="-3.1025870" lon="37.3780000">
    <ele>4576.9</ele>
    <time>2026-06-22T12:03:23Z</time>
   </trkpt>
   <trkpt lat="-3.1025870" lon="37.3780020">
    <ele>4576.9</ele>
    <time>2026-06-22T12:03:24Z</time>
   </trkpt>
   <trkpt lat="-3.1025870" lon="37.3780020">
    <ele>4576.9</ele>
    <time>2026-06-22T12:03:25Z</time>
   </trkpt>
   <trkpt lat="-3.1025870" lon="37.3780020">
    <ele>4576.9</ele>
    <time>2026-06-22T12:03:26Z</time>
   </trkpt>
   <trkpt lat="-3.1025870" lon="37.3780020">
    <ele>4576.9</ele>
    <time>2026-06-22T12:03:27Z</time>
   </trkpt>
   <trkpt lat="-3.1025870" lon="37.3780020">
    <ele>4576.9</ele>
    <time>2026-06-22T12:03:28Z</time>
   </trkpt>
   <trkpt lat="-3.1025860" lon="37.3780020">
    <ele>4576.9</ele>
    <time>2026-06-22T12:03:29Z</time>
   </trkpt>
   <trkpt lat="-3.1025860" lon="37.3780020">
    <ele>4576.9</ele>
    <time>2026-06-22T12:03:30Z</time>
   </trkpt>
   <trkpt lat="-3.1025870" lon="37.3780030">
    <ele>4577.0</ele>
    <time>2026-06-22T12:03:31Z</time>
   </trkpt>
   <trkpt lat="-3.1025870" lon="37.3780030">
    <ele>4577.0</ele>
    <time>2026-06-22T12:03:32Z</time>
   </trkpt>
   <trkpt lat="-3.1025870" lon="37.3780030">
    <ele>4577.0</ele>
    <time>2026-06-22T12:03:33Z</time>
   </trkpt>
   <trkpt lat="-3.1025870" lon="37.3780020">
    <ele>4577.0</ele>
    <time>2026-06-22T12:03:34Z</time>
   </trkpt>
   <trkpt lat="-3.1025870" lon="37.3780030">
    <ele>4577.0</ele>
    <time>2026-06-22T12:03:35Z</time>
   </trkpt>
   <trkpt lat="-3.1025860" lon="37.3780040">
    <ele>4577.0</ele>
    <time>2026-06-22T12:03:36Z</time>
   </trkpt>
   <trkpt lat="-3.1025860" lon="37.3780040">
    <ele>4577.0</ele>
    <time>2026-06-22T12:03:37Z</time>
   </trkpt>
   <trkpt lat="-3.1025870" lon="37.3780040">
    <ele>4577.1</ele>
    <time>2026-06-22T12:03:38Z</time>
   </trkpt>
   <trkpt lat="-3.1025870" lon="37.3780030">
    <ele>4577.1</ele>
    <time>2026-06-22T12:03:39Z</time>
   </trkpt>
   <trkpt lat="-3.1025870" lon="37.3780040">
    <ele>4577.1</ele>
    <time>2026-06-22T12:03:40Z</time>
   </trkpt>
   <trkpt lat="-3.1025870" lon="37.3780040">
    <ele>4577.1</ele>
    <time>2026-06-22T12:03:41Z</time>
   </trkpt>
   <trkpt lat="-3.1025870" lon="37.3780040">
    <ele>4577.1</ele>
    <time>2026-06-22T12:03:42Z</time>
   </trkpt>
   <trkpt lat="-3.1025870" lon="37.3780040">
    <ele>4577.1</ele>
    <time>2026-06-22T12:03:43Z</time>
   </trkpt>
   <trkpt lat="-3.1025870" lon="37.3780040">
    <ele>4577.1</ele>
    <time>2026-06-22T12:03:44Z</time>
   </trkpt>
   <trkpt lat="-3.1025860" lon="37.3780060">
    <ele>4577.1</ele>
    <time>2026-06-22T12:03:45Z</time>
   </trkpt>
   <trkpt lat="-3.1025860" lon="37.3780080">
    <ele>4577.2</ele>
    <time>2026-06-22T12:03:46Z</time>
   </trkpt>
   <trkpt lat="-3.1025860" lon="37.3780120">
    <ele>4577.2</ele>
    <time>2026-06-22T12:03:47Z</time>
   </trkpt>
   <trkpt lat="-3.1025860" lon="37.3780150">
    <ele>4577.3</ele>
    <time>2026-06-22T12:03:48Z</time>
   </trkpt>
   <trkpt lat="-3.1025860" lon="37.3780180">
    <ele>4577.3</ele>
    <time>2026-06-22T12:03:49Z</time>
   </trkpt>
   <trkpt lat="-3.1025850" lon="37.3780220">
    <ele>4577.4</ele>
    <time>2026-06-22T12:03:50Z</time>
   </trkpt>
   <trkpt lat="-3.1025820" lon="37.3780240">
    <ele>4577.5</ele>
    <time>2026-06-22T12:03:51Z</time>
   </trkpt>
   <trkpt lat="-3.1025810" lon="37.3780260">
    <ele>4577.5</ele>
    <time>2026-06-22T12:03:52Z</time>
   </trkpt>
   <trkpt lat="-3.1025790" lon="37.3780290">
    <ele>4577.6</ele>
    <time>2026-06-22T12:03:53Z</time>
   </trkpt>
   <trkpt lat="-3.1025760" lon="37.3780310">
    <ele>4577.7</ele>
    <time>2026-06-22T12:03:54Z</time>
   </trkpt>
   <trkpt lat="-3.1025740" lon="37.3780320">
    <ele>4577.7</ele>
    <time>2026-06-22T12:03:55Z</time>
   </trkpt>
   <trkpt lat="-3.1025700" lon="37.3780330">
    <ele>4577.8</ele>
    <time>2026-06-22T12:03:56Z</time>
   </trkpt>
   <trkpt lat="-3.1025650" lon="37.3780360">
    <ele>4577.9</ele>
    <time>2026-06-22T12:03:57Z</time>
   </trkpt>
   <trkpt lat="-3.1025600" lon="37.3780370">
    <ele>4578.0</ele>
    <time>2026-06-22T12:03:58Z</time>
   </trkpt>
   <trkpt lat="-3.1025560" lon="37.3780390">
    <ele>4578.1</ele>
    <time>2026-06-22T12:03:59Z</time>
   </trkpt>
   <trkpt lat="-3.1025530" lon="37.3780410">
    <ele>4578.1</ele>
    <time>2026-06-22T12:04:00Z</time>
   </trkpt>
   <trkpt lat="-3.1025490" lon="37.3780410">
    <ele>4578.2</ele>
    <time>2026-06-22T12:04:01Z</time>
   </trkpt>
   <trkpt lat="-3.1025470" lon="37.3780430">
    <ele>4578.2</ele>
    <time>2026-06-22T12:04:02Z</time>
   </trkpt>
   <trkpt lat="-3.1025430" lon="37.3780430">
    <ele>4578.3</ele>
    <time>2026-06-22T12:04:03Z</time>
   </trkpt>
   <trkpt lat="-3.1025390" lon="37.3780420">
    <ele>4578.4</ele>
    <time>2026-06-22T12:04:04Z</time>
   </trkpt>
   <trkpt lat="-3.1025360" lon="37.3780440">
    <ele>4578.5</ele>
    <time>2026-06-22T12:04:05Z</time>
   </trkpt>
   <trkpt lat="-3.1025330" lon="37.3780460">
    <ele>4578.5</ele>
    <time>2026-06-22T12:04:06Z</time>
   </trkpt>
   <trkpt lat="-3.1025290" lon="37.3780450">
    <ele>4578.6</ele>
    <time>2026-06-22T12:04:07Z</time>
   </trkpt>
   <trkpt lat="-3.1025250" lon="37.3780440">
    <ele>4578.7</ele>
    <time>2026-06-22T12:04:08Z</time>
   </trkpt>
   <trkpt lat="-3.1025220" lon="37.3780430">
    <ele>4578.7</ele>
    <time>2026-06-22T12:04:09Z</time>
   </trkpt>
   <trkpt lat="-3.1025180" lon="37.3780430">
    <ele>4578.8</ele>
    <time>2026-06-22T12:04:10Z</time>
   </trkpt>
   <trkpt lat="-3.1025140" lon="37.3780450">
    <ele>4578.9</ele>
    <time>2026-06-22T12:04:11Z</time>
   </trkpt>
   <trkpt lat="-3.1025130" lon="37.3780450">
    <ele>4578.9</ele>
    <time>2026-06-22T12:04:12Z</time>
   </trkpt>
   <trkpt lat="-3.1025100" lon="37.3780450">
    <ele>4579.0</ele>
    <time>2026-06-22T12:04:13Z</time>
   </trkpt>
   <trkpt lat="-3.1025070" lon="37.3780440">
    <ele>4579.0</ele>
    <time>2026-06-22T12:04:14Z</time>
   </trkpt>
   <trkpt lat="-3.1025040" lon="37.3780460">
    <ele>4579.1</ele>
    <time>2026-06-22T12:04:15Z</time>
   </trkpt>
   <trkpt lat="-3.1025030" lon="37.3780460">
    <ele>4579.1</ele>
    <time>2026-06-22T12:04:16Z</time>
   </trkpt>
   <trkpt lat="-3.1025010" lon="37.3780480">
    <ele>4579.1</ele>
    <time>2026-06-22T12:04:17Z</time>
   </trkpt>
   <trkpt lat="-3.1024980" lon="37.3780500">
    <ele>4579.2</ele>
    <time>2026-06-22T12:04:18Z</time>
   </trkpt>
   <trkpt lat="-3.1024940" lon="37.3780510">
    <ele>4579.3</ele>
    <time>2026-06-22T12:04:19Z</time>
   </trkpt>
   <trkpt lat="-3.1024910" lon="37.3780520">
    <ele>4579.3</ele>
    <time>2026-06-22T12:04:20Z</time>
   </trkpt>
   <trkpt lat="-3.1024880" lon="37.3780540">
    <ele>4579.4</ele>
    <time>2026-06-22T12:04:21Z</time>
   </trkpt>
   <trkpt lat="-3.1024860" lon="37.3780560">
    <ele>4579.5</ele>
    <time>2026-06-22T12:04:22Z</time>
   </trkpt>
   <trkpt lat="-3.1024840" lon="37.3780570">
    <ele>4579.5</ele>
    <time>2026-06-22T12:04:23Z</time>
   </trkpt>
   <trkpt lat="-3.1024810" lon="37.3780600">
    <ele>4579.6</ele>
    <time>2026-06-22T12:04:24Z</time>
   </trkpt>
   <trkpt lat="-3.1024790" lon="37.3780630">
    <ele>4579.6</ele>
    <time>2026-06-22T12:04:25Z</time>
   </trkpt>
   <trkpt lat="-3.1024760" lon="37.3780670">
    <ele>4579.7</ele>
    <time>2026-06-22T12:04:26Z</time>
   </trkpt>
   <trkpt lat="-3.1024720" lon="37.3780680">
    <ele>4579.8</ele>
    <time>2026-06-22T12:04:27Z</time>
   </trkpt>
   <trkpt lat="-3.1024730" lon="37.3780700">
    <ele>4579.9</ele>
    <time>2026-06-22T12:04:28Z</time>
   </trkpt>
   <trkpt lat="-3.1024690" lon="37.3780730">
    <ele>4580.0</ele>
    <time>2026-06-22T12:04:29Z</time>
   </trkpt>
   <trkpt lat="-3.1024680" lon="37.3780770">
    <ele>4580.0</ele>
    <time>2026-06-22T12:04:30Z</time>
   </trkpt>
   <trkpt lat="-3.1024650" lon="37.3780790">
    <ele>4580.1</ele>
    <time>2026-06-22T12:04:31Z</time>
   </trkpt>
   <trkpt lat="-3.1024650" lon="37.3780830">
    <ele>4580.2</ele>
    <time>2026-06-22T12:04:32Z</time>
   </trkpt>
   <trkpt lat="-3.1024620" lon="37.3780850">
    <ele>4580.2</ele>
    <time>2026-06-22T12:04:33Z</time>
   </trkpt>
   <trkpt lat="-3.1024610" lon="37.3780890">
    <ele>4580.3</ele>
    <time>2026-06-22T12:04:34Z</time>
   </trkpt>
   <trkpt lat="-3.1024600" lon="37.3780920">
    <ele>4580.4</ele>
    <time>2026-06-22T12:04:35Z</time>
   </trkpt>
   <trkpt lat="-3.1024600" lon="37.3780950">
    <ele>4580.4</ele>
    <time>2026-06-22T12:04:36Z</time>
   </trkpt>
   <trkpt lat="-3.1024580" lon="37.3780970">
    <ele>4580.5</ele>
    <time>2026-06-22T12:04:37Z</time>
   </trkpt>
   <trkpt lat="-3.1024560" lon="37.3781020">
    <ele>4580.6</ele>
    <time>2026-06-22T12:04:38Z</time>
   </trkpt>
   <trkpt lat="-3.1024560" lon="37.3781030">
    <ele>4580.6</ele>
    <time>2026-06-22T12:04:39Z</time>
   </trkpt>
   <trkpt lat="-3.1024560" lon="37.3781070">
    <ele>4580.7</ele>
    <time>2026-06-22T12:04:40Z</time>
   </trkpt>
   <trkpt lat="-3.1024550" lon="37.3781100">
    <ele>4580.7</ele>
    <time>2026-06-22T12:04:41Z</time>
   </trkpt>
   <trkpt lat="-3.1024540" lon="37.3781130">
    <ele>4580.8</ele>
    <time>2026-06-22T12:04:42Z</time>
   </trkpt>
   <trkpt lat="-3.1024520" lon="37.3781150">
    <ele>4580.9</ele>
    <time>2026-06-22T12:04:43Z</time>
   </trkpt>
   <trkpt lat="-3.1024500" lon="37.3781190">
    <ele>4580.9</ele>
    <time>2026-06-22T12:04:44Z</time>
   </trkpt>
   <trkpt lat="-3.1024500" lon="37.3781210">
    <ele>4581.0</ele>
    <time>2026-06-22T12:04:45Z</time>
   </trkpt>
   <trkpt lat="-3.1024480" lon="37.3781240">
    <ele>4581.0</ele>
    <time>2026-06-22T12:04:46Z</time>
   </trkpt>
   <trkpt lat="-3.1024450" lon="37.3781270">
    <ele>4581.1</ele>
    <time>2026-06-22T12:04:47Z</time>
   </trkpt>
   <trkpt lat="-3.1024440" lon="37.3781300">
    <ele>4581.2</ele>
    <time>2026-06-22T12:04:48Z</time>
   </trkpt>
   <trkpt lat="-3.1024440" lon="37.3781330">
    <ele>4581.2</ele>
    <time>2026-06-22T12:04:49Z</time>
   </trkpt>
   <trkpt lat="-3.1024420" lon="37.3781360">
    <ele>4581.3</ele>
    <time>2026-06-22T12:04:50Z</time>
   </trkpt>
   <trkpt lat="-3.1024410" lon="37.3781390">
    <ele>4581.4</ele>
    <time>2026-06-22T12:04:51Z</time>
   </trkpt>
   <trkpt lat="-3.1024390" lon="37.3781430">
    <ele>4581.4</ele>
    <time>2026-06-22T12:04:52Z</time>
   </trkpt>
   <trkpt lat="-3.1024360" lon="37.3781460">
    <ele>4581.5</ele>
    <time>2026-06-22T12:04:53Z</time>
   </trkpt>
   <trkpt lat="-3.1024340" lon="37.3781480">
    <ele>4581.6</ele>
    <time>2026-06-22T12:04:54Z</time>
   </trkpt>
   <trkpt lat="-3.1024310" lon="37.3781500">
    <ele>4581.6</ele>
    <time>2026-06-22T12:04:55Z</time>
   </trkpt>
   <trkpt lat="-3.1024300" lon="37.3781530">
    <ele>4581.7</ele>
    <time>2026-06-22T12:04:56Z</time>
   </trkpt>
   <trkpt lat="-3.1024280" lon="37.3781560">
    <ele>4581.8</ele>
    <time>2026-06-22T12:04:57Z</time>
   </trkpt>
   <trkpt lat="-3.1024270" lon="37.3781580">
    <ele>4581.8</ele>
    <time>2026-06-22T12:04:58Z</time>
   </trkpt>
   <trkpt lat="-3.1024250" lon="37.3781620">
    <ele>4581.9</ele>
    <time>2026-06-22T12:04:59Z</time>
   </trkpt>
   <trkpt lat="-3.1024250" lon="37.3781660">
    <ele>4582.0</ele>
    <time>2026-06-22T12:05:00Z</time>
   </trkpt>
   <trkpt lat="-3.1024210" lon="37.3781690">
    <ele>4582.1</ele>
    <time>2026-06-22T12:05:01Z</time>
   </trkpt>
   <trkpt lat="-3.1024230" lon="37.3781710">
    <ele>4582.1</ele>
    <time>2026-06-22T12:05:02Z</time>
   </trkpt>
   <trkpt lat="-3.1024200" lon="37.3781740">
    <ele>4582.2</ele>
    <time>2026-06-22T12:05:03Z</time>
   </trkpt>
   <trkpt lat="-3.1024200" lon="37.3781750">
    <ele>4582.2</ele>
    <time>2026-06-22T12:05:04Z</time>
   </trkpt>
   <trkpt lat="-3.1024160" lon="37.3781780">
    <ele>4582.3</ele>
    <time>2026-06-22T12:05:05Z</time>
   </trkpt>
   <trkpt lat="-3.1024170" lon="37.3781820">
    <ele>4582.4</ele>
    <time>2026-06-22T12:05:06Z</time>
   </trkpt>
   <trkpt lat="-3.1024150" lon="37.3781840">
    <ele>4582.4</ele>
    <time>2026-06-22T12:05:07Z</time>
   </trkpt>
   <trkpt lat="-3.1024150" lon="37.3781870">
    <ele>4582.5</ele>
    <time>2026-06-22T12:05:08Z</time>
   </trkpt>
   <trkpt lat="-3.1024130" lon="37.3781890">
    <ele>4582.5</ele>
    <time>2026-06-22T12:05:09Z</time>
   </trkpt>
   <trkpt lat="-3.1024120" lon="37.3781940">
    <ele>4582.6</ele>
    <time>2026-06-22T12:05:10Z</time>
   </trkpt>
   <trkpt lat="-3.1024140" lon="37.3781960">
    <ele>4582.7</ele>
    <time>2026-06-22T12:05:11Z</time>
   </trkpt>
   <trkpt lat="-3.1024090" lon="37.3781990">
    <ele>4582.8</ele>
    <time>2026-06-22T12:05:12Z</time>
   </trkpt>
   <trkpt lat="-3.1024080" lon="37.3782040">
    <ele>4582.9</ele>
    <time>2026-06-22T12:05:13Z</time>
   </trkpt>
   <trkpt lat="-3.1024050" lon="37.3782080">
    <ele>4583.0</ele>
    <time>2026-06-22T12:05:14Z</time>
   </trkpt>
   <trkpt lat="-3.1024040" lon="37.3782100">
    <ele>4583.0</ele>
    <time>2026-06-22T12:05:15Z</time>
   </trkpt>
   <trkpt lat="-3.1024020" lon="37.3782130">
    <ele>4583.1</ele>
    <time>2026-06-22T12:05:16Z</time>
   </trkpt>
   <trkpt lat="-3.1024030" lon="37.3782170">
    <ele>4583.2</ele>
    <time>2026-06-22T12:05:17Z</time>
   </trkpt>
   <trkpt lat="-3.1024000" lon="37.3782210">
    <ele>4583.3</ele>
    <time>2026-06-22T12:05:18Z</time>
   </trkpt>
   <trkpt lat="-3.1023990" lon="37.3782240">
    <ele>4583.3</ele>
    <time>2026-06-22T12:05:19Z</time>
   </trkpt>
   <trkpt lat="-3.1023970" lon="37.3782270">
    <ele>4583.4</ele>
    <time>2026-06-22T12:05:20Z</time>
   </trkpt>
   <trkpt lat="-3.1023940" lon="37.3782290">
    <ele>4583.5</ele>
    <time>2026-06-22T12:05:21Z</time>
   </trkpt>
   <trkpt lat="-3.1023910" lon="37.3782300">
    <ele>4583.5</ele>
    <time>2026-06-22T12:05:22Z</time>
   </trkpt>
   <trkpt lat="-3.1023880" lon="37.3782290">
    <ele>4583.6</ele>
    <time>2026-06-22T12:05:23Z</time>
   </trkpt>
   <trkpt lat="-3.1023850" lon="37.3782310">
    <ele>4583.6</ele>
    <time>2026-06-22T12:05:24Z</time>
   </trkpt>
   <trkpt lat="-3.1023820" lon="37.3782290">
    <ele>4583.7</ele>
    <time>2026-06-22T12:05:25Z</time>
   </trkpt>
   <trkpt lat="-3.1023780" lon="37.3782300">
    <ele>4583.8</ele>
    <time>2026-06-22T12:05:26Z</time>
   </trkpt>
   <trkpt lat="-3.1023750" lon="37.3782280">
    <ele>4583.9</ele>
    <time>2026-06-22T12:05:27Z</time>
   </trkpt>
   <trkpt lat="-3.1023710" lon="37.3782310">
    <ele>4584.0</ele>
    <time>2026-06-22T12:05:28Z</time>
   </trkpt>
   <trkpt lat="-3.1023670" lon="37.3782280">
    <ele>4584.0</ele>
    <time>2026-06-22T12:05:29Z</time>
   </trkpt>
   <trkpt lat="-3.1023640" lon="37.3782250">
    <ele>4584.1</ele>
    <time>2026-06-22T12:05:30Z</time>
   </trkpt>
   <trkpt lat="-3.1023620" lon="37.3782220">
    <ele>4584.2</ele>
    <time>2026-06-22T12:05:31Z</time>
   </trkpt>
   <trkpt lat="-3.1023580" lon="37.3782200">
    <ele>4584.3</ele>
    <time>2026-06-22T12:05:32Z</time>
   </trkpt>
   <trkpt lat="-3.1023540" lon="37.3782200">
    <ele>4584.3</ele>
    <time>2026-06-22T12:05:33Z</time>
   </trkpt>
   <trkpt lat="-3.1023510" lon="37.3782210">
    <ele>4584.4</ele>
    <time>2026-06-22T12:05:34Z</time>
   </trkpt>
   <trkpt lat="-3.1023490" lon="37.3782200">
    <ele>4584.4</ele>
    <time>2026-06-22T12:05:35Z</time>
   </trkpt>
   <trkpt lat="-3.1023460" lon="37.3782220">
    <ele>4584.5</ele>
    <time>2026-06-22T12:05:36Z</time>
   </trkpt>
   <trkpt lat="-3.1023420" lon="37.3782220">
    <ele>4584.6</ele>
    <time>2026-06-22T12:05:37Z</time>
   </trkpt>
   <trkpt lat="-3.1023390" lon="37.3782200">
    <ele>4584.7</ele>
    <time>2026-06-22T12:05:38Z</time>
   </trkpt>
   <trkpt lat="-3.1023360" lon="37.3782170">
    <ele>4584.7</ele>
    <time>2026-06-22T12:05:39Z</time>
   </trkpt>
   <trkpt lat="-3.1023330" lon="37.3782170">
    <ele>4584.8</ele>
    <time>2026-06-22T12:05:40Z</time>
   </trkpt>
   <trkpt lat="-3.1023300" lon="37.3782150">
    <ele>4584.9</ele>
    <time>2026-06-22T12:05:41Z</time>
   </trkpt>
   <trkpt lat="-3.1023260" lon="37.3782140">
    <ele>4584.9</ele>
    <time>2026-06-22T12:05:42Z</time>
   </trkpt>
   <trkpt lat="-3.1023250" lon="37.3782120">
    <ele>4585.0</ele>
    <time>2026-06-22T12:05:43Z</time>
   </trkpt>
   <trkpt lat="-3.1023210" lon="37.3782100">
    <ele>4585.1</ele>
    <time>2026-06-22T12:05:44Z</time>
   </trkpt>
   <trkpt lat="-3.1023190" lon="37.3782110">
    <ele>4585.1</ele>
    <time>2026-06-22T12:05:45Z</time>
   </trkpt>
   <trkpt lat="-3.1023160" lon="37.3782100">
    <ele>4585.2</ele>
    <time>2026-06-22T12:05:46Z</time>
   </trkpt>
   <trkpt lat="-3.1023140" lon="37.3782110">
    <ele>4585.2</ele>
    <time>2026-06-22T12:05:47Z</time>
   </trkpt>
   <trkpt lat="-3.1023100" lon="37.3782130">
    <ele>4585.3</ele>
    <time>2026-06-22T12:05:48Z</time>
   </trkpt>
   <trkpt lat="-3.1023070" lon="37.3782140">
    <ele>4585.3</ele>
    <time>2026-06-22T12:05:49Z</time>
   </trkpt>
   <trkpt lat="-3.1023040" lon="37.3782160">
    <ele>4585.4</ele>
    <time>2026-06-22T12:05:50Z</time>
   </trkpt>
   <trkpt lat="-3.1023000" lon="37.3782160">
    <ele>4585.5</ele>
    <time>2026-06-22T12:05:51Z</time>
   </trkpt>
   <trkpt lat="-3.1022980" lon="37.3782170">
    <ele>4585.5</ele>
    <time>2026-06-22T12:05:52Z</time>
   </trkpt>
   <trkpt lat="-3.1022940" lon="37.3782170">
    <ele>4585.6</ele>
    <time>2026-06-22T12:05:53Z</time>
   </trkpt>
   <trkpt lat="-3.1022910" lon="37.3782180">
    <ele>4585.7</ele>
    <time>2026-06-22T12:05:54Z</time>
   </trkpt>
   <trkpt lat="-3.1022900" lon="37.3782180">
    <ele>4585.7</ele>
    <time>2026-06-22T12:05:55Z</time>
   </trkpt>
   <trkpt lat="-3.1022890" lon="37.3782220">
    <ele>4585.8</ele>
    <time>2026-06-22T12:05:56Z</time>
   </trkpt>
   <trkpt lat="-3.1022900" lon="37.3782250">
    <ele>4585.8</ele>
    <time>2026-06-22T12:05:57Z</time>
   </trkpt>
   <trkpt lat="-3.1022890" lon="37.3782290">
    <ele>4585.9</ele>
    <time>2026-06-22T12:05:58Z</time>
   </trkpt>
   <trkpt lat="-3.1022880" lon="37.3782340">
    <ele>4586.0</ele>
    <time>2026-06-22T12:05:59Z</time>
   </trkpt>
   <trkpt lat="-3.1022890" lon="37.3782380">
    <ele>4586.1</ele>
    <time>2026-06-22T12:06:00Z</time>
   </trkpt>
   <trkpt lat="-3.1022870" lon="37.3782440">
    <ele>4586.2</ele>
    <time>2026-06-22T12:06:01Z</time>
   </trkpt>
   <trkpt lat="-3.1022860" lon="37.3782470">
    <ele>4586.2</ele>
    <time>2026-06-22T12:06:02Z</time>
   </trkpt>
   <trkpt lat="-3.1022820" lon="37.3782500">
    <ele>4586.3</ele>
    <time>2026-06-22T12:06:03Z</time>
   </trkpt>
   <trkpt lat="-3.1022780" lon="37.3782500">
    <ele>4586.4</ele>
    <time>2026-06-22T12:06:04Z</time>
   </trkpt>
   <trkpt lat="-3.1022750" lon="37.3782510">
    <ele>4586.5</ele>
    <time>2026-06-22T12:06:05Z</time>
   </trkpt>
   <trkpt lat="-3.1022720" lon="37.3782510">
    <ele>4586.5</ele>
    <time>2026-06-22T12:06:06Z</time>
   </trkpt>
   <trkpt lat="-3.1022680" lon="37.3782510">
    <ele>4586.6</ele>
    <time>2026-06-22T12:06:07Z</time>
   </trkpt>
   <trkpt lat="-3.1022660" lon="37.3782520">
    <ele>4586.6</ele>
    <time>2026-06-22T12:06:08Z</time>
   </trkpt>
   <trkpt lat="-3.1022620" lon="37.3782510">
    <ele>4586.7</ele>
    <time>2026-06-22T12:06:09Z</time>
   </trkpt>
   <trkpt lat="-3.1022620" lon="37.3782550">
    <ele>4586.8</ele>
    <time>2026-06-22T12:06:10Z</time>
   </trkpt>
   <trkpt lat="-3.1022560" lon="37.3782520">
    <ele>4586.9</ele>
    <time>2026-06-22T12:06:11Z</time>
   </trkpt>
   <trkpt lat="-3.1022550" lon="37.3782530">
    <ele>4587.0</ele>
    <time>2026-06-22T12:06:12Z</time>
   </trkpt>
   <trkpt lat="-3.1022520" lon="37.3782570">
    <ele>4587.1</ele>
    <time>2026-06-22T12:06:13Z</time>
   </trkpt>
   <trkpt lat="-3.1022510" lon="37.3782590">
    <ele>4587.1</ele>
    <time>2026-06-22T12:06:14Z</time>
   </trkpt>
   <trkpt lat="-3.1022510" lon="37.3782640">
    <ele>4587.2</ele>
    <time>2026-06-22T12:06:15Z</time>
   </trkpt>
   <trkpt lat="-3.1022490" lon="37.3782680">
    <ele>4587.3</ele>
    <time>2026-06-22T12:06:16Z</time>
   </trkpt>
   <trkpt lat="-3.1022470" lon="37.3782720">
    <ele>4587.4</ele>
    <time>2026-06-22T12:06:17Z</time>
   </trkpt>
   <trkpt lat="-3.1022450" lon="37.3782760">
    <ele>4587.5</ele>
    <time>2026-06-22T12:06:18Z</time>
   </trkpt>
   <trkpt lat="-3.1022430" lon="37.3782800">
    <ele>4587.5</ele>
    <time>2026-06-22T12:06:19Z</time>
   </trkpt>
   <trkpt lat="-3.1022400" lon="37.3782820">
    <ele>4587.6</ele>
    <time>2026-06-22T12:06:20Z</time>
   </trkpt>
   <trkpt lat="-3.1022400" lon="37.3782840">
    <ele>4587.6</ele>
    <time>2026-06-22T12:06:21Z</time>
   </trkpt>
   <trkpt lat="-3.1022380" lon="37.3782880">
    <ele>4587.7</ele>
    <time>2026-06-22T12:06:22Z</time>
   </trkpt>
   <trkpt lat="-3.1022390" lon="37.3782910">
    <ele>4587.8</ele>
    <time>2026-06-22T12:06:23Z</time>
   </trkpt>
   <trkpt lat="-3.1022370" lon="37.3782950">
    <ele>4587.9</ele>
    <time>2026-06-22T12:06:24Z</time>
   </trkpt>
   <trkpt lat="-3.1022350" lon="37.3782970">
    <ele>4587.9</ele>
    <time>2026-06-22T12:06:25Z</time>
   </trkpt>
   <trkpt lat="-3.1022340" lon="37.3782990">
    <ele>4588.0</ele>
    <time>2026-06-22T12:06:26Z</time>
   </trkpt>
   <trkpt lat="-3.1022310" lon="37.3783010">
    <ele>4588.0</ele>
    <time>2026-06-22T12:06:27Z</time>
   </trkpt>
   <trkpt lat="-3.1022310" lon="37.3783030">
    <ele>4588.1</ele>
    <time>2026-06-22T12:06:28Z</time>
   </trkpt>
   <trkpt lat="-3.1022270" lon="37.3783060">
    <ele>4588.2</ele>
    <time>2026-06-22T12:06:29Z</time>
   </trkpt>
   <trkpt lat="-3.1022250" lon="37.3783080">
    <ele>4588.2</ele>
    <time>2026-06-22T12:06:30Z</time>
   </trkpt>
   <trkpt lat="-3.1022230" lon="37.3783090">
    <ele>4588.3</ele>
    <time>2026-06-22T12:06:31Z</time>
   </trkpt>
   <trkpt lat="-3.1022210" lon="37.3783120">
    <ele>4588.3</ele>
    <time>2026-06-22T12:06:32Z</time>
   </trkpt>
   <trkpt lat="-3.1022180" lon="37.3783140">
    <ele>4588.4</ele>
    <time>2026-06-22T12:06:33Z</time>
   </trkpt>
   <trkpt lat="-3.1022150" lon="37.3783120">
    <ele>4588.5</ele>
    <time>2026-06-22T12:06:34Z</time>
   </trkpt>
   <trkpt lat="-3.1022120" lon="37.3783110">
    <ele>4588.5</ele>
    <time>2026-06-22T12:06:35Z</time>
   </trkpt>
   <trkpt lat="-3.1022070" lon="37.3783130">
    <ele>4588.6</ele>
    <time>2026-06-22T12:06:36Z</time>
   </trkpt>
   <trkpt lat="-3.1022080" lon="37.3783160">
    <ele>4588.7</ele>
    <time>2026-06-22T12:06:37Z</time>
   </trkpt>
   <trkpt lat="-3.1022040" lon="37.3783160">
    <ele>4588.8</ele>
    <time>2026-06-22T12:06:38Z</time>
   </trkpt>
   <trkpt lat="-3.1022020" lon="37.3783210">
    <ele>4588.9</ele>
    <time>2026-06-22T12:06:40Z</time>
   </trkpt>
   <trkpt lat="-3.1022000" lon="37.3783240">
    <ele>4589.0</ele>
    <time>2026-06-22T12:06:41Z</time>
   </trkpt>
   <trkpt lat="-3.1021980" lon="37.3783270">
    <ele>4589.0</ele>
    <time>2026-06-22T12:06:42Z</time>
   </trkpt>
   <trkpt lat="-3.1021960" lon="37.3783300">
    <ele>4589.1</ele>
    <time>2026-06-22T12:06:43Z</time>
   </trkpt>
   <trkpt lat="-3.1021920" lon="37.3783330">
    <ele>4589.2</ele>
    <time>2026-06-22T12:06:44Z</time>
   </trkpt>
   <trkpt lat="-3.1021880" lon="37.3783340">
    <ele>4589.3</ele>
    <time>2026-06-22T12:06:45Z</time>
   </trkpt>
   <trkpt lat="-3.1021840" lon="37.3783370">
    <ele>4589.4</ele>
    <time>2026-06-22T12:06:46Z</time>
   </trkpt>
   <trkpt lat="-3.1021790" lon="37.3783390">
    <ele>4589.5</ele>
    <time>2026-06-22T12:06:47Z</time>
   </trkpt>
   <trkpt lat="-3.1021770" lon="37.3783410">
    <ele>4589.5</ele>
    <time>2026-06-22T12:06:48Z</time>
   </trkpt>
   <trkpt lat="-3.1021750" lon="37.3783420">
    <ele>4589.6</ele>
    <time>2026-06-22T12:06:49Z</time>
   </trkpt>
   <trkpt lat="-3.1021740" lon="37.3783420">
    <ele>4589.6</ele>
    <time>2026-06-22T12:06:50Z</time>
   </trkpt>
   <trkpt lat="-3.1021740" lon="37.3783410">
    <ele>4589.6</ele>
    <time>2026-06-22T12:06:51Z</time>
   </trkpt>
   <trkpt lat="-3.1021740" lon="37.3783440">
    <ele>4589.7</ele>
    <time>2026-06-22T12:06:52Z</time>
   </trkpt>
   <trkpt lat="-3.1021690" lon="37.3783510">
    <ele>4589.8</ele>
    <time>2026-06-22T12:06:53Z</time>
   </trkpt>
   <trkpt lat="-3.1021660" lon="37.3783530">
    <ele>4589.9</ele>
    <time>2026-06-22T12:06:54Z</time>
   </trkpt>
   <trkpt lat="-3.1021640" lon="37.3783560">
    <ele>4590.0</ele>
    <time>2026-06-22T12:06:55Z</time>
   </trkpt>
   <trkpt lat="-3.1021620" lon="37.3783560">
    <ele>4590.0</ele>
    <time>2026-06-22T12:06:56Z</time>
   </trkpt>
   <trkpt lat="-3.1021610" lon="37.3783590">
    <ele>4590.1</ele>
    <time>2026-06-22T12:06:57Z</time>
   </trkpt>
   <trkpt lat="-3.1021600" lon="37.3783620">
    <ele>4590.1</ele>
    <time>2026-06-22T12:06:58Z</time>
   </trkpt>
   <trkpt lat="-3.1021560" lon="37.3783640">
    <ele>4590.2</ele>
    <time>2026-06-22T12:06:59Z</time>
   </trkpt>
   <trkpt lat="-3.1021530" lon="37.3783660">
    <ele>4590.3</ele>
    <time>2026-06-22T12:07:00Z</time>
   </trkpt>
   <trkpt lat="-3.1021510" lon="37.3783690">
    <ele>4590.4</ele>
    <time>2026-06-22T12:07:01Z</time>
   </trkpt>
   <trkpt lat="-3.1021470" lon="37.3783710">
    <ele>4590.4</ele>
    <time>2026-06-22T12:07:02Z</time>
   </trkpt>
   <trkpt lat="-3.1021430" lon="37.3783650">
    <ele>4590.6</ele>
    <time>2026-06-22T12:07:03Z</time>
   </trkpt>
   <trkpt lat="-3.1021420" lon="37.3783680">
    <ele>4590.6</ele>
    <time>2026-06-22T12:07:04Z</time>
   </trkpt>
   <trkpt lat="-3.1021360" lon="37.3783660">
    <ele>4590.8</ele>
    <time>2026-06-22T12:07:05Z</time>
   </trkpt>
   <trkpt lat="-3.1021350" lon="37.3783630">
    <ele>4590.8</ele>
    <time>2026-06-22T12:07:06Z</time>
   </trkpt>
   <trkpt lat="-3.1021310" lon="37.3783640">
    <ele>4590.9</ele>
    <time>2026-06-22T12:07:07Z</time>
   </trkpt>
   <trkpt lat="-3.1021280" lon="37.3783610">
    <ele>4591.0</ele>
    <time>2026-06-22T12:07:08Z</time>
   </trkpt>
   <trkpt lat="-3.1021270" lon="37.3783630">
    <ele>4591.0</ele>
    <time>2026-06-22T12:07:09Z</time>
   </trkpt>
   <trkpt lat="-3.1021240" lon="37.3783650">
    <ele>4591.1</ele>
    <time>2026-06-22T12:07:10Z</time>
   </trkpt>
   <trkpt lat="-3.1021230" lon="37.3783690">
    <ele>4591.2</ele>
    <time>2026-06-22T12:07:11Z</time>
   </trkpt>
   <trkpt lat="-3.1021190" lon="37.3783730">
    <ele>4591.3</ele>
    <time>2026-06-22T12:07:12Z</time>
   </trkpt>
   <trkpt lat="-3.1021180" lon="37.3783760">
    <ele>4591.3</ele>
    <time>2026-06-22T12:07:13Z</time>
   </trkpt>
   <trkpt lat="-3.1021150" lon="37.3783770">
    <ele>4591.4</ele>
    <time>2026-06-22T12:07:14Z</time>
   </trkpt>
   <trkpt lat="-3.1021090" lon="37.3783770">
    <ele>4591.5</ele>
    <time>2026-06-22T12:07:15Z</time>
   </trkpt>
   <trkpt lat="-3.1021060" lon="37.3783760">
    <ele>4591.6</ele>
    <time>2026-06-22T12:07:16Z</time>
   </trkpt>
   <trkpt lat="-3.1021050" lon="37.3783760">
    <ele>4591.6</ele>
    <time>2026-06-22T12:07:17Z</time>
   </trkpt>
   <trkpt lat="-3.1021010" lon="37.3783760">
    <ele>4591.7</ele>
    <time>2026-06-22T12:07:18Z</time>
   </trkpt>
   <trkpt lat="-3.1020990" lon="37.3783750">
    <ele>4591.7</ele>
    <time>2026-06-22T12:07:19Z</time>
   </trkpt>
   <trkpt lat="-3.1020950" lon="37.3783710">
    <ele>4591.8</ele>
    <time>2026-06-22T12:07:20Z</time>
   </trkpt>
   <trkpt lat="-3.1020910" lon="37.3783670">
    <ele>4591.9</ele>
    <time>2026-06-22T12:07:21Z</time>
   </trkpt>
   <trkpt lat="-3.1020890" lon="37.3783640">
    <ele>4592.0</ele>
    <time>2026-06-22T12:07:22Z</time>
   </trkpt>
   <trkpt lat="-3.1020880" lon="37.3783620">
    <ele>4592.0</ele>
    <time>2026-06-22T12:07:23Z</time>
   </trkpt>
   <trkpt lat="-3.1020850" lon="37.3783620">
    <ele>4592.1</ele>
    <time>2026-06-22T12:07:24Z</time>
   </trkpt>
   <trkpt lat="-3.1020810" lon="37.3783590">
    <ele>4592.2</ele>
    <time>2026-06-22T12:07:25Z</time>
   </trkpt>
   <trkpt lat="-3.1020790" lon="37.3783580">
    <ele>4592.2</ele>
    <time>2026-06-22T12:07:26Z</time>
   </trkpt>
   <trkpt lat="-3.1020740" lon="37.3783560">
    <ele>4592.3</ele>
    <time>2026-06-22T12:07:27Z</time>
   </trkpt>
   <trkpt lat="-3.1020730" lon="37.3783510">
    <ele>4592.4</ele>
    <time>2026-06-22T12:07:28Z</time>
   </trkpt>
   <trkpt lat="-3.1020720" lon="37.3783510">
    <ele>4592.5</ele>
    <time>2026-06-22T12:07:29Z</time>
   </trkpt>
   <trkpt lat="-3.1020700" lon="37.3783480">
    <ele>4592.5</ele>
    <time>2026-06-22T12:07:30Z</time>
   </trkpt>
   <trkpt lat="-3.1020690" lon="37.3783470">
    <ele>4592.6</ele>
    <time>2026-06-22T12:07:31Z</time>
   </trkpt>
   <trkpt lat="-3.1020690" lon="37.3783470">
    <ele>4592.6</ele>
    <time>2026-06-22T12:07:32Z</time>
   </trkpt>
   <trkpt lat="-3.1020660" lon="37.3783420">
    <ele>4592.7</ele>
    <time>2026-06-22T12:07:33Z</time>
   </trkpt>
   <trkpt lat="-3.1020650" lon="37.3783390">
    <ele>4592.7</ele>
    <time>2026-06-22T12:07:34Z</time>
   </trkpt>
   <trkpt lat="-3.1020660" lon="37.3783330">
    <ele>4592.9</ele>
    <time>2026-06-22T12:07:35Z</time>
   </trkpt>
   <trkpt lat="-3.1020620" lon="37.3783320">
    <ele>4592.9</ele>
    <time>2026-06-22T12:07:36Z</time>
   </trkpt>
   <trkpt lat="-3.1020610" lon="37.3783300">
    <ele>4593.0</ele>
    <time>2026-06-22T12:07:37Z</time>
   </trkpt>
   <trkpt lat="-3.1020610" lon="37.3783270">
    <ele>4593.0</ele>
    <time>2026-06-22T12:07:38Z</time>
   </trkpt>
   <trkpt lat="-3.1020610" lon="37.3783240">
    <ele>4593.1</ele>
    <time>2026-06-22T12:07:39Z</time>
   </trkpt>
   <trkpt lat="-3.1020590" lon="37.3783200">
    <ele>4593.2</ele>
    <time>2026-06-22T12:07:40Z</time>
   </trkpt>
   <trkpt lat="-3.1020580" lon="37.3783170">
    <ele>4593.2</ele>
    <time>2026-06-22T12:07:41Z</time>
   </trkpt>
   <trkpt lat="-3.1020560" lon="37.3783140">
    <ele>4593.3</ele>
    <time>2026-06-22T12:07:42Z</time>
   </trkpt>
   <trkpt lat="-3.1020540" lon="37.3783080">
    <ele>4593.4</ele>
    <time>2026-06-22T12:07:43Z</time>
   </trkpt>
   <trkpt lat="-3.1020520" lon="37.3783050">
    <ele>4593.5</ele>
    <time>2026-06-22T12:07:44Z</time>
   </trkpt>
   <trkpt lat="-3.1020510" lon="37.3783010">
    <ele>4593.6</ele>
    <time>2026-06-22T12:07:45Z</time>
   </trkpt>
   <trkpt lat="-3.1020490" lon="37.3782990">
    <ele>4593.6</ele>
    <time>2026-06-22T12:07:46Z</time>
   </trkpt>
   <trkpt lat="-3.1020460" lon="37.3782950">
    <ele>4593.7</ele>
    <time>2026-06-22T12:07:47Z</time>
   </trkpt>
   <trkpt lat="-3.1020420" lon="37.3782910">
    <ele>4593.8</ele>
    <time>2026-06-22T12:07:48Z</time>
   </trkpt>
   <trkpt lat="-3.1020410" lon="37.3782920">
    <ele>4593.9</ele>
    <time>2026-06-22T12:07:49Z</time>
   </trkpt>
   <trkpt lat="-3.1020350" lon="37.3782910">
    <ele>4594.0</ele>
    <time>2026-06-22T12:07:50Z</time>
   </trkpt>
   <trkpt lat="-3.1020310" lon="37.3782920">
    <ele>4594.1</ele>
    <time>2026-06-22T12:07:51Z</time>
   </trkpt>
   <trkpt lat="-3.1020280" lon="37.3782920">
    <ele>4594.1</ele>
    <time>2026-06-22T12:07:52Z</time>
   </trkpt>
   <trkpt lat="-3.1020260" lon="37.3782950">
    <ele>4594.2</ele>
    <time>2026-06-22T12:07:53Z</time>
   </trkpt>
   <trkpt lat="-3.1020220" lon="37.3782980">
    <ele>4594.3</ele>
    <time>2026-06-22T12:07:54Z</time>
   </trkpt>
   <trkpt lat="-3.1020210" lon="37.3783010">
    <ele>4594.3</ele>
    <time>2026-06-22T12:07:55Z</time>
   </trkpt>
   <trkpt lat="-3.1020220" lon="37.3783030">
    <ele>4594.4</ele>
    <time>2026-06-22T12:07:56Z</time>
   </trkpt>
   <trkpt lat="-3.1020160" lon="37.3783070">
    <ele>4594.5</ele>
    <time>2026-06-22T12:07:57Z</time>
   </trkpt>
   <trkpt lat="-3.1020180" lon="37.3783090">
    <ele>4594.6</ele>
    <time>2026-06-22T12:07:58Z</time>
   </trkpt>
   <trkpt lat="-3.1020160" lon="37.3783140">
    <ele>4594.7</ele>
    <time>2026-06-22T12:07:59Z</time>
   </trkpt>
   <trkpt lat="-3.1020170" lon="37.3783160">
    <ele>4594.7</ele>
    <time>2026-06-22T12:08:00Z</time>
   </trkpt>
   <trkpt lat="-3.1020170" lon="37.3783180">
    <ele>4594.8</ele>
    <time>2026-06-22T12:08:01Z</time>
   </trkpt>
   <trkpt lat="-3.1020120" lon="37.3783200">
    <ele>4594.9</ele>
    <time>2026-06-22T12:08:02Z</time>
   </trkpt>
   <trkpt lat="-3.1020130" lon="37.3783220">
    <ele>4594.9</ele>
    <time>2026-06-22T12:08:03Z</time>
   </trkpt>
   <trkpt lat="-3.1020120" lon="37.3783240">
    <ele>4595.0</ele>
    <time>2026-06-22T12:08:04Z</time>
   </trkpt>
   <trkpt lat="-3.1020130" lon="37.3783270">
    <ele>4595.0</ele>
    <time>2026-06-22T12:08:05Z</time>
   </trkpt>
   <trkpt lat="-3.1020130" lon="37.3783290">
    <ele>4595.1</ele>
    <time>2026-06-22T12:08:06Z</time>
   </trkpt>
   <trkpt lat="-3.1020050" lon="37.3783260">
    <ele>4595.2</ele>
    <time>2026-06-22T12:08:07Z</time>
   </trkpt>
   <trkpt lat="-3.1020080" lon="37.3783330">
    <ele>4595.4</ele>
    <time>2026-06-22T12:08:08Z</time>
   </trkpt>
   <trkpt lat="-3.1020070" lon="37.3783360">
    <ele>4595.5</ele>
    <time>2026-06-22T12:08:09Z</time>
   </trkpt>
   <trkpt lat="-3.1020060" lon="37.3783370">
    <ele>4595.5</ele>
    <time>2026-06-22T12:08:10Z</time>
   </trkpt>
   <trkpt lat="-3.1020030" lon="37.3783400">
    <ele>4595.6</ele>
    <time>2026-06-22T12:08:11Z</time>
   </trkpt>
   <trkpt lat="-3.1020000" lon="37.3783430">
    <ele>4595.6</ele>
    <time>2026-06-22T12:08:12Z</time>
   </trkpt>
   <trkpt lat="-3.1020000" lon="37.3783430">
    <ele>4595.6</ele>
    <time>2026-06-22T12:08:13Z</time>
   </trkpt>
   <trkpt lat="-3.1019970" lon="37.3783440">
    <ele>4595.7</ele>
    <time>2026-06-22T12:08:14Z</time>
   </trkpt>
   <trkpt lat="-3.1019940" lon="37.3783450">
    <ele>4595.8</ele>
    <time>2026-06-22T12:08:15Z</time>
   </trkpt>
   <trkpt lat="-3.1019920" lon="37.3783440">
    <ele>4595.8</ele>
    <time>2026-06-22T12:08:16Z</time>
   </trkpt>
   <trkpt lat="-3.1019900" lon="37.3783440">
    <ele>4595.9</ele>
    <time>2026-06-22T12:08:17Z</time>
   </trkpt>
   <trkpt lat="-3.1019880" lon="37.3783410">
    <ele>4595.9</ele>
    <time>2026-06-22T12:08:18Z</time>
   </trkpt>
   <trkpt lat="-3.1019840" lon="37.3783390">
    <ele>4596.0</ele>
    <time>2026-06-22T12:08:19Z</time>
   </trkpt>
   <trkpt lat="-3.1019820" lon="37.3783350">
    <ele>4596.1</ele>
    <time>2026-06-22T12:08:20Z</time>
   </trkpt>
   <trkpt lat="-3.1019800" lon="37.3783340">
    <ele>4596.1</ele>
    <time>2026-06-22T12:08:21Z</time>
   </trkpt>
   <trkpt lat="-3.1019780" lon="37.3783320">
    <ele>4596.2</ele>
    <time>2026-06-22T12:08:22Z</time>
   </trkpt>
   <trkpt lat="-3.1019760" lon="37.3783290">
    <ele>4596.3</ele>
    <time>2026-06-22T12:08:23Z</time>
   </trkpt>
   <trkpt lat="-3.1019740" lon="37.3783280">
    <ele>4596.3</ele>
    <time>2026-06-22T12:08:24Z</time>
   </trkpt>
   <trkpt lat="-3.1019710" lon="37.3783280">
    <ele>4596.4</ele>
    <time>2026-06-22T12:08:25Z</time>
   </trkpt>
   <trkpt lat="-3.1019670" lon="37.3783280">
    <ele>4596.5</ele>
    <time>2026-06-22T12:08:26Z</time>
   </trkpt>
   <trkpt lat="-3.1019640" lon="37.3783290">
    <ele>4596.5</ele>
    <time>2026-06-22T12:08:27Z</time>
   </trkpt>
   <trkpt lat="-3.1019610" lon="37.3783300">
    <ele>4596.6</ele>
    <time>2026-06-22T12:08:28Z</time>
   </trkpt>
   <trkpt lat="-3.1019570" lon="37.3783340">
    <ele>4596.7</ele>
    <time>2026-06-22T12:08:29Z</time>
   </trkpt>
   <trkpt lat="-3.1019540" lon="37.3783400">
    <ele>4596.8</ele>
    <time>2026-06-22T12:08:30Z</time>
   </trkpt>
   <trkpt lat="-3.1019520" lon="37.3783440">
    <ele>4596.9</ele>
    <time>2026-06-22T12:08:31Z</time>
   </trkpt>
   <trkpt lat="-3.1019540" lon="37.3783460">
    <ele>4597.0</ele>
    <time>2026-06-22T12:08:32Z</time>
   </trkpt>
   <trkpt lat="-3.1019540" lon="37.3783510">
    <ele>4597.1</ele>
    <time>2026-06-22T12:08:33Z</time>
   </trkpt>
   <trkpt lat="-3.1019570" lon="37.3783550">
    <ele>4597.2</ele>
    <time>2026-06-22T12:08:34Z</time>
   </trkpt>
   <trkpt lat="-3.1019570" lon="37.3783600">
    <ele>4597.3</ele>
    <time>2026-06-22T12:08:35Z</time>
   </trkpt>
   <trkpt lat="-3.1019600" lon="37.3783640">
    <ele>4597.4</ele>
    <time>2026-06-22T12:08:36Z</time>
   </trkpt>
   <trkpt lat="-3.1019590" lon="37.3783670">
    <ele>4597.4</ele>
    <time>2026-06-22T12:08:37Z</time>
   </trkpt>
   <trkpt lat="-3.1019580" lon="37.3783730">
    <ele>4597.6</ele>
    <time>2026-06-22T12:08:38Z</time>
   </trkpt>
   <trkpt lat="-3.1019600" lon="37.3783740">
    <ele>4597.6</ele>
    <time>2026-06-22T12:08:39Z</time>
   </trkpt>
   <trkpt lat="-3.1019590" lon="37.3783750">
    <ele>4597.6</ele>
    <time>2026-06-22T12:08:40Z</time>
   </trkpt>
   <trkpt lat="-3.1019550" lon="37.3783800">
    <ele>4597.8</ele>
    <time>2026-06-22T12:08:41Z</time>
   </trkpt>
   <trkpt lat="-3.1019500" lon="37.3783840">
    <ele>4597.9</ele>
    <time>2026-06-22T12:08:42Z</time>
   </trkpt>
   <trkpt lat="-3.1019490" lon="37.3783850">
    <ele>4597.9</ele>
    <time>2026-06-22T12:08:43Z</time>
   </trkpt>
   <trkpt lat="-3.1019470" lon="37.3783880">
    <ele>4598.0</ele>
    <time>2026-06-22T12:08:45Z</time>
   </trkpt>
   <trkpt lat="-3.1019450" lon="37.3783890">
    <ele>4598.0</ele>
    <time>2026-06-22T12:08:46Z</time>
   </trkpt>
   <trkpt lat="-3.1019430" lon="37.3783900">
    <ele>4598.1</ele>
    <time>2026-06-22T12:08:47Z</time>
   </trkpt>
   <trkpt lat="-3.1019390" lon="37.3783930">
    <ele>4598.2</ele>
    <time>2026-06-22T12:08:48Z</time>
   </trkpt>
   <trkpt lat="-3.1019380" lon="37.3783930">
    <ele>4598.2</ele>
    <time>2026-06-22T12:08:49Z</time>
   </trkpt>
   <trkpt lat="-3.1019360" lon="37.3783970">
    <ele>4598.3</ele>
    <time>2026-06-22T12:08:50Z</time>
   </trkpt>
   <trkpt lat="-3.1019350" lon="37.3783980">
    <ele>4598.3</ele>
    <time>2026-06-22T12:08:51Z</time>
   </trkpt>
   <trkpt lat="-3.1019330" lon="37.3783990">
    <ele>4598.4</ele>
    <time>2026-06-22T12:08:52Z</time>
   </trkpt>
   <trkpt lat="-3.1019300" lon="37.3783980">
    <ele>4598.4</ele>
    <time>2026-06-22T12:08:53Z</time>
   </trkpt>
   <trkpt lat="-3.1019280" lon="37.3783960">
    <ele>4598.5</ele>
    <time>2026-06-22T12:08:54Z</time>
   </trkpt>
   <trkpt lat="-3.1019260" lon="37.3783860">
    <ele>4598.7</ele>
    <time>2026-06-22T12:08:55Z</time>
   </trkpt>
   <trkpt lat="-3.1019210" lon="37.3783890">
    <ele>4598.8</ele>
    <time>2026-06-22T12:08:57Z</time>
   </trkpt>
   <trkpt lat="-3.1019150" lon="37.3783860">
    <ele>4599.0</ele>
    <time>2026-06-22T12:08:58Z</time>
   </trkpt>
   <trkpt lat="-3.1019090" lon="37.3783850">
    <ele>4599.1</ele>
    <time>2026-06-22T12:08:59Z</time>
   </trkpt>
   <trkpt lat="-3.1019100" lon="37.3783820">
    <ele>4599.2</ele>
    <time>2026-06-22T12:09:00Z</time>
   </trkpt>
   <trkpt lat="-3.1019120" lon="37.3783790">
    <ele>4599.2</ele>
    <time>2026-06-22T12:09:01Z</time>
   </trkpt>
   <trkpt lat="-3.1019120" lon="37.3783750">
    <ele>4599.3</ele>
    <time>2026-06-22T12:09:02Z</time>
   </trkpt>
   <trkpt lat="-3.1019100" lon="37.3783730">
    <ele>4599.4</ele>
    <time>2026-06-22T12:09:03Z</time>
   </trkpt>
   <trkpt lat="-3.1019100" lon="37.3783680">
    <ele>4599.5</ele>
    <time>2026-06-22T12:09:04Z</time>
   </trkpt>
   <trkpt lat="-3.1019080" lon="37.3783660">
    <ele>4599.5</ele>
    <time>2026-06-22T12:09:05Z</time>
   </trkpt>
   <trkpt lat="-3.1019070" lon="37.3783630">
    <ele>4599.6</ele>
    <time>2026-06-22T12:09:06Z</time>
   </trkpt>
   <trkpt lat="-3.1019060" lon="37.3783600">
    <ele>4599.7</ele>
    <time>2026-06-22T12:09:07Z</time>
   </trkpt>
   <trkpt lat="-3.1019040" lon="37.3783560">
    <ele>4599.8</ele>
    <time>2026-06-22T12:09:08Z</time>
   </trkpt>
   <trkpt lat="-3.1019000" lon="37.3783530">
    <ele>4599.9</ele>
    <time>2026-06-22T12:09:09Z</time>
   </trkpt>
   <trkpt lat="-3.1018970" lon="37.3783520">
    <ele>4599.9</ele>
    <time>2026-06-22T12:09:10Z</time>
   </trkpt>
   <trkpt lat="-3.1018910" lon="37.3783530">
    <ele>4600.0</ele>
    <time>2026-06-22T12:09:11Z</time>
   </trkpt>
   <trkpt lat="-3.1018880" lon="37.3783550">
    <ele>4600.1</ele>
    <time>2026-06-22T12:09:12Z</time>
   </trkpt>
   <trkpt lat="-3.1018840" lon="37.3783590">
    <ele>4600.2</ele>
    <time>2026-06-22T12:09:13Z</time>
   </trkpt>
   <trkpt lat="-3.1018800" lon="37.3783640">
    <ele>4600.4</ele>
    <time>2026-06-22T12:09:14Z</time>
   </trkpt>
   <trkpt lat="-3.1018800" lon="37.3783660">
    <ele>4600.4</ele>
    <time>2026-06-22T12:09:15Z</time>
   </trkpt>
   <trkpt lat="-3.1018800" lon="37.3783680">
    <ele>4600.5</ele>
    <time>2026-06-22T12:09:16Z</time>
   </trkpt>
   <trkpt lat="-3.1018780" lon="37.3783700">
    <ele>4600.5</ele>
    <time>2026-06-22T12:09:17Z</time>
   </trkpt>
   <trkpt lat="-3.1018740" lon="37.3783730">
    <ele>4600.6</ele>
    <time>2026-06-22T12:09:18Z</time>
   </trkpt>
   <trkpt lat="-3.1018680" lon="37.3783730">
    <ele>4600.7</ele>
    <time>2026-06-22T12:09:19Z</time>
   </trkpt>
   <trkpt lat="-3.1018640" lon="37.3783710">
    <ele>4600.8</ele>
    <time>2026-06-22T12:09:20Z</time>
   </trkpt>
   <trkpt lat="-3.1018640" lon="37.3783690">
    <ele>4600.9</ele>
    <time>2026-06-22T12:09:21Z</time>
   </trkpt>
   <trkpt lat="-3.1018610" lon="37.3783660">
    <ele>4601.0</ele>
    <time>2026-06-22T12:09:22Z</time>
   </trkpt>
   <trkpt lat="-3.1018590" lon="37.3783620">
    <ele>4601.0</ele>
    <time>2026-06-22T12:09:23Z</time>
   </trkpt>
   <trkpt lat="-3.1018590" lon="37.3783610">
    <ele>4601.1</ele>
    <time>2026-06-22T12:09:24Z</time>
   </trkpt>
   <trkpt lat="-3.1018550" lon="37.3783570">
    <ele>4601.2</ele>
    <time>2026-06-22T12:09:25Z</time>
   </trkpt>
   <trkpt lat="-3.1018510" lon="37.3783560">
    <ele>4601.3</ele>
    <time>2026-06-22T12:09:26Z</time>
   </trkpt>
   <trkpt lat="-3.1018480" lon="37.3783520">
    <ele>4601.4</ele>
    <time>2026-06-22T12:09:27Z</time>
   </trkpt>
   <trkpt lat="-3.1018460" lon="37.3783490">
    <ele>4601.4</ele>
    <time>2026-06-22T12:09:28Z</time>
   </trkpt>
   <trkpt lat="-3.1018440" lon="37.3783470">
    <ele>4601.5</ele>
    <time>2026-06-22T12:09:29Z</time>
   </trkpt>
   <trkpt lat="-3.1018400" lon="37.3783450">
    <ele>4601.6</ele>
    <time>2026-06-22T12:09:30Z</time>
   </trkpt>
   <trkpt lat="-3.1018380" lon="37.3783460">
    <ele>4601.6</ele>
    <time>2026-06-22T12:09:31Z</time>
   </trkpt>
   <trkpt lat="-3.1018340" lon="37.3783490">
    <ele>4601.7</ele>
    <time>2026-06-22T12:09:32Z</time>
   </trkpt>
   <trkpt lat="-3.1018310" lon="37.3783510">
    <ele>4601.8</ele>
    <time>2026-06-22T12:09:33Z</time>
   </trkpt>
   <trkpt lat="-3.1018300" lon="37.3783540">
    <ele>4601.9</ele>
    <time>2026-06-22T12:09:34Z</time>
   </trkpt>
   <trkpt lat="-3.1018290" lon="37.3783590">
    <ele>4602.0</ele>
    <time>2026-06-22T12:09:35Z</time>
   </trkpt>
   <trkpt lat="-3.1018280" lon="37.3783610">
    <ele>4602.0</ele>
    <time>2026-06-22T12:09:36Z</time>
   </trkpt>
   <trkpt lat="-3.1018280" lon="37.3783640">
    <ele>4602.1</ele>
    <time>2026-06-22T12:09:37Z</time>
   </trkpt>
   <trkpt lat="-3.1018250" lon="37.3783660">
    <ele>4602.2</ele>
    <time>2026-06-22T12:09:38Z</time>
   </trkpt>
   <trkpt lat="-3.1018230" lon="37.3783670">
    <ele>4602.2</ele>
    <time>2026-06-22T12:09:39Z</time>
   </trkpt>
   <trkpt lat="-3.1018190" lon="37.3783690">
    <ele>4602.3</ele>
    <time>2026-06-22T12:09:40Z</time>
   </trkpt>
   <trkpt lat="-3.1018180" lon="37.3783720">
    <ele>4602.4</ele>
    <time>2026-06-22T12:09:41Z</time>
   </trkpt>
   <trkpt lat="-3.1018150" lon="37.3783730">
    <ele>4602.4</ele>
    <time>2026-06-22T12:09:42Z</time>
   </trkpt>
   <trkpt lat="-3.1018150" lon="37.3783760">
    <ele>4602.5</ele>
    <time>2026-06-22T12:09:43Z</time>
   </trkpt>
   <trkpt lat="-3.1018100" lon="37.3783770">
    <ele>4602.6</ele>
    <time>2026-06-22T12:09:44Z</time>
   </trkpt>
   <trkpt lat="-3.1018080" lon="37.3783760">
    <ele>4602.6</ele>
    <time>2026-06-22T12:09:45Z</time>
   </trkpt>
   <trkpt lat="-3.1018040" lon="37.3783780">
    <ele>4602.7</ele>
    <time>2026-06-22T12:09:46Z</time>
   </trkpt>
   <trkpt lat="-3.1018010" lon="37.3783820">
    <ele>4602.8</ele>
    <time>2026-06-22T12:09:47Z</time>
   </trkpt>
   <trkpt lat="-3.1018020" lon="37.3783850">
    <ele>4602.9</ele>
    <time>2026-06-22T12:09:48Z</time>
   </trkpt>
   <trkpt lat="-3.1018030" lon="37.3783900">
    <ele>4603.0</ele>
    <time>2026-06-22T12:09:49Z</time>
   </trkpt>
   <trkpt lat="-3.1018010" lon="37.3783940">
    <ele>4603.1</ele>
    <time>2026-06-22T12:09:50Z</time>
   </trkpt>
   <trkpt lat="-3.1018030" lon="37.3783970">
    <ele>4603.2</ele>
    <time>2026-06-22T12:09:51Z</time>
   </trkpt>
   <trkpt lat="-3.1018010" lon="37.3784000">
    <ele>4603.2</ele>
    <time>2026-06-22T12:09:52Z</time>
   </trkpt>
   <trkpt lat="-3.1017990" lon="37.3784020">
    <ele>4603.3</ele>
    <time>2026-06-22T12:09:53Z</time>
   </trkpt>
   <trkpt lat="-3.1017970" lon="37.3784020">
    <ele>4603.3</ele>
    <time>2026-06-22T12:09:54Z</time>
   </trkpt>
   <trkpt lat="-3.1017960" lon="37.3784050">
    <ele>4603.4</ele>
    <time>2026-06-22T12:09:55Z</time>
   </trkpt>
   <trkpt lat="-3.1017880" lon="37.3784070">
    <ele>4603.6</ele>
    <time>2026-06-22T12:09:56Z</time>
   </trkpt>
   <trkpt lat="-3.1017880" lon="37.3784070">
    <ele>4603.6</ele>
    <time>2026-06-22T12:09:57Z</time>
   </trkpt>
   <trkpt lat="-3.1017810" lon="37.3784040">
    <ele>4603.7</ele>
    <time>2026-06-22T12:09:58Z</time>
   </trkpt>
   <trkpt lat="-3.1017790" lon="37.3784010">
    <ele>4603.8</ele>
    <time>2026-06-22T12:09:59Z</time>
   </trkpt>
   <trkpt lat="-3.1017740" lon="37.3784000">
    <ele>4603.9</ele>
    <time>2026-06-22T12:10:00Z</time>
   </trkpt>
   <trkpt lat="-3.1017710" lon="37.3783970">
    <ele>4604.0</ele>
    <time>2026-06-22T12:10:01Z</time>
   </trkpt>
   <trkpt lat="-3.1017710" lon="37.3783980">
    <ele>4604.0</ele>
    <time>2026-06-22T12:10:02Z</time>
   </trkpt>
   <trkpt lat="-3.1017710" lon="37.3783950">
    <ele>4604.1</ele>
    <time>2026-06-22T12:10:03Z</time>
   </trkpt>
   <trkpt lat="-3.1017690" lon="37.3783910">
    <ele>4604.2</ele>
    <time>2026-06-22T12:10:04Z</time>
   </trkpt>
   <trkpt lat="-3.1017680" lon="37.3783870">
    <ele>4604.3</ele>
    <time>2026-06-22T12:10:05Z</time>
   </trkpt>
   <trkpt lat="-3.1017680" lon="37.3783830">
    <ele>4604.3</ele>
    <time>2026-06-22T12:10:06Z</time>
   </trkpt>
   <trkpt lat="-3.1017670" lon="37.3783790">
    <ele>4604.4</ele>
    <time>2026-06-22T12:10:07Z</time>
   </trkpt>
   <trkpt lat="-3.1017670" lon="37.3783750">
    <ele>4604.5</ele>
    <time>2026-06-22T12:10:08Z</time>
   </trkpt>
   <trkpt lat="-3.1017640" lon="37.3783720">
    <ele>4604.6</ele>
    <time>2026-06-22T12:10:09Z</time>
   </trkpt>
   <trkpt lat="-3.1017600" lon="37.3783670">
    <ele>4604.7</ele>
    <time>2026-06-22T12:10:10Z</time>
   </trkpt>
   <trkpt lat="-3.1017590" lon="37.3783660">
    <ele>4604.8</ele>
    <time>2026-06-22T12:10:11Z</time>
   </trkpt>
   <trkpt lat="-3.1017560" lon="37.3783660">
    <ele>4604.8</ele>
    <time>2026-06-22T12:10:12Z</time>
   </trkpt>
   <trkpt lat="-3.1017510" lon="37.3783630">
    <ele>4604.9</ele>
    <time>2026-06-22T12:10:13Z</time>
   </trkpt>
   <trkpt lat="-3.1017480" lon="37.3783640">
    <ele>4605.0</ele>
    <time>2026-06-22T12:10:14Z</time>
   </trkpt>
   <trkpt lat="-3.1017450" lon="37.3783670">
    <ele>4605.1</ele>
    <time>2026-06-22T12:10:15Z</time>
   </trkpt>
   <trkpt lat="-3.1017440" lon="37.3783700">
    <ele>4605.2</ele>
    <time>2026-06-22T12:10:16Z</time>
   </trkpt>
   <trkpt lat="-3.1017420" lon="37.3783760">
    <ele>4605.3</ele>
    <time>2026-06-22T12:10:17Z</time>
   </trkpt>
   <trkpt lat="-3.1017430" lon="37.3783790">
    <ele>4605.3</ele>
    <time>2026-06-22T12:10:18Z</time>
   </trkpt>
   <trkpt lat="-3.1017430" lon="37.3783830">
    <ele>4605.4</ele>
    <time>2026-06-22T12:10:19Z</time>
   </trkpt>
   <trkpt lat="-3.1017410" lon="37.3783880">
    <ele>4605.5</ele>
    <time>2026-06-22T12:10:20Z</time>
   </trkpt>
   <trkpt lat="-3.1017390" lon="37.3783920">
    <ele>4605.6</ele>
    <time>2026-06-22T12:10:21Z</time>
   </trkpt>
   <trkpt lat="-3.1017370" lon="37.3783930">
    <ele>4605.7</ele>
    <time>2026-06-22T12:10:22Z</time>
   </trkpt>
   <trkpt lat="-3.1017350" lon="37.3783960">
    <ele>4605.8</ele>
    <time>2026-06-22T12:10:23Z</time>
   </trkpt>
   <trkpt lat="-3.1017290" lon="37.3783980">
    <ele>4605.9</ele>
    <time>2026-06-22T12:10:24Z</time>
   </trkpt>
   <trkpt lat="-3.1017270" lon="37.3783990">
    <ele>4605.9</ele>
    <time>2026-06-22T12:10:25Z</time>
   </trkpt>
   <trkpt lat="-3.1017220" lon="37.3783990">
    <ele>4606.0</ele>
    <time>2026-06-22T12:10:26Z</time>
   </trkpt>
   <trkpt lat="-3.1017180" lon="37.3783980">
    <ele>4606.1</ele>
    <time>2026-06-22T12:10:27Z</time>
   </trkpt>
   <trkpt lat="-3.1017160" lon="37.3783960">
    <ele>4606.2</ele>
    <time>2026-06-22T12:10:28Z</time>
   </trkpt>
   <trkpt lat="-3.1017150" lon="37.3783960">
    <ele>4606.2</ele>
    <time>2026-06-22T12:10:29Z</time>
   </trkpt>
   <trkpt lat="-3.1017110" lon="37.3783920">
    <ele>4606.3</ele>
    <time>2026-06-22T12:10:30Z</time>
   </trkpt>
   <trkpt lat="-3.1017080" lon="37.3783900">
    <ele>4606.4</ele>
    <time>2026-06-22T12:10:31Z</time>
   </trkpt>
   <trkpt lat="-3.1017060" lon="37.3783860">
    <ele>4606.5</ele>
    <time>2026-06-22T12:10:32Z</time>
   </trkpt>
   <trkpt lat="-3.1017010" lon="37.3783820">
    <ele>4606.6</ele>
    <time>2026-06-22T12:10:33Z</time>
   </trkpt>
   <trkpt lat="-3.1016990" lon="37.3783800">
    <ele>4606.7</ele>
    <time>2026-06-22T12:10:34Z</time>
   </trkpt>
   <trkpt lat="-3.1016960" lon="37.3783760">
    <ele>4606.8</ele>
    <time>2026-06-22T12:10:35Z</time>
   </trkpt>
   <trkpt lat="-3.1016940" lon="37.3783740">
    <ele>4606.8</ele>
    <time>2026-06-22T12:10:36Z</time>
   </trkpt>
   <trkpt lat="-3.1016900" lon="37.3783740">
    <ele>4606.9</ele>
    <time>2026-06-22T12:10:37Z</time>
   </trkpt>
   <trkpt lat="-3.1016890" lon="37.3783730">
    <ele>4606.9</ele>
    <time>2026-06-22T12:10:38Z</time>
   </trkpt>
   <trkpt lat="-3.1016840" lon="37.3783700">
    <ele>4607.1</ele>
    <time>2026-06-22T12:10:39Z</time>
   </trkpt>
   <trkpt lat="-3.1016810" lon="37.3783710">
    <ele>4607.1</ele>
    <time>2026-06-22T12:10:40Z</time>
   </trkpt>
   <trkpt lat="-3.1016810" lon="37.3783810">
    <ele>4607.3</ele>
    <time>2026-06-22T12:10:41Z</time>
   </trkpt>
   <trkpt lat="-3.1016770" lon="37.3783810">
    <ele>4607.4</ele>
    <time>2026-06-22T12:10:42Z</time>
   </trkpt>
   <trkpt lat="-3.1016780" lon="37.3783860">
    <ele>4607.5</ele>
    <time>2026-06-22T12:10:43Z</time>
   </trkpt>
   <trkpt lat="-3.1016760" lon="37.3783920">
    <ele>4607.6</ele>
    <time>2026-06-22T12:10:44Z</time>
   </trkpt>
   <trkpt lat="-3.1016770" lon="37.3783970">
    <ele>4607.7</ele>
    <time>2026-06-22T12:10:45Z</time>
   </trkpt>
   <trkpt lat="-3.1016770" lon="37.3784010">
    <ele>4607.8</ele>
    <time>2026-06-22T12:10:46Z</time>
   </trkpt>
   <trkpt lat="-3.1016750" lon="37.3784040">
    <ele>4607.9</ele>
    <time>2026-06-22T12:10:47Z</time>
   </trkpt>
   <trkpt lat="-3.1016740" lon="37.3784080">
    <ele>4608.0</ele>
    <time>2026-06-22T12:10:48Z</time>
   </trkpt>
   <trkpt lat="-3.1016720" lon="37.3784120">
    <ele>4608.1</ele>
    <time>2026-06-22T12:10:49Z</time>
   </trkpt>
   <trkpt lat="-3.1016720" lon="37.3784150">
    <ele>4608.1</ele>
    <time>2026-06-22T12:10:50Z</time>
   </trkpt>
   <trkpt lat="-3.1016680" lon="37.3784170">
    <ele>4608.2</ele>
    <time>2026-06-22T12:10:51Z</time>
   </trkpt>
   <trkpt lat="-3.1016650" lon="37.3784160">
    <ele>4608.3</ele>
    <time>2026-06-22T12:10:52Z</time>
   </trkpt>
   <trkpt lat="-3.1016580" lon="37.3784140">
    <ele>4608.4</ele>
    <time>2026-06-22T12:10:53Z</time>
   </trkpt>
   <trkpt lat="-3.1016560" lon="37.3784100">
    <ele>4608.5</ele>
    <time>2026-06-22T12:10:54Z</time>
   </trkpt>
   <trkpt lat="-3.1016560" lon="37.3784070">
    <ele>4608.6</ele>
    <time>2026-06-22T12:10:55Z</time>
   </trkpt>
   <trkpt lat="-3.1016530" lon="37.3784000">
    <ele>4608.8</ele>
    <time>2026-06-22T12:10:56Z</time>
   </trkpt>
   <trkpt lat="-3.1016520" lon="37.3783950">
    <ele>4608.9</ele>
    <time>2026-06-22T12:10:57Z</time>
   </trkpt>
   <trkpt lat="-3.1016490" lon="37.3783930">
    <ele>4608.9</ele>
    <time>2026-06-22T12:10:58Z</time>
   </trkpt>
   <trkpt lat="-3.1016500" lon="37.3783910">
    <ele>4609.0</ele>
    <time>2026-06-22T12:10:59Z</time>
   </trkpt>
   <trkpt lat="-3.1016490" lon="37.3783900">
    <ele>4609.0</ele>
    <time>2026-06-22T12:11:00Z</time>
   </trkpt>
   <trkpt lat="-3.1016470" lon="37.3783850">
    <ele>4609.1</ele>
    <time>2026-06-22T12:11:01Z</time>
   </trkpt>
   <trkpt lat="-3.1016430" lon="37.3783840">
    <ele>4609.2</ele>
    <time>2026-06-22T12:11:02Z</time>
   </trkpt>
   <trkpt lat="-3.1016450" lon="37.3783860">
    <ele>4609.3</ele>
    <time>2026-06-22T12:11:03Z</time>
   </trkpt>
   <trkpt lat="-3.1016370" lon="37.3783840">
    <ele>4609.4</ele>
    <time>2026-06-22T12:11:04Z</time>
   </trkpt>
   <trkpt lat="-3.1016350" lon="37.3783870">
    <ele>4609.5</ele>
    <time>2026-06-22T12:11:05Z</time>
   </trkpt>
   <trkpt lat="-3.1016320" lon="37.3783880">
    <ele>4609.6</ele>
    <time>2026-06-22T12:11:06Z</time>
   </trkpt>
   <trkpt lat="-3.1016290" lon="37.3783910">
    <ele>4609.6</ele>
    <time>2026-06-22T12:11:07Z</time>
   </trkpt>
   <trkpt lat="-3.1016280" lon="37.3783930">
    <ele>4609.7</ele>
    <time>2026-06-22T12:11:08Z</time>
   </trkpt>
   <trkpt lat="-3.1016300" lon="37.3783980">
    <ele>4609.8</ele>
    <time>2026-06-22T12:11:09Z</time>
   </trkpt>
   <trkpt lat="-3.1016290" lon="37.3784020">
    <ele>4609.9</ele>
    <time>2026-06-22T12:11:10Z</time>
   </trkpt>
   <trkpt lat="-3.1016280" lon="37.3784060">
    <ele>4610.0</ele>
    <time>2026-06-22T12:11:11Z</time>
   </trkpt>
   <trkpt lat="-3.1016250" lon="37.3784100">
    <ele>4610.1</ele>
    <time>2026-06-22T12:11:12Z</time>
   </trkpt>
   <trkpt lat="-3.1016240" lon="37.3784160">
    <ele>4610.2</ele>
    <time>2026-06-22T12:11:13Z</time>
   </trkpt>
   <trkpt lat="-3.1016180" lon="37.3784220">
    <ele>4610.3</ele>
    <time>2026-06-22T12:11:14Z</time>
   </trkpt>
   <trkpt lat="-3.1016200" lon="37.3784250">
    <ele>4610.4</ele>
    <time>2026-06-22T12:11:15Z</time>
   </trkpt>
   <trkpt lat="-3.1016160" lon="37.3784300">
    <ele>4610.5</ele>
    <time>2026-06-22T12:11:16Z</time>
   </trkpt>
   <trkpt lat="-3.1016140" lon="37.3784350">
    <ele>4610.6</ele>
    <time>2026-06-22T12:11:17Z</time>
   </trkpt>
   <trkpt lat="-3.1016140" lon="37.3784380">
    <ele>4610.7</ele>
    <time>2026-06-22T12:11:18Z</time>
   </trkpt>
   <trkpt lat="-3.1016130" lon="37.3784400">
    <ele>4610.7</ele>
    <time>2026-06-22T12:11:19Z</time>
   </trkpt>
   <trkpt lat="-3.1016150" lon="37.3784430">
    <ele>4610.8</ele>
    <time>2026-06-22T12:11:20Z</time>
   </trkpt>
   <trkpt lat="-3.1016140" lon="37.3784470">
    <ele>4610.9</ele>
    <time>2026-06-22T12:11:21Z</time>
   </trkpt>
   <trkpt lat="-3.1016110" lon="37.3784530">
    <ele>4611.0</ele>
    <time>2026-06-22T12:11:22Z</time>
   </trkpt>
   <trkpt lat="-3.1016080" lon="37.3784540">
    <ele>4611.1</ele>
    <time>2026-06-22T12:11:23Z</time>
   </trkpt>
   <trkpt lat="-3.1016040" lon="37.3784550">
    <ele>4611.2</ele>
    <time>2026-06-22T12:11:24Z</time>
   </trkpt>
   <trkpt lat="-3.1016000" lon="37.3784560">
    <ele>4611.3</ele>
    <time>2026-06-22T12:11:25Z</time>
   </trkpt>
   <trkpt lat="-3.1015950" lon="37.3784580">
    <ele>4611.4</ele>
    <time>2026-06-22T12:11:26Z</time>
   </trkpt>
   <trkpt lat="-3.1015920" lon="37.3784570">
    <ele>4611.4</ele>
    <time>2026-06-22T12:11:27Z</time>
   </trkpt>
   <trkpt lat="-3.1015900" lon="37.3784570">
    <ele>4611.5</ele>
    <time>2026-06-22T12:11:28Z</time>
   </trkpt>
   <trkpt lat="-3.1015830" lon="37.3784570">
    <ele>4611.6</ele>
    <time>2026-06-22T12:11:29Z</time>
   </trkpt>
   <trkpt lat="-3.1015830" lon="37.3784560">
    <ele>4611.6</ele>
    <time>2026-06-22T12:11:30Z</time>
   </trkpt>
   <trkpt lat="-3.1015800" lon="37.3784530">
    <ele>4611.7</ele>
    <time>2026-06-22T12:11:31Z</time>
   </trkpt>
   <trkpt lat="-3.1015780" lon="37.3784510">
    <ele>4611.8</ele>
    <time>2026-06-22T12:11:32Z</time>
   </trkpt>
   <trkpt lat="-3.1015730" lon="37.3784490">
    <ele>4611.9</ele>
    <time>2026-06-22T12:11:33Z</time>
   </trkpt>
   <trkpt lat="-3.1015680" lon="37.3784470">
    <ele>4612.0</ele>
    <time>2026-06-22T12:11:34Z</time>
   </trkpt>
   <trkpt lat="-3.1015660" lon="37.3784460">
    <ele>4612.0</ele>
    <time>2026-06-22T12:11:35Z</time>
   </trkpt>
   <trkpt lat="-3.1015630" lon="37.3784480">
    <ele>4612.1</ele>
    <time>2026-06-22T12:11:36Z</time>
   </trkpt>
   <trkpt lat="-3.1015600" lon="37.3784450">
    <ele>4612.2</ele>
    <time>2026-06-22T12:11:37Z</time>
   </trkpt>
   <trkpt lat="-3.1015570" lon="37.3784450">
    <ele>4612.2</ele>
    <time>2026-06-22T12:11:38Z</time>
   </trkpt>
   <trkpt lat="-3.1015540" lon="37.3784440">
    <ele>4612.3</ele>
    <time>2026-06-22T12:11:39Z</time>
   </trkpt>
   <trkpt lat="-3.1015530" lon="37.3784420">
    <ele>4612.3</ele>
    <time>2026-06-22T12:11:40Z</time>
   </trkpt>
   <trkpt lat="-3.1015480" lon="37.3784410">
    <ele>4612.4</ele>
    <time>2026-06-22T12:11:41Z</time>
   </trkpt>
   <trkpt lat="-3.1015460" lon="37.3784380">
    <ele>4612.5</ele>
    <time>2026-06-22T12:11:42Z</time>
   </trkpt>
   <trkpt lat="-3.1015430" lon="37.3784350">
    <ele>4612.6</ele>
    <time>2026-06-22T12:11:43Z</time>
   </trkpt>
   <trkpt lat="-3.1015400" lon="37.3784320">
    <ele>4612.7</ele>
    <time>2026-06-22T12:11:44Z</time>
   </trkpt>
   <trkpt lat="-3.1015350" lon="37.3784300">
    <ele>4612.8</ele>
    <time>2026-06-22T12:11:45Z</time>
   </trkpt>
   <trkpt lat="-3.1015370" lon="37.3784270">
    <ele>4612.9</ele>
    <time>2026-06-22T12:11:46Z</time>
   </trkpt>
   <trkpt lat="-3.1015340" lon="37.3784240">
    <ele>4612.9</ele>
    <time>2026-06-22T12:11:47Z</time>
   </trkpt>
   <trkpt lat="-3.1015330" lon="37.3784200">
    <ele>4613.0</ele>
    <time>2026-06-22T12:11:48Z</time>
   </trkpt>
   <trkpt lat="-3.1015320" lon="37.3784170">
    <ele>4613.1</ele>
    <time>2026-06-22T12:11:49Z</time>
   </trkpt>
   <trkpt lat="-3.1015320" lon="37.3784130">
    <ele>4613.2</ele>
    <time>2026-06-22T12:11:50Z</time>
   </trkpt>
   <trkpt lat="-3.1015320" lon="37.3784090">
    <ele>4613.2</ele>
    <time>2026-06-22T12:11:51Z</time>
   </trkpt>
   <trkpt lat="-3.1015300" lon="37.3784040">
    <ele>4613.4</ele>
    <time>2026-06-22T12:11:52Z</time>
   </trkpt>
   <trkpt lat="-3.1015280" lon="37.3784040">
    <ele>4613.4</ele>
    <time>2026-06-22T12:11:53Z</time>
   </trkpt>
   <trkpt lat="-3.1015260" lon="37.3784040">
    <ele>4613.4</ele>
    <time>2026-06-22T12:11:54Z</time>
   </trkpt>
   <trkpt lat="-3.1015270" lon="37.3784020">
    <ele>4613.5</ele>
    <time>2026-06-22T12:11:55Z</time>
   </trkpt>
   <trkpt lat="-3.1015230" lon="37.3784010">
    <ele>4613.6</ele>
    <time>2026-06-22T12:11:56Z</time>
   </trkpt>
   <trkpt lat="-3.1015200" lon="37.3783990">
    <ele>4613.6</ele>
    <time>2026-06-22T12:11:57Z</time>
   </trkpt>
   <trkpt lat="-3.1015180" lon="37.3783970">
    <ele>4613.7</ele>
    <time>2026-06-22T12:11:58Z</time>
   </trkpt>
   <trkpt lat="-3.1015130" lon="37.3783980">
    <ele>4613.8</ele>
    <time>2026-06-22T12:11:59Z</time>
   </trkpt>
   <trkpt lat="-3.1015100" lon="37.3784010">
    <ele>4613.9</ele>
    <time>2026-06-22T12:12:00Z</time>
   </trkpt>
   <trkpt lat="-3.1015100" lon="37.3784020">
    <ele>4613.9</ele>
    <time>2026-06-22T12:12:01Z</time>
   </trkpt>
   <trkpt lat="-3.1015100" lon="37.3784030">
    <ele>4613.9</ele>
    <time>2026-06-22T12:12:02Z</time>
   </trkpt>
   <trkpt lat="-3.1015060" lon="37.3784090">
    <ele>4614.0</ele>
    <time>2026-06-22T12:12:03Z</time>
   </trkpt>
   <trkpt lat="-3.1015060" lon="37.3784110">
    <ele>4614.1</ele>
    <time>2026-06-22T12:12:04Z</time>
   </trkpt>
   <trkpt lat="-3.1015080" lon="37.3784110">
    <ele>4614.1</ele>
    <time>2026-06-22T12:12:05Z</time>
   </trkpt>
   <trkpt lat="-3.1015050" lon="37.3784140">
    <ele>4614.2</ele>
    <time>2026-06-22T12:12:06Z</time>
   </trkpt>
   <trkpt lat="-3.1015000" lon="37.3784180">
    <ele>4614.3</ele>
    <time>2026-06-22T12:12:07Z</time>
   </trkpt>
   <trkpt lat="-3.1014940" lon="37.3784230">
    <ele>4614.5</ele>
    <time>2026-06-22T12:12:08Z</time>
   </trkpt>
   <trkpt lat="-3.1014930" lon="37.3784280">
    <ele>4614.6</ele>
    <time>2026-06-22T12:12:09Z</time>
   </trkpt>
   <trkpt lat="-3.1014890" lon="37.3784320">
    <ele>4614.7</ele>
    <time>2026-06-22T12:12:10Z</time>
   </trkpt>
   <trkpt lat="-3.1014890" lon="37.3784350">
    <ele>4614.7</ele>
    <time>2026-06-22T12:12:11Z</time>
   </trkpt>
   <trkpt lat="-3.1014860" lon="37.3784410">
    <ele>4614.9</ele>
    <time>2026-06-22T12:12:12Z</time>
   </trkpt>
   <trkpt lat="-3.1014850" lon="37.3784460">
    <ele>4615.0</ele>
    <time>2026-06-22T12:12:13Z</time>
   </trkpt>
   <trkpt lat="-3.1014830" lon="37.3784490">
    <ele>4615.0</ele>
    <time>2026-06-22T12:12:14Z</time>
   </trkpt>
   <trkpt lat="-3.1014830" lon="37.3784480">
    <ele>4615.0</ele>
    <time>2026-06-22T12:12:15Z</time>
   </trkpt>
   <trkpt lat="-3.1014830" lon="37.3784490">
    <ele>4615.1</ele>
    <time>2026-06-22T12:12:16Z</time>
   </trkpt>
   <trkpt lat="-3.1014760" lon="37.3784530">
    <ele>4615.2</ele>
    <time>2026-06-22T12:12:17Z</time>
   </trkpt>
   <trkpt lat="-3.1014720" lon="37.3784550">
    <ele>4615.3</ele>
    <time>2026-06-22T12:12:18Z</time>
   </trkpt>
   <trkpt lat="-3.1014690" lon="37.3784540">
    <ele>4615.4</ele>
    <time>2026-06-22T12:12:19Z</time>
   </trkpt>
   <trkpt lat="-3.1014640" lon="37.3784580">
    <ele>4615.5</ele>
    <time>2026-06-22T12:12:20Z</time>
   </trkpt>
   <trkpt lat="-3.1014590" lon="37.3784610">
    <ele>4615.6</ele>
    <time>2026-06-22T12:12:21Z</time>
   </trkpt>
   <trkpt lat="-3.1014580" lon="37.3784600">
    <ele>4615.6</ele>
    <time>2026-06-22T12:12:22Z</time>
   </trkpt>
   <trkpt lat="-3.1014580" lon="37.3784580">
    <ele>4615.6</ele>
    <time>2026-06-22T12:12:23Z</time>
   </trkpt>
   <trkpt lat="-3.1014550" lon="37.3784610">
    <ele>4615.7</ele>
    <time>2026-06-22T12:12:24Z</time>
   </trkpt>
   <trkpt lat="-3.1014520" lon="37.3784610">
    <ele>4615.8</ele>
    <time>2026-06-22T12:12:25Z</time>
   </trkpt>
   <trkpt lat="-3.1014450" lon="37.3784640">
    <ele>4615.9</ele>
    <time>2026-06-22T12:12:26Z</time>
   </trkpt>
   <trkpt lat="-3.1014420" lon="37.3784660">
    <ele>4616.0</ele>
    <time>2026-06-22T12:12:27Z</time>
   </trkpt>
   <trkpt lat="-3.1014380" lon="37.3784690">
    <ele>4616.0</ele>
    <time>2026-06-22T12:12:28Z</time>
   </trkpt>
   <trkpt lat="-3.1014350" lon="37.3784720">
    <ele>4616.1</ele>
    <time>2026-06-22T12:12:29Z</time>
   </trkpt>
   <trkpt lat="-3.1014310" lon="37.3784750">
    <ele>4616.2</ele>
    <time>2026-06-22T12:12:30Z</time>
   </trkpt>
   <trkpt lat="-3.1014300" lon="37.3784780">
    <ele>4616.3</ele>
    <time>2026-06-22T12:12:31Z</time>
   </trkpt>
   <trkpt lat="-3.1014320" lon="37.3784770">
    <ele>4616.3</ele>
    <time>2026-06-22T12:12:32Z</time>
   </trkpt>
   <trkpt lat="-3.1014330" lon="37.3784780">
    <ele>4616.3</ele>
    <time>2026-06-22T12:12:33Z</time>
   </trkpt>
   <trkpt lat="-3.1014320" lon="37.3784790">
    <ele>4616.3</ele>
    <time>2026-06-22T12:12:34Z</time>
   </trkpt>
   <trkpt lat="-3.1014340" lon="37.3784800">
    <ele>4616.4</ele>
    <time>2026-06-22T12:12:35Z</time>
   </trkpt>
   <trkpt lat="-3.1014340" lon="37.3784800">
    <ele>4616.4</ele>
    <time>2026-06-22T12:12:36Z</time>
   </trkpt>
   <trkpt lat="-3.1014350" lon="37.3784820">
    <ele>4616.4</ele>
    <time>2026-06-22T12:12:37Z</time>
   </trkpt>
   <trkpt lat="-3.1014360" lon="37.3784820">
    <ele>4616.4</ele>
    <time>2026-06-22T12:12:38Z</time>
   </trkpt>
   <trkpt lat="-3.1014370" lon="37.3784830">
    <ele>4616.5</ele>
    <time>2026-06-22T12:12:39Z</time>
   </trkpt>
   <trkpt lat="-3.1014350" lon="37.3784850">
    <ele>4616.5</ele>
    <time>2026-06-22T12:12:40Z</time>
   </trkpt>
   <trkpt lat="-3.1014330" lon="37.3784880">
    <ele>4616.6</ele>
    <time>2026-06-22T12:12:41Z</time>
   </trkpt>
   <trkpt lat="-3.1014360" lon="37.3784900">
    <ele>4616.6</ele>
    <time>2026-06-22T12:12:42Z</time>
   </trkpt>
   <trkpt lat="-3.1014350" lon="37.3784920">
    <ele>4616.7</ele>
    <time>2026-06-22T12:12:43Z</time>
   </trkpt>
   <trkpt lat="-3.1014310" lon="37.3784940">
    <ele>4616.8</ele>
    <time>2026-06-22T12:12:44Z</time>
   </trkpt>
   <trkpt lat="-3.1014330" lon="37.3784950">
    <ele>4616.8</ele>
    <time>2026-06-22T12:12:45Z</time>
   </trkpt>
   <trkpt lat="-3.1014320" lon="37.3784950">
    <ele>4616.8</ele>
    <time>2026-06-22T12:12:46Z</time>
   </trkpt>
   <trkpt lat="-3.1014320" lon="37.3784950">
    <ele>4616.8</ele>
    <time>2026-06-22T12:12:47Z</time>
   </trkpt>
   <trkpt lat="-3.1014320" lon="37.3784940">
    <ele>4616.8</ele>
    <time>2026-06-22T12:12:48Z</time>
   </trkpt>
   <trkpt lat="-3.1014320" lon="37.3784940">
    <ele>4616.8</ele>
    <time>2026-06-22T12:12:49Z</time>
   </trkpt>
   <trkpt lat="-3.1014320" lon="37.3784930">
    <ele>4616.9</ele>
    <time>2026-06-22T12:12:50Z</time>
   </trkpt>
   <trkpt lat="-3.1014290" lon="37.3784980">
    <ele>4617.0</ele>
    <time>2026-06-22T12:12:51Z</time>
   </trkpt>
   <trkpt lat="-3.1014280" lon="37.3785030">
    <ele>4617.0</ele>
    <time>2026-06-22T12:12:52Z</time>
   </trkpt>
   <trkpt lat="-3.1014210" lon="37.3785100">
    <ele>4617.2</ele>
    <time>2026-06-22T12:12:53Z</time>
   </trkpt>
   <trkpt lat="-3.1014230" lon="37.3785160">
    <ele>4617.3</ele>
    <time>2026-06-22T12:12:54Z</time>
   </trkpt>
   <trkpt lat="-3.1014220" lon="37.3785220">
    <ele>4617.4</ele>
    <time>2026-06-22T12:12:55Z</time>
   </trkpt>
   <trkpt lat="-3.1014220" lon="37.3785210">
    <ele>4617.5</ele>
    <time>2026-06-22T12:12:56Z</time>
   </trkpt>
   <trkpt lat="-3.1014210" lon="37.3785190">
    <ele>4617.5</ele>
    <time>2026-06-22T12:12:57Z</time>
   </trkpt>
   <trkpt lat="-3.1014200" lon="37.3785180">
    <ele>4617.5</ele>
    <time>2026-06-22T12:12:58Z</time>
   </trkpt>
   <trkpt lat="-3.1014190" lon="37.3785200">
    <ele>4617.6</ele>
    <time>2026-06-22T12:12:59Z</time>
   </trkpt>
   <trkpt lat="-3.1014160" lon="37.3785220">
    <ele>4617.6</ele>
    <time>2026-06-22T12:13:00Z</time>
   </trkpt>
   <trkpt lat="-3.1014150" lon="37.3785240">
    <ele>4617.7</ele>
    <time>2026-06-22T12:13:01Z</time>
   </trkpt>
   <trkpt lat="-3.1014160" lon="37.3785240">
    <ele>4617.7</ele>
    <time>2026-06-22T12:13:02Z</time>
   </trkpt>
   <trkpt lat="-3.1014150" lon="37.3785300">
    <ele>4617.8</ele>
    <time>2026-06-22T12:13:03Z</time>
   </trkpt>
   <trkpt lat="-3.1014160" lon="37.3785320">
    <ele>4617.8</ele>
    <time>2026-06-22T12:13:04Z</time>
   </trkpt>
   <trkpt lat="-3.1014140" lon="37.3785360">
    <ele>4617.9</ele>
    <time>2026-06-22T12:13:05Z</time>
   </trkpt>
   <trkpt lat="-3.1014130" lon="37.3785370">
    <ele>4617.9</ele>
    <time>2026-06-22T12:13:06Z</time>
   </trkpt>
   <trkpt lat="-3.1014140" lon="37.3785380">
    <ele>4618.0</ele>
    <time>2026-06-22T12:13:07Z</time>
   </trkpt>
   <trkpt lat="-3.1014110" lon="37.3785460">
    <ele>4618.1</ele>
    <time>2026-06-22T12:13:08Z</time>
   </trkpt>
   <trkpt lat="-3.1014100" lon="37.3785480">
    <ele>4618.1</ele>
    <time>2026-06-22T12:13:09Z</time>
   </trkpt>
   <trkpt lat="-3.1014070" lon="37.3785500">
    <ele>4618.2</ele>
    <time>2026-06-22T12:13:10Z</time>
   </trkpt>
   <trkpt lat="-3.1014070" lon="37.3785490">
    <ele>4618.2</ele>
    <time>2026-06-22T12:13:11Z</time>
   </trkpt>
   <trkpt lat="-3.1014060" lon="37.3785480">
    <ele>4618.2</ele>
    <time>2026-06-22T12:13:12Z</time>
   </trkpt>
   <trkpt lat="-3.1014020" lon="37.3785510">
    <ele>4618.3</ele>
    <time>2026-06-22T12:13:13Z</time>
   </trkpt>
   <trkpt lat="-3.1014040" lon="37.3785510">
    <ele>4618.3</ele>
    <time>2026-06-22T12:13:14Z</time>
   </trkpt>
   <trkpt lat="-3.1014040" lon="37.3785520">
    <ele>4618.3</ele>
    <time>2026-06-22T12:13:15Z</time>
   </trkpt>
   <trkpt lat="-3.1014040" lon="37.3785530">
    <ele>4618.4</ele>
    <time>2026-06-22T12:13:16Z</time>
   </trkpt>
   <trkpt lat="-3.1014050" lon="37.3785570">
    <ele>4618.4</ele>
    <time>2026-06-22T12:13:17Z</time>
   </trkpt>
   <trkpt lat="-3.1014020" lon="37.3785640">
    <ele>4618.6</ele>
    <time>2026-06-22T12:13:18Z</time>
   </trkpt>
   <trkpt lat="-3.1014020" lon="37.3785690">
    <ele>4618.6</ele>
    <time>2026-06-22T12:13:19Z</time>
   </trkpt>
   <trkpt lat="-3.1014020" lon="37.3785760">
    <ele>4618.7</ele>
    <time>2026-06-22T12:13:20Z</time>
   </trkpt>
   <trkpt lat="-3.1014050" lon="37.3785800">
    <ele>4618.8</ele>
    <time>2026-06-22T12:13:21Z</time>
   </trkpt>
   <trkpt lat="-3.1014050" lon="37.3785850">
    <ele>4618.9</ele>
    <time>2026-06-22T12:13:22Z</time>
   </trkpt>
   <trkpt lat="-3.1014020" lon="37.3785930">
    <ele>4619.0</ele>
    <time>2026-06-22T12:13:23Z</time>
   </trkpt>
   <trkpt lat="-3.1014010" lon="37.3785960">
    <ele>4619.1</ele>
    <time>2026-06-22T12:13:24Z</time>
   </trkpt>
   <trkpt lat="-3.1014040" lon="37.3785990">
    <ele>4619.2</ele>
    <time>2026-06-22T12:13:25Z</time>
   </trkpt>
   <trkpt lat="-3.1014050" lon="37.3786020">
    <ele>4619.2</ele>
    <time>2026-06-22T12:13:26Z</time>
   </trkpt>
   <trkpt lat="-3.1014070" lon="37.3786000">
    <ele>4619.3</ele>
    <time>2026-06-22T12:13:27Z</time>
   </trkpt>
   <trkpt lat="-3.1014070" lon="37.3786000">
    <ele>4619.3</ele>
    <time>2026-06-22T12:13:28Z</time>
   </trkpt>
   <trkpt lat="-3.1014070" lon="37.3786000">
    <ele>4619.3</ele>
    <time>2026-06-22T12:13:29Z</time>
   </trkpt>
   <trkpt lat="-3.1014070" lon="37.3786010">
    <ele>4619.3</ele>
    <time>2026-06-22T12:13:30Z</time>
   </trkpt>
   <trkpt lat="-3.1014080" lon="37.3786020">
    <ele>4619.3</ele>
    <time>2026-06-22T12:13:31Z</time>
   </trkpt>
   <trkpt lat="-3.1014090" lon="37.3786000">
    <ele>4619.3</ele>
    <time>2026-06-22T12:13:32Z</time>
   </trkpt>
   <trkpt lat="-3.1014120" lon="37.3786020">
    <ele>4619.4</ele>
    <time>2026-06-22T12:13:33Z</time>
   </trkpt>
   <trkpt lat="-3.1014130" lon="37.3786020">
    <ele>4619.4</ele>
    <time>2026-06-22T12:13:34Z</time>
   </trkpt>
   <trkpt lat="-3.1014130" lon="37.3786030">
    <ele>4619.4</ele>
    <time>2026-06-22T12:13:35Z</time>
   </trkpt>
   <trkpt lat="-3.1014140" lon="37.3786020">
    <ele>4619.4</ele>
    <time>2026-06-22T12:13:36Z</time>
   </trkpt>
   <trkpt lat="-3.1014150" lon="37.3786010">
    <ele>4619.5</ele>
    <time>2026-06-22T12:13:37Z</time>
   </trkpt>
   <trkpt lat="-3.1014160" lon="37.3786030">
    <ele>4619.5</ele>
    <time>2026-06-22T12:13:38Z</time>
   </trkpt>
   <trkpt lat="-3.1014260" lon="37.3786070">
    <ele>4619.7</ele>
    <time>2026-06-22T12:13:39Z</time>
   </trkpt>
   <trkpt lat="-3.1014240" lon="37.3786050">
    <ele>4619.7</ele>
    <time>2026-06-22T12:13:40Z</time>
   </trkpt>
   <trkpt lat="-3.1014240" lon="37.3786050">
    <ele>4619.7</ele>
    <time>2026-06-22T12:13:41Z</time>
   </trkpt>
   <trkpt lat="-3.1014200" lon="37.3786030">
    <ele>4619.8</ele>
    <time>2026-06-22T12:13:42Z</time>
   </trkpt>
   <trkpt lat="-3.1014200" lon="37.3786020">
    <ele>4619.8</ele>
    <time>2026-06-22T12:13:43Z</time>
   </trkpt>
   <trkpt lat="-3.1014190" lon="37.3786020">
    <ele>4619.8</ele>
    <time>2026-06-22T12:13:44Z</time>
   </trkpt>
   <trkpt lat="-3.1014190" lon="37.3786020">
    <ele>4619.8</ele>
    <time>2026-06-22T12:13:45Z</time>
   </trkpt>
   <trkpt lat="-3.1014210" lon="37.3786010">
    <ele>4619.9</ele>
    <time>2026-06-22T12:13:46Z</time>
   </trkpt>
   <trkpt lat="-3.1014220" lon="37.3786020">
    <ele>4619.9</ele>
    <time>2026-06-22T12:13:47Z</time>
   </trkpt>
   <trkpt lat="-3.1014220" lon="37.3786020">
    <ele>4619.9</ele>
    <time>2026-06-22T12:13:48Z</time>
   </trkpt>
   <trkpt lat="-3.1014230" lon="37.3786020">
    <ele>4619.9</ele>
    <time>2026-06-22T12:13:49Z</time>
   </trkpt>
   <trkpt lat="-3.1014230" lon="37.3786020">
    <ele>4619.9</ele>
    <time>2026-06-22T12:13:50Z</time>
   </trkpt>
   <trkpt lat="-3.1014230" lon="37.3786020">
    <ele>4619.9</ele>
    <time>2026-06-22T12:13:51Z</time>
   </trkpt>
   <trkpt lat="-3.1014230" lon="37.3786020">
    <ele>4619.9</ele>
    <time>2026-06-22T12:13:52Z</time>
   </trkpt>
   <trkpt lat="-3.1014230" lon="37.3786020">
    <ele>4619.9</ele>
    <time>2026-06-22T12:13:53Z</time>
   </trkpt>
   <trkpt lat="-3.1014250" lon="37.3786020">
    <ele>4619.9</ele>
    <time>2026-06-22T12:13:54Z</time>
   </trkpt>
   <trkpt lat="-3.1014260" lon="37.3786020">
    <ele>4619.9</ele>
    <time>2026-06-22T12:13:55Z</time>
   </trkpt>
   <trkpt lat="-3.1014260" lon="37.3786020">
    <ele>4619.9</ele>
    <time>2026-06-22T12:13:56Z</time>
   </trkpt>
   <trkpt lat="-3.1014260" lon="37.3786020">
    <ele>4619.9</ele>
    <time>2026-06-22T12:13:57Z</time>
   </trkpt>
   <trkpt lat="-3.1014260" lon="37.3786010">
    <ele>4620.0</ele>
    <time>2026-06-22T12:13:58Z</time>
   </trkpt>
   <trkpt lat="-3.1014260" lon="37.3786010">
    <ele>4620.0</ele>
    <time>2026-06-22T12:13:59Z</time>
   </trkpt>
   <trkpt lat="-3.1014260" lon="37.3786010">
    <ele>4620.0</ele>
    <time>2026-06-22T12:14:00Z</time>
   </trkpt>
   <trkpt lat="-3.1014270" lon="37.3786020">
    <ele>4620.0</ele>
    <time>2026-06-22T12:14:01Z</time>
   </trkpt>
   <trkpt lat="-3.1014270" lon="37.3786020">
    <ele>4620.0</ele>
    <time>2026-06-22T12:14:02Z</time>
   </trkpt>
   <trkpt lat="-3.1014280" lon="37.3786030">
    <ele>4620.0</ele>
    <time>2026-06-22T12:14:03Z</time>
   </trkpt>
   <trkpt lat="-3.1014270" lon="37.3786010">
    <ele>4620.0</ele>
    <time>2026-06-22T12:14:04Z</time>
   </trkpt>
   <trkpt lat="-3.1014270" lon="37.3786030">
    <ele>4620.1</ele>
    <time>2026-06-22T12:14:05Z</time>
   </trkpt>
   <trkpt lat="-3.1014260" lon="37.3786010">
    <ele>4620.1</ele>
    <time>2026-06-22T12:14:06Z</time>
   </trkpt>
   <trkpt lat="-3.1014280" lon="37.3786030">
    <ele>4620.2</ele>
    <time>2026-06-22T12:14:07Z</time>
   </trkpt>
   <trkpt lat="-3.1014280" lon="37.3785980">
    <ele>4620.2</ele>
    <time>2026-06-22T12:14:08Z</time>
   </trkpt>
   <trkpt lat="-3.1014270" lon="37.3785960">
    <ele>4620.3</ele>
    <time>2026-06-22T12:14:09Z</time>
   </trkpt>
   <trkpt lat="-3.1014290" lon="37.3786000">
    <ele>4620.3</ele>
    <time>2026-06-22T12:14:10Z</time>
   </trkpt>
   <trkpt lat="-3.1014270" lon="37.3786020">
    <ele>4620.4</ele>
    <time>2026-06-22T12:14:11Z</time>
   </trkpt>
   <trkpt lat="-3.1014290" lon="37.3786000">
    <ele>4620.4</ele>
    <time>2026-06-22T12:14:12Z</time>
   </trkpt>
   <trkpt lat="-3.1014290" lon="37.3786000">
    <ele>4620.4</ele>
    <time>2026-06-22T12:14:13Z</time>
   </trkpt>
  </trkseg>
 </trk>
</gpx>
